<?xml version="1.0" encoding="UTF-8"?>
<gpx version="1.1" creator="https://www.youtrack.es" xsi:schemaLocation="http://www.topografix.com/GPX/1/1 http://www.topografix.com/GPX/1/1/gpx.xsd http://www.garmin.com/xmlschemas/GpxExtensions/v3 http://www.garmin.com/xmlschemas/GpxExtensionsv3.xsd http://www.garmin.com/xmlschemas/TrackPointExtension/v1 http://www.garmin.com/xmlschemas/TrackPointExtensionv1.xsd" xmlns:gpxtpx="http://www.garmin.com/xmlschemas/TrackPointExtension/v1" xmlns:gpxx="http://www.garmin.com/xmlschemas/GpxExtensions/v3" xmlns:xsi="http://www.w3.org/2001/XMLSchema-instance">
  <metadata>
    <link href="https://www.youtrack.es">
      <text>YouTrack.es</text>
    </link>
    <time>2026-05-09T01:30:35Z</time>
  </metadata>
  <trk>
    <src>https://www.youtrack.es</src>
    <link href="https://www.youtrack.es/ruta/35688-logrono-burgos">
      <text>YouTrack.es</text>
    </link>
    <trkseg>
      <trkpt lat="42.4676920" lon="-2.4460530">
        <ele>377.4</ele>
        <time>2022-08-29T03:25:53Z</time>
      </trkpt>
      <trkpt lat="42.4676820" lon="-2.4460500">
        <ele>385.8</ele>
        <time>2022-08-29T03:25:54Z</time>
      </trkpt>
      <trkpt lat="42.4676650" lon="-2.4460450">
        <ele>386.2</ele>
        <time>2022-08-29T03:25:55Z</time>
      </trkpt>
      <trkpt lat="42.4676480" lon="-2.4460450">
        <ele>386.0</ele>
        <time>2022-08-29T03:25:56Z</time>
      </trkpt>
      <trkpt lat="42.4676320" lon="-2.4460470">
        <ele>385.8</ele>
        <time>2022-08-29T03:25:57Z</time>
      </trkpt>
      <trkpt lat="42.4676210" lon="-2.4460630">
        <ele>385.4</ele>
        <time>2022-08-29T03:25:58Z</time>
      </trkpt>
      <trkpt lat="42.4676060" lon="-2.4460800">
        <ele>385.2</ele>
        <time>2022-08-29T03:25:59Z</time>
      </trkpt>
      <trkpt lat="42.4675880" lon="-2.4461070">
        <ele>385.2</ele>
        <time>2022-08-29T03:26:00Z</time>
      </trkpt>
      <trkpt lat="42.4675800" lon="-2.4461510">
        <ele>385.2</ele>
        <time>2022-08-29T03:26:01Z</time>
      </trkpt>
      <trkpt lat="42.4675690" lon="-2.4461890">
        <ele>385.4</ele>
        <time>2022-08-29T03:26:02Z</time>
      </trkpt>
      <trkpt lat="42.4675540" lon="-2.4462320">
        <ele>385.4</ele>
        <time>2022-08-29T03:26:03Z</time>
      </trkpt>
      <trkpt lat="42.4675410" lon="-2.4462760">
        <ele>385.0</ele>
        <time>2022-08-29T03:26:04Z</time>
      </trkpt>
      <trkpt lat="42.4675300" lon="-2.4463160">
        <ele>385.0</ele>
        <time>2022-08-29T03:26:05Z</time>
      </trkpt>
      <trkpt lat="42.4675210" lon="-2.4463600">
        <ele>385.0</ele>
        <time>2022-08-29T03:26:06Z</time>
      </trkpt>
      <trkpt lat="42.4675140" lon="-2.4464000">
        <ele>385.2</ele>
        <time>2022-08-29T03:26:07Z</time>
      </trkpt>
      <trkpt lat="42.4675130" lon="-2.4464460">
        <ele>385.0</ele>
        <time>2022-08-29T03:26:08Z</time>
      </trkpt>
      <trkpt lat="42.4675110" lon="-2.4464900">
        <ele>385.0</ele>
        <time>2022-08-29T03:26:09Z</time>
      </trkpt>
      <trkpt lat="42.4675530" lon="-2.4465640">
        <ele>385.2</ele>
        <time>2022-08-29T03:26:10Z</time>
      </trkpt>
      <trkpt lat="42.4675740" lon="-2.4466070">
        <ele>385.4</ele>
        <time>2022-08-29T03:26:11Z</time>
      </trkpt>
      <trkpt lat="42.4675710" lon="-2.4466510">
        <ele>385.2</ele>
        <time>2022-08-29T03:26:12Z</time>
      </trkpt>
      <trkpt lat="42.4675710" lon="-2.4466780">
        <ele>385.2</ele>
        <time>2022-08-29T03:26:13Z</time>
      </trkpt>
      <trkpt lat="42.4675650" lon="-2.4467020">
        <ele>385.2</ele>
        <time>2022-08-29T03:26:14Z</time>
      </trkpt>
      <trkpt lat="42.4675610" lon="-2.4467270">
        <ele>385.2</ele>
        <time>2022-08-29T03:26:15Z</time>
      </trkpt>
      <trkpt lat="42.4675540" lon="-2.4467540">
        <ele>385.2</ele>
        <time>2022-08-29T03:26:16Z</time>
      </trkpt>
      <trkpt lat="42.4675460" lon="-2.4467890">
        <ele>385.2</ele>
        <time>2022-08-29T03:26:17Z</time>
      </trkpt>
      <trkpt lat="42.4675410" lon="-2.4468230">
        <ele>385.2</ele>
        <time>2022-08-29T03:26:18Z</time>
      </trkpt>
      <trkpt lat="42.4675380" lon="-2.4468610">
        <ele>385.2</ele>
        <time>2022-08-29T03:26:19Z</time>
      </trkpt>
      <trkpt lat="42.4675330" lon="-2.4468970">
        <ele>385.0</ele>
        <time>2022-08-29T03:26:20Z</time>
      </trkpt>
      <trkpt lat="42.4675530" lon="-2.4469570">
        <ele>385.2</ele>
        <time>2022-08-29T03:26:21Z</time>
      </trkpt>
      <trkpt lat="42.4675760" lon="-2.4470190">
        <ele>385.0</ele>
        <time>2022-08-29T03:26:22Z</time>
      </trkpt>
      <trkpt lat="42.4676030" lon="-2.4470490">
        <ele>385.0</ele>
        <time>2022-08-29T03:26:23Z</time>
      </trkpt>
      <trkpt lat="42.4676140" lon="-2.4470890">
        <ele>384.8</ele>
        <time>2022-08-29T03:26:24Z</time>
      </trkpt>
      <trkpt lat="42.4676250" lon="-2.4471270">
        <ele>384.8</ele>
        <time>2022-08-29T03:26:25Z</time>
      </trkpt>
      <trkpt lat="42.4676580" lon="-2.4471430">
        <ele>384.8</ele>
        <time>2022-08-29T03:26:26Z</time>
      </trkpt>
      <trkpt lat="42.4676730" lon="-2.4471710">
        <ele>384.8</ele>
        <time>2022-08-29T03:26:27Z</time>
      </trkpt>
      <trkpt lat="42.4676850" lon="-2.4472000">
        <ele>384.6</ele>
        <time>2022-08-29T03:26:28Z</time>
      </trkpt>
      <trkpt lat="42.4676880" lon="-2.4472450">
        <ele>384.6</ele>
        <time>2022-08-29T03:26:29Z</time>
      </trkpt>
      <trkpt lat="42.4676880" lon="-2.4472990">
        <ele>384.6</ele>
        <time>2022-08-29T03:26:30Z</time>
      </trkpt>
      <trkpt lat="42.4676880" lon="-2.4473410">
        <ele>384.6</ele>
        <time>2022-08-29T03:26:31Z</time>
      </trkpt>
      <trkpt lat="42.4676890" lon="-2.4473810">
        <ele>384.6</ele>
        <time>2022-08-29T03:26:32Z</time>
      </trkpt>
      <trkpt lat="42.4676880" lon="-2.4474200">
        <ele>384.8</ele>
        <time>2022-08-29T03:26:33Z</time>
      </trkpt>
      <trkpt lat="42.4676870" lon="-2.4474590">
        <ele>384.6</ele>
        <time>2022-08-29T03:26:34Z</time>
      </trkpt>
      <trkpt lat="42.4676870" lon="-2.4474910">
        <ele>384.8</ele>
        <time>2022-08-29T03:26:35Z</time>
      </trkpt>
      <trkpt lat="42.4676860" lon="-2.4475240">
        <ele>384.6</ele>
        <time>2022-08-29T03:26:36Z</time>
      </trkpt>
      <trkpt lat="42.4676860" lon="-2.4475470">
        <ele>384.8</ele>
        <time>2022-08-29T03:26:37Z</time>
      </trkpt>
      <trkpt lat="42.4676870" lon="-2.4475780">
        <ele>384.8</ele>
        <time>2022-08-29T03:26:38Z</time>
      </trkpt>
      <trkpt lat="42.4676870" lon="-2.4476060">
        <ele>385.0</ele>
        <time>2022-08-29T03:26:39Z</time>
      </trkpt>
      <trkpt lat="42.4677000" lon="-2.4476580">
        <ele>385.0</ele>
        <time>2022-08-29T03:26:40Z</time>
      </trkpt>
      <trkpt lat="42.4676960" lon="-2.4476910">
        <ele>385.2</ele>
        <time>2022-08-29T03:26:41Z</time>
      </trkpt>
      <trkpt lat="42.4677030" lon="-2.4477270">
        <ele>385.6</ele>
        <time>2022-08-29T03:26:42Z</time>
      </trkpt>
      <trkpt lat="42.4676980" lon="-2.4477520">
        <ele>385.8</ele>
        <time>2022-08-29T03:26:43Z</time>
      </trkpt>
      <trkpt lat="42.4676930" lon="-2.4477830">
        <ele>386.0</ele>
        <time>2022-08-29T03:26:44Z</time>
      </trkpt>
      <trkpt lat="42.4676840" lon="-2.4478120">
        <ele>386.4</ele>
        <time>2022-08-29T03:26:45Z</time>
      </trkpt>
      <trkpt lat="42.4676850" lon="-2.4478490">
        <ele>386.4</ele>
        <time>2022-08-29T03:26:46Z</time>
      </trkpt>
      <trkpt lat="42.4676940" lon="-2.4478960">
        <ele>386.6</ele>
        <time>2022-08-29T03:26:47Z</time>
      </trkpt>
      <trkpt lat="42.4677000" lon="-2.4479350">
        <ele>387.0</ele>
        <time>2022-08-29T03:26:48Z</time>
      </trkpt>
      <trkpt lat="42.4676900" lon="-2.4479590">
        <ele>387.0</ele>
        <time>2022-08-29T03:26:49Z</time>
      </trkpt>
      <trkpt lat="42.4676810" lon="-2.4479850">
        <ele>387.0</ele>
        <time>2022-08-29T03:26:50Z</time>
      </trkpt>
      <trkpt lat="42.4676630" lon="-2.4480010">
        <ele>387.2</ele>
        <time>2022-08-29T03:26:51Z</time>
      </trkpt>
      <trkpt lat="42.4676580" lon="-2.4480290">
        <ele>387.2</ele>
        <time>2022-08-29T03:26:52Z</time>
      </trkpt>
      <trkpt lat="42.4676090" lon="-2.4480350">
        <ele>387.2</ele>
        <time>2022-08-29T03:26:53Z</time>
      </trkpt>
      <trkpt lat="42.4675950" lon="-2.4480570">
        <ele>387.4</ele>
        <time>2022-08-29T03:26:54Z</time>
      </trkpt>
      <trkpt lat="42.4675810" lon="-2.4480830">
        <ele>387.6</ele>
        <time>2022-08-29T03:26:55Z</time>
      </trkpt>
      <trkpt lat="42.4675650" lon="-2.4481090">
        <ele>387.6</ele>
        <time>2022-08-29T03:26:56Z</time>
      </trkpt>
      <trkpt lat="42.4675500" lon="-2.4481390">
        <ele>387.8</ele>
        <time>2022-08-29T03:26:57Z</time>
      </trkpt>
      <trkpt lat="42.4675380" lon="-2.4481680">
        <ele>388.0</ele>
        <time>2022-08-29T03:26:58Z</time>
      </trkpt>
      <trkpt lat="42.4675250" lon="-2.4481980">
        <ele>388.0</ele>
        <time>2022-08-29T03:26:59Z</time>
      </trkpt>
      <trkpt lat="42.4675120" lon="-2.4482310">
        <ele>388.4</ele>
        <time>2022-08-29T03:27:00Z</time>
      </trkpt>
      <trkpt lat="42.4675050" lon="-2.4482610">
        <ele>388.4</ele>
        <time>2022-08-29T03:27:01Z</time>
      </trkpt>
      <trkpt lat="42.4674890" lon="-2.4482900">
        <ele>388.6</ele>
        <time>2022-08-29T03:27:02Z</time>
      </trkpt>
      <trkpt lat="42.4674700" lon="-2.4483180">
        <ele>388.8</ele>
        <time>2022-08-29T03:27:03Z</time>
      </trkpt>
      <trkpt lat="42.4674540" lon="-2.4483430">
        <ele>389.2</ele>
        <time>2022-08-29T03:27:04Z</time>
      </trkpt>
      <trkpt lat="42.4674440" lon="-2.4483700">
        <ele>389.4</ele>
        <time>2022-08-29T03:27:05Z</time>
      </trkpt>
      <trkpt lat="42.4674330" lon="-2.4483980">
        <ele>389.4</ele>
        <time>2022-08-29T03:27:06Z</time>
      </trkpt>
      <trkpt lat="42.4674200" lon="-2.4484250">
        <ele>389.4</ele>
        <time>2022-08-29T03:27:07Z</time>
      </trkpt>
      <trkpt lat="42.4674140" lon="-2.4484550">
        <ele>389.6</ele>
        <time>2022-08-29T03:27:08Z</time>
      </trkpt>
      <trkpt lat="42.4674080" lon="-2.4484830">
        <ele>389.6</ele>
        <time>2022-08-29T03:27:09Z</time>
      </trkpt>
      <trkpt lat="42.4674140" lon="-2.4485160">
        <ele>389.6</ele>
        <time>2022-08-29T03:27:10Z</time>
      </trkpt>
      <trkpt lat="42.4674110" lon="-2.4485410">
        <ele>389.8</ele>
        <time>2022-08-29T03:27:11Z</time>
      </trkpt>
      <trkpt lat="42.4674170" lon="-2.4485750">
        <ele>389.8</ele>
        <time>2022-08-29T03:27:12Z</time>
      </trkpt>
      <trkpt lat="42.4674210" lon="-2.4486020">
        <ele>390.0</ele>
        <time>2022-08-29T03:27:13Z</time>
      </trkpt>
      <trkpt lat="42.4674190" lon="-2.4486170">
        <ele>390.2</ele>
        <time>2022-08-29T03:27:14Z</time>
      </trkpt>
      <trkpt lat="42.4674160" lon="-2.4486350">
        <ele>390.2</ele>
        <time>2022-08-29T03:27:15Z</time>
      </trkpt>
      <trkpt lat="42.4674100" lon="-2.4486530">
        <ele>390.2</ele>
        <time>2022-08-29T03:27:16Z</time>
      </trkpt>
      <trkpt lat="42.4674140" lon="-2.4486660">
        <ele>390.2</ele>
        <time>2022-08-29T03:27:17Z</time>
      </trkpt>
      <trkpt lat="42.4674210" lon="-2.4486720">
        <ele>390.2</ele>
        <time>2022-08-29T03:27:18Z</time>
      </trkpt>
      <trkpt lat="42.4674190" lon="-2.4486830">
        <ele>390.4</ele>
        <time>2022-08-29T03:27:19Z</time>
      </trkpt>
      <trkpt lat="42.4674140" lon="-2.4487040">
        <ele>390.2</ele>
        <time>2022-08-29T03:27:20Z</time>
      </trkpt>
      <trkpt lat="42.4674070" lon="-2.4487300">
        <ele>390.4</ele>
        <time>2022-08-29T03:27:21Z</time>
      </trkpt>
      <trkpt lat="42.4673990" lon="-2.4487650">
        <ele>390.6</ele>
        <time>2022-08-29T03:27:22Z</time>
      </trkpt>
      <trkpt lat="42.4673860" lon="-2.4487910">
        <ele>390.4</ele>
        <time>2022-08-29T03:27:23Z</time>
      </trkpt>
      <trkpt lat="42.4673730" lon="-2.4488170">
        <ele>390.4</ele>
        <time>2022-08-29T03:27:24Z</time>
      </trkpt>
      <trkpt lat="42.4673630" lon="-2.4488480">
        <ele>390.6</ele>
        <time>2022-08-29T03:27:25Z</time>
      </trkpt>
      <trkpt lat="42.4673460" lon="-2.4488860">
        <ele>390.4</ele>
        <time>2022-08-29T03:27:26Z</time>
      </trkpt>
      <trkpt lat="42.4673440" lon="-2.4489140">
        <ele>390.8</ele>
        <time>2022-08-29T03:27:27Z</time>
      </trkpt>
      <trkpt lat="42.4673360" lon="-2.4489420">
        <ele>390.8</ele>
        <time>2022-08-29T03:27:28Z</time>
      </trkpt>
      <trkpt lat="42.4673400" lon="-2.4489750">
        <ele>390.6</ele>
        <time>2022-08-29T03:27:29Z</time>
      </trkpt>
      <trkpt lat="42.4673120" lon="-2.4490150">
        <ele>390.6</ele>
        <time>2022-08-29T03:27:30Z</time>
      </trkpt>
      <trkpt lat="42.4672720" lon="-2.4490390">
        <ele>390.8</ele>
        <time>2022-08-29T03:27:31Z</time>
      </trkpt>
      <trkpt lat="42.4672540" lon="-2.4490820">
        <ele>390.8</ele>
        <time>2022-08-29T03:27:32Z</time>
      </trkpt>
      <trkpt lat="42.4672340" lon="-2.4491160">
        <ele>391.0</ele>
        <time>2022-08-29T03:27:33Z</time>
      </trkpt>
      <trkpt lat="42.4672200" lon="-2.4491450">
        <ele>391.0</ele>
        <time>2022-08-29T03:27:34Z</time>
      </trkpt>
      <trkpt lat="42.4672010" lon="-2.4491580">
        <ele>391.0</ele>
        <time>2022-08-29T03:27:35Z</time>
      </trkpt>
      <trkpt lat="42.4671940" lon="-2.4491800">
        <ele>391.2</ele>
        <time>2022-08-29T03:27:36Z</time>
      </trkpt>
      <trkpt lat="42.4671940" lon="-2.4492120">
        <ele>391.4</ele>
        <time>2022-08-29T03:27:37Z</time>
      </trkpt>
      <trkpt lat="42.4671680" lon="-2.4492170">
        <ele>391.4</ele>
        <time>2022-08-29T03:27:38Z</time>
      </trkpt>
      <trkpt lat="42.4671590" lon="-2.4492350">
        <ele>391.4</ele>
        <time>2022-08-29T03:27:39Z</time>
      </trkpt>
      <trkpt lat="42.4671320" lon="-2.4492450">
        <ele>391.4</ele>
        <time>2022-08-29T03:27:40Z</time>
      </trkpt>
      <trkpt lat="42.4671150" lon="-2.4492700">
        <ele>391.4</ele>
        <time>2022-08-29T03:27:41Z</time>
      </trkpt>
      <trkpt lat="42.4671010" lon="-2.4492980">
        <ele>391.4</ele>
        <time>2022-08-29T03:27:42Z</time>
      </trkpt>
      <trkpt lat="42.4670750" lon="-2.4493280">
        <ele>391.4</ele>
        <time>2022-08-29T03:27:43Z</time>
      </trkpt>
      <trkpt lat="42.4670560" lon="-2.4493640">
        <ele>391.4</ele>
        <time>2022-08-29T03:27:44Z</time>
      </trkpt>
      <trkpt lat="42.4670490" lon="-2.4493970">
        <ele>391.4</ele>
        <time>2022-08-29T03:27:45Z</time>
      </trkpt>
      <trkpt lat="42.4670430" lon="-2.4494300">
        <ele>391.4</ele>
        <time>2022-08-29T03:27:46Z</time>
      </trkpt>
      <trkpt lat="42.4670390" lon="-2.4494610">
        <ele>391.4</ele>
        <time>2022-08-29T03:27:47Z</time>
      </trkpt>
      <trkpt lat="42.4670340" lon="-2.4494980">
        <ele>391.4</ele>
        <time>2022-08-29T03:27:48Z</time>
      </trkpt>
      <trkpt lat="42.4670300" lon="-2.4495330">
        <ele>391.6</ele>
        <time>2022-08-29T03:27:49Z</time>
      </trkpt>
      <trkpt lat="42.4670150" lon="-2.4495790">
        <ele>391.6</ele>
        <time>2022-08-29T03:27:50Z</time>
      </trkpt>
      <trkpt lat="42.4670160" lon="-2.4496260">
        <ele>391.6</ele>
        <time>2022-08-29T03:27:51Z</time>
      </trkpt>
      <trkpt lat="42.4670040" lon="-2.4496590">
        <ele>391.6</ele>
        <time>2022-08-29T03:27:52Z</time>
      </trkpt>
      <trkpt lat="42.4670010" lon="-2.4496820">
        <ele>391.6</ele>
        <time>2022-08-29T03:27:53Z</time>
      </trkpt>
      <trkpt lat="42.4669920" lon="-2.4497030">
        <ele>391.4</ele>
        <time>2022-08-29T03:27:54Z</time>
      </trkpt>
      <trkpt lat="42.4669890" lon="-2.4497040">
        <ele>391.6</ele>
        <time>2022-08-29T03:27:55Z</time>
      </trkpt>
      <trkpt lat="42.4669860" lon="-2.4496990">
        <ele>391.6</ele>
        <time>2022-08-29T03:27:56Z</time>
      </trkpt>
      <trkpt lat="42.4669800" lon="-2.4497080">
        <ele>391.6</ele>
        <time>2022-08-29T03:27:57Z</time>
      </trkpt>
      <trkpt lat="42.4669770" lon="-2.4497170">
        <ele>391.4</ele>
        <time>2022-08-29T03:27:58Z</time>
      </trkpt>
      <trkpt lat="42.4669640" lon="-2.4497170">
        <ele>391.6</ele>
        <time>2022-08-29T03:27:59Z</time>
      </trkpt>
      <trkpt lat="42.4669520" lon="-2.4497110">
        <ele>391.6</ele>
        <time>2022-08-29T03:28:00Z</time>
      </trkpt>
      <trkpt lat="42.4669290" lon="-2.4496880">
        <ele>391.6</ele>
        <time>2022-08-29T03:28:01Z</time>
      </trkpt>
      <trkpt lat="42.4669150" lon="-2.4496850">
        <ele>391.6</ele>
        <time>2022-08-29T03:28:02Z</time>
      </trkpt>
      <trkpt lat="42.4669020" lon="-2.4497010">
        <ele>391.6</ele>
        <time>2022-08-29T03:28:03Z</time>
      </trkpt>
      <trkpt lat="42.4668910" lon="-2.4497210">
        <ele>391.8</ele>
        <time>2022-08-29T03:28:04Z</time>
      </trkpt>
      <trkpt lat="42.4668890" lon="-2.4497690">
        <ele>391.6</ele>
        <time>2022-08-29T03:28:05Z</time>
      </trkpt>
      <trkpt lat="42.4668760" lon="-2.4497990">
        <ele>391.6</ele>
        <time>2022-08-29T03:28:06Z</time>
      </trkpt>
      <trkpt lat="42.4668570" lon="-2.4498170">
        <ele>391.8</ele>
        <time>2022-08-29T03:28:07Z</time>
      </trkpt>
      <trkpt lat="42.4668360" lon="-2.4498270">
        <ele>391.6</ele>
        <time>2022-08-29T03:28:08Z</time>
      </trkpt>
      <trkpt lat="42.4668180" lon="-2.4498400">
        <ele>391.8</ele>
        <time>2022-08-29T03:28:09Z</time>
      </trkpt>
      <trkpt lat="42.4668030" lon="-2.4498620">
        <ele>391.8</ele>
        <time>2022-08-29T03:28:10Z</time>
      </trkpt>
      <trkpt lat="42.4668010" lon="-2.4498980">
        <ele>391.8</ele>
        <time>2022-08-29T03:28:11Z</time>
      </trkpt>
      <trkpt lat="42.4668030" lon="-2.4499310">
        <ele>391.8</ele>
        <time>2022-08-29T03:28:12Z</time>
      </trkpt>
      <trkpt lat="42.4668060" lon="-2.4499660">
        <ele>391.8</ele>
        <time>2022-08-29T03:28:13Z</time>
      </trkpt>
      <trkpt lat="42.4668080" lon="-2.4500000">
        <ele>391.8</ele>
        <time>2022-08-29T03:28:14Z</time>
      </trkpt>
      <trkpt lat="42.4668110" lon="-2.4500300">
        <ele>391.8</ele>
        <time>2022-08-29T03:28:15Z</time>
      </trkpt>
      <trkpt lat="42.4668170" lon="-2.4500630">
        <ele>392.0</ele>
        <time>2022-08-29T03:28:16Z</time>
      </trkpt>
      <trkpt lat="42.4668270" lon="-2.4500860">
        <ele>392.0</ele>
        <time>2022-08-29T03:28:17Z</time>
      </trkpt>
      <trkpt lat="42.4668340" lon="-2.4501100">
        <ele>392.0</ele>
        <time>2022-08-29T03:28:18Z</time>
      </trkpt>
      <trkpt lat="42.4668480" lon="-2.4501400">
        <ele>392.0</ele>
        <time>2022-08-29T03:28:19Z</time>
      </trkpt>
      <trkpt lat="42.4668600" lon="-2.4501820">
        <ele>392.2</ele>
        <time>2022-08-29T03:28:20Z</time>
      </trkpt>
      <trkpt lat="42.4668730" lon="-2.4502160">
        <ele>392.4</ele>
        <time>2022-08-29T03:28:21Z</time>
      </trkpt>
      <trkpt lat="42.4668820" lon="-2.4502420">
        <ele>392.2</ele>
        <time>2022-08-29T03:28:22Z</time>
      </trkpt>
      <trkpt lat="42.4668930" lon="-2.4502680">
        <ele>392.4</ele>
        <time>2022-08-29T03:28:23Z</time>
      </trkpt>
      <trkpt lat="42.4669060" lon="-2.4502860">
        <ele>392.6</ele>
        <time>2022-08-29T03:28:24Z</time>
      </trkpt>
      <trkpt lat="42.4669100" lon="-2.4503000">
        <ele>392.6</ele>
        <time>2022-08-29T03:28:25Z</time>
      </trkpt>
      <trkpt lat="42.4669310" lon="-2.4503150">
        <ele>392.6</ele>
        <time>2022-08-29T03:28:26Z</time>
      </trkpt>
      <trkpt lat="42.4669400" lon="-2.4503450">
        <ele>392.8</ele>
        <time>2022-08-29T03:28:27Z</time>
      </trkpt>
      <trkpt lat="42.4669420" lon="-2.4503770">
        <ele>393.0</ele>
        <time>2022-08-29T03:28:28Z</time>
      </trkpt>
      <trkpt lat="42.4669410" lon="-2.4503760">
        <ele>393.2</ele>
        <time>2022-08-29T03:28:29Z</time>
      </trkpt>
      <trkpt lat="42.4669490" lon="-2.4503940">
        <ele>393.2</ele>
        <time>2022-08-29T03:28:30Z</time>
      </trkpt>
      <trkpt lat="42.4669420" lon="-2.4504200">
        <ele>393.4</ele>
        <time>2022-08-29T03:28:31Z</time>
      </trkpt>
      <trkpt lat="42.4669310" lon="-2.4504500">
        <ele>393.4</ele>
        <time>2022-08-29T03:28:32Z</time>
      </trkpt>
      <trkpt lat="42.4669200" lon="-2.4504630">
        <ele>393.4</ele>
        <time>2022-08-29T03:28:33Z</time>
      </trkpt>
      <trkpt lat="42.4669090" lon="-2.4504840">
        <ele>393.4</ele>
        <time>2022-08-29T03:28:34Z</time>
      </trkpt>
      <trkpt lat="42.4668980" lon="-2.4505110">
        <ele>393.4</ele>
        <time>2022-08-29T03:28:35Z</time>
      </trkpt>
      <trkpt lat="42.4668900" lon="-2.4505360">
        <ele>393.4</ele>
        <time>2022-08-29T03:28:36Z</time>
      </trkpt>
      <trkpt lat="42.4668840" lon="-2.4505590">
        <ele>393.4</ele>
        <time>2022-08-29T03:28:37Z</time>
      </trkpt>
      <trkpt lat="42.4668860" lon="-2.4505750">
        <ele>393.4</ele>
        <time>2022-08-29T03:28:38Z</time>
      </trkpt>
      <trkpt lat="42.4668910" lon="-2.4505940">
        <ele>393.6</ele>
        <time>2022-08-29T03:28:39Z</time>
      </trkpt>
      <trkpt lat="42.4668860" lon="-2.4506110">
        <ele>393.4</ele>
        <time>2022-08-29T03:28:40Z</time>
      </trkpt>
      <trkpt lat="42.4668770" lon="-2.4506340">
        <ele>393.4</ele>
        <time>2022-08-29T03:28:41Z</time>
      </trkpt>
      <trkpt lat="42.4668760" lon="-2.4506600">
        <ele>393.6</ele>
        <time>2022-08-29T03:28:42Z</time>
      </trkpt>
      <trkpt lat="42.4668710" lon="-2.4506860">
        <ele>393.4</ele>
        <time>2022-08-29T03:28:43Z</time>
      </trkpt>
      <trkpt lat="42.4668650" lon="-2.4507130">
        <ele>393.6</ele>
        <time>2022-08-29T03:28:44Z</time>
      </trkpt>
      <trkpt lat="42.4668530" lon="-2.4507410">
        <ele>393.6</ele>
        <time>2022-08-29T03:28:45Z</time>
      </trkpt>
      <trkpt lat="42.4668440" lon="-2.4507700">
        <ele>393.4</ele>
        <time>2022-08-29T03:28:46Z</time>
      </trkpt>
      <trkpt lat="42.4668340" lon="-2.4507960">
        <ele>393.6</ele>
        <time>2022-08-29T03:28:47Z</time>
      </trkpt>
      <trkpt lat="42.4668240" lon="-2.4508220">
        <ele>393.6</ele>
        <time>2022-08-29T03:28:48Z</time>
      </trkpt>
      <trkpt lat="42.4668080" lon="-2.4508420">
        <ele>393.6</ele>
        <time>2022-08-29T03:28:49Z</time>
      </trkpt>
      <trkpt lat="42.4667870" lon="-2.4508520">
        <ele>393.6</ele>
        <time>2022-08-29T03:28:50Z</time>
      </trkpt>
      <trkpt lat="42.4667730" lon="-2.4508650">
        <ele>393.6</ele>
        <time>2022-08-29T03:28:51Z</time>
      </trkpt>
      <trkpt lat="42.4667610" lon="-2.4508820">
        <ele>393.6</ele>
        <time>2022-08-29T03:28:52Z</time>
      </trkpt>
      <trkpt lat="42.4667480" lon="-2.4508980">
        <ele>393.8</ele>
        <time>2022-08-29T03:28:53Z</time>
      </trkpt>
      <trkpt lat="42.4667320" lon="-2.4509160">
        <ele>393.6</ele>
        <time>2022-08-29T03:28:54Z</time>
      </trkpt>
      <trkpt lat="42.4667170" lon="-2.4509340">
        <ele>393.8</ele>
        <time>2022-08-29T03:28:55Z</time>
      </trkpt>
      <trkpt lat="42.4666880" lon="-2.4509440">
        <ele>393.6</ele>
        <time>2022-08-29T03:28:56Z</time>
      </trkpt>
      <trkpt lat="42.4666690" lon="-2.4509610">
        <ele>393.6</ele>
        <time>2022-08-29T03:28:57Z</time>
      </trkpt>
      <trkpt lat="42.4666430" lon="-2.4509810">
        <ele>393.6</ele>
        <time>2022-08-29T03:28:58Z</time>
      </trkpt>
      <trkpt lat="42.4666190" lon="-2.4510010">
        <ele>393.6</ele>
        <time>2022-08-29T03:28:59Z</time>
      </trkpt>
      <trkpt lat="42.4665860" lon="-2.4510220">
        <ele>393.6</ele>
        <time>2022-08-29T03:29:00Z</time>
      </trkpt>
      <trkpt lat="42.4665520" lon="-2.4510380">
        <ele>393.6</ele>
        <time>2022-08-29T03:29:01Z</time>
      </trkpt>
      <trkpt lat="42.4665170" lon="-2.4510540">
        <ele>393.6</ele>
        <time>2022-08-29T03:29:02Z</time>
      </trkpt>
      <trkpt lat="42.4664830" lon="-2.4510730">
        <ele>393.6</ele>
        <time>2022-08-29T03:29:03Z</time>
      </trkpt>
      <trkpt lat="42.4664570" lon="-2.4510990">
        <ele>393.8</ele>
        <time>2022-08-29T03:29:04Z</time>
      </trkpt>
      <trkpt lat="42.4664330" lon="-2.4511280">
        <ele>393.6</ele>
        <time>2022-08-29T03:29:05Z</time>
      </trkpt>
      <trkpt lat="42.4664100" lon="-2.4511610">
        <ele>393.6</ele>
        <time>2022-08-29T03:29:06Z</time>
      </trkpt>
      <trkpt lat="42.4663850" lon="-2.4511920">
        <ele>393.8</ele>
        <time>2022-08-29T03:29:07Z</time>
      </trkpt>
      <trkpt lat="42.4663570" lon="-2.4512220">
        <ele>393.6</ele>
        <time>2022-08-29T03:29:08Z</time>
      </trkpt>
      <trkpt lat="42.4663270" lon="-2.4512460">
        <ele>393.6</ele>
        <time>2022-08-29T03:29:09Z</time>
      </trkpt>
      <trkpt lat="42.4662960" lon="-2.4512640">
        <ele>393.6</ele>
        <time>2022-08-29T03:29:10Z</time>
      </trkpt>
      <trkpt lat="42.4662620" lon="-2.4512820">
        <ele>393.6</ele>
        <time>2022-08-29T03:29:11Z</time>
      </trkpt>
      <trkpt lat="42.4662300" lon="-2.4513000">
        <ele>393.4</ele>
        <time>2022-08-29T03:29:12Z</time>
      </trkpt>
      <trkpt lat="42.4661970" lon="-2.4513230">
        <ele>393.4</ele>
        <time>2022-08-29T03:29:13Z</time>
      </trkpt>
      <trkpt lat="42.4661640" lon="-2.4513420">
        <ele>393.2</ele>
        <time>2022-08-29T03:29:14Z</time>
      </trkpt>
      <trkpt lat="42.4661320" lon="-2.4513600">
        <ele>393.2</ele>
        <time>2022-08-29T03:29:15Z</time>
      </trkpt>
      <trkpt lat="42.4661020" lon="-2.4513820">
        <ele>393.2</ele>
        <time>2022-08-29T03:29:16Z</time>
      </trkpt>
      <trkpt lat="42.4660780" lon="-2.4514100">
        <ele>393.2</ele>
        <time>2022-08-29T03:29:17Z</time>
      </trkpt>
      <trkpt lat="42.4660620" lon="-2.4514500">
        <ele>393.2</ele>
        <time>2022-08-29T03:29:18Z</time>
      </trkpt>
      <trkpt lat="42.4660510" lon="-2.4514860">
        <ele>393.2</ele>
        <time>2022-08-29T03:29:19Z</time>
      </trkpt>
      <trkpt lat="42.4660410" lon="-2.4515300">
        <ele>393.2</ele>
        <time>2022-08-29T03:29:20Z</time>
      </trkpt>
      <trkpt lat="42.4660320" lon="-2.4515730">
        <ele>393.2</ele>
        <time>2022-08-29T03:29:21Z</time>
      </trkpt>
      <trkpt lat="42.4660230" lon="-2.4516140">
        <ele>393.2</ele>
        <time>2022-08-29T03:29:22Z</time>
      </trkpt>
      <trkpt lat="42.4660150" lon="-2.4516570">
        <ele>393.2</ele>
        <time>2022-08-29T03:29:23Z</time>
      </trkpt>
      <trkpt lat="42.4660040" lon="-2.4516970">
        <ele>393.2</ele>
        <time>2022-08-29T03:29:24Z</time>
      </trkpt>
      <trkpt lat="42.4659900" lon="-2.4517370">
        <ele>393.2</ele>
        <time>2022-08-29T03:29:25Z</time>
      </trkpt>
      <trkpt lat="42.4659710" lon="-2.4517760">
        <ele>393.2</ele>
        <time>2022-08-29T03:29:26Z</time>
      </trkpt>
      <trkpt lat="42.4659530" lon="-2.4518140">
        <ele>393.2</ele>
        <time>2022-08-29T03:29:27Z</time>
      </trkpt>
      <trkpt lat="42.4659340" lon="-2.4518530">
        <ele>393.4</ele>
        <time>2022-08-29T03:29:28Z</time>
      </trkpt>
      <trkpt lat="42.4659070" lon="-2.4518890">
        <ele>393.4</ele>
        <time>2022-08-29T03:29:29Z</time>
      </trkpt>
      <trkpt lat="42.4658870" lon="-2.4519240">
        <ele>393.4</ele>
        <time>2022-08-29T03:29:30Z</time>
      </trkpt>
      <trkpt lat="42.4658650" lon="-2.4519600">
        <ele>393.6</ele>
        <time>2022-08-29T03:29:31Z</time>
      </trkpt>
      <trkpt lat="42.4658460" lon="-2.4519970">
        <ele>393.4</ele>
        <time>2022-08-29T03:29:32Z</time>
      </trkpt>
      <trkpt lat="42.4658300" lon="-2.4520430">
        <ele>393.4</ele>
        <time>2022-08-29T03:29:33Z</time>
      </trkpt>
      <trkpt lat="42.4658110" lon="-2.4520790">
        <ele>393.6</ele>
        <time>2022-08-29T03:29:34Z</time>
      </trkpt>
      <trkpt lat="42.4657990" lon="-2.4521190">
        <ele>393.6</ele>
        <time>2022-08-29T03:29:35Z</time>
      </trkpt>
      <trkpt lat="42.4657850" lon="-2.4521570">
        <ele>393.6</ele>
        <time>2022-08-29T03:29:36Z</time>
      </trkpt>
      <trkpt lat="42.4657760" lon="-2.4521980">
        <ele>393.6</ele>
        <time>2022-08-29T03:29:37Z</time>
      </trkpt>
      <trkpt lat="42.4657680" lon="-2.4522380">
        <ele>393.6</ele>
        <time>2022-08-29T03:29:38Z</time>
      </trkpt>
      <trkpt lat="42.4657610" lon="-2.4522790">
        <ele>393.6</ele>
        <time>2022-08-29T03:29:39Z</time>
      </trkpt>
      <trkpt lat="42.4657480" lon="-2.4523430">
        <ele>393.6</ele>
        <time>2022-08-29T03:29:40Z</time>
      </trkpt>
      <trkpt lat="42.4657360" lon="-2.4523880">
        <ele>393.8</ele>
        <time>2022-08-29T03:29:41Z</time>
      </trkpt>
      <trkpt lat="42.4657260" lon="-2.4524280">
        <ele>393.6</ele>
        <time>2022-08-29T03:29:42Z</time>
      </trkpt>
      <trkpt lat="42.4657080" lon="-2.4524780">
        <ele>393.6</ele>
        <time>2022-08-29T03:29:43Z</time>
      </trkpt>
      <trkpt lat="42.4656900" lon="-2.4525360">
        <ele>393.8</ele>
        <time>2022-08-29T03:29:44Z</time>
      </trkpt>
      <trkpt lat="42.4656700" lon="-2.4525780">
        <ele>393.8</ele>
        <time>2022-08-29T03:29:45Z</time>
      </trkpt>
      <trkpt lat="42.4656510" lon="-2.4526220">
        <ele>393.6</ele>
        <time>2022-08-29T03:29:46Z</time>
      </trkpt>
      <trkpt lat="42.4656340" lon="-2.4526670">
        <ele>393.6</ele>
        <time>2022-08-29T03:29:47Z</time>
      </trkpt>
      <trkpt lat="42.4656160" lon="-2.4527090">
        <ele>393.6</ele>
        <time>2022-08-29T03:29:48Z</time>
      </trkpt>
      <trkpt lat="42.4656040" lon="-2.4527580">
        <ele>393.6</ele>
        <time>2022-08-29T03:29:49Z</time>
      </trkpt>
      <trkpt lat="42.4655870" lon="-2.4528160">
        <ele>393.6</ele>
        <time>2022-08-29T03:29:50Z</time>
      </trkpt>
      <trkpt lat="42.4655760" lon="-2.4528680">
        <ele>393.6</ele>
        <time>2022-08-29T03:29:51Z</time>
      </trkpt>
      <trkpt lat="42.4655610" lon="-2.4529180">
        <ele>393.8</ele>
        <time>2022-08-29T03:29:52Z</time>
      </trkpt>
      <trkpt lat="42.4655470" lon="-2.4529680">
        <ele>393.8</ele>
        <time>2022-08-29T03:29:53Z</time>
      </trkpt>
      <trkpt lat="42.4655310" lon="-2.4530130">
        <ele>393.6</ele>
        <time>2022-08-29T03:29:54Z</time>
      </trkpt>
      <trkpt lat="42.4655110" lon="-2.4530600">
        <ele>393.6</ele>
        <time>2022-08-29T03:29:55Z</time>
      </trkpt>
      <trkpt lat="42.4654730" lon="-2.4530850">
        <ele>393.8</ele>
        <time>2022-08-29T03:29:56Z</time>
      </trkpt>
      <trkpt lat="42.4654340" lon="-2.4531300">
        <ele>393.8</ele>
        <time>2022-08-29T03:29:57Z</time>
      </trkpt>
      <trkpt lat="42.4654210" lon="-2.4531860">
        <ele>393.8</ele>
        <time>2022-08-29T03:29:58Z</time>
      </trkpt>
      <trkpt lat="42.4654000" lon="-2.4532350">
        <ele>393.8</ele>
        <time>2022-08-29T03:29:59Z</time>
      </trkpt>
      <trkpt lat="42.4653880" lon="-2.4532850">
        <ele>393.8</ele>
        <time>2022-08-29T03:30:00Z</time>
      </trkpt>
      <trkpt lat="42.4653950" lon="-2.4533570">
        <ele>393.8</ele>
        <time>2022-08-29T03:30:01Z</time>
      </trkpt>
      <trkpt lat="42.4654000" lon="-2.4534240">
        <ele>393.8</ele>
        <time>2022-08-29T03:30:02Z</time>
      </trkpt>
      <trkpt lat="42.4653950" lon="-2.4534830">
        <ele>394.0</ele>
        <time>2022-08-29T03:30:03Z</time>
      </trkpt>
      <trkpt lat="42.4653920" lon="-2.4535390">
        <ele>394.0</ele>
        <time>2022-08-29T03:30:04Z</time>
      </trkpt>
      <trkpt lat="42.4653860" lon="-2.4535880">
        <ele>393.8</ele>
        <time>2022-08-29T03:30:05Z</time>
      </trkpt>
      <trkpt lat="42.4653760" lon="-2.4536410">
        <ele>394.0</ele>
        <time>2022-08-29T03:30:06Z</time>
      </trkpt>
      <trkpt lat="42.4653620" lon="-2.4536880">
        <ele>394.0</ele>
        <time>2022-08-29T03:30:07Z</time>
      </trkpt>
      <trkpt lat="42.4653490" lon="-2.4537350">
        <ele>394.0</ele>
        <time>2022-08-29T03:30:08Z</time>
      </trkpt>
      <trkpt lat="42.4653350" lon="-2.4537820">
        <ele>394.0</ele>
        <time>2022-08-29T03:30:09Z</time>
      </trkpt>
      <trkpt lat="42.4653210" lon="-2.4538310">
        <ele>394.2</ele>
        <time>2022-08-29T03:30:10Z</time>
      </trkpt>
      <trkpt lat="42.4653120" lon="-2.4538850">
        <ele>394.0</ele>
        <time>2022-08-29T03:30:11Z</time>
      </trkpt>
      <trkpt lat="42.4652980" lon="-2.4539330">
        <ele>394.2</ele>
        <time>2022-08-29T03:30:12Z</time>
      </trkpt>
      <trkpt lat="42.4652830" lon="-2.4539810">
        <ele>394.2</ele>
        <time>2022-08-29T03:30:13Z</time>
      </trkpt>
      <trkpt lat="42.4652690" lon="-2.4540300">
        <ele>394.0</ele>
        <time>2022-08-29T03:30:14Z</time>
      </trkpt>
      <trkpt lat="42.4652590" lon="-2.4540820">
        <ele>394.2</ele>
        <time>2022-08-29T03:30:15Z</time>
      </trkpt>
      <trkpt lat="42.4652430" lon="-2.4541260">
        <ele>394.4</ele>
        <time>2022-08-29T03:30:16Z</time>
      </trkpt>
      <trkpt lat="42.4652230" lon="-2.4541720">
        <ele>394.2</ele>
        <time>2022-08-29T03:30:17Z</time>
      </trkpt>
      <trkpt lat="42.4652100" lon="-2.4542080">
        <ele>394.4</ele>
        <time>2022-08-29T03:30:18Z</time>
      </trkpt>
      <trkpt lat="42.4651960" lon="-2.4542470">
        <ele>394.4</ele>
        <time>2022-08-29T03:30:19Z</time>
      </trkpt>
      <trkpt lat="42.4651830" lon="-2.4542920">
        <ele>394.4</ele>
        <time>2022-08-29T03:30:20Z</time>
      </trkpt>
      <trkpt lat="42.4651830" lon="-2.4543470">
        <ele>394.4</ele>
        <time>2022-08-29T03:30:21Z</time>
      </trkpt>
      <trkpt lat="42.4651850" lon="-2.4543910">
        <ele>394.4</ele>
        <time>2022-08-29T03:30:22Z</time>
      </trkpt>
      <trkpt lat="42.4651840" lon="-2.4544360">
        <ele>394.4</ele>
        <time>2022-08-29T03:30:23Z</time>
      </trkpt>
      <trkpt lat="42.4651850" lon="-2.4544800">
        <ele>394.6</ele>
        <time>2022-08-29T03:30:24Z</time>
      </trkpt>
      <trkpt lat="42.4651850" lon="-2.4545210">
        <ele>394.4</ele>
        <time>2022-08-29T03:30:25Z</time>
      </trkpt>
      <trkpt lat="42.4651940" lon="-2.4545680">
        <ele>394.6</ele>
        <time>2022-08-29T03:30:26Z</time>
      </trkpt>
      <trkpt lat="42.4652490" lon="-2.4546680">
        <ele>394.6</ele>
        <time>2022-08-29T03:30:27Z</time>
      </trkpt>
      <trkpt lat="42.4652440" lon="-2.4547210">
        <ele>394.6</ele>
        <time>2022-08-29T03:30:28Z</time>
      </trkpt>
      <trkpt lat="42.4652150" lon="-2.4547670">
        <ele>394.6</ele>
        <time>2022-08-29T03:30:29Z</time>
      </trkpt>
      <trkpt lat="42.4651960" lon="-2.4548200">
        <ele>394.6</ele>
        <time>2022-08-29T03:30:30Z</time>
      </trkpt>
      <trkpt lat="42.4651650" lon="-2.4548690">
        <ele>394.6</ele>
        <time>2022-08-29T03:30:31Z</time>
      </trkpt>
      <trkpt lat="42.4651390" lon="-2.4549180">
        <ele>394.6</ele>
        <time>2022-08-29T03:30:32Z</time>
      </trkpt>
      <trkpt lat="42.4651190" lon="-2.4549690">
        <ele>394.6</ele>
        <time>2022-08-29T03:30:33Z</time>
      </trkpt>
      <trkpt lat="42.4651030" lon="-2.4550140">
        <ele>394.6</ele>
        <time>2022-08-29T03:30:34Z</time>
      </trkpt>
      <trkpt lat="42.4650890" lon="-2.4550600">
        <ele>394.6</ele>
        <time>2022-08-29T03:30:35Z</time>
      </trkpt>
      <trkpt lat="42.4650760" lon="-2.4551080">
        <ele>394.8</ele>
        <time>2022-08-29T03:30:36Z</time>
      </trkpt>
      <trkpt lat="42.4650660" lon="-2.4551540">
        <ele>394.8</ele>
        <time>2022-08-29T03:30:37Z</time>
      </trkpt>
      <trkpt lat="42.4650560" lon="-2.4552010">
        <ele>394.6</ele>
        <time>2022-08-29T03:30:38Z</time>
      </trkpt>
      <trkpt lat="42.4650410" lon="-2.4552480">
        <ele>394.8</ele>
        <time>2022-08-29T03:30:39Z</time>
      </trkpt>
      <trkpt lat="42.4650270" lon="-2.4552950">
        <ele>394.6</ele>
        <time>2022-08-29T03:30:40Z</time>
      </trkpt>
      <trkpt lat="42.4650150" lon="-2.4553420">
        <ele>394.6</ele>
        <time>2022-08-29T03:30:41Z</time>
      </trkpt>
      <trkpt lat="42.4650030" lon="-2.4553890">
        <ele>394.8</ele>
        <time>2022-08-29T03:30:42Z</time>
      </trkpt>
      <trkpt lat="42.4649870" lon="-2.4554380">
        <ele>394.8</ele>
        <time>2022-08-29T03:30:43Z</time>
      </trkpt>
      <trkpt lat="42.4649680" lon="-2.4554900">
        <ele>394.8</ele>
        <time>2022-08-29T03:30:44Z</time>
      </trkpt>
      <trkpt lat="42.4649550" lon="-2.4555400">
        <ele>394.8</ele>
        <time>2022-08-29T03:30:45Z</time>
      </trkpt>
      <trkpt lat="42.4649500" lon="-2.4555930">
        <ele>394.8</ele>
        <time>2022-08-29T03:30:46Z</time>
      </trkpt>
      <trkpt lat="42.4649420" lon="-2.4556450">
        <ele>394.8</ele>
        <time>2022-08-29T03:30:47Z</time>
      </trkpt>
      <trkpt lat="42.4649180" lon="-2.4557060">
        <ele>395.0</ele>
        <time>2022-08-29T03:30:48Z</time>
      </trkpt>
      <trkpt lat="42.4649100" lon="-2.4557550">
        <ele>395.0</ele>
        <time>2022-08-29T03:30:49Z</time>
      </trkpt>
      <trkpt lat="42.4648970" lon="-2.4558050">
        <ele>395.2</ele>
        <time>2022-08-29T03:30:50Z</time>
      </trkpt>
      <trkpt lat="42.4648850" lon="-2.4558610">
        <ele>395.0</ele>
        <time>2022-08-29T03:30:51Z</time>
      </trkpt>
      <trkpt lat="42.4648660" lon="-2.4559070">
        <ele>395.0</ele>
        <time>2022-08-29T03:30:52Z</time>
      </trkpt>
      <trkpt lat="42.4648480" lon="-2.4559560">
        <ele>395.2</ele>
        <time>2022-08-29T03:30:53Z</time>
      </trkpt>
      <trkpt lat="42.4648320" lon="-2.4560150">
        <ele>395.2</ele>
        <time>2022-08-29T03:30:54Z</time>
      </trkpt>
      <trkpt lat="42.4648160" lon="-2.4560670">
        <ele>395.4</ele>
        <time>2022-08-29T03:30:55Z</time>
      </trkpt>
      <trkpt lat="42.4648020" lon="-2.4561160">
        <ele>395.2</ele>
        <time>2022-08-29T03:30:56Z</time>
      </trkpt>
      <trkpt lat="42.4647820" lon="-2.4561630">
        <ele>395.2</ele>
        <time>2022-08-29T03:30:57Z</time>
      </trkpt>
      <trkpt lat="42.4647650" lon="-2.4562100">
        <ele>395.4</ele>
        <time>2022-08-29T03:30:58Z</time>
      </trkpt>
      <trkpt lat="42.4647400" lon="-2.4562500">
        <ele>395.2</ele>
        <time>2022-08-29T03:30:59Z</time>
      </trkpt>
      <trkpt lat="42.4647280" lon="-2.4562930">
        <ele>395.2</ele>
        <time>2022-08-29T03:31:00Z</time>
      </trkpt>
      <trkpt lat="42.4647170" lon="-2.4563410">
        <ele>395.2</ele>
        <time>2022-08-29T03:31:01Z</time>
      </trkpt>
      <trkpt lat="42.4647050" lon="-2.4563900">
        <ele>395.2</ele>
        <time>2022-08-29T03:31:02Z</time>
      </trkpt>
      <trkpt lat="42.4646960" lon="-2.4564350">
        <ele>395.2</ele>
        <time>2022-08-29T03:31:03Z</time>
      </trkpt>
      <trkpt lat="42.4646890" lon="-2.4564810">
        <ele>395.2</ele>
        <time>2022-08-29T03:31:04Z</time>
      </trkpt>
      <trkpt lat="42.4646820" lon="-2.4565250">
        <ele>395.0</ele>
        <time>2022-08-29T03:31:05Z</time>
      </trkpt>
      <trkpt lat="42.4646730" lon="-2.4565700">
        <ele>395.0</ele>
        <time>2022-08-29T03:31:06Z</time>
      </trkpt>
      <trkpt lat="42.4646610" lon="-2.4566160">
        <ele>395.0</ele>
        <time>2022-08-29T03:31:07Z</time>
      </trkpt>
      <trkpt lat="42.4646470" lon="-2.4566630">
        <ele>395.2</ele>
        <time>2022-08-29T03:31:08Z</time>
      </trkpt>
      <trkpt lat="42.4646310" lon="-2.4567090">
        <ele>395.2</ele>
        <time>2022-08-29T03:31:09Z</time>
      </trkpt>
      <trkpt lat="42.4646130" lon="-2.4567600">
        <ele>395.2</ele>
        <time>2022-08-29T03:31:10Z</time>
      </trkpt>
      <trkpt lat="42.4645910" lon="-2.4568210">
        <ele>395.0</ele>
        <time>2022-08-29T03:31:11Z</time>
      </trkpt>
      <trkpt lat="42.4645740" lon="-2.4568690">
        <ele>395.0</ele>
        <time>2022-08-29T03:31:12Z</time>
      </trkpt>
      <trkpt lat="42.4645570" lon="-2.4569170">
        <ele>395.2</ele>
        <time>2022-08-29T03:31:13Z</time>
      </trkpt>
      <trkpt lat="42.4645350" lon="-2.4569780">
        <ele>395.2</ele>
        <time>2022-08-29T03:31:14Z</time>
      </trkpt>
      <trkpt lat="42.4645170" lon="-2.4570330">
        <ele>395.2</ele>
        <time>2022-08-29T03:31:15Z</time>
      </trkpt>
      <trkpt lat="42.4645000" lon="-2.4570840">
        <ele>395.0</ele>
        <time>2022-08-29T03:31:16Z</time>
      </trkpt>
      <trkpt lat="42.4644790" lon="-2.4571360">
        <ele>395.2</ele>
        <time>2022-08-29T03:31:17Z</time>
      </trkpt>
      <trkpt lat="42.4644610" lon="-2.4571920">
        <ele>395.2</ele>
        <time>2022-08-29T03:31:18Z</time>
      </trkpt>
      <trkpt lat="42.4644460" lon="-2.4572460">
        <ele>395.2</ele>
        <time>2022-08-29T03:31:19Z</time>
      </trkpt>
      <trkpt lat="42.4644330" lon="-2.4573010">
        <ele>395.4</ele>
        <time>2022-08-29T03:31:20Z</time>
      </trkpt>
      <trkpt lat="42.4644250" lon="-2.4573640">
        <ele>395.2</ele>
        <time>2022-08-29T03:31:21Z</time>
      </trkpt>
      <trkpt lat="42.4644420" lon="-2.4574380">
        <ele>395.2</ele>
        <time>2022-08-29T03:31:22Z</time>
      </trkpt>
      <trkpt lat="42.4644280" lon="-2.4574950">
        <ele>395.2</ele>
        <time>2022-08-29T03:31:23Z</time>
      </trkpt>
      <trkpt lat="42.4644160" lon="-2.4575480">
        <ele>395.2</ele>
        <time>2022-08-29T03:31:24Z</time>
      </trkpt>
      <trkpt lat="42.4644060" lon="-2.4575980">
        <ele>395.4</ele>
        <time>2022-08-29T03:31:25Z</time>
      </trkpt>
      <trkpt lat="42.4643930" lon="-2.4576480">
        <ele>395.2</ele>
        <time>2022-08-29T03:31:26Z</time>
      </trkpt>
      <trkpt lat="42.4643790" lon="-2.4576990">
        <ele>395.2</ele>
        <time>2022-08-29T03:31:27Z</time>
      </trkpt>
      <trkpt lat="42.4643410" lon="-2.4577440">
        <ele>395.2</ele>
        <time>2022-08-29T03:31:28Z</time>
      </trkpt>
      <trkpt lat="42.4643230" lon="-2.4577960">
        <ele>395.4</ele>
        <time>2022-08-29T03:31:29Z</time>
      </trkpt>
      <trkpt lat="42.4643130" lon="-2.4578500">
        <ele>395.2</ele>
        <time>2022-08-29T03:31:30Z</time>
      </trkpt>
      <trkpt lat="42.4642980" lon="-2.4579020">
        <ele>395.2</ele>
        <time>2022-08-29T03:31:31Z</time>
      </trkpt>
      <trkpt lat="42.4642880" lon="-2.4579540">
        <ele>395.4</ele>
        <time>2022-08-29T03:31:32Z</time>
      </trkpt>
      <trkpt lat="42.4642710" lon="-2.4580060">
        <ele>395.2</ele>
        <time>2022-08-29T03:31:33Z</time>
      </trkpt>
      <trkpt lat="42.4642550" lon="-2.4580570">
        <ele>395.2</ele>
        <time>2022-08-29T03:31:34Z</time>
      </trkpt>
      <trkpt lat="42.4642420" lon="-2.4581100">
        <ele>395.4</ele>
        <time>2022-08-29T03:31:35Z</time>
      </trkpt>
      <trkpt lat="42.4642260" lon="-2.4581680">
        <ele>395.2</ele>
        <time>2022-08-29T03:31:36Z</time>
      </trkpt>
      <trkpt lat="42.4642060" lon="-2.4582270">
        <ele>395.2</ele>
        <time>2022-08-29T03:31:37Z</time>
      </trkpt>
      <trkpt lat="42.4641870" lon="-2.4582780">
        <ele>395.2</ele>
        <time>2022-08-29T03:31:38Z</time>
      </trkpt>
      <trkpt lat="42.4641810" lon="-2.4583400">
        <ele>395.0</ele>
        <time>2022-08-29T03:31:39Z</time>
      </trkpt>
      <trkpt lat="42.4641640" lon="-2.4584000">
        <ele>395.2</ele>
        <time>2022-08-29T03:31:40Z</time>
      </trkpt>
      <trkpt lat="42.4641520" lon="-2.4584620">
        <ele>395.2</ele>
        <time>2022-08-29T03:31:41Z</time>
      </trkpt>
      <trkpt lat="42.4641360" lon="-2.4585110">
        <ele>395.2</ele>
        <time>2022-08-29T03:31:42Z</time>
      </trkpt>
      <trkpt lat="42.4641200" lon="-2.4585600">
        <ele>395.0</ele>
        <time>2022-08-29T03:31:43Z</time>
      </trkpt>
      <trkpt lat="42.4641080" lon="-2.4586070">
        <ele>395.2</ele>
        <time>2022-08-29T03:31:44Z</time>
      </trkpt>
      <trkpt lat="42.4641010" lon="-2.4586590">
        <ele>395.2</ele>
        <time>2022-08-29T03:31:45Z</time>
      </trkpt>
      <trkpt lat="42.4640900" lon="-2.4587100">
        <ele>395.4</ele>
        <time>2022-08-29T03:31:46Z</time>
      </trkpt>
      <trkpt lat="42.4640770" lon="-2.4587600">
        <ele>395.2</ele>
        <time>2022-08-29T03:31:47Z</time>
      </trkpt>
      <trkpt lat="42.4640640" lon="-2.4588130">
        <ele>395.2</ele>
        <time>2022-08-29T03:31:48Z</time>
      </trkpt>
      <trkpt lat="42.4640520" lon="-2.4588630">
        <ele>395.2</ele>
        <time>2022-08-29T03:31:49Z</time>
      </trkpt>
      <trkpt lat="42.4640430" lon="-2.4589140">
        <ele>395.2</ele>
        <time>2022-08-29T03:31:50Z</time>
      </trkpt>
      <trkpt lat="42.4640370" lon="-2.4589630">
        <ele>395.4</ele>
        <time>2022-08-29T03:31:51Z</time>
      </trkpt>
      <trkpt lat="42.4640260" lon="-2.4590160">
        <ele>395.4</ele>
        <time>2022-08-29T03:31:52Z</time>
      </trkpt>
      <trkpt lat="42.4640070" lon="-2.4590750">
        <ele>395.6</ele>
        <time>2022-08-29T03:31:53Z</time>
      </trkpt>
      <trkpt lat="42.4639850" lon="-2.4591320">
        <ele>395.4</ele>
        <time>2022-08-29T03:31:54Z</time>
      </trkpt>
      <trkpt lat="42.4639700" lon="-2.4591820">
        <ele>395.4</ele>
        <time>2022-08-29T03:31:55Z</time>
      </trkpt>
      <trkpt lat="42.4639510" lon="-2.4592340">
        <ele>395.4</ele>
        <time>2022-08-29T03:31:56Z</time>
      </trkpt>
      <trkpt lat="42.4639340" lon="-2.4592870">
        <ele>395.4</ele>
        <time>2022-08-29T03:31:57Z</time>
      </trkpt>
      <trkpt lat="42.4639250" lon="-2.4593410">
        <ele>395.6</ele>
        <time>2022-08-29T03:31:58Z</time>
      </trkpt>
      <trkpt lat="42.4639130" lon="-2.4593970">
        <ele>395.6</ele>
        <time>2022-08-29T03:31:59Z</time>
      </trkpt>
      <trkpt lat="42.4639010" lon="-2.4594650">
        <ele>395.4</ele>
        <time>2022-08-29T03:32:00Z</time>
      </trkpt>
      <trkpt lat="42.4639070" lon="-2.4595330">
        <ele>395.6</ele>
        <time>2022-08-29T03:32:01Z</time>
      </trkpt>
      <trkpt lat="42.4639220" lon="-2.4596080">
        <ele>395.6</ele>
        <time>2022-08-29T03:32:02Z</time>
      </trkpt>
      <trkpt lat="42.4639570" lon="-2.4596950">
        <ele>395.6</ele>
        <time>2022-08-29T03:32:03Z</time>
      </trkpt>
      <trkpt lat="42.4639640" lon="-2.4597680">
        <ele>395.4</ele>
        <time>2022-08-29T03:32:04Z</time>
      </trkpt>
      <trkpt lat="42.4639540" lon="-2.4598280">
        <ele>395.6</ele>
        <time>2022-08-29T03:32:05Z</time>
      </trkpt>
      <trkpt lat="42.4639480" lon="-2.4598910">
        <ele>395.4</ele>
        <time>2022-08-29T03:32:06Z</time>
      </trkpt>
      <trkpt lat="42.4639410" lon="-2.4599530">
        <ele>395.6</ele>
        <time>2022-08-29T03:32:07Z</time>
      </trkpt>
      <trkpt lat="42.4639300" lon="-2.4600120">
        <ele>395.6</ele>
        <time>2022-08-29T03:32:08Z</time>
      </trkpt>
      <trkpt lat="42.4639210" lon="-2.4600760">
        <ele>395.6</ele>
        <time>2022-08-29T03:32:09Z</time>
      </trkpt>
      <trkpt lat="42.4639090" lon="-2.4601390">
        <ele>395.6</ele>
        <time>2022-08-29T03:32:10Z</time>
      </trkpt>
      <trkpt lat="42.4638990" lon="-2.4602040">
        <ele>395.6</ele>
        <time>2022-08-29T03:32:11Z</time>
      </trkpt>
      <trkpt lat="42.4638870" lon="-2.4602670">
        <ele>395.6</ele>
        <time>2022-08-29T03:32:12Z</time>
      </trkpt>
      <trkpt lat="42.4638770" lon="-2.4603320">
        <ele>395.4</ele>
        <time>2022-08-29T03:32:13Z</time>
      </trkpt>
      <trkpt lat="42.4638680" lon="-2.4603950">
        <ele>395.6</ele>
        <time>2022-08-29T03:32:14Z</time>
      </trkpt>
      <trkpt lat="42.4638580" lon="-2.4604560">
        <ele>395.8</ele>
        <time>2022-08-29T03:32:15Z</time>
      </trkpt>
      <trkpt lat="42.4638490" lon="-2.4605150">
        <ele>395.6</ele>
        <time>2022-08-29T03:32:16Z</time>
      </trkpt>
      <trkpt lat="42.4638390" lon="-2.4605690">
        <ele>395.6</ele>
        <time>2022-08-29T03:32:17Z</time>
      </trkpt>
      <trkpt lat="42.4638260" lon="-2.4606230">
        <ele>395.6</ele>
        <time>2022-08-29T03:32:18Z</time>
      </trkpt>
      <trkpt lat="42.4638110" lon="-2.4606790">
        <ele>395.6</ele>
        <time>2022-08-29T03:32:19Z</time>
      </trkpt>
      <trkpt lat="42.4637960" lon="-2.4607350">
        <ele>395.8</ele>
        <time>2022-08-29T03:32:20Z</time>
      </trkpt>
      <trkpt lat="42.4637840" lon="-2.4607930">
        <ele>395.8</ele>
        <time>2022-08-29T03:32:21Z</time>
      </trkpt>
      <trkpt lat="42.4637720" lon="-2.4608510">
        <ele>396.0</ele>
        <time>2022-08-29T03:32:22Z</time>
      </trkpt>
      <trkpt lat="42.4637580" lon="-2.4609100">
        <ele>395.8</ele>
        <time>2022-08-29T03:32:23Z</time>
      </trkpt>
      <trkpt lat="42.4637460" lon="-2.4609690">
        <ele>396.0</ele>
        <time>2022-08-29T03:32:24Z</time>
      </trkpt>
      <trkpt lat="42.4637330" lon="-2.4610250">
        <ele>395.8</ele>
        <time>2022-08-29T03:32:25Z</time>
      </trkpt>
      <trkpt lat="42.4637210" lon="-2.4610830">
        <ele>395.8</ele>
        <time>2022-08-29T03:32:26Z</time>
      </trkpt>
      <trkpt lat="42.4637110" lon="-2.4611400">
        <ele>395.8</ele>
        <time>2022-08-29T03:32:27Z</time>
      </trkpt>
      <trkpt lat="42.4637000" lon="-2.4611970">
        <ele>395.8</ele>
        <time>2022-08-29T03:32:28Z</time>
      </trkpt>
      <trkpt lat="42.4636870" lon="-2.4612570">
        <ele>396.0</ele>
        <time>2022-08-29T03:32:29Z</time>
      </trkpt>
      <trkpt lat="42.4636770" lon="-2.4613160">
        <ele>395.8</ele>
        <time>2022-08-29T03:32:30Z</time>
      </trkpt>
      <trkpt lat="42.4636630" lon="-2.4613730">
        <ele>395.8</ele>
        <time>2022-08-29T03:32:31Z</time>
      </trkpt>
      <trkpt lat="42.4636490" lon="-2.4614270">
        <ele>396.0</ele>
        <time>2022-08-29T03:32:32Z</time>
      </trkpt>
      <trkpt lat="42.4636320" lon="-2.4614850">
        <ele>396.0</ele>
        <time>2022-08-29T03:32:33Z</time>
      </trkpt>
      <trkpt lat="42.4636150" lon="-2.4615420">
        <ele>396.0</ele>
        <time>2022-08-29T03:32:34Z</time>
      </trkpt>
      <trkpt lat="42.4636010" lon="-2.4615960">
        <ele>396.0</ele>
        <time>2022-08-29T03:32:35Z</time>
      </trkpt>
      <trkpt lat="42.4635860" lon="-2.4616500">
        <ele>396.0</ele>
        <time>2022-08-29T03:32:36Z</time>
      </trkpt>
      <trkpt lat="42.4635730" lon="-2.4617040">
        <ele>396.0</ele>
        <time>2022-08-29T03:32:37Z</time>
      </trkpt>
      <trkpt lat="42.4635590" lon="-2.4617530">
        <ele>395.8</ele>
        <time>2022-08-29T03:32:38Z</time>
      </trkpt>
      <trkpt lat="42.4635440" lon="-2.4618040">
        <ele>395.8</ele>
        <time>2022-08-29T03:32:39Z</time>
      </trkpt>
      <trkpt lat="42.4635310" lon="-2.4618520">
        <ele>395.8</ele>
        <time>2022-08-29T03:32:40Z</time>
      </trkpt>
      <trkpt lat="42.4635200" lon="-2.4619010">
        <ele>395.8</ele>
        <time>2022-08-29T03:32:41Z</time>
      </trkpt>
      <trkpt lat="42.4635220" lon="-2.4619550">
        <ele>395.8</ele>
        <time>2022-08-29T03:32:42Z</time>
      </trkpt>
      <trkpt lat="42.4635190" lon="-2.4620050">
        <ele>395.8</ele>
        <time>2022-08-29T03:32:43Z</time>
      </trkpt>
      <trkpt lat="42.4635180" lon="-2.4620550">
        <ele>396.0</ele>
        <time>2022-08-29T03:32:44Z</time>
      </trkpt>
      <trkpt lat="42.4635200" lon="-2.4621030">
        <ele>396.0</ele>
        <time>2022-08-29T03:32:45Z</time>
      </trkpt>
      <trkpt lat="42.4635160" lon="-2.4621490">
        <ele>396.0</ele>
        <time>2022-08-29T03:32:46Z</time>
      </trkpt>
      <trkpt lat="42.4635060" lon="-2.4621910">
        <ele>396.2</ele>
        <time>2022-08-29T03:32:47Z</time>
      </trkpt>
      <trkpt lat="42.4634910" lon="-2.4622270">
        <ele>396.2</ele>
        <time>2022-08-29T03:32:48Z</time>
      </trkpt>
      <trkpt lat="42.4634670" lon="-2.4622560">
        <ele>396.6</ele>
        <time>2022-08-29T03:32:49Z</time>
      </trkpt>
      <trkpt lat="42.4634380" lon="-2.4622780">
        <ele>396.8</ele>
        <time>2022-08-29T03:32:50Z</time>
      </trkpt>
      <trkpt lat="42.4634110" lon="-2.4622940">
        <ele>397.2</ele>
        <time>2022-08-29T03:32:51Z</time>
      </trkpt>
      <trkpt lat="42.4633810" lon="-2.4622970">
        <ele>397.2</ele>
        <time>2022-08-29T03:32:52Z</time>
      </trkpt>
      <trkpt lat="42.4633540" lon="-2.4622930">
        <ele>397.4</ele>
        <time>2022-08-29T03:32:53Z</time>
      </trkpt>
      <trkpt lat="42.4633270" lon="-2.4622820">
        <ele>397.4</ele>
        <time>2022-08-29T03:32:54Z</time>
      </trkpt>
      <trkpt lat="42.4633040" lon="-2.4622600">
        <ele>397.4</ele>
        <time>2022-08-29T03:32:55Z</time>
      </trkpt>
      <trkpt lat="42.4632760" lon="-2.4622320">
        <ele>397.4</ele>
        <time>2022-08-29T03:32:56Z</time>
      </trkpt>
      <trkpt lat="42.4632520" lon="-2.4622100">
        <ele>397.6</ele>
        <time>2022-08-29T03:32:57Z</time>
      </trkpt>
      <trkpt lat="42.4632210" lon="-2.4621880">
        <ele>397.6</ele>
        <time>2022-08-29T03:32:58Z</time>
      </trkpt>
      <trkpt lat="42.4631790" lon="-2.4621630">
        <ele>397.8</ele>
        <time>2022-08-29T03:32:59Z</time>
      </trkpt>
      <trkpt lat="42.4631270" lon="-2.4621220">
        <ele>397.8</ele>
        <time>2022-08-29T03:33:00Z</time>
      </trkpt>
      <trkpt lat="42.4630810" lon="-2.4621020">
        <ele>397.8</ele>
        <time>2022-08-29T03:33:01Z</time>
      </trkpt>
      <trkpt lat="42.4630380" lon="-2.4620820">
        <ele>397.8</ele>
        <time>2022-08-29T03:33:02Z</time>
      </trkpt>
      <trkpt lat="42.4629950" lon="-2.4620600">
        <ele>397.8</ele>
        <time>2022-08-29T03:33:03Z</time>
      </trkpt>
      <trkpt lat="42.4629480" lon="-2.4620370">
        <ele>397.8</ele>
        <time>2022-08-29T03:33:04Z</time>
      </trkpt>
      <trkpt lat="42.4628960" lon="-2.4620120">
        <ele>397.8</ele>
        <time>2022-08-29T03:33:05Z</time>
      </trkpt>
      <trkpt lat="42.4628410" lon="-2.4619960">
        <ele>397.8</ele>
        <time>2022-08-29T03:33:06Z</time>
      </trkpt>
      <trkpt lat="42.4627920" lon="-2.4619850">
        <ele>397.8</ele>
        <time>2022-08-29T03:33:07Z</time>
      </trkpt>
      <trkpt lat="42.4627470" lon="-2.4619710">
        <ele>397.8</ele>
        <time>2022-08-29T03:33:08Z</time>
      </trkpt>
      <trkpt lat="42.4627040" lon="-2.4619520">
        <ele>397.8</ele>
        <time>2022-08-29T03:33:09Z</time>
      </trkpt>
      <trkpt lat="42.4626620" lon="-2.4619350">
        <ele>397.8</ele>
        <time>2022-08-29T03:33:10Z</time>
      </trkpt>
      <trkpt lat="42.4626220" lon="-2.4619120">
        <ele>397.8</ele>
        <time>2022-08-29T03:33:11Z</time>
      </trkpt>
      <trkpt lat="42.4625790" lon="-2.4618860">
        <ele>398.0</ele>
        <time>2022-08-29T03:33:12Z</time>
      </trkpt>
      <trkpt lat="42.4625400" lon="-2.4618620">
        <ele>397.8</ele>
        <time>2022-08-29T03:33:13Z</time>
      </trkpt>
      <trkpt lat="42.4624970" lon="-2.4618350">
        <ele>397.8</ele>
        <time>2022-08-29T03:33:14Z</time>
      </trkpt>
      <trkpt lat="42.4624470" lon="-2.4618000">
        <ele>397.6</ele>
        <time>2022-08-29T03:33:15Z</time>
      </trkpt>
      <trkpt lat="42.4624040" lon="-2.4617730">
        <ele>397.8</ele>
        <time>2022-08-29T03:33:16Z</time>
      </trkpt>
      <trkpt lat="42.4623600" lon="-2.4617500">
        <ele>397.8</ele>
        <time>2022-08-29T03:33:17Z</time>
      </trkpt>
      <trkpt lat="42.4623160" lon="-2.4617240">
        <ele>397.8</ele>
        <time>2022-08-29T03:33:18Z</time>
      </trkpt>
      <trkpt lat="42.4622790" lon="-2.4617010">
        <ele>397.6</ele>
        <time>2022-08-29T03:33:19Z</time>
      </trkpt>
      <trkpt lat="42.4622330" lon="-2.4616890">
        <ele>397.6</ele>
        <time>2022-08-29T03:33:20Z</time>
      </trkpt>
      <trkpt lat="42.4621830" lon="-2.4616690">
        <ele>397.6</ele>
        <time>2022-08-29T03:33:21Z</time>
      </trkpt>
      <trkpt lat="42.4621390" lon="-2.4616550">
        <ele>397.6</ele>
        <time>2022-08-29T03:33:22Z</time>
      </trkpt>
      <trkpt lat="42.4620830" lon="-2.4616500">
        <ele>397.6</ele>
        <time>2022-08-29T03:33:23Z</time>
      </trkpt>
      <trkpt lat="42.4620370" lon="-2.4616440">
        <ele>397.6</ele>
        <time>2022-08-29T03:33:24Z</time>
      </trkpt>
      <trkpt lat="42.4619910" lon="-2.4616360">
        <ele>397.6</ele>
        <time>2022-08-29T03:33:25Z</time>
      </trkpt>
      <trkpt lat="42.4619370" lon="-2.4616250">
        <ele>397.6</ele>
        <time>2022-08-29T03:33:26Z</time>
      </trkpt>
      <trkpt lat="42.4618900" lon="-2.4616140">
        <ele>397.6</ele>
        <time>2022-08-29T03:33:27Z</time>
      </trkpt>
      <trkpt lat="42.4618400" lon="-2.4616050">
        <ele>397.6</ele>
        <time>2022-08-29T03:33:28Z</time>
      </trkpt>
      <trkpt lat="42.4617950" lon="-2.4615940">
        <ele>397.6</ele>
        <time>2022-08-29T03:33:29Z</time>
      </trkpt>
      <trkpt lat="42.4617430" lon="-2.4615840">
        <ele>397.8</ele>
        <time>2022-08-29T03:33:30Z</time>
      </trkpt>
      <trkpt lat="42.4616980" lon="-2.4615700">
        <ele>397.8</ele>
        <time>2022-08-29T03:33:31Z</time>
      </trkpt>
      <trkpt lat="42.4616530" lon="-2.4615560">
        <ele>397.8</ele>
        <time>2022-08-29T03:33:32Z</time>
      </trkpt>
      <trkpt lat="42.4616060" lon="-2.4615290">
        <ele>397.8</ele>
        <time>2022-08-29T03:33:33Z</time>
      </trkpt>
      <trkpt lat="42.4615660" lon="-2.4615130">
        <ele>397.8</ele>
        <time>2022-08-29T03:33:34Z</time>
      </trkpt>
      <trkpt lat="42.4615370" lon="-2.4614840">
        <ele>398.0</ele>
        <time>2022-08-29T03:33:35Z</time>
      </trkpt>
      <trkpt lat="42.4615030" lon="-2.4614630">
        <ele>398.0</ele>
        <time>2022-08-29T03:33:36Z</time>
      </trkpt>
      <trkpt lat="42.4614560" lon="-2.4614360">
        <ele>398.0</ele>
        <time>2022-08-29T03:33:37Z</time>
      </trkpt>
      <trkpt lat="42.4614310" lon="-2.4614160">
        <ele>398.2</ele>
        <time>2022-08-29T03:33:38Z</time>
      </trkpt>
      <trkpt lat="42.4613930" lon="-2.4613960">
        <ele>398.2</ele>
        <time>2022-08-29T03:33:39Z</time>
      </trkpt>
      <trkpt lat="42.4613520" lon="-2.4613660">
        <ele>398.4</ele>
        <time>2022-08-29T03:33:40Z</time>
      </trkpt>
      <trkpt lat="42.4613180" lon="-2.4613420">
        <ele>398.2</ele>
        <time>2022-08-29T03:33:41Z</time>
      </trkpt>
      <trkpt lat="42.4612850" lon="-2.4613220">
        <ele>398.2</ele>
        <time>2022-08-29T03:33:42Z</time>
      </trkpt>
      <trkpt lat="42.4612530" lon="-2.4613010">
        <ele>398.4</ele>
        <time>2022-08-29T03:33:43Z</time>
      </trkpt>
      <trkpt lat="42.4612210" lon="-2.4612780">
        <ele>398.4</ele>
        <time>2022-08-29T03:33:44Z</time>
      </trkpt>
      <trkpt lat="42.4611860" lon="-2.4612550">
        <ele>398.4</ele>
        <time>2022-08-29T03:33:45Z</time>
      </trkpt>
      <trkpt lat="42.4611610" lon="-2.4612360">
        <ele>398.4</ele>
        <time>2022-08-29T03:33:46Z</time>
      </trkpt>
      <trkpt lat="42.4611380" lon="-2.4612250">
        <ele>398.4</ele>
        <time>2022-08-29T03:33:47Z</time>
      </trkpt>
      <trkpt lat="42.4611130" lon="-2.4612130">
        <ele>398.6</ele>
        <time>2022-08-29T03:33:48Z</time>
      </trkpt>
      <trkpt lat="42.4610850" lon="-2.4611990">
        <ele>398.6</ele>
        <time>2022-08-29T03:33:49Z</time>
      </trkpt>
      <trkpt lat="42.4610560" lon="-2.4611830">
        <ele>398.6</ele>
        <time>2022-08-29T03:33:50Z</time>
      </trkpt>
      <trkpt lat="42.4610300" lon="-2.4611660">
        <ele>398.6</ele>
        <time>2022-08-29T03:33:51Z</time>
      </trkpt>
      <trkpt lat="42.4610060" lon="-2.4611490">
        <ele>398.6</ele>
        <time>2022-08-29T03:33:52Z</time>
      </trkpt>
      <trkpt lat="42.4609800" lon="-2.4611310">
        <ele>398.8</ele>
        <time>2022-08-29T03:33:53Z</time>
      </trkpt>
      <trkpt lat="42.4609510" lon="-2.4611140">
        <ele>398.8</ele>
        <time>2022-08-29T03:33:54Z</time>
      </trkpt>
      <trkpt lat="42.4609170" lon="-2.4611030">
        <ele>398.8</ele>
        <time>2022-08-29T03:33:55Z</time>
      </trkpt>
      <trkpt lat="42.4608850" lon="-2.4610920">
        <ele>399.0</ele>
        <time>2022-08-29T03:33:56Z</time>
      </trkpt>
      <trkpt lat="42.4608540" lon="-2.4610830">
        <ele>399.0</ele>
        <time>2022-08-29T03:33:57Z</time>
      </trkpt>
      <trkpt lat="42.4608210" lon="-2.4610730">
        <ele>399.0</ele>
        <time>2022-08-29T03:33:58Z</time>
      </trkpt>
      <trkpt lat="42.4607920" lon="-2.4610620">
        <ele>399.0</ele>
        <time>2022-08-29T03:33:59Z</time>
      </trkpt>
      <trkpt lat="42.4607640" lon="-2.4610510">
        <ele>399.0</ele>
        <time>2022-08-29T03:34:00Z</time>
      </trkpt>
      <trkpt lat="42.4607400" lon="-2.4610420">
        <ele>399.2</ele>
        <time>2022-08-29T03:34:01Z</time>
      </trkpt>
      <trkpt lat="42.4607150" lon="-2.4610390">
        <ele>399.2</ele>
        <time>2022-08-29T03:34:02Z</time>
      </trkpt>
      <trkpt lat="42.4606890" lon="-2.4610390">
        <ele>399.2</ele>
        <time>2022-08-29T03:34:03Z</time>
      </trkpt>
      <trkpt lat="42.4606640" lon="-2.4610450">
        <ele>399.2</ele>
        <time>2022-08-29T03:34:04Z</time>
      </trkpt>
      <trkpt lat="42.4606300" lon="-2.4610520">
        <ele>399.2</ele>
        <time>2022-08-29T03:34:05Z</time>
      </trkpt>
      <trkpt lat="42.4606130" lon="-2.4610770">
        <ele>399.2</ele>
        <time>2022-08-29T03:34:06Z</time>
      </trkpt>
      <trkpt lat="42.4605920" lon="-2.4611000">
        <ele>399.2</ele>
        <time>2022-08-29T03:34:07Z</time>
      </trkpt>
      <trkpt lat="42.4605600" lon="-2.4611190">
        <ele>399.4</ele>
        <time>2022-08-29T03:34:08Z</time>
      </trkpt>
      <trkpt lat="42.4605330" lon="-2.4611370">
        <ele>399.2</ele>
        <time>2022-08-29T03:34:09Z</time>
      </trkpt>
      <trkpt lat="42.4605030" lon="-2.4611590">
        <ele>399.2</ele>
        <time>2022-08-29T03:34:10Z</time>
      </trkpt>
      <trkpt lat="42.4604840" lon="-2.4611780">
        <ele>399.2</ele>
        <time>2022-08-29T03:34:11Z</time>
      </trkpt>
      <trkpt lat="42.4604650" lon="-2.4612060">
        <ele>399.4</ele>
        <time>2022-08-29T03:34:12Z</time>
      </trkpt>
      <trkpt lat="42.4604520" lon="-2.4612320">
        <ele>399.4</ele>
        <time>2022-08-29T03:34:13Z</time>
      </trkpt>
      <trkpt lat="42.4604400" lon="-2.4612570">
        <ele>399.4</ele>
        <time>2022-08-29T03:34:14Z</time>
      </trkpt>
      <trkpt lat="42.4604250" lon="-2.4612850">
        <ele>399.6</ele>
        <time>2022-08-29T03:34:15Z</time>
      </trkpt>
      <trkpt lat="42.4604100" lon="-2.4613160">
        <ele>399.4</ele>
        <time>2022-08-29T03:34:16Z</time>
      </trkpt>
      <trkpt lat="42.4603970" lon="-2.4613520">
        <ele>399.4</ele>
        <time>2022-08-29T03:34:17Z</time>
      </trkpt>
      <trkpt lat="42.4603850" lon="-2.4613930">
        <ele>399.6</ele>
        <time>2022-08-29T03:34:18Z</time>
      </trkpt>
      <trkpt lat="42.4603770" lon="-2.4614250">
        <ele>399.8</ele>
        <time>2022-08-29T03:34:19Z</time>
      </trkpt>
      <trkpt lat="42.4603700" lon="-2.4614570">
        <ele>399.8</ele>
        <time>2022-08-29T03:34:20Z</time>
      </trkpt>
      <trkpt lat="42.4603610" lon="-2.4614910">
        <ele>399.6</ele>
        <time>2022-08-29T03:34:21Z</time>
      </trkpt>
      <trkpt lat="42.4603560" lon="-2.4615230">
        <ele>399.8</ele>
        <time>2022-08-29T03:34:22Z</time>
      </trkpt>
      <trkpt lat="42.4603510" lon="-2.4615570">
        <ele>399.8</ele>
        <time>2022-08-29T03:34:23Z</time>
      </trkpt>
      <trkpt lat="42.4603360" lon="-2.4616250">
        <ele>399.8</ele>
        <time>2022-08-29T03:34:24Z</time>
      </trkpt>
      <trkpt lat="42.4603360" lon="-2.4616590">
        <ele>400.0</ele>
        <time>2022-08-29T03:34:25Z</time>
      </trkpt>
      <trkpt lat="42.4603410" lon="-2.4616950">
        <ele>400.0</ele>
        <time>2022-08-29T03:34:26Z</time>
      </trkpt>
      <trkpt lat="42.4603500" lon="-2.4617310">
        <ele>400.0</ele>
        <time>2022-08-29T03:34:27Z</time>
      </trkpt>
      <trkpt lat="42.4603600" lon="-2.4617640">
        <ele>400.0</ele>
        <time>2022-08-29T03:34:28Z</time>
      </trkpt>
      <trkpt lat="42.4603730" lon="-2.4617950">
        <ele>400.2</ele>
        <time>2022-08-29T03:34:29Z</time>
      </trkpt>
      <trkpt lat="42.4603920" lon="-2.4618200">
        <ele>400.2</ele>
        <time>2022-08-29T03:34:30Z</time>
      </trkpt>
      <trkpt lat="42.4604110" lon="-2.4618400">
        <ele>400.2</ele>
        <time>2022-08-29T03:34:31Z</time>
      </trkpt>
      <trkpt lat="42.4604330" lon="-2.4618600">
        <ele>400.4</ele>
        <time>2022-08-29T03:34:32Z</time>
      </trkpt>
      <trkpt lat="42.4604550" lon="-2.4618800">
        <ele>400.6</ele>
        <time>2022-08-29T03:34:33Z</time>
      </trkpt>
      <trkpt lat="42.4604780" lon="-2.4619000">
        <ele>400.4</ele>
        <time>2022-08-29T03:34:34Z</time>
      </trkpt>
      <trkpt lat="42.4605040" lon="-2.4619230">
        <ele>400.4</ele>
        <time>2022-08-29T03:34:35Z</time>
      </trkpt>
      <trkpt lat="42.4605190" lon="-2.4619510">
        <ele>400.4</ele>
        <time>2022-08-29T03:34:36Z</time>
      </trkpt>
      <trkpt lat="42.4605220" lon="-2.4619790">
        <ele>400.6</ele>
        <time>2022-08-29T03:34:37Z</time>
      </trkpt>
      <trkpt lat="42.4605200" lon="-2.4620040">
        <ele>400.6</ele>
        <time>2022-08-29T03:34:38Z</time>
      </trkpt>
      <trkpt lat="42.4605090" lon="-2.4620200">
        <ele>400.6</ele>
        <time>2022-08-29T03:34:39Z</time>
      </trkpt>
      <trkpt lat="42.4604850" lon="-2.4620220">
        <ele>400.6</ele>
        <time>2022-08-29T03:34:40Z</time>
      </trkpt>
      <trkpt lat="42.4604620" lon="-2.4620120">
        <ele>400.8</ele>
        <time>2022-08-29T03:34:41Z</time>
      </trkpt>
      <trkpt lat="42.4604380" lon="-2.4619970">
        <ele>400.6</ele>
        <time>2022-08-29T03:34:42Z</time>
      </trkpt>
      <trkpt lat="42.4604180" lon="-2.4619820">
        <ele>400.6</ele>
        <time>2022-08-29T03:34:43Z</time>
      </trkpt>
      <trkpt lat="42.4603990" lon="-2.4619760">
        <ele>400.8</ele>
        <time>2022-08-29T03:34:44Z</time>
      </trkpt>
      <trkpt lat="42.4603810" lon="-2.4619720">
        <ele>400.6</ele>
        <time>2022-08-29T03:34:45Z</time>
      </trkpt>
      <trkpt lat="42.4603600" lon="-2.4619750">
        <ele>400.6</ele>
        <time>2022-08-29T03:34:46Z</time>
      </trkpt>
      <trkpt lat="42.4603450" lon="-2.4619850">
        <ele>400.6</ele>
        <time>2022-08-29T03:34:47Z</time>
      </trkpt>
      <trkpt lat="42.4603290" lon="-2.4620060">
        <ele>400.6</ele>
        <time>2022-08-29T03:34:48Z</time>
      </trkpt>
      <trkpt lat="42.4603180" lon="-2.4620230">
        <ele>400.8</ele>
        <time>2022-08-29T03:34:49Z</time>
      </trkpt>
      <trkpt lat="42.4603050" lon="-2.4620410">
        <ele>400.8</ele>
        <time>2022-08-29T03:34:50Z</time>
      </trkpt>
      <trkpt lat="42.4602880" lon="-2.4620610">
        <ele>401.0</ele>
        <time>2022-08-29T03:34:51Z</time>
      </trkpt>
      <trkpt lat="42.4602740" lon="-2.4620760">
        <ele>401.2</ele>
        <time>2022-08-29T03:34:52Z</time>
      </trkpt>
      <trkpt lat="42.4602600" lon="-2.4620910">
        <ele>401.8</ele>
        <time>2022-08-29T03:34:53Z</time>
      </trkpt>
      <trkpt lat="42.4602510" lon="-2.4621050">
        <ele>402.0</ele>
        <time>2022-08-29T03:34:54Z</time>
      </trkpt>
      <trkpt lat="42.4602480" lon="-2.4621190">
        <ele>402.0</ele>
        <time>2022-08-29T03:34:55Z</time>
      </trkpt>
      <trkpt lat="42.4602350" lon="-2.4621400">
        <ele>402.2</ele>
        <time>2022-08-29T03:34:56Z</time>
      </trkpt>
      <trkpt lat="42.4602250" lon="-2.4621610">
        <ele>402.2</ele>
        <time>2022-08-29T03:34:57Z</time>
      </trkpt>
      <trkpt lat="42.4602140" lon="-2.4621810">
        <ele>402.4</ele>
        <time>2022-08-29T03:34:58Z</time>
      </trkpt>
      <trkpt lat="42.4602050" lon="-2.4622000">
        <ele>402.4</ele>
        <time>2022-08-29T03:34:59Z</time>
      </trkpt>
      <trkpt lat="42.4601960" lon="-2.4622230">
        <ele>402.6</ele>
        <time>2022-08-29T03:35:00Z</time>
      </trkpt>
      <trkpt lat="42.4601890" lon="-2.4622510">
        <ele>402.8</ele>
        <time>2022-08-29T03:35:01Z</time>
      </trkpt>
      <trkpt lat="42.4601840" lon="-2.4622870">
        <ele>402.8</ele>
        <time>2022-08-29T03:35:02Z</time>
      </trkpt>
      <trkpt lat="42.4601800" lon="-2.4623200">
        <ele>403.0</ele>
        <time>2022-08-29T03:35:03Z</time>
      </trkpt>
      <trkpt lat="42.4601730" lon="-2.4623590">
        <ele>403.0</ele>
        <time>2022-08-29T03:35:04Z</time>
      </trkpt>
      <trkpt lat="42.4601630" lon="-2.4623960">
        <ele>403.0</ele>
        <time>2022-08-29T03:35:05Z</time>
      </trkpt>
      <trkpt lat="42.4601510" lon="-2.4624270">
        <ele>403.2</ele>
        <time>2022-08-29T03:35:06Z</time>
      </trkpt>
      <trkpt lat="42.4601400" lon="-2.4624590">
        <ele>403.4</ele>
        <time>2022-08-29T03:35:07Z</time>
      </trkpt>
      <trkpt lat="42.4601330" lon="-2.4624900">
        <ele>403.6</ele>
        <time>2022-08-29T03:35:08Z</time>
      </trkpt>
      <trkpt lat="42.4601260" lon="-2.4625210">
        <ele>403.8</ele>
        <time>2022-08-29T03:35:09Z</time>
      </trkpt>
      <trkpt lat="42.4601190" lon="-2.4625500">
        <ele>403.8</ele>
        <time>2022-08-29T03:35:10Z</time>
      </trkpt>
      <trkpt lat="42.4601120" lon="-2.4625790">
        <ele>404.0</ele>
        <time>2022-08-29T03:35:11Z</time>
      </trkpt>
      <trkpt lat="42.4601030" lon="-2.4626110">
        <ele>404.0</ele>
        <time>2022-08-29T03:35:12Z</time>
      </trkpt>
      <trkpt lat="42.4600940" lon="-2.4626440">
        <ele>404.2</ele>
        <time>2022-08-29T03:35:13Z</time>
      </trkpt>
      <trkpt lat="42.4600870" lon="-2.4626760">
        <ele>404.6</ele>
        <time>2022-08-29T03:35:14Z</time>
      </trkpt>
      <trkpt lat="42.4600760" lon="-2.4627080">
        <ele>404.8</ele>
        <time>2022-08-29T03:35:15Z</time>
      </trkpt>
      <trkpt lat="42.4600650" lon="-2.4627400">
        <ele>404.8</ele>
        <time>2022-08-29T03:35:16Z</time>
      </trkpt>
      <trkpt lat="42.4600580" lon="-2.4627720">
        <ele>405.2</ele>
        <time>2022-08-29T03:35:17Z</time>
      </trkpt>
      <trkpt lat="42.4600490" lon="-2.4628040">
        <ele>405.2</ele>
        <time>2022-08-29T03:35:18Z</time>
      </trkpt>
      <trkpt lat="42.4600430" lon="-2.4628290">
        <ele>405.2</ele>
        <time>2022-08-29T03:35:19Z</time>
      </trkpt>
      <trkpt lat="42.4600390" lon="-2.4628460">
        <ele>405.4</ele>
        <time>2022-08-29T03:35:20Z</time>
      </trkpt>
      <trkpt lat="42.4600360" lon="-2.4628580">
        <ele>405.4</ele>
        <time>2022-08-29T03:35:21Z</time>
      </trkpt>
      <trkpt lat="42.4600330" lon="-2.4628680">
        <ele>405.6</ele>
        <time>2022-08-29T03:35:22Z</time>
      </trkpt>
      <trkpt lat="42.4600320" lon="-2.4628730">
        <ele>405.6</ele>
        <time>2022-08-29T03:35:23Z</time>
      </trkpt>
      <trkpt lat="42.4600310" lon="-2.4628750">
        <ele>405.8</ele>
        <time>2022-08-29T03:35:24Z</time>
      </trkpt>
      <trkpt lat="42.4600310" lon="-2.4628770">
        <ele>406.0</ele>
        <time>2022-08-29T03:35:25Z</time>
      </trkpt>
      <trkpt lat="42.4600300" lon="-2.4628780">
        <ele>406.0</ele>
        <time>2022-08-29T03:35:26Z</time>
      </trkpt>
      <trkpt lat="42.4600280" lon="-2.4628780">
        <ele>406.2</ele>
        <time>2022-08-29T03:35:27Z</time>
      </trkpt>
      <trkpt lat="42.4600280" lon="-2.4628780">
        <ele>406.4</ele>
        <time>2022-08-29T03:35:28Z</time>
      </trkpt>
      <trkpt lat="42.4600280" lon="-2.4628790">
        <ele>406.4</ele>
        <time>2022-08-29T03:35:29Z</time>
      </trkpt>
      <trkpt lat="42.4600270" lon="-2.4628810">
        <ele>406.8</ele>
        <time>2022-08-29T03:35:30Z</time>
      </trkpt>
      <trkpt lat="42.4600260" lon="-2.4628820">
        <ele>406.8</ele>
        <time>2022-08-29T03:35:31Z</time>
      </trkpt>
      <trkpt lat="42.4600250" lon="-2.4628830">
        <ele>406.8</ele>
        <time>2022-08-29T03:35:32Z</time>
      </trkpt>
      <trkpt lat="42.4600240" lon="-2.4628830">
        <ele>407.0</ele>
        <time>2022-08-29T03:35:33Z</time>
      </trkpt>
      <trkpt lat="42.4600240" lon="-2.4628850">
        <ele>406.8</ele>
        <time>2022-08-29T03:35:34Z</time>
      </trkpt>
      <trkpt lat="42.4600240" lon="-2.4628860">
        <ele>407.0</ele>
        <time>2022-08-29T03:35:35Z</time>
      </trkpt>
      <trkpt lat="42.4600230" lon="-2.4628870">
        <ele>407.0</ele>
        <time>2022-08-29T03:35:36Z</time>
      </trkpt>
      <trkpt lat="42.4600230" lon="-2.4628880">
        <ele>407.0</ele>
        <time>2022-08-29T03:35:37Z</time>
      </trkpt>
      <trkpt lat="42.4600240" lon="-2.4628880">
        <ele>407.0</ele>
        <time>2022-08-29T03:35:38Z</time>
      </trkpt>
      <trkpt lat="42.4600240" lon="-2.4628880">
        <ele>407.0</ele>
        <time>2022-08-29T03:35:39Z</time>
      </trkpt>
      <trkpt lat="42.4600240" lon="-2.4628880">
        <ele>407.0</ele>
        <time>2022-08-29T03:35:40Z</time>
      </trkpt>
      <trkpt lat="42.4600240" lon="-2.4628890">
        <ele>407.0</ele>
        <time>2022-08-29T03:35:41Z</time>
      </trkpt>
      <trkpt lat="42.4600230" lon="-2.4628890">
        <ele>407.0</ele>
        <time>2022-08-29T03:35:42Z</time>
      </trkpt>
      <trkpt lat="42.4600230" lon="-2.4628880">
        <ele>407.0</ele>
        <time>2022-08-29T03:35:43Z</time>
      </trkpt>
      <trkpt lat="42.4600230" lon="-2.4628870">
        <ele>407.0</ele>
        <time>2022-08-29T03:35:44Z</time>
      </trkpt>
      <trkpt lat="42.4600220" lon="-2.4628870">
        <ele>406.8</ele>
        <time>2022-08-29T03:35:45Z</time>
      </trkpt>
      <trkpt lat="42.4600220" lon="-2.4628870">
        <ele>406.8</ele>
        <time>2022-08-29T03:35:46Z</time>
      </trkpt>
      <trkpt lat="42.4600210" lon="-2.4628870">
        <ele>407.0</ele>
        <time>2022-08-29T03:35:47Z</time>
      </trkpt>
      <trkpt lat="42.4600210" lon="-2.4628870">
        <ele>406.8</ele>
        <time>2022-08-29T03:35:48Z</time>
      </trkpt>
      <trkpt lat="42.4600210" lon="-2.4628860">
        <ele>407.0</ele>
        <time>2022-08-29T03:35:49Z</time>
      </trkpt>
      <trkpt lat="42.4600200" lon="-2.4628850">
        <ele>407.0</ele>
        <time>2022-08-29T03:35:50Z</time>
      </trkpt>
      <trkpt lat="42.4600200" lon="-2.4628850">
        <ele>406.8</ele>
        <time>2022-08-29T03:35:51Z</time>
      </trkpt>
      <trkpt lat="42.4600200" lon="-2.4628840">
        <ele>406.8</ele>
        <time>2022-08-29T03:35:52Z</time>
      </trkpt>
      <trkpt lat="42.4600200" lon="-2.4628840">
        <ele>406.8</ele>
        <time>2022-08-29T03:35:53Z</time>
      </trkpt>
      <trkpt lat="42.4600190" lon="-2.4628840">
        <ele>406.8</ele>
        <time>2022-08-29T03:35:54Z</time>
      </trkpt>
      <trkpt lat="42.4600190" lon="-2.4628840">
        <ele>406.8</ele>
        <time>2022-08-29T03:35:55Z</time>
      </trkpt>
      <trkpt lat="42.4600180" lon="-2.4628840">
        <ele>407.0</ele>
        <time>2022-08-29T03:35:56Z</time>
      </trkpt>
      <trkpt lat="42.4600170" lon="-2.4628850">
        <ele>407.0</ele>
        <time>2022-08-29T03:35:57Z</time>
      </trkpt>
      <trkpt lat="42.4600160" lon="-2.4628850">
        <ele>407.0</ele>
        <time>2022-08-29T03:35:58Z</time>
      </trkpt>
      <trkpt lat="42.4600150" lon="-2.4628850">
        <ele>407.0</ele>
        <time>2022-08-29T03:35:59Z</time>
      </trkpt>
      <trkpt lat="42.4600150" lon="-2.4628850">
        <ele>406.8</ele>
        <time>2022-08-29T03:36:00Z</time>
      </trkpt>
      <trkpt lat="42.4600150" lon="-2.4628850">
        <ele>407.0</ele>
        <time>2022-08-29T03:36:01Z</time>
      </trkpt>
      <trkpt lat="42.4600150" lon="-2.4628850">
        <ele>407.0</ele>
        <time>2022-08-29T03:36:02Z</time>
      </trkpt>
      <trkpt lat="42.4600150" lon="-2.4628850">
        <ele>406.8</ele>
        <time>2022-08-29T03:36:03Z</time>
      </trkpt>
      <trkpt lat="42.4600140" lon="-2.4628860">
        <ele>406.8</ele>
        <time>2022-08-29T03:36:04Z</time>
      </trkpt>
      <trkpt lat="42.4600130" lon="-2.4628860">
        <ele>407.0</ele>
        <time>2022-08-29T03:36:05Z</time>
      </trkpt>
      <trkpt lat="42.4600120" lon="-2.4628870">
        <ele>407.0</ele>
        <time>2022-08-29T03:36:06Z</time>
      </trkpt>
      <trkpt lat="42.4600120" lon="-2.4628870">
        <ele>407.0</ele>
        <time>2022-08-29T03:36:07Z</time>
      </trkpt>
      <trkpt lat="42.4600120" lon="-2.4628870">
        <ele>407.2</ele>
        <time>2022-08-29T03:36:08Z</time>
      </trkpt>
      <trkpt lat="42.4600120" lon="-2.4628870">
        <ele>407.0</ele>
        <time>2022-08-29T03:36:09Z</time>
      </trkpt>
      <trkpt lat="42.4600120" lon="-2.4628870">
        <ele>407.0</ele>
        <time>2022-08-29T03:36:10Z</time>
      </trkpt>
      <trkpt lat="42.4600120" lon="-2.4628870">
        <ele>407.2</ele>
        <time>2022-08-29T03:36:11Z</time>
      </trkpt>
      <trkpt lat="42.4600120" lon="-2.4628860">
        <ele>407.2</ele>
        <time>2022-08-29T03:36:12Z</time>
      </trkpt>
      <trkpt lat="42.4600120" lon="-2.4628860">
        <ele>407.2</ele>
        <time>2022-08-29T03:36:13Z</time>
      </trkpt>
      <trkpt lat="42.4600110" lon="-2.4628860">
        <ele>407.2</ele>
        <time>2022-08-29T03:36:14Z</time>
      </trkpt>
      <trkpt lat="42.4600110" lon="-2.4628880">
        <ele>407.2</ele>
        <time>2022-08-29T03:36:15Z</time>
      </trkpt>
      <trkpt lat="42.4600100" lon="-2.4628890">
        <ele>407.2</ele>
        <time>2022-08-29T03:36:16Z</time>
      </trkpt>
      <trkpt lat="42.4600100" lon="-2.4628890">
        <ele>407.2</ele>
        <time>2022-08-29T03:36:17Z</time>
      </trkpt>
      <trkpt lat="42.4600100" lon="-2.4628890">
        <ele>407.2</ele>
        <time>2022-08-29T03:36:18Z</time>
      </trkpt>
      <trkpt lat="42.4600090" lon="-2.4628890">
        <ele>407.2</ele>
        <time>2022-08-29T03:36:19Z</time>
      </trkpt>
      <trkpt lat="42.4600080" lon="-2.4628890">
        <ele>407.4</ele>
        <time>2022-08-29T03:36:20Z</time>
      </trkpt>
      <trkpt lat="42.4600080" lon="-2.4628890">
        <ele>407.2</ele>
        <time>2022-08-29T03:36:21Z</time>
      </trkpt>
      <trkpt lat="42.4600070" lon="-2.4628890">
        <ele>407.4</ele>
        <time>2022-08-29T03:36:22Z</time>
      </trkpt>
      <trkpt lat="42.4600070" lon="-2.4628890">
        <ele>407.4</ele>
        <time>2022-08-29T03:36:23Z</time>
      </trkpt>
      <trkpt lat="42.4600070" lon="-2.4628890">
        <ele>407.4</ele>
        <time>2022-08-29T03:36:24Z</time>
      </trkpt>
      <trkpt lat="42.4600070" lon="-2.4628890">
        <ele>407.4</ele>
        <time>2022-08-29T03:36:25Z</time>
      </trkpt>
      <trkpt lat="42.4600050" lon="-2.4628910">
        <ele>407.4</ele>
        <time>2022-08-29T03:36:26Z</time>
      </trkpt>
      <trkpt lat="42.4600010" lon="-2.4629000">
        <ele>407.4</ele>
        <time>2022-08-29T03:36:27Z</time>
      </trkpt>
      <trkpt lat="42.4599940" lon="-2.4629100">
        <ele>407.6</ele>
        <time>2022-08-29T03:36:28Z</time>
      </trkpt>
      <trkpt lat="42.4599860" lon="-2.4629250">
        <ele>407.4</ele>
        <time>2022-08-29T03:36:29Z</time>
      </trkpt>
      <trkpt lat="42.4599800" lon="-2.4629450">
        <ele>407.4</ele>
        <time>2022-08-29T03:36:30Z</time>
      </trkpt>
      <trkpt lat="42.4599760" lon="-2.4629700">
        <ele>407.4</ele>
        <time>2022-08-29T03:36:31Z</time>
      </trkpt>
      <trkpt lat="42.4599720" lon="-2.4629980">
        <ele>407.4</ele>
        <time>2022-08-29T03:36:32Z</time>
      </trkpt>
      <trkpt lat="42.4599680" lon="-2.4630280">
        <ele>407.4</ele>
        <time>2022-08-29T03:36:33Z</time>
      </trkpt>
      <trkpt lat="42.4599640" lon="-2.4630600">
        <ele>407.4</ele>
        <time>2022-08-29T03:36:34Z</time>
      </trkpt>
      <trkpt lat="42.4599590" lon="-2.4630940">
        <ele>407.4</ele>
        <time>2022-08-29T03:36:35Z</time>
      </trkpt>
      <trkpt lat="42.4599520" lon="-2.4631250">
        <ele>407.4</ele>
        <time>2022-08-29T03:36:36Z</time>
      </trkpt>
      <trkpt lat="42.4599430" lon="-2.4631570">
        <ele>407.4</ele>
        <time>2022-08-29T03:36:37Z</time>
      </trkpt>
      <trkpt lat="42.4599360" lon="-2.4631880">
        <ele>407.4</ele>
        <time>2022-08-29T03:36:38Z</time>
      </trkpt>
      <trkpt lat="42.4599290" lon="-2.4632200">
        <ele>407.2</ele>
        <time>2022-08-29T03:36:39Z</time>
      </trkpt>
      <trkpt lat="42.4599230" lon="-2.4632540">
        <ele>407.2</ele>
        <time>2022-08-29T03:36:40Z</time>
      </trkpt>
      <trkpt lat="42.4599160" lon="-2.4632900">
        <ele>407.4</ele>
        <time>2022-08-29T03:36:41Z</time>
      </trkpt>
      <trkpt lat="42.4599070" lon="-2.4633240">
        <ele>407.4</ele>
        <time>2022-08-29T03:36:42Z</time>
      </trkpt>
      <trkpt lat="42.4599000" lon="-2.4633590">
        <ele>407.6</ele>
        <time>2022-08-29T03:36:43Z</time>
      </trkpt>
      <trkpt lat="42.4598920" lon="-2.4633960">
        <ele>407.6</ele>
        <time>2022-08-29T03:36:44Z</time>
      </trkpt>
      <trkpt lat="42.4598850" lon="-2.4634350">
        <ele>407.8</ele>
        <time>2022-08-29T03:36:45Z</time>
      </trkpt>
      <trkpt lat="42.4598790" lon="-2.4634770">
        <ele>407.8</ele>
        <time>2022-08-29T03:36:46Z</time>
      </trkpt>
      <trkpt lat="42.4598710" lon="-2.4635190">
        <ele>407.8</ele>
        <time>2022-08-29T03:36:47Z</time>
      </trkpt>
      <trkpt lat="42.4598610" lon="-2.4635580">
        <ele>408.0</ele>
        <time>2022-08-29T03:36:48Z</time>
      </trkpt>
      <trkpt lat="42.4598520" lon="-2.4635980">
        <ele>408.0</ele>
        <time>2022-08-29T03:36:49Z</time>
      </trkpt>
      <trkpt lat="42.4598420" lon="-2.4636390">
        <ele>408.0</ele>
        <time>2022-08-29T03:36:50Z</time>
      </trkpt>
      <trkpt lat="42.4598310" lon="-2.4636780">
        <ele>408.2</ele>
        <time>2022-08-29T03:36:51Z</time>
      </trkpt>
      <trkpt lat="42.4598200" lon="-2.4637200">
        <ele>408.2</ele>
        <time>2022-08-29T03:36:52Z</time>
      </trkpt>
      <trkpt lat="42.4598090" lon="-2.4637610">
        <ele>408.2</ele>
        <time>2022-08-29T03:36:53Z</time>
      </trkpt>
      <trkpt lat="42.4597980" lon="-2.4638010">
        <ele>408.4</ele>
        <time>2022-08-29T03:36:54Z</time>
      </trkpt>
      <trkpt lat="42.4597860" lon="-2.4638420">
        <ele>408.4</ele>
        <time>2022-08-29T03:36:55Z</time>
      </trkpt>
      <trkpt lat="42.4597780" lon="-2.4638870">
        <ele>408.6</ele>
        <time>2022-08-29T03:36:56Z</time>
      </trkpt>
      <trkpt lat="42.4597670" lon="-2.4639310">
        <ele>408.6</ele>
        <time>2022-08-29T03:36:57Z</time>
      </trkpt>
      <trkpt lat="42.4597550" lon="-2.4639750">
        <ele>408.6</ele>
        <time>2022-08-29T03:36:58Z</time>
      </trkpt>
      <trkpt lat="42.4597430" lon="-2.4640200">
        <ele>408.6</ele>
        <time>2022-08-29T03:36:59Z</time>
      </trkpt>
      <trkpt lat="42.4597340" lon="-2.4640670">
        <ele>408.6</ele>
        <time>2022-08-29T03:37:00Z</time>
      </trkpt>
      <trkpt lat="42.4597240" lon="-2.4641120">
        <ele>408.8</ele>
        <time>2022-08-29T03:37:01Z</time>
      </trkpt>
      <trkpt lat="42.4597110" lon="-2.4641580">
        <ele>408.6</ele>
        <time>2022-08-29T03:37:02Z</time>
      </trkpt>
      <trkpt lat="42.4597010" lon="-2.4642040">
        <ele>408.8</ele>
        <time>2022-08-29T03:37:03Z</time>
      </trkpt>
      <trkpt lat="42.4596920" lon="-2.4642490">
        <ele>408.8</ele>
        <time>2022-08-29T03:37:04Z</time>
      </trkpt>
      <trkpt lat="42.4596840" lon="-2.4642940">
        <ele>408.8</ele>
        <time>2022-08-29T03:37:05Z</time>
      </trkpt>
      <trkpt lat="42.4596760" lon="-2.4643370">
        <ele>409.0</ele>
        <time>2022-08-29T03:37:06Z</time>
      </trkpt>
      <trkpt lat="42.4596660" lon="-2.4643770">
        <ele>409.2</ele>
        <time>2022-08-29T03:37:07Z</time>
      </trkpt>
      <trkpt lat="42.4596560" lon="-2.4644170">
        <ele>409.2</ele>
        <time>2022-08-29T03:37:08Z</time>
      </trkpt>
      <trkpt lat="42.4596470" lon="-2.4644600">
        <ele>409.2</ele>
        <time>2022-08-29T03:37:09Z</time>
      </trkpt>
      <trkpt lat="42.4596370" lon="-2.4645020">
        <ele>409.4</ele>
        <time>2022-08-29T03:37:10Z</time>
      </trkpt>
      <trkpt lat="42.4596280" lon="-2.4645440">
        <ele>409.4</ele>
        <time>2022-08-29T03:37:11Z</time>
      </trkpt>
      <trkpt lat="42.4596200" lon="-2.4645830">
        <ele>409.4</ele>
        <time>2022-08-29T03:37:12Z</time>
      </trkpt>
      <trkpt lat="42.4596110" lon="-2.4646220">
        <ele>409.6</ele>
        <time>2022-08-29T03:37:13Z</time>
      </trkpt>
      <trkpt lat="42.4596040" lon="-2.4646650">
        <ele>409.8</ele>
        <time>2022-08-29T03:37:14Z</time>
      </trkpt>
      <trkpt lat="42.4595980" lon="-2.4647050">
        <ele>409.8</ele>
        <time>2022-08-29T03:37:15Z</time>
      </trkpt>
      <trkpt lat="42.4595900" lon="-2.4647450">
        <ele>410.0</ele>
        <time>2022-08-29T03:37:16Z</time>
      </trkpt>
      <trkpt lat="42.4595790" lon="-2.4647850">
        <ele>410.0</ele>
        <time>2022-08-29T03:37:17Z</time>
      </trkpt>
      <trkpt lat="42.4595670" lon="-2.4648260">
        <ele>410.0</ele>
        <time>2022-08-29T03:37:18Z</time>
      </trkpt>
      <trkpt lat="42.4595600" lon="-2.4648670">
        <ele>410.4</ele>
        <time>2022-08-29T03:37:19Z</time>
      </trkpt>
      <trkpt lat="42.4595530" lon="-2.4649100">
        <ele>410.4</ele>
        <time>2022-08-29T03:37:20Z</time>
      </trkpt>
      <trkpt lat="42.4595450" lon="-2.4649550">
        <ele>410.6</ele>
        <time>2022-08-29T03:37:21Z</time>
      </trkpt>
      <trkpt lat="42.4595370" lon="-2.4650010">
        <ele>410.6</ele>
        <time>2022-08-29T03:37:22Z</time>
      </trkpt>
      <trkpt lat="42.4595250" lon="-2.4650470">
        <ele>410.6</ele>
        <time>2022-08-29T03:37:23Z</time>
      </trkpt>
      <trkpt lat="42.4595110" lon="-2.4650930">
        <ele>411.0</ele>
        <time>2022-08-29T03:37:24Z</time>
      </trkpt>
      <trkpt lat="42.4594990" lon="-2.4651340">
        <ele>411.0</ele>
        <time>2022-08-29T03:37:25Z</time>
      </trkpt>
      <trkpt lat="42.4594870" lon="-2.4651760">
        <ele>411.2</ele>
        <time>2022-08-29T03:37:26Z</time>
      </trkpt>
      <trkpt lat="42.4594760" lon="-2.4652180">
        <ele>411.2</ele>
        <time>2022-08-29T03:37:27Z</time>
      </trkpt>
      <trkpt lat="42.4594680" lon="-2.4652610">
        <ele>411.2</ele>
        <time>2022-08-29T03:37:28Z</time>
      </trkpt>
      <trkpt lat="42.4594600" lon="-2.4653020">
        <ele>411.4</ele>
        <time>2022-08-29T03:37:29Z</time>
      </trkpt>
      <trkpt lat="42.4594550" lon="-2.4653410">
        <ele>411.4</ele>
        <time>2022-08-29T03:37:30Z</time>
      </trkpt>
      <trkpt lat="42.4594490" lon="-2.4653780">
        <ele>411.4</ele>
        <time>2022-08-29T03:37:31Z</time>
      </trkpt>
      <trkpt lat="42.4594400" lon="-2.4654120">
        <ele>411.4</ele>
        <time>2022-08-29T03:37:32Z</time>
      </trkpt>
      <trkpt lat="42.4594330" lon="-2.4654460">
        <ele>411.6</ele>
        <time>2022-08-29T03:37:33Z</time>
      </trkpt>
      <trkpt lat="42.4594270" lon="-2.4654820">
        <ele>411.6</ele>
        <time>2022-08-29T03:37:34Z</time>
      </trkpt>
      <trkpt lat="42.4594180" lon="-2.4655160">
        <ele>411.8</ele>
        <time>2022-08-29T03:37:35Z</time>
      </trkpt>
      <trkpt lat="42.4594060" lon="-2.4655480">
        <ele>412.0</ele>
        <time>2022-08-29T03:37:36Z</time>
      </trkpt>
      <trkpt lat="42.4593960" lon="-2.4655810">
        <ele>412.0</ele>
        <time>2022-08-29T03:37:37Z</time>
      </trkpt>
      <trkpt lat="42.4593890" lon="-2.4656140">
        <ele>412.0</ele>
        <time>2022-08-29T03:37:38Z</time>
      </trkpt>
      <trkpt lat="42.4593840" lon="-2.4656470">
        <ele>412.2</ele>
        <time>2022-08-29T03:37:39Z</time>
      </trkpt>
      <trkpt lat="42.4593770" lon="-2.4656820">
        <ele>412.2</ele>
        <time>2022-08-29T03:37:40Z</time>
      </trkpt>
      <trkpt lat="42.4593710" lon="-2.4657190">
        <ele>412.4</ele>
        <time>2022-08-29T03:37:41Z</time>
      </trkpt>
      <trkpt lat="42.4593630" lon="-2.4657570">
        <ele>412.8</ele>
        <time>2022-08-29T03:37:42Z</time>
      </trkpt>
      <trkpt lat="42.4593560" lon="-2.4657980">
        <ele>413.0</ele>
        <time>2022-08-29T03:37:43Z</time>
      </trkpt>
      <trkpt lat="42.4593480" lon="-2.4658400">
        <ele>413.0</ele>
        <time>2022-08-29T03:37:44Z</time>
      </trkpt>
      <trkpt lat="42.4593390" lon="-2.4658810">
        <ele>413.2</ele>
        <time>2022-08-29T03:37:45Z</time>
      </trkpt>
      <trkpt lat="42.4593280" lon="-2.4659240">
        <ele>413.2</ele>
        <time>2022-08-29T03:37:46Z</time>
      </trkpt>
      <trkpt lat="42.4593210" lon="-2.4659660">
        <ele>413.0</ele>
        <time>2022-08-29T03:37:47Z</time>
      </trkpt>
      <trkpt lat="42.4593120" lon="-2.4660100">
        <ele>413.2</ele>
        <time>2022-08-29T03:37:48Z</time>
      </trkpt>
      <trkpt lat="42.4593040" lon="-2.4660530">
        <ele>413.2</ele>
        <time>2022-08-29T03:37:49Z</time>
      </trkpt>
      <trkpt lat="42.4592960" lon="-2.4660960">
        <ele>413.4</ele>
        <time>2022-08-29T03:37:50Z</time>
      </trkpt>
      <trkpt lat="42.4592880" lon="-2.4661420">
        <ele>413.4</ele>
        <time>2022-08-29T03:37:51Z</time>
      </trkpt>
      <trkpt lat="42.4592810" lon="-2.4661890">
        <ele>413.4</ele>
        <time>2022-08-29T03:37:52Z</time>
      </trkpt>
      <trkpt lat="42.4592720" lon="-2.4662350">
        <ele>413.2</ele>
        <time>2022-08-29T03:37:53Z</time>
      </trkpt>
      <trkpt lat="42.4592610" lon="-2.4662800">
        <ele>413.4</ele>
        <time>2022-08-29T03:37:54Z</time>
      </trkpt>
      <trkpt lat="42.4592490" lon="-2.4663250">
        <ele>413.4</ele>
        <time>2022-08-29T03:37:55Z</time>
      </trkpt>
      <trkpt lat="42.4592340" lon="-2.4663690">
        <ele>413.4</ele>
        <time>2022-08-29T03:37:56Z</time>
      </trkpt>
      <trkpt lat="42.4592170" lon="-2.4664130">
        <ele>413.4</ele>
        <time>2022-08-29T03:37:57Z</time>
      </trkpt>
      <trkpt lat="42.4592010" lon="-2.4664570">
        <ele>413.4</ele>
        <time>2022-08-29T03:37:58Z</time>
      </trkpt>
      <trkpt lat="42.4591870" lon="-2.4665040">
        <ele>413.4</ele>
        <time>2022-08-29T03:37:59Z</time>
      </trkpt>
      <trkpt lat="42.4591760" lon="-2.4665520">
        <ele>413.4</ele>
        <time>2022-08-29T03:38:00Z</time>
      </trkpt>
      <trkpt lat="42.4591680" lon="-2.4666010">
        <ele>413.4</ele>
        <time>2022-08-29T03:38:01Z</time>
      </trkpt>
      <trkpt lat="42.4591590" lon="-2.4666510">
        <ele>413.2</ele>
        <time>2022-08-29T03:38:02Z</time>
      </trkpt>
      <trkpt lat="42.4591520" lon="-2.4667010">
        <ele>413.4</ele>
        <time>2022-08-29T03:38:03Z</time>
      </trkpt>
      <trkpt lat="42.4591450" lon="-2.4667530">
        <ele>413.2</ele>
        <time>2022-08-29T03:38:04Z</time>
      </trkpt>
      <trkpt lat="42.4591380" lon="-2.4668030">
        <ele>413.2</ele>
        <time>2022-08-29T03:38:05Z</time>
      </trkpt>
      <trkpt lat="42.4591330" lon="-2.4668540">
        <ele>413.4</ele>
        <time>2022-08-29T03:38:06Z</time>
      </trkpt>
      <trkpt lat="42.4591300" lon="-2.4669060">
        <ele>413.4</ele>
        <time>2022-08-29T03:38:07Z</time>
      </trkpt>
      <trkpt lat="42.4591290" lon="-2.4669570">
        <ele>413.4</ele>
        <time>2022-08-29T03:38:08Z</time>
      </trkpt>
      <trkpt lat="42.4591310" lon="-2.4670090">
        <ele>413.4</ele>
        <time>2022-08-29T03:38:09Z</time>
      </trkpt>
      <trkpt lat="42.4591310" lon="-2.4670600">
        <ele>413.4</ele>
        <time>2022-08-29T03:38:10Z</time>
      </trkpt>
      <trkpt lat="42.4591340" lon="-2.4671130">
        <ele>413.4</ele>
        <time>2022-08-29T03:38:11Z</time>
      </trkpt>
      <trkpt lat="42.4591340" lon="-2.4671640">
        <ele>413.6</ele>
        <time>2022-08-29T03:38:12Z</time>
      </trkpt>
      <trkpt lat="42.4591350" lon="-2.4672140">
        <ele>413.4</ele>
        <time>2022-08-29T03:38:13Z</time>
      </trkpt>
      <trkpt lat="42.4591370" lon="-2.4672640">
        <ele>413.4</ele>
        <time>2022-08-29T03:38:14Z</time>
      </trkpt>
      <trkpt lat="42.4591350" lon="-2.4673150">
        <ele>413.4</ele>
        <time>2022-08-29T03:38:15Z</time>
      </trkpt>
      <trkpt lat="42.4591330" lon="-2.4673660">
        <ele>413.4</ele>
        <time>2022-08-29T03:38:16Z</time>
      </trkpt>
      <trkpt lat="42.4591290" lon="-2.4674170">
        <ele>413.4</ele>
        <time>2022-08-29T03:38:17Z</time>
      </trkpt>
      <trkpt lat="42.4591250" lon="-2.4674680">
        <ele>413.4</ele>
        <time>2022-08-29T03:38:18Z</time>
      </trkpt>
      <trkpt lat="42.4591260" lon="-2.4675170">
        <ele>413.4</ele>
        <time>2022-08-29T03:38:19Z</time>
      </trkpt>
      <trkpt lat="42.4591250" lon="-2.4675650">
        <ele>413.4</ele>
        <time>2022-08-29T03:38:20Z</time>
      </trkpt>
      <trkpt lat="42.4591230" lon="-2.4676100">
        <ele>413.4</ele>
        <time>2022-08-29T03:38:21Z</time>
      </trkpt>
      <trkpt lat="42.4591180" lon="-2.4676520">
        <ele>413.4</ele>
        <time>2022-08-29T03:38:22Z</time>
      </trkpt>
      <trkpt lat="42.4591110" lon="-2.4676930">
        <ele>413.6</ele>
        <time>2022-08-29T03:38:23Z</time>
      </trkpt>
      <trkpt lat="42.4590990" lon="-2.4677310">
        <ele>413.6</ele>
        <time>2022-08-29T03:38:24Z</time>
      </trkpt>
      <trkpt lat="42.4590850" lon="-2.4677650">
        <ele>413.4</ele>
        <time>2022-08-29T03:38:25Z</time>
      </trkpt>
      <trkpt lat="42.4590700" lon="-2.4677980">
        <ele>413.6</ele>
        <time>2022-08-29T03:38:26Z</time>
      </trkpt>
      <trkpt lat="42.4590530" lon="-2.4678280">
        <ele>413.6</ele>
        <time>2022-08-29T03:38:27Z</time>
      </trkpt>
      <trkpt lat="42.4590350" lon="-2.4678530">
        <ele>413.8</ele>
        <time>2022-08-29T03:38:28Z</time>
      </trkpt>
      <trkpt lat="42.4590130" lon="-2.4678750">
        <ele>414.0</ele>
        <time>2022-08-29T03:38:29Z</time>
      </trkpt>
      <trkpt lat="42.4589950" lon="-2.4678950">
        <ele>414.2</ele>
        <time>2022-08-29T03:38:30Z</time>
      </trkpt>
      <trkpt lat="42.4589760" lon="-2.4679100">
        <ele>414.4</ele>
        <time>2022-08-29T03:38:31Z</time>
      </trkpt>
      <trkpt lat="42.4589500" lon="-2.4679220">
        <ele>414.4</ele>
        <time>2022-08-29T03:38:32Z</time>
      </trkpt>
      <trkpt lat="42.4589260" lon="-2.4679340">
        <ele>414.4</ele>
        <time>2022-08-29T03:38:33Z</time>
      </trkpt>
      <trkpt lat="42.4588930" lon="-2.4679480">
        <ele>414.6</ele>
        <time>2022-08-29T03:38:34Z</time>
      </trkpt>
      <trkpt lat="42.4588570" lon="-2.4679610">
        <ele>414.8</ele>
        <time>2022-08-29T03:38:35Z</time>
      </trkpt>
      <trkpt lat="42.4588240" lon="-2.4679720">
        <ele>415.0</ele>
        <time>2022-08-29T03:38:36Z</time>
      </trkpt>
      <trkpt lat="42.4587930" lon="-2.4679790">
        <ele>415.2</ele>
        <time>2022-08-29T03:38:37Z</time>
      </trkpt>
      <trkpt lat="42.4587630" lon="-2.4679860">
        <ele>415.6</ele>
        <time>2022-08-29T03:38:38Z</time>
      </trkpt>
      <trkpt lat="42.4587350" lon="-2.4679900">
        <ele>415.6</ele>
        <time>2022-08-29T03:38:39Z</time>
      </trkpt>
      <trkpt lat="42.4587050" lon="-2.4679930">
        <ele>415.8</ele>
        <time>2022-08-29T03:38:40Z</time>
      </trkpt>
      <trkpt lat="42.4586760" lon="-2.4679970">
        <ele>415.8</ele>
        <time>2022-08-29T03:38:41Z</time>
      </trkpt>
      <trkpt lat="42.4586480" lon="-2.4680020">
        <ele>416.0</ele>
        <time>2022-08-29T03:38:42Z</time>
      </trkpt>
      <trkpt lat="42.4586170" lon="-2.4680050">
        <ele>416.0</ele>
        <time>2022-08-29T03:38:43Z</time>
      </trkpt>
      <trkpt lat="42.4585900" lon="-2.4680050">
        <ele>416.0</ele>
        <time>2022-08-29T03:38:44Z</time>
      </trkpt>
      <trkpt lat="42.4585620" lon="-2.4680070">
        <ele>416.2</ele>
        <time>2022-08-29T03:38:45Z</time>
      </trkpt>
      <trkpt lat="42.4585340" lon="-2.4680100">
        <ele>416.2</ele>
        <time>2022-08-29T03:38:46Z</time>
      </trkpt>
      <trkpt lat="42.4585090" lon="-2.4680110">
        <ele>416.4</ele>
        <time>2022-08-29T03:38:47Z</time>
      </trkpt>
      <trkpt lat="42.4584840" lon="-2.4680120">
        <ele>416.6</ele>
        <time>2022-08-29T03:38:48Z</time>
      </trkpt>
      <trkpt lat="42.4584570" lon="-2.4680130">
        <ele>416.6</ele>
        <time>2022-08-29T03:38:49Z</time>
      </trkpt>
      <trkpt lat="42.4584310" lon="-2.4680120">
        <ele>416.6</ele>
        <time>2022-08-29T03:38:50Z</time>
      </trkpt>
      <trkpt lat="42.4584030" lon="-2.4680120">
        <ele>417.0</ele>
        <time>2022-08-29T03:38:51Z</time>
      </trkpt>
      <trkpt lat="42.4583760" lon="-2.4680130">
        <ele>417.0</ele>
        <time>2022-08-29T03:38:52Z</time>
      </trkpt>
      <trkpt lat="42.4583500" lon="-2.4680200">
        <ele>417.2</ele>
        <time>2022-08-29T03:38:53Z</time>
      </trkpt>
      <trkpt lat="42.4583250" lon="-2.4680290">
        <ele>417.2</ele>
        <time>2022-08-29T03:38:54Z</time>
      </trkpt>
      <trkpt lat="42.4583040" lon="-2.4680450">
        <ele>417.2</ele>
        <time>2022-08-29T03:38:55Z</time>
      </trkpt>
      <trkpt lat="42.4582850" lon="-2.4680660">
        <ele>417.2</ele>
        <time>2022-08-29T03:38:56Z</time>
      </trkpt>
      <trkpt lat="42.4582690" lon="-2.4680920">
        <ele>417.2</ele>
        <time>2022-08-29T03:38:57Z</time>
      </trkpt>
      <trkpt lat="42.4582540" lon="-2.4681230">
        <ele>417.4</ele>
        <time>2022-08-29T03:38:58Z</time>
      </trkpt>
      <trkpt lat="42.4582410" lon="-2.4681580">
        <ele>417.8</ele>
        <time>2022-08-29T03:38:59Z</time>
      </trkpt>
      <trkpt lat="42.4582340" lon="-2.4681960">
        <ele>417.8</ele>
        <time>2022-08-29T03:39:00Z</time>
      </trkpt>
      <trkpt lat="42.4582340" lon="-2.4682400">
        <ele>417.8</ele>
        <time>2022-08-29T03:39:01Z</time>
      </trkpt>
      <trkpt lat="42.4582350" lon="-2.4682820">
        <ele>417.8</ele>
        <time>2022-08-29T03:39:02Z</time>
      </trkpt>
      <trkpt lat="42.4582360" lon="-2.4683270">
        <ele>417.8</ele>
        <time>2022-08-29T03:39:03Z</time>
      </trkpt>
      <trkpt lat="42.4582370" lon="-2.4683700">
        <ele>417.8</ele>
        <time>2022-08-29T03:39:04Z</time>
      </trkpt>
      <trkpt lat="42.4582370" lon="-2.4684130">
        <ele>418.0</ele>
        <time>2022-08-29T03:39:05Z</time>
      </trkpt>
      <trkpt lat="42.4582360" lon="-2.4684560">
        <ele>417.8</ele>
        <time>2022-08-29T03:39:06Z</time>
      </trkpt>
      <trkpt lat="42.4582370" lon="-2.4684960">
        <ele>418.0</ele>
        <time>2022-08-29T03:39:07Z</time>
      </trkpt>
      <trkpt lat="42.4582390" lon="-2.4685350">
        <ele>417.8</ele>
        <time>2022-08-29T03:39:08Z</time>
      </trkpt>
      <trkpt lat="42.4582440" lon="-2.4685770">
        <ele>417.8</ele>
        <time>2022-08-29T03:39:09Z</time>
      </trkpt>
      <trkpt lat="42.4582470" lon="-2.4686210">
        <ele>418.0</ele>
        <time>2022-08-29T03:39:10Z</time>
      </trkpt>
      <trkpt lat="42.4582500" lon="-2.4686650">
        <ele>418.0</ele>
        <time>2022-08-29T03:39:11Z</time>
      </trkpt>
      <trkpt lat="42.4582520" lon="-2.4687080">
        <ele>418.2</ele>
        <time>2022-08-29T03:39:12Z</time>
      </trkpt>
      <trkpt lat="42.4582560" lon="-2.4687500">
        <ele>418.0</ele>
        <time>2022-08-29T03:39:13Z</time>
      </trkpt>
      <trkpt lat="42.4582610" lon="-2.4687970">
        <ele>418.2</ele>
        <time>2022-08-29T03:39:14Z</time>
      </trkpt>
      <trkpt lat="42.4582690" lon="-2.4688450">
        <ele>418.2</ele>
        <time>2022-08-29T03:39:15Z</time>
      </trkpt>
      <trkpt lat="42.4582720" lon="-2.4688930">
        <ele>418.2</ele>
        <time>2022-08-29T03:39:16Z</time>
      </trkpt>
      <trkpt lat="42.4582780" lon="-2.4689400">
        <ele>418.2</ele>
        <time>2022-08-29T03:39:17Z</time>
      </trkpt>
      <trkpt lat="42.4582820" lon="-2.4689880">
        <ele>418.2</ele>
        <time>2022-08-29T03:39:18Z</time>
      </trkpt>
      <trkpt lat="42.4582870" lon="-2.4690400">
        <ele>418.2</ele>
        <time>2022-08-29T03:39:19Z</time>
      </trkpt>
      <trkpt lat="42.4582900" lon="-2.4690920">
        <ele>418.2</ele>
        <time>2022-08-29T03:39:20Z</time>
      </trkpt>
      <trkpt lat="42.4582910" lon="-2.4691460">
        <ele>418.2</ele>
        <time>2022-08-29T03:39:21Z</time>
      </trkpt>
      <trkpt lat="42.4582940" lon="-2.4692000">
        <ele>418.2</ele>
        <time>2022-08-29T03:39:22Z</time>
      </trkpt>
      <trkpt lat="42.4582940" lon="-2.4692580">
        <ele>418.4</ele>
        <time>2022-08-29T03:39:23Z</time>
      </trkpt>
      <trkpt lat="42.4582960" lon="-2.4693170">
        <ele>418.4</ele>
        <time>2022-08-29T03:39:24Z</time>
      </trkpt>
      <trkpt lat="42.4582940" lon="-2.4693780">
        <ele>418.4</ele>
        <time>2022-08-29T03:39:25Z</time>
      </trkpt>
      <trkpt lat="42.4582960" lon="-2.4694440">
        <ele>418.4</ele>
        <time>2022-08-29T03:39:26Z</time>
      </trkpt>
      <trkpt lat="42.4582980" lon="-2.4695110">
        <ele>418.4</ele>
        <time>2022-08-29T03:39:27Z</time>
      </trkpt>
      <trkpt lat="42.4582960" lon="-2.4695750">
        <ele>418.4</ele>
        <time>2022-08-29T03:39:28Z</time>
      </trkpt>
      <trkpt lat="42.4582940" lon="-2.4696410">
        <ele>418.4</ele>
        <time>2022-08-29T03:39:29Z</time>
      </trkpt>
      <trkpt lat="42.4582930" lon="-2.4697070">
        <ele>418.4</ele>
        <time>2022-08-29T03:39:30Z</time>
      </trkpt>
      <trkpt lat="42.4582940" lon="-2.4697740">
        <ele>418.2</ele>
        <time>2022-08-29T03:39:31Z</time>
      </trkpt>
      <trkpt lat="42.4582900" lon="-2.4698410">
        <ele>418.4</ele>
        <time>2022-08-29T03:39:32Z</time>
      </trkpt>
      <trkpt lat="42.4582850" lon="-2.4699070">
        <ele>418.4</ele>
        <time>2022-08-29T03:39:33Z</time>
      </trkpt>
      <trkpt lat="42.4582770" lon="-2.4699730">
        <ele>418.4</ele>
        <time>2022-08-29T03:39:34Z</time>
      </trkpt>
      <trkpt lat="42.4582690" lon="-2.4700370">
        <ele>418.2</ele>
        <time>2022-08-29T03:39:35Z</time>
      </trkpt>
      <trkpt lat="42.4582610" lon="-2.4701000">
        <ele>418.4</ele>
        <time>2022-08-29T03:39:36Z</time>
      </trkpt>
      <trkpt lat="42.4582530" lon="-2.4701600">
        <ele>418.2</ele>
        <time>2022-08-29T03:39:37Z</time>
      </trkpt>
      <trkpt lat="42.4582420" lon="-2.4702170">
        <ele>418.2</ele>
        <time>2022-08-29T03:39:38Z</time>
      </trkpt>
      <trkpt lat="42.4582310" lon="-2.4702730">
        <ele>418.2</ele>
        <time>2022-08-29T03:39:39Z</time>
      </trkpt>
      <trkpt lat="42.4582200" lon="-2.4703300">
        <ele>418.2</ele>
        <time>2022-08-29T03:39:40Z</time>
      </trkpt>
      <trkpt lat="42.4582050" lon="-2.4703880">
        <ele>418.2</ele>
        <time>2022-08-29T03:39:41Z</time>
      </trkpt>
      <trkpt lat="42.4581850" lon="-2.4704450">
        <ele>418.0</ele>
        <time>2022-08-29T03:39:42Z</time>
      </trkpt>
      <trkpt lat="42.4581650" lon="-2.4705000">
        <ele>418.2</ele>
        <time>2022-08-29T03:39:43Z</time>
      </trkpt>
      <trkpt lat="42.4581430" lon="-2.4705510">
        <ele>418.2</ele>
        <time>2022-08-29T03:39:44Z</time>
      </trkpt>
      <trkpt lat="42.4581190" lon="-2.4706010">
        <ele>418.2</ele>
        <time>2022-08-29T03:39:45Z</time>
      </trkpt>
      <trkpt lat="42.4580960" lon="-2.4706470">
        <ele>418.2</ele>
        <time>2022-08-29T03:39:46Z</time>
      </trkpt>
      <trkpt lat="42.4580710" lon="-2.4706930">
        <ele>418.2</ele>
        <time>2022-08-29T03:39:47Z</time>
      </trkpt>
      <trkpt lat="42.4580450" lon="-2.4707380">
        <ele>418.0</ele>
        <time>2022-08-29T03:39:48Z</time>
      </trkpt>
      <trkpt lat="42.4580200" lon="-2.4707840">
        <ele>418.2</ele>
        <time>2022-08-29T03:39:49Z</time>
      </trkpt>
      <trkpt lat="42.4579940" lon="-2.4708300">
        <ele>418.0</ele>
        <time>2022-08-29T03:39:50Z</time>
      </trkpt>
      <trkpt lat="42.4579700" lon="-2.4708750">
        <ele>418.2</ele>
        <time>2022-08-29T03:39:51Z</time>
      </trkpt>
      <trkpt lat="42.4579460" lon="-2.4709180">
        <ele>418.2</ele>
        <time>2022-08-29T03:39:52Z</time>
      </trkpt>
      <trkpt lat="42.4579210" lon="-2.4709630">
        <ele>418.2</ele>
        <time>2022-08-29T03:39:53Z</time>
      </trkpt>
      <trkpt lat="42.4579010" lon="-2.4710100">
        <ele>418.2</ele>
        <time>2022-08-29T03:39:54Z</time>
      </trkpt>
      <trkpt lat="42.4578780" lon="-2.4710600">
        <ele>418.2</ele>
        <time>2022-08-29T03:39:55Z</time>
      </trkpt>
      <trkpt lat="42.4578570" lon="-2.4711100">
        <ele>418.2</ele>
        <time>2022-08-29T03:39:56Z</time>
      </trkpt>
      <trkpt lat="42.4578330" lon="-2.4711640">
        <ele>418.2</ele>
        <time>2022-08-29T03:39:57Z</time>
      </trkpt>
      <trkpt lat="42.4578130" lon="-2.4712130">
        <ele>418.2</ele>
        <time>2022-08-29T03:39:58Z</time>
      </trkpt>
      <trkpt lat="42.4577940" lon="-2.4712600">
        <ele>418.4</ele>
        <time>2022-08-29T03:39:59Z</time>
      </trkpt>
      <trkpt lat="42.4577800" lon="-2.4713050">
        <ele>418.2</ele>
        <time>2022-08-29T03:40:00Z</time>
      </trkpt>
      <trkpt lat="42.4577650" lon="-2.4713500">
        <ele>418.4</ele>
        <time>2022-08-29T03:40:01Z</time>
      </trkpt>
      <trkpt lat="42.4577490" lon="-2.4713960">
        <ele>418.4</ele>
        <time>2022-08-29T03:40:02Z</time>
      </trkpt>
      <trkpt lat="42.4577330" lon="-2.4714440">
        <ele>418.4</ele>
        <time>2022-08-29T03:40:03Z</time>
      </trkpt>
      <trkpt lat="42.4577180" lon="-2.4714920">
        <ele>418.4</ele>
        <time>2022-08-29T03:40:04Z</time>
      </trkpt>
      <trkpt lat="42.4576970" lon="-2.4715520">
        <ele>418.4</ele>
        <time>2022-08-29T03:40:05Z</time>
      </trkpt>
      <trkpt lat="42.4576790" lon="-2.4716020">
        <ele>418.4</ele>
        <time>2022-08-29T03:40:06Z</time>
      </trkpt>
      <trkpt lat="42.4576650" lon="-2.4716560">
        <ele>418.6</ele>
        <time>2022-08-29T03:40:07Z</time>
      </trkpt>
      <trkpt lat="42.4576520" lon="-2.4717090">
        <ele>418.6</ele>
        <time>2022-08-29T03:40:08Z</time>
      </trkpt>
      <trkpt lat="42.4576350" lon="-2.4717640">
        <ele>418.6</ele>
        <time>2022-08-29T03:40:09Z</time>
      </trkpt>
      <trkpt lat="42.4576150" lon="-2.4718210">
        <ele>418.6</ele>
        <time>2022-08-29T03:40:10Z</time>
      </trkpt>
      <trkpt lat="42.4575950" lon="-2.4718760">
        <ele>418.6</ele>
        <time>2022-08-29T03:40:11Z</time>
      </trkpt>
      <trkpt lat="42.4575740" lon="-2.4719270">
        <ele>418.4</ele>
        <time>2022-08-29T03:40:12Z</time>
      </trkpt>
      <trkpt lat="42.4575370" lon="-2.4719670">
        <ele>418.6</ele>
        <time>2022-08-29T03:40:13Z</time>
      </trkpt>
      <trkpt lat="42.4575020" lon="-2.4720080">
        <ele>418.4</ele>
        <time>2022-08-29T03:40:14Z</time>
      </trkpt>
      <trkpt lat="42.4574690" lon="-2.4720510">
        <ele>418.4</ele>
        <time>2022-08-29T03:40:15Z</time>
      </trkpt>
      <trkpt lat="42.4574380" lon="-2.4720980">
        <ele>418.6</ele>
        <time>2022-08-29T03:40:16Z</time>
      </trkpt>
      <trkpt lat="42.4574180" lon="-2.4721530">
        <ele>418.4</ele>
        <time>2022-08-29T03:40:17Z</time>
      </trkpt>
      <trkpt lat="42.4574000" lon="-2.4722080">
        <ele>418.2</ele>
        <time>2022-08-29T03:40:18Z</time>
      </trkpt>
      <trkpt lat="42.4573770" lon="-2.4722540">
        <ele>418.0</ele>
        <time>2022-08-29T03:40:19Z</time>
      </trkpt>
      <trkpt lat="42.4573440" lon="-2.4722810">
        <ele>418.0</ele>
        <time>2022-08-29T03:40:20Z</time>
      </trkpt>
      <trkpt lat="42.4573000" lon="-2.4722830">
        <ele>417.8</ele>
        <time>2022-08-29T03:40:21Z</time>
      </trkpt>
      <trkpt lat="42.4572600" lon="-2.4722740">
        <ele>417.4</ele>
        <time>2022-08-29T03:40:22Z</time>
      </trkpt>
      <trkpt lat="42.4572230" lon="-2.4722650">
        <ele>416.6</ele>
        <time>2022-08-29T03:40:23Z</time>
      </trkpt>
      <trkpt lat="42.4571820" lon="-2.4722710">
        <ele>416.2</ele>
        <time>2022-08-29T03:40:24Z</time>
      </trkpt>
      <trkpt lat="42.4571470" lon="-2.4722830">
        <ele>416.0</ele>
        <time>2022-08-29T03:40:25Z</time>
      </trkpt>
      <trkpt lat="42.4571110" lon="-2.4723030">
        <ele>416.0</ele>
        <time>2022-08-29T03:40:26Z</time>
      </trkpt>
      <trkpt lat="42.4570790" lon="-2.4723170">
        <ele>415.6</ele>
        <time>2022-08-29T03:40:27Z</time>
      </trkpt>
      <trkpt lat="42.4570450" lon="-2.4723220">
        <ele>415.6</ele>
        <time>2022-08-29T03:40:28Z</time>
      </trkpt>
      <trkpt lat="42.4570160" lon="-2.4723240">
        <ele>415.6</ele>
        <time>2022-08-29T03:40:29Z</time>
      </trkpt>
      <trkpt lat="42.4569840" lon="-2.4723280">
        <ele>415.8</ele>
        <time>2022-08-29T03:40:30Z</time>
      </trkpt>
      <trkpt lat="42.4569590" lon="-2.4723400">
        <ele>415.8</ele>
        <time>2022-08-29T03:40:31Z</time>
      </trkpt>
      <trkpt lat="42.4569360" lon="-2.4723680">
        <ele>415.8</ele>
        <time>2022-08-29T03:40:32Z</time>
      </trkpt>
      <trkpt lat="42.4569190" lon="-2.4724030">
        <ele>415.6</ele>
        <time>2022-08-29T03:40:33Z</time>
      </trkpt>
      <trkpt lat="42.4569050" lon="-2.4724510">
        <ele>415.6</ele>
        <time>2022-08-29T03:40:34Z</time>
      </trkpt>
      <trkpt lat="42.4568890" lon="-2.4725060">
        <ele>415.6</ele>
        <time>2022-08-29T03:40:35Z</time>
      </trkpt>
      <trkpt lat="42.4568720" lon="-2.4725620">
        <ele>415.8</ele>
        <time>2022-08-29T03:40:36Z</time>
      </trkpt>
      <trkpt lat="42.4568540" lon="-2.4726200">
        <ele>415.8</ele>
        <time>2022-08-29T03:40:37Z</time>
      </trkpt>
      <trkpt lat="42.4568390" lon="-2.4726770">
        <ele>415.8</ele>
        <time>2022-08-29T03:40:38Z</time>
      </trkpt>
      <trkpt lat="42.4568260" lon="-2.4727260">
        <ele>415.8</ele>
        <time>2022-08-29T03:40:39Z</time>
      </trkpt>
      <trkpt lat="42.4568190" lon="-2.4727690">
        <ele>415.8</ele>
        <time>2022-08-29T03:40:40Z</time>
      </trkpt>
      <trkpt lat="42.4568160" lon="-2.4728030">
        <ele>416.0</ele>
        <time>2022-08-29T03:40:41Z</time>
      </trkpt>
      <trkpt lat="42.4568130" lon="-2.4728330">
        <ele>416.0</ele>
        <time>2022-08-29T03:40:42Z</time>
      </trkpt>
      <trkpt lat="42.4568100" lon="-2.4728640">
        <ele>416.2</ele>
        <time>2022-08-29T03:40:43Z</time>
      </trkpt>
      <trkpt lat="42.4568070" lon="-2.4728960">
        <ele>416.2</ele>
        <time>2022-08-29T03:40:44Z</time>
      </trkpt>
      <trkpt lat="42.4568010" lon="-2.4729250">
        <ele>416.2</ele>
        <time>2022-08-29T03:40:45Z</time>
      </trkpt>
      <trkpt lat="42.4567910" lon="-2.4729510">
        <ele>416.4</ele>
        <time>2022-08-29T03:40:46Z</time>
      </trkpt>
      <trkpt lat="42.4567760" lon="-2.4729750">
        <ele>416.6</ele>
        <time>2022-08-29T03:40:47Z</time>
      </trkpt>
      <trkpt lat="42.4567590" lon="-2.4729980">
        <ele>416.6</ele>
        <time>2022-08-29T03:40:48Z</time>
      </trkpt>
      <trkpt lat="42.4567400" lon="-2.4730220">
        <ele>416.6</ele>
        <time>2022-08-29T03:40:49Z</time>
      </trkpt>
      <trkpt lat="42.4567230" lon="-2.4730470">
        <ele>417.0</ele>
        <time>2022-08-29T03:40:50Z</time>
      </trkpt>
      <trkpt lat="42.4567070" lon="-2.4730750">
        <ele>417.2</ele>
        <time>2022-08-29T03:40:51Z</time>
      </trkpt>
      <trkpt lat="42.4566910" lon="-2.4731030">
        <ele>417.2</ele>
        <time>2022-08-29T03:40:52Z</time>
      </trkpt>
      <trkpt lat="42.4566740" lon="-2.4731290">
        <ele>417.6</ele>
        <time>2022-08-29T03:40:53Z</time>
      </trkpt>
      <trkpt lat="42.4566570" lon="-2.4731570">
        <ele>417.6</ele>
        <time>2022-08-29T03:40:54Z</time>
      </trkpt>
      <trkpt lat="42.4566420" lon="-2.4731850">
        <ele>417.8</ele>
        <time>2022-08-29T03:40:55Z</time>
      </trkpt>
      <trkpt lat="42.4566260" lon="-2.4732140">
        <ele>417.8</ele>
        <time>2022-08-29T03:40:56Z</time>
      </trkpt>
      <trkpt lat="42.4566110" lon="-2.4732450">
        <ele>418.0</ele>
        <time>2022-08-29T03:40:57Z</time>
      </trkpt>
      <trkpt lat="42.4565950" lon="-2.4732760">
        <ele>418.0</ele>
        <time>2022-08-29T03:40:58Z</time>
      </trkpt>
      <trkpt lat="42.4565820" lon="-2.4733090">
        <ele>418.0</ele>
        <time>2022-08-29T03:40:59Z</time>
      </trkpt>
      <trkpt lat="42.4565700" lon="-2.4733430">
        <ele>418.2</ele>
        <time>2022-08-29T03:41:00Z</time>
      </trkpt>
      <trkpt lat="42.4565560" lon="-2.4733750">
        <ele>418.4</ele>
        <time>2022-08-29T03:41:01Z</time>
      </trkpt>
      <trkpt lat="42.4565410" lon="-2.4734080">
        <ele>418.6</ele>
        <time>2022-08-29T03:41:02Z</time>
      </trkpt>
      <trkpt lat="42.4565280" lon="-2.4734430">
        <ele>418.6</ele>
        <time>2022-08-29T03:41:03Z</time>
      </trkpt>
      <trkpt lat="42.4565200" lon="-2.4734820">
        <ele>418.8</ele>
        <time>2022-08-29T03:41:04Z</time>
      </trkpt>
      <trkpt lat="42.4565120" lon="-2.4735190">
        <ele>418.8</ele>
        <time>2022-08-29T03:41:05Z</time>
      </trkpt>
      <trkpt lat="42.4565030" lon="-2.4735570">
        <ele>419.0</ele>
        <time>2022-08-29T03:41:06Z</time>
      </trkpt>
      <trkpt lat="42.4564920" lon="-2.4735930">
        <ele>419.2</ele>
        <time>2022-08-29T03:41:07Z</time>
      </trkpt>
      <trkpt lat="42.4564820" lon="-2.4736290">
        <ele>419.4</ele>
        <time>2022-08-29T03:41:08Z</time>
      </trkpt>
      <trkpt lat="42.4564720" lon="-2.4736640">
        <ele>419.6</ele>
        <time>2022-08-29T03:41:09Z</time>
      </trkpt>
      <trkpt lat="42.4564660" lon="-2.4737020">
        <ele>419.8</ele>
        <time>2022-08-29T03:41:10Z</time>
      </trkpt>
      <trkpt lat="42.4564620" lon="-2.4737410">
        <ele>419.8</ele>
        <time>2022-08-29T03:41:11Z</time>
      </trkpt>
      <trkpt lat="42.4564570" lon="-2.4737790">
        <ele>419.8</ele>
        <time>2022-08-29T03:41:12Z</time>
      </trkpt>
      <trkpt lat="42.4564500" lon="-2.4738190">
        <ele>420.0</ele>
        <time>2022-08-29T03:41:13Z</time>
      </trkpt>
      <trkpt lat="42.4564450" lon="-2.4738600">
        <ele>420.2</ele>
        <time>2022-08-29T03:41:14Z</time>
      </trkpt>
      <trkpt lat="42.4564420" lon="-2.4738980">
        <ele>420.2</ele>
        <time>2022-08-29T03:41:15Z</time>
      </trkpt>
      <trkpt lat="42.4564390" lon="-2.4739390">
        <ele>420.2</ele>
        <time>2022-08-29T03:41:16Z</time>
      </trkpt>
      <trkpt lat="42.4564340" lon="-2.4739780">
        <ele>420.4</ele>
        <time>2022-08-29T03:41:17Z</time>
      </trkpt>
      <trkpt lat="42.4564310" lon="-2.4740170">
        <ele>420.6</ele>
        <time>2022-08-29T03:41:18Z</time>
      </trkpt>
      <trkpt lat="42.4564280" lon="-2.4740590">
        <ele>420.6</ele>
        <time>2022-08-29T03:41:19Z</time>
      </trkpt>
      <trkpt lat="42.4564260" lon="-2.4741010">
        <ele>420.6</ele>
        <time>2022-08-29T03:41:20Z</time>
      </trkpt>
      <trkpt lat="42.4564250" lon="-2.4741420">
        <ele>420.8</ele>
        <time>2022-08-29T03:41:21Z</time>
      </trkpt>
      <trkpt lat="42.4564230" lon="-2.4741830">
        <ele>420.8</ele>
        <time>2022-08-29T03:41:22Z</time>
      </trkpt>
      <trkpt lat="42.4564200" lon="-2.4742230">
        <ele>421.0</ele>
        <time>2022-08-29T03:41:23Z</time>
      </trkpt>
      <trkpt lat="42.4564160" lon="-2.4742630">
        <ele>421.2</ele>
        <time>2022-08-29T03:41:24Z</time>
      </trkpt>
      <trkpt lat="42.4564120" lon="-2.4743020">
        <ele>421.2</ele>
        <time>2022-08-29T03:41:25Z</time>
      </trkpt>
      <trkpt lat="42.4564100" lon="-2.4743420">
        <ele>421.2</ele>
        <time>2022-08-29T03:41:26Z</time>
      </trkpt>
      <trkpt lat="42.4564080" lon="-2.4743820">
        <ele>421.4</ele>
        <time>2022-08-29T03:41:27Z</time>
      </trkpt>
      <trkpt lat="42.4564060" lon="-2.4744220">
        <ele>421.6</ele>
        <time>2022-08-29T03:41:28Z</time>
      </trkpt>
      <trkpt lat="42.4564040" lon="-2.4744610">
        <ele>421.4</ele>
        <time>2022-08-29T03:41:29Z</time>
      </trkpt>
      <trkpt lat="42.4564040" lon="-2.4745020">
        <ele>421.6</ele>
        <time>2022-08-29T03:41:30Z</time>
      </trkpt>
      <trkpt lat="42.4564030" lon="-2.4745420">
        <ele>421.6</ele>
        <time>2022-08-29T03:41:31Z</time>
      </trkpt>
      <trkpt lat="42.4564000" lon="-2.4745820">
        <ele>421.8</ele>
        <time>2022-08-29T03:41:32Z</time>
      </trkpt>
      <trkpt lat="42.4563960" lon="-2.4746220">
        <ele>421.8</ele>
        <time>2022-08-29T03:41:33Z</time>
      </trkpt>
      <trkpt lat="42.4563890" lon="-2.4746640">
        <ele>422.2</ele>
        <time>2022-08-29T03:41:34Z</time>
      </trkpt>
      <trkpt lat="42.4563820" lon="-2.4747040">
        <ele>422.2</ele>
        <time>2022-08-29T03:41:35Z</time>
      </trkpt>
      <trkpt lat="42.4563720" lon="-2.4747460">
        <ele>422.2</ele>
        <time>2022-08-29T03:41:36Z</time>
      </trkpt>
      <trkpt lat="42.4563630" lon="-2.4747890">
        <ele>422.4</ele>
        <time>2022-08-29T03:41:37Z</time>
      </trkpt>
      <trkpt lat="42.4563520" lon="-2.4748310">
        <ele>422.4</ele>
        <time>2022-08-29T03:41:38Z</time>
      </trkpt>
      <trkpt lat="42.4563430" lon="-2.4748720">
        <ele>422.6</ele>
        <time>2022-08-29T03:41:39Z</time>
      </trkpt>
      <trkpt lat="42.4563320" lon="-2.4749130">
        <ele>422.6</ele>
        <time>2022-08-29T03:41:40Z</time>
      </trkpt>
      <trkpt lat="42.4563190" lon="-2.4749550">
        <ele>422.6</ele>
        <time>2022-08-29T03:41:41Z</time>
      </trkpt>
      <trkpt lat="42.4563020" lon="-2.4749940">
        <ele>422.8</ele>
        <time>2022-08-29T03:41:42Z</time>
      </trkpt>
      <trkpt lat="42.4562870" lon="-2.4750350">
        <ele>422.8</ele>
        <time>2022-08-29T03:41:43Z</time>
      </trkpt>
      <trkpt lat="42.4562710" lon="-2.4750790">
        <ele>422.8</ele>
        <time>2022-08-29T03:41:44Z</time>
      </trkpt>
      <trkpt lat="42.4562550" lon="-2.4751230">
        <ele>423.0</ele>
        <time>2022-08-29T03:41:45Z</time>
      </trkpt>
      <trkpt lat="42.4562380" lon="-2.4751680">
        <ele>422.8</ele>
        <time>2022-08-29T03:41:46Z</time>
      </trkpt>
      <trkpt lat="42.4562200" lon="-2.4752150">
        <ele>422.8</ele>
        <time>2022-08-29T03:41:47Z</time>
      </trkpt>
      <trkpt lat="42.4562020" lon="-2.4752630">
        <ele>422.8</ele>
        <time>2022-08-29T03:41:48Z</time>
      </trkpt>
      <trkpt lat="42.4561820" lon="-2.4753110">
        <ele>422.8</ele>
        <time>2022-08-29T03:41:49Z</time>
      </trkpt>
      <trkpt lat="42.4561610" lon="-2.4753570">
        <ele>422.8</ele>
        <time>2022-08-29T03:41:50Z</time>
      </trkpt>
      <trkpt lat="42.4561400" lon="-2.4754060">
        <ele>422.8</ele>
        <time>2022-08-29T03:41:51Z</time>
      </trkpt>
      <trkpt lat="42.4561200" lon="-2.4754550">
        <ele>422.8</ele>
        <time>2022-08-29T03:41:52Z</time>
      </trkpt>
      <trkpt lat="42.4561020" lon="-2.4755040">
        <ele>422.8</ele>
        <time>2022-08-29T03:41:53Z</time>
      </trkpt>
      <trkpt lat="42.4560860" lon="-2.4755560">
        <ele>422.8</ele>
        <time>2022-08-29T03:41:54Z</time>
      </trkpt>
      <trkpt lat="42.4560760" lon="-2.4756070">
        <ele>422.8</ele>
        <time>2022-08-29T03:41:55Z</time>
      </trkpt>
      <trkpt lat="42.4560710" lon="-2.4756610">
        <ele>422.8</ele>
        <time>2022-08-29T03:41:56Z</time>
      </trkpt>
      <trkpt lat="42.4560650" lon="-2.4757120">
        <ele>422.8</ele>
        <time>2022-08-29T03:41:57Z</time>
      </trkpt>
      <trkpt lat="42.4560610" lon="-2.4757610">
        <ele>422.8</ele>
        <time>2022-08-29T03:41:58Z</time>
      </trkpt>
      <trkpt lat="42.4560580" lon="-2.4758090">
        <ele>422.6</ele>
        <time>2022-08-29T03:41:59Z</time>
      </trkpt>
      <trkpt lat="42.4560530" lon="-2.4758530">
        <ele>422.6</ele>
        <time>2022-08-29T03:42:00Z</time>
      </trkpt>
      <trkpt lat="42.4560500" lon="-2.4758890">
        <ele>422.4</ele>
        <time>2022-08-29T03:42:01Z</time>
      </trkpt>
      <trkpt lat="42.4560470" lon="-2.4759200">
        <ele>422.4</ele>
        <time>2022-08-29T03:42:02Z</time>
      </trkpt>
      <trkpt lat="42.4560440" lon="-2.4759510">
        <ele>422.4</ele>
        <time>2022-08-29T03:42:03Z</time>
      </trkpt>
      <trkpt lat="42.4560390" lon="-2.4759840">
        <ele>422.4</ele>
        <time>2022-08-29T03:42:04Z</time>
      </trkpt>
      <trkpt lat="42.4560330" lon="-2.4760240">
        <ele>422.4</ele>
        <time>2022-08-29T03:42:05Z</time>
      </trkpt>
      <trkpt lat="42.4560280" lon="-2.4760680">
        <ele>422.4</ele>
        <time>2022-08-29T03:42:06Z</time>
      </trkpt>
      <trkpt lat="42.4560210" lon="-2.4761140">
        <ele>422.4</ele>
        <time>2022-08-29T03:42:07Z</time>
      </trkpt>
      <trkpt lat="42.4560120" lon="-2.4761660">
        <ele>422.2</ele>
        <time>2022-08-29T03:42:08Z</time>
      </trkpt>
      <trkpt lat="42.4560030" lon="-2.4762250">
        <ele>422.2</ele>
        <time>2022-08-29T03:42:09Z</time>
      </trkpt>
      <trkpt lat="42.4559930" lon="-2.4762880">
        <ele>422.4</ele>
        <time>2022-08-29T03:42:10Z</time>
      </trkpt>
      <trkpt lat="42.4559850" lon="-2.4763580">
        <ele>422.2</ele>
        <time>2022-08-29T03:42:11Z</time>
      </trkpt>
      <trkpt lat="42.4559750" lon="-2.4764340">
        <ele>422.2</ele>
        <time>2022-08-29T03:42:12Z</time>
      </trkpt>
      <trkpt lat="42.4559650" lon="-2.4765140">
        <ele>422.2</ele>
        <time>2022-08-29T03:42:13Z</time>
      </trkpt>
      <trkpt lat="42.4559510" lon="-2.4765980">
        <ele>422.0</ele>
        <time>2022-08-29T03:42:14Z</time>
      </trkpt>
      <trkpt lat="42.4559350" lon="-2.4766840">
        <ele>422.0</ele>
        <time>2022-08-29T03:42:15Z</time>
      </trkpt>
      <trkpt lat="42.4559150" lon="-2.4767710">
        <ele>421.8</ele>
        <time>2022-08-29T03:42:16Z</time>
      </trkpt>
      <trkpt lat="42.4558900" lon="-2.4768610">
        <ele>421.8</ele>
        <time>2022-08-29T03:42:17Z</time>
      </trkpt>
      <trkpt lat="42.4558640" lon="-2.4769460">
        <ele>421.4</ele>
        <time>2022-08-29T03:42:18Z</time>
      </trkpt>
      <trkpt lat="42.4558410" lon="-2.4770250">
        <ele>421.2</ele>
        <time>2022-08-29T03:42:19Z</time>
      </trkpt>
      <trkpt lat="42.4558210" lon="-2.4770990">
        <ele>421.0</ele>
        <time>2022-08-29T03:42:20Z</time>
      </trkpt>
      <trkpt lat="42.4558030" lon="-2.4771680">
        <ele>420.6</ele>
        <time>2022-08-29T03:42:21Z</time>
      </trkpt>
      <trkpt lat="42.4557860" lon="-2.4772360">
        <ele>420.2</ele>
        <time>2022-08-29T03:42:22Z</time>
      </trkpt>
      <trkpt lat="42.4557660" lon="-2.4773060">
        <ele>419.8</ele>
        <time>2022-08-29T03:42:23Z</time>
      </trkpt>
      <trkpt lat="42.4557390" lon="-2.4773730">
        <ele>418.8</ele>
        <time>2022-08-29T03:42:24Z</time>
      </trkpt>
      <trkpt lat="42.4557030" lon="-2.4774280">
        <ele>418.4</ele>
        <time>2022-08-29T03:42:25Z</time>
      </trkpt>
      <trkpt lat="42.4556630" lon="-2.4774740">
        <ele>417.6</ele>
        <time>2022-08-29T03:42:26Z</time>
      </trkpt>
      <trkpt lat="42.4556200" lon="-2.4775140">
        <ele>417.0</ele>
        <time>2022-08-29T03:42:27Z</time>
      </trkpt>
      <trkpt lat="42.4555790" lon="-2.4775550">
        <ele>416.6</ele>
        <time>2022-08-29T03:42:28Z</time>
      </trkpt>
      <trkpt lat="42.4555500" lon="-2.4775690">
        <ele>416.2</ele>
        <time>2022-08-29T03:42:29Z</time>
      </trkpt>
      <trkpt lat="42.4555220" lon="-2.4775830">
        <ele>415.8</ele>
        <time>2022-08-29T03:42:30Z</time>
      </trkpt>
      <trkpt lat="42.4554940" lon="-2.4775980">
        <ele>415.8</ele>
        <time>2022-08-29T03:42:31Z</time>
      </trkpt>
      <trkpt lat="42.4554090" lon="-2.4776410">
        <ele>415.2</ele>
        <time>2022-08-29T03:42:32Z</time>
      </trkpt>
      <trkpt lat="42.4553590" lon="-2.4776270">
        <ele>414.8</ele>
        <time>2022-08-29T03:42:33Z</time>
      </trkpt>
      <trkpt lat="42.4553100" lon="-2.4776180">
        <ele>414.6</ele>
        <time>2022-08-29T03:42:34Z</time>
      </trkpt>
      <trkpt lat="42.4552890" lon="-2.4776430">
        <ele>414.6</ele>
        <time>2022-08-29T03:42:35Z</time>
      </trkpt>
      <trkpt lat="42.4552790" lon="-2.4776660">
        <ele>414.6</ele>
        <time>2022-08-29T03:42:36Z</time>
      </trkpt>
      <trkpt lat="42.4552710" lon="-2.4777050">
        <ele>414.4</ele>
        <time>2022-08-29T03:42:37Z</time>
      </trkpt>
      <trkpt lat="42.4552530" lon="-2.4777430">
        <ele>414.4</ele>
        <time>2022-08-29T03:42:38Z</time>
      </trkpt>
      <trkpt lat="42.4552370" lon="-2.4777650">
        <ele>414.4</ele>
        <time>2022-08-29T03:42:39Z</time>
      </trkpt>
      <trkpt lat="42.4552250" lon="-2.4777890">
        <ele>414.6</ele>
        <time>2022-08-29T03:42:40Z</time>
      </trkpt>
      <trkpt lat="42.4552100" lon="-2.4778120">
        <ele>414.6</ele>
        <time>2022-08-29T03:42:41Z</time>
      </trkpt>
      <trkpt lat="42.4551990" lon="-2.4778420">
        <ele>414.6</ele>
        <time>2022-08-29T03:42:42Z</time>
      </trkpt>
      <trkpt lat="42.4551870" lon="-2.4778750">
        <ele>414.4</ele>
        <time>2022-08-29T03:42:43Z</time>
      </trkpt>
      <trkpt lat="42.4551770" lon="-2.4779070">
        <ele>414.4</ele>
        <time>2022-08-29T03:42:44Z</time>
      </trkpt>
      <trkpt lat="42.4551680" lon="-2.4779480">
        <ele>414.4</ele>
        <time>2022-08-29T03:42:45Z</time>
      </trkpt>
      <trkpt lat="42.4551600" lon="-2.4779930">
        <ele>414.6</ele>
        <time>2022-08-29T03:42:46Z</time>
      </trkpt>
      <trkpt lat="42.4551520" lon="-2.4780390">
        <ele>414.8</ele>
        <time>2022-08-29T03:42:47Z</time>
      </trkpt>
      <trkpt lat="42.4551450" lon="-2.4780870">
        <ele>415.2</ele>
        <time>2022-08-29T03:42:48Z</time>
      </trkpt>
      <trkpt lat="42.4551370" lon="-2.4781330">
        <ele>415.2</ele>
        <time>2022-08-29T03:42:49Z</time>
      </trkpt>
      <trkpt lat="42.4551270" lon="-2.4781800">
        <ele>415.6</ele>
        <time>2022-08-29T03:42:50Z</time>
      </trkpt>
      <trkpt lat="42.4551170" lon="-2.4782270">
        <ele>416.0</ele>
        <time>2022-08-29T03:42:51Z</time>
      </trkpt>
      <trkpt lat="42.4551070" lon="-2.4782770">
        <ele>416.2</ele>
        <time>2022-08-29T03:42:52Z</time>
      </trkpt>
      <trkpt lat="42.4551000" lon="-2.4783270">
        <ele>416.4</ele>
        <time>2022-08-29T03:42:53Z</time>
      </trkpt>
      <trkpt lat="42.4550900" lon="-2.4783760">
        <ele>416.4</ele>
        <time>2022-08-29T03:42:54Z</time>
      </trkpt>
      <trkpt lat="42.4550800" lon="-2.4784260">
        <ele>416.4</ele>
        <time>2022-08-29T03:42:55Z</time>
      </trkpt>
      <trkpt lat="42.4550700" lon="-2.4784760">
        <ele>416.6</ele>
        <time>2022-08-29T03:42:56Z</time>
      </trkpt>
      <trkpt lat="42.4550610" lon="-2.4785220">
        <ele>416.6</ele>
        <time>2022-08-29T03:42:57Z</time>
      </trkpt>
      <trkpt lat="42.4550510" lon="-2.4785650">
        <ele>416.6</ele>
        <time>2022-08-29T03:42:58Z</time>
      </trkpt>
      <trkpt lat="42.4550420" lon="-2.4786090">
        <ele>416.8</ele>
        <time>2022-08-29T03:42:59Z</time>
      </trkpt>
      <trkpt lat="42.4550350" lon="-2.4786550">
        <ele>416.8</ele>
        <time>2022-08-29T03:43:00Z</time>
      </trkpt>
      <trkpt lat="42.4550280" lon="-2.4787030">
        <ele>416.8</ele>
        <time>2022-08-29T03:43:01Z</time>
      </trkpt>
      <trkpt lat="42.4550210" lon="-2.4787510">
        <ele>417.0</ele>
        <time>2022-08-29T03:43:02Z</time>
      </trkpt>
      <trkpt lat="42.4550130" lon="-2.4788030">
        <ele>416.8</ele>
        <time>2022-08-29T03:43:03Z</time>
      </trkpt>
      <trkpt lat="42.4550070" lon="-2.4788580">
        <ele>417.0</ele>
        <time>2022-08-29T03:43:04Z</time>
      </trkpt>
      <trkpt lat="42.4550000" lon="-2.4789140">
        <ele>417.0</ele>
        <time>2022-08-29T03:43:05Z</time>
      </trkpt>
      <trkpt lat="42.4549910" lon="-2.4789760">
        <ele>417.0</ele>
        <time>2022-08-29T03:43:06Z</time>
      </trkpt>
      <trkpt lat="42.4549800" lon="-2.4790380">
        <ele>416.8</ele>
        <time>2022-08-29T03:43:07Z</time>
      </trkpt>
      <trkpt lat="42.4549740" lon="-2.4790970">
        <ele>417.0</ele>
        <time>2022-08-29T03:43:08Z</time>
      </trkpt>
      <trkpt lat="42.4549680" lon="-2.4791580">
        <ele>416.8</ele>
        <time>2022-08-29T03:43:09Z</time>
      </trkpt>
      <trkpt lat="42.4549620" lon="-2.4792150">
        <ele>416.8</ele>
        <time>2022-08-29T03:43:10Z</time>
      </trkpt>
      <trkpt lat="42.4549550" lon="-2.4792730">
        <ele>417.0</ele>
        <time>2022-08-29T03:43:11Z</time>
      </trkpt>
      <trkpt lat="42.4549480" lon="-2.4793320">
        <ele>416.8</ele>
        <time>2022-08-29T03:43:12Z</time>
      </trkpt>
      <trkpt lat="42.4549400" lon="-2.4793910">
        <ele>417.0</ele>
        <time>2022-08-29T03:43:13Z</time>
      </trkpt>
      <trkpt lat="42.4549330" lon="-2.4794490">
        <ele>416.8</ele>
        <time>2022-08-29T03:43:14Z</time>
      </trkpt>
      <trkpt lat="42.4549240" lon="-2.4795100">
        <ele>417.0</ele>
        <time>2022-08-29T03:43:15Z</time>
      </trkpt>
      <trkpt lat="42.4549090" lon="-2.4795680">
        <ele>416.8</ele>
        <time>2022-08-29T03:43:16Z</time>
      </trkpt>
      <trkpt lat="42.4548910" lon="-2.4796250">
        <ele>417.0</ele>
        <time>2022-08-29T03:43:17Z</time>
      </trkpt>
      <trkpt lat="42.4548690" lon="-2.4796790">
        <ele>417.0</ele>
        <time>2022-08-29T03:43:18Z</time>
      </trkpt>
      <trkpt lat="42.4548450" lon="-2.4797290">
        <ele>417.0</ele>
        <time>2022-08-29T03:43:19Z</time>
      </trkpt>
      <trkpt lat="42.4548230" lon="-2.4797790">
        <ele>417.0</ele>
        <time>2022-08-29T03:43:20Z</time>
      </trkpt>
      <trkpt lat="42.4548010" lon="-2.4798300">
        <ele>417.0</ele>
        <time>2022-08-29T03:43:21Z</time>
      </trkpt>
      <trkpt lat="42.4547780" lon="-2.4798780">
        <ele>417.0</ele>
        <time>2022-08-29T03:43:22Z</time>
      </trkpt>
      <trkpt lat="42.4547540" lon="-2.4799280">
        <ele>417.0</ele>
        <time>2022-08-29T03:43:23Z</time>
      </trkpt>
      <trkpt lat="42.4547290" lon="-2.4799780">
        <ele>416.8</ele>
        <time>2022-08-29T03:43:24Z</time>
      </trkpt>
      <trkpt lat="42.4547050" lon="-2.4800280">
        <ele>417.0</ele>
        <time>2022-08-29T03:43:25Z</time>
      </trkpt>
      <trkpt lat="42.4546810" lon="-2.4800790">
        <ele>417.2</ele>
        <time>2022-08-29T03:43:26Z</time>
      </trkpt>
      <trkpt lat="42.4546580" lon="-2.4801300">
        <ele>417.0</ele>
        <time>2022-08-29T03:43:27Z</time>
      </trkpt>
      <trkpt lat="42.4546350" lon="-2.4801820">
        <ele>417.2</ele>
        <time>2022-08-29T03:43:28Z</time>
      </trkpt>
      <trkpt lat="42.4546090" lon="-2.4802340">
        <ele>417.2</ele>
        <time>2022-08-29T03:43:29Z</time>
      </trkpt>
      <trkpt lat="42.4545830" lon="-2.4802850">
        <ele>417.2</ele>
        <time>2022-08-29T03:43:30Z</time>
      </trkpt>
      <trkpt lat="42.4545550" lon="-2.4803390">
        <ele>417.2</ele>
        <time>2022-08-29T03:43:31Z</time>
      </trkpt>
      <trkpt lat="42.4545260" lon="-2.4803920">
        <ele>417.4</ele>
        <time>2022-08-29T03:43:32Z</time>
      </trkpt>
      <trkpt lat="42.4544980" lon="-2.4804470">
        <ele>417.4</ele>
        <time>2022-08-29T03:43:33Z</time>
      </trkpt>
      <trkpt lat="42.4544720" lon="-2.4804990">
        <ele>417.4</ele>
        <time>2022-08-29T03:43:34Z</time>
      </trkpt>
      <trkpt lat="42.4544430" lon="-2.4805510">
        <ele>417.4</ele>
        <time>2022-08-29T03:43:35Z</time>
      </trkpt>
      <trkpt lat="42.4544140" lon="-2.4806020">
        <ele>417.4</ele>
        <time>2022-08-29T03:43:36Z</time>
      </trkpt>
      <trkpt lat="42.4543840" lon="-2.4806520">
        <ele>417.4</ele>
        <time>2022-08-29T03:43:37Z</time>
      </trkpt>
      <trkpt lat="42.4543560" lon="-2.4807010">
        <ele>417.4</ele>
        <time>2022-08-29T03:43:38Z</time>
      </trkpt>
      <trkpt lat="42.4543300" lon="-2.4807490">
        <ele>417.4</ele>
        <time>2022-08-29T03:43:39Z</time>
      </trkpt>
      <trkpt lat="42.4543030" lon="-2.4807970">
        <ele>417.4</ele>
        <time>2022-08-29T03:43:40Z</time>
      </trkpt>
      <trkpt lat="42.4542770" lon="-2.4808470">
        <ele>417.4</ele>
        <time>2022-08-29T03:43:41Z</time>
      </trkpt>
      <trkpt lat="42.4542530" lon="-2.4808940">
        <ele>417.4</ele>
        <time>2022-08-29T03:43:42Z</time>
      </trkpt>
      <trkpt lat="42.4542260" lon="-2.4809390">
        <ele>417.6</ele>
        <time>2022-08-29T03:43:43Z</time>
      </trkpt>
      <trkpt lat="42.4542040" lon="-2.4809870">
        <ele>417.4</ele>
        <time>2022-08-29T03:43:44Z</time>
      </trkpt>
      <trkpt lat="42.4541830" lon="-2.4810380">
        <ele>417.6</ele>
        <time>2022-08-29T03:43:45Z</time>
      </trkpt>
      <trkpt lat="42.4541610" lon="-2.4810900">
        <ele>417.8</ele>
        <time>2022-08-29T03:43:46Z</time>
      </trkpt>
      <trkpt lat="42.4541380" lon="-2.4811430">
        <ele>417.8</ele>
        <time>2022-08-29T03:43:47Z</time>
      </trkpt>
      <trkpt lat="42.4541170" lon="-2.4811970">
        <ele>417.8</ele>
        <time>2022-08-29T03:43:48Z</time>
      </trkpt>
      <trkpt lat="42.4540960" lon="-2.4812510">
        <ele>417.8</ele>
        <time>2022-08-29T03:43:49Z</time>
      </trkpt>
      <trkpt lat="42.4540730" lon="-2.4813070">
        <ele>418.0</ele>
        <time>2022-08-29T03:43:50Z</time>
      </trkpt>
      <trkpt lat="42.4540500" lon="-2.4813630">
        <ele>417.8</ele>
        <time>2022-08-29T03:43:51Z</time>
      </trkpt>
      <trkpt lat="42.4540250" lon="-2.4814210">
        <ele>418.0</ele>
        <time>2022-08-29T03:43:52Z</time>
      </trkpt>
      <trkpt lat="42.4539990" lon="-2.4814800">
        <ele>417.8</ele>
        <time>2022-08-29T03:43:53Z</time>
      </trkpt>
      <trkpt lat="42.4539750" lon="-2.4815390">
        <ele>417.8</ele>
        <time>2022-08-29T03:43:54Z</time>
      </trkpt>
      <trkpt lat="42.4539510" lon="-2.4815980">
        <ele>417.8</ele>
        <time>2022-08-29T03:43:55Z</time>
      </trkpt>
      <trkpt lat="42.4539280" lon="-2.4816580">
        <ele>418.0</ele>
        <time>2022-08-29T03:43:56Z</time>
      </trkpt>
      <trkpt lat="42.4539040" lon="-2.4817170">
        <ele>417.8</ele>
        <time>2022-08-29T03:43:57Z</time>
      </trkpt>
      <trkpt lat="42.4538800" lon="-2.4817740">
        <ele>418.0</ele>
        <time>2022-08-29T03:43:58Z</time>
      </trkpt>
      <trkpt lat="42.4538580" lon="-2.4818290">
        <ele>418.0</ele>
        <time>2022-08-29T03:43:59Z</time>
      </trkpt>
      <trkpt lat="42.4538350" lon="-2.4818840">
        <ele>418.0</ele>
        <time>2022-08-29T03:44:00Z</time>
      </trkpt>
      <trkpt lat="42.4538150" lon="-2.4819380">
        <ele>418.0</ele>
        <time>2022-08-29T03:44:01Z</time>
      </trkpt>
      <trkpt lat="42.4537950" lon="-2.4819930">
        <ele>418.0</ele>
        <time>2022-08-29T03:44:02Z</time>
      </trkpt>
      <trkpt lat="42.4537770" lon="-2.4820500">
        <ele>418.0</ele>
        <time>2022-08-29T03:44:03Z</time>
      </trkpt>
      <trkpt lat="42.4537580" lon="-2.4821060">
        <ele>418.0</ele>
        <time>2022-08-29T03:44:04Z</time>
      </trkpt>
      <trkpt lat="42.4537380" lon="-2.4821620">
        <ele>418.0</ele>
        <time>2022-08-29T03:44:05Z</time>
      </trkpt>
      <trkpt lat="42.4537180" lon="-2.4822170">
        <ele>418.2</ele>
        <time>2022-08-29T03:44:06Z</time>
      </trkpt>
      <trkpt lat="42.4536990" lon="-2.4822740">
        <ele>418.0</ele>
        <time>2022-08-29T03:44:07Z</time>
      </trkpt>
      <trkpt lat="42.4536790" lon="-2.4823330">
        <ele>418.0</ele>
        <time>2022-08-29T03:44:08Z</time>
      </trkpt>
      <trkpt lat="42.4536610" lon="-2.4823910">
        <ele>418.0</ele>
        <time>2022-08-29T03:44:09Z</time>
      </trkpt>
      <trkpt lat="42.4536410" lon="-2.4824470">
        <ele>418.2</ele>
        <time>2022-08-29T03:44:10Z</time>
      </trkpt>
      <trkpt lat="42.4536230" lon="-2.4825030">
        <ele>418.0</ele>
        <time>2022-08-29T03:44:11Z</time>
      </trkpt>
      <trkpt lat="42.4536050" lon="-2.4825600">
        <ele>418.0</ele>
        <time>2022-08-29T03:44:12Z</time>
      </trkpt>
      <trkpt lat="42.4535880" lon="-2.4826130">
        <ele>418.0</ele>
        <time>2022-08-29T03:44:13Z</time>
      </trkpt>
      <trkpt lat="42.4535760" lon="-2.4826680">
        <ele>418.0</ele>
        <time>2022-08-29T03:44:14Z</time>
      </trkpt>
      <trkpt lat="42.4535610" lon="-2.4827230">
        <ele>418.0</ele>
        <time>2022-08-29T03:44:15Z</time>
      </trkpt>
      <trkpt lat="42.4535460" lon="-2.4827780">
        <ele>418.0</ele>
        <time>2022-08-29T03:44:16Z</time>
      </trkpt>
      <trkpt lat="42.4535310" lon="-2.4828320">
        <ele>418.0</ele>
        <time>2022-08-29T03:44:17Z</time>
      </trkpt>
      <trkpt lat="42.4535160" lon="-2.4828860">
        <ele>418.0</ele>
        <time>2022-08-29T03:44:18Z</time>
      </trkpt>
      <trkpt lat="42.4534990" lon="-2.4829370">
        <ele>418.2</ele>
        <time>2022-08-29T03:44:19Z</time>
      </trkpt>
      <trkpt lat="42.4534820" lon="-2.4829900">
        <ele>418.0</ele>
        <time>2022-08-29T03:44:20Z</time>
      </trkpt>
      <trkpt lat="42.4534680" lon="-2.4830440">
        <ele>418.0</ele>
        <time>2022-08-29T03:44:21Z</time>
      </trkpt>
      <trkpt lat="42.4534560" lon="-2.4830970">
        <ele>418.2</ele>
        <time>2022-08-29T03:44:22Z</time>
      </trkpt>
      <trkpt lat="42.4534440" lon="-2.4831510">
        <ele>418.2</ele>
        <time>2022-08-29T03:44:23Z</time>
      </trkpt>
      <trkpt lat="42.4534320" lon="-2.4832090">
        <ele>418.2</ele>
        <time>2022-08-29T03:44:24Z</time>
      </trkpt>
      <trkpt lat="42.4534220" lon="-2.4832660">
        <ele>418.2</ele>
        <time>2022-08-29T03:44:25Z</time>
      </trkpt>
      <trkpt lat="42.4534120" lon="-2.4833240">
        <ele>418.2</ele>
        <time>2022-08-29T03:44:26Z</time>
      </trkpt>
      <trkpt lat="42.4534030" lon="-2.4833820">
        <ele>418.0</ele>
        <time>2022-08-29T03:44:27Z</time>
      </trkpt>
      <trkpt lat="42.4533940" lon="-2.4834420">
        <ele>418.0</ele>
        <time>2022-08-29T03:44:28Z</time>
      </trkpt>
      <trkpt lat="42.4533840" lon="-2.4835000">
        <ele>418.2</ele>
        <time>2022-08-29T03:44:29Z</time>
      </trkpt>
      <trkpt lat="42.4533740" lon="-2.4835600">
        <ele>418.4</ele>
        <time>2022-08-29T03:44:30Z</time>
      </trkpt>
      <trkpt lat="42.4533640" lon="-2.4836210">
        <ele>418.2</ele>
        <time>2022-08-29T03:44:31Z</time>
      </trkpt>
      <trkpt lat="42.4533540" lon="-2.4836820">
        <ele>418.2</ele>
        <time>2022-08-29T03:44:32Z</time>
      </trkpt>
      <trkpt lat="42.4533450" lon="-2.4837430">
        <ele>418.2</ele>
        <time>2022-08-29T03:44:33Z</time>
      </trkpt>
      <trkpt lat="42.4533380" lon="-2.4838030">
        <ele>418.4</ele>
        <time>2022-08-29T03:44:34Z</time>
      </trkpt>
      <trkpt lat="42.4533280" lon="-2.4838670">
        <ele>418.4</ele>
        <time>2022-08-29T03:44:35Z</time>
      </trkpt>
      <trkpt lat="42.4533190" lon="-2.4839310">
        <ele>418.4</ele>
        <time>2022-08-29T03:44:36Z</time>
      </trkpt>
      <trkpt lat="42.4533100" lon="-2.4839920">
        <ele>418.4</ele>
        <time>2022-08-29T03:44:37Z</time>
      </trkpt>
      <trkpt lat="42.4533000" lon="-2.4840530">
        <ele>418.4</ele>
        <time>2022-08-29T03:44:38Z</time>
      </trkpt>
      <trkpt lat="42.4532890" lon="-2.4841140">
        <ele>418.4</ele>
        <time>2022-08-29T03:44:39Z</time>
      </trkpt>
      <trkpt lat="42.4532800" lon="-2.4841740">
        <ele>418.4</ele>
        <time>2022-08-29T03:44:40Z</time>
      </trkpt>
      <trkpt lat="42.4532710" lon="-2.4842360">
        <ele>418.4</ele>
        <time>2022-08-29T03:44:41Z</time>
      </trkpt>
      <trkpt lat="42.4532620" lon="-2.4842970">
        <ele>418.4</ele>
        <time>2022-08-29T03:44:42Z</time>
      </trkpt>
      <trkpt lat="42.4532560" lon="-2.4843570">
        <ele>418.4</ele>
        <time>2022-08-29T03:44:43Z</time>
      </trkpt>
      <trkpt lat="42.4532500" lon="-2.4844150">
        <ele>418.6</ele>
        <time>2022-08-29T03:44:44Z</time>
      </trkpt>
      <trkpt lat="42.4532420" lon="-2.4844730">
        <ele>418.6</ele>
        <time>2022-08-29T03:44:45Z</time>
      </trkpt>
      <trkpt lat="42.4532340" lon="-2.4845300">
        <ele>418.6</ele>
        <time>2022-08-29T03:44:46Z</time>
      </trkpt>
      <trkpt lat="42.4532250" lon="-2.4845870">
        <ele>418.6</ele>
        <time>2022-08-29T03:44:47Z</time>
      </trkpt>
      <trkpt lat="42.4532150" lon="-2.4846440">
        <ele>418.6</ele>
        <time>2022-08-29T03:44:48Z</time>
      </trkpt>
      <trkpt lat="42.4532060" lon="-2.4847010">
        <ele>418.6</ele>
        <time>2022-08-29T03:44:49Z</time>
      </trkpt>
      <trkpt lat="42.4531970" lon="-2.4847580">
        <ele>418.6</ele>
        <time>2022-08-29T03:44:50Z</time>
      </trkpt>
      <trkpt lat="42.4531880" lon="-2.4848150">
        <ele>418.6</ele>
        <time>2022-08-29T03:44:51Z</time>
      </trkpt>
      <trkpt lat="42.4531800" lon="-2.4848720">
        <ele>418.8</ele>
        <time>2022-08-29T03:44:52Z</time>
      </trkpt>
      <trkpt lat="42.4531720" lon="-2.4849290">
        <ele>418.8</ele>
        <time>2022-08-29T03:44:53Z</time>
      </trkpt>
      <trkpt lat="42.4531640" lon="-2.4849830">
        <ele>418.8</ele>
        <time>2022-08-29T03:44:54Z</time>
      </trkpt>
      <trkpt lat="42.4531550" lon="-2.4850370">
        <ele>418.8</ele>
        <time>2022-08-29T03:44:55Z</time>
      </trkpt>
      <trkpt lat="42.4531460" lon="-2.4850910">
        <ele>418.8</ele>
        <time>2022-08-29T03:44:56Z</time>
      </trkpt>
      <trkpt lat="42.4531390" lon="-2.4851450">
        <ele>418.8</ele>
        <time>2022-08-29T03:44:57Z</time>
      </trkpt>
      <trkpt lat="42.4531320" lon="-2.4851970">
        <ele>418.8</ele>
        <time>2022-08-29T03:44:58Z</time>
      </trkpt>
      <trkpt lat="42.4531230" lon="-2.4852470">
        <ele>419.0</ele>
        <time>2022-08-29T03:44:59Z</time>
      </trkpt>
      <trkpt lat="42.4531160" lon="-2.4852960">
        <ele>418.8</ele>
        <time>2022-08-29T03:45:00Z</time>
      </trkpt>
      <trkpt lat="42.4531100" lon="-2.4853450">
        <ele>418.8</ele>
        <time>2022-08-29T03:45:01Z</time>
      </trkpt>
      <trkpt lat="42.4531020" lon="-2.4853950">
        <ele>419.0</ele>
        <time>2022-08-29T03:45:02Z</time>
      </trkpt>
      <trkpt lat="42.4530950" lon="-2.4854460">
        <ele>419.0</ele>
        <time>2022-08-29T03:45:03Z</time>
      </trkpt>
      <trkpt lat="42.4530880" lon="-2.4854970">
        <ele>419.2</ele>
        <time>2022-08-29T03:45:04Z</time>
      </trkpt>
      <trkpt lat="42.4530810" lon="-2.4855480">
        <ele>419.2</ele>
        <time>2022-08-29T03:45:05Z</time>
      </trkpt>
      <trkpt lat="42.4530750" lon="-2.4856000">
        <ele>419.2</ele>
        <time>2022-08-29T03:45:06Z</time>
      </trkpt>
      <trkpt lat="42.4530700" lon="-2.4856500">
        <ele>419.4</ele>
        <time>2022-08-29T03:45:07Z</time>
      </trkpt>
      <trkpt lat="42.4530660" lon="-2.4857010">
        <ele>419.4</ele>
        <time>2022-08-29T03:45:08Z</time>
      </trkpt>
      <trkpt lat="42.4530610" lon="-2.4857510">
        <ele>419.4</ele>
        <time>2022-08-29T03:45:09Z</time>
      </trkpt>
      <trkpt lat="42.4530550" lon="-2.4858000">
        <ele>419.4</ele>
        <time>2022-08-29T03:45:10Z</time>
      </trkpt>
      <trkpt lat="42.4530480" lon="-2.4858500">
        <ele>419.4</ele>
        <time>2022-08-29T03:45:11Z</time>
      </trkpt>
      <trkpt lat="42.4530410" lon="-2.4859010">
        <ele>419.4</ele>
        <time>2022-08-29T03:45:12Z</time>
      </trkpt>
      <trkpt lat="42.4530360" lon="-2.4859530">
        <ele>419.2</ele>
        <time>2022-08-29T03:45:13Z</time>
      </trkpt>
      <trkpt lat="42.4530320" lon="-2.4860050">
        <ele>419.2</ele>
        <time>2022-08-29T03:45:14Z</time>
      </trkpt>
      <trkpt lat="42.4530250" lon="-2.4860560">
        <ele>419.6</ele>
        <time>2022-08-29T03:45:15Z</time>
      </trkpt>
      <trkpt lat="42.4530200" lon="-2.4861070">
        <ele>419.4</ele>
        <time>2022-08-29T03:45:16Z</time>
      </trkpt>
      <trkpt lat="42.4530140" lon="-2.4861590">
        <ele>419.2</ele>
        <time>2022-08-29T03:45:17Z</time>
      </trkpt>
      <trkpt lat="42.4530100" lon="-2.4862120">
        <ele>419.6</ele>
        <time>2022-08-29T03:45:18Z</time>
      </trkpt>
      <trkpt lat="42.4530050" lon="-2.4862660">
        <ele>419.4</ele>
        <time>2022-08-29T03:45:19Z</time>
      </trkpt>
      <trkpt lat="42.4530000" lon="-2.4863220">
        <ele>419.4</ele>
        <time>2022-08-29T03:45:20Z</time>
      </trkpt>
      <trkpt lat="42.4529950" lon="-2.4863790">
        <ele>419.4</ele>
        <time>2022-08-29T03:45:21Z</time>
      </trkpt>
      <trkpt lat="42.4529920" lon="-2.4864360">
        <ele>419.4</ele>
        <time>2022-08-29T03:45:22Z</time>
      </trkpt>
      <trkpt lat="42.4529890" lon="-2.4864930">
        <ele>419.4</ele>
        <time>2022-08-29T03:45:23Z</time>
      </trkpt>
      <trkpt lat="42.4529850" lon="-2.4865520">
        <ele>419.4</ele>
        <time>2022-08-29T03:45:24Z</time>
      </trkpt>
      <trkpt lat="42.4529790" lon="-2.4866120">
        <ele>419.4</ele>
        <time>2022-08-29T03:45:25Z</time>
      </trkpt>
      <trkpt lat="42.4529720" lon="-2.4866710">
        <ele>419.4</ele>
        <time>2022-08-29T03:45:26Z</time>
      </trkpt>
      <trkpt lat="42.4529650" lon="-2.4867300">
        <ele>419.4</ele>
        <time>2022-08-29T03:45:27Z</time>
      </trkpt>
      <trkpt lat="42.4529560" lon="-2.4867860">
        <ele>419.4</ele>
        <time>2022-08-29T03:45:28Z</time>
      </trkpt>
      <trkpt lat="42.4529440" lon="-2.4868400">
        <ele>419.4</ele>
        <time>2022-08-29T03:45:29Z</time>
      </trkpt>
      <trkpt lat="42.4529280" lon="-2.4868910">
        <ele>419.6</ele>
        <time>2022-08-29T03:45:30Z</time>
      </trkpt>
      <trkpt lat="42.4529080" lon="-2.4869420">
        <ele>419.6</ele>
        <time>2022-08-29T03:45:31Z</time>
      </trkpt>
      <trkpt lat="42.4528910" lon="-2.4869910">
        <ele>419.6</ele>
        <time>2022-08-29T03:45:32Z</time>
      </trkpt>
      <trkpt lat="42.4528700" lon="-2.4870360">
        <ele>419.6</ele>
        <time>2022-08-29T03:45:33Z</time>
      </trkpt>
      <trkpt lat="42.4528530" lon="-2.4870840">
        <ele>419.8</ele>
        <time>2022-08-29T03:45:34Z</time>
      </trkpt>
      <trkpt lat="42.4528440" lon="-2.4871350">
        <ele>419.8</ele>
        <time>2022-08-29T03:45:35Z</time>
      </trkpt>
      <trkpt lat="42.4528370" lon="-2.4871900">
        <ele>419.8</ele>
        <time>2022-08-29T03:45:36Z</time>
      </trkpt>
      <trkpt lat="42.4528250" lon="-2.4872420">
        <ele>420.0</ele>
        <time>2022-08-29T03:45:37Z</time>
      </trkpt>
      <trkpt lat="42.4528060" lon="-2.4872890">
        <ele>420.0</ele>
        <time>2022-08-29T03:45:38Z</time>
      </trkpt>
      <trkpt lat="42.4527830" lon="-2.4873340">
        <ele>420.0</ele>
        <time>2022-08-29T03:45:39Z</time>
      </trkpt>
      <trkpt lat="42.4527600" lon="-2.4873820">
        <ele>420.2</ele>
        <time>2022-08-29T03:45:40Z</time>
      </trkpt>
      <trkpt lat="42.4527350" lon="-2.4874280">
        <ele>420.4</ele>
        <time>2022-08-29T03:45:41Z</time>
      </trkpt>
      <trkpt lat="42.4527080" lon="-2.4874700">
        <ele>420.4</ele>
        <time>2022-08-29T03:45:42Z</time>
      </trkpt>
      <trkpt lat="42.4526800" lon="-2.4875140">
        <ele>420.4</ele>
        <time>2022-08-29T03:45:43Z</time>
      </trkpt>
      <trkpt lat="42.4526510" lon="-2.4875560">
        <ele>420.4</ele>
        <time>2022-08-29T03:45:44Z</time>
      </trkpt>
      <trkpt lat="42.4526230" lon="-2.4875980">
        <ele>420.6</ele>
        <time>2022-08-29T03:45:45Z</time>
      </trkpt>
      <trkpt lat="42.4525990" lon="-2.4876420">
        <ele>420.4</ele>
        <time>2022-08-29T03:45:46Z</time>
      </trkpt>
      <trkpt lat="42.4525780" lon="-2.4876890">
        <ele>420.6</ele>
        <time>2022-08-29T03:45:47Z</time>
      </trkpt>
      <trkpt lat="42.4525600" lon="-2.4877370">
        <ele>420.6</ele>
        <time>2022-08-29T03:45:48Z</time>
      </trkpt>
      <trkpt lat="42.4525440" lon="-2.4877860">
        <ele>420.6</ele>
        <time>2022-08-29T03:45:49Z</time>
      </trkpt>
      <trkpt lat="42.4525250" lon="-2.4878330">
        <ele>420.6</ele>
        <time>2022-08-29T03:45:50Z</time>
      </trkpt>
      <trkpt lat="42.4525070" lon="-2.4878840">
        <ele>420.6</ele>
        <time>2022-08-29T03:45:51Z</time>
      </trkpt>
      <trkpt lat="42.4524910" lon="-2.4879350">
        <ele>420.8</ele>
        <time>2022-08-29T03:45:52Z</time>
      </trkpt>
      <trkpt lat="42.4524750" lon="-2.4879870">
        <ele>420.6</ele>
        <time>2022-08-29T03:45:53Z</time>
      </trkpt>
      <trkpt lat="42.4524610" lon="-2.4880380">
        <ele>420.8</ele>
        <time>2022-08-29T03:45:54Z</time>
      </trkpt>
      <trkpt lat="42.4524440" lon="-2.4880860">
        <ele>421.0</ele>
        <time>2022-08-29T03:45:55Z</time>
      </trkpt>
      <trkpt lat="42.4524260" lon="-2.4881350">
        <ele>421.2</ele>
        <time>2022-08-29T03:45:56Z</time>
      </trkpt>
      <trkpt lat="42.4524070" lon="-2.4881840">
        <ele>421.4</ele>
        <time>2022-08-29T03:45:57Z</time>
      </trkpt>
      <trkpt lat="42.4523870" lon="-2.4882330">
        <ele>421.6</ele>
        <time>2022-08-29T03:45:58Z</time>
      </trkpt>
      <trkpt lat="42.4523670" lon="-2.4882810">
        <ele>421.6</ele>
        <time>2022-08-29T03:45:59Z</time>
      </trkpt>
      <trkpt lat="42.4523450" lon="-2.4883390">
        <ele>421.6</ele>
        <time>2022-08-29T03:46:00Z</time>
      </trkpt>
      <trkpt lat="42.4523250" lon="-2.4883870">
        <ele>421.6</ele>
        <time>2022-08-29T03:46:01Z</time>
      </trkpt>
      <trkpt lat="42.4523040" lon="-2.4884350">
        <ele>421.6</ele>
        <time>2022-08-29T03:46:02Z</time>
      </trkpt>
      <trkpt lat="42.4522840" lon="-2.4884840">
        <ele>421.6</ele>
        <time>2022-08-29T03:46:03Z</time>
      </trkpt>
      <trkpt lat="42.4522630" lon="-2.4885340">
        <ele>421.6</ele>
        <time>2022-08-29T03:46:04Z</time>
      </trkpt>
      <trkpt lat="42.4522430" lon="-2.4885850">
        <ele>421.8</ele>
        <time>2022-08-29T03:46:05Z</time>
      </trkpt>
      <trkpt lat="42.4522250" lon="-2.4886340">
        <ele>421.6</ele>
        <time>2022-08-29T03:46:06Z</time>
      </trkpt>
      <trkpt lat="42.4522040" lon="-2.4886850">
        <ele>421.8</ele>
        <time>2022-08-29T03:46:07Z</time>
      </trkpt>
      <trkpt lat="42.4521810" lon="-2.4887400">
        <ele>421.6</ele>
        <time>2022-08-29T03:46:08Z</time>
      </trkpt>
      <trkpt lat="42.4521590" lon="-2.4887950">
        <ele>421.6</ele>
        <time>2022-08-29T03:46:09Z</time>
      </trkpt>
      <trkpt lat="42.4521350" lon="-2.4888540">
        <ele>421.6</ele>
        <time>2022-08-29T03:46:10Z</time>
      </trkpt>
      <trkpt lat="42.4521140" lon="-2.4889120">
        <ele>421.8</ele>
        <time>2022-08-29T03:46:11Z</time>
      </trkpt>
      <trkpt lat="42.4520910" lon="-2.4889700">
        <ele>421.8</ele>
        <time>2022-08-29T03:46:12Z</time>
      </trkpt>
      <trkpt lat="42.4520700" lon="-2.4890240">
        <ele>421.8</ele>
        <time>2022-08-29T03:46:13Z</time>
      </trkpt>
      <trkpt lat="42.4520490" lon="-2.4890780">
        <ele>422.0</ele>
        <time>2022-08-29T03:46:14Z</time>
      </trkpt>
      <trkpt lat="42.4520290" lon="-2.4891300">
        <ele>421.8</ele>
        <time>2022-08-29T03:46:15Z</time>
      </trkpt>
      <trkpt lat="42.4520070" lon="-2.4891850">
        <ele>421.8</ele>
        <time>2022-08-29T03:46:16Z</time>
      </trkpt>
      <trkpt lat="42.4519860" lon="-2.4892390">
        <ele>421.8</ele>
        <time>2022-08-29T03:46:17Z</time>
      </trkpt>
      <trkpt lat="42.4519670" lon="-2.4892910">
        <ele>421.8</ele>
        <time>2022-08-29T03:46:18Z</time>
      </trkpt>
      <trkpt lat="42.4519480" lon="-2.4893430">
        <ele>422.0</ele>
        <time>2022-08-29T03:46:19Z</time>
      </trkpt>
      <trkpt lat="42.4519280" lon="-2.4893940">
        <ele>422.0</ele>
        <time>2022-08-29T03:46:20Z</time>
      </trkpt>
      <trkpt lat="42.4519060" lon="-2.4894430">
        <ele>422.0</ele>
        <time>2022-08-29T03:46:21Z</time>
      </trkpt>
      <trkpt lat="42.4518830" lon="-2.4894920">
        <ele>422.0</ele>
        <time>2022-08-29T03:46:22Z</time>
      </trkpt>
      <trkpt lat="42.4518630" lon="-2.4895410">
        <ele>422.4</ele>
        <time>2022-08-29T03:46:23Z</time>
      </trkpt>
      <trkpt lat="42.4518450" lon="-2.4895890">
        <ele>422.4</ele>
        <time>2022-08-29T03:46:24Z</time>
      </trkpt>
      <trkpt lat="42.4518260" lon="-2.4896380">
        <ele>422.4</ele>
        <time>2022-08-29T03:46:25Z</time>
      </trkpt>
      <trkpt lat="42.4518040" lon="-2.4896880">
        <ele>422.4</ele>
        <time>2022-08-29T03:46:26Z</time>
      </trkpt>
      <trkpt lat="42.4517840" lon="-2.4897370">
        <ele>422.4</ele>
        <time>2022-08-29T03:46:27Z</time>
      </trkpt>
      <trkpt lat="42.4517640" lon="-2.4897860">
        <ele>422.4</ele>
        <time>2022-08-29T03:46:28Z</time>
      </trkpt>
      <trkpt lat="42.4517440" lon="-2.4898360">
        <ele>422.6</ele>
        <time>2022-08-29T03:46:29Z</time>
      </trkpt>
      <trkpt lat="42.4517260" lon="-2.4898870">
        <ele>422.6</ele>
        <time>2022-08-29T03:46:30Z</time>
      </trkpt>
      <trkpt lat="42.4517070" lon="-2.4899340">
        <ele>422.6</ele>
        <time>2022-08-29T03:46:31Z</time>
      </trkpt>
      <trkpt lat="42.4516880" lon="-2.4899810">
        <ele>422.6</ele>
        <time>2022-08-29T03:46:32Z</time>
      </trkpt>
      <trkpt lat="42.4516690" lon="-2.4900270">
        <ele>422.8</ele>
        <time>2022-08-29T03:46:33Z</time>
      </trkpt>
      <trkpt lat="42.4516530" lon="-2.4900740">
        <ele>422.8</ele>
        <time>2022-08-29T03:46:34Z</time>
      </trkpt>
      <trkpt lat="42.4516390" lon="-2.4901240">
        <ele>423.0</ele>
        <time>2022-08-29T03:46:35Z</time>
      </trkpt>
      <trkpt lat="42.4516220" lon="-2.4901730">
        <ele>423.0</ele>
        <time>2022-08-29T03:46:36Z</time>
      </trkpt>
      <trkpt lat="42.4516080" lon="-2.4902240">
        <ele>423.0</ele>
        <time>2022-08-29T03:46:37Z</time>
      </trkpt>
      <trkpt lat="42.4515970" lon="-2.4902800">
        <ele>423.0</ele>
        <time>2022-08-29T03:46:38Z</time>
      </trkpt>
      <trkpt lat="42.4515830" lon="-2.4903410">
        <ele>423.0</ele>
        <time>2022-08-29T03:46:39Z</time>
      </trkpt>
      <trkpt lat="42.4515700" lon="-2.4903950">
        <ele>423.4</ele>
        <time>2022-08-29T03:46:40Z</time>
      </trkpt>
      <trkpt lat="42.4515570" lon="-2.4904490">
        <ele>423.4</ele>
        <time>2022-08-29T03:46:41Z</time>
      </trkpt>
      <trkpt lat="42.4515450" lon="-2.4905050">
        <ele>423.6</ele>
        <time>2022-08-29T03:46:42Z</time>
      </trkpt>
      <trkpt lat="42.4515340" lon="-2.4905600">
        <ele>423.6</ele>
        <time>2022-08-29T03:46:43Z</time>
      </trkpt>
      <trkpt lat="42.4515240" lon="-2.4906130">
        <ele>423.8</ele>
        <time>2022-08-29T03:46:44Z</time>
      </trkpt>
      <trkpt lat="42.4515120" lon="-2.4906670">
        <ele>423.8</ele>
        <time>2022-08-29T03:46:45Z</time>
      </trkpt>
      <trkpt lat="42.4515000" lon="-2.4907200">
        <ele>424.0</ele>
        <time>2022-08-29T03:46:46Z</time>
      </trkpt>
      <trkpt lat="42.4514880" lon="-2.4907720">
        <ele>424.0</ele>
        <time>2022-08-29T03:46:47Z</time>
      </trkpt>
      <trkpt lat="42.4514770" lon="-2.4908230">
        <ele>424.2</ele>
        <time>2022-08-29T03:46:48Z</time>
      </trkpt>
      <trkpt lat="42.4514680" lon="-2.4908760">
        <ele>424.2</ele>
        <time>2022-08-29T03:46:49Z</time>
      </trkpt>
      <trkpt lat="42.4514580" lon="-2.4909300">
        <ele>424.4</ele>
        <time>2022-08-29T03:46:50Z</time>
      </trkpt>
      <trkpt lat="42.4514460" lon="-2.4909810">
        <ele>424.4</ele>
        <time>2022-08-29T03:46:51Z</time>
      </trkpt>
      <trkpt lat="42.4514350" lon="-2.4910310">
        <ele>424.4</ele>
        <time>2022-08-29T03:46:52Z</time>
      </trkpt>
      <trkpt lat="42.4514230" lon="-2.4910790">
        <ele>424.4</ele>
        <time>2022-08-29T03:46:53Z</time>
      </trkpt>
      <trkpt lat="42.4514100" lon="-2.4911260">
        <ele>424.6</ele>
        <time>2022-08-29T03:46:54Z</time>
      </trkpt>
      <trkpt lat="42.4513960" lon="-2.4911720">
        <ele>424.4</ele>
        <time>2022-08-29T03:46:55Z</time>
      </trkpt>
      <trkpt lat="42.4513800" lon="-2.4912180">
        <ele>424.6</ele>
        <time>2022-08-29T03:46:56Z</time>
      </trkpt>
      <trkpt lat="42.4513630" lon="-2.4912660">
        <ele>424.6</ele>
        <time>2022-08-29T03:46:57Z</time>
      </trkpt>
      <trkpt lat="42.4513490" lon="-2.4913140">
        <ele>424.8</ele>
        <time>2022-08-29T03:46:58Z</time>
      </trkpt>
      <trkpt lat="42.4513370" lon="-2.4913610">
        <ele>424.6</ele>
        <time>2022-08-29T03:46:59Z</time>
      </trkpt>
      <trkpt lat="42.4513250" lon="-2.4914100">
        <ele>424.8</ele>
        <time>2022-08-29T03:47:00Z</time>
      </trkpt>
      <trkpt lat="42.4513130" lon="-2.4914590">
        <ele>425.0</ele>
        <time>2022-08-29T03:47:01Z</time>
      </trkpt>
      <trkpt lat="42.4513020" lon="-2.4915060">
        <ele>425.0</ele>
        <time>2022-08-29T03:47:02Z</time>
      </trkpt>
      <trkpt lat="42.4512870" lon="-2.4915520">
        <ele>425.2</ele>
        <time>2022-08-29T03:47:03Z</time>
      </trkpt>
      <trkpt lat="42.4512730" lon="-2.4915990">
        <ele>425.0</ele>
        <time>2022-08-29T03:47:04Z</time>
      </trkpt>
      <trkpt lat="42.4512600" lon="-2.4916480">
        <ele>425.0</ele>
        <time>2022-08-29T03:47:05Z</time>
      </trkpt>
      <trkpt lat="42.4512470" lon="-2.4916970">
        <ele>425.2</ele>
        <time>2022-08-29T03:47:06Z</time>
      </trkpt>
      <trkpt lat="42.4512330" lon="-2.4917450">
        <ele>425.2</ele>
        <time>2022-08-29T03:47:07Z</time>
      </trkpt>
      <trkpt lat="42.4512200" lon="-2.4917920">
        <ele>425.2</ele>
        <time>2022-08-29T03:47:08Z</time>
      </trkpt>
      <trkpt lat="42.4512080" lon="-2.4918400">
        <ele>425.2</ele>
        <time>2022-08-29T03:47:09Z</time>
      </trkpt>
      <trkpt lat="42.4511960" lon="-2.4918870">
        <ele>425.2</ele>
        <time>2022-08-29T03:47:10Z</time>
      </trkpt>
      <trkpt lat="42.4511820" lon="-2.4919370">
        <ele>425.4</ele>
        <time>2022-08-29T03:47:11Z</time>
      </trkpt>
      <trkpt lat="42.4511660" lon="-2.4919890">
        <ele>425.6</ele>
        <time>2022-08-29T03:47:12Z</time>
      </trkpt>
      <trkpt lat="42.4511530" lon="-2.4920410">
        <ele>425.6</ele>
        <time>2022-08-29T03:47:13Z</time>
      </trkpt>
      <trkpt lat="42.4511410" lon="-2.4920940">
        <ele>425.4</ele>
        <time>2022-08-29T03:47:14Z</time>
      </trkpt>
      <trkpt lat="42.4511270" lon="-2.4921470">
        <ele>425.6</ele>
        <time>2022-08-29T03:47:15Z</time>
      </trkpt>
      <trkpt lat="42.4511130" lon="-2.4921980">
        <ele>425.8</ele>
        <time>2022-08-29T03:47:16Z</time>
      </trkpt>
      <trkpt lat="42.4510980" lon="-2.4922510">
        <ele>425.8</ele>
        <time>2022-08-29T03:47:17Z</time>
      </trkpt>
      <trkpt lat="42.4510820" lon="-2.4923000">
        <ele>425.8</ele>
        <time>2022-08-29T03:47:18Z</time>
      </trkpt>
      <trkpt lat="42.4510660" lon="-2.4923510">
        <ele>426.0</ele>
        <time>2022-08-29T03:47:19Z</time>
      </trkpt>
      <trkpt lat="42.4510540" lon="-2.4924020">
        <ele>426.0</ele>
        <time>2022-08-29T03:47:20Z</time>
      </trkpt>
      <trkpt lat="42.4510410" lon="-2.4924540">
        <ele>426.0</ele>
        <time>2022-08-29T03:47:21Z</time>
      </trkpt>
      <trkpt lat="42.4510260" lon="-2.4925060">
        <ele>426.0</ele>
        <time>2022-08-29T03:47:22Z</time>
      </trkpt>
      <trkpt lat="42.4510110" lon="-2.4925580">
        <ele>426.2</ele>
        <time>2022-08-29T03:47:23Z</time>
      </trkpt>
      <trkpt lat="42.4509980" lon="-2.4926120">
        <ele>426.0</ele>
        <time>2022-08-29T03:47:24Z</time>
      </trkpt>
      <trkpt lat="42.4509850" lon="-2.4926640">
        <ele>426.2</ele>
        <time>2022-08-29T03:47:25Z</time>
      </trkpt>
      <trkpt lat="42.4509730" lon="-2.4927160">
        <ele>426.2</ele>
        <time>2022-08-29T03:47:26Z</time>
      </trkpt>
      <trkpt lat="42.4509610" lon="-2.4927680">
        <ele>426.2</ele>
        <time>2022-08-29T03:47:27Z</time>
      </trkpt>
      <trkpt lat="42.4509480" lon="-2.4928210">
        <ele>426.4</ele>
        <time>2022-08-29T03:47:28Z</time>
      </trkpt>
      <trkpt lat="42.4509340" lon="-2.4928730">
        <ele>426.4</ele>
        <time>2022-08-29T03:47:29Z</time>
      </trkpt>
      <trkpt lat="42.4509220" lon="-2.4929270">
        <ele>426.6</ele>
        <time>2022-08-29T03:47:30Z</time>
      </trkpt>
      <trkpt lat="42.4509120" lon="-2.4929800">
        <ele>426.6</ele>
        <time>2022-08-29T03:47:31Z</time>
      </trkpt>
      <trkpt lat="42.4509000" lon="-2.4930340">
        <ele>426.6</ele>
        <time>2022-08-29T03:47:32Z</time>
      </trkpt>
      <trkpt lat="42.4508880" lon="-2.4930870">
        <ele>426.6</ele>
        <time>2022-08-29T03:47:33Z</time>
      </trkpt>
      <trkpt lat="42.4508750" lon="-2.4931410">
        <ele>426.8</ele>
        <time>2022-08-29T03:47:34Z</time>
      </trkpt>
      <trkpt lat="42.4508600" lon="-2.4931920">
        <ele>426.8</ele>
        <time>2022-08-29T03:47:35Z</time>
      </trkpt>
      <trkpt lat="42.4508470" lon="-2.4932440">
        <ele>426.8</ele>
        <time>2022-08-29T03:47:36Z</time>
      </trkpt>
      <trkpt lat="42.4508330" lon="-2.4932930">
        <ele>426.8</ele>
        <time>2022-08-29T03:47:37Z</time>
      </trkpt>
      <trkpt lat="42.4508180" lon="-2.4933420">
        <ele>427.0</ele>
        <time>2022-08-29T03:47:38Z</time>
      </trkpt>
      <trkpt lat="42.4508030" lon="-2.4933910">
        <ele>427.0</ele>
        <time>2022-08-29T03:47:39Z</time>
      </trkpt>
      <trkpt lat="42.4507900" lon="-2.4934410">
        <ele>427.0</ele>
        <time>2022-08-29T03:47:40Z</time>
      </trkpt>
      <trkpt lat="42.4507770" lon="-2.4934910">
        <ele>427.2</ele>
        <time>2022-08-29T03:47:41Z</time>
      </trkpt>
      <trkpt lat="42.4507620" lon="-2.4935410">
        <ele>427.2</ele>
        <time>2022-08-29T03:47:42Z</time>
      </trkpt>
      <trkpt lat="42.4507480" lon="-2.4935930">
        <ele>427.2</ele>
        <time>2022-08-29T03:47:43Z</time>
      </trkpt>
      <trkpt lat="42.4507340" lon="-2.4936440">
        <ele>427.4</ele>
        <time>2022-08-29T03:47:44Z</time>
      </trkpt>
      <trkpt lat="42.4507170" lon="-2.4936960">
        <ele>427.6</ele>
        <time>2022-08-29T03:47:45Z</time>
      </trkpt>
      <trkpt lat="42.4506960" lon="-2.4937490">
        <ele>427.4</ele>
        <time>2022-08-29T03:47:46Z</time>
      </trkpt>
      <trkpt lat="42.4506760" lon="-2.4938020">
        <ele>427.6</ele>
        <time>2022-08-29T03:47:47Z</time>
      </trkpt>
      <trkpt lat="42.4506570" lon="-2.4938570">
        <ele>427.4</ele>
        <time>2022-08-29T03:47:48Z</time>
      </trkpt>
      <trkpt lat="42.4506420" lon="-2.4939130">
        <ele>427.6</ele>
        <time>2022-08-29T03:47:49Z</time>
      </trkpt>
      <trkpt lat="42.4506280" lon="-2.4939670">
        <ele>427.6</ele>
        <time>2022-08-29T03:47:50Z</time>
      </trkpt>
      <trkpt lat="42.4506120" lon="-2.4940200">
        <ele>427.6</ele>
        <time>2022-08-29T03:47:51Z</time>
      </trkpt>
      <trkpt lat="42.4505940" lon="-2.4940710">
        <ele>427.6</ele>
        <time>2022-08-29T03:47:52Z</time>
      </trkpt>
      <trkpt lat="42.4505760" lon="-2.4941190">
        <ele>427.8</ele>
        <time>2022-08-29T03:47:53Z</time>
      </trkpt>
      <trkpt lat="42.4505570" lon="-2.4941640">
        <ele>427.6</ele>
        <time>2022-08-29T03:47:54Z</time>
      </trkpt>
      <trkpt lat="42.4505330" lon="-2.4942030">
        <ele>427.8</ele>
        <time>2022-08-29T03:47:55Z</time>
      </trkpt>
      <trkpt lat="42.4505080" lon="-2.4942350">
        <ele>427.8</ele>
        <time>2022-08-29T03:47:56Z</time>
      </trkpt>
      <trkpt lat="42.4504820" lon="-2.4942610">
        <ele>427.8</ele>
        <time>2022-08-29T03:47:57Z</time>
      </trkpt>
      <trkpt lat="42.4504500" lon="-2.4942840">
        <ele>427.8</ele>
        <time>2022-08-29T03:47:58Z</time>
      </trkpt>
      <trkpt lat="42.4504160" lon="-2.4943050">
        <ele>427.8</ele>
        <time>2022-08-29T03:47:59Z</time>
      </trkpt>
      <trkpt lat="42.4503800" lon="-2.4943290">
        <ele>427.8</ele>
        <time>2022-08-29T03:48:00Z</time>
      </trkpt>
      <trkpt lat="42.4503450" lon="-2.4943530">
        <ele>427.8</ele>
        <time>2022-08-29T03:48:01Z</time>
      </trkpt>
      <trkpt lat="42.4503120" lon="-2.4943800">
        <ele>428.0</ele>
        <time>2022-08-29T03:48:02Z</time>
      </trkpt>
      <trkpt lat="42.4502790" lon="-2.4944070">
        <ele>428.0</ele>
        <time>2022-08-29T03:48:03Z</time>
      </trkpt>
      <trkpt lat="42.4502490" lon="-2.4944370">
        <ele>428.0</ele>
        <time>2022-08-29T03:48:04Z</time>
      </trkpt>
      <trkpt lat="42.4502190" lon="-2.4944640">
        <ele>428.6</ele>
        <time>2022-08-29T03:48:05Z</time>
      </trkpt>
      <trkpt lat="42.4501900" lon="-2.4944920">
        <ele>428.6</ele>
        <time>2022-08-29T03:48:06Z</time>
      </trkpt>
      <trkpt lat="42.4501630" lon="-2.4945220">
        <ele>429.0</ele>
        <time>2022-08-29T03:48:07Z</time>
      </trkpt>
      <trkpt lat="42.4501360" lon="-2.4945530">
        <ele>429.4</ele>
        <time>2022-08-29T03:48:08Z</time>
      </trkpt>
      <trkpt lat="42.4501120" lon="-2.4945870">
        <ele>429.4</ele>
        <time>2022-08-29T03:48:09Z</time>
      </trkpt>
      <trkpt lat="42.4500880" lon="-2.4946220">
        <ele>429.6</ele>
        <time>2022-08-29T03:48:10Z</time>
      </trkpt>
      <trkpt lat="42.4500640" lon="-2.4946570">
        <ele>429.8</ele>
        <time>2022-08-29T03:48:11Z</time>
      </trkpt>
      <trkpt lat="42.4500440" lon="-2.4946930">
        <ele>429.8</ele>
        <time>2022-08-29T03:48:12Z</time>
      </trkpt>
      <trkpt lat="42.4500270" lon="-2.4947310">
        <ele>430.2</ele>
        <time>2022-08-29T03:48:13Z</time>
      </trkpt>
      <trkpt lat="42.4500100" lon="-2.4947720">
        <ele>430.2</ele>
        <time>2022-08-29T03:48:14Z</time>
      </trkpt>
      <trkpt lat="42.4499920" lon="-2.4948100">
        <ele>430.2</ele>
        <time>2022-08-29T03:48:15Z</time>
      </trkpt>
      <trkpt lat="42.4499760" lon="-2.4948500">
        <ele>430.4</ele>
        <time>2022-08-29T03:48:16Z</time>
      </trkpt>
      <trkpt lat="42.4499600" lon="-2.4948900">
        <ele>430.6</ele>
        <time>2022-08-29T03:48:17Z</time>
      </trkpt>
      <trkpt lat="42.4499460" lon="-2.4949340">
        <ele>430.6</ele>
        <time>2022-08-29T03:48:18Z</time>
      </trkpt>
      <trkpt lat="42.4499340" lon="-2.4949790">
        <ele>430.6</ele>
        <time>2022-08-29T03:48:19Z</time>
      </trkpt>
      <trkpt lat="42.4499240" lon="-2.4950260">
        <ele>431.0</ele>
        <time>2022-08-29T03:48:20Z</time>
      </trkpt>
      <trkpt lat="42.4499160" lon="-2.4950720">
        <ele>431.0</ele>
        <time>2022-08-29T03:48:21Z</time>
      </trkpt>
      <trkpt lat="42.4499090" lon="-2.4951170">
        <ele>431.2</ele>
        <time>2022-08-29T03:48:22Z</time>
      </trkpt>
      <trkpt lat="42.4499020" lon="-2.4951630">
        <ele>431.4</ele>
        <time>2022-08-29T03:48:23Z</time>
      </trkpt>
      <trkpt lat="42.4498970" lon="-2.4952090">
        <ele>431.4</ele>
        <time>2022-08-29T03:48:24Z</time>
      </trkpt>
      <trkpt lat="42.4498930" lon="-2.4952550">
        <ele>431.4</ele>
        <time>2022-08-29T03:48:25Z</time>
      </trkpt>
      <trkpt lat="42.4498900" lon="-2.4952980">
        <ele>431.6</ele>
        <time>2022-08-29T03:48:26Z</time>
      </trkpt>
      <trkpt lat="42.4498880" lon="-2.4953430">
        <ele>431.6</ele>
        <time>2022-08-29T03:48:27Z</time>
      </trkpt>
      <trkpt lat="42.4498880" lon="-2.4953880">
        <ele>431.8</ele>
        <time>2022-08-29T03:48:28Z</time>
      </trkpt>
      <trkpt lat="42.4498880" lon="-2.4954360">
        <ele>432.0</ele>
        <time>2022-08-29T03:48:29Z</time>
      </trkpt>
      <trkpt lat="42.4498910" lon="-2.4954810">
        <ele>432.0</ele>
        <time>2022-08-29T03:48:30Z</time>
      </trkpt>
      <trkpt lat="42.4498940" lon="-2.4955260">
        <ele>432.0</ele>
        <time>2022-08-29T03:48:31Z</time>
      </trkpt>
      <trkpt lat="42.4498980" lon="-2.4955730">
        <ele>432.2</ele>
        <time>2022-08-29T03:48:32Z</time>
      </trkpt>
      <trkpt lat="42.4499020" lon="-2.4956190">
        <ele>432.4</ele>
        <time>2022-08-29T03:48:33Z</time>
      </trkpt>
      <trkpt lat="42.4499040" lon="-2.4956660">
        <ele>432.2</ele>
        <time>2022-08-29T03:48:34Z</time>
      </trkpt>
      <trkpt lat="42.4499060" lon="-2.4957110">
        <ele>432.6</ele>
        <time>2022-08-29T03:48:35Z</time>
      </trkpt>
      <trkpt lat="42.4499080" lon="-2.4957570">
        <ele>432.4</ele>
        <time>2022-08-29T03:48:36Z</time>
      </trkpt>
      <trkpt lat="42.4499090" lon="-2.4958030">
        <ele>432.6</ele>
        <time>2022-08-29T03:48:37Z</time>
      </trkpt>
      <trkpt lat="42.4499110" lon="-2.4958460">
        <ele>432.8</ele>
        <time>2022-08-29T03:48:38Z</time>
      </trkpt>
      <trkpt lat="42.4499140" lon="-2.4958880">
        <ele>433.0</ele>
        <time>2022-08-29T03:48:39Z</time>
      </trkpt>
      <trkpt lat="42.4499170" lon="-2.4959290">
        <ele>433.2</ele>
        <time>2022-08-29T03:48:40Z</time>
      </trkpt>
      <trkpt lat="42.4499200" lon="-2.4959720">
        <ele>433.2</ele>
        <time>2022-08-29T03:48:41Z</time>
      </trkpt>
      <trkpt lat="42.4499230" lon="-2.4960160">
        <ele>433.4</ele>
        <time>2022-08-29T03:48:42Z</time>
      </trkpt>
      <trkpt lat="42.4499240" lon="-2.4960590">
        <ele>433.6</ele>
        <time>2022-08-29T03:48:43Z</time>
      </trkpt>
      <trkpt lat="42.4499230" lon="-2.4961040">
        <ele>433.8</ele>
        <time>2022-08-29T03:48:44Z</time>
      </trkpt>
      <trkpt lat="42.4499230" lon="-2.4961480">
        <ele>433.8</ele>
        <time>2022-08-29T03:48:45Z</time>
      </trkpt>
      <trkpt lat="42.4499230" lon="-2.4961910">
        <ele>434.0</ele>
        <time>2022-08-29T03:48:46Z</time>
      </trkpt>
      <trkpt lat="42.4499230" lon="-2.4962330">
        <ele>434.2</ele>
        <time>2022-08-29T03:48:47Z</time>
      </trkpt>
      <trkpt lat="42.4499210" lon="-2.4962760">
        <ele>434.4</ele>
        <time>2022-08-29T03:48:48Z</time>
      </trkpt>
      <trkpt lat="42.4499180" lon="-2.4963180">
        <ele>434.6</ele>
        <time>2022-08-29T03:48:49Z</time>
      </trkpt>
      <trkpt lat="42.4499130" lon="-2.4963600">
        <ele>434.6</ele>
        <time>2022-08-29T03:48:50Z</time>
      </trkpt>
      <trkpt lat="42.4499070" lon="-2.4964020">
        <ele>434.8</ele>
        <time>2022-08-29T03:48:51Z</time>
      </trkpt>
      <trkpt lat="42.4499010" lon="-2.4964440">
        <ele>434.8</ele>
        <time>2022-08-29T03:48:52Z</time>
      </trkpt>
      <trkpt lat="42.4498950" lon="-2.4964850">
        <ele>435.0</ele>
        <time>2022-08-29T03:48:53Z</time>
      </trkpt>
      <trkpt lat="42.4498890" lon="-2.4965250">
        <ele>435.0</ele>
        <time>2022-08-29T03:48:54Z</time>
      </trkpt>
      <trkpt lat="42.4498850" lon="-2.4965660">
        <ele>435.2</ele>
        <time>2022-08-29T03:48:55Z</time>
      </trkpt>
      <trkpt lat="42.4498810" lon="-2.4966060">
        <ele>435.4</ele>
        <time>2022-08-29T03:48:56Z</time>
      </trkpt>
      <trkpt lat="42.4498760" lon="-2.4966460">
        <ele>435.4</ele>
        <time>2022-08-29T03:48:57Z</time>
      </trkpt>
      <trkpt lat="42.4498740" lon="-2.4966870">
        <ele>435.6</ele>
        <time>2022-08-29T03:48:58Z</time>
      </trkpt>
      <trkpt lat="42.4498730" lon="-2.4967280">
        <ele>435.6</ele>
        <time>2022-08-29T03:48:59Z</time>
      </trkpt>
      <trkpt lat="42.4498720" lon="-2.4967700">
        <ele>435.8</ele>
        <time>2022-08-29T03:49:00Z</time>
      </trkpt>
      <trkpt lat="42.4498710" lon="-2.4968130">
        <ele>436.0</ele>
        <time>2022-08-29T03:49:01Z</time>
      </trkpt>
      <trkpt lat="42.4498710" lon="-2.4968560">
        <ele>436.0</ele>
        <time>2022-08-29T03:49:02Z</time>
      </trkpt>
      <trkpt lat="42.4498710" lon="-2.4968990">
        <ele>436.0</ele>
        <time>2022-08-29T03:49:03Z</time>
      </trkpt>
      <trkpt lat="42.4498730" lon="-2.4969420">
        <ele>436.2</ele>
        <time>2022-08-29T03:49:04Z</time>
      </trkpt>
      <trkpt lat="42.4498760" lon="-2.4969830">
        <ele>436.2</ele>
        <time>2022-08-29T03:49:05Z</time>
      </trkpt>
      <trkpt lat="42.4498760" lon="-2.4970240">
        <ele>436.6</ele>
        <time>2022-08-29T03:49:06Z</time>
      </trkpt>
      <trkpt lat="42.4498750" lon="-2.4970650">
        <ele>436.8</ele>
        <time>2022-08-29T03:49:07Z</time>
      </trkpt>
      <trkpt lat="42.4498730" lon="-2.4971070">
        <ele>436.8</ele>
        <time>2022-08-29T03:49:08Z</time>
      </trkpt>
      <trkpt lat="42.4498700" lon="-2.4971480">
        <ele>437.0</ele>
        <time>2022-08-29T03:49:09Z</time>
      </trkpt>
      <trkpt lat="42.4498680" lon="-2.4971870">
        <ele>437.0</ele>
        <time>2022-08-29T03:49:10Z</time>
      </trkpt>
      <trkpt lat="42.4498650" lon="-2.4972260">
        <ele>437.0</ele>
        <time>2022-08-29T03:49:11Z</time>
      </trkpt>
      <trkpt lat="42.4498610" lon="-2.4972650">
        <ele>437.2</ele>
        <time>2022-08-29T03:49:12Z</time>
      </trkpt>
      <trkpt lat="42.4498570" lon="-2.4973040">
        <ele>437.2</ele>
        <time>2022-08-29T03:49:13Z</time>
      </trkpt>
      <trkpt lat="42.4498540" lon="-2.4973430">
        <ele>437.2</ele>
        <time>2022-08-29T03:49:14Z</time>
      </trkpt>
      <trkpt lat="42.4498500" lon="-2.4973830">
        <ele>437.4</ele>
        <time>2022-08-29T03:49:15Z</time>
      </trkpt>
      <trkpt lat="42.4498450" lon="-2.4974230">
        <ele>437.4</ele>
        <time>2022-08-29T03:49:16Z</time>
      </trkpt>
      <trkpt lat="42.4498380" lon="-2.4974620">
        <ele>437.6</ele>
        <time>2022-08-29T03:49:17Z</time>
      </trkpt>
      <trkpt lat="42.4498300" lon="-2.4974990">
        <ele>437.8</ele>
        <time>2022-08-29T03:49:18Z</time>
      </trkpt>
      <trkpt lat="42.4498230" lon="-2.4975340">
        <ele>437.8</ele>
        <time>2022-08-29T03:49:19Z</time>
      </trkpt>
      <trkpt lat="42.4498160" lon="-2.4975690">
        <ele>438.0</ele>
        <time>2022-08-29T03:49:20Z</time>
      </trkpt>
      <trkpt lat="42.4498090" lon="-2.4976060">
        <ele>438.2</ele>
        <time>2022-08-29T03:49:21Z</time>
      </trkpt>
      <trkpt lat="42.4498000" lon="-2.4976380">
        <ele>438.4</ele>
        <time>2022-08-29T03:49:22Z</time>
      </trkpt>
      <trkpt lat="42.4497880" lon="-2.4976690">
        <ele>438.6</ele>
        <time>2022-08-29T03:49:23Z</time>
      </trkpt>
      <trkpt lat="42.4497750" lon="-2.4976970">
        <ele>438.6</ele>
        <time>2022-08-29T03:49:24Z</time>
      </trkpt>
      <trkpt lat="42.4497590" lon="-2.4977180">
        <ele>439.0</ele>
        <time>2022-08-29T03:49:25Z</time>
      </trkpt>
      <trkpt lat="42.4497450" lon="-2.4977390">
        <ele>439.0</ele>
        <time>2022-08-29T03:49:26Z</time>
      </trkpt>
      <trkpt lat="42.4497350" lon="-2.4977630">
        <ele>439.2</ele>
        <time>2022-08-29T03:49:27Z</time>
      </trkpt>
      <trkpt lat="42.4497270" lon="-2.4977880">
        <ele>439.4</ele>
        <time>2022-08-29T03:49:28Z</time>
      </trkpt>
      <trkpt lat="42.4497170" lon="-2.4978130">
        <ele>439.6</ele>
        <time>2022-08-29T03:49:29Z</time>
      </trkpt>
      <trkpt lat="42.4497030" lon="-2.4978360">
        <ele>439.6</ele>
        <time>2022-08-29T03:49:30Z</time>
      </trkpt>
      <trkpt lat="42.4496890" lon="-2.4978570">
        <ele>439.8</ele>
        <time>2022-08-29T03:49:31Z</time>
      </trkpt>
      <trkpt lat="42.4496750" lon="-2.4978740">
        <ele>440.0</ele>
        <time>2022-08-29T03:49:32Z</time>
      </trkpt>
      <trkpt lat="42.4496580" lon="-2.4978910">
        <ele>440.0</ele>
        <time>2022-08-29T03:49:33Z</time>
      </trkpt>
      <trkpt lat="42.4496390" lon="-2.4979070">
        <ele>440.2</ele>
        <time>2022-08-29T03:49:34Z</time>
      </trkpt>
      <trkpt lat="42.4496170" lon="-2.4979250">
        <ele>440.4</ele>
        <time>2022-08-29T03:49:35Z</time>
      </trkpt>
      <trkpt lat="42.4495930" lon="-2.4979440">
        <ele>440.6</ele>
        <time>2022-08-29T03:49:36Z</time>
      </trkpt>
      <trkpt lat="42.4495690" lon="-2.4979640">
        <ele>440.6</ele>
        <time>2022-08-29T03:49:37Z</time>
      </trkpt>
      <trkpt lat="42.4495430" lon="-2.4979840">
        <ele>441.0</ele>
        <time>2022-08-29T03:49:38Z</time>
      </trkpt>
      <trkpt lat="42.4495160" lon="-2.4980060">
        <ele>441.0</ele>
        <time>2022-08-29T03:49:39Z</time>
      </trkpt>
      <trkpt lat="42.4494890" lon="-2.4980270">
        <ele>441.2</ele>
        <time>2022-08-29T03:49:40Z</time>
      </trkpt>
      <trkpt lat="42.4494590" lon="-2.4980490">
        <ele>441.4</ele>
        <time>2022-08-29T03:49:41Z</time>
      </trkpt>
      <trkpt lat="42.4494300" lon="-2.4980730">
        <ele>441.6</ele>
        <time>2022-08-29T03:49:42Z</time>
      </trkpt>
      <trkpt lat="42.4494020" lon="-2.4980970">
        <ele>441.6</ele>
        <time>2022-08-29T03:49:43Z</time>
      </trkpt>
      <trkpt lat="42.4493730" lon="-2.4981190">
        <ele>441.8</ele>
        <time>2022-08-29T03:49:44Z</time>
      </trkpt>
      <trkpt lat="42.4493430" lon="-2.4981430">
        <ele>441.8</ele>
        <time>2022-08-29T03:49:45Z</time>
      </trkpt>
      <trkpt lat="42.4493120" lon="-2.4981680">
        <ele>441.8</ele>
        <time>2022-08-29T03:49:46Z</time>
      </trkpt>
      <trkpt lat="42.4492790" lon="-2.4981920">
        <ele>441.8</ele>
        <time>2022-08-29T03:49:47Z</time>
      </trkpt>
      <trkpt lat="42.4492440" lon="-2.4982100">
        <ele>442.0</ele>
        <time>2022-08-29T03:49:48Z</time>
      </trkpt>
      <trkpt lat="42.4492080" lon="-2.4982240">
        <ele>441.8</ele>
        <time>2022-08-29T03:49:49Z</time>
      </trkpt>
      <trkpt lat="42.4491670" lon="-2.4982340">
        <ele>442.0</ele>
        <time>2022-08-29T03:49:50Z</time>
      </trkpt>
      <trkpt lat="42.4491230" lon="-2.4982380">
        <ele>442.0</ele>
        <time>2022-08-29T03:49:51Z</time>
      </trkpt>
      <trkpt lat="42.4490740" lon="-2.4982380">
        <ele>442.0</ele>
        <time>2022-08-29T03:49:52Z</time>
      </trkpt>
      <trkpt lat="42.4490200" lon="-2.4982340">
        <ele>441.8</ele>
        <time>2022-08-29T03:49:53Z</time>
      </trkpt>
      <trkpt lat="42.4489610" lon="-2.4982280">
        <ele>442.0</ele>
        <time>2022-08-29T03:49:54Z</time>
      </trkpt>
      <trkpt lat="42.4488980" lon="-2.4982260">
        <ele>442.0</ele>
        <time>2022-08-29T03:49:55Z</time>
      </trkpt>
      <trkpt lat="42.4488360" lon="-2.4982390">
        <ele>441.8</ele>
        <time>2022-08-29T03:49:56Z</time>
      </trkpt>
      <trkpt lat="42.4487830" lon="-2.4982780">
        <ele>441.8</ele>
        <time>2022-08-29T03:49:57Z</time>
      </trkpt>
      <trkpt lat="42.4487500" lon="-2.4983320">
        <ele>441.8</ele>
        <time>2022-08-29T03:49:58Z</time>
      </trkpt>
      <trkpt lat="42.4487390" lon="-2.4983990">
        <ele>442.0</ele>
        <time>2022-08-29T03:49:59Z</time>
      </trkpt>
      <trkpt lat="42.4487320" lon="-2.4984760">
        <ele>441.8</ele>
        <time>2022-08-29T03:50:00Z</time>
      </trkpt>
      <trkpt lat="42.4487180" lon="-2.4985510">
        <ele>441.6</ele>
        <time>2022-08-29T03:50:01Z</time>
      </trkpt>
      <trkpt lat="42.4486980" lon="-2.4986290">
        <ele>441.0</ele>
        <time>2022-08-29T03:50:02Z</time>
      </trkpt>
      <trkpt lat="42.4486720" lon="-2.4987060">
        <ele>440.2</ele>
        <time>2022-08-29T03:50:03Z</time>
      </trkpt>
      <trkpt lat="42.4486410" lon="-2.4987790">
        <ele>440.2</ele>
        <time>2022-08-29T03:50:04Z</time>
      </trkpt>
      <trkpt lat="42.4486010" lon="-2.4988510">
        <ele>439.8</ele>
        <time>2022-08-29T03:50:05Z</time>
      </trkpt>
      <trkpt lat="42.4485570" lon="-2.4989140">
        <ele>439.4</ele>
        <time>2022-08-29T03:50:06Z</time>
      </trkpt>
      <trkpt lat="42.4485090" lon="-2.4989710">
        <ele>439.2</ele>
        <time>2022-08-29T03:50:07Z</time>
      </trkpt>
      <trkpt lat="42.4484570" lon="-2.4990210">
        <ele>439.0</ele>
        <time>2022-08-29T03:50:08Z</time>
      </trkpt>
      <trkpt lat="42.4484050" lon="-2.4990680">
        <ele>439.0</ele>
        <time>2022-08-29T03:50:09Z</time>
      </trkpt>
      <trkpt lat="42.4483540" lon="-2.4991140">
        <ele>438.8</ele>
        <time>2022-08-29T03:50:10Z</time>
      </trkpt>
      <trkpt lat="42.4483090" lon="-2.4991620">
        <ele>438.8</ele>
        <time>2022-08-29T03:50:11Z</time>
      </trkpt>
      <trkpt lat="42.4482710" lon="-2.4992220">
        <ele>438.6</ele>
        <time>2022-08-29T03:50:12Z</time>
      </trkpt>
      <trkpt lat="42.4482420" lon="-2.4992900">
        <ele>438.2</ele>
        <time>2022-08-29T03:50:13Z</time>
      </trkpt>
      <trkpt lat="42.4482160" lon="-2.4993620">
        <ele>438.0</ele>
        <time>2022-08-29T03:50:14Z</time>
      </trkpt>
      <trkpt lat="42.4481930" lon="-2.4994430">
        <ele>438.0</ele>
        <time>2022-08-29T03:50:15Z</time>
      </trkpt>
      <trkpt lat="42.4481690" lon="-2.4995260">
        <ele>437.8</ele>
        <time>2022-08-29T03:50:16Z</time>
      </trkpt>
      <trkpt lat="42.4481400" lon="-2.4996070">
        <ele>437.8</ele>
        <time>2022-08-29T03:50:17Z</time>
      </trkpt>
      <trkpt lat="42.4481060" lon="-2.4996870">
        <ele>437.8</ele>
        <time>2022-08-29T03:50:18Z</time>
      </trkpt>
      <trkpt lat="42.4480580" lon="-2.4997570">
        <ele>437.6</ele>
        <time>2022-08-29T03:50:19Z</time>
      </trkpt>
      <trkpt lat="42.4480040" lon="-2.4998160">
        <ele>437.6</ele>
        <time>2022-08-29T03:50:20Z</time>
      </trkpt>
      <trkpt lat="42.4479450" lon="-2.4998620">
        <ele>437.4</ele>
        <time>2022-08-29T03:50:21Z</time>
      </trkpt>
      <trkpt lat="42.4478930" lon="-2.4998940">
        <ele>437.0</ele>
        <time>2022-08-29T03:50:22Z</time>
      </trkpt>
      <trkpt lat="42.4478420" lon="-2.4999110">
        <ele>436.6</ele>
        <time>2022-08-29T03:50:23Z</time>
      </trkpt>
      <trkpt lat="42.4477980" lon="-2.4999150">
        <ele>436.4</ele>
        <time>2022-08-29T03:50:24Z</time>
      </trkpt>
      <trkpt lat="42.4477570" lon="-2.4999060">
        <ele>436.6</ele>
        <time>2022-08-29T03:50:25Z</time>
      </trkpt>
      <trkpt lat="42.4477230" lon="-2.4998970">
        <ele>436.4</ele>
        <time>2022-08-29T03:50:26Z</time>
      </trkpt>
      <trkpt lat="42.4476920" lon="-2.4998940">
        <ele>436.4</ele>
        <time>2022-08-29T03:50:27Z</time>
      </trkpt>
      <trkpt lat="42.4476660" lon="-2.4998990">
        <ele>436.4</ele>
        <time>2022-08-29T03:50:28Z</time>
      </trkpt>
      <trkpt lat="42.4476410" lon="-2.4999100">
        <ele>436.4</ele>
        <time>2022-08-29T03:50:29Z</time>
      </trkpt>
      <trkpt lat="42.4476190" lon="-2.4999260">
        <ele>436.4</ele>
        <time>2022-08-29T03:50:30Z</time>
      </trkpt>
      <trkpt lat="42.4475990" lon="-2.4999440">
        <ele>436.4</ele>
        <time>2022-08-29T03:50:31Z</time>
      </trkpt>
      <trkpt lat="42.4475840" lon="-2.4999630">
        <ele>436.4</ele>
        <time>2022-08-29T03:50:32Z</time>
      </trkpt>
      <trkpt lat="42.4475690" lon="-2.4999880">
        <ele>436.6</ele>
        <time>2022-08-29T03:50:33Z</time>
      </trkpt>
      <trkpt lat="42.4475560" lon="-2.5000160">
        <ele>436.8</ele>
        <time>2022-08-29T03:50:34Z</time>
      </trkpt>
      <trkpt lat="42.4475420" lon="-2.5000440">
        <ele>437.4</ele>
        <time>2022-08-29T03:50:35Z</time>
      </trkpt>
      <trkpt lat="42.4475280" lon="-2.5000710">
        <ele>437.8</ele>
        <time>2022-08-29T03:50:36Z</time>
      </trkpt>
      <trkpt lat="42.4475130" lon="-2.5000970">
        <ele>438.2</ele>
        <time>2022-08-29T03:50:37Z</time>
      </trkpt>
      <trkpt lat="42.4474980" lon="-2.5001250">
        <ele>438.6</ele>
        <time>2022-08-29T03:50:38Z</time>
      </trkpt>
      <trkpt lat="42.4474850" lon="-2.5001530">
        <ele>439.2</ele>
        <time>2022-08-29T03:50:39Z</time>
      </trkpt>
      <trkpt lat="42.4474710" lon="-2.5001780">
        <ele>439.4</ele>
        <time>2022-08-29T03:50:40Z</time>
      </trkpt>
      <trkpt lat="42.4474570" lon="-2.5002010">
        <ele>439.8</ele>
        <time>2022-08-29T03:50:41Z</time>
      </trkpt>
      <trkpt lat="42.4474440" lon="-2.5002250">
        <ele>439.8</ele>
        <time>2022-08-29T03:50:42Z</time>
      </trkpt>
      <trkpt lat="42.4474300" lon="-2.5002470">
        <ele>440.2</ele>
        <time>2022-08-29T03:50:43Z</time>
      </trkpt>
      <trkpt lat="42.4474130" lon="-2.5002680">
        <ele>440.2</ele>
        <time>2022-08-29T03:50:44Z</time>
      </trkpt>
      <trkpt lat="42.4473960" lon="-2.5002900">
        <ele>440.6</ele>
        <time>2022-08-29T03:50:45Z</time>
      </trkpt>
      <trkpt lat="42.4473740" lon="-2.5003110">
        <ele>440.6</ele>
        <time>2022-08-29T03:50:46Z</time>
      </trkpt>
      <trkpt lat="42.4473510" lon="-2.5003310">
        <ele>440.8</ele>
        <time>2022-08-29T03:50:47Z</time>
      </trkpt>
      <trkpt lat="42.4473290" lon="-2.5003490">
        <ele>441.2</ele>
        <time>2022-08-29T03:50:48Z</time>
      </trkpt>
      <trkpt lat="42.4473060" lon="-2.5003650">
        <ele>441.6</ele>
        <time>2022-08-29T03:50:49Z</time>
      </trkpt>
      <trkpt lat="42.4472840" lon="-2.5003820">
        <ele>441.8</ele>
        <time>2022-08-29T03:50:50Z</time>
      </trkpt>
      <trkpt lat="42.4472670" lon="-2.5004010">
        <ele>442.0</ele>
        <time>2022-08-29T03:50:51Z</time>
      </trkpt>
      <trkpt lat="42.4472530" lon="-2.5004200">
        <ele>442.4</ele>
        <time>2022-08-29T03:50:52Z</time>
      </trkpt>
      <trkpt lat="42.4472390" lon="-2.5004380">
        <ele>442.6</ele>
        <time>2022-08-29T03:50:53Z</time>
      </trkpt>
      <trkpt lat="42.4472230" lon="-2.5004540">
        <ele>442.6</ele>
        <time>2022-08-29T03:50:54Z</time>
      </trkpt>
      <trkpt lat="42.4472060" lon="-2.5004700">
        <ele>442.6</ele>
        <time>2022-08-29T03:50:55Z</time>
      </trkpt>
      <trkpt lat="42.4471880" lon="-2.5004900">
        <ele>442.8</ele>
        <time>2022-08-29T03:50:56Z</time>
      </trkpt>
      <trkpt lat="42.4471720" lon="-2.5005120">
        <ele>443.0</ele>
        <time>2022-08-29T03:50:57Z</time>
      </trkpt>
      <trkpt lat="42.4471540" lon="-2.5005370">
        <ele>443.2</ele>
        <time>2022-08-29T03:50:58Z</time>
      </trkpt>
      <trkpt lat="42.4471420" lon="-2.5005700">
        <ele>443.2</ele>
        <time>2022-08-29T03:50:59Z</time>
      </trkpt>
      <trkpt lat="42.4471370" lon="-2.5006010">
        <ele>443.4</ele>
        <time>2022-08-29T03:51:00Z</time>
      </trkpt>
      <trkpt lat="42.4471370" lon="-2.5006300">
        <ele>443.2</ele>
        <time>2022-08-29T03:51:01Z</time>
      </trkpt>
      <trkpt lat="42.4471380" lon="-2.5006600">
        <ele>443.2</ele>
        <time>2022-08-29T03:51:02Z</time>
      </trkpt>
      <trkpt lat="42.4471470" lon="-2.5006930">
        <ele>443.4</ele>
        <time>2022-08-29T03:51:03Z</time>
      </trkpt>
      <trkpt lat="42.4471560" lon="-2.5007260">
        <ele>443.8</ele>
        <time>2022-08-29T03:51:04Z</time>
      </trkpt>
      <trkpt lat="42.4471650" lon="-2.5007590">
        <ele>443.8</ele>
        <time>2022-08-29T03:51:05Z</time>
      </trkpt>
      <trkpt lat="42.4471750" lon="-2.5007920">
        <ele>444.0</ele>
        <time>2022-08-29T03:51:06Z</time>
      </trkpt>
      <trkpt lat="42.4471880" lon="-2.5008280">
        <ele>444.0</ele>
        <time>2022-08-29T03:51:07Z</time>
      </trkpt>
      <trkpt lat="42.4472010" lon="-2.5008660">
        <ele>444.0</ele>
        <time>2022-08-29T03:51:08Z</time>
      </trkpt>
      <trkpt lat="42.4472150" lon="-2.5009070">
        <ele>444.2</ele>
        <time>2022-08-29T03:51:09Z</time>
      </trkpt>
      <trkpt lat="42.4472310" lon="-2.5009460">
        <ele>444.2</ele>
        <time>2022-08-29T03:51:10Z</time>
      </trkpt>
      <trkpt lat="42.4472480" lon="-2.5009840">
        <ele>444.2</ele>
        <time>2022-08-29T03:51:11Z</time>
      </trkpt>
      <trkpt lat="42.4472630" lon="-2.5010220">
        <ele>444.2</ele>
        <time>2022-08-29T03:51:12Z</time>
      </trkpt>
      <trkpt lat="42.4472790" lon="-2.5010590">
        <ele>444.4</ele>
        <time>2022-08-29T03:51:13Z</time>
      </trkpt>
      <trkpt lat="42.4472950" lon="-2.5010990">
        <ele>444.2</ele>
        <time>2022-08-29T03:51:14Z</time>
      </trkpt>
      <trkpt lat="42.4473090" lon="-2.5011390">
        <ele>444.2</ele>
        <time>2022-08-29T03:51:15Z</time>
      </trkpt>
      <trkpt lat="42.4473230" lon="-2.5011790">
        <ele>444.4</ele>
        <time>2022-08-29T03:51:16Z</time>
      </trkpt>
      <trkpt lat="42.4473400" lon="-2.5012220">
        <ele>444.2</ele>
        <time>2022-08-29T03:51:17Z</time>
      </trkpt>
      <trkpt lat="42.4473560" lon="-2.5012660">
        <ele>444.4</ele>
        <time>2022-08-29T03:51:18Z</time>
      </trkpt>
      <trkpt lat="42.4473730" lon="-2.5013120">
        <ele>444.4</ele>
        <time>2022-08-29T03:51:19Z</time>
      </trkpt>
      <trkpt lat="42.4473880" lon="-2.5013610">
        <ele>444.4</ele>
        <time>2022-08-29T03:51:20Z</time>
      </trkpt>
      <trkpt lat="42.4474040" lon="-2.5014080">
        <ele>444.4</ele>
        <time>2022-08-29T03:51:21Z</time>
      </trkpt>
      <trkpt lat="42.4474200" lon="-2.5014540">
        <ele>444.2</ele>
        <time>2022-08-29T03:51:22Z</time>
      </trkpt>
      <trkpt lat="42.4474380" lon="-2.5014980">
        <ele>444.2</ele>
        <time>2022-08-29T03:51:23Z</time>
      </trkpt>
      <trkpt lat="42.4474550" lon="-2.5015420">
        <ele>444.2</ele>
        <time>2022-08-29T03:51:24Z</time>
      </trkpt>
      <trkpt lat="42.4474710" lon="-2.5015870">
        <ele>444.2</ele>
        <time>2022-08-29T03:51:25Z</time>
      </trkpt>
      <trkpt lat="42.4474880" lon="-2.5016320">
        <ele>444.2</ele>
        <time>2022-08-29T03:51:26Z</time>
      </trkpt>
      <trkpt lat="42.4475050" lon="-2.5016780">
        <ele>444.2</ele>
        <time>2022-08-29T03:51:27Z</time>
      </trkpt>
      <trkpt lat="42.4475200" lon="-2.5017240">
        <ele>444.2</ele>
        <time>2022-08-29T03:51:28Z</time>
      </trkpt>
      <trkpt lat="42.4475360" lon="-2.5017700">
        <ele>444.2</ele>
        <time>2022-08-29T03:51:29Z</time>
      </trkpt>
      <trkpt lat="42.4475540" lon="-2.5018160">
        <ele>444.4</ele>
        <time>2022-08-29T03:51:30Z</time>
      </trkpt>
      <trkpt lat="42.4475750" lon="-2.5018630">
        <ele>444.2</ele>
        <time>2022-08-29T03:51:31Z</time>
      </trkpt>
      <trkpt lat="42.4475960" lon="-2.5019090">
        <ele>444.2</ele>
        <time>2022-08-29T03:51:32Z</time>
      </trkpt>
      <trkpt lat="42.4476140" lon="-2.5019580">
        <ele>444.2</ele>
        <time>2022-08-29T03:51:33Z</time>
      </trkpt>
      <trkpt lat="42.4476310" lon="-2.5020040">
        <ele>444.0</ele>
        <time>2022-08-29T03:51:34Z</time>
      </trkpt>
      <trkpt lat="42.4476470" lon="-2.5020500">
        <ele>444.2</ele>
        <time>2022-08-29T03:51:35Z</time>
      </trkpt>
      <trkpt lat="42.4476610" lon="-2.5020930">
        <ele>444.0</ele>
        <time>2022-08-29T03:51:36Z</time>
      </trkpt>
      <trkpt lat="42.4476750" lon="-2.5021350">
        <ele>444.2</ele>
        <time>2022-08-29T03:51:37Z</time>
      </trkpt>
      <trkpt lat="42.4476890" lon="-2.5021780">
        <ele>444.2</ele>
        <time>2022-08-29T03:51:38Z</time>
      </trkpt>
      <trkpt lat="42.4477040" lon="-2.5022240">
        <ele>444.2</ele>
        <time>2022-08-29T03:51:39Z</time>
      </trkpt>
      <trkpt lat="42.4477180" lon="-2.5022670">
        <ele>444.2</ele>
        <time>2022-08-29T03:51:40Z</time>
      </trkpt>
      <trkpt lat="42.4477320" lon="-2.5023110">
        <ele>444.0</ele>
        <time>2022-08-29T03:51:41Z</time>
      </trkpt>
      <trkpt lat="42.4477450" lon="-2.5023540">
        <ele>444.2</ele>
        <time>2022-08-29T03:51:42Z</time>
      </trkpt>
      <trkpt lat="42.4477580" lon="-2.5023970">
        <ele>444.0</ele>
        <time>2022-08-29T03:51:43Z</time>
      </trkpt>
      <trkpt lat="42.4477740" lon="-2.5024430">
        <ele>444.0</ele>
        <time>2022-08-29T03:51:44Z</time>
      </trkpt>
      <trkpt lat="42.4477910" lon="-2.5024870">
        <ele>444.0</ele>
        <time>2022-08-29T03:51:45Z</time>
      </trkpt>
      <trkpt lat="42.4478110" lon="-2.5025290">
        <ele>444.0</ele>
        <time>2022-08-29T03:51:46Z</time>
      </trkpt>
      <trkpt lat="42.4478320" lon="-2.5025710">
        <ele>444.0</ele>
        <time>2022-08-29T03:51:47Z</time>
      </trkpt>
      <trkpt lat="42.4478500" lon="-2.5026140">
        <ele>444.0</ele>
        <time>2022-08-29T03:51:48Z</time>
      </trkpt>
      <trkpt lat="42.4478670" lon="-2.5026580">
        <ele>444.0</ele>
        <time>2022-08-29T03:51:49Z</time>
      </trkpt>
      <trkpt lat="42.4478850" lon="-2.5027050">
        <ele>444.0</ele>
        <time>2022-08-29T03:51:50Z</time>
      </trkpt>
      <trkpt lat="42.4479000" lon="-2.5027510">
        <ele>444.0</ele>
        <time>2022-08-29T03:51:51Z</time>
      </trkpt>
      <trkpt lat="42.4479170" lon="-2.5027960">
        <ele>444.0</ele>
        <time>2022-08-29T03:51:52Z</time>
      </trkpt>
      <trkpt lat="42.4479370" lon="-2.5028410">
        <ele>444.0</ele>
        <time>2022-08-29T03:51:53Z</time>
      </trkpt>
      <trkpt lat="42.4479580" lon="-2.5028830">
        <ele>444.2</ele>
        <time>2022-08-29T03:51:54Z</time>
      </trkpt>
      <trkpt lat="42.4479740" lon="-2.5029320">
        <ele>444.2</ele>
        <time>2022-08-29T03:51:55Z</time>
      </trkpt>
      <trkpt lat="42.4479880" lon="-2.5029770">
        <ele>444.2</ele>
        <time>2022-08-29T03:51:56Z</time>
      </trkpt>
      <trkpt lat="42.4480020" lon="-2.5030240">
        <ele>444.2</ele>
        <time>2022-08-29T03:51:57Z</time>
      </trkpt>
      <trkpt lat="42.4480160" lon="-2.5030680">
        <ele>444.0</ele>
        <time>2022-08-29T03:51:58Z</time>
      </trkpt>
      <trkpt lat="42.4480330" lon="-2.5031100">
        <ele>444.0</ele>
        <time>2022-08-29T03:51:59Z</time>
      </trkpt>
      <trkpt lat="42.4480500" lon="-2.5031520">
        <ele>444.0</ele>
        <time>2022-08-29T03:52:00Z</time>
      </trkpt>
      <trkpt lat="42.4480660" lon="-2.5031970">
        <ele>444.2</ele>
        <time>2022-08-29T03:52:01Z</time>
      </trkpt>
      <trkpt lat="42.4480820" lon="-2.5032420">
        <ele>444.0</ele>
        <time>2022-08-29T03:52:02Z</time>
      </trkpt>
      <trkpt lat="42.4480990" lon="-2.5032890">
        <ele>444.0</ele>
        <time>2022-08-29T03:52:03Z</time>
      </trkpt>
      <trkpt lat="42.4481170" lon="-2.5033330">
        <ele>444.0</ele>
        <time>2022-08-29T03:52:04Z</time>
      </trkpt>
      <trkpt lat="42.4481310" lon="-2.5033780">
        <ele>444.0</ele>
        <time>2022-08-29T03:52:05Z</time>
      </trkpt>
      <trkpt lat="42.4481420" lon="-2.5034280">
        <ele>444.0</ele>
        <time>2022-08-29T03:52:06Z</time>
      </trkpt>
      <trkpt lat="42.4481530" lon="-2.5034810">
        <ele>444.0</ele>
        <time>2022-08-29T03:52:07Z</time>
      </trkpt>
      <trkpt lat="42.4481600" lon="-2.5035320">
        <ele>444.0</ele>
        <time>2022-08-29T03:52:08Z</time>
      </trkpt>
      <trkpt lat="42.4481650" lon="-2.5035810">
        <ele>444.0</ele>
        <time>2022-08-29T03:52:09Z</time>
      </trkpt>
      <trkpt lat="42.4481630" lon="-2.5036250">
        <ele>444.0</ele>
        <time>2022-08-29T03:52:10Z</time>
      </trkpt>
      <trkpt lat="42.4481570" lon="-2.5036640">
        <ele>444.0</ele>
        <time>2022-08-29T03:52:11Z</time>
      </trkpt>
      <trkpt lat="42.4481510" lon="-2.5037040">
        <ele>444.0</ele>
        <time>2022-08-29T03:52:12Z</time>
      </trkpt>
      <trkpt lat="42.4481420" lon="-2.5037420">
        <ele>444.2</ele>
        <time>2022-08-29T03:52:13Z</time>
      </trkpt>
      <trkpt lat="42.4481350" lon="-2.5037800">
        <ele>444.2</ele>
        <time>2022-08-29T03:52:14Z</time>
      </trkpt>
      <trkpt lat="42.4481280" lon="-2.5038170">
        <ele>444.2</ele>
        <time>2022-08-29T03:52:15Z</time>
      </trkpt>
      <trkpt lat="42.4481220" lon="-2.5038510">
        <ele>444.2</ele>
        <time>2022-08-29T03:52:16Z</time>
      </trkpt>
      <trkpt lat="42.4481170" lon="-2.5038850">
        <ele>444.0</ele>
        <time>2022-08-29T03:52:17Z</time>
      </trkpt>
      <trkpt lat="42.4481120" lon="-2.5039200">
        <ele>444.2</ele>
        <time>2022-08-29T03:52:18Z</time>
      </trkpt>
      <trkpt lat="42.4481100" lon="-2.5039500">
        <ele>444.2</ele>
        <time>2022-08-29T03:52:19Z</time>
      </trkpt>
      <trkpt lat="42.4481100" lon="-2.5039780">
        <ele>444.2</ele>
        <time>2022-08-29T03:52:20Z</time>
      </trkpt>
      <trkpt lat="42.4481100" lon="-2.5040040">
        <ele>444.6</ele>
        <time>2022-08-29T03:52:21Z</time>
      </trkpt>
      <trkpt lat="42.4481080" lon="-2.5040360">
        <ele>444.4</ele>
        <time>2022-08-29T03:52:22Z</time>
      </trkpt>
      <trkpt lat="42.4481050" lon="-2.5040670">
        <ele>444.6</ele>
        <time>2022-08-29T03:52:23Z</time>
      </trkpt>
      <trkpt lat="42.4481030" lon="-2.5040990">
        <ele>444.6</ele>
        <time>2022-08-29T03:52:24Z</time>
      </trkpt>
      <trkpt lat="42.4480970" lon="-2.5041300">
        <ele>444.6</ele>
        <time>2022-08-29T03:52:25Z</time>
      </trkpt>
      <trkpt lat="42.4480910" lon="-2.5041550">
        <ele>444.8</ele>
        <time>2022-08-29T03:52:26Z</time>
      </trkpt>
      <trkpt lat="42.4480860" lon="-2.5041730">
        <ele>444.8</ele>
        <time>2022-08-29T03:52:27Z</time>
      </trkpt>
      <trkpt lat="42.4480820" lon="-2.5041910">
        <ele>445.0</ele>
        <time>2022-08-29T03:52:28Z</time>
      </trkpt>
      <trkpt lat="42.4480760" lon="-2.5042090">
        <ele>445.2</ele>
        <time>2022-08-29T03:52:29Z</time>
      </trkpt>
      <trkpt lat="42.4480690" lon="-2.5042270">
        <ele>445.2</ele>
        <time>2022-08-29T03:52:30Z</time>
      </trkpt>
      <trkpt lat="42.4480630" lon="-2.5042440">
        <ele>445.2</ele>
        <time>2022-08-29T03:52:31Z</time>
      </trkpt>
      <trkpt lat="42.4480570" lon="-2.5042620">
        <ele>445.4</ele>
        <time>2022-08-29T03:52:32Z</time>
      </trkpt>
      <trkpt lat="42.4480520" lon="-2.5042800">
        <ele>445.6</ele>
        <time>2022-08-29T03:52:33Z</time>
      </trkpt>
      <trkpt lat="42.4480470" lon="-2.5043030">
        <ele>445.6</ele>
        <time>2022-08-29T03:52:34Z</time>
      </trkpt>
      <trkpt lat="42.4480380" lon="-2.5043260">
        <ele>446.0</ele>
        <time>2022-08-29T03:52:35Z</time>
      </trkpt>
      <trkpt lat="42.4480290" lon="-2.5043460">
        <ele>446.4</ele>
        <time>2022-08-29T03:52:36Z</time>
      </trkpt>
      <trkpt lat="42.4480220" lon="-2.5043720">
        <ele>446.4</ele>
        <time>2022-08-29T03:52:37Z</time>
      </trkpt>
      <trkpt lat="42.4480170" lon="-2.5043970">
        <ele>446.6</ele>
        <time>2022-08-29T03:52:38Z</time>
      </trkpt>
      <trkpt lat="42.4480110" lon="-2.5044200">
        <ele>446.6</ele>
        <time>2022-08-29T03:52:39Z</time>
      </trkpt>
      <trkpt lat="42.4480060" lon="-2.5044400">
        <ele>446.8</ele>
        <time>2022-08-29T03:52:40Z</time>
      </trkpt>
      <trkpt lat="42.4480000" lon="-2.5044600">
        <ele>447.0</ele>
        <time>2022-08-29T03:52:41Z</time>
      </trkpt>
      <trkpt lat="42.4479920" lon="-2.5044790">
        <ele>447.0</ele>
        <time>2022-08-29T03:52:42Z</time>
      </trkpt>
      <trkpt lat="42.4479880" lon="-2.5044950">
        <ele>447.4</ele>
        <time>2022-08-29T03:52:43Z</time>
      </trkpt>
      <trkpt lat="42.4479840" lon="-2.5045130">
        <ele>447.8</ele>
        <time>2022-08-29T03:52:44Z</time>
      </trkpt>
      <trkpt lat="42.4479800" lon="-2.5045310">
        <ele>447.8</ele>
        <time>2022-08-29T03:52:45Z</time>
      </trkpt>
      <trkpt lat="42.4479730" lon="-2.5045540">
        <ele>448.0</ele>
        <time>2022-08-29T03:52:46Z</time>
      </trkpt>
      <trkpt lat="42.4479670" lon="-2.5045780">
        <ele>448.0</ele>
        <time>2022-08-29T03:52:47Z</time>
      </trkpt>
      <trkpt lat="42.4479620" lon="-2.5046010">
        <ele>448.8</ele>
        <time>2022-08-29T03:52:48Z</time>
      </trkpt>
      <trkpt lat="42.4479570" lon="-2.5046260">
        <ele>449.4</ele>
        <time>2022-08-29T03:52:49Z</time>
      </trkpt>
      <trkpt lat="42.4479540" lon="-2.5046480">
        <ele>449.6</ele>
        <time>2022-08-29T03:52:50Z</time>
      </trkpt>
      <trkpt lat="42.4479450" lon="-2.5046660">
        <ele>449.8</ele>
        <time>2022-08-29T03:52:51Z</time>
      </trkpt>
      <trkpt lat="42.4479350" lon="-2.5046800">
        <ele>449.8</ele>
        <time>2022-08-29T03:52:52Z</time>
      </trkpt>
      <trkpt lat="42.4479220" lon="-2.5046900">
        <ele>449.8</ele>
        <time>2022-08-29T03:52:53Z</time>
      </trkpt>
      <trkpt lat="42.4479060" lon="-2.5047000">
        <ele>449.8</ele>
        <time>2022-08-29T03:52:54Z</time>
      </trkpt>
      <trkpt lat="42.4478860" lon="-2.5047080">
        <ele>449.8</ele>
        <time>2022-08-29T03:52:55Z</time>
      </trkpt>
      <trkpt lat="42.4478630" lon="-2.5047190">
        <ele>450.0</ele>
        <time>2022-08-29T03:52:56Z</time>
      </trkpt>
      <trkpt lat="42.4478370" lon="-2.5047310">
        <ele>450.0</ele>
        <time>2022-08-29T03:52:57Z</time>
      </trkpt>
      <trkpt lat="42.4478110" lon="-2.5047450">
        <ele>450.0</ele>
        <time>2022-08-29T03:52:58Z</time>
      </trkpt>
      <trkpt lat="42.4477860" lon="-2.5047580">
        <ele>450.0</ele>
        <time>2022-08-29T03:52:59Z</time>
      </trkpt>
      <trkpt lat="42.4477620" lon="-2.5047690">
        <ele>450.2</ele>
        <time>2022-08-29T03:53:00Z</time>
      </trkpt>
      <trkpt lat="42.4477320" lon="-2.5047790">
        <ele>450.2</ele>
        <time>2022-08-29T03:53:01Z</time>
      </trkpt>
      <trkpt lat="42.4477020" lon="-2.5047890">
        <ele>450.2</ele>
        <time>2022-08-29T03:53:02Z</time>
      </trkpt>
      <trkpt lat="42.4476720" lon="-2.5047980">
        <ele>450.2</ele>
        <time>2022-08-29T03:53:03Z</time>
      </trkpt>
      <trkpt lat="42.4476410" lon="-2.5048100">
        <ele>450.2</ele>
        <time>2022-08-29T03:53:04Z</time>
      </trkpt>
      <trkpt lat="42.4476100" lon="-2.5048220">
        <ele>450.2</ele>
        <time>2022-08-29T03:53:05Z</time>
      </trkpt>
      <trkpt lat="42.4475740" lon="-2.5048340">
        <ele>450.2</ele>
        <time>2022-08-29T03:53:06Z</time>
      </trkpt>
      <trkpt lat="42.4475400" lon="-2.5048440">
        <ele>450.2</ele>
        <time>2022-08-29T03:53:07Z</time>
      </trkpt>
      <trkpt lat="42.4475090" lon="-2.5048530">
        <ele>450.2</ele>
        <time>2022-08-29T03:53:08Z</time>
      </trkpt>
      <trkpt lat="42.4474760" lon="-2.5048670">
        <ele>450.2</ele>
        <time>2022-08-29T03:53:09Z</time>
      </trkpt>
      <trkpt lat="42.4474380" lon="-2.5048800">
        <ele>450.2</ele>
        <time>2022-08-29T03:53:10Z</time>
      </trkpt>
      <trkpt lat="42.4474040" lon="-2.5048920">
        <ele>450.2</ele>
        <time>2022-08-29T03:53:11Z</time>
      </trkpt>
      <trkpt lat="42.4473690" lon="-2.5049020">
        <ele>450.2</ele>
        <time>2022-08-29T03:53:12Z</time>
      </trkpt>
      <trkpt lat="42.4473350" lon="-2.5049130">
        <ele>450.2</ele>
        <time>2022-08-29T03:53:13Z</time>
      </trkpt>
      <trkpt lat="42.4473010" lon="-2.5049210">
        <ele>450.2</ele>
        <time>2022-08-29T03:53:14Z</time>
      </trkpt>
      <trkpt lat="42.4472690" lon="-2.5049290">
        <ele>450.2</ele>
        <time>2022-08-29T03:53:15Z</time>
      </trkpt>
      <trkpt lat="42.4472400" lon="-2.5049370">
        <ele>450.2</ele>
        <time>2022-08-29T03:53:16Z</time>
      </trkpt>
      <trkpt lat="42.4472090" lon="-2.5049480">
        <ele>450.2</ele>
        <time>2022-08-29T03:53:17Z</time>
      </trkpt>
      <trkpt lat="42.4471800" lon="-2.5049600">
        <ele>450.2</ele>
        <time>2022-08-29T03:53:18Z</time>
      </trkpt>
      <trkpt lat="42.4471530" lon="-2.5049700">
        <ele>450.2</ele>
        <time>2022-08-29T03:53:19Z</time>
      </trkpt>
      <trkpt lat="42.4471260" lon="-2.5049770">
        <ele>450.0</ele>
        <time>2022-08-29T03:53:20Z</time>
      </trkpt>
      <trkpt lat="42.4470950" lon="-2.5049820">
        <ele>450.0</ele>
        <time>2022-08-29T03:53:21Z</time>
      </trkpt>
      <trkpt lat="42.4470660" lon="-2.5049890">
        <ele>450.0</ele>
        <time>2022-08-29T03:53:22Z</time>
      </trkpt>
      <trkpt lat="42.4470390" lon="-2.5049990">
        <ele>450.0</ele>
        <time>2022-08-29T03:53:23Z</time>
      </trkpt>
      <trkpt lat="42.4470090" lon="-2.5050130">
        <ele>450.0</ele>
        <time>2022-08-29T03:53:24Z</time>
      </trkpt>
      <trkpt lat="42.4469780" lon="-2.5050290">
        <ele>450.0</ele>
        <time>2022-08-29T03:53:25Z</time>
      </trkpt>
      <trkpt lat="42.4469490" lon="-2.5050470">
        <ele>450.2</ele>
        <time>2022-08-29T03:53:26Z</time>
      </trkpt>
      <trkpt lat="42.4469210" lon="-2.5050690">
        <ele>450.2</ele>
        <time>2022-08-29T03:53:27Z</time>
      </trkpt>
      <trkpt lat="42.4468920" lon="-2.5050930">
        <ele>450.0</ele>
        <time>2022-08-29T03:53:28Z</time>
      </trkpt>
      <trkpt lat="42.4468700" lon="-2.5051140">
        <ele>450.0</ele>
        <time>2022-08-29T03:53:29Z</time>
      </trkpt>
      <trkpt lat="42.4468510" lon="-2.5051350">
        <ele>450.2</ele>
        <time>2022-08-29T03:53:30Z</time>
      </trkpt>
      <trkpt lat="42.4468340" lon="-2.5051570">
        <ele>450.0</ele>
        <time>2022-08-29T03:53:31Z</time>
      </trkpt>
      <trkpt lat="42.4468210" lon="-2.5051800">
        <ele>450.0</ele>
        <time>2022-08-29T03:53:32Z</time>
      </trkpt>
      <trkpt lat="42.4468090" lon="-2.5052010">
        <ele>450.0</ele>
        <time>2022-08-29T03:53:33Z</time>
      </trkpt>
      <trkpt lat="42.4467940" lon="-2.5052260">
        <ele>450.0</ele>
        <time>2022-08-29T03:53:34Z</time>
      </trkpt>
      <trkpt lat="42.4467770" lon="-2.5052590">
        <ele>450.0</ele>
        <time>2022-08-29T03:53:35Z</time>
      </trkpt>
      <trkpt lat="42.4467640" lon="-2.5052940">
        <ele>450.0</ele>
        <time>2022-08-29T03:53:36Z</time>
      </trkpt>
      <trkpt lat="42.4467460" lon="-2.5053380">
        <ele>450.0</ele>
        <time>2022-08-29T03:53:37Z</time>
      </trkpt>
      <trkpt lat="42.4467310" lon="-2.5053930">
        <ele>450.0</ele>
        <time>2022-08-29T03:53:38Z</time>
      </trkpt>
      <trkpt lat="42.4467220" lon="-2.5054530">
        <ele>450.0</ele>
        <time>2022-08-29T03:53:39Z</time>
      </trkpt>
      <trkpt lat="42.4467150" lon="-2.5055120">
        <ele>450.0</ele>
        <time>2022-08-29T03:53:40Z</time>
      </trkpt>
      <trkpt lat="42.4467070" lon="-2.5055840">
        <ele>450.0</ele>
        <time>2022-08-29T03:53:41Z</time>
      </trkpt>
      <trkpt lat="42.4467000" lon="-2.5056670">
        <ele>450.0</ele>
        <time>2022-08-29T03:53:42Z</time>
      </trkpt>
      <trkpt lat="42.4466930" lon="-2.5057530">
        <ele>449.8</ele>
        <time>2022-08-29T03:53:43Z</time>
      </trkpt>
      <trkpt lat="42.4466940" lon="-2.5058250">
        <ele>449.8</ele>
        <time>2022-08-29T03:53:44Z</time>
      </trkpt>
      <trkpt lat="42.4466960" lon="-2.5058920">
        <ele>449.6</ele>
        <time>2022-08-29T03:53:45Z</time>
      </trkpt>
      <trkpt lat="42.4466980" lon="-2.5059560">
        <ele>449.0</ele>
        <time>2022-08-29T03:53:46Z</time>
      </trkpt>
      <trkpt lat="42.4467020" lon="-2.5060240">
        <ele>448.4</ele>
        <time>2022-08-29T03:53:47Z</time>
      </trkpt>
      <trkpt lat="42.4467050" lon="-2.5060910">
        <ele>447.6</ele>
        <time>2022-08-29T03:53:48Z</time>
      </trkpt>
      <trkpt lat="42.4467080" lon="-2.5061580">
        <ele>446.8</ele>
        <time>2022-08-29T03:53:49Z</time>
      </trkpt>
      <trkpt lat="42.4467110" lon="-2.5062260">
        <ele>446.6</ele>
        <time>2022-08-29T03:53:50Z</time>
      </trkpt>
      <trkpt lat="42.4467120" lon="-2.5062990">
        <ele>446.4</ele>
        <time>2022-08-29T03:53:51Z</time>
      </trkpt>
      <trkpt lat="42.4467140" lon="-2.5063700">
        <ele>446.2</ele>
        <time>2022-08-29T03:53:52Z</time>
      </trkpt>
      <trkpt lat="42.4467140" lon="-2.5064360">
        <ele>446.2</ele>
        <time>2022-08-29T03:53:53Z</time>
      </trkpt>
      <trkpt lat="42.4467150" lon="-2.5065040">
        <ele>446.0</ele>
        <time>2022-08-29T03:53:54Z</time>
      </trkpt>
      <trkpt lat="42.4467180" lon="-2.5065720">
        <ele>446.0</ele>
        <time>2022-08-29T03:53:55Z</time>
      </trkpt>
      <trkpt lat="42.4467280" lon="-2.5066410">
        <ele>446.0</ele>
        <time>2022-08-29T03:53:56Z</time>
      </trkpt>
      <trkpt lat="42.4467430" lon="-2.5067050">
        <ele>446.0</ele>
        <time>2022-08-29T03:53:57Z</time>
      </trkpt>
      <trkpt lat="42.4467580" lon="-2.5067650">
        <ele>445.8</ele>
        <time>2022-08-29T03:53:58Z</time>
      </trkpt>
      <trkpt lat="42.4467760" lon="-2.5068240">
        <ele>445.8</ele>
        <time>2022-08-29T03:53:59Z</time>
      </trkpt>
      <trkpt lat="42.4467980" lon="-2.5068800">
        <ele>445.6</ele>
        <time>2022-08-29T03:54:00Z</time>
      </trkpt>
      <trkpt lat="42.4468160" lon="-2.5069330">
        <ele>445.6</ele>
        <time>2022-08-29T03:54:01Z</time>
      </trkpt>
      <trkpt lat="42.4468330" lon="-2.5069860">
        <ele>445.6</ele>
        <time>2022-08-29T03:54:02Z</time>
      </trkpt>
      <trkpt lat="42.4468520" lon="-2.5070400">
        <ele>445.6</ele>
        <time>2022-08-29T03:54:03Z</time>
      </trkpt>
      <trkpt lat="42.4468700" lon="-2.5070930">
        <ele>445.6</ele>
        <time>2022-08-29T03:54:04Z</time>
      </trkpt>
      <trkpt lat="42.4468860" lon="-2.5071450">
        <ele>445.8</ele>
        <time>2022-08-29T03:54:05Z</time>
      </trkpt>
      <trkpt lat="42.4469030" lon="-2.5071970">
        <ele>445.8</ele>
        <time>2022-08-29T03:54:06Z</time>
      </trkpt>
      <trkpt lat="42.4469210" lon="-2.5072480">
        <ele>445.6</ele>
        <time>2022-08-29T03:54:07Z</time>
      </trkpt>
      <trkpt lat="42.4469390" lon="-2.5073000">
        <ele>445.6</ele>
        <time>2022-08-29T03:54:08Z</time>
      </trkpt>
      <trkpt lat="42.4469590" lon="-2.5073510">
        <ele>445.6</ele>
        <time>2022-08-29T03:54:09Z</time>
      </trkpt>
      <trkpt lat="42.4469780" lon="-2.5074010">
        <ele>445.8</ele>
        <time>2022-08-29T03:54:10Z</time>
      </trkpt>
      <trkpt lat="42.4469960" lon="-2.5074500">
        <ele>445.8</ele>
        <time>2022-08-29T03:54:11Z</time>
      </trkpt>
      <trkpt lat="42.4470130" lon="-2.5074980">
        <ele>445.6</ele>
        <time>2022-08-29T03:54:12Z</time>
      </trkpt>
      <trkpt lat="42.4470260" lon="-2.5075490">
        <ele>445.8</ele>
        <time>2022-08-29T03:54:13Z</time>
      </trkpt>
      <trkpt lat="42.4470390" lon="-2.5076010">
        <ele>445.8</ele>
        <time>2022-08-29T03:54:14Z</time>
      </trkpt>
      <trkpt lat="42.4470510" lon="-2.5076510">
        <ele>445.8</ele>
        <time>2022-08-29T03:54:15Z</time>
      </trkpt>
      <trkpt lat="42.4470640" lon="-2.5077010">
        <ele>445.8</ele>
        <time>2022-08-29T03:54:16Z</time>
      </trkpt>
      <trkpt lat="42.4470750" lon="-2.5077490">
        <ele>445.8</ele>
        <time>2022-08-29T03:54:17Z</time>
      </trkpt>
      <trkpt lat="42.4470890" lon="-2.5077950">
        <ele>445.8</ele>
        <time>2022-08-29T03:54:18Z</time>
      </trkpt>
      <trkpt lat="42.4471000" lon="-2.5078430">
        <ele>446.0</ele>
        <time>2022-08-29T03:54:19Z</time>
      </trkpt>
      <trkpt lat="42.4471110" lon="-2.5078910">
        <ele>446.2</ele>
        <time>2022-08-29T03:54:20Z</time>
      </trkpt>
      <trkpt lat="42.4471200" lon="-2.5079390">
        <ele>446.4</ele>
        <time>2022-08-29T03:54:21Z</time>
      </trkpt>
      <trkpt lat="42.4471240" lon="-2.5079880">
        <ele>446.6</ele>
        <time>2022-08-29T03:54:22Z</time>
      </trkpt>
      <trkpt lat="42.4471230" lon="-2.5080340">
        <ele>446.8</ele>
        <time>2022-08-29T03:54:23Z</time>
      </trkpt>
      <trkpt lat="42.4471150" lon="-2.5080830">
        <ele>447.0</ele>
        <time>2022-08-29T03:54:24Z</time>
      </trkpt>
      <trkpt lat="42.4471070" lon="-2.5081320">
        <ele>447.0</ele>
        <time>2022-08-29T03:54:25Z</time>
      </trkpt>
      <trkpt lat="42.4470980" lon="-2.5081790">
        <ele>447.2</ele>
        <time>2022-08-29T03:54:26Z</time>
      </trkpt>
      <trkpt lat="42.4470880" lon="-2.5082260">
        <ele>447.4</ele>
        <time>2022-08-29T03:54:27Z</time>
      </trkpt>
      <trkpt lat="42.4470780" lon="-2.5082740">
        <ele>447.2</ele>
        <time>2022-08-29T03:54:28Z</time>
      </trkpt>
      <trkpt lat="42.4470690" lon="-2.5083230">
        <ele>447.4</ele>
        <time>2022-08-29T03:54:29Z</time>
      </trkpt>
      <trkpt lat="42.4470560" lon="-2.5083710">
        <ele>447.4</ele>
        <time>2022-08-29T03:54:30Z</time>
      </trkpt>
      <trkpt lat="42.4470430" lon="-2.5084190">
        <ele>447.6</ele>
        <time>2022-08-29T03:54:31Z</time>
      </trkpt>
      <trkpt lat="42.4470330" lon="-2.5084660">
        <ele>447.6</ele>
        <time>2022-08-29T03:54:32Z</time>
      </trkpt>
      <trkpt lat="42.4470200" lon="-2.5085110">
        <ele>447.6</ele>
        <time>2022-08-29T03:54:33Z</time>
      </trkpt>
      <trkpt lat="42.4470040" lon="-2.5085540">
        <ele>447.8</ele>
        <time>2022-08-29T03:54:34Z</time>
      </trkpt>
      <trkpt lat="42.4469850" lon="-2.5085950">
        <ele>447.4</ele>
        <time>2022-08-29T03:54:35Z</time>
      </trkpt>
      <trkpt lat="42.4469650" lon="-2.5086360">
        <ele>447.6</ele>
        <time>2022-08-29T03:54:36Z</time>
      </trkpt>
      <trkpt lat="42.4469440" lon="-2.5086760">
        <ele>447.8</ele>
        <time>2022-08-29T03:54:37Z</time>
      </trkpt>
      <trkpt lat="42.4469240" lon="-2.5087190">
        <ele>447.8</ele>
        <time>2022-08-29T03:54:38Z</time>
      </trkpt>
      <trkpt lat="42.4469040" lon="-2.5087620">
        <ele>447.8</ele>
        <time>2022-08-29T03:54:39Z</time>
      </trkpt>
      <trkpt lat="42.4468820" lon="-2.5088040">
        <ele>447.8</ele>
        <time>2022-08-29T03:54:40Z</time>
      </trkpt>
      <trkpt lat="42.4468610" lon="-2.5088480">
        <ele>447.8</ele>
        <time>2022-08-29T03:54:41Z</time>
      </trkpt>
      <trkpt lat="42.4468420" lon="-2.5088930">
        <ele>447.8</ele>
        <time>2022-08-29T03:54:42Z</time>
      </trkpt>
      <trkpt lat="42.4468200" lon="-2.5089390">
        <ele>447.8</ele>
        <time>2022-08-29T03:54:43Z</time>
      </trkpt>
      <trkpt lat="42.4467930" lon="-2.5089870">
        <ele>447.8</ele>
        <time>2022-08-29T03:54:44Z</time>
      </trkpt>
      <trkpt lat="42.4467660" lon="-2.5090340">
        <ele>447.8</ele>
        <time>2022-08-29T03:54:45Z</time>
      </trkpt>
      <trkpt lat="42.4467380" lon="-2.5090800">
        <ele>447.8</ele>
        <time>2022-08-29T03:54:46Z</time>
      </trkpt>
      <trkpt lat="42.4467090" lon="-2.5091280">
        <ele>448.0</ele>
        <time>2022-08-29T03:54:47Z</time>
      </trkpt>
      <trkpt lat="42.4466780" lon="-2.5091770">
        <ele>447.8</ele>
        <time>2022-08-29T03:54:48Z</time>
      </trkpt>
      <trkpt lat="42.4466480" lon="-2.5092310">
        <ele>447.8</ele>
        <time>2022-08-29T03:54:49Z</time>
      </trkpt>
      <trkpt lat="42.4466130" lon="-2.5092950">
        <ele>447.8</ele>
        <time>2022-08-29T03:54:50Z</time>
      </trkpt>
      <trkpt lat="42.4465830" lon="-2.5093550">
        <ele>447.8</ele>
        <time>2022-08-29T03:54:51Z</time>
      </trkpt>
      <trkpt lat="42.4465570" lon="-2.5094140">
        <ele>447.6</ele>
        <time>2022-08-29T03:54:52Z</time>
      </trkpt>
      <trkpt lat="42.4465340" lon="-2.5094680">
        <ele>447.6</ele>
        <time>2022-08-29T03:54:53Z</time>
      </trkpt>
      <trkpt lat="42.4465150" lon="-2.5095190">
        <ele>447.6</ele>
        <time>2022-08-29T03:54:54Z</time>
      </trkpt>
      <trkpt lat="42.4464960" lon="-2.5095700">
        <ele>447.6</ele>
        <time>2022-08-29T03:54:55Z</time>
      </trkpt>
      <trkpt lat="42.4464810" lon="-2.5096180">
        <ele>447.8</ele>
        <time>2022-08-29T03:54:56Z</time>
      </trkpt>
      <trkpt lat="42.4464670" lon="-2.5096640">
        <ele>447.6</ele>
        <time>2022-08-29T03:54:57Z</time>
      </trkpt>
      <trkpt lat="42.4464490" lon="-2.5097090">
        <ele>447.6</ele>
        <time>2022-08-29T03:54:58Z</time>
      </trkpt>
      <trkpt lat="42.4464310" lon="-2.5097510">
        <ele>447.8</ele>
        <time>2022-08-29T03:54:59Z</time>
      </trkpt>
      <trkpt lat="42.4464110" lon="-2.5097950">
        <ele>447.8</ele>
        <time>2022-08-29T03:55:00Z</time>
      </trkpt>
      <trkpt lat="42.4463940" lon="-2.5098390">
        <ele>447.6</ele>
        <time>2022-08-29T03:55:01Z</time>
      </trkpt>
      <trkpt lat="42.4463800" lon="-2.5098820">
        <ele>447.8</ele>
        <time>2022-08-29T03:55:02Z</time>
      </trkpt>
      <trkpt lat="42.4463640" lon="-2.5099210">
        <ele>447.8</ele>
        <time>2022-08-29T03:55:03Z</time>
      </trkpt>
      <trkpt lat="42.4463480" lon="-2.5099570">
        <ele>448.2</ele>
        <time>2022-08-29T03:55:04Z</time>
      </trkpt>
      <trkpt lat="42.4463350" lon="-2.5099940">
        <ele>448.2</ele>
        <time>2022-08-29T03:55:05Z</time>
      </trkpt>
      <trkpt lat="42.4463200" lon="-2.5100290">
        <ele>448.4</ele>
        <time>2022-08-29T03:55:06Z</time>
      </trkpt>
      <trkpt lat="42.4463040" lon="-2.5100590">
        <ele>448.4</ele>
        <time>2022-08-29T03:55:07Z</time>
      </trkpt>
      <trkpt lat="42.4462910" lon="-2.5100880">
        <ele>448.4</ele>
        <time>2022-08-29T03:55:08Z</time>
      </trkpt>
      <trkpt lat="42.4462770" lon="-2.5101180">
        <ele>448.6</ele>
        <time>2022-08-29T03:55:09Z</time>
      </trkpt>
      <trkpt lat="42.4462620" lon="-2.5101480">
        <ele>449.0</ele>
        <time>2022-08-29T03:55:10Z</time>
      </trkpt>
      <trkpt lat="42.4462460" lon="-2.5101820">
        <ele>449.0</ele>
        <time>2022-08-29T03:55:11Z</time>
      </trkpt>
      <trkpt lat="42.4462270" lon="-2.5102220">
        <ele>449.2</ele>
        <time>2022-08-29T03:55:12Z</time>
      </trkpt>
      <trkpt lat="42.4462090" lon="-2.5102620">
        <ele>449.4</ele>
        <time>2022-08-29T03:55:13Z</time>
      </trkpt>
      <trkpt lat="42.4461910" lon="-2.5103120">
        <ele>449.4</ele>
        <time>2022-08-29T03:55:14Z</time>
      </trkpt>
      <trkpt lat="42.4461720" lon="-2.5103580">
        <ele>449.6</ele>
        <time>2022-08-29T03:55:15Z</time>
      </trkpt>
      <trkpt lat="42.4461510" lon="-2.5104010">
        <ele>449.6</ele>
        <time>2022-08-29T03:55:16Z</time>
      </trkpt>
      <trkpt lat="42.4461320" lon="-2.5104470">
        <ele>449.8</ele>
        <time>2022-08-29T03:55:17Z</time>
      </trkpt>
      <trkpt lat="42.4461140" lon="-2.5104990">
        <ele>449.8</ele>
        <time>2022-08-29T03:55:18Z</time>
      </trkpt>
      <trkpt lat="42.4460980" lon="-2.5105540">
        <ele>449.8</ele>
        <time>2022-08-29T03:55:19Z</time>
      </trkpt>
      <trkpt lat="42.4460830" lon="-2.5106110">
        <ele>449.8</ele>
        <time>2022-08-29T03:55:20Z</time>
      </trkpt>
      <trkpt lat="42.4460680" lon="-2.5106690">
        <ele>449.8</ele>
        <time>2022-08-29T03:55:21Z</time>
      </trkpt>
      <trkpt lat="42.4460510" lon="-2.5107230">
        <ele>449.8</ele>
        <time>2022-08-29T03:55:22Z</time>
      </trkpt>
      <trkpt lat="42.4460280" lon="-2.5107750">
        <ele>449.8</ele>
        <time>2022-08-29T03:55:23Z</time>
      </trkpt>
      <trkpt lat="42.4460040" lon="-2.5108240">
        <ele>449.8</ele>
        <time>2022-08-29T03:55:24Z</time>
      </trkpt>
      <trkpt lat="42.4459810" lon="-2.5108710">
        <ele>450.0</ele>
        <time>2022-08-29T03:55:25Z</time>
      </trkpt>
      <trkpt lat="42.4459520" lon="-2.5109100">
        <ele>449.8</ele>
        <time>2022-08-29T03:55:26Z</time>
      </trkpt>
      <trkpt lat="42.4459230" lon="-2.5109490">
        <ele>449.8</ele>
        <time>2022-08-29T03:55:27Z</time>
      </trkpt>
      <trkpt lat="42.4458930" lon="-2.5109890">
        <ele>449.8</ele>
        <time>2022-08-29T03:55:28Z</time>
      </trkpt>
      <trkpt lat="42.4458630" lon="-2.5110280">
        <ele>449.8</ele>
        <time>2022-08-29T03:55:29Z</time>
      </trkpt>
      <trkpt lat="42.4458300" lon="-2.5110680">
        <ele>449.8</ele>
        <time>2022-08-29T03:55:30Z</time>
      </trkpt>
      <trkpt lat="42.4457950" lon="-2.5111070">
        <ele>449.8</ele>
        <time>2022-08-29T03:55:31Z</time>
      </trkpt>
      <trkpt lat="42.4457590" lon="-2.5111470">
        <ele>449.8</ele>
        <time>2022-08-29T03:55:32Z</time>
      </trkpt>
      <trkpt lat="42.4457240" lon="-2.5111910">
        <ele>449.6</ele>
        <time>2022-08-29T03:55:33Z</time>
      </trkpt>
      <trkpt lat="42.4456920" lon="-2.5112430">
        <ele>449.6</ele>
        <time>2022-08-29T03:55:34Z</time>
      </trkpt>
      <trkpt lat="42.4456620" lon="-2.5112950">
        <ele>449.6</ele>
        <time>2022-08-29T03:55:35Z</time>
      </trkpt>
      <trkpt lat="42.4456330" lon="-2.5113490">
        <ele>449.6</ele>
        <time>2022-08-29T03:55:36Z</time>
      </trkpt>
      <trkpt lat="42.4456030" lon="-2.5114070">
        <ele>449.4</ele>
        <time>2022-08-29T03:55:37Z</time>
      </trkpt>
      <trkpt lat="42.4455740" lon="-2.5114670">
        <ele>449.6</ele>
        <time>2022-08-29T03:55:38Z</time>
      </trkpt>
      <trkpt lat="42.4455520" lon="-2.5115360">
        <ele>449.4</ele>
        <time>2022-08-29T03:55:39Z</time>
      </trkpt>
      <trkpt lat="42.4455250" lon="-2.5116000">
        <ele>449.4</ele>
        <time>2022-08-29T03:55:40Z</time>
      </trkpt>
      <trkpt lat="42.4455000" lon="-2.5116620">
        <ele>449.4</ele>
        <time>2022-08-29T03:55:41Z</time>
      </trkpt>
      <trkpt lat="42.4454750" lon="-2.5117240">
        <ele>449.2</ele>
        <time>2022-08-29T03:55:42Z</time>
      </trkpt>
      <trkpt lat="42.4454510" lon="-2.5117840">
        <ele>449.2</ele>
        <time>2022-08-29T03:55:43Z</time>
      </trkpt>
      <trkpt lat="42.4454240" lon="-2.5118430">
        <ele>449.0</ele>
        <time>2022-08-29T03:55:44Z</time>
      </trkpt>
      <trkpt lat="42.4453960" lon="-2.5118960">
        <ele>448.8</ele>
        <time>2022-08-29T03:55:45Z</time>
      </trkpt>
      <trkpt lat="42.4453700" lon="-2.5119490">
        <ele>448.6</ele>
        <time>2022-08-29T03:55:46Z</time>
      </trkpt>
      <trkpt lat="42.4453440" lon="-2.5119990">
        <ele>448.4</ele>
        <time>2022-08-29T03:55:47Z</time>
      </trkpt>
      <trkpt lat="42.4453220" lon="-2.5120480">
        <ele>448.4</ele>
        <time>2022-08-29T03:55:48Z</time>
      </trkpt>
      <trkpt lat="42.4453030" lon="-2.5120970">
        <ele>448.4</ele>
        <time>2022-08-29T03:55:49Z</time>
      </trkpt>
      <trkpt lat="42.4452820" lon="-2.5121430">
        <ele>448.4</ele>
        <time>2022-08-29T03:55:50Z</time>
      </trkpt>
      <trkpt lat="42.4452600" lon="-2.5121870">
        <ele>448.4</ele>
        <time>2022-08-29T03:55:51Z</time>
      </trkpt>
      <trkpt lat="42.4452370" lon="-2.5122310">
        <ele>448.4</ele>
        <time>2022-08-29T03:55:52Z</time>
      </trkpt>
      <trkpt lat="42.4452130" lon="-2.5122750">
        <ele>448.2</ele>
        <time>2022-08-29T03:55:53Z</time>
      </trkpt>
      <trkpt lat="42.4451880" lon="-2.5123220">
        <ele>448.4</ele>
        <time>2022-08-29T03:55:54Z</time>
      </trkpt>
      <trkpt lat="42.4451650" lon="-2.5123710">
        <ele>448.4</ele>
        <time>2022-08-29T03:55:55Z</time>
      </trkpt>
      <trkpt lat="42.4451410" lon="-2.5124200">
        <ele>448.4</ele>
        <time>2022-08-29T03:55:56Z</time>
      </trkpt>
      <trkpt lat="42.4451190" lon="-2.5124710">
        <ele>448.2</ele>
        <time>2022-08-29T03:55:57Z</time>
      </trkpt>
      <trkpt lat="42.4450950" lon="-2.5125190">
        <ele>448.2</ele>
        <time>2022-08-29T03:55:58Z</time>
      </trkpt>
      <trkpt lat="42.4450720" lon="-2.5125660">
        <ele>448.4</ele>
        <time>2022-08-29T03:55:59Z</time>
      </trkpt>
      <trkpt lat="42.4450480" lon="-2.5126130">
        <ele>448.4</ele>
        <time>2022-08-29T03:56:00Z</time>
      </trkpt>
      <trkpt lat="42.4450240" lon="-2.5126620">
        <ele>448.4</ele>
        <time>2022-08-29T03:56:01Z</time>
      </trkpt>
      <trkpt lat="42.4450010" lon="-2.5127110">
        <ele>448.4</ele>
        <time>2022-08-29T03:56:02Z</time>
      </trkpt>
      <trkpt lat="42.4449790" lon="-2.5127650">
        <ele>448.4</ele>
        <time>2022-08-29T03:56:03Z</time>
      </trkpt>
      <trkpt lat="42.4449570" lon="-2.5128210">
        <ele>448.6</ele>
        <time>2022-08-29T03:56:04Z</time>
      </trkpt>
      <trkpt lat="42.4449420" lon="-2.5128790">
        <ele>448.4</ele>
        <time>2022-08-29T03:56:05Z</time>
      </trkpt>
      <trkpt lat="42.4449330" lon="-2.5129370">
        <ele>448.4</ele>
        <time>2022-08-29T03:56:06Z</time>
      </trkpt>
      <trkpt lat="42.4449220" lon="-2.5129920">
        <ele>448.4</ele>
        <time>2022-08-29T03:56:07Z</time>
      </trkpt>
      <trkpt lat="42.4449090" lon="-2.5130450">
        <ele>448.4</ele>
        <time>2022-08-29T03:56:08Z</time>
      </trkpt>
      <trkpt lat="42.4448930" lon="-2.5130940">
        <ele>448.6</ele>
        <time>2022-08-29T03:56:09Z</time>
      </trkpt>
      <trkpt lat="42.4448700" lon="-2.5131380">
        <ele>448.6</ele>
        <time>2022-08-29T03:56:10Z</time>
      </trkpt>
      <trkpt lat="42.4448440" lon="-2.5131780">
        <ele>448.6</ele>
        <time>2022-08-29T03:56:11Z</time>
      </trkpt>
      <trkpt lat="42.4448130" lon="-2.5132170">
        <ele>448.6</ele>
        <time>2022-08-29T03:56:12Z</time>
      </trkpt>
      <trkpt lat="42.4447810" lon="-2.5132560">
        <ele>448.8</ele>
        <time>2022-08-29T03:56:13Z</time>
      </trkpt>
      <trkpt lat="42.4447470" lon="-2.5132900">
        <ele>448.6</ele>
        <time>2022-08-29T03:56:14Z</time>
      </trkpt>
      <trkpt lat="42.4447100" lon="-2.5133230">
        <ele>448.6</ele>
        <time>2022-08-29T03:56:15Z</time>
      </trkpt>
      <trkpt lat="42.4446680" lon="-2.5133490">
        <ele>448.8</ele>
        <time>2022-08-29T03:56:16Z</time>
      </trkpt>
      <trkpt lat="42.4446230" lon="-2.5133670">
        <ele>448.8</ele>
        <time>2022-08-29T03:56:17Z</time>
      </trkpt>
      <trkpt lat="42.4445790" lon="-2.5133770">
        <ele>448.8</ele>
        <time>2022-08-29T03:56:18Z</time>
      </trkpt>
      <trkpt lat="42.4445360" lon="-2.5133830">
        <ele>448.8</ele>
        <time>2022-08-29T03:56:19Z</time>
      </trkpt>
      <trkpt lat="42.4444940" lon="-2.5133800">
        <ele>448.8</ele>
        <time>2022-08-29T03:56:20Z</time>
      </trkpt>
      <trkpt lat="42.4444560" lon="-2.5133590">
        <ele>449.0</ele>
        <time>2022-08-29T03:56:21Z</time>
      </trkpt>
      <trkpt lat="42.4444260" lon="-2.5133230">
        <ele>448.8</ele>
        <time>2022-08-29T03:56:22Z</time>
      </trkpt>
      <trkpt lat="42.4444020" lon="-2.5132740">
        <ele>449.0</ele>
        <time>2022-08-29T03:56:23Z</time>
      </trkpt>
      <trkpt lat="42.4443850" lon="-2.5132090">
        <ele>449.0</ele>
        <time>2022-08-29T03:56:24Z</time>
      </trkpt>
      <trkpt lat="42.4443690" lon="-2.5131470">
        <ele>448.8</ele>
        <time>2022-08-29T03:56:25Z</time>
      </trkpt>
      <trkpt lat="42.4443550" lon="-2.5130800">
        <ele>449.0</ele>
        <time>2022-08-29T03:56:26Z</time>
      </trkpt>
      <trkpt lat="42.4443440" lon="-2.5130090">
        <ele>448.8</ele>
        <time>2022-08-29T03:56:27Z</time>
      </trkpt>
      <trkpt lat="42.4443310" lon="-2.5129350">
        <ele>449.0</ele>
        <time>2022-08-29T03:56:28Z</time>
      </trkpt>
      <trkpt lat="42.4443170" lon="-2.5128630">
        <ele>448.8</ele>
        <time>2022-08-29T03:56:29Z</time>
      </trkpt>
      <trkpt lat="42.4443010" lon="-2.5127900">
        <ele>448.8</ele>
        <time>2022-08-29T03:56:30Z</time>
      </trkpt>
      <trkpt lat="42.4442830" lon="-2.5127210">
        <ele>448.8</ele>
        <time>2022-08-29T03:56:31Z</time>
      </trkpt>
      <trkpt lat="42.4442620" lon="-2.5126540">
        <ele>448.8</ele>
        <time>2022-08-29T03:56:32Z</time>
      </trkpt>
      <trkpt lat="42.4442390" lon="-2.5125860">
        <ele>448.6</ele>
        <time>2022-08-29T03:56:33Z</time>
      </trkpt>
      <trkpt lat="42.4442170" lon="-2.5125160">
        <ele>448.8</ele>
        <time>2022-08-29T03:56:34Z</time>
      </trkpt>
      <trkpt lat="42.4441990" lon="-2.5124450">
        <ele>448.8</ele>
        <time>2022-08-29T03:56:35Z</time>
      </trkpt>
      <trkpt lat="42.4441800" lon="-2.5123750">
        <ele>448.8</ele>
        <time>2022-08-29T03:56:36Z</time>
      </trkpt>
      <trkpt lat="42.4441610" lon="-2.5123020">
        <ele>448.4</ele>
        <time>2022-08-29T03:56:37Z</time>
      </trkpt>
      <trkpt lat="42.4441420" lon="-2.5122280">
        <ele>448.2</ele>
        <time>2022-08-29T03:56:38Z</time>
      </trkpt>
      <trkpt lat="42.4441150" lon="-2.5121590">
        <ele>448.0</ele>
        <time>2022-08-29T03:56:39Z</time>
      </trkpt>
      <trkpt lat="42.4440810" lon="-2.5121090">
        <ele>448.2</ele>
        <time>2022-08-29T03:56:40Z</time>
      </trkpt>
      <trkpt lat="42.4440410" lon="-2.5120760">
        <ele>447.8</ele>
        <time>2022-08-29T03:56:41Z</time>
      </trkpt>
      <trkpt lat="42.4440020" lon="-2.5120490">
        <ele>448.0</ele>
        <time>2022-08-29T03:56:42Z</time>
      </trkpt>
      <trkpt lat="42.4439620" lon="-2.5120410">
        <ele>447.8</ele>
        <time>2022-08-29T03:56:43Z</time>
      </trkpt>
      <trkpt lat="42.4439260" lon="-2.5120490">
        <ele>447.8</ele>
        <time>2022-08-29T03:56:44Z</time>
      </trkpt>
      <trkpt lat="42.4438970" lon="-2.5120630">
        <ele>447.8</ele>
        <time>2022-08-29T03:56:45Z</time>
      </trkpt>
      <trkpt lat="42.4438760" lon="-2.5120850">
        <ele>448.0</ele>
        <time>2022-08-29T03:56:46Z</time>
      </trkpt>
      <trkpt lat="42.4438510" lon="-2.5121210">
        <ele>447.8</ele>
        <time>2022-08-29T03:56:47Z</time>
      </trkpt>
      <trkpt lat="42.4438310" lon="-2.5121580">
        <ele>448.0</ele>
        <time>2022-08-29T03:56:48Z</time>
      </trkpt>
      <trkpt lat="42.4438090" lon="-2.5121990">
        <ele>447.8</ele>
        <time>2022-08-29T03:56:49Z</time>
      </trkpt>
      <trkpt lat="42.4437850" lon="-2.5122450">
        <ele>448.0</ele>
        <time>2022-08-29T03:56:50Z</time>
      </trkpt>
      <trkpt lat="42.4437630" lon="-2.5123010">
        <ele>448.2</ele>
        <time>2022-08-29T03:56:51Z</time>
      </trkpt>
      <trkpt lat="42.4437360" lon="-2.5123570">
        <ele>448.2</ele>
        <time>2022-08-29T03:56:52Z</time>
      </trkpt>
      <trkpt lat="42.4437070" lon="-2.5124100">
        <ele>448.4</ele>
        <time>2022-08-29T03:56:53Z</time>
      </trkpt>
      <trkpt lat="42.4436770" lon="-2.5124630">
        <ele>448.4</ele>
        <time>2022-08-29T03:56:54Z</time>
      </trkpt>
      <trkpt lat="42.4436460" lon="-2.5125160">
        <ele>448.4</ele>
        <time>2022-08-29T03:56:55Z</time>
      </trkpt>
      <trkpt lat="42.4436180" lon="-2.5125710">
        <ele>448.6</ele>
        <time>2022-08-29T03:56:56Z</time>
      </trkpt>
      <trkpt lat="42.4435870" lon="-2.5126300">
        <ele>448.6</ele>
        <time>2022-08-29T03:56:57Z</time>
      </trkpt>
      <trkpt lat="42.4435570" lon="-2.5126840">
        <ele>448.6</ele>
        <time>2022-08-29T03:56:58Z</time>
      </trkpt>
      <trkpt lat="42.4435260" lon="-2.5127350">
        <ele>448.4</ele>
        <time>2022-08-29T03:56:59Z</time>
      </trkpt>
      <trkpt lat="42.4434980" lon="-2.5127850">
        <ele>448.6</ele>
        <time>2022-08-29T03:57:00Z</time>
      </trkpt>
      <trkpt lat="42.4434730" lon="-2.5128340">
        <ele>448.6</ele>
        <time>2022-08-29T03:57:01Z</time>
      </trkpt>
      <trkpt lat="42.4434470" lon="-2.5128880">
        <ele>448.6</ele>
        <time>2022-08-29T03:57:02Z</time>
      </trkpt>
      <trkpt lat="42.4434230" lon="-2.5129390">
        <ele>448.6</ele>
        <time>2022-08-29T03:57:03Z</time>
      </trkpt>
      <trkpt lat="42.4433970" lon="-2.5129900">
        <ele>448.6</ele>
        <time>2022-08-29T03:57:04Z</time>
      </trkpt>
      <trkpt lat="42.4433700" lon="-2.5130420">
        <ele>448.6</ele>
        <time>2022-08-29T03:57:05Z</time>
      </trkpt>
      <trkpt lat="42.4433430" lon="-2.5130910">
        <ele>448.6</ele>
        <time>2022-08-29T03:57:06Z</time>
      </trkpt>
      <trkpt lat="42.4433110" lon="-2.5131300">
        <ele>448.8</ele>
        <time>2022-08-29T03:57:07Z</time>
      </trkpt>
      <trkpt lat="42.4432730" lon="-2.5131650">
        <ele>448.8</ele>
        <time>2022-08-29T03:57:08Z</time>
      </trkpt>
      <trkpt lat="42.4432350" lon="-2.5131790">
        <ele>448.8</ele>
        <time>2022-08-29T03:57:09Z</time>
      </trkpt>
      <trkpt lat="42.4431940" lon="-2.5131910">
        <ele>448.6</ele>
        <time>2022-08-29T03:57:10Z</time>
      </trkpt>
      <trkpt lat="42.4431520" lon="-2.5132040">
        <ele>448.6</ele>
        <time>2022-08-29T03:57:11Z</time>
      </trkpt>
      <trkpt lat="42.4431130" lon="-2.5132150">
        <ele>448.8</ele>
        <time>2022-08-29T03:57:12Z</time>
      </trkpt>
      <trkpt lat="42.4430790" lon="-2.5132240">
        <ele>448.8</ele>
        <time>2022-08-29T03:57:13Z</time>
      </trkpt>
      <trkpt lat="42.4430480" lon="-2.5132300">
        <ele>448.8</ele>
        <time>2022-08-29T03:57:14Z</time>
      </trkpt>
      <trkpt lat="42.4430200" lon="-2.5132370">
        <ele>448.8</ele>
        <time>2022-08-29T03:57:15Z</time>
      </trkpt>
      <trkpt lat="42.4429940" lon="-2.5132460">
        <ele>448.8</ele>
        <time>2022-08-29T03:57:16Z</time>
      </trkpt>
      <trkpt lat="42.4429700" lon="-2.5132530">
        <ele>449.0</ele>
        <time>2022-08-29T03:57:17Z</time>
      </trkpt>
      <trkpt lat="42.4429490" lon="-2.5132570">
        <ele>449.2</ele>
        <time>2022-08-29T03:57:18Z</time>
      </trkpt>
      <trkpt lat="42.4429280" lon="-2.5132610">
        <ele>449.4</ele>
        <time>2022-08-29T03:57:19Z</time>
      </trkpt>
      <trkpt lat="42.4429060" lon="-2.5132640">
        <ele>449.6</ele>
        <time>2022-08-29T03:57:20Z</time>
      </trkpt>
      <trkpt lat="42.4428830" lon="-2.5132720">
        <ele>449.8</ele>
        <time>2022-08-29T03:57:21Z</time>
      </trkpt>
      <trkpt lat="42.4428620" lon="-2.5132790">
        <ele>450.0</ele>
        <time>2022-08-29T03:57:22Z</time>
      </trkpt>
      <trkpt lat="42.4428410" lon="-2.5132830">
        <ele>450.2</ele>
        <time>2022-08-29T03:57:23Z</time>
      </trkpt>
      <trkpt lat="42.4428180" lon="-2.5132840">
        <ele>450.6</ele>
        <time>2022-08-29T03:57:24Z</time>
      </trkpt>
      <trkpt lat="42.4427930" lon="-2.5132830">
        <ele>450.8</ele>
        <time>2022-08-29T03:57:25Z</time>
      </trkpt>
      <trkpt lat="42.4427670" lon="-2.5132810">
        <ele>451.2</ele>
        <time>2022-08-29T03:57:26Z</time>
      </trkpt>
      <trkpt lat="42.4427400" lon="-2.5132740">
        <ele>451.4</ele>
        <time>2022-08-29T03:57:27Z</time>
      </trkpt>
      <trkpt lat="42.4427090" lon="-2.5132640">
        <ele>451.6</ele>
        <time>2022-08-29T03:57:28Z</time>
      </trkpt>
      <trkpt lat="42.4426740" lon="-2.5132510">
        <ele>452.0</ele>
        <time>2022-08-29T03:57:29Z</time>
      </trkpt>
      <trkpt lat="42.4426360" lon="-2.5132400">
        <ele>452.0</ele>
        <time>2022-08-29T03:57:30Z</time>
      </trkpt>
      <trkpt lat="42.4425950" lon="-2.5132310">
        <ele>452.0</ele>
        <time>2022-08-29T03:57:31Z</time>
      </trkpt>
      <trkpt lat="42.4425500" lon="-2.5132220">
        <ele>452.0</ele>
        <time>2022-08-29T03:57:32Z</time>
      </trkpt>
      <trkpt lat="42.4425050" lon="-2.5132160">
        <ele>452.0</ele>
        <time>2022-08-29T03:57:33Z</time>
      </trkpt>
      <trkpt lat="42.4424600" lon="-2.5132140">
        <ele>452.2</ele>
        <time>2022-08-29T03:57:34Z</time>
      </trkpt>
      <trkpt lat="42.4424140" lon="-2.5132110">
        <ele>452.0</ele>
        <time>2022-08-29T03:57:35Z</time>
      </trkpt>
      <trkpt lat="42.4423690" lon="-2.5132100">
        <ele>452.2</ele>
        <time>2022-08-29T03:57:36Z</time>
      </trkpt>
      <trkpt lat="42.4423270" lon="-2.5132030">
        <ele>452.2</ele>
        <time>2022-08-29T03:57:37Z</time>
      </trkpt>
      <trkpt lat="42.4422870" lon="-2.5132010">
        <ele>452.2</ele>
        <time>2022-08-29T03:57:38Z</time>
      </trkpt>
      <trkpt lat="42.4422450" lon="-2.5132020">
        <ele>452.0</ele>
        <time>2022-08-29T03:57:39Z</time>
      </trkpt>
      <trkpt lat="42.4422030" lon="-2.5132010">
        <ele>452.0</ele>
        <time>2022-08-29T03:57:40Z</time>
      </trkpt>
      <trkpt lat="42.4421640" lon="-2.5132020">
        <ele>452.0</ele>
        <time>2022-08-29T03:57:41Z</time>
      </trkpt>
      <trkpt lat="42.4421250" lon="-2.5132020">
        <ele>451.8</ele>
        <time>2022-08-29T03:57:42Z</time>
      </trkpt>
      <trkpt lat="42.4420860" lon="-2.5132020">
        <ele>451.6</ele>
        <time>2022-08-29T03:57:43Z</time>
      </trkpt>
      <trkpt lat="42.4420480" lon="-2.5132090">
        <ele>451.4</ele>
        <time>2022-08-29T03:57:44Z</time>
      </trkpt>
      <trkpt lat="42.4420100" lon="-2.5132210">
        <ele>451.4</ele>
        <time>2022-08-29T03:57:45Z</time>
      </trkpt>
      <trkpt lat="42.4419730" lon="-2.5132370">
        <ele>451.6</ele>
        <time>2022-08-29T03:57:46Z</time>
      </trkpt>
      <trkpt lat="42.4419350" lon="-2.5132580">
        <ele>451.4</ele>
        <time>2022-08-29T03:57:47Z</time>
      </trkpt>
      <trkpt lat="42.4418950" lon="-2.5132810">
        <ele>451.4</ele>
        <time>2022-08-29T03:57:48Z</time>
      </trkpt>
      <trkpt lat="42.4418550" lon="-2.5133030">
        <ele>451.4</ele>
        <time>2022-08-29T03:57:49Z</time>
      </trkpt>
      <trkpt lat="42.4418160" lon="-2.5133240">
        <ele>451.4</ele>
        <time>2022-08-29T03:57:50Z</time>
      </trkpt>
      <trkpt lat="42.4417740" lon="-2.5133460">
        <ele>451.4</ele>
        <time>2022-08-29T03:57:51Z</time>
      </trkpt>
      <trkpt lat="42.4417280" lon="-2.5133650">
        <ele>451.4</ele>
        <time>2022-08-29T03:57:52Z</time>
      </trkpt>
      <trkpt lat="42.4416810" lon="-2.5133780">
        <ele>451.4</ele>
        <time>2022-08-29T03:57:53Z</time>
      </trkpt>
      <trkpt lat="42.4416320" lon="-2.5133860">
        <ele>451.2</ele>
        <time>2022-08-29T03:57:54Z</time>
      </trkpt>
      <trkpt lat="42.4415830" lon="-2.5133870">
        <ele>451.4</ele>
        <time>2022-08-29T03:57:55Z</time>
      </trkpt>
      <trkpt lat="42.4415350" lon="-2.5133820">
        <ele>451.4</ele>
        <time>2022-08-29T03:57:56Z</time>
      </trkpt>
      <trkpt lat="42.4414900" lon="-2.5133760">
        <ele>451.4</ele>
        <time>2022-08-29T03:57:57Z</time>
      </trkpt>
      <trkpt lat="42.4414520" lon="-2.5133680">
        <ele>451.4</ele>
        <time>2022-08-29T03:57:58Z</time>
      </trkpt>
      <trkpt lat="42.4414230" lon="-2.5133580">
        <ele>451.4</ele>
        <time>2022-08-29T03:57:59Z</time>
      </trkpt>
      <trkpt lat="42.4414140" lon="-2.5133520">
        <ele>451.4</ele>
        <time>2022-08-29T03:58:00Z</time>
      </trkpt>
      <trkpt lat="42.4414140" lon="-2.5133470">
        <ele>451.4</ele>
        <time>2022-08-29T03:58:01Z</time>
      </trkpt>
      <trkpt lat="42.4414180" lon="-2.5133390">
        <ele>451.4</ele>
        <time>2022-08-29T03:58:02Z</time>
      </trkpt>
      <trkpt lat="42.4414190" lon="-2.5133340">
        <ele>451.2</ele>
        <time>2022-08-29T03:58:03Z</time>
      </trkpt>
      <trkpt lat="42.4414210" lon="-2.5133350">
        <ele>451.4</ele>
        <time>2022-08-29T03:58:04Z</time>
      </trkpt>
      <trkpt lat="42.4414190" lon="-2.5133340">
        <ele>451.2</ele>
        <time>2022-08-29T03:58:05Z</time>
      </trkpt>
      <trkpt lat="42.4414190" lon="-2.5133330">
        <ele>451.2</ele>
        <time>2022-08-29T03:58:06Z</time>
      </trkpt>
      <trkpt lat="42.4414190" lon="-2.5133330">
        <ele>451.2</ele>
        <time>2022-08-29T03:58:07Z</time>
      </trkpt>
      <trkpt lat="42.4414190" lon="-2.5133320">
        <ele>451.4</ele>
        <time>2022-08-29T03:58:08Z</time>
      </trkpt>
      <trkpt lat="42.4414190" lon="-2.5133320">
        <ele>451.2</ele>
        <time>2022-08-29T03:58:09Z</time>
      </trkpt>
      <trkpt lat="42.4414190" lon="-2.5133320">
        <ele>451.4</ele>
        <time>2022-08-29T03:58:10Z</time>
      </trkpt>
      <trkpt lat="42.4414190" lon="-2.5133320">
        <ele>451.2</ele>
        <time>2022-08-29T03:58:11Z</time>
      </trkpt>
      <trkpt lat="42.4414180" lon="-2.5133310">
        <ele>451.4</ele>
        <time>2022-08-29T03:58:12Z</time>
      </trkpt>
      <trkpt lat="42.4414180" lon="-2.5133300">
        <ele>451.2</ele>
        <time>2022-08-29T03:58:13Z</time>
      </trkpt>
      <trkpt lat="42.4414180" lon="-2.5133300">
        <ele>451.2</ele>
        <time>2022-08-29T03:58:14Z</time>
      </trkpt>
      <trkpt lat="42.4414190" lon="-2.5133290">
        <ele>451.4</ele>
        <time>2022-08-29T03:58:15Z</time>
      </trkpt>
      <trkpt lat="42.4414190" lon="-2.5133300">
        <ele>451.4</ele>
        <time>2022-08-29T03:58:16Z</time>
      </trkpt>
      <trkpt lat="42.4414190" lon="-2.5133300">
        <ele>451.4</ele>
        <time>2022-08-29T03:58:17Z</time>
      </trkpt>
      <trkpt lat="42.4414180" lon="-2.5133300">
        <ele>451.4</ele>
        <time>2022-08-29T03:58:18Z</time>
      </trkpt>
      <trkpt lat="42.4414180" lon="-2.5133290">
        <ele>451.2</ele>
        <time>2022-08-29T03:58:19Z</time>
      </trkpt>
      <trkpt lat="42.4414190" lon="-2.5133290">
        <ele>451.4</ele>
        <time>2022-08-29T03:58:20Z</time>
      </trkpt>
      <trkpt lat="42.4414180" lon="-2.5133290">
        <ele>451.4</ele>
        <time>2022-08-29T03:58:21Z</time>
      </trkpt>
      <trkpt lat="42.4414180" lon="-2.5133290">
        <ele>451.4</ele>
        <time>2022-08-29T03:58:22Z</time>
      </trkpt>
      <trkpt lat="42.4414180" lon="-2.5133290">
        <ele>451.6</ele>
        <time>2022-08-29T03:58:23Z</time>
      </trkpt>
      <trkpt lat="42.4414180" lon="-2.5133280">
        <ele>451.4</ele>
        <time>2022-08-29T03:58:24Z</time>
      </trkpt>
      <trkpt lat="42.4414180" lon="-2.5133280">
        <ele>451.4</ele>
        <time>2022-08-29T03:58:25Z</time>
      </trkpt>
      <trkpt lat="42.4414180" lon="-2.5133280">
        <ele>451.4</ele>
        <time>2022-08-29T03:58:26Z</time>
      </trkpt>
      <trkpt lat="42.4414180" lon="-2.5133280">
        <ele>451.2</ele>
        <time>2022-08-29T03:58:27Z</time>
      </trkpt>
      <trkpt lat="42.4414190" lon="-2.5133280">
        <ele>451.4</ele>
        <time>2022-08-29T03:58:28Z</time>
      </trkpt>
      <trkpt lat="42.4414190" lon="-2.5133270">
        <ele>451.4</ele>
        <time>2022-08-29T03:58:29Z</time>
      </trkpt>
      <trkpt lat="42.4414200" lon="-2.5133230">
        <ele>451.2</ele>
        <time>2022-08-29T03:58:30Z</time>
      </trkpt>
      <trkpt lat="42.4414230" lon="-2.5133200">
        <ele>451.4</ele>
        <time>2022-08-29T03:58:31Z</time>
      </trkpt>
      <trkpt lat="42.4414290" lon="-2.5133200">
        <ele>451.2</ele>
        <time>2022-08-29T03:58:32Z</time>
      </trkpt>
      <trkpt lat="42.4414430" lon="-2.5133270">
        <ele>451.4</ele>
        <time>2022-08-29T03:58:33Z</time>
      </trkpt>
      <trkpt lat="42.4414470" lon="-2.5133410">
        <ele>451.4</ele>
        <time>2022-08-29T03:58:34Z</time>
      </trkpt>
      <trkpt lat="42.4414390" lon="-2.5133530">
        <ele>451.4</ele>
        <time>2022-08-29T03:58:35Z</time>
      </trkpt>
      <trkpt lat="42.4414330" lon="-2.5133620">
        <ele>451.4</ele>
        <time>2022-08-29T03:58:36Z</time>
      </trkpt>
      <trkpt lat="42.4414210" lon="-2.5133650">
        <ele>451.2</ele>
        <time>2022-08-29T03:58:37Z</time>
      </trkpt>
      <trkpt lat="42.4414050" lon="-2.5133630">
        <ele>451.4</ele>
        <time>2022-08-29T03:58:38Z</time>
      </trkpt>
      <trkpt lat="42.4413840" lon="-2.5133570">
        <ele>451.2</ele>
        <time>2022-08-29T03:58:39Z</time>
      </trkpt>
      <trkpt lat="42.4413620" lon="-2.5133620">
        <ele>451.2</ele>
        <time>2022-08-29T03:58:40Z</time>
      </trkpt>
      <trkpt lat="42.4413380" lon="-2.5133800">
        <ele>451.2</ele>
        <time>2022-08-29T03:58:41Z</time>
      </trkpt>
      <trkpt lat="42.4413230" lon="-2.5134130">
        <ele>451.4</ele>
        <time>2022-08-29T03:58:42Z</time>
      </trkpt>
      <trkpt lat="42.4413120" lon="-2.5134530">
        <ele>451.2</ele>
        <time>2022-08-29T03:58:43Z</time>
      </trkpt>
      <trkpt lat="42.4413050" lon="-2.5134940">
        <ele>451.4</ele>
        <time>2022-08-29T03:58:44Z</time>
      </trkpt>
      <trkpt lat="42.4412990" lon="-2.5135350">
        <ele>451.4</ele>
        <time>2022-08-29T03:58:45Z</time>
      </trkpt>
      <trkpt lat="42.4412940" lon="-2.5135770">
        <ele>451.2</ele>
        <time>2022-08-29T03:58:46Z</time>
      </trkpt>
      <trkpt lat="42.4412900" lon="-2.5136200">
        <ele>451.2</ele>
        <time>2022-08-29T03:58:47Z</time>
      </trkpt>
      <trkpt lat="42.4412900" lon="-2.5136630">
        <ele>451.2</ele>
        <time>2022-08-29T03:58:48Z</time>
      </trkpt>
      <trkpt lat="42.4412970" lon="-2.5137100">
        <ele>451.2</ele>
        <time>2022-08-29T03:58:49Z</time>
      </trkpt>
      <trkpt lat="42.4413090" lon="-2.5137560">
        <ele>451.2</ele>
        <time>2022-08-29T03:58:50Z</time>
      </trkpt>
      <trkpt lat="42.4413260" lon="-2.5138000">
        <ele>451.2</ele>
        <time>2022-08-29T03:58:51Z</time>
      </trkpt>
      <trkpt lat="42.4413450" lon="-2.5138450">
        <ele>451.2</ele>
        <time>2022-08-29T03:58:52Z</time>
      </trkpt>
      <trkpt lat="42.4413630" lon="-2.5138920">
        <ele>451.2</ele>
        <time>2022-08-29T03:58:53Z</time>
      </trkpt>
      <trkpt lat="42.4413810" lon="-2.5139450">
        <ele>451.2</ele>
        <time>2022-08-29T03:58:54Z</time>
      </trkpt>
      <trkpt lat="42.4413980" lon="-2.5140020">
        <ele>451.2</ele>
        <time>2022-08-29T03:58:55Z</time>
      </trkpt>
      <trkpt lat="42.4414140" lon="-2.5140580">
        <ele>451.2</ele>
        <time>2022-08-29T03:58:56Z</time>
      </trkpt>
      <trkpt lat="42.4414320" lon="-2.5141130">
        <ele>451.2</ele>
        <time>2022-08-29T03:58:57Z</time>
      </trkpt>
      <trkpt lat="42.4414480" lon="-2.5141670">
        <ele>451.6</ele>
        <time>2022-08-29T03:58:58Z</time>
      </trkpt>
      <trkpt lat="42.4414640" lon="-2.5142250">
        <ele>451.6</ele>
        <time>2022-08-29T03:58:59Z</time>
      </trkpt>
      <trkpt lat="42.4414790" lon="-2.5142820">
        <ele>451.8</ele>
        <time>2022-08-29T03:59:00Z</time>
      </trkpt>
      <trkpt lat="42.4414930" lon="-2.5143390">
        <ele>451.8</ele>
        <time>2022-08-29T03:59:01Z</time>
      </trkpt>
      <trkpt lat="42.4415040" lon="-2.5143930">
        <ele>451.8</ele>
        <time>2022-08-29T03:59:02Z</time>
      </trkpt>
      <trkpt lat="42.4415160" lon="-2.5144440">
        <ele>451.8</ele>
        <time>2022-08-29T03:59:03Z</time>
      </trkpt>
      <trkpt lat="42.4415290" lon="-2.5144970">
        <ele>452.0</ele>
        <time>2022-08-29T03:59:04Z</time>
      </trkpt>
      <trkpt lat="42.4415410" lon="-2.5145470">
        <ele>452.2</ele>
        <time>2022-08-29T03:59:05Z</time>
      </trkpt>
      <trkpt lat="42.4415510" lon="-2.5145980">
        <ele>452.2</ele>
        <time>2022-08-29T03:59:06Z</time>
      </trkpt>
      <trkpt lat="42.4415530" lon="-2.5146470">
        <ele>452.0</ele>
        <time>2022-08-29T03:59:07Z</time>
      </trkpt>
      <trkpt lat="42.4415460" lon="-2.5146950">
        <ele>452.2</ele>
        <time>2022-08-29T03:59:08Z</time>
      </trkpt>
      <trkpt lat="42.4415270" lon="-2.5147390">
        <ele>452.2</ele>
        <time>2022-08-29T03:59:09Z</time>
      </trkpt>
      <trkpt lat="42.4414980" lon="-2.5147720">
        <ele>452.2</ele>
        <time>2022-08-29T03:59:10Z</time>
      </trkpt>
      <trkpt lat="42.4414640" lon="-2.5147910">
        <ele>452.4</ele>
        <time>2022-08-29T03:59:11Z</time>
      </trkpt>
      <trkpt lat="42.4414280" lon="-2.5148010">
        <ele>452.4</ele>
        <time>2022-08-29T03:59:12Z</time>
      </trkpt>
      <trkpt lat="42.4413910" lon="-2.5148070">
        <ele>452.6</ele>
        <time>2022-08-29T03:59:13Z</time>
      </trkpt>
      <trkpt lat="42.4413520" lon="-2.5148070">
        <ele>452.8</ele>
        <time>2022-08-29T03:59:14Z</time>
      </trkpt>
      <trkpt lat="42.4413090" lon="-2.5148060">
        <ele>452.8</ele>
        <time>2022-08-29T03:59:15Z</time>
      </trkpt>
      <trkpt lat="42.4412650" lon="-2.5148050">
        <ele>453.2</ele>
        <time>2022-08-29T03:59:16Z</time>
      </trkpt>
      <trkpt lat="42.4412200" lon="-2.5148050">
        <ele>453.2</ele>
        <time>2022-08-29T03:59:17Z</time>
      </trkpt>
      <trkpt lat="42.4411740" lon="-2.5148060">
        <ele>453.2</ele>
        <time>2022-08-29T03:59:18Z</time>
      </trkpt>
      <trkpt lat="42.4411290" lon="-2.5148090">
        <ele>453.8</ele>
        <time>2022-08-29T03:59:19Z</time>
      </trkpt>
      <trkpt lat="42.4410840" lon="-2.5148140">
        <ele>454.0</ele>
        <time>2022-08-29T03:59:20Z</time>
      </trkpt>
      <trkpt lat="42.4410400" lon="-2.5148180">
        <ele>454.2</ele>
        <time>2022-08-29T03:59:21Z</time>
      </trkpt>
      <trkpt lat="42.4409960" lon="-2.5148210">
        <ele>454.2</ele>
        <time>2022-08-29T03:59:22Z</time>
      </trkpt>
      <trkpt lat="42.4409540" lon="-2.5148230">
        <ele>454.4</ele>
        <time>2022-08-29T03:59:23Z</time>
      </trkpt>
      <trkpt lat="42.4409090" lon="-2.5148210">
        <ele>454.4</ele>
        <time>2022-08-29T03:59:24Z</time>
      </trkpt>
      <trkpt lat="42.4408640" lon="-2.5148200">
        <ele>454.6</ele>
        <time>2022-08-29T03:59:25Z</time>
      </trkpt>
      <trkpt lat="42.4408190" lon="-2.5148200">
        <ele>454.4</ele>
        <time>2022-08-29T03:59:26Z</time>
      </trkpt>
      <trkpt lat="42.4407740" lon="-2.5148190">
        <ele>454.6</ele>
        <time>2022-08-29T03:59:27Z</time>
      </trkpt>
      <trkpt lat="42.4407300" lon="-2.5148170">
        <ele>454.6</ele>
        <time>2022-08-29T03:59:28Z</time>
      </trkpt>
      <trkpt lat="42.4406880" lon="-2.5148170">
        <ele>454.6</ele>
        <time>2022-08-29T03:59:29Z</time>
      </trkpt>
      <trkpt lat="42.4406470" lon="-2.5148160">
        <ele>454.6</ele>
        <time>2022-08-29T03:59:30Z</time>
      </trkpt>
      <trkpt lat="42.4406060" lon="-2.5148170">
        <ele>454.8</ele>
        <time>2022-08-29T03:59:31Z</time>
      </trkpt>
      <trkpt lat="42.4405660" lon="-2.5148210">
        <ele>454.8</ele>
        <time>2022-08-29T03:59:32Z</time>
      </trkpt>
      <trkpt lat="42.4405260" lon="-2.5148250">
        <ele>454.8</ele>
        <time>2022-08-29T03:59:33Z</time>
      </trkpt>
      <trkpt lat="42.4404860" lon="-2.5148300">
        <ele>454.8</ele>
        <time>2022-08-29T03:59:34Z</time>
      </trkpt>
      <trkpt lat="42.4404450" lon="-2.5148350">
        <ele>455.0</ele>
        <time>2022-08-29T03:59:35Z</time>
      </trkpt>
      <trkpt lat="42.4404040" lon="-2.5148390">
        <ele>455.0</ele>
        <time>2022-08-29T03:59:36Z</time>
      </trkpt>
      <trkpt lat="42.4403630" lon="-2.5148450">
        <ele>454.8</ele>
        <time>2022-08-29T03:59:37Z</time>
      </trkpt>
      <trkpt lat="42.4403210" lon="-2.5148510">
        <ele>454.8</ele>
        <time>2022-08-29T03:59:38Z</time>
      </trkpt>
      <trkpt lat="42.4402780" lon="-2.5148580">
        <ele>455.0</ele>
        <time>2022-08-29T03:59:39Z</time>
      </trkpt>
      <trkpt lat="42.4402360" lon="-2.5148660">
        <ele>455.0</ele>
        <time>2022-08-29T03:59:40Z</time>
      </trkpt>
      <trkpt lat="42.4401930" lon="-2.5148730">
        <ele>455.2</ele>
        <time>2022-08-29T03:59:41Z</time>
      </trkpt>
      <trkpt lat="42.4401510" lon="-2.5148760">
        <ele>455.2</ele>
        <time>2022-08-29T03:59:42Z</time>
      </trkpt>
      <trkpt lat="42.4401080" lon="-2.5148790">
        <ele>455.0</ele>
        <time>2022-08-29T03:59:43Z</time>
      </trkpt>
      <trkpt lat="42.4400660" lon="-2.5148830">
        <ele>455.2</ele>
        <time>2022-08-29T03:59:44Z</time>
      </trkpt>
      <trkpt lat="42.4400230" lon="-2.5148890">
        <ele>455.4</ele>
        <time>2022-08-29T03:59:45Z</time>
      </trkpt>
      <trkpt lat="42.4399810" lon="-2.5148960">
        <ele>455.4</ele>
        <time>2022-08-29T03:59:46Z</time>
      </trkpt>
      <trkpt lat="42.4399390" lon="-2.5149050">
        <ele>455.6</ele>
        <time>2022-08-29T03:59:47Z</time>
      </trkpt>
      <trkpt lat="42.4398980" lon="-2.5149150">
        <ele>455.4</ele>
        <time>2022-08-29T03:59:48Z</time>
      </trkpt>
      <trkpt lat="42.4398580" lon="-2.5149260">
        <ele>455.6</ele>
        <time>2022-08-29T03:59:49Z</time>
      </trkpt>
      <trkpt lat="42.4398170" lon="-2.5149390">
        <ele>455.6</ele>
        <time>2022-08-29T03:59:50Z</time>
      </trkpt>
      <trkpt lat="42.4397780" lon="-2.5149520">
        <ele>455.6</ele>
        <time>2022-08-29T03:59:51Z</time>
      </trkpt>
      <trkpt lat="42.4397410" lon="-2.5149680">
        <ele>455.4</ele>
        <time>2022-08-29T03:59:52Z</time>
      </trkpt>
      <trkpt lat="42.4397040" lon="-2.5149860">
        <ele>455.6</ele>
        <time>2022-08-29T03:59:53Z</time>
      </trkpt>
      <trkpt lat="42.4396680" lon="-2.5150060">
        <ele>455.8</ele>
        <time>2022-08-29T03:59:54Z</time>
      </trkpt>
      <trkpt lat="42.4396350" lon="-2.5150290">
        <ele>455.6</ele>
        <time>2022-08-29T03:59:55Z</time>
      </trkpt>
      <trkpt lat="42.4396010" lon="-2.5150510">
        <ele>455.8</ele>
        <time>2022-08-29T03:59:56Z</time>
      </trkpt>
      <trkpt lat="42.4395690" lon="-2.5150740">
        <ele>455.8</ele>
        <time>2022-08-29T03:59:57Z</time>
      </trkpt>
      <trkpt lat="42.4395390" lon="-2.5150960">
        <ele>455.8</ele>
        <time>2022-08-29T03:59:58Z</time>
      </trkpt>
      <trkpt lat="42.4395100" lon="-2.5151180">
        <ele>455.6</ele>
        <time>2022-08-29T03:59:59Z</time>
      </trkpt>
      <trkpt lat="42.4394840" lon="-2.5151420">
        <ele>455.8</ele>
        <time>2022-08-29T04:00:00Z</time>
      </trkpt>
      <trkpt lat="42.4394570" lon="-2.5151640">
        <ele>455.8</ele>
        <time>2022-08-29T04:00:01Z</time>
      </trkpt>
      <trkpt lat="42.4394280" lon="-2.5151850">
        <ele>455.8</ele>
        <time>2022-08-29T04:00:02Z</time>
      </trkpt>
      <trkpt lat="42.4393980" lon="-2.5152070">
        <ele>455.8</ele>
        <time>2022-08-29T04:00:03Z</time>
      </trkpt>
      <trkpt lat="42.4393660" lon="-2.5152290">
        <ele>456.0</ele>
        <time>2022-08-29T04:00:04Z</time>
      </trkpt>
      <trkpt lat="42.4393340" lon="-2.5152500">
        <ele>456.0</ele>
        <time>2022-08-29T04:00:05Z</time>
      </trkpt>
      <trkpt lat="42.4393030" lon="-2.5152690">
        <ele>456.0</ele>
        <time>2022-08-29T04:00:06Z</time>
      </trkpt>
      <trkpt lat="42.4392700" lon="-2.5152860">
        <ele>456.0</ele>
        <time>2022-08-29T04:00:07Z</time>
      </trkpt>
      <trkpt lat="42.4392350" lon="-2.5152970">
        <ele>456.0</ele>
        <time>2022-08-29T04:00:08Z</time>
      </trkpt>
      <trkpt lat="42.4391970" lon="-2.5153050">
        <ele>456.2</ele>
        <time>2022-08-29T04:00:09Z</time>
      </trkpt>
      <trkpt lat="42.4391570" lon="-2.5153110">
        <ele>456.4</ele>
        <time>2022-08-29T04:00:10Z</time>
      </trkpt>
      <trkpt lat="42.4391160" lon="-2.5153130">
        <ele>456.2</ele>
        <time>2022-08-29T04:00:11Z</time>
      </trkpt>
      <trkpt lat="42.4390750" lon="-2.5153110">
        <ele>456.2</ele>
        <time>2022-08-29T04:00:12Z</time>
      </trkpt>
      <trkpt lat="42.4390330" lon="-2.5153070">
        <ele>456.4</ele>
        <time>2022-08-29T04:00:13Z</time>
      </trkpt>
      <trkpt lat="42.4389930" lon="-2.5153000">
        <ele>456.4</ele>
        <time>2022-08-29T04:00:14Z</time>
      </trkpt>
      <trkpt lat="42.4389530" lon="-2.5152880">
        <ele>456.4</ele>
        <time>2022-08-29T04:00:15Z</time>
      </trkpt>
      <trkpt lat="42.4389140" lon="-2.5152720">
        <ele>456.6</ele>
        <time>2022-08-29T04:00:16Z</time>
      </trkpt>
      <trkpt lat="42.4388770" lon="-2.5152510">
        <ele>456.6</ele>
        <time>2022-08-29T04:00:17Z</time>
      </trkpt>
      <trkpt lat="42.4388410" lon="-2.5152270">
        <ele>456.6</ele>
        <time>2022-08-29T04:00:18Z</time>
      </trkpt>
      <trkpt lat="42.4388070" lon="-2.5151990">
        <ele>456.6</ele>
        <time>2022-08-29T04:00:19Z</time>
      </trkpt>
      <trkpt lat="42.4387750" lon="-2.5151690">
        <ele>456.8</ele>
        <time>2022-08-29T04:00:20Z</time>
      </trkpt>
      <trkpt lat="42.4387440" lon="-2.5151370">
        <ele>456.8</ele>
        <time>2022-08-29T04:00:21Z</time>
      </trkpt>
      <trkpt lat="42.4387150" lon="-2.5151050">
        <ele>456.8</ele>
        <time>2022-08-29T04:00:22Z</time>
      </trkpt>
      <trkpt lat="42.4386870" lon="-2.5150710">
        <ele>456.6</ele>
        <time>2022-08-29T04:00:23Z</time>
      </trkpt>
      <trkpt lat="42.4386620" lon="-2.5150360">
        <ele>456.8</ele>
        <time>2022-08-29T04:00:24Z</time>
      </trkpt>
      <trkpt lat="42.4386360" lon="-2.5150010">
        <ele>456.8</ele>
        <time>2022-08-29T04:00:25Z</time>
      </trkpt>
      <trkpt lat="42.4386130" lon="-2.5149640">
        <ele>457.0</ele>
        <time>2022-08-29T04:00:26Z</time>
      </trkpt>
      <trkpt lat="42.4385900" lon="-2.5149280">
        <ele>456.8</ele>
        <time>2022-08-29T04:00:27Z</time>
      </trkpt>
      <trkpt lat="42.4385670" lon="-2.5148920">
        <ele>457.0</ele>
        <time>2022-08-29T04:00:28Z</time>
      </trkpt>
      <trkpt lat="42.4385430" lon="-2.5148590">
        <ele>457.0</ele>
        <time>2022-08-29T04:00:29Z</time>
      </trkpt>
      <trkpt lat="42.4385190" lon="-2.5148280">
        <ele>457.2</ele>
        <time>2022-08-29T04:00:30Z</time>
      </trkpt>
      <trkpt lat="42.4384960" lon="-2.5147990">
        <ele>457.2</ele>
        <time>2022-08-29T04:00:31Z</time>
      </trkpt>
      <trkpt lat="42.4384740" lon="-2.5147720">
        <ele>457.2</ele>
        <time>2022-08-29T04:00:32Z</time>
      </trkpt>
      <trkpt lat="42.4384500" lon="-2.5147490">
        <ele>457.4</ele>
        <time>2022-08-29T04:00:33Z</time>
      </trkpt>
      <trkpt lat="42.4384280" lon="-2.5147290">
        <ele>457.6</ele>
        <time>2022-08-29T04:00:34Z</time>
      </trkpt>
      <trkpt lat="42.4384070" lon="-2.5147120">
        <ele>457.8</ele>
        <time>2022-08-29T04:00:35Z</time>
      </trkpt>
      <trkpt lat="42.4383880" lon="-2.5146950">
        <ele>458.0</ele>
        <time>2022-08-29T04:00:36Z</time>
      </trkpt>
      <trkpt lat="42.4383700" lon="-2.5146790">
        <ele>458.2</ele>
        <time>2022-08-29T04:00:37Z</time>
      </trkpt>
      <trkpt lat="42.4383510" lon="-2.5146660">
        <ele>458.4</ele>
        <time>2022-08-29T04:00:38Z</time>
      </trkpt>
      <trkpt lat="42.4383320" lon="-2.5146510">
        <ele>458.6</ele>
        <time>2022-08-29T04:00:39Z</time>
      </trkpt>
      <trkpt lat="42.4383130" lon="-2.5146380">
        <ele>458.8</ele>
        <time>2022-08-29T04:00:40Z</time>
      </trkpt>
      <trkpt lat="42.4382940" lon="-2.5146250">
        <ele>459.2</ele>
        <time>2022-08-29T04:00:41Z</time>
      </trkpt>
      <trkpt lat="42.4382750" lon="-2.5146120">
        <ele>459.4</ele>
        <time>2022-08-29T04:00:42Z</time>
      </trkpt>
      <trkpt lat="42.4382550" lon="-2.5146000">
        <ele>459.4</ele>
        <time>2022-08-29T04:00:43Z</time>
      </trkpt>
      <trkpt lat="42.4382350" lon="-2.5145880">
        <ele>459.8</ele>
        <time>2022-08-29T04:00:44Z</time>
      </trkpt>
      <trkpt lat="42.4382140" lon="-2.5145750">
        <ele>460.0</ele>
        <time>2022-08-29T04:00:45Z</time>
      </trkpt>
      <trkpt lat="42.4381930" lon="-2.5145640">
        <ele>460.2</ele>
        <time>2022-08-29T04:00:46Z</time>
      </trkpt>
      <trkpt lat="42.4381730" lon="-2.5145520">
        <ele>460.4</ele>
        <time>2022-08-29T04:00:47Z</time>
      </trkpt>
      <trkpt lat="42.4381520" lon="-2.5145390">
        <ele>461.0</ele>
        <time>2022-08-29T04:00:48Z</time>
      </trkpt>
      <trkpt lat="42.4381320" lon="-2.5145270">
        <ele>461.2</ele>
        <time>2022-08-29T04:00:49Z</time>
      </trkpt>
      <trkpt lat="42.4381120" lon="-2.5145160">
        <ele>461.4</ele>
        <time>2022-08-29T04:00:50Z</time>
      </trkpt>
      <trkpt lat="42.4380920" lon="-2.5145020">
        <ele>461.4</ele>
        <time>2022-08-29T04:00:51Z</time>
      </trkpt>
      <trkpt lat="42.4380730" lon="-2.5144890">
        <ele>461.6</ele>
        <time>2022-08-29T04:00:52Z</time>
      </trkpt>
      <trkpt lat="42.4380520" lon="-2.5144750">
        <ele>461.8</ele>
        <time>2022-08-29T04:00:53Z</time>
      </trkpt>
      <trkpt lat="42.4380320" lon="-2.5144610">
        <ele>462.0</ele>
        <time>2022-08-29T04:00:54Z</time>
      </trkpt>
      <trkpt lat="42.4380130" lon="-2.5144490">
        <ele>462.4</ele>
        <time>2022-08-29T04:00:55Z</time>
      </trkpt>
      <trkpt lat="42.4379930" lon="-2.5144370">
        <ele>462.6</ele>
        <time>2022-08-29T04:00:56Z</time>
      </trkpt>
      <trkpt lat="42.4379740" lon="-2.5144250">
        <ele>462.8</ele>
        <time>2022-08-29T04:00:57Z</time>
      </trkpt>
      <trkpt lat="42.4379550" lon="-2.5144130">
        <ele>463.0</ele>
        <time>2022-08-29T04:00:58Z</time>
      </trkpt>
      <trkpt lat="42.4379340" lon="-2.5144040">
        <ele>463.2</ele>
        <time>2022-08-29T04:00:59Z</time>
      </trkpt>
      <trkpt lat="42.4379140" lon="-2.5143970">
        <ele>463.4</ele>
        <time>2022-08-29T04:01:00Z</time>
      </trkpt>
      <trkpt lat="42.4378930" lon="-2.5143910">
        <ele>463.6</ele>
        <time>2022-08-29T04:01:01Z</time>
      </trkpt>
      <trkpt lat="42.4378710" lon="-2.5143860">
        <ele>463.6</ele>
        <time>2022-08-29T04:01:02Z</time>
      </trkpt>
      <trkpt lat="42.4378480" lon="-2.5143830">
        <ele>464.0</ele>
        <time>2022-08-29T04:01:03Z</time>
      </trkpt>
      <trkpt lat="42.4378250" lon="-2.5143830">
        <ele>464.2</ele>
        <time>2022-08-29T04:01:04Z</time>
      </trkpt>
      <trkpt lat="42.4378030" lon="-2.5143870">
        <ele>464.4</ele>
        <time>2022-08-29T04:01:05Z</time>
      </trkpt>
      <trkpt lat="42.4377820" lon="-2.5143930">
        <ele>464.4</ele>
        <time>2022-08-29T04:01:06Z</time>
      </trkpt>
      <trkpt lat="42.4377630" lon="-2.5144020">
        <ele>464.4</ele>
        <time>2022-08-29T04:01:07Z</time>
      </trkpt>
      <trkpt lat="42.4377450" lon="-2.5144160">
        <ele>464.6</ele>
        <time>2022-08-29T04:01:08Z</time>
      </trkpt>
      <trkpt lat="42.4377300" lon="-2.5144310">
        <ele>465.0</ele>
        <time>2022-08-29T04:01:09Z</time>
      </trkpt>
      <trkpt lat="42.4377160" lon="-2.5144440">
        <ele>465.2</ele>
        <time>2022-08-29T04:01:10Z</time>
      </trkpt>
      <trkpt lat="42.4377060" lon="-2.5144580">
        <ele>465.2</ele>
        <time>2022-08-29T04:01:11Z</time>
      </trkpt>
      <trkpt lat="42.4376970" lon="-2.5144740">
        <ele>465.2</ele>
        <time>2022-08-29T04:01:12Z</time>
      </trkpt>
      <trkpt lat="42.4376890" lon="-2.5144930">
        <ele>465.6</ele>
        <time>2022-08-29T04:01:13Z</time>
      </trkpt>
      <trkpt lat="42.4376800" lon="-2.5145120">
        <ele>465.8</ele>
        <time>2022-08-29T04:01:14Z</time>
      </trkpt>
      <trkpt lat="42.4376700" lon="-2.5145310">
        <ele>466.0</ele>
        <time>2022-08-29T04:01:15Z</time>
      </trkpt>
      <trkpt lat="42.4376610" lon="-2.5145500">
        <ele>466.0</ele>
        <time>2022-08-29T04:01:16Z</time>
      </trkpt>
      <trkpt lat="42.4376500" lon="-2.5145710">
        <ele>466.4</ele>
        <time>2022-08-29T04:01:17Z</time>
      </trkpt>
      <trkpt lat="42.4376380" lon="-2.5145930">
        <ele>466.6</ele>
        <time>2022-08-29T04:01:18Z</time>
      </trkpt>
      <trkpt lat="42.4376270" lon="-2.5146140">
        <ele>466.8</ele>
        <time>2022-08-29T04:01:19Z</time>
      </trkpt>
      <trkpt lat="42.4376160" lon="-2.5146340">
        <ele>466.8</ele>
        <time>2022-08-29T04:01:20Z</time>
      </trkpt>
      <trkpt lat="42.4376060" lon="-2.5146540">
        <ele>467.0</ele>
        <time>2022-08-29T04:01:21Z</time>
      </trkpt>
      <trkpt lat="42.4375960" lon="-2.5146740">
        <ele>467.0</ele>
        <time>2022-08-29T04:01:22Z</time>
      </trkpt>
      <trkpt lat="42.4375870" lon="-2.5146940">
        <ele>467.0</ele>
        <time>2022-08-29T04:01:23Z</time>
      </trkpt>
      <trkpt lat="42.4375780" lon="-2.5147130">
        <ele>467.2</ele>
        <time>2022-08-29T04:01:24Z</time>
      </trkpt>
      <trkpt lat="42.4375690" lon="-2.5147320">
        <ele>467.4</ele>
        <time>2022-08-29T04:01:25Z</time>
      </trkpt>
      <trkpt lat="42.4375580" lon="-2.5147510">
        <ele>467.6</ele>
        <time>2022-08-29T04:01:26Z</time>
      </trkpt>
      <trkpt lat="42.4375490" lon="-2.5147710">
        <ele>467.8</ele>
        <time>2022-08-29T04:01:27Z</time>
      </trkpt>
      <trkpt lat="42.4375390" lon="-2.5147920">
        <ele>467.8</ele>
        <time>2022-08-29T04:01:28Z</time>
      </trkpt>
      <trkpt lat="42.4375320" lon="-2.5148140">
        <ele>468.2</ele>
        <time>2022-08-29T04:01:29Z</time>
      </trkpt>
      <trkpt lat="42.4375240" lon="-2.5148360">
        <ele>468.4</ele>
        <time>2022-08-29T04:01:30Z</time>
      </trkpt>
      <trkpt lat="42.4375150" lon="-2.5148570">
        <ele>468.4</ele>
        <time>2022-08-29T04:01:31Z</time>
      </trkpt>
      <trkpt lat="42.4375080" lon="-2.5148780">
        <ele>468.4</ele>
        <time>2022-08-29T04:01:32Z</time>
      </trkpt>
      <trkpt lat="42.4374980" lon="-2.5148990">
        <ele>468.8</ele>
        <time>2022-08-29T04:01:33Z</time>
      </trkpt>
      <trkpt lat="42.4374890" lon="-2.5149200">
        <ele>469.0</ele>
        <time>2022-08-29T04:01:34Z</time>
      </trkpt>
      <trkpt lat="42.4374810" lon="-2.5149420">
        <ele>469.2</ele>
        <time>2022-08-29T04:01:35Z</time>
      </trkpt>
      <trkpt lat="42.4374720" lon="-2.5149640">
        <ele>469.4</ele>
        <time>2022-08-29T04:01:36Z</time>
      </trkpt>
      <trkpt lat="42.4374640" lon="-2.5149860">
        <ele>469.6</ele>
        <time>2022-08-29T04:01:37Z</time>
      </trkpt>
      <trkpt lat="42.4374560" lon="-2.5150090">
        <ele>469.6</ele>
        <time>2022-08-29T04:01:38Z</time>
      </trkpt>
      <trkpt lat="42.4374480" lon="-2.5150330">
        <ele>469.8</ele>
        <time>2022-08-29T04:01:39Z</time>
      </trkpt>
      <trkpt lat="42.4374400" lon="-2.5150560">
        <ele>470.0</ele>
        <time>2022-08-29T04:01:40Z</time>
      </trkpt>
      <trkpt lat="42.4374320" lon="-2.5150790">
        <ele>470.2</ele>
        <time>2022-08-29T04:01:41Z</time>
      </trkpt>
      <trkpt lat="42.4374260" lon="-2.5151020">
        <ele>470.4</ele>
        <time>2022-08-29T04:01:42Z</time>
      </trkpt>
      <trkpt lat="42.4374190" lon="-2.5151250">
        <ele>470.6</ele>
        <time>2022-08-29T04:01:43Z</time>
      </trkpt>
      <trkpt lat="42.4374090" lon="-2.5151470">
        <ele>470.8</ele>
        <time>2022-08-29T04:01:44Z</time>
      </trkpt>
      <trkpt lat="42.4373970" lon="-2.5151680">
        <ele>470.8</ele>
        <time>2022-08-29T04:01:45Z</time>
      </trkpt>
      <trkpt lat="42.4373850" lon="-2.5151890">
        <ele>471.0</ele>
        <time>2022-08-29T04:01:46Z</time>
      </trkpt>
      <trkpt lat="42.4373730" lon="-2.5152100">
        <ele>471.0</ele>
        <time>2022-08-29T04:01:47Z</time>
      </trkpt>
      <trkpt lat="42.4373630" lon="-2.5152330">
        <ele>471.2</ele>
        <time>2022-08-29T04:01:48Z</time>
      </trkpt>
      <trkpt lat="42.4373520" lon="-2.5152530">
        <ele>471.6</ele>
        <time>2022-08-29T04:01:49Z</time>
      </trkpt>
      <trkpt lat="42.4373410" lon="-2.5152730">
        <ele>471.6</ele>
        <time>2022-08-29T04:01:50Z</time>
      </trkpt>
      <trkpt lat="42.4373290" lon="-2.5152940">
        <ele>471.8</ele>
        <time>2022-08-29T04:01:51Z</time>
      </trkpt>
      <trkpt lat="42.4373160" lon="-2.5153130">
        <ele>472.0</ele>
        <time>2022-08-29T04:01:52Z</time>
      </trkpt>
      <trkpt lat="42.4373020" lon="-2.5153320">
        <ele>472.2</ele>
        <time>2022-08-29T04:01:53Z</time>
      </trkpt>
      <trkpt lat="42.4372900" lon="-2.5153490">
        <ele>472.4</ele>
        <time>2022-08-29T04:01:54Z</time>
      </trkpt>
      <trkpt lat="42.4372780" lon="-2.5153660">
        <ele>472.4</ele>
        <time>2022-08-29T04:01:55Z</time>
      </trkpt>
      <trkpt lat="42.4372650" lon="-2.5153820">
        <ele>472.6</ele>
        <time>2022-08-29T04:01:56Z</time>
      </trkpt>
      <trkpt lat="42.4372520" lon="-2.5153990">
        <ele>472.6</ele>
        <time>2022-08-29T04:01:57Z</time>
      </trkpt>
      <trkpt lat="42.4372390" lon="-2.5154160">
        <ele>472.8</ele>
        <time>2022-08-29T04:01:58Z</time>
      </trkpt>
      <trkpt lat="42.4372250" lon="-2.5154310">
        <ele>473.0</ele>
        <time>2022-08-29T04:01:59Z</time>
      </trkpt>
      <trkpt lat="42.4372120" lon="-2.5154480">
        <ele>473.2</ele>
        <time>2022-08-29T04:02:00Z</time>
      </trkpt>
      <trkpt lat="42.4371990" lon="-2.5154640">
        <ele>473.2</ele>
        <time>2022-08-29T04:02:01Z</time>
      </trkpt>
      <trkpt lat="42.4371860" lon="-2.5154790">
        <ele>473.4</ele>
        <time>2022-08-29T04:02:02Z</time>
      </trkpt>
      <trkpt lat="42.4371730" lon="-2.5154940">
        <ele>473.6</ele>
        <time>2022-08-29T04:02:03Z</time>
      </trkpt>
      <trkpt lat="42.4371590" lon="-2.5155090">
        <ele>473.8</ele>
        <time>2022-08-29T04:02:04Z</time>
      </trkpt>
      <trkpt lat="42.4371460" lon="-2.5155240">
        <ele>474.0</ele>
        <time>2022-08-29T04:02:05Z</time>
      </trkpt>
      <trkpt lat="42.4371330" lon="-2.5155380">
        <ele>474.2</ele>
        <time>2022-08-29T04:02:06Z</time>
      </trkpt>
      <trkpt lat="42.4371200" lon="-2.5155520">
        <ele>474.6</ele>
        <time>2022-08-29T04:02:07Z</time>
      </trkpt>
      <trkpt lat="42.4371060" lon="-2.5155660">
        <ele>474.8</ele>
        <time>2022-08-29T04:02:08Z</time>
      </trkpt>
      <trkpt lat="42.4370920" lon="-2.5155780">
        <ele>475.0</ele>
        <time>2022-08-29T04:02:09Z</time>
      </trkpt>
      <trkpt lat="42.4370780" lon="-2.5155900">
        <ele>475.4</ele>
        <time>2022-08-29T04:02:10Z</time>
      </trkpt>
      <trkpt lat="42.4370640" lon="-2.5156010">
        <ele>475.4</ele>
        <time>2022-08-29T04:02:11Z</time>
      </trkpt>
      <trkpt lat="42.4370500" lon="-2.5156130">
        <ele>475.6</ele>
        <time>2022-08-29T04:02:12Z</time>
      </trkpt>
      <trkpt lat="42.4370370" lon="-2.5156240">
        <ele>476.0</ele>
        <time>2022-08-29T04:02:13Z</time>
      </trkpt>
      <trkpt lat="42.4370230" lon="-2.5156350">
        <ele>476.0</ele>
        <time>2022-08-29T04:02:14Z</time>
      </trkpt>
      <trkpt lat="42.4370080" lon="-2.5156450">
        <ele>476.2</ele>
        <time>2022-08-29T04:02:15Z</time>
      </trkpt>
      <trkpt lat="42.4369950" lon="-2.5156560">
        <ele>476.4</ele>
        <time>2022-08-29T04:02:16Z</time>
      </trkpt>
      <trkpt lat="42.4369800" lon="-2.5156680">
        <ele>476.6</ele>
        <time>2022-08-29T04:02:17Z</time>
      </trkpt>
      <trkpt lat="42.4369670" lon="-2.5156800">
        <ele>476.8</ele>
        <time>2022-08-29T04:02:18Z</time>
      </trkpt>
      <trkpt lat="42.4369550" lon="-2.5156910">
        <ele>476.8</ele>
        <time>2022-08-29T04:02:19Z</time>
      </trkpt>
      <trkpt lat="42.4369410" lon="-2.5157020">
        <ele>477.0</ele>
        <time>2022-08-29T04:02:20Z</time>
      </trkpt>
      <trkpt lat="42.4369280" lon="-2.5157140">
        <ele>477.2</ele>
        <time>2022-08-29T04:02:21Z</time>
      </trkpt>
      <trkpt lat="42.4369150" lon="-2.5157260">
        <ele>477.2</ele>
        <time>2022-08-29T04:02:22Z</time>
      </trkpt>
      <trkpt lat="42.4369010" lon="-2.5157380">
        <ele>477.4</ele>
        <time>2022-08-29T04:02:23Z</time>
      </trkpt>
      <trkpt lat="42.4368850" lon="-2.5157480">
        <ele>477.8</ele>
        <time>2022-08-29T04:02:24Z</time>
      </trkpt>
      <trkpt lat="42.4368700" lon="-2.5157570">
        <ele>478.0</ele>
        <time>2022-08-29T04:02:25Z</time>
      </trkpt>
      <trkpt lat="42.4368540" lon="-2.5157640">
        <ele>478.4</ele>
        <time>2022-08-29T04:02:26Z</time>
      </trkpt>
      <trkpt lat="42.4368380" lon="-2.5157700">
        <ele>478.4</ele>
        <time>2022-08-29T04:02:27Z</time>
      </trkpt>
      <trkpt lat="42.4368240" lon="-2.5157780">
        <ele>478.6</ele>
        <time>2022-08-29T04:02:28Z</time>
      </trkpt>
      <trkpt lat="42.4368110" lon="-2.5157880">
        <ele>479.0</ele>
        <time>2022-08-29T04:02:29Z</time>
      </trkpt>
      <trkpt lat="42.4367990" lon="-2.5158020">
        <ele>479.2</ele>
        <time>2022-08-29T04:02:30Z</time>
      </trkpt>
      <trkpt lat="42.4367870" lon="-2.5158160">
        <ele>479.6</ele>
        <time>2022-08-29T04:02:31Z</time>
      </trkpt>
      <trkpt lat="42.4367760" lon="-2.5158300">
        <ele>479.6</ele>
        <time>2022-08-29T04:02:32Z</time>
      </trkpt>
      <trkpt lat="42.4367640" lon="-2.5158440">
        <ele>479.8</ele>
        <time>2022-08-29T04:02:33Z</time>
      </trkpt>
      <trkpt lat="42.4367530" lon="-2.5158600">
        <ele>480.2</ele>
        <time>2022-08-29T04:02:34Z</time>
      </trkpt>
      <trkpt lat="42.4367420" lon="-2.5158750">
        <ele>480.2</ele>
        <time>2022-08-29T04:02:35Z</time>
      </trkpt>
      <trkpt lat="42.4367310" lon="-2.5158930">
        <ele>480.6</ele>
        <time>2022-08-29T04:02:36Z</time>
      </trkpt>
      <trkpt lat="42.4367200" lon="-2.5159090">
        <ele>480.6</ele>
        <time>2022-08-29T04:02:37Z</time>
      </trkpt>
      <trkpt lat="42.4367080" lon="-2.5159250">
        <ele>481.0</ele>
        <time>2022-08-29T04:02:38Z</time>
      </trkpt>
      <trkpt lat="42.4366970" lon="-2.5159430">
        <ele>481.2</ele>
        <time>2022-08-29T04:02:39Z</time>
      </trkpt>
      <trkpt lat="42.4366860" lon="-2.5159600">
        <ele>481.4</ele>
        <time>2022-08-29T04:02:40Z</time>
      </trkpt>
      <trkpt lat="42.4366760" lon="-2.5159780">
        <ele>481.4</ele>
        <time>2022-08-29T04:02:41Z</time>
      </trkpt>
      <trkpt lat="42.4366650" lon="-2.5159950">
        <ele>481.4</ele>
        <time>2022-08-29T04:02:42Z</time>
      </trkpt>
      <trkpt lat="42.4366550" lon="-2.5160110">
        <ele>481.8</ele>
        <time>2022-08-29T04:02:43Z</time>
      </trkpt>
      <trkpt lat="42.4366430" lon="-2.5160290">
        <ele>481.8</ele>
        <time>2022-08-29T04:02:44Z</time>
      </trkpt>
      <trkpt lat="42.4366330" lon="-2.5160460">
        <ele>482.0</ele>
        <time>2022-08-29T04:02:45Z</time>
      </trkpt>
      <trkpt lat="42.4366230" lon="-2.5160630">
        <ele>482.2</ele>
        <time>2022-08-29T04:02:46Z</time>
      </trkpt>
      <trkpt lat="42.4366120" lon="-2.5160790">
        <ele>482.2</ele>
        <time>2022-08-29T04:02:47Z</time>
      </trkpt>
      <trkpt lat="42.4366020" lon="-2.5160950">
        <ele>482.4</ele>
        <time>2022-08-29T04:02:48Z</time>
      </trkpt>
      <trkpt lat="42.4365930" lon="-2.5161130">
        <ele>482.6</ele>
        <time>2022-08-29T04:02:49Z</time>
      </trkpt>
      <trkpt lat="42.4365840" lon="-2.5161320">
        <ele>482.8</ele>
        <time>2022-08-29T04:02:50Z</time>
      </trkpt>
      <trkpt lat="42.4365770" lon="-2.5161510">
        <ele>482.8</ele>
        <time>2022-08-29T04:02:51Z</time>
      </trkpt>
      <trkpt lat="42.4365710" lon="-2.5161720">
        <ele>483.2</ele>
        <time>2022-08-29T04:02:52Z</time>
      </trkpt>
      <trkpt lat="42.4365650" lon="-2.5161920">
        <ele>483.2</ele>
        <time>2022-08-29T04:02:53Z</time>
      </trkpt>
      <trkpt lat="42.4365580" lon="-2.5162120">
        <ele>483.6</ele>
        <time>2022-08-29T04:02:54Z</time>
      </trkpt>
      <trkpt lat="42.4365530" lon="-2.5162320">
        <ele>483.8</ele>
        <time>2022-08-29T04:02:55Z</time>
      </trkpt>
      <trkpt lat="42.4365500" lon="-2.5162530">
        <ele>484.2</ele>
        <time>2022-08-29T04:02:56Z</time>
      </trkpt>
      <trkpt lat="42.4365480" lon="-2.5162750">
        <ele>484.4</ele>
        <time>2022-08-29T04:02:57Z</time>
      </trkpt>
      <trkpt lat="42.4365490" lon="-2.5162970">
        <ele>484.6</ele>
        <time>2022-08-29T04:02:58Z</time>
      </trkpt>
      <trkpt lat="42.4365530" lon="-2.5163180">
        <ele>484.6</ele>
        <time>2022-08-29T04:02:59Z</time>
      </trkpt>
      <trkpt lat="42.4365600" lon="-2.5163370">
        <ele>485.0</ele>
        <time>2022-08-29T04:03:00Z</time>
      </trkpt>
      <trkpt lat="42.4365680" lon="-2.5163560">
        <ele>485.4</ele>
        <time>2022-08-29T04:03:01Z</time>
      </trkpt>
      <trkpt lat="42.4365770" lon="-2.5163750">
        <ele>485.6</ele>
        <time>2022-08-29T04:03:02Z</time>
      </trkpt>
      <trkpt lat="42.4365880" lon="-2.5163910">
        <ele>485.8</ele>
        <time>2022-08-29T04:03:03Z</time>
      </trkpt>
      <trkpt lat="42.4366000" lon="-2.5164060">
        <ele>486.0</ele>
        <time>2022-08-29T04:03:04Z</time>
      </trkpt>
      <trkpt lat="42.4366120" lon="-2.5164200">
        <ele>486.0</ele>
        <time>2022-08-29T04:03:05Z</time>
      </trkpt>
      <trkpt lat="42.4366240" lon="-2.5164350">
        <ele>486.4</ele>
        <time>2022-08-29T04:03:06Z</time>
      </trkpt>
      <trkpt lat="42.4366370" lon="-2.5164500">
        <ele>486.4</ele>
        <time>2022-08-29T04:03:07Z</time>
      </trkpt>
      <trkpt lat="42.4366510" lon="-2.5164640">
        <ele>486.8</ele>
        <time>2022-08-29T04:03:08Z</time>
      </trkpt>
      <trkpt lat="42.4366640" lon="-2.5164790">
        <ele>486.8</ele>
        <time>2022-08-29T04:03:09Z</time>
      </trkpt>
      <trkpt lat="42.4366780" lon="-2.5164930">
        <ele>487.0</ele>
        <time>2022-08-29T04:03:10Z</time>
      </trkpt>
      <trkpt lat="42.4366920" lon="-2.5165080">
        <ele>487.0</ele>
        <time>2022-08-29T04:03:11Z</time>
      </trkpt>
      <trkpt lat="42.4367050" lon="-2.5165250">
        <ele>487.2</ele>
        <time>2022-08-29T04:03:12Z</time>
      </trkpt>
      <trkpt lat="42.4367170" lon="-2.5165440">
        <ele>487.4</ele>
        <time>2022-08-29T04:03:13Z</time>
      </trkpt>
      <trkpt lat="42.4367280" lon="-2.5165640">
        <ele>487.6</ele>
        <time>2022-08-29T04:03:14Z</time>
      </trkpt>
      <trkpt lat="42.4367410" lon="-2.5165820">
        <ele>487.8</ele>
        <time>2022-08-29T04:03:15Z</time>
      </trkpt>
      <trkpt lat="42.4367540" lon="-2.5166000">
        <ele>487.8</ele>
        <time>2022-08-29T04:03:16Z</time>
      </trkpt>
      <trkpt lat="42.4367660" lon="-2.5166230">
        <ele>488.0</ele>
        <time>2022-08-29T04:03:17Z</time>
      </trkpt>
      <trkpt lat="42.4367790" lon="-2.5166460">
        <ele>488.2</ele>
        <time>2022-08-29T04:03:18Z</time>
      </trkpt>
      <trkpt lat="42.4367920" lon="-2.5166680">
        <ele>488.2</ele>
        <time>2022-08-29T04:03:19Z</time>
      </trkpt>
      <trkpt lat="42.4368050" lon="-2.5166920">
        <ele>488.4</ele>
        <time>2022-08-29T04:03:20Z</time>
      </trkpt>
      <trkpt lat="42.4368190" lon="-2.5167160">
        <ele>488.6</ele>
        <time>2022-08-29T04:03:21Z</time>
      </trkpt>
      <trkpt lat="42.4368350" lon="-2.5167420">
        <ele>488.6</ele>
        <time>2022-08-29T04:03:22Z</time>
      </trkpt>
      <trkpt lat="42.4368500" lon="-2.5167720">
        <ele>489.0</ele>
        <time>2022-08-29T04:03:23Z</time>
      </trkpt>
      <trkpt lat="42.4368660" lon="-2.5168020">
        <ele>489.0</ele>
        <time>2022-08-29T04:03:24Z</time>
      </trkpt>
      <trkpt lat="42.4368840" lon="-2.5168290">
        <ele>489.0</ele>
        <time>2022-08-29T04:03:25Z</time>
      </trkpt>
      <trkpt lat="42.4369020" lon="-2.5168550">
        <ele>489.0</ele>
        <time>2022-08-29T04:03:26Z</time>
      </trkpt>
      <trkpt lat="42.4369210" lon="-2.5168820">
        <ele>489.4</ele>
        <time>2022-08-29T04:03:27Z</time>
      </trkpt>
      <trkpt lat="42.4369400" lon="-2.5169090">
        <ele>489.4</ele>
        <time>2022-08-29T04:03:28Z</time>
      </trkpt>
      <trkpt lat="42.4369600" lon="-2.5169370">
        <ele>489.4</ele>
        <time>2022-08-29T04:03:29Z</time>
      </trkpt>
      <trkpt lat="42.4369830" lon="-2.5169700">
        <ele>489.4</ele>
        <time>2022-08-29T04:03:30Z</time>
      </trkpt>
      <trkpt lat="42.4370070" lon="-2.5170030">
        <ele>489.4</ele>
        <time>2022-08-29T04:03:31Z</time>
      </trkpt>
      <trkpt lat="42.4370310" lon="-2.5170360">
        <ele>489.6</ele>
        <time>2022-08-29T04:03:32Z</time>
      </trkpt>
      <trkpt lat="42.4370550" lon="-2.5170680">
        <ele>489.6</ele>
        <time>2022-08-29T04:03:33Z</time>
      </trkpt>
      <trkpt lat="42.4370790" lon="-2.5171000">
        <ele>489.4</ele>
        <time>2022-08-29T04:03:34Z</time>
      </trkpt>
      <trkpt lat="42.4371040" lon="-2.5171320">
        <ele>489.6</ele>
        <time>2022-08-29T04:03:35Z</time>
      </trkpt>
      <trkpt lat="42.4371270" lon="-2.5171630">
        <ele>489.6</ele>
        <time>2022-08-29T04:03:36Z</time>
      </trkpt>
      <trkpt lat="42.4371520" lon="-2.5171940">
        <ele>489.6</ele>
        <time>2022-08-29T04:03:37Z</time>
      </trkpt>
      <trkpt lat="42.4371760" lon="-2.5172240">
        <ele>489.6</ele>
        <time>2022-08-29T04:03:38Z</time>
      </trkpt>
      <trkpt lat="42.4372000" lon="-2.5172550">
        <ele>489.6</ele>
        <time>2022-08-29T04:03:39Z</time>
      </trkpt>
      <trkpt lat="42.4372240" lon="-2.5172870">
        <ele>489.6</ele>
        <time>2022-08-29T04:03:40Z</time>
      </trkpt>
      <trkpt lat="42.4372480" lon="-2.5173180">
        <ele>489.6</ele>
        <time>2022-08-29T04:03:41Z</time>
      </trkpt>
      <trkpt lat="42.4372710" lon="-2.5173490">
        <ele>489.6</ele>
        <time>2022-08-29T04:03:42Z</time>
      </trkpt>
      <trkpt lat="42.4372950" lon="-2.5173790">
        <ele>489.6</ele>
        <time>2022-08-29T04:03:43Z</time>
      </trkpt>
      <trkpt lat="42.4373200" lon="-2.5174080">
        <ele>489.8</ele>
        <time>2022-08-29T04:03:44Z</time>
      </trkpt>
      <trkpt lat="42.4373460" lon="-2.5174390">
        <ele>489.6</ele>
        <time>2022-08-29T04:03:45Z</time>
      </trkpt>
      <trkpt lat="42.4373700" lon="-2.5174710">
        <ele>489.8</ele>
        <time>2022-08-29T04:03:46Z</time>
      </trkpt>
      <trkpt lat="42.4373940" lon="-2.5175050">
        <ele>489.8</ele>
        <time>2022-08-29T04:03:47Z</time>
      </trkpt>
      <trkpt lat="42.4374180" lon="-2.5175400">
        <ele>489.8</ele>
        <time>2022-08-29T04:03:48Z</time>
      </trkpt>
      <trkpt lat="42.4374430" lon="-2.5175760">
        <ele>489.8</ele>
        <time>2022-08-29T04:03:49Z</time>
      </trkpt>
      <trkpt lat="42.4374670" lon="-2.5176130">
        <ele>490.0</ele>
        <time>2022-08-29T04:03:50Z</time>
      </trkpt>
      <trkpt lat="42.4374910" lon="-2.5176520">
        <ele>489.8</ele>
        <time>2022-08-29T04:03:51Z</time>
      </trkpt>
      <trkpt lat="42.4375140" lon="-2.5176900">
        <ele>490.0</ele>
        <time>2022-08-29T04:03:52Z</time>
      </trkpt>
      <trkpt lat="42.4375380" lon="-2.5177280">
        <ele>490.0</ele>
        <time>2022-08-29T04:03:53Z</time>
      </trkpt>
      <trkpt lat="42.4375610" lon="-2.5177660">
        <ele>490.0</ele>
        <time>2022-08-29T04:03:54Z</time>
      </trkpt>
      <trkpt lat="42.4375830" lon="-2.5178040">
        <ele>489.8</ele>
        <time>2022-08-29T04:03:55Z</time>
      </trkpt>
      <trkpt lat="42.4376050" lon="-2.5178420">
        <ele>490.0</ele>
        <time>2022-08-29T04:03:56Z</time>
      </trkpt>
      <trkpt lat="42.4376260" lon="-2.5178810">
        <ele>490.0</ele>
        <time>2022-08-29T04:03:57Z</time>
      </trkpt>
      <trkpt lat="42.4376470" lon="-2.5179190">
        <ele>490.0</ele>
        <time>2022-08-29T04:03:58Z</time>
      </trkpt>
      <trkpt lat="42.4376650" lon="-2.5179570">
        <ele>490.0</ele>
        <time>2022-08-29T04:03:59Z</time>
      </trkpt>
      <trkpt lat="42.4376820" lon="-2.5179960">
        <ele>489.8</ele>
        <time>2022-08-29T04:04:00Z</time>
      </trkpt>
      <trkpt lat="42.4376980" lon="-2.5180350">
        <ele>489.8</ele>
        <time>2022-08-29T04:04:01Z</time>
      </trkpt>
      <trkpt lat="42.4377130" lon="-2.5180770">
        <ele>489.8</ele>
        <time>2022-08-29T04:04:02Z</time>
      </trkpt>
      <trkpt lat="42.4377270" lon="-2.5181190">
        <ele>490.0</ele>
        <time>2022-08-29T04:04:03Z</time>
      </trkpt>
      <trkpt lat="42.4377410" lon="-2.5181610">
        <ele>490.0</ele>
        <time>2022-08-29T04:04:04Z</time>
      </trkpt>
      <trkpt lat="42.4377540" lon="-2.5182040">
        <ele>490.0</ele>
        <time>2022-08-29T04:04:05Z</time>
      </trkpt>
      <trkpt lat="42.4377680" lon="-2.5182460">
        <ele>490.0</ele>
        <time>2022-08-29T04:04:06Z</time>
      </trkpt>
      <trkpt lat="42.4377810" lon="-2.5182870">
        <ele>490.0</ele>
        <time>2022-08-29T04:04:07Z</time>
      </trkpt>
      <trkpt lat="42.4377940" lon="-2.5183280">
        <ele>490.2</ele>
        <time>2022-08-29T04:04:08Z</time>
      </trkpt>
      <trkpt lat="42.4378070" lon="-2.5183680">
        <ele>490.2</ele>
        <time>2022-08-29T04:04:09Z</time>
      </trkpt>
      <trkpt lat="42.4378190" lon="-2.5184060">
        <ele>490.4</ele>
        <time>2022-08-29T04:04:10Z</time>
      </trkpt>
      <trkpt lat="42.4378310" lon="-2.5184420">
        <ele>490.4</ele>
        <time>2022-08-29T04:04:11Z</time>
      </trkpt>
      <trkpt lat="42.4378440" lon="-2.5184770">
        <ele>490.6</ele>
        <time>2022-08-29T04:04:12Z</time>
      </trkpt>
      <trkpt lat="42.4378570" lon="-2.5185080">
        <ele>490.8</ele>
        <time>2022-08-29T04:04:13Z</time>
      </trkpt>
      <trkpt lat="42.4378670" lon="-2.5185390">
        <ele>491.0</ele>
        <time>2022-08-29T04:04:14Z</time>
      </trkpt>
      <trkpt lat="42.4378750" lon="-2.5185700">
        <ele>491.0</ele>
        <time>2022-08-29T04:04:15Z</time>
      </trkpt>
      <trkpt lat="42.4378830" lon="-2.5185990">
        <ele>491.2</ele>
        <time>2022-08-29T04:04:16Z</time>
      </trkpt>
      <trkpt lat="42.4378910" lon="-2.5186270">
        <ele>491.0</ele>
        <time>2022-08-29T04:04:17Z</time>
      </trkpt>
      <trkpt lat="42.4379000" lon="-2.5186550">
        <ele>491.0</ele>
        <time>2022-08-29T04:04:18Z</time>
      </trkpt>
      <trkpt lat="42.4379070" lon="-2.5186850">
        <ele>491.4</ele>
        <time>2022-08-29T04:04:19Z</time>
      </trkpt>
      <trkpt lat="42.4379150" lon="-2.5187140">
        <ele>491.4</ele>
        <time>2022-08-29T04:04:20Z</time>
      </trkpt>
      <trkpt lat="42.4379220" lon="-2.5187460">
        <ele>491.8</ele>
        <time>2022-08-29T04:04:21Z</time>
      </trkpt>
      <trkpt lat="42.4379290" lon="-2.5187770">
        <ele>492.0</ele>
        <time>2022-08-29T04:04:22Z</time>
      </trkpt>
      <trkpt lat="42.4379380" lon="-2.5188070">
        <ele>492.2</ele>
        <time>2022-08-29T04:04:23Z</time>
      </trkpt>
      <trkpt lat="42.4379460" lon="-2.5188380">
        <ele>492.6</ele>
        <time>2022-08-29T04:04:24Z</time>
      </trkpt>
      <trkpt lat="42.4379540" lon="-2.5188690">
        <ele>492.8</ele>
        <time>2022-08-29T04:04:25Z</time>
      </trkpt>
      <trkpt lat="42.4379640" lon="-2.5189010">
        <ele>493.2</ele>
        <time>2022-08-29T04:04:26Z</time>
      </trkpt>
      <trkpt lat="42.4379740" lon="-2.5189330">
        <ele>493.4</ele>
        <time>2022-08-29T04:04:27Z</time>
      </trkpt>
      <trkpt lat="42.4379850" lon="-2.5189650">
        <ele>493.6</ele>
        <time>2022-08-29T04:04:28Z</time>
      </trkpt>
      <trkpt lat="42.4379980" lon="-2.5189980">
        <ele>493.8</ele>
        <time>2022-08-29T04:04:29Z</time>
      </trkpt>
      <trkpt lat="42.4380110" lon="-2.5190310">
        <ele>494.0</ele>
        <time>2022-08-29T04:04:30Z</time>
      </trkpt>
      <trkpt lat="42.4380240" lon="-2.5190630">
        <ele>494.0</ele>
        <time>2022-08-29T04:04:31Z</time>
      </trkpt>
      <trkpt lat="42.4380380" lon="-2.5190950">
        <ele>494.2</ele>
        <time>2022-08-29T04:04:32Z</time>
      </trkpt>
      <trkpt lat="42.4380530" lon="-2.5191250">
        <ele>494.4</ele>
        <time>2022-08-29T04:04:33Z</time>
      </trkpt>
      <trkpt lat="42.4380680" lon="-2.5191550">
        <ele>494.4</ele>
        <time>2022-08-29T04:04:34Z</time>
      </trkpt>
      <trkpt lat="42.4380850" lon="-2.5191870">
        <ele>494.6</ele>
        <time>2022-08-29T04:04:35Z</time>
      </trkpt>
      <trkpt lat="42.4381020" lon="-2.5192180">
        <ele>494.8</ele>
        <time>2022-08-29T04:04:36Z</time>
      </trkpt>
      <trkpt lat="42.4381170" lon="-2.5192480">
        <ele>494.8</ele>
        <time>2022-08-29T04:04:37Z</time>
      </trkpt>
      <trkpt lat="42.4381320" lon="-2.5192780">
        <ele>495.0</ele>
        <time>2022-08-29T04:04:38Z</time>
      </trkpt>
      <trkpt lat="42.4381460" lon="-2.5193070">
        <ele>495.0</ele>
        <time>2022-08-29T04:04:39Z</time>
      </trkpt>
      <trkpt lat="42.4381590" lon="-2.5193350">
        <ele>495.0</ele>
        <time>2022-08-29T04:04:40Z</time>
      </trkpt>
      <trkpt lat="42.4381700" lon="-2.5193630">
        <ele>495.2</ele>
        <time>2022-08-29T04:04:41Z</time>
      </trkpt>
      <trkpt lat="42.4381820" lon="-2.5193900">
        <ele>495.2</ele>
        <time>2022-08-29T04:04:42Z</time>
      </trkpt>
      <trkpt lat="42.4381940" lon="-2.5194160">
        <ele>495.2</ele>
        <time>2022-08-29T04:04:43Z</time>
      </trkpt>
      <trkpt lat="42.4382050" lon="-2.5194400">
        <ele>495.4</ele>
        <time>2022-08-29T04:04:44Z</time>
      </trkpt>
      <trkpt lat="42.4382160" lon="-2.5194650">
        <ele>495.6</ele>
        <time>2022-08-29T04:04:45Z</time>
      </trkpt>
      <trkpt lat="42.4382280" lon="-2.5194890">
        <ele>495.8</ele>
        <time>2022-08-29T04:04:46Z</time>
      </trkpt>
      <trkpt lat="42.4382390" lon="-2.5195120">
        <ele>496.0</ele>
        <time>2022-08-29T04:04:47Z</time>
      </trkpt>
      <trkpt lat="42.4382500" lon="-2.5195350">
        <ele>496.0</ele>
        <time>2022-08-29T04:04:48Z</time>
      </trkpt>
      <trkpt lat="42.4382610" lon="-2.5195580">
        <ele>496.4</ele>
        <time>2022-08-29T04:04:49Z</time>
      </trkpt>
      <trkpt lat="42.4382720" lon="-2.5195810">
        <ele>496.4</ele>
        <time>2022-08-29T04:04:50Z</time>
      </trkpt>
      <trkpt lat="42.4382850" lon="-2.5196020">
        <ele>496.6</ele>
        <time>2022-08-29T04:04:51Z</time>
      </trkpt>
      <trkpt lat="42.4382980" lon="-2.5196230">
        <ele>496.8</ele>
        <time>2022-08-29T04:04:52Z</time>
      </trkpt>
      <trkpt lat="42.4383120" lon="-2.5196430">
        <ele>497.2</ele>
        <time>2022-08-29T04:04:53Z</time>
      </trkpt>
      <trkpt lat="42.4383270" lon="-2.5196610">
        <ele>497.4</ele>
        <time>2022-08-29T04:04:54Z</time>
      </trkpt>
      <trkpt lat="42.4383420" lon="-2.5196790">
        <ele>497.6</ele>
        <time>2022-08-29T04:04:55Z</time>
      </trkpt>
      <trkpt lat="42.4383560" lon="-2.5196980">
        <ele>498.0</ele>
        <time>2022-08-29T04:04:56Z</time>
      </trkpt>
      <trkpt lat="42.4383720" lon="-2.5197160">
        <ele>498.2</ele>
        <time>2022-08-29T04:04:57Z</time>
      </trkpt>
      <trkpt lat="42.4383880" lon="-2.5197330">
        <ele>498.2</ele>
        <time>2022-08-29T04:04:58Z</time>
      </trkpt>
      <trkpt lat="42.4384020" lon="-2.5197520">
        <ele>498.4</ele>
        <time>2022-08-29T04:04:59Z</time>
      </trkpt>
      <trkpt lat="42.4384170" lon="-2.5197700">
        <ele>498.8</ele>
        <time>2022-08-29T04:05:00Z</time>
      </trkpt>
      <trkpt lat="42.4384310" lon="-2.5197890">
        <ele>498.8</ele>
        <time>2022-08-29T04:05:01Z</time>
      </trkpt>
      <trkpt lat="42.4384440" lon="-2.5198100">
        <ele>499.0</ele>
        <time>2022-08-29T04:05:02Z</time>
      </trkpt>
      <trkpt lat="42.4384590" lon="-2.5198310">
        <ele>499.0</ele>
        <time>2022-08-29T04:05:03Z</time>
      </trkpt>
      <trkpt lat="42.4384740" lon="-2.5198530">
        <ele>499.4</ele>
        <time>2022-08-29T04:05:04Z</time>
      </trkpt>
      <trkpt lat="42.4384880" lon="-2.5198760">
        <ele>499.6</ele>
        <time>2022-08-29T04:05:05Z</time>
      </trkpt>
      <trkpt lat="42.4385020" lon="-2.5198980">
        <ele>499.6</ele>
        <time>2022-08-29T04:05:06Z</time>
      </trkpt>
      <trkpt lat="42.4385170" lon="-2.5199200">
        <ele>500.0</ele>
        <time>2022-08-29T04:05:07Z</time>
      </trkpt>
      <trkpt lat="42.4385320" lon="-2.5199440">
        <ele>500.2</ele>
        <time>2022-08-29T04:05:08Z</time>
      </trkpt>
      <trkpt lat="42.4385470" lon="-2.5199670">
        <ele>500.4</ele>
        <time>2022-08-29T04:05:09Z</time>
      </trkpt>
      <trkpt lat="42.4385630" lon="-2.5199950">
        <ele>500.6</ele>
        <time>2022-08-29T04:05:10Z</time>
      </trkpt>
      <trkpt lat="42.4385770" lon="-2.5200240">
        <ele>500.8</ele>
        <time>2022-08-29T04:05:11Z</time>
      </trkpt>
      <trkpt lat="42.4385910" lon="-2.5200550">
        <ele>500.8</ele>
        <time>2022-08-29T04:05:12Z</time>
      </trkpt>
      <trkpt lat="42.4386040" lon="-2.5200900">
        <ele>500.8</ele>
        <time>2022-08-29T04:05:13Z</time>
      </trkpt>
      <trkpt lat="42.4386180" lon="-2.5201260">
        <ele>501.2</ele>
        <time>2022-08-29T04:05:14Z</time>
      </trkpt>
      <trkpt lat="42.4386310" lon="-2.5201620">
        <ele>501.2</ele>
        <time>2022-08-29T04:05:15Z</time>
      </trkpt>
      <trkpt lat="42.4386450" lon="-2.5202000">
        <ele>501.2</ele>
        <time>2022-08-29T04:05:16Z</time>
      </trkpt>
      <trkpt lat="42.4386590" lon="-2.5202390">
        <ele>501.4</ele>
        <time>2022-08-29T04:05:17Z</time>
      </trkpt>
      <trkpt lat="42.4386740" lon="-2.5202790">
        <ele>501.4</ele>
        <time>2022-08-29T04:05:18Z</time>
      </trkpt>
      <trkpt lat="42.4386890" lon="-2.5203170">
        <ele>501.4</ele>
        <time>2022-08-29T04:05:19Z</time>
      </trkpt>
      <trkpt lat="42.4387030" lon="-2.5203550">
        <ele>501.4</ele>
        <time>2022-08-29T04:05:20Z</time>
      </trkpt>
      <trkpt lat="42.4387170" lon="-2.5203920">
        <ele>501.4</ele>
        <time>2022-08-29T04:05:21Z</time>
      </trkpt>
      <trkpt lat="42.4387300" lon="-2.5204280">
        <ele>501.6</ele>
        <time>2022-08-29T04:05:22Z</time>
      </trkpt>
      <trkpt lat="42.4387430" lon="-2.5204650">
        <ele>501.6</ele>
        <time>2022-08-29T04:05:23Z</time>
      </trkpt>
      <trkpt lat="42.4387550" lon="-2.5205030">
        <ele>501.6</ele>
        <time>2022-08-29T04:05:24Z</time>
      </trkpt>
      <trkpt lat="42.4387680" lon="-2.5205410">
        <ele>501.4</ele>
        <time>2022-08-29T04:05:25Z</time>
      </trkpt>
      <trkpt lat="42.4387800" lon="-2.5205790">
        <ele>501.4</ele>
        <time>2022-08-29T04:05:26Z</time>
      </trkpt>
      <trkpt lat="42.4387940" lon="-2.5206140">
        <ele>501.6</ele>
        <time>2022-08-29T04:05:27Z</time>
      </trkpt>
      <trkpt lat="42.4388060" lon="-2.5206470">
        <ele>501.8</ele>
        <time>2022-08-29T04:05:28Z</time>
      </trkpt>
      <trkpt lat="42.4388190" lon="-2.5206780">
        <ele>501.6</ele>
        <time>2022-08-29T04:05:29Z</time>
      </trkpt>
      <trkpt lat="42.4388330" lon="-2.5207060">
        <ele>501.6</ele>
        <time>2022-08-29T04:05:30Z</time>
      </trkpt>
      <trkpt lat="42.4388470" lon="-2.5207340">
        <ele>501.8</ele>
        <time>2022-08-29T04:05:31Z</time>
      </trkpt>
      <trkpt lat="42.4388600" lon="-2.5207630">
        <ele>501.8</ele>
        <time>2022-08-29T04:05:32Z</time>
      </trkpt>
      <trkpt lat="42.4388720" lon="-2.5207910">
        <ele>502.0</ele>
        <time>2022-08-29T04:05:33Z</time>
      </trkpt>
      <trkpt lat="42.4388820" lon="-2.5208180">
        <ele>502.0</ele>
        <time>2022-08-29T04:05:34Z</time>
      </trkpt>
      <trkpt lat="42.4388940" lon="-2.5208430">
        <ele>502.2</ele>
        <time>2022-08-29T04:05:35Z</time>
      </trkpt>
      <trkpt lat="42.4389040" lon="-2.5208700">
        <ele>502.2</ele>
        <time>2022-08-29T04:05:36Z</time>
      </trkpt>
      <trkpt lat="42.4389160" lon="-2.5208950">
        <ele>502.6</ele>
        <time>2022-08-29T04:05:37Z</time>
      </trkpt>
      <trkpt lat="42.4389270" lon="-2.5209200">
        <ele>502.6</ele>
        <time>2022-08-29T04:05:38Z</time>
      </trkpt>
      <trkpt lat="42.4389380" lon="-2.5209440">
        <ele>502.8</ele>
        <time>2022-08-29T04:05:39Z</time>
      </trkpt>
      <trkpt lat="42.4389500" lon="-2.5209670">
        <ele>503.0</ele>
        <time>2022-08-29T04:05:40Z</time>
      </trkpt>
      <trkpt lat="42.4389620" lon="-2.5209890">
        <ele>503.2</ele>
        <time>2022-08-29T04:05:41Z</time>
      </trkpt>
      <trkpt lat="42.4389740" lon="-2.5210120">
        <ele>503.4</ele>
        <time>2022-08-29T04:05:42Z</time>
      </trkpt>
      <trkpt lat="42.4389850" lon="-2.5210350">
        <ele>503.6</ele>
        <time>2022-08-29T04:05:43Z</time>
      </trkpt>
      <trkpt lat="42.4389960" lon="-2.5210590">
        <ele>503.8</ele>
        <time>2022-08-29T04:05:44Z</time>
      </trkpt>
      <trkpt lat="42.4390110" lon="-2.5210820">
        <ele>504.0</ele>
        <time>2022-08-29T04:05:45Z</time>
      </trkpt>
      <trkpt lat="42.4390230" lon="-2.5211040">
        <ele>504.2</ele>
        <time>2022-08-29T04:05:46Z</time>
      </trkpt>
      <trkpt lat="42.4390360" lon="-2.5211250">
        <ele>504.2</ele>
        <time>2022-08-29T04:05:47Z</time>
      </trkpt>
      <trkpt lat="42.4390500" lon="-2.5211490">
        <ele>504.4</ele>
        <time>2022-08-29T04:05:48Z</time>
      </trkpt>
      <trkpt lat="42.4390640" lon="-2.5211700">
        <ele>504.8</ele>
        <time>2022-08-29T04:05:49Z</time>
      </trkpt>
      <trkpt lat="42.4390800" lon="-2.5211900">
        <ele>505.0</ele>
        <time>2022-08-29T04:05:50Z</time>
      </trkpt>
      <trkpt lat="42.4390940" lon="-2.5212060">
        <ele>505.2</ele>
        <time>2022-08-29T04:05:51Z</time>
      </trkpt>
      <trkpt lat="42.4391090" lon="-2.5212240">
        <ele>505.4</ele>
        <time>2022-08-29T04:05:52Z</time>
      </trkpt>
      <trkpt lat="42.4391230" lon="-2.5212410">
        <ele>505.8</ele>
        <time>2022-08-29T04:05:53Z</time>
      </trkpt>
      <trkpt lat="42.4391340" lon="-2.5212590">
        <ele>505.8</ele>
        <time>2022-08-29T04:05:54Z</time>
      </trkpt>
      <trkpt lat="42.4391430" lon="-2.5212820">
        <ele>505.8</ele>
        <time>2022-08-29T04:05:55Z</time>
      </trkpt>
      <trkpt lat="42.4391520" lon="-2.5213080">
        <ele>506.0</ele>
        <time>2022-08-29T04:05:56Z</time>
      </trkpt>
      <trkpt lat="42.4391620" lon="-2.5213330">
        <ele>506.2</ele>
        <time>2022-08-29T04:05:57Z</time>
      </trkpt>
      <trkpt lat="42.4391700" lon="-2.5213600">
        <ele>506.6</ele>
        <time>2022-08-29T04:05:58Z</time>
      </trkpt>
      <trkpt lat="42.4391780" lon="-2.5213880">
        <ele>506.6</ele>
        <time>2022-08-29T04:05:59Z</time>
      </trkpt>
      <trkpt lat="42.4391850" lon="-2.5214140">
        <ele>506.8</ele>
        <time>2022-08-29T04:06:00Z</time>
      </trkpt>
      <trkpt lat="42.4391910" lon="-2.5214400">
        <ele>507.0</ele>
        <time>2022-08-29T04:06:01Z</time>
      </trkpt>
      <trkpt lat="42.4391960" lon="-2.5214670">
        <ele>507.2</ele>
        <time>2022-08-29T04:06:02Z</time>
      </trkpt>
      <trkpt lat="42.4392030" lon="-2.5214940">
        <ele>507.2</ele>
        <time>2022-08-29T04:06:03Z</time>
      </trkpt>
      <trkpt lat="42.4392100" lon="-2.5215210">
        <ele>507.2</ele>
        <time>2022-08-29T04:06:04Z</time>
      </trkpt>
      <trkpt lat="42.4392190" lon="-2.5215480">
        <ele>507.4</ele>
        <time>2022-08-29T04:06:05Z</time>
      </trkpt>
      <trkpt lat="42.4392270" lon="-2.5215740">
        <ele>507.6</ele>
        <time>2022-08-29T04:06:06Z</time>
      </trkpt>
      <trkpt lat="42.4392340" lon="-2.5216000">
        <ele>507.6</ele>
        <time>2022-08-29T04:06:07Z</time>
      </trkpt>
      <trkpt lat="42.4392400" lon="-2.5216230">
        <ele>507.6</ele>
        <time>2022-08-29T04:06:08Z</time>
      </trkpt>
      <trkpt lat="42.4392470" lon="-2.5216480">
        <ele>507.8</ele>
        <time>2022-08-29T04:06:09Z</time>
      </trkpt>
      <trkpt lat="42.4392540" lon="-2.5216750">
        <ele>508.0</ele>
        <time>2022-08-29T04:06:10Z</time>
      </trkpt>
      <trkpt lat="42.4392610" lon="-2.5217010">
        <ele>508.0</ele>
        <time>2022-08-29T04:06:11Z</time>
      </trkpt>
      <trkpt lat="42.4392680" lon="-2.5217250">
        <ele>508.2</ele>
        <time>2022-08-29T04:06:12Z</time>
      </trkpt>
      <trkpt lat="42.4392780" lon="-2.5217470">
        <ele>508.4</ele>
        <time>2022-08-29T04:06:13Z</time>
      </trkpt>
      <trkpt lat="42.4392880" lon="-2.5217680">
        <ele>508.6</ele>
        <time>2022-08-29T04:06:14Z</time>
      </trkpt>
      <trkpt lat="42.4392980" lon="-2.5217890">
        <ele>508.6</ele>
        <time>2022-08-29T04:06:15Z</time>
      </trkpt>
      <trkpt lat="42.4393060" lon="-2.5218110">
        <ele>508.8</ele>
        <time>2022-08-29T04:06:16Z</time>
      </trkpt>
      <trkpt lat="42.4393150" lon="-2.5218330">
        <ele>509.0</ele>
        <time>2022-08-29T04:06:17Z</time>
      </trkpt>
      <trkpt lat="42.4393230" lon="-2.5218580">
        <ele>509.2</ele>
        <time>2022-08-29T04:06:18Z</time>
      </trkpt>
      <trkpt lat="42.4393330" lon="-2.5218820">
        <ele>509.2</ele>
        <time>2022-08-29T04:06:19Z</time>
      </trkpt>
      <trkpt lat="42.4393420" lon="-2.5219070">
        <ele>509.2</ele>
        <time>2022-08-29T04:06:20Z</time>
      </trkpt>
      <trkpt lat="42.4393520" lon="-2.5219320">
        <ele>509.4</ele>
        <time>2022-08-29T04:06:21Z</time>
      </trkpt>
      <trkpt lat="42.4393600" lon="-2.5219580">
        <ele>509.4</ele>
        <time>2022-08-29T04:06:22Z</time>
      </trkpt>
      <trkpt lat="42.4393670" lon="-2.5219840">
        <ele>509.4</ele>
        <time>2022-08-29T04:06:23Z</time>
      </trkpt>
      <trkpt lat="42.4393740" lon="-2.5220100">
        <ele>509.6</ele>
        <time>2022-08-29T04:06:24Z</time>
      </trkpt>
      <trkpt lat="42.4393800" lon="-2.5220370">
        <ele>509.8</ele>
        <time>2022-08-29T04:06:25Z</time>
      </trkpt>
      <trkpt lat="42.4393850" lon="-2.5220650">
        <ele>510.0</ele>
        <time>2022-08-29T04:06:26Z</time>
      </trkpt>
      <trkpt lat="42.4393900" lon="-2.5220920">
        <ele>510.0</ele>
        <time>2022-08-29T04:06:27Z</time>
      </trkpt>
      <trkpt lat="42.4393940" lon="-2.5221200">
        <ele>510.4</ele>
        <time>2022-08-29T04:06:28Z</time>
      </trkpt>
      <trkpt lat="42.4393970" lon="-2.5221470">
        <ele>510.6</ele>
        <time>2022-08-29T04:06:29Z</time>
      </trkpt>
      <trkpt lat="42.4393990" lon="-2.5221740">
        <ele>510.6</ele>
        <time>2022-08-29T04:06:30Z</time>
      </trkpt>
      <trkpt lat="42.4394030" lon="-2.5222010">
        <ele>510.8</ele>
        <time>2022-08-29T04:06:31Z</time>
      </trkpt>
      <trkpt lat="42.4394070" lon="-2.5222270">
        <ele>510.8</ele>
        <time>2022-08-29T04:06:32Z</time>
      </trkpt>
      <trkpt lat="42.4394110" lon="-2.5222530">
        <ele>511.0</ele>
        <time>2022-08-29T04:06:33Z</time>
      </trkpt>
      <trkpt lat="42.4394160" lon="-2.5222800">
        <ele>511.2</ele>
        <time>2022-08-29T04:06:34Z</time>
      </trkpt>
      <trkpt lat="42.4394220" lon="-2.5223070">
        <ele>511.2</ele>
        <time>2022-08-29T04:06:35Z</time>
      </trkpt>
      <trkpt lat="42.4394280" lon="-2.5223320">
        <ele>511.4</ele>
        <time>2022-08-29T04:06:36Z</time>
      </trkpt>
      <trkpt lat="42.4394350" lon="-2.5223580">
        <ele>511.4</ele>
        <time>2022-08-29T04:06:37Z</time>
      </trkpt>
      <trkpt lat="42.4394420" lon="-2.5223820">
        <ele>511.4</ele>
        <time>2022-08-29T04:06:38Z</time>
      </trkpt>
      <trkpt lat="42.4394480" lon="-2.5224050">
        <ele>511.6</ele>
        <time>2022-08-29T04:06:39Z</time>
      </trkpt>
      <trkpt lat="42.4394550" lon="-2.5224270">
        <ele>511.8</ele>
        <time>2022-08-29T04:06:40Z</time>
      </trkpt>
      <trkpt lat="42.4394640" lon="-2.5224500">
        <ele>512.0</ele>
        <time>2022-08-29T04:06:41Z</time>
      </trkpt>
      <trkpt lat="42.4394770" lon="-2.5224740">
        <ele>512.0</ele>
        <time>2022-08-29T04:06:42Z</time>
      </trkpt>
      <trkpt lat="42.4394900" lon="-2.5224980">
        <ele>512.0</ele>
        <time>2022-08-29T04:06:43Z</time>
      </trkpt>
      <trkpt lat="42.4395030" lon="-2.5225240">
        <ele>512.2</ele>
        <time>2022-08-29T04:06:44Z</time>
      </trkpt>
      <trkpt lat="42.4395160" lon="-2.5225500">
        <ele>512.6</ele>
        <time>2022-08-29T04:06:45Z</time>
      </trkpt>
      <trkpt lat="42.4395280" lon="-2.5225780">
        <ele>512.6</ele>
        <time>2022-08-29T04:06:46Z</time>
      </trkpt>
      <trkpt lat="42.4395420" lon="-2.5226060">
        <ele>513.0</ele>
        <time>2022-08-29T04:06:47Z</time>
      </trkpt>
      <trkpt lat="42.4395570" lon="-2.5226340">
        <ele>513.0</ele>
        <time>2022-08-29T04:06:48Z</time>
      </trkpt>
      <trkpt lat="42.4395710" lon="-2.5226650">
        <ele>513.0</ele>
        <time>2022-08-29T04:06:49Z</time>
      </trkpt>
      <trkpt lat="42.4395830" lon="-2.5226920">
        <ele>513.0</ele>
        <time>2022-08-29T04:06:50Z</time>
      </trkpt>
      <trkpt lat="42.4395970" lon="-2.5227190">
        <ele>513.2</ele>
        <time>2022-08-29T04:06:51Z</time>
      </trkpt>
      <trkpt lat="42.4396100" lon="-2.5227460">
        <ele>513.2</ele>
        <time>2022-08-29T04:06:52Z</time>
      </trkpt>
      <trkpt lat="42.4396220" lon="-2.5227720">
        <ele>513.4</ele>
        <time>2022-08-29T04:06:53Z</time>
      </trkpt>
      <trkpt lat="42.4396370" lon="-2.5227980">
        <ele>513.6</ele>
        <time>2022-08-29T04:06:54Z</time>
      </trkpt>
      <trkpt lat="42.4396500" lon="-2.5228220">
        <ele>513.6</ele>
        <time>2022-08-29T04:06:55Z</time>
      </trkpt>
      <trkpt lat="42.4396630" lon="-2.5228440">
        <ele>513.8</ele>
        <time>2022-08-29T04:06:56Z</time>
      </trkpt>
      <trkpt lat="42.4396760" lon="-2.5228670">
        <ele>514.0</ele>
        <time>2022-08-29T04:06:57Z</time>
      </trkpt>
      <trkpt lat="42.4396920" lon="-2.5228910">
        <ele>514.0</ele>
        <time>2022-08-29T04:06:58Z</time>
      </trkpt>
      <trkpt lat="42.4397060" lon="-2.5229140">
        <ele>514.0</ele>
        <time>2022-08-29T04:06:59Z</time>
      </trkpt>
      <trkpt lat="42.4397190" lon="-2.5229340">
        <ele>514.0</ele>
        <time>2022-08-29T04:07:00Z</time>
      </trkpt>
      <trkpt lat="42.4397340" lon="-2.5229540">
        <ele>514.2</ele>
        <time>2022-08-29T04:07:01Z</time>
      </trkpt>
      <trkpt lat="42.4397500" lon="-2.5229730">
        <ele>514.2</ele>
        <time>2022-08-29T04:07:02Z</time>
      </trkpt>
      <trkpt lat="42.4397650" lon="-2.5229920">
        <ele>514.2</ele>
        <time>2022-08-29T04:07:03Z</time>
      </trkpt>
      <trkpt lat="42.4397790" lon="-2.5230120">
        <ele>514.4</ele>
        <time>2022-08-29T04:07:04Z</time>
      </trkpt>
      <trkpt lat="42.4397930" lon="-2.5230360">
        <ele>514.8</ele>
        <time>2022-08-29T04:07:05Z</time>
      </trkpt>
      <trkpt lat="42.4398070" lon="-2.5230580">
        <ele>515.0</ele>
        <time>2022-08-29T04:07:06Z</time>
      </trkpt>
      <trkpt lat="42.4398210" lon="-2.5230800">
        <ele>515.2</ele>
        <time>2022-08-29T04:07:07Z</time>
      </trkpt>
      <trkpt lat="42.4398350" lon="-2.5231000">
        <ele>515.4</ele>
        <time>2022-08-29T04:07:08Z</time>
      </trkpt>
      <trkpt lat="42.4398500" lon="-2.5231200">
        <ele>515.6</ele>
        <time>2022-08-29T04:07:09Z</time>
      </trkpt>
      <trkpt lat="42.4398630" lon="-2.5231400">
        <ele>515.6</ele>
        <time>2022-08-29T04:07:10Z</time>
      </trkpt>
      <trkpt lat="42.4398770" lon="-2.5231620">
        <ele>515.8</ele>
        <time>2022-08-29T04:07:11Z</time>
      </trkpt>
      <trkpt lat="42.4398900" lon="-2.5231850">
        <ele>516.2</ele>
        <time>2022-08-29T04:07:12Z</time>
      </trkpt>
      <trkpt lat="42.4399020" lon="-2.5232070">
        <ele>516.2</ele>
        <time>2022-08-29T04:07:13Z</time>
      </trkpt>
      <trkpt lat="42.4399140" lon="-2.5232320">
        <ele>516.6</ele>
        <time>2022-08-29T04:07:14Z</time>
      </trkpt>
      <trkpt lat="42.4399260" lon="-2.5232550">
        <ele>516.6</ele>
        <time>2022-08-29T04:07:15Z</time>
      </trkpt>
      <trkpt lat="42.4399390" lon="-2.5232790">
        <ele>517.0</ele>
        <time>2022-08-29T04:07:16Z</time>
      </trkpt>
      <trkpt lat="42.4399510" lon="-2.5233050">
        <ele>517.2</ele>
        <time>2022-08-29T04:07:17Z</time>
      </trkpt>
      <trkpt lat="42.4399610" lon="-2.5233310">
        <ele>517.4</ele>
        <time>2022-08-29T04:07:18Z</time>
      </trkpt>
      <trkpt lat="42.4399720" lon="-2.5233590">
        <ele>517.6</ele>
        <time>2022-08-29T04:07:19Z</time>
      </trkpt>
      <trkpt lat="42.4399820" lon="-2.5233870">
        <ele>517.6</ele>
        <time>2022-08-29T04:07:20Z</time>
      </trkpt>
      <trkpt lat="42.4399930" lon="-2.5234160">
        <ele>517.6</ele>
        <time>2022-08-29T04:07:21Z</time>
      </trkpt>
      <trkpt lat="42.4400040" lon="-2.5234450">
        <ele>517.6</ele>
        <time>2022-08-29T04:07:22Z</time>
      </trkpt>
      <trkpt lat="42.4400150" lon="-2.5234760">
        <ele>517.8</ele>
        <time>2022-08-29T04:07:23Z</time>
      </trkpt>
      <trkpt lat="42.4400260" lon="-2.5235080">
        <ele>517.8</ele>
        <time>2022-08-29T04:07:24Z</time>
      </trkpt>
      <trkpt lat="42.4400360" lon="-2.5235410">
        <ele>517.8</ele>
        <time>2022-08-29T04:07:25Z</time>
      </trkpt>
      <trkpt lat="42.4400480" lon="-2.5235740">
        <ele>518.0</ele>
        <time>2022-08-29T04:07:26Z</time>
      </trkpt>
      <trkpt lat="42.4400570" lon="-2.5236080">
        <ele>518.2</ele>
        <time>2022-08-29T04:07:27Z</time>
      </trkpt>
      <trkpt lat="42.4400660" lon="-2.5236440">
        <ele>518.4</ele>
        <time>2022-08-29T04:07:28Z</time>
      </trkpt>
      <trkpt lat="42.4400740" lon="-2.5236790">
        <ele>518.4</ele>
        <time>2022-08-29T04:07:29Z</time>
      </trkpt>
      <trkpt lat="42.4400800" lon="-2.5237160">
        <ele>518.4</ele>
        <time>2022-08-29T04:07:30Z</time>
      </trkpt>
      <trkpt lat="42.4400840" lon="-2.5237540">
        <ele>518.4</ele>
        <time>2022-08-29T04:07:31Z</time>
      </trkpt>
      <trkpt lat="42.4400880" lon="-2.5237890">
        <ele>518.6</ele>
        <time>2022-08-29T04:07:32Z</time>
      </trkpt>
      <trkpt lat="42.4400910" lon="-2.5238260">
        <ele>518.6</ele>
        <time>2022-08-29T04:07:33Z</time>
      </trkpt>
      <trkpt lat="42.4400920" lon="-2.5238640">
        <ele>518.8</ele>
        <time>2022-08-29T04:07:34Z</time>
      </trkpt>
      <trkpt lat="42.4400900" lon="-2.5239010">
        <ele>518.8</ele>
        <time>2022-08-29T04:07:35Z</time>
      </trkpt>
      <trkpt lat="42.4400860" lon="-2.5239380">
        <ele>519.0</ele>
        <time>2022-08-29T04:07:36Z</time>
      </trkpt>
      <trkpt lat="42.4400820" lon="-2.5239730">
        <ele>519.0</ele>
        <time>2022-08-29T04:07:37Z</time>
      </trkpt>
      <trkpt lat="42.4400750" lon="-2.5240070">
        <ele>519.0</ele>
        <time>2022-08-29T04:07:38Z</time>
      </trkpt>
      <trkpt lat="42.4400680" lon="-2.5240410">
        <ele>519.0</ele>
        <time>2022-08-29T04:07:39Z</time>
      </trkpt>
      <trkpt lat="42.4400600" lon="-2.5240760">
        <ele>519.0</ele>
        <time>2022-08-29T04:07:40Z</time>
      </trkpt>
      <trkpt lat="42.4400540" lon="-2.5241120">
        <ele>519.2</ele>
        <time>2022-08-29T04:07:41Z</time>
      </trkpt>
      <trkpt lat="42.4400490" lon="-2.5241480">
        <ele>519.0</ele>
        <time>2022-08-29T04:07:42Z</time>
      </trkpt>
      <trkpt lat="42.4400430" lon="-2.5241830">
        <ele>519.4</ele>
        <time>2022-08-29T04:07:43Z</time>
      </trkpt>
      <trkpt lat="42.4400400" lon="-2.5242180">
        <ele>519.4</ele>
        <time>2022-08-29T04:07:44Z</time>
      </trkpt>
      <trkpt lat="42.4400340" lon="-2.5242510">
        <ele>519.6</ele>
        <time>2022-08-29T04:07:45Z</time>
      </trkpt>
      <trkpt lat="42.4400310" lon="-2.5242850">
        <ele>519.6</ele>
        <time>2022-08-29T04:07:46Z</time>
      </trkpt>
      <trkpt lat="42.4400260" lon="-2.5243180">
        <ele>520.0</ele>
        <time>2022-08-29T04:07:47Z</time>
      </trkpt>
      <trkpt lat="42.4400220" lon="-2.5243500">
        <ele>520.2</ele>
        <time>2022-08-29T04:07:48Z</time>
      </trkpt>
      <trkpt lat="42.4400160" lon="-2.5243800">
        <ele>520.4</ele>
        <time>2022-08-29T04:07:49Z</time>
      </trkpt>
      <trkpt lat="42.4400100" lon="-2.5244100">
        <ele>520.4</ele>
        <time>2022-08-29T04:07:50Z</time>
      </trkpt>
      <trkpt lat="42.4400040" lon="-2.5244390">
        <ele>520.4</ele>
        <time>2022-08-29T04:07:51Z</time>
      </trkpt>
      <trkpt lat="42.4399990" lon="-2.5244670">
        <ele>520.6</ele>
        <time>2022-08-29T04:07:52Z</time>
      </trkpt>
      <trkpt lat="42.4399960" lon="-2.5244970">
        <ele>520.6</ele>
        <time>2022-08-29T04:07:53Z</time>
      </trkpt>
      <trkpt lat="42.4399910" lon="-2.5245250">
        <ele>521.2</ele>
        <time>2022-08-29T04:07:54Z</time>
      </trkpt>
      <trkpt lat="42.4399850" lon="-2.5245530">
        <ele>521.2</ele>
        <time>2022-08-29T04:07:55Z</time>
      </trkpt>
      <trkpt lat="42.4399800" lon="-2.5245820">
        <ele>521.6</ele>
        <time>2022-08-29T04:07:56Z</time>
      </trkpt>
      <trkpt lat="42.4399760" lon="-2.5246120">
        <ele>521.8</ele>
        <time>2022-08-29T04:07:57Z</time>
      </trkpt>
      <trkpt lat="42.4399710" lon="-2.5246410">
        <ele>522.0</ele>
        <time>2022-08-29T04:07:58Z</time>
      </trkpt>
      <trkpt lat="42.4399670" lon="-2.5246710">
        <ele>522.0</ele>
        <time>2022-08-29T04:07:59Z</time>
      </trkpt>
      <trkpt lat="42.4399620" lon="-2.5247000">
        <ele>522.4</ele>
        <time>2022-08-29T04:08:00Z</time>
      </trkpt>
      <trkpt lat="42.4399570" lon="-2.5247290">
        <ele>522.6</ele>
        <time>2022-08-29T04:08:01Z</time>
      </trkpt>
      <trkpt lat="42.4399520" lon="-2.5247580">
        <ele>522.8</ele>
        <time>2022-08-29T04:08:02Z</time>
      </trkpt>
      <trkpt lat="42.4399470" lon="-2.5247860">
        <ele>523.0</ele>
        <time>2022-08-29T04:08:03Z</time>
      </trkpt>
      <trkpt lat="42.4399430" lon="-2.5248150">
        <ele>523.2</ele>
        <time>2022-08-29T04:08:04Z</time>
      </trkpt>
      <trkpt lat="42.4399380" lon="-2.5248450">
        <ele>523.4</ele>
        <time>2022-08-29T04:08:05Z</time>
      </trkpt>
      <trkpt lat="42.4399330" lon="-2.5248730">
        <ele>523.8</ele>
        <time>2022-08-29T04:08:06Z</time>
      </trkpt>
      <trkpt lat="42.4399290" lon="-2.5249020">
        <ele>524.0</ele>
        <time>2022-08-29T04:08:07Z</time>
      </trkpt>
      <trkpt lat="42.4399260" lon="-2.5249320">
        <ele>524.4</ele>
        <time>2022-08-29T04:08:08Z</time>
      </trkpt>
      <trkpt lat="42.4399210" lon="-2.5249610">
        <ele>524.6</ele>
        <time>2022-08-29T04:08:09Z</time>
      </trkpt>
      <trkpt lat="42.4399160" lon="-2.5249920">
        <ele>524.8</ele>
        <time>2022-08-29T04:08:10Z</time>
      </trkpt>
      <trkpt lat="42.4399120" lon="-2.5250240">
        <ele>525.0</ele>
        <time>2022-08-29T04:08:11Z</time>
      </trkpt>
      <trkpt lat="42.4399080" lon="-2.5250590">
        <ele>525.2</ele>
        <time>2022-08-29T04:08:12Z</time>
      </trkpt>
      <trkpt lat="42.4399040" lon="-2.5250960">
        <ele>525.4</ele>
        <time>2022-08-29T04:08:13Z</time>
      </trkpt>
      <trkpt lat="42.4399010" lon="-2.5251350">
        <ele>525.6</ele>
        <time>2022-08-29T04:08:14Z</time>
      </trkpt>
      <trkpt lat="42.4398980" lon="-2.5251750">
        <ele>525.6</ele>
        <time>2022-08-29T04:08:15Z</time>
      </trkpt>
      <trkpt lat="42.4398960" lon="-2.5252170">
        <ele>525.8</ele>
        <time>2022-08-29T04:08:16Z</time>
      </trkpt>
      <trkpt lat="42.4398940" lon="-2.5252590">
        <ele>525.8</ele>
        <time>2022-08-29T04:08:17Z</time>
      </trkpt>
      <trkpt lat="42.4398920" lon="-2.5253020">
        <ele>526.0</ele>
        <time>2022-08-29T04:08:18Z</time>
      </trkpt>
      <trkpt lat="42.4398900" lon="-2.5253460">
        <ele>526.2</ele>
        <time>2022-08-29T04:08:19Z</time>
      </trkpt>
      <trkpt lat="42.4398870" lon="-2.5253880">
        <ele>526.0</ele>
        <time>2022-08-29T04:08:20Z</time>
      </trkpt>
      <trkpt lat="42.4398850" lon="-2.5254290">
        <ele>526.0</ele>
        <time>2022-08-29T04:08:21Z</time>
      </trkpt>
      <trkpt lat="42.4398840" lon="-2.5254680">
        <ele>526.0</ele>
        <time>2022-08-29T04:08:22Z</time>
      </trkpt>
      <trkpt lat="42.4398820" lon="-2.5255050">
        <ele>526.0</ele>
        <time>2022-08-29T04:08:23Z</time>
      </trkpt>
      <trkpt lat="42.4398810" lon="-2.5255400">
        <ele>526.2</ele>
        <time>2022-08-29T04:08:24Z</time>
      </trkpt>
      <trkpt lat="42.4398800" lon="-2.5255750">
        <ele>526.2</ele>
        <time>2022-08-29T04:08:25Z</time>
      </trkpt>
      <trkpt lat="42.4398790" lon="-2.5256100">
        <ele>526.2</ele>
        <time>2022-08-29T04:08:26Z</time>
      </trkpt>
      <trkpt lat="42.4398780" lon="-2.5256460">
        <ele>526.2</ele>
        <time>2022-08-29T04:08:27Z</time>
      </trkpt>
      <trkpt lat="42.4398760" lon="-2.5256820">
        <ele>526.4</ele>
        <time>2022-08-29T04:08:28Z</time>
      </trkpt>
      <trkpt lat="42.4398730" lon="-2.5257190">
        <ele>526.2</ele>
        <time>2022-08-29T04:08:29Z</time>
      </trkpt>
      <trkpt lat="42.4398720" lon="-2.5257590">
        <ele>526.2</ele>
        <time>2022-08-29T04:08:30Z</time>
      </trkpt>
      <trkpt lat="42.4398700" lon="-2.5257990">
        <ele>526.0</ele>
        <time>2022-08-29T04:08:31Z</time>
      </trkpt>
      <trkpt lat="42.4398670" lon="-2.5258400">
        <ele>526.2</ele>
        <time>2022-08-29T04:08:32Z</time>
      </trkpt>
      <trkpt lat="42.4398640" lon="-2.5258820">
        <ele>526.2</ele>
        <time>2022-08-29T04:08:33Z</time>
      </trkpt>
      <trkpt lat="42.4398610" lon="-2.5259240">
        <ele>526.2</ele>
        <time>2022-08-29T04:08:34Z</time>
      </trkpt>
      <trkpt lat="42.4398570" lon="-2.5259670">
        <ele>526.0</ele>
        <time>2022-08-29T04:08:35Z</time>
      </trkpt>
      <trkpt lat="42.4398530" lon="-2.5260110">
        <ele>526.2</ele>
        <time>2022-08-29T04:08:36Z</time>
      </trkpt>
      <trkpt lat="42.4398490" lon="-2.5260560">
        <ele>526.2</ele>
        <time>2022-08-29T04:08:37Z</time>
      </trkpt>
      <trkpt lat="42.4398470" lon="-2.5261040">
        <ele>526.2</ele>
        <time>2022-08-29T04:08:38Z</time>
      </trkpt>
      <trkpt lat="42.4398480" lon="-2.5261530">
        <ele>526.0</ele>
        <time>2022-08-29T04:08:39Z</time>
      </trkpt>
      <trkpt lat="42.4398450" lon="-2.5262060">
        <ele>526.0</ele>
        <time>2022-08-29T04:08:40Z</time>
      </trkpt>
      <trkpt lat="42.4398400" lon="-2.5262600">
        <ele>526.0</ele>
        <time>2022-08-29T04:08:41Z</time>
      </trkpt>
      <trkpt lat="42.4398340" lon="-2.5263140">
        <ele>526.2</ele>
        <time>2022-08-29T04:08:42Z</time>
      </trkpt>
      <trkpt lat="42.4398310" lon="-2.5263690">
        <ele>526.0</ele>
        <time>2022-08-29T04:08:43Z</time>
      </trkpt>
      <trkpt lat="42.4398290" lon="-2.5264240">
        <ele>525.8</ele>
        <time>2022-08-29T04:08:44Z</time>
      </trkpt>
      <trkpt lat="42.4398240" lon="-2.5264780">
        <ele>525.8</ele>
        <time>2022-08-29T04:08:45Z</time>
      </trkpt>
      <trkpt lat="42.4398200" lon="-2.5265330">
        <ele>525.6</ele>
        <time>2022-08-29T04:08:46Z</time>
      </trkpt>
      <trkpt lat="42.4398150" lon="-2.5265880">
        <ele>525.8</ele>
        <time>2022-08-29T04:08:47Z</time>
      </trkpt>
      <trkpt lat="42.4398090" lon="-2.5266440">
        <ele>525.6</ele>
        <time>2022-08-29T04:08:48Z</time>
      </trkpt>
      <trkpt lat="42.4398040" lon="-2.5267010">
        <ele>525.6</ele>
        <time>2022-08-29T04:08:49Z</time>
      </trkpt>
      <trkpt lat="42.4398000" lon="-2.5267590">
        <ele>525.4</ele>
        <time>2022-08-29T04:08:50Z</time>
      </trkpt>
      <trkpt lat="42.4397980" lon="-2.5268190">
        <ele>525.4</ele>
        <time>2022-08-29T04:08:51Z</time>
      </trkpt>
      <trkpt lat="42.4397960" lon="-2.5268830">
        <ele>525.4</ele>
        <time>2022-08-29T04:08:52Z</time>
      </trkpt>
      <trkpt lat="42.4397940" lon="-2.5269510">
        <ele>525.2</ele>
        <time>2022-08-29T04:08:53Z</time>
      </trkpt>
      <trkpt lat="42.4397920" lon="-2.5270240">
        <ele>525.0</ele>
        <time>2022-08-29T04:08:54Z</time>
      </trkpt>
      <trkpt lat="42.4397890" lon="-2.5271030">
        <ele>525.0</ele>
        <time>2022-08-29T04:08:55Z</time>
      </trkpt>
      <trkpt lat="42.4397850" lon="-2.5271860">
        <ele>524.8</ele>
        <time>2022-08-29T04:08:56Z</time>
      </trkpt>
      <trkpt lat="42.4397770" lon="-2.5272780">
        <ele>524.8</ele>
        <time>2022-08-29T04:08:57Z</time>
      </trkpt>
      <trkpt lat="42.4397670" lon="-2.5273790">
        <ele>524.6</ele>
        <time>2022-08-29T04:08:58Z</time>
      </trkpt>
      <trkpt lat="42.4397560" lon="-2.5274870">
        <ele>524.6</ele>
        <time>2022-08-29T04:08:59Z</time>
      </trkpt>
      <trkpt lat="42.4397440" lon="-2.5276010">
        <ele>524.2</ele>
        <time>2022-08-29T04:09:00Z</time>
      </trkpt>
      <trkpt lat="42.4397300" lon="-2.5277190">
        <ele>524.2</ele>
        <time>2022-08-29T04:09:01Z</time>
      </trkpt>
      <trkpt lat="42.4397150" lon="-2.5278350">
        <ele>523.6</ele>
        <time>2022-08-29T04:09:02Z</time>
      </trkpt>
      <trkpt lat="42.4397000" lon="-2.5279530">
        <ele>523.2</ele>
        <time>2022-08-29T04:09:03Z</time>
      </trkpt>
      <trkpt lat="42.4396840" lon="-2.5280710">
        <ele>522.4</ele>
        <time>2022-08-29T04:09:04Z</time>
      </trkpt>
      <trkpt lat="42.4396650" lon="-2.5281860">
        <ele>522.0</ele>
        <time>2022-08-29T04:09:05Z</time>
      </trkpt>
      <trkpt lat="42.4396490" lon="-2.5282940">
        <ele>521.6</ele>
        <time>2022-08-29T04:09:06Z</time>
      </trkpt>
      <trkpt lat="42.4396330" lon="-2.5283960">
        <ele>520.2</ele>
        <time>2022-08-29T04:09:07Z</time>
      </trkpt>
      <trkpt lat="42.4396170" lon="-2.5284950">
        <ele>519.0</ele>
        <time>2022-08-29T04:09:08Z</time>
      </trkpt>
      <trkpt lat="42.4396010" lon="-2.5285920">
        <ele>518.2</ele>
        <time>2022-08-29T04:09:09Z</time>
      </trkpt>
      <trkpt lat="42.4395880" lon="-2.5286890">
        <ele>517.8</ele>
        <time>2022-08-29T04:09:10Z</time>
      </trkpt>
      <trkpt lat="42.4395770" lon="-2.5287890">
        <ele>517.4</ele>
        <time>2022-08-29T04:09:11Z</time>
      </trkpt>
      <trkpt lat="42.4395710" lon="-2.5288960">
        <ele>517.4</ele>
        <time>2022-08-29T04:09:12Z</time>
      </trkpt>
      <trkpt lat="42.4395630" lon="-2.5290120">
        <ele>517.2</ele>
        <time>2022-08-29T04:09:13Z</time>
      </trkpt>
      <trkpt lat="42.4395510" lon="-2.5291330">
        <ele>517.0</ele>
        <time>2022-08-29T04:09:14Z</time>
      </trkpt>
      <trkpt lat="42.4395320" lon="-2.5292550">
        <ele>516.8</ele>
        <time>2022-08-29T04:09:15Z</time>
      </trkpt>
      <trkpt lat="42.4395080" lon="-2.5293770">
        <ele>516.6</ele>
        <time>2022-08-29T04:09:16Z</time>
      </trkpt>
      <trkpt lat="42.4394810" lon="-2.5294990">
        <ele>516.6</ele>
        <time>2022-08-29T04:09:17Z</time>
      </trkpt>
      <trkpt lat="42.4394540" lon="-2.5296210">
        <ele>516.6</ele>
        <time>2022-08-29T04:09:18Z</time>
      </trkpt>
      <trkpt lat="42.4394280" lon="-2.5297420">
        <ele>516.4</ele>
        <time>2022-08-29T04:09:19Z</time>
      </trkpt>
      <trkpt lat="42.4394020" lon="-2.5298600">
        <ele>516.4</ele>
        <time>2022-08-29T04:09:20Z</time>
      </trkpt>
      <trkpt lat="42.4393790" lon="-2.5299750">
        <ele>516.0</ele>
        <time>2022-08-29T04:09:21Z</time>
      </trkpt>
      <trkpt lat="42.4393610" lon="-2.5300850">
        <ele>515.2</ele>
        <time>2022-08-29T04:09:22Z</time>
      </trkpt>
      <trkpt lat="42.4393470" lon="-2.5301870">
        <ele>514.2</ele>
        <time>2022-08-29T04:09:23Z</time>
      </trkpt>
      <trkpt lat="42.4393340" lon="-2.5302820">
        <ele>513.4</ele>
        <time>2022-08-29T04:09:24Z</time>
      </trkpt>
      <trkpt lat="42.4393210" lon="-2.5303730">
        <ele>513.4</ele>
        <time>2022-08-29T04:09:25Z</time>
      </trkpt>
      <trkpt lat="42.4393070" lon="-2.5304600">
        <ele>512.8</ele>
        <time>2022-08-29T04:09:26Z</time>
      </trkpt>
      <trkpt lat="42.4392940" lon="-2.5305440">
        <ele>512.4</ele>
        <time>2022-08-29T04:09:27Z</time>
      </trkpt>
      <trkpt lat="42.4392770" lon="-2.5306280">
        <ele>512.0</ele>
        <time>2022-08-29T04:09:28Z</time>
      </trkpt>
      <trkpt lat="42.4392590" lon="-2.5307100">
        <ele>511.8</ele>
        <time>2022-08-29T04:09:29Z</time>
      </trkpt>
      <trkpt lat="42.4392410" lon="-2.5307890">
        <ele>511.6</ele>
        <time>2022-08-29T04:09:30Z</time>
      </trkpt>
      <trkpt lat="42.4392220" lon="-2.5308710">
        <ele>511.6</ele>
        <time>2022-08-29T04:09:31Z</time>
      </trkpt>
      <trkpt lat="42.4392070" lon="-2.5309510">
        <ele>511.2</ele>
        <time>2022-08-29T04:09:32Z</time>
      </trkpt>
      <trkpt lat="42.4391910" lon="-2.5310330">
        <ele>510.8</ele>
        <time>2022-08-29T04:09:33Z</time>
      </trkpt>
      <trkpt lat="42.4391730" lon="-2.5311110">
        <ele>510.8</ele>
        <time>2022-08-29T04:09:34Z</time>
      </trkpt>
      <trkpt lat="42.4391530" lon="-2.5311870">
        <ele>510.6</ele>
        <time>2022-08-29T04:09:35Z</time>
      </trkpt>
      <trkpt lat="42.4391330" lon="-2.5312600">
        <ele>510.4</ele>
        <time>2022-08-29T04:09:36Z</time>
      </trkpt>
      <trkpt lat="42.4391120" lon="-2.5313280">
        <ele>510.2</ele>
        <time>2022-08-29T04:09:37Z</time>
      </trkpt>
      <trkpt lat="42.4390900" lon="-2.5313950">
        <ele>510.0</ele>
        <time>2022-08-29T04:09:38Z</time>
      </trkpt>
      <trkpt lat="42.4390690" lon="-2.5314640">
        <ele>509.6</ele>
        <time>2022-08-29T04:09:39Z</time>
      </trkpt>
      <trkpt lat="42.4390500" lon="-2.5315310">
        <ele>509.6</ele>
        <time>2022-08-29T04:09:40Z</time>
      </trkpt>
      <trkpt lat="42.4390250" lon="-2.5315940">
        <ele>509.6</ele>
        <time>2022-08-29T04:09:41Z</time>
      </trkpt>
      <trkpt lat="42.4390000" lon="-2.5316550">
        <ele>509.4</ele>
        <time>2022-08-29T04:09:42Z</time>
      </trkpt>
      <trkpt lat="42.4389740" lon="-2.5317170">
        <ele>509.2</ele>
        <time>2022-08-29T04:09:43Z</time>
      </trkpt>
      <trkpt lat="42.4389530" lon="-2.5317790">
        <ele>509.2</ele>
        <time>2022-08-29T04:09:44Z</time>
      </trkpt>
      <trkpt lat="42.4389340" lon="-2.5318430">
        <ele>509.2</ele>
        <time>2022-08-29T04:09:45Z</time>
      </trkpt>
      <trkpt lat="42.4389160" lon="-2.5319070">
        <ele>509.2</ele>
        <time>2022-08-29T04:09:46Z</time>
      </trkpt>
      <trkpt lat="42.4389010" lon="-2.5319740">
        <ele>509.4</ele>
        <time>2022-08-29T04:09:47Z</time>
      </trkpt>
      <trkpt lat="42.4388890" lon="-2.5320440">
        <ele>509.2</ele>
        <time>2022-08-29T04:09:48Z</time>
      </trkpt>
      <trkpt lat="42.4388780" lon="-2.5321140">
        <ele>509.2</ele>
        <time>2022-08-29T04:09:49Z</time>
      </trkpt>
      <trkpt lat="42.4388680" lon="-2.5321870">
        <ele>509.0</ele>
        <time>2022-08-29T04:09:50Z</time>
      </trkpt>
      <trkpt lat="42.4388590" lon="-2.5322590">
        <ele>509.2</ele>
        <time>2022-08-29T04:09:51Z</time>
      </trkpt>
      <trkpt lat="42.4388500" lon="-2.5323310">
        <ele>509.0</ele>
        <time>2022-08-29T04:09:52Z</time>
      </trkpt>
      <trkpt lat="42.4388420" lon="-2.5324050">
        <ele>509.0</ele>
        <time>2022-08-29T04:09:53Z</time>
      </trkpt>
      <trkpt lat="42.4388340" lon="-2.5324800">
        <ele>509.0</ele>
        <time>2022-08-29T04:09:54Z</time>
      </trkpt>
      <trkpt lat="42.4388290" lon="-2.5325570">
        <ele>509.0</ele>
        <time>2022-08-29T04:09:55Z</time>
      </trkpt>
      <trkpt lat="42.4388260" lon="-2.5326360">
        <ele>509.0</ele>
        <time>2022-08-29T04:09:56Z</time>
      </trkpt>
      <trkpt lat="42.4388220" lon="-2.5327170">
        <ele>509.0</ele>
        <time>2022-08-29T04:09:57Z</time>
      </trkpt>
      <trkpt lat="42.4388180" lon="-2.5327980">
        <ele>508.8</ele>
        <time>2022-08-29T04:09:58Z</time>
      </trkpt>
      <trkpt lat="42.4388130" lon="-2.5328790">
        <ele>508.8</ele>
        <time>2022-08-29T04:09:59Z</time>
      </trkpt>
      <trkpt lat="42.4388080" lon="-2.5329590">
        <ele>508.6</ele>
        <time>2022-08-29T04:10:00Z</time>
      </trkpt>
      <trkpt lat="42.4388050" lon="-2.5330380">
        <ele>508.4</ele>
        <time>2022-08-29T04:10:01Z</time>
      </trkpt>
      <trkpt lat="42.4388060" lon="-2.5331160">
        <ele>508.2</ele>
        <time>2022-08-29T04:10:02Z</time>
      </trkpt>
      <trkpt lat="42.4388050" lon="-2.5331930">
        <ele>508.0</ele>
        <time>2022-08-29T04:10:03Z</time>
      </trkpt>
      <trkpt lat="42.4388020" lon="-2.5332710">
        <ele>508.0</ele>
        <time>2022-08-29T04:10:04Z</time>
      </trkpt>
      <trkpt lat="42.4387950" lon="-2.5333500">
        <ele>507.8</ele>
        <time>2022-08-29T04:10:05Z</time>
      </trkpt>
      <trkpt lat="42.4387820" lon="-2.5334320">
        <ele>507.6</ele>
        <time>2022-08-29T04:10:06Z</time>
      </trkpt>
      <trkpt lat="42.4387680" lon="-2.5335160">
        <ele>507.6</ele>
        <time>2022-08-29T04:10:07Z</time>
      </trkpt>
      <trkpt lat="42.4387550" lon="-2.5336020">
        <ele>507.4</ele>
        <time>2022-08-29T04:10:08Z</time>
      </trkpt>
      <trkpt lat="42.4387400" lon="-2.5336870">
        <ele>507.4</ele>
        <time>2022-08-29T04:10:09Z</time>
      </trkpt>
      <trkpt lat="42.4387240" lon="-2.5337710">
        <ele>507.2</ele>
        <time>2022-08-29T04:10:10Z</time>
      </trkpt>
      <trkpt lat="42.4387110" lon="-2.5338540">
        <ele>507.2</ele>
        <time>2022-08-29T04:10:11Z</time>
      </trkpt>
      <trkpt lat="42.4386990" lon="-2.5339360">
        <ele>506.8</ele>
        <time>2022-08-29T04:10:12Z</time>
      </trkpt>
      <trkpt lat="42.4386870" lon="-2.5340130">
        <ele>506.8</ele>
        <time>2022-08-29T04:10:13Z</time>
      </trkpt>
      <trkpt lat="42.4386740" lon="-2.5340850">
        <ele>506.6</ele>
        <time>2022-08-29T04:10:14Z</time>
      </trkpt>
      <trkpt lat="42.4386650" lon="-2.5341510">
        <ele>506.8</ele>
        <time>2022-08-29T04:10:15Z</time>
      </trkpt>
      <trkpt lat="42.4386560" lon="-2.5342120">
        <ele>506.6</ele>
        <time>2022-08-29T04:10:16Z</time>
      </trkpt>
      <trkpt lat="42.4386450" lon="-2.5342670">
        <ele>506.6</ele>
        <time>2022-08-29T04:10:17Z</time>
      </trkpt>
      <trkpt lat="42.4386350" lon="-2.5343190">
        <ele>506.6</ele>
        <time>2022-08-29T04:10:18Z</time>
      </trkpt>
      <trkpt lat="42.4386290" lon="-2.5343670">
        <ele>506.6</ele>
        <time>2022-08-29T04:10:19Z</time>
      </trkpt>
      <trkpt lat="42.4386230" lon="-2.5344130">
        <ele>506.6</ele>
        <time>2022-08-29T04:10:20Z</time>
      </trkpt>
      <trkpt lat="42.4386190" lon="-2.5344600">
        <ele>506.8</ele>
        <time>2022-08-29T04:10:21Z</time>
      </trkpt>
      <trkpt lat="42.4386170" lon="-2.5345080">
        <ele>506.8</ele>
        <time>2022-08-29T04:10:22Z</time>
      </trkpt>
      <trkpt lat="42.4386150" lon="-2.5345610">
        <ele>507.0</ele>
        <time>2022-08-29T04:10:23Z</time>
      </trkpt>
      <trkpt lat="42.4386100" lon="-2.5346180">
        <ele>507.0</ele>
        <time>2022-08-29T04:10:24Z</time>
      </trkpt>
      <trkpt lat="42.4386050" lon="-2.5346790">
        <ele>506.8</ele>
        <time>2022-08-29T04:10:25Z</time>
      </trkpt>
      <trkpt lat="42.4385980" lon="-2.5347470">
        <ele>507.0</ele>
        <time>2022-08-29T04:10:26Z</time>
      </trkpt>
      <trkpt lat="42.4385910" lon="-2.5348200">
        <ele>507.0</ele>
        <time>2022-08-29T04:10:27Z</time>
      </trkpt>
      <trkpt lat="42.4385810" lon="-2.5348960">
        <ele>507.0</ele>
        <time>2022-08-29T04:10:28Z</time>
      </trkpt>
      <trkpt lat="42.4385700" lon="-2.5349740">
        <ele>507.0</ele>
        <time>2022-08-29T04:10:29Z</time>
      </trkpt>
      <trkpt lat="42.4385560" lon="-2.5350530">
        <ele>507.0</ele>
        <time>2022-08-29T04:10:30Z</time>
      </trkpt>
      <trkpt lat="42.4385410" lon="-2.5351340">
        <ele>507.0</ele>
        <time>2022-08-29T04:10:31Z</time>
      </trkpt>
      <trkpt lat="42.4385290" lon="-2.5352150">
        <ele>507.0</ele>
        <time>2022-08-29T04:10:32Z</time>
      </trkpt>
      <trkpt lat="42.4385160" lon="-2.5352980">
        <ele>507.0</ele>
        <time>2022-08-29T04:10:33Z</time>
      </trkpt>
      <trkpt lat="42.4385030" lon="-2.5353830">
        <ele>507.0</ele>
        <time>2022-08-29T04:10:34Z</time>
      </trkpt>
      <trkpt lat="42.4384900" lon="-2.5354700">
        <ele>506.6</ele>
        <time>2022-08-29T04:10:35Z</time>
      </trkpt>
      <trkpt lat="42.4384760" lon="-2.5355570">
        <ele>506.4</ele>
        <time>2022-08-29T04:10:36Z</time>
      </trkpt>
      <trkpt lat="42.4384560" lon="-2.5356420">
        <ele>506.4</ele>
        <time>2022-08-29T04:10:37Z</time>
      </trkpt>
      <trkpt lat="42.4384240" lon="-2.5357220">
        <ele>506.2</ele>
        <time>2022-08-29T04:10:38Z</time>
      </trkpt>
      <trkpt lat="42.4383930" lon="-2.5358020">
        <ele>506.0</ele>
        <time>2022-08-29T04:10:39Z</time>
      </trkpt>
      <trkpt lat="42.4383610" lon="-2.5358820">
        <ele>505.6</ele>
        <time>2022-08-29T04:10:40Z</time>
      </trkpt>
      <trkpt lat="42.4383310" lon="-2.5359640">
        <ele>505.4</ele>
        <time>2022-08-29T04:10:41Z</time>
      </trkpt>
      <trkpt lat="42.4382990" lon="-2.5360510">
        <ele>505.2</ele>
        <time>2022-08-29T04:10:42Z</time>
      </trkpt>
      <trkpt lat="42.4382680" lon="-2.5361390">
        <ele>505.0</ele>
        <time>2022-08-29T04:10:43Z</time>
      </trkpt>
      <trkpt lat="42.4382370" lon="-2.5362260">
        <ele>504.6</ele>
        <time>2022-08-29T04:10:44Z</time>
      </trkpt>
      <trkpt lat="42.4382050" lon="-2.5363110">
        <ele>504.4</ele>
        <time>2022-08-29T04:10:45Z</time>
      </trkpt>
      <trkpt lat="42.4381730" lon="-2.5363970">
        <ele>504.2</ele>
        <time>2022-08-29T04:10:46Z</time>
      </trkpt>
      <trkpt lat="42.4381430" lon="-2.5364810">
        <ele>504.0</ele>
        <time>2022-08-29T04:10:47Z</time>
      </trkpt>
      <trkpt lat="42.4381140" lon="-2.5365660">
        <ele>503.8</ele>
        <time>2022-08-29T04:10:48Z</time>
      </trkpt>
      <trkpt lat="42.4380820" lon="-2.5366490">
        <ele>503.6</ele>
        <time>2022-08-29T04:10:49Z</time>
      </trkpt>
      <trkpt lat="42.4380550" lon="-2.5367310">
        <ele>503.2</ele>
        <time>2022-08-29T04:10:50Z</time>
      </trkpt>
      <trkpt lat="42.4380370" lon="-2.5368140">
        <ele>503.0</ele>
        <time>2022-08-29T04:10:51Z</time>
      </trkpt>
      <trkpt lat="42.4380200" lon="-2.5368980">
        <ele>502.8</ele>
        <time>2022-08-29T04:10:52Z</time>
      </trkpt>
      <trkpt lat="42.4380010" lon="-2.5369800">
        <ele>502.2</ele>
        <time>2022-08-29T04:10:53Z</time>
      </trkpt>
      <trkpt lat="42.4379790" lon="-2.5370610">
        <ele>501.8</ele>
        <time>2022-08-29T04:10:54Z</time>
      </trkpt>
      <trkpt lat="42.4379550" lon="-2.5371430">
        <ele>501.6</ele>
        <time>2022-08-29T04:10:55Z</time>
      </trkpt>
      <trkpt lat="42.4379290" lon="-2.5372230">
        <ele>501.6</ele>
        <time>2022-08-29T04:10:56Z</time>
      </trkpt>
      <trkpt lat="42.4379060" lon="-2.5373050">
        <ele>501.6</ele>
        <time>2022-08-29T04:10:57Z</time>
      </trkpt>
      <trkpt lat="42.4378830" lon="-2.5373890">
        <ele>501.4</ele>
        <time>2022-08-29T04:10:58Z</time>
      </trkpt>
      <trkpt lat="42.4378620" lon="-2.5374740">
        <ele>501.4</ele>
        <time>2022-08-29T04:10:59Z</time>
      </trkpt>
      <trkpt lat="42.4378380" lon="-2.5375570">
        <ele>501.4</ele>
        <time>2022-08-29T04:11:00Z</time>
      </trkpt>
      <trkpt lat="42.4378180" lon="-2.5376390">
        <ele>501.4</ele>
        <time>2022-08-29T04:11:01Z</time>
      </trkpt>
      <trkpt lat="42.4378000" lon="-2.5377170">
        <ele>501.4</ele>
        <time>2022-08-29T04:11:02Z</time>
      </trkpt>
      <trkpt lat="42.4377820" lon="-2.5377900">
        <ele>501.4</ele>
        <time>2022-08-29T04:11:03Z</time>
      </trkpt>
      <trkpt lat="42.4377660" lon="-2.5378590">
        <ele>501.2</ele>
        <time>2022-08-29T04:11:04Z</time>
      </trkpt>
      <trkpt lat="42.4377530" lon="-2.5379200">
        <ele>501.2</ele>
        <time>2022-08-29T04:11:05Z</time>
      </trkpt>
      <trkpt lat="42.4377400" lon="-2.5379780">
        <ele>501.2</ele>
        <time>2022-08-29T04:11:06Z</time>
      </trkpt>
      <trkpt lat="42.4377310" lon="-2.5380310">
        <ele>501.4</ele>
        <time>2022-08-29T04:11:07Z</time>
      </trkpt>
      <trkpt lat="42.4377270" lon="-2.5380790">
        <ele>501.4</ele>
        <time>2022-08-29T04:11:08Z</time>
      </trkpt>
      <trkpt lat="42.4377280" lon="-2.5381220">
        <ele>501.4</ele>
        <time>2022-08-29T04:11:09Z</time>
      </trkpt>
      <trkpt lat="42.4377260" lon="-2.5381650">
        <ele>501.4</ele>
        <time>2022-08-29T04:11:10Z</time>
      </trkpt>
      <trkpt lat="42.4377220" lon="-2.5382080">
        <ele>501.4</ele>
        <time>2022-08-29T04:11:11Z</time>
      </trkpt>
      <trkpt lat="42.4377170" lon="-2.5382510">
        <ele>501.6</ele>
        <time>2022-08-29T04:11:12Z</time>
      </trkpt>
      <trkpt lat="42.4377120" lon="-2.5382950">
        <ele>501.8</ele>
        <time>2022-08-29T04:11:13Z</time>
      </trkpt>
      <trkpt lat="42.4377080" lon="-2.5383420">
        <ele>502.0</ele>
        <time>2022-08-29T04:11:14Z</time>
      </trkpt>
      <trkpt lat="42.4377040" lon="-2.5383900">
        <ele>502.2</ele>
        <time>2022-08-29T04:11:15Z</time>
      </trkpt>
      <trkpt lat="42.4377000" lon="-2.5384380">
        <ele>502.6</ele>
        <time>2022-08-29T04:11:16Z</time>
      </trkpt>
      <trkpt lat="42.4376980" lon="-2.5384880">
        <ele>502.6</ele>
        <time>2022-08-29T04:11:17Z</time>
      </trkpt>
      <trkpt lat="42.4376930" lon="-2.5385360">
        <ele>503.0</ele>
        <time>2022-08-29T04:11:18Z</time>
      </trkpt>
      <trkpt lat="42.4376920" lon="-2.5385840">
        <ele>503.2</ele>
        <time>2022-08-29T04:11:19Z</time>
      </trkpt>
      <trkpt lat="42.4376870" lon="-2.5386310">
        <ele>503.6</ele>
        <time>2022-08-29T04:11:20Z</time>
      </trkpt>
      <trkpt lat="42.4376820" lon="-2.5386770">
        <ele>503.6</ele>
        <time>2022-08-29T04:11:21Z</time>
      </trkpt>
      <trkpt lat="42.4376760" lon="-2.5387220">
        <ele>503.8</ele>
        <time>2022-08-29T04:11:22Z</time>
      </trkpt>
      <trkpt lat="42.4376670" lon="-2.5387660">
        <ele>504.0</ele>
        <time>2022-08-29T04:11:23Z</time>
      </trkpt>
      <trkpt lat="42.4376560" lon="-2.5388100">
        <ele>503.8</ele>
        <time>2022-08-29T04:11:24Z</time>
      </trkpt>
      <trkpt lat="42.4376450" lon="-2.5388550">
        <ele>504.0</ele>
        <time>2022-08-29T04:11:25Z</time>
      </trkpt>
      <trkpt lat="42.4376370" lon="-2.5389010">
        <ele>504.0</ele>
        <time>2022-08-29T04:11:26Z</time>
      </trkpt>
      <trkpt lat="42.4376270" lon="-2.5389470">
        <ele>504.2</ele>
        <time>2022-08-29T04:11:27Z</time>
      </trkpt>
      <trkpt lat="42.4376160" lon="-2.5389930">
        <ele>504.2</ele>
        <time>2022-08-29T04:11:28Z</time>
      </trkpt>
      <trkpt lat="42.4376030" lon="-2.5390380">
        <ele>504.6</ele>
        <time>2022-08-29T04:11:29Z</time>
      </trkpt>
      <trkpt lat="42.4375900" lon="-2.5390830">
        <ele>504.8</ele>
        <time>2022-08-29T04:11:30Z</time>
      </trkpt>
      <trkpt lat="42.4375750" lon="-2.5391250">
        <ele>504.8</ele>
        <time>2022-08-29T04:11:31Z</time>
      </trkpt>
      <trkpt lat="42.4375600" lon="-2.5391680">
        <ele>504.8</ele>
        <time>2022-08-29T04:11:32Z</time>
      </trkpt>
      <trkpt lat="42.4375450" lon="-2.5392120">
        <ele>505.0</ele>
        <time>2022-08-29T04:11:33Z</time>
      </trkpt>
      <trkpt lat="42.4375270" lon="-2.5392540">
        <ele>505.2</ele>
        <time>2022-08-29T04:11:34Z</time>
      </trkpt>
      <trkpt lat="42.4375090" lon="-2.5392960">
        <ele>505.4</ele>
        <time>2022-08-29T04:11:35Z</time>
      </trkpt>
      <trkpt lat="42.4374910" lon="-2.5393380">
        <ele>505.6</ele>
        <time>2022-08-29T04:11:36Z</time>
      </trkpt>
      <trkpt lat="42.4374740" lon="-2.5393800">
        <ele>505.6</ele>
        <time>2022-08-29T04:11:37Z</time>
      </trkpt>
      <trkpt lat="42.4374530" lon="-2.5394190">
        <ele>505.8</ele>
        <time>2022-08-29T04:11:38Z</time>
      </trkpt>
      <trkpt lat="42.4374330" lon="-2.5394580">
        <ele>506.0</ele>
        <time>2022-08-29T04:11:39Z</time>
      </trkpt>
      <trkpt lat="42.4374130" lon="-2.5394960">
        <ele>505.8</ele>
        <time>2022-08-29T04:11:40Z</time>
      </trkpt>
      <trkpt lat="42.4373920" lon="-2.5395330">
        <ele>506.0</ele>
        <time>2022-08-29T04:11:41Z</time>
      </trkpt>
      <trkpt lat="42.4373700" lon="-2.5395690">
        <ele>506.2</ele>
        <time>2022-08-29T04:11:42Z</time>
      </trkpt>
      <trkpt lat="42.4373500" lon="-2.5396060">
        <ele>506.2</ele>
        <time>2022-08-29T04:11:43Z</time>
      </trkpt>
      <trkpt lat="42.4373310" lon="-2.5396440">
        <ele>506.0</ele>
        <time>2022-08-29T04:11:44Z</time>
      </trkpt>
      <trkpt lat="42.4373120" lon="-2.5396830">
        <ele>506.4</ele>
        <time>2022-08-29T04:11:45Z</time>
      </trkpt>
      <trkpt lat="42.4372910" lon="-2.5397220">
        <ele>506.4</ele>
        <time>2022-08-29T04:11:46Z</time>
      </trkpt>
      <trkpt lat="42.4372710" lon="-2.5397600">
        <ele>506.6</ele>
        <time>2022-08-29T04:11:47Z</time>
      </trkpt>
      <trkpt lat="42.4372510" lon="-2.5398000">
        <ele>506.8</ele>
        <time>2022-08-29T04:11:48Z</time>
      </trkpt>
      <trkpt lat="42.4372300" lon="-2.5398410">
        <ele>506.8</ele>
        <time>2022-08-29T04:11:49Z</time>
      </trkpt>
      <trkpt lat="42.4372090" lon="-2.5398840">
        <ele>506.8</ele>
        <time>2022-08-29T04:11:50Z</time>
      </trkpt>
      <trkpt lat="42.4371880" lon="-2.5399290">
        <ele>506.8</ele>
        <time>2022-08-29T04:11:51Z</time>
      </trkpt>
      <trkpt lat="42.4371690" lon="-2.5399760">
        <ele>507.0</ele>
        <time>2022-08-29T04:11:52Z</time>
      </trkpt>
      <trkpt lat="42.4371500" lon="-2.5400200">
        <ele>507.2</ele>
        <time>2022-08-29T04:11:53Z</time>
      </trkpt>
      <trkpt lat="42.4371290" lon="-2.5400600">
        <ele>507.2</ele>
        <time>2022-08-29T04:11:54Z</time>
      </trkpt>
      <trkpt lat="42.4371100" lon="-2.5400980">
        <ele>507.2</ele>
        <time>2022-08-29T04:11:55Z</time>
      </trkpt>
      <trkpt lat="42.4370940" lon="-2.5401310">
        <ele>507.2</ele>
        <time>2022-08-29T04:11:56Z</time>
      </trkpt>
      <trkpt lat="42.4370800" lon="-2.5401610">
        <ele>507.4</ele>
        <time>2022-08-29T04:11:57Z</time>
      </trkpt>
      <trkpt lat="42.4370640" lon="-2.5401880">
        <ele>507.4</ele>
        <time>2022-08-29T04:11:58Z</time>
      </trkpt>
      <trkpt lat="42.4370500" lon="-2.5402160">
        <ele>507.6</ele>
        <time>2022-08-29T04:11:59Z</time>
      </trkpt>
      <trkpt lat="42.4370350" lon="-2.5402430">
        <ele>507.6</ele>
        <time>2022-08-29T04:12:00Z</time>
      </trkpt>
      <trkpt lat="42.4370190" lon="-2.5402710">
        <ele>507.8</ele>
        <time>2022-08-29T04:12:01Z</time>
      </trkpt>
      <trkpt lat="42.4370030" lon="-2.5403010">
        <ele>507.8</ele>
        <time>2022-08-29T04:12:02Z</time>
      </trkpt>
      <trkpt lat="42.4369850" lon="-2.5403310">
        <ele>508.2</ele>
        <time>2022-08-29T04:12:03Z</time>
      </trkpt>
      <trkpt lat="42.4369660" lon="-2.5403610">
        <ele>508.2</ele>
        <time>2022-08-29T04:12:04Z</time>
      </trkpt>
      <trkpt lat="42.4369470" lon="-2.5403930">
        <ele>508.0</ele>
        <time>2022-08-29T04:12:05Z</time>
      </trkpt>
      <trkpt lat="42.4369260" lon="-2.5404270">
        <ele>508.2</ele>
        <time>2022-08-29T04:12:06Z</time>
      </trkpt>
      <trkpt lat="42.4369030" lon="-2.5404610">
        <ele>508.4</ele>
        <time>2022-08-29T04:12:07Z</time>
      </trkpt>
      <trkpt lat="42.4368810" lon="-2.5404980">
        <ele>508.4</ele>
        <time>2022-08-29T04:12:08Z</time>
      </trkpt>
      <trkpt lat="42.4368580" lon="-2.5405380">
        <ele>508.6</ele>
        <time>2022-08-29T04:12:09Z</time>
      </trkpt>
      <trkpt lat="42.4368360" lon="-2.5405860">
        <ele>508.6</ele>
        <time>2022-08-29T04:12:10Z</time>
      </trkpt>
      <trkpt lat="42.4368100" lon="-2.5406430">
        <ele>508.6</ele>
        <time>2022-08-29T04:12:11Z</time>
      </trkpt>
      <trkpt lat="42.4367830" lon="-2.5407110">
        <ele>508.6</ele>
        <time>2022-08-29T04:12:12Z</time>
      </trkpt>
      <trkpt lat="42.4367530" lon="-2.5407930">
        <ele>508.6</ele>
        <time>2022-08-29T04:12:13Z</time>
      </trkpt>
      <trkpt lat="42.4367260" lon="-2.5408920">
        <ele>508.8</ele>
        <time>2022-08-29T04:12:14Z</time>
      </trkpt>
      <trkpt lat="42.4366970" lon="-2.5410040">
        <ele>508.8</ele>
        <time>2022-08-29T04:12:15Z</time>
      </trkpt>
      <trkpt lat="42.4366720" lon="-2.5411310">
        <ele>508.6</ele>
        <time>2022-08-29T04:12:16Z</time>
      </trkpt>
      <trkpt lat="42.4366530" lon="-2.5412760">
        <ele>508.6</ele>
        <time>2022-08-29T04:12:17Z</time>
      </trkpt>
      <trkpt lat="42.4366390" lon="-2.5414370">
        <ele>508.6</ele>
        <time>2022-08-29T04:12:18Z</time>
      </trkpt>
      <trkpt lat="42.4366270" lon="-2.5415940">
        <ele>508.6</ele>
        <time>2022-08-29T04:12:19Z</time>
      </trkpt>
      <trkpt lat="42.4366070" lon="-2.5417520">
        <ele>508.4</ele>
        <time>2022-08-29T04:12:20Z</time>
      </trkpt>
      <trkpt lat="42.4365840" lon="-2.5418990">
        <ele>508.0</ele>
        <time>2022-08-29T04:12:21Z</time>
      </trkpt>
      <trkpt lat="42.4365600" lon="-2.5420330">
        <ele>507.0</ele>
        <time>2022-08-29T04:12:22Z</time>
      </trkpt>
      <trkpt lat="42.4365370" lon="-2.5421620">
        <ele>505.6</ele>
        <time>2022-08-29T04:12:23Z</time>
      </trkpt>
      <trkpt lat="42.4365160" lon="-2.5422770">
        <ele>503.8</ele>
        <time>2022-08-29T04:12:24Z</time>
      </trkpt>
      <trkpt lat="42.4365000" lon="-2.5423710">
        <ele>501.6</ele>
        <time>2022-08-29T04:12:25Z</time>
      </trkpt>
      <trkpt lat="42.4364850" lon="-2.5424460">
        <ele>499.6</ele>
        <time>2022-08-29T04:12:26Z</time>
      </trkpt>
      <trkpt lat="42.4364650" lon="-2.5425080">
        <ele>497.2</ele>
        <time>2022-08-29T04:12:27Z</time>
      </trkpt>
      <trkpt lat="42.4364410" lon="-2.5425700">
        <ele>495.0</ele>
        <time>2022-08-29T04:12:28Z</time>
      </trkpt>
      <trkpt lat="42.4364120" lon="-2.5426350">
        <ele>493.4</ele>
        <time>2022-08-29T04:12:29Z</time>
      </trkpt>
      <trkpt lat="42.4363820" lon="-2.5427090">
        <ele>492.0</ele>
        <time>2022-08-29T04:12:30Z</time>
      </trkpt>
      <trkpt lat="42.4363560" lon="-2.5427940">
        <ele>491.0</ele>
        <time>2022-08-29T04:12:31Z</time>
      </trkpt>
      <trkpt lat="42.4363370" lon="-2.5428940">
        <ele>489.8</ele>
        <time>2022-08-29T04:12:32Z</time>
      </trkpt>
      <trkpt lat="42.4363240" lon="-2.5430020">
        <ele>488.8</ele>
        <time>2022-08-29T04:12:33Z</time>
      </trkpt>
      <trkpt lat="42.4363130" lon="-2.5431140">
        <ele>488.2</ele>
        <time>2022-08-29T04:12:34Z</time>
      </trkpt>
      <trkpt lat="42.4363030" lon="-2.5432300">
        <ele>488.0</ele>
        <time>2022-08-29T04:12:35Z</time>
      </trkpt>
      <trkpt lat="42.4362940" lon="-2.5433510">
        <ele>487.6</ele>
        <time>2022-08-29T04:12:36Z</time>
      </trkpt>
      <trkpt lat="42.4362830" lon="-2.5434730">
        <ele>487.4</ele>
        <time>2022-08-29T04:12:37Z</time>
      </trkpt>
      <trkpt lat="42.4362670" lon="-2.5435950">
        <ele>486.8</ele>
        <time>2022-08-29T04:12:38Z</time>
      </trkpt>
      <trkpt lat="42.4362490" lon="-2.5437190">
        <ele>486.8</ele>
        <time>2022-08-29T04:12:39Z</time>
      </trkpt>
      <trkpt lat="42.4362320" lon="-2.5438450">
        <ele>486.0</ele>
        <time>2022-08-29T04:12:40Z</time>
      </trkpt>
      <trkpt lat="42.4362170" lon="-2.5439700">
        <ele>485.2</ele>
        <time>2022-08-29T04:12:41Z</time>
      </trkpt>
      <trkpt lat="42.4362020" lon="-2.5440930">
        <ele>484.0</ele>
        <time>2022-08-29T04:12:42Z</time>
      </trkpt>
      <trkpt lat="42.4361850" lon="-2.5442140">
        <ele>483.4</ele>
        <time>2022-08-29T04:12:43Z</time>
      </trkpt>
      <trkpt lat="42.4361690" lon="-2.5443330">
        <ele>482.4</ele>
        <time>2022-08-29T04:12:44Z</time>
      </trkpt>
      <trkpt lat="42.4361530" lon="-2.5444510">
        <ele>481.6</ele>
        <time>2022-08-29T04:12:45Z</time>
      </trkpt>
      <trkpt lat="42.4361380" lon="-2.5445680">
        <ele>481.4</ele>
        <time>2022-08-29T04:12:46Z</time>
      </trkpt>
      <trkpt lat="42.4361250" lon="-2.5446800">
        <ele>480.8</ele>
        <time>2022-08-29T04:12:47Z</time>
      </trkpt>
      <trkpt lat="42.4361110" lon="-2.5447900">
        <ele>480.0</ele>
        <time>2022-08-29T04:12:48Z</time>
      </trkpt>
      <trkpt lat="42.4361000" lon="-2.5448960">
        <ele>479.2</ele>
        <time>2022-08-29T04:12:49Z</time>
      </trkpt>
      <trkpt lat="42.4360870" lon="-2.5450010">
        <ele>478.8</ele>
        <time>2022-08-29T04:12:50Z</time>
      </trkpt>
      <trkpt lat="42.4360720" lon="-2.5451020">
        <ele>478.6</ele>
        <time>2022-08-29T04:12:51Z</time>
      </trkpt>
      <trkpt lat="42.4360570" lon="-2.5452000">
        <ele>478.2</ele>
        <time>2022-08-29T04:12:52Z</time>
      </trkpt>
      <trkpt lat="42.4360420" lon="-2.5452950">
        <ele>478.2</ele>
        <time>2022-08-29T04:12:53Z</time>
      </trkpt>
      <trkpt lat="42.4360290" lon="-2.5453870">
        <ele>478.2</ele>
        <time>2022-08-29T04:12:54Z</time>
      </trkpt>
      <trkpt lat="42.4360150" lon="-2.5454800">
        <ele>478.0</ele>
        <time>2022-08-29T04:12:55Z</time>
      </trkpt>
      <trkpt lat="42.4360000" lon="-2.5455750">
        <ele>478.0</ele>
        <time>2022-08-29T04:12:56Z</time>
      </trkpt>
      <trkpt lat="42.4359840" lon="-2.5456720">
        <ele>478.0</ele>
        <time>2022-08-29T04:12:57Z</time>
      </trkpt>
      <trkpt lat="42.4359670" lon="-2.5457690">
        <ele>478.0</ele>
        <time>2022-08-29T04:12:58Z</time>
      </trkpt>
      <trkpt lat="42.4359510" lon="-2.5458640">
        <ele>478.0</ele>
        <time>2022-08-29T04:12:59Z</time>
      </trkpt>
      <trkpt lat="42.4359340" lon="-2.5459560">
        <ele>478.0</ele>
        <time>2022-08-29T04:13:00Z</time>
      </trkpt>
      <trkpt lat="42.4359180" lon="-2.5460460">
        <ele>477.8</ele>
        <time>2022-08-29T04:13:01Z</time>
      </trkpt>
      <trkpt lat="42.4359020" lon="-2.5461350">
        <ele>478.0</ele>
        <time>2022-08-29T04:13:02Z</time>
      </trkpt>
      <trkpt lat="42.4358860" lon="-2.5462230">
        <ele>477.8</ele>
        <time>2022-08-29T04:13:03Z</time>
      </trkpt>
      <trkpt lat="42.4358710" lon="-2.5463100">
        <ele>477.8</ele>
        <time>2022-08-29T04:13:04Z</time>
      </trkpt>
      <trkpt lat="42.4358580" lon="-2.5463960">
        <ele>477.8</ele>
        <time>2022-08-29T04:13:05Z</time>
      </trkpt>
      <trkpt lat="42.4358450" lon="-2.5464810">
        <ele>477.8</ele>
        <time>2022-08-29T04:13:06Z</time>
      </trkpt>
      <trkpt lat="42.4358360" lon="-2.5465660">
        <ele>477.6</ele>
        <time>2022-08-29T04:13:07Z</time>
      </trkpt>
      <trkpt lat="42.4358290" lon="-2.5466520">
        <ele>477.6</ele>
        <time>2022-08-29T04:13:08Z</time>
      </trkpt>
      <trkpt lat="42.4358200" lon="-2.5467380">
        <ele>477.4</ele>
        <time>2022-08-29T04:13:09Z</time>
      </trkpt>
      <trkpt lat="42.4358100" lon="-2.5468240">
        <ele>477.4</ele>
        <time>2022-08-29T04:13:10Z</time>
      </trkpt>
      <trkpt lat="42.4357990" lon="-2.5469090">
        <ele>477.4</ele>
        <time>2022-08-29T04:13:11Z</time>
      </trkpt>
      <trkpt lat="42.4357900" lon="-2.5469930">
        <ele>477.2</ele>
        <time>2022-08-29T04:13:12Z</time>
      </trkpt>
      <trkpt lat="42.4357800" lon="-2.5470770">
        <ele>477.4</ele>
        <time>2022-08-29T04:13:13Z</time>
      </trkpt>
      <trkpt lat="42.4357680" lon="-2.5471600">
        <ele>477.2</ele>
        <time>2022-08-29T04:13:14Z</time>
      </trkpt>
      <trkpt lat="42.4357560" lon="-2.5472420">
        <ele>477.4</ele>
        <time>2022-08-29T04:13:15Z</time>
      </trkpt>
      <trkpt lat="42.4357420" lon="-2.5473230">
        <ele>477.2</ele>
        <time>2022-08-29T04:13:16Z</time>
      </trkpt>
      <trkpt lat="42.4357290" lon="-2.5474040">
        <ele>477.2</ele>
        <time>2022-08-29T04:13:17Z</time>
      </trkpt>
      <trkpt lat="42.4357150" lon="-2.5474830">
        <ele>477.2</ele>
        <time>2022-08-29T04:13:18Z</time>
      </trkpt>
      <trkpt lat="42.4356980" lon="-2.5475620">
        <ele>477.2</ele>
        <time>2022-08-29T04:13:19Z</time>
      </trkpt>
      <trkpt lat="42.4356820" lon="-2.5476440">
        <ele>477.0</ele>
        <time>2022-08-29T04:13:20Z</time>
      </trkpt>
      <trkpt lat="42.4356650" lon="-2.5477280">
        <ele>477.2</ele>
        <time>2022-08-29T04:13:21Z</time>
      </trkpt>
      <trkpt lat="42.4356480" lon="-2.5478140">
        <ele>477.0</ele>
        <time>2022-08-29T04:13:22Z</time>
      </trkpt>
      <trkpt lat="42.4356260" lon="-2.5479010">
        <ele>476.8</ele>
        <time>2022-08-29T04:13:23Z</time>
      </trkpt>
      <trkpt lat="42.4356040" lon="-2.5479860">
        <ele>476.8</ele>
        <time>2022-08-29T04:13:24Z</time>
      </trkpt>
      <trkpt lat="42.4355880" lon="-2.5480700">
        <ele>476.8</ele>
        <time>2022-08-29T04:13:25Z</time>
      </trkpt>
      <trkpt lat="42.4355760" lon="-2.5481530">
        <ele>476.8</ele>
        <time>2022-08-29T04:13:26Z</time>
      </trkpt>
      <trkpt lat="42.4355690" lon="-2.5482340">
        <ele>476.8</ele>
        <time>2022-08-29T04:13:27Z</time>
      </trkpt>
      <trkpt lat="42.4355710" lon="-2.5483090">
        <ele>476.8</ele>
        <time>2022-08-29T04:13:28Z</time>
      </trkpt>
      <trkpt lat="42.4355770" lon="-2.5483820">
        <ele>476.6</ele>
        <time>2022-08-29T04:13:29Z</time>
      </trkpt>
      <trkpt lat="42.4355850" lon="-2.5484560">
        <ele>476.4</ele>
        <time>2022-08-29T04:13:30Z</time>
      </trkpt>
      <trkpt lat="42.4355950" lon="-2.5485270">
        <ele>476.4</ele>
        <time>2022-08-29T04:13:31Z</time>
      </trkpt>
      <trkpt lat="42.4356050" lon="-2.5485980">
        <ele>476.2</ele>
        <time>2022-08-29T04:13:32Z</time>
      </trkpt>
      <trkpt lat="42.4356140" lon="-2.5486710">
        <ele>476.0</ele>
        <time>2022-08-29T04:13:33Z</time>
      </trkpt>
      <trkpt lat="42.4356210" lon="-2.5487380">
        <ele>476.0</ele>
        <time>2022-08-29T04:13:34Z</time>
      </trkpt>
      <trkpt lat="42.4356330" lon="-2.5488020">
        <ele>476.0</ele>
        <time>2022-08-29T04:13:35Z</time>
      </trkpt>
      <trkpt lat="42.4356480" lon="-2.5488600">
        <ele>476.0</ele>
        <time>2022-08-29T04:13:36Z</time>
      </trkpt>
      <trkpt lat="42.4356650" lon="-2.5489130">
        <ele>476.0</ele>
        <time>2022-08-29T04:13:37Z</time>
      </trkpt>
      <trkpt lat="42.4356820" lon="-2.5489630">
        <ele>475.8</ele>
        <time>2022-08-29T04:13:38Z</time>
      </trkpt>
      <trkpt lat="42.4356960" lon="-2.5490040">
        <ele>475.8</ele>
        <time>2022-08-29T04:13:39Z</time>
      </trkpt>
      <trkpt lat="42.4357120" lon="-2.5490390">
        <ele>476.0</ele>
        <time>2022-08-29T04:13:40Z</time>
      </trkpt>
      <trkpt lat="42.4357280" lon="-2.5490750">
        <ele>476.0</ele>
        <time>2022-08-29T04:13:41Z</time>
      </trkpt>
      <trkpt lat="42.4357450" lon="-2.5491080">
        <ele>476.2</ele>
        <time>2022-08-29T04:13:42Z</time>
      </trkpt>
      <trkpt lat="42.4357620" lon="-2.5491400">
        <ele>476.0</ele>
        <time>2022-08-29T04:13:43Z</time>
      </trkpt>
      <trkpt lat="42.4357780" lon="-2.5491690">
        <ele>476.2</ele>
        <time>2022-08-29T04:13:44Z</time>
      </trkpt>
      <trkpt lat="42.4357920" lon="-2.5492000">
        <ele>476.4</ele>
        <time>2022-08-29T04:13:45Z</time>
      </trkpt>
      <trkpt lat="42.4358070" lon="-2.5492290">
        <ele>476.8</ele>
        <time>2022-08-29T04:13:46Z</time>
      </trkpt>
      <trkpt lat="42.4358220" lon="-2.5492600">
        <ele>477.0</ele>
        <time>2022-08-29T04:13:47Z</time>
      </trkpt>
      <trkpt lat="42.4358400" lon="-2.5492890">
        <ele>477.6</ele>
        <time>2022-08-29T04:13:48Z</time>
      </trkpt>
      <trkpt lat="42.4358580" lon="-2.5493160">
        <ele>477.6</ele>
        <time>2022-08-29T04:13:49Z</time>
      </trkpt>
      <trkpt lat="42.4358730" lon="-2.5493390">
        <ele>478.0</ele>
        <time>2022-08-29T04:13:50Z</time>
      </trkpt>
      <trkpt lat="42.4358850" lon="-2.5493630">
        <ele>478.2</ele>
        <time>2022-08-29T04:13:51Z</time>
      </trkpt>
      <trkpt lat="42.4358980" lon="-2.5493870">
        <ele>478.2</ele>
        <time>2022-08-29T04:13:52Z</time>
      </trkpt>
      <trkpt lat="42.4359090" lon="-2.5494130">
        <ele>478.4</ele>
        <time>2022-08-29T04:13:53Z</time>
      </trkpt>
      <trkpt lat="42.4359190" lon="-2.5494400">
        <ele>478.6</ele>
        <time>2022-08-29T04:13:54Z</time>
      </trkpt>
      <trkpt lat="42.4359240" lon="-2.5494710">
        <ele>478.8</ele>
        <time>2022-08-29T04:13:55Z</time>
      </trkpt>
      <trkpt lat="42.4359250" lon="-2.5495000">
        <ele>479.0</ele>
        <time>2022-08-29T04:13:56Z</time>
      </trkpt>
      <trkpt lat="42.4359240" lon="-2.5495300">
        <ele>479.4</ele>
        <time>2022-08-29T04:13:57Z</time>
      </trkpt>
      <trkpt lat="42.4359250" lon="-2.5495610">
        <ele>479.4</ele>
        <time>2022-08-29T04:13:58Z</time>
      </trkpt>
      <trkpt lat="42.4359260" lon="-2.5495890">
        <ele>479.8</ele>
        <time>2022-08-29T04:13:59Z</time>
      </trkpt>
      <trkpt lat="42.4359270" lon="-2.5496160">
        <ele>480.0</ele>
        <time>2022-08-29T04:14:00Z</time>
      </trkpt>
      <trkpt lat="42.4359270" lon="-2.5496440">
        <ele>480.4</ele>
        <time>2022-08-29T04:14:01Z</time>
      </trkpt>
      <trkpt lat="42.4359250" lon="-2.5496730">
        <ele>480.6</ele>
        <time>2022-08-29T04:14:02Z</time>
      </trkpt>
      <trkpt lat="42.4359200" lon="-2.5497020">
        <ele>480.8</ele>
        <time>2022-08-29T04:14:03Z</time>
      </trkpt>
      <trkpt lat="42.4359110" lon="-2.5497300">
        <ele>481.0</ele>
        <time>2022-08-29T04:14:04Z</time>
      </trkpt>
      <trkpt lat="42.4358980" lon="-2.5497560">
        <ele>481.0</ele>
        <time>2022-08-29T04:14:05Z</time>
      </trkpt>
      <trkpt lat="42.4358800" lon="-2.5497780">
        <ele>481.2</ele>
        <time>2022-08-29T04:14:06Z</time>
      </trkpt>
      <trkpt lat="42.4358610" lon="-2.5497990">
        <ele>481.4</ele>
        <time>2022-08-29T04:14:07Z</time>
      </trkpt>
      <trkpt lat="42.4358430" lon="-2.5498210">
        <ele>481.4</ele>
        <time>2022-08-29T04:14:08Z</time>
      </trkpt>
      <trkpt lat="42.4358260" lon="-2.5498440">
        <ele>481.6</ele>
        <time>2022-08-29T04:14:09Z</time>
      </trkpt>
      <trkpt lat="42.4358080" lon="-2.5498670">
        <ele>481.8</ele>
        <time>2022-08-29T04:14:10Z</time>
      </trkpt>
      <trkpt lat="42.4357920" lon="-2.5498910">
        <ele>481.8</ele>
        <time>2022-08-29T04:14:11Z</time>
      </trkpt>
      <trkpt lat="42.4357770" lon="-2.5499130">
        <ele>482.2</ele>
        <time>2022-08-29T04:14:12Z</time>
      </trkpt>
      <trkpt lat="42.4357610" lon="-2.5499340">
        <ele>482.2</ele>
        <time>2022-08-29T04:14:13Z</time>
      </trkpt>
      <trkpt lat="42.4357420" lon="-2.5499550">
        <ele>482.6</ele>
        <time>2022-08-29T04:14:14Z</time>
      </trkpt>
      <trkpt lat="42.4357210" lon="-2.5499770">
        <ele>482.6</ele>
        <time>2022-08-29T04:14:15Z</time>
      </trkpt>
      <trkpt lat="42.4357020" lon="-2.5500030">
        <ele>482.6</ele>
        <time>2022-08-29T04:14:16Z</time>
      </trkpt>
      <trkpt lat="42.4356850" lon="-2.5500300">
        <ele>482.8</ele>
        <time>2022-08-29T04:14:17Z</time>
      </trkpt>
      <trkpt lat="42.4356670" lon="-2.5500570">
        <ele>483.0</ele>
        <time>2022-08-29T04:14:18Z</time>
      </trkpt>
      <trkpt lat="42.4356480" lon="-2.5500840">
        <ele>483.0</ele>
        <time>2022-08-29T04:14:19Z</time>
      </trkpt>
      <trkpt lat="42.4356280" lon="-2.5501110">
        <ele>483.2</ele>
        <time>2022-08-29T04:14:20Z</time>
      </trkpt>
      <trkpt lat="42.4356060" lon="-2.5501370">
        <ele>483.4</ele>
        <time>2022-08-29T04:14:21Z</time>
      </trkpt>
      <trkpt lat="42.4355830" lon="-2.5501630">
        <ele>483.4</ele>
        <time>2022-08-29T04:14:22Z</time>
      </trkpt>
      <trkpt lat="42.4355590" lon="-2.5501900">
        <ele>483.4</ele>
        <time>2022-08-29T04:14:23Z</time>
      </trkpt>
      <trkpt lat="42.4355360" lon="-2.5502200">
        <ele>483.4</ele>
        <time>2022-08-29T04:14:24Z</time>
      </trkpt>
      <trkpt lat="42.4355140" lon="-2.5502500">
        <ele>483.4</ele>
        <time>2022-08-29T04:14:25Z</time>
      </trkpt>
      <trkpt lat="42.4354910" lon="-2.5502780">
        <ele>483.4</ele>
        <time>2022-08-29T04:14:26Z</time>
      </trkpt>
      <trkpt lat="42.4354680" lon="-2.5503070">
        <ele>483.4</ele>
        <time>2022-08-29T04:14:27Z</time>
      </trkpt>
      <trkpt lat="42.4354440" lon="-2.5503370">
        <ele>483.6</ele>
        <time>2022-08-29T04:14:28Z</time>
      </trkpt>
      <trkpt lat="42.4354180" lon="-2.5503690">
        <ele>483.4</ele>
        <time>2022-08-29T04:14:29Z</time>
      </trkpt>
      <trkpt lat="42.4353870" lon="-2.5504030">
        <ele>483.4</ele>
        <time>2022-08-29T04:14:30Z</time>
      </trkpt>
      <trkpt lat="42.4353520" lon="-2.5504420">
        <ele>483.4</ele>
        <time>2022-08-29T04:14:31Z</time>
      </trkpt>
      <trkpt lat="42.4353140" lon="-2.5504860">
        <ele>483.6</ele>
        <time>2022-08-29T04:14:32Z</time>
      </trkpt>
      <trkpt lat="42.4352740" lon="-2.5505390">
        <ele>483.4</ele>
        <time>2022-08-29T04:14:33Z</time>
      </trkpt>
      <trkpt lat="42.4352310" lon="-2.5505970">
        <ele>483.4</ele>
        <time>2022-08-29T04:14:34Z</time>
      </trkpt>
      <trkpt lat="42.4351830" lon="-2.5506590">
        <ele>483.4</ele>
        <time>2022-08-29T04:14:35Z</time>
      </trkpt>
      <trkpt lat="42.4351310" lon="-2.5507240">
        <ele>483.4</ele>
        <time>2022-08-29T04:14:36Z</time>
      </trkpt>
      <trkpt lat="42.4350750" lon="-2.5507980">
        <ele>483.2</ele>
        <time>2022-08-29T04:14:37Z</time>
      </trkpt>
      <trkpt lat="42.4350230" lon="-2.5508790">
        <ele>483.0</ele>
        <time>2022-08-29T04:14:38Z</time>
      </trkpt>
      <trkpt lat="42.4349790" lon="-2.5509720">
        <ele>482.8</ele>
        <time>2022-08-29T04:14:39Z</time>
      </trkpt>
      <trkpt lat="42.4349440" lon="-2.5510710">
        <ele>482.8</ele>
        <time>2022-08-29T04:14:40Z</time>
      </trkpt>
      <trkpt lat="42.4349140" lon="-2.5511740">
        <ele>482.2</ele>
        <time>2022-08-29T04:14:41Z</time>
      </trkpt>
      <trkpt lat="42.4348830" lon="-2.5512760">
        <ele>481.6</ele>
        <time>2022-08-29T04:14:42Z</time>
      </trkpt>
      <trkpt lat="42.4348530" lon="-2.5513780">
        <ele>481.4</ele>
        <time>2022-08-29T04:14:43Z</time>
      </trkpt>
      <trkpt lat="42.4348210" lon="-2.5514760">
        <ele>480.6</ele>
        <time>2022-08-29T04:14:44Z</time>
      </trkpt>
      <trkpt lat="42.4347900" lon="-2.5515710">
        <ele>479.6</ele>
        <time>2022-08-29T04:14:45Z</time>
      </trkpt>
      <trkpt lat="42.4347610" lon="-2.5516630">
        <ele>478.8</ele>
        <time>2022-08-29T04:14:46Z</time>
      </trkpt>
      <trkpt lat="42.4347360" lon="-2.5517540">
        <ele>477.6</ele>
        <time>2022-08-29T04:14:47Z</time>
      </trkpt>
      <trkpt lat="42.4347120" lon="-2.5518430">
        <ele>476.6</ele>
        <time>2022-08-29T04:14:48Z</time>
      </trkpt>
      <trkpt lat="42.4346920" lon="-2.5519330">
        <ele>476.0</ele>
        <time>2022-08-29T04:14:49Z</time>
      </trkpt>
      <trkpt lat="42.4346750" lon="-2.5520190">
        <ele>475.4</ele>
        <time>2022-08-29T04:14:50Z</time>
      </trkpt>
      <trkpt lat="42.4346580" lon="-2.5521030">
        <ele>475.2</ele>
        <time>2022-08-29T04:14:51Z</time>
      </trkpt>
      <trkpt lat="42.4346410" lon="-2.5521830">
        <ele>475.2</ele>
        <time>2022-08-29T04:14:52Z</time>
      </trkpt>
      <trkpt lat="42.4346230" lon="-2.5522590">
        <ele>475.0</ele>
        <time>2022-08-29T04:14:53Z</time>
      </trkpt>
      <trkpt lat="42.4346060" lon="-2.5523330">
        <ele>475.2</ele>
        <time>2022-08-29T04:14:54Z</time>
      </trkpt>
      <trkpt lat="42.4345890" lon="-2.5524040">
        <ele>475.0</ele>
        <time>2022-08-29T04:14:55Z</time>
      </trkpt>
      <trkpt lat="42.4345750" lon="-2.5524730">
        <ele>475.0</ele>
        <time>2022-08-29T04:14:56Z</time>
      </trkpt>
      <trkpt lat="42.4345610" lon="-2.5525400">
        <ele>475.0</ele>
        <time>2022-08-29T04:14:57Z</time>
      </trkpt>
      <trkpt lat="42.4345450" lon="-2.5526060">
        <ele>475.0</ele>
        <time>2022-08-29T04:14:58Z</time>
      </trkpt>
      <trkpt lat="42.4345270" lon="-2.5526700">
        <ele>475.0</ele>
        <time>2022-08-29T04:14:59Z</time>
      </trkpt>
      <trkpt lat="42.4345060" lon="-2.5527340">
        <ele>475.2</ele>
        <time>2022-08-29T04:15:00Z</time>
      </trkpt>
      <trkpt lat="42.4344860" lon="-2.5527970">
        <ele>475.2</ele>
        <time>2022-08-29T04:15:01Z</time>
      </trkpt>
      <trkpt lat="42.4344660" lon="-2.5528600">
        <ele>475.2</ele>
        <time>2022-08-29T04:15:02Z</time>
      </trkpt>
      <trkpt lat="42.4344470" lon="-2.5529240">
        <ele>475.4</ele>
        <time>2022-08-29T04:15:03Z</time>
      </trkpt>
      <trkpt lat="42.4344270" lon="-2.5529860">
        <ele>475.4</ele>
        <time>2022-08-29T04:15:04Z</time>
      </trkpt>
      <trkpt lat="42.4344050" lon="-2.5530480">
        <ele>475.4</ele>
        <time>2022-08-29T04:15:05Z</time>
      </trkpt>
      <trkpt lat="42.4343830" lon="-2.5531090">
        <ele>475.6</ele>
        <time>2022-08-29T04:15:06Z</time>
      </trkpt>
      <trkpt lat="42.4343610" lon="-2.5531700">
        <ele>475.8</ele>
        <time>2022-08-29T04:15:07Z</time>
      </trkpt>
      <trkpt lat="42.4343400" lon="-2.5532300">
        <ele>475.8</ele>
        <time>2022-08-29T04:15:08Z</time>
      </trkpt>
      <trkpt lat="42.4343180" lon="-2.5532890">
        <ele>476.0</ele>
        <time>2022-08-29T04:15:09Z</time>
      </trkpt>
      <trkpt lat="42.4342970" lon="-2.5533460">
        <ele>475.8</ele>
        <time>2022-08-29T04:15:10Z</time>
      </trkpt>
      <trkpt lat="42.4342760" lon="-2.5534010">
        <ele>476.0</ele>
        <time>2022-08-29T04:15:11Z</time>
      </trkpt>
      <trkpt lat="42.4342560" lon="-2.5534550">
        <ele>476.0</ele>
        <time>2022-08-29T04:15:12Z</time>
      </trkpt>
      <trkpt lat="42.4342380" lon="-2.5535100">
        <ele>476.0</ele>
        <time>2022-08-29T04:15:13Z</time>
      </trkpt>
      <trkpt lat="42.4342230" lon="-2.5535640">
        <ele>476.2</ele>
        <time>2022-08-29T04:15:14Z</time>
      </trkpt>
      <trkpt lat="42.4342100" lon="-2.5536180">
        <ele>476.2</ele>
        <time>2022-08-29T04:15:15Z</time>
      </trkpt>
      <trkpt lat="42.4341960" lon="-2.5536720">
        <ele>476.0</ele>
        <time>2022-08-29T04:15:16Z</time>
      </trkpt>
      <trkpt lat="42.4341800" lon="-2.5537260">
        <ele>476.2</ele>
        <time>2022-08-29T04:15:17Z</time>
      </trkpt>
      <trkpt lat="42.4341650" lon="-2.5537800">
        <ele>476.2</ele>
        <time>2022-08-29T04:15:18Z</time>
      </trkpt>
      <trkpt lat="42.4341520" lon="-2.5538330">
        <ele>476.2</ele>
        <time>2022-08-29T04:15:19Z</time>
      </trkpt>
      <trkpt lat="42.4341390" lon="-2.5538870">
        <ele>476.2</ele>
        <time>2022-08-29T04:15:20Z</time>
      </trkpt>
      <trkpt lat="42.4341250" lon="-2.5539420">
        <ele>476.2</ele>
        <time>2022-08-29T04:15:21Z</time>
      </trkpt>
      <trkpt lat="42.4341090" lon="-2.5539950">
        <ele>476.2</ele>
        <time>2022-08-29T04:15:22Z</time>
      </trkpt>
      <trkpt lat="42.4340920" lon="-2.5540490">
        <ele>476.4</ele>
        <time>2022-08-29T04:15:23Z</time>
      </trkpt>
      <trkpt lat="42.4340760" lon="-2.5541030">
        <ele>476.2</ele>
        <time>2022-08-29T04:15:24Z</time>
      </trkpt>
      <trkpt lat="42.4340590" lon="-2.5541550">
        <ele>476.4</ele>
        <time>2022-08-29T04:15:25Z</time>
      </trkpt>
      <trkpt lat="42.4340420" lon="-2.5542080">
        <ele>476.4</ele>
        <time>2022-08-29T04:15:26Z</time>
      </trkpt>
      <trkpt lat="42.4340270" lon="-2.5542620">
        <ele>476.4</ele>
        <time>2022-08-29T04:15:27Z</time>
      </trkpt>
      <trkpt lat="42.4340130" lon="-2.5543150">
        <ele>476.6</ele>
        <time>2022-08-29T04:15:28Z</time>
      </trkpt>
      <trkpt lat="42.4339990" lon="-2.5543680">
        <ele>476.6</ele>
        <time>2022-08-29T04:15:29Z</time>
      </trkpt>
      <trkpt lat="42.4339860" lon="-2.5544210">
        <ele>476.6</ele>
        <time>2022-08-29T04:15:30Z</time>
      </trkpt>
      <trkpt lat="42.4339700" lon="-2.5544730">
        <ele>476.6</ele>
        <time>2022-08-29T04:15:31Z</time>
      </trkpt>
      <trkpt lat="42.4339520" lon="-2.5545210">
        <ele>476.6</ele>
        <time>2022-08-29T04:15:32Z</time>
      </trkpt>
      <trkpt lat="42.4339330" lon="-2.5545680">
        <ele>476.8</ele>
        <time>2022-08-29T04:15:33Z</time>
      </trkpt>
      <trkpt lat="42.4339180" lon="-2.5546150">
        <ele>476.8</ele>
        <time>2022-08-29T04:15:34Z</time>
      </trkpt>
      <trkpt lat="42.4339040" lon="-2.5546600">
        <ele>476.8</ele>
        <time>2022-08-29T04:15:35Z</time>
      </trkpt>
      <trkpt lat="42.4338910" lon="-2.5547050">
        <ele>476.8</ele>
        <time>2022-08-29T04:15:36Z</time>
      </trkpt>
      <trkpt lat="42.4338780" lon="-2.5547520">
        <ele>477.0</ele>
        <time>2022-08-29T04:15:37Z</time>
      </trkpt>
      <trkpt lat="42.4338670" lon="-2.5547990">
        <ele>477.0</ele>
        <time>2022-08-29T04:15:38Z</time>
      </trkpt>
      <trkpt lat="42.4338530" lon="-2.5548430">
        <ele>477.0</ele>
        <time>2022-08-29T04:15:39Z</time>
      </trkpt>
      <trkpt lat="42.4338370" lon="-2.5548840">
        <ele>477.0</ele>
        <time>2022-08-29T04:15:40Z</time>
      </trkpt>
      <trkpt lat="42.4338220" lon="-2.5549230">
        <ele>477.2</ele>
        <time>2022-08-29T04:15:41Z</time>
      </trkpt>
      <trkpt lat="42.4338090" lon="-2.5549630">
        <ele>477.2</ele>
        <time>2022-08-29T04:15:42Z</time>
      </trkpt>
      <trkpt lat="42.4337960" lon="-2.5550060">
        <ele>477.2</ele>
        <time>2022-08-29T04:15:43Z</time>
      </trkpt>
      <trkpt lat="42.4337860" lon="-2.5550510">
        <ele>477.4</ele>
        <time>2022-08-29T04:15:44Z</time>
      </trkpt>
      <trkpt lat="42.4337740" lon="-2.5550980">
        <ele>477.2</ele>
        <time>2022-08-29T04:15:45Z</time>
      </trkpt>
      <trkpt lat="42.4337620" lon="-2.5551450">
        <ele>477.4</ele>
        <time>2022-08-29T04:15:46Z</time>
      </trkpt>
      <trkpt lat="42.4337490" lon="-2.5551900">
        <ele>477.2</ele>
        <time>2022-08-29T04:15:47Z</time>
      </trkpt>
      <trkpt lat="42.4337350" lon="-2.5552360">
        <ele>477.4</ele>
        <time>2022-08-29T04:15:48Z</time>
      </trkpt>
      <trkpt lat="42.4337240" lon="-2.5552830">
        <ele>477.6</ele>
        <time>2022-08-29T04:15:49Z</time>
      </trkpt>
      <trkpt lat="42.4337120" lon="-2.5553310">
        <ele>477.6</ele>
        <time>2022-08-29T04:15:50Z</time>
      </trkpt>
      <trkpt lat="42.4337000" lon="-2.5553810">
        <ele>477.8</ele>
        <time>2022-08-29T04:15:51Z</time>
      </trkpt>
      <trkpt lat="42.4336870" lon="-2.5554300">
        <ele>477.8</ele>
        <time>2022-08-29T04:15:52Z</time>
      </trkpt>
      <trkpt lat="42.4336740" lon="-2.5554790">
        <ele>477.6</ele>
        <time>2022-08-29T04:15:53Z</time>
      </trkpt>
      <trkpt lat="42.4336620" lon="-2.5555290">
        <ele>477.6</ele>
        <time>2022-08-29T04:15:54Z</time>
      </trkpt>
      <trkpt lat="42.4336520" lon="-2.5555810">
        <ele>477.6</ele>
        <time>2022-08-29T04:15:55Z</time>
      </trkpt>
      <trkpt lat="42.4336410" lon="-2.5556320">
        <ele>477.8</ele>
        <time>2022-08-29T04:15:56Z</time>
      </trkpt>
      <trkpt lat="42.4336290" lon="-2.5556810">
        <ele>477.6</ele>
        <time>2022-08-29T04:15:57Z</time>
      </trkpt>
      <trkpt lat="42.4336170" lon="-2.5557290">
        <ele>477.6</ele>
        <time>2022-08-29T04:15:58Z</time>
      </trkpt>
      <trkpt lat="42.4336040" lon="-2.5557760">
        <ele>477.8</ele>
        <time>2022-08-29T04:15:59Z</time>
      </trkpt>
      <trkpt lat="42.4335890" lon="-2.5558210">
        <ele>477.8</ele>
        <time>2022-08-29T04:16:00Z</time>
      </trkpt>
      <trkpt lat="42.4335730" lon="-2.5558670">
        <ele>477.6</ele>
        <time>2022-08-29T04:16:01Z</time>
      </trkpt>
      <trkpt lat="42.4335590" lon="-2.5559120">
        <ele>477.8</ele>
        <time>2022-08-29T04:16:02Z</time>
      </trkpt>
      <trkpt lat="42.4335460" lon="-2.5559570">
        <ele>477.8</ele>
        <time>2022-08-29T04:16:03Z</time>
      </trkpt>
      <trkpt lat="42.4335320" lon="-2.5560030">
        <ele>477.6</ele>
        <time>2022-08-29T04:16:04Z</time>
      </trkpt>
      <trkpt lat="42.4335180" lon="-2.5560490">
        <ele>477.8</ele>
        <time>2022-08-29T04:16:05Z</time>
      </trkpt>
      <trkpt lat="42.4335030" lon="-2.5560960">
        <ele>477.8</ele>
        <time>2022-08-29T04:16:06Z</time>
      </trkpt>
      <trkpt lat="42.4334890" lon="-2.5561440">
        <ele>477.8</ele>
        <time>2022-08-29T04:16:07Z</time>
      </trkpt>
      <trkpt lat="42.4334770" lon="-2.5561910">
        <ele>478.0</ele>
        <time>2022-08-29T04:16:08Z</time>
      </trkpt>
      <trkpt lat="42.4334640" lon="-2.5562370">
        <ele>477.8</ele>
        <time>2022-08-29T04:16:09Z</time>
      </trkpt>
      <trkpt lat="42.4334520" lon="-2.5562850">
        <ele>478.0</ele>
        <time>2022-08-29T04:16:10Z</time>
      </trkpt>
      <trkpt lat="42.4334400" lon="-2.5563310">
        <ele>478.0</ele>
        <time>2022-08-29T04:16:11Z</time>
      </trkpt>
      <trkpt lat="42.4334280" lon="-2.5563760">
        <ele>478.0</ele>
        <time>2022-08-29T04:16:12Z</time>
      </trkpt>
      <trkpt lat="42.4334150" lon="-2.5564200">
        <ele>478.0</ele>
        <time>2022-08-29T04:16:13Z</time>
      </trkpt>
      <trkpt lat="42.4334010" lon="-2.5564650">
        <ele>478.2</ele>
        <time>2022-08-29T04:16:14Z</time>
      </trkpt>
      <trkpt lat="42.4333880" lon="-2.5565100">
        <ele>478.2</ele>
        <time>2022-08-29T04:16:15Z</time>
      </trkpt>
      <trkpt lat="42.4333740" lon="-2.5565550">
        <ele>478.2</ele>
        <time>2022-08-29T04:16:16Z</time>
      </trkpt>
      <trkpt lat="42.4333610" lon="-2.5566020">
        <ele>478.2</ele>
        <time>2022-08-29T04:16:17Z</time>
      </trkpt>
      <trkpt lat="42.4333490" lon="-2.5566500">
        <ele>478.2</ele>
        <time>2022-08-29T04:16:18Z</time>
      </trkpt>
      <trkpt lat="42.4333370" lon="-2.5566960">
        <ele>478.4</ele>
        <time>2022-08-29T04:16:19Z</time>
      </trkpt>
      <trkpt lat="42.4333250" lon="-2.5567420">
        <ele>478.4</ele>
        <time>2022-08-29T04:16:20Z</time>
      </trkpt>
      <trkpt lat="42.4333110" lon="-2.5567870">
        <ele>478.4</ele>
        <time>2022-08-29T04:16:21Z</time>
      </trkpt>
      <trkpt lat="42.4332960" lon="-2.5568320">
        <ele>478.6</ele>
        <time>2022-08-29T04:16:22Z</time>
      </trkpt>
      <trkpt lat="42.4332810" lon="-2.5568770">
        <ele>478.4</ele>
        <time>2022-08-29T04:16:23Z</time>
      </trkpt>
      <trkpt lat="42.4332670" lon="-2.5569210">
        <ele>478.6</ele>
        <time>2022-08-29T04:16:24Z</time>
      </trkpt>
      <trkpt lat="42.4332530" lon="-2.5569650">
        <ele>478.6</ele>
        <time>2022-08-29T04:16:25Z</time>
      </trkpt>
      <trkpt lat="42.4332410" lon="-2.5570090">
        <ele>478.6</ele>
        <time>2022-08-29T04:16:26Z</time>
      </trkpt>
      <trkpt lat="42.4332280" lon="-2.5570540">
        <ele>478.6</ele>
        <time>2022-08-29T04:16:27Z</time>
      </trkpt>
      <trkpt lat="42.4332150" lon="-2.5571000">
        <ele>478.8</ele>
        <time>2022-08-29T04:16:28Z</time>
      </trkpt>
      <trkpt lat="42.4332020" lon="-2.5571450">
        <ele>478.8</ele>
        <time>2022-08-29T04:16:29Z</time>
      </trkpt>
      <trkpt lat="42.4331900" lon="-2.5571910">
        <ele>478.8</ele>
        <time>2022-08-29T04:16:30Z</time>
      </trkpt>
      <trkpt lat="42.4331790" lon="-2.5572360">
        <ele>478.8</ele>
        <time>2022-08-29T04:16:31Z</time>
      </trkpt>
      <trkpt lat="42.4331680" lon="-2.5572800">
        <ele>478.8</ele>
        <time>2022-08-29T04:16:32Z</time>
      </trkpt>
      <trkpt lat="42.4331560" lon="-2.5573230">
        <ele>478.8</ele>
        <time>2022-08-29T04:16:33Z</time>
      </trkpt>
      <trkpt lat="42.4331440" lon="-2.5573660">
        <ele>478.8</ele>
        <time>2022-08-29T04:16:34Z</time>
      </trkpt>
      <trkpt lat="42.4331300" lon="-2.5574110">
        <ele>478.8</ele>
        <time>2022-08-29T04:16:35Z</time>
      </trkpt>
      <trkpt lat="42.4331170" lon="-2.5574550">
        <ele>479.0</ele>
        <time>2022-08-29T04:16:36Z</time>
      </trkpt>
      <trkpt lat="42.4331040" lon="-2.5574980">
        <ele>479.0</ele>
        <time>2022-08-29T04:16:37Z</time>
      </trkpt>
      <trkpt lat="42.4330910" lon="-2.5575420">
        <ele>479.0</ele>
        <time>2022-08-29T04:16:38Z</time>
      </trkpt>
      <trkpt lat="42.4330780" lon="-2.5575850">
        <ele>479.0</ele>
        <time>2022-08-29T04:16:39Z</time>
      </trkpt>
      <trkpt lat="42.4330690" lon="-2.5576270">
        <ele>479.0</ele>
        <time>2022-08-29T04:16:40Z</time>
      </trkpt>
      <trkpt lat="42.4330610" lon="-2.5576690">
        <ele>479.2</ele>
        <time>2022-08-29T04:16:41Z</time>
      </trkpt>
      <trkpt lat="42.4330520" lon="-2.5577100">
        <ele>479.2</ele>
        <time>2022-08-29T04:16:42Z</time>
      </trkpt>
      <trkpt lat="42.4330430" lon="-2.5577480">
        <ele>479.4</ele>
        <time>2022-08-29T04:16:43Z</time>
      </trkpt>
      <trkpt lat="42.4330340" lon="-2.5577850">
        <ele>479.4</ele>
        <time>2022-08-29T04:16:44Z</time>
      </trkpt>
      <trkpt lat="42.4330240" lon="-2.5578190">
        <ele>479.6</ele>
        <time>2022-08-29T04:16:45Z</time>
      </trkpt>
      <trkpt lat="42.4330140" lon="-2.5578530">
        <ele>479.6</ele>
        <time>2022-08-29T04:16:46Z</time>
      </trkpt>
      <trkpt lat="42.4330050" lon="-2.5578860">
        <ele>479.8</ele>
        <time>2022-08-29T04:16:47Z</time>
      </trkpt>
      <trkpt lat="42.4329950" lon="-2.5579180">
        <ele>479.8</ele>
        <time>2022-08-29T04:16:48Z</time>
      </trkpt>
      <trkpt lat="42.4329860" lon="-2.5579500">
        <ele>480.0</ele>
        <time>2022-08-29T04:16:49Z</time>
      </trkpt>
      <trkpt lat="42.4329790" lon="-2.5579810">
        <ele>480.2</ele>
        <time>2022-08-29T04:16:50Z</time>
      </trkpt>
      <trkpt lat="42.4329710" lon="-2.5580120">
        <ele>480.2</ele>
        <time>2022-08-29T04:16:51Z</time>
      </trkpt>
      <trkpt lat="42.4329630" lon="-2.5580420">
        <ele>480.2</ele>
        <time>2022-08-29T04:16:52Z</time>
      </trkpt>
      <trkpt lat="42.4329550" lon="-2.5580720">
        <ele>480.4</ele>
        <time>2022-08-29T04:16:53Z</time>
      </trkpt>
      <trkpt lat="42.4329480" lon="-2.5581010">
        <ele>480.6</ele>
        <time>2022-08-29T04:16:54Z</time>
      </trkpt>
      <trkpt lat="42.4329410" lon="-2.5581290">
        <ele>481.0</ele>
        <time>2022-08-29T04:16:55Z</time>
      </trkpt>
      <trkpt lat="42.4329350" lon="-2.5581550">
        <ele>481.0</ele>
        <time>2022-08-29T04:16:56Z</time>
      </trkpt>
      <trkpt lat="42.4329280" lon="-2.5581810">
        <ele>481.0</ele>
        <time>2022-08-29T04:16:57Z</time>
      </trkpt>
      <trkpt lat="42.4329220" lon="-2.5582060">
        <ele>481.4</ele>
        <time>2022-08-29T04:16:58Z</time>
      </trkpt>
      <trkpt lat="42.4329170" lon="-2.5582300">
        <ele>481.4</ele>
        <time>2022-08-29T04:16:59Z</time>
      </trkpt>
      <trkpt lat="42.4329100" lon="-2.5582530">
        <ele>481.8</ele>
        <time>2022-08-29T04:17:00Z</time>
      </trkpt>
      <trkpt lat="42.4329040" lon="-2.5582770">
        <ele>482.0</ele>
        <time>2022-08-29T04:17:01Z</time>
      </trkpt>
      <trkpt lat="42.4328990" lon="-2.5583020">
        <ele>482.2</ele>
        <time>2022-08-29T04:17:02Z</time>
      </trkpt>
      <trkpt lat="42.4328930" lon="-2.5583260">
        <ele>482.2</ele>
        <time>2022-08-29T04:17:03Z</time>
      </trkpt>
      <trkpt lat="42.4328850" lon="-2.5583500">
        <ele>482.6</ele>
        <time>2022-08-29T04:17:04Z</time>
      </trkpt>
      <trkpt lat="42.4328770" lon="-2.5583730">
        <ele>482.8</ele>
        <time>2022-08-29T04:17:05Z</time>
      </trkpt>
      <trkpt lat="42.4328690" lon="-2.5583970">
        <ele>483.0</ele>
        <time>2022-08-29T04:17:06Z</time>
      </trkpt>
      <trkpt lat="42.4328620" lon="-2.5584210">
        <ele>483.4</ele>
        <time>2022-08-29T04:17:07Z</time>
      </trkpt>
      <trkpt lat="42.4328530" lon="-2.5584440">
        <ele>483.6</ele>
        <time>2022-08-29T04:17:08Z</time>
      </trkpt>
      <trkpt lat="42.4328430" lon="-2.5584660">
        <ele>483.8</ele>
        <time>2022-08-29T04:17:09Z</time>
      </trkpt>
      <trkpt lat="42.4328330" lon="-2.5584890">
        <ele>484.0</ele>
        <time>2022-08-29T04:17:10Z</time>
      </trkpt>
      <trkpt lat="42.4328250" lon="-2.5585130">
        <ele>484.0</ele>
        <time>2022-08-29T04:17:11Z</time>
      </trkpt>
      <trkpt lat="42.4328150" lon="-2.5585400">
        <ele>484.2</ele>
        <time>2022-08-29T04:17:12Z</time>
      </trkpt>
      <trkpt lat="42.4328050" lon="-2.5585660">
        <ele>484.4</ele>
        <time>2022-08-29T04:17:13Z</time>
      </trkpt>
      <trkpt lat="42.4327970" lon="-2.5585920">
        <ele>484.6</ele>
        <time>2022-08-29T04:17:14Z</time>
      </trkpt>
      <trkpt lat="42.4327880" lon="-2.5586180">
        <ele>485.0</ele>
        <time>2022-08-29T04:17:15Z</time>
      </trkpt>
      <trkpt lat="42.4327780" lon="-2.5586430">
        <ele>485.2</ele>
        <time>2022-08-29T04:17:16Z</time>
      </trkpt>
      <trkpt lat="42.4327680" lon="-2.5586680">
        <ele>485.2</ele>
        <time>2022-08-29T04:17:17Z</time>
      </trkpt>
      <trkpt lat="42.4327560" lon="-2.5586920">
        <ele>485.4</ele>
        <time>2022-08-29T04:17:18Z</time>
      </trkpt>
      <trkpt lat="42.4327440" lon="-2.5587150">
        <ele>485.4</ele>
        <time>2022-08-29T04:17:19Z</time>
      </trkpt>
      <trkpt lat="42.4327330" lon="-2.5587380">
        <ele>485.4</ele>
        <time>2022-08-29T04:17:20Z</time>
      </trkpt>
      <trkpt lat="42.4327220" lon="-2.5587600">
        <ele>485.6</ele>
        <time>2022-08-29T04:17:21Z</time>
      </trkpt>
      <trkpt lat="42.4327110" lon="-2.5587830">
        <ele>485.8</ele>
        <time>2022-08-29T04:17:22Z</time>
      </trkpt>
      <trkpt lat="42.4327000" lon="-2.5588050">
        <ele>485.8</ele>
        <time>2022-08-29T04:17:23Z</time>
      </trkpt>
      <trkpt lat="42.4326870" lon="-2.5588250">
        <ele>486.0</ele>
        <time>2022-08-29T04:17:24Z</time>
      </trkpt>
      <trkpt lat="42.4326740" lon="-2.5588450">
        <ele>486.2</ele>
        <time>2022-08-29T04:17:25Z</time>
      </trkpt>
      <trkpt lat="42.4326620" lon="-2.5588660">
        <ele>486.2</ele>
        <time>2022-08-29T04:17:26Z</time>
      </trkpt>
      <trkpt lat="42.4326520" lon="-2.5588870">
        <ele>486.2</ele>
        <time>2022-08-29T04:17:27Z</time>
      </trkpt>
      <trkpt lat="42.4326430" lon="-2.5589080">
        <ele>486.2</ele>
        <time>2022-08-29T04:17:28Z</time>
      </trkpt>
      <trkpt lat="42.4326320" lon="-2.5589270">
        <ele>486.4</ele>
        <time>2022-08-29T04:17:29Z</time>
      </trkpt>
      <trkpt lat="42.4326230" lon="-2.5589470">
        <ele>486.8</ele>
        <time>2022-08-29T04:17:30Z</time>
      </trkpt>
      <trkpt lat="42.4326150" lon="-2.5589670">
        <ele>487.0</ele>
        <time>2022-08-29T04:17:31Z</time>
      </trkpt>
      <trkpt lat="42.4326050" lon="-2.5589840">
        <ele>487.0</ele>
        <time>2022-08-29T04:17:32Z</time>
      </trkpt>
      <trkpt lat="42.4325940" lon="-2.5590010">
        <ele>487.2</ele>
        <time>2022-08-29T04:17:33Z</time>
      </trkpt>
      <trkpt lat="42.4325850" lon="-2.5590220">
        <ele>487.4</ele>
        <time>2022-08-29T04:17:34Z</time>
      </trkpt>
      <trkpt lat="42.4325790" lon="-2.5590430">
        <ele>487.6</ele>
        <time>2022-08-29T04:17:35Z</time>
      </trkpt>
      <trkpt lat="42.4325730" lon="-2.5590630">
        <ele>487.8</ele>
        <time>2022-08-29T04:17:36Z</time>
      </trkpt>
      <trkpt lat="42.4325690" lon="-2.5590840">
        <ele>488.0</ele>
        <time>2022-08-29T04:17:37Z</time>
      </trkpt>
      <trkpt lat="42.4325680" lon="-2.5591050">
        <ele>488.2</ele>
        <time>2022-08-29T04:17:38Z</time>
      </trkpt>
      <trkpt lat="42.4325700" lon="-2.5591250">
        <ele>488.4</ele>
        <time>2022-08-29T04:17:39Z</time>
      </trkpt>
      <trkpt lat="42.4325760" lon="-2.5591450">
        <ele>488.6</ele>
        <time>2022-08-29T04:17:40Z</time>
      </trkpt>
      <trkpt lat="42.4325840" lon="-2.5591640">
        <ele>488.8</ele>
        <time>2022-08-29T04:17:41Z</time>
      </trkpt>
      <trkpt lat="42.4325940" lon="-2.5591810">
        <ele>489.0</ele>
        <time>2022-08-29T04:17:42Z</time>
      </trkpt>
      <trkpt lat="42.4326050" lon="-2.5591980">
        <ele>489.0</ele>
        <time>2022-08-29T04:17:43Z</time>
      </trkpt>
      <trkpt lat="42.4326150" lon="-2.5592150">
        <ele>489.4</ele>
        <time>2022-08-29T04:17:44Z</time>
      </trkpt>
      <trkpt lat="42.4326250" lon="-2.5592320">
        <ele>489.8</ele>
        <time>2022-08-29T04:17:45Z</time>
      </trkpt>
      <trkpt lat="42.4326360" lon="-2.5592480">
        <ele>490.0</ele>
        <time>2022-08-29T04:17:46Z</time>
      </trkpt>
      <trkpt lat="42.4326480" lon="-2.5592610">
        <ele>490.2</ele>
        <time>2022-08-29T04:17:47Z</time>
      </trkpt>
      <trkpt lat="42.4326630" lon="-2.5592710">
        <ele>490.6</ele>
        <time>2022-08-29T04:17:48Z</time>
      </trkpt>
      <trkpt lat="42.4326780" lon="-2.5592790">
        <ele>490.8</ele>
        <time>2022-08-29T04:17:49Z</time>
      </trkpt>
      <trkpt lat="42.4326940" lon="-2.5592850">
        <ele>490.8</ele>
        <time>2022-08-29T04:17:50Z</time>
      </trkpt>
      <trkpt lat="42.4327100" lon="-2.5592910">
        <ele>491.0</ele>
        <time>2022-08-29T04:17:51Z</time>
      </trkpt>
      <trkpt lat="42.4327260" lon="-2.5592950">
        <ele>491.2</ele>
        <time>2022-08-29T04:17:52Z</time>
      </trkpt>
      <trkpt lat="42.4327420" lon="-2.5593000">
        <ele>491.2</ele>
        <time>2022-08-29T04:17:53Z</time>
      </trkpt>
      <trkpt lat="42.4327590" lon="-2.5593060">
        <ele>491.4</ele>
        <time>2022-08-29T04:17:54Z</time>
      </trkpt>
      <trkpt lat="42.4327740" lon="-2.5593110">
        <ele>491.4</ele>
        <time>2022-08-29T04:17:55Z</time>
      </trkpt>
      <trkpt lat="42.4327910" lon="-2.5593160">
        <ele>491.8</ele>
        <time>2022-08-29T04:17:56Z</time>
      </trkpt>
      <trkpt lat="42.4328070" lon="-2.5593220">
        <ele>492.2</ele>
        <time>2022-08-29T04:17:57Z</time>
      </trkpt>
      <trkpt lat="42.4328230" lon="-2.5593270">
        <ele>492.2</ele>
        <time>2022-08-29T04:17:58Z</time>
      </trkpt>
      <trkpt lat="42.4328390" lon="-2.5593340">
        <ele>492.6</ele>
        <time>2022-08-29T04:17:59Z</time>
      </trkpt>
      <trkpt lat="42.4328540" lon="-2.5593420">
        <ele>492.6</ele>
        <time>2022-08-29T04:18:00Z</time>
      </trkpt>
      <trkpt lat="42.4328690" lon="-2.5593510">
        <ele>493.0</ele>
        <time>2022-08-29T04:18:01Z</time>
      </trkpt>
      <trkpt lat="42.4328830" lon="-2.5593630">
        <ele>493.0</ele>
        <time>2022-08-29T04:18:02Z</time>
      </trkpt>
      <trkpt lat="42.4328930" lon="-2.5593820">
        <ele>493.2</ele>
        <time>2022-08-29T04:18:03Z</time>
      </trkpt>
      <trkpt lat="42.4328980" lon="-2.5594050">
        <ele>493.2</ele>
        <time>2022-08-29T04:18:04Z</time>
      </trkpt>
      <trkpt lat="42.4328950" lon="-2.5594260">
        <ele>493.4</ele>
        <time>2022-08-29T04:18:05Z</time>
      </trkpt>
      <trkpt lat="42.4328830" lon="-2.5594430">
        <ele>493.6</ele>
        <time>2022-08-29T04:18:06Z</time>
      </trkpt>
      <trkpt lat="42.4328680" lon="-2.5594540">
        <ele>493.8</ele>
        <time>2022-08-29T04:18:07Z</time>
      </trkpt>
      <trkpt lat="42.4328520" lon="-2.5594610">
        <ele>493.8</ele>
        <time>2022-08-29T04:18:08Z</time>
      </trkpt>
      <trkpt lat="42.4328360" lon="-2.5594650">
        <ele>494.2</ele>
        <time>2022-08-29T04:18:09Z</time>
      </trkpt>
      <trkpt lat="42.4328180" lon="-2.5594660">
        <ele>494.0</ele>
        <time>2022-08-29T04:18:10Z</time>
      </trkpt>
      <trkpt lat="42.4327990" lon="-2.5594640">
        <ele>494.2</ele>
        <time>2022-08-29T04:18:11Z</time>
      </trkpt>
      <trkpt lat="42.4327790" lon="-2.5594620">
        <ele>494.4</ele>
        <time>2022-08-29T04:18:12Z</time>
      </trkpt>
      <trkpt lat="42.4327610" lon="-2.5594600">
        <ele>494.6</ele>
        <time>2022-08-29T04:18:13Z</time>
      </trkpt>
      <trkpt lat="42.4327430" lon="-2.5594590">
        <ele>494.6</ele>
        <time>2022-08-29T04:18:14Z</time>
      </trkpt>
      <trkpt lat="42.4327250" lon="-2.5594580">
        <ele>495.0</ele>
        <time>2022-08-29T04:18:15Z</time>
      </trkpt>
      <trkpt lat="42.4327070" lon="-2.5594540">
        <ele>495.0</ele>
        <time>2022-08-29T04:18:16Z</time>
      </trkpt>
      <trkpt lat="42.4326900" lon="-2.5594510">
        <ele>495.0</ele>
        <time>2022-08-29T04:18:17Z</time>
      </trkpt>
      <trkpt lat="42.4326720" lon="-2.5594470">
        <ele>495.4</ele>
        <time>2022-08-29T04:18:18Z</time>
      </trkpt>
      <trkpt lat="42.4326550" lon="-2.5594430">
        <ele>495.4</ele>
        <time>2022-08-29T04:18:19Z</time>
      </trkpt>
      <trkpt lat="42.4326370" lon="-2.5594380">
        <ele>495.8</ele>
        <time>2022-08-29T04:18:20Z</time>
      </trkpt>
      <trkpt lat="42.4326200" lon="-2.5594340">
        <ele>495.8</ele>
        <time>2022-08-29T04:18:21Z</time>
      </trkpt>
      <trkpt lat="42.4326030" lon="-2.5594280">
        <ele>496.0</ele>
        <time>2022-08-29T04:18:22Z</time>
      </trkpt>
      <trkpt lat="42.4325850" lon="-2.5594190">
        <ele>496.0</ele>
        <time>2022-08-29T04:18:23Z</time>
      </trkpt>
      <trkpt lat="42.4325680" lon="-2.5594110">
        <ele>496.0</ele>
        <time>2022-08-29T04:18:24Z</time>
      </trkpt>
      <trkpt lat="42.4325500" lon="-2.5594050">
        <ele>496.2</ele>
        <time>2022-08-29T04:18:25Z</time>
      </trkpt>
      <trkpt lat="42.4325320" lon="-2.5593990">
        <ele>496.4</ele>
        <time>2022-08-29T04:18:26Z</time>
      </trkpt>
      <trkpt lat="42.4325140" lon="-2.5593940">
        <ele>496.6</ele>
        <time>2022-08-29T04:18:27Z</time>
      </trkpt>
      <trkpt lat="42.4324970" lon="-2.5593880">
        <ele>496.8</ele>
        <time>2022-08-29T04:18:28Z</time>
      </trkpt>
      <trkpt lat="42.4324800" lon="-2.5593820">
        <ele>496.8</ele>
        <time>2022-08-29T04:18:29Z</time>
      </trkpt>
      <trkpt lat="42.4324630" lon="-2.5593760">
        <ele>497.2</ele>
        <time>2022-08-29T04:18:30Z</time>
      </trkpt>
      <trkpt lat="42.4324450" lon="-2.5593700">
        <ele>497.2</ele>
        <time>2022-08-29T04:18:31Z</time>
      </trkpt>
      <trkpt lat="42.4324270" lon="-2.5593590">
        <ele>497.4</ele>
        <time>2022-08-29T04:18:32Z</time>
      </trkpt>
      <trkpt lat="42.4324080" lon="-2.5593490">
        <ele>497.4</ele>
        <time>2022-08-29T04:18:33Z</time>
      </trkpt>
      <trkpt lat="42.4323900" lon="-2.5593390">
        <ele>497.4</ele>
        <time>2022-08-29T04:18:34Z</time>
      </trkpt>
      <trkpt lat="42.4323680" lon="-2.5593290">
        <ele>497.4</ele>
        <time>2022-08-29T04:18:35Z</time>
      </trkpt>
      <trkpt lat="42.4323450" lon="-2.5593190">
        <ele>497.6</ele>
        <time>2022-08-29T04:18:36Z</time>
      </trkpt>
      <trkpt lat="42.4323200" lon="-2.5593070">
        <ele>497.8</ele>
        <time>2022-08-29T04:18:37Z</time>
      </trkpt>
      <trkpt lat="42.4322930" lon="-2.5592950">
        <ele>497.8</ele>
        <time>2022-08-29T04:18:38Z</time>
      </trkpt>
      <trkpt lat="42.4322620" lon="-2.5592840">
        <ele>498.0</ele>
        <time>2022-08-29T04:18:39Z</time>
      </trkpt>
      <trkpt lat="42.4322270" lon="-2.5592750">
        <ele>498.0</ele>
        <time>2022-08-29T04:18:40Z</time>
      </trkpt>
      <trkpt lat="42.4321890" lon="-2.5592670">
        <ele>498.0</ele>
        <time>2022-08-29T04:18:41Z</time>
      </trkpt>
      <trkpt lat="42.4321510" lon="-2.5592600">
        <ele>498.0</ele>
        <time>2022-08-29T04:18:42Z</time>
      </trkpt>
      <trkpt lat="42.4321150" lon="-2.5592560">
        <ele>498.0</ele>
        <time>2022-08-29T04:18:43Z</time>
      </trkpt>
      <trkpt lat="42.4320810" lon="-2.5592510">
        <ele>498.0</ele>
        <time>2022-08-29T04:18:44Z</time>
      </trkpt>
      <trkpt lat="42.4320530" lon="-2.5592450">
        <ele>498.0</ele>
        <time>2022-08-29T04:18:45Z</time>
      </trkpt>
      <trkpt lat="42.4320270" lon="-2.5592360">
        <ele>498.0</ele>
        <time>2022-08-29T04:18:46Z</time>
      </trkpt>
      <trkpt lat="42.4320000" lon="-2.5592300">
        <ele>498.0</ele>
        <time>2022-08-29T04:18:47Z</time>
      </trkpt>
      <trkpt lat="42.4319740" lon="-2.5592250">
        <ele>497.8</ele>
        <time>2022-08-29T04:18:48Z</time>
      </trkpt>
      <trkpt lat="42.4319520" lon="-2.5592280">
        <ele>497.6</ele>
        <time>2022-08-29T04:18:49Z</time>
      </trkpt>
      <trkpt lat="42.4319310" lon="-2.5592310">
        <ele>497.6</ele>
        <time>2022-08-29T04:18:50Z</time>
      </trkpt>
      <trkpt lat="42.4319100" lon="-2.5592370">
        <ele>497.6</ele>
        <time>2022-08-29T04:18:51Z</time>
      </trkpt>
      <trkpt lat="42.4318900" lon="-2.5592450">
        <ele>497.6</ele>
        <time>2022-08-29T04:18:52Z</time>
      </trkpt>
      <trkpt lat="42.4318680" lon="-2.5592550">
        <ele>497.6</ele>
        <time>2022-08-29T04:18:53Z</time>
      </trkpt>
      <trkpt lat="42.4318450" lon="-2.5592640">
        <ele>497.6</ele>
        <time>2022-08-29T04:18:54Z</time>
      </trkpt>
      <trkpt lat="42.4318310" lon="-2.5592880">
        <ele>497.4</ele>
        <time>2022-08-29T04:18:55Z</time>
      </trkpt>
      <trkpt lat="42.4318110" lon="-2.5593040">
        <ele>497.6</ele>
        <time>2022-08-29T04:18:56Z</time>
      </trkpt>
      <trkpt lat="42.4317950" lon="-2.5593180">
        <ele>497.4</ele>
        <time>2022-08-29T04:18:57Z</time>
      </trkpt>
      <trkpt lat="42.4317760" lon="-2.5593250">
        <ele>497.6</ele>
        <time>2022-08-29T04:18:58Z</time>
      </trkpt>
      <trkpt lat="42.4317560" lon="-2.5593250">
        <ele>497.6</ele>
        <time>2022-08-29T04:18:59Z</time>
      </trkpt>
      <trkpt lat="42.4317390" lon="-2.5593350">
        <ele>497.6</ele>
        <time>2022-08-29T04:19:00Z</time>
      </trkpt>
      <trkpt lat="42.4317230" lon="-2.5593450">
        <ele>497.6</ele>
        <time>2022-08-29T04:19:01Z</time>
      </trkpt>
      <trkpt lat="42.4317100" lon="-2.5593560">
        <ele>498.2</ele>
        <time>2022-08-29T04:19:02Z</time>
      </trkpt>
      <trkpt lat="42.4316960" lon="-2.5593640">
        <ele>498.2</ele>
        <time>2022-08-29T04:19:03Z</time>
      </trkpt>
      <trkpt lat="42.4316810" lon="-2.5593710">
        <ele>498.6</ele>
        <time>2022-08-29T04:19:04Z</time>
      </trkpt>
      <trkpt lat="42.4316660" lon="-2.5593790">
        <ele>498.8</ele>
        <time>2022-08-29T04:19:05Z</time>
      </trkpt>
      <trkpt lat="42.4316520" lon="-2.5593890">
        <ele>498.8</ele>
        <time>2022-08-29T04:19:06Z</time>
      </trkpt>
      <trkpt lat="42.4316390" lon="-2.5593970">
        <ele>499.0</ele>
        <time>2022-08-29T04:19:07Z</time>
      </trkpt>
      <trkpt lat="42.4316270" lon="-2.5594060">
        <ele>499.2</ele>
        <time>2022-08-29T04:19:08Z</time>
      </trkpt>
      <trkpt lat="42.4316160" lon="-2.5594120">
        <ele>499.6</ele>
        <time>2022-08-29T04:19:09Z</time>
      </trkpt>
      <trkpt lat="42.4316020" lon="-2.5594180">
        <ele>499.8</ele>
        <time>2022-08-29T04:19:10Z</time>
      </trkpt>
      <trkpt lat="42.4315880" lon="-2.5594240">
        <ele>500.0</ele>
        <time>2022-08-29T04:19:11Z</time>
      </trkpt>
      <trkpt lat="42.4315740" lon="-2.5594290">
        <ele>500.4</ele>
        <time>2022-08-29T04:19:12Z</time>
      </trkpt>
      <trkpt lat="42.4315610" lon="-2.5594350">
        <ele>500.8</ele>
        <time>2022-08-29T04:19:13Z</time>
      </trkpt>
      <trkpt lat="42.4315470" lon="-2.5594380">
        <ele>500.8</ele>
        <time>2022-08-29T04:19:14Z</time>
      </trkpt>
      <trkpt lat="42.4315330" lon="-2.5594430">
        <ele>501.2</ele>
        <time>2022-08-29T04:19:15Z</time>
      </trkpt>
      <trkpt lat="42.4315190" lon="-2.5594490">
        <ele>501.4</ele>
        <time>2022-08-29T04:19:16Z</time>
      </trkpt>
      <trkpt lat="42.4315060" lon="-2.5594530">
        <ele>501.6</ele>
        <time>2022-08-29T04:19:17Z</time>
      </trkpt>
      <trkpt lat="42.4314930" lon="-2.5594540">
        <ele>501.6</ele>
        <time>2022-08-29T04:19:18Z</time>
      </trkpt>
      <trkpt lat="42.4314790" lon="-2.5594560">
        <ele>502.0</ele>
        <time>2022-08-29T04:19:19Z</time>
      </trkpt>
      <trkpt lat="42.4314660" lon="-2.5594560">
        <ele>502.2</ele>
        <time>2022-08-29T04:19:20Z</time>
      </trkpt>
      <trkpt lat="42.4314530" lon="-2.5594540">
        <ele>502.2</ele>
        <time>2022-08-29T04:19:21Z</time>
      </trkpt>
      <trkpt lat="42.4314400" lon="-2.5594500">
        <ele>502.6</ele>
        <time>2022-08-29T04:19:22Z</time>
      </trkpt>
      <trkpt lat="42.4314280" lon="-2.5594480">
        <ele>502.8</ele>
        <time>2022-08-29T04:19:23Z</time>
      </trkpt>
      <trkpt lat="42.4314160" lon="-2.5594430">
        <ele>503.2</ele>
        <time>2022-08-29T04:19:24Z</time>
      </trkpt>
      <trkpt lat="42.4314040" lon="-2.5594360">
        <ele>503.2</ele>
        <time>2022-08-29T04:19:25Z</time>
      </trkpt>
      <trkpt lat="42.4313910" lon="-2.5594300">
        <ele>503.4</ele>
        <time>2022-08-29T04:19:26Z</time>
      </trkpt>
      <trkpt lat="42.4313770" lon="-2.5594260">
        <ele>503.8</ele>
        <time>2022-08-29T04:19:27Z</time>
      </trkpt>
      <trkpt lat="42.4313620" lon="-2.5594180">
        <ele>504.0</ele>
        <time>2022-08-29T04:19:28Z</time>
      </trkpt>
      <trkpt lat="42.4313480" lon="-2.5594100">
        <ele>504.0</ele>
        <time>2022-08-29T04:19:29Z</time>
      </trkpt>
      <trkpt lat="42.4313380" lon="-2.5594020">
        <ele>504.0</ele>
        <time>2022-08-29T04:19:30Z</time>
      </trkpt>
      <trkpt lat="42.4313250" lon="-2.5593960">
        <ele>504.2</ele>
        <time>2022-08-29T04:19:31Z</time>
      </trkpt>
      <trkpt lat="42.4313110" lon="-2.5593930">
        <ele>504.2</ele>
        <time>2022-08-29T04:19:32Z</time>
      </trkpt>
      <trkpt lat="42.4313000" lon="-2.5593880">
        <ele>504.6</ele>
        <time>2022-08-29T04:19:33Z</time>
      </trkpt>
      <trkpt lat="42.4312890" lon="-2.5593800">
        <ele>504.8</ele>
        <time>2022-08-29T04:19:34Z</time>
      </trkpt>
      <trkpt lat="42.4312740" lon="-2.5593790">
        <ele>504.8</ele>
        <time>2022-08-29T04:19:35Z</time>
      </trkpt>
      <trkpt lat="42.4312620" lon="-2.5593770">
        <ele>505.0</ele>
        <time>2022-08-29T04:19:36Z</time>
      </trkpt>
      <trkpt lat="42.4312470" lon="-2.5593750">
        <ele>505.2</ele>
        <time>2022-08-29T04:19:37Z</time>
      </trkpt>
      <trkpt lat="42.4312310" lon="-2.5593740">
        <ele>505.6</ele>
        <time>2022-08-29T04:19:38Z</time>
      </trkpt>
      <trkpt lat="42.4312200" lon="-2.5593730">
        <ele>505.8</ele>
        <time>2022-08-29T04:19:39Z</time>
      </trkpt>
      <trkpt lat="42.4312080" lon="-2.5593670">
        <ele>506.2</ele>
        <time>2022-08-29T04:19:40Z</time>
      </trkpt>
      <trkpt lat="42.4311950" lon="-2.5593630">
        <ele>506.4</ele>
        <time>2022-08-29T04:19:41Z</time>
      </trkpt>
      <trkpt lat="42.4311800" lon="-2.5593650">
        <ele>506.6</ele>
        <time>2022-08-29T04:19:42Z</time>
      </trkpt>
      <trkpt lat="42.4311660" lon="-2.5593690">
        <ele>507.0</ele>
        <time>2022-08-29T04:19:43Z</time>
      </trkpt>
      <trkpt lat="42.4311460" lon="-2.5593830">
        <ele>507.2</ele>
        <time>2022-08-29T04:19:44Z</time>
      </trkpt>
      <trkpt lat="42.4311280" lon="-2.5593920">
        <ele>507.4</ele>
        <time>2022-08-29T04:19:45Z</time>
      </trkpt>
      <trkpt lat="42.4311130" lon="-2.5593990">
        <ele>507.6</ele>
        <time>2022-08-29T04:19:46Z</time>
      </trkpt>
      <trkpt lat="42.4311010" lon="-2.5594100">
        <ele>507.6</ele>
        <time>2022-08-29T04:19:47Z</time>
      </trkpt>
      <trkpt lat="42.4310920" lon="-2.5594200">
        <ele>507.8</ele>
        <time>2022-08-29T04:19:48Z</time>
      </trkpt>
      <trkpt lat="42.4310760" lon="-2.5594210">
        <ele>507.8</ele>
        <time>2022-08-29T04:19:49Z</time>
      </trkpt>
      <trkpt lat="42.4310610" lon="-2.5594250">
        <ele>507.8</ele>
        <time>2022-08-29T04:19:50Z</time>
      </trkpt>
      <trkpt lat="42.4310470" lon="-2.5594280">
        <ele>507.8</ele>
        <time>2022-08-29T04:19:51Z</time>
      </trkpt>
      <trkpt lat="42.4310300" lon="-2.5594260">
        <ele>508.0</ele>
        <time>2022-08-29T04:19:52Z</time>
      </trkpt>
      <trkpt lat="42.4310110" lon="-2.5594240">
        <ele>508.4</ele>
        <time>2022-08-29T04:19:53Z</time>
      </trkpt>
      <trkpt lat="42.4309930" lon="-2.5594250">
        <ele>508.4</ele>
        <time>2022-08-29T04:19:54Z</time>
      </trkpt>
      <trkpt lat="42.4309760" lon="-2.5594280">
        <ele>508.8</ele>
        <time>2022-08-29T04:19:55Z</time>
      </trkpt>
      <trkpt lat="42.4309610" lon="-2.5594330">
        <ele>509.0</ele>
        <time>2022-08-29T04:19:56Z</time>
      </trkpt>
      <trkpt lat="42.4309470" lon="-2.5594390">
        <ele>509.2</ele>
        <time>2022-08-29T04:19:57Z</time>
      </trkpt>
      <trkpt lat="42.4309320" lon="-2.5594450">
        <ele>509.6</ele>
        <time>2022-08-29T04:19:58Z</time>
      </trkpt>
      <trkpt lat="42.4309150" lon="-2.5594490">
        <ele>509.8</ele>
        <time>2022-08-29T04:19:59Z</time>
      </trkpt>
      <trkpt lat="42.4309000" lon="-2.5594540">
        <ele>510.0</ele>
        <time>2022-08-29T04:20:00Z</time>
      </trkpt>
      <trkpt lat="42.4308840" lon="-2.5594600">
        <ele>510.2</ele>
        <time>2022-08-29T04:20:01Z</time>
      </trkpt>
      <trkpt lat="42.4308690" lon="-2.5594630">
        <ele>510.2</ele>
        <time>2022-08-29T04:20:02Z</time>
      </trkpt>
      <trkpt lat="42.4308540" lon="-2.5594650">
        <ele>510.6</ele>
        <time>2022-08-29T04:20:03Z</time>
      </trkpt>
      <trkpt lat="42.4308360" lon="-2.5594640">
        <ele>510.6</ele>
        <time>2022-08-29T04:20:04Z</time>
      </trkpt>
      <trkpt lat="42.4308220" lon="-2.5594670">
        <ele>510.8</ele>
        <time>2022-08-29T04:20:05Z</time>
      </trkpt>
      <trkpt lat="42.4308080" lon="-2.5594730">
        <ele>511.0</ele>
        <time>2022-08-29T04:20:06Z</time>
      </trkpt>
      <trkpt lat="42.4307930" lon="-2.5594810">
        <ele>511.0</ele>
        <time>2022-08-29T04:20:07Z</time>
      </trkpt>
      <trkpt lat="42.4307780" lon="-2.5594860">
        <ele>511.2</ele>
        <time>2022-08-29T04:20:08Z</time>
      </trkpt>
      <trkpt lat="42.4307640" lon="-2.5594900">
        <ele>511.2</ele>
        <time>2022-08-29T04:20:09Z</time>
      </trkpt>
      <trkpt lat="42.4307500" lon="-2.5594950">
        <ele>511.6</ele>
        <time>2022-08-29T04:20:10Z</time>
      </trkpt>
      <trkpt lat="42.4307350" lon="-2.5594980">
        <ele>511.8</ele>
        <time>2022-08-29T04:20:11Z</time>
      </trkpt>
      <trkpt lat="42.4307200" lon="-2.5594990">
        <ele>511.8</ele>
        <time>2022-08-29T04:20:12Z</time>
      </trkpt>
      <trkpt lat="42.4307050" lon="-2.5595010">
        <ele>511.8</ele>
        <time>2022-08-29T04:20:13Z</time>
      </trkpt>
      <trkpt lat="42.4306920" lon="-2.5595030">
        <ele>511.8</ele>
        <time>2022-08-29T04:20:14Z</time>
      </trkpt>
      <trkpt lat="42.4306770" lon="-2.5595050">
        <ele>512.2</ele>
        <time>2022-08-29T04:20:15Z</time>
      </trkpt>
      <trkpt lat="42.4306620" lon="-2.5595090">
        <ele>512.4</ele>
        <time>2022-08-29T04:20:16Z</time>
      </trkpt>
      <trkpt lat="42.4306480" lon="-2.5595150">
        <ele>512.4</ele>
        <time>2022-08-29T04:20:17Z</time>
      </trkpt>
      <trkpt lat="42.4306340" lon="-2.5595180">
        <ele>512.6</ele>
        <time>2022-08-29T04:20:18Z</time>
      </trkpt>
      <trkpt lat="42.4306210" lon="-2.5595220">
        <ele>512.8</ele>
        <time>2022-08-29T04:20:19Z</time>
      </trkpt>
      <trkpt lat="42.4306070" lon="-2.5595260">
        <ele>512.8</ele>
        <time>2022-08-29T04:20:20Z</time>
      </trkpt>
      <trkpt lat="42.4305930" lon="-2.5595310">
        <ele>513.0</ele>
        <time>2022-08-29T04:20:21Z</time>
      </trkpt>
      <trkpt lat="42.4305780" lon="-2.5595360">
        <ele>513.4</ele>
        <time>2022-08-29T04:20:22Z</time>
      </trkpt>
      <trkpt lat="42.4305660" lon="-2.5595400">
        <ele>513.4</ele>
        <time>2022-08-29T04:20:23Z</time>
      </trkpt>
      <trkpt lat="42.4305530" lon="-2.5595420">
        <ele>513.6</ele>
        <time>2022-08-29T04:20:24Z</time>
      </trkpt>
      <trkpt lat="42.4305400" lon="-2.5595400">
        <ele>513.8</ele>
        <time>2022-08-29T04:20:25Z</time>
      </trkpt>
      <trkpt lat="42.4305260" lon="-2.5595390">
        <ele>514.0</ele>
        <time>2022-08-29T04:20:26Z</time>
      </trkpt>
      <trkpt lat="42.4305100" lon="-2.5595450">
        <ele>514.0</ele>
        <time>2022-08-29T04:20:27Z</time>
      </trkpt>
      <trkpt lat="42.4304940" lon="-2.5595540">
        <ele>514.2</ele>
        <time>2022-08-29T04:20:28Z</time>
      </trkpt>
      <trkpt lat="42.4304790" lon="-2.5595600">
        <ele>514.4</ele>
        <time>2022-08-29T04:20:29Z</time>
      </trkpt>
      <trkpt lat="42.4304650" lon="-2.5595630">
        <ele>514.8</ele>
        <time>2022-08-29T04:20:30Z</time>
      </trkpt>
      <trkpt lat="42.4304520" lon="-2.5595690">
        <ele>515.0</ele>
        <time>2022-08-29T04:20:31Z</time>
      </trkpt>
      <trkpt lat="42.4304370" lon="-2.5595730">
        <ele>515.0</ele>
        <time>2022-08-29T04:20:32Z</time>
      </trkpt>
      <trkpt lat="42.4304220" lon="-2.5595770">
        <ele>515.2</ele>
        <time>2022-08-29T04:20:33Z</time>
      </trkpt>
      <trkpt lat="42.4304050" lon="-2.5595770">
        <ele>515.2</ele>
        <time>2022-08-29T04:20:34Z</time>
      </trkpt>
      <trkpt lat="42.4303910" lon="-2.5595840">
        <ele>515.4</ele>
        <time>2022-08-29T04:20:35Z</time>
      </trkpt>
      <trkpt lat="42.4303750" lon="-2.5595930">
        <ele>515.4</ele>
        <time>2022-08-29T04:20:36Z</time>
      </trkpt>
      <trkpt lat="42.4303590" lon="-2.5596040">
        <ele>515.4</ele>
        <time>2022-08-29T04:20:37Z</time>
      </trkpt>
      <trkpt lat="42.4303430" lon="-2.5596130">
        <ele>515.4</ele>
        <time>2022-08-29T04:20:38Z</time>
      </trkpt>
      <trkpt lat="42.4303290" lon="-2.5596210">
        <ele>515.6</ele>
        <time>2022-08-29T04:20:39Z</time>
      </trkpt>
      <trkpt lat="42.4303150" lon="-2.5596240">
        <ele>515.8</ele>
        <time>2022-08-29T04:20:40Z</time>
      </trkpt>
      <trkpt lat="42.4302970" lon="-2.5596180">
        <ele>515.8</ele>
        <time>2022-08-29T04:20:41Z</time>
      </trkpt>
      <trkpt lat="42.4302810" lon="-2.5596170">
        <ele>516.0</ele>
        <time>2022-08-29T04:20:42Z</time>
      </trkpt>
      <trkpt lat="42.4302600" lon="-2.5596220">
        <ele>515.8</ele>
        <time>2022-08-29T04:20:43Z</time>
      </trkpt>
      <trkpt lat="42.4302380" lon="-2.5596280">
        <ele>516.0</ele>
        <time>2022-08-29T04:20:44Z</time>
      </trkpt>
      <trkpt lat="42.4302210" lon="-2.5596400">
        <ele>515.8</ele>
        <time>2022-08-29T04:20:45Z</time>
      </trkpt>
      <trkpt lat="42.4302040" lon="-2.5596530">
        <ele>516.0</ele>
        <time>2022-08-29T04:20:46Z</time>
      </trkpt>
      <trkpt lat="42.4301870" lon="-2.5596640">
        <ele>516.0</ele>
        <time>2022-08-29T04:20:47Z</time>
      </trkpt>
      <trkpt lat="42.4301700" lon="-2.5596760">
        <ele>516.0</ele>
        <time>2022-08-29T04:20:48Z</time>
      </trkpt>
      <trkpt lat="42.4301540" lon="-2.5596900">
        <ele>516.0</ele>
        <time>2022-08-29T04:20:49Z</time>
      </trkpt>
      <trkpt lat="42.4301380" lon="-2.5597040">
        <ele>516.0</ele>
        <time>2022-08-29T04:20:50Z</time>
      </trkpt>
      <trkpt lat="42.4301230" lon="-2.5597170">
        <ele>516.2</ele>
        <time>2022-08-29T04:20:51Z</time>
      </trkpt>
      <trkpt lat="42.4301060" lon="-2.5597280">
        <ele>516.2</ele>
        <time>2022-08-29T04:20:52Z</time>
      </trkpt>
      <trkpt lat="42.4300890" lon="-2.5597400">
        <ele>516.2</ele>
        <time>2022-08-29T04:20:53Z</time>
      </trkpt>
      <trkpt lat="42.4300700" lon="-2.5597490">
        <ele>516.2</ele>
        <time>2022-08-29T04:20:54Z</time>
      </trkpt>
      <trkpt lat="42.4300520" lon="-2.5597580">
        <ele>516.4</ele>
        <time>2022-08-29T04:20:55Z</time>
      </trkpt>
      <trkpt lat="42.4300350" lon="-2.5597600">
        <ele>516.4</ele>
        <time>2022-08-29T04:20:56Z</time>
      </trkpt>
      <trkpt lat="42.4300220" lon="-2.5597650">
        <ele>516.8</ele>
        <time>2022-08-29T04:20:57Z</time>
      </trkpt>
      <trkpt lat="42.4300110" lon="-2.5597720">
        <ele>516.8</ele>
        <time>2022-08-29T04:20:58Z</time>
      </trkpt>
      <trkpt lat="42.4299900" lon="-2.5597830">
        <ele>516.8</ele>
        <time>2022-08-29T04:20:59Z</time>
      </trkpt>
      <trkpt lat="42.4299710" lon="-2.5597970">
        <ele>517.0</ele>
        <time>2022-08-29T04:21:00Z</time>
      </trkpt>
      <trkpt lat="42.4299540" lon="-2.5598120">
        <ele>517.0</ele>
        <time>2022-08-29T04:21:01Z</time>
      </trkpt>
      <trkpt lat="42.4299380" lon="-2.5598290">
        <ele>517.0</ele>
        <time>2022-08-29T04:21:02Z</time>
      </trkpt>
      <trkpt lat="42.4299200" lon="-2.5598460">
        <ele>517.0</ele>
        <time>2022-08-29T04:21:03Z</time>
      </trkpt>
      <trkpt lat="42.4299040" lon="-2.5598630">
        <ele>517.0</ele>
        <time>2022-08-29T04:21:04Z</time>
      </trkpt>
      <trkpt lat="42.4298870" lon="-2.5598830">
        <ele>517.0</ele>
        <time>2022-08-29T04:21:05Z</time>
      </trkpt>
      <trkpt lat="42.4298710" lon="-2.5598990">
        <ele>517.2</ele>
        <time>2022-08-29T04:21:06Z</time>
      </trkpt>
      <trkpt lat="42.4298550" lon="-2.5599260">
        <ele>517.4</ele>
        <time>2022-08-29T04:21:07Z</time>
      </trkpt>
      <trkpt lat="42.4298420" lon="-2.5599490">
        <ele>517.2</ele>
        <time>2022-08-29T04:21:08Z</time>
      </trkpt>
      <trkpt lat="42.4298310" lon="-2.5599700">
        <ele>517.4</ele>
        <time>2022-08-29T04:21:09Z</time>
      </trkpt>
      <trkpt lat="42.4298210" lon="-2.5599890">
        <ele>517.4</ele>
        <time>2022-08-29T04:21:10Z</time>
      </trkpt>
      <trkpt lat="42.4298100" lon="-2.5600120">
        <ele>517.4</ele>
        <time>2022-08-29T04:21:11Z</time>
      </trkpt>
      <trkpt lat="42.4298010" lon="-2.5600320">
        <ele>517.4</ele>
        <time>2022-08-29T04:21:12Z</time>
      </trkpt>
      <trkpt lat="42.4297920" lon="-2.5600540">
        <ele>517.6</ele>
        <time>2022-08-29T04:21:13Z</time>
      </trkpt>
      <trkpt lat="42.4297790" lon="-2.5600690">
        <ele>517.6</ele>
        <time>2022-08-29T04:21:14Z</time>
      </trkpt>
      <trkpt lat="42.4297640" lon="-2.5600930">
        <ele>517.4</ele>
        <time>2022-08-29T04:21:15Z</time>
      </trkpt>
      <trkpt lat="42.4297540" lon="-2.5601170">
        <ele>517.6</ele>
        <time>2022-08-29T04:21:16Z</time>
      </trkpt>
      <trkpt lat="42.4297420" lon="-2.5601520">
        <ele>517.6</ele>
        <time>2022-08-29T04:21:17Z</time>
      </trkpt>
      <trkpt lat="42.4297380" lon="-2.5601890">
        <ele>517.6</ele>
        <time>2022-08-29T04:21:18Z</time>
      </trkpt>
      <trkpt lat="42.4297300" lon="-2.5602240">
        <ele>517.8</ele>
        <time>2022-08-29T04:21:19Z</time>
      </trkpt>
      <trkpt lat="42.4297210" lon="-2.5602610">
        <ele>517.6</ele>
        <time>2022-08-29T04:21:20Z</time>
      </trkpt>
      <trkpt lat="42.4297150" lon="-2.5602970">
        <ele>517.8</ele>
        <time>2022-08-29T04:21:21Z</time>
      </trkpt>
      <trkpt lat="42.4297020" lon="-2.5603430">
        <ele>517.6</ele>
        <time>2022-08-29T04:21:22Z</time>
      </trkpt>
      <trkpt lat="42.4296870" lon="-2.5603940">
        <ele>517.6</ele>
        <time>2022-08-29T04:21:23Z</time>
      </trkpt>
      <trkpt lat="42.4296740" lon="-2.5604440">
        <ele>517.6</ele>
        <time>2022-08-29T04:21:24Z</time>
      </trkpt>
      <trkpt lat="42.4296570" lon="-2.5604830">
        <ele>517.8</ele>
        <time>2022-08-29T04:21:25Z</time>
      </trkpt>
      <trkpt lat="42.4296400" lon="-2.5605230">
        <ele>517.8</ele>
        <time>2022-08-29T04:21:26Z</time>
      </trkpt>
      <trkpt lat="42.4296270" lon="-2.5605620">
        <ele>517.8</ele>
        <time>2022-08-29T04:21:27Z</time>
      </trkpt>
      <trkpt lat="42.4296190" lon="-2.5605980">
        <ele>517.8</ele>
        <time>2022-08-29T04:21:28Z</time>
      </trkpt>
      <trkpt lat="42.4296110" lon="-2.5606330">
        <ele>517.8</ele>
        <time>2022-08-29T04:21:29Z</time>
      </trkpt>
      <trkpt lat="42.4296050" lon="-2.5606650">
        <ele>517.6</ele>
        <time>2022-08-29T04:21:30Z</time>
      </trkpt>
      <trkpt lat="42.4296000" lon="-2.5606980">
        <ele>517.8</ele>
        <time>2022-08-29T04:21:31Z</time>
      </trkpt>
      <trkpt lat="42.4295960" lon="-2.5607310">
        <ele>517.8</ele>
        <time>2022-08-29T04:21:32Z</time>
      </trkpt>
      <trkpt lat="42.4295890" lon="-2.5607660">
        <ele>517.6</ele>
        <time>2022-08-29T04:21:33Z</time>
      </trkpt>
      <trkpt lat="42.4295650" lon="-2.5607980">
        <ele>517.6</ele>
        <time>2022-08-29T04:21:34Z</time>
      </trkpt>
      <trkpt lat="42.4295480" lon="-2.5608270">
        <ele>517.8</ele>
        <time>2022-08-29T04:21:35Z</time>
      </trkpt>
      <trkpt lat="42.4295350" lon="-2.5608600">
        <ele>517.8</ele>
        <time>2022-08-29T04:21:36Z</time>
      </trkpt>
      <trkpt lat="42.4295350" lon="-2.5608940">
        <ele>517.8</ele>
        <time>2022-08-29T04:21:37Z</time>
      </trkpt>
      <trkpt lat="42.4295320" lon="-2.5609370">
        <ele>517.8</ele>
        <time>2022-08-29T04:21:38Z</time>
      </trkpt>
      <trkpt lat="42.4295430" lon="-2.5609810">
        <ele>517.6</ele>
        <time>2022-08-29T04:21:39Z</time>
      </trkpt>
      <trkpt lat="42.4295390" lon="-2.5610260">
        <ele>517.6</ele>
        <time>2022-08-29T04:21:40Z</time>
      </trkpt>
      <trkpt lat="42.4295320" lon="-2.5610740">
        <ele>517.4</ele>
        <time>2022-08-29T04:21:41Z</time>
      </trkpt>
      <trkpt lat="42.4295270" lon="-2.5611200">
        <ele>517.4</ele>
        <time>2022-08-29T04:21:42Z</time>
      </trkpt>
      <trkpt lat="42.4295220" lon="-2.5611560">
        <ele>517.4</ele>
        <time>2022-08-29T04:21:43Z</time>
      </trkpt>
      <trkpt lat="42.4295200" lon="-2.5611840">
        <ele>517.4</ele>
        <time>2022-08-29T04:21:44Z</time>
      </trkpt>
      <trkpt lat="42.4295200" lon="-2.5612050">
        <ele>517.4</ele>
        <time>2022-08-29T04:21:45Z</time>
      </trkpt>
      <trkpt lat="42.4295210" lon="-2.5612190">
        <ele>517.4</ele>
        <time>2022-08-29T04:21:46Z</time>
      </trkpt>
      <trkpt lat="42.4295190" lon="-2.5612340">
        <ele>517.2</ele>
        <time>2022-08-29T04:21:47Z</time>
      </trkpt>
      <trkpt lat="42.4295160" lon="-2.5612450">
        <ele>517.2</ele>
        <time>2022-08-29T04:21:48Z</time>
      </trkpt>
      <trkpt lat="42.4295170" lon="-2.5612440">
        <ele>517.2</ele>
        <time>2022-08-29T04:21:49Z</time>
      </trkpt>
      <trkpt lat="42.4295180" lon="-2.5612430">
        <ele>517.0</ele>
        <time>2022-08-29T04:21:50Z</time>
      </trkpt>
      <trkpt lat="42.4295120" lon="-2.5612490">
        <ele>517.0</ele>
        <time>2022-08-29T04:21:51Z</time>
      </trkpt>
      <trkpt lat="42.4295030" lon="-2.5612600">
        <ele>517.0</ele>
        <time>2022-08-29T04:21:52Z</time>
      </trkpt>
      <trkpt lat="42.4295010" lon="-2.5612670">
        <ele>516.8</ele>
        <time>2022-08-29T04:21:53Z</time>
      </trkpt>
      <trkpt lat="42.4295030" lon="-2.5612690">
        <ele>516.6</ele>
        <time>2022-08-29T04:21:54Z</time>
      </trkpt>
      <trkpt lat="42.4295050" lon="-2.5612710">
        <ele>516.6</ele>
        <time>2022-08-29T04:21:55Z</time>
      </trkpt>
      <trkpt lat="42.4295060" lon="-2.5612750">
        <ele>516.6</ele>
        <time>2022-08-29T04:21:56Z</time>
      </trkpt>
      <trkpt lat="42.4295060" lon="-2.5612750">
        <ele>516.6</ele>
        <time>2022-08-29T04:21:57Z</time>
      </trkpt>
      <trkpt lat="42.4295060" lon="-2.5612750">
        <ele>516.6</ele>
        <time>2022-08-29T04:21:58Z</time>
      </trkpt>
      <trkpt lat="42.4295070" lon="-2.5612760">
        <ele>516.6</ele>
        <time>2022-08-29T04:21:59Z</time>
      </trkpt>
      <trkpt lat="42.4295080" lon="-2.5612750">
        <ele>516.4</ele>
        <time>2022-08-29T04:22:00Z</time>
      </trkpt>
      <trkpt lat="42.4295090" lon="-2.5612770">
        <ele>516.6</ele>
        <time>2022-08-29T04:22:01Z</time>
      </trkpt>
      <trkpt lat="42.4295100" lon="-2.5612780">
        <ele>516.6</ele>
        <time>2022-08-29T04:22:02Z</time>
      </trkpt>
      <trkpt lat="42.4295100" lon="-2.5612780">
        <ele>516.4</ele>
        <time>2022-08-29T04:22:03Z</time>
      </trkpt>
      <trkpt lat="42.4295120" lon="-2.5612770">
        <ele>516.4</ele>
        <time>2022-08-29T04:22:04Z</time>
      </trkpt>
      <trkpt lat="42.4295140" lon="-2.5612770">
        <ele>516.4</ele>
        <time>2022-08-29T04:22:05Z</time>
      </trkpt>
      <trkpt lat="42.4295160" lon="-2.5612770">
        <ele>516.4</ele>
        <time>2022-08-29T04:22:06Z</time>
      </trkpt>
      <trkpt lat="42.4295170" lon="-2.5612760">
        <ele>516.4</ele>
        <time>2022-08-29T04:22:07Z</time>
      </trkpt>
      <trkpt lat="42.4295170" lon="-2.5612750">
        <ele>516.6</ele>
        <time>2022-08-29T04:22:08Z</time>
      </trkpt>
      <trkpt lat="42.4295170" lon="-2.5612730">
        <ele>516.6</ele>
        <time>2022-08-29T04:22:09Z</time>
      </trkpt>
      <trkpt lat="42.4295180" lon="-2.5612720">
        <ele>516.4</ele>
        <time>2022-08-29T04:22:10Z</time>
      </trkpt>
      <trkpt lat="42.4295160" lon="-2.5612720">
        <ele>516.4</ele>
        <time>2022-08-29T04:22:11Z</time>
      </trkpt>
      <trkpt lat="42.4295160" lon="-2.5612720">
        <ele>516.4</ele>
        <time>2022-08-29T04:22:12Z</time>
      </trkpt>
      <trkpt lat="42.4295160" lon="-2.5612720">
        <ele>516.4</ele>
        <time>2022-08-29T04:22:13Z</time>
      </trkpt>
      <trkpt lat="42.4295160" lon="-2.5612710">
        <ele>516.6</ele>
        <time>2022-08-29T04:22:14Z</time>
      </trkpt>
      <trkpt lat="42.4295150" lon="-2.5612700">
        <ele>516.6</ele>
        <time>2022-08-29T04:22:15Z</time>
      </trkpt>
      <trkpt lat="42.4295150" lon="-2.5612700">
        <ele>516.4</ele>
        <time>2022-08-29T04:22:16Z</time>
      </trkpt>
      <trkpt lat="42.4295150" lon="-2.5612690">
        <ele>516.4</ele>
        <time>2022-08-29T04:22:17Z</time>
      </trkpt>
      <trkpt lat="42.4295150" lon="-2.5612680">
        <ele>516.4</ele>
        <time>2022-08-29T04:22:18Z</time>
      </trkpt>
      <trkpt lat="42.4295140" lon="-2.5612680">
        <ele>516.4</ele>
        <time>2022-08-29T04:22:19Z</time>
      </trkpt>
      <trkpt lat="42.4295140" lon="-2.5612670">
        <ele>516.4</ele>
        <time>2022-08-29T04:22:20Z</time>
      </trkpt>
      <trkpt lat="42.4295120" lon="-2.5612670">
        <ele>516.4</ele>
        <time>2022-08-29T04:22:21Z</time>
      </trkpt>
      <trkpt lat="42.4295120" lon="-2.5612670">
        <ele>516.4</ele>
        <time>2022-08-29T04:22:22Z</time>
      </trkpt>
      <trkpt lat="42.4295120" lon="-2.5612660">
        <ele>516.4</ele>
        <time>2022-08-29T04:22:23Z</time>
      </trkpt>
      <trkpt lat="42.4295100" lon="-2.5612660">
        <ele>516.4</ele>
        <time>2022-08-29T04:22:24Z</time>
      </trkpt>
      <trkpt lat="42.4295070" lon="-2.5612670">
        <ele>516.4</ele>
        <time>2022-08-29T04:22:25Z</time>
      </trkpt>
      <trkpt lat="42.4295090" lon="-2.5612670">
        <ele>516.4</ele>
        <time>2022-08-29T04:22:26Z</time>
      </trkpt>
      <trkpt lat="42.4295130" lon="-2.5612660">
        <ele>516.4</ele>
        <time>2022-08-29T04:22:27Z</time>
      </trkpt>
      <trkpt lat="42.4295150" lon="-2.5612620">
        <ele>516.4</ele>
        <time>2022-08-29T04:22:28Z</time>
      </trkpt>
      <trkpt lat="42.4295200" lon="-2.5612590">
        <ele>516.4</ele>
        <time>2022-08-29T04:22:29Z</time>
      </trkpt>
      <trkpt lat="42.4295240" lon="-2.5612560">
        <ele>516.4</ele>
        <time>2022-08-29T04:22:30Z</time>
      </trkpt>
      <trkpt lat="42.4295250" lon="-2.5612540">
        <ele>516.2</ele>
        <time>2022-08-29T04:22:31Z</time>
      </trkpt>
      <trkpt lat="42.4295280" lon="-2.5612520">
        <ele>516.4</ele>
        <time>2022-08-29T04:22:32Z</time>
      </trkpt>
      <trkpt lat="42.4295300" lon="-2.5612510">
        <ele>516.2</ele>
        <time>2022-08-29T04:22:33Z</time>
      </trkpt>
      <trkpt lat="42.4295350" lon="-2.5612520">
        <ele>516.4</ele>
        <time>2022-08-29T04:22:34Z</time>
      </trkpt>
      <trkpt lat="42.4295380" lon="-2.5612510">
        <ele>516.4</ele>
        <time>2022-08-29T04:22:35Z</time>
      </trkpt>
      <trkpt lat="42.4295380" lon="-2.5612510">
        <ele>516.2</ele>
        <time>2022-08-29T04:22:36Z</time>
      </trkpt>
      <trkpt lat="42.4295390" lon="-2.5612510">
        <ele>516.2</ele>
        <time>2022-08-29T04:22:37Z</time>
      </trkpt>
      <trkpt lat="42.4295390" lon="-2.5612510">
        <ele>516.2</ele>
        <time>2022-08-29T04:22:38Z</time>
      </trkpt>
      <trkpt lat="42.4295400" lon="-2.5612510">
        <ele>516.4</ele>
        <time>2022-08-29T04:22:39Z</time>
      </trkpt>
      <trkpt lat="42.4295400" lon="-2.5612520">
        <ele>516.4</ele>
        <time>2022-08-29T04:22:40Z</time>
      </trkpt>
      <trkpt lat="42.4295400" lon="-2.5612510">
        <ele>516.2</ele>
        <time>2022-08-29T04:22:41Z</time>
      </trkpt>
      <trkpt lat="42.4295410" lon="-2.5612510">
        <ele>516.2</ele>
        <time>2022-08-29T04:22:42Z</time>
      </trkpt>
      <trkpt lat="42.4295420" lon="-2.5612510">
        <ele>516.4</ele>
        <time>2022-08-29T04:22:43Z</time>
      </trkpt>
      <trkpt lat="42.4295440" lon="-2.5612520">
        <ele>516.4</ele>
        <time>2022-08-29T04:22:44Z</time>
      </trkpt>
      <trkpt lat="42.4295440" lon="-2.5612530">
        <ele>516.4</ele>
        <time>2022-08-29T04:22:45Z</time>
      </trkpt>
      <trkpt lat="42.4295460" lon="-2.5612520">
        <ele>516.2</ele>
        <time>2022-08-29T04:22:46Z</time>
      </trkpt>
      <trkpt lat="42.4295460" lon="-2.5612500">
        <ele>516.4</ele>
        <time>2022-08-29T04:22:47Z</time>
      </trkpt>
      <trkpt lat="42.4295450" lon="-2.5612500">
        <ele>516.4</ele>
        <time>2022-08-29T04:22:48Z</time>
      </trkpt>
      <trkpt lat="42.4295450" lon="-2.5612500">
        <ele>516.4</ele>
        <time>2022-08-29T04:22:49Z</time>
      </trkpt>
      <trkpt lat="42.4295450" lon="-2.5612500">
        <ele>516.4</ele>
        <time>2022-08-29T04:22:50Z</time>
      </trkpt>
      <trkpt lat="42.4295450" lon="-2.5612500">
        <ele>516.2</ele>
        <time>2022-08-29T04:22:51Z</time>
      </trkpt>
      <trkpt lat="42.4295450" lon="-2.5612500">
        <ele>516.2</ele>
        <time>2022-08-29T04:22:52Z</time>
      </trkpt>
      <trkpt lat="42.4295450" lon="-2.5612510">
        <ele>516.2</ele>
        <time>2022-08-29T04:22:53Z</time>
      </trkpt>
      <trkpt lat="42.4295450" lon="-2.5612500">
        <ele>516.2</ele>
        <time>2022-08-29T04:22:54Z</time>
      </trkpt>
      <trkpt lat="42.4295450" lon="-2.5612500">
        <ele>516.2</ele>
        <time>2022-08-29T04:22:55Z</time>
      </trkpt>
      <trkpt lat="42.4295450" lon="-2.5612500">
        <ele>516.2</ele>
        <time>2022-08-29T04:22:56Z</time>
      </trkpt>
      <trkpt lat="42.4295460" lon="-2.5612500">
        <ele>516.2</ele>
        <time>2022-08-29T04:22:57Z</time>
      </trkpt>
      <trkpt lat="42.4295460" lon="-2.5612500">
        <ele>516.0</ele>
        <time>2022-08-29T04:22:58Z</time>
      </trkpt>
      <trkpt lat="42.4295470" lon="-2.5612510">
        <ele>516.0</ele>
        <time>2022-08-29T04:22:59Z</time>
      </trkpt>
      <trkpt lat="42.4295460" lon="-2.5612510">
        <ele>516.2</ele>
        <time>2022-08-29T04:23:00Z</time>
      </trkpt>
      <trkpt lat="42.4295440" lon="-2.5612520">
        <ele>516.0</ele>
        <time>2022-08-29T04:23:01Z</time>
      </trkpt>
      <trkpt lat="42.4295420" lon="-2.5612540">
        <ele>516.2</ele>
        <time>2022-08-29T04:23:02Z</time>
      </trkpt>
      <trkpt lat="42.4295410" lon="-2.5612550">
        <ele>516.2</ele>
        <time>2022-08-29T04:23:03Z</time>
      </trkpt>
      <trkpt lat="42.4295400" lon="-2.5612550">
        <ele>516.0</ele>
        <time>2022-08-29T04:23:04Z</time>
      </trkpt>
      <trkpt lat="42.4295380" lon="-2.5612570">
        <ele>516.2</ele>
        <time>2022-08-29T04:23:05Z</time>
      </trkpt>
      <trkpt lat="42.4295370" lon="-2.5612600">
        <ele>516.0</ele>
        <time>2022-08-29T04:23:06Z</time>
      </trkpt>
      <trkpt lat="42.4295370" lon="-2.5612740">
        <ele>516.0</ele>
        <time>2022-08-29T04:23:07Z</time>
      </trkpt>
      <trkpt lat="42.4295370" lon="-2.5612890">
        <ele>516.0</ele>
        <time>2022-08-29T04:23:08Z</time>
      </trkpt>
      <trkpt lat="42.4295340" lon="-2.5613080">
        <ele>516.2</ele>
        <time>2022-08-29T04:23:09Z</time>
      </trkpt>
      <trkpt lat="42.4295320" lon="-2.5613330">
        <ele>516.0</ele>
        <time>2022-08-29T04:23:10Z</time>
      </trkpt>
      <trkpt lat="42.4295290" lon="-2.5613560">
        <ele>516.0</ele>
        <time>2022-08-29T04:23:11Z</time>
      </trkpt>
      <trkpt lat="42.4295290" lon="-2.5613840">
        <ele>516.2</ele>
        <time>2022-08-29T04:23:12Z</time>
      </trkpt>
      <trkpt lat="42.4295330" lon="-2.5614110">
        <ele>516.0</ele>
        <time>2022-08-29T04:23:13Z</time>
      </trkpt>
      <trkpt lat="42.4295340" lon="-2.5614450">
        <ele>516.0</ele>
        <time>2022-08-29T04:23:14Z</time>
      </trkpt>
      <trkpt lat="42.4295330" lon="-2.5614760">
        <ele>516.2</ele>
        <time>2022-08-29T04:23:15Z</time>
      </trkpt>
      <trkpt lat="42.4295300" lon="-2.5615100">
        <ele>516.0</ele>
        <time>2022-08-29T04:23:16Z</time>
      </trkpt>
      <trkpt lat="42.4295260" lon="-2.5615390">
        <ele>516.0</ele>
        <time>2022-08-29T04:23:17Z</time>
      </trkpt>
      <trkpt lat="42.4295220" lon="-2.5615690">
        <ele>516.0</ele>
        <time>2022-08-29T04:23:18Z</time>
      </trkpt>
      <trkpt lat="42.4295190" lon="-2.5615980">
        <ele>516.0</ele>
        <time>2022-08-29T04:23:19Z</time>
      </trkpt>
      <trkpt lat="42.4295160" lon="-2.5616280">
        <ele>516.0</ele>
        <time>2022-08-29T04:23:20Z</time>
      </trkpt>
      <trkpt lat="42.4295170" lon="-2.5616600">
        <ele>516.0</ele>
        <time>2022-08-29T04:23:21Z</time>
      </trkpt>
      <trkpt lat="42.4295070" lon="-2.5616900">
        <ele>516.0</ele>
        <time>2022-08-29T04:23:22Z</time>
      </trkpt>
      <trkpt lat="42.4295040" lon="-2.5617150">
        <ele>516.0</ele>
        <time>2022-08-29T04:23:23Z</time>
      </trkpt>
      <trkpt lat="42.4295030" lon="-2.5617410">
        <ele>516.0</ele>
        <time>2022-08-29T04:23:24Z</time>
      </trkpt>
      <trkpt lat="42.4295030" lon="-2.5617650">
        <ele>516.0</ele>
        <time>2022-08-29T04:23:25Z</time>
      </trkpt>
      <trkpt lat="42.4295160" lon="-2.5617840">
        <ele>516.2</ele>
        <time>2022-08-29T04:23:26Z</time>
      </trkpt>
      <trkpt lat="42.4295190" lon="-2.5618120">
        <ele>516.2</ele>
        <time>2022-08-29T04:23:27Z</time>
      </trkpt>
      <trkpt lat="42.4295220" lon="-2.5618370">
        <ele>516.2</ele>
        <time>2022-08-29T04:23:28Z</time>
      </trkpt>
      <trkpt lat="42.4295230" lon="-2.5618590">
        <ele>516.2</ele>
        <time>2022-08-29T04:23:29Z</time>
      </trkpt>
      <trkpt lat="42.4295220" lon="-2.5618790">
        <ele>516.2</ele>
        <time>2022-08-29T04:23:30Z</time>
      </trkpt>
      <trkpt lat="42.4295230" lon="-2.5619000">
        <ele>516.2</ele>
        <time>2022-08-29T04:23:31Z</time>
      </trkpt>
      <trkpt lat="42.4295260" lon="-2.5619190">
        <ele>516.4</ele>
        <time>2022-08-29T04:23:32Z</time>
      </trkpt>
      <trkpt lat="42.4295220" lon="-2.5619390">
        <ele>516.4</ele>
        <time>2022-08-29T04:23:33Z</time>
      </trkpt>
      <trkpt lat="42.4295280" lon="-2.5619550">
        <ele>516.6</ele>
        <time>2022-08-29T04:23:34Z</time>
      </trkpt>
      <trkpt lat="42.4295470" lon="-2.5619770">
        <ele>517.0</ele>
        <time>2022-08-29T04:23:35Z</time>
      </trkpt>
      <trkpt lat="42.4295590" lon="-2.5619940">
        <ele>517.0</ele>
        <time>2022-08-29T04:23:36Z</time>
      </trkpt>
      <trkpt lat="42.4295800" lon="-2.5620170">
        <ele>517.2</ele>
        <time>2022-08-29T04:23:37Z</time>
      </trkpt>
      <trkpt lat="42.4296080" lon="-2.5620320">
        <ele>517.4</ele>
        <time>2022-08-29T04:23:38Z</time>
      </trkpt>
      <trkpt lat="42.4296280" lon="-2.5620620">
        <ele>517.4</ele>
        <time>2022-08-29T04:23:39Z</time>
      </trkpt>
      <trkpt lat="42.4296460" lon="-2.5620840">
        <ele>517.4</ele>
        <time>2022-08-29T04:23:40Z</time>
      </trkpt>
      <trkpt lat="42.4296580" lon="-2.5621060">
        <ele>517.6</ele>
        <time>2022-08-29T04:23:41Z</time>
      </trkpt>
      <trkpt lat="42.4296680" lon="-2.5621290">
        <ele>517.8</ele>
        <time>2022-08-29T04:23:42Z</time>
      </trkpt>
      <trkpt lat="42.4296780" lon="-2.5621490">
        <ele>517.8</ele>
        <time>2022-08-29T04:23:43Z</time>
      </trkpt>
      <trkpt lat="42.4296920" lon="-2.5621650">
        <ele>518.2</ele>
        <time>2022-08-29T04:23:44Z</time>
      </trkpt>
      <trkpt lat="42.4297130" lon="-2.5621750">
        <ele>518.2</ele>
        <time>2022-08-29T04:23:45Z</time>
      </trkpt>
      <trkpt lat="42.4297300" lon="-2.5621880">
        <ele>518.4</ele>
        <time>2022-08-29T04:23:46Z</time>
      </trkpt>
      <trkpt lat="42.4297330" lon="-2.5622090">
        <ele>518.4</ele>
        <time>2022-08-29T04:23:47Z</time>
      </trkpt>
      <trkpt lat="42.4297480" lon="-2.5622270">
        <ele>518.6</ele>
        <time>2022-08-29T04:23:48Z</time>
      </trkpt>
      <trkpt lat="42.4297680" lon="-2.5622440">
        <ele>518.6</ele>
        <time>2022-08-29T04:23:49Z</time>
      </trkpt>
      <trkpt lat="42.4297830" lon="-2.5622600">
        <ele>518.8</ele>
        <time>2022-08-29T04:23:50Z</time>
      </trkpt>
      <trkpt lat="42.4298010" lon="-2.5622760">
        <ele>518.8</ele>
        <time>2022-08-29T04:23:51Z</time>
      </trkpt>
      <trkpt lat="42.4298220" lon="-2.5622840">
        <ele>519.0</ele>
        <time>2022-08-29T04:23:52Z</time>
      </trkpt>
      <trkpt lat="42.4298310" lon="-2.5623070">
        <ele>519.0</ele>
        <time>2022-08-29T04:23:53Z</time>
      </trkpt>
      <trkpt lat="42.4298370" lon="-2.5623330">
        <ele>519.4</ele>
        <time>2022-08-29T04:23:54Z</time>
      </trkpt>
      <trkpt lat="42.4298490" lon="-2.5623520">
        <ele>519.4</ele>
        <time>2022-08-29T04:23:55Z</time>
      </trkpt>
      <trkpt lat="42.4298630" lon="-2.5623710">
        <ele>519.6</ele>
        <time>2022-08-29T04:23:56Z</time>
      </trkpt>
      <trkpt lat="42.4298800" lon="-2.5623850">
        <ele>519.6</ele>
        <time>2022-08-29T04:23:57Z</time>
      </trkpt>
      <trkpt lat="42.4298980" lon="-2.5624010">
        <ele>519.6</ele>
        <time>2022-08-29T04:23:58Z</time>
      </trkpt>
      <trkpt lat="42.4299070" lon="-2.5624210">
        <ele>519.8</ele>
        <time>2022-08-29T04:23:59Z</time>
      </trkpt>
      <trkpt lat="42.4299240" lon="-2.5624420">
        <ele>520.0</ele>
        <time>2022-08-29T04:24:00Z</time>
      </trkpt>
      <trkpt lat="42.4299360" lon="-2.5624620">
        <ele>520.2</ele>
        <time>2022-08-29T04:24:01Z</time>
      </trkpt>
      <trkpt lat="42.4299470" lon="-2.5624810">
        <ele>520.2</ele>
        <time>2022-08-29T04:24:02Z</time>
      </trkpt>
      <trkpt lat="42.4299620" lon="-2.5624940">
        <ele>520.2</ele>
        <time>2022-08-29T04:24:03Z</time>
      </trkpt>
      <trkpt lat="42.4299760" lon="-2.5625080">
        <ele>520.2</ele>
        <time>2022-08-29T04:24:04Z</time>
      </trkpt>
      <trkpt lat="42.4299980" lon="-2.5625190">
        <ele>520.4</ele>
        <time>2022-08-29T04:24:05Z</time>
      </trkpt>
      <trkpt lat="42.4300190" lon="-2.5625320">
        <ele>520.6</ele>
        <time>2022-08-29T04:24:06Z</time>
      </trkpt>
      <trkpt lat="42.4300430" lon="-2.5625410">
        <ele>520.8</ele>
        <time>2022-08-29T04:24:07Z</time>
      </trkpt>
      <trkpt lat="42.4300650" lon="-2.5625520">
        <ele>520.8</ele>
        <time>2022-08-29T04:24:08Z</time>
      </trkpt>
      <trkpt lat="42.4300800" lon="-2.5625660">
        <ele>521.0</ele>
        <time>2022-08-29T04:24:09Z</time>
      </trkpt>
      <trkpt lat="42.4300950" lon="-2.5625820">
        <ele>521.2</ele>
        <time>2022-08-29T04:24:10Z</time>
      </trkpt>
      <trkpt lat="42.4301120" lon="-2.5625990">
        <ele>521.2</ele>
        <time>2022-08-29T04:24:11Z</time>
      </trkpt>
      <trkpt lat="42.4301320" lon="-2.5626150">
        <ele>521.2</ele>
        <time>2022-08-29T04:24:12Z</time>
      </trkpt>
      <trkpt lat="42.4301500" lon="-2.5626300">
        <ele>521.4</ele>
        <time>2022-08-29T04:24:13Z</time>
      </trkpt>
      <trkpt lat="42.4301700" lon="-2.5626430">
        <ele>521.4</ele>
        <time>2022-08-29T04:24:14Z</time>
      </trkpt>
      <trkpt lat="42.4301870" lon="-2.5626570">
        <ele>521.4</ele>
        <time>2022-08-29T04:24:15Z</time>
      </trkpt>
      <trkpt lat="42.4302050" lon="-2.5626660">
        <ele>521.6</ele>
        <time>2022-08-29T04:24:16Z</time>
      </trkpt>
      <trkpt lat="42.4302190" lon="-2.5626820">
        <ele>521.8</ele>
        <time>2022-08-29T04:24:17Z</time>
      </trkpt>
      <trkpt lat="42.4302410" lon="-2.5626900">
        <ele>521.8</ele>
        <time>2022-08-29T04:24:18Z</time>
      </trkpt>
      <trkpt lat="42.4302620" lon="-2.5627040">
        <ele>522.0</ele>
        <time>2022-08-29T04:24:19Z</time>
      </trkpt>
      <trkpt lat="42.4302800" lon="-2.5627170">
        <ele>522.0</ele>
        <time>2022-08-29T04:24:20Z</time>
      </trkpt>
      <trkpt lat="42.4303060" lon="-2.5627360">
        <ele>522.2</ele>
        <time>2022-08-29T04:24:21Z</time>
      </trkpt>
      <trkpt lat="42.4303370" lon="-2.5627550">
        <ele>522.2</ele>
        <time>2022-08-29T04:24:22Z</time>
      </trkpt>
      <trkpt lat="42.4303740" lon="-2.5627730">
        <ele>522.0</ele>
        <time>2022-08-29T04:24:23Z</time>
      </trkpt>
      <trkpt lat="42.4304100" lon="-2.5627930">
        <ele>522.2</ele>
        <time>2022-08-29T04:24:24Z</time>
      </trkpt>
      <trkpt lat="42.4304480" lon="-2.5628110">
        <ele>522.2</ele>
        <time>2022-08-29T04:24:25Z</time>
      </trkpt>
      <trkpt lat="42.4304760" lon="-2.5628380">
        <ele>522.2</ele>
        <time>2022-08-29T04:24:26Z</time>
      </trkpt>
      <trkpt lat="42.4305050" lon="-2.5628640">
        <ele>522.2</ele>
        <time>2022-08-29T04:24:27Z</time>
      </trkpt>
      <trkpt lat="42.4305360" lon="-2.5628820">
        <ele>522.2</ele>
        <time>2022-08-29T04:24:28Z</time>
      </trkpt>
      <trkpt lat="42.4305650" lon="-2.5628980">
        <ele>522.2</ele>
        <time>2022-08-29T04:24:29Z</time>
      </trkpt>
      <trkpt lat="42.4305850" lon="-2.5629140">
        <ele>522.2</ele>
        <time>2022-08-29T04:24:30Z</time>
      </trkpt>
      <trkpt lat="42.4306190" lon="-2.5629210">
        <ele>522.2</ele>
        <time>2022-08-29T04:24:31Z</time>
      </trkpt>
      <trkpt lat="42.4306410" lon="-2.5629320">
        <ele>521.8</ele>
        <time>2022-08-29T04:24:32Z</time>
      </trkpt>
      <trkpt lat="42.4306600" lon="-2.5629430">
        <ele>521.6</ele>
        <time>2022-08-29T04:24:33Z</time>
      </trkpt>
      <trkpt lat="42.4306780" lon="-2.5629530">
        <ele>521.4</ele>
        <time>2022-08-29T04:24:34Z</time>
      </trkpt>
      <trkpt lat="42.4306970" lon="-2.5629530">
        <ele>521.0</ele>
        <time>2022-08-29T04:24:35Z</time>
      </trkpt>
      <trkpt lat="42.4307300" lon="-2.5629650">
        <ele>520.8</ele>
        <time>2022-08-29T04:24:36Z</time>
      </trkpt>
      <trkpt lat="42.4307560" lon="-2.5629850">
        <ele>520.8</ele>
        <time>2022-08-29T04:24:37Z</time>
      </trkpt>
      <trkpt lat="42.4307850" lon="-2.5630010">
        <ele>520.8</ele>
        <time>2022-08-29T04:24:38Z</time>
      </trkpt>
      <trkpt lat="42.4308080" lon="-2.5630180">
        <ele>520.8</ele>
        <time>2022-08-29T04:24:39Z</time>
      </trkpt>
      <trkpt lat="42.4308260" lon="-2.5630360">
        <ele>520.6</ele>
        <time>2022-08-29T04:24:40Z</time>
      </trkpt>
      <trkpt lat="42.4308400" lon="-2.5630550">
        <ele>520.6</ele>
        <time>2022-08-29T04:24:41Z</time>
      </trkpt>
      <trkpt lat="42.4308540" lon="-2.5630700">
        <ele>520.4</ele>
        <time>2022-08-29T04:24:42Z</time>
      </trkpt>
      <trkpt lat="42.4308650" lon="-2.5630780">
        <ele>520.6</ele>
        <time>2022-08-29T04:24:43Z</time>
      </trkpt>
      <trkpt lat="42.4308730" lon="-2.5630770">
        <ele>520.4</ele>
        <time>2022-08-29T04:24:44Z</time>
      </trkpt>
      <trkpt lat="42.4308730" lon="-2.5630780">
        <ele>520.4</ele>
        <time>2022-08-29T04:24:45Z</time>
      </trkpt>
      <trkpt lat="42.4308700" lon="-2.5630780">
        <ele>520.2</ele>
        <time>2022-08-29T04:24:46Z</time>
      </trkpt>
      <trkpt lat="42.4308660" lon="-2.5630710">
        <ele>520.2</ele>
        <time>2022-08-29T04:24:47Z</time>
      </trkpt>
      <trkpt lat="42.4308660" lon="-2.5630580">
        <ele>520.2</ele>
        <time>2022-08-29T04:24:48Z</time>
      </trkpt>
      <trkpt lat="42.4308630" lon="-2.5630400">
        <ele>520.2</ele>
        <time>2022-08-29T04:24:49Z</time>
      </trkpt>
      <trkpt lat="42.4308550" lon="-2.5630260">
        <ele>520.0</ele>
        <time>2022-08-29T04:24:50Z</time>
      </trkpt>
      <trkpt lat="42.4308490" lon="-2.5630170">
        <ele>519.8</ele>
        <time>2022-08-29T04:24:51Z</time>
      </trkpt>
      <trkpt lat="42.4308500" lon="-2.5630100">
        <ele>519.8</ele>
        <time>2022-08-29T04:24:52Z</time>
      </trkpt>
      <trkpt lat="42.4308540" lon="-2.5630090">
        <ele>520.0</ele>
        <time>2022-08-29T04:24:53Z</time>
      </trkpt>
      <trkpt lat="42.4308590" lon="-2.5630110">
        <ele>519.8</ele>
        <time>2022-08-29T04:24:54Z</time>
      </trkpt>
      <trkpt lat="42.4308640" lon="-2.5630240">
        <ele>519.8</ele>
        <time>2022-08-29T04:24:55Z</time>
      </trkpt>
      <trkpt lat="42.4308640" lon="-2.5630450">
        <ele>519.8</ele>
        <time>2022-08-29T04:24:56Z</time>
      </trkpt>
      <trkpt lat="42.4308640" lon="-2.5630730">
        <ele>519.8</ele>
        <time>2022-08-29T04:24:57Z</time>
      </trkpt>
      <trkpt lat="42.4308640" lon="-2.5630970">
        <ele>519.8</ele>
        <time>2022-08-29T04:24:58Z</time>
      </trkpt>
      <trkpt lat="42.4308630" lon="-2.5631270">
        <ele>519.6</ele>
        <time>2022-08-29T04:24:59Z</time>
      </trkpt>
      <trkpt lat="42.4308570" lon="-2.5631720">
        <ele>519.6</ele>
        <time>2022-08-29T04:25:00Z</time>
      </trkpt>
      <trkpt lat="42.4308540" lon="-2.5632190">
        <ele>519.6</ele>
        <time>2022-08-29T04:25:01Z</time>
      </trkpt>
      <trkpt lat="42.4308480" lon="-2.5632770">
        <ele>519.6</ele>
        <time>2022-08-29T04:25:02Z</time>
      </trkpt>
      <trkpt lat="42.4308420" lon="-2.5633450">
        <ele>519.6</ele>
        <time>2022-08-29T04:25:03Z</time>
      </trkpt>
      <trkpt lat="42.4308430" lon="-2.5634250">
        <ele>519.6</ele>
        <time>2022-08-29T04:25:04Z</time>
      </trkpt>
      <trkpt lat="42.4308430" lon="-2.5635080">
        <ele>519.6</ele>
        <time>2022-08-29T04:25:05Z</time>
      </trkpt>
      <trkpt lat="42.4308460" lon="-2.5635910">
        <ele>519.4</ele>
        <time>2022-08-29T04:25:06Z</time>
      </trkpt>
      <trkpt lat="42.4308470" lon="-2.5636700">
        <ele>519.4</ele>
        <time>2022-08-29T04:25:07Z</time>
      </trkpt>
      <trkpt lat="42.4308470" lon="-2.5637640">
        <ele>519.2</ele>
        <time>2022-08-29T04:25:08Z</time>
      </trkpt>
      <trkpt lat="42.4308460" lon="-2.5638590">
        <ele>518.8</ele>
        <time>2022-08-29T04:25:09Z</time>
      </trkpt>
      <trkpt lat="42.4308420" lon="-2.5639640">
        <ele>518.4</ele>
        <time>2022-08-29T04:25:10Z</time>
      </trkpt>
      <trkpt lat="42.4308380" lon="-2.5640750">
        <ele>517.6</ele>
        <time>2022-08-29T04:25:11Z</time>
      </trkpt>
      <trkpt lat="42.4308320" lon="-2.5641910">
        <ele>517.2</ele>
        <time>2022-08-29T04:25:12Z</time>
      </trkpt>
      <trkpt lat="42.4308300" lon="-2.5643220">
        <ele>516.4</ele>
        <time>2022-08-29T04:25:13Z</time>
      </trkpt>
      <trkpt lat="42.4307800" lon="-2.5644590">
        <ele>515.6</ele>
        <time>2022-08-29T04:25:14Z</time>
      </trkpt>
      <trkpt lat="42.4307580" lon="-2.5645830">
        <ele>514.6</ele>
        <time>2022-08-29T04:25:15Z</time>
      </trkpt>
      <trkpt lat="42.4307220" lon="-2.5647110">
        <ele>514.0</ele>
        <time>2022-08-29T04:25:16Z</time>
      </trkpt>
      <trkpt lat="42.4306990" lon="-2.5648360">
        <ele>513.2</ele>
        <time>2022-08-29T04:25:17Z</time>
      </trkpt>
      <trkpt lat="42.4306810" lon="-2.5649570">
        <ele>512.4</ele>
        <time>2022-08-29T04:25:18Z</time>
      </trkpt>
      <trkpt lat="42.4306640" lon="-2.5650780">
        <ele>511.0</ele>
        <time>2022-08-29T04:25:19Z</time>
      </trkpt>
      <trkpt lat="42.4306440" lon="-2.5651950">
        <ele>509.8</ele>
        <time>2022-08-29T04:25:20Z</time>
      </trkpt>
      <trkpt lat="42.4306280" lon="-2.5653040">
        <ele>509.2</ele>
        <time>2022-08-29T04:25:21Z</time>
      </trkpt>
      <trkpt lat="42.4306150" lon="-2.5653850">
        <ele>508.4</ele>
        <time>2022-08-29T04:25:22Z</time>
      </trkpt>
      <trkpt lat="42.4305950" lon="-2.5654740">
        <ele>507.6</ele>
        <time>2022-08-29T04:25:23Z</time>
      </trkpt>
      <trkpt lat="42.4305790" lon="-2.5655570">
        <ele>506.8</ele>
        <time>2022-08-29T04:25:24Z</time>
      </trkpt>
      <trkpt lat="42.4305680" lon="-2.5656380">
        <ele>506.8</ele>
        <time>2022-08-29T04:25:25Z</time>
      </trkpt>
      <trkpt lat="42.4305590" lon="-2.5657180">
        <ele>506.6</ele>
        <time>2022-08-29T04:25:26Z</time>
      </trkpt>
      <trkpt lat="42.4305420" lon="-2.5657990">
        <ele>506.4</ele>
        <time>2022-08-29T04:25:27Z</time>
      </trkpt>
      <trkpt lat="42.4305290" lon="-2.5658770">
        <ele>506.4</ele>
        <time>2022-08-29T04:25:28Z</time>
      </trkpt>
      <trkpt lat="42.4305150" lon="-2.5659540">
        <ele>506.2</ele>
        <time>2022-08-29T04:25:29Z</time>
      </trkpt>
      <trkpt lat="42.4304990" lon="-2.5660290">
        <ele>506.2</ele>
        <time>2022-08-29T04:25:30Z</time>
      </trkpt>
      <trkpt lat="42.4304880" lon="-2.5661020">
        <ele>506.2</ele>
        <time>2022-08-29T04:25:31Z</time>
      </trkpt>
      <trkpt lat="42.4304740" lon="-2.5661720">
        <ele>506.2</ele>
        <time>2022-08-29T04:25:32Z</time>
      </trkpt>
      <trkpt lat="42.4304550" lon="-2.5662460">
        <ele>506.2</ele>
        <time>2022-08-29T04:25:33Z</time>
      </trkpt>
      <trkpt lat="42.4304440" lon="-2.5663100">
        <ele>506.2</ele>
        <time>2022-08-29T04:25:34Z</time>
      </trkpt>
      <trkpt lat="42.4304330" lon="-2.5663790">
        <ele>506.2</ele>
        <time>2022-08-29T04:25:35Z</time>
      </trkpt>
      <trkpt lat="42.4304110" lon="-2.5664520">
        <ele>506.2</ele>
        <time>2022-08-29T04:25:36Z</time>
      </trkpt>
      <trkpt lat="42.4303920" lon="-2.5665200">
        <ele>506.2</ele>
        <time>2022-08-29T04:25:37Z</time>
      </trkpt>
      <trkpt lat="42.4303790" lon="-2.5665830">
        <ele>506.2</ele>
        <time>2022-08-29T04:25:38Z</time>
      </trkpt>
      <trkpt lat="42.4303660" lon="-2.5666470">
        <ele>506.4</ele>
        <time>2022-08-29T04:25:39Z</time>
      </trkpt>
      <trkpt lat="42.4303530" lon="-2.5667100">
        <ele>506.2</ele>
        <time>2022-08-29T04:25:40Z</time>
      </trkpt>
      <trkpt lat="42.4303400" lon="-2.5667740">
        <ele>506.4</ele>
        <time>2022-08-29T04:25:41Z</time>
      </trkpt>
      <trkpt lat="42.4303270" lon="-2.5668360">
        <ele>506.6</ele>
        <time>2022-08-29T04:25:42Z</time>
      </trkpt>
      <trkpt lat="42.4303130" lon="-2.5668980">
        <ele>506.4</ele>
        <time>2022-08-29T04:25:43Z</time>
      </trkpt>
      <trkpt lat="42.4303010" lon="-2.5669600">
        <ele>506.6</ele>
        <time>2022-08-29T04:25:44Z</time>
      </trkpt>
      <trkpt lat="42.4302890" lon="-2.5670170">
        <ele>506.4</ele>
        <time>2022-08-29T04:25:45Z</time>
      </trkpt>
      <trkpt lat="42.4302800" lon="-2.5670740">
        <ele>506.4</ele>
        <time>2022-08-29T04:25:46Z</time>
      </trkpt>
      <trkpt lat="42.4302720" lon="-2.5671320">
        <ele>506.6</ele>
        <time>2022-08-29T04:25:47Z</time>
      </trkpt>
      <trkpt lat="42.4302670" lon="-2.5671900">
        <ele>506.6</ele>
        <time>2022-08-29T04:25:48Z</time>
      </trkpt>
      <trkpt lat="42.4302610" lon="-2.5672450">
        <ele>506.6</ele>
        <time>2022-08-29T04:25:49Z</time>
      </trkpt>
      <trkpt lat="42.4302560" lon="-2.5673010">
        <ele>506.6</ele>
        <time>2022-08-29T04:25:50Z</time>
      </trkpt>
      <trkpt lat="42.4302520" lon="-2.5673560">
        <ele>506.6</ele>
        <time>2022-08-29T04:25:51Z</time>
      </trkpt>
      <trkpt lat="42.4302470" lon="-2.5674120">
        <ele>506.8</ele>
        <time>2022-08-29T04:25:52Z</time>
      </trkpt>
      <trkpt lat="42.4302370" lon="-2.5674670">
        <ele>506.8</ele>
        <time>2022-08-29T04:25:53Z</time>
      </trkpt>
      <trkpt lat="42.4302290" lon="-2.5675230">
        <ele>506.8</ele>
        <time>2022-08-29T04:25:54Z</time>
      </trkpt>
      <trkpt lat="42.4302220" lon="-2.5675760">
        <ele>506.8</ele>
        <time>2022-08-29T04:25:55Z</time>
      </trkpt>
      <trkpt lat="42.4302130" lon="-2.5676280">
        <ele>507.0</ele>
        <time>2022-08-29T04:25:56Z</time>
      </trkpt>
      <trkpt lat="42.4302080" lon="-2.5676780">
        <ele>507.0</ele>
        <time>2022-08-29T04:25:57Z</time>
      </trkpt>
      <trkpt lat="42.4301980" lon="-2.5677330">
        <ele>507.2</ele>
        <time>2022-08-29T04:25:58Z</time>
      </trkpt>
      <trkpt lat="42.4301930" lon="-2.5677850">
        <ele>507.2</ele>
        <time>2022-08-29T04:25:59Z</time>
      </trkpt>
      <trkpt lat="42.4301880" lon="-2.5678330">
        <ele>507.4</ele>
        <time>2022-08-29T04:26:00Z</time>
      </trkpt>
      <trkpt lat="42.4301830" lon="-2.5678800">
        <ele>507.6</ele>
        <time>2022-08-29T04:26:01Z</time>
      </trkpt>
      <trkpt lat="42.4301760" lon="-2.5679300">
        <ele>507.6</ele>
        <time>2022-08-29T04:26:02Z</time>
      </trkpt>
      <trkpt lat="42.4301670" lon="-2.5679810">
        <ele>507.8</ele>
        <time>2022-08-29T04:26:03Z</time>
      </trkpt>
      <trkpt lat="42.4301530" lon="-2.5680320">
        <ele>507.8</ele>
        <time>2022-08-29T04:26:04Z</time>
      </trkpt>
      <trkpt lat="42.4301380" lon="-2.5680830">
        <ele>508.0</ele>
        <time>2022-08-29T04:26:05Z</time>
      </trkpt>
      <trkpt lat="42.4301260" lon="-2.5681360">
        <ele>508.0</ele>
        <time>2022-08-29T04:26:06Z</time>
      </trkpt>
      <trkpt lat="42.4301120" lon="-2.5681860">
        <ele>508.2</ele>
        <time>2022-08-29T04:26:07Z</time>
      </trkpt>
      <trkpt lat="42.4300940" lon="-2.5682370">
        <ele>508.4</ele>
        <time>2022-08-29T04:26:08Z</time>
      </trkpt>
      <trkpt lat="42.4300740" lon="-2.5682850">
        <ele>508.6</ele>
        <time>2022-08-29T04:26:09Z</time>
      </trkpt>
      <trkpt lat="42.4300510" lon="-2.5683330">
        <ele>508.4</ele>
        <time>2022-08-29T04:26:10Z</time>
      </trkpt>
      <trkpt lat="42.4300290" lon="-2.5683810">
        <ele>508.4</ele>
        <time>2022-08-29T04:26:11Z</time>
      </trkpt>
      <trkpt lat="42.4300090" lon="-2.5684310">
        <ele>508.6</ele>
        <time>2022-08-29T04:26:12Z</time>
      </trkpt>
      <trkpt lat="42.4299860" lon="-2.5684780">
        <ele>508.8</ele>
        <time>2022-08-29T04:26:13Z</time>
      </trkpt>
      <trkpt lat="42.4299620" lon="-2.5685270">
        <ele>508.8</ele>
        <time>2022-08-29T04:26:14Z</time>
      </trkpt>
      <trkpt lat="42.4299410" lon="-2.5685770">
        <ele>508.6</ele>
        <time>2022-08-29T04:26:15Z</time>
      </trkpt>
      <trkpt lat="42.4299210" lon="-2.5686260">
        <ele>508.8</ele>
        <time>2022-08-29T04:26:16Z</time>
      </trkpt>
      <trkpt lat="42.4299000" lon="-2.5686750">
        <ele>508.8</ele>
        <time>2022-08-29T04:26:17Z</time>
      </trkpt>
      <trkpt lat="42.4298780" lon="-2.5687240">
        <ele>508.8</ele>
        <time>2022-08-29T04:26:18Z</time>
      </trkpt>
      <trkpt lat="42.4298550" lon="-2.5687720">
        <ele>509.0</ele>
        <time>2022-08-29T04:26:19Z</time>
      </trkpt>
      <trkpt lat="42.4298320" lon="-2.5688200">
        <ele>508.8</ele>
        <time>2022-08-29T04:26:20Z</time>
      </trkpt>
      <trkpt lat="42.4298130" lon="-2.5688660">
        <ele>509.0</ele>
        <time>2022-08-29T04:26:21Z</time>
      </trkpt>
      <trkpt lat="42.4297940" lon="-2.5689110">
        <ele>508.8</ele>
        <time>2022-08-29T04:26:22Z</time>
      </trkpt>
      <trkpt lat="42.4297720" lon="-2.5689600">
        <ele>508.8</ele>
        <time>2022-08-29T04:26:23Z</time>
      </trkpt>
      <trkpt lat="42.4297470" lon="-2.5690070">
        <ele>509.0</ele>
        <time>2022-08-29T04:26:24Z</time>
      </trkpt>
      <trkpt lat="42.4297210" lon="-2.5690540">
        <ele>509.0</ele>
        <time>2022-08-29T04:26:25Z</time>
      </trkpt>
      <trkpt lat="42.4296970" lon="-2.5691040">
        <ele>509.2</ele>
        <time>2022-08-29T04:26:26Z</time>
      </trkpt>
      <trkpt lat="42.4296750" lon="-2.5691560">
        <ele>509.2</ele>
        <time>2022-08-29T04:26:27Z</time>
      </trkpt>
      <trkpt lat="42.4296540" lon="-2.5692080">
        <ele>509.2</ele>
        <time>2022-08-29T04:26:28Z</time>
      </trkpt>
      <trkpt lat="42.4296320" lon="-2.5692590">
        <ele>509.2</ele>
        <time>2022-08-29T04:26:29Z</time>
      </trkpt>
      <trkpt lat="42.4296080" lon="-2.5693080">
        <ele>509.4</ele>
        <time>2022-08-29T04:26:30Z</time>
      </trkpt>
      <trkpt lat="42.4295860" lon="-2.5693570">
        <ele>509.4</ele>
        <time>2022-08-29T04:26:31Z</time>
      </trkpt>
      <trkpt lat="42.4295640" lon="-2.5694050">
        <ele>509.4</ele>
        <time>2022-08-29T04:26:32Z</time>
      </trkpt>
      <trkpt lat="42.4295430" lon="-2.5694540">
        <ele>509.4</ele>
        <time>2022-08-29T04:26:33Z</time>
      </trkpt>
      <trkpt lat="42.4295190" lon="-2.5695050">
        <ele>509.6</ele>
        <time>2022-08-29T04:26:34Z</time>
      </trkpt>
      <trkpt lat="42.4294950" lon="-2.5695510">
        <ele>509.6</ele>
        <time>2022-08-29T04:26:35Z</time>
      </trkpt>
      <trkpt lat="42.4294710" lon="-2.5695990">
        <ele>509.6</ele>
        <time>2022-08-29T04:26:36Z</time>
      </trkpt>
      <trkpt lat="42.4294480" lon="-2.5696480">
        <ele>509.8</ele>
        <time>2022-08-29T04:26:37Z</time>
      </trkpt>
      <trkpt lat="42.4294280" lon="-2.5696960">
        <ele>509.8</ele>
        <time>2022-08-29T04:26:38Z</time>
      </trkpt>
      <trkpt lat="42.4293940" lon="-2.5697560">
        <ele>510.0</ele>
        <time>2022-08-29T04:26:39Z</time>
      </trkpt>
      <trkpt lat="42.4293690" lon="-2.5698080">
        <ele>510.0</ele>
        <time>2022-08-29T04:26:40Z</time>
      </trkpt>
      <trkpt lat="42.4293450" lon="-2.5698570">
        <ele>509.8</ele>
        <time>2022-08-29T04:26:41Z</time>
      </trkpt>
      <trkpt lat="42.4293210" lon="-2.5699080">
        <ele>510.0</ele>
        <time>2022-08-29T04:26:42Z</time>
      </trkpt>
      <trkpt lat="42.4292920" lon="-2.5699610">
        <ele>510.2</ele>
        <time>2022-08-29T04:26:43Z</time>
      </trkpt>
      <trkpt lat="42.4292670" lon="-2.5700130">
        <ele>510.0</ele>
        <time>2022-08-29T04:26:44Z</time>
      </trkpt>
      <trkpt lat="42.4292420" lon="-2.5700660">
        <ele>510.0</ele>
        <time>2022-08-29T04:26:45Z</time>
      </trkpt>
      <trkpt lat="42.4292170" lon="-2.5701170">
        <ele>510.0</ele>
        <time>2022-08-29T04:26:46Z</time>
      </trkpt>
      <trkpt lat="42.4291920" lon="-2.5701660">
        <ele>510.0</ele>
        <time>2022-08-29T04:26:47Z</time>
      </trkpt>
      <trkpt lat="42.4291680" lon="-2.5702150">
        <ele>510.2</ele>
        <time>2022-08-29T04:26:48Z</time>
      </trkpt>
      <trkpt lat="42.4291440" lon="-2.5702640">
        <ele>510.0</ele>
        <time>2022-08-29T04:26:49Z</time>
      </trkpt>
      <trkpt lat="42.4291200" lon="-2.5703140">
        <ele>510.2</ele>
        <time>2022-08-29T04:26:50Z</time>
      </trkpt>
      <trkpt lat="42.4290980" lon="-2.5703630">
        <ele>510.2</ele>
        <time>2022-08-29T04:26:51Z</time>
      </trkpt>
      <trkpt lat="42.4290750" lon="-2.5704130">
        <ele>510.2</ele>
        <time>2022-08-29T04:26:52Z</time>
      </trkpt>
      <trkpt lat="42.4290520" lon="-2.5704620">
        <ele>510.2</ele>
        <time>2022-08-29T04:26:53Z</time>
      </trkpt>
      <trkpt lat="42.4290290" lon="-2.5705120">
        <ele>510.4</ele>
        <time>2022-08-29T04:26:54Z</time>
      </trkpt>
      <trkpt lat="42.4290050" lon="-2.5705610">
        <ele>510.4</ele>
        <time>2022-08-29T04:26:55Z</time>
      </trkpt>
      <trkpt lat="42.4289820" lon="-2.5706090">
        <ele>510.4</ele>
        <time>2022-08-29T04:26:56Z</time>
      </trkpt>
      <trkpt lat="42.4289580" lon="-2.5706580">
        <ele>510.4</ele>
        <time>2022-08-29T04:26:57Z</time>
      </trkpt>
      <trkpt lat="42.4289350" lon="-2.5707080">
        <ele>510.6</ele>
        <time>2022-08-29T04:26:58Z</time>
      </trkpt>
      <trkpt lat="42.4289110" lon="-2.5707560">
        <ele>510.4</ele>
        <time>2022-08-29T04:26:59Z</time>
      </trkpt>
      <trkpt lat="42.4288870" lon="-2.5708030">
        <ele>510.4</ele>
        <time>2022-08-29T04:27:00Z</time>
      </trkpt>
      <trkpt lat="42.4288630" lon="-2.5708510">
        <ele>510.4</ele>
        <time>2022-08-29T04:27:01Z</time>
      </trkpt>
      <trkpt lat="42.4288400" lon="-2.5709000">
        <ele>510.6</ele>
        <time>2022-08-29T04:27:02Z</time>
      </trkpt>
      <trkpt lat="42.4288150" lon="-2.5709510">
        <ele>510.6</ele>
        <time>2022-08-29T04:27:03Z</time>
      </trkpt>
      <trkpt lat="42.4287910" lon="-2.5710020">
        <ele>510.6</ele>
        <time>2022-08-29T04:27:04Z</time>
      </trkpt>
      <trkpt lat="42.4287670" lon="-2.5710510">
        <ele>510.8</ele>
        <time>2022-08-29T04:27:05Z</time>
      </trkpt>
      <trkpt lat="42.4287420" lon="-2.5710990">
        <ele>510.8</ele>
        <time>2022-08-29T04:27:06Z</time>
      </trkpt>
      <trkpt lat="42.4287180" lon="-2.5711480">
        <ele>511.0</ele>
        <time>2022-08-29T04:27:07Z</time>
      </trkpt>
      <trkpt lat="42.4286940" lon="-2.5711960">
        <ele>511.0</ele>
        <time>2022-08-29T04:27:08Z</time>
      </trkpt>
      <trkpt lat="42.4286700" lon="-2.5712450">
        <ele>511.0</ele>
        <time>2022-08-29T04:27:09Z</time>
      </trkpt>
      <trkpt lat="42.4286450" lon="-2.5712940">
        <ele>511.0</ele>
        <time>2022-08-29T04:27:10Z</time>
      </trkpt>
      <trkpt lat="42.4286210" lon="-2.5713420">
        <ele>511.2</ele>
        <time>2022-08-29T04:27:11Z</time>
      </trkpt>
      <trkpt lat="42.4285980" lon="-2.5713940">
        <ele>511.2</ele>
        <time>2022-08-29T04:27:12Z</time>
      </trkpt>
      <trkpt lat="42.4285750" lon="-2.5714440">
        <ele>511.4</ele>
        <time>2022-08-29T04:27:13Z</time>
      </trkpt>
      <trkpt lat="42.4285520" lon="-2.5714950">
        <ele>511.4</ele>
        <time>2022-08-29T04:27:14Z</time>
      </trkpt>
      <trkpt lat="42.4285290" lon="-2.5715470">
        <ele>511.2</ele>
        <time>2022-08-29T04:27:15Z</time>
      </trkpt>
      <trkpt lat="42.4285050" lon="-2.5715970">
        <ele>511.4</ele>
        <time>2022-08-29T04:27:16Z</time>
      </trkpt>
      <trkpt lat="42.4284810" lon="-2.5716470">
        <ele>511.6</ele>
        <time>2022-08-29T04:27:17Z</time>
      </trkpt>
      <trkpt lat="42.4284570" lon="-2.5716960">
        <ele>511.4</ele>
        <time>2022-08-29T04:27:18Z</time>
      </trkpt>
      <trkpt lat="42.4284350" lon="-2.5717440">
        <ele>511.6</ele>
        <time>2022-08-29T04:27:19Z</time>
      </trkpt>
      <trkpt lat="42.4284140" lon="-2.5717910">
        <ele>511.6</ele>
        <time>2022-08-29T04:27:20Z</time>
      </trkpt>
      <trkpt lat="42.4283910" lon="-2.5718340">
        <ele>511.6</ele>
        <time>2022-08-29T04:27:21Z</time>
      </trkpt>
      <trkpt lat="42.4283690" lon="-2.5718780">
        <ele>511.8</ele>
        <time>2022-08-29T04:27:22Z</time>
      </trkpt>
      <trkpt lat="42.4283490" lon="-2.5719230">
        <ele>511.6</ele>
        <time>2022-08-29T04:27:23Z</time>
      </trkpt>
      <trkpt lat="42.4283280" lon="-2.5719680">
        <ele>511.8</ele>
        <time>2022-08-29T04:27:24Z</time>
      </trkpt>
      <trkpt lat="42.4283070" lon="-2.5720130">
        <ele>512.0</ele>
        <time>2022-08-29T04:27:25Z</time>
      </trkpt>
      <trkpt lat="42.4282860" lon="-2.5720600">
        <ele>512.0</ele>
        <time>2022-08-29T04:27:26Z</time>
      </trkpt>
      <trkpt lat="42.4282630" lon="-2.5721060">
        <ele>512.0</ele>
        <time>2022-08-29T04:27:27Z</time>
      </trkpt>
      <trkpt lat="42.4282400" lon="-2.5721530">
        <ele>512.0</ele>
        <time>2022-08-29T04:27:28Z</time>
      </trkpt>
      <trkpt lat="42.4282160" lon="-2.5722010">
        <ele>512.0</ele>
        <time>2022-08-29T04:27:29Z</time>
      </trkpt>
      <trkpt lat="42.4281920" lon="-2.5722480">
        <ele>512.0</ele>
        <time>2022-08-29T04:27:30Z</time>
      </trkpt>
      <trkpt lat="42.4281680" lon="-2.5722960">
        <ele>512.4</ele>
        <time>2022-08-29T04:27:31Z</time>
      </trkpt>
      <trkpt lat="42.4281440" lon="-2.5723440">
        <ele>512.4</ele>
        <time>2022-08-29T04:27:32Z</time>
      </trkpt>
      <trkpt lat="42.4281200" lon="-2.5723930">
        <ele>512.4</ele>
        <time>2022-08-29T04:27:33Z</time>
      </trkpt>
      <trkpt lat="42.4280970" lon="-2.5724420">
        <ele>512.4</ele>
        <time>2022-08-29T04:27:34Z</time>
      </trkpt>
      <trkpt lat="42.4280730" lon="-2.5724910">
        <ele>512.6</ele>
        <time>2022-08-29T04:27:35Z</time>
      </trkpt>
      <trkpt lat="42.4280500" lon="-2.5725400">
        <ele>512.6</ele>
        <time>2022-08-29T04:27:36Z</time>
      </trkpt>
      <trkpt lat="42.4280270" lon="-2.5725900">
        <ele>512.6</ele>
        <time>2022-08-29T04:27:37Z</time>
      </trkpt>
      <trkpt lat="42.4280050" lon="-2.5726380">
        <ele>512.6</ele>
        <time>2022-08-29T04:27:38Z</time>
      </trkpt>
      <trkpt lat="42.4279830" lon="-2.5726860">
        <ele>512.6</ele>
        <time>2022-08-29T04:27:39Z</time>
      </trkpt>
      <trkpt lat="42.4279610" lon="-2.5727330">
        <ele>512.6</ele>
        <time>2022-08-29T04:27:40Z</time>
      </trkpt>
      <trkpt lat="42.4279380" lon="-2.5727800">
        <ele>512.6</ele>
        <time>2022-08-29T04:27:41Z</time>
      </trkpt>
      <trkpt lat="42.4279150" lon="-2.5728280">
        <ele>512.6</ele>
        <time>2022-08-29T04:27:42Z</time>
      </trkpt>
      <trkpt lat="42.4278930" lon="-2.5728760">
        <ele>512.8</ele>
        <time>2022-08-29T04:27:43Z</time>
      </trkpt>
      <trkpt lat="42.4278700" lon="-2.5729250">
        <ele>512.8</ele>
        <time>2022-08-29T04:27:44Z</time>
      </trkpt>
      <trkpt lat="42.4278470" lon="-2.5729720">
        <ele>512.8</ele>
        <time>2022-08-29T04:27:45Z</time>
      </trkpt>
      <trkpt lat="42.4278250" lon="-2.5730180">
        <ele>512.8</ele>
        <time>2022-08-29T04:27:46Z</time>
      </trkpt>
      <trkpt lat="42.4278030" lon="-2.5730630">
        <ele>512.8</ele>
        <time>2022-08-29T04:27:47Z</time>
      </trkpt>
      <trkpt lat="42.4277810" lon="-2.5731070">
        <ele>512.8</ele>
        <time>2022-08-29T04:27:48Z</time>
      </trkpt>
      <trkpt lat="42.4277600" lon="-2.5731490">
        <ele>513.0</ele>
        <time>2022-08-29T04:27:49Z</time>
      </trkpt>
      <trkpt lat="42.4277410" lon="-2.5731900">
        <ele>513.2</ele>
        <time>2022-08-29T04:27:50Z</time>
      </trkpt>
      <trkpt lat="42.4277230" lon="-2.5732270">
        <ele>513.2</ele>
        <time>2022-08-29T04:27:51Z</time>
      </trkpt>
      <trkpt lat="42.4277040" lon="-2.5732590">
        <ele>513.2</ele>
        <time>2022-08-29T04:27:52Z</time>
      </trkpt>
      <trkpt lat="42.4276880" lon="-2.5732930">
        <ele>513.2</ele>
        <time>2022-08-29T04:27:53Z</time>
      </trkpt>
      <trkpt lat="42.4276730" lon="-2.5733300">
        <ele>513.2</ele>
        <time>2022-08-29T04:27:54Z</time>
      </trkpt>
      <trkpt lat="42.4276580" lon="-2.5733650">
        <ele>513.4</ele>
        <time>2022-08-29T04:27:55Z</time>
      </trkpt>
      <trkpt lat="42.4276410" lon="-2.5733990">
        <ele>513.4</ele>
        <time>2022-08-29T04:27:56Z</time>
      </trkpt>
      <trkpt lat="42.4276230" lon="-2.5734300">
        <ele>513.4</ele>
        <time>2022-08-29T04:27:57Z</time>
      </trkpt>
      <trkpt lat="42.4276070" lon="-2.5734630">
        <ele>513.6</ele>
        <time>2022-08-29T04:27:58Z</time>
      </trkpt>
      <trkpt lat="42.4275910" lon="-2.5734990">
        <ele>513.6</ele>
        <time>2022-08-29T04:27:59Z</time>
      </trkpt>
      <trkpt lat="42.4275750" lon="-2.5735340">
        <ele>514.0</ele>
        <time>2022-08-29T04:28:00Z</time>
      </trkpt>
      <trkpt lat="42.4275570" lon="-2.5735680">
        <ele>514.2</ele>
        <time>2022-08-29T04:28:01Z</time>
      </trkpt>
      <trkpt lat="42.4275360" lon="-2.5735970">
        <ele>514.4</ele>
        <time>2022-08-29T04:28:02Z</time>
      </trkpt>
      <trkpt lat="42.4275180" lon="-2.5736290">
        <ele>514.4</ele>
        <time>2022-08-29T04:28:03Z</time>
      </trkpt>
      <trkpt lat="42.4275030" lon="-2.5736670">
        <ele>514.4</ele>
        <time>2022-08-29T04:28:04Z</time>
      </trkpt>
      <trkpt lat="42.4274870" lon="-2.5737060">
        <ele>514.6</ele>
        <time>2022-08-29T04:28:05Z</time>
      </trkpt>
      <trkpt lat="42.4274650" lon="-2.5737390">
        <ele>514.6</ele>
        <time>2022-08-29T04:28:06Z</time>
      </trkpt>
      <trkpt lat="42.4274380" lon="-2.5737620">
        <ele>514.6</ele>
        <time>2022-08-29T04:28:07Z</time>
      </trkpt>
      <trkpt lat="42.4274090" lon="-2.5737760">
        <ele>514.8</ele>
        <time>2022-08-29T04:28:08Z</time>
      </trkpt>
      <trkpt lat="42.4273800" lon="-2.5737910">
        <ele>514.8</ele>
        <time>2022-08-29T04:28:09Z</time>
      </trkpt>
      <trkpt lat="42.4273520" lon="-2.5738100">
        <ele>514.8</ele>
        <time>2022-08-29T04:28:10Z</time>
      </trkpt>
      <trkpt lat="42.4273240" lon="-2.5738320">
        <ele>515.0</ele>
        <time>2022-08-29T04:28:11Z</time>
      </trkpt>
      <trkpt lat="42.4272950" lon="-2.5738600">
        <ele>515.0</ele>
        <time>2022-08-29T04:28:12Z</time>
      </trkpt>
      <trkpt lat="42.4272700" lon="-2.5738920">
        <ele>515.0</ele>
        <time>2022-08-29T04:28:13Z</time>
      </trkpt>
      <trkpt lat="42.4272450" lon="-2.5739260">
        <ele>515.0</ele>
        <time>2022-08-29T04:28:14Z</time>
      </trkpt>
      <trkpt lat="42.4272240" lon="-2.5739640">
        <ele>515.0</ele>
        <time>2022-08-29T04:28:15Z</time>
      </trkpt>
      <trkpt lat="42.4272050" lon="-2.5740050">
        <ele>515.0</ele>
        <time>2022-08-29T04:28:16Z</time>
      </trkpt>
      <trkpt lat="42.4271880" lon="-2.5740480">
        <ele>515.2</ele>
        <time>2022-08-29T04:28:17Z</time>
      </trkpt>
      <trkpt lat="42.4271690" lon="-2.5740920">
        <ele>515.2</ele>
        <time>2022-08-29T04:28:18Z</time>
      </trkpt>
      <trkpt lat="42.4271500" lon="-2.5741390">
        <ele>515.4</ele>
        <time>2022-08-29T04:28:19Z</time>
      </trkpt>
      <trkpt lat="42.4271290" lon="-2.5741860">
        <ele>515.6</ele>
        <time>2022-08-29T04:28:20Z</time>
      </trkpt>
      <trkpt lat="42.4271070" lon="-2.5742330">
        <ele>515.6</ele>
        <time>2022-08-29T04:28:21Z</time>
      </trkpt>
      <trkpt lat="42.4270850" lon="-2.5742780">
        <ele>515.6</ele>
        <time>2022-08-29T04:28:22Z</time>
      </trkpt>
      <trkpt lat="42.4270640" lon="-2.5743220">
        <ele>515.8</ele>
        <time>2022-08-29T04:28:23Z</time>
      </trkpt>
      <trkpt lat="42.4270450" lon="-2.5743660">
        <ele>515.8</ele>
        <time>2022-08-29T04:28:24Z</time>
      </trkpt>
      <trkpt lat="42.4270260" lon="-2.5744100">
        <ele>516.0</ele>
        <time>2022-08-29T04:28:25Z</time>
      </trkpt>
      <trkpt lat="42.4270070" lon="-2.5744520">
        <ele>516.0</ele>
        <time>2022-08-29T04:28:26Z</time>
      </trkpt>
      <trkpt lat="42.4269860" lon="-2.5744930">
        <ele>516.2</ele>
        <time>2022-08-29T04:28:27Z</time>
      </trkpt>
      <trkpt lat="42.4269670" lon="-2.5745340">
        <ele>516.4</ele>
        <time>2022-08-29T04:28:28Z</time>
      </trkpt>
      <trkpt lat="42.4269490" lon="-2.5745750">
        <ele>516.6</ele>
        <time>2022-08-29T04:28:29Z</time>
      </trkpt>
      <trkpt lat="42.4269310" lon="-2.5746170">
        <ele>516.6</ele>
        <time>2022-08-29T04:28:30Z</time>
      </trkpt>
      <trkpt lat="42.4269130" lon="-2.5746570">
        <ele>516.8</ele>
        <time>2022-08-29T04:28:31Z</time>
      </trkpt>
      <trkpt lat="42.4268940" lon="-2.5746950">
        <ele>517.0</ele>
        <time>2022-08-29T04:28:32Z</time>
      </trkpt>
      <trkpt lat="42.4268740" lon="-2.5747320">
        <ele>517.0</ele>
        <time>2022-08-29T04:28:33Z</time>
      </trkpt>
      <trkpt lat="42.4268560" lon="-2.5747700">
        <ele>517.0</ele>
        <time>2022-08-29T04:28:34Z</time>
      </trkpt>
      <trkpt lat="42.4268380" lon="-2.5748090">
        <ele>517.2</ele>
        <time>2022-08-29T04:28:35Z</time>
      </trkpt>
      <trkpt lat="42.4268210" lon="-2.5748490">
        <ele>517.2</ele>
        <time>2022-08-29T04:28:36Z</time>
      </trkpt>
      <trkpt lat="42.4268030" lon="-2.5748890">
        <ele>517.2</ele>
        <time>2022-08-29T04:28:37Z</time>
      </trkpt>
      <trkpt lat="42.4267850" lon="-2.5749280">
        <ele>517.2</ele>
        <time>2022-08-29T04:28:38Z</time>
      </trkpt>
      <trkpt lat="42.4267670" lon="-2.5749660">
        <ele>517.6</ele>
        <time>2022-08-29T04:28:39Z</time>
      </trkpt>
      <trkpt lat="42.4267500" lon="-2.5750040">
        <ele>517.8</ele>
        <time>2022-08-29T04:28:40Z</time>
      </trkpt>
      <trkpt lat="42.4267320" lon="-2.5750430">
        <ele>518.0</ele>
        <time>2022-08-29T04:28:41Z</time>
      </trkpt>
      <trkpt lat="42.4267130" lon="-2.5750810">
        <ele>518.0</ele>
        <time>2022-08-29T04:28:42Z</time>
      </trkpt>
      <trkpt lat="42.4266970" lon="-2.5751210">
        <ele>518.0</ele>
        <time>2022-08-29T04:28:43Z</time>
      </trkpt>
      <trkpt lat="42.4266810" lon="-2.5751620">
        <ele>518.0</ele>
        <time>2022-08-29T04:28:44Z</time>
      </trkpt>
      <trkpt lat="42.4266630" lon="-2.5752030">
        <ele>518.4</ele>
        <time>2022-08-29T04:28:45Z</time>
      </trkpt>
      <trkpt lat="42.4266460" lon="-2.5752420">
        <ele>518.6</ele>
        <time>2022-08-29T04:28:46Z</time>
      </trkpt>
      <trkpt lat="42.4266280" lon="-2.5752800">
        <ele>518.6</ele>
        <time>2022-08-29T04:28:47Z</time>
      </trkpt>
      <trkpt lat="42.4266090" lon="-2.5753200">
        <ele>518.8</ele>
        <time>2022-08-29T04:28:48Z</time>
      </trkpt>
      <trkpt lat="42.4265910" lon="-2.5753610">
        <ele>518.8</ele>
        <time>2022-08-29T04:28:49Z</time>
      </trkpt>
      <trkpt lat="42.4265730" lon="-2.5754020">
        <ele>518.8</ele>
        <time>2022-08-29T04:28:50Z</time>
      </trkpt>
      <trkpt lat="42.4265560" lon="-2.5754420">
        <ele>519.0</ele>
        <time>2022-08-29T04:28:51Z</time>
      </trkpt>
      <trkpt lat="42.4265380" lon="-2.5754820">
        <ele>519.0</ele>
        <time>2022-08-29T04:28:52Z</time>
      </trkpt>
      <trkpt lat="42.4265210" lon="-2.5755210">
        <ele>519.0</ele>
        <time>2022-08-29T04:28:53Z</time>
      </trkpt>
      <trkpt lat="42.4265040" lon="-2.5755610">
        <ele>519.0</ele>
        <time>2022-08-29T04:28:54Z</time>
      </trkpt>
      <trkpt lat="42.4264850" lon="-2.5756010">
        <ele>519.4</ele>
        <time>2022-08-29T04:28:55Z</time>
      </trkpt>
      <trkpt lat="42.4264670" lon="-2.5756430">
        <ele>519.4</ele>
        <time>2022-08-29T04:28:56Z</time>
      </trkpt>
      <trkpt lat="42.4264490" lon="-2.5756830">
        <ele>519.6</ele>
        <time>2022-08-29T04:28:57Z</time>
      </trkpt>
      <trkpt lat="42.4264310" lon="-2.5757250">
        <ele>519.6</ele>
        <time>2022-08-29T04:28:58Z</time>
      </trkpt>
      <trkpt lat="42.4264120" lon="-2.5757680">
        <ele>519.6</ele>
        <time>2022-08-29T04:28:59Z</time>
      </trkpt>
      <trkpt lat="42.4263920" lon="-2.5758110">
        <ele>519.8</ele>
        <time>2022-08-29T04:29:00Z</time>
      </trkpt>
      <trkpt lat="42.4263720" lon="-2.5758560">
        <ele>520.0</ele>
        <time>2022-08-29T04:29:01Z</time>
      </trkpt>
      <trkpt lat="42.4263520" lon="-2.5759010">
        <ele>520.0</ele>
        <time>2022-08-29T04:29:02Z</time>
      </trkpt>
      <trkpt lat="42.4263340" lon="-2.5759460">
        <ele>520.2</ele>
        <time>2022-08-29T04:29:03Z</time>
      </trkpt>
      <trkpt lat="42.4263140" lon="-2.5759900">
        <ele>520.4</ele>
        <time>2022-08-29T04:29:04Z</time>
      </trkpt>
      <trkpt lat="42.4262940" lon="-2.5760330">
        <ele>520.4</ele>
        <time>2022-08-29T04:29:05Z</time>
      </trkpt>
      <trkpt lat="42.4262740" lon="-2.5760760">
        <ele>520.4</ele>
        <time>2022-08-29T04:29:06Z</time>
      </trkpt>
      <trkpt lat="42.4262540" lon="-2.5761190">
        <ele>520.6</ele>
        <time>2022-08-29T04:29:07Z</time>
      </trkpt>
      <trkpt lat="42.4262340" lon="-2.5761610">
        <ele>520.6</ele>
        <time>2022-08-29T04:29:08Z</time>
      </trkpt>
      <trkpt lat="42.4262150" lon="-2.5762020">
        <ele>520.6</ele>
        <time>2022-08-29T04:29:09Z</time>
      </trkpt>
      <trkpt lat="42.4261970" lon="-2.5762440">
        <ele>520.8</ele>
        <time>2022-08-29T04:29:10Z</time>
      </trkpt>
      <trkpt lat="42.4261790" lon="-2.5762870">
        <ele>521.0</ele>
        <time>2022-08-29T04:29:11Z</time>
      </trkpt>
      <trkpt lat="42.4261610" lon="-2.5763300">
        <ele>520.8</ele>
        <time>2022-08-29T04:29:12Z</time>
      </trkpt>
      <trkpt lat="42.4261420" lon="-2.5763740">
        <ele>520.8</ele>
        <time>2022-08-29T04:29:13Z</time>
      </trkpt>
      <trkpt lat="42.4261230" lon="-2.5764180">
        <ele>521.0</ele>
        <time>2022-08-29T04:29:14Z</time>
      </trkpt>
      <trkpt lat="42.4261040" lon="-2.5764600">
        <ele>521.2</ele>
        <time>2022-08-29T04:29:15Z</time>
      </trkpt>
      <trkpt lat="42.4260860" lon="-2.5765020">
        <ele>521.0</ele>
        <time>2022-08-29T04:29:16Z</time>
      </trkpt>
      <trkpt lat="42.4260700" lon="-2.5765430">
        <ele>521.4</ele>
        <time>2022-08-29T04:29:17Z</time>
      </trkpt>
      <trkpt lat="42.4260540" lon="-2.5765840">
        <ele>521.6</ele>
        <time>2022-08-29T04:29:18Z</time>
      </trkpt>
      <trkpt lat="42.4260370" lon="-2.5766230">
        <ele>521.6</ele>
        <time>2022-08-29T04:29:19Z</time>
      </trkpt>
      <trkpt lat="42.4260200" lon="-2.5766640">
        <ele>521.6</ele>
        <time>2022-08-29T04:29:20Z</time>
      </trkpt>
      <trkpt lat="42.4260010" lon="-2.5767060">
        <ele>521.8</ele>
        <time>2022-08-29T04:29:21Z</time>
      </trkpt>
      <trkpt lat="42.4259820" lon="-2.5767480">
        <ele>521.8</ele>
        <time>2022-08-29T04:29:22Z</time>
      </trkpt>
      <trkpt lat="42.4259630" lon="-2.5767900">
        <ele>521.8</ele>
        <time>2022-08-29T04:29:23Z</time>
      </trkpt>
      <trkpt lat="42.4259440" lon="-2.5768310">
        <ele>522.0</ele>
        <time>2022-08-29T04:29:24Z</time>
      </trkpt>
      <trkpt lat="42.4259240" lon="-2.5768700">
        <ele>522.2</ele>
        <time>2022-08-29T04:29:25Z</time>
      </trkpt>
      <trkpt lat="42.4259030" lon="-2.5769090">
        <ele>522.0</ele>
        <time>2022-08-29T04:29:26Z</time>
      </trkpt>
      <trkpt lat="42.4258780" lon="-2.5769450">
        <ele>522.4</ele>
        <time>2022-08-29T04:29:27Z</time>
      </trkpt>
      <trkpt lat="42.4258520" lon="-2.5769790">
        <ele>522.4</ele>
        <time>2022-08-29T04:29:28Z</time>
      </trkpt>
      <trkpt lat="42.4258260" lon="-2.5770120">
        <ele>522.4</ele>
        <time>2022-08-29T04:29:29Z</time>
      </trkpt>
      <trkpt lat="42.4258000" lon="-2.5770440">
        <ele>522.6</ele>
        <time>2022-08-29T04:29:30Z</time>
      </trkpt>
      <trkpt lat="42.4257710" lon="-2.5770740">
        <ele>522.6</ele>
        <time>2022-08-29T04:29:31Z</time>
      </trkpt>
      <trkpt lat="42.4257400" lon="-2.5771040">
        <ele>522.8</ele>
        <time>2022-08-29T04:29:32Z</time>
      </trkpt>
      <trkpt lat="42.4257140" lon="-2.5771350">
        <ele>523.0</ele>
        <time>2022-08-29T04:29:33Z</time>
      </trkpt>
      <trkpt lat="42.4256880" lon="-2.5771690">
        <ele>523.0</ele>
        <time>2022-08-29T04:29:34Z</time>
      </trkpt>
      <trkpt lat="42.4256650" lon="-2.5772040">
        <ele>523.0</ele>
        <time>2022-08-29T04:29:35Z</time>
      </trkpt>
      <trkpt lat="42.4256420" lon="-2.5772390">
        <ele>523.2</ele>
        <time>2022-08-29T04:29:36Z</time>
      </trkpt>
      <trkpt lat="42.4256180" lon="-2.5772720">
        <ele>523.2</ele>
        <time>2022-08-29T04:29:37Z</time>
      </trkpt>
      <trkpt lat="42.4255940" lon="-2.5773060">
        <ele>523.4</ele>
        <time>2022-08-29T04:29:38Z</time>
      </trkpt>
      <trkpt lat="42.4255690" lon="-2.5773390">
        <ele>523.6</ele>
        <time>2022-08-29T04:29:39Z</time>
      </trkpt>
      <trkpt lat="42.4255460" lon="-2.5773730">
        <ele>523.8</ele>
        <time>2022-08-29T04:29:40Z</time>
      </trkpt>
      <trkpt lat="42.4255230" lon="-2.5774060">
        <ele>523.8</ele>
        <time>2022-08-29T04:29:41Z</time>
      </trkpt>
      <trkpt lat="42.4254960" lon="-2.5774360">
        <ele>524.0</ele>
        <time>2022-08-29T04:29:42Z</time>
      </trkpt>
      <trkpt lat="42.4254690" lon="-2.5774640">
        <ele>524.0</ele>
        <time>2022-08-29T04:29:43Z</time>
      </trkpt>
      <trkpt lat="42.4254420" lon="-2.5774880">
        <ele>524.0</ele>
        <time>2022-08-29T04:29:44Z</time>
      </trkpt>
      <trkpt lat="42.4254140" lon="-2.5775110">
        <ele>524.0</ele>
        <time>2022-08-29T04:29:45Z</time>
      </trkpt>
      <trkpt lat="42.4253900" lon="-2.5775340">
        <ele>524.2</ele>
        <time>2022-08-29T04:29:46Z</time>
      </trkpt>
      <trkpt lat="42.4253670" lon="-2.5775560">
        <ele>524.2</ele>
        <time>2022-08-29T04:29:47Z</time>
      </trkpt>
      <trkpt lat="42.4253450" lon="-2.5775800">
        <ele>524.2</ele>
        <time>2022-08-29T04:29:48Z</time>
      </trkpt>
      <trkpt lat="42.4253200" lon="-2.5776000">
        <ele>524.2</ele>
        <time>2022-08-29T04:29:49Z</time>
      </trkpt>
      <trkpt lat="42.4252960" lon="-2.5776220">
        <ele>524.2</ele>
        <time>2022-08-29T04:29:50Z</time>
      </trkpt>
      <trkpt lat="42.4252730" lon="-2.5776450">
        <ele>524.2</ele>
        <time>2022-08-29T04:29:51Z</time>
      </trkpt>
      <trkpt lat="42.4252500" lon="-2.5776670">
        <ele>524.4</ele>
        <time>2022-08-29T04:29:52Z</time>
      </trkpt>
      <trkpt lat="42.4252270" lon="-2.5776890">
        <ele>524.4</ele>
        <time>2022-08-29T04:29:53Z</time>
      </trkpt>
      <trkpt lat="42.4252010" lon="-2.5777080">
        <ele>524.4</ele>
        <time>2022-08-29T04:29:54Z</time>
      </trkpt>
      <trkpt lat="42.4251760" lon="-2.5777280">
        <ele>524.6</ele>
        <time>2022-08-29T04:29:55Z</time>
      </trkpt>
      <trkpt lat="42.4251510" lon="-2.5777480">
        <ele>525.0</ele>
        <time>2022-08-29T04:29:56Z</time>
      </trkpt>
      <trkpt lat="42.4251270" lon="-2.5777680">
        <ele>525.0</ele>
        <time>2022-08-29T04:29:57Z</time>
      </trkpt>
      <trkpt lat="42.4251040" lon="-2.5777900">
        <ele>525.2</ele>
        <time>2022-08-29T04:29:58Z</time>
      </trkpt>
      <trkpt lat="42.4250810" lon="-2.5778110">
        <ele>525.4</ele>
        <time>2022-08-29T04:29:59Z</time>
      </trkpt>
      <trkpt lat="42.4250570" lon="-2.5778320">
        <ele>525.4</ele>
        <time>2022-08-29T04:30:00Z</time>
      </trkpt>
      <trkpt lat="42.4250350" lon="-2.5778540">
        <ele>525.6</ele>
        <time>2022-08-29T04:30:01Z</time>
      </trkpt>
      <trkpt lat="42.4250100" lon="-2.5778770">
        <ele>526.0</ele>
        <time>2022-08-29T04:30:02Z</time>
      </trkpt>
      <trkpt lat="42.4249850" lon="-2.5779010">
        <ele>525.8</ele>
        <time>2022-08-29T04:30:03Z</time>
      </trkpt>
      <trkpt lat="42.4249590" lon="-2.5779260">
        <ele>526.2</ele>
        <time>2022-08-29T04:30:04Z</time>
      </trkpt>
      <trkpt lat="42.4249360" lon="-2.5779530">
        <ele>526.2</ele>
        <time>2022-08-29T04:30:05Z</time>
      </trkpt>
      <trkpt lat="42.4249120" lon="-2.5779770">
        <ele>526.2</ele>
        <time>2022-08-29T04:30:06Z</time>
      </trkpt>
      <trkpt lat="42.4248890" lon="-2.5780020">
        <ele>526.8</ele>
        <time>2022-08-29T04:30:07Z</time>
      </trkpt>
      <trkpt lat="42.4248660" lon="-2.5780290">
        <ele>526.8</ele>
        <time>2022-08-29T04:30:08Z</time>
      </trkpt>
      <trkpt lat="42.4248430" lon="-2.5780550">
        <ele>527.0</ele>
        <time>2022-08-29T04:30:09Z</time>
      </trkpt>
      <trkpt lat="42.4248200" lon="-2.5780810">
        <ele>527.0</ele>
        <time>2022-08-29T04:30:10Z</time>
      </trkpt>
      <trkpt lat="42.4247980" lon="-2.5781070">
        <ele>527.0</ele>
        <time>2022-08-29T04:30:11Z</time>
      </trkpt>
      <trkpt lat="42.4247770" lon="-2.5781350">
        <ele>527.2</ele>
        <time>2022-08-29T04:30:12Z</time>
      </trkpt>
      <trkpt lat="42.4247560" lon="-2.5781630">
        <ele>527.2</ele>
        <time>2022-08-29T04:30:13Z</time>
      </trkpt>
      <trkpt lat="42.4247350" lon="-2.5781920">
        <ele>527.2</ele>
        <time>2022-08-29T04:30:14Z</time>
      </trkpt>
      <trkpt lat="42.4247130" lon="-2.5782220">
        <ele>527.6</ele>
        <time>2022-08-29T04:30:15Z</time>
      </trkpt>
      <trkpt lat="42.4246890" lon="-2.5782490">
        <ele>527.6</ele>
        <time>2022-08-29T04:30:16Z</time>
      </trkpt>
      <trkpt lat="42.4246630" lon="-2.5782710">
        <ele>527.8</ele>
        <time>2022-08-29T04:30:17Z</time>
      </trkpt>
      <trkpt lat="42.4246380" lon="-2.5782920">
        <ele>527.8</ele>
        <time>2022-08-29T04:30:18Z</time>
      </trkpt>
      <trkpt lat="42.4246120" lon="-2.5783110">
        <ele>527.8</ele>
        <time>2022-08-29T04:30:19Z</time>
      </trkpt>
      <trkpt lat="42.4245850" lon="-2.5783300">
        <ele>528.0</ele>
        <time>2022-08-29T04:30:20Z</time>
      </trkpt>
      <trkpt lat="42.4245570" lon="-2.5783480">
        <ele>528.2</ele>
        <time>2022-08-29T04:30:21Z</time>
      </trkpt>
      <trkpt lat="42.4245310" lon="-2.5783650">
        <ele>528.2</ele>
        <time>2022-08-29T04:30:22Z</time>
      </trkpt>
      <trkpt lat="42.4245040" lon="-2.5783790">
        <ele>528.2</ele>
        <time>2022-08-29T04:30:23Z</time>
      </trkpt>
      <trkpt lat="42.4244780" lon="-2.5783930">
        <ele>528.2</ele>
        <time>2022-08-29T04:30:24Z</time>
      </trkpt>
      <trkpt lat="42.4244500" lon="-2.5784070">
        <ele>528.2</ele>
        <time>2022-08-29T04:30:25Z</time>
      </trkpt>
      <trkpt lat="42.4244220" lon="-2.5784220">
        <ele>528.2</ele>
        <time>2022-08-29T04:30:26Z</time>
      </trkpt>
      <trkpt lat="42.4243940" lon="-2.5784370">
        <ele>528.4</ele>
        <time>2022-08-29T04:30:27Z</time>
      </trkpt>
      <trkpt lat="42.4243650" lon="-2.5784540">
        <ele>528.4</ele>
        <time>2022-08-29T04:30:28Z</time>
      </trkpt>
      <trkpt lat="42.4243380" lon="-2.5784710">
        <ele>529.0</ele>
        <time>2022-08-29T04:30:29Z</time>
      </trkpt>
      <trkpt lat="42.4243110" lon="-2.5784870">
        <ele>529.2</ele>
        <time>2022-08-29T04:30:30Z</time>
      </trkpt>
      <trkpt lat="42.4242840" lon="-2.5785040">
        <ele>529.4</ele>
        <time>2022-08-29T04:30:31Z</time>
      </trkpt>
      <trkpt lat="42.4242580" lon="-2.5785210">
        <ele>529.6</ele>
        <time>2022-08-29T04:30:32Z</time>
      </trkpt>
      <trkpt lat="42.4242300" lon="-2.5785370">
        <ele>529.8</ele>
        <time>2022-08-29T04:30:33Z</time>
      </trkpt>
      <trkpt lat="42.4242020" lon="-2.5785520">
        <ele>529.8</ele>
        <time>2022-08-29T04:30:34Z</time>
      </trkpt>
      <trkpt lat="42.4241740" lon="-2.5785670">
        <ele>529.8</ele>
        <time>2022-08-29T04:30:35Z</time>
      </trkpt>
      <trkpt lat="42.4241480" lon="-2.5785840">
        <ele>530.0</ele>
        <time>2022-08-29T04:30:36Z</time>
      </trkpt>
      <trkpt lat="42.4241220" lon="-2.5786010">
        <ele>529.8</ele>
        <time>2022-08-29T04:30:37Z</time>
      </trkpt>
      <trkpt lat="42.4240960" lon="-2.5786170">
        <ele>530.0</ele>
        <time>2022-08-29T04:30:38Z</time>
      </trkpt>
      <trkpt lat="42.4240700" lon="-2.5786330">
        <ele>530.2</ele>
        <time>2022-08-29T04:30:39Z</time>
      </trkpt>
      <trkpt lat="42.4240450" lon="-2.5786510">
        <ele>530.2</ele>
        <time>2022-08-29T04:30:40Z</time>
      </trkpt>
      <trkpt lat="42.4240220" lon="-2.5786710">
        <ele>530.2</ele>
        <time>2022-08-29T04:30:41Z</time>
      </trkpt>
      <trkpt lat="42.4239970" lon="-2.5786890">
        <ele>530.4</ele>
        <time>2022-08-29T04:30:42Z</time>
      </trkpt>
      <trkpt lat="42.4239730" lon="-2.5787070">
        <ele>530.6</ele>
        <time>2022-08-29T04:30:43Z</time>
      </trkpt>
      <trkpt lat="42.4239490" lon="-2.5787260">
        <ele>530.6</ele>
        <time>2022-08-29T04:30:44Z</time>
      </trkpt>
      <trkpt lat="42.4239240" lon="-2.5787450">
        <ele>530.6</ele>
        <time>2022-08-29T04:30:45Z</time>
      </trkpt>
      <trkpt lat="42.4238980" lon="-2.5787620">
        <ele>530.6</ele>
        <time>2022-08-29T04:30:46Z</time>
      </trkpt>
      <trkpt lat="42.4238720" lon="-2.5787790">
        <ele>530.8</ele>
        <time>2022-08-29T04:30:47Z</time>
      </trkpt>
      <trkpt lat="42.4238450" lon="-2.5787980">
        <ele>531.0</ele>
        <time>2022-08-29T04:30:48Z</time>
      </trkpt>
      <trkpt lat="42.4238190" lon="-2.5788170">
        <ele>531.2</ele>
        <time>2022-08-29T04:30:49Z</time>
      </trkpt>
      <trkpt lat="42.4237940" lon="-2.5788350">
        <ele>531.2</ele>
        <time>2022-08-29T04:30:50Z</time>
      </trkpt>
      <trkpt lat="42.4237680" lon="-2.5788530">
        <ele>531.4</ele>
        <time>2022-08-29T04:30:51Z</time>
      </trkpt>
      <trkpt lat="42.4237430" lon="-2.5788700">
        <ele>531.8</ele>
        <time>2022-08-29T04:30:52Z</time>
      </trkpt>
      <trkpt lat="42.4237180" lon="-2.5788870">
        <ele>532.0</ele>
        <time>2022-08-29T04:30:53Z</time>
      </trkpt>
      <trkpt lat="42.4236920" lon="-2.5789040">
        <ele>532.0</ele>
        <time>2022-08-29T04:30:54Z</time>
      </trkpt>
      <trkpt lat="42.4236660" lon="-2.5789210">
        <ele>532.2</ele>
        <time>2022-08-29T04:30:55Z</time>
      </trkpt>
      <trkpt lat="42.4236410" lon="-2.5789370">
        <ele>532.2</ele>
        <time>2022-08-29T04:30:56Z</time>
      </trkpt>
      <trkpt lat="42.4236160" lon="-2.5789530">
        <ele>532.4</ele>
        <time>2022-08-29T04:30:57Z</time>
      </trkpt>
      <trkpt lat="42.4235900" lon="-2.5789700">
        <ele>532.4</ele>
        <time>2022-08-29T04:30:58Z</time>
      </trkpt>
      <trkpt lat="42.4235650" lon="-2.5789870">
        <ele>532.4</ele>
        <time>2022-08-29T04:30:59Z</time>
      </trkpt>
      <trkpt lat="42.4235410" lon="-2.5790040">
        <ele>532.8</ele>
        <time>2022-08-29T04:31:00Z</time>
      </trkpt>
      <trkpt lat="42.4235170" lon="-2.5790220">
        <ele>532.8</ele>
        <time>2022-08-29T04:31:01Z</time>
      </trkpt>
      <trkpt lat="42.4234920" lon="-2.5790400">
        <ele>532.8</ele>
        <time>2022-08-29T04:31:02Z</time>
      </trkpt>
      <trkpt lat="42.4234680" lon="-2.5790600">
        <ele>533.0</ele>
        <time>2022-08-29T04:31:03Z</time>
      </trkpt>
      <trkpt lat="42.4234430" lon="-2.5790800">
        <ele>533.0</ele>
        <time>2022-08-29T04:31:04Z</time>
      </trkpt>
      <trkpt lat="42.4234170" lon="-2.5790980">
        <ele>533.2</ele>
        <time>2022-08-29T04:31:05Z</time>
      </trkpt>
      <trkpt lat="42.4233930" lon="-2.5791180">
        <ele>533.2</ele>
        <time>2022-08-29T04:31:06Z</time>
      </trkpt>
      <trkpt lat="42.4233670" lon="-2.5791370">
        <ele>533.2</ele>
        <time>2022-08-29T04:31:07Z</time>
      </trkpt>
      <trkpt lat="42.4233420" lon="-2.5791580">
        <ele>533.4</ele>
        <time>2022-08-29T04:31:08Z</time>
      </trkpt>
      <trkpt lat="42.4233190" lon="-2.5791780">
        <ele>533.4</ele>
        <time>2022-08-29T04:31:09Z</time>
      </trkpt>
      <trkpt lat="42.4232960" lon="-2.5791990">
        <ele>533.4</ele>
        <time>2022-08-29T04:31:10Z</time>
      </trkpt>
      <trkpt lat="42.4232730" lon="-2.5792170">
        <ele>533.8</ele>
        <time>2022-08-29T04:31:11Z</time>
      </trkpt>
      <trkpt lat="42.4232480" lon="-2.5792360">
        <ele>534.0</ele>
        <time>2022-08-29T04:31:12Z</time>
      </trkpt>
      <trkpt lat="42.4232260" lon="-2.5792570">
        <ele>534.0</ele>
        <time>2022-08-29T04:31:13Z</time>
      </trkpt>
      <trkpt lat="42.4232020" lon="-2.5792770">
        <ele>534.2</ele>
        <time>2022-08-29T04:31:14Z</time>
      </trkpt>
      <trkpt lat="42.4231780" lon="-2.5792970">
        <ele>534.2</ele>
        <time>2022-08-29T04:31:15Z</time>
      </trkpt>
      <trkpt lat="42.4231560" lon="-2.5793180">
        <ele>534.4</ele>
        <time>2022-08-29T04:31:16Z</time>
      </trkpt>
      <trkpt lat="42.4231330" lon="-2.5793420">
        <ele>534.4</ele>
        <time>2022-08-29T04:31:17Z</time>
      </trkpt>
      <trkpt lat="42.4231110" lon="-2.5793660">
        <ele>534.4</ele>
        <time>2022-08-29T04:31:18Z</time>
      </trkpt>
      <trkpt lat="42.4230900" lon="-2.5793890">
        <ele>534.6</ele>
        <time>2022-08-29T04:31:19Z</time>
      </trkpt>
      <trkpt lat="42.4230680" lon="-2.5794090">
        <ele>534.8</ele>
        <time>2022-08-29T04:31:20Z</time>
      </trkpt>
      <trkpt lat="42.4230460" lon="-2.5794290">
        <ele>534.8</ele>
        <time>2022-08-29T04:31:21Z</time>
      </trkpt>
      <trkpt lat="42.4230230" lon="-2.5794490">
        <ele>534.8</ele>
        <time>2022-08-29T04:31:22Z</time>
      </trkpt>
      <trkpt lat="42.4229980" lon="-2.5794710">
        <ele>534.8</ele>
        <time>2022-08-29T04:31:23Z</time>
      </trkpt>
      <trkpt lat="42.4229740" lon="-2.5794930">
        <ele>535.0</ele>
        <time>2022-08-29T04:31:24Z</time>
      </trkpt>
      <trkpt lat="42.4229510" lon="-2.5795130">
        <ele>535.0</ele>
        <time>2022-08-29T04:31:25Z</time>
      </trkpt>
      <trkpt lat="42.4229280" lon="-2.5795320">
        <ele>535.2</ele>
        <time>2022-08-29T04:31:26Z</time>
      </trkpt>
      <trkpt lat="42.4229040" lon="-2.5795490">
        <ele>535.2</ele>
        <time>2022-08-29T04:31:27Z</time>
      </trkpt>
      <trkpt lat="42.4228810" lon="-2.5795640">
        <ele>535.4</ele>
        <time>2022-08-29T04:31:28Z</time>
      </trkpt>
      <trkpt lat="42.4228560" lon="-2.5795760">
        <ele>535.6</ele>
        <time>2022-08-29T04:31:29Z</time>
      </trkpt>
      <trkpt lat="42.4228310" lon="-2.5795880">
        <ele>535.6</ele>
        <time>2022-08-29T04:31:30Z</time>
      </trkpt>
      <trkpt lat="42.4228050" lon="-2.5795990">
        <ele>535.8</ele>
        <time>2022-08-29T04:31:31Z</time>
      </trkpt>
      <trkpt lat="42.4227800" lon="-2.5796090">
        <ele>535.8</ele>
        <time>2022-08-29T04:31:32Z</time>
      </trkpt>
      <trkpt lat="42.4227550" lon="-2.5796170">
        <ele>536.0</ele>
        <time>2022-08-29T04:31:33Z</time>
      </trkpt>
      <trkpt lat="42.4227300" lon="-2.5796250">
        <ele>536.2</ele>
        <time>2022-08-29T04:31:34Z</time>
      </trkpt>
      <trkpt lat="42.4227030" lon="-2.5796340">
        <ele>536.2</ele>
        <time>2022-08-29T04:31:35Z</time>
      </trkpt>
      <trkpt lat="42.4226760" lon="-2.5796450">
        <ele>536.4</ele>
        <time>2022-08-29T04:31:36Z</time>
      </trkpt>
      <trkpt lat="42.4226510" lon="-2.5796580">
        <ele>536.6</ele>
        <time>2022-08-29T04:31:37Z</time>
      </trkpt>
      <trkpt lat="42.4226260" lon="-2.5796730">
        <ele>536.6</ele>
        <time>2022-08-29T04:31:38Z</time>
      </trkpt>
      <trkpt lat="42.4226010" lon="-2.5796860">
        <ele>536.8</ele>
        <time>2022-08-29T04:31:39Z</time>
      </trkpt>
      <trkpt lat="42.4225770" lon="-2.5797000">
        <ele>536.8</ele>
        <time>2022-08-29T04:31:40Z</time>
      </trkpt>
      <trkpt lat="42.4225530" lon="-2.5797140">
        <ele>537.0</ele>
        <time>2022-08-29T04:31:41Z</time>
      </trkpt>
      <trkpt lat="42.4225310" lon="-2.5797270">
        <ele>537.2</ele>
        <time>2022-08-29T04:31:42Z</time>
      </trkpt>
      <trkpt lat="42.4225080" lon="-2.5797390">
        <ele>537.4</ele>
        <time>2022-08-29T04:31:43Z</time>
      </trkpt>
      <trkpt lat="42.4224850" lon="-2.5797540">
        <ele>537.4</ele>
        <time>2022-08-29T04:31:44Z</time>
      </trkpt>
      <trkpt lat="42.4224610" lon="-2.5797690">
        <ele>537.6</ele>
        <time>2022-08-29T04:31:45Z</time>
      </trkpt>
      <trkpt lat="42.4224370" lon="-2.5797880">
        <ele>537.6</ele>
        <time>2022-08-29T04:31:46Z</time>
      </trkpt>
      <trkpt lat="42.4224140" lon="-2.5798070">
        <ele>537.8</ele>
        <time>2022-08-29T04:31:47Z</time>
      </trkpt>
      <trkpt lat="42.4223890" lon="-2.5798240">
        <ele>538.0</ele>
        <time>2022-08-29T04:31:48Z</time>
      </trkpt>
      <trkpt lat="42.4223650" lon="-2.5798400">
        <ele>538.0</ele>
        <time>2022-08-29T04:31:49Z</time>
      </trkpt>
      <trkpt lat="42.4223420" lon="-2.5798590">
        <ele>538.2</ele>
        <time>2022-08-29T04:31:50Z</time>
      </trkpt>
      <trkpt lat="42.4223220" lon="-2.5798780">
        <ele>538.2</ele>
        <time>2022-08-29T04:31:51Z</time>
      </trkpt>
      <trkpt lat="42.4223000" lon="-2.5798990">
        <ele>538.4</ele>
        <time>2022-08-29T04:31:52Z</time>
      </trkpt>
      <trkpt lat="42.4222810" lon="-2.5799200">
        <ele>538.4</ele>
        <time>2022-08-29T04:31:53Z</time>
      </trkpt>
      <trkpt lat="42.4222600" lon="-2.5799390">
        <ele>538.4</ele>
        <time>2022-08-29T04:31:54Z</time>
      </trkpt>
      <trkpt lat="42.4222380" lon="-2.5799590">
        <ele>538.6</ele>
        <time>2022-08-29T04:31:55Z</time>
      </trkpt>
      <trkpt lat="42.4222190" lon="-2.5799820">
        <ele>538.6</ele>
        <time>2022-08-29T04:31:56Z</time>
      </trkpt>
      <trkpt lat="42.4221980" lon="-2.5800050">
        <ele>538.6</ele>
        <time>2022-08-29T04:31:57Z</time>
      </trkpt>
      <trkpt lat="42.4221780" lon="-2.5800290">
        <ele>538.8</ele>
        <time>2022-08-29T04:31:58Z</time>
      </trkpt>
      <trkpt lat="42.4221600" lon="-2.5800520">
        <ele>538.8</ele>
        <time>2022-08-29T04:31:59Z</time>
      </trkpt>
      <trkpt lat="42.4221420" lon="-2.5800760">
        <ele>539.0</ele>
        <time>2022-08-29T04:32:00Z</time>
      </trkpt>
      <trkpt lat="42.4221230" lon="-2.5800980">
        <ele>539.0</ele>
        <time>2022-08-29T04:32:01Z</time>
      </trkpt>
      <trkpt lat="42.4221040" lon="-2.5801200">
        <ele>539.0</ele>
        <time>2022-08-29T04:32:02Z</time>
      </trkpt>
      <trkpt lat="42.4220850" lon="-2.5801440">
        <ele>539.2</ele>
        <time>2022-08-29T04:32:03Z</time>
      </trkpt>
      <trkpt lat="42.4220620" lon="-2.5801680">
        <ele>539.0</ele>
        <time>2022-08-29T04:32:04Z</time>
      </trkpt>
      <trkpt lat="42.4220400" lon="-2.5801920">
        <ele>539.2</ele>
        <time>2022-08-29T04:32:05Z</time>
      </trkpt>
      <trkpt lat="42.4220180" lon="-2.5802160">
        <ele>539.4</ele>
        <time>2022-08-29T04:32:06Z</time>
      </trkpt>
      <trkpt lat="42.4219960" lon="-2.5802380">
        <ele>539.4</ele>
        <time>2022-08-29T04:32:07Z</time>
      </trkpt>
      <trkpt lat="42.4219750" lon="-2.5802570">
        <ele>539.6</ele>
        <time>2022-08-29T04:32:08Z</time>
      </trkpt>
      <trkpt lat="42.4219530" lon="-2.5802770">
        <ele>539.6</ele>
        <time>2022-08-29T04:32:09Z</time>
      </trkpt>
      <trkpt lat="42.4219320" lon="-2.5802960">
        <ele>539.6</ele>
        <time>2022-08-29T04:32:10Z</time>
      </trkpt>
      <trkpt lat="42.4219110" lon="-2.5803150">
        <ele>539.6</ele>
        <time>2022-08-29T04:32:11Z</time>
      </trkpt>
      <trkpt lat="42.4218900" lon="-2.5803370">
        <ele>539.8</ele>
        <time>2022-08-29T04:32:12Z</time>
      </trkpt>
      <trkpt lat="42.4218680" lon="-2.5803580">
        <ele>540.0</ele>
        <time>2022-08-29T04:32:13Z</time>
      </trkpt>
      <trkpt lat="42.4218460" lon="-2.5803800">
        <ele>540.0</ele>
        <time>2022-08-29T04:32:14Z</time>
      </trkpt>
      <trkpt lat="42.4218250" lon="-2.5804010">
        <ele>540.2</ele>
        <time>2022-08-29T04:32:15Z</time>
      </trkpt>
      <trkpt lat="42.4218030" lon="-2.5804220">
        <ele>540.2</ele>
        <time>2022-08-29T04:32:16Z</time>
      </trkpt>
      <trkpt lat="42.4217820" lon="-2.5804450">
        <ele>540.4</ele>
        <time>2022-08-29T04:32:17Z</time>
      </trkpt>
      <trkpt lat="42.4217630" lon="-2.5804690">
        <ele>540.6</ele>
        <time>2022-08-29T04:32:18Z</time>
      </trkpt>
      <trkpt lat="42.4217450" lon="-2.5804940">
        <ele>540.4</ele>
        <time>2022-08-29T04:32:19Z</time>
      </trkpt>
      <trkpt lat="42.4217280" lon="-2.5805210">
        <ele>540.6</ele>
        <time>2022-08-29T04:32:20Z</time>
      </trkpt>
      <trkpt lat="42.4217090" lon="-2.5805490">
        <ele>540.6</ele>
        <time>2022-08-29T04:32:21Z</time>
      </trkpt>
      <trkpt lat="42.4216920" lon="-2.5805770">
        <ele>540.8</ele>
        <time>2022-08-29T04:32:22Z</time>
      </trkpt>
      <trkpt lat="42.4216750" lon="-2.5806050">
        <ele>540.8</ele>
        <time>2022-08-29T04:32:23Z</time>
      </trkpt>
      <trkpt lat="42.4216580" lon="-2.5806330">
        <ele>541.0</ele>
        <time>2022-08-29T04:32:24Z</time>
      </trkpt>
      <trkpt lat="42.4216370" lon="-2.5806590">
        <ele>541.0</ele>
        <time>2022-08-29T04:32:25Z</time>
      </trkpt>
      <trkpt lat="42.4216160" lon="-2.5806860">
        <ele>541.2</ele>
        <time>2022-08-29T04:32:26Z</time>
      </trkpt>
      <trkpt lat="42.4215960" lon="-2.5807110">
        <ele>541.2</ele>
        <time>2022-08-29T04:32:27Z</time>
      </trkpt>
      <trkpt lat="42.4215760" lon="-2.5807370">
        <ele>541.2</ele>
        <time>2022-08-29T04:32:28Z</time>
      </trkpt>
      <trkpt lat="42.4215560" lon="-2.5807600">
        <ele>541.2</ele>
        <time>2022-08-29T04:32:29Z</time>
      </trkpt>
      <trkpt lat="42.4215370" lon="-2.5807830">
        <ele>541.2</ele>
        <time>2022-08-29T04:32:30Z</time>
      </trkpt>
      <trkpt lat="42.4215160" lon="-2.5808060">
        <ele>541.6</ele>
        <time>2022-08-29T04:32:31Z</time>
      </trkpt>
      <trkpt lat="42.4214970" lon="-2.5808300">
        <ele>541.4</ele>
        <time>2022-08-29T04:32:32Z</time>
      </trkpt>
      <trkpt lat="42.4214770" lon="-2.5808540">
        <ele>541.6</ele>
        <time>2022-08-29T04:32:33Z</time>
      </trkpt>
      <trkpt lat="42.4214600" lon="-2.5808790">
        <ele>541.8</ele>
        <time>2022-08-29T04:32:34Z</time>
      </trkpt>
      <trkpt lat="42.4214440" lon="-2.5809040">
        <ele>541.8</ele>
        <time>2022-08-29T04:32:35Z</time>
      </trkpt>
      <trkpt lat="42.4214320" lon="-2.5809280">
        <ele>541.8</ele>
        <time>2022-08-29T04:32:36Z</time>
      </trkpt>
      <trkpt lat="42.4214220" lon="-2.5809530">
        <ele>541.8</ele>
        <time>2022-08-29T04:32:37Z</time>
      </trkpt>
      <trkpt lat="42.4214110" lon="-2.5809780">
        <ele>542.0</ele>
        <time>2022-08-29T04:32:38Z</time>
      </trkpt>
      <trkpt lat="42.4214010" lon="-2.5810050">
        <ele>542.2</ele>
        <time>2022-08-29T04:32:39Z</time>
      </trkpt>
      <trkpt lat="42.4213910" lon="-2.5810330">
        <ele>542.4</ele>
        <time>2022-08-29T04:32:40Z</time>
      </trkpt>
      <trkpt lat="42.4213770" lon="-2.5810610">
        <ele>542.6</ele>
        <time>2022-08-29T04:32:41Z</time>
      </trkpt>
      <trkpt lat="42.4213630" lon="-2.5810890">
        <ele>542.6</ele>
        <time>2022-08-29T04:32:42Z</time>
      </trkpt>
      <trkpt lat="42.4213490" lon="-2.5811180">
        <ele>543.0</ele>
        <time>2022-08-29T04:32:43Z</time>
      </trkpt>
      <trkpt lat="42.4213350" lon="-2.5811460">
        <ele>543.0</ele>
        <time>2022-08-29T04:32:44Z</time>
      </trkpt>
      <trkpt lat="42.4213190" lon="-2.5811730">
        <ele>543.2</ele>
        <time>2022-08-29T04:32:45Z</time>
      </trkpt>
      <trkpt lat="42.4213030" lon="-2.5811990">
        <ele>543.4</ele>
        <time>2022-08-29T04:32:46Z</time>
      </trkpt>
      <trkpt lat="42.4212880" lon="-2.5812250">
        <ele>543.4</ele>
        <time>2022-08-29T04:32:47Z</time>
      </trkpt>
      <trkpt lat="42.4212730" lon="-2.5812490">
        <ele>543.4</ele>
        <time>2022-08-29T04:32:48Z</time>
      </trkpt>
      <trkpt lat="42.4212570" lon="-2.5812760">
        <ele>543.4</ele>
        <time>2022-08-29T04:32:49Z</time>
      </trkpt>
      <trkpt lat="42.4212400" lon="-2.5813040">
        <ele>543.6</ele>
        <time>2022-08-29T04:32:50Z</time>
      </trkpt>
      <trkpt lat="42.4212240" lon="-2.5813300">
        <ele>543.8</ele>
        <time>2022-08-29T04:32:51Z</time>
      </trkpt>
      <trkpt lat="42.4212060" lon="-2.5813560">
        <ele>543.8</ele>
        <time>2022-08-29T04:32:52Z</time>
      </trkpt>
      <trkpt lat="42.4211870" lon="-2.5813820">
        <ele>543.8</ele>
        <time>2022-08-29T04:32:53Z</time>
      </trkpt>
      <trkpt lat="42.4211670" lon="-2.5814070">
        <ele>544.0</ele>
        <time>2022-08-29T04:32:54Z</time>
      </trkpt>
      <trkpt lat="42.4211480" lon="-2.5814320">
        <ele>543.8</ele>
        <time>2022-08-29T04:32:55Z</time>
      </trkpt>
      <trkpt lat="42.4211290" lon="-2.5814570">
        <ele>544.0</ele>
        <time>2022-08-29T04:32:56Z</time>
      </trkpt>
      <trkpt lat="42.4211120" lon="-2.5814820">
        <ele>544.2</ele>
        <time>2022-08-29T04:32:57Z</time>
      </trkpt>
      <trkpt lat="42.4210950" lon="-2.5815060">
        <ele>544.2</ele>
        <time>2022-08-29T04:32:58Z</time>
      </trkpt>
      <trkpt lat="42.4210780" lon="-2.5815310">
        <ele>544.2</ele>
        <time>2022-08-29T04:32:59Z</time>
      </trkpt>
      <trkpt lat="42.4210610" lon="-2.5815550">
        <ele>544.4</ele>
        <time>2022-08-29T04:33:00Z</time>
      </trkpt>
      <trkpt lat="42.4210450" lon="-2.5815780">
        <ele>544.6</ele>
        <time>2022-08-29T04:33:01Z</time>
      </trkpt>
      <trkpt lat="42.4210280" lon="-2.5815990">
        <ele>544.6</ele>
        <time>2022-08-29T04:33:02Z</time>
      </trkpt>
      <trkpt lat="42.4210120" lon="-2.5816220">
        <ele>544.6</ele>
        <time>2022-08-29T04:33:03Z</time>
      </trkpt>
      <trkpt lat="42.4209960" lon="-2.5816440">
        <ele>544.6</ele>
        <time>2022-08-29T04:33:04Z</time>
      </trkpt>
      <trkpt lat="42.4209790" lon="-2.5816650">
        <ele>544.8</ele>
        <time>2022-08-29T04:33:05Z</time>
      </trkpt>
      <trkpt lat="42.4209610" lon="-2.5816850">
        <ele>545.0</ele>
        <time>2022-08-29T04:33:06Z</time>
      </trkpt>
      <trkpt lat="42.4209420" lon="-2.5817050">
        <ele>545.0</ele>
        <time>2022-08-29T04:33:07Z</time>
      </trkpt>
      <trkpt lat="42.4209230" lon="-2.5817260">
        <ele>545.2</ele>
        <time>2022-08-29T04:33:08Z</time>
      </trkpt>
      <trkpt lat="42.4209040" lon="-2.5817450">
        <ele>545.4</ele>
        <time>2022-08-29T04:33:09Z</time>
      </trkpt>
      <trkpt lat="42.4208850" lon="-2.5817660">
        <ele>545.6</ele>
        <time>2022-08-29T04:33:10Z</time>
      </trkpt>
      <trkpt lat="42.4208640" lon="-2.5817890">
        <ele>545.6</ele>
        <time>2022-08-29T04:33:11Z</time>
      </trkpt>
      <trkpt lat="42.4208450" lon="-2.5818140">
        <ele>545.8</ele>
        <time>2022-08-29T04:33:12Z</time>
      </trkpt>
      <trkpt lat="42.4208240" lon="-2.5818380">
        <ele>545.8</ele>
        <time>2022-08-29T04:33:13Z</time>
      </trkpt>
      <trkpt lat="42.4208040" lon="-2.5818620">
        <ele>546.0</ele>
        <time>2022-08-29T04:33:14Z</time>
      </trkpt>
      <trkpt lat="42.4207860" lon="-2.5818860">
        <ele>546.0</ele>
        <time>2022-08-29T04:33:15Z</time>
      </trkpt>
      <trkpt lat="42.4207660" lon="-2.5819080">
        <ele>546.0</ele>
        <time>2022-08-29T04:33:16Z</time>
      </trkpt>
      <trkpt lat="42.4207460" lon="-2.5819300">
        <ele>546.0</ele>
        <time>2022-08-29T04:33:17Z</time>
      </trkpt>
      <trkpt lat="42.4207290" lon="-2.5819530">
        <ele>546.0</ele>
        <time>2022-08-29T04:33:18Z</time>
      </trkpt>
      <trkpt lat="42.4207110" lon="-2.5819770">
        <ele>546.2</ele>
        <time>2022-08-29T04:33:19Z</time>
      </trkpt>
      <trkpt lat="42.4206920" lon="-2.5819980">
        <ele>546.2</ele>
        <time>2022-08-29T04:33:20Z</time>
      </trkpt>
      <trkpt lat="42.4206740" lon="-2.5820190">
        <ele>546.2</ele>
        <time>2022-08-29T04:33:21Z</time>
      </trkpt>
      <trkpt lat="42.4206560" lon="-2.5820410">
        <ele>546.4</ele>
        <time>2022-08-29T04:33:22Z</time>
      </trkpt>
      <trkpt lat="42.4206390" lon="-2.5820620">
        <ele>546.4</ele>
        <time>2022-08-29T04:33:23Z</time>
      </trkpt>
      <trkpt lat="42.4206230" lon="-2.5820820">
        <ele>546.4</ele>
        <time>2022-08-29T04:33:24Z</time>
      </trkpt>
      <trkpt lat="42.4206050" lon="-2.5821010">
        <ele>546.6</ele>
        <time>2022-08-29T04:33:25Z</time>
      </trkpt>
      <trkpt lat="42.4205850" lon="-2.5821160">
        <ele>546.6</ele>
        <time>2022-08-29T04:33:26Z</time>
      </trkpt>
      <trkpt lat="42.4205650" lon="-2.5821300">
        <ele>546.8</ele>
        <time>2022-08-29T04:33:27Z</time>
      </trkpt>
      <trkpt lat="42.4205450" lon="-2.5821450">
        <ele>546.8</ele>
        <time>2022-08-29T04:33:28Z</time>
      </trkpt>
      <trkpt lat="42.4205240" lon="-2.5821590">
        <ele>547.0</ele>
        <time>2022-08-29T04:33:29Z</time>
      </trkpt>
      <trkpt lat="42.4205020" lon="-2.5821740">
        <ele>547.0</ele>
        <time>2022-08-29T04:33:30Z</time>
      </trkpt>
      <trkpt lat="42.4204800" lon="-2.5821900">
        <ele>547.0</ele>
        <time>2022-08-29T04:33:31Z</time>
      </trkpt>
      <trkpt lat="42.4204600" lon="-2.5822050">
        <ele>547.2</ele>
        <time>2022-08-29T04:33:32Z</time>
      </trkpt>
      <trkpt lat="42.4204390" lon="-2.5822200">
        <ele>547.2</ele>
        <time>2022-08-29T04:33:33Z</time>
      </trkpt>
      <trkpt lat="42.4204180" lon="-2.5822370">
        <ele>547.4</ele>
        <time>2022-08-29T04:33:34Z</time>
      </trkpt>
      <trkpt lat="42.4203970" lon="-2.5822570">
        <ele>547.6</ele>
        <time>2022-08-29T04:33:35Z</time>
      </trkpt>
      <trkpt lat="42.4203740" lon="-2.5822790">
        <ele>547.6</ele>
        <time>2022-08-29T04:33:36Z</time>
      </trkpt>
      <trkpt lat="42.4203510" lon="-2.5823000">
        <ele>547.8</ele>
        <time>2022-08-29T04:33:37Z</time>
      </trkpt>
      <trkpt lat="42.4203270" lon="-2.5823200">
        <ele>547.8</ele>
        <time>2022-08-29T04:33:38Z</time>
      </trkpt>
      <trkpt lat="42.4203050" lon="-2.5823390">
        <ele>547.8</ele>
        <time>2022-08-29T04:33:39Z</time>
      </trkpt>
      <trkpt lat="42.4202810" lon="-2.5823560">
        <ele>548.0</ele>
        <time>2022-08-29T04:33:40Z</time>
      </trkpt>
      <trkpt lat="42.4202580" lon="-2.5823710">
        <ele>548.2</ele>
        <time>2022-08-29T04:33:41Z</time>
      </trkpt>
      <trkpt lat="42.4202370" lon="-2.5823880">
        <ele>548.2</ele>
        <time>2022-08-29T04:33:42Z</time>
      </trkpt>
      <trkpt lat="42.4202160" lon="-2.5824040">
        <ele>548.4</ele>
        <time>2022-08-29T04:33:43Z</time>
      </trkpt>
      <trkpt lat="42.4201950" lon="-2.5824190">
        <ele>548.6</ele>
        <time>2022-08-29T04:33:44Z</time>
      </trkpt>
      <trkpt lat="42.4201750" lon="-2.5824330">
        <ele>548.6</ele>
        <time>2022-08-29T04:33:45Z</time>
      </trkpt>
      <trkpt lat="42.4201560" lon="-2.5824460">
        <ele>548.6</ele>
        <time>2022-08-29T04:33:46Z</time>
      </trkpt>
      <trkpt lat="42.4201360" lon="-2.5824600">
        <ele>548.6</ele>
        <time>2022-08-29T04:33:47Z</time>
      </trkpt>
      <trkpt lat="42.4201150" lon="-2.5824730">
        <ele>548.6</ele>
        <time>2022-08-29T04:33:48Z</time>
      </trkpt>
      <trkpt lat="42.4200960" lon="-2.5824850">
        <ele>548.8</ele>
        <time>2022-08-29T04:33:49Z</time>
      </trkpt>
      <trkpt lat="42.4200760" lon="-2.5824950">
        <ele>548.8</ele>
        <time>2022-08-29T04:33:50Z</time>
      </trkpt>
      <trkpt lat="42.4200540" lon="-2.5825060">
        <ele>548.8</ele>
        <time>2022-08-29T04:33:51Z</time>
      </trkpt>
      <trkpt lat="42.4200330" lon="-2.5825180">
        <ele>549.0</ele>
        <time>2022-08-29T04:33:52Z</time>
      </trkpt>
      <trkpt lat="42.4200080" lon="-2.5825350">
        <ele>549.2</ele>
        <time>2022-08-29T04:33:53Z</time>
      </trkpt>
      <trkpt lat="42.4199860" lon="-2.5825520">
        <ele>549.2</ele>
        <time>2022-08-29T04:33:54Z</time>
      </trkpt>
      <trkpt lat="42.4199640" lon="-2.5825700">
        <ele>549.4</ele>
        <time>2022-08-29T04:33:55Z</time>
      </trkpt>
      <trkpt lat="42.4199410" lon="-2.5825860">
        <ele>549.6</ele>
        <time>2022-08-29T04:33:56Z</time>
      </trkpt>
      <trkpt lat="42.4199200" lon="-2.5826050">
        <ele>549.4</ele>
        <time>2022-08-29T04:33:57Z</time>
      </trkpt>
      <trkpt lat="42.4198990" lon="-2.5826250">
        <ele>549.6</ele>
        <time>2022-08-29T04:33:58Z</time>
      </trkpt>
      <trkpt lat="42.4198780" lon="-2.5826460">
        <ele>549.8</ele>
        <time>2022-08-29T04:33:59Z</time>
      </trkpt>
      <trkpt lat="42.4198560" lon="-2.5826670">
        <ele>550.0</ele>
        <time>2022-08-29T04:34:00Z</time>
      </trkpt>
      <trkpt lat="42.4198320" lon="-2.5826890">
        <ele>550.2</ele>
        <time>2022-08-29T04:34:01Z</time>
      </trkpt>
      <trkpt lat="42.4198080" lon="-2.5827100">
        <ele>550.2</ele>
        <time>2022-08-29T04:34:02Z</time>
      </trkpt>
      <trkpt lat="42.4197830" lon="-2.5827310">
        <ele>550.4</ele>
        <time>2022-08-29T04:34:03Z</time>
      </trkpt>
      <trkpt lat="42.4197600" lon="-2.5827530">
        <ele>550.4</ele>
        <time>2022-08-29T04:34:04Z</time>
      </trkpt>
      <trkpt lat="42.4197380" lon="-2.5827760">
        <ele>550.4</ele>
        <time>2022-08-29T04:34:05Z</time>
      </trkpt>
      <trkpt lat="42.4197150" lon="-2.5827980">
        <ele>550.6</ele>
        <time>2022-08-29T04:34:06Z</time>
      </trkpt>
      <trkpt lat="42.4196940" lon="-2.5828210">
        <ele>550.8</ele>
        <time>2022-08-29T04:34:07Z</time>
      </trkpt>
      <trkpt lat="42.4196760" lon="-2.5828450">
        <ele>551.0</ele>
        <time>2022-08-29T04:34:08Z</time>
      </trkpt>
      <trkpt lat="42.4196600" lon="-2.5828710">
        <ele>551.2</ele>
        <time>2022-08-29T04:34:09Z</time>
      </trkpt>
      <trkpt lat="42.4196440" lon="-2.5828980">
        <ele>551.0</ele>
        <time>2022-08-29T04:34:10Z</time>
      </trkpt>
      <trkpt lat="42.4196260" lon="-2.5829250">
        <ele>551.2</ele>
        <time>2022-08-29T04:34:11Z</time>
      </trkpt>
      <trkpt lat="42.4196090" lon="-2.5829550">
        <ele>551.2</ele>
        <time>2022-08-29T04:34:12Z</time>
      </trkpt>
      <trkpt lat="42.4195930" lon="-2.5829860">
        <ele>551.2</ele>
        <time>2022-08-29T04:34:13Z</time>
      </trkpt>
      <trkpt lat="42.4195790" lon="-2.5830180">
        <ele>551.0</ele>
        <time>2022-08-29T04:34:14Z</time>
      </trkpt>
      <trkpt lat="42.4195670" lon="-2.5830520">
        <ele>551.2</ele>
        <time>2022-08-29T04:34:15Z</time>
      </trkpt>
      <trkpt lat="42.4195560" lon="-2.5830830">
        <ele>551.4</ele>
        <time>2022-08-29T04:34:16Z</time>
      </trkpt>
      <trkpt lat="42.4195480" lon="-2.5831140">
        <ele>551.4</ele>
        <time>2022-08-29T04:34:17Z</time>
      </trkpt>
      <trkpt lat="42.4195420" lon="-2.5831450">
        <ele>551.4</ele>
        <time>2022-08-29T04:34:18Z</time>
      </trkpt>
      <trkpt lat="42.4195350" lon="-2.5831780">
        <ele>551.6</ele>
        <time>2022-08-29T04:34:19Z</time>
      </trkpt>
      <trkpt lat="42.4195260" lon="-2.5832130">
        <ele>551.6</ele>
        <time>2022-08-29T04:34:20Z</time>
      </trkpt>
      <trkpt lat="42.4195170" lon="-2.5832490">
        <ele>551.4</ele>
        <time>2022-08-29T04:34:21Z</time>
      </trkpt>
      <trkpt lat="42.4195060" lon="-2.5832870">
        <ele>551.6</ele>
        <time>2022-08-29T04:34:22Z</time>
      </trkpt>
      <trkpt lat="42.4194960" lon="-2.5833250">
        <ele>551.8</ele>
        <time>2022-08-29T04:34:23Z</time>
      </trkpt>
      <trkpt lat="42.4194840" lon="-2.5833630">
        <ele>551.8</ele>
        <time>2022-08-29T04:34:24Z</time>
      </trkpt>
      <trkpt lat="42.4194710" lon="-2.5834000">
        <ele>551.8</ele>
        <time>2022-08-29T04:34:25Z</time>
      </trkpt>
      <trkpt lat="42.4194560" lon="-2.5834360">
        <ele>551.8</ele>
        <time>2022-08-29T04:34:26Z</time>
      </trkpt>
      <trkpt lat="42.4194400" lon="-2.5834710">
        <ele>552.0</ele>
        <time>2022-08-29T04:34:27Z</time>
      </trkpt>
      <trkpt lat="42.4194220" lon="-2.5835040">
        <ele>552.2</ele>
        <time>2022-08-29T04:34:28Z</time>
      </trkpt>
      <trkpt lat="42.4194020" lon="-2.5835350">
        <ele>552.2</ele>
        <time>2022-08-29T04:34:29Z</time>
      </trkpt>
      <trkpt lat="42.4193830" lon="-2.5835630">
        <ele>552.2</ele>
        <time>2022-08-29T04:34:30Z</time>
      </trkpt>
      <trkpt lat="42.4193640" lon="-2.5835880">
        <ele>552.4</ele>
        <time>2022-08-29T04:34:31Z</time>
      </trkpt>
      <trkpt lat="42.4193430" lon="-2.5836100">
        <ele>552.4</ele>
        <time>2022-08-29T04:34:32Z</time>
      </trkpt>
      <trkpt lat="42.4193200" lon="-2.5836300">
        <ele>552.4</ele>
        <time>2022-08-29T04:34:33Z</time>
      </trkpt>
      <trkpt lat="42.4192990" lon="-2.5836520">
        <ele>552.4</ele>
        <time>2022-08-29T04:34:34Z</time>
      </trkpt>
      <trkpt lat="42.4192800" lon="-2.5836770">
        <ele>552.4</ele>
        <time>2022-08-29T04:34:35Z</time>
      </trkpt>
      <trkpt lat="42.4192600" lon="-2.5837020">
        <ele>552.6</ele>
        <time>2022-08-29T04:34:36Z</time>
      </trkpt>
      <trkpt lat="42.4192410" lon="-2.5837270">
        <ele>552.6</ele>
        <time>2022-08-29T04:34:37Z</time>
      </trkpt>
      <trkpt lat="42.4192210" lon="-2.5837520">
        <ele>552.6</ele>
        <time>2022-08-29T04:34:38Z</time>
      </trkpt>
      <trkpt lat="42.4192000" lon="-2.5837780">
        <ele>552.6</ele>
        <time>2022-08-29T04:34:39Z</time>
      </trkpt>
      <trkpt lat="42.4191810" lon="-2.5838070">
        <ele>552.6</ele>
        <time>2022-08-29T04:34:40Z</time>
      </trkpt>
      <trkpt lat="42.4191610" lon="-2.5838360">
        <ele>552.8</ele>
        <time>2022-08-29T04:34:41Z</time>
      </trkpt>
      <trkpt lat="42.4191420" lon="-2.5838670">
        <ele>552.8</ele>
        <time>2022-08-29T04:34:42Z</time>
      </trkpt>
      <trkpt lat="42.4191240" lon="-2.5838980">
        <ele>552.8</ele>
        <time>2022-08-29T04:34:43Z</time>
      </trkpt>
      <trkpt lat="42.4191080" lon="-2.5839300">
        <ele>553.2</ele>
        <time>2022-08-29T04:34:44Z</time>
      </trkpt>
      <trkpt lat="42.4190920" lon="-2.5839640">
        <ele>553.2</ele>
        <time>2022-08-29T04:34:45Z</time>
      </trkpt>
      <trkpt lat="42.4190760" lon="-2.5839980">
        <ele>553.4</ele>
        <time>2022-08-29T04:34:46Z</time>
      </trkpt>
      <trkpt lat="42.4190610" lon="-2.5840320">
        <ele>553.4</ele>
        <time>2022-08-29T04:34:47Z</time>
      </trkpt>
      <trkpt lat="42.4190460" lon="-2.5840650">
        <ele>553.6</ele>
        <time>2022-08-29T04:34:48Z</time>
      </trkpt>
      <trkpt lat="42.4190310" lon="-2.5840960">
        <ele>553.8</ele>
        <time>2022-08-29T04:34:49Z</time>
      </trkpt>
      <trkpt lat="42.4190170" lon="-2.5841250">
        <ele>553.8</ele>
        <time>2022-08-29T04:34:50Z</time>
      </trkpt>
      <trkpt lat="42.4190030" lon="-2.5841560">
        <ele>553.6</ele>
        <time>2022-08-29T04:34:51Z</time>
      </trkpt>
      <trkpt lat="42.4189890" lon="-2.5841870">
        <ele>553.8</ele>
        <time>2022-08-29T04:34:52Z</time>
      </trkpt>
      <trkpt lat="42.4189760" lon="-2.5842180">
        <ele>553.8</ele>
        <time>2022-08-29T04:34:53Z</time>
      </trkpt>
      <trkpt lat="42.4189600" lon="-2.5842490">
        <ele>554.0</ele>
        <time>2022-08-29T04:34:54Z</time>
      </trkpt>
      <trkpt lat="42.4189440" lon="-2.5842780">
        <ele>554.0</ele>
        <time>2022-08-29T04:34:55Z</time>
      </trkpt>
      <trkpt lat="42.4189290" lon="-2.5843050">
        <ele>554.2</ele>
        <time>2022-08-29T04:34:56Z</time>
      </trkpt>
      <trkpt lat="42.4189130" lon="-2.5843300">
        <ele>554.4</ele>
        <time>2022-08-29T04:34:57Z</time>
      </trkpt>
      <trkpt lat="42.4188960" lon="-2.5843560">
        <ele>554.4</ele>
        <time>2022-08-29T04:34:58Z</time>
      </trkpt>
      <trkpt lat="42.4188770" lon="-2.5843810">
        <ele>554.4</ele>
        <time>2022-08-29T04:34:59Z</time>
      </trkpt>
      <trkpt lat="42.4188560" lon="-2.5844030">
        <ele>554.4</ele>
        <time>2022-08-29T04:35:00Z</time>
      </trkpt>
      <trkpt lat="42.4188370" lon="-2.5844260">
        <ele>554.6</ele>
        <time>2022-08-29T04:35:01Z</time>
      </trkpt>
      <trkpt lat="42.4188190" lon="-2.5844510">
        <ele>554.6</ele>
        <time>2022-08-29T04:35:02Z</time>
      </trkpt>
      <trkpt lat="42.4188020" lon="-2.5844770">
        <ele>554.6</ele>
        <time>2022-08-29T04:35:03Z</time>
      </trkpt>
      <trkpt lat="42.4187840" lon="-2.5845040">
        <ele>554.6</ele>
        <time>2022-08-29T04:35:04Z</time>
      </trkpt>
      <trkpt lat="42.4187650" lon="-2.5845300">
        <ele>554.8</ele>
        <time>2022-08-29T04:35:05Z</time>
      </trkpt>
      <trkpt lat="42.4187450" lon="-2.5845530">
        <ele>554.8</ele>
        <time>2022-08-29T04:35:06Z</time>
      </trkpt>
      <trkpt lat="42.4187250" lon="-2.5845730">
        <ele>555.0</ele>
        <time>2022-08-29T04:35:07Z</time>
      </trkpt>
      <trkpt lat="42.4187030" lon="-2.5845940">
        <ele>555.0</ele>
        <time>2022-08-29T04:35:08Z</time>
      </trkpt>
      <trkpt lat="42.4186820" lon="-2.5846150">
        <ele>555.2</ele>
        <time>2022-08-29T04:35:09Z</time>
      </trkpt>
      <trkpt lat="42.4186600" lon="-2.5846320">
        <ele>555.4</ele>
        <time>2022-08-29T04:35:10Z</time>
      </trkpt>
      <trkpt lat="42.4186370" lon="-2.5846480">
        <ele>555.4</ele>
        <time>2022-08-29T04:35:11Z</time>
      </trkpt>
      <trkpt lat="42.4186140" lon="-2.5846630">
        <ele>555.6</ele>
        <time>2022-08-29T04:35:12Z</time>
      </trkpt>
      <trkpt lat="42.4185920" lon="-2.5846800">
        <ele>556.0</ele>
        <time>2022-08-29T04:35:13Z</time>
      </trkpt>
      <trkpt lat="42.4185700" lon="-2.5846960">
        <ele>556.0</ele>
        <time>2022-08-29T04:35:14Z</time>
      </trkpt>
      <trkpt lat="42.4185490" lon="-2.5847110">
        <ele>556.2</ele>
        <time>2022-08-29T04:35:15Z</time>
      </trkpt>
      <trkpt lat="42.4185290" lon="-2.5847280">
        <ele>556.2</ele>
        <time>2022-08-29T04:35:16Z</time>
      </trkpt>
      <trkpt lat="42.4185090" lon="-2.5847450">
        <ele>556.2</ele>
        <time>2022-08-29T04:35:17Z</time>
      </trkpt>
      <trkpt lat="42.4184900" lon="-2.5847630">
        <ele>556.4</ele>
        <time>2022-08-29T04:35:18Z</time>
      </trkpt>
      <trkpt lat="42.4184720" lon="-2.5847810">
        <ele>556.6</ele>
        <time>2022-08-29T04:35:19Z</time>
      </trkpt>
      <trkpt lat="42.4184530" lon="-2.5847990">
        <ele>556.6</ele>
        <time>2022-08-29T04:35:20Z</time>
      </trkpt>
      <trkpt lat="42.4184340" lon="-2.5848170">
        <ele>556.6</ele>
        <time>2022-08-29T04:35:21Z</time>
      </trkpt>
      <trkpt lat="42.4184150" lon="-2.5848360">
        <ele>556.8</ele>
        <time>2022-08-29T04:35:22Z</time>
      </trkpt>
      <trkpt lat="42.4183950" lon="-2.5848540">
        <ele>556.8</ele>
        <time>2022-08-29T04:35:23Z</time>
      </trkpt>
      <trkpt lat="42.4183740" lon="-2.5848720">
        <ele>557.0</ele>
        <time>2022-08-29T04:35:24Z</time>
      </trkpt>
      <trkpt lat="42.4183540" lon="-2.5848910">
        <ele>557.0</ele>
        <time>2022-08-29T04:35:25Z</time>
      </trkpt>
      <trkpt lat="42.4183340" lon="-2.5849100">
        <ele>557.2</ele>
        <time>2022-08-29T04:35:26Z</time>
      </trkpt>
      <trkpt lat="42.4183130" lon="-2.5849300">
        <ele>557.2</ele>
        <time>2022-08-29T04:35:27Z</time>
      </trkpt>
      <trkpt lat="42.4182920" lon="-2.5849510">
        <ele>557.4</ele>
        <time>2022-08-29T04:35:28Z</time>
      </trkpt>
      <trkpt lat="42.4182720" lon="-2.5849700">
        <ele>557.2</ele>
        <time>2022-08-29T04:35:29Z</time>
      </trkpt>
      <trkpt lat="42.4182530" lon="-2.5849900">
        <ele>557.4</ele>
        <time>2022-08-29T04:35:30Z</time>
      </trkpt>
      <trkpt lat="42.4182370" lon="-2.5850100">
        <ele>557.6</ele>
        <time>2022-08-29T04:35:31Z</time>
      </trkpt>
      <trkpt lat="42.4182200" lon="-2.5850250">
        <ele>557.6</ele>
        <time>2022-08-29T04:35:32Z</time>
      </trkpt>
      <trkpt lat="42.4182020" lon="-2.5850390">
        <ele>557.8</ele>
        <time>2022-08-29T04:35:33Z</time>
      </trkpt>
      <trkpt lat="42.4181830" lon="-2.5850540">
        <ele>558.0</ele>
        <time>2022-08-29T04:35:34Z</time>
      </trkpt>
      <trkpt lat="42.4181630" lon="-2.5850720">
        <ele>558.0</ele>
        <time>2022-08-29T04:35:35Z</time>
      </trkpt>
      <trkpt lat="42.4181440" lon="-2.5850900">
        <ele>558.2</ele>
        <time>2022-08-29T04:35:36Z</time>
      </trkpt>
      <trkpt lat="42.4181240" lon="-2.5851080">
        <ele>558.2</ele>
        <time>2022-08-29T04:35:37Z</time>
      </trkpt>
      <trkpt lat="42.4181040" lon="-2.5851240">
        <ele>558.4</ele>
        <time>2022-08-29T04:35:38Z</time>
      </trkpt>
      <trkpt lat="42.4180830" lon="-2.5851420">
        <ele>558.4</ele>
        <time>2022-08-29T04:35:39Z</time>
      </trkpt>
      <trkpt lat="42.4180630" lon="-2.5851610">
        <ele>558.6</ele>
        <time>2022-08-29T04:35:40Z</time>
      </trkpt>
      <trkpt lat="42.4180440" lon="-2.5851800">
        <ele>558.8</ele>
        <time>2022-08-29T04:35:41Z</time>
      </trkpt>
      <trkpt lat="42.4180230" lon="-2.5851970">
        <ele>558.8</ele>
        <time>2022-08-29T04:35:42Z</time>
      </trkpt>
      <trkpt lat="42.4180020" lon="-2.5852160">
        <ele>558.8</ele>
        <time>2022-08-29T04:35:43Z</time>
      </trkpt>
      <trkpt lat="42.4179820" lon="-2.5852350">
        <ele>559.0</ele>
        <time>2022-08-29T04:35:44Z</time>
      </trkpt>
      <trkpt lat="42.4179600" lon="-2.5852520">
        <ele>559.0</ele>
        <time>2022-08-29T04:35:45Z</time>
      </trkpt>
      <trkpt lat="42.4179390" lon="-2.5852700">
        <ele>559.2</ele>
        <time>2022-08-29T04:35:46Z</time>
      </trkpt>
      <trkpt lat="42.4179180" lon="-2.5852890">
        <ele>559.2</ele>
        <time>2022-08-29T04:35:47Z</time>
      </trkpt>
      <trkpt lat="42.4179000" lon="-2.5853100">
        <ele>559.2</ele>
        <time>2022-08-29T04:35:48Z</time>
      </trkpt>
      <trkpt lat="42.4178820" lon="-2.5853300">
        <ele>559.4</ele>
        <time>2022-08-29T04:35:49Z</time>
      </trkpt>
      <trkpt lat="42.4178660" lon="-2.5853490">
        <ele>559.4</ele>
        <time>2022-08-29T04:35:50Z</time>
      </trkpt>
      <trkpt lat="42.4178480" lon="-2.5853690">
        <ele>559.4</ele>
        <time>2022-08-29T04:35:51Z</time>
      </trkpt>
      <trkpt lat="42.4178310" lon="-2.5853910">
        <ele>559.6</ele>
        <time>2022-08-29T04:35:52Z</time>
      </trkpt>
      <trkpt lat="42.4178110" lon="-2.5854120">
        <ele>559.6</ele>
        <time>2022-08-29T04:35:53Z</time>
      </trkpt>
      <trkpt lat="42.4177920" lon="-2.5854320">
        <ele>559.6</ele>
        <time>2022-08-29T04:35:54Z</time>
      </trkpt>
      <trkpt lat="42.4177730" lon="-2.5854520">
        <ele>559.8</ele>
        <time>2022-08-29T04:35:55Z</time>
      </trkpt>
      <trkpt lat="42.4177530" lon="-2.5854730">
        <ele>559.8</ele>
        <time>2022-08-29T04:35:56Z</time>
      </trkpt>
      <trkpt lat="42.4177330" lon="-2.5854950">
        <ele>560.0</ele>
        <time>2022-08-29T04:35:57Z</time>
      </trkpt>
      <trkpt lat="42.4177130" lon="-2.5855150">
        <ele>560.2</ele>
        <time>2022-08-29T04:35:58Z</time>
      </trkpt>
      <trkpt lat="42.4176940" lon="-2.5855370">
        <ele>560.2</ele>
        <time>2022-08-29T04:35:59Z</time>
      </trkpt>
      <trkpt lat="42.4176750" lon="-2.5855580">
        <ele>560.4</ele>
        <time>2022-08-29T04:36:00Z</time>
      </trkpt>
      <trkpt lat="42.4176560" lon="-2.5855800">
        <ele>560.4</ele>
        <time>2022-08-29T04:36:01Z</time>
      </trkpt>
      <trkpt lat="42.4176380" lon="-2.5855990">
        <ele>560.8</ele>
        <time>2022-08-29T04:36:02Z</time>
      </trkpt>
      <trkpt lat="42.4176190" lon="-2.5856190">
        <ele>561.0</ele>
        <time>2022-08-29T04:36:03Z</time>
      </trkpt>
      <trkpt lat="42.4176010" lon="-2.5856400">
        <ele>561.0</ele>
        <time>2022-08-29T04:36:04Z</time>
      </trkpt>
      <trkpt lat="42.4175830" lon="-2.5856600">
        <ele>561.2</ele>
        <time>2022-08-29T04:36:05Z</time>
      </trkpt>
      <trkpt lat="42.4175630" lon="-2.5856780">
        <ele>561.2</ele>
        <time>2022-08-29T04:36:06Z</time>
      </trkpt>
      <trkpt lat="42.4175440" lon="-2.5856960">
        <ele>561.4</ele>
        <time>2022-08-29T04:36:07Z</time>
      </trkpt>
      <trkpt lat="42.4175240" lon="-2.5857150">
        <ele>561.4</ele>
        <time>2022-08-29T04:36:08Z</time>
      </trkpt>
      <trkpt lat="42.4175050" lon="-2.5857340">
        <ele>561.6</ele>
        <time>2022-08-29T04:36:09Z</time>
      </trkpt>
      <trkpt lat="42.4174850" lon="-2.5857520">
        <ele>561.6</ele>
        <time>2022-08-29T04:36:10Z</time>
      </trkpt>
      <trkpt lat="42.4174670" lon="-2.5857710">
        <ele>561.8</ele>
        <time>2022-08-29T04:36:11Z</time>
      </trkpt>
      <trkpt lat="42.4174470" lon="-2.5857890">
        <ele>561.8</ele>
        <time>2022-08-29T04:36:12Z</time>
      </trkpt>
      <trkpt lat="42.4174280" lon="-2.5858070">
        <ele>562.0</ele>
        <time>2022-08-29T04:36:13Z</time>
      </trkpt>
      <trkpt lat="42.4174090" lon="-2.5858260">
        <ele>562.0</ele>
        <time>2022-08-29T04:36:14Z</time>
      </trkpt>
      <trkpt lat="42.4173900" lon="-2.5858440">
        <ele>562.0</ele>
        <time>2022-08-29T04:36:15Z</time>
      </trkpt>
      <trkpt lat="42.4173700" lon="-2.5858610">
        <ele>562.2</ele>
        <time>2022-08-29T04:36:16Z</time>
      </trkpt>
      <trkpt lat="42.4173490" lon="-2.5858770">
        <ele>562.0</ele>
        <time>2022-08-29T04:36:17Z</time>
      </trkpt>
      <trkpt lat="42.4173280" lon="-2.5858920">
        <ele>562.2</ele>
        <time>2022-08-29T04:36:18Z</time>
      </trkpt>
      <trkpt lat="42.4173090" lon="-2.5859080">
        <ele>562.2</ele>
        <time>2022-08-29T04:36:19Z</time>
      </trkpt>
      <trkpt lat="42.4172890" lon="-2.5859250">
        <ele>562.4</ele>
        <time>2022-08-29T04:36:20Z</time>
      </trkpt>
      <trkpt lat="42.4172680" lon="-2.5859420">
        <ele>562.6</ele>
        <time>2022-08-29T04:36:21Z</time>
      </trkpt>
      <trkpt lat="42.4172470" lon="-2.5859600">
        <ele>562.4</ele>
        <time>2022-08-29T04:36:22Z</time>
      </trkpt>
      <trkpt lat="42.4172260" lon="-2.5859790">
        <ele>562.4</ele>
        <time>2022-08-29T04:36:23Z</time>
      </trkpt>
      <trkpt lat="42.4172060" lon="-2.5859990">
        <ele>562.6</ele>
        <time>2022-08-29T04:36:24Z</time>
      </trkpt>
      <trkpt lat="42.4171870" lon="-2.5860200">
        <ele>562.6</ele>
        <time>2022-08-29T04:36:25Z</time>
      </trkpt>
      <trkpt lat="42.4171670" lon="-2.5860380">
        <ele>563.0</ele>
        <time>2022-08-29T04:36:26Z</time>
      </trkpt>
      <trkpt lat="42.4171430" lon="-2.5860570">
        <ele>563.0</ele>
        <time>2022-08-29T04:36:27Z</time>
      </trkpt>
      <trkpt lat="42.4171190" lon="-2.5860780">
        <ele>563.0</ele>
        <time>2022-08-29T04:36:28Z</time>
      </trkpt>
      <trkpt lat="42.4170960" lon="-2.5860970">
        <ele>563.2</ele>
        <time>2022-08-29T04:36:29Z</time>
      </trkpt>
      <trkpt lat="42.4170750" lon="-2.5861160">
        <ele>563.4</ele>
        <time>2022-08-29T04:36:30Z</time>
      </trkpt>
      <trkpt lat="42.4170560" lon="-2.5861360">
        <ele>563.4</ele>
        <time>2022-08-29T04:36:31Z</time>
      </trkpt>
      <trkpt lat="42.4170370" lon="-2.5861590">
        <ele>563.6</ele>
        <time>2022-08-29T04:36:32Z</time>
      </trkpt>
      <trkpt lat="42.4170170" lon="-2.5861800">
        <ele>563.6</ele>
        <time>2022-08-29T04:36:33Z</time>
      </trkpt>
      <trkpt lat="42.4169960" lon="-2.5862030">
        <ele>563.8</ele>
        <time>2022-08-29T04:36:34Z</time>
      </trkpt>
      <trkpt lat="42.4169760" lon="-2.5862240">
        <ele>563.8</ele>
        <time>2022-08-29T04:36:35Z</time>
      </trkpt>
      <trkpt lat="42.4169570" lon="-2.5862430">
        <ele>564.2</ele>
        <time>2022-08-29T04:36:36Z</time>
      </trkpt>
      <trkpt lat="42.4169380" lon="-2.5862630">
        <ele>564.0</ele>
        <time>2022-08-29T04:36:37Z</time>
      </trkpt>
      <trkpt lat="42.4169200" lon="-2.5862830">
        <ele>564.2</ele>
        <time>2022-08-29T04:36:38Z</time>
      </trkpt>
      <trkpt lat="42.4169000" lon="-2.5863050">
        <ele>564.2</ele>
        <time>2022-08-29T04:36:39Z</time>
      </trkpt>
      <trkpt lat="42.4168800" lon="-2.5863270">
        <ele>564.2</ele>
        <time>2022-08-29T04:36:40Z</time>
      </trkpt>
      <trkpt lat="42.4168620" lon="-2.5863500">
        <ele>564.2</ele>
        <time>2022-08-29T04:36:41Z</time>
      </trkpt>
      <trkpt lat="42.4168450" lon="-2.5863740">
        <ele>564.4</ele>
        <time>2022-08-29T04:36:42Z</time>
      </trkpt>
      <trkpt lat="42.4168280" lon="-2.5863970">
        <ele>564.4</ele>
        <time>2022-08-29T04:36:43Z</time>
      </trkpt>
      <trkpt lat="42.4168090" lon="-2.5864190">
        <ele>564.6</ele>
        <time>2022-08-29T04:36:44Z</time>
      </trkpt>
      <trkpt lat="42.4167900" lon="-2.5864390">
        <ele>564.6</ele>
        <time>2022-08-29T04:36:45Z</time>
      </trkpt>
      <trkpt lat="42.4167710" lon="-2.5864610">
        <ele>565.0</ele>
        <time>2022-08-29T04:36:46Z</time>
      </trkpt>
      <trkpt lat="42.4167530" lon="-2.5864820">
        <ele>565.0</ele>
        <time>2022-08-29T04:36:47Z</time>
      </trkpt>
      <trkpt lat="42.4167370" lon="-2.5865030">
        <ele>565.2</ele>
        <time>2022-08-29T04:36:48Z</time>
      </trkpt>
      <trkpt lat="42.4167220" lon="-2.5865270">
        <ele>565.0</ele>
        <time>2022-08-29T04:36:49Z</time>
      </trkpt>
      <trkpt lat="42.4167060" lon="-2.5865540">
        <ele>565.0</ele>
        <time>2022-08-29T04:36:50Z</time>
      </trkpt>
      <trkpt lat="42.4166900" lon="-2.5865800">
        <ele>565.2</ele>
        <time>2022-08-29T04:36:51Z</time>
      </trkpt>
      <trkpt lat="42.4166730" lon="-2.5866070">
        <ele>565.2</ele>
        <time>2022-08-29T04:36:52Z</time>
      </trkpt>
      <trkpt lat="42.4166560" lon="-2.5866350">
        <ele>565.4</ele>
        <time>2022-08-29T04:36:53Z</time>
      </trkpt>
      <trkpt lat="42.4166400" lon="-2.5866630">
        <ele>565.4</ele>
        <time>2022-08-29T04:36:54Z</time>
      </trkpt>
      <trkpt lat="42.4166250" lon="-2.5866910">
        <ele>565.4</ele>
        <time>2022-08-29T04:36:55Z</time>
      </trkpt>
      <trkpt lat="42.4166080" lon="-2.5867180">
        <ele>565.6</ele>
        <time>2022-08-29T04:36:56Z</time>
      </trkpt>
      <trkpt lat="42.4165900" lon="-2.5867420">
        <ele>565.8</ele>
        <time>2022-08-29T04:36:57Z</time>
      </trkpt>
      <trkpt lat="42.4165720" lon="-2.5867640">
        <ele>566.0</ele>
        <time>2022-08-29T04:36:58Z</time>
      </trkpt>
      <trkpt lat="42.4165520" lon="-2.5867860">
        <ele>566.0</ele>
        <time>2022-08-29T04:36:59Z</time>
      </trkpt>
      <trkpt lat="42.4165330" lon="-2.5868090">
        <ele>565.8</ele>
        <time>2022-08-29T04:37:00Z</time>
      </trkpt>
      <trkpt lat="42.4165140" lon="-2.5868330">
        <ele>566.2</ele>
        <time>2022-08-29T04:37:01Z</time>
      </trkpt>
      <trkpt lat="42.4164940" lon="-2.5868560">
        <ele>566.4</ele>
        <time>2022-08-29T04:37:02Z</time>
      </trkpt>
      <trkpt lat="42.4164730" lon="-2.5868790">
        <ele>566.4</ele>
        <time>2022-08-29T04:37:03Z</time>
      </trkpt>
      <trkpt lat="42.4164520" lon="-2.5869010">
        <ele>566.4</ele>
        <time>2022-08-29T04:37:04Z</time>
      </trkpt>
      <trkpt lat="42.4164320" lon="-2.5869250">
        <ele>566.4</ele>
        <time>2022-08-29T04:37:05Z</time>
      </trkpt>
      <trkpt lat="42.4164120" lon="-2.5869470">
        <ele>566.4</ele>
        <time>2022-08-29T04:37:06Z</time>
      </trkpt>
      <trkpt lat="42.4163920" lon="-2.5869650">
        <ele>566.6</ele>
        <time>2022-08-29T04:37:07Z</time>
      </trkpt>
      <trkpt lat="42.4163700" lon="-2.5869840">
        <ele>566.6</ele>
        <time>2022-08-29T04:37:08Z</time>
      </trkpt>
      <trkpt lat="42.4163490" lon="-2.5870020">
        <ele>566.8</ele>
        <time>2022-08-29T04:37:09Z</time>
      </trkpt>
      <trkpt lat="42.4163260" lon="-2.5870200">
        <ele>566.8</ele>
        <time>2022-08-29T04:37:10Z</time>
      </trkpt>
      <trkpt lat="42.4163020" lon="-2.5870370">
        <ele>567.0</ele>
        <time>2022-08-29T04:37:11Z</time>
      </trkpt>
      <trkpt lat="42.4162790" lon="-2.5870550">
        <ele>567.0</ele>
        <time>2022-08-29T04:37:12Z</time>
      </trkpt>
      <trkpt lat="42.4162560" lon="-2.5870740">
        <ele>567.0</ele>
        <time>2022-08-29T04:37:13Z</time>
      </trkpt>
      <trkpt lat="42.4162330" lon="-2.5870920">
        <ele>567.6</ele>
        <time>2022-08-29T04:37:14Z</time>
      </trkpt>
      <trkpt lat="42.4162100" lon="-2.5871090">
        <ele>567.8</ele>
        <time>2022-08-29T04:37:15Z</time>
      </trkpt>
      <trkpt lat="42.4161860" lon="-2.5871260">
        <ele>568.2</ele>
        <time>2022-08-29T04:37:16Z</time>
      </trkpt>
      <trkpt lat="42.4161620" lon="-2.5871430">
        <ele>568.2</ele>
        <time>2022-08-29T04:37:17Z</time>
      </trkpt>
      <trkpt lat="42.4161380" lon="-2.5871590">
        <ele>568.4</ele>
        <time>2022-08-29T04:37:18Z</time>
      </trkpt>
      <trkpt lat="42.4161150" lon="-2.5871740">
        <ele>568.4</ele>
        <time>2022-08-29T04:37:19Z</time>
      </trkpt>
      <trkpt lat="42.4160910" lon="-2.5871890">
        <ele>568.4</ele>
        <time>2022-08-29T04:37:20Z</time>
      </trkpt>
      <trkpt lat="42.4160670" lon="-2.5872010">
        <ele>568.4</ele>
        <time>2022-08-29T04:37:21Z</time>
      </trkpt>
      <trkpt lat="42.4160420" lon="-2.5872140">
        <ele>568.4</ele>
        <time>2022-08-29T04:37:22Z</time>
      </trkpt>
      <trkpt lat="42.4160180" lon="-2.5872290">
        <ele>568.4</ele>
        <time>2022-08-29T04:37:23Z</time>
      </trkpt>
      <trkpt lat="42.4159910" lon="-2.5872450">
        <ele>568.6</ele>
        <time>2022-08-29T04:37:24Z</time>
      </trkpt>
      <trkpt lat="42.4159640" lon="-2.5872600">
        <ele>568.6</ele>
        <time>2022-08-29T04:37:25Z</time>
      </trkpt>
      <trkpt lat="42.4159390" lon="-2.5872730">
        <ele>568.6</ele>
        <time>2022-08-29T04:37:26Z</time>
      </trkpt>
      <trkpt lat="42.4159140" lon="-2.5872860">
        <ele>568.4</ele>
        <time>2022-08-29T04:37:27Z</time>
      </trkpt>
      <trkpt lat="42.4158880" lon="-2.5872990">
        <ele>568.6</ele>
        <time>2022-08-29T04:37:28Z</time>
      </trkpt>
      <trkpt lat="42.4158630" lon="-2.5873110">
        <ele>568.8</ele>
        <time>2022-08-29T04:37:29Z</time>
      </trkpt>
      <trkpt lat="42.4158370" lon="-2.5873240">
        <ele>568.8</ele>
        <time>2022-08-29T04:37:30Z</time>
      </trkpt>
      <trkpt lat="42.4158120" lon="-2.5873350">
        <ele>569.0</ele>
        <time>2022-08-29T04:37:31Z</time>
      </trkpt>
      <trkpt lat="42.4157870" lon="-2.5873450">
        <ele>569.0</ele>
        <time>2022-08-29T04:37:32Z</time>
      </trkpt>
      <trkpt lat="42.4157620" lon="-2.5873550">
        <ele>569.0</ele>
        <time>2022-08-29T04:37:33Z</time>
      </trkpt>
      <trkpt lat="42.4157370" lon="-2.5873640">
        <ele>569.2</ele>
        <time>2022-08-29T04:37:34Z</time>
      </trkpt>
      <trkpt lat="42.4157130" lon="-2.5873720">
        <ele>569.4</ele>
        <time>2022-08-29T04:37:35Z</time>
      </trkpt>
      <trkpt lat="42.4156870" lon="-2.5873830">
        <ele>569.4</ele>
        <time>2022-08-29T04:37:36Z</time>
      </trkpt>
      <trkpt lat="42.4156620" lon="-2.5873920">
        <ele>569.6</ele>
        <time>2022-08-29T04:37:37Z</time>
      </trkpt>
      <trkpt lat="42.4156380" lon="-2.5874000">
        <ele>569.6</ele>
        <time>2022-08-29T04:37:38Z</time>
      </trkpt>
      <trkpt lat="42.4156130" lon="-2.5874120">
        <ele>569.8</ele>
        <time>2022-08-29T04:37:39Z</time>
      </trkpt>
      <trkpt lat="42.4155890" lon="-2.5874240">
        <ele>569.8</ele>
        <time>2022-08-29T04:37:40Z</time>
      </trkpt>
      <trkpt lat="42.4155640" lon="-2.5874350">
        <ele>570.0</ele>
        <time>2022-08-29T04:37:41Z</time>
      </trkpt>
      <trkpt lat="42.4155400" lon="-2.5874450">
        <ele>570.0</ele>
        <time>2022-08-29T04:37:42Z</time>
      </trkpt>
      <trkpt lat="42.4155160" lon="-2.5874560">
        <ele>570.2</ele>
        <time>2022-08-29T04:37:43Z</time>
      </trkpt>
      <trkpt lat="42.4154920" lon="-2.5874670">
        <ele>570.2</ele>
        <time>2022-08-29T04:37:44Z</time>
      </trkpt>
      <trkpt lat="42.4154680" lon="-2.5874800">
        <ele>570.2</ele>
        <time>2022-08-29T04:37:45Z</time>
      </trkpt>
      <trkpt lat="42.4154440" lon="-2.5874920">
        <ele>570.6</ele>
        <time>2022-08-29T04:37:46Z</time>
      </trkpt>
      <trkpt lat="42.4154190" lon="-2.5875040">
        <ele>570.4</ele>
        <time>2022-08-29T04:37:47Z</time>
      </trkpt>
      <trkpt lat="42.4153950" lon="-2.5875140">
        <ele>570.6</ele>
        <time>2022-08-29T04:37:48Z</time>
      </trkpt>
      <trkpt lat="42.4153700" lon="-2.5875240">
        <ele>570.8</ele>
        <time>2022-08-29T04:37:49Z</time>
      </trkpt>
      <trkpt lat="42.4153460" lon="-2.5875340">
        <ele>571.0</ele>
        <time>2022-08-29T04:37:50Z</time>
      </trkpt>
      <trkpt lat="42.4153220" lon="-2.5875430">
        <ele>571.0</ele>
        <time>2022-08-29T04:37:51Z</time>
      </trkpt>
      <trkpt lat="42.4152970" lon="-2.5875520">
        <ele>571.0</ele>
        <time>2022-08-29T04:37:52Z</time>
      </trkpt>
      <trkpt lat="42.4152720" lon="-2.5875600">
        <ele>571.2</ele>
        <time>2022-08-29T04:37:53Z</time>
      </trkpt>
      <trkpt lat="42.4152460" lon="-2.5875690">
        <ele>571.2</ele>
        <time>2022-08-29T04:37:54Z</time>
      </trkpt>
      <trkpt lat="42.4152200" lon="-2.5875790">
        <ele>571.2</ele>
        <time>2022-08-29T04:37:55Z</time>
      </trkpt>
      <trkpt lat="42.4151950" lon="-2.5875900">
        <ele>571.4</ele>
        <time>2022-08-29T04:37:56Z</time>
      </trkpt>
      <trkpt lat="42.4151700" lon="-2.5876010">
        <ele>571.6</ele>
        <time>2022-08-29T04:37:57Z</time>
      </trkpt>
      <trkpt lat="42.4151450" lon="-2.5876140">
        <ele>572.0</ele>
        <time>2022-08-29T04:37:58Z</time>
      </trkpt>
      <trkpt lat="42.4151220" lon="-2.5876280">
        <ele>572.2</ele>
        <time>2022-08-29T04:37:59Z</time>
      </trkpt>
      <trkpt lat="42.4151000" lon="-2.5876450">
        <ele>572.2</ele>
        <time>2022-08-29T04:38:00Z</time>
      </trkpt>
      <trkpt lat="42.4150810" lon="-2.5876660">
        <ele>572.4</ele>
        <time>2022-08-29T04:38:01Z</time>
      </trkpt>
      <trkpt lat="42.4150670" lon="-2.5876910">
        <ele>572.4</ele>
        <time>2022-08-29T04:38:02Z</time>
      </trkpt>
      <trkpt lat="42.4150560" lon="-2.5877160">
        <ele>572.4</ele>
        <time>2022-08-29T04:38:03Z</time>
      </trkpt>
      <trkpt lat="42.4150480" lon="-2.5877400">
        <ele>572.8</ele>
        <time>2022-08-29T04:38:04Z</time>
      </trkpt>
      <trkpt lat="42.4150470" lon="-2.5877630">
        <ele>572.8</ele>
        <time>2022-08-29T04:38:05Z</time>
      </trkpt>
      <trkpt lat="42.4150500" lon="-2.5877850">
        <ele>573.0</ele>
        <time>2022-08-29T04:38:06Z</time>
      </trkpt>
      <trkpt lat="42.4150560" lon="-2.5878070">
        <ele>573.2</ele>
        <time>2022-08-29T04:38:07Z</time>
      </trkpt>
      <trkpt lat="42.4150630" lon="-2.5878310">
        <ele>573.2</ele>
        <time>2022-08-29T04:38:08Z</time>
      </trkpt>
      <trkpt lat="42.4150690" lon="-2.5878560">
        <ele>573.2</ele>
        <time>2022-08-29T04:38:09Z</time>
      </trkpt>
      <trkpt lat="42.4150750" lon="-2.5878850">
        <ele>573.2</ele>
        <time>2022-08-29T04:38:10Z</time>
      </trkpt>
      <trkpt lat="42.4150830" lon="-2.5879150">
        <ele>573.4</ele>
        <time>2022-08-29T04:38:11Z</time>
      </trkpt>
      <trkpt lat="42.4150900" lon="-2.5879500">
        <ele>573.4</ele>
        <time>2022-08-29T04:38:12Z</time>
      </trkpt>
      <trkpt lat="42.4150960" lon="-2.5879870">
        <ele>573.4</ele>
        <time>2022-08-29T04:38:13Z</time>
      </trkpt>
      <trkpt lat="42.4151010" lon="-2.5880250">
        <ele>573.4</ele>
        <time>2022-08-29T04:38:14Z</time>
      </trkpt>
      <trkpt lat="42.4151040" lon="-2.5880630">
        <ele>573.4</ele>
        <time>2022-08-29T04:38:15Z</time>
      </trkpt>
      <trkpt lat="42.4151060" lon="-2.5881040">
        <ele>573.4</ele>
        <time>2022-08-29T04:38:16Z</time>
      </trkpt>
      <trkpt lat="42.4151090" lon="-2.5881450">
        <ele>573.4</ele>
        <time>2022-08-29T04:38:17Z</time>
      </trkpt>
      <trkpt lat="42.4151140" lon="-2.5881860">
        <ele>573.2</ele>
        <time>2022-08-29T04:38:18Z</time>
      </trkpt>
      <trkpt lat="42.4151200" lon="-2.5882260">
        <ele>573.4</ele>
        <time>2022-08-29T04:38:19Z</time>
      </trkpt>
      <trkpt lat="42.4151260" lon="-2.5882650">
        <ele>573.4</ele>
        <time>2022-08-29T04:38:20Z</time>
      </trkpt>
      <trkpt lat="42.4151330" lon="-2.5883060">
        <ele>573.4</ele>
        <time>2022-08-29T04:38:21Z</time>
      </trkpt>
      <trkpt lat="42.4151390" lon="-2.5883470">
        <ele>573.2</ele>
        <time>2022-08-29T04:38:22Z</time>
      </trkpt>
      <trkpt lat="42.4151450" lon="-2.5883900">
        <ele>573.4</ele>
        <time>2022-08-29T04:38:23Z</time>
      </trkpt>
      <trkpt lat="42.4151500" lon="-2.5884330">
        <ele>573.2</ele>
        <time>2022-08-29T04:38:24Z</time>
      </trkpt>
      <trkpt lat="42.4151570" lon="-2.5884750">
        <ele>573.4</ele>
        <time>2022-08-29T04:38:25Z</time>
      </trkpt>
      <trkpt lat="42.4151630" lon="-2.5885170">
        <ele>573.2</ele>
        <time>2022-08-29T04:38:26Z</time>
      </trkpt>
      <trkpt lat="42.4151690" lon="-2.5885580">
        <ele>573.4</ele>
        <time>2022-08-29T04:38:27Z</time>
      </trkpt>
      <trkpt lat="42.4151750" lon="-2.5885990">
        <ele>573.4</ele>
        <time>2022-08-29T04:38:28Z</time>
      </trkpt>
      <trkpt lat="42.4151800" lon="-2.5886400">
        <ele>573.4</ele>
        <time>2022-08-29T04:38:29Z</time>
      </trkpt>
      <trkpt lat="42.4151850" lon="-2.5886820">
        <ele>573.2</ele>
        <time>2022-08-29T04:38:30Z</time>
      </trkpt>
      <trkpt lat="42.4151890" lon="-2.5887230">
        <ele>573.2</ele>
        <time>2022-08-29T04:38:31Z</time>
      </trkpt>
      <trkpt lat="42.4151910" lon="-2.5887650">
        <ele>573.2</ele>
        <time>2022-08-29T04:38:32Z</time>
      </trkpt>
      <trkpt lat="42.4151940" lon="-2.5888060">
        <ele>573.2</ele>
        <time>2022-08-29T04:38:33Z</time>
      </trkpt>
      <trkpt lat="42.4151960" lon="-2.5888460">
        <ele>573.4</ele>
        <time>2022-08-29T04:38:34Z</time>
      </trkpt>
      <trkpt lat="42.4151960" lon="-2.5888870">
        <ele>573.4</ele>
        <time>2022-08-29T04:38:35Z</time>
      </trkpt>
      <trkpt lat="42.4151960" lon="-2.5889290">
        <ele>573.4</ele>
        <time>2022-08-29T04:38:36Z</time>
      </trkpt>
      <trkpt lat="42.4151930" lon="-2.5889700">
        <ele>573.4</ele>
        <time>2022-08-29T04:38:37Z</time>
      </trkpt>
      <trkpt lat="42.4151870" lon="-2.5890100">
        <ele>573.4</ele>
        <time>2022-08-29T04:38:38Z</time>
      </trkpt>
      <trkpt lat="42.4151800" lon="-2.5890490">
        <ele>573.6</ele>
        <time>2022-08-29T04:38:39Z</time>
      </trkpt>
      <trkpt lat="42.4151730" lon="-2.5890860">
        <ele>573.6</ele>
        <time>2022-08-29T04:38:40Z</time>
      </trkpt>
      <trkpt lat="42.4151660" lon="-2.5891220">
        <ele>573.6</ele>
        <time>2022-08-29T04:38:41Z</time>
      </trkpt>
      <trkpt lat="42.4151600" lon="-2.5891580">
        <ele>573.8</ele>
        <time>2022-08-29T04:38:42Z</time>
      </trkpt>
      <trkpt lat="42.4151550" lon="-2.5891970">
        <ele>573.8</ele>
        <time>2022-08-29T04:38:43Z</time>
      </trkpt>
      <trkpt lat="42.4151480" lon="-2.5892360">
        <ele>573.8</ele>
        <time>2022-08-29T04:38:44Z</time>
      </trkpt>
      <trkpt lat="42.4151420" lon="-2.5892760">
        <ele>574.0</ele>
        <time>2022-08-29T04:38:45Z</time>
      </trkpt>
      <trkpt lat="42.4151360" lon="-2.5893140">
        <ele>574.0</ele>
        <time>2022-08-29T04:38:46Z</time>
      </trkpt>
      <trkpt lat="42.4151300" lon="-2.5893520">
        <ele>574.2</ele>
        <time>2022-08-29T04:38:47Z</time>
      </trkpt>
      <trkpt lat="42.4151230" lon="-2.5893890">
        <ele>574.2</ele>
        <time>2022-08-29T04:38:48Z</time>
      </trkpt>
      <trkpt lat="42.4151170" lon="-2.5894260">
        <ele>574.4</ele>
        <time>2022-08-29T04:38:49Z</time>
      </trkpt>
      <trkpt lat="42.4151110" lon="-2.5894640">
        <ele>574.6</ele>
        <time>2022-08-29T04:38:50Z</time>
      </trkpt>
      <trkpt lat="42.4151040" lon="-2.5895030">
        <ele>574.8</ele>
        <time>2022-08-29T04:38:51Z</time>
      </trkpt>
      <trkpt lat="42.4150990" lon="-2.5895430">
        <ele>575.0</ele>
        <time>2022-08-29T04:38:52Z</time>
      </trkpt>
      <trkpt lat="42.4150960" lon="-2.5895830">
        <ele>575.2</ele>
        <time>2022-08-29T04:38:53Z</time>
      </trkpt>
      <trkpt lat="42.4150940" lon="-2.5896220">
        <ele>575.2</ele>
        <time>2022-08-29T04:38:54Z</time>
      </trkpt>
      <trkpt lat="42.4150910" lon="-2.5896610">
        <ele>575.4</ele>
        <time>2022-08-29T04:38:55Z</time>
      </trkpt>
      <trkpt lat="42.4150890" lon="-2.5896990">
        <ele>575.4</ele>
        <time>2022-08-29T04:38:56Z</time>
      </trkpt>
      <trkpt lat="42.4150870" lon="-2.5897390">
        <ele>575.4</ele>
        <time>2022-08-29T04:38:57Z</time>
      </trkpt>
      <trkpt lat="42.4150860" lon="-2.5897760">
        <ele>575.6</ele>
        <time>2022-08-29T04:38:58Z</time>
      </trkpt>
      <trkpt lat="42.4150870" lon="-2.5898120">
        <ele>575.6</ele>
        <time>2022-08-29T04:38:59Z</time>
      </trkpt>
      <trkpt lat="42.4150870" lon="-2.5898490">
        <ele>575.8</ele>
        <time>2022-08-29T04:39:00Z</time>
      </trkpt>
      <trkpt lat="42.4150850" lon="-2.5898870">
        <ele>576.0</ele>
        <time>2022-08-29T04:39:01Z</time>
      </trkpt>
      <trkpt lat="42.4150830" lon="-2.5899270">
        <ele>576.0</ele>
        <time>2022-08-29T04:39:02Z</time>
      </trkpt>
      <trkpt lat="42.4150810" lon="-2.5899680">
        <ele>576.0</ele>
        <time>2022-08-29T04:39:03Z</time>
      </trkpt>
      <trkpt lat="42.4150780" lon="-2.5900080">
        <ele>576.4</ele>
        <time>2022-08-29T04:39:04Z</time>
      </trkpt>
      <trkpt lat="42.4150760" lon="-2.5900470">
        <ele>576.4</ele>
        <time>2022-08-29T04:39:05Z</time>
      </trkpt>
      <trkpt lat="42.4150730" lon="-2.5900860">
        <ele>576.4</ele>
        <time>2022-08-29T04:39:06Z</time>
      </trkpt>
      <trkpt lat="42.4150690" lon="-2.5901250">
        <ele>576.4</ele>
        <time>2022-08-29T04:39:07Z</time>
      </trkpt>
      <trkpt lat="42.4150660" lon="-2.5901640">
        <ele>576.4</ele>
        <time>2022-08-29T04:39:08Z</time>
      </trkpt>
      <trkpt lat="42.4150620" lon="-2.5902020">
        <ele>576.8</ele>
        <time>2022-08-29T04:39:09Z</time>
      </trkpt>
      <trkpt lat="42.4150590" lon="-2.5902390">
        <ele>576.8</ele>
        <time>2022-08-29T04:39:10Z</time>
      </trkpt>
      <trkpt lat="42.4150570" lon="-2.5902770">
        <ele>577.0</ele>
        <time>2022-08-29T04:39:11Z</time>
      </trkpt>
      <trkpt lat="42.4150550" lon="-2.5903150">
        <ele>577.0</ele>
        <time>2022-08-29T04:39:12Z</time>
      </trkpt>
      <trkpt lat="42.4150520" lon="-2.5903540">
        <ele>577.0</ele>
        <time>2022-08-29T04:39:13Z</time>
      </trkpt>
      <trkpt lat="42.4150480" lon="-2.5903940">
        <ele>577.0</ele>
        <time>2022-08-29T04:39:14Z</time>
      </trkpt>
      <trkpt lat="42.4150450" lon="-2.5904320">
        <ele>577.2</ele>
        <time>2022-08-29T04:39:15Z</time>
      </trkpt>
      <trkpt lat="42.4150430" lon="-2.5904700">
        <ele>577.4</ele>
        <time>2022-08-29T04:39:16Z</time>
      </trkpt>
      <trkpt lat="42.4150420" lon="-2.5905060">
        <ele>577.6</ele>
        <time>2022-08-29T04:39:17Z</time>
      </trkpt>
      <trkpt lat="42.4150410" lon="-2.5905410">
        <ele>577.8</ele>
        <time>2022-08-29T04:39:18Z</time>
      </trkpt>
      <trkpt lat="42.4150380" lon="-2.5905770">
        <ele>578.0</ele>
        <time>2022-08-29T04:39:19Z</time>
      </trkpt>
      <trkpt lat="42.4150350" lon="-2.5906140">
        <ele>578.0</ele>
        <time>2022-08-29T04:39:20Z</time>
      </trkpt>
      <trkpt lat="42.4150310" lon="-2.5906500">
        <ele>578.2</ele>
        <time>2022-08-29T04:39:21Z</time>
      </trkpt>
      <trkpt lat="42.4150270" lon="-2.5906860">
        <ele>578.4</ele>
        <time>2022-08-29T04:39:22Z</time>
      </trkpt>
      <trkpt lat="42.4150230" lon="-2.5907220">
        <ele>578.4</ele>
        <time>2022-08-29T04:39:23Z</time>
      </trkpt>
      <trkpt lat="42.4150180" lon="-2.5907600">
        <ele>578.6</ele>
        <time>2022-08-29T04:39:24Z</time>
      </trkpt>
      <trkpt lat="42.4150140" lon="-2.5907970">
        <ele>578.8</ele>
        <time>2022-08-29T04:39:25Z</time>
      </trkpt>
      <trkpt lat="42.4150090" lon="-2.5908350">
        <ele>578.8</ele>
        <time>2022-08-29T04:39:26Z</time>
      </trkpt>
      <trkpt lat="42.4150060" lon="-2.5908750">
        <ele>579.0</ele>
        <time>2022-08-29T04:39:27Z</time>
      </trkpt>
      <trkpt lat="42.4150050" lon="-2.5909150">
        <ele>579.2</ele>
        <time>2022-08-29T04:39:28Z</time>
      </trkpt>
      <trkpt lat="42.4150030" lon="-2.5909550">
        <ele>579.4</ele>
        <time>2022-08-29T04:39:29Z</time>
      </trkpt>
      <trkpt lat="42.4150010" lon="-2.5909950">
        <ele>579.4</ele>
        <time>2022-08-29T04:39:30Z</time>
      </trkpt>
      <trkpt lat="42.4149990" lon="-2.5910350">
        <ele>579.6</ele>
        <time>2022-08-29T04:39:31Z</time>
      </trkpt>
      <trkpt lat="42.4149970" lon="-2.5910750">
        <ele>579.4</ele>
        <time>2022-08-29T04:39:32Z</time>
      </trkpt>
      <trkpt lat="42.4149930" lon="-2.5911160">
        <ele>579.6</ele>
        <time>2022-08-29T04:39:33Z</time>
      </trkpt>
      <trkpt lat="42.4149910" lon="-2.5911580">
        <ele>579.8</ele>
        <time>2022-08-29T04:39:34Z</time>
      </trkpt>
      <trkpt lat="42.4149880" lon="-2.5912000">
        <ele>580.0</ele>
        <time>2022-08-29T04:39:35Z</time>
      </trkpt>
      <trkpt lat="42.4149850" lon="-2.5912420">
        <ele>580.0</ele>
        <time>2022-08-29T04:39:36Z</time>
      </trkpt>
      <trkpt lat="42.4149810" lon="-2.5912840">
        <ele>580.0</ele>
        <time>2022-08-29T04:39:37Z</time>
      </trkpt>
      <trkpt lat="42.4149770" lon="-2.5913250">
        <ele>580.0</ele>
        <time>2022-08-29T04:39:38Z</time>
      </trkpt>
      <trkpt lat="42.4149730" lon="-2.5913660">
        <ele>580.2</ele>
        <time>2022-08-29T04:39:39Z</time>
      </trkpt>
      <trkpt lat="42.4149680" lon="-2.5914060">
        <ele>580.2</ele>
        <time>2022-08-29T04:39:40Z</time>
      </trkpt>
      <trkpt lat="42.4149640" lon="-2.5914450">
        <ele>580.2</ele>
        <time>2022-08-29T04:39:41Z</time>
      </trkpt>
      <trkpt lat="42.4149600" lon="-2.5914860">
        <ele>580.2</ele>
        <time>2022-08-29T04:39:42Z</time>
      </trkpt>
      <trkpt lat="42.4149560" lon="-2.5915280">
        <ele>580.4</ele>
        <time>2022-08-29T04:39:43Z</time>
      </trkpt>
      <trkpt lat="42.4149510" lon="-2.5915690">
        <ele>580.4</ele>
        <time>2022-08-29T04:39:44Z</time>
      </trkpt>
      <trkpt lat="42.4149480" lon="-2.5916090">
        <ele>580.4</ele>
        <time>2022-08-29T04:39:45Z</time>
      </trkpt>
      <trkpt lat="42.4149440" lon="-2.5916490">
        <ele>580.4</ele>
        <time>2022-08-29T04:39:46Z</time>
      </trkpt>
      <trkpt lat="42.4149390" lon="-2.5916900">
        <ele>580.4</ele>
        <time>2022-08-29T04:39:47Z</time>
      </trkpt>
      <trkpt lat="42.4149340" lon="-2.5917320">
        <ele>580.6</ele>
        <time>2022-08-29T04:39:48Z</time>
      </trkpt>
      <trkpt lat="42.4149290" lon="-2.5917730">
        <ele>580.6</ele>
        <time>2022-08-29T04:39:49Z</time>
      </trkpt>
      <trkpt lat="42.4149250" lon="-2.5918140">
        <ele>580.6</ele>
        <time>2022-08-29T04:39:50Z</time>
      </trkpt>
      <trkpt lat="42.4149230" lon="-2.5918540">
        <ele>581.0</ele>
        <time>2022-08-29T04:39:51Z</time>
      </trkpt>
      <trkpt lat="42.4149200" lon="-2.5918930">
        <ele>581.0</ele>
        <time>2022-08-29T04:39:52Z</time>
      </trkpt>
      <trkpt lat="42.4149180" lon="-2.5919320">
        <ele>581.0</ele>
        <time>2022-08-29T04:39:53Z</time>
      </trkpt>
      <trkpt lat="42.4149150" lon="-2.5919710">
        <ele>581.0</ele>
        <time>2022-08-29T04:39:54Z</time>
      </trkpt>
      <trkpt lat="42.4149110" lon="-2.5920090">
        <ele>581.0</ele>
        <time>2022-08-29T04:39:55Z</time>
      </trkpt>
      <trkpt lat="42.4149060" lon="-2.5920470">
        <ele>581.0</ele>
        <time>2022-08-29T04:39:56Z</time>
      </trkpt>
      <trkpt lat="42.4149010" lon="-2.5920850">
        <ele>581.2</ele>
        <time>2022-08-29T04:39:57Z</time>
      </trkpt>
      <trkpt lat="42.4148960" lon="-2.5921230">
        <ele>581.4</ele>
        <time>2022-08-29T04:39:58Z</time>
      </trkpt>
      <trkpt lat="42.4148910" lon="-2.5921600">
        <ele>581.4</ele>
        <time>2022-08-29T04:39:59Z</time>
      </trkpt>
      <trkpt lat="42.4148850" lon="-2.5921970">
        <ele>581.6</ele>
        <time>2022-08-29T04:40:00Z</time>
      </trkpt>
      <trkpt lat="42.4148780" lon="-2.5922340">
        <ele>581.6</ele>
        <time>2022-08-29T04:40:01Z</time>
      </trkpt>
      <trkpt lat="42.4148710" lon="-2.5922710">
        <ele>581.6</ele>
        <time>2022-08-29T04:40:02Z</time>
      </trkpt>
      <trkpt lat="42.4148640" lon="-2.5923050">
        <ele>581.6</ele>
        <time>2022-08-29T04:40:03Z</time>
      </trkpt>
      <trkpt lat="42.4148570" lon="-2.5923380">
        <ele>581.8</ele>
        <time>2022-08-29T04:40:04Z</time>
      </trkpt>
      <trkpt lat="42.4148490" lon="-2.5923700">
        <ele>582.2</ele>
        <time>2022-08-29T04:40:05Z</time>
      </trkpt>
      <trkpt lat="42.4148410" lon="-2.5924060">
        <ele>582.4</ele>
        <time>2022-08-29T04:40:06Z</time>
      </trkpt>
      <trkpt lat="42.4148310" lon="-2.5924430">
        <ele>582.6</ele>
        <time>2022-08-29T04:40:07Z</time>
      </trkpt>
      <trkpt lat="42.4148180" lon="-2.5924810">
        <ele>582.6</ele>
        <time>2022-08-29T04:40:08Z</time>
      </trkpt>
      <trkpt lat="42.4148040" lon="-2.5925210">
        <ele>582.8</ele>
        <time>2022-08-29T04:40:09Z</time>
      </trkpt>
      <trkpt lat="42.4147930" lon="-2.5925640">
        <ele>583.0</ele>
        <time>2022-08-29T04:40:10Z</time>
      </trkpt>
      <trkpt lat="42.4147810" lon="-2.5926100">
        <ele>583.0</ele>
        <time>2022-08-29T04:40:11Z</time>
      </trkpt>
      <trkpt lat="42.4147690" lon="-2.5926570">
        <ele>582.8</ele>
        <time>2022-08-29T04:40:12Z</time>
      </trkpt>
      <trkpt lat="42.4147560" lon="-2.5927050">
        <ele>583.0</ele>
        <time>2022-08-29T04:40:13Z</time>
      </trkpt>
      <trkpt lat="42.4147430" lon="-2.5927550">
        <ele>583.0</ele>
        <time>2022-08-29T04:40:14Z</time>
      </trkpt>
      <trkpt lat="42.4147290" lon="-2.5928080">
        <ele>582.8</ele>
        <time>2022-08-29T04:40:15Z</time>
      </trkpt>
      <trkpt lat="42.4147180" lon="-2.5928620">
        <ele>583.0</ele>
        <time>2022-08-29T04:40:16Z</time>
      </trkpt>
      <trkpt lat="42.4147110" lon="-2.5929160">
        <ele>583.2</ele>
        <time>2022-08-29T04:40:17Z</time>
      </trkpt>
      <trkpt lat="42.4147040" lon="-2.5929740">
        <ele>583.0</ele>
        <time>2022-08-29T04:40:18Z</time>
      </trkpt>
      <trkpt lat="42.4146980" lon="-2.5930310">
        <ele>583.0</ele>
        <time>2022-08-29T04:40:19Z</time>
      </trkpt>
      <trkpt lat="42.4146940" lon="-2.5930890">
        <ele>583.0</ele>
        <time>2022-08-29T04:40:20Z</time>
      </trkpt>
      <trkpt lat="42.4146890" lon="-2.5931490">
        <ele>583.0</ele>
        <time>2022-08-29T04:40:21Z</time>
      </trkpt>
      <trkpt lat="42.4146860" lon="-2.5932090">
        <ele>583.0</ele>
        <time>2022-08-29T04:40:22Z</time>
      </trkpt>
      <trkpt lat="42.4146830" lon="-2.5932690">
        <ele>583.0</ele>
        <time>2022-08-29T04:40:23Z</time>
      </trkpt>
      <trkpt lat="42.4146800" lon="-2.5933300">
        <ele>582.8</ele>
        <time>2022-08-29T04:40:24Z</time>
      </trkpt>
      <trkpt lat="42.4146780" lon="-2.5933940">
        <ele>582.6</ele>
        <time>2022-08-29T04:40:25Z</time>
      </trkpt>
      <trkpt lat="42.4146800" lon="-2.5934580">
        <ele>582.4</ele>
        <time>2022-08-29T04:40:26Z</time>
      </trkpt>
      <trkpt lat="42.4146830" lon="-2.5935210">
        <ele>582.2</ele>
        <time>2022-08-29T04:40:27Z</time>
      </trkpt>
      <trkpt lat="42.4146840" lon="-2.5935840">
        <ele>582.2</ele>
        <time>2022-08-29T04:40:28Z</time>
      </trkpt>
      <trkpt lat="42.4146830" lon="-2.5936470">
        <ele>582.0</ele>
        <time>2022-08-29T04:40:29Z</time>
      </trkpt>
      <trkpt lat="42.4146790" lon="-2.5937090">
        <ele>582.0</ele>
        <time>2022-08-29T04:40:30Z</time>
      </trkpt>
      <trkpt lat="42.4146740" lon="-2.5937710">
        <ele>581.8</ele>
        <time>2022-08-29T04:40:31Z</time>
      </trkpt>
      <trkpt lat="42.4146720" lon="-2.5938340">
        <ele>581.8</ele>
        <time>2022-08-29T04:40:32Z</time>
      </trkpt>
      <trkpt lat="42.4146700" lon="-2.5939010">
        <ele>581.6</ele>
        <time>2022-08-29T04:40:33Z</time>
      </trkpt>
      <trkpt lat="42.4146720" lon="-2.5939730">
        <ele>581.6</ele>
        <time>2022-08-29T04:40:34Z</time>
      </trkpt>
      <trkpt lat="42.4146820" lon="-2.5940460">
        <ele>581.4</ele>
        <time>2022-08-29T04:40:35Z</time>
      </trkpt>
      <trkpt lat="42.4146960" lon="-2.5941220">
        <ele>581.4</ele>
        <time>2022-08-29T04:40:36Z</time>
      </trkpt>
      <trkpt lat="42.4147150" lon="-2.5941980">
        <ele>581.4</ele>
        <time>2022-08-29T04:40:37Z</time>
      </trkpt>
      <trkpt lat="42.4147370" lon="-2.5942750">
        <ele>581.4</ele>
        <time>2022-08-29T04:40:38Z</time>
      </trkpt>
      <trkpt lat="42.4147610" lon="-2.5943530">
        <ele>581.2</ele>
        <time>2022-08-29T04:40:39Z</time>
      </trkpt>
      <trkpt lat="42.4147870" lon="-2.5944300">
        <ele>581.2</ele>
        <time>2022-08-29T04:40:40Z</time>
      </trkpt>
      <trkpt lat="42.4148190" lon="-2.5945040">
        <ele>581.0</ele>
        <time>2022-08-29T04:40:41Z</time>
      </trkpt>
      <trkpt lat="42.4148550" lon="-2.5945790">
        <ele>580.4</ele>
        <time>2022-08-29T04:40:42Z</time>
      </trkpt>
      <trkpt lat="42.4148940" lon="-2.5946530">
        <ele>580.0</ele>
        <time>2022-08-29T04:40:43Z</time>
      </trkpt>
      <trkpt lat="42.4149360" lon="-2.5947250">
        <ele>579.8</ele>
        <time>2022-08-29T04:40:44Z</time>
      </trkpt>
      <trkpt lat="42.4149840" lon="-2.5947950">
        <ele>579.8</ele>
        <time>2022-08-29T04:40:45Z</time>
      </trkpt>
      <trkpt lat="42.4150340" lon="-2.5948630">
        <ele>579.4</ele>
        <time>2022-08-29T04:40:46Z</time>
      </trkpt>
      <trkpt lat="42.4150840" lon="-2.5949310">
        <ele>579.0</ele>
        <time>2022-08-29T04:40:47Z</time>
      </trkpt>
      <trkpt lat="42.4151310" lon="-2.5950000">
        <ele>578.4</ele>
        <time>2022-08-29T04:40:48Z</time>
      </trkpt>
      <trkpt lat="42.4151770" lon="-2.5950730">
        <ele>578.0</ele>
        <time>2022-08-29T04:40:49Z</time>
      </trkpt>
      <trkpt lat="42.4152230" lon="-2.5951480">
        <ele>577.6</ele>
        <time>2022-08-29T04:40:50Z</time>
      </trkpt>
      <trkpt lat="42.4152690" lon="-2.5952230">
        <ele>577.2</ele>
        <time>2022-08-29T04:40:51Z</time>
      </trkpt>
      <trkpt lat="42.4153230" lon="-2.5953010">
        <ele>576.6</ele>
        <time>2022-08-29T04:40:52Z</time>
      </trkpt>
      <trkpt lat="42.4153820" lon="-2.5953840">
        <ele>576.4</ele>
        <time>2022-08-29T04:40:53Z</time>
      </trkpt>
      <trkpt lat="42.4154440" lon="-2.5954710">
        <ele>576.2</ele>
        <time>2022-08-29T04:40:54Z</time>
      </trkpt>
      <trkpt lat="42.4155090" lon="-2.5955580">
        <ele>576.0</ele>
        <time>2022-08-29T04:40:55Z</time>
      </trkpt>
      <trkpt lat="42.4155800" lon="-2.5956410">
        <ele>575.4</ele>
        <time>2022-08-29T04:40:56Z</time>
      </trkpt>
      <trkpt lat="42.4156520" lon="-2.5957280">
        <ele>575.0</ele>
        <time>2022-08-29T04:40:57Z</time>
      </trkpt>
      <trkpt lat="42.4157190" lon="-2.5958210">
        <ele>574.6</ele>
        <time>2022-08-29T04:40:58Z</time>
      </trkpt>
      <trkpt lat="42.4157720" lon="-2.5959230">
        <ele>574.2</ele>
        <time>2022-08-29T04:40:59Z</time>
      </trkpt>
      <trkpt lat="42.4158200" lon="-2.5960250">
        <ele>573.6</ele>
        <time>2022-08-29T04:41:00Z</time>
      </trkpt>
      <trkpt lat="42.4158650" lon="-2.5961180">
        <ele>572.6</ele>
        <time>2022-08-29T04:41:01Z</time>
      </trkpt>
      <trkpt lat="42.4159060" lon="-2.5962050">
        <ele>571.6</ele>
        <time>2022-08-29T04:41:02Z</time>
      </trkpt>
      <trkpt lat="42.4159420" lon="-2.5962820">
        <ele>570.2</ele>
        <time>2022-08-29T04:41:03Z</time>
      </trkpt>
      <trkpt lat="42.4159750" lon="-2.5963500">
        <ele>568.8</ele>
        <time>2022-08-29T04:41:04Z</time>
      </trkpt>
      <trkpt lat="42.4160030" lon="-2.5964110">
        <ele>568.4</ele>
        <time>2022-08-29T04:41:05Z</time>
      </trkpt>
      <trkpt lat="42.4160260" lon="-2.5964620">
        <ele>568.2</ele>
        <time>2022-08-29T04:41:06Z</time>
      </trkpt>
      <trkpt lat="42.4160460" lon="-2.5965040">
        <ele>567.8</ele>
        <time>2022-08-29T04:41:07Z</time>
      </trkpt>
      <trkpt lat="42.4160650" lon="-2.5965410">
        <ele>567.8</ele>
        <time>2022-08-29T04:41:08Z</time>
      </trkpt>
      <trkpt lat="42.4160820" lon="-2.5965730">
        <ele>567.8</ele>
        <time>2022-08-29T04:41:09Z</time>
      </trkpt>
      <trkpt lat="42.4160980" lon="-2.5966060">
        <ele>567.8</ele>
        <time>2022-08-29T04:41:10Z</time>
      </trkpt>
      <trkpt lat="42.4161140" lon="-2.5966400">
        <ele>567.8</ele>
        <time>2022-08-29T04:41:11Z</time>
      </trkpt>
      <trkpt lat="42.4161280" lon="-2.5966740">
        <ele>567.8</ele>
        <time>2022-08-29T04:41:12Z</time>
      </trkpt>
      <trkpt lat="42.4161420" lon="-2.5967090">
        <ele>567.8</ele>
        <time>2022-08-29T04:41:13Z</time>
      </trkpt>
      <trkpt lat="42.4161550" lon="-2.5967450">
        <ele>567.6</ele>
        <time>2022-08-29T04:41:14Z</time>
      </trkpt>
      <trkpt lat="42.4161670" lon="-2.5967850">
        <ele>568.2</ele>
        <time>2022-08-29T04:41:15Z</time>
      </trkpt>
      <trkpt lat="42.4161780" lon="-2.5968270">
        <ele>568.8</ele>
        <time>2022-08-29T04:41:16Z</time>
      </trkpt>
      <trkpt lat="42.4161880" lon="-2.5968720">
        <ele>569.6</ele>
        <time>2022-08-29T04:41:17Z</time>
      </trkpt>
      <trkpt lat="42.4161980" lon="-2.5969150">
        <ele>570.2</ele>
        <time>2022-08-29T04:41:18Z</time>
      </trkpt>
      <trkpt lat="42.4162080" lon="-2.5969590">
        <ele>570.6</ele>
        <time>2022-08-29T04:41:19Z</time>
      </trkpt>
      <trkpt lat="42.4162180" lon="-2.5970030">
        <ele>571.0</ele>
        <time>2022-08-29T04:41:20Z</time>
      </trkpt>
      <trkpt lat="42.4162300" lon="-2.5970480">
        <ele>571.2</ele>
        <time>2022-08-29T04:41:21Z</time>
      </trkpt>
      <trkpt lat="42.4162430" lon="-2.5970930">
        <ele>571.4</ele>
        <time>2022-08-29T04:41:22Z</time>
      </trkpt>
      <trkpt lat="42.4162560" lon="-2.5971370">
        <ele>571.8</ele>
        <time>2022-08-29T04:41:23Z</time>
      </trkpt>
      <trkpt lat="42.4162690" lon="-2.5971810">
        <ele>572.0</ele>
        <time>2022-08-29T04:41:24Z</time>
      </trkpt>
      <trkpt lat="42.4162830" lon="-2.5972240">
        <ele>572.0</ele>
        <time>2022-08-29T04:41:25Z</time>
      </trkpt>
      <trkpt lat="42.4162970" lon="-2.5972680">
        <ele>572.2</ele>
        <time>2022-08-29T04:41:26Z</time>
      </trkpt>
      <trkpt lat="42.4163120" lon="-2.5973140">
        <ele>572.2</ele>
        <time>2022-08-29T04:41:27Z</time>
      </trkpt>
      <trkpt lat="42.4163260" lon="-2.5973600">
        <ele>572.4</ele>
        <time>2022-08-29T04:41:28Z</time>
      </trkpt>
      <trkpt lat="42.4163420" lon="-2.5974070">
        <ele>572.4</ele>
        <time>2022-08-29T04:41:29Z</time>
      </trkpt>
      <trkpt lat="42.4163590" lon="-2.5974550">
        <ele>572.4</ele>
        <time>2022-08-29T04:41:30Z</time>
      </trkpt>
      <trkpt lat="42.4163760" lon="-2.5975030">
        <ele>572.4</ele>
        <time>2022-08-29T04:41:31Z</time>
      </trkpt>
      <trkpt lat="42.4163940" lon="-2.5975530">
        <ele>572.4</ele>
        <time>2022-08-29T04:41:32Z</time>
      </trkpt>
      <trkpt lat="42.4164110" lon="-2.5976100">
        <ele>572.4</ele>
        <time>2022-08-29T04:41:33Z</time>
      </trkpt>
      <trkpt lat="42.4164280" lon="-2.5976650">
        <ele>572.4</ele>
        <time>2022-08-29T04:41:34Z</time>
      </trkpt>
      <trkpt lat="42.4164460" lon="-2.5977250">
        <ele>572.4</ele>
        <time>2022-08-29T04:41:35Z</time>
      </trkpt>
      <trkpt lat="42.4164620" lon="-2.5977880">
        <ele>572.4</ele>
        <time>2022-08-29T04:41:36Z</time>
      </trkpt>
      <trkpt lat="42.4164750" lon="-2.5978520">
        <ele>572.4</ele>
        <time>2022-08-29T04:41:37Z</time>
      </trkpt>
      <trkpt lat="42.4164850" lon="-2.5979170">
        <ele>572.4</ele>
        <time>2022-08-29T04:41:38Z</time>
      </trkpt>
      <trkpt lat="42.4164940" lon="-2.5979760">
        <ele>572.2</ele>
        <time>2022-08-29T04:41:39Z</time>
      </trkpt>
      <trkpt lat="42.4165010" lon="-2.5980230">
        <ele>572.2</ele>
        <time>2022-08-29T04:41:40Z</time>
      </trkpt>
      <trkpt lat="42.4165100" lon="-2.5980610">
        <ele>572.2</ele>
        <time>2022-08-29T04:41:41Z</time>
      </trkpt>
      <trkpt lat="42.4165250" lon="-2.5980920">
        <ele>572.2</ele>
        <time>2022-08-29T04:41:42Z</time>
      </trkpt>
      <trkpt lat="42.4165490" lon="-2.5981160">
        <ele>572.0</ele>
        <time>2022-08-29T04:41:43Z</time>
      </trkpt>
      <trkpt lat="42.4165780" lon="-2.5981280">
        <ele>571.8</ele>
        <time>2022-08-29T04:41:44Z</time>
      </trkpt>
      <trkpt lat="42.4166190" lon="-2.5981240">
        <ele>571.0</ele>
        <time>2022-08-29T04:41:45Z</time>
      </trkpt>
      <trkpt lat="42.4166670" lon="-2.5981080">
        <ele>569.8</ele>
        <time>2022-08-29T04:41:46Z</time>
      </trkpt>
      <trkpt lat="42.4167160" lon="-2.5980850">
        <ele>569.0</ele>
        <time>2022-08-29T04:41:47Z</time>
      </trkpt>
      <trkpt lat="42.4167680" lon="-2.5980580">
        <ele>568.2</ele>
        <time>2022-08-29T04:41:48Z</time>
      </trkpt>
      <trkpt lat="42.4168200" lon="-2.5980350">
        <ele>567.8</ele>
        <time>2022-08-29T04:41:49Z</time>
      </trkpt>
      <trkpt lat="42.4168750" lon="-2.5980250">
        <ele>567.6</ele>
        <time>2022-08-29T04:41:50Z</time>
      </trkpt>
      <trkpt lat="42.4169300" lon="-2.5980320">
        <ele>567.2</ele>
        <time>2022-08-29T04:41:51Z</time>
      </trkpt>
      <trkpt lat="42.4169800" lon="-2.5980530">
        <ele>566.8</ele>
        <time>2022-08-29T04:41:52Z</time>
      </trkpt>
      <trkpt lat="42.4170250" lon="-2.5980830">
        <ele>566.0</ele>
        <time>2022-08-29T04:41:53Z</time>
      </trkpt>
      <trkpt lat="42.4170660" lon="-2.5981160">
        <ele>565.2</ele>
        <time>2022-08-29T04:41:54Z</time>
      </trkpt>
      <trkpt lat="42.4170960" lon="-2.5981560">
        <ele>564.6</ele>
        <time>2022-08-29T04:41:55Z</time>
      </trkpt>
      <trkpt lat="42.4171200" lon="-2.5982000">
        <ele>564.2</ele>
        <time>2022-08-29T04:41:56Z</time>
      </trkpt>
      <trkpt lat="42.4171330" lon="-2.5982500">
        <ele>564.0</ele>
        <time>2022-08-29T04:41:57Z</time>
      </trkpt>
      <trkpt lat="42.4171310" lon="-2.5983000">
        <ele>563.8</ele>
        <time>2022-08-29T04:41:58Z</time>
      </trkpt>
      <trkpt lat="42.4171200" lon="-2.5983480">
        <ele>563.8</ele>
        <time>2022-08-29T04:41:59Z</time>
      </trkpt>
      <trkpt lat="42.4171060" lon="-2.5983950">
        <ele>564.0</ele>
        <time>2022-08-29T04:42:00Z</time>
      </trkpt>
      <trkpt lat="42.4170890" lon="-2.5984400">
        <ele>564.0</ele>
        <time>2022-08-29T04:42:01Z</time>
      </trkpt>
      <trkpt lat="42.4170700" lon="-2.5984850">
        <ele>563.8</ele>
        <time>2022-08-29T04:42:02Z</time>
      </trkpt>
      <trkpt lat="42.4170490" lon="-2.5985270">
        <ele>564.0</ele>
        <time>2022-08-29T04:42:03Z</time>
      </trkpt>
      <trkpt lat="42.4170270" lon="-2.5985650">
        <ele>563.8</ele>
        <time>2022-08-29T04:42:04Z</time>
      </trkpt>
      <trkpt lat="42.4170070" lon="-2.5986060">
        <ele>564.0</ele>
        <time>2022-08-29T04:42:05Z</time>
      </trkpt>
      <trkpt lat="42.4169870" lon="-2.5986450">
        <ele>564.0</ele>
        <time>2022-08-29T04:42:06Z</time>
      </trkpt>
      <trkpt lat="42.4169660" lon="-2.5986850">
        <ele>564.2</ele>
        <time>2022-08-29T04:42:07Z</time>
      </trkpt>
      <trkpt lat="42.4169470" lon="-2.5987250">
        <ele>564.2</ele>
        <time>2022-08-29T04:42:08Z</time>
      </trkpt>
      <trkpt lat="42.4169270" lon="-2.5987640">
        <ele>564.4</ele>
        <time>2022-08-29T04:42:09Z</time>
      </trkpt>
      <trkpt lat="42.4169080" lon="-2.5988020">
        <ele>564.8</ele>
        <time>2022-08-29T04:42:10Z</time>
      </trkpt>
      <trkpt lat="42.4168910" lon="-2.5988390">
        <ele>565.0</ele>
        <time>2022-08-29T04:42:11Z</time>
      </trkpt>
      <trkpt lat="42.4168730" lon="-2.5988770">
        <ele>565.0</ele>
        <time>2022-08-29T04:42:12Z</time>
      </trkpt>
      <trkpt lat="42.4168560" lon="-2.5989150">
        <ele>565.0</ele>
        <time>2022-08-29T04:42:13Z</time>
      </trkpt>
      <trkpt lat="42.4168400" lon="-2.5989510">
        <ele>565.2</ele>
        <time>2022-08-29T04:42:14Z</time>
      </trkpt>
      <trkpt lat="42.4168220" lon="-2.5989860">
        <ele>565.6</ele>
        <time>2022-08-29T04:42:15Z</time>
      </trkpt>
      <trkpt lat="42.4168030" lon="-2.5990220">
        <ele>565.6</ele>
        <time>2022-08-29T04:42:16Z</time>
      </trkpt>
      <trkpt lat="42.4167860" lon="-2.5990580">
        <ele>565.8</ele>
        <time>2022-08-29T04:42:17Z</time>
      </trkpt>
      <trkpt lat="42.4167690" lon="-2.5990930">
        <ele>566.0</ele>
        <time>2022-08-29T04:42:18Z</time>
      </trkpt>
      <trkpt lat="42.4167540" lon="-2.5991280">
        <ele>566.2</ele>
        <time>2022-08-29T04:42:19Z</time>
      </trkpt>
      <trkpt lat="42.4167380" lon="-2.5991630">
        <ele>566.2</ele>
        <time>2022-08-29T04:42:20Z</time>
      </trkpt>
      <trkpt lat="42.4167240" lon="-2.5991980">
        <ele>566.2</ele>
        <time>2022-08-29T04:42:21Z</time>
      </trkpt>
      <trkpt lat="42.4167090" lon="-2.5992330">
        <ele>566.4</ele>
        <time>2022-08-29T04:42:22Z</time>
      </trkpt>
      <trkpt lat="42.4166920" lon="-2.5992670">
        <ele>566.6</ele>
        <time>2022-08-29T04:42:23Z</time>
      </trkpt>
      <trkpt lat="42.4166760" lon="-2.5993020">
        <ele>566.6</ele>
        <time>2022-08-29T04:42:24Z</time>
      </trkpt>
      <trkpt lat="42.4166570" lon="-2.5993390">
        <ele>566.6</ele>
        <time>2022-08-29T04:42:25Z</time>
      </trkpt>
      <trkpt lat="42.4166400" lon="-2.5993760">
        <ele>566.8</ele>
        <time>2022-08-29T04:42:26Z</time>
      </trkpt>
      <trkpt lat="42.4166220" lon="-2.5994130">
        <ele>567.0</ele>
        <time>2022-08-29T04:42:27Z</time>
      </trkpt>
      <trkpt lat="42.4166040" lon="-2.5994510">
        <ele>567.0</ele>
        <time>2022-08-29T04:42:28Z</time>
      </trkpt>
      <trkpt lat="42.4165870" lon="-2.5994870">
        <ele>567.2</ele>
        <time>2022-08-29T04:42:29Z</time>
      </trkpt>
      <trkpt lat="42.4165700" lon="-2.5995220">
        <ele>567.2</ele>
        <time>2022-08-29T04:42:30Z</time>
      </trkpt>
      <trkpt lat="42.4165520" lon="-2.5995560">
        <ele>567.4</ele>
        <time>2022-08-29T04:42:31Z</time>
      </trkpt>
      <trkpt lat="42.4165340" lon="-2.5995910">
        <ele>567.4</ele>
        <time>2022-08-29T04:42:32Z</time>
      </trkpt>
      <trkpt lat="42.4165160" lon="-2.5996260">
        <ele>567.2</ele>
        <time>2022-08-29T04:42:33Z</time>
      </trkpt>
      <trkpt lat="42.4164990" lon="-2.5996640">
        <ele>567.4</ele>
        <time>2022-08-29T04:42:34Z</time>
      </trkpt>
      <trkpt lat="42.4164820" lon="-2.5997010">
        <ele>567.6</ele>
        <time>2022-08-29T04:42:35Z</time>
      </trkpt>
      <trkpt lat="42.4164640" lon="-2.5997360">
        <ele>567.8</ele>
        <time>2022-08-29T04:42:36Z</time>
      </trkpt>
      <trkpt lat="42.4164440" lon="-2.5997710">
        <ele>567.8</ele>
        <time>2022-08-29T04:42:37Z</time>
      </trkpt>
      <trkpt lat="42.4164250" lon="-2.5998060">
        <ele>568.0</ele>
        <time>2022-08-29T04:42:38Z</time>
      </trkpt>
      <trkpt lat="42.4164070" lon="-2.5998410">
        <ele>568.2</ele>
        <time>2022-08-29T04:42:39Z</time>
      </trkpt>
      <trkpt lat="42.4163910" lon="-2.5998760">
        <ele>568.2</ele>
        <time>2022-08-29T04:42:40Z</time>
      </trkpt>
      <trkpt lat="42.4163770" lon="-2.5999100">
        <ele>568.2</ele>
        <time>2022-08-29T04:42:41Z</time>
      </trkpt>
      <trkpt lat="42.4163630" lon="-2.5999450">
        <ele>568.4</ele>
        <time>2022-08-29T04:42:42Z</time>
      </trkpt>
      <trkpt lat="42.4163460" lon="-2.5999790">
        <ele>568.4</ele>
        <time>2022-08-29T04:42:43Z</time>
      </trkpt>
      <trkpt lat="42.4163270" lon="-2.6000130">
        <ele>568.6</ele>
        <time>2022-08-29T04:42:44Z</time>
      </trkpt>
      <trkpt lat="42.4163100" lon="-2.6000490">
        <ele>568.8</ele>
        <time>2022-08-29T04:42:45Z</time>
      </trkpt>
      <trkpt lat="42.4162930" lon="-2.6000840">
        <ele>569.0</ele>
        <time>2022-08-29T04:42:46Z</time>
      </trkpt>
      <trkpt lat="42.4162760" lon="-2.6001180">
        <ele>569.2</ele>
        <time>2022-08-29T04:42:47Z</time>
      </trkpt>
      <trkpt lat="42.4162590" lon="-2.6001530">
        <ele>569.2</ele>
        <time>2022-08-29T04:42:48Z</time>
      </trkpt>
      <trkpt lat="42.4162420" lon="-2.6001890">
        <ele>569.4</ele>
        <time>2022-08-29T04:42:49Z</time>
      </trkpt>
      <trkpt lat="42.4162250" lon="-2.6002270">
        <ele>569.4</ele>
        <time>2022-08-29T04:42:50Z</time>
      </trkpt>
      <trkpt lat="42.4162070" lon="-2.6002650">
        <ele>569.2</ele>
        <time>2022-08-29T04:42:51Z</time>
      </trkpt>
      <trkpt lat="42.4161880" lon="-2.6003030">
        <ele>569.4</ele>
        <time>2022-08-29T04:42:52Z</time>
      </trkpt>
      <trkpt lat="42.4161720" lon="-2.6003410">
        <ele>569.6</ele>
        <time>2022-08-29T04:42:53Z</time>
      </trkpt>
      <trkpt lat="42.4161550" lon="-2.6003790">
        <ele>569.8</ele>
        <time>2022-08-29T04:42:54Z</time>
      </trkpt>
      <trkpt lat="42.4161380" lon="-2.6004130">
        <ele>569.8</ele>
        <time>2022-08-29T04:42:55Z</time>
      </trkpt>
      <trkpt lat="42.4161210" lon="-2.6004500">
        <ele>570.0</ele>
        <time>2022-08-29T04:42:56Z</time>
      </trkpt>
      <trkpt lat="42.4161030" lon="-2.6004870">
        <ele>570.0</ele>
        <time>2022-08-29T04:42:57Z</time>
      </trkpt>
      <trkpt lat="42.4160850" lon="-2.6005250">
        <ele>570.0</ele>
        <time>2022-08-29T04:42:58Z</time>
      </trkpt>
      <trkpt lat="42.4160690" lon="-2.6005630">
        <ele>570.2</ele>
        <time>2022-08-29T04:42:59Z</time>
      </trkpt>
      <trkpt lat="42.4160540" lon="-2.6006000">
        <ele>570.2</ele>
        <time>2022-08-29T04:43:00Z</time>
      </trkpt>
      <trkpt lat="42.4160380" lon="-2.6006370">
        <ele>570.2</ele>
        <time>2022-08-29T04:43:01Z</time>
      </trkpt>
      <trkpt lat="42.4160210" lon="-2.6006750">
        <ele>570.2</ele>
        <time>2022-08-29T04:43:02Z</time>
      </trkpt>
      <trkpt lat="42.4160050" lon="-2.6007130">
        <ele>570.4</ele>
        <time>2022-08-29T04:43:03Z</time>
      </trkpt>
      <trkpt lat="42.4159910" lon="-2.6007500">
        <ele>570.4</ele>
        <time>2022-08-29T04:43:04Z</time>
      </trkpt>
      <trkpt lat="42.4159760" lon="-2.6007880">
        <ele>570.6</ele>
        <time>2022-08-29T04:43:05Z</time>
      </trkpt>
      <trkpt lat="42.4159600" lon="-2.6008280">
        <ele>570.8</ele>
        <time>2022-08-29T04:43:06Z</time>
      </trkpt>
      <trkpt lat="42.4159460" lon="-2.6008680">
        <ele>570.8</ele>
        <time>2022-08-29T04:43:07Z</time>
      </trkpt>
      <trkpt lat="42.4159330" lon="-2.6009050">
        <ele>570.8</ele>
        <time>2022-08-29T04:43:08Z</time>
      </trkpt>
      <trkpt lat="42.4159200" lon="-2.6009410">
        <ele>571.0</ele>
        <time>2022-08-29T04:43:09Z</time>
      </trkpt>
      <trkpt lat="42.4159080" lon="-2.6009780">
        <ele>571.2</ele>
        <time>2022-08-29T04:43:10Z</time>
      </trkpt>
      <trkpt lat="42.4158970" lon="-2.6010180">
        <ele>571.2</ele>
        <time>2022-08-29T04:43:11Z</time>
      </trkpt>
      <trkpt lat="42.4158860" lon="-2.6010600">
        <ele>571.0</ele>
        <time>2022-08-29T04:43:12Z</time>
      </trkpt>
      <trkpt lat="42.4158730" lon="-2.6011010">
        <ele>571.0</ele>
        <time>2022-08-29T04:43:13Z</time>
      </trkpt>
      <trkpt lat="42.4158600" lon="-2.6011410">
        <ele>571.2</ele>
        <time>2022-08-29T04:43:14Z</time>
      </trkpt>
      <trkpt lat="42.4158460" lon="-2.6011800">
        <ele>571.2</ele>
        <time>2022-08-29T04:43:15Z</time>
      </trkpt>
      <trkpt lat="42.4158310" lon="-2.6012180">
        <ele>571.2</ele>
        <time>2022-08-29T04:43:16Z</time>
      </trkpt>
      <trkpt lat="42.4158160" lon="-2.6012540">
        <ele>571.4</ele>
        <time>2022-08-29T04:43:17Z</time>
      </trkpt>
      <trkpt lat="42.4158000" lon="-2.6012920">
        <ele>571.4</ele>
        <time>2022-08-29T04:43:18Z</time>
      </trkpt>
      <trkpt lat="42.4157870" lon="-2.6013300">
        <ele>571.4</ele>
        <time>2022-08-29T04:43:19Z</time>
      </trkpt>
      <trkpt lat="42.4157740" lon="-2.6013690">
        <ele>571.8</ele>
        <time>2022-08-29T04:43:20Z</time>
      </trkpt>
      <trkpt lat="42.4157610" lon="-2.6014090">
        <ele>571.8</ele>
        <time>2022-08-29T04:43:21Z</time>
      </trkpt>
      <trkpt lat="42.4157480" lon="-2.6014490">
        <ele>571.8</ele>
        <time>2022-08-29T04:43:22Z</time>
      </trkpt>
      <trkpt lat="42.4157340" lon="-2.6014880">
        <ele>572.2</ele>
        <time>2022-08-29T04:43:23Z</time>
      </trkpt>
      <trkpt lat="42.4157190" lon="-2.6015260">
        <ele>572.2</ele>
        <time>2022-08-29T04:43:24Z</time>
      </trkpt>
      <trkpt lat="42.4157050" lon="-2.6015650">
        <ele>572.2</ele>
        <time>2022-08-29T04:43:25Z</time>
      </trkpt>
      <trkpt lat="42.4156900" lon="-2.6016040">
        <ele>572.2</ele>
        <time>2022-08-29T04:43:26Z</time>
      </trkpt>
      <trkpt lat="42.4156750" lon="-2.6016430">
        <ele>572.4</ele>
        <time>2022-08-29T04:43:27Z</time>
      </trkpt>
      <trkpt lat="42.4156600" lon="-2.6016830">
        <ele>572.4</ele>
        <time>2022-08-29T04:43:28Z</time>
      </trkpt>
      <trkpt lat="42.4156450" lon="-2.6017220">
        <ele>572.4</ele>
        <time>2022-08-29T04:43:29Z</time>
      </trkpt>
      <trkpt lat="42.4156290" lon="-2.6017630">
        <ele>572.4</ele>
        <time>2022-08-29T04:43:30Z</time>
      </trkpt>
      <trkpt lat="42.4156130" lon="-2.6018050">
        <ele>572.6</ele>
        <time>2022-08-29T04:43:31Z</time>
      </trkpt>
      <trkpt lat="42.4155990" lon="-2.6018480">
        <ele>572.6</ele>
        <time>2022-08-29T04:43:32Z</time>
      </trkpt>
      <trkpt lat="42.4155840" lon="-2.6018900">
        <ele>572.8</ele>
        <time>2022-08-29T04:43:33Z</time>
      </trkpt>
      <trkpt lat="42.4155690" lon="-2.6019320">
        <ele>572.8</ele>
        <time>2022-08-29T04:43:34Z</time>
      </trkpt>
      <trkpt lat="42.4155540" lon="-2.6019720">
        <ele>572.8</ele>
        <time>2022-08-29T04:43:35Z</time>
      </trkpt>
      <trkpt lat="42.4155390" lon="-2.6020120">
        <ele>572.8</ele>
        <time>2022-08-29T04:43:36Z</time>
      </trkpt>
      <trkpt lat="42.4155250" lon="-2.6020500">
        <ele>573.0</ele>
        <time>2022-08-29T04:43:37Z</time>
      </trkpt>
      <trkpt lat="42.4155100" lon="-2.6020890">
        <ele>572.8</ele>
        <time>2022-08-29T04:43:38Z</time>
      </trkpt>
      <trkpt lat="42.4154950" lon="-2.6021280">
        <ele>572.8</ele>
        <time>2022-08-29T04:43:39Z</time>
      </trkpt>
      <trkpt lat="42.4154800" lon="-2.6021670">
        <ele>573.0</ele>
        <time>2022-08-29T04:43:40Z</time>
      </trkpt>
      <trkpt lat="42.4154650" lon="-2.6022060">
        <ele>573.0</ele>
        <time>2022-08-29T04:43:41Z</time>
      </trkpt>
      <trkpt lat="42.4154500" lon="-2.6022430">
        <ele>573.2</ele>
        <time>2022-08-29T04:43:42Z</time>
      </trkpt>
      <trkpt lat="42.4154340" lon="-2.6022790">
        <ele>573.2</ele>
        <time>2022-08-29T04:43:43Z</time>
      </trkpt>
      <trkpt lat="42.4154190" lon="-2.6023170">
        <ele>573.2</ele>
        <time>2022-08-29T04:43:44Z</time>
      </trkpt>
      <trkpt lat="42.4154050" lon="-2.6023560">
        <ele>573.2</ele>
        <time>2022-08-29T04:43:45Z</time>
      </trkpt>
      <trkpt lat="42.4153910" lon="-2.6023950">
        <ele>573.2</ele>
        <time>2022-08-29T04:43:46Z</time>
      </trkpt>
      <trkpt lat="42.4153770" lon="-2.6024350">
        <ele>573.4</ele>
        <time>2022-08-29T04:43:47Z</time>
      </trkpt>
      <trkpt lat="42.4153630" lon="-2.6024740">
        <ele>573.6</ele>
        <time>2022-08-29T04:43:48Z</time>
      </trkpt>
      <trkpt lat="42.4153490" lon="-2.6025130">
        <ele>573.6</ele>
        <time>2022-08-29T04:43:49Z</time>
      </trkpt>
      <trkpt lat="42.4153340" lon="-2.6025500">
        <ele>573.6</ele>
        <time>2022-08-29T04:43:50Z</time>
      </trkpt>
      <trkpt lat="42.4153190" lon="-2.6025870">
        <ele>573.8</ele>
        <time>2022-08-29T04:43:51Z</time>
      </trkpt>
      <trkpt lat="42.4153060" lon="-2.6026250">
        <ele>574.0</ele>
        <time>2022-08-29T04:43:52Z</time>
      </trkpt>
      <trkpt lat="42.4152930" lon="-2.6026630">
        <ele>574.0</ele>
        <time>2022-08-29T04:43:53Z</time>
      </trkpt>
      <trkpt lat="42.4152790" lon="-2.6027020">
        <ele>573.8</ele>
        <time>2022-08-29T04:43:54Z</time>
      </trkpt>
      <trkpt lat="42.4152650" lon="-2.6027400">
        <ele>574.0</ele>
        <time>2022-08-29T04:43:55Z</time>
      </trkpt>
      <trkpt lat="42.4152510" lon="-2.6027810">
        <ele>574.0</ele>
        <time>2022-08-29T04:43:56Z</time>
      </trkpt>
      <trkpt lat="42.4152360" lon="-2.6028200">
        <ele>574.2</ele>
        <time>2022-08-29T04:43:57Z</time>
      </trkpt>
      <trkpt lat="42.4152230" lon="-2.6028610">
        <ele>574.2</ele>
        <time>2022-08-29T04:43:58Z</time>
      </trkpt>
      <trkpt lat="42.4152090" lon="-2.6029020">
        <ele>574.4</ele>
        <time>2022-08-29T04:43:59Z</time>
      </trkpt>
      <trkpt lat="42.4151940" lon="-2.6029440">
        <ele>574.4</ele>
        <time>2022-08-29T04:44:00Z</time>
      </trkpt>
      <trkpt lat="42.4151810" lon="-2.6029880">
        <ele>574.4</ele>
        <time>2022-08-29T04:44:01Z</time>
      </trkpt>
      <trkpt lat="42.4151680" lon="-2.6030320">
        <ele>574.4</ele>
        <time>2022-08-29T04:44:02Z</time>
      </trkpt>
      <trkpt lat="42.4151550" lon="-2.6030730">
        <ele>574.4</ele>
        <time>2022-08-29T04:44:03Z</time>
      </trkpt>
      <trkpt lat="42.4151390" lon="-2.6031150">
        <ele>574.4</ele>
        <time>2022-08-29T04:44:04Z</time>
      </trkpt>
      <trkpt lat="42.4151230" lon="-2.6031560">
        <ele>574.6</ele>
        <time>2022-08-29T04:44:05Z</time>
      </trkpt>
      <trkpt lat="42.4151080" lon="-2.6031960">
        <ele>574.6</ele>
        <time>2022-08-29T04:44:06Z</time>
      </trkpt>
      <trkpt lat="42.4150940" lon="-2.6032370">
        <ele>574.6</ele>
        <time>2022-08-29T04:44:07Z</time>
      </trkpt>
      <trkpt lat="42.4150820" lon="-2.6032790">
        <ele>574.8</ele>
        <time>2022-08-29T04:44:08Z</time>
      </trkpt>
      <trkpt lat="42.4150690" lon="-2.6033200">
        <ele>574.8</ele>
        <time>2022-08-29T04:44:09Z</time>
      </trkpt>
      <trkpt lat="42.4150540" lon="-2.6033600">
        <ele>574.8</ele>
        <time>2022-08-29T04:44:10Z</time>
      </trkpt>
      <trkpt lat="42.4150380" lon="-2.6034010">
        <ele>575.0</ele>
        <time>2022-08-29T04:44:11Z</time>
      </trkpt>
      <trkpt lat="42.4150230" lon="-2.6034420">
        <ele>575.0</ele>
        <time>2022-08-29T04:44:12Z</time>
      </trkpt>
      <trkpt lat="42.4150070" lon="-2.6034830">
        <ele>575.2</ele>
        <time>2022-08-29T04:44:13Z</time>
      </trkpt>
      <trkpt lat="42.4149900" lon="-2.6035230">
        <ele>575.0</ele>
        <time>2022-08-29T04:44:14Z</time>
      </trkpt>
      <trkpt lat="42.4149750" lon="-2.6035630">
        <ele>575.2</ele>
        <time>2022-08-29T04:44:15Z</time>
      </trkpt>
      <trkpt lat="42.4149600" lon="-2.6036010">
        <ele>575.2</ele>
        <time>2022-08-29T04:44:16Z</time>
      </trkpt>
      <trkpt lat="42.4149440" lon="-2.6036380">
        <ele>575.4</ele>
        <time>2022-08-29T04:44:17Z</time>
      </trkpt>
      <trkpt lat="42.4149290" lon="-2.6036750">
        <ele>575.4</ele>
        <time>2022-08-29T04:44:18Z</time>
      </trkpt>
      <trkpt lat="42.4149150" lon="-2.6037140">
        <ele>575.4</ele>
        <time>2022-08-29T04:44:19Z</time>
      </trkpt>
      <trkpt lat="42.4149010" lon="-2.6037530">
        <ele>575.4</ele>
        <time>2022-08-29T04:44:20Z</time>
      </trkpt>
      <trkpt lat="42.4148870" lon="-2.6037940">
        <ele>575.6</ele>
        <time>2022-08-29T04:44:21Z</time>
      </trkpt>
      <trkpt lat="42.4148720" lon="-2.6038350">
        <ele>575.6</ele>
        <time>2022-08-29T04:44:22Z</time>
      </trkpt>
      <trkpt lat="42.4148570" lon="-2.6038760">
        <ele>575.6</ele>
        <time>2022-08-29T04:44:23Z</time>
      </trkpt>
      <trkpt lat="42.4148450" lon="-2.6039180">
        <ele>575.6</ele>
        <time>2022-08-29T04:44:24Z</time>
      </trkpt>
      <trkpt lat="42.4148340" lon="-2.6039580">
        <ele>575.8</ele>
        <time>2022-08-29T04:44:25Z</time>
      </trkpt>
      <trkpt lat="42.4148230" lon="-2.6039980">
        <ele>575.8</ele>
        <time>2022-08-29T04:44:26Z</time>
      </trkpt>
      <trkpt lat="42.4148100" lon="-2.6040380">
        <ele>575.6</ele>
        <time>2022-08-29T04:44:27Z</time>
      </trkpt>
      <trkpt lat="42.4147980" lon="-2.6040770">
        <ele>576.0</ele>
        <time>2022-08-29T04:44:28Z</time>
      </trkpt>
      <trkpt lat="42.4147870" lon="-2.6041180">
        <ele>576.0</ele>
        <time>2022-08-29T04:44:29Z</time>
      </trkpt>
      <trkpt lat="42.4147740" lon="-2.6041610">
        <ele>576.2</ele>
        <time>2022-08-29T04:44:30Z</time>
      </trkpt>
      <trkpt lat="42.4147600" lon="-2.6042010">
        <ele>576.2</ele>
        <time>2022-08-29T04:44:31Z</time>
      </trkpt>
      <trkpt lat="42.4147450" lon="-2.6042420">
        <ele>576.4</ele>
        <time>2022-08-29T04:44:32Z</time>
      </trkpt>
      <trkpt lat="42.4147290" lon="-2.6042820">
        <ele>576.6</ele>
        <time>2022-08-29T04:44:33Z</time>
      </trkpt>
      <trkpt lat="42.4147130" lon="-2.6043220">
        <ele>576.6</ele>
        <time>2022-08-29T04:44:34Z</time>
      </trkpt>
      <trkpt lat="42.4146980" lon="-2.6043630">
        <ele>576.6</ele>
        <time>2022-08-29T04:44:35Z</time>
      </trkpt>
      <trkpt lat="42.4146850" lon="-2.6044040">
        <ele>576.8</ele>
        <time>2022-08-29T04:44:36Z</time>
      </trkpt>
      <trkpt lat="42.4146710" lon="-2.6044460">
        <ele>576.8</ele>
        <time>2022-08-29T04:44:37Z</time>
      </trkpt>
      <trkpt lat="42.4146590" lon="-2.6044880">
        <ele>577.0</ele>
        <time>2022-08-29T04:44:38Z</time>
      </trkpt>
      <trkpt lat="42.4146450" lon="-2.6045290">
        <ele>577.2</ele>
        <time>2022-08-29T04:44:39Z</time>
      </trkpt>
      <trkpt lat="42.4146290" lon="-2.6045680">
        <ele>577.2</ele>
        <time>2022-08-29T04:44:40Z</time>
      </trkpt>
      <trkpt lat="42.4146110" lon="-2.6046090">
        <ele>577.4</ele>
        <time>2022-08-29T04:44:41Z</time>
      </trkpt>
      <trkpt lat="42.4145940" lon="-2.6046540">
        <ele>577.4</ele>
        <time>2022-08-29T04:44:42Z</time>
      </trkpt>
      <trkpt lat="42.4145770" lon="-2.6047010">
        <ele>577.6</ele>
        <time>2022-08-29T04:44:43Z</time>
      </trkpt>
      <trkpt lat="42.4145610" lon="-2.6047450">
        <ele>577.6</ele>
        <time>2022-08-29T04:44:44Z</time>
      </trkpt>
      <trkpt lat="42.4145430" lon="-2.6047890">
        <ele>577.6</ele>
        <time>2022-08-29T04:44:45Z</time>
      </trkpt>
      <trkpt lat="42.4145260" lon="-2.6048340">
        <ele>577.8</ele>
        <time>2022-08-29T04:44:46Z</time>
      </trkpt>
      <trkpt lat="42.4145100" lon="-2.6048770">
        <ele>577.8</ele>
        <time>2022-08-29T04:44:47Z</time>
      </trkpt>
      <trkpt lat="42.4144930" lon="-2.6049200">
        <ele>578.0</ele>
        <time>2022-08-29T04:44:48Z</time>
      </trkpt>
      <trkpt lat="42.4144760" lon="-2.6049640">
        <ele>578.0</ele>
        <time>2022-08-29T04:44:49Z</time>
      </trkpt>
      <trkpt lat="42.4144590" lon="-2.6050080">
        <ele>578.0</ele>
        <time>2022-08-29T04:44:50Z</time>
      </trkpt>
      <trkpt lat="42.4144420" lon="-2.6050510">
        <ele>578.0</ele>
        <time>2022-08-29T04:44:51Z</time>
      </trkpt>
      <trkpt lat="42.4144250" lon="-2.6050950">
        <ele>578.0</ele>
        <time>2022-08-29T04:44:52Z</time>
      </trkpt>
      <trkpt lat="42.4144090" lon="-2.6051380">
        <ele>578.2</ele>
        <time>2022-08-29T04:44:53Z</time>
      </trkpt>
      <trkpt lat="42.4143930" lon="-2.6051830">
        <ele>578.2</ele>
        <time>2022-08-29T04:44:54Z</time>
      </trkpt>
      <trkpt lat="42.4143770" lon="-2.6052270">
        <ele>578.2</ele>
        <time>2022-08-29T04:44:55Z</time>
      </trkpt>
      <trkpt lat="42.4143610" lon="-2.6052720">
        <ele>578.2</ele>
        <time>2022-08-29T04:44:56Z</time>
      </trkpt>
      <trkpt lat="42.4143470" lon="-2.6053170">
        <ele>578.4</ele>
        <time>2022-08-29T04:44:57Z</time>
      </trkpt>
      <trkpt lat="42.4143320" lon="-2.6053630">
        <ele>578.4</ele>
        <time>2022-08-29T04:44:58Z</time>
      </trkpt>
      <trkpt lat="42.4143150" lon="-2.6054070">
        <ele>578.4</ele>
        <time>2022-08-29T04:44:59Z</time>
      </trkpt>
      <trkpt lat="42.4142970" lon="-2.6054510">
        <ele>578.6</ele>
        <time>2022-08-29T04:45:00Z</time>
      </trkpt>
      <trkpt lat="42.4142800" lon="-2.6054960">
        <ele>578.6</ele>
        <time>2022-08-29T04:45:01Z</time>
      </trkpt>
      <trkpt lat="42.4142650" lon="-2.6055390">
        <ele>578.6</ele>
        <time>2022-08-29T04:45:02Z</time>
      </trkpt>
      <trkpt lat="42.4142490" lon="-2.6055830">
        <ele>578.6</ele>
        <time>2022-08-29T04:45:03Z</time>
      </trkpt>
      <trkpt lat="42.4142330" lon="-2.6056270">
        <ele>578.8</ele>
        <time>2022-08-29T04:45:04Z</time>
      </trkpt>
      <trkpt lat="42.4142180" lon="-2.6056720">
        <ele>578.6</ele>
        <time>2022-08-29T04:45:05Z</time>
      </trkpt>
      <trkpt lat="42.4142040" lon="-2.6057160">
        <ele>579.0</ele>
        <time>2022-08-29T04:45:06Z</time>
      </trkpt>
      <trkpt lat="42.4141890" lon="-2.6057610">
        <ele>579.0</ele>
        <time>2022-08-29T04:45:07Z</time>
      </trkpt>
      <trkpt lat="42.4141730" lon="-2.6058050">
        <ele>578.8</ele>
        <time>2022-08-29T04:45:08Z</time>
      </trkpt>
      <trkpt lat="42.4141560" lon="-2.6058480">
        <ele>579.0</ele>
        <time>2022-08-29T04:45:09Z</time>
      </trkpt>
      <trkpt lat="42.4141390" lon="-2.6058920">
        <ele>579.0</ele>
        <time>2022-08-29T04:45:10Z</time>
      </trkpt>
      <trkpt lat="42.4141220" lon="-2.6059350">
        <ele>579.0</ele>
        <time>2022-08-29T04:45:11Z</time>
      </trkpt>
      <trkpt lat="42.4141080" lon="-2.6059770">
        <ele>579.2</ele>
        <time>2022-08-29T04:45:12Z</time>
      </trkpt>
      <trkpt lat="42.4140950" lon="-2.6060200">
        <ele>579.2</ele>
        <time>2022-08-29T04:45:13Z</time>
      </trkpt>
      <trkpt lat="42.4140810" lon="-2.6060600">
        <ele>579.4</ele>
        <time>2022-08-29T04:45:14Z</time>
      </trkpt>
      <trkpt lat="42.4140670" lon="-2.6060990">
        <ele>579.4</ele>
        <time>2022-08-29T04:45:15Z</time>
      </trkpt>
      <trkpt lat="42.4140520" lon="-2.6061380">
        <ele>579.6</ele>
        <time>2022-08-29T04:45:16Z</time>
      </trkpt>
      <trkpt lat="42.4140380" lon="-2.6061760">
        <ele>579.4</ele>
        <time>2022-08-29T04:45:17Z</time>
      </trkpt>
      <trkpt lat="42.4140230" lon="-2.6062160">
        <ele>579.6</ele>
        <time>2022-08-29T04:45:18Z</time>
      </trkpt>
      <trkpt lat="42.4140080" lon="-2.6062550">
        <ele>579.6</ele>
        <time>2022-08-29T04:45:19Z</time>
      </trkpt>
      <trkpt lat="42.4139930" lon="-2.6062970">
        <ele>579.8</ele>
        <time>2022-08-29T04:45:20Z</time>
      </trkpt>
      <trkpt lat="42.4139780" lon="-2.6063390">
        <ele>580.0</ele>
        <time>2022-08-29T04:45:21Z</time>
      </trkpt>
      <trkpt lat="42.4139630" lon="-2.6063820">
        <ele>580.0</ele>
        <time>2022-08-29T04:45:22Z</time>
      </trkpt>
      <trkpt lat="42.4139500" lon="-2.6064250">
        <ele>580.2</ele>
        <time>2022-08-29T04:45:23Z</time>
      </trkpt>
      <trkpt lat="42.4139350" lon="-2.6064670">
        <ele>580.2</ele>
        <time>2022-08-29T04:45:24Z</time>
      </trkpt>
      <trkpt lat="42.4139210" lon="-2.6065100">
        <ele>580.2</ele>
        <time>2022-08-29T04:45:25Z</time>
      </trkpt>
      <trkpt lat="42.4139060" lon="-2.6065530">
        <ele>580.2</ele>
        <time>2022-08-29T04:45:26Z</time>
      </trkpt>
      <trkpt lat="42.4138910" lon="-2.6065960">
        <ele>580.2</ele>
        <time>2022-08-29T04:45:27Z</time>
      </trkpt>
      <trkpt lat="42.4138750" lon="-2.6066370">
        <ele>580.4</ele>
        <time>2022-08-29T04:45:28Z</time>
      </trkpt>
      <trkpt lat="42.4138600" lon="-2.6066780">
        <ele>580.6</ele>
        <time>2022-08-29T04:45:29Z</time>
      </trkpt>
      <trkpt lat="42.4138470" lon="-2.6067190">
        <ele>580.6</ele>
        <time>2022-08-29T04:45:30Z</time>
      </trkpt>
      <trkpt lat="42.4138330" lon="-2.6067580">
        <ele>580.8</ele>
        <time>2022-08-29T04:45:31Z</time>
      </trkpt>
      <trkpt lat="42.4138200" lon="-2.6067980">
        <ele>580.8</ele>
        <time>2022-08-29T04:45:32Z</time>
      </trkpt>
      <trkpt lat="42.4138060" lon="-2.6068390">
        <ele>580.8</ele>
        <time>2022-08-29T04:45:33Z</time>
      </trkpt>
      <trkpt lat="42.4137900" lon="-2.6068790">
        <ele>580.8</ele>
        <time>2022-08-29T04:45:34Z</time>
      </trkpt>
      <trkpt lat="42.4137730" lon="-2.6069190">
        <ele>580.8</ele>
        <time>2022-08-29T04:45:35Z</time>
      </trkpt>
      <trkpt lat="42.4137560" lon="-2.6069600">
        <ele>581.0</ele>
        <time>2022-08-29T04:45:36Z</time>
      </trkpt>
      <trkpt lat="42.4137390" lon="-2.6070020">
        <ele>581.0</ele>
        <time>2022-08-29T04:45:37Z</time>
      </trkpt>
      <trkpt lat="42.4137220" lon="-2.6070440">
        <ele>581.2</ele>
        <time>2022-08-29T04:45:38Z</time>
      </trkpt>
      <trkpt lat="42.4137050" lon="-2.6070860">
        <ele>581.2</ele>
        <time>2022-08-29T04:45:39Z</time>
      </trkpt>
      <trkpt lat="42.4136880" lon="-2.6071290">
        <ele>581.2</ele>
        <time>2022-08-29T04:45:40Z</time>
      </trkpt>
      <trkpt lat="42.4136720" lon="-2.6071710">
        <ele>581.2</ele>
        <time>2022-08-29T04:45:41Z</time>
      </trkpt>
      <trkpt lat="42.4136560" lon="-2.6072140">
        <ele>581.2</ele>
        <time>2022-08-29T04:45:42Z</time>
      </trkpt>
      <trkpt lat="42.4136400" lon="-2.6072560">
        <ele>581.4</ele>
        <time>2022-08-29T04:45:43Z</time>
      </trkpt>
      <trkpt lat="42.4136240" lon="-2.6072990">
        <ele>581.6</ele>
        <time>2022-08-29T04:45:44Z</time>
      </trkpt>
      <trkpt lat="42.4136070" lon="-2.6073420">
        <ele>581.4</ele>
        <time>2022-08-29T04:45:45Z</time>
      </trkpt>
      <trkpt lat="42.4135910" lon="-2.6073860">
        <ele>581.6</ele>
        <time>2022-08-29T04:45:46Z</time>
      </trkpt>
      <trkpt lat="42.4135760" lon="-2.6074300">
        <ele>581.8</ele>
        <time>2022-08-29T04:45:47Z</time>
      </trkpt>
      <trkpt lat="42.4135610" lon="-2.6074730">
        <ele>581.8</ele>
        <time>2022-08-29T04:45:48Z</time>
      </trkpt>
      <trkpt lat="42.4135450" lon="-2.6075160">
        <ele>581.8</ele>
        <time>2022-08-29T04:45:49Z</time>
      </trkpt>
      <trkpt lat="42.4135300" lon="-2.6075590">
        <ele>581.8</ele>
        <time>2022-08-29T04:45:50Z</time>
      </trkpt>
      <trkpt lat="42.4135160" lon="-2.6076030">
        <ele>581.8</ele>
        <time>2022-08-29T04:45:51Z</time>
      </trkpt>
      <trkpt lat="42.4135020" lon="-2.6076440">
        <ele>582.0</ele>
        <time>2022-08-29T04:45:52Z</time>
      </trkpt>
      <trkpt lat="42.4134880" lon="-2.6076860">
        <ele>582.0</ele>
        <time>2022-08-29T04:45:53Z</time>
      </trkpt>
      <trkpt lat="42.4134730" lon="-2.6077290">
        <ele>582.2</ele>
        <time>2022-08-29T04:45:54Z</time>
      </trkpt>
      <trkpt lat="42.4134580" lon="-2.6077700">
        <ele>582.2</ele>
        <time>2022-08-29T04:45:55Z</time>
      </trkpt>
      <trkpt lat="42.4134420" lon="-2.6078120">
        <ele>582.2</ele>
        <time>2022-08-29T04:45:56Z</time>
      </trkpt>
      <trkpt lat="42.4134280" lon="-2.6078550">
        <ele>582.4</ele>
        <time>2022-08-29T04:45:57Z</time>
      </trkpt>
      <trkpt lat="42.4134140" lon="-2.6078980">
        <ele>582.6</ele>
        <time>2022-08-29T04:45:58Z</time>
      </trkpt>
      <trkpt lat="42.4134010" lon="-2.6079410">
        <ele>582.6</ele>
        <time>2022-08-29T04:45:59Z</time>
      </trkpt>
      <trkpt lat="42.4133870" lon="-2.6079840">
        <ele>582.8</ele>
        <time>2022-08-29T04:46:00Z</time>
      </trkpt>
      <trkpt lat="42.4133720" lon="-2.6080250">
        <ele>583.0</ele>
        <time>2022-08-29T04:46:01Z</time>
      </trkpt>
      <trkpt lat="42.4133570" lon="-2.6080660">
        <ele>583.0</ele>
        <time>2022-08-29T04:46:02Z</time>
      </trkpt>
      <trkpt lat="42.4133430" lon="-2.6081080">
        <ele>583.0</ele>
        <time>2022-08-29T04:46:03Z</time>
      </trkpt>
      <trkpt lat="42.4133290" lon="-2.6081500">
        <ele>583.2</ele>
        <time>2022-08-29T04:46:04Z</time>
      </trkpt>
      <trkpt lat="42.4133140" lon="-2.6081920">
        <ele>583.4</ele>
        <time>2022-08-29T04:46:05Z</time>
      </trkpt>
      <trkpt lat="42.4132990" lon="-2.6082330">
        <ele>583.4</ele>
        <time>2022-08-29T04:46:06Z</time>
      </trkpt>
      <trkpt lat="42.4132830" lon="-2.6082740">
        <ele>583.4</ele>
        <time>2022-08-29T04:46:07Z</time>
      </trkpt>
      <trkpt lat="42.4132690" lon="-2.6083170">
        <ele>583.4</ele>
        <time>2022-08-29T04:46:08Z</time>
      </trkpt>
      <trkpt lat="42.4132540" lon="-2.6083610">
        <ele>583.6</ele>
        <time>2022-08-29T04:46:09Z</time>
      </trkpt>
      <trkpt lat="42.4132400" lon="-2.6084050">
        <ele>583.6</ele>
        <time>2022-08-29T04:46:10Z</time>
      </trkpt>
      <trkpt lat="42.4132240" lon="-2.6084490">
        <ele>583.6</ele>
        <time>2022-08-29T04:46:11Z</time>
      </trkpt>
      <trkpt lat="42.4132080" lon="-2.6084920">
        <ele>583.8</ele>
        <time>2022-08-29T04:46:12Z</time>
      </trkpt>
      <trkpt lat="42.4131940" lon="-2.6085350">
        <ele>583.8</ele>
        <time>2022-08-29T04:46:13Z</time>
      </trkpt>
      <trkpt lat="42.4131790" lon="-2.6085790">
        <ele>583.8</ele>
        <time>2022-08-29T04:46:14Z</time>
      </trkpt>
      <trkpt lat="42.4131640" lon="-2.6086220">
        <ele>583.8</ele>
        <time>2022-08-29T04:46:15Z</time>
      </trkpt>
      <trkpt lat="42.4131490" lon="-2.6086640">
        <ele>584.0</ele>
        <time>2022-08-29T04:46:16Z</time>
      </trkpt>
      <trkpt lat="42.4131350" lon="-2.6087060">
        <ele>584.0</ele>
        <time>2022-08-29T04:46:17Z</time>
      </trkpt>
      <trkpt lat="42.4131210" lon="-2.6087490">
        <ele>584.0</ele>
        <time>2022-08-29T04:46:18Z</time>
      </trkpt>
      <trkpt lat="42.4131070" lon="-2.6087930">
        <ele>584.2</ele>
        <time>2022-08-29T04:46:19Z</time>
      </trkpt>
      <trkpt lat="42.4130920" lon="-2.6088360">
        <ele>584.2</ele>
        <time>2022-08-29T04:46:20Z</time>
      </trkpt>
      <trkpt lat="42.4130790" lon="-2.6088790">
        <ele>584.4</ele>
        <time>2022-08-29T04:46:21Z</time>
      </trkpt>
      <trkpt lat="42.4130670" lon="-2.6089220">
        <ele>584.4</ele>
        <time>2022-08-29T04:46:22Z</time>
      </trkpt>
      <trkpt lat="42.4130560" lon="-2.6089660">
        <ele>584.6</ele>
        <time>2022-08-29T04:46:23Z</time>
      </trkpt>
      <trkpt lat="42.4130440" lon="-2.6090080">
        <ele>584.6</ele>
        <time>2022-08-29T04:46:24Z</time>
      </trkpt>
      <trkpt lat="42.4130310" lon="-2.6090500">
        <ele>584.8</ele>
        <time>2022-08-29T04:46:25Z</time>
      </trkpt>
      <trkpt lat="42.4130180" lon="-2.6090900">
        <ele>584.8</ele>
        <time>2022-08-29T04:46:26Z</time>
      </trkpt>
      <trkpt lat="42.4130040" lon="-2.6091340">
        <ele>585.0</ele>
        <time>2022-08-29T04:46:27Z</time>
      </trkpt>
      <trkpt lat="42.4129900" lon="-2.6091780">
        <ele>585.2</ele>
        <time>2022-08-29T04:46:28Z</time>
      </trkpt>
      <trkpt lat="42.4129770" lon="-2.6092210">
        <ele>585.2</ele>
        <time>2022-08-29T04:46:29Z</time>
      </trkpt>
      <trkpt lat="42.4129650" lon="-2.6092640">
        <ele>585.4</ele>
        <time>2022-08-29T04:46:30Z</time>
      </trkpt>
      <trkpt lat="42.4129520" lon="-2.6093060">
        <ele>585.4</ele>
        <time>2022-08-29T04:46:31Z</time>
      </trkpt>
      <trkpt lat="42.4129410" lon="-2.6093500">
        <ele>585.6</ele>
        <time>2022-08-29T04:46:32Z</time>
      </trkpt>
      <trkpt lat="42.4129300" lon="-2.6093940">
        <ele>585.8</ele>
        <time>2022-08-29T04:46:33Z</time>
      </trkpt>
      <trkpt lat="42.4129170" lon="-2.6094350">
        <ele>586.0</ele>
        <time>2022-08-29T04:46:34Z</time>
      </trkpt>
      <trkpt lat="42.4129050" lon="-2.6094770">
        <ele>586.0</ele>
        <time>2022-08-29T04:46:35Z</time>
      </trkpt>
      <trkpt lat="42.4128930" lon="-2.6095190">
        <ele>586.2</ele>
        <time>2022-08-29T04:46:36Z</time>
      </trkpt>
      <trkpt lat="42.4128810" lon="-2.6095620">
        <ele>586.2</ele>
        <time>2022-08-29T04:46:37Z</time>
      </trkpt>
      <trkpt lat="42.4128690" lon="-2.6096040">
        <ele>586.4</ele>
        <time>2022-08-29T04:46:38Z</time>
      </trkpt>
      <trkpt lat="42.4128580" lon="-2.6096470">
        <ele>586.6</ele>
        <time>2022-08-29T04:46:39Z</time>
      </trkpt>
      <trkpt lat="42.4128450" lon="-2.6096900">
        <ele>586.6</ele>
        <time>2022-08-29T04:46:40Z</time>
      </trkpt>
      <trkpt lat="42.4128330" lon="-2.6097330">
        <ele>586.6</ele>
        <time>2022-08-29T04:46:41Z</time>
      </trkpt>
      <trkpt lat="42.4128220" lon="-2.6097760">
        <ele>586.6</ele>
        <time>2022-08-29T04:46:42Z</time>
      </trkpt>
      <trkpt lat="42.4128120" lon="-2.6098170">
        <ele>587.0</ele>
        <time>2022-08-29T04:46:43Z</time>
      </trkpt>
      <trkpt lat="42.4128010" lon="-2.6098590">
        <ele>587.0</ele>
        <time>2022-08-29T04:46:44Z</time>
      </trkpt>
      <trkpt lat="42.4127920" lon="-2.6098990">
        <ele>587.0</ele>
        <time>2022-08-29T04:46:45Z</time>
      </trkpt>
      <trkpt lat="42.4127830" lon="-2.6099380">
        <ele>587.0</ele>
        <time>2022-08-29T04:46:46Z</time>
      </trkpt>
      <trkpt lat="42.4127730" lon="-2.6099780">
        <ele>587.2</ele>
        <time>2022-08-29T04:46:47Z</time>
      </trkpt>
      <trkpt lat="42.4127630" lon="-2.6100170">
        <ele>587.2</ele>
        <time>2022-08-29T04:46:48Z</time>
      </trkpt>
      <trkpt lat="42.4127530" lon="-2.6100540">
        <ele>587.4</ele>
        <time>2022-08-29T04:46:49Z</time>
      </trkpt>
      <trkpt lat="42.4127430" lon="-2.6100930">
        <ele>587.4</ele>
        <time>2022-08-29T04:46:50Z</time>
      </trkpt>
      <trkpt lat="42.4127350" lon="-2.6101310">
        <ele>587.2</ele>
        <time>2022-08-29T04:46:51Z</time>
      </trkpt>
      <trkpt lat="42.4127260" lon="-2.6101680">
        <ele>587.4</ele>
        <time>2022-08-29T04:46:52Z</time>
      </trkpt>
      <trkpt lat="42.4127180" lon="-2.6102040">
        <ele>587.4</ele>
        <time>2022-08-29T04:46:53Z</time>
      </trkpt>
      <trkpt lat="42.4127100" lon="-2.6102390">
        <ele>587.6</ele>
        <time>2022-08-29T04:46:54Z</time>
      </trkpt>
      <trkpt lat="42.4127020" lon="-2.6102750">
        <ele>587.8</ele>
        <time>2022-08-29T04:46:55Z</time>
      </trkpt>
      <trkpt lat="42.4126950" lon="-2.6103110">
        <ele>588.0</ele>
        <time>2022-08-29T04:46:56Z</time>
      </trkpt>
      <trkpt lat="42.4126860" lon="-2.6103470">
        <ele>588.0</ele>
        <time>2022-08-29T04:46:57Z</time>
      </trkpt>
      <trkpt lat="42.4126790" lon="-2.6103830">
        <ele>588.2</ele>
        <time>2022-08-29T04:46:58Z</time>
      </trkpt>
      <trkpt lat="42.4126720" lon="-2.6104180">
        <ele>588.2</ele>
        <time>2022-08-29T04:46:59Z</time>
      </trkpt>
      <trkpt lat="42.4126650" lon="-2.6104520">
        <ele>588.6</ele>
        <time>2022-08-29T04:47:00Z</time>
      </trkpt>
      <trkpt lat="42.4126570" lon="-2.6104880">
        <ele>588.6</ele>
        <time>2022-08-29T04:47:01Z</time>
      </trkpt>
      <trkpt lat="42.4126500" lon="-2.6105240">
        <ele>589.0</ele>
        <time>2022-08-29T04:47:02Z</time>
      </trkpt>
      <trkpt lat="42.4126410" lon="-2.6105590">
        <ele>589.0</ele>
        <time>2022-08-29T04:47:03Z</time>
      </trkpt>
      <trkpt lat="42.4126330" lon="-2.6105930">
        <ele>589.2</ele>
        <time>2022-08-29T04:47:04Z</time>
      </trkpt>
      <trkpt lat="42.4126240" lon="-2.6106280">
        <ele>589.6</ele>
        <time>2022-08-29T04:47:05Z</time>
      </trkpt>
      <trkpt lat="42.4126140" lon="-2.6106640">
        <ele>589.8</ele>
        <time>2022-08-29T04:47:06Z</time>
      </trkpt>
      <trkpt lat="42.4126070" lon="-2.6106990">
        <ele>590.2</ele>
        <time>2022-08-29T04:47:07Z</time>
      </trkpt>
      <trkpt lat="42.4126000" lon="-2.6107360">
        <ele>590.4</ele>
        <time>2022-08-29T04:47:08Z</time>
      </trkpt>
      <trkpt lat="42.4125930" lon="-2.6107760">
        <ele>590.6</ele>
        <time>2022-08-29T04:47:09Z</time>
      </trkpt>
      <trkpt lat="42.4125860" lon="-2.6108160">
        <ele>590.8</ele>
        <time>2022-08-29T04:47:10Z</time>
      </trkpt>
      <trkpt lat="42.4125770" lon="-2.6108570">
        <ele>591.0</ele>
        <time>2022-08-29T04:47:11Z</time>
      </trkpt>
      <trkpt lat="42.4125680" lon="-2.6108960">
        <ele>591.0</ele>
        <time>2022-08-29T04:47:12Z</time>
      </trkpt>
      <trkpt lat="42.4125590" lon="-2.6109360">
        <ele>591.2</ele>
        <time>2022-08-29T04:47:13Z</time>
      </trkpt>
      <trkpt lat="42.4125500" lon="-2.6109780">
        <ele>591.2</ele>
        <time>2022-08-29T04:47:14Z</time>
      </trkpt>
      <trkpt lat="42.4125420" lon="-2.6110200">
        <ele>591.0</ele>
        <time>2022-08-29T04:47:15Z</time>
      </trkpt>
      <trkpt lat="42.4125360" lon="-2.6110610">
        <ele>591.4</ele>
        <time>2022-08-29T04:47:16Z</time>
      </trkpt>
      <trkpt lat="42.4125300" lon="-2.6111020">
        <ele>591.4</ele>
        <time>2022-08-29T04:47:17Z</time>
      </trkpt>
      <trkpt lat="42.4125240" lon="-2.6111430">
        <ele>591.4</ele>
        <time>2022-08-29T04:47:18Z</time>
      </trkpt>
      <trkpt lat="42.4125170" lon="-2.6111860">
        <ele>591.4</ele>
        <time>2022-08-29T04:47:19Z</time>
      </trkpt>
      <trkpt lat="42.4125080" lon="-2.6112280">
        <ele>591.4</ele>
        <time>2022-08-29T04:47:20Z</time>
      </trkpt>
      <trkpt lat="42.4125000" lon="-2.6112700">
        <ele>591.6</ele>
        <time>2022-08-29T04:47:21Z</time>
      </trkpt>
      <trkpt lat="42.4124900" lon="-2.6113130">
        <ele>591.6</ele>
        <time>2022-08-29T04:47:22Z</time>
      </trkpt>
      <trkpt lat="42.4124810" lon="-2.6113560">
        <ele>591.6</ele>
        <time>2022-08-29T04:47:23Z</time>
      </trkpt>
      <trkpt lat="42.4124730" lon="-2.6113980">
        <ele>591.6</ele>
        <time>2022-08-29T04:47:24Z</time>
      </trkpt>
      <trkpt lat="42.4124660" lon="-2.6114390">
        <ele>591.6</ele>
        <time>2022-08-29T04:47:25Z</time>
      </trkpt>
      <trkpt lat="42.4124570" lon="-2.6114790">
        <ele>591.6</ele>
        <time>2022-08-29T04:47:26Z</time>
      </trkpt>
      <trkpt lat="42.4124480" lon="-2.6115190">
        <ele>591.8</ele>
        <time>2022-08-29T04:47:27Z</time>
      </trkpt>
      <trkpt lat="42.4124370" lon="-2.6115580">
        <ele>592.0</ele>
        <time>2022-08-29T04:47:28Z</time>
      </trkpt>
      <trkpt lat="42.4124260" lon="-2.6115990">
        <ele>592.0</ele>
        <time>2022-08-29T04:47:29Z</time>
      </trkpt>
      <trkpt lat="42.4124170" lon="-2.6116400">
        <ele>592.0</ele>
        <time>2022-08-29T04:47:30Z</time>
      </trkpt>
      <trkpt lat="42.4124100" lon="-2.6116820">
        <ele>592.0</ele>
        <time>2022-08-29T04:47:31Z</time>
      </trkpt>
      <trkpt lat="42.4124060" lon="-2.6117230">
        <ele>592.2</ele>
        <time>2022-08-29T04:47:32Z</time>
      </trkpt>
      <trkpt lat="42.4124000" lon="-2.6117640">
        <ele>592.2</ele>
        <time>2022-08-29T04:47:33Z</time>
      </trkpt>
      <trkpt lat="42.4123930" lon="-2.6118040">
        <ele>592.2</ele>
        <time>2022-08-29T04:47:34Z</time>
      </trkpt>
      <trkpt lat="42.4123880" lon="-2.6118450">
        <ele>592.4</ele>
        <time>2022-08-29T04:47:35Z</time>
      </trkpt>
      <trkpt lat="42.4123830" lon="-2.6118860">
        <ele>592.4</ele>
        <time>2022-08-29T04:47:36Z</time>
      </trkpt>
      <trkpt lat="42.4123750" lon="-2.6119270">
        <ele>592.4</ele>
        <time>2022-08-29T04:47:37Z</time>
      </trkpt>
      <trkpt lat="42.4123680" lon="-2.6119700">
        <ele>592.4</ele>
        <time>2022-08-29T04:47:38Z</time>
      </trkpt>
      <trkpt lat="42.4123620" lon="-2.6120120">
        <ele>592.4</ele>
        <time>2022-08-29T04:47:39Z</time>
      </trkpt>
      <trkpt lat="42.4123570" lon="-2.6120520">
        <ele>592.6</ele>
        <time>2022-08-29T04:47:40Z</time>
      </trkpt>
      <trkpt lat="42.4123520" lon="-2.6120910">
        <ele>592.4</ele>
        <time>2022-08-29T04:47:41Z</time>
      </trkpt>
      <trkpt lat="42.4123460" lon="-2.6121310">
        <ele>592.6</ele>
        <time>2022-08-29T04:47:42Z</time>
      </trkpt>
      <trkpt lat="42.4123410" lon="-2.6121700">
        <ele>592.8</ele>
        <time>2022-08-29T04:47:43Z</time>
      </trkpt>
      <trkpt lat="42.4123360" lon="-2.6122100">
        <ele>592.8</ele>
        <time>2022-08-29T04:47:44Z</time>
      </trkpt>
      <trkpt lat="42.4123290" lon="-2.6122500">
        <ele>593.0</ele>
        <time>2022-08-29T04:47:45Z</time>
      </trkpt>
      <trkpt lat="42.4123230" lon="-2.6122930">
        <ele>593.2</ele>
        <time>2022-08-29T04:47:46Z</time>
      </trkpt>
      <trkpt lat="42.4123160" lon="-2.6123360">
        <ele>593.0</ele>
        <time>2022-08-29T04:47:47Z</time>
      </trkpt>
      <trkpt lat="42.4123090" lon="-2.6123800">
        <ele>593.2</ele>
        <time>2022-08-29T04:47:48Z</time>
      </trkpt>
      <trkpt lat="42.4123030" lon="-2.6124230">
        <ele>593.2</ele>
        <time>2022-08-29T04:47:49Z</time>
      </trkpt>
      <trkpt lat="42.4122960" lon="-2.6124660">
        <ele>593.4</ele>
        <time>2022-08-29T04:47:50Z</time>
      </trkpt>
      <trkpt lat="42.4122900" lon="-2.6125080">
        <ele>593.4</ele>
        <time>2022-08-29T04:47:51Z</time>
      </trkpt>
      <trkpt lat="42.4122840" lon="-2.6125530">
        <ele>593.4</ele>
        <time>2022-08-29T04:47:52Z</time>
      </trkpt>
      <trkpt lat="42.4122780" lon="-2.6125970">
        <ele>593.4</ele>
        <time>2022-08-29T04:47:53Z</time>
      </trkpt>
      <trkpt lat="42.4122710" lon="-2.6126420">
        <ele>593.4</ele>
        <time>2022-08-29T04:47:54Z</time>
      </trkpt>
      <trkpt lat="42.4122660" lon="-2.6126860">
        <ele>593.6</ele>
        <time>2022-08-29T04:47:55Z</time>
      </trkpt>
      <trkpt lat="42.4122600" lon="-2.6127280">
        <ele>593.8</ele>
        <time>2022-08-29T04:47:56Z</time>
      </trkpt>
      <trkpt lat="42.4122570" lon="-2.6127700">
        <ele>594.0</ele>
        <time>2022-08-29T04:47:57Z</time>
      </trkpt>
      <trkpt lat="42.4122540" lon="-2.6128100">
        <ele>594.0</ele>
        <time>2022-08-29T04:47:58Z</time>
      </trkpt>
      <trkpt lat="42.4122500" lon="-2.6128520">
        <ele>594.0</ele>
        <time>2022-08-29T04:47:59Z</time>
      </trkpt>
      <trkpt lat="42.4122470" lon="-2.6128930">
        <ele>594.0</ele>
        <time>2022-08-29T04:48:00Z</time>
      </trkpt>
      <trkpt lat="42.4122440" lon="-2.6129350">
        <ele>594.2</ele>
        <time>2022-08-29T04:48:01Z</time>
      </trkpt>
      <trkpt lat="42.4122420" lon="-2.6129770">
        <ele>594.0</ele>
        <time>2022-08-29T04:48:02Z</time>
      </trkpt>
      <trkpt lat="42.4122400" lon="-2.6130180">
        <ele>594.0</ele>
        <time>2022-08-29T04:48:03Z</time>
      </trkpt>
      <trkpt lat="42.4122390" lon="-2.6130620">
        <ele>594.2</ele>
        <time>2022-08-29T04:48:04Z</time>
      </trkpt>
      <trkpt lat="42.4122370" lon="-2.6131060">
        <ele>594.4</ele>
        <time>2022-08-29T04:48:05Z</time>
      </trkpt>
      <trkpt lat="42.4122350" lon="-2.6131490">
        <ele>594.4</ele>
        <time>2022-08-29T04:48:06Z</time>
      </trkpt>
      <trkpt lat="42.4122330" lon="-2.6131920">
        <ele>594.6</ele>
        <time>2022-08-29T04:48:07Z</time>
      </trkpt>
      <trkpt lat="42.4122290" lon="-2.6132350">
        <ele>594.6</ele>
        <time>2022-08-29T04:48:08Z</time>
      </trkpt>
      <trkpt lat="42.4122260" lon="-2.6132790">
        <ele>594.8</ele>
        <time>2022-08-29T04:48:09Z</time>
      </trkpt>
      <trkpt lat="42.4122220" lon="-2.6133230">
        <ele>594.8</ele>
        <time>2022-08-29T04:48:10Z</time>
      </trkpt>
      <trkpt lat="42.4122190" lon="-2.6133660">
        <ele>595.0</ele>
        <time>2022-08-29T04:48:11Z</time>
      </trkpt>
      <trkpt lat="42.4122160" lon="-2.6134090">
        <ele>595.2</ele>
        <time>2022-08-29T04:48:12Z</time>
      </trkpt>
      <trkpt lat="42.4122140" lon="-2.6134530">
        <ele>595.2</ele>
        <time>2022-08-29T04:48:13Z</time>
      </trkpt>
      <trkpt lat="42.4122130" lon="-2.6134950">
        <ele>595.4</ele>
        <time>2022-08-29T04:48:14Z</time>
      </trkpt>
      <trkpt lat="42.4122110" lon="-2.6135380">
        <ele>595.6</ele>
        <time>2022-08-29T04:48:15Z</time>
      </trkpt>
      <trkpt lat="42.4122110" lon="-2.6135800">
        <ele>595.6</ele>
        <time>2022-08-29T04:48:16Z</time>
      </trkpt>
      <trkpt lat="42.4122110" lon="-2.6136230">
        <ele>595.8</ele>
        <time>2022-08-29T04:48:17Z</time>
      </trkpt>
      <trkpt lat="42.4122110" lon="-2.6136670">
        <ele>595.8</ele>
        <time>2022-08-29T04:48:18Z</time>
      </trkpt>
      <trkpt lat="42.4122090" lon="-2.6137110">
        <ele>595.8</ele>
        <time>2022-08-29T04:48:19Z</time>
      </trkpt>
      <trkpt lat="42.4122060" lon="-2.6137570">
        <ele>595.8</ele>
        <time>2022-08-29T04:48:20Z</time>
      </trkpt>
      <trkpt lat="42.4122040" lon="-2.6138030">
        <ele>596.2</ele>
        <time>2022-08-29T04:48:21Z</time>
      </trkpt>
      <trkpt lat="42.4122020" lon="-2.6138480">
        <ele>596.2</ele>
        <time>2022-08-29T04:48:22Z</time>
      </trkpt>
      <trkpt lat="42.4122000" lon="-2.6138930">
        <ele>596.4</ele>
        <time>2022-08-29T04:48:23Z</time>
      </trkpt>
      <trkpt lat="42.4122000" lon="-2.6139370">
        <ele>596.4</ele>
        <time>2022-08-29T04:48:24Z</time>
      </trkpt>
      <trkpt lat="42.4122010" lon="-2.6139810">
        <ele>596.6</ele>
        <time>2022-08-29T04:48:25Z</time>
      </trkpt>
      <trkpt lat="42.4122000" lon="-2.6140240">
        <ele>596.6</ele>
        <time>2022-08-29T04:48:26Z</time>
      </trkpt>
      <trkpt lat="42.4121980" lon="-2.6140670">
        <ele>596.6</ele>
        <time>2022-08-29T04:48:27Z</time>
      </trkpt>
      <trkpt lat="42.4121930" lon="-2.6141110">
        <ele>596.6</ele>
        <time>2022-08-29T04:48:28Z</time>
      </trkpt>
      <trkpt lat="42.4121910" lon="-2.6141520">
        <ele>597.0</ele>
        <time>2022-08-29T04:48:29Z</time>
      </trkpt>
      <trkpt lat="42.4121910" lon="-2.6141930">
        <ele>596.8</ele>
        <time>2022-08-29T04:48:30Z</time>
      </trkpt>
      <trkpt lat="42.4121910" lon="-2.6142370">
        <ele>597.0</ele>
        <time>2022-08-29T04:48:31Z</time>
      </trkpt>
      <trkpt lat="42.4121940" lon="-2.6142810">
        <ele>597.0</ele>
        <time>2022-08-29T04:48:32Z</time>
      </trkpt>
      <trkpt lat="42.4121960" lon="-2.6143290">
        <ele>597.2</ele>
        <time>2022-08-29T04:48:33Z</time>
      </trkpt>
      <trkpt lat="42.4121950" lon="-2.6143730">
        <ele>597.2</ele>
        <time>2022-08-29T04:48:34Z</time>
      </trkpt>
      <trkpt lat="42.4121940" lon="-2.6144170">
        <ele>597.4</ele>
        <time>2022-08-29T04:48:35Z</time>
      </trkpt>
      <trkpt lat="42.4121940" lon="-2.6144600">
        <ele>597.6</ele>
        <time>2022-08-29T04:48:36Z</time>
      </trkpt>
      <trkpt lat="42.4121940" lon="-2.6145020">
        <ele>597.6</ele>
        <time>2022-08-29T04:48:37Z</time>
      </trkpt>
      <trkpt lat="42.4121920" lon="-2.6145470">
        <ele>597.6</ele>
        <time>2022-08-29T04:48:38Z</time>
      </trkpt>
      <trkpt lat="42.4121900" lon="-2.6145890">
        <ele>597.6</ele>
        <time>2022-08-29T04:48:39Z</time>
      </trkpt>
      <trkpt lat="42.4121880" lon="-2.6146310">
        <ele>597.8</ele>
        <time>2022-08-29T04:48:40Z</time>
      </trkpt>
      <trkpt lat="42.4121870" lon="-2.6146710">
        <ele>597.8</ele>
        <time>2022-08-29T04:48:41Z</time>
      </trkpt>
      <trkpt lat="42.4121850" lon="-2.6147130">
        <ele>597.8</ele>
        <time>2022-08-29T04:48:42Z</time>
      </trkpt>
      <trkpt lat="42.4121830" lon="-2.6147550">
        <ele>598.0</ele>
        <time>2022-08-29T04:48:43Z</time>
      </trkpt>
      <trkpt lat="42.4121810" lon="-2.6147970">
        <ele>598.2</ele>
        <time>2022-08-29T04:48:44Z</time>
      </trkpt>
      <trkpt lat="42.4121810" lon="-2.6148380">
        <ele>598.4</ele>
        <time>2022-08-29T04:48:45Z</time>
      </trkpt>
      <trkpt lat="42.4121810" lon="-2.6148790">
        <ele>598.4</ele>
        <time>2022-08-29T04:48:46Z</time>
      </trkpt>
      <trkpt lat="42.4121790" lon="-2.6149190">
        <ele>598.4</ele>
        <time>2022-08-29T04:48:47Z</time>
      </trkpt>
      <trkpt lat="42.4121790" lon="-2.6149590">
        <ele>598.4</ele>
        <time>2022-08-29T04:48:48Z</time>
      </trkpt>
      <trkpt lat="42.4121760" lon="-2.6150000">
        <ele>598.6</ele>
        <time>2022-08-29T04:48:49Z</time>
      </trkpt>
      <trkpt lat="42.4121760" lon="-2.6150400">
        <ele>598.8</ele>
        <time>2022-08-29T04:48:50Z</time>
      </trkpt>
      <trkpt lat="42.4121760" lon="-2.6150810">
        <ele>598.8</ele>
        <time>2022-08-29T04:48:51Z</time>
      </trkpt>
      <trkpt lat="42.4121740" lon="-2.6151240">
        <ele>598.8</ele>
        <time>2022-08-29T04:48:52Z</time>
      </trkpt>
      <trkpt lat="42.4121740" lon="-2.6151660">
        <ele>598.8</ele>
        <time>2022-08-29T04:48:53Z</time>
      </trkpt>
      <trkpt lat="42.4121750" lon="-2.6152080">
        <ele>599.0</ele>
        <time>2022-08-29T04:48:54Z</time>
      </trkpt>
      <trkpt lat="42.4121750" lon="-2.6152490">
        <ele>599.0</ele>
        <time>2022-08-29T04:48:55Z</time>
      </trkpt>
      <trkpt lat="42.4121740" lon="-2.6152910">
        <ele>599.0</ele>
        <time>2022-08-29T04:48:56Z</time>
      </trkpt>
      <trkpt lat="42.4121730" lon="-2.6153340">
        <ele>599.0</ele>
        <time>2022-08-29T04:48:57Z</time>
      </trkpt>
      <trkpt lat="42.4121720" lon="-2.6153780">
        <ele>599.2</ele>
        <time>2022-08-29T04:48:58Z</time>
      </trkpt>
      <trkpt lat="42.4121730" lon="-2.6154210">
        <ele>599.2</ele>
        <time>2022-08-29T04:48:59Z</time>
      </trkpt>
      <trkpt lat="42.4121720" lon="-2.6154650">
        <ele>599.2</ele>
        <time>2022-08-29T04:49:00Z</time>
      </trkpt>
      <trkpt lat="42.4121700" lon="-2.6155090">
        <ele>599.2</ele>
        <time>2022-08-29T04:49:01Z</time>
      </trkpt>
      <trkpt lat="42.4121700" lon="-2.6155520">
        <ele>599.2</ele>
        <time>2022-08-29T04:49:02Z</time>
      </trkpt>
      <trkpt lat="42.4121710" lon="-2.6155950">
        <ele>599.4</ele>
        <time>2022-08-29T04:49:03Z</time>
      </trkpt>
      <trkpt lat="42.4121700" lon="-2.6156370">
        <ele>599.4</ele>
        <time>2022-08-29T04:49:04Z</time>
      </trkpt>
      <trkpt lat="42.4121690" lon="-2.6156800">
        <ele>599.6</ele>
        <time>2022-08-29T04:49:05Z</time>
      </trkpt>
      <trkpt lat="42.4121690" lon="-2.6157230">
        <ele>599.6</ele>
        <time>2022-08-29T04:49:06Z</time>
      </trkpt>
      <trkpt lat="42.4121690" lon="-2.6157680">
        <ele>599.8</ele>
        <time>2022-08-29T04:49:07Z</time>
      </trkpt>
      <trkpt lat="42.4121670" lon="-2.6158110">
        <ele>600.0</ele>
        <time>2022-08-29T04:49:08Z</time>
      </trkpt>
      <trkpt lat="42.4121670" lon="-2.6158550">
        <ele>600.0</ele>
        <time>2022-08-29T04:49:09Z</time>
      </trkpt>
      <trkpt lat="42.4121670" lon="-2.6159010">
        <ele>600.0</ele>
        <time>2022-08-29T04:49:10Z</time>
      </trkpt>
      <trkpt lat="42.4121690" lon="-2.6159460">
        <ele>600.2</ele>
        <time>2022-08-29T04:49:11Z</time>
      </trkpt>
      <trkpt lat="42.4121730" lon="-2.6159920">
        <ele>600.2</ele>
        <time>2022-08-29T04:49:12Z</time>
      </trkpt>
      <trkpt lat="42.4121710" lon="-2.6160390">
        <ele>600.4</ele>
        <time>2022-08-29T04:49:13Z</time>
      </trkpt>
      <trkpt lat="42.4121710" lon="-2.6160860">
        <ele>600.4</ele>
        <time>2022-08-29T04:49:14Z</time>
      </trkpt>
      <trkpt lat="42.4121730" lon="-2.6161330">
        <ele>600.4</ele>
        <time>2022-08-29T04:49:15Z</time>
      </trkpt>
      <trkpt lat="42.4121720" lon="-2.6161830">
        <ele>600.4</ele>
        <time>2022-08-29T04:49:16Z</time>
      </trkpt>
      <trkpt lat="42.4121700" lon="-2.6162340">
        <ele>600.6</ele>
        <time>2022-08-29T04:49:17Z</time>
      </trkpt>
      <trkpt lat="42.4121670" lon="-2.6162880">
        <ele>600.6</ele>
        <time>2022-08-29T04:49:18Z</time>
      </trkpt>
      <trkpt lat="42.4121670" lon="-2.6163390">
        <ele>600.6</ele>
        <time>2022-08-29T04:49:19Z</time>
      </trkpt>
      <trkpt lat="42.4121670" lon="-2.6163910">
        <ele>600.6</ele>
        <time>2022-08-29T04:49:20Z</time>
      </trkpt>
      <trkpt lat="42.4121660" lon="-2.6164450">
        <ele>600.6</ele>
        <time>2022-08-29T04:49:21Z</time>
      </trkpt>
      <trkpt lat="42.4121680" lon="-2.6164960">
        <ele>600.8</ele>
        <time>2022-08-29T04:49:22Z</time>
      </trkpt>
      <trkpt lat="42.4121670" lon="-2.6165470">
        <ele>600.6</ele>
        <time>2022-08-29T04:49:23Z</time>
      </trkpt>
      <trkpt lat="42.4121670" lon="-2.6166000">
        <ele>600.6</ele>
        <time>2022-08-29T04:49:24Z</time>
      </trkpt>
      <trkpt lat="42.4121660" lon="-2.6166540">
        <ele>600.8</ele>
        <time>2022-08-29T04:49:25Z</time>
      </trkpt>
      <trkpt lat="42.4121670" lon="-2.6167080">
        <ele>600.8</ele>
        <time>2022-08-29T04:49:26Z</time>
      </trkpt>
      <trkpt lat="42.4121650" lon="-2.6167630">
        <ele>600.8</ele>
        <time>2022-08-29T04:49:27Z</time>
      </trkpt>
      <trkpt lat="42.4121630" lon="-2.6168180">
        <ele>600.6</ele>
        <time>2022-08-29T04:49:28Z</time>
      </trkpt>
      <trkpt lat="42.4121640" lon="-2.6168720">
        <ele>600.6</ele>
        <time>2022-08-29T04:49:29Z</time>
      </trkpt>
      <trkpt lat="42.4121630" lon="-2.6169270">
        <ele>600.8</ele>
        <time>2022-08-29T04:49:30Z</time>
      </trkpt>
      <trkpt lat="42.4121630" lon="-2.6169820">
        <ele>600.8</ele>
        <time>2022-08-29T04:49:31Z</time>
      </trkpt>
      <trkpt lat="42.4121630" lon="-2.6170360">
        <ele>600.8</ele>
        <time>2022-08-29T04:49:32Z</time>
      </trkpt>
      <trkpt lat="42.4121630" lon="-2.6170920">
        <ele>600.8</ele>
        <time>2022-08-29T04:49:33Z</time>
      </trkpt>
      <trkpt lat="42.4121600" lon="-2.6171480">
        <ele>600.8</ele>
        <time>2022-08-29T04:49:34Z</time>
      </trkpt>
      <trkpt lat="42.4121560" lon="-2.6172040">
        <ele>600.8</ele>
        <time>2022-08-29T04:49:35Z</time>
      </trkpt>
      <trkpt lat="42.4121530" lon="-2.6172610">
        <ele>600.8</ele>
        <time>2022-08-29T04:49:36Z</time>
      </trkpt>
      <trkpt lat="42.4121500" lon="-2.6173170">
        <ele>600.8</ele>
        <time>2022-08-29T04:49:37Z</time>
      </trkpt>
      <trkpt lat="42.4121490" lon="-2.6173730">
        <ele>600.8</ele>
        <time>2022-08-29T04:49:38Z</time>
      </trkpt>
      <trkpt lat="42.4121480" lon="-2.6174310">
        <ele>600.8</ele>
        <time>2022-08-29T04:49:39Z</time>
      </trkpt>
      <trkpt lat="42.4121460" lon="-2.6174890">
        <ele>600.8</ele>
        <time>2022-08-29T04:49:40Z</time>
      </trkpt>
      <trkpt lat="42.4121440" lon="-2.6175470">
        <ele>600.8</ele>
        <time>2022-08-29T04:49:41Z</time>
      </trkpt>
      <trkpt lat="42.4121440" lon="-2.6176030">
        <ele>600.8</ele>
        <time>2022-08-29T04:49:42Z</time>
      </trkpt>
      <trkpt lat="42.4121460" lon="-2.6176580">
        <ele>601.0</ele>
        <time>2022-08-29T04:49:43Z</time>
      </trkpt>
      <trkpt lat="42.4121470" lon="-2.6177140">
        <ele>601.0</ele>
        <time>2022-08-29T04:49:44Z</time>
      </trkpt>
      <trkpt lat="42.4121470" lon="-2.6177700">
        <ele>601.0</ele>
        <time>2022-08-29T04:49:45Z</time>
      </trkpt>
      <trkpt lat="42.4121470" lon="-2.6178250">
        <ele>601.0</ele>
        <time>2022-08-29T04:49:46Z</time>
      </trkpt>
      <trkpt lat="42.4121470" lon="-2.6178820">
        <ele>601.2</ele>
        <time>2022-08-29T04:49:47Z</time>
      </trkpt>
      <trkpt lat="42.4121470" lon="-2.6179390">
        <ele>601.2</ele>
        <time>2022-08-29T04:49:48Z</time>
      </trkpt>
      <trkpt lat="42.4121460" lon="-2.6179960">
        <ele>601.2</ele>
        <time>2022-08-29T04:49:49Z</time>
      </trkpt>
      <trkpt lat="42.4121450" lon="-2.6180510">
        <ele>601.2</ele>
        <time>2022-08-29T04:49:50Z</time>
      </trkpt>
      <trkpt lat="42.4121420" lon="-2.6181080">
        <ele>601.2</ele>
        <time>2022-08-29T04:49:51Z</time>
      </trkpt>
      <trkpt lat="42.4121390" lon="-2.6181630">
        <ele>601.2</ele>
        <time>2022-08-29T04:49:52Z</time>
      </trkpt>
      <trkpt lat="42.4121360" lon="-2.6182170">
        <ele>601.2</ele>
        <time>2022-08-29T04:49:53Z</time>
      </trkpt>
      <trkpt lat="42.4121340" lon="-2.6182720">
        <ele>601.2</ele>
        <time>2022-08-29T04:49:54Z</time>
      </trkpt>
      <trkpt lat="42.4121330" lon="-2.6183250">
        <ele>601.2</ele>
        <time>2022-08-29T04:49:55Z</time>
      </trkpt>
      <trkpt lat="42.4121320" lon="-2.6183800">
        <ele>601.2</ele>
        <time>2022-08-29T04:49:56Z</time>
      </trkpt>
      <trkpt lat="42.4121310" lon="-2.6184330">
        <ele>601.4</ele>
        <time>2022-08-29T04:49:57Z</time>
      </trkpt>
      <trkpt lat="42.4121310" lon="-2.6184860">
        <ele>601.6</ele>
        <time>2022-08-29T04:49:58Z</time>
      </trkpt>
      <trkpt lat="42.4121310" lon="-2.6185390">
        <ele>601.6</ele>
        <time>2022-08-29T04:49:59Z</time>
      </trkpt>
      <trkpt lat="42.4121290" lon="-2.6185910">
        <ele>601.8</ele>
        <time>2022-08-29T04:50:00Z</time>
      </trkpt>
      <trkpt lat="42.4121270" lon="-2.6186430">
        <ele>602.0</ele>
        <time>2022-08-29T04:50:01Z</time>
      </trkpt>
      <trkpt lat="42.4121300" lon="-2.6186930">
        <ele>602.0</ele>
        <time>2022-08-29T04:50:02Z</time>
      </trkpt>
      <trkpt lat="42.4121300" lon="-2.6187430">
        <ele>602.0</ele>
        <time>2022-08-29T04:50:03Z</time>
      </trkpt>
      <trkpt lat="42.4121300" lon="-2.6187930">
        <ele>602.2</ele>
        <time>2022-08-29T04:50:04Z</time>
      </trkpt>
      <trkpt lat="42.4121290" lon="-2.6188410">
        <ele>602.2</ele>
        <time>2022-08-29T04:50:05Z</time>
      </trkpt>
      <trkpt lat="42.4121270" lon="-2.6188890">
        <ele>602.2</ele>
        <time>2022-08-29T04:50:06Z</time>
      </trkpt>
      <trkpt lat="42.4121260" lon="-2.6189370">
        <ele>602.4</ele>
        <time>2022-08-29T04:50:07Z</time>
      </trkpt>
      <trkpt lat="42.4121250" lon="-2.6189850">
        <ele>602.6</ele>
        <time>2022-08-29T04:50:08Z</time>
      </trkpt>
      <trkpt lat="42.4121250" lon="-2.6190320">
        <ele>602.6</ele>
        <time>2022-08-29T04:50:09Z</time>
      </trkpt>
      <trkpt lat="42.4121230" lon="-2.6190790">
        <ele>602.6</ele>
        <time>2022-08-29T04:50:10Z</time>
      </trkpt>
      <trkpt lat="42.4121190" lon="-2.6191260">
        <ele>602.8</ele>
        <time>2022-08-29T04:50:11Z</time>
      </trkpt>
      <trkpt lat="42.4121160" lon="-2.6191690">
        <ele>603.0</ele>
        <time>2022-08-29T04:50:12Z</time>
      </trkpt>
      <trkpt lat="42.4121140" lon="-2.6192090">
        <ele>603.0</ele>
        <time>2022-08-29T04:50:13Z</time>
      </trkpt>
      <trkpt lat="42.4121140" lon="-2.6192490">
        <ele>603.4</ele>
        <time>2022-08-29T04:50:14Z</time>
      </trkpt>
      <trkpt lat="42.4121140" lon="-2.6192880">
        <ele>603.6</ele>
        <time>2022-08-29T04:50:15Z</time>
      </trkpt>
      <trkpt lat="42.4121150" lon="-2.6193270">
        <ele>603.6</ele>
        <time>2022-08-29T04:50:16Z</time>
      </trkpt>
      <trkpt lat="42.4121160" lon="-2.6193650">
        <ele>603.8</ele>
        <time>2022-08-29T04:50:17Z</time>
      </trkpt>
      <trkpt lat="42.4121170" lon="-2.6194040">
        <ele>604.0</ele>
        <time>2022-08-29T04:50:18Z</time>
      </trkpt>
      <trkpt lat="42.4121150" lon="-2.6194450">
        <ele>604.2</ele>
        <time>2022-08-29T04:50:19Z</time>
      </trkpt>
      <trkpt lat="42.4121120" lon="-2.6194830">
        <ele>604.2</ele>
        <time>2022-08-29T04:50:20Z</time>
      </trkpt>
      <trkpt lat="42.4121100" lon="-2.6195190">
        <ele>604.2</ele>
        <time>2022-08-29T04:50:21Z</time>
      </trkpt>
      <trkpt lat="42.4121080" lon="-2.6195550">
        <ele>604.4</ele>
        <time>2022-08-29T04:50:22Z</time>
      </trkpt>
      <trkpt lat="42.4121060" lon="-2.6195910">
        <ele>604.6</ele>
        <time>2022-08-29T04:50:23Z</time>
      </trkpt>
      <trkpt lat="42.4121060" lon="-2.6196280">
        <ele>604.8</ele>
        <time>2022-08-29T04:50:24Z</time>
      </trkpt>
      <trkpt lat="42.4121070" lon="-2.6196640">
        <ele>604.8</ele>
        <time>2022-08-29T04:50:25Z</time>
      </trkpt>
      <trkpt lat="42.4121060" lon="-2.6196990">
        <ele>605.0</ele>
        <time>2022-08-29T04:50:26Z</time>
      </trkpt>
      <trkpt lat="42.4121070" lon="-2.6197340">
        <ele>605.2</ele>
        <time>2022-08-29T04:50:27Z</time>
      </trkpt>
      <trkpt lat="42.4121070" lon="-2.6197700">
        <ele>605.6</ele>
        <time>2022-08-29T04:50:28Z</time>
      </trkpt>
      <trkpt lat="42.4121070" lon="-2.6198050">
        <ele>605.8</ele>
        <time>2022-08-29T04:50:29Z</time>
      </trkpt>
      <trkpt lat="42.4121070" lon="-2.6198390">
        <ele>606.0</ele>
        <time>2022-08-29T04:50:30Z</time>
      </trkpt>
      <trkpt lat="42.4121070" lon="-2.6198740">
        <ele>606.0</ele>
        <time>2022-08-29T04:50:31Z</time>
      </trkpt>
      <trkpt lat="42.4121080" lon="-2.6199070">
        <ele>606.2</ele>
        <time>2022-08-29T04:50:32Z</time>
      </trkpt>
      <trkpt lat="42.4121100" lon="-2.6199400">
        <ele>606.0</ele>
        <time>2022-08-29T04:50:33Z</time>
      </trkpt>
      <trkpt lat="42.4121090" lon="-2.6199710">
        <ele>606.4</ele>
        <time>2022-08-29T04:50:34Z</time>
      </trkpt>
      <trkpt lat="42.4121080" lon="-2.6200010">
        <ele>606.4</ele>
        <time>2022-08-29T04:50:35Z</time>
      </trkpt>
      <trkpt lat="42.4121080" lon="-2.6200310">
        <ele>606.6</ele>
        <time>2022-08-29T04:50:36Z</time>
      </trkpt>
      <trkpt lat="42.4121070" lon="-2.6200590">
        <ele>607.0</ele>
        <time>2022-08-29T04:50:37Z</time>
      </trkpt>
      <trkpt lat="42.4121040" lon="-2.6200860">
        <ele>607.0</ele>
        <time>2022-08-29T04:50:38Z</time>
      </trkpt>
      <trkpt lat="42.4121010" lon="-2.6201140">
        <ele>607.2</ele>
        <time>2022-08-29T04:50:39Z</time>
      </trkpt>
      <trkpt lat="42.4120990" lon="-2.6201420">
        <ele>607.4</ele>
        <time>2022-08-29T04:50:40Z</time>
      </trkpt>
      <trkpt lat="42.4120970" lon="-2.6201700">
        <ele>608.0</ele>
        <time>2022-08-29T04:50:41Z</time>
      </trkpt>
      <trkpt lat="42.4120940" lon="-2.6202010">
        <ele>608.0</ele>
        <time>2022-08-29T04:50:42Z</time>
      </trkpt>
      <trkpt lat="42.4120930" lon="-2.6202310">
        <ele>608.0</ele>
        <time>2022-08-29T04:50:43Z</time>
      </trkpt>
      <trkpt lat="42.4120900" lon="-2.6202620">
        <ele>608.4</ele>
        <time>2022-08-29T04:50:44Z</time>
      </trkpt>
      <trkpt lat="42.4120870" lon="-2.6202930">
        <ele>608.6</ele>
        <time>2022-08-29T04:50:45Z</time>
      </trkpt>
      <trkpt lat="42.4120820" lon="-2.6203250">
        <ele>608.6</ele>
        <time>2022-08-29T04:50:46Z</time>
      </trkpt>
      <trkpt lat="42.4120780" lon="-2.6203540">
        <ele>608.8</ele>
        <time>2022-08-29T04:50:47Z</time>
      </trkpt>
      <trkpt lat="42.4120760" lon="-2.6203830">
        <ele>609.2</ele>
        <time>2022-08-29T04:50:48Z</time>
      </trkpt>
      <trkpt lat="42.4120760" lon="-2.6204110">
        <ele>609.2</ele>
        <time>2022-08-29T04:50:49Z</time>
      </trkpt>
      <trkpt lat="42.4120750" lon="-2.6204380">
        <ele>609.4</ele>
        <time>2022-08-29T04:50:50Z</time>
      </trkpt>
      <trkpt lat="42.4120740" lon="-2.6204660">
        <ele>609.8</ele>
        <time>2022-08-29T04:50:51Z</time>
      </trkpt>
      <trkpt lat="42.4120720" lon="-2.6204960">
        <ele>610.0</ele>
        <time>2022-08-29T04:50:52Z</time>
      </trkpt>
      <trkpt lat="42.4120720" lon="-2.6205240">
        <ele>610.2</ele>
        <time>2022-08-29T04:50:53Z</time>
      </trkpt>
      <trkpt lat="42.4120700" lon="-2.6205520">
        <ele>610.2</ele>
        <time>2022-08-29T04:50:54Z</time>
      </trkpt>
      <trkpt lat="42.4120690" lon="-2.6205790">
        <ele>610.2</ele>
        <time>2022-08-29T04:50:55Z</time>
      </trkpt>
      <trkpt lat="42.4120670" lon="-2.6206060">
        <ele>610.6</ele>
        <time>2022-08-29T04:50:56Z</time>
      </trkpt>
      <trkpt lat="42.4120660" lon="-2.6206320">
        <ele>610.6</ele>
        <time>2022-08-29T04:50:57Z</time>
      </trkpt>
      <trkpt lat="42.4120620" lon="-2.6206590">
        <ele>611.0</ele>
        <time>2022-08-29T04:50:58Z</time>
      </trkpt>
      <trkpt lat="42.4120590" lon="-2.6206850">
        <ele>611.2</ele>
        <time>2022-08-29T04:50:59Z</time>
      </trkpt>
      <trkpt lat="42.4120560" lon="-2.6207120">
        <ele>611.4</ele>
        <time>2022-08-29T04:51:00Z</time>
      </trkpt>
      <trkpt lat="42.4120550" lon="-2.6207400">
        <ele>611.6</ele>
        <time>2022-08-29T04:51:01Z</time>
      </trkpt>
      <trkpt lat="42.4120540" lon="-2.6207680">
        <ele>611.6</ele>
        <time>2022-08-29T04:51:02Z</time>
      </trkpt>
      <trkpt lat="42.4120540" lon="-2.6207940">
        <ele>612.0</ele>
        <time>2022-08-29T04:51:03Z</time>
      </trkpt>
      <trkpt lat="42.4120530" lon="-2.6208190">
        <ele>612.2</ele>
        <time>2022-08-29T04:51:04Z</time>
      </trkpt>
      <trkpt lat="42.4120520" lon="-2.6208450">
        <ele>612.4</ele>
        <time>2022-08-29T04:51:05Z</time>
      </trkpt>
      <trkpt lat="42.4120520" lon="-2.6208740">
        <ele>612.4</ele>
        <time>2022-08-29T04:51:06Z</time>
      </trkpt>
      <trkpt lat="42.4120500" lon="-2.6209030">
        <ele>612.8</ele>
        <time>2022-08-29T04:51:07Z</time>
      </trkpt>
      <trkpt lat="42.4120490" lon="-2.6209310">
        <ele>613.2</ele>
        <time>2022-08-29T04:51:08Z</time>
      </trkpt>
      <trkpt lat="42.4120480" lon="-2.6209610">
        <ele>613.2</ele>
        <time>2022-08-29T04:51:09Z</time>
      </trkpt>
      <trkpt lat="42.4120490" lon="-2.6209890">
        <ele>613.2</ele>
        <time>2022-08-29T04:51:10Z</time>
      </trkpt>
      <trkpt lat="42.4120500" lon="-2.6210160">
        <ele>613.4</ele>
        <time>2022-08-29T04:51:11Z</time>
      </trkpt>
      <trkpt lat="42.4120490" lon="-2.6210450">
        <ele>613.6</ele>
        <time>2022-08-29T04:51:12Z</time>
      </trkpt>
      <trkpt lat="42.4120480" lon="-2.6210730">
        <ele>613.6</ele>
        <time>2022-08-29T04:51:13Z</time>
      </trkpt>
      <trkpt lat="42.4120470" lon="-2.6211020">
        <ele>613.8</ele>
        <time>2022-08-29T04:51:14Z</time>
      </trkpt>
      <trkpt lat="42.4120470" lon="-2.6211310">
        <ele>613.8</ele>
        <time>2022-08-29T04:51:15Z</time>
      </trkpt>
      <trkpt lat="42.4120490" lon="-2.6211600">
        <ele>614.2</ele>
        <time>2022-08-29T04:51:16Z</time>
      </trkpt>
      <trkpt lat="42.4120490" lon="-2.6211910">
        <ele>614.2</ele>
        <time>2022-08-29T04:51:17Z</time>
      </trkpt>
      <trkpt lat="42.4120500" lon="-2.6212210">
        <ele>614.4</ele>
        <time>2022-08-29T04:51:18Z</time>
      </trkpt>
      <trkpt lat="42.4120510" lon="-2.6212530">
        <ele>614.4</ele>
        <time>2022-08-29T04:51:19Z</time>
      </trkpt>
      <trkpt lat="42.4120520" lon="-2.6212860">
        <ele>614.6</ele>
        <time>2022-08-29T04:51:20Z</time>
      </trkpt>
      <trkpt lat="42.4120550" lon="-2.6213180">
        <ele>615.0</ele>
        <time>2022-08-29T04:51:21Z</time>
      </trkpt>
      <trkpt lat="42.4120570" lon="-2.6213540">
        <ele>615.2</ele>
        <time>2022-08-29T04:51:22Z</time>
      </trkpt>
      <trkpt lat="42.4120590" lon="-2.6213920">
        <ele>615.2</ele>
        <time>2022-08-29T04:51:23Z</time>
      </trkpt>
      <trkpt lat="42.4120590" lon="-2.6214360">
        <ele>615.2</ele>
        <time>2022-08-29T04:51:24Z</time>
      </trkpt>
      <trkpt lat="42.4120600" lon="-2.6214820">
        <ele>615.2</ele>
        <time>2022-08-29T04:51:25Z</time>
      </trkpt>
      <trkpt lat="42.4120600" lon="-2.6215310">
        <ele>615.2</ele>
        <time>2022-08-29T04:51:26Z</time>
      </trkpt>
      <trkpt lat="42.4120620" lon="-2.6215810">
        <ele>615.2</ele>
        <time>2022-08-29T04:51:27Z</time>
      </trkpt>
      <trkpt lat="42.4120630" lon="-2.6216320">
        <ele>615.2</ele>
        <time>2022-08-29T04:51:28Z</time>
      </trkpt>
      <trkpt lat="42.4120650" lon="-2.6216850">
        <ele>615.2</ele>
        <time>2022-08-29T04:51:29Z</time>
      </trkpt>
      <trkpt lat="42.4120690" lon="-2.6217430">
        <ele>615.0</ele>
        <time>2022-08-29T04:51:30Z</time>
      </trkpt>
      <trkpt lat="42.4120770" lon="-2.6218060">
        <ele>615.2</ele>
        <time>2022-08-29T04:51:31Z</time>
      </trkpt>
      <trkpt lat="42.4120860" lon="-2.6218720">
        <ele>615.2</ele>
        <time>2022-08-29T04:51:32Z</time>
      </trkpt>
      <trkpt lat="42.4120960" lon="-2.6219450">
        <ele>615.2</ele>
        <time>2022-08-29T04:51:33Z</time>
      </trkpt>
      <trkpt lat="42.4121060" lon="-2.6220230">
        <ele>615.2</ele>
        <time>2022-08-29T04:51:34Z</time>
      </trkpt>
      <trkpt lat="42.4121160" lon="-2.6221030">
        <ele>615.0</ele>
        <time>2022-08-29T04:51:35Z</time>
      </trkpt>
      <trkpt lat="42.4121240" lon="-2.6221840">
        <ele>615.0</ele>
        <time>2022-08-29T04:51:36Z</time>
      </trkpt>
      <trkpt lat="42.4121260" lon="-2.6222660">
        <ele>615.0</ele>
        <time>2022-08-29T04:51:37Z</time>
      </trkpt>
      <trkpt lat="42.4121190" lon="-2.6223500">
        <ele>614.4</ele>
        <time>2022-08-29T04:51:38Z</time>
      </trkpt>
      <trkpt lat="42.4121030" lon="-2.6224320">
        <ele>614.2</ele>
        <time>2022-08-29T04:51:39Z</time>
      </trkpt>
      <trkpt lat="42.4120780" lon="-2.6225070">
        <ele>614.0</ele>
        <time>2022-08-29T04:51:40Z</time>
      </trkpt>
      <trkpt lat="42.4120460" lon="-2.6225800">
        <ele>613.8</ele>
        <time>2022-08-29T04:51:41Z</time>
      </trkpt>
      <trkpt lat="42.4120200" lon="-2.6226540">
        <ele>613.2</ele>
        <time>2022-08-29T04:51:42Z</time>
      </trkpt>
      <trkpt lat="42.4120040" lon="-2.6227320">
        <ele>612.8</ele>
        <time>2022-08-29T04:51:43Z</time>
      </trkpt>
      <trkpt lat="42.4120000" lon="-2.6228090">
        <ele>612.6</ele>
        <time>2022-08-29T04:51:44Z</time>
      </trkpt>
      <trkpt lat="42.4120020" lon="-2.6228860">
        <ele>612.6</ele>
        <time>2022-08-29T04:51:45Z</time>
      </trkpt>
      <trkpt lat="42.4120040" lon="-2.6229620">
        <ele>611.8</ele>
        <time>2022-08-29T04:51:46Z</time>
      </trkpt>
      <trkpt lat="42.4120070" lon="-2.6230380">
        <ele>611.2</ele>
        <time>2022-08-29T04:51:47Z</time>
      </trkpt>
      <trkpt lat="42.4120070" lon="-2.6231120">
        <ele>610.4</ele>
        <time>2022-08-29T04:51:48Z</time>
      </trkpt>
      <trkpt lat="42.4120070" lon="-2.6231840">
        <ele>610.0</ele>
        <time>2022-08-29T04:51:49Z</time>
      </trkpt>
      <trkpt lat="42.4120060" lon="-2.6232520">
        <ele>609.8</ele>
        <time>2022-08-29T04:51:50Z</time>
      </trkpt>
      <trkpt lat="42.4120030" lon="-2.6233170">
        <ele>609.8</ele>
        <time>2022-08-29T04:51:51Z</time>
      </trkpt>
      <trkpt lat="42.4120020" lon="-2.6233790">
        <ele>609.6</ele>
        <time>2022-08-29T04:51:52Z</time>
      </trkpt>
      <trkpt lat="42.4120000" lon="-2.6234390">
        <ele>609.6</ele>
        <time>2022-08-29T04:51:53Z</time>
      </trkpt>
      <trkpt lat="42.4119960" lon="-2.6234950">
        <ele>609.6</ele>
        <time>2022-08-29T04:51:54Z</time>
      </trkpt>
      <trkpt lat="42.4119920" lon="-2.6235500">
        <ele>609.6</ele>
        <time>2022-08-29T04:51:55Z</time>
      </trkpt>
      <trkpt lat="42.4119880" lon="-2.6236020">
        <ele>609.6</ele>
        <time>2022-08-29T04:51:56Z</time>
      </trkpt>
      <trkpt lat="42.4119850" lon="-2.6236550">
        <ele>609.6</ele>
        <time>2022-08-29T04:51:57Z</time>
      </trkpt>
      <trkpt lat="42.4119820" lon="-2.6237110">
        <ele>609.6</ele>
        <time>2022-08-29T04:51:58Z</time>
      </trkpt>
      <trkpt lat="42.4119800" lon="-2.6237670">
        <ele>609.6</ele>
        <time>2022-08-29T04:51:59Z</time>
      </trkpt>
      <trkpt lat="42.4119780" lon="-2.6238250">
        <ele>609.6</ele>
        <time>2022-08-29T04:52:00Z</time>
      </trkpt>
      <trkpt lat="42.4119750" lon="-2.6238840">
        <ele>609.8</ele>
        <time>2022-08-29T04:52:01Z</time>
      </trkpt>
      <trkpt lat="42.4119720" lon="-2.6239440">
        <ele>610.0</ele>
        <time>2022-08-29T04:52:02Z</time>
      </trkpt>
      <trkpt lat="42.4119690" lon="-2.6240020">
        <ele>610.4</ele>
        <time>2022-08-29T04:52:03Z</time>
      </trkpt>
      <trkpt lat="42.4119630" lon="-2.6240580">
        <ele>610.4</ele>
        <time>2022-08-29T04:52:04Z</time>
      </trkpt>
      <trkpt lat="42.4119570" lon="-2.6241140">
        <ele>610.4</ele>
        <time>2022-08-29T04:52:05Z</time>
      </trkpt>
      <trkpt lat="42.4119500" lon="-2.6241700">
        <ele>610.8</ele>
        <time>2022-08-29T04:52:06Z</time>
      </trkpt>
      <trkpt lat="42.4119430" lon="-2.6242280">
        <ele>610.8</ele>
        <time>2022-08-29T04:52:07Z</time>
      </trkpt>
      <trkpt lat="42.4119370" lon="-2.6242830">
        <ele>610.8</ele>
        <time>2022-08-29T04:52:08Z</time>
      </trkpt>
      <trkpt lat="42.4119300" lon="-2.6243370">
        <ele>611.0</ele>
        <time>2022-08-29T04:52:09Z</time>
      </trkpt>
      <trkpt lat="42.4119230" lon="-2.6243900">
        <ele>611.0</ele>
        <time>2022-08-29T04:52:10Z</time>
      </trkpt>
      <trkpt lat="42.4119160" lon="-2.6244430">
        <ele>611.2</ele>
        <time>2022-08-29T04:52:11Z</time>
      </trkpt>
      <trkpt lat="42.4119110" lon="-2.6244960">
        <ele>611.2</ele>
        <time>2022-08-29T04:52:12Z</time>
      </trkpt>
      <trkpt lat="42.4119060" lon="-2.6245480">
        <ele>611.2</ele>
        <time>2022-08-29T04:52:13Z</time>
      </trkpt>
      <trkpt lat="42.4119020" lon="-2.6245980">
        <ele>611.2</ele>
        <time>2022-08-29T04:52:14Z</time>
      </trkpt>
      <trkpt lat="42.4118990" lon="-2.6246470">
        <ele>611.4</ele>
        <time>2022-08-29T04:52:15Z</time>
      </trkpt>
      <trkpt lat="42.4118960" lon="-2.6246980">
        <ele>611.4</ele>
        <time>2022-08-29T04:52:16Z</time>
      </trkpt>
      <trkpt lat="42.4118940" lon="-2.6247470">
        <ele>611.4</ele>
        <time>2022-08-29T04:52:17Z</time>
      </trkpt>
      <trkpt lat="42.4118920" lon="-2.6247950">
        <ele>611.6</ele>
        <time>2022-08-29T04:52:18Z</time>
      </trkpt>
      <trkpt lat="42.4118880" lon="-2.6248450">
        <ele>611.6</ele>
        <time>2022-08-29T04:52:19Z</time>
      </trkpt>
      <trkpt lat="42.4118850" lon="-2.6248950">
        <ele>611.8</ele>
        <time>2022-08-29T04:52:20Z</time>
      </trkpt>
      <trkpt lat="42.4118830" lon="-2.6249420">
        <ele>611.8</ele>
        <time>2022-08-29T04:52:21Z</time>
      </trkpt>
      <trkpt lat="42.4118810" lon="-2.6249890">
        <ele>611.8</ele>
        <time>2022-08-29T04:52:22Z</time>
      </trkpt>
      <trkpt lat="42.4118800" lon="-2.6250330">
        <ele>611.8</ele>
        <time>2022-08-29T04:52:23Z</time>
      </trkpt>
      <trkpt lat="42.4118780" lon="-2.6250730">
        <ele>611.8</ele>
        <time>2022-08-29T04:52:24Z</time>
      </trkpt>
      <trkpt lat="42.4118760" lon="-2.6251140">
        <ele>612.0</ele>
        <time>2022-08-29T04:52:25Z</time>
      </trkpt>
      <trkpt lat="42.4118740" lon="-2.6251550">
        <ele>612.0</ele>
        <time>2022-08-29T04:52:26Z</time>
      </trkpt>
      <trkpt lat="42.4118710" lon="-2.6251980">
        <ele>612.2</ele>
        <time>2022-08-29T04:52:27Z</time>
      </trkpt>
      <trkpt lat="42.4118690" lon="-2.6252430">
        <ele>612.2</ele>
        <time>2022-08-29T04:52:28Z</time>
      </trkpt>
      <trkpt lat="42.4118670" lon="-2.6252870">
        <ele>612.2</ele>
        <time>2022-08-29T04:52:29Z</time>
      </trkpt>
      <trkpt lat="42.4118630" lon="-2.6253310">
        <ele>612.6</ele>
        <time>2022-08-29T04:52:30Z</time>
      </trkpt>
      <trkpt lat="42.4118600" lon="-2.6253750">
        <ele>612.8</ele>
        <time>2022-08-29T04:52:31Z</time>
      </trkpt>
      <trkpt lat="42.4118580" lon="-2.6254190">
        <ele>613.0</ele>
        <time>2022-08-29T04:52:32Z</time>
      </trkpt>
      <trkpt lat="42.4118550" lon="-2.6254640">
        <ele>613.0</ele>
        <time>2022-08-29T04:52:33Z</time>
      </trkpt>
      <trkpt lat="42.4118530" lon="-2.6255130">
        <ele>613.0</ele>
        <time>2022-08-29T04:52:34Z</time>
      </trkpt>
      <trkpt lat="42.4118500" lon="-2.6255630">
        <ele>613.0</ele>
        <time>2022-08-29T04:52:35Z</time>
      </trkpt>
      <trkpt lat="42.4118460" lon="-2.6256130">
        <ele>613.2</ele>
        <time>2022-08-29T04:52:36Z</time>
      </trkpt>
      <trkpt lat="42.4118420" lon="-2.6256640">
        <ele>613.2</ele>
        <time>2022-08-29T04:52:37Z</time>
      </trkpt>
      <trkpt lat="42.4118380" lon="-2.6257150">
        <ele>613.2</ele>
        <time>2022-08-29T04:52:38Z</time>
      </trkpt>
      <trkpt lat="42.4118340" lon="-2.6257660">
        <ele>613.2</ele>
        <time>2022-08-29T04:52:39Z</time>
      </trkpt>
      <trkpt lat="42.4118310" lon="-2.6258170">
        <ele>613.2</ele>
        <time>2022-08-29T04:52:40Z</time>
      </trkpt>
      <trkpt lat="42.4118290" lon="-2.6258670">
        <ele>613.4</ele>
        <time>2022-08-29T04:52:41Z</time>
      </trkpt>
      <trkpt lat="42.4118280" lon="-2.6259160">
        <ele>613.4</ele>
        <time>2022-08-29T04:52:42Z</time>
      </trkpt>
      <trkpt lat="42.4118250" lon="-2.6259650">
        <ele>613.4</ele>
        <time>2022-08-29T04:52:43Z</time>
      </trkpt>
      <trkpt lat="42.4118220" lon="-2.6260130">
        <ele>613.6</ele>
        <time>2022-08-29T04:52:44Z</time>
      </trkpt>
      <trkpt lat="42.4118190" lon="-2.6260620">
        <ele>613.6</ele>
        <time>2022-08-29T04:52:45Z</time>
      </trkpt>
      <trkpt lat="42.4118150" lon="-2.6261100">
        <ele>613.6</ele>
        <time>2022-08-29T04:52:46Z</time>
      </trkpt>
      <trkpt lat="42.4118120" lon="-2.6261570">
        <ele>613.6</ele>
        <time>2022-08-29T04:52:47Z</time>
      </trkpt>
      <trkpt lat="42.4118080" lon="-2.6262040">
        <ele>613.6</ele>
        <time>2022-08-29T04:52:48Z</time>
      </trkpt>
      <trkpt lat="42.4118050" lon="-2.6262480">
        <ele>613.6</ele>
        <time>2022-08-29T04:52:49Z</time>
      </trkpt>
      <trkpt lat="42.4118010" lon="-2.6262920">
        <ele>613.8</ele>
        <time>2022-08-29T04:52:50Z</time>
      </trkpt>
      <trkpt lat="42.4117980" lon="-2.6263340">
        <ele>614.0</ele>
        <time>2022-08-29T04:52:51Z</time>
      </trkpt>
      <trkpt lat="42.4117980" lon="-2.6263720">
        <ele>614.0</ele>
        <time>2022-08-29T04:52:52Z</time>
      </trkpt>
      <trkpt lat="42.4117950" lon="-2.6264120">
        <ele>614.0</ele>
        <time>2022-08-29T04:52:53Z</time>
      </trkpt>
      <trkpt lat="42.4117930" lon="-2.6264490">
        <ele>614.2</ele>
        <time>2022-08-29T04:52:54Z</time>
      </trkpt>
      <trkpt lat="42.4117910" lon="-2.6264820">
        <ele>614.2</ele>
        <time>2022-08-29T04:52:55Z</time>
      </trkpt>
      <trkpt lat="42.4117870" lon="-2.6265130">
        <ele>614.4</ele>
        <time>2022-08-29T04:52:56Z</time>
      </trkpt>
      <trkpt lat="42.4117840" lon="-2.6265410">
        <ele>614.4</ele>
        <time>2022-08-29T04:52:57Z</time>
      </trkpt>
      <trkpt lat="42.4117830" lon="-2.6265570">
        <ele>614.6</ele>
        <time>2022-08-29T04:52:58Z</time>
      </trkpt>
      <trkpt lat="42.4117810" lon="-2.6265610">
        <ele>614.6</ele>
        <time>2022-08-29T04:52:59Z</time>
      </trkpt>
      <trkpt lat="42.4117790" lon="-2.6265580">
        <ele>614.6</ele>
        <time>2022-08-29T04:53:00Z</time>
      </trkpt>
      <trkpt lat="42.4117770" lon="-2.6265550">
        <ele>614.6</ele>
        <time>2022-08-29T04:53:01Z</time>
      </trkpt>
      <trkpt lat="42.4117760" lon="-2.6265500">
        <ele>614.6</ele>
        <time>2022-08-29T04:53:02Z</time>
      </trkpt>
      <trkpt lat="42.4117760" lon="-2.6265490">
        <ele>614.8</ele>
        <time>2022-08-29T04:53:03Z</time>
      </trkpt>
      <trkpt lat="42.4117780" lon="-2.6265480">
        <ele>614.8</ele>
        <time>2022-08-29T04:53:04Z</time>
      </trkpt>
      <trkpt lat="42.4117800" lon="-2.6265470">
        <ele>615.0</ele>
        <time>2022-08-29T04:53:05Z</time>
      </trkpt>
      <trkpt lat="42.4117810" lon="-2.6265470">
        <ele>615.0</ele>
        <time>2022-08-29T04:53:06Z</time>
      </trkpt>
      <trkpt lat="42.4117840" lon="-2.6265440">
        <ele>615.0</ele>
        <time>2022-08-29T04:53:07Z</time>
      </trkpt>
      <trkpt lat="42.4117850" lon="-2.6265430">
        <ele>615.2</ele>
        <time>2022-08-29T04:53:08Z</time>
      </trkpt>
      <trkpt lat="42.4117850" lon="-2.6265430">
        <ele>615.2</ele>
        <time>2022-08-29T04:53:09Z</time>
      </trkpt>
      <trkpt lat="42.4117850" lon="-2.6265430">
        <ele>615.4</ele>
        <time>2022-08-29T04:53:10Z</time>
      </trkpt>
      <trkpt lat="42.4117850" lon="-2.6265430">
        <ele>615.4</ele>
        <time>2022-08-29T04:53:11Z</time>
      </trkpt>
      <trkpt lat="42.4117860" lon="-2.6265420">
        <ele>615.4</ele>
        <time>2022-08-29T04:53:12Z</time>
      </trkpt>
      <trkpt lat="42.4117860" lon="-2.6265420">
        <ele>615.4</ele>
        <time>2022-08-29T04:53:13Z</time>
      </trkpt>
      <trkpt lat="42.4117860" lon="-2.6265410">
        <ele>615.4</ele>
        <time>2022-08-29T04:53:14Z</time>
      </trkpt>
      <trkpt lat="42.4117850" lon="-2.6265420">
        <ele>615.4</ele>
        <time>2022-08-29T04:53:15Z</time>
      </trkpt>
      <trkpt lat="42.4117850" lon="-2.6265410">
        <ele>615.4</ele>
        <time>2022-08-29T04:53:16Z</time>
      </trkpt>
      <trkpt lat="42.4117850" lon="-2.6265400">
        <ele>615.4</ele>
        <time>2022-08-29T04:53:17Z</time>
      </trkpt>
      <trkpt lat="42.4117860" lon="-2.6265400">
        <ele>615.4</ele>
        <time>2022-08-29T04:53:18Z</time>
      </trkpt>
      <trkpt lat="42.4117860" lon="-2.6265400">
        <ele>615.4</ele>
        <time>2022-08-29T04:53:19Z</time>
      </trkpt>
      <trkpt lat="42.4117860" lon="-2.6265390">
        <ele>615.4</ele>
        <time>2022-08-29T04:53:20Z</time>
      </trkpt>
      <trkpt lat="42.4117870" lon="-2.6265380">
        <ele>615.4</ele>
        <time>2022-08-29T04:53:21Z</time>
      </trkpt>
      <trkpt lat="42.4117870" lon="-2.6265380">
        <ele>615.4</ele>
        <time>2022-08-29T04:53:22Z</time>
      </trkpt>
      <trkpt lat="42.4117870" lon="-2.6265380">
        <ele>615.4</ele>
        <time>2022-08-29T04:53:23Z</time>
      </trkpt>
      <trkpt lat="42.4117870" lon="-2.6265380">
        <ele>615.4</ele>
        <time>2022-08-29T04:53:24Z</time>
      </trkpt>
      <trkpt lat="42.4117880" lon="-2.6265380">
        <ele>615.4</ele>
        <time>2022-08-29T04:53:25Z</time>
      </trkpt>
      <trkpt lat="42.4117870" lon="-2.6265390">
        <ele>615.4</ele>
        <time>2022-08-29T04:53:26Z</time>
      </trkpt>
      <trkpt lat="42.4117870" lon="-2.6265380">
        <ele>615.4</ele>
        <time>2022-08-29T04:53:27Z</time>
      </trkpt>
      <trkpt lat="42.4117870" lon="-2.6265390">
        <ele>615.4</ele>
        <time>2022-08-29T04:53:28Z</time>
      </trkpt>
      <trkpt lat="42.4117870" lon="-2.6265390">
        <ele>615.6</ele>
        <time>2022-08-29T04:53:29Z</time>
      </trkpt>
      <trkpt lat="42.4117870" lon="-2.6265380">
        <ele>615.4</ele>
        <time>2022-08-29T04:53:30Z</time>
      </trkpt>
      <trkpt lat="42.4117870" lon="-2.6265380">
        <ele>615.4</ele>
        <time>2022-08-29T04:53:31Z</time>
      </trkpt>
      <trkpt lat="42.4117870" lon="-2.6265380">
        <ele>615.4</ele>
        <time>2022-08-29T04:53:32Z</time>
      </trkpt>
      <trkpt lat="42.4117870" lon="-2.6265380">
        <ele>615.6</ele>
        <time>2022-08-29T04:53:33Z</time>
      </trkpt>
      <trkpt lat="42.4117870" lon="-2.6265380">
        <ele>615.6</ele>
        <time>2022-08-29T04:53:34Z</time>
      </trkpt>
      <trkpt lat="42.4117870" lon="-2.6265380">
        <ele>615.6</ele>
        <time>2022-08-29T04:53:35Z</time>
      </trkpt>
      <trkpt lat="42.4117870" lon="-2.6265380">
        <ele>615.6</ele>
        <time>2022-08-29T04:53:36Z</time>
      </trkpt>
      <trkpt lat="42.4117870" lon="-2.6265380">
        <ele>615.2</ele>
        <time>2022-08-29T04:53:37Z</time>
      </trkpt>
      <trkpt lat="42.4117870" lon="-2.6265380">
        <ele>615.4</ele>
        <time>2022-08-29T04:53:38Z</time>
      </trkpt>
      <trkpt lat="42.4117860" lon="-2.6265380">
        <ele>615.4</ele>
        <time>2022-08-29T04:53:39Z</time>
      </trkpt>
      <trkpt lat="42.4117860" lon="-2.6265380">
        <ele>615.2</ele>
        <time>2022-08-29T04:53:40Z</time>
      </trkpt>
      <trkpt lat="42.4117860" lon="-2.6265370">
        <ele>615.4</ele>
        <time>2022-08-29T04:53:41Z</time>
      </trkpt>
      <trkpt lat="42.4117860" lon="-2.6265370">
        <ele>615.2</ele>
        <time>2022-08-29T04:53:42Z</time>
      </trkpt>
      <trkpt lat="42.4117860" lon="-2.6265370">
        <ele>615.2</ele>
        <time>2022-08-29T04:53:43Z</time>
      </trkpt>
      <trkpt lat="42.4117860" lon="-2.6265370">
        <ele>615.2</ele>
        <time>2022-08-29T04:53:44Z</time>
      </trkpt>
      <trkpt lat="42.4117860" lon="-2.6265370">
        <ele>615.2</ele>
        <time>2022-08-29T04:53:45Z</time>
      </trkpt>
      <trkpt lat="42.4117860" lon="-2.6265360">
        <ele>615.2</ele>
        <time>2022-08-29T04:53:46Z</time>
      </trkpt>
      <trkpt lat="42.4117860" lon="-2.6265360">
        <ele>615.4</ele>
        <time>2022-08-29T04:53:47Z</time>
      </trkpt>
      <trkpt lat="42.4117860" lon="-2.6265360">
        <ele>615.2</ele>
        <time>2022-08-29T04:53:48Z</time>
      </trkpt>
      <trkpt lat="42.4117860" lon="-2.6265360">
        <ele>615.2</ele>
        <time>2022-08-29T04:53:49Z</time>
      </trkpt>
      <trkpt lat="42.4117850" lon="-2.6265360">
        <ele>615.2</ele>
        <time>2022-08-29T04:53:50Z</time>
      </trkpt>
      <trkpt lat="42.4117850" lon="-2.6265350">
        <ele>615.2</ele>
        <time>2022-08-29T04:53:51Z</time>
      </trkpt>
      <trkpt lat="42.4117850" lon="-2.6265350">
        <ele>615.2</ele>
        <time>2022-08-29T04:53:52Z</time>
      </trkpt>
      <trkpt lat="42.4117850" lon="-2.6265350">
        <ele>615.2</ele>
        <time>2022-08-29T04:53:53Z</time>
      </trkpt>
      <trkpt lat="42.4117850" lon="-2.6265350">
        <ele>615.2</ele>
        <time>2022-08-29T04:53:54Z</time>
      </trkpt>
      <trkpt lat="42.4117860" lon="-2.6265350">
        <ele>615.2</ele>
        <time>2022-08-29T04:53:55Z</time>
      </trkpt>
      <trkpt lat="42.4117860" lon="-2.6265350">
        <ele>615.2</ele>
        <time>2022-08-29T04:53:56Z</time>
      </trkpt>
      <trkpt lat="42.4117860" lon="-2.6265350">
        <ele>615.2</ele>
        <time>2022-08-29T04:53:57Z</time>
      </trkpt>
      <trkpt lat="42.4117860" lon="-2.6265350">
        <ele>615.2</ele>
        <time>2022-08-29T04:53:58Z</time>
      </trkpt>
      <trkpt lat="42.4117860" lon="-2.6265340">
        <ele>615.2</ele>
        <time>2022-08-29T04:53:59Z</time>
      </trkpt>
      <trkpt lat="42.4117860" lon="-2.6265350">
        <ele>615.2</ele>
        <time>2022-08-29T04:54:00Z</time>
      </trkpt>
      <trkpt lat="42.4117860" lon="-2.6265350">
        <ele>615.4</ele>
        <time>2022-08-29T04:54:01Z</time>
      </trkpt>
      <trkpt lat="42.4117860" lon="-2.6265340">
        <ele>615.2</ele>
        <time>2022-08-29T04:54:02Z</time>
      </trkpt>
      <trkpt lat="42.4117860" lon="-2.6265340">
        <ele>615.2</ele>
        <time>2022-08-29T04:54:03Z</time>
      </trkpt>
      <trkpt lat="42.4117860" lon="-2.6265340">
        <ele>615.2</ele>
        <time>2022-08-29T04:54:04Z</time>
      </trkpt>
      <trkpt lat="42.4117860" lon="-2.6265340">
        <ele>615.2</ele>
        <time>2022-08-29T04:54:05Z</time>
      </trkpt>
      <trkpt lat="42.4117860" lon="-2.6265340">
        <ele>615.2</ele>
        <time>2022-08-29T04:54:06Z</time>
      </trkpt>
      <trkpt lat="42.4117860" lon="-2.6265340">
        <ele>615.4</ele>
        <time>2022-08-29T04:54:07Z</time>
      </trkpt>
      <trkpt lat="42.4117860" lon="-2.6265340">
        <ele>615.2</ele>
        <time>2022-08-29T04:54:08Z</time>
      </trkpt>
      <trkpt lat="42.4117860" lon="-2.6265340">
        <ele>615.2</ele>
        <time>2022-08-29T04:54:09Z</time>
      </trkpt>
      <trkpt lat="42.4117860" lon="-2.6265340">
        <ele>615.2</ele>
        <time>2022-08-29T04:54:10Z</time>
      </trkpt>
      <trkpt lat="42.4117860" lon="-2.6265340">
        <ele>615.2</ele>
        <time>2022-08-29T04:54:11Z</time>
      </trkpt>
      <trkpt lat="42.4117860" lon="-2.6265340">
        <ele>615.2</ele>
        <time>2022-08-29T04:54:12Z</time>
      </trkpt>
      <trkpt lat="42.4117860" lon="-2.6265340">
        <ele>615.2</ele>
        <time>2022-08-29T04:54:13Z</time>
      </trkpt>
      <trkpt lat="42.4117860" lon="-2.6265340">
        <ele>615.4</ele>
        <time>2022-08-29T04:54:14Z</time>
      </trkpt>
      <trkpt lat="42.4117860" lon="-2.6265340">
        <ele>615.4</ele>
        <time>2022-08-29T04:54:15Z</time>
      </trkpt>
      <trkpt lat="42.4117860" lon="-2.6265340">
        <ele>615.4</ele>
        <time>2022-08-29T04:54:16Z</time>
      </trkpt>
      <trkpt lat="42.4117860" lon="-2.6265340">
        <ele>615.2</ele>
        <time>2022-08-29T04:54:17Z</time>
      </trkpt>
      <trkpt lat="42.4117860" lon="-2.6265350">
        <ele>615.2</ele>
        <time>2022-08-29T04:54:18Z</time>
      </trkpt>
      <trkpt lat="42.4117860" lon="-2.6265350">
        <ele>615.2</ele>
        <time>2022-08-29T04:54:19Z</time>
      </trkpt>
      <trkpt lat="42.4117860" lon="-2.6265340">
        <ele>615.2</ele>
        <time>2022-08-29T04:54:20Z</time>
      </trkpt>
      <trkpt lat="42.4117860" lon="-2.6265340">
        <ele>615.4</ele>
        <time>2022-08-29T04:54:21Z</time>
      </trkpt>
      <trkpt lat="42.4117860" lon="-2.6265340">
        <ele>615.4</ele>
        <time>2022-08-29T04:54:22Z</time>
      </trkpt>
      <trkpt lat="42.4117860" lon="-2.6265340">
        <ele>615.4</ele>
        <time>2022-08-29T04:54:23Z</time>
      </trkpt>
      <trkpt lat="42.4117860" lon="-2.6265340">
        <ele>615.4</ele>
        <time>2022-08-29T04:54:24Z</time>
      </trkpt>
      <trkpt lat="42.4117860" lon="-2.6265340">
        <ele>615.4</ele>
        <time>2022-08-29T04:54:25Z</time>
      </trkpt>
      <trkpt lat="42.4117860" lon="-2.6265340">
        <ele>615.4</ele>
        <time>2022-08-29T04:54:26Z</time>
      </trkpt>
      <trkpt lat="42.4117860" lon="-2.6265340">
        <ele>615.2</ele>
        <time>2022-08-29T04:54:27Z</time>
      </trkpt>
      <trkpt lat="42.4117860" lon="-2.6265340">
        <ele>615.4</ele>
        <time>2022-08-29T04:54:28Z</time>
      </trkpt>
      <trkpt lat="42.4117860" lon="-2.6265340">
        <ele>615.2</ele>
        <time>2022-08-29T04:54:29Z</time>
      </trkpt>
      <trkpt lat="42.4117860" lon="-2.6265340">
        <ele>615.4</ele>
        <time>2022-08-29T04:54:30Z</time>
      </trkpt>
      <trkpt lat="42.4117860" lon="-2.6265340">
        <ele>615.4</ele>
        <time>2022-08-29T04:54:31Z</time>
      </trkpt>
      <trkpt lat="42.4117860" lon="-2.6265340">
        <ele>615.4</ele>
        <time>2022-08-29T04:54:32Z</time>
      </trkpt>
      <trkpt lat="42.4117860" lon="-2.6265340">
        <ele>615.4</ele>
        <time>2022-08-29T04:54:33Z</time>
      </trkpt>
      <trkpt lat="42.4117860" lon="-2.6265340">
        <ele>615.2</ele>
        <time>2022-08-29T04:54:34Z</time>
      </trkpt>
      <trkpt lat="42.4117860" lon="-2.6265340">
        <ele>615.2</ele>
        <time>2022-08-29T04:54:35Z</time>
      </trkpt>
      <trkpt lat="42.4117860" lon="-2.6265340">
        <ele>615.2</ele>
        <time>2022-08-29T04:54:36Z</time>
      </trkpt>
      <trkpt lat="42.4117860" lon="-2.6265340">
        <ele>615.2</ele>
        <time>2022-08-29T04:54:37Z</time>
      </trkpt>
      <trkpt lat="42.4117860" lon="-2.6265340">
        <ele>615.2</ele>
        <time>2022-08-29T04:54:38Z</time>
      </trkpt>
      <trkpt lat="42.4117860" lon="-2.6265350">
        <ele>615.2</ele>
        <time>2022-08-29T04:54:39Z</time>
      </trkpt>
      <trkpt lat="42.4117860" lon="-2.6265350">
        <ele>615.2</ele>
        <time>2022-08-29T04:54:40Z</time>
      </trkpt>
      <trkpt lat="42.4117860" lon="-2.6265350">
        <ele>615.2</ele>
        <time>2022-08-29T04:54:41Z</time>
      </trkpt>
      <trkpt lat="42.4117860" lon="-2.6265350">
        <ele>615.4</ele>
        <time>2022-08-29T04:54:42Z</time>
      </trkpt>
      <trkpt lat="42.4117860" lon="-2.6265350">
        <ele>615.4</ele>
        <time>2022-08-29T04:54:43Z</time>
      </trkpt>
      <trkpt lat="42.4117860" lon="-2.6265350">
        <ele>615.2</ele>
        <time>2022-08-29T04:54:44Z</time>
      </trkpt>
      <trkpt lat="42.4117860" lon="-2.6265350">
        <ele>615.2</ele>
        <time>2022-08-29T04:54:45Z</time>
      </trkpt>
      <trkpt lat="42.4117860" lon="-2.6265350">
        <ele>615.2</ele>
        <time>2022-08-29T04:54:46Z</time>
      </trkpt>
      <trkpt lat="42.4117860" lon="-2.6265350">
        <ele>615.2</ele>
        <time>2022-08-29T04:54:47Z</time>
      </trkpt>
      <trkpt lat="42.4117860" lon="-2.6265350">
        <ele>615.2</ele>
        <time>2022-08-29T04:54:48Z</time>
      </trkpt>
      <trkpt lat="42.4117860" lon="-2.6265350">
        <ele>615.2</ele>
        <time>2022-08-29T04:54:49Z</time>
      </trkpt>
      <trkpt lat="42.4117860" lon="-2.6265350">
        <ele>615.4</ele>
        <time>2022-08-29T04:54:50Z</time>
      </trkpt>
      <trkpt lat="42.4117860" lon="-2.6265350">
        <ele>615.2</ele>
        <time>2022-08-29T04:54:51Z</time>
      </trkpt>
      <trkpt lat="42.4117860" lon="-2.6265350">
        <ele>615.2</ele>
        <time>2022-08-29T04:54:52Z</time>
      </trkpt>
      <trkpt lat="42.4117870" lon="-2.6265350">
        <ele>615.4</ele>
        <time>2022-08-29T04:54:53Z</time>
      </trkpt>
      <trkpt lat="42.4117870" lon="-2.6265350">
        <ele>615.2</ele>
        <time>2022-08-29T04:54:54Z</time>
      </trkpt>
      <trkpt lat="42.4117870" lon="-2.6265350">
        <ele>615.2</ele>
        <time>2022-08-29T04:54:55Z</time>
      </trkpt>
      <trkpt lat="42.4117870" lon="-2.6265350">
        <ele>615.2</ele>
        <time>2022-08-29T04:54:56Z</time>
      </trkpt>
      <trkpt lat="42.4117870" lon="-2.6265350">
        <ele>615.2</ele>
        <time>2022-08-29T04:54:57Z</time>
      </trkpt>
      <trkpt lat="42.4117870" lon="-2.6265350">
        <ele>615.2</ele>
        <time>2022-08-29T04:54:58Z</time>
      </trkpt>
      <trkpt lat="42.4117870" lon="-2.6265350">
        <ele>615.2</ele>
        <time>2022-08-29T04:54:59Z</time>
      </trkpt>
      <trkpt lat="42.4117870" lon="-2.6265350">
        <ele>615.0</ele>
        <time>2022-08-29T04:55:00Z</time>
      </trkpt>
      <trkpt lat="42.4117870" lon="-2.6265350">
        <ele>615.2</ele>
        <time>2022-08-29T04:55:01Z</time>
      </trkpt>
      <trkpt lat="42.4117870" lon="-2.6265350">
        <ele>615.0</ele>
        <time>2022-08-29T04:55:02Z</time>
      </trkpt>
      <trkpt lat="42.4117870" lon="-2.6265340">
        <ele>615.0</ele>
        <time>2022-08-29T04:55:03Z</time>
      </trkpt>
      <trkpt lat="42.4117870" lon="-2.6265340">
        <ele>615.0</ele>
        <time>2022-08-29T04:55:04Z</time>
      </trkpt>
      <trkpt lat="42.4117870" lon="-2.6265340">
        <ele>615.0</ele>
        <time>2022-08-29T04:55:05Z</time>
      </trkpt>
      <trkpt lat="42.4117870" lon="-2.6265340">
        <ele>615.0</ele>
        <time>2022-08-29T04:55:06Z</time>
      </trkpt>
      <trkpt lat="42.4117870" lon="-2.6265340">
        <ele>615.0</ele>
        <time>2022-08-29T04:55:07Z</time>
      </trkpt>
      <trkpt lat="42.4117870" lon="-2.6265340">
        <ele>614.8</ele>
        <time>2022-08-29T04:55:08Z</time>
      </trkpt>
      <trkpt lat="42.4117870" lon="-2.6265340">
        <ele>614.8</ele>
        <time>2022-08-29T04:55:09Z</time>
      </trkpt>
      <trkpt lat="42.4117870" lon="-2.6265350">
        <ele>615.0</ele>
        <time>2022-08-29T04:55:10Z</time>
      </trkpt>
      <trkpt lat="42.4117870" lon="-2.6265350">
        <ele>615.0</ele>
        <time>2022-08-29T04:55:11Z</time>
      </trkpt>
      <trkpt lat="42.4117870" lon="-2.6265350">
        <ele>615.0</ele>
        <time>2022-08-29T04:55:12Z</time>
      </trkpt>
      <trkpt lat="42.4117860" lon="-2.6265350">
        <ele>615.0</ele>
        <time>2022-08-29T04:55:13Z</time>
      </trkpt>
      <trkpt lat="42.4117860" lon="-2.6265350">
        <ele>615.0</ele>
        <time>2022-08-29T04:55:14Z</time>
      </trkpt>
      <trkpt lat="42.4117860" lon="-2.6265350">
        <ele>615.0</ele>
        <time>2022-08-29T04:55:15Z</time>
      </trkpt>
      <trkpt lat="42.4117860" lon="-2.6265350">
        <ele>615.0</ele>
        <time>2022-08-29T04:55:16Z</time>
      </trkpt>
      <trkpt lat="42.4117860" lon="-2.6265350">
        <ele>615.0</ele>
        <time>2022-08-29T04:55:17Z</time>
      </trkpt>
      <trkpt lat="42.4117860" lon="-2.6265350">
        <ele>614.8</ele>
        <time>2022-08-29T04:55:18Z</time>
      </trkpt>
      <trkpt lat="42.4117860" lon="-2.6265350">
        <ele>615.0</ele>
        <time>2022-08-29T04:55:19Z</time>
      </trkpt>
      <trkpt lat="42.4117860" lon="-2.6265350">
        <ele>615.0</ele>
        <time>2022-08-29T04:55:20Z</time>
      </trkpt>
      <trkpt lat="42.4117860" lon="-2.6265350">
        <ele>615.0</ele>
        <time>2022-08-29T04:55:21Z</time>
      </trkpt>
      <trkpt lat="42.4117860" lon="-2.6265340">
        <ele>615.0</ele>
        <time>2022-08-29T04:55:22Z</time>
      </trkpt>
      <trkpt lat="42.4117860" lon="-2.6265340">
        <ele>615.0</ele>
        <time>2022-08-29T04:55:23Z</time>
      </trkpt>
      <trkpt lat="42.4117860" lon="-2.6265340">
        <ele>615.0</ele>
        <time>2022-08-29T04:55:24Z</time>
      </trkpt>
      <trkpt lat="42.4117850" lon="-2.6265340">
        <ele>614.8</ele>
        <time>2022-08-29T04:55:25Z</time>
      </trkpt>
      <trkpt lat="42.4117850" lon="-2.6265330">
        <ele>615.0</ele>
        <time>2022-08-29T04:55:26Z</time>
      </trkpt>
      <trkpt lat="42.4117850" lon="-2.6265330">
        <ele>614.8</ele>
        <time>2022-08-29T04:55:27Z</time>
      </trkpt>
      <trkpt lat="42.4117850" lon="-2.6265330">
        <ele>615.0</ele>
        <time>2022-08-29T04:55:28Z</time>
      </trkpt>
      <trkpt lat="42.4117850" lon="-2.6265330">
        <ele>615.0</ele>
        <time>2022-08-29T04:55:29Z</time>
      </trkpt>
      <trkpt lat="42.4117850" lon="-2.6265330">
        <ele>615.0</ele>
        <time>2022-08-29T04:55:30Z</time>
      </trkpt>
      <trkpt lat="42.4117850" lon="-2.6265330">
        <ele>615.0</ele>
        <time>2022-08-29T04:55:31Z</time>
      </trkpt>
      <trkpt lat="42.4117850" lon="-2.6265340">
        <ele>615.0</ele>
        <time>2022-08-29T04:55:32Z</time>
      </trkpt>
      <trkpt lat="42.4117860" lon="-2.6265410">
        <ele>615.0</ele>
        <time>2022-08-29T04:55:33Z</time>
      </trkpt>
      <trkpt lat="42.4117870" lon="-2.6265500">
        <ele>615.0</ele>
        <time>2022-08-29T04:55:34Z</time>
      </trkpt>
      <trkpt lat="42.4117880" lon="-2.6265690">
        <ele>615.0</ele>
        <time>2022-08-29T04:55:35Z</time>
      </trkpt>
      <trkpt lat="42.4117860" lon="-2.6265930">
        <ele>615.0</ele>
        <time>2022-08-29T04:55:36Z</time>
      </trkpt>
      <trkpt lat="42.4117830" lon="-2.6266260">
        <ele>615.0</ele>
        <time>2022-08-29T04:55:37Z</time>
      </trkpt>
      <trkpt lat="42.4117830" lon="-2.6266630">
        <ele>615.0</ele>
        <time>2022-08-29T04:55:38Z</time>
      </trkpt>
      <trkpt lat="42.4117830" lon="-2.6267050">
        <ele>615.0</ele>
        <time>2022-08-29T04:55:39Z</time>
      </trkpt>
      <trkpt lat="42.4117820" lon="-2.6267490">
        <ele>615.0</ele>
        <time>2022-08-29T04:55:40Z</time>
      </trkpt>
      <trkpt lat="42.4117810" lon="-2.6267940">
        <ele>615.0</ele>
        <time>2022-08-29T04:55:41Z</time>
      </trkpt>
      <trkpt lat="42.4117790" lon="-2.6268400">
        <ele>615.0</ele>
        <time>2022-08-29T04:55:42Z</time>
      </trkpt>
      <trkpt lat="42.4117770" lon="-2.6268870">
        <ele>615.0</ele>
        <time>2022-08-29T04:55:43Z</time>
      </trkpt>
      <trkpt lat="42.4117750" lon="-2.6269340">
        <ele>615.0</ele>
        <time>2022-08-29T04:55:44Z</time>
      </trkpt>
      <trkpt lat="42.4117710" lon="-2.6269860">
        <ele>615.0</ele>
        <time>2022-08-29T04:55:45Z</time>
      </trkpt>
      <trkpt lat="42.4117690" lon="-2.6270370">
        <ele>615.0</ele>
        <time>2022-08-29T04:55:46Z</time>
      </trkpt>
      <trkpt lat="42.4117660" lon="-2.6270880">
        <ele>615.0</ele>
        <time>2022-08-29T04:55:47Z</time>
      </trkpt>
      <trkpt lat="42.4117630" lon="-2.6271380">
        <ele>615.0</ele>
        <time>2022-08-29T04:55:48Z</time>
      </trkpt>
      <trkpt lat="42.4117620" lon="-2.6271850">
        <ele>615.0</ele>
        <time>2022-08-29T04:55:49Z</time>
      </trkpt>
      <trkpt lat="42.4117630" lon="-2.6272330">
        <ele>615.0</ele>
        <time>2022-08-29T04:55:50Z</time>
      </trkpt>
      <trkpt lat="42.4117600" lon="-2.6272840">
        <ele>615.0</ele>
        <time>2022-08-29T04:55:51Z</time>
      </trkpt>
      <trkpt lat="42.4117580" lon="-2.6273350">
        <ele>615.0</ele>
        <time>2022-08-29T04:55:52Z</time>
      </trkpt>
      <trkpt lat="42.4117570" lon="-2.6273850">
        <ele>615.0</ele>
        <time>2022-08-29T04:55:53Z</time>
      </trkpt>
      <trkpt lat="42.4117560" lon="-2.6274350">
        <ele>615.0</ele>
        <time>2022-08-29T04:55:54Z</time>
      </trkpt>
      <trkpt lat="42.4117540" lon="-2.6274840">
        <ele>614.8</ele>
        <time>2022-08-29T04:55:55Z</time>
      </trkpt>
      <trkpt lat="42.4117510" lon="-2.6275340">
        <ele>615.0</ele>
        <time>2022-08-29T04:55:56Z</time>
      </trkpt>
      <trkpt lat="42.4117490" lon="-2.6275820">
        <ele>614.8</ele>
        <time>2022-08-29T04:55:57Z</time>
      </trkpt>
      <trkpt lat="42.4117500" lon="-2.6276300">
        <ele>614.8</ele>
        <time>2022-08-29T04:55:58Z</time>
      </trkpt>
      <trkpt lat="42.4117520" lon="-2.6276770">
        <ele>615.0</ele>
        <time>2022-08-29T04:55:59Z</time>
      </trkpt>
      <trkpt lat="42.4117550" lon="-2.6277160">
        <ele>615.0</ele>
        <time>2022-08-29T04:56:00Z</time>
      </trkpt>
      <trkpt lat="42.4117570" lon="-2.6277520">
        <ele>615.0</ele>
        <time>2022-08-29T04:56:01Z</time>
      </trkpt>
      <trkpt lat="42.4117570" lon="-2.6277860">
        <ele>615.0</ele>
        <time>2022-08-29T04:56:02Z</time>
      </trkpt>
      <trkpt lat="42.4117580" lon="-2.6278170">
        <ele>615.0</ele>
        <time>2022-08-29T04:56:03Z</time>
      </trkpt>
      <trkpt lat="42.4117580" lon="-2.6278490">
        <ele>615.0</ele>
        <time>2022-08-29T04:56:04Z</time>
      </trkpt>
      <trkpt lat="42.4117580" lon="-2.6278790">
        <ele>615.0</ele>
        <time>2022-08-29T04:56:05Z</time>
      </trkpt>
      <trkpt lat="42.4117570" lon="-2.6279080">
        <ele>615.0</ele>
        <time>2022-08-29T04:56:06Z</time>
      </trkpt>
      <trkpt lat="42.4117540" lon="-2.6279360">
        <ele>615.2</ele>
        <time>2022-08-29T04:56:07Z</time>
      </trkpt>
      <trkpt lat="42.4117510" lon="-2.6279620">
        <ele>615.4</ele>
        <time>2022-08-29T04:56:08Z</time>
      </trkpt>
      <trkpt lat="42.4117480" lon="-2.6279900">
        <ele>615.8</ele>
        <time>2022-08-29T04:56:09Z</time>
      </trkpt>
      <trkpt lat="42.4117450" lon="-2.6280190">
        <ele>615.8</ele>
        <time>2022-08-29T04:56:10Z</time>
      </trkpt>
      <trkpt lat="42.4117420" lon="-2.6280500">
        <ele>616.2</ele>
        <time>2022-08-29T04:56:11Z</time>
      </trkpt>
      <trkpt lat="42.4117370" lon="-2.6280810">
        <ele>616.8</ele>
        <time>2022-08-29T04:56:12Z</time>
      </trkpt>
      <trkpt lat="42.4117340" lon="-2.6281120">
        <ele>617.0</ele>
        <time>2022-08-29T04:56:13Z</time>
      </trkpt>
      <trkpt lat="42.4117310" lon="-2.6281500">
        <ele>617.4</ele>
        <time>2022-08-29T04:56:14Z</time>
      </trkpt>
      <trkpt lat="42.4117280" lon="-2.6281980">
        <ele>617.6</ele>
        <time>2022-08-29T04:56:15Z</time>
      </trkpt>
      <trkpt lat="42.4117200" lon="-2.6282580">
        <ele>617.6</ele>
        <time>2022-08-29T04:56:16Z</time>
      </trkpt>
      <trkpt lat="42.4117120" lon="-2.6283260">
        <ele>617.6</ele>
        <time>2022-08-29T04:56:17Z</time>
      </trkpt>
      <trkpt lat="42.4117000" lon="-2.6283990">
        <ele>617.8</ele>
        <time>2022-08-29T04:56:18Z</time>
      </trkpt>
      <trkpt lat="42.4116900" lon="-2.6284690">
        <ele>617.8</ele>
        <time>2022-08-29T04:56:19Z</time>
      </trkpt>
      <trkpt lat="42.4116790" lon="-2.6285370">
        <ele>617.6</ele>
        <time>2022-08-29T04:56:20Z</time>
      </trkpt>
      <trkpt lat="42.4116680" lon="-2.6286010">
        <ele>617.8</ele>
        <time>2022-08-29T04:56:21Z</time>
      </trkpt>
      <trkpt lat="42.4116580" lon="-2.6286630">
        <ele>617.8</ele>
        <time>2022-08-29T04:56:22Z</time>
      </trkpt>
      <trkpt lat="42.4116480" lon="-2.6287250">
        <ele>617.8</ele>
        <time>2022-08-29T04:56:23Z</time>
      </trkpt>
      <trkpt lat="42.4116370" lon="-2.6287860">
        <ele>617.8</ele>
        <time>2022-08-29T04:56:24Z</time>
      </trkpt>
      <trkpt lat="42.4116270" lon="-2.6288440">
        <ele>617.8</ele>
        <time>2022-08-29T04:56:25Z</time>
      </trkpt>
      <trkpt lat="42.4116200" lon="-2.6288990">
        <ele>617.8</ele>
        <time>2022-08-29T04:56:26Z</time>
      </trkpt>
      <trkpt lat="42.4116130" lon="-2.6289510">
        <ele>617.8</ele>
        <time>2022-08-29T04:56:27Z</time>
      </trkpt>
      <trkpt lat="42.4116050" lon="-2.6290040">
        <ele>617.6</ele>
        <time>2022-08-29T04:56:28Z</time>
      </trkpt>
      <trkpt lat="42.4115960" lon="-2.6290580">
        <ele>617.6</ele>
        <time>2022-08-29T04:56:29Z</time>
      </trkpt>
      <trkpt lat="42.4115910" lon="-2.6291100">
        <ele>617.8</ele>
        <time>2022-08-29T04:56:30Z</time>
      </trkpt>
      <trkpt lat="42.4115880" lon="-2.6291590">
        <ele>617.6</ele>
        <time>2022-08-29T04:56:31Z</time>
      </trkpt>
      <trkpt lat="42.4115870" lon="-2.6292060">
        <ele>617.6</ele>
        <time>2022-08-29T04:56:32Z</time>
      </trkpt>
      <trkpt lat="42.4115890" lon="-2.6292540">
        <ele>617.6</ele>
        <time>2022-08-29T04:56:33Z</time>
      </trkpt>
      <trkpt lat="42.4115920" lon="-2.6293040">
        <ele>617.8</ele>
        <time>2022-08-29T04:56:34Z</time>
      </trkpt>
      <trkpt lat="42.4115930" lon="-2.6293550">
        <ele>617.6</ele>
        <time>2022-08-29T04:56:35Z</time>
      </trkpt>
      <trkpt lat="42.4115960" lon="-2.6294050">
        <ele>617.8</ele>
        <time>2022-08-29T04:56:36Z</time>
      </trkpt>
      <trkpt lat="42.4116000" lon="-2.6294550">
        <ele>617.8</ele>
        <time>2022-08-29T04:56:37Z</time>
      </trkpt>
      <trkpt lat="42.4116030" lon="-2.6295050">
        <ele>617.6</ele>
        <time>2022-08-29T04:56:38Z</time>
      </trkpt>
      <trkpt lat="42.4116060" lon="-2.6295540">
        <ele>618.0</ele>
        <time>2022-08-29T04:56:39Z</time>
      </trkpt>
      <trkpt lat="42.4116060" lon="-2.6296030">
        <ele>618.4</ele>
        <time>2022-08-29T04:56:40Z</time>
      </trkpt>
      <trkpt lat="42.4116050" lon="-2.6296520">
        <ele>618.4</ele>
        <time>2022-08-29T04:56:41Z</time>
      </trkpt>
      <trkpt lat="42.4116040" lon="-2.6296990">
        <ele>618.6</ele>
        <time>2022-08-29T04:56:42Z</time>
      </trkpt>
      <trkpt lat="42.4116030" lon="-2.6297450">
        <ele>618.6</ele>
        <time>2022-08-29T04:56:43Z</time>
      </trkpt>
      <trkpt lat="42.4116000" lon="-2.6297910">
        <ele>618.8</ele>
        <time>2022-08-29T04:56:44Z</time>
      </trkpt>
      <trkpt lat="42.4115980" lon="-2.6298370">
        <ele>618.8</ele>
        <time>2022-08-29T04:56:45Z</time>
      </trkpt>
      <trkpt lat="42.4115970" lon="-2.6298820">
        <ele>618.8</ele>
        <time>2022-08-29T04:56:46Z</time>
      </trkpt>
      <trkpt lat="42.4115940" lon="-2.6299280">
        <ele>619.0</ele>
        <time>2022-08-29T04:56:47Z</time>
      </trkpt>
      <trkpt lat="42.4115910" lon="-2.6299730">
        <ele>619.2</ele>
        <time>2022-08-29T04:56:48Z</time>
      </trkpt>
      <trkpt lat="42.4115900" lon="-2.6300180">
        <ele>619.2</ele>
        <time>2022-08-29T04:56:49Z</time>
      </trkpt>
      <trkpt lat="42.4115890" lon="-2.6300630">
        <ele>619.6</ele>
        <time>2022-08-29T04:56:50Z</time>
      </trkpt>
      <trkpt lat="42.4115870" lon="-2.6301060">
        <ele>619.6</ele>
        <time>2022-08-29T04:56:51Z</time>
      </trkpt>
      <trkpt lat="42.4115840" lon="-2.6301500">
        <ele>619.8</ele>
        <time>2022-08-29T04:56:52Z</time>
      </trkpt>
      <trkpt lat="42.4115800" lon="-2.6301940">
        <ele>620.0</ele>
        <time>2022-08-29T04:56:53Z</time>
      </trkpt>
      <trkpt lat="42.4115760" lon="-2.6302390">
        <ele>620.2</ele>
        <time>2022-08-29T04:56:54Z</time>
      </trkpt>
      <trkpt lat="42.4115740" lon="-2.6302820">
        <ele>620.4</ele>
        <time>2022-08-29T04:56:55Z</time>
      </trkpt>
      <trkpt lat="42.4115710" lon="-2.6303250">
        <ele>620.4</ele>
        <time>2022-08-29T04:56:56Z</time>
      </trkpt>
      <trkpt lat="42.4115690" lon="-2.6303660">
        <ele>620.4</ele>
        <time>2022-08-29T04:56:57Z</time>
      </trkpt>
      <trkpt lat="42.4115670" lon="-2.6304090">
        <ele>620.6</ele>
        <time>2022-08-29T04:56:58Z</time>
      </trkpt>
      <trkpt lat="42.4115660" lon="-2.6304500">
        <ele>620.6</ele>
        <time>2022-08-29T04:56:59Z</time>
      </trkpt>
      <trkpt lat="42.4115630" lon="-2.6304910">
        <ele>620.8</ele>
        <time>2022-08-29T04:57:00Z</time>
      </trkpt>
      <trkpt lat="42.4115620" lon="-2.6305310">
        <ele>621.0</ele>
        <time>2022-08-29T04:57:01Z</time>
      </trkpt>
      <trkpt lat="42.4115620" lon="-2.6305700">
        <ele>621.0</ele>
        <time>2022-08-29T04:57:02Z</time>
      </trkpt>
      <trkpt lat="42.4115620" lon="-2.6306080">
        <ele>621.2</ele>
        <time>2022-08-29T04:57:03Z</time>
      </trkpt>
      <trkpt lat="42.4115630" lon="-2.6306450">
        <ele>621.2</ele>
        <time>2022-08-29T04:57:04Z</time>
      </trkpt>
      <trkpt lat="42.4115650" lon="-2.6306820">
        <ele>621.2</ele>
        <time>2022-08-29T04:57:05Z</time>
      </trkpt>
      <trkpt lat="42.4115670" lon="-2.6307190">
        <ele>621.4</ele>
        <time>2022-08-29T04:57:06Z</time>
      </trkpt>
      <trkpt lat="42.4115680" lon="-2.6307580">
        <ele>621.4</ele>
        <time>2022-08-29T04:57:07Z</time>
      </trkpt>
      <trkpt lat="42.4115680" lon="-2.6307970">
        <ele>621.6</ele>
        <time>2022-08-29T04:57:08Z</time>
      </trkpt>
      <trkpt lat="42.4115690" lon="-2.6308380">
        <ele>621.8</ele>
        <time>2022-08-29T04:57:09Z</time>
      </trkpt>
      <trkpt lat="42.4115690" lon="-2.6308800">
        <ele>622.0</ele>
        <time>2022-08-29T04:57:10Z</time>
      </trkpt>
      <trkpt lat="42.4115700" lon="-2.6309230">
        <ele>622.4</ele>
        <time>2022-08-29T04:57:11Z</time>
      </trkpt>
      <trkpt lat="42.4115710" lon="-2.6309670">
        <ele>622.4</ele>
        <time>2022-08-29T04:57:12Z</time>
      </trkpt>
      <trkpt lat="42.4115720" lon="-2.6310130">
        <ele>622.6</ele>
        <time>2022-08-29T04:57:13Z</time>
      </trkpt>
      <trkpt lat="42.4115710" lon="-2.6310620">
        <ele>623.0</ele>
        <time>2022-08-29T04:57:14Z</time>
      </trkpt>
      <trkpt lat="42.4115690" lon="-2.6311110">
        <ele>623.2</ele>
        <time>2022-08-29T04:57:15Z</time>
      </trkpt>
      <trkpt lat="42.4115640" lon="-2.6311650">
        <ele>623.2</ele>
        <time>2022-08-29T04:57:16Z</time>
      </trkpt>
      <trkpt lat="42.4115600" lon="-2.6312220">
        <ele>623.4</ele>
        <time>2022-08-29T04:57:17Z</time>
      </trkpt>
      <trkpt lat="42.4115540" lon="-2.6312780">
        <ele>623.6</ele>
        <time>2022-08-29T04:57:18Z</time>
      </trkpt>
      <trkpt lat="42.4115490" lon="-2.6313330">
        <ele>623.4</ele>
        <time>2022-08-29T04:57:19Z</time>
      </trkpt>
      <trkpt lat="42.4115430" lon="-2.6313890">
        <ele>623.4</ele>
        <time>2022-08-29T04:57:20Z</time>
      </trkpt>
      <trkpt lat="42.4115340" lon="-2.6314460">
        <ele>623.6</ele>
        <time>2022-08-29T04:57:21Z</time>
      </trkpt>
      <trkpt lat="42.4115260" lon="-2.6315020">
        <ele>623.6</ele>
        <time>2022-08-29T04:57:22Z</time>
      </trkpt>
      <trkpt lat="42.4115190" lon="-2.6315580">
        <ele>623.6</ele>
        <time>2022-08-29T04:57:23Z</time>
      </trkpt>
      <trkpt lat="42.4115150" lon="-2.6316130">
        <ele>623.6</ele>
        <time>2022-08-29T04:57:24Z</time>
      </trkpt>
      <trkpt lat="42.4115130" lon="-2.6316690">
        <ele>623.6</ele>
        <time>2022-08-29T04:57:25Z</time>
      </trkpt>
      <trkpt lat="42.4115120" lon="-2.6317250">
        <ele>623.4</ele>
        <time>2022-08-29T04:57:26Z</time>
      </trkpt>
      <trkpt lat="42.4115110" lon="-2.6317820">
        <ele>623.6</ele>
        <time>2022-08-29T04:57:27Z</time>
      </trkpt>
      <trkpt lat="42.4115100" lon="-2.6318360">
        <ele>623.6</ele>
        <time>2022-08-29T04:57:28Z</time>
      </trkpt>
      <trkpt lat="42.4115080" lon="-2.6318920">
        <ele>623.6</ele>
        <time>2022-08-29T04:57:29Z</time>
      </trkpt>
      <trkpt lat="42.4115080" lon="-2.6319470">
        <ele>623.6</ele>
        <time>2022-08-29T04:57:30Z</time>
      </trkpt>
      <trkpt lat="42.4115100" lon="-2.6320010">
        <ele>623.6</ele>
        <time>2022-08-29T04:57:31Z</time>
      </trkpt>
      <trkpt lat="42.4115120" lon="-2.6320570">
        <ele>623.6</ele>
        <time>2022-08-29T04:57:32Z</time>
      </trkpt>
      <trkpt lat="42.4115160" lon="-2.6321110">
        <ele>623.8</ele>
        <time>2022-08-29T04:57:33Z</time>
      </trkpt>
      <trkpt lat="42.4115190" lon="-2.6321660">
        <ele>623.6</ele>
        <time>2022-08-29T04:57:34Z</time>
      </trkpt>
      <trkpt lat="42.4115230" lon="-2.6322220">
        <ele>623.8</ele>
        <time>2022-08-29T04:57:35Z</time>
      </trkpt>
      <trkpt lat="42.4115260" lon="-2.6322780">
        <ele>623.8</ele>
        <time>2022-08-29T04:57:36Z</time>
      </trkpt>
      <trkpt lat="42.4115290" lon="-2.6323340">
        <ele>623.8</ele>
        <time>2022-08-29T04:57:37Z</time>
      </trkpt>
      <trkpt lat="42.4115320" lon="-2.6323910">
        <ele>623.8</ele>
        <time>2022-08-29T04:57:38Z</time>
      </trkpt>
      <trkpt lat="42.4115360" lon="-2.6324480">
        <ele>623.8</ele>
        <time>2022-08-29T04:57:39Z</time>
      </trkpt>
      <trkpt lat="42.4115380" lon="-2.6325070">
        <ele>623.8</ele>
        <time>2022-08-29T04:57:40Z</time>
      </trkpt>
      <trkpt lat="42.4115410" lon="-2.6325630">
        <ele>623.8</ele>
        <time>2022-08-29T04:57:41Z</time>
      </trkpt>
      <trkpt lat="42.4115430" lon="-2.6326190">
        <ele>624.0</ele>
        <time>2022-08-29T04:57:42Z</time>
      </trkpt>
      <trkpt lat="42.4115450" lon="-2.6326750">
        <ele>624.0</ele>
        <time>2022-08-29T04:57:43Z</time>
      </trkpt>
      <trkpt lat="42.4115500" lon="-2.6327290">
        <ele>624.0</ele>
        <time>2022-08-29T04:57:44Z</time>
      </trkpt>
      <trkpt lat="42.4115540" lon="-2.6327840">
        <ele>624.0</ele>
        <time>2022-08-29T04:57:45Z</time>
      </trkpt>
      <trkpt lat="42.4115560" lon="-2.6328400">
        <ele>624.0</ele>
        <time>2022-08-29T04:57:46Z</time>
      </trkpt>
      <trkpt lat="42.4115570" lon="-2.6328970">
        <ele>624.0</ele>
        <time>2022-08-29T04:57:47Z</time>
      </trkpt>
      <trkpt lat="42.4115600" lon="-2.6329550">
        <ele>624.2</ele>
        <time>2022-08-29T04:57:48Z</time>
      </trkpt>
      <trkpt lat="42.4115630" lon="-2.6330120">
        <ele>624.2</ele>
        <time>2022-08-29T04:57:49Z</time>
      </trkpt>
      <trkpt lat="42.4115670" lon="-2.6330690">
        <ele>624.4</ele>
        <time>2022-08-29T04:57:50Z</time>
      </trkpt>
      <trkpt lat="42.4115700" lon="-2.6331260">
        <ele>624.4</ele>
        <time>2022-08-29T04:57:51Z</time>
      </trkpt>
      <trkpt lat="42.4115710" lon="-2.6331840">
        <ele>624.6</ele>
        <time>2022-08-29T04:57:52Z</time>
      </trkpt>
      <trkpt lat="42.4115690" lon="-2.6332410">
        <ele>624.6</ele>
        <time>2022-08-29T04:57:53Z</time>
      </trkpt>
      <trkpt lat="42.4115700" lon="-2.6332960">
        <ele>624.6</ele>
        <time>2022-08-29T04:57:54Z</time>
      </trkpt>
      <trkpt lat="42.4115720" lon="-2.6333500">
        <ele>624.6</ele>
        <time>2022-08-29T04:57:55Z</time>
      </trkpt>
      <trkpt lat="42.4115730" lon="-2.6334030">
        <ele>624.6</ele>
        <time>2022-08-29T04:57:56Z</time>
      </trkpt>
      <trkpt lat="42.4115740" lon="-2.6334530">
        <ele>624.8</ele>
        <time>2022-08-29T04:57:57Z</time>
      </trkpt>
      <trkpt lat="42.4115750" lon="-2.6335010">
        <ele>624.8</ele>
        <time>2022-08-29T04:57:58Z</time>
      </trkpt>
      <trkpt lat="42.4115750" lon="-2.6335480">
        <ele>624.8</ele>
        <time>2022-08-29T04:57:59Z</time>
      </trkpt>
      <trkpt lat="42.4115760" lon="-2.6335930">
        <ele>625.0</ele>
        <time>2022-08-29T04:58:00Z</time>
      </trkpt>
      <trkpt lat="42.4115780" lon="-2.6336380">
        <ele>625.0</ele>
        <time>2022-08-29T04:58:01Z</time>
      </trkpt>
      <trkpt lat="42.4115820" lon="-2.6336820">
        <ele>625.0</ele>
        <time>2022-08-29T04:58:02Z</time>
      </trkpt>
      <trkpt lat="42.4115850" lon="-2.6337260">
        <ele>625.0</ele>
        <time>2022-08-29T04:58:03Z</time>
      </trkpt>
      <trkpt lat="42.4115850" lon="-2.6337670">
        <ele>625.2</ele>
        <time>2022-08-29T04:58:04Z</time>
      </trkpt>
      <trkpt lat="42.4115860" lon="-2.6338070">
        <ele>625.2</ele>
        <time>2022-08-29T04:58:05Z</time>
      </trkpt>
      <trkpt lat="42.4115880" lon="-2.6338460">
        <ele>625.6</ele>
        <time>2022-08-29T04:58:06Z</time>
      </trkpt>
      <trkpt lat="42.4115880" lon="-2.6338870">
        <ele>625.8</ele>
        <time>2022-08-29T04:58:07Z</time>
      </trkpt>
      <trkpt lat="42.4115840" lon="-2.6339270">
        <ele>625.8</ele>
        <time>2022-08-29T04:58:08Z</time>
      </trkpt>
      <trkpt lat="42.4115770" lon="-2.6339660">
        <ele>626.2</ele>
        <time>2022-08-29T04:58:09Z</time>
      </trkpt>
      <trkpt lat="42.4115700" lon="-2.6340040">
        <ele>626.4</ele>
        <time>2022-08-29T04:58:10Z</time>
      </trkpt>
      <trkpt lat="42.4115610" lon="-2.6340420">
        <ele>626.4</ele>
        <time>2022-08-29T04:58:11Z</time>
      </trkpt>
      <trkpt lat="42.4115510" lon="-2.6340810">
        <ele>626.4</ele>
        <time>2022-08-29T04:58:12Z</time>
      </trkpt>
      <trkpt lat="42.4115380" lon="-2.6341230">
        <ele>626.8</ele>
        <time>2022-08-29T04:58:13Z</time>
      </trkpt>
      <trkpt lat="42.4115250" lon="-2.6341670">
        <ele>626.8</ele>
        <time>2022-08-29T04:58:14Z</time>
      </trkpt>
      <trkpt lat="42.4115090" lon="-2.6342120">
        <ele>626.8</ele>
        <time>2022-08-29T04:58:15Z</time>
      </trkpt>
      <trkpt lat="42.4114930" lon="-2.6342590">
        <ele>627.0</ele>
        <time>2022-08-29T04:58:16Z</time>
      </trkpt>
      <trkpt lat="42.4114760" lon="-2.6343080">
        <ele>627.0</ele>
        <time>2022-08-29T04:58:17Z</time>
      </trkpt>
      <trkpt lat="42.4114580" lon="-2.6343560">
        <ele>627.0</ele>
        <time>2022-08-29T04:58:18Z</time>
      </trkpt>
      <trkpt lat="42.4114410" lon="-2.6344040">
        <ele>627.0</ele>
        <time>2022-08-29T04:58:19Z</time>
      </trkpt>
      <trkpt lat="42.4114260" lon="-2.6344530">
        <ele>627.0</ele>
        <time>2022-08-29T04:58:20Z</time>
      </trkpt>
      <trkpt lat="42.4114130" lon="-2.6345020">
        <ele>627.0</ele>
        <time>2022-08-29T04:58:21Z</time>
      </trkpt>
      <trkpt lat="42.4114010" lon="-2.6345540">
        <ele>627.2</ele>
        <time>2022-08-29T04:58:22Z</time>
      </trkpt>
      <trkpt lat="42.4113920" lon="-2.6346070">
        <ele>627.2</ele>
        <time>2022-08-29T04:58:23Z</time>
      </trkpt>
      <trkpt lat="42.4113840" lon="-2.6346610">
        <ele>627.2</ele>
        <time>2022-08-29T04:58:24Z</time>
      </trkpt>
      <trkpt lat="42.4113780" lon="-2.6347140">
        <ele>627.2</ele>
        <time>2022-08-29T04:58:25Z</time>
      </trkpt>
      <trkpt lat="42.4113750" lon="-2.6347650">
        <ele>627.2</ele>
        <time>2022-08-29T04:58:26Z</time>
      </trkpt>
      <trkpt lat="42.4113730" lon="-2.6348150">
        <ele>627.2</ele>
        <time>2022-08-29T04:58:27Z</time>
      </trkpt>
      <trkpt lat="42.4113740" lon="-2.6348660">
        <ele>627.2</ele>
        <time>2022-08-29T04:58:28Z</time>
      </trkpt>
      <trkpt lat="42.4113760" lon="-2.6349190">
        <ele>627.4</ele>
        <time>2022-08-29T04:58:29Z</time>
      </trkpt>
      <trkpt lat="42.4113790" lon="-2.6349720">
        <ele>627.4</ele>
        <time>2022-08-29T04:58:30Z</time>
      </trkpt>
      <trkpt lat="42.4113840" lon="-2.6350260">
        <ele>627.6</ele>
        <time>2022-08-29T04:58:31Z</time>
      </trkpt>
      <trkpt lat="42.4113890" lon="-2.6350800">
        <ele>627.4</ele>
        <time>2022-08-29T04:58:32Z</time>
      </trkpt>
      <trkpt lat="42.4113940" lon="-2.6351340">
        <ele>627.4</ele>
        <time>2022-08-29T04:58:33Z</time>
      </trkpt>
      <trkpt lat="42.4113980" lon="-2.6351880">
        <ele>627.4</ele>
        <time>2022-08-29T04:58:34Z</time>
      </trkpt>
      <trkpt lat="42.4114020" lon="-2.6352420">
        <ele>627.6</ele>
        <time>2022-08-29T04:58:35Z</time>
      </trkpt>
      <trkpt lat="42.4114060" lon="-2.6352960">
        <ele>627.8</ele>
        <time>2022-08-29T04:58:36Z</time>
      </trkpt>
      <trkpt lat="42.4114120" lon="-2.6353510">
        <ele>627.8</ele>
        <time>2022-08-29T04:58:37Z</time>
      </trkpt>
      <trkpt lat="42.4114180" lon="-2.6354060">
        <ele>627.8</ele>
        <time>2022-08-29T04:58:38Z</time>
      </trkpt>
      <trkpt lat="42.4114220" lon="-2.6354630">
        <ele>627.8</ele>
        <time>2022-08-29T04:58:39Z</time>
      </trkpt>
      <trkpt lat="42.4114250" lon="-2.6355190">
        <ele>628.0</ele>
        <time>2022-08-29T04:58:40Z</time>
      </trkpt>
      <trkpt lat="42.4114280" lon="-2.6355760">
        <ele>627.8</ele>
        <time>2022-08-29T04:58:41Z</time>
      </trkpt>
      <trkpt lat="42.4114320" lon="-2.6356320">
        <ele>628.2</ele>
        <time>2022-08-29T04:58:42Z</time>
      </trkpt>
      <trkpt lat="42.4114370" lon="-2.6356860">
        <ele>628.2</ele>
        <time>2022-08-29T04:58:43Z</time>
      </trkpt>
      <trkpt lat="42.4114410" lon="-2.6357390">
        <ele>628.0</ele>
        <time>2022-08-29T04:58:44Z</time>
      </trkpt>
      <trkpt lat="42.4114460" lon="-2.6357910">
        <ele>628.0</ele>
        <time>2022-08-29T04:58:45Z</time>
      </trkpt>
      <trkpt lat="42.4114500" lon="-2.6358420">
        <ele>628.0</ele>
        <time>2022-08-29T04:58:46Z</time>
      </trkpt>
      <trkpt lat="42.4114560" lon="-2.6358930">
        <ele>628.0</ele>
        <time>2022-08-29T04:58:47Z</time>
      </trkpt>
      <trkpt lat="42.4114610" lon="-2.6359440">
        <ele>628.0</ele>
        <time>2022-08-29T04:58:48Z</time>
      </trkpt>
      <trkpt lat="42.4114660" lon="-2.6359940">
        <ele>628.2</ele>
        <time>2022-08-29T04:58:49Z</time>
      </trkpt>
      <trkpt lat="42.4114720" lon="-2.6360420">
        <ele>628.0</ele>
        <time>2022-08-29T04:58:50Z</time>
      </trkpt>
      <trkpt lat="42.4114780" lon="-2.6360900">
        <ele>628.2</ele>
        <time>2022-08-29T04:58:51Z</time>
      </trkpt>
      <trkpt lat="42.4114830" lon="-2.6361390">
        <ele>628.2</ele>
        <time>2022-08-29T04:58:52Z</time>
      </trkpt>
      <trkpt lat="42.4114870" lon="-2.6361880">
        <ele>628.2</ele>
        <time>2022-08-29T04:58:53Z</time>
      </trkpt>
      <trkpt lat="42.4114920" lon="-2.6362360">
        <ele>628.4</ele>
        <time>2022-08-29T04:58:54Z</time>
      </trkpt>
      <trkpt lat="42.4114960" lon="-2.6362840">
        <ele>628.4</ele>
        <time>2022-08-29T04:58:55Z</time>
      </trkpt>
      <trkpt lat="42.4115010" lon="-2.6363320">
        <ele>628.6</ele>
        <time>2022-08-29T04:58:56Z</time>
      </trkpt>
      <trkpt lat="42.4115060" lon="-2.6363790">
        <ele>628.8</ele>
        <time>2022-08-29T04:58:57Z</time>
      </trkpt>
      <trkpt lat="42.4115120" lon="-2.6364260">
        <ele>629.0</ele>
        <time>2022-08-29T04:58:58Z</time>
      </trkpt>
      <trkpt lat="42.4115160" lon="-2.6364730">
        <ele>629.0</ele>
        <time>2022-08-29T04:58:59Z</time>
      </trkpt>
      <trkpt lat="42.4115200" lon="-2.6365200">
        <ele>629.0</ele>
        <time>2022-08-29T04:59:00Z</time>
      </trkpt>
      <trkpt lat="42.4115240" lon="-2.6365670">
        <ele>629.0</ele>
        <time>2022-08-29T04:59:01Z</time>
      </trkpt>
      <trkpt lat="42.4115270" lon="-2.6366140">
        <ele>629.2</ele>
        <time>2022-08-29T04:59:02Z</time>
      </trkpt>
      <trkpt lat="42.4115280" lon="-2.6366600">
        <ele>629.2</ele>
        <time>2022-08-29T04:59:03Z</time>
      </trkpt>
      <trkpt lat="42.4115270" lon="-2.6367060">
        <ele>629.4</ele>
        <time>2022-08-29T04:59:04Z</time>
      </trkpt>
      <trkpt lat="42.4115260" lon="-2.6367520">
        <ele>629.6</ele>
        <time>2022-08-29T04:59:05Z</time>
      </trkpt>
      <trkpt lat="42.4115230" lon="-2.6367990">
        <ele>629.8</ele>
        <time>2022-08-29T04:59:06Z</time>
      </trkpt>
      <trkpt lat="42.4115190" lon="-2.6368440">
        <ele>629.8</ele>
        <time>2022-08-29T04:59:07Z</time>
      </trkpt>
      <trkpt lat="42.4115160" lon="-2.6368890">
        <ele>630.0</ele>
        <time>2022-08-29T04:59:08Z</time>
      </trkpt>
      <trkpt lat="42.4115110" lon="-2.6369340">
        <ele>630.2</ele>
        <time>2022-08-29T04:59:09Z</time>
      </trkpt>
      <trkpt lat="42.4115060" lon="-2.6369760">
        <ele>630.2</ele>
        <time>2022-08-29T04:59:10Z</time>
      </trkpt>
      <trkpt lat="42.4115000" lon="-2.6370160">
        <ele>630.0</ele>
        <time>2022-08-29T04:59:11Z</time>
      </trkpt>
      <trkpt lat="42.4114930" lon="-2.6370550">
        <ele>630.4</ele>
        <time>2022-08-29T04:59:12Z</time>
      </trkpt>
      <trkpt lat="42.4114870" lon="-2.6370930">
        <ele>630.6</ele>
        <time>2022-08-29T04:59:13Z</time>
      </trkpt>
      <trkpt lat="42.4114820" lon="-2.6371290">
        <ele>630.6</ele>
        <time>2022-08-29T04:59:14Z</time>
      </trkpt>
      <trkpt lat="42.4114780" lon="-2.6371630">
        <ele>630.6</ele>
        <time>2022-08-29T04:59:15Z</time>
      </trkpt>
      <trkpt lat="42.4114740" lon="-2.6371960">
        <ele>630.8</ele>
        <time>2022-08-29T04:59:16Z</time>
      </trkpt>
      <trkpt lat="42.4114680" lon="-2.6372260">
        <ele>630.8</ele>
        <time>2022-08-29T04:59:17Z</time>
      </trkpt>
      <trkpt lat="42.4114640" lon="-2.6372540">
        <ele>630.8</ele>
        <time>2022-08-29T04:59:18Z</time>
      </trkpt>
      <trkpt lat="42.4114600" lon="-2.6372810">
        <ele>631.0</ele>
        <time>2022-08-29T04:59:19Z</time>
      </trkpt>
      <trkpt lat="42.4114570" lon="-2.6373070">
        <ele>631.0</ele>
        <time>2022-08-29T04:59:20Z</time>
      </trkpt>
      <trkpt lat="42.4114540" lon="-2.6373340">
        <ele>631.2</ele>
        <time>2022-08-29T04:59:21Z</time>
      </trkpt>
      <trkpt lat="42.4114520" lon="-2.6373600">
        <ele>631.6</ele>
        <time>2022-08-29T04:59:22Z</time>
      </trkpt>
      <trkpt lat="42.4114490" lon="-2.6373880">
        <ele>632.0</ele>
        <time>2022-08-29T04:59:23Z</time>
      </trkpt>
      <trkpt lat="42.4114470" lon="-2.6374170">
        <ele>632.0</ele>
        <time>2022-08-29T04:59:24Z</time>
      </trkpt>
      <trkpt lat="42.4114460" lon="-2.6374470">
        <ele>632.0</ele>
        <time>2022-08-29T04:59:25Z</time>
      </trkpt>
      <trkpt lat="42.4114460" lon="-2.6374790">
        <ele>632.2</ele>
        <time>2022-08-29T04:59:26Z</time>
      </trkpt>
      <trkpt lat="42.4114470" lon="-2.6375120">
        <ele>632.2</ele>
        <time>2022-08-29T04:59:27Z</time>
      </trkpt>
      <trkpt lat="42.4114470" lon="-2.6375460">
        <ele>632.6</ele>
        <time>2022-08-29T04:59:28Z</time>
      </trkpt>
      <trkpt lat="42.4114480" lon="-2.6375790">
        <ele>633.0</ele>
        <time>2022-08-29T04:59:29Z</time>
      </trkpt>
      <trkpt lat="42.4114510" lon="-2.6376110">
        <ele>633.2</ele>
        <time>2022-08-29T04:59:30Z</time>
      </trkpt>
      <trkpt lat="42.4114530" lon="-2.6376430">
        <ele>633.2</ele>
        <time>2022-08-29T04:59:31Z</time>
      </trkpt>
      <trkpt lat="42.4114560" lon="-2.6376740">
        <ele>633.6</ele>
        <time>2022-08-29T04:59:32Z</time>
      </trkpt>
      <trkpt lat="42.4114580" lon="-2.6377050">
        <ele>633.6</ele>
        <time>2022-08-29T04:59:33Z</time>
      </trkpt>
      <trkpt lat="42.4114590" lon="-2.6377370">
        <ele>634.0</ele>
        <time>2022-08-29T04:59:34Z</time>
      </trkpt>
      <trkpt lat="42.4114600" lon="-2.6377700">
        <ele>634.2</ele>
        <time>2022-08-29T04:59:35Z</time>
      </trkpt>
      <trkpt lat="42.4114630" lon="-2.6378050">
        <ele>634.4</ele>
        <time>2022-08-29T04:59:36Z</time>
      </trkpt>
      <trkpt lat="42.4114670" lon="-2.6378380">
        <ele>634.6</ele>
        <time>2022-08-29T04:59:37Z</time>
      </trkpt>
      <trkpt lat="42.4114710" lon="-2.6378730">
        <ele>634.8</ele>
        <time>2022-08-29T04:59:38Z</time>
      </trkpt>
      <trkpt lat="42.4114750" lon="-2.6379090">
        <ele>635.0</ele>
        <time>2022-08-29T04:59:39Z</time>
      </trkpt>
      <trkpt lat="42.4114800" lon="-2.6379460">
        <ele>635.2</ele>
        <time>2022-08-29T04:59:40Z</time>
      </trkpt>
      <trkpt lat="42.4114840" lon="-2.6379830">
        <ele>635.6</ele>
        <time>2022-08-29T04:59:41Z</time>
      </trkpt>
      <trkpt lat="42.4114890" lon="-2.6380210">
        <ele>635.6</ele>
        <time>2022-08-29T04:59:42Z</time>
      </trkpt>
      <trkpt lat="42.4114940" lon="-2.6380570">
        <ele>635.6</ele>
        <time>2022-08-29T04:59:43Z</time>
      </trkpt>
      <trkpt lat="42.4114970" lon="-2.6380940">
        <ele>636.0</ele>
        <time>2022-08-29T04:59:44Z</time>
      </trkpt>
      <trkpt lat="42.4115010" lon="-2.6381310">
        <ele>636.0</ele>
        <time>2022-08-29T04:59:45Z</time>
      </trkpt>
      <trkpt lat="42.4115030" lon="-2.6381680">
        <ele>636.0</ele>
        <time>2022-08-29T04:59:46Z</time>
      </trkpt>
      <trkpt lat="42.4115050" lon="-2.6382040">
        <ele>636.2</ele>
        <time>2022-08-29T04:59:47Z</time>
      </trkpt>
      <trkpt lat="42.4115050" lon="-2.6382410">
        <ele>636.2</ele>
        <time>2022-08-29T04:59:48Z</time>
      </trkpt>
      <trkpt lat="42.4115050" lon="-2.6382770">
        <ele>636.4</ele>
        <time>2022-08-29T04:59:49Z</time>
      </trkpt>
      <trkpt lat="42.4115050" lon="-2.6383140">
        <ele>636.4</ele>
        <time>2022-08-29T04:59:50Z</time>
      </trkpt>
      <trkpt lat="42.4115020" lon="-2.6383500">
        <ele>636.4</ele>
        <time>2022-08-29T04:59:51Z</time>
      </trkpt>
      <trkpt lat="42.4115000" lon="-2.6383850">
        <ele>636.6</ele>
        <time>2022-08-29T04:59:52Z</time>
      </trkpt>
      <trkpt lat="42.4114970" lon="-2.6384200">
        <ele>636.6</ele>
        <time>2022-08-29T04:59:53Z</time>
      </trkpt>
      <trkpt lat="42.4114930" lon="-2.6384540">
        <ele>636.6</ele>
        <time>2022-08-29T04:59:54Z</time>
      </trkpt>
      <trkpt lat="42.4114880" lon="-2.6384870">
        <ele>636.6</ele>
        <time>2022-08-29T04:59:55Z</time>
      </trkpt>
      <trkpt lat="42.4114820" lon="-2.6385210">
        <ele>636.6</ele>
        <time>2022-08-29T04:59:56Z</time>
      </trkpt>
      <trkpt lat="42.4114750" lon="-2.6385530">
        <ele>636.6</ele>
        <time>2022-08-29T04:59:57Z</time>
      </trkpt>
      <trkpt lat="42.4114680" lon="-2.6385860">
        <ele>636.8</ele>
        <time>2022-08-29T04:59:58Z</time>
      </trkpt>
      <trkpt lat="42.4114620" lon="-2.6386180">
        <ele>636.8</ele>
        <time>2022-08-29T04:59:59Z</time>
      </trkpt>
      <trkpt lat="42.4114560" lon="-2.6386500">
        <ele>636.8</ele>
        <time>2022-08-29T05:00:00Z</time>
      </trkpt>
      <trkpt lat="42.4114490" lon="-2.6386820">
        <ele>637.0</ele>
        <time>2022-08-29T05:00:01Z</time>
      </trkpt>
      <trkpt lat="42.4114420" lon="-2.6387130">
        <ele>637.2</ele>
        <time>2022-08-29T05:00:02Z</time>
      </trkpt>
      <trkpt lat="42.4114350" lon="-2.6387440">
        <ele>637.4</ele>
        <time>2022-08-29T05:00:03Z</time>
      </trkpt>
      <trkpt lat="42.4114280" lon="-2.6387750">
        <ele>637.6</ele>
        <time>2022-08-29T05:00:04Z</time>
      </trkpt>
      <trkpt lat="42.4114210" lon="-2.6388060">
        <ele>637.8</ele>
        <time>2022-08-29T05:00:05Z</time>
      </trkpt>
      <trkpt lat="42.4114140" lon="-2.6388380">
        <ele>638.2</ele>
        <time>2022-08-29T05:00:06Z</time>
      </trkpt>
      <trkpt lat="42.4114060" lon="-2.6388700">
        <ele>638.4</ele>
        <time>2022-08-29T05:00:07Z</time>
      </trkpt>
      <trkpt lat="42.4113980" lon="-2.6389020">
        <ele>638.6</ele>
        <time>2022-08-29T05:00:08Z</time>
      </trkpt>
      <trkpt lat="42.4113920" lon="-2.6389350">
        <ele>638.6</ele>
        <time>2022-08-29T05:00:09Z</time>
      </trkpt>
      <trkpt lat="42.4113850" lon="-2.6389670">
        <ele>638.6</ele>
        <time>2022-08-29T05:00:10Z</time>
      </trkpt>
      <trkpt lat="42.4113800" lon="-2.6390000">
        <ele>638.8</ele>
        <time>2022-08-29T05:00:11Z</time>
      </trkpt>
      <trkpt lat="42.4113760" lon="-2.6390330">
        <ele>638.8</ele>
        <time>2022-08-29T05:00:12Z</time>
      </trkpt>
      <trkpt lat="42.4113750" lon="-2.6390670">
        <ele>639.0</ele>
        <time>2022-08-29T05:00:13Z</time>
      </trkpt>
      <trkpt lat="42.4113740" lon="-2.6391000">
        <ele>639.4</ele>
        <time>2022-08-29T05:00:14Z</time>
      </trkpt>
      <trkpt lat="42.4113730" lon="-2.6391330">
        <ele>639.2</ele>
        <time>2022-08-29T05:00:15Z</time>
      </trkpt>
      <trkpt lat="42.4113700" lon="-2.6391670">
        <ele>639.2</ele>
        <time>2022-08-29T05:00:16Z</time>
      </trkpt>
      <trkpt lat="42.4113680" lon="-2.6392000">
        <ele>639.4</ele>
        <time>2022-08-29T05:00:17Z</time>
      </trkpt>
      <trkpt lat="42.4113650" lon="-2.6392330">
        <ele>639.8</ele>
        <time>2022-08-29T05:00:18Z</time>
      </trkpt>
      <trkpt lat="42.4113640" lon="-2.6392670">
        <ele>640.0</ele>
        <time>2022-08-29T05:00:19Z</time>
      </trkpt>
      <trkpt lat="42.4113620" lon="-2.6393010">
        <ele>640.0</ele>
        <time>2022-08-29T05:00:20Z</time>
      </trkpt>
      <trkpt lat="42.4113590" lon="-2.6393350">
        <ele>640.2</ele>
        <time>2022-08-29T05:00:21Z</time>
      </trkpt>
      <trkpt lat="42.4113570" lon="-2.6393690">
        <ele>640.2</ele>
        <time>2022-08-29T05:00:22Z</time>
      </trkpt>
      <trkpt lat="42.4113560" lon="-2.6394030">
        <ele>640.6</ele>
        <time>2022-08-29T05:00:23Z</time>
      </trkpt>
      <trkpt lat="42.4113550" lon="-2.6394370">
        <ele>640.6</ele>
        <time>2022-08-29T05:00:24Z</time>
      </trkpt>
      <trkpt lat="42.4113530" lon="-2.6394700">
        <ele>640.8</ele>
        <time>2022-08-29T05:00:25Z</time>
      </trkpt>
      <trkpt lat="42.4113500" lon="-2.6395030">
        <ele>641.0</ele>
        <time>2022-08-29T05:00:26Z</time>
      </trkpt>
      <trkpt lat="42.4113470" lon="-2.6395350">
        <ele>641.2</ele>
        <time>2022-08-29T05:00:27Z</time>
      </trkpt>
      <trkpt lat="42.4113430" lon="-2.6395670">
        <ele>641.6</ele>
        <time>2022-08-29T05:00:28Z</time>
      </trkpt>
      <trkpt lat="42.4113380" lon="-2.6395980">
        <ele>641.6</ele>
        <time>2022-08-29T05:00:29Z</time>
      </trkpt>
      <trkpt lat="42.4113340" lon="-2.6396300">
        <ele>641.8</ele>
        <time>2022-08-29T05:00:30Z</time>
      </trkpt>
      <trkpt lat="42.4113280" lon="-2.6396600">
        <ele>641.8</ele>
        <time>2022-08-29T05:00:31Z</time>
      </trkpt>
      <trkpt lat="42.4113240" lon="-2.6396890">
        <ele>642.0</ele>
        <time>2022-08-29T05:00:32Z</time>
      </trkpt>
      <trkpt lat="42.4113190" lon="-2.6397160">
        <ele>642.2</ele>
        <time>2022-08-29T05:00:33Z</time>
      </trkpt>
      <trkpt lat="42.4113140" lon="-2.6397420">
        <ele>642.4</ele>
        <time>2022-08-29T05:00:34Z</time>
      </trkpt>
      <trkpt lat="42.4113080" lon="-2.6397660">
        <ele>642.4</ele>
        <time>2022-08-29T05:00:35Z</time>
      </trkpt>
      <trkpt lat="42.4113040" lon="-2.6397880">
        <ele>642.6</ele>
        <time>2022-08-29T05:00:36Z</time>
      </trkpt>
      <trkpt lat="42.4113000" lon="-2.6398080">
        <ele>642.6</ele>
        <time>2022-08-29T05:00:37Z</time>
      </trkpt>
      <trkpt lat="42.4112970" lon="-2.6398260">
        <ele>642.6</ele>
        <time>2022-08-29T05:00:38Z</time>
      </trkpt>
      <trkpt lat="42.4112960" lon="-2.6398430">
        <ele>642.8</ele>
        <time>2022-08-29T05:00:39Z</time>
      </trkpt>
      <trkpt lat="42.4112960" lon="-2.6398610">
        <ele>642.8</ele>
        <time>2022-08-29T05:00:40Z</time>
      </trkpt>
      <trkpt lat="42.4112990" lon="-2.6398860">
        <ele>643.0</ele>
        <time>2022-08-29T05:00:41Z</time>
      </trkpt>
      <trkpt lat="42.4113020" lon="-2.6399160">
        <ele>643.0</ele>
        <time>2022-08-29T05:00:42Z</time>
      </trkpt>
      <trkpt lat="42.4113050" lon="-2.6399490">
        <ele>643.2</ele>
        <time>2022-08-29T05:00:43Z</time>
      </trkpt>
      <trkpt lat="42.4113070" lon="-2.6399820">
        <ele>643.4</ele>
        <time>2022-08-29T05:00:44Z</time>
      </trkpt>
      <trkpt lat="42.4113080" lon="-2.6400160">
        <ele>643.6</ele>
        <time>2022-08-29T05:00:45Z</time>
      </trkpt>
      <trkpt lat="42.4113110" lon="-2.6400490">
        <ele>643.6</ele>
        <time>2022-08-29T05:00:46Z</time>
      </trkpt>
      <trkpt lat="42.4113130" lon="-2.6400840">
        <ele>644.0</ele>
        <time>2022-08-29T05:00:47Z</time>
      </trkpt>
      <trkpt lat="42.4113150" lon="-2.6401180">
        <ele>643.8</ele>
        <time>2022-08-29T05:00:48Z</time>
      </trkpt>
      <trkpt lat="42.4113180" lon="-2.6401530">
        <ele>644.0</ele>
        <time>2022-08-29T05:00:49Z</time>
      </trkpt>
      <trkpt lat="42.4113210" lon="-2.6401880">
        <ele>643.8</ele>
        <time>2022-08-29T05:00:50Z</time>
      </trkpt>
      <trkpt lat="42.4113240" lon="-2.6402240">
        <ele>644.0</ele>
        <time>2022-08-29T05:00:51Z</time>
      </trkpt>
      <trkpt lat="42.4113260" lon="-2.6402590">
        <ele>644.0</ele>
        <time>2022-08-29T05:00:52Z</time>
      </trkpt>
      <trkpt lat="42.4113280" lon="-2.6402940">
        <ele>644.0</ele>
        <time>2022-08-29T05:00:53Z</time>
      </trkpt>
      <trkpt lat="42.4113290" lon="-2.6403270">
        <ele>644.0</ele>
        <time>2022-08-29T05:00:54Z</time>
      </trkpt>
      <trkpt lat="42.4113310" lon="-2.6403600">
        <ele>644.2</ele>
        <time>2022-08-29T05:00:55Z</time>
      </trkpt>
      <trkpt lat="42.4113340" lon="-2.6403930">
        <ele>644.2</ele>
        <time>2022-08-29T05:00:56Z</time>
      </trkpt>
      <trkpt lat="42.4113350" lon="-2.6404260">
        <ele>644.2</ele>
        <time>2022-08-29T05:00:57Z</time>
      </trkpt>
      <trkpt lat="42.4113360" lon="-2.6404580">
        <ele>644.4</ele>
        <time>2022-08-29T05:00:58Z</time>
      </trkpt>
      <trkpt lat="42.4113370" lon="-2.6404910">
        <ele>644.2</ele>
        <time>2022-08-29T05:00:59Z</time>
      </trkpt>
      <trkpt lat="42.4113390" lon="-2.6405230">
        <ele>644.4</ele>
        <time>2022-08-29T05:01:00Z</time>
      </trkpt>
      <trkpt lat="42.4113410" lon="-2.6405550">
        <ele>644.4</ele>
        <time>2022-08-29T05:01:01Z</time>
      </trkpt>
      <trkpt lat="42.4113440" lon="-2.6405870">
        <ele>644.4</ele>
        <time>2022-08-29T05:01:02Z</time>
      </trkpt>
      <trkpt lat="42.4113440" lon="-2.6406190">
        <ele>644.4</ele>
        <time>2022-08-29T05:01:03Z</time>
      </trkpt>
      <trkpt lat="42.4113440" lon="-2.6406510">
        <ele>644.6</ele>
        <time>2022-08-29T05:01:04Z</time>
      </trkpt>
      <trkpt lat="42.4113450" lon="-2.6406830">
        <ele>644.6</ele>
        <time>2022-08-29T05:01:05Z</time>
      </trkpt>
      <trkpt lat="42.4113480" lon="-2.6407150">
        <ele>644.8</ele>
        <time>2022-08-29T05:01:06Z</time>
      </trkpt>
      <trkpt lat="42.4113520" lon="-2.6407470">
        <ele>644.8</ele>
        <time>2022-08-29T05:01:07Z</time>
      </trkpt>
      <trkpt lat="42.4113540" lon="-2.6407800">
        <ele>644.8</ele>
        <time>2022-08-29T05:01:08Z</time>
      </trkpt>
      <trkpt lat="42.4113550" lon="-2.6408140">
        <ele>645.0</ele>
        <time>2022-08-29T05:01:09Z</time>
      </trkpt>
      <trkpt lat="42.4113560" lon="-2.6408490">
        <ele>645.2</ele>
        <time>2022-08-29T05:01:10Z</time>
      </trkpt>
      <trkpt lat="42.4113570" lon="-2.6408830">
        <ele>645.4</ele>
        <time>2022-08-29T05:01:11Z</time>
      </trkpt>
      <trkpt lat="42.4113570" lon="-2.6409180">
        <ele>645.6</ele>
        <time>2022-08-29T05:01:12Z</time>
      </trkpt>
      <trkpt lat="42.4113560" lon="-2.6409540">
        <ele>645.8</ele>
        <time>2022-08-29T05:01:13Z</time>
      </trkpt>
      <trkpt lat="42.4113560" lon="-2.6409890">
        <ele>646.0</ele>
        <time>2022-08-29T05:01:14Z</time>
      </trkpt>
      <trkpt lat="42.4113560" lon="-2.6410230">
        <ele>646.0</ele>
        <time>2022-08-29T05:01:15Z</time>
      </trkpt>
      <trkpt lat="42.4113540" lon="-2.6410580">
        <ele>646.4</ele>
        <time>2022-08-29T05:01:16Z</time>
      </trkpt>
      <trkpt lat="42.4113530" lon="-2.6410920">
        <ele>646.4</ele>
        <time>2022-08-29T05:01:17Z</time>
      </trkpt>
      <trkpt lat="42.4113520" lon="-2.6411260">
        <ele>646.6</ele>
        <time>2022-08-29T05:01:18Z</time>
      </trkpt>
      <trkpt lat="42.4113500" lon="-2.6411590">
        <ele>646.6</ele>
        <time>2022-08-29T05:01:19Z</time>
      </trkpt>
      <trkpt lat="42.4113460" lon="-2.6411920">
        <ele>646.6</ele>
        <time>2022-08-29T05:01:20Z</time>
      </trkpt>
      <trkpt lat="42.4113410" lon="-2.6412240">
        <ele>646.6</ele>
        <time>2022-08-29T05:01:21Z</time>
      </trkpt>
      <trkpt lat="42.4113350" lon="-2.6412540">
        <ele>646.8</ele>
        <time>2022-08-29T05:01:22Z</time>
      </trkpt>
      <trkpt lat="42.4113310" lon="-2.6412860">
        <ele>646.8</ele>
        <time>2022-08-29T05:01:23Z</time>
      </trkpt>
      <trkpt lat="42.4113290" lon="-2.6413180">
        <ele>646.8</ele>
        <time>2022-08-29T05:01:24Z</time>
      </trkpt>
      <trkpt lat="42.4113280" lon="-2.6413480">
        <ele>646.8</ele>
        <time>2022-08-29T05:01:25Z</time>
      </trkpt>
      <trkpt lat="42.4113280" lon="-2.6413770">
        <ele>647.0</ele>
        <time>2022-08-29T05:01:26Z</time>
      </trkpt>
      <trkpt lat="42.4113270" lon="-2.6414050">
        <ele>647.2</ele>
        <time>2022-08-29T05:01:27Z</time>
      </trkpt>
      <trkpt lat="42.4113270" lon="-2.6414330">
        <ele>647.4</ele>
        <time>2022-08-29T05:01:28Z</time>
      </trkpt>
      <trkpt lat="42.4113280" lon="-2.6414610">
        <ele>647.4</ele>
        <time>2022-08-29T05:01:29Z</time>
      </trkpt>
      <trkpt lat="42.4113310" lon="-2.6414880">
        <ele>647.4</ele>
        <time>2022-08-29T05:01:30Z</time>
      </trkpt>
      <trkpt lat="42.4113310" lon="-2.6415150">
        <ele>647.6</ele>
        <time>2022-08-29T05:01:31Z</time>
      </trkpt>
      <trkpt lat="42.4113290" lon="-2.6415430">
        <ele>647.8</ele>
        <time>2022-08-29T05:01:32Z</time>
      </trkpt>
      <trkpt lat="42.4113280" lon="-2.6415700">
        <ele>648.0</ele>
        <time>2022-08-29T05:01:33Z</time>
      </trkpt>
      <trkpt lat="42.4113310" lon="-2.6415950">
        <ele>648.4</ele>
        <time>2022-08-29T05:01:34Z</time>
      </trkpt>
      <trkpt lat="42.4113380" lon="-2.6416160">
        <ele>648.8</ele>
        <time>2022-08-29T05:01:35Z</time>
      </trkpt>
      <trkpt lat="42.4113460" lon="-2.6416400">
        <ele>649.0</ele>
        <time>2022-08-29T05:01:36Z</time>
      </trkpt>
      <trkpt lat="42.4113540" lon="-2.6416660">
        <ele>649.2</ele>
        <time>2022-08-29T05:01:37Z</time>
      </trkpt>
      <trkpt lat="42.4113590" lon="-2.6416930">
        <ele>649.2</ele>
        <time>2022-08-29T05:01:38Z</time>
      </trkpt>
      <trkpt lat="42.4113640" lon="-2.6417200">
        <ele>649.4</ele>
        <time>2022-08-29T05:01:39Z</time>
      </trkpt>
      <trkpt lat="42.4113680" lon="-2.6417480">
        <ele>649.8</ele>
        <time>2022-08-29T05:01:40Z</time>
      </trkpt>
      <trkpt lat="42.4113730" lon="-2.6417760">
        <ele>649.8</ele>
        <time>2022-08-29T05:01:41Z</time>
      </trkpt>
      <trkpt lat="42.4113800" lon="-2.6418020">
        <ele>649.8</ele>
        <time>2022-08-29T05:01:42Z</time>
      </trkpt>
      <trkpt lat="42.4113870" lon="-2.6418250">
        <ele>650.0</ele>
        <time>2022-08-29T05:01:43Z</time>
      </trkpt>
      <trkpt lat="42.4113940" lon="-2.6418470">
        <ele>650.2</ele>
        <time>2022-08-29T05:01:44Z</time>
      </trkpt>
      <trkpt lat="42.4114010" lon="-2.6418700">
        <ele>650.2</ele>
        <time>2022-08-29T05:01:45Z</time>
      </trkpt>
      <trkpt lat="42.4114080" lon="-2.6418930">
        <ele>650.4</ele>
        <time>2022-08-29T05:01:46Z</time>
      </trkpt>
      <trkpt lat="42.4114160" lon="-2.6419160">
        <ele>650.8</ele>
        <time>2022-08-29T05:01:47Z</time>
      </trkpt>
      <trkpt lat="42.4114230" lon="-2.6419370">
        <ele>650.8</ele>
        <time>2022-08-29T05:01:48Z</time>
      </trkpt>
      <trkpt lat="42.4114320" lon="-2.6419570">
        <ele>650.8</ele>
        <time>2022-08-29T05:01:49Z</time>
      </trkpt>
      <trkpt lat="42.4114410" lon="-2.6419760">
        <ele>650.8</ele>
        <time>2022-08-29T05:01:50Z</time>
      </trkpt>
      <trkpt lat="42.4114520" lon="-2.6419940">
        <ele>651.0</ele>
        <time>2022-08-29T05:01:51Z</time>
      </trkpt>
      <trkpt lat="42.4114650" lon="-2.6420100">
        <ele>651.2</ele>
        <time>2022-08-29T05:01:52Z</time>
      </trkpt>
      <trkpt lat="42.4114790" lon="-2.6420260">
        <ele>651.4</ele>
        <time>2022-08-29T05:01:53Z</time>
      </trkpt>
      <trkpt lat="42.4114910" lon="-2.6420410">
        <ele>651.6</ele>
        <time>2022-08-29T05:01:54Z</time>
      </trkpt>
      <trkpt lat="42.4114990" lon="-2.6420490">
        <ele>651.8</ele>
        <time>2022-08-29T05:01:55Z</time>
      </trkpt>
      <trkpt lat="42.4115000" lon="-2.6420500">
        <ele>652.0</ele>
        <time>2022-08-29T05:01:56Z</time>
      </trkpt>
      <trkpt lat="42.4115000" lon="-2.6420510">
        <ele>652.2</ele>
        <time>2022-08-29T05:01:57Z</time>
      </trkpt>
      <trkpt lat="42.4115010" lon="-2.6420510">
        <ele>652.4</ele>
        <time>2022-08-29T05:01:58Z</time>
      </trkpt>
      <trkpt lat="42.4115010" lon="-2.6420510">
        <ele>652.6</ele>
        <time>2022-08-29T05:01:59Z</time>
      </trkpt>
      <trkpt lat="42.4115000" lon="-2.6420510">
        <ele>652.8</ele>
        <time>2022-08-29T05:02:00Z</time>
      </trkpt>
      <trkpt lat="42.4115000" lon="-2.6420520">
        <ele>652.8</ele>
        <time>2022-08-29T05:02:01Z</time>
      </trkpt>
      <trkpt lat="42.4115010" lon="-2.6420530">
        <ele>653.2</ele>
        <time>2022-08-29T05:02:02Z</time>
      </trkpt>
      <trkpt lat="42.4115060" lon="-2.6420600">
        <ele>653.4</ele>
        <time>2022-08-29T05:02:03Z</time>
      </trkpt>
      <trkpt lat="42.4115120" lon="-2.6420690">
        <ele>653.6</ele>
        <time>2022-08-29T05:02:04Z</time>
      </trkpt>
      <trkpt lat="42.4115160" lon="-2.6420730">
        <ele>653.8</ele>
        <time>2022-08-29T05:02:05Z</time>
      </trkpt>
      <trkpt lat="42.4115180" lon="-2.6420730">
        <ele>653.8</ele>
        <time>2022-08-29T05:02:06Z</time>
      </trkpt>
      <trkpt lat="42.4115180" lon="-2.6420730">
        <ele>653.6</ele>
        <time>2022-08-29T05:02:07Z</time>
      </trkpt>
      <trkpt lat="42.4115180" lon="-2.6420740">
        <ele>653.6</ele>
        <time>2022-08-29T05:02:08Z</time>
      </trkpt>
      <trkpt lat="42.4115180" lon="-2.6420730">
        <ele>653.8</ele>
        <time>2022-08-29T05:02:09Z</time>
      </trkpt>
      <trkpt lat="42.4115180" lon="-2.6420730">
        <ele>653.8</ele>
        <time>2022-08-29T05:02:10Z</time>
      </trkpt>
      <trkpt lat="42.4115190" lon="-2.6420720">
        <ele>653.8</ele>
        <time>2022-08-29T05:02:11Z</time>
      </trkpt>
      <trkpt lat="42.4115190" lon="-2.6420720">
        <ele>653.8</ele>
        <time>2022-08-29T05:02:12Z</time>
      </trkpt>
      <trkpt lat="42.4115190" lon="-2.6420710">
        <ele>653.8</ele>
        <time>2022-08-29T05:02:13Z</time>
      </trkpt>
      <trkpt lat="42.4115190" lon="-2.6420710">
        <ele>653.8</ele>
        <time>2022-08-29T05:02:14Z</time>
      </trkpt>
      <trkpt lat="42.4115190" lon="-2.6420710">
        <ele>654.0</ele>
        <time>2022-08-29T05:02:15Z</time>
      </trkpt>
      <trkpt lat="42.4115190" lon="-2.6420720">
        <ele>653.8</ele>
        <time>2022-08-29T05:02:16Z</time>
      </trkpt>
      <trkpt lat="42.4115170" lon="-2.6420760">
        <ele>653.8</ele>
        <time>2022-08-29T05:02:17Z</time>
      </trkpt>
      <trkpt lat="42.4115150" lon="-2.6420780">
        <ele>653.8</ele>
        <time>2022-08-29T05:02:18Z</time>
      </trkpt>
      <trkpt lat="42.4115130" lon="-2.6420780">
        <ele>653.8</ele>
        <time>2022-08-29T05:02:19Z</time>
      </trkpt>
      <trkpt lat="42.4115130" lon="-2.6420770">
        <ele>654.0</ele>
        <time>2022-08-29T05:02:20Z</time>
      </trkpt>
      <trkpt lat="42.4115130" lon="-2.6420770">
        <ele>653.8</ele>
        <time>2022-08-29T05:02:21Z</time>
      </trkpt>
      <trkpt lat="42.4115130" lon="-2.6420770">
        <ele>653.8</ele>
        <time>2022-08-29T05:02:22Z</time>
      </trkpt>
      <trkpt lat="42.4115130" lon="-2.6420770">
        <ele>653.8</ele>
        <time>2022-08-29T05:02:23Z</time>
      </trkpt>
      <trkpt lat="42.4115130" lon="-2.6420770">
        <ele>653.8</ele>
        <time>2022-08-29T05:02:24Z</time>
      </trkpt>
      <trkpt lat="42.4115130" lon="-2.6420770">
        <ele>653.6</ele>
        <time>2022-08-29T05:02:25Z</time>
      </trkpt>
      <trkpt lat="42.4115130" lon="-2.6420770">
        <ele>653.8</ele>
        <time>2022-08-29T05:02:26Z</time>
      </trkpt>
      <trkpt lat="42.4115130" lon="-2.6420770">
        <ele>653.8</ele>
        <time>2022-08-29T05:02:27Z</time>
      </trkpt>
      <trkpt lat="42.4115130" lon="-2.6420770">
        <ele>653.6</ele>
        <time>2022-08-29T05:02:28Z</time>
      </trkpt>
      <trkpt lat="42.4115130" lon="-2.6420770">
        <ele>653.6</ele>
        <time>2022-08-29T05:02:29Z</time>
      </trkpt>
      <trkpt lat="42.4115130" lon="-2.6420770">
        <ele>653.4</ele>
        <time>2022-08-29T05:02:30Z</time>
      </trkpt>
      <trkpt lat="42.4115130" lon="-2.6420770">
        <ele>653.4</ele>
        <time>2022-08-29T05:02:31Z</time>
      </trkpt>
      <trkpt lat="42.4115130" lon="-2.6420770">
        <ele>653.4</ele>
        <time>2022-08-29T05:02:32Z</time>
      </trkpt>
      <trkpt lat="42.4115130" lon="-2.6420770">
        <ele>653.2</ele>
        <time>2022-08-29T05:02:33Z</time>
      </trkpt>
      <trkpt lat="42.4115130" lon="-2.6420770">
        <ele>653.4</ele>
        <time>2022-08-29T05:02:34Z</time>
      </trkpt>
      <trkpt lat="42.4115130" lon="-2.6420770">
        <ele>653.4</ele>
        <time>2022-08-29T05:02:35Z</time>
      </trkpt>
      <trkpt lat="42.4115130" lon="-2.6420770">
        <ele>653.4</ele>
        <time>2022-08-29T05:02:36Z</time>
      </trkpt>
      <trkpt lat="42.4115130" lon="-2.6420770">
        <ele>653.4</ele>
        <time>2022-08-29T05:02:37Z</time>
      </trkpt>
      <trkpt lat="42.4115130" lon="-2.6420770">
        <ele>653.4</ele>
        <time>2022-08-29T05:02:38Z</time>
      </trkpt>
      <trkpt lat="42.4115130" lon="-2.6420770">
        <ele>653.4</ele>
        <time>2022-08-29T05:02:39Z</time>
      </trkpt>
      <trkpt lat="42.4115130" lon="-2.6420770">
        <ele>653.2</ele>
        <time>2022-08-29T05:02:40Z</time>
      </trkpt>
      <trkpt lat="42.4115130" lon="-2.6420770">
        <ele>653.4</ele>
        <time>2022-08-29T05:02:41Z</time>
      </trkpt>
      <trkpt lat="42.4115130" lon="-2.6420770">
        <ele>653.4</ele>
        <time>2022-08-29T05:02:42Z</time>
      </trkpt>
      <trkpt lat="42.4115130" lon="-2.6420770">
        <ele>653.4</ele>
        <time>2022-08-29T05:02:43Z</time>
      </trkpt>
      <trkpt lat="42.4115120" lon="-2.6420770">
        <ele>653.2</ele>
        <time>2022-08-29T05:02:44Z</time>
      </trkpt>
      <trkpt lat="42.4115120" lon="-2.6420770">
        <ele>653.4</ele>
        <time>2022-08-29T05:02:45Z</time>
      </trkpt>
      <trkpt lat="42.4115120" lon="-2.6420770">
        <ele>653.4</ele>
        <time>2022-08-29T05:02:46Z</time>
      </trkpt>
      <trkpt lat="42.4115120" lon="-2.6420770">
        <ele>653.2</ele>
        <time>2022-08-29T05:02:47Z</time>
      </trkpt>
      <trkpt lat="42.4115120" lon="-2.6420770">
        <ele>653.2</ele>
        <time>2022-08-29T05:02:48Z</time>
      </trkpt>
      <trkpt lat="42.4115120" lon="-2.6420770">
        <ele>653.4</ele>
        <time>2022-08-29T05:02:49Z</time>
      </trkpt>
      <trkpt lat="42.4115120" lon="-2.6420770">
        <ele>653.2</ele>
        <time>2022-08-29T05:02:50Z</time>
      </trkpt>
      <trkpt lat="42.4115120" lon="-2.6420770">
        <ele>653.4</ele>
        <time>2022-08-29T05:02:51Z</time>
      </trkpt>
      <trkpt lat="42.4115120" lon="-2.6420770">
        <ele>653.2</ele>
        <time>2022-08-29T05:02:52Z</time>
      </trkpt>
      <trkpt lat="42.4115120" lon="-2.6420770">
        <ele>653.4</ele>
        <time>2022-08-29T05:02:53Z</time>
      </trkpt>
      <trkpt lat="42.4115120" lon="-2.6420770">
        <ele>653.4</ele>
        <time>2022-08-29T05:02:54Z</time>
      </trkpt>
      <trkpt lat="42.4115120" lon="-2.6420770">
        <ele>653.4</ele>
        <time>2022-08-29T05:02:55Z</time>
      </trkpt>
      <trkpt lat="42.4115120" lon="-2.6420770">
        <ele>653.4</ele>
        <time>2022-08-29T05:02:56Z</time>
      </trkpt>
      <trkpt lat="42.4115120" lon="-2.6420770">
        <ele>653.2</ele>
        <time>2022-08-29T05:02:57Z</time>
      </trkpt>
      <trkpt lat="42.4115120" lon="-2.6420770">
        <ele>653.4</ele>
        <time>2022-08-29T05:02:58Z</time>
      </trkpt>
      <trkpt lat="42.4115120" lon="-2.6420770">
        <ele>653.4</ele>
        <time>2022-08-29T05:02:59Z</time>
      </trkpt>
      <trkpt lat="42.4115120" lon="-2.6420770">
        <ele>653.4</ele>
        <time>2022-08-29T05:03:00Z</time>
      </trkpt>
      <trkpt lat="42.4115120" lon="-2.6420770">
        <ele>653.4</ele>
        <time>2022-08-29T05:03:01Z</time>
      </trkpt>
      <trkpt lat="42.4115120" lon="-2.6420770">
        <ele>653.2</ele>
        <time>2022-08-29T05:03:02Z</time>
      </trkpt>
      <trkpt lat="42.4115120" lon="-2.6420770">
        <ele>653.4</ele>
        <time>2022-08-29T05:03:03Z</time>
      </trkpt>
      <trkpt lat="42.4115120" lon="-2.6420770">
        <ele>653.4</ele>
        <time>2022-08-29T05:03:04Z</time>
      </trkpt>
      <trkpt lat="42.4115120" lon="-2.6420770">
        <ele>653.4</ele>
        <time>2022-08-29T05:03:05Z</time>
      </trkpt>
      <trkpt lat="42.4115120" lon="-2.6420770">
        <ele>653.4</ele>
        <time>2022-08-29T05:03:06Z</time>
      </trkpt>
      <trkpt lat="42.4115120" lon="-2.6420770">
        <ele>653.4</ele>
        <time>2022-08-29T05:03:07Z</time>
      </trkpt>
      <trkpt lat="42.4115120" lon="-2.6420770">
        <ele>653.2</ele>
        <time>2022-08-29T05:03:08Z</time>
      </trkpt>
      <trkpt lat="42.4115110" lon="-2.6420770">
        <ele>653.4</ele>
        <time>2022-08-29T05:03:09Z</time>
      </trkpt>
      <trkpt lat="42.4115110" lon="-2.6420770">
        <ele>653.4</ele>
        <time>2022-08-29T05:03:10Z</time>
      </trkpt>
      <trkpt lat="42.4115110" lon="-2.6420770">
        <ele>653.2</ele>
        <time>2022-08-29T05:03:11Z</time>
      </trkpt>
      <trkpt lat="42.4115110" lon="-2.6420770">
        <ele>653.2</ele>
        <time>2022-08-29T05:03:12Z</time>
      </trkpt>
      <trkpt lat="42.4115110" lon="-2.6420770">
        <ele>653.4</ele>
        <time>2022-08-29T05:03:13Z</time>
      </trkpt>
      <trkpt lat="42.4115110" lon="-2.6420770">
        <ele>653.2</ele>
        <time>2022-08-29T05:03:14Z</time>
      </trkpt>
      <trkpt lat="42.4115110" lon="-2.6420770">
        <ele>653.2</ele>
        <time>2022-08-29T05:03:15Z</time>
      </trkpt>
      <trkpt lat="42.4115110" lon="-2.6420770">
        <ele>653.4</ele>
        <time>2022-08-29T05:03:16Z</time>
      </trkpt>
      <trkpt lat="42.4115110" lon="-2.6420770">
        <ele>653.4</ele>
        <time>2022-08-29T05:03:17Z</time>
      </trkpt>
      <trkpt lat="42.4115110" lon="-2.6420770">
        <ele>653.2</ele>
        <time>2022-08-29T05:03:18Z</time>
      </trkpt>
      <trkpt lat="42.4115110" lon="-2.6420770">
        <ele>653.4</ele>
        <time>2022-08-29T05:03:19Z</time>
      </trkpt>
      <trkpt lat="42.4115110" lon="-2.6420770">
        <ele>653.2</ele>
        <time>2022-08-29T05:03:20Z</time>
      </trkpt>
      <trkpt lat="42.4115110" lon="-2.6420770">
        <ele>653.4</ele>
        <time>2022-08-29T05:03:21Z</time>
      </trkpt>
      <trkpt lat="42.4115110" lon="-2.6420770">
        <ele>653.4</ele>
        <time>2022-08-29T05:03:22Z</time>
      </trkpt>
      <trkpt lat="42.4115110" lon="-2.6420770">
        <ele>653.4</ele>
        <time>2022-08-29T05:03:23Z</time>
      </trkpt>
      <trkpt lat="42.4115110" lon="-2.6420770">
        <ele>653.4</ele>
        <time>2022-08-29T05:03:24Z</time>
      </trkpt>
      <trkpt lat="42.4115110" lon="-2.6420770">
        <ele>653.4</ele>
        <time>2022-08-29T05:03:25Z</time>
      </trkpt>
      <trkpt lat="42.4115110" lon="-2.6420770">
        <ele>653.4</ele>
        <time>2022-08-29T05:03:26Z</time>
      </trkpt>
      <trkpt lat="42.4115110" lon="-2.6420770">
        <ele>653.4</ele>
        <time>2022-08-29T05:03:27Z</time>
      </trkpt>
      <trkpt lat="42.4115110" lon="-2.6420760">
        <ele>653.4</ele>
        <time>2022-08-29T05:03:28Z</time>
      </trkpt>
      <trkpt lat="42.4115110" lon="-2.6420760">
        <ele>653.4</ele>
        <time>2022-08-29T05:03:29Z</time>
      </trkpt>
      <trkpt lat="42.4115110" lon="-2.6420760">
        <ele>653.4</ele>
        <time>2022-08-29T05:03:30Z</time>
      </trkpt>
      <trkpt lat="42.4115110" lon="-2.6420760">
        <ele>653.4</ele>
        <time>2022-08-29T05:03:31Z</time>
      </trkpt>
      <trkpt lat="42.4115110" lon="-2.6420760">
        <ele>653.4</ele>
        <time>2022-08-29T05:03:32Z</time>
      </trkpt>
      <trkpt lat="42.4115110" lon="-2.6420760">
        <ele>653.4</ele>
        <time>2022-08-29T05:03:33Z</time>
      </trkpt>
      <trkpt lat="42.4115100" lon="-2.6420760">
        <ele>653.4</ele>
        <time>2022-08-29T05:03:34Z</time>
      </trkpt>
      <trkpt lat="42.4115100" lon="-2.6420760">
        <ele>653.4</ele>
        <time>2022-08-29T05:03:35Z</time>
      </trkpt>
      <trkpt lat="42.4115100" lon="-2.6420760">
        <ele>653.4</ele>
        <time>2022-08-29T05:03:36Z</time>
      </trkpt>
      <trkpt lat="42.4115100" lon="-2.6420760">
        <ele>653.4</ele>
        <time>2022-08-29T05:03:37Z</time>
      </trkpt>
      <trkpt lat="42.4115100" lon="-2.6420760">
        <ele>653.4</ele>
        <time>2022-08-29T05:03:38Z</time>
      </trkpt>
      <trkpt lat="42.4115100" lon="-2.6420760">
        <ele>653.4</ele>
        <time>2022-08-29T05:03:39Z</time>
      </trkpt>
      <trkpt lat="42.4115100" lon="-2.6420760">
        <ele>653.4</ele>
        <time>2022-08-29T05:03:40Z</time>
      </trkpt>
      <trkpt lat="42.4115100" lon="-2.6420760">
        <ele>653.4</ele>
        <time>2022-08-29T05:03:41Z</time>
      </trkpt>
      <trkpt lat="42.4115100" lon="-2.6420760">
        <ele>653.4</ele>
        <time>2022-08-29T05:03:42Z</time>
      </trkpt>
      <trkpt lat="42.4115100" lon="-2.6420760">
        <ele>653.2</ele>
        <time>2022-08-29T05:03:43Z</time>
      </trkpt>
      <trkpt lat="42.4115100" lon="-2.6420760">
        <ele>653.4</ele>
        <time>2022-08-29T05:03:44Z</time>
      </trkpt>
      <trkpt lat="42.4115100" lon="-2.6420760">
        <ele>653.4</ele>
        <time>2022-08-29T05:03:45Z</time>
      </trkpt>
      <trkpt lat="42.4115100" lon="-2.6420760">
        <ele>653.2</ele>
        <time>2022-08-29T05:03:46Z</time>
      </trkpt>
      <trkpt lat="42.4115100" lon="-2.6420760">
        <ele>653.2</ele>
        <time>2022-08-29T05:03:47Z</time>
      </trkpt>
      <trkpt lat="42.4115100" lon="-2.6420760">
        <ele>653.4</ele>
        <time>2022-08-29T05:03:48Z</time>
      </trkpt>
      <trkpt lat="42.4115100" lon="-2.6420760">
        <ele>653.2</ele>
        <time>2022-08-29T05:03:49Z</time>
      </trkpt>
      <trkpt lat="42.4115100" lon="-2.6420760">
        <ele>653.2</ele>
        <time>2022-08-29T05:03:50Z</time>
      </trkpt>
      <trkpt lat="42.4115100" lon="-2.6420750">
        <ele>653.2</ele>
        <time>2022-08-29T05:03:51Z</time>
      </trkpt>
      <trkpt lat="42.4115100" lon="-2.6420750">
        <ele>653.2</ele>
        <time>2022-08-29T05:03:52Z</time>
      </trkpt>
      <trkpt lat="42.4115100" lon="-2.6420750">
        <ele>653.2</ele>
        <time>2022-08-29T05:03:53Z</time>
      </trkpt>
      <trkpt lat="42.4115100" lon="-2.6420750">
        <ele>653.2</ele>
        <time>2022-08-29T05:03:54Z</time>
      </trkpt>
      <trkpt lat="42.4115100" lon="-2.6420750">
        <ele>653.0</ele>
        <time>2022-08-29T05:03:55Z</time>
      </trkpt>
      <trkpt lat="42.4115100" lon="-2.6420750">
        <ele>653.2</ele>
        <time>2022-08-29T05:03:56Z</time>
      </trkpt>
      <trkpt lat="42.4115100" lon="-2.6420750">
        <ele>653.0</ele>
        <time>2022-08-29T05:03:57Z</time>
      </trkpt>
      <trkpt lat="42.4115100" lon="-2.6420750">
        <ele>653.2</ele>
        <time>2022-08-29T05:03:58Z</time>
      </trkpt>
      <trkpt lat="42.4115100" lon="-2.6420750">
        <ele>653.2</ele>
        <time>2022-08-29T05:03:59Z</time>
      </trkpt>
      <trkpt lat="42.4115100" lon="-2.6420750">
        <ele>653.2</ele>
        <time>2022-08-29T05:04:00Z</time>
      </trkpt>
      <trkpt lat="42.4115100" lon="-2.6420750">
        <ele>653.2</ele>
        <time>2022-08-29T05:04:01Z</time>
      </trkpt>
      <trkpt lat="42.4115100" lon="-2.6420750">
        <ele>653.2</ele>
        <time>2022-08-29T05:04:02Z</time>
      </trkpt>
      <trkpt lat="42.4115100" lon="-2.6420750">
        <ele>653.2</ele>
        <time>2022-08-29T05:04:03Z</time>
      </trkpt>
      <trkpt lat="42.4115100" lon="-2.6420750">
        <ele>653.2</ele>
        <time>2022-08-29T05:04:04Z</time>
      </trkpt>
      <trkpt lat="42.4115100" lon="-2.6420750">
        <ele>653.2</ele>
        <time>2022-08-29T05:04:05Z</time>
      </trkpt>
      <trkpt lat="42.4115100" lon="-2.6420750">
        <ele>653.2</ele>
        <time>2022-08-29T05:04:06Z</time>
      </trkpt>
      <trkpt lat="42.4115100" lon="-2.6420750">
        <ele>653.0</ele>
        <time>2022-08-29T05:04:07Z</time>
      </trkpt>
      <trkpt lat="42.4115100" lon="-2.6420750">
        <ele>653.2</ele>
        <time>2022-08-29T05:04:08Z</time>
      </trkpt>
      <trkpt lat="42.4115100" lon="-2.6420750">
        <ele>653.2</ele>
        <time>2022-08-29T05:04:09Z</time>
      </trkpt>
      <trkpt lat="42.4115100" lon="-2.6420750">
        <ele>653.2</ele>
        <time>2022-08-29T05:04:10Z</time>
      </trkpt>
      <trkpt lat="42.4115100" lon="-2.6420750">
        <ele>653.2</ele>
        <time>2022-08-29T05:04:11Z</time>
      </trkpt>
      <trkpt lat="42.4115100" lon="-2.6420750">
        <ele>653.2</ele>
        <time>2022-08-29T05:04:12Z</time>
      </trkpt>
      <trkpt lat="42.4115100" lon="-2.6420750">
        <ele>653.2</ele>
        <time>2022-08-29T05:04:13Z</time>
      </trkpt>
      <trkpt lat="42.4115100" lon="-2.6420750">
        <ele>653.2</ele>
        <time>2022-08-29T05:04:14Z</time>
      </trkpt>
      <trkpt lat="42.4115100" lon="-2.6420750">
        <ele>653.2</ele>
        <time>2022-08-29T05:04:15Z</time>
      </trkpt>
      <trkpt lat="42.4115100" lon="-2.6420750">
        <ele>653.2</ele>
        <time>2022-08-29T05:04:16Z</time>
      </trkpt>
      <trkpt lat="42.4115100" lon="-2.6420750">
        <ele>653.2</ele>
        <time>2022-08-29T05:04:17Z</time>
      </trkpt>
      <trkpt lat="42.4115100" lon="-2.6420750">
        <ele>653.2</ele>
        <time>2022-08-29T05:04:18Z</time>
      </trkpt>
      <trkpt lat="42.4115100" lon="-2.6420750">
        <ele>653.2</ele>
        <time>2022-08-29T05:04:19Z</time>
      </trkpt>
      <trkpt lat="42.4115100" lon="-2.6420750">
        <ele>653.2</ele>
        <time>2022-08-29T05:04:20Z</time>
      </trkpt>
      <trkpt lat="42.4115100" lon="-2.6420750">
        <ele>653.0</ele>
        <time>2022-08-29T05:04:21Z</time>
      </trkpt>
      <trkpt lat="42.4115100" lon="-2.6420750">
        <ele>653.0</ele>
        <time>2022-08-29T05:04:22Z</time>
      </trkpt>
      <trkpt lat="42.4115100" lon="-2.6420750">
        <ele>653.2</ele>
        <time>2022-08-29T05:04:23Z</time>
      </trkpt>
      <trkpt lat="42.4115100" lon="-2.6420750">
        <ele>653.2</ele>
        <time>2022-08-29T05:04:24Z</time>
      </trkpt>
      <trkpt lat="42.4115100" lon="-2.6420750">
        <ele>653.2</ele>
        <time>2022-08-29T05:04:25Z</time>
      </trkpt>
      <trkpt lat="42.4115100" lon="-2.6420750">
        <ele>653.0</ele>
        <time>2022-08-29T05:04:26Z</time>
      </trkpt>
      <trkpt lat="42.4115100" lon="-2.6420750">
        <ele>653.2</ele>
        <time>2022-08-29T05:04:27Z</time>
      </trkpt>
      <trkpt lat="42.4115100" lon="-2.6420750">
        <ele>653.2</ele>
        <time>2022-08-29T05:04:28Z</time>
      </trkpt>
      <trkpt lat="42.4115100" lon="-2.6420750">
        <ele>653.2</ele>
        <time>2022-08-29T05:04:29Z</time>
      </trkpt>
      <trkpt lat="42.4115100" lon="-2.6420750">
        <ele>653.2</ele>
        <time>2022-08-29T05:04:30Z</time>
      </trkpt>
      <trkpt lat="42.4115100" lon="-2.6420750">
        <ele>653.2</ele>
        <time>2022-08-29T05:04:31Z</time>
      </trkpt>
      <trkpt lat="42.4115100" lon="-2.6420750">
        <ele>653.2</ele>
        <time>2022-08-29T05:04:32Z</time>
      </trkpt>
      <trkpt lat="42.4115100" lon="-2.6420750">
        <ele>653.2</ele>
        <time>2022-08-29T05:04:33Z</time>
      </trkpt>
      <trkpt lat="42.4115100" lon="-2.6420750">
        <ele>653.2</ele>
        <time>2022-08-29T05:04:34Z</time>
      </trkpt>
      <trkpt lat="42.4115100" lon="-2.6420750">
        <ele>653.2</ele>
        <time>2022-08-29T05:04:35Z</time>
      </trkpt>
      <trkpt lat="42.4115100" lon="-2.6420750">
        <ele>653.2</ele>
        <time>2022-08-29T05:04:36Z</time>
      </trkpt>
      <trkpt lat="42.4115100" lon="-2.6420750">
        <ele>653.0</ele>
        <time>2022-08-29T05:04:37Z</time>
      </trkpt>
      <trkpt lat="42.4115100" lon="-2.6420750">
        <ele>653.2</ele>
        <time>2022-08-29T05:04:38Z</time>
      </trkpt>
      <trkpt lat="42.4115100" lon="-2.6420750">
        <ele>653.2</ele>
        <time>2022-08-29T05:04:39Z</time>
      </trkpt>
      <trkpt lat="42.4115100" lon="-2.6420750">
        <ele>653.0</ele>
        <time>2022-08-29T05:04:40Z</time>
      </trkpt>
      <trkpt lat="42.4115100" lon="-2.6420750">
        <ele>653.2</ele>
        <time>2022-08-29T05:04:41Z</time>
      </trkpt>
      <trkpt lat="42.4115100" lon="-2.6420750">
        <ele>653.0</ele>
        <time>2022-08-29T05:04:42Z</time>
      </trkpt>
      <trkpt lat="42.4115100" lon="-2.6420750">
        <ele>653.2</ele>
        <time>2022-08-29T05:04:43Z</time>
      </trkpt>
      <trkpt lat="42.4115100" lon="-2.6420750">
        <ele>653.0</ele>
        <time>2022-08-29T05:04:44Z</time>
      </trkpt>
      <trkpt lat="42.4115100" lon="-2.6420750">
        <ele>653.0</ele>
        <time>2022-08-29T05:04:45Z</time>
      </trkpt>
      <trkpt lat="42.4115100" lon="-2.6420750">
        <ele>653.0</ele>
        <time>2022-08-29T05:04:46Z</time>
      </trkpt>
      <trkpt lat="42.4115100" lon="-2.6420750">
        <ele>653.0</ele>
        <time>2022-08-29T05:04:47Z</time>
      </trkpt>
      <trkpt lat="42.4115100" lon="-2.6420750">
        <ele>653.0</ele>
        <time>2022-08-29T05:04:48Z</time>
      </trkpt>
      <trkpt lat="42.4115100" lon="-2.6420750">
        <ele>653.2</ele>
        <time>2022-08-29T05:04:49Z</time>
      </trkpt>
      <trkpt lat="42.4115100" lon="-2.6420750">
        <ele>653.0</ele>
        <time>2022-08-29T05:04:50Z</time>
      </trkpt>
      <trkpt lat="42.4115100" lon="-2.6420750">
        <ele>653.0</ele>
        <time>2022-08-29T05:04:51Z</time>
      </trkpt>
      <trkpt lat="42.4115100" lon="-2.6420750">
        <ele>653.0</ele>
        <time>2022-08-29T05:04:52Z</time>
      </trkpt>
      <trkpt lat="42.4115100" lon="-2.6420750">
        <ele>653.0</ele>
        <time>2022-08-29T05:04:53Z</time>
      </trkpt>
      <trkpt lat="42.4115100" lon="-2.6420750">
        <ele>653.0</ele>
        <time>2022-08-29T05:04:54Z</time>
      </trkpt>
      <trkpt lat="42.4115100" lon="-2.6420750">
        <ele>653.0</ele>
        <time>2022-08-29T05:04:55Z</time>
      </trkpt>
      <trkpt lat="42.4115100" lon="-2.6420750">
        <ele>653.0</ele>
        <time>2022-08-29T05:04:56Z</time>
      </trkpt>
      <trkpt lat="42.4115100" lon="-2.6420740">
        <ele>653.0</ele>
        <time>2022-08-29T05:04:57Z</time>
      </trkpt>
      <trkpt lat="42.4115100" lon="-2.6420740">
        <ele>653.0</ele>
        <time>2022-08-29T05:04:58Z</time>
      </trkpt>
      <trkpt lat="42.4115100" lon="-2.6420740">
        <ele>653.0</ele>
        <time>2022-08-29T05:04:59Z</time>
      </trkpt>
      <trkpt lat="42.4115100" lon="-2.6420740">
        <ele>653.0</ele>
        <time>2022-08-29T05:05:00Z</time>
      </trkpt>
      <trkpt lat="42.4115100" lon="-2.6420740">
        <ele>653.0</ele>
        <time>2022-08-29T05:05:01Z</time>
      </trkpt>
      <trkpt lat="42.4115100" lon="-2.6420740">
        <ele>652.8</ele>
        <time>2022-08-29T05:05:02Z</time>
      </trkpt>
      <trkpt lat="42.4115100" lon="-2.6420740">
        <ele>653.0</ele>
        <time>2022-08-29T05:05:03Z</time>
      </trkpt>
      <trkpt lat="42.4115100" lon="-2.6420740">
        <ele>653.0</ele>
        <time>2022-08-29T05:05:04Z</time>
      </trkpt>
      <trkpt lat="42.4115100" lon="-2.6420740">
        <ele>653.0</ele>
        <time>2022-08-29T05:05:05Z</time>
      </trkpt>
      <trkpt lat="42.4115100" lon="-2.6420740">
        <ele>653.0</ele>
        <time>2022-08-29T05:05:06Z</time>
      </trkpt>
      <trkpt lat="42.4115100" lon="-2.6420740">
        <ele>653.0</ele>
        <time>2022-08-29T05:05:07Z</time>
      </trkpt>
      <trkpt lat="42.4115100" lon="-2.6420740">
        <ele>653.0</ele>
        <time>2022-08-29T05:05:08Z</time>
      </trkpt>
      <trkpt lat="42.4115100" lon="-2.6420740">
        <ele>653.2</ele>
        <time>2022-08-29T05:05:09Z</time>
      </trkpt>
      <trkpt lat="42.4115100" lon="-2.6420730">
        <ele>653.0</ele>
        <time>2022-08-29T05:05:10Z</time>
      </trkpt>
      <trkpt lat="42.4115100" lon="-2.6420730">
        <ele>653.0</ele>
        <time>2022-08-29T05:05:11Z</time>
      </trkpt>
      <trkpt lat="42.4115100" lon="-2.6420740">
        <ele>653.0</ele>
        <time>2022-08-29T05:05:12Z</time>
      </trkpt>
      <trkpt lat="42.4115100" lon="-2.6420740">
        <ele>653.0</ele>
        <time>2022-08-29T05:05:13Z</time>
      </trkpt>
      <trkpt lat="42.4115100" lon="-2.6420740">
        <ele>653.0</ele>
        <time>2022-08-29T05:05:14Z</time>
      </trkpt>
      <trkpt lat="42.4115100" lon="-2.6420740">
        <ele>653.0</ele>
        <time>2022-08-29T05:05:15Z</time>
      </trkpt>
      <trkpt lat="42.4115100" lon="-2.6420730">
        <ele>653.2</ele>
        <time>2022-08-29T05:05:16Z</time>
      </trkpt>
      <trkpt lat="42.4115100" lon="-2.6420730">
        <ele>653.0</ele>
        <time>2022-08-29T05:05:17Z</time>
      </trkpt>
      <trkpt lat="42.4115100" lon="-2.6420730">
        <ele>653.2</ele>
        <time>2022-08-29T05:05:18Z</time>
      </trkpt>
      <trkpt lat="42.4115100" lon="-2.6420730">
        <ele>653.0</ele>
        <time>2022-08-29T05:05:19Z</time>
      </trkpt>
      <trkpt lat="42.4115100" lon="-2.6420730">
        <ele>653.0</ele>
        <time>2022-08-29T05:05:20Z</time>
      </trkpt>
      <trkpt lat="42.4115100" lon="-2.6420730">
        <ele>653.2</ele>
        <time>2022-08-29T05:05:21Z</time>
      </trkpt>
      <trkpt lat="42.4115100" lon="-2.6420730">
        <ele>653.2</ele>
        <time>2022-08-29T05:05:22Z</time>
      </trkpt>
      <trkpt lat="42.4115100" lon="-2.6420730">
        <ele>653.0</ele>
        <time>2022-08-29T05:05:23Z</time>
      </trkpt>
      <trkpt lat="42.4115100" lon="-2.6420730">
        <ele>653.0</ele>
        <time>2022-08-29T05:05:24Z</time>
      </trkpt>
      <trkpt lat="42.4115100" lon="-2.6420730">
        <ele>653.2</ele>
        <time>2022-08-29T05:05:25Z</time>
      </trkpt>
      <trkpt lat="42.4115100" lon="-2.6420730">
        <ele>653.2</ele>
        <time>2022-08-29T05:05:26Z</time>
      </trkpt>
      <trkpt lat="42.4115100" lon="-2.6420730">
        <ele>653.2</ele>
        <time>2022-08-29T05:05:27Z</time>
      </trkpt>
      <trkpt lat="42.4115100" lon="-2.6420730">
        <ele>653.0</ele>
        <time>2022-08-29T05:05:28Z</time>
      </trkpt>
      <trkpt lat="42.4115100" lon="-2.6420730">
        <ele>653.2</ele>
        <time>2022-08-29T05:05:29Z</time>
      </trkpt>
      <trkpt lat="42.4115100" lon="-2.6420730">
        <ele>653.0</ele>
        <time>2022-08-29T05:05:30Z</time>
      </trkpt>
      <trkpt lat="42.4115100" lon="-2.6420730">
        <ele>653.2</ele>
        <time>2022-08-29T05:05:31Z</time>
      </trkpt>
      <trkpt lat="42.4115100" lon="-2.6420730">
        <ele>653.2</ele>
        <time>2022-08-29T05:05:32Z</time>
      </trkpt>
      <trkpt lat="42.4115100" lon="-2.6420730">
        <ele>653.2</ele>
        <time>2022-08-29T05:05:33Z</time>
      </trkpt>
      <trkpt lat="42.4115100" lon="-2.6420730">
        <ele>653.2</ele>
        <time>2022-08-29T05:05:34Z</time>
      </trkpt>
      <trkpt lat="42.4115100" lon="-2.6420730">
        <ele>653.2</ele>
        <time>2022-08-29T05:05:35Z</time>
      </trkpt>
      <trkpt lat="42.4115100" lon="-2.6420730">
        <ele>653.2</ele>
        <time>2022-08-29T05:05:36Z</time>
      </trkpt>
      <trkpt lat="42.4115100" lon="-2.6420730">
        <ele>653.2</ele>
        <time>2022-08-29T05:05:37Z</time>
      </trkpt>
      <trkpt lat="42.4115100" lon="-2.6420730">
        <ele>653.2</ele>
        <time>2022-08-29T05:05:38Z</time>
      </trkpt>
      <trkpt lat="42.4115100" lon="-2.6420730">
        <ele>653.2</ele>
        <time>2022-08-29T05:05:39Z</time>
      </trkpt>
      <trkpt lat="42.4115100" lon="-2.6420730">
        <ele>653.4</ele>
        <time>2022-08-29T05:05:40Z</time>
      </trkpt>
      <trkpt lat="42.4115100" lon="-2.6420730">
        <ele>653.2</ele>
        <time>2022-08-29T05:05:41Z</time>
      </trkpt>
      <trkpt lat="42.4115100" lon="-2.6420730">
        <ele>653.2</ele>
        <time>2022-08-29T05:05:42Z</time>
      </trkpt>
      <trkpt lat="42.4115100" lon="-2.6420730">
        <ele>653.2</ele>
        <time>2022-08-29T05:05:43Z</time>
      </trkpt>
      <trkpt lat="42.4115100" lon="-2.6420730">
        <ele>653.2</ele>
        <time>2022-08-29T05:05:44Z</time>
      </trkpt>
      <trkpt lat="42.4115100" lon="-2.6420730">
        <ele>653.2</ele>
        <time>2022-08-29T05:05:45Z</time>
      </trkpt>
      <trkpt lat="42.4115100" lon="-2.6420730">
        <ele>653.2</ele>
        <time>2022-08-29T05:05:46Z</time>
      </trkpt>
      <trkpt lat="42.4115100" lon="-2.6420730">
        <ele>653.2</ele>
        <time>2022-08-29T05:05:47Z</time>
      </trkpt>
      <trkpt lat="42.4115100" lon="-2.6420730">
        <ele>653.2</ele>
        <time>2022-08-29T05:05:48Z</time>
      </trkpt>
      <trkpt lat="42.4115100" lon="-2.6420730">
        <ele>653.2</ele>
        <time>2022-08-29T05:05:49Z</time>
      </trkpt>
      <trkpt lat="42.4115100" lon="-2.6420730">
        <ele>653.0</ele>
        <time>2022-08-29T05:05:50Z</time>
      </trkpt>
      <trkpt lat="42.4115100" lon="-2.6420730">
        <ele>653.2</ele>
        <time>2022-08-29T05:05:51Z</time>
      </trkpt>
      <trkpt lat="42.4115100" lon="-2.6420730">
        <ele>653.2</ele>
        <time>2022-08-29T05:05:52Z</time>
      </trkpt>
      <trkpt lat="42.4115100" lon="-2.6420730">
        <ele>653.0</ele>
        <time>2022-08-29T05:05:53Z</time>
      </trkpt>
      <trkpt lat="42.4115110" lon="-2.6420690">
        <ele>653.2</ele>
        <time>2022-08-29T05:05:54Z</time>
      </trkpt>
      <trkpt lat="42.4115120" lon="-2.6420660">
        <ele>653.0</ele>
        <time>2022-08-29T05:05:55Z</time>
      </trkpt>
      <trkpt lat="42.4115140" lon="-2.6420650">
        <ele>653.2</ele>
        <time>2022-08-29T05:05:56Z</time>
      </trkpt>
      <trkpt lat="42.4115150" lon="-2.6420640">
        <ele>653.0</ele>
        <time>2022-08-29T05:05:57Z</time>
      </trkpt>
      <trkpt lat="42.4115150" lon="-2.6420640">
        <ele>653.0</ele>
        <time>2022-08-29T05:05:58Z</time>
      </trkpt>
      <trkpt lat="42.4115150" lon="-2.6420640">
        <ele>653.2</ele>
        <time>2022-08-29T05:05:59Z</time>
      </trkpt>
      <trkpt lat="42.4115140" lon="-2.6420650">
        <ele>653.2</ele>
        <time>2022-08-29T05:06:00Z</time>
      </trkpt>
      <trkpt lat="42.4115140" lon="-2.6420650">
        <ele>653.0</ele>
        <time>2022-08-29T05:06:01Z</time>
      </trkpt>
      <trkpt lat="42.4115140" lon="-2.6420650">
        <ele>653.0</ele>
        <time>2022-08-29T05:06:02Z</time>
      </trkpt>
      <trkpt lat="42.4115140" lon="-2.6420650">
        <ele>653.0</ele>
        <time>2022-08-29T05:06:03Z</time>
      </trkpt>
      <trkpt lat="42.4115140" lon="-2.6420650">
        <ele>653.2</ele>
        <time>2022-08-29T05:06:04Z</time>
      </trkpt>
      <trkpt lat="42.4115140" lon="-2.6420650">
        <ele>653.4</ele>
        <time>2022-08-29T05:06:05Z</time>
      </trkpt>
      <trkpt lat="42.4115140" lon="-2.6420650">
        <ele>653.6</ele>
        <time>2022-08-29T05:06:06Z</time>
      </trkpt>
      <trkpt lat="42.4115140" lon="-2.6420650">
        <ele>653.6</ele>
        <time>2022-08-29T05:06:07Z</time>
      </trkpt>
      <trkpt lat="42.4115140" lon="-2.6420650">
        <ele>653.6</ele>
        <time>2022-08-29T05:06:08Z</time>
      </trkpt>
      <trkpt lat="42.4115140" lon="-2.6420650">
        <ele>653.6</ele>
        <time>2022-08-29T05:06:09Z</time>
      </trkpt>
      <trkpt lat="42.4115140" lon="-2.6420650">
        <ele>653.6</ele>
        <time>2022-08-29T05:06:10Z</time>
      </trkpt>
      <trkpt lat="42.4115140" lon="-2.6420650">
        <ele>653.6</ele>
        <time>2022-08-29T05:06:11Z</time>
      </trkpt>
      <trkpt lat="42.4115140" lon="-2.6420650">
        <ele>653.6</ele>
        <time>2022-08-29T05:06:12Z</time>
      </trkpt>
      <trkpt lat="42.4115140" lon="-2.6420650">
        <ele>653.6</ele>
        <time>2022-08-29T05:06:13Z</time>
      </trkpt>
      <trkpt lat="42.4115140" lon="-2.6420650">
        <ele>653.6</ele>
        <time>2022-08-29T05:06:14Z</time>
      </trkpt>
      <trkpt lat="42.4115140" lon="-2.6420660">
        <ele>653.6</ele>
        <time>2022-08-29T05:06:15Z</time>
      </trkpt>
      <trkpt lat="42.4115170" lon="-2.6420700">
        <ele>653.6</ele>
        <time>2022-08-29T05:06:16Z</time>
      </trkpt>
      <trkpt lat="42.4115210" lon="-2.6420770">
        <ele>653.8</ele>
        <time>2022-08-29T05:06:17Z</time>
      </trkpt>
      <trkpt lat="42.4115250" lon="-2.6420850">
        <ele>653.6</ele>
        <time>2022-08-29T05:06:18Z</time>
      </trkpt>
      <trkpt lat="42.4115290" lon="-2.6420920">
        <ele>653.6</ele>
        <time>2022-08-29T05:06:19Z</time>
      </trkpt>
      <trkpt lat="42.4115360" lon="-2.6421000">
        <ele>653.6</ele>
        <time>2022-08-29T05:06:20Z</time>
      </trkpt>
      <trkpt lat="42.4115440" lon="-2.6421080">
        <ele>653.8</ele>
        <time>2022-08-29T05:06:21Z</time>
      </trkpt>
      <trkpt lat="42.4115530" lon="-2.6421180">
        <ele>653.8</ele>
        <time>2022-08-29T05:06:22Z</time>
      </trkpt>
      <trkpt lat="42.4115590" lon="-2.6421270">
        <ele>653.8</ele>
        <time>2022-08-29T05:06:23Z</time>
      </trkpt>
      <trkpt lat="42.4115640" lon="-2.6421370">
        <ele>653.6</ele>
        <time>2022-08-29T05:06:24Z</time>
      </trkpt>
      <trkpt lat="42.4115700" lon="-2.6421490">
        <ele>653.6</ele>
        <time>2022-08-29T05:06:25Z</time>
      </trkpt>
      <trkpt lat="42.4115760" lon="-2.6421600">
        <ele>653.8</ele>
        <time>2022-08-29T05:06:26Z</time>
      </trkpt>
      <trkpt lat="42.4115820" lon="-2.6421650">
        <ele>653.8</ele>
        <time>2022-08-29T05:06:27Z</time>
      </trkpt>
      <trkpt lat="42.4115830" lon="-2.6421670">
        <ele>653.8</ele>
        <time>2022-08-29T05:06:28Z</time>
      </trkpt>
      <trkpt lat="42.4115840" lon="-2.6421650">
        <ele>653.8</ele>
        <time>2022-08-29T05:06:29Z</time>
      </trkpt>
      <trkpt lat="42.4115840" lon="-2.6421650">
        <ele>653.8</ele>
        <time>2022-08-29T05:06:30Z</time>
      </trkpt>
      <trkpt lat="42.4115840" lon="-2.6421640">
        <ele>654.0</ele>
        <time>2022-08-29T05:06:31Z</time>
      </trkpt>
      <trkpt lat="42.4115850" lon="-2.6421670">
        <ele>654.4</ele>
        <time>2022-08-29T05:06:32Z</time>
      </trkpt>
      <trkpt lat="42.4115860" lon="-2.6421670">
        <ele>654.6</ele>
        <time>2022-08-29T05:06:33Z</time>
      </trkpt>
      <trkpt lat="42.4115860" lon="-2.6421670">
        <ele>654.4</ele>
        <time>2022-08-29T05:06:34Z</time>
      </trkpt>
      <trkpt lat="42.4115860" lon="-2.6421680">
        <ele>654.4</ele>
        <time>2022-08-29T05:06:35Z</time>
      </trkpt>
      <trkpt lat="42.4115850" lon="-2.6421680">
        <ele>654.6</ele>
        <time>2022-08-29T05:06:36Z</time>
      </trkpt>
      <trkpt lat="42.4115850" lon="-2.6421670">
        <ele>654.8</ele>
        <time>2022-08-29T05:06:37Z</time>
      </trkpt>
      <trkpt lat="42.4115850" lon="-2.6421670">
        <ele>654.8</ele>
        <time>2022-08-29T05:06:38Z</time>
      </trkpt>
      <trkpt lat="42.4115850" lon="-2.6421660">
        <ele>655.0</ele>
        <time>2022-08-29T05:06:39Z</time>
      </trkpt>
      <trkpt lat="42.4115850" lon="-2.6421660">
        <ele>655.0</ele>
        <time>2022-08-29T05:06:40Z</time>
      </trkpt>
      <trkpt lat="42.4115860" lon="-2.6421660">
        <ele>655.0</ele>
        <time>2022-08-29T05:06:41Z</time>
      </trkpt>
      <trkpt lat="42.4115860" lon="-2.6421650">
        <ele>655.0</ele>
        <time>2022-08-29T05:06:42Z</time>
      </trkpt>
      <trkpt lat="42.4115860" lon="-2.6421650">
        <ele>655.2</ele>
        <time>2022-08-29T05:06:43Z</time>
      </trkpt>
      <trkpt lat="42.4115860" lon="-2.6421650">
        <ele>655.2</ele>
        <time>2022-08-29T05:06:44Z</time>
      </trkpt>
      <trkpt lat="42.4115860" lon="-2.6421650">
        <ele>655.0</ele>
        <time>2022-08-29T05:06:45Z</time>
      </trkpt>
      <trkpt lat="42.4115900" lon="-2.6421710">
        <ele>655.2</ele>
        <time>2022-08-29T05:06:46Z</time>
      </trkpt>
      <trkpt lat="42.4115980" lon="-2.6421800">
        <ele>655.2</ele>
        <time>2022-08-29T05:06:47Z</time>
      </trkpt>
      <trkpt lat="42.4116060" lon="-2.6421890">
        <ele>655.2</ele>
        <time>2022-08-29T05:06:48Z</time>
      </trkpt>
      <trkpt lat="42.4116110" lon="-2.6421980">
        <ele>655.2</ele>
        <time>2022-08-29T05:06:49Z</time>
      </trkpt>
      <trkpt lat="42.4116170" lon="-2.6422080">
        <ele>655.2</ele>
        <time>2022-08-29T05:06:50Z</time>
      </trkpt>
      <trkpt lat="42.4116230" lon="-2.6422180">
        <ele>655.2</ele>
        <time>2022-08-29T05:06:51Z</time>
      </trkpt>
      <trkpt lat="42.4116290" lon="-2.6422280">
        <ele>655.2</ele>
        <time>2022-08-29T05:06:52Z</time>
      </trkpt>
      <trkpt lat="42.4116350" lon="-2.6422360">
        <ele>655.2</ele>
        <time>2022-08-29T05:06:53Z</time>
      </trkpt>
      <trkpt lat="42.4116420" lon="-2.6422450">
        <ele>655.2</ele>
        <time>2022-08-29T05:06:54Z</time>
      </trkpt>
      <trkpt lat="42.4116480" lon="-2.6422540">
        <ele>655.4</ele>
        <time>2022-08-29T05:06:55Z</time>
      </trkpt>
      <trkpt lat="42.4116530" lon="-2.6422640">
        <ele>655.4</ele>
        <time>2022-08-29T05:06:56Z</time>
      </trkpt>
      <trkpt lat="42.4116600" lon="-2.6422730">
        <ele>655.6</ele>
        <time>2022-08-29T05:06:57Z</time>
      </trkpt>
      <trkpt lat="42.4116660" lon="-2.6422800">
        <ele>655.6</ele>
        <time>2022-08-29T05:06:58Z</time>
      </trkpt>
      <trkpt lat="42.4116710" lon="-2.6422880">
        <ele>655.6</ele>
        <time>2022-08-29T05:06:59Z</time>
      </trkpt>
      <trkpt lat="42.4116760" lon="-2.6422970">
        <ele>655.6</ele>
        <time>2022-08-29T05:07:00Z</time>
      </trkpt>
      <trkpt lat="42.4116810" lon="-2.6423030">
        <ele>656.0</ele>
        <time>2022-08-29T05:07:01Z</time>
      </trkpt>
      <trkpt lat="42.4116850" lon="-2.6423090">
        <ele>656.2</ele>
        <time>2022-08-29T05:07:02Z</time>
      </trkpt>
      <trkpt lat="42.4116860" lon="-2.6423170">
        <ele>656.2</ele>
        <time>2022-08-29T05:07:03Z</time>
      </trkpt>
      <trkpt lat="42.4116900" lon="-2.6423250">
        <ele>656.4</ele>
        <time>2022-08-29T05:07:04Z</time>
      </trkpt>
      <trkpt lat="42.4116940" lon="-2.6423330">
        <ele>656.6</ele>
        <time>2022-08-29T05:07:05Z</time>
      </trkpt>
      <trkpt lat="42.4116980" lon="-2.6423440">
        <ele>656.8</ele>
        <time>2022-08-29T05:07:06Z</time>
      </trkpt>
      <trkpt lat="42.4117020" lon="-2.6423530">
        <ele>656.8</ele>
        <time>2022-08-29T05:07:07Z</time>
      </trkpt>
      <trkpt lat="42.4117070" lon="-2.6423620">
        <ele>657.0</ele>
        <time>2022-08-29T05:07:08Z</time>
      </trkpt>
      <trkpt lat="42.4117130" lon="-2.6423690">
        <ele>657.2</ele>
        <time>2022-08-29T05:07:09Z</time>
      </trkpt>
      <trkpt lat="42.4117160" lon="-2.6423750">
        <ele>657.4</ele>
        <time>2022-08-29T05:07:10Z</time>
      </trkpt>
      <trkpt lat="42.4117190" lon="-2.6423810">
        <ele>657.6</ele>
        <time>2022-08-29T05:07:11Z</time>
      </trkpt>
      <trkpt lat="42.4117230" lon="-2.6423890">
        <ele>657.4</ele>
        <time>2022-08-29T05:07:12Z</time>
      </trkpt>
      <trkpt lat="42.4117280" lon="-2.6423990">
        <ele>657.6</ele>
        <time>2022-08-29T05:07:13Z</time>
      </trkpt>
      <trkpt lat="42.4117330" lon="-2.6424120">
        <ele>657.8</ele>
        <time>2022-08-29T05:07:14Z</time>
      </trkpt>
      <trkpt lat="42.4117350" lon="-2.6424250">
        <ele>657.8</ele>
        <time>2022-08-29T05:07:15Z</time>
      </trkpt>
      <trkpt lat="42.4117370" lon="-2.6424360">
        <ele>658.2</ele>
        <time>2022-08-29T05:07:16Z</time>
      </trkpt>
      <trkpt lat="42.4117420" lon="-2.6424450">
        <ele>658.2</ele>
        <time>2022-08-29T05:07:17Z</time>
      </trkpt>
      <trkpt lat="42.4117470" lon="-2.6424570">
        <ele>658.4</ele>
        <time>2022-08-29T05:07:18Z</time>
      </trkpt>
      <trkpt lat="42.4117530" lon="-2.6424670">
        <ele>658.6</ele>
        <time>2022-08-29T05:07:19Z</time>
      </trkpt>
      <trkpt lat="42.4117590" lon="-2.6424770">
        <ele>658.8</ele>
        <time>2022-08-29T05:07:20Z</time>
      </trkpt>
      <trkpt lat="42.4117660" lon="-2.6424860">
        <ele>658.8</ele>
        <time>2022-08-29T05:07:21Z</time>
      </trkpt>
      <trkpt lat="42.4117710" lon="-2.6424940">
        <ele>658.8</ele>
        <time>2022-08-29T05:07:22Z</time>
      </trkpt>
      <trkpt lat="42.4117780" lon="-2.6425000">
        <ele>659.0</ele>
        <time>2022-08-29T05:07:23Z</time>
      </trkpt>
      <trkpt lat="42.4117860" lon="-2.6425060">
        <ele>659.2</ele>
        <time>2022-08-29T05:07:24Z</time>
      </trkpt>
      <trkpt lat="42.4117930" lon="-2.6425130">
        <ele>659.6</ele>
        <time>2022-08-29T05:07:25Z</time>
      </trkpt>
      <trkpt lat="42.4118020" lon="-2.6425200">
        <ele>659.8</ele>
        <time>2022-08-29T05:07:26Z</time>
      </trkpt>
      <trkpt lat="42.4118090" lon="-2.6425260">
        <ele>660.0</ele>
        <time>2022-08-29T05:07:27Z</time>
      </trkpt>
      <trkpt lat="42.4118150" lon="-2.6425350">
        <ele>660.2</ele>
        <time>2022-08-29T05:07:28Z</time>
      </trkpt>
      <trkpt lat="42.4118220" lon="-2.6425450">
        <ele>660.2</ele>
        <time>2022-08-29T05:07:29Z</time>
      </trkpt>
      <trkpt lat="42.4118280" lon="-2.6425510">
        <ele>660.2</ele>
        <time>2022-08-29T05:07:30Z</time>
      </trkpt>
      <trkpt lat="42.4118330" lon="-2.6425550">
        <ele>660.4</ele>
        <time>2022-08-29T05:07:31Z</time>
      </trkpt>
      <trkpt lat="42.4118390" lon="-2.6425590">
        <ele>660.4</ele>
        <time>2022-08-29T05:07:32Z</time>
      </trkpt>
      <trkpt lat="42.4118470" lon="-2.6425630">
        <ele>660.6</ele>
        <time>2022-08-29T05:07:33Z</time>
      </trkpt>
      <trkpt lat="42.4118550" lon="-2.6425660">
        <ele>661.0</ele>
        <time>2022-08-29T05:07:34Z</time>
      </trkpt>
      <trkpt lat="42.4118610" lon="-2.6425710">
        <ele>660.8</ele>
        <time>2022-08-29T05:07:35Z</time>
      </trkpt>
      <trkpt lat="42.4118680" lon="-2.6425760">
        <ele>661.0</ele>
        <time>2022-08-29T05:07:36Z</time>
      </trkpt>
      <trkpt lat="42.4118740" lon="-2.6425830">
        <ele>661.2</ele>
        <time>2022-08-29T05:07:37Z</time>
      </trkpt>
      <trkpt lat="42.4118790" lon="-2.6425870">
        <ele>661.2</ele>
        <time>2022-08-29T05:07:38Z</time>
      </trkpt>
      <trkpt lat="42.4118860" lon="-2.6425900">
        <ele>661.4</ele>
        <time>2022-08-29T05:07:39Z</time>
      </trkpt>
      <trkpt lat="42.4118930" lon="-2.6425940">
        <ele>661.8</ele>
        <time>2022-08-29T05:07:40Z</time>
      </trkpt>
      <trkpt lat="42.4119020" lon="-2.6425970">
        <ele>661.8</ele>
        <time>2022-08-29T05:07:41Z</time>
      </trkpt>
      <trkpt lat="42.4119100" lon="-2.6426010">
        <ele>662.2</ele>
        <time>2022-08-29T05:07:42Z</time>
      </trkpt>
      <trkpt lat="42.4119180" lon="-2.6426050">
        <ele>662.2</ele>
        <time>2022-08-29T05:07:43Z</time>
      </trkpt>
      <trkpt lat="42.4119250" lon="-2.6426110">
        <ele>662.4</ele>
        <time>2022-08-29T05:07:44Z</time>
      </trkpt>
      <trkpt lat="42.4119320" lon="-2.6426180">
        <ele>662.4</ele>
        <time>2022-08-29T05:07:45Z</time>
      </trkpt>
      <trkpt lat="42.4119410" lon="-2.6426230">
        <ele>662.4</ele>
        <time>2022-08-29T05:07:46Z</time>
      </trkpt>
      <trkpt lat="42.4119500" lon="-2.6426270">
        <ele>662.8</ele>
        <time>2022-08-29T05:07:47Z</time>
      </trkpt>
      <trkpt lat="42.4119580" lon="-2.6426320">
        <ele>662.8</ele>
        <time>2022-08-29T05:07:48Z</time>
      </trkpt>
      <trkpt lat="42.4119670" lon="-2.6426390">
        <ele>663.0</ele>
        <time>2022-08-29T05:07:49Z</time>
      </trkpt>
      <trkpt lat="42.4119770" lon="-2.6426470">
        <ele>663.2</ele>
        <time>2022-08-29T05:07:50Z</time>
      </trkpt>
      <trkpt lat="42.4119860" lon="-2.6426540">
        <ele>663.6</ele>
        <time>2022-08-29T05:07:51Z</time>
      </trkpt>
      <trkpt lat="42.4119960" lon="-2.6426610">
        <ele>663.6</ele>
        <time>2022-08-29T05:07:52Z</time>
      </trkpt>
      <trkpt lat="42.4120060" lon="-2.6426680">
        <ele>663.8</ele>
        <time>2022-08-29T05:07:53Z</time>
      </trkpt>
      <trkpt lat="42.4120150" lon="-2.6426800">
        <ele>664.2</ele>
        <time>2022-08-29T05:07:54Z</time>
      </trkpt>
      <trkpt lat="42.4120220" lon="-2.6426910">
        <ele>664.4</ele>
        <time>2022-08-29T05:07:55Z</time>
      </trkpt>
      <trkpt lat="42.4120280" lon="-2.6427020">
        <ele>664.6</ele>
        <time>2022-08-29T05:07:56Z</time>
      </trkpt>
      <trkpt lat="42.4120320" lon="-2.6427120">
        <ele>664.6</ele>
        <time>2022-08-29T05:07:57Z</time>
      </trkpt>
      <trkpt lat="42.4120320" lon="-2.6427170">
        <ele>664.8</ele>
        <time>2022-08-29T05:07:58Z</time>
      </trkpt>
      <trkpt lat="42.4120330" lon="-2.6427210">
        <ele>665.0</ele>
        <time>2022-08-29T05:07:59Z</time>
      </trkpt>
      <trkpt lat="42.4120350" lon="-2.6427250">
        <ele>665.0</ele>
        <time>2022-08-29T05:08:00Z</time>
      </trkpt>
      <trkpt lat="42.4120370" lon="-2.6427280">
        <ele>665.2</ele>
        <time>2022-08-29T05:08:01Z</time>
      </trkpt>
      <trkpt lat="42.4120370" lon="-2.6427300">
        <ele>665.2</ele>
        <time>2022-08-29T05:08:02Z</time>
      </trkpt>
      <trkpt lat="42.4120380" lon="-2.6427320">
        <ele>665.6</ele>
        <time>2022-08-29T05:08:03Z</time>
      </trkpt>
      <trkpt lat="42.4120400" lon="-2.6427440">
        <ele>665.6</ele>
        <time>2022-08-29T05:08:04Z</time>
      </trkpt>
      <trkpt lat="42.4120410" lon="-2.6427570">
        <ele>665.8</ele>
        <time>2022-08-29T05:08:05Z</time>
      </trkpt>
      <trkpt lat="42.4120430" lon="-2.6427710">
        <ele>665.8</ele>
        <time>2022-08-29T05:08:06Z</time>
      </trkpt>
      <trkpt lat="42.4120460" lon="-2.6427870">
        <ele>665.8</ele>
        <time>2022-08-29T05:08:07Z</time>
      </trkpt>
      <trkpt lat="42.4120490" lon="-2.6428030">
        <ele>666.0</ele>
        <time>2022-08-29T05:08:08Z</time>
      </trkpt>
      <trkpt lat="42.4120540" lon="-2.6428180">
        <ele>666.0</ele>
        <time>2022-08-29T05:08:09Z</time>
      </trkpt>
      <trkpt lat="42.4120570" lon="-2.6428310">
        <ele>666.0</ele>
        <time>2022-08-29T05:08:10Z</time>
      </trkpt>
      <trkpt lat="42.4120590" lon="-2.6428430">
        <ele>666.0</ele>
        <time>2022-08-29T05:08:11Z</time>
      </trkpt>
      <trkpt lat="42.4120610" lon="-2.6428570">
        <ele>666.0</ele>
        <time>2022-08-29T05:08:12Z</time>
      </trkpt>
      <trkpt lat="42.4120650" lon="-2.6428730">
        <ele>666.2</ele>
        <time>2022-08-29T05:08:13Z</time>
      </trkpt>
      <trkpt lat="42.4120690" lon="-2.6428910">
        <ele>666.2</ele>
        <time>2022-08-29T05:08:14Z</time>
      </trkpt>
      <trkpt lat="42.4120730" lon="-2.6429080">
        <ele>666.2</ele>
        <time>2022-08-29T05:08:15Z</time>
      </trkpt>
      <trkpt lat="42.4120770" lon="-2.6429250">
        <ele>666.2</ele>
        <time>2022-08-29T05:08:16Z</time>
      </trkpt>
      <trkpt lat="42.4120820" lon="-2.6429410">
        <ele>666.2</ele>
        <time>2022-08-29T05:08:17Z</time>
      </trkpt>
      <trkpt lat="42.4120930" lon="-2.6429560">
        <ele>666.4</ele>
        <time>2022-08-29T05:08:18Z</time>
      </trkpt>
      <trkpt lat="42.4121040" lon="-2.6429720">
        <ele>666.4</ele>
        <time>2022-08-29T05:08:19Z</time>
      </trkpt>
      <trkpt lat="42.4121140" lon="-2.6429890">
        <ele>666.4</ele>
        <time>2022-08-29T05:08:20Z</time>
      </trkpt>
      <trkpt lat="42.4121270" lon="-2.6430090">
        <ele>666.6</ele>
        <time>2022-08-29T05:08:21Z</time>
      </trkpt>
      <trkpt lat="42.4121450" lon="-2.6430310">
        <ele>666.6</ele>
        <time>2022-08-29T05:08:22Z</time>
      </trkpt>
      <trkpt lat="42.4121650" lon="-2.6430550">
        <ele>666.8</ele>
        <time>2022-08-29T05:08:23Z</time>
      </trkpt>
      <trkpt lat="42.4121850" lon="-2.6430820">
        <ele>666.8</ele>
        <time>2022-08-29T05:08:24Z</time>
      </trkpt>
      <trkpt lat="42.4122050" lon="-2.6431120">
        <ele>667.0</ele>
        <time>2022-08-29T05:08:25Z</time>
      </trkpt>
      <trkpt lat="42.4122250" lon="-2.6431430">
        <ele>667.0</ele>
        <time>2022-08-29T05:08:26Z</time>
      </trkpt>
      <trkpt lat="42.4122470" lon="-2.6431770">
        <ele>667.0</ele>
        <time>2022-08-29T05:08:27Z</time>
      </trkpt>
      <trkpt lat="42.4122680" lon="-2.6432160">
        <ele>667.0</ele>
        <time>2022-08-29T05:08:28Z</time>
      </trkpt>
      <trkpt lat="42.4122850" lon="-2.6432580">
        <ele>667.0</ele>
        <time>2022-08-29T05:08:29Z</time>
      </trkpt>
      <trkpt lat="42.4123000" lon="-2.6433040">
        <ele>667.0</ele>
        <time>2022-08-29T05:08:30Z</time>
      </trkpt>
      <trkpt lat="42.4123150" lon="-2.6433510">
        <ele>667.0</ele>
        <time>2022-08-29T05:08:31Z</time>
      </trkpt>
      <trkpt lat="42.4123320" lon="-2.6433960">
        <ele>667.0</ele>
        <time>2022-08-29T05:08:32Z</time>
      </trkpt>
      <trkpt lat="42.4123510" lon="-2.6434410">
        <ele>667.0</ele>
        <time>2022-08-29T05:08:33Z</time>
      </trkpt>
      <trkpt lat="42.4123680" lon="-2.6434850">
        <ele>667.0</ele>
        <time>2022-08-29T05:08:34Z</time>
      </trkpt>
      <trkpt lat="42.4123850" lon="-2.6435300">
        <ele>666.8</ele>
        <time>2022-08-29T05:08:35Z</time>
      </trkpt>
      <trkpt lat="42.4124040" lon="-2.6435700">
        <ele>666.8</ele>
        <time>2022-08-29T05:08:36Z</time>
      </trkpt>
      <trkpt lat="42.4124230" lon="-2.6436070">
        <ele>666.8</ele>
        <time>2022-08-29T05:08:37Z</time>
      </trkpt>
      <trkpt lat="42.4124400" lon="-2.6436450">
        <ele>666.6</ele>
        <time>2022-08-29T05:08:38Z</time>
      </trkpt>
      <trkpt lat="42.4124570" lon="-2.6436850">
        <ele>666.6</ele>
        <time>2022-08-29T05:08:39Z</time>
      </trkpt>
      <trkpt lat="42.4124730" lon="-2.6437280">
        <ele>666.6</ele>
        <time>2022-08-29T05:08:40Z</time>
      </trkpt>
      <trkpt lat="42.4124830" lon="-2.6437740">
        <ele>666.4</ele>
        <time>2022-08-29T05:08:41Z</time>
      </trkpt>
      <trkpt lat="42.4124870" lon="-2.6438260">
        <ele>666.4</ele>
        <time>2022-08-29T05:08:42Z</time>
      </trkpt>
      <trkpt lat="42.4124860" lon="-2.6438780">
        <ele>666.4</ele>
        <time>2022-08-29T05:08:43Z</time>
      </trkpt>
      <trkpt lat="42.4124830" lon="-2.6439280">
        <ele>666.0</ele>
        <time>2022-08-29T05:08:44Z</time>
      </trkpt>
      <trkpt lat="42.4124720" lon="-2.6439770">
        <ele>666.0</ele>
        <time>2022-08-29T05:08:45Z</time>
      </trkpt>
      <trkpt lat="42.4124610" lon="-2.6440240">
        <ele>665.8</ele>
        <time>2022-08-29T05:08:46Z</time>
      </trkpt>
      <trkpt lat="42.4124490" lon="-2.6440740">
        <ele>665.8</ele>
        <time>2022-08-29T05:08:47Z</time>
      </trkpt>
      <trkpt lat="42.4124360" lon="-2.6441300">
        <ele>665.6</ele>
        <time>2022-08-29T05:08:48Z</time>
      </trkpt>
      <trkpt lat="42.4124250" lon="-2.6441890">
        <ele>665.2</ele>
        <time>2022-08-29T05:08:49Z</time>
      </trkpt>
      <trkpt lat="42.4124160" lon="-2.6442490">
        <ele>665.2</ele>
        <time>2022-08-29T05:08:50Z</time>
      </trkpt>
      <trkpt lat="42.4124080" lon="-2.6443120">
        <ele>665.0</ele>
        <time>2022-08-29T05:08:51Z</time>
      </trkpt>
      <trkpt lat="42.4124000" lon="-2.6443790">
        <ele>665.0</ele>
        <time>2022-08-29T05:08:52Z</time>
      </trkpt>
      <trkpt lat="42.4123920" lon="-2.6444560">
        <ele>664.8</ele>
        <time>2022-08-29T05:08:53Z</time>
      </trkpt>
      <trkpt lat="42.4123930" lon="-2.6445330">
        <ele>665.0</ele>
        <time>2022-08-29T05:08:54Z</time>
      </trkpt>
      <trkpt lat="42.4124040" lon="-2.6446180">
        <ele>664.8</ele>
        <time>2022-08-29T05:08:55Z</time>
      </trkpt>
      <trkpt lat="42.4124180" lon="-2.6447050">
        <ele>664.6</ele>
        <time>2022-08-29T05:08:56Z</time>
      </trkpt>
      <trkpt lat="42.4124280" lon="-2.6448020">
        <ele>664.6</ele>
        <time>2022-08-29T05:08:57Z</time>
      </trkpt>
      <trkpt lat="42.4124370" lon="-2.6448900">
        <ele>664.4</ele>
        <time>2022-08-29T05:08:58Z</time>
      </trkpt>
      <trkpt lat="42.4124420" lon="-2.6449780">
        <ele>664.4</ele>
        <time>2022-08-29T05:08:59Z</time>
      </trkpt>
      <trkpt lat="42.4124450" lon="-2.6450650">
        <ele>663.8</ele>
        <time>2022-08-29T05:09:00Z</time>
      </trkpt>
      <trkpt lat="42.4124490" lon="-2.6451490">
        <ele>663.2</ele>
        <time>2022-08-29T05:09:01Z</time>
      </trkpt>
      <trkpt lat="42.4124560" lon="-2.6452340">
        <ele>662.8</ele>
        <time>2022-08-29T05:09:02Z</time>
      </trkpt>
      <trkpt lat="42.4124630" lon="-2.6453180">
        <ele>662.2</ele>
        <time>2022-08-29T05:09:03Z</time>
      </trkpt>
      <trkpt lat="42.4124700" lon="-2.6454020">
        <ele>661.8</ele>
        <time>2022-08-29T05:09:04Z</time>
      </trkpt>
      <trkpt lat="42.4124780" lon="-2.6454840">
        <ele>661.6</ele>
        <time>2022-08-29T05:09:05Z</time>
      </trkpt>
      <trkpt lat="42.4124830" lon="-2.6455640">
        <ele>661.4</ele>
        <time>2022-08-29T05:09:06Z</time>
      </trkpt>
      <trkpt lat="42.4124860" lon="-2.6456450">
        <ele>661.4</ele>
        <time>2022-08-29T05:09:07Z</time>
      </trkpt>
      <trkpt lat="42.4124890" lon="-2.6457270">
        <ele>660.6</ele>
        <time>2022-08-29T05:09:08Z</time>
      </trkpt>
      <trkpt lat="42.4124910" lon="-2.6458130">
        <ele>660.4</ele>
        <time>2022-08-29T05:09:09Z</time>
      </trkpt>
      <trkpt lat="42.4124910" lon="-2.6459060">
        <ele>660.4</ele>
        <time>2022-08-29T05:09:10Z</time>
      </trkpt>
      <trkpt lat="42.4124900" lon="-2.6460070">
        <ele>660.2</ele>
        <time>2022-08-29T05:09:11Z</time>
      </trkpt>
      <trkpt lat="42.4124900" lon="-2.6461070">
        <ele>660.2</ele>
        <time>2022-08-29T05:09:12Z</time>
      </trkpt>
      <trkpt lat="42.4124890" lon="-2.6462070">
        <ele>660.0</ele>
        <time>2022-08-29T05:09:13Z</time>
      </trkpt>
      <trkpt lat="42.4124900" lon="-2.6463140">
        <ele>660.0</ele>
        <time>2022-08-29T05:09:14Z</time>
      </trkpt>
      <trkpt lat="42.4124930" lon="-2.6464230">
        <ele>659.8</ele>
        <time>2022-08-29T05:09:15Z</time>
      </trkpt>
      <trkpt lat="42.4124990" lon="-2.6465340">
        <ele>659.8</ele>
        <time>2022-08-29T05:09:16Z</time>
      </trkpt>
      <trkpt lat="42.4125060" lon="-2.6466480">
        <ele>659.8</ele>
        <time>2022-08-29T05:09:17Z</time>
      </trkpt>
      <trkpt lat="42.4125170" lon="-2.6467640">
        <ele>659.6</ele>
        <time>2022-08-29T05:09:18Z</time>
      </trkpt>
      <trkpt lat="42.4125300" lon="-2.6468780">
        <ele>659.2</ele>
        <time>2022-08-29T05:09:19Z</time>
      </trkpt>
      <trkpt lat="42.4125450" lon="-2.6469830">
        <ele>658.0</ele>
        <time>2022-08-29T05:09:20Z</time>
      </trkpt>
      <trkpt lat="42.4125610" lon="-2.6470800">
        <ele>658.0</ele>
        <time>2022-08-29T05:09:21Z</time>
      </trkpt>
      <trkpt lat="42.4125730" lon="-2.6471760">
        <ele>657.2</ele>
        <time>2022-08-29T05:09:22Z</time>
      </trkpt>
      <trkpt lat="42.4125810" lon="-2.6472690">
        <ele>656.4</ele>
        <time>2022-08-29T05:09:23Z</time>
      </trkpt>
      <trkpt lat="42.4125860" lon="-2.6473630">
        <ele>655.0</ele>
        <time>2022-08-29T05:09:24Z</time>
      </trkpt>
      <trkpt lat="42.4125890" lon="-2.6474540">
        <ele>654.2</ele>
        <time>2022-08-29T05:09:25Z</time>
      </trkpt>
      <trkpt lat="42.4125880" lon="-2.6475370">
        <ele>653.0</ele>
        <time>2022-08-29T05:09:26Z</time>
      </trkpt>
      <trkpt lat="42.4125850" lon="-2.6476120">
        <ele>652.6</ele>
        <time>2022-08-29T05:09:27Z</time>
      </trkpt>
      <trkpt lat="42.4125790" lon="-2.6476830">
        <ele>652.0</ele>
        <time>2022-08-29T05:09:28Z</time>
      </trkpt>
      <trkpt lat="42.4125760" lon="-2.6477510">
        <ele>651.8</ele>
        <time>2022-08-29T05:09:29Z</time>
      </trkpt>
      <trkpt lat="42.4125770" lon="-2.6478210">
        <ele>651.8</ele>
        <time>2022-08-29T05:09:30Z</time>
      </trkpt>
      <trkpt lat="42.4125840" lon="-2.6478890">
        <ele>651.4</ele>
        <time>2022-08-29T05:09:31Z</time>
      </trkpt>
      <trkpt lat="42.4125900" lon="-2.6479590">
        <ele>651.4</ele>
        <time>2022-08-29T05:09:32Z</time>
      </trkpt>
      <trkpt lat="42.4125980" lon="-2.6480310">
        <ele>651.4</ele>
        <time>2022-08-29T05:09:33Z</time>
      </trkpt>
      <trkpt lat="42.4126090" lon="-2.6481050">
        <ele>651.2</ele>
        <time>2022-08-29T05:09:34Z</time>
      </trkpt>
      <trkpt lat="42.4126220" lon="-2.6481730">
        <ele>651.0</ele>
        <time>2022-08-29T05:09:35Z</time>
      </trkpt>
      <trkpt lat="42.4126350" lon="-2.6482370">
        <ele>651.0</ele>
        <time>2022-08-29T05:09:36Z</time>
      </trkpt>
      <trkpt lat="42.4126500" lon="-2.6482910">
        <ele>651.0</ele>
        <time>2022-08-29T05:09:37Z</time>
      </trkpt>
      <trkpt lat="42.4126710" lon="-2.6483330">
        <ele>650.8</ele>
        <time>2022-08-29T05:09:38Z</time>
      </trkpt>
      <trkpt lat="42.4126870" lon="-2.6483720">
        <ele>650.6</ele>
        <time>2022-08-29T05:09:39Z</time>
      </trkpt>
      <trkpt lat="42.4126970" lon="-2.6484140">
        <ele>650.6</ele>
        <time>2022-08-29T05:09:40Z</time>
      </trkpt>
      <trkpt lat="42.4126970" lon="-2.6484580">
        <ele>650.4</ele>
        <time>2022-08-29T05:09:41Z</time>
      </trkpt>
      <trkpt lat="42.4126900" lon="-2.6485030">
        <ele>650.2</ele>
        <time>2022-08-29T05:09:42Z</time>
      </trkpt>
      <trkpt lat="42.4126800" lon="-2.6485450">
        <ele>650.2</ele>
        <time>2022-08-29T05:09:43Z</time>
      </trkpt>
      <trkpt lat="42.4126640" lon="-2.6485810">
        <ele>650.0</ele>
        <time>2022-08-29T05:09:44Z</time>
      </trkpt>
      <trkpt lat="42.4126460" lon="-2.6486010">
        <ele>650.0</ele>
        <time>2022-08-29T05:09:45Z</time>
      </trkpt>
      <trkpt lat="42.4126240" lon="-2.6486140">
        <ele>650.0</ele>
        <time>2022-08-29T05:09:46Z</time>
      </trkpt>
      <trkpt lat="42.4125990" lon="-2.6486240">
        <ele>650.0</ele>
        <time>2022-08-29T05:09:47Z</time>
      </trkpt>
      <trkpt lat="42.4125700" lon="-2.6486360">
        <ele>649.8</ele>
        <time>2022-08-29T05:09:48Z</time>
      </trkpt>
      <trkpt lat="42.4125410" lon="-2.6486580">
        <ele>649.6</ele>
        <time>2022-08-29T05:09:49Z</time>
      </trkpt>
      <trkpt lat="42.4125110" lon="-2.6486900">
        <ele>649.6</ele>
        <time>2022-08-29T05:09:50Z</time>
      </trkpt>
      <trkpt lat="42.4124820" lon="-2.6487280">
        <ele>649.4</ele>
        <time>2022-08-29T05:09:51Z</time>
      </trkpt>
      <trkpt lat="42.4124540" lon="-2.6487700">
        <ele>649.4</ele>
        <time>2022-08-29T05:09:52Z</time>
      </trkpt>
      <trkpt lat="42.4124250" lon="-2.6488180">
        <ele>649.2</ele>
        <time>2022-08-29T05:09:53Z</time>
      </trkpt>
      <trkpt lat="42.4123880" lon="-2.6488720">
        <ele>648.8</ele>
        <time>2022-08-29T05:09:54Z</time>
      </trkpt>
      <trkpt lat="42.4123560" lon="-2.6489310">
        <ele>648.2</ele>
        <time>2022-08-29T05:09:55Z</time>
      </trkpt>
      <trkpt lat="42.4123270" lon="-2.6489940">
        <ele>647.8</ele>
        <time>2022-08-29T05:09:56Z</time>
      </trkpt>
      <trkpt lat="42.4122980" lon="-2.6490590">
        <ele>647.6</ele>
        <time>2022-08-29T05:09:57Z</time>
      </trkpt>
      <trkpt lat="42.4122670" lon="-2.6491260">
        <ele>647.0</ele>
        <time>2022-08-29T05:09:58Z</time>
      </trkpt>
      <trkpt lat="42.4122310" lon="-2.6491990">
        <ele>646.8</ele>
        <time>2022-08-29T05:09:59Z</time>
      </trkpt>
      <trkpt lat="42.4121890" lon="-2.6492700">
        <ele>646.6</ele>
        <time>2022-08-29T05:10:00Z</time>
      </trkpt>
      <trkpt lat="42.4121440" lon="-2.6493360">
        <ele>646.4</ele>
        <time>2022-08-29T05:10:01Z</time>
      </trkpt>
      <trkpt lat="42.4121000" lon="-2.6493950">
        <ele>646.0</ele>
        <time>2022-08-29T05:10:02Z</time>
      </trkpt>
      <trkpt lat="42.4120570" lon="-2.6494460">
        <ele>645.4</ele>
        <time>2022-08-29T05:10:03Z</time>
      </trkpt>
      <trkpt lat="42.4120110" lon="-2.6494880">
        <ele>644.4</ele>
        <time>2022-08-29T05:10:04Z</time>
      </trkpt>
      <trkpt lat="42.4119630" lon="-2.6495260">
        <ele>644.2</ele>
        <time>2022-08-29T05:10:05Z</time>
      </trkpt>
      <trkpt lat="42.4119150" lon="-2.6495590">
        <ele>643.2</ele>
        <time>2022-08-29T05:10:06Z</time>
      </trkpt>
      <trkpt lat="42.4118690" lon="-2.6495890">
        <ele>642.4</ele>
        <time>2022-08-29T05:10:07Z</time>
      </trkpt>
      <trkpt lat="42.4118240" lon="-2.6496160">
        <ele>641.4</ele>
        <time>2022-08-29T05:10:08Z</time>
      </trkpt>
      <trkpt lat="42.4117830" lon="-2.6496430">
        <ele>641.4</ele>
        <time>2022-08-29T05:10:09Z</time>
      </trkpt>
      <trkpt lat="42.4117460" lon="-2.6496770">
        <ele>640.4</ele>
        <time>2022-08-29T05:10:10Z</time>
      </trkpt>
      <trkpt lat="42.4117130" lon="-2.6497190">
        <ele>640.0</ele>
        <time>2022-08-29T05:10:11Z</time>
      </trkpt>
      <trkpt lat="42.4116820" lon="-2.6497610">
        <ele>638.2</ele>
        <time>2022-08-29T05:10:12Z</time>
      </trkpt>
      <trkpt lat="42.4116510" lon="-2.6498020">
        <ele>637.0</ele>
        <time>2022-08-29T05:10:13Z</time>
      </trkpt>
      <trkpt lat="42.4116180" lon="-2.6498360">
        <ele>636.4</ele>
        <time>2022-08-29T05:10:14Z</time>
      </trkpt>
      <trkpt lat="42.4115810" lon="-2.6498570">
        <ele>635.8</ele>
        <time>2022-08-29T05:10:15Z</time>
      </trkpt>
      <trkpt lat="42.4115450" lon="-2.6498730">
        <ele>635.2</ele>
        <time>2022-08-29T05:10:16Z</time>
      </trkpt>
      <trkpt lat="42.4115060" lon="-2.6498830">
        <ele>634.8</ele>
        <time>2022-08-29T05:10:17Z</time>
      </trkpt>
      <trkpt lat="42.4114670" lon="-2.6498900">
        <ele>634.2</ele>
        <time>2022-08-29T05:10:18Z</time>
      </trkpt>
      <trkpt lat="42.4114320" lon="-2.6498960">
        <ele>633.8</ele>
        <time>2022-08-29T05:10:19Z</time>
      </trkpt>
      <trkpt lat="42.4114040" lon="-2.6499040">
        <ele>633.6</ele>
        <time>2022-08-29T05:10:20Z</time>
      </trkpt>
      <trkpt lat="42.4113830" lon="-2.6499100">
        <ele>632.8</ele>
        <time>2022-08-29T05:10:21Z</time>
      </trkpt>
      <trkpt lat="42.4113680" lon="-2.6499150">
        <ele>632.6</ele>
        <time>2022-08-29T05:10:22Z</time>
      </trkpt>
      <trkpt lat="42.4113530" lon="-2.6499200">
        <ele>632.2</ele>
        <time>2022-08-29T05:10:23Z</time>
      </trkpt>
      <trkpt lat="42.4113380" lon="-2.6499260">
        <ele>632.2</ele>
        <time>2022-08-29T05:10:24Z</time>
      </trkpt>
      <trkpt lat="42.4113240" lon="-2.6499350">
        <ele>632.0</ele>
        <time>2022-08-29T05:10:25Z</time>
      </trkpt>
      <trkpt lat="42.4113110" lon="-2.6499360">
        <ele>631.8</ele>
        <time>2022-08-29T05:10:26Z</time>
      </trkpt>
      <trkpt lat="42.4113100" lon="-2.6499250">
        <ele>631.6</ele>
        <time>2022-08-29T05:10:27Z</time>
      </trkpt>
      <trkpt lat="42.4113170" lon="-2.6499150">
        <ele>631.6</ele>
        <time>2022-08-29T05:10:28Z</time>
      </trkpt>
      <trkpt lat="42.4113270" lon="-2.6499100">
        <ele>631.6</ele>
        <time>2022-08-29T05:10:29Z</time>
      </trkpt>
      <trkpt lat="42.4113430" lon="-2.6499070">
        <ele>631.6</ele>
        <time>2022-08-29T05:10:30Z</time>
      </trkpt>
      <trkpt lat="42.4113590" lon="-2.6499090">
        <ele>631.4</ele>
        <time>2022-08-29T05:10:31Z</time>
      </trkpt>
      <trkpt lat="42.4113750" lon="-2.6499190">
        <ele>631.4</ele>
        <time>2022-08-29T05:10:32Z</time>
      </trkpt>
      <trkpt lat="42.4113810" lon="-2.6499340">
        <ele>631.6</ele>
        <time>2022-08-29T05:10:33Z</time>
      </trkpt>
      <trkpt lat="42.4113820" lon="-2.6499510">
        <ele>631.4</ele>
        <time>2022-08-29T05:10:34Z</time>
      </trkpt>
      <trkpt lat="42.4113780" lon="-2.6499650">
        <ele>631.4</ele>
        <time>2022-08-29T05:10:35Z</time>
      </trkpt>
      <trkpt lat="42.4113720" lon="-2.6499800">
        <ele>631.4</ele>
        <time>2022-08-29T05:10:36Z</time>
      </trkpt>
      <trkpt lat="42.4113620" lon="-2.6499940">
        <ele>631.4</ele>
        <time>2022-08-29T05:10:37Z</time>
      </trkpt>
      <trkpt lat="42.4113460" lon="-2.6500100">
        <ele>631.4</ele>
        <time>2022-08-29T05:10:38Z</time>
      </trkpt>
      <trkpt lat="42.4113260" lon="-2.6500320">
        <ele>631.4</ele>
        <time>2022-08-29T05:10:39Z</time>
      </trkpt>
      <trkpt lat="42.4113020" lon="-2.6500610">
        <ele>631.4</ele>
        <time>2022-08-29T05:10:40Z</time>
      </trkpt>
      <trkpt lat="42.4112730" lon="-2.6500950">
        <ele>631.2</ele>
        <time>2022-08-29T05:10:41Z</time>
      </trkpt>
      <trkpt lat="42.4112410" lon="-2.6501320">
        <ele>631.2</ele>
        <time>2022-08-29T05:10:42Z</time>
      </trkpt>
      <trkpt lat="42.4112070" lon="-2.6501770">
        <ele>631.2</ele>
        <time>2022-08-29T05:10:43Z</time>
      </trkpt>
      <trkpt lat="42.4111740" lon="-2.6502270">
        <ele>631.0</ele>
        <time>2022-08-29T05:10:44Z</time>
      </trkpt>
      <trkpt lat="42.4111450" lon="-2.6502890">
        <ele>631.0</ele>
        <time>2022-08-29T05:10:45Z</time>
      </trkpt>
      <trkpt lat="42.4111210" lon="-2.6503560">
        <ele>630.8</ele>
        <time>2022-08-29T05:10:46Z</time>
      </trkpt>
      <trkpt lat="42.4111090" lon="-2.6504280">
        <ele>630.8</ele>
        <time>2022-08-29T05:10:47Z</time>
      </trkpt>
      <trkpt lat="42.4111090" lon="-2.6504970">
        <ele>630.8</ele>
        <time>2022-08-29T05:10:48Z</time>
      </trkpt>
      <trkpt lat="42.4111130" lon="-2.6505590">
        <ele>630.6</ele>
        <time>2022-08-29T05:10:49Z</time>
      </trkpt>
      <trkpt lat="42.4111260" lon="-2.6506120">
        <ele>630.4</ele>
        <time>2022-08-29T05:10:50Z</time>
      </trkpt>
      <trkpt lat="42.4111430" lon="-2.6506670">
        <ele>630.4</ele>
        <time>2022-08-29T05:10:51Z</time>
      </trkpt>
      <trkpt lat="42.4111640" lon="-2.6507090">
        <ele>630.0</ele>
        <time>2022-08-29T05:10:52Z</time>
      </trkpt>
      <trkpt lat="42.4111750" lon="-2.6507500">
        <ele>629.6</ele>
        <time>2022-08-29T05:10:53Z</time>
      </trkpt>
      <trkpt lat="42.4111800" lon="-2.6507900">
        <ele>629.0</ele>
        <time>2022-08-29T05:10:54Z</time>
      </trkpt>
      <trkpt lat="42.4111840" lon="-2.6508310">
        <ele>629.0</ele>
        <time>2022-08-29T05:10:55Z</time>
      </trkpt>
      <trkpt lat="42.4111760" lon="-2.6508780">
        <ele>628.4</ele>
        <time>2022-08-29T05:10:56Z</time>
      </trkpt>
      <trkpt lat="42.4111720" lon="-2.6509300">
        <ele>628.0</ele>
        <time>2022-08-29T05:10:57Z</time>
      </trkpt>
      <trkpt lat="42.4111560" lon="-2.6509860">
        <ele>627.8</ele>
        <time>2022-08-29T05:10:58Z</time>
      </trkpt>
      <trkpt lat="42.4111350" lon="-2.6510400">
        <ele>627.6</ele>
        <time>2022-08-29T05:10:59Z</time>
      </trkpt>
      <trkpt lat="42.4111100" lon="-2.6510980">
        <ele>627.4</ele>
        <time>2022-08-29T05:11:00Z</time>
      </trkpt>
      <trkpt lat="42.4110920" lon="-2.6511490">
        <ele>627.4</ele>
        <time>2022-08-29T05:11:01Z</time>
      </trkpt>
      <trkpt lat="42.4110710" lon="-2.6512100">
        <ele>627.0</ele>
        <time>2022-08-29T05:11:02Z</time>
      </trkpt>
      <trkpt lat="42.4110470" lon="-2.6512770">
        <ele>627.0</ele>
        <time>2022-08-29T05:11:03Z</time>
      </trkpt>
      <trkpt lat="42.4110280" lon="-2.6513410">
        <ele>626.6</ele>
        <time>2022-08-29T05:11:04Z</time>
      </trkpt>
      <trkpt lat="42.4110040" lon="-2.6514140">
        <ele>626.2</ele>
        <time>2022-08-29T05:11:05Z</time>
      </trkpt>
      <trkpt lat="42.4109850" lon="-2.6514910">
        <ele>626.2</ele>
        <time>2022-08-29T05:11:06Z</time>
      </trkpt>
      <trkpt lat="42.4109730" lon="-2.6515700">
        <ele>626.0</ele>
        <time>2022-08-29T05:11:07Z</time>
      </trkpt>
      <trkpt lat="42.4109610" lon="-2.6516520">
        <ele>625.8</ele>
        <time>2022-08-29T05:11:08Z</time>
      </trkpt>
      <trkpt lat="42.4109490" lon="-2.6517330">
        <ele>625.6</ele>
        <time>2022-08-29T05:11:09Z</time>
      </trkpt>
      <trkpt lat="42.4109350" lon="-2.6518130">
        <ele>625.4</ele>
        <time>2022-08-29T05:11:10Z</time>
      </trkpt>
      <trkpt lat="42.4109220" lon="-2.6518910">
        <ele>625.2</ele>
        <time>2022-08-29T05:11:11Z</time>
      </trkpt>
      <trkpt lat="42.4109100" lon="-2.6519700">
        <ele>625.2</ele>
        <time>2022-08-29T05:11:12Z</time>
      </trkpt>
      <trkpt lat="42.4109040" lon="-2.6520440">
        <ele>625.0</ele>
        <time>2022-08-29T05:11:13Z</time>
      </trkpt>
      <trkpt lat="42.4109100" lon="-2.6521130">
        <ele>624.8</ele>
        <time>2022-08-29T05:11:14Z</time>
      </trkpt>
      <trkpt lat="42.4109180" lon="-2.6521780">
        <ele>624.6</ele>
        <time>2022-08-29T05:11:15Z</time>
      </trkpt>
      <trkpt lat="42.4109240" lon="-2.6522380">
        <ele>624.6</ele>
        <time>2022-08-29T05:11:16Z</time>
      </trkpt>
      <trkpt lat="42.4109290" lon="-2.6522910">
        <ele>624.6</ele>
        <time>2022-08-29T05:11:17Z</time>
      </trkpt>
      <trkpt lat="42.4109360" lon="-2.6523440">
        <ele>624.6</ele>
        <time>2022-08-29T05:11:18Z</time>
      </trkpt>
      <trkpt lat="42.4109410" lon="-2.6523940">
        <ele>624.6</ele>
        <time>2022-08-29T05:11:19Z</time>
      </trkpt>
      <trkpt lat="42.4109430" lon="-2.6524440">
        <ele>624.4</ele>
        <time>2022-08-29T05:11:20Z</time>
      </trkpt>
      <trkpt lat="42.4109460" lon="-2.6524940">
        <ele>624.6</ele>
        <time>2022-08-29T05:11:21Z</time>
      </trkpt>
      <trkpt lat="42.4109490" lon="-2.6525440">
        <ele>624.6</ele>
        <time>2022-08-29T05:11:22Z</time>
      </trkpt>
      <trkpt lat="42.4109550" lon="-2.6525980">
        <ele>624.4</ele>
        <time>2022-08-29T05:11:23Z</time>
      </trkpt>
      <trkpt lat="42.4109570" lon="-2.6526560">
        <ele>624.8</ele>
        <time>2022-08-29T05:11:24Z</time>
      </trkpt>
      <trkpt lat="42.4109570" lon="-2.6527140">
        <ele>625.0</ele>
        <time>2022-08-29T05:11:25Z</time>
      </trkpt>
      <trkpt lat="42.4109580" lon="-2.6527720">
        <ele>625.2</ele>
        <time>2022-08-29T05:11:26Z</time>
      </trkpt>
      <trkpt lat="42.4109600" lon="-2.6528290">
        <ele>625.4</ele>
        <time>2022-08-29T05:11:27Z</time>
      </trkpt>
      <trkpt lat="42.4109600" lon="-2.6528870">
        <ele>625.8</ele>
        <time>2022-08-29T05:11:28Z</time>
      </trkpt>
      <trkpt lat="42.4109570" lon="-2.6529430">
        <ele>626.2</ele>
        <time>2022-08-29T05:11:29Z</time>
      </trkpt>
      <trkpt lat="42.4109520" lon="-2.6529990">
        <ele>626.4</ele>
        <time>2022-08-29T05:11:30Z</time>
      </trkpt>
      <trkpt lat="42.4109440" lon="-2.6530580">
        <ele>626.8</ele>
        <time>2022-08-29T05:11:31Z</time>
      </trkpt>
      <trkpt lat="42.4109280" lon="-2.6531210">
        <ele>626.8</ele>
        <time>2022-08-29T05:11:32Z</time>
      </trkpt>
      <trkpt lat="42.4109100" lon="-2.6531920">
        <ele>627.0</ele>
        <time>2022-08-29T05:11:33Z</time>
      </trkpt>
      <trkpt lat="42.4108900" lon="-2.6532730">
        <ele>627.0</ele>
        <time>2022-08-29T05:11:34Z</time>
      </trkpt>
      <trkpt lat="42.4108640" lon="-2.6533600">
        <ele>627.0</ele>
        <time>2022-08-29T05:11:35Z</time>
      </trkpt>
      <trkpt lat="42.4108330" lon="-2.6534500">
        <ele>627.0</ele>
        <time>2022-08-29T05:11:36Z</time>
      </trkpt>
      <trkpt lat="42.4108010" lon="-2.6535420">
        <ele>627.0</ele>
        <time>2022-08-29T05:11:37Z</time>
      </trkpt>
      <trkpt lat="42.4107670" lon="-2.6536350">
        <ele>627.0</ele>
        <time>2022-08-29T05:11:38Z</time>
      </trkpt>
      <trkpt lat="42.4107360" lon="-2.6537300">
        <ele>627.0</ele>
        <time>2022-08-29T05:11:39Z</time>
      </trkpt>
      <trkpt lat="42.4107110" lon="-2.6538270">
        <ele>627.0</ele>
        <time>2022-08-29T05:11:40Z</time>
      </trkpt>
      <trkpt lat="42.4106990" lon="-2.6539280">
        <ele>627.0</ele>
        <time>2022-08-29T05:11:41Z</time>
      </trkpt>
      <trkpt lat="42.4106940" lon="-2.6540320">
        <ele>627.0</ele>
        <time>2022-08-29T05:11:42Z</time>
      </trkpt>
      <trkpt lat="42.4106920" lon="-2.6541350">
        <ele>626.6</ele>
        <time>2022-08-29T05:11:43Z</time>
      </trkpt>
      <trkpt lat="42.4106920" lon="-2.6542380">
        <ele>626.2</ele>
        <time>2022-08-29T05:11:44Z</time>
      </trkpt>
      <trkpt lat="42.4106900" lon="-2.6543390">
        <ele>625.6</ele>
        <time>2022-08-29T05:11:45Z</time>
      </trkpt>
      <trkpt lat="42.4106900" lon="-2.6544340">
        <ele>624.4</ele>
        <time>2022-08-29T05:11:46Z</time>
      </trkpt>
      <trkpt lat="42.4106890" lon="-2.6545290">
        <ele>623.2</ele>
        <time>2022-08-29T05:11:47Z</time>
      </trkpt>
      <trkpt lat="42.4106900" lon="-2.6546200">
        <ele>622.8</ele>
        <time>2022-08-29T05:11:48Z</time>
      </trkpt>
      <trkpt lat="42.4106920" lon="-2.6547040">
        <ele>622.6</ele>
        <time>2022-08-29T05:11:49Z</time>
      </trkpt>
      <trkpt lat="42.4106960" lon="-2.6547900">
        <ele>622.6</ele>
        <time>2022-08-29T05:11:50Z</time>
      </trkpt>
      <trkpt lat="42.4107020" lon="-2.6548830">
        <ele>622.4</ele>
        <time>2022-08-29T05:11:51Z</time>
      </trkpt>
      <trkpt lat="42.4107120" lon="-2.6549810">
        <ele>622.2</ele>
        <time>2022-08-29T05:11:52Z</time>
      </trkpt>
      <trkpt lat="42.4107240" lon="-2.6550810">
        <ele>622.2</ele>
        <time>2022-08-29T05:11:53Z</time>
      </trkpt>
      <trkpt lat="42.4107360" lon="-2.6551880">
        <ele>622.0</ele>
        <time>2022-08-29T05:11:54Z</time>
      </trkpt>
      <trkpt lat="42.4107450" lon="-2.6552970">
        <ele>621.8</ele>
        <time>2022-08-29T05:11:55Z</time>
      </trkpt>
      <trkpt lat="42.4107520" lon="-2.6554050">
        <ele>621.8</ele>
        <time>2022-08-29T05:11:56Z</time>
      </trkpt>
      <trkpt lat="42.4107630" lon="-2.6555100">
        <ele>621.4</ele>
        <time>2022-08-29T05:11:57Z</time>
      </trkpt>
      <trkpt lat="42.4107760" lon="-2.6556100">
        <ele>621.4</ele>
        <time>2022-08-29T05:11:58Z</time>
      </trkpt>
      <trkpt lat="42.4107890" lon="-2.6557030">
        <ele>621.4</ele>
        <time>2022-08-29T05:11:59Z</time>
      </trkpt>
      <trkpt lat="42.4108020" lon="-2.6557970">
        <ele>621.2</ele>
        <time>2022-08-29T05:12:00Z</time>
      </trkpt>
      <trkpt lat="42.4108130" lon="-2.6558970">
        <ele>621.0</ele>
        <time>2022-08-29T05:12:01Z</time>
      </trkpt>
      <trkpt lat="42.4108250" lon="-2.6560010">
        <ele>620.6</ele>
        <time>2022-08-29T05:12:02Z</time>
      </trkpt>
      <trkpt lat="42.4108360" lon="-2.6561050">
        <ele>620.4</ele>
        <time>2022-08-29T05:12:03Z</time>
      </trkpt>
      <trkpt lat="42.4108480" lon="-2.6562020">
        <ele>620.0</ele>
        <time>2022-08-29T05:12:04Z</time>
      </trkpt>
      <trkpt lat="42.4108570" lon="-2.6562870">
        <ele>620.0</ele>
        <time>2022-08-29T05:12:05Z</time>
      </trkpt>
      <trkpt lat="42.4108680" lon="-2.6563610">
        <ele>620.0</ele>
        <time>2022-08-29T05:12:06Z</time>
      </trkpt>
      <trkpt lat="42.4108780" lon="-2.6564320">
        <ele>620.0</ele>
        <time>2022-08-29T05:12:07Z</time>
      </trkpt>
      <trkpt lat="42.4108890" lon="-2.6565030">
        <ele>620.0</ele>
        <time>2022-08-29T05:12:08Z</time>
      </trkpt>
      <trkpt lat="42.4108980" lon="-2.6565760">
        <ele>619.8</ele>
        <time>2022-08-29T05:12:09Z</time>
      </trkpt>
      <trkpt lat="42.4109050" lon="-2.6566550">
        <ele>619.8</ele>
        <time>2022-08-29T05:12:10Z</time>
      </trkpt>
      <trkpt lat="42.4109130" lon="-2.6567360">
        <ele>619.8</ele>
        <time>2022-08-29T05:12:11Z</time>
      </trkpt>
      <trkpt lat="42.4109220" lon="-2.6568200">
        <ele>620.0</ele>
        <time>2022-08-29T05:12:12Z</time>
      </trkpt>
      <trkpt lat="42.4109310" lon="-2.6569080">
        <ele>620.0</ele>
        <time>2022-08-29T05:12:13Z</time>
      </trkpt>
      <trkpt lat="42.4109390" lon="-2.6569980">
        <ele>620.0</ele>
        <time>2022-08-29T05:12:14Z</time>
      </trkpt>
      <trkpt lat="42.4109430" lon="-2.6570900">
        <ele>620.0</ele>
        <time>2022-08-29T05:12:15Z</time>
      </trkpt>
      <trkpt lat="42.4109480" lon="-2.6571830">
        <ele>620.2</ele>
        <time>2022-08-29T05:12:16Z</time>
      </trkpt>
      <trkpt lat="42.4109580" lon="-2.6572730">
        <ele>620.0</ele>
        <time>2022-08-29T05:12:17Z</time>
      </trkpt>
      <trkpt lat="42.4109700" lon="-2.6573610">
        <ele>620.0</ele>
        <time>2022-08-29T05:12:18Z</time>
      </trkpt>
      <trkpt lat="42.4109820" lon="-2.6574510">
        <ele>619.8</ele>
        <time>2022-08-29T05:12:19Z</time>
      </trkpt>
      <trkpt lat="42.4109950" lon="-2.6575400">
        <ele>620.0</ele>
        <time>2022-08-29T05:12:20Z</time>
      </trkpt>
      <trkpt lat="42.4110070" lon="-2.6576290">
        <ele>620.0</ele>
        <time>2022-08-29T05:12:21Z</time>
      </trkpt>
      <trkpt lat="42.4110190" lon="-2.6577190">
        <ele>620.0</ele>
        <time>2022-08-29T05:12:22Z</time>
      </trkpt>
      <trkpt lat="42.4110310" lon="-2.6578110">
        <ele>620.0</ele>
        <time>2022-08-29T05:12:23Z</time>
      </trkpt>
      <trkpt lat="42.4110420" lon="-2.6579030">
        <ele>620.0</ele>
        <time>2022-08-29T05:12:24Z</time>
      </trkpt>
      <trkpt lat="42.4110570" lon="-2.6579940">
        <ele>619.8</ele>
        <time>2022-08-29T05:12:25Z</time>
      </trkpt>
      <trkpt lat="42.4110730" lon="-2.6580850">
        <ele>619.8</ele>
        <time>2022-08-29T05:12:26Z</time>
      </trkpt>
      <trkpt lat="42.4110900" lon="-2.6581770">
        <ele>619.8</ele>
        <time>2022-08-29T05:12:27Z</time>
      </trkpt>
      <trkpt lat="42.4111050" lon="-2.6582690">
        <ele>619.6</ele>
        <time>2022-08-29T05:12:28Z</time>
      </trkpt>
      <trkpt lat="42.4111190" lon="-2.6583630">
        <ele>619.6</ele>
        <time>2022-08-29T05:12:29Z</time>
      </trkpt>
      <trkpt lat="42.4111340" lon="-2.6584560">
        <ele>619.4</ele>
        <time>2022-08-29T05:12:30Z</time>
      </trkpt>
      <trkpt lat="42.4111470" lon="-2.6585480">
        <ele>619.4</ele>
        <time>2022-08-29T05:12:31Z</time>
      </trkpt>
      <trkpt lat="42.4111600" lon="-2.6586400">
        <ele>619.2</ele>
        <time>2022-08-29T05:12:32Z</time>
      </trkpt>
      <trkpt lat="42.4111720" lon="-2.6587330">
        <ele>619.0</ele>
        <time>2022-08-29T05:12:33Z</time>
      </trkpt>
      <trkpt lat="42.4111850" lon="-2.6588310">
        <ele>619.0</ele>
        <time>2022-08-29T05:12:34Z</time>
      </trkpt>
      <trkpt lat="42.4111970" lon="-2.6589300">
        <ele>618.8</ele>
        <time>2022-08-29T05:12:35Z</time>
      </trkpt>
      <trkpt lat="42.4112070" lon="-2.6590310">
        <ele>618.8</ele>
        <time>2022-08-29T05:12:36Z</time>
      </trkpt>
      <trkpt lat="42.4112170" lon="-2.6591300">
        <ele>618.8</ele>
        <time>2022-08-29T05:12:37Z</time>
      </trkpt>
      <trkpt lat="42.4112310" lon="-2.6592270">
        <ele>618.8</ele>
        <time>2022-08-29T05:12:38Z</time>
      </trkpt>
      <trkpt lat="42.4112490" lon="-2.6593230">
        <ele>618.6</ele>
        <time>2022-08-29T05:12:39Z</time>
      </trkpt>
      <trkpt lat="42.4112680" lon="-2.6594200">
        <ele>618.6</ele>
        <time>2022-08-29T05:12:40Z</time>
      </trkpt>
      <trkpt lat="42.4112860" lon="-2.6595190">
        <ele>618.6</ele>
        <time>2022-08-29T05:12:41Z</time>
      </trkpt>
      <trkpt lat="42.4113030" lon="-2.6596180">
        <ele>618.6</ele>
        <time>2022-08-29T05:12:42Z</time>
      </trkpt>
      <trkpt lat="42.4113190" lon="-2.6597160">
        <ele>618.4</ele>
        <time>2022-08-29T05:12:43Z</time>
      </trkpt>
      <trkpt lat="42.4113330" lon="-2.6598130">
        <ele>618.4</ele>
        <time>2022-08-29T05:12:44Z</time>
      </trkpt>
      <trkpt lat="42.4113440" lon="-2.6599100">
        <ele>617.8</ele>
        <time>2022-08-29T05:12:45Z</time>
      </trkpt>
      <trkpt lat="42.4113520" lon="-2.6600080">
        <ele>617.4</ele>
        <time>2022-08-29T05:12:46Z</time>
      </trkpt>
      <trkpt lat="42.4113580" lon="-2.6601050">
        <ele>617.4</ele>
        <time>2022-08-29T05:12:47Z</time>
      </trkpt>
      <trkpt lat="42.4113600" lon="-2.6602040">
        <ele>617.2</ele>
        <time>2022-08-29T05:12:48Z</time>
      </trkpt>
      <trkpt lat="42.4113630" lon="-2.6603030">
        <ele>617.0</ele>
        <time>2022-08-29T05:12:49Z</time>
      </trkpt>
      <trkpt lat="42.4113660" lon="-2.6604020">
        <ele>617.0</ele>
        <time>2022-08-29T05:12:50Z</time>
      </trkpt>
      <trkpt lat="42.4113700" lon="-2.6605060">
        <ele>616.8</ele>
        <time>2022-08-29T05:12:51Z</time>
      </trkpt>
      <trkpt lat="42.4113770" lon="-2.6606080">
        <ele>616.6</ele>
        <time>2022-08-29T05:12:52Z</time>
      </trkpt>
      <trkpt lat="42.4113860" lon="-2.6607060">
        <ele>616.6</ele>
        <time>2022-08-29T05:12:53Z</time>
      </trkpt>
      <trkpt lat="42.4113940" lon="-2.6608010">
        <ele>616.4</ele>
        <time>2022-08-29T05:12:54Z</time>
      </trkpt>
      <trkpt lat="42.4114030" lon="-2.6608970">
        <ele>616.4</ele>
        <time>2022-08-29T05:12:55Z</time>
      </trkpt>
      <trkpt lat="42.4114140" lon="-2.6609910">
        <ele>616.6</ele>
        <time>2022-08-29T05:12:56Z</time>
      </trkpt>
      <trkpt lat="42.4114270" lon="-2.6610860">
        <ele>616.4</ele>
        <time>2022-08-29T05:12:57Z</time>
      </trkpt>
      <trkpt lat="42.4114380" lon="-2.6611820">
        <ele>616.2</ele>
        <time>2022-08-29T05:12:58Z</time>
      </trkpt>
      <trkpt lat="42.4114470" lon="-2.6612810">
        <ele>616.2</ele>
        <time>2022-08-29T05:12:59Z</time>
      </trkpt>
      <trkpt lat="42.4114520" lon="-2.6613790">
        <ele>616.2</ele>
        <time>2022-08-29T05:13:00Z</time>
      </trkpt>
      <trkpt lat="42.4114520" lon="-2.6614780">
        <ele>616.0</ele>
        <time>2022-08-29T05:13:01Z</time>
      </trkpt>
      <trkpt lat="42.4114500" lon="-2.6615750">
        <ele>616.2</ele>
        <time>2022-08-29T05:13:02Z</time>
      </trkpt>
      <trkpt lat="42.4114480" lon="-2.6616710">
        <ele>616.0</ele>
        <time>2022-08-29T05:13:03Z</time>
      </trkpt>
      <trkpt lat="42.4114440" lon="-2.6617660">
        <ele>615.8</ele>
        <time>2022-08-29T05:13:04Z</time>
      </trkpt>
      <trkpt lat="42.4114440" lon="-2.6618580">
        <ele>615.6</ele>
        <time>2022-08-29T05:13:05Z</time>
      </trkpt>
      <trkpt lat="42.4114470" lon="-2.6619500">
        <ele>615.6</ele>
        <time>2022-08-29T05:13:06Z</time>
      </trkpt>
      <trkpt lat="42.4114530" lon="-2.6620410">
        <ele>615.6</ele>
        <time>2022-08-29T05:13:07Z</time>
      </trkpt>
      <trkpt lat="42.4114520" lon="-2.6621300">
        <ele>615.6</ele>
        <time>2022-08-29T05:13:08Z</time>
      </trkpt>
      <trkpt lat="42.4114460" lon="-2.6622150">
        <ele>615.6</ele>
        <time>2022-08-29T05:13:09Z</time>
      </trkpt>
      <trkpt lat="42.4114390" lon="-2.6623030">
        <ele>615.6</ele>
        <time>2022-08-29T05:13:10Z</time>
      </trkpt>
      <trkpt lat="42.4114290" lon="-2.6623880">
        <ele>615.6</ele>
        <time>2022-08-29T05:13:11Z</time>
      </trkpt>
      <trkpt lat="42.4114190" lon="-2.6624690">
        <ele>615.4</ele>
        <time>2022-08-29T05:13:12Z</time>
      </trkpt>
      <trkpt lat="42.4114030" lon="-2.6625450">
        <ele>615.4</ele>
        <time>2022-08-29T05:13:13Z</time>
      </trkpt>
      <trkpt lat="42.4113880" lon="-2.6626150">
        <ele>615.6</ele>
        <time>2022-08-29T05:13:14Z</time>
      </trkpt>
      <trkpt lat="42.4113770" lon="-2.6626820">
        <ele>615.6</ele>
        <time>2022-08-29T05:13:15Z</time>
      </trkpt>
      <trkpt lat="42.4113700" lon="-2.6627460">
        <ele>615.6</ele>
        <time>2022-08-29T05:13:16Z</time>
      </trkpt>
      <trkpt lat="42.4113720" lon="-2.6628030">
        <ele>615.6</ele>
        <time>2022-08-29T05:13:17Z</time>
      </trkpt>
      <trkpt lat="42.4113820" lon="-2.6628540">
        <ele>615.8</ele>
        <time>2022-08-29T05:13:18Z</time>
      </trkpt>
      <trkpt lat="42.4113940" lon="-2.6629030">
        <ele>615.8</ele>
        <time>2022-08-29T05:13:19Z</time>
      </trkpt>
      <trkpt lat="42.4114040" lon="-2.6629500">
        <ele>615.8</ele>
        <time>2022-08-29T05:13:20Z</time>
      </trkpt>
      <trkpt lat="42.4114090" lon="-2.6629950">
        <ele>616.2</ele>
        <time>2022-08-29T05:13:21Z</time>
      </trkpt>
      <trkpt lat="42.4114130" lon="-2.6630430">
        <ele>616.0</ele>
        <time>2022-08-29T05:13:22Z</time>
      </trkpt>
      <trkpt lat="42.4114150" lon="-2.6630920">
        <ele>616.4</ele>
        <time>2022-08-29T05:13:23Z</time>
      </trkpt>
      <trkpt lat="42.4114160" lon="-2.6631430">
        <ele>616.6</ele>
        <time>2022-08-29T05:13:24Z</time>
      </trkpt>
      <trkpt lat="42.4114190" lon="-2.6631960">
        <ele>616.8</ele>
        <time>2022-08-29T05:13:25Z</time>
      </trkpt>
      <trkpt lat="42.4114230" lon="-2.6632500">
        <ele>617.0</ele>
        <time>2022-08-29T05:13:26Z</time>
      </trkpt>
      <trkpt lat="42.4114300" lon="-2.6633080">
        <ele>617.4</ele>
        <time>2022-08-29T05:13:27Z</time>
      </trkpt>
      <trkpt lat="42.4114410" lon="-2.6633640">
        <ele>617.6</ele>
        <time>2022-08-29T05:13:28Z</time>
      </trkpt>
      <trkpt lat="42.4114550" lon="-2.6634220">
        <ele>618.0</ele>
        <time>2022-08-29T05:13:29Z</time>
      </trkpt>
      <trkpt lat="42.4114690" lon="-2.6634850">
        <ele>618.0</ele>
        <time>2022-08-29T05:13:30Z</time>
      </trkpt>
      <trkpt lat="42.4114850" lon="-2.6635540">
        <ele>618.2</ele>
        <time>2022-08-29T05:13:31Z</time>
      </trkpt>
      <trkpt lat="42.4115080" lon="-2.6636300">
        <ele>618.0</ele>
        <time>2022-08-29T05:13:32Z</time>
      </trkpt>
      <trkpt lat="42.4115390" lon="-2.6637100">
        <ele>618.0</ele>
        <time>2022-08-29T05:13:33Z</time>
      </trkpt>
      <trkpt lat="42.4115780" lon="-2.6637910">
        <ele>618.0</ele>
        <time>2022-08-29T05:13:34Z</time>
      </trkpt>
      <trkpt lat="42.4116190" lon="-2.6638730">
        <ele>618.2</ele>
        <time>2022-08-29T05:13:35Z</time>
      </trkpt>
      <trkpt lat="42.4116620" lon="-2.6639530">
        <ele>618.0</ele>
        <time>2022-08-29T05:13:36Z</time>
      </trkpt>
      <trkpt lat="42.4116990" lon="-2.6640360">
        <ele>618.2</ele>
        <time>2022-08-29T05:13:37Z</time>
      </trkpt>
      <trkpt lat="42.4117100" lon="-2.6641300">
        <ele>618.0</ele>
        <time>2022-08-29T05:13:38Z</time>
      </trkpt>
      <trkpt lat="42.4117140" lon="-2.6642270">
        <ele>618.2</ele>
        <time>2022-08-29T05:13:39Z</time>
      </trkpt>
      <trkpt lat="42.4117140" lon="-2.6643290">
        <ele>618.2</ele>
        <time>2022-08-29T05:13:40Z</time>
      </trkpt>
      <trkpt lat="42.4117200" lon="-2.6644330">
        <ele>617.6</ele>
        <time>2022-08-29T05:13:41Z</time>
      </trkpt>
      <trkpt lat="42.4117270" lon="-2.6645400">
        <ele>617.0</ele>
        <time>2022-08-29T05:13:42Z</time>
      </trkpt>
      <trkpt lat="42.4117360" lon="-2.6646480">
        <ele>617.0</ele>
        <time>2022-08-29T05:13:43Z</time>
      </trkpt>
      <trkpt lat="42.4117480" lon="-2.6647580">
        <ele>616.0</ele>
        <time>2022-08-29T05:13:44Z</time>
      </trkpt>
      <trkpt lat="42.4117590" lon="-2.6648690">
        <ele>615.0</ele>
        <time>2022-08-29T05:13:45Z</time>
      </trkpt>
      <trkpt lat="42.4117710" lon="-2.6649850">
        <ele>614.4</ele>
        <time>2022-08-29T05:13:46Z</time>
      </trkpt>
      <trkpt lat="42.4117850" lon="-2.6651040">
        <ele>614.0</ele>
        <time>2022-08-29T05:13:47Z</time>
      </trkpt>
      <trkpt lat="42.4117990" lon="-2.6652290">
        <ele>613.6</ele>
        <time>2022-08-29T05:13:48Z</time>
      </trkpt>
      <trkpt lat="42.4118130" lon="-2.6653570">
        <ele>613.0</ele>
        <time>2022-08-29T05:13:49Z</time>
      </trkpt>
      <trkpt lat="42.4118290" lon="-2.6654880">
        <ele>612.8</ele>
        <time>2022-08-29T05:13:50Z</time>
      </trkpt>
      <trkpt lat="42.4118470" lon="-2.6656200">
        <ele>612.6</ele>
        <time>2022-08-29T05:13:51Z</time>
      </trkpt>
      <trkpt lat="42.4118690" lon="-2.6657520">
        <ele>611.8</ele>
        <time>2022-08-29T05:13:52Z</time>
      </trkpt>
      <trkpt lat="42.4118930" lon="-2.6658850">
        <ele>611.4</ele>
        <time>2022-08-29T05:13:53Z</time>
      </trkpt>
      <trkpt lat="42.4119200" lon="-2.6660170">
        <ele>611.2</ele>
        <time>2022-08-29T05:13:54Z</time>
      </trkpt>
      <trkpt lat="42.4119480" lon="-2.6661530">
        <ele>610.8</ele>
        <time>2022-08-29T05:13:55Z</time>
      </trkpt>
      <trkpt lat="42.4119740" lon="-2.6662890">
        <ele>610.4</ele>
        <time>2022-08-29T05:13:56Z</time>
      </trkpt>
      <trkpt lat="42.4120000" lon="-2.6664270">
        <ele>609.8</ele>
        <time>2022-08-29T05:13:57Z</time>
      </trkpt>
      <trkpt lat="42.4120290" lon="-2.6665660">
        <ele>609.4</ele>
        <time>2022-08-29T05:13:58Z</time>
      </trkpt>
      <trkpt lat="42.4120580" lon="-2.6667050">
        <ele>609.0</ele>
        <time>2022-08-29T05:13:59Z</time>
      </trkpt>
      <trkpt lat="42.4120870" lon="-2.6668430">
        <ele>608.4</ele>
        <time>2022-08-29T05:14:00Z</time>
      </trkpt>
      <trkpt lat="42.4121140" lon="-2.6669790">
        <ele>608.2</ele>
        <time>2022-08-29T05:14:01Z</time>
      </trkpt>
      <trkpt lat="42.4121380" lon="-2.6671150">
        <ele>607.4</ele>
        <time>2022-08-29T05:14:02Z</time>
      </trkpt>
      <trkpt lat="42.4121600" lon="-2.6672510">
        <ele>606.8</ele>
        <time>2022-08-29T05:14:03Z</time>
      </trkpt>
      <trkpt lat="42.4121790" lon="-2.6673870">
        <ele>606.2</ele>
        <time>2022-08-29T05:14:04Z</time>
      </trkpt>
      <trkpt lat="42.4121990" lon="-2.6675200">
        <ele>605.4</ele>
        <time>2022-08-29T05:14:05Z</time>
      </trkpt>
      <trkpt lat="42.4122250" lon="-2.6676520">
        <ele>604.8</ele>
        <time>2022-08-29T05:14:06Z</time>
      </trkpt>
      <trkpt lat="42.4122520" lon="-2.6677840">
        <ele>604.8</ele>
        <time>2022-08-29T05:14:07Z</time>
      </trkpt>
      <trkpt lat="42.4122800" lon="-2.6679150">
        <ele>604.4</ele>
        <time>2022-08-29T05:14:08Z</time>
      </trkpt>
      <trkpt lat="42.4123100" lon="-2.6680440">
        <ele>603.8</ele>
        <time>2022-08-29T05:14:09Z</time>
      </trkpt>
      <trkpt lat="42.4123400" lon="-2.6681700">
        <ele>603.6</ele>
        <time>2022-08-29T05:14:10Z</time>
      </trkpt>
      <trkpt lat="42.4123700" lon="-2.6682940">
        <ele>603.2</ele>
        <time>2022-08-29T05:14:11Z</time>
      </trkpt>
      <trkpt lat="42.4124020" lon="-2.6684130">
        <ele>603.2</ele>
        <time>2022-08-29T05:14:12Z</time>
      </trkpt>
      <trkpt lat="42.4124340" lon="-2.6685320">
        <ele>602.8</ele>
        <time>2022-08-29T05:14:13Z</time>
      </trkpt>
      <trkpt lat="42.4124640" lon="-2.6686490">
        <ele>602.8</ele>
        <time>2022-08-29T05:14:14Z</time>
      </trkpt>
      <trkpt lat="42.4124930" lon="-2.6687650">
        <ele>602.8</ele>
        <time>2022-08-29T05:14:15Z</time>
      </trkpt>
      <trkpt lat="42.4125200" lon="-2.6688810">
        <ele>602.4</ele>
        <time>2022-08-29T05:14:16Z</time>
      </trkpt>
      <trkpt lat="42.4125480" lon="-2.6689940">
        <ele>602.0</ele>
        <time>2022-08-29T05:14:17Z</time>
      </trkpt>
      <trkpt lat="42.4125780" lon="-2.6691050">
        <ele>601.8</ele>
        <time>2022-08-29T05:14:18Z</time>
      </trkpt>
      <trkpt lat="42.4126080" lon="-2.6692130">
        <ele>601.8</ele>
        <time>2022-08-29T05:14:19Z</time>
      </trkpt>
      <trkpt lat="42.4126380" lon="-2.6693190">
        <ele>601.6</ele>
        <time>2022-08-29T05:14:20Z</time>
      </trkpt>
      <trkpt lat="42.4126680" lon="-2.6694240">
        <ele>601.4</ele>
        <time>2022-08-29T05:14:21Z</time>
      </trkpt>
      <trkpt lat="42.4126980" lon="-2.6695270">
        <ele>601.2</ele>
        <time>2022-08-29T05:14:22Z</time>
      </trkpt>
      <trkpt lat="42.4127300" lon="-2.6696250">
        <ele>601.2</ele>
        <time>2022-08-29T05:14:23Z</time>
      </trkpt>
      <trkpt lat="42.4127610" lon="-2.6697230">
        <ele>601.0</ele>
        <time>2022-08-29T05:14:24Z</time>
      </trkpt>
      <trkpt lat="42.4127890" lon="-2.6698220">
        <ele>601.2</ele>
        <time>2022-08-29T05:14:25Z</time>
      </trkpt>
      <trkpt lat="42.4128180" lon="-2.6699230">
        <ele>601.0</ele>
        <time>2022-08-29T05:14:26Z</time>
      </trkpt>
      <trkpt lat="42.4128470" lon="-2.6700240">
        <ele>600.8</ele>
        <time>2022-08-29T05:14:27Z</time>
      </trkpt>
      <trkpt lat="42.4128770" lon="-2.6701240">
        <ele>600.8</ele>
        <time>2022-08-29T05:14:28Z</time>
      </trkpt>
      <trkpt lat="42.4129090" lon="-2.6702230">
        <ele>600.8</ele>
        <time>2022-08-29T05:14:29Z</time>
      </trkpt>
      <trkpt lat="42.4129420" lon="-2.6703220">
        <ele>600.8</ele>
        <time>2022-08-29T05:14:30Z</time>
      </trkpt>
      <trkpt lat="42.4129750" lon="-2.6704200">
        <ele>600.8</ele>
        <time>2022-08-29T05:14:31Z</time>
      </trkpt>
      <trkpt lat="42.4130090" lon="-2.6705180">
        <ele>600.8</ele>
        <time>2022-08-29T05:14:32Z</time>
      </trkpt>
      <trkpt lat="42.4130440" lon="-2.6706180">
        <ele>601.0</ele>
        <time>2022-08-29T05:14:33Z</time>
      </trkpt>
      <trkpt lat="42.4130800" lon="-2.6707170">
        <ele>601.0</ele>
        <time>2022-08-29T05:14:34Z</time>
      </trkpt>
      <trkpt lat="42.4131160" lon="-2.6708190">
        <ele>600.6</ele>
        <time>2022-08-29T05:14:35Z</time>
      </trkpt>
      <trkpt lat="42.4131500" lon="-2.6709210">
        <ele>600.6</ele>
        <time>2022-08-29T05:14:36Z</time>
      </trkpt>
      <trkpt lat="42.4131840" lon="-2.6710260">
        <ele>600.8</ele>
        <time>2022-08-29T05:14:37Z</time>
      </trkpt>
      <trkpt lat="42.4132200" lon="-2.6711320">
        <ele>600.6</ele>
        <time>2022-08-29T05:14:38Z</time>
      </trkpt>
      <trkpt lat="42.4132540" lon="-2.6712410">
        <ele>600.6</ele>
        <time>2022-08-29T05:14:39Z</time>
      </trkpt>
      <trkpt lat="42.4132850" lon="-2.6713510">
        <ele>600.4</ele>
        <time>2022-08-29T05:14:40Z</time>
      </trkpt>
      <trkpt lat="42.4133110" lon="-2.6714640">
        <ele>600.2</ele>
        <time>2022-08-29T05:14:41Z</time>
      </trkpt>
      <trkpt lat="42.4133310" lon="-2.6715830">
        <ele>600.0</ele>
        <time>2022-08-29T05:14:42Z</time>
      </trkpt>
      <trkpt lat="42.4133460" lon="-2.6717090">
        <ele>599.8</ele>
        <time>2022-08-29T05:14:43Z</time>
      </trkpt>
      <trkpt lat="42.4133610" lon="-2.6718380">
        <ele>599.6</ele>
        <time>2022-08-29T05:14:44Z</time>
      </trkpt>
      <trkpt lat="42.4133810" lon="-2.6719740">
        <ele>599.2</ele>
        <time>2022-08-29T05:14:45Z</time>
      </trkpt>
      <trkpt lat="42.4134010" lon="-2.6721110">
        <ele>598.4</ele>
        <time>2022-08-29T05:14:46Z</time>
      </trkpt>
      <trkpt lat="42.4134210" lon="-2.6722460">
        <ele>597.6</ele>
        <time>2022-08-29T05:14:47Z</time>
      </trkpt>
      <trkpt lat="42.4134350" lon="-2.6723730">
        <ele>597.2</ele>
        <time>2022-08-29T05:14:48Z</time>
      </trkpt>
      <trkpt lat="42.4134320" lon="-2.6724880">
        <ele>596.8</ele>
        <time>2022-08-29T05:14:49Z</time>
      </trkpt>
      <trkpt lat="42.4134270" lon="-2.6725960">
        <ele>596.6</ele>
        <time>2022-08-29T05:14:50Z</time>
      </trkpt>
      <trkpt lat="42.4134260" lon="-2.6727070">
        <ele>596.6</ele>
        <time>2022-08-29T05:14:51Z</time>
      </trkpt>
      <trkpt lat="42.4134370" lon="-2.6728250">
        <ele>595.2</ele>
        <time>2022-08-29T05:14:52Z</time>
      </trkpt>
      <trkpt lat="42.4134640" lon="-2.6729510">
        <ele>594.6</ele>
        <time>2022-08-29T05:14:53Z</time>
      </trkpt>
      <trkpt lat="42.4135010" lon="-2.6730870">
        <ele>593.6</ele>
        <time>2022-08-29T05:14:54Z</time>
      </trkpt>
      <trkpt lat="42.4135440" lon="-2.6732260">
        <ele>593.2</ele>
        <time>2022-08-29T05:14:55Z</time>
      </trkpt>
      <trkpt lat="42.4135870" lon="-2.6733640">
        <ele>593.2</ele>
        <time>2022-08-29T05:14:56Z</time>
      </trkpt>
      <trkpt lat="42.4136210" lon="-2.6735050">
        <ele>592.8</ele>
        <time>2022-08-29T05:14:57Z</time>
      </trkpt>
      <trkpt lat="42.4136530" lon="-2.6736480">
        <ele>592.0</ele>
        <time>2022-08-29T05:14:58Z</time>
      </trkpt>
      <trkpt lat="42.4136730" lon="-2.6737940">
        <ele>591.6</ele>
        <time>2022-08-29T05:14:59Z</time>
      </trkpt>
      <trkpt lat="42.4136830" lon="-2.6739400">
        <ele>591.4</ele>
        <time>2022-08-29T05:15:00Z</time>
      </trkpt>
      <trkpt lat="42.4136800" lon="-2.6740840">
        <ele>591.0</ele>
        <time>2022-08-29T05:15:01Z</time>
      </trkpt>
      <trkpt lat="42.4136730" lon="-2.6742210">
        <ele>589.6</ele>
        <time>2022-08-29T05:15:02Z</time>
      </trkpt>
      <trkpt lat="42.4136690" lon="-2.6743510">
        <ele>587.6</ele>
        <time>2022-08-29T05:15:03Z</time>
      </trkpt>
      <trkpt lat="42.4136740" lon="-2.6744780">
        <ele>586.4</ele>
        <time>2022-08-29T05:15:04Z</time>
      </trkpt>
      <trkpt lat="42.4136880" lon="-2.6745990">
        <ele>585.2</ele>
        <time>2022-08-29T05:15:05Z</time>
      </trkpt>
      <trkpt lat="42.4137120" lon="-2.6747130">
        <ele>584.4</ele>
        <time>2022-08-29T05:15:06Z</time>
      </trkpt>
      <trkpt lat="42.4137430" lon="-2.6748180">
        <ele>584.2</ele>
        <time>2022-08-29T05:15:07Z</time>
      </trkpt>
      <trkpt lat="42.4137730" lon="-2.6749190">
        <ele>584.0</ele>
        <time>2022-08-29T05:15:08Z</time>
      </trkpt>
      <trkpt lat="42.4138030" lon="-2.6750160">
        <ele>584.0</ele>
        <time>2022-08-29T05:15:09Z</time>
      </trkpt>
      <trkpt lat="42.4138320" lon="-2.6751060">
        <ele>584.0</ele>
        <time>2022-08-29T05:15:10Z</time>
      </trkpt>
      <trkpt lat="42.4138590" lon="-2.6751930">
        <ele>583.8</ele>
        <time>2022-08-29T05:15:11Z</time>
      </trkpt>
      <trkpt lat="42.4138870" lon="-2.6752750">
        <ele>583.8</ele>
        <time>2022-08-29T05:15:12Z</time>
      </trkpt>
      <trkpt lat="42.4139130" lon="-2.6753560">
        <ele>583.8</ele>
        <time>2022-08-29T05:15:13Z</time>
      </trkpt>
      <trkpt lat="42.4139390" lon="-2.6754330">
        <ele>584.0</ele>
        <time>2022-08-29T05:15:14Z</time>
      </trkpt>
      <trkpt lat="42.4139650" lon="-2.6755070">
        <ele>584.0</ele>
        <time>2022-08-29T05:15:15Z</time>
      </trkpt>
      <trkpt lat="42.4139920" lon="-2.6755760">
        <ele>584.2</ele>
        <time>2022-08-29T05:15:16Z</time>
      </trkpt>
      <trkpt lat="42.4140200" lon="-2.6756400">
        <ele>584.6</ele>
        <time>2022-08-29T05:15:17Z</time>
      </trkpt>
      <trkpt lat="42.4140480" lon="-2.6757020">
        <ele>584.8</ele>
        <time>2022-08-29T05:15:18Z</time>
      </trkpt>
      <trkpt lat="42.4140780" lon="-2.6757580">
        <ele>585.2</ele>
        <time>2022-08-29T05:15:19Z</time>
      </trkpt>
      <trkpt lat="42.4141080" lon="-2.6758140">
        <ele>585.2</ele>
        <time>2022-08-29T05:15:20Z</time>
      </trkpt>
      <trkpt lat="42.4141390" lon="-2.6758690">
        <ele>585.8</ele>
        <time>2022-08-29T05:15:21Z</time>
      </trkpt>
      <trkpt lat="42.4141700" lon="-2.6759230">
        <ele>586.0</ele>
        <time>2022-08-29T05:15:22Z</time>
      </trkpt>
      <trkpt lat="42.4142010" lon="-2.6759790">
        <ele>586.2</ele>
        <time>2022-08-29T05:15:23Z</time>
      </trkpt>
      <trkpt lat="42.4142330" lon="-2.6760360">
        <ele>586.6</ele>
        <time>2022-08-29T05:15:24Z</time>
      </trkpt>
      <trkpt lat="42.4142650" lon="-2.6760930">
        <ele>587.0</ele>
        <time>2022-08-29T05:15:25Z</time>
      </trkpt>
      <trkpt lat="42.4142980" lon="-2.6761490">
        <ele>587.2</ele>
        <time>2022-08-29T05:15:26Z</time>
      </trkpt>
      <trkpt lat="42.4143310" lon="-2.6762040">
        <ele>587.4</ele>
        <time>2022-08-29T05:15:27Z</time>
      </trkpt>
      <trkpt lat="42.4143640" lon="-2.6762590">
        <ele>587.8</ele>
        <time>2022-08-29T05:15:28Z</time>
      </trkpt>
      <trkpt lat="42.4143970" lon="-2.6763140">
        <ele>587.8</ele>
        <time>2022-08-29T05:15:29Z</time>
      </trkpt>
      <trkpt lat="42.4144320" lon="-2.6763680">
        <ele>588.0</ele>
        <time>2022-08-29T05:15:30Z</time>
      </trkpt>
      <trkpt lat="42.4144650" lon="-2.6764220">
        <ele>588.0</ele>
        <time>2022-08-29T05:15:31Z</time>
      </trkpt>
      <trkpt lat="42.4144970" lon="-2.6764790">
        <ele>588.0</ele>
        <time>2022-08-29T05:15:32Z</time>
      </trkpt>
      <trkpt lat="42.4145280" lon="-2.6765360">
        <ele>588.0</ele>
        <time>2022-08-29T05:15:33Z</time>
      </trkpt>
      <trkpt lat="42.4145610" lon="-2.6765920">
        <ele>588.2</ele>
        <time>2022-08-29T05:15:34Z</time>
      </trkpt>
      <trkpt lat="42.4145930" lon="-2.6766460">
        <ele>588.4</ele>
        <time>2022-08-29T05:15:35Z</time>
      </trkpt>
      <trkpt lat="42.4146240" lon="-2.6766970">
        <ele>588.2</ele>
        <time>2022-08-29T05:15:36Z</time>
      </trkpt>
      <trkpt lat="42.4146530" lon="-2.6767500">
        <ele>588.6</ele>
        <time>2022-08-29T05:15:37Z</time>
      </trkpt>
      <trkpt lat="42.4146810" lon="-2.6768040">
        <ele>588.6</ele>
        <time>2022-08-29T05:15:38Z</time>
      </trkpt>
      <trkpt lat="42.4147050" lon="-2.6768580">
        <ele>588.6</ele>
        <time>2022-08-29T05:15:39Z</time>
      </trkpt>
      <trkpt lat="42.4147280" lon="-2.6769110">
        <ele>588.6</ele>
        <time>2022-08-29T05:15:40Z</time>
      </trkpt>
      <trkpt lat="42.4147500" lon="-2.6769640">
        <ele>588.8</ele>
        <time>2022-08-29T05:15:41Z</time>
      </trkpt>
      <trkpt lat="42.4147720" lon="-2.6770160">
        <ele>589.0</ele>
        <time>2022-08-29T05:15:42Z</time>
      </trkpt>
      <trkpt lat="42.4147930" lon="-2.6770670">
        <ele>589.2</ele>
        <time>2022-08-29T05:15:43Z</time>
      </trkpt>
      <trkpt lat="42.4148120" lon="-2.6771180">
        <ele>589.2</ele>
        <time>2022-08-29T05:15:44Z</time>
      </trkpt>
      <trkpt lat="42.4148300" lon="-2.6771700">
        <ele>589.2</ele>
        <time>2022-08-29T05:15:45Z</time>
      </trkpt>
      <trkpt lat="42.4148480" lon="-2.6772230">
        <ele>589.2</ele>
        <time>2022-08-29T05:15:46Z</time>
      </trkpt>
      <trkpt lat="42.4148680" lon="-2.6772770">
        <ele>589.4</ele>
        <time>2022-08-29T05:15:47Z</time>
      </trkpt>
      <trkpt lat="42.4148910" lon="-2.6773280">
        <ele>589.4</ele>
        <time>2022-08-29T05:15:48Z</time>
      </trkpt>
      <trkpt lat="42.4149150" lon="-2.6773780">
        <ele>589.8</ele>
        <time>2022-08-29T05:15:49Z</time>
      </trkpt>
      <trkpt lat="42.4149390" lon="-2.6774260">
        <ele>590.0</ele>
        <time>2022-08-29T05:15:50Z</time>
      </trkpt>
      <trkpt lat="42.4149580" lon="-2.6774760">
        <ele>590.2</ele>
        <time>2022-08-29T05:15:51Z</time>
      </trkpt>
      <trkpt lat="42.4149700" lon="-2.6775280">
        <ele>590.2</ele>
        <time>2022-08-29T05:15:52Z</time>
      </trkpt>
      <trkpt lat="42.4149790" lon="-2.6775820">
        <ele>590.6</ele>
        <time>2022-08-29T05:15:53Z</time>
      </trkpt>
      <trkpt lat="42.4149860" lon="-2.6776350">
        <ele>590.6</ele>
        <time>2022-08-29T05:15:54Z</time>
      </trkpt>
      <trkpt lat="42.4149920" lon="-2.6776850">
        <ele>590.8</ele>
        <time>2022-08-29T05:15:55Z</time>
      </trkpt>
      <trkpt lat="42.4149970" lon="-2.6777330">
        <ele>590.6</ele>
        <time>2022-08-29T05:15:56Z</time>
      </trkpt>
      <trkpt lat="42.4150030" lon="-2.6777810">
        <ele>590.8</ele>
        <time>2022-08-29T05:15:57Z</time>
      </trkpt>
      <trkpt lat="42.4150100" lon="-2.6778280">
        <ele>591.0</ele>
        <time>2022-08-29T05:15:58Z</time>
      </trkpt>
      <trkpt lat="42.4150160" lon="-2.6778740">
        <ele>590.8</ele>
        <time>2022-08-29T05:15:59Z</time>
      </trkpt>
      <trkpt lat="42.4150190" lon="-2.6779220">
        <ele>591.0</ele>
        <time>2022-08-29T05:16:00Z</time>
      </trkpt>
      <trkpt lat="42.4150210" lon="-2.6779710">
        <ele>591.2</ele>
        <time>2022-08-29T05:16:01Z</time>
      </trkpt>
      <trkpt lat="42.4150220" lon="-2.6780220">
        <ele>591.4</ele>
        <time>2022-08-29T05:16:02Z</time>
      </trkpt>
      <trkpt lat="42.4150220" lon="-2.6780750">
        <ele>591.6</ele>
        <time>2022-08-29T05:16:03Z</time>
      </trkpt>
      <trkpt lat="42.4150230" lon="-2.6781270">
        <ele>592.0</ele>
        <time>2022-08-29T05:16:04Z</time>
      </trkpt>
      <trkpt lat="42.4150250" lon="-2.6781800">
        <ele>592.2</ele>
        <time>2022-08-29T05:16:05Z</time>
      </trkpt>
      <trkpt lat="42.4150240" lon="-2.6782320">
        <ele>592.4</ele>
        <time>2022-08-29T05:16:06Z</time>
      </trkpt>
      <trkpt lat="42.4150210" lon="-2.6782840">
        <ele>592.4</ele>
        <time>2022-08-29T05:16:07Z</time>
      </trkpt>
      <trkpt lat="42.4150140" lon="-2.6783350">
        <ele>592.6</ele>
        <time>2022-08-29T05:16:08Z</time>
      </trkpt>
      <trkpt lat="42.4150050" lon="-2.6783850">
        <ele>592.6</ele>
        <time>2022-08-29T05:16:09Z</time>
      </trkpt>
      <trkpt lat="42.4149940" lon="-2.6784370">
        <ele>592.8</ele>
        <time>2022-08-29T05:16:10Z</time>
      </trkpt>
      <trkpt lat="42.4149800" lon="-2.6784910">
        <ele>593.2</ele>
        <time>2022-08-29T05:16:11Z</time>
      </trkpt>
      <trkpt lat="42.4149690" lon="-2.6785480">
        <ele>593.2</ele>
        <time>2022-08-29T05:16:12Z</time>
      </trkpt>
      <trkpt lat="42.4149580" lon="-2.6786070">
        <ele>593.2</ele>
        <time>2022-08-29T05:16:13Z</time>
      </trkpt>
      <trkpt lat="42.4149490" lon="-2.6786690">
        <ele>593.2</ele>
        <time>2022-08-29T05:16:14Z</time>
      </trkpt>
      <trkpt lat="42.4149360" lon="-2.6787360">
        <ele>593.2</ele>
        <time>2022-08-29T05:16:15Z</time>
      </trkpt>
      <trkpt lat="42.4149230" lon="-2.6788050">
        <ele>593.2</ele>
        <time>2022-08-29T05:16:16Z</time>
      </trkpt>
      <trkpt lat="42.4149090" lon="-2.6788780">
        <ele>593.2</ele>
        <time>2022-08-29T05:16:17Z</time>
      </trkpt>
      <trkpt lat="42.4148970" lon="-2.6789530">
        <ele>593.2</ele>
        <time>2022-08-29T05:16:18Z</time>
      </trkpt>
      <trkpt lat="42.4148860" lon="-2.6790290">
        <ele>593.2</ele>
        <time>2022-08-29T05:16:19Z</time>
      </trkpt>
      <trkpt lat="42.4148740" lon="-2.6791060">
        <ele>593.2</ele>
        <time>2022-08-29T05:16:20Z</time>
      </trkpt>
      <trkpt lat="42.4148630" lon="-2.6791820">
        <ele>593.0</ele>
        <time>2022-08-29T05:16:21Z</time>
      </trkpt>
      <trkpt lat="42.4148480" lon="-2.6792580">
        <ele>592.8</ele>
        <time>2022-08-29T05:16:22Z</time>
      </trkpt>
      <trkpt lat="42.4148320" lon="-2.6793350">
        <ele>592.6</ele>
        <time>2022-08-29T05:16:23Z</time>
      </trkpt>
      <trkpt lat="42.4148140" lon="-2.6794130">
        <ele>592.4</ele>
        <time>2022-08-29T05:16:24Z</time>
      </trkpt>
      <trkpt lat="42.4147910" lon="-2.6794930">
        <ele>592.2</ele>
        <time>2022-08-29T05:16:25Z</time>
      </trkpt>
      <trkpt lat="42.4147720" lon="-2.6795740">
        <ele>591.8</ele>
        <time>2022-08-29T05:16:26Z</time>
      </trkpt>
      <trkpt lat="42.4147540" lon="-2.6796570">
        <ele>591.8</ele>
        <time>2022-08-29T05:16:27Z</time>
      </trkpt>
      <trkpt lat="42.4147360" lon="-2.6797410">
        <ele>591.4</ele>
        <time>2022-08-29T05:16:28Z</time>
      </trkpt>
      <trkpt lat="42.4147180" lon="-2.6798240">
        <ele>591.0</ele>
        <time>2022-08-29T05:16:29Z</time>
      </trkpt>
      <trkpt lat="42.4146940" lon="-2.6799070">
        <ele>590.8</ele>
        <time>2022-08-29T05:16:30Z</time>
      </trkpt>
      <trkpt lat="42.4146700" lon="-2.6799950">
        <ele>590.6</ele>
        <time>2022-08-29T05:16:31Z</time>
      </trkpt>
      <trkpt lat="42.4146490" lon="-2.6800810">
        <ele>590.6</ele>
        <time>2022-08-29T05:16:32Z</time>
      </trkpt>
      <trkpt lat="42.4146260" lon="-2.6801690">
        <ele>590.6</ele>
        <time>2022-08-29T05:16:33Z</time>
      </trkpt>
      <trkpt lat="42.4145990" lon="-2.6802580">
        <ele>590.4</ele>
        <time>2022-08-29T05:16:34Z</time>
      </trkpt>
      <trkpt lat="42.4145710" lon="-2.6803480">
        <ele>590.4</ele>
        <time>2022-08-29T05:16:35Z</time>
      </trkpt>
      <trkpt lat="42.4145460" lon="-2.6804370">
        <ele>589.8</ele>
        <time>2022-08-29T05:16:36Z</time>
      </trkpt>
      <trkpt lat="42.4145180" lon="-2.6805320">
        <ele>589.6</ele>
        <time>2022-08-29T05:16:37Z</time>
      </trkpt>
      <trkpt lat="42.4144970" lon="-2.6806280">
        <ele>589.4</ele>
        <time>2022-08-29T05:16:38Z</time>
      </trkpt>
      <trkpt lat="42.4144800" lon="-2.6807270">
        <ele>589.2</ele>
        <time>2022-08-29T05:16:39Z</time>
      </trkpt>
      <trkpt lat="42.4144650" lon="-2.6808290">
        <ele>589.0</ele>
        <time>2022-08-29T05:16:40Z</time>
      </trkpt>
      <trkpt lat="42.4144520" lon="-2.6809360">
        <ele>588.6</ele>
        <time>2022-08-29T05:16:41Z</time>
      </trkpt>
      <trkpt lat="42.4144420" lon="-2.6810450">
        <ele>588.4</ele>
        <time>2022-08-29T05:16:42Z</time>
      </trkpt>
      <trkpt lat="42.4144340" lon="-2.6811500">
        <ele>588.0</ele>
        <time>2022-08-29T05:16:43Z</time>
      </trkpt>
      <trkpt lat="42.4144260" lon="-2.6812550">
        <ele>587.4</ele>
        <time>2022-08-29T05:16:44Z</time>
      </trkpt>
      <trkpt lat="42.4144180" lon="-2.6813640">
        <ele>587.0</ele>
        <time>2022-08-29T05:16:45Z</time>
      </trkpt>
      <trkpt lat="42.4144060" lon="-2.6814730">
        <ele>586.6</ele>
        <time>2022-08-29T05:16:46Z</time>
      </trkpt>
      <trkpt lat="42.4143960" lon="-2.6815800">
        <ele>586.4</ele>
        <time>2022-08-29T05:16:47Z</time>
      </trkpt>
      <trkpt lat="42.4143860" lon="-2.6816890">
        <ele>586.2</ele>
        <time>2022-08-29T05:16:48Z</time>
      </trkpt>
      <trkpt lat="42.4143770" lon="-2.6817980">
        <ele>585.8</ele>
        <time>2022-08-29T05:16:49Z</time>
      </trkpt>
      <trkpt lat="42.4143720" lon="-2.6819050">
        <ele>585.8</ele>
        <time>2022-08-29T05:16:50Z</time>
      </trkpt>
      <trkpt lat="42.4143680" lon="-2.6820100">
        <ele>585.4</ele>
        <time>2022-08-29T05:16:51Z</time>
      </trkpt>
      <trkpt lat="42.4143630" lon="-2.6821160">
        <ele>585.2</ele>
        <time>2022-08-29T05:16:52Z</time>
      </trkpt>
      <trkpt lat="42.4143550" lon="-2.6822230">
        <ele>585.2</ele>
        <time>2022-08-29T05:16:53Z</time>
      </trkpt>
      <trkpt lat="42.4143460" lon="-2.6823300">
        <ele>585.0</ele>
        <time>2022-08-29T05:16:54Z</time>
      </trkpt>
      <trkpt lat="42.4143400" lon="-2.6824360">
        <ele>585.0</ele>
        <time>2022-08-29T05:16:55Z</time>
      </trkpt>
      <trkpt lat="42.4143340" lon="-2.6825440">
        <ele>585.0</ele>
        <time>2022-08-29T05:16:56Z</time>
      </trkpt>
      <trkpt lat="42.4143280" lon="-2.6826540">
        <ele>585.0</ele>
        <time>2022-08-29T05:16:57Z</time>
      </trkpt>
      <trkpt lat="42.4143220" lon="-2.6827690">
        <ele>585.0</ele>
        <time>2022-08-29T05:16:58Z</time>
      </trkpt>
      <trkpt lat="42.4143170" lon="-2.6828860">
        <ele>584.8</ele>
        <time>2022-08-29T05:16:59Z</time>
      </trkpt>
      <trkpt lat="42.4143090" lon="-2.6830050">
        <ele>584.6</ele>
        <time>2022-08-29T05:17:00Z</time>
      </trkpt>
      <trkpt lat="42.4142950" lon="-2.6831240">
        <ele>584.6</ele>
        <time>2022-08-29T05:17:01Z</time>
      </trkpt>
      <trkpt lat="42.4142740" lon="-2.6832430">
        <ele>584.6</ele>
        <time>2022-08-29T05:17:02Z</time>
      </trkpt>
      <trkpt lat="42.4142480" lon="-2.6833610">
        <ele>584.6</ele>
        <time>2022-08-29T05:17:03Z</time>
      </trkpt>
      <trkpt lat="42.4142120" lon="-2.6834770">
        <ele>584.4</ele>
        <time>2022-08-29T05:17:04Z</time>
      </trkpt>
      <trkpt lat="42.4141740" lon="-2.6835900">
        <ele>584.2</ele>
        <time>2022-08-29T05:17:05Z</time>
      </trkpt>
      <trkpt lat="42.4141360" lon="-2.6836980">
        <ele>584.2</ele>
        <time>2022-08-29T05:17:06Z</time>
      </trkpt>
      <trkpt lat="42.4141000" lon="-2.6838060">
        <ele>584.0</ele>
        <time>2022-08-29T05:17:07Z</time>
      </trkpt>
      <trkpt lat="42.4140690" lon="-2.6839140">
        <ele>583.4</ele>
        <time>2022-08-29T05:17:08Z</time>
      </trkpt>
      <trkpt lat="42.4140400" lon="-2.6840220">
        <ele>583.0</ele>
        <time>2022-08-29T05:17:09Z</time>
      </trkpt>
      <trkpt lat="42.4140120" lon="-2.6841250">
        <ele>582.4</ele>
        <time>2022-08-29T05:17:10Z</time>
      </trkpt>
      <trkpt lat="42.4139840" lon="-2.6842240">
        <ele>581.6</ele>
        <time>2022-08-29T05:17:11Z</time>
      </trkpt>
      <trkpt lat="42.4139570" lon="-2.6843210">
        <ele>581.0</ele>
        <time>2022-08-29T05:17:12Z</time>
      </trkpt>
      <trkpt lat="42.4139290" lon="-2.6844170">
        <ele>580.4</ele>
        <time>2022-08-29T05:17:13Z</time>
      </trkpt>
      <trkpt lat="42.4138990" lon="-2.6845110">
        <ele>580.0</ele>
        <time>2022-08-29T05:17:14Z</time>
      </trkpt>
      <trkpt lat="42.4138690" lon="-2.6846040">
        <ele>579.8</ele>
        <time>2022-08-29T05:17:15Z</time>
      </trkpt>
      <trkpt lat="42.4138400" lon="-2.6846960">
        <ele>579.4</ele>
        <time>2022-08-29T05:17:16Z</time>
      </trkpt>
      <trkpt lat="42.4138110" lon="-2.6847880">
        <ele>579.2</ele>
        <time>2022-08-29T05:17:17Z</time>
      </trkpt>
      <trkpt lat="42.4137820" lon="-2.6848790">
        <ele>579.0</ele>
        <time>2022-08-29T05:17:18Z</time>
      </trkpt>
      <trkpt lat="42.4137510" lon="-2.6849700">
        <ele>578.8</ele>
        <time>2022-08-29T05:17:19Z</time>
      </trkpt>
      <trkpt lat="42.4137200" lon="-2.6850600">
        <ele>578.2</ele>
        <time>2022-08-29T05:17:20Z</time>
      </trkpt>
      <trkpt lat="42.4136910" lon="-2.6851510">
        <ele>577.6</ele>
        <time>2022-08-29T05:17:21Z</time>
      </trkpt>
      <trkpt lat="42.4136660" lon="-2.6852430">
        <ele>577.4</ele>
        <time>2022-08-29T05:17:22Z</time>
      </trkpt>
      <trkpt lat="42.4136460" lon="-2.6853390">
        <ele>577.4</ele>
        <time>2022-08-29T05:17:23Z</time>
      </trkpt>
      <trkpt lat="42.4136290" lon="-2.6854370">
        <ele>577.2</ele>
        <time>2022-08-29T05:17:24Z</time>
      </trkpt>
      <trkpt lat="42.4136150" lon="-2.6855380">
        <ele>577.0</ele>
        <time>2022-08-29T05:17:25Z</time>
      </trkpt>
      <trkpt lat="42.4136010" lon="-2.6856390">
        <ele>576.8</ele>
        <time>2022-08-29T05:17:26Z</time>
      </trkpt>
      <trkpt lat="42.4135840" lon="-2.6857330">
        <ele>576.6</ele>
        <time>2022-08-29T05:17:27Z</time>
      </trkpt>
      <trkpt lat="42.4135660" lon="-2.6858210">
        <ele>576.6</ele>
        <time>2022-08-29T05:17:28Z</time>
      </trkpt>
      <trkpt lat="42.4135520" lon="-2.6859010">
        <ele>576.4</ele>
        <time>2022-08-29T05:17:29Z</time>
      </trkpt>
      <trkpt lat="42.4135400" lon="-2.6859760">
        <ele>576.2</ele>
        <time>2022-08-29T05:17:30Z</time>
      </trkpt>
      <trkpt lat="42.4135280" lon="-2.6860490">
        <ele>576.0</ele>
        <time>2022-08-29T05:17:31Z</time>
      </trkpt>
      <trkpt lat="42.4135130" lon="-2.6861180">
        <ele>575.8</ele>
        <time>2022-08-29T05:17:32Z</time>
      </trkpt>
      <trkpt lat="42.4134950" lon="-2.6861860">
        <ele>575.6</ele>
        <time>2022-08-29T05:17:33Z</time>
      </trkpt>
      <trkpt lat="42.4134740" lon="-2.6862510">
        <ele>575.4</ele>
        <time>2022-08-29T05:17:34Z</time>
      </trkpt>
      <trkpt lat="42.4134540" lon="-2.6863190">
        <ele>575.0</ele>
        <time>2022-08-29T05:17:35Z</time>
      </trkpt>
      <trkpt lat="42.4134390" lon="-2.6863890">
        <ele>575.0</ele>
        <time>2022-08-29T05:17:36Z</time>
      </trkpt>
      <trkpt lat="42.4134290" lon="-2.6864630">
        <ele>574.8</ele>
        <time>2022-08-29T05:17:37Z</time>
      </trkpt>
      <trkpt lat="42.4134240" lon="-2.6865390">
        <ele>574.6</ele>
        <time>2022-08-29T05:17:38Z</time>
      </trkpt>
      <trkpt lat="42.4134160" lon="-2.6866160">
        <ele>574.6</ele>
        <time>2022-08-29T05:17:39Z</time>
      </trkpt>
      <trkpt lat="42.4134100" lon="-2.6866920">
        <ele>574.6</ele>
        <time>2022-08-29T05:17:40Z</time>
      </trkpt>
      <trkpt lat="42.4134010" lon="-2.6867700">
        <ele>574.4</ele>
        <time>2022-08-29T05:17:41Z</time>
      </trkpt>
      <trkpt lat="42.4133880" lon="-2.6868490">
        <ele>574.4</ele>
        <time>2022-08-29T05:17:42Z</time>
      </trkpt>
      <trkpt lat="42.4133790" lon="-2.6869260">
        <ele>574.2</ele>
        <time>2022-08-29T05:17:43Z</time>
      </trkpt>
      <trkpt lat="42.4133720" lon="-2.6870040">
        <ele>573.8</ele>
        <time>2022-08-29T05:17:44Z</time>
      </trkpt>
      <trkpt lat="42.4133630" lon="-2.6870840">
        <ele>573.6</ele>
        <time>2022-08-29T05:17:45Z</time>
      </trkpt>
      <trkpt lat="42.4133560" lon="-2.6871630">
        <ele>573.6</ele>
        <time>2022-08-29T05:17:46Z</time>
      </trkpt>
      <trkpt lat="42.4133530" lon="-2.6872430">
        <ele>573.4</ele>
        <time>2022-08-29T05:17:47Z</time>
      </trkpt>
      <trkpt lat="42.4133530" lon="-2.6873250">
        <ele>573.0</ele>
        <time>2022-08-29T05:17:48Z</time>
      </trkpt>
      <trkpt lat="42.4133520" lon="-2.6874080">
        <ele>573.0</ele>
        <time>2022-08-29T05:17:49Z</time>
      </trkpt>
      <trkpt lat="42.4133490" lon="-2.6874920">
        <ele>572.8</ele>
        <time>2022-08-29T05:17:50Z</time>
      </trkpt>
      <trkpt lat="42.4133480" lon="-2.6875770">
        <ele>572.6</ele>
        <time>2022-08-29T05:17:51Z</time>
      </trkpt>
      <trkpt lat="42.4133490" lon="-2.6876630">
        <ele>572.6</ele>
        <time>2022-08-29T05:17:52Z</time>
      </trkpt>
      <trkpt lat="42.4133500" lon="-2.6877490">
        <ele>572.4</ele>
        <time>2022-08-29T05:17:53Z</time>
      </trkpt>
      <trkpt lat="42.4133520" lon="-2.6878340">
        <ele>572.6</ele>
        <time>2022-08-29T05:17:54Z</time>
      </trkpt>
      <trkpt lat="42.4133560" lon="-2.6879180">
        <ele>572.4</ele>
        <time>2022-08-29T05:17:55Z</time>
      </trkpt>
      <trkpt lat="42.4133610" lon="-2.6880020">
        <ele>572.2</ele>
        <time>2022-08-29T05:17:56Z</time>
      </trkpt>
      <trkpt lat="42.4133700" lon="-2.6880860">
        <ele>572.2</ele>
        <time>2022-08-29T05:17:57Z</time>
      </trkpt>
      <trkpt lat="42.4133790" lon="-2.6881690">
        <ele>572.0</ele>
        <time>2022-08-29T05:17:58Z</time>
      </trkpt>
      <trkpt lat="42.4133890" lon="-2.6882530">
        <ele>571.8</ele>
        <time>2022-08-29T05:17:59Z</time>
      </trkpt>
      <trkpt lat="42.4133990" lon="-2.6883370">
        <ele>571.6</ele>
        <time>2022-08-29T05:18:00Z</time>
      </trkpt>
      <trkpt lat="42.4134090" lon="-2.6884220">
        <ele>571.4</ele>
        <time>2022-08-29T05:18:01Z</time>
      </trkpt>
      <trkpt lat="42.4134190" lon="-2.6885070">
        <ele>571.2</ele>
        <time>2022-08-29T05:18:02Z</time>
      </trkpt>
      <trkpt lat="42.4134270" lon="-2.6885950">
        <ele>571.2</ele>
        <time>2022-08-29T05:18:03Z</time>
      </trkpt>
      <trkpt lat="42.4134340" lon="-2.6886850">
        <ele>571.0</ele>
        <time>2022-08-29T05:18:04Z</time>
      </trkpt>
      <trkpt lat="42.4134390" lon="-2.6887740">
        <ele>571.0</ele>
        <time>2022-08-29T05:18:05Z</time>
      </trkpt>
      <trkpt lat="42.4134420" lon="-2.6888630">
        <ele>570.8</ele>
        <time>2022-08-29T05:18:06Z</time>
      </trkpt>
      <trkpt lat="42.4134440" lon="-2.6889530">
        <ele>570.8</ele>
        <time>2022-08-29T05:18:07Z</time>
      </trkpt>
      <trkpt lat="42.4134450" lon="-2.6890420">
        <ele>570.6</ele>
        <time>2022-08-29T05:18:08Z</time>
      </trkpt>
      <trkpt lat="42.4134430" lon="-2.6891310">
        <ele>570.6</ele>
        <time>2022-08-29T05:18:09Z</time>
      </trkpt>
      <trkpt lat="42.4134390" lon="-2.6892190">
        <ele>570.6</ele>
        <time>2022-08-29T05:18:10Z</time>
      </trkpt>
      <trkpt lat="42.4134340" lon="-2.6893050">
        <ele>570.2</ele>
        <time>2022-08-29T05:18:11Z</time>
      </trkpt>
      <trkpt lat="42.4134300" lon="-2.6893900">
        <ele>570.0</ele>
        <time>2022-08-29T05:18:12Z</time>
      </trkpt>
      <trkpt lat="42.4134250" lon="-2.6894750">
        <ele>570.0</ele>
        <time>2022-08-29T05:18:13Z</time>
      </trkpt>
      <trkpt lat="42.4134220" lon="-2.6895600">
        <ele>569.8</ele>
        <time>2022-08-29T05:18:14Z</time>
      </trkpt>
      <trkpt lat="42.4134180" lon="-2.6896430">
        <ele>569.8</ele>
        <time>2022-08-29T05:18:15Z</time>
      </trkpt>
      <trkpt lat="42.4134130" lon="-2.6897240">
        <ele>569.6</ele>
        <time>2022-08-29T05:18:16Z</time>
      </trkpt>
      <trkpt lat="42.4134070" lon="-2.6898040">
        <ele>569.6</ele>
        <time>2022-08-29T05:18:17Z</time>
      </trkpt>
      <trkpt lat="42.4134000" lon="-2.6898820">
        <ele>569.0</ele>
        <time>2022-08-29T05:18:18Z</time>
      </trkpt>
      <trkpt lat="42.4133930" lon="-2.6899610">
        <ele>568.8</ele>
        <time>2022-08-29T05:18:19Z</time>
      </trkpt>
      <trkpt lat="42.4133870" lon="-2.6900410">
        <ele>568.6</ele>
        <time>2022-08-29T05:18:20Z</time>
      </trkpt>
      <trkpt lat="42.4133810" lon="-2.6901200">
        <ele>568.6</ele>
        <time>2022-08-29T05:18:21Z</time>
      </trkpt>
      <trkpt lat="42.4133760" lon="-2.6901980">
        <ele>568.4</ele>
        <time>2022-08-29T05:18:22Z</time>
      </trkpt>
      <trkpt lat="42.4133730" lon="-2.6902760">
        <ele>568.4</ele>
        <time>2022-08-29T05:18:23Z</time>
      </trkpt>
      <trkpt lat="42.4133680" lon="-2.6903540">
        <ele>568.2</ele>
        <time>2022-08-29T05:18:24Z</time>
      </trkpt>
      <trkpt lat="42.4133620" lon="-2.6904310">
        <ele>568.0</ele>
        <time>2022-08-29T05:18:25Z</time>
      </trkpt>
      <trkpt lat="42.4133570" lon="-2.6905060">
        <ele>568.2</ele>
        <time>2022-08-29T05:18:26Z</time>
      </trkpt>
      <trkpt lat="42.4133510" lon="-2.6905830">
        <ele>568.0</ele>
        <time>2022-08-29T05:18:27Z</time>
      </trkpt>
      <trkpt lat="42.4133440" lon="-2.6906580">
        <ele>568.0</ele>
        <time>2022-08-29T05:18:28Z</time>
      </trkpt>
      <trkpt lat="42.4133350" lon="-2.6907330">
        <ele>568.0</ele>
        <time>2022-08-29T05:18:29Z</time>
      </trkpt>
      <trkpt lat="42.4133270" lon="-2.6908070">
        <ele>568.0</ele>
        <time>2022-08-29T05:18:30Z</time>
      </trkpt>
      <trkpt lat="42.4133180" lon="-2.6908800">
        <ele>567.8</ele>
        <time>2022-08-29T05:18:31Z</time>
      </trkpt>
      <trkpt lat="42.4133040" lon="-2.6909510">
        <ele>568.0</ele>
        <time>2022-08-29T05:18:32Z</time>
      </trkpt>
      <trkpt lat="42.4132900" lon="-2.6910210">
        <ele>568.0</ele>
        <time>2022-08-29T05:18:33Z</time>
      </trkpt>
      <trkpt lat="42.4132770" lon="-2.6910910">
        <ele>568.0</ele>
        <time>2022-08-29T05:18:34Z</time>
      </trkpt>
      <trkpt lat="42.4132660" lon="-2.6911630">
        <ele>568.0</ele>
        <time>2022-08-29T05:18:35Z</time>
      </trkpt>
      <trkpt lat="42.4132600" lon="-2.6912370">
        <ele>567.8</ele>
        <time>2022-08-29T05:18:36Z</time>
      </trkpt>
      <trkpt lat="42.4132540" lon="-2.6913110">
        <ele>567.8</ele>
        <time>2022-08-29T05:18:37Z</time>
      </trkpt>
      <trkpt lat="42.4132500" lon="-2.6913890">
        <ele>567.6</ele>
        <time>2022-08-29T05:18:38Z</time>
      </trkpt>
      <trkpt lat="42.4132480" lon="-2.6914690">
        <ele>567.6</ele>
        <time>2022-08-29T05:18:39Z</time>
      </trkpt>
      <trkpt lat="42.4132480" lon="-2.6915490">
        <ele>567.6</ele>
        <time>2022-08-29T05:18:40Z</time>
      </trkpt>
      <trkpt lat="42.4132500" lon="-2.6916290">
        <ele>567.4</ele>
        <time>2022-08-29T05:18:41Z</time>
      </trkpt>
      <trkpt lat="42.4132530" lon="-2.6917080">
        <ele>567.4</ele>
        <time>2022-08-29T05:18:42Z</time>
      </trkpt>
      <trkpt lat="42.4132540" lon="-2.6917880">
        <ele>567.4</ele>
        <time>2022-08-29T05:18:43Z</time>
      </trkpt>
      <trkpt lat="42.4132550" lon="-2.6918690">
        <ele>567.0</ele>
        <time>2022-08-29T05:18:44Z</time>
      </trkpt>
      <trkpt lat="42.4132570" lon="-2.6919470">
        <ele>566.6</ele>
        <time>2022-08-29T05:18:45Z</time>
      </trkpt>
      <trkpt lat="42.4132600" lon="-2.6920230">
        <ele>566.4</ele>
        <time>2022-08-29T05:18:46Z</time>
      </trkpt>
      <trkpt lat="42.4132640" lon="-2.6921020">
        <ele>566.0</ele>
        <time>2022-08-29T05:18:47Z</time>
      </trkpt>
      <trkpt lat="42.4132720" lon="-2.6921860">
        <ele>565.8</ele>
        <time>2022-08-29T05:18:48Z</time>
      </trkpt>
      <trkpt lat="42.4132860" lon="-2.6922730">
        <ele>565.4</ele>
        <time>2022-08-29T05:18:49Z</time>
      </trkpt>
      <trkpt lat="42.4133040" lon="-2.6923640">
        <ele>565.0</ele>
        <time>2022-08-29T05:18:50Z</time>
      </trkpt>
      <trkpt lat="42.4133270" lon="-2.6924610">
        <ele>564.8</ele>
        <time>2022-08-29T05:18:51Z</time>
      </trkpt>
      <trkpt lat="42.4133500" lon="-2.6925630">
        <ele>564.8</ele>
        <time>2022-08-29T05:18:52Z</time>
      </trkpt>
      <trkpt lat="42.4133720" lon="-2.6926690">
        <ele>564.6</ele>
        <time>2022-08-29T05:18:53Z</time>
      </trkpt>
      <trkpt lat="42.4133950" lon="-2.6927830">
        <ele>564.6</ele>
        <time>2022-08-29T05:18:54Z</time>
      </trkpt>
      <trkpt lat="42.4134170" lon="-2.6928980">
        <ele>564.4</ele>
        <time>2022-08-29T05:18:55Z</time>
      </trkpt>
      <trkpt lat="42.4134390" lon="-2.6930160">
        <ele>564.4</ele>
        <time>2022-08-29T05:18:56Z</time>
      </trkpt>
      <trkpt lat="42.4134600" lon="-2.6931360">
        <ele>564.0</ele>
        <time>2022-08-29T05:18:57Z</time>
      </trkpt>
      <trkpt lat="42.4134800" lon="-2.6932600">
        <ele>563.6</ele>
        <time>2022-08-29T05:18:58Z</time>
      </trkpt>
      <trkpt lat="42.4135010" lon="-2.6933830">
        <ele>563.0</ele>
        <time>2022-08-29T05:18:59Z</time>
      </trkpt>
      <trkpt lat="42.4135230" lon="-2.6935090">
        <ele>562.6</ele>
        <time>2022-08-29T05:19:00Z</time>
      </trkpt>
      <trkpt lat="42.4135440" lon="-2.6936380">
        <ele>562.0</ele>
        <time>2022-08-29T05:19:01Z</time>
      </trkpt>
      <trkpt lat="42.4135650" lon="-2.6937660">
        <ele>561.0</ele>
        <time>2022-08-29T05:19:02Z</time>
      </trkpt>
      <trkpt lat="42.4135900" lon="-2.6938890">
        <ele>560.4</ele>
        <time>2022-08-29T05:19:03Z</time>
      </trkpt>
      <trkpt lat="42.4136280" lon="-2.6940030">
        <ele>560.0</ele>
        <time>2022-08-29T05:19:04Z</time>
      </trkpt>
      <trkpt lat="42.4136740" lon="-2.6941110">
        <ele>559.0</ele>
        <time>2022-08-29T05:19:05Z</time>
      </trkpt>
      <trkpt lat="42.4137290" lon="-2.6942090">
        <ele>557.4</ele>
        <time>2022-08-29T05:19:06Z</time>
      </trkpt>
      <trkpt lat="42.4137860" lon="-2.6943040">
        <ele>556.4</ele>
        <time>2022-08-29T05:19:07Z</time>
      </trkpt>
      <trkpt lat="42.4138430" lon="-2.6943920">
        <ele>555.6</ele>
        <time>2022-08-29T05:19:08Z</time>
      </trkpt>
      <trkpt lat="42.4138990" lon="-2.6944750">
        <ele>555.2</ele>
        <time>2022-08-29T05:19:09Z</time>
      </trkpt>
      <trkpt lat="42.4139530" lon="-2.6945520">
        <ele>554.2</ele>
        <time>2022-08-29T05:19:10Z</time>
      </trkpt>
      <trkpt lat="42.4140020" lon="-2.6946220">
        <ele>553.2</ele>
        <time>2022-08-29T05:19:11Z</time>
      </trkpt>
      <trkpt lat="42.4140440" lon="-2.6946840">
        <ele>552.6</ele>
        <time>2022-08-29T05:19:12Z</time>
      </trkpt>
      <trkpt lat="42.4140810" lon="-2.6947420">
        <ele>552.2</ele>
        <time>2022-08-29T05:19:13Z</time>
      </trkpt>
      <trkpt lat="42.4141170" lon="-2.6947980">
        <ele>551.8</ele>
        <time>2022-08-29T05:19:14Z</time>
      </trkpt>
      <trkpt lat="42.4141480" lon="-2.6948530">
        <ele>551.4</ele>
        <time>2022-08-29T05:19:15Z</time>
      </trkpt>
      <trkpt lat="42.4141710" lon="-2.6949130">
        <ele>551.2</ele>
        <time>2022-08-29T05:19:16Z</time>
      </trkpt>
      <trkpt lat="42.4141820" lon="-2.6949790">
        <ele>551.0</ele>
        <time>2022-08-29T05:19:17Z</time>
      </trkpt>
      <trkpt lat="42.4141810" lon="-2.6950520">
        <ele>551.0</ele>
        <time>2022-08-29T05:19:18Z</time>
      </trkpt>
      <trkpt lat="42.4141830" lon="-2.6951280">
        <ele>550.8</ele>
        <time>2022-08-29T05:19:19Z</time>
      </trkpt>
      <trkpt lat="42.4141860" lon="-2.6952060">
        <ele>550.8</ele>
        <time>2022-08-29T05:19:20Z</time>
      </trkpt>
      <trkpt lat="42.4141860" lon="-2.6952850">
        <ele>550.6</ele>
        <time>2022-08-29T05:19:21Z</time>
      </trkpt>
      <trkpt lat="42.4141840" lon="-2.6953660">
        <ele>550.4</ele>
        <time>2022-08-29T05:19:22Z</time>
      </trkpt>
      <trkpt lat="42.4141850" lon="-2.6954470">
        <ele>550.4</ele>
        <time>2022-08-29T05:19:23Z</time>
      </trkpt>
      <trkpt lat="42.4141930" lon="-2.6955280">
        <ele>550.2</ele>
        <time>2022-08-29T05:19:24Z</time>
      </trkpt>
      <trkpt lat="42.4142060" lon="-2.6956080">
        <ele>549.8</ele>
        <time>2022-08-29T05:19:25Z</time>
      </trkpt>
      <trkpt lat="42.4142190" lon="-2.6956860">
        <ele>549.6</ele>
        <time>2022-08-29T05:19:26Z</time>
      </trkpt>
      <trkpt lat="42.4142300" lon="-2.6957650">
        <ele>549.4</ele>
        <time>2022-08-29T05:19:27Z</time>
      </trkpt>
      <trkpt lat="42.4142390" lon="-2.6958430">
        <ele>548.8</ele>
        <time>2022-08-29T05:19:28Z</time>
      </trkpt>
      <trkpt lat="42.4142490" lon="-2.6959220">
        <ele>548.2</ele>
        <time>2022-08-29T05:19:29Z</time>
      </trkpt>
      <trkpt lat="42.4142600" lon="-2.6960000">
        <ele>548.0</ele>
        <time>2022-08-29T05:19:30Z</time>
      </trkpt>
      <trkpt lat="42.4142690" lon="-2.6960770">
        <ele>547.4</ele>
        <time>2022-08-29T05:19:31Z</time>
      </trkpt>
      <trkpt lat="42.4142730" lon="-2.6961530">
        <ele>547.0</ele>
        <time>2022-08-29T05:19:32Z</time>
      </trkpt>
      <trkpt lat="42.4142680" lon="-2.6962250">
        <ele>546.8</ele>
        <time>2022-08-29T05:19:33Z</time>
      </trkpt>
      <trkpt lat="42.4142540" lon="-2.6962920">
        <ele>546.2</ele>
        <time>2022-08-29T05:19:34Z</time>
      </trkpt>
      <trkpt lat="42.4142380" lon="-2.6963550">
        <ele>545.8</ele>
        <time>2022-08-29T05:19:35Z</time>
      </trkpt>
      <trkpt lat="42.4142240" lon="-2.6964100">
        <ele>545.6</ele>
        <time>2022-08-29T05:19:36Z</time>
      </trkpt>
      <trkpt lat="42.4142110" lon="-2.6964650">
        <ele>545.4</ele>
        <time>2022-08-29T05:19:37Z</time>
      </trkpt>
      <trkpt lat="42.4142000" lon="-2.6965190">
        <ele>545.2</ele>
        <time>2022-08-29T05:19:38Z</time>
      </trkpt>
      <trkpt lat="42.4141920" lon="-2.6965730">
        <ele>545.2</ele>
        <time>2022-08-29T05:19:39Z</time>
      </trkpt>
      <trkpt lat="42.4141850" lon="-2.6966280">
        <ele>545.0</ele>
        <time>2022-08-29T05:19:40Z</time>
      </trkpt>
      <trkpt lat="42.4141770" lon="-2.6966820">
        <ele>545.0</ele>
        <time>2022-08-29T05:19:41Z</time>
      </trkpt>
      <trkpt lat="42.4141660" lon="-2.6967340">
        <ele>545.2</ele>
        <time>2022-08-29T05:19:42Z</time>
      </trkpt>
      <trkpt lat="42.4141570" lon="-2.6967840">
        <ele>545.0</ele>
        <time>2022-08-29T05:19:43Z</time>
      </trkpt>
      <trkpt lat="42.4141500" lon="-2.6968360">
        <ele>545.0</ele>
        <time>2022-08-29T05:19:44Z</time>
      </trkpt>
      <trkpt lat="42.4141450" lon="-2.6968900">
        <ele>545.2</ele>
        <time>2022-08-29T05:19:45Z</time>
      </trkpt>
      <trkpt lat="42.4141390" lon="-2.6969480">
        <ele>545.2</ele>
        <time>2022-08-29T05:19:46Z</time>
      </trkpt>
      <trkpt lat="42.4141340" lon="-2.6970080">
        <ele>545.2</ele>
        <time>2022-08-29T05:19:47Z</time>
      </trkpt>
      <trkpt lat="42.4141320" lon="-2.6970680">
        <ele>545.2</ele>
        <time>2022-08-29T05:19:48Z</time>
      </trkpt>
      <trkpt lat="42.4141340" lon="-2.6971290">
        <ele>545.0</ele>
        <time>2022-08-29T05:19:49Z</time>
      </trkpt>
      <trkpt lat="42.4141420" lon="-2.6971910">
        <ele>545.2</ele>
        <time>2022-08-29T05:19:50Z</time>
      </trkpt>
      <trkpt lat="42.4141540" lon="-2.6972530">
        <ele>545.2</ele>
        <time>2022-08-29T05:19:51Z</time>
      </trkpt>
      <trkpt lat="42.4141700" lon="-2.6973130">
        <ele>545.0</ele>
        <time>2022-08-29T05:19:52Z</time>
      </trkpt>
      <trkpt lat="42.4141870" lon="-2.6973730">
        <ele>545.2</ele>
        <time>2022-08-29T05:19:53Z</time>
      </trkpt>
      <trkpt lat="42.4142050" lon="-2.6974300">
        <ele>545.2</ele>
        <time>2022-08-29T05:19:54Z</time>
      </trkpt>
      <trkpt lat="42.4142250" lon="-2.6974850">
        <ele>545.2</ele>
        <time>2022-08-29T05:19:55Z</time>
      </trkpt>
      <trkpt lat="42.4142480" lon="-2.6975380">
        <ele>545.2</ele>
        <time>2022-08-29T05:19:56Z</time>
      </trkpt>
      <trkpt lat="42.4142700" lon="-2.6975920">
        <ele>545.2</ele>
        <time>2022-08-29T05:19:57Z</time>
      </trkpt>
      <trkpt lat="42.4142920" lon="-2.6976480">
        <ele>545.2</ele>
        <time>2022-08-29T05:19:58Z</time>
      </trkpt>
      <trkpt lat="42.4143120" lon="-2.6977030">
        <ele>545.2</ele>
        <time>2022-08-29T05:19:59Z</time>
      </trkpt>
      <trkpt lat="42.4143300" lon="-2.6977600">
        <ele>545.0</ele>
        <time>2022-08-29T05:20:00Z</time>
      </trkpt>
      <trkpt lat="42.4143470" lon="-2.6978170">
        <ele>545.0</ele>
        <time>2022-08-29T05:20:01Z</time>
      </trkpt>
      <trkpt lat="42.4143650" lon="-2.6978760">
        <ele>544.8</ele>
        <time>2022-08-29T05:20:02Z</time>
      </trkpt>
      <trkpt lat="42.4143840" lon="-2.6979370">
        <ele>544.6</ele>
        <time>2022-08-29T05:20:03Z</time>
      </trkpt>
      <trkpt lat="42.4144040" lon="-2.6980010">
        <ele>544.8</ele>
        <time>2022-08-29T05:20:04Z</time>
      </trkpt>
      <trkpt lat="42.4144250" lon="-2.6980610">
        <ele>544.6</ele>
        <time>2022-08-29T05:20:05Z</time>
      </trkpt>
      <trkpt lat="42.4144430" lon="-2.6981110">
        <ele>544.6</ele>
        <time>2022-08-29T05:20:06Z</time>
      </trkpt>
      <trkpt lat="42.4144570" lon="-2.6981480">
        <ele>544.6</ele>
        <time>2022-08-29T05:20:07Z</time>
      </trkpt>
      <trkpt lat="42.4144710" lon="-2.6981760">
        <ele>544.6</ele>
        <time>2022-08-29T05:20:08Z</time>
      </trkpt>
      <trkpt lat="42.4144820" lon="-2.6981970">
        <ele>544.6</ele>
        <time>2022-08-29T05:20:09Z</time>
      </trkpt>
      <trkpt lat="42.4144910" lon="-2.6982130">
        <ele>544.6</ele>
        <time>2022-08-29T05:20:10Z</time>
      </trkpt>
      <trkpt lat="42.4144970" lon="-2.6982290">
        <ele>544.4</ele>
        <time>2022-08-29T05:20:11Z</time>
      </trkpt>
      <trkpt lat="42.4144940" lon="-2.6982470">
        <ele>544.4</ele>
        <time>2022-08-29T05:20:12Z</time>
      </trkpt>
      <trkpt lat="42.4144880" lon="-2.6982650">
        <ele>544.2</ele>
        <time>2022-08-29T05:20:13Z</time>
      </trkpt>
      <trkpt lat="42.4144770" lon="-2.6982830">
        <ele>544.0</ele>
        <time>2022-08-29T05:20:14Z</time>
      </trkpt>
      <trkpt lat="42.4144580" lon="-2.6983090">
        <ele>544.0</ele>
        <time>2022-08-29T05:20:15Z</time>
      </trkpt>
      <trkpt lat="42.4144420" lon="-2.6983350">
        <ele>543.8</ele>
        <time>2022-08-29T05:20:16Z</time>
      </trkpt>
      <trkpt lat="42.4144270" lon="-2.6983610">
        <ele>543.6</ele>
        <time>2022-08-29T05:20:17Z</time>
      </trkpt>
      <trkpt lat="42.4144140" lon="-2.6983810">
        <ele>543.6</ele>
        <time>2022-08-29T05:20:18Z</time>
      </trkpt>
      <trkpt lat="42.4144060" lon="-2.6984010">
        <ele>543.4</ele>
        <time>2022-08-29T05:20:19Z</time>
      </trkpt>
      <trkpt lat="42.4143990" lon="-2.6984170">
        <ele>543.2</ele>
        <time>2022-08-29T05:20:20Z</time>
      </trkpt>
      <trkpt lat="42.4143930" lon="-2.6984320">
        <ele>543.0</ele>
        <time>2022-08-29T05:20:21Z</time>
      </trkpt>
      <trkpt lat="42.4143860" lon="-2.6984450">
        <ele>543.2</ele>
        <time>2022-08-29T05:20:22Z</time>
      </trkpt>
      <trkpt lat="42.4143760" lon="-2.6984600">
        <ele>542.8</ele>
        <time>2022-08-29T05:20:23Z</time>
      </trkpt>
      <trkpt lat="42.4143710" lon="-2.6984780">
        <ele>542.6</ele>
        <time>2022-08-29T05:20:24Z</time>
      </trkpt>
      <trkpt lat="42.4143780" lon="-2.6984970">
        <ele>542.2</ele>
        <time>2022-08-29T05:20:25Z</time>
      </trkpt>
      <trkpt lat="42.4143900" lon="-2.6985140">
        <ele>542.0</ele>
        <time>2022-08-29T05:20:26Z</time>
      </trkpt>
      <trkpt lat="42.4144060" lon="-2.6985280">
        <ele>542.0</ele>
        <time>2022-08-29T05:20:27Z</time>
      </trkpt>
      <trkpt lat="42.4144230" lon="-2.6985410">
        <ele>542.0</ele>
        <time>2022-08-29T05:20:28Z</time>
      </trkpt>
      <trkpt lat="42.4144400" lon="-2.6985580">
        <ele>542.0</ele>
        <time>2022-08-29T05:20:29Z</time>
      </trkpt>
      <trkpt lat="42.4144560" lon="-2.6985800">
        <ele>542.0</ele>
        <time>2022-08-29T05:20:30Z</time>
      </trkpt>
      <trkpt lat="42.4144690" lon="-2.6986080">
        <ele>541.8</ele>
        <time>2022-08-29T05:20:31Z</time>
      </trkpt>
      <trkpt lat="42.4144790" lon="-2.6986350">
        <ele>541.6</ele>
        <time>2022-08-29T05:20:32Z</time>
      </trkpt>
      <trkpt lat="42.4144870" lon="-2.6986630">
        <ele>541.6</ele>
        <time>2022-08-29T05:20:33Z</time>
      </trkpt>
      <trkpt lat="42.4144970" lon="-2.6986940">
        <ele>541.4</ele>
        <time>2022-08-29T05:20:34Z</time>
      </trkpt>
      <trkpt lat="42.4145120" lon="-2.6987130">
        <ele>541.4</ele>
        <time>2022-08-29T05:20:35Z</time>
      </trkpt>
      <trkpt lat="42.4145270" lon="-2.6987270">
        <ele>541.4</ele>
        <time>2022-08-29T05:20:36Z</time>
      </trkpt>
      <trkpt lat="42.4145450" lon="-2.6987390">
        <ele>541.6</ele>
        <time>2022-08-29T05:20:37Z</time>
      </trkpt>
      <trkpt lat="42.4145660" lon="-2.6987540">
        <ele>541.8</ele>
        <time>2022-08-29T05:20:38Z</time>
      </trkpt>
      <trkpt lat="42.4145890" lon="-2.6987750">
        <ele>541.6</ele>
        <time>2022-08-29T05:20:39Z</time>
      </trkpt>
      <trkpt lat="42.4146130" lon="-2.6987980">
        <ele>541.6</ele>
        <time>2022-08-29T05:20:40Z</time>
      </trkpt>
      <trkpt lat="42.4146360" lon="-2.6988180">
        <ele>541.6</ele>
        <time>2022-08-29T05:20:41Z</time>
      </trkpt>
      <trkpt lat="42.4146610" lon="-2.6988370">
        <ele>541.6</ele>
        <time>2022-08-29T05:20:42Z</time>
      </trkpt>
      <trkpt lat="42.4146880" lon="-2.6988560">
        <ele>541.6</ele>
        <time>2022-08-29T05:20:43Z</time>
      </trkpt>
      <trkpt lat="42.4147200" lon="-2.6988730">
        <ele>541.6</ele>
        <time>2022-08-29T05:20:44Z</time>
      </trkpt>
      <trkpt lat="42.4147540" lon="-2.6988880">
        <ele>541.6</ele>
        <time>2022-08-29T05:20:45Z</time>
      </trkpt>
      <trkpt lat="42.4147890" lon="-2.6989040">
        <ele>541.8</ele>
        <time>2022-08-29T05:20:46Z</time>
      </trkpt>
      <trkpt lat="42.4148240" lon="-2.6989270">
        <ele>541.8</ele>
        <time>2022-08-29T05:20:47Z</time>
      </trkpt>
      <trkpt lat="42.4148580" lon="-2.6989540">
        <ele>542.0</ele>
        <time>2022-08-29T05:20:48Z</time>
      </trkpt>
      <trkpt lat="42.4148920" lon="-2.6989810">
        <ele>541.8</ele>
        <time>2022-08-29T05:20:49Z</time>
      </trkpt>
      <trkpt lat="42.4149260" lon="-2.6990080">
        <ele>542.0</ele>
        <time>2022-08-29T05:20:50Z</time>
      </trkpt>
      <trkpt lat="42.4149580" lon="-2.6990350">
        <ele>541.8</ele>
        <time>2022-08-29T05:20:51Z</time>
      </trkpt>
      <trkpt lat="42.4149890" lon="-2.6990580">
        <ele>542.0</ele>
        <time>2022-08-29T05:20:52Z</time>
      </trkpt>
      <trkpt lat="42.4150200" lon="-2.6990780">
        <ele>541.8</ele>
        <time>2022-08-29T05:20:53Z</time>
      </trkpt>
      <trkpt lat="42.4150500" lon="-2.6990970">
        <ele>541.8</ele>
        <time>2022-08-29T05:20:54Z</time>
      </trkpt>
      <trkpt lat="42.4150800" lon="-2.6991180">
        <ele>542.0</ele>
        <time>2022-08-29T05:20:55Z</time>
      </trkpt>
      <trkpt lat="42.4151120" lon="-2.6991420">
        <ele>541.8</ele>
        <time>2022-08-29T05:20:56Z</time>
      </trkpt>
      <trkpt lat="42.4151430" lon="-2.6991720">
        <ele>541.8</ele>
        <time>2022-08-29T05:20:57Z</time>
      </trkpt>
      <trkpt lat="42.4151770" lon="-2.6992040">
        <ele>541.8</ele>
        <time>2022-08-29T05:20:58Z</time>
      </trkpt>
      <trkpt lat="42.4152170" lon="-2.6992380">
        <ele>541.8</ele>
        <time>2022-08-29T05:20:59Z</time>
      </trkpt>
      <trkpt lat="42.4152630" lon="-2.6992720">
        <ele>541.6</ele>
        <time>2022-08-29T05:21:00Z</time>
      </trkpt>
      <trkpt lat="42.4153110" lon="-2.6993110">
        <ele>541.6</ele>
        <time>2022-08-29T05:21:01Z</time>
      </trkpt>
      <trkpt lat="42.4153610" lon="-2.6993540">
        <ele>541.6</ele>
        <time>2022-08-29T05:21:02Z</time>
      </trkpt>
      <trkpt lat="42.4154140" lon="-2.6993900">
        <ele>541.6</ele>
        <time>2022-08-29T05:21:03Z</time>
      </trkpt>
      <trkpt lat="42.4154690" lon="-2.6994200">
        <ele>541.6</ele>
        <time>2022-08-29T05:21:04Z</time>
      </trkpt>
      <trkpt lat="42.4155260" lon="-2.6994450">
        <ele>541.4</ele>
        <time>2022-08-29T05:21:05Z</time>
      </trkpt>
      <trkpt lat="42.4155800" lon="-2.6994640">
        <ele>541.4</ele>
        <time>2022-08-29T05:21:06Z</time>
      </trkpt>
      <trkpt lat="42.4156280" lon="-2.6994700">
        <ele>541.4</ele>
        <time>2022-08-29T05:21:07Z</time>
      </trkpt>
      <trkpt lat="42.4156720" lon="-2.6994800">
        <ele>541.2</ele>
        <time>2022-08-29T05:21:08Z</time>
      </trkpt>
      <trkpt lat="42.4157140" lon="-2.6994840">
        <ele>540.4</ele>
        <time>2022-08-29T05:21:09Z</time>
      </trkpt>
      <trkpt lat="42.4157540" lon="-2.6994880">
        <ele>540.0</ele>
        <time>2022-08-29T05:21:10Z</time>
      </trkpt>
      <trkpt lat="42.4157840" lon="-2.6995010">
        <ele>539.6</ele>
        <time>2022-08-29T05:21:11Z</time>
      </trkpt>
      <trkpt lat="42.4158180" lon="-2.6995090">
        <ele>539.4</ele>
        <time>2022-08-29T05:21:12Z</time>
      </trkpt>
      <trkpt lat="42.4158470" lon="-2.6995160">
        <ele>539.2</ele>
        <time>2022-08-29T05:21:13Z</time>
      </trkpt>
      <trkpt lat="42.4158760" lon="-2.6995240">
        <ele>539.2</ele>
        <time>2022-08-29T05:21:14Z</time>
      </trkpt>
      <trkpt lat="42.4159050" lon="-2.6995290">
        <ele>539.0</ele>
        <time>2022-08-29T05:21:15Z</time>
      </trkpt>
      <trkpt lat="42.4159310" lon="-2.6995390">
        <ele>539.2</ele>
        <time>2022-08-29T05:21:16Z</time>
      </trkpt>
      <trkpt lat="42.4159570" lon="-2.6995510">
        <ele>539.2</ele>
        <time>2022-08-29T05:21:17Z</time>
      </trkpt>
      <trkpt lat="42.4159820" lon="-2.6995630">
        <ele>539.2</ele>
        <time>2022-08-29T05:21:18Z</time>
      </trkpt>
      <trkpt lat="42.4160070" lon="-2.6995760">
        <ele>539.0</ele>
        <time>2022-08-29T05:21:19Z</time>
      </trkpt>
      <trkpt lat="42.4160310" lon="-2.6995900">
        <ele>539.0</ele>
        <time>2022-08-29T05:21:20Z</time>
      </trkpt>
      <trkpt lat="42.4160510" lon="-2.6996060">
        <ele>539.2</ele>
        <time>2022-08-29T05:21:21Z</time>
      </trkpt>
      <trkpt lat="42.4160720" lon="-2.6996210">
        <ele>539.2</ele>
        <time>2022-08-29T05:21:22Z</time>
      </trkpt>
      <trkpt lat="42.4160940" lon="-2.6996370">
        <ele>539.2</ele>
        <time>2022-08-29T05:21:23Z</time>
      </trkpt>
      <trkpt lat="42.4161160" lon="-2.6996490">
        <ele>539.2</ele>
        <time>2022-08-29T05:21:24Z</time>
      </trkpt>
      <trkpt lat="42.4161350" lon="-2.6996640">
        <ele>539.0</ele>
        <time>2022-08-29T05:21:25Z</time>
      </trkpt>
      <trkpt lat="42.4161500" lon="-2.6996890">
        <ele>539.0</ele>
        <time>2022-08-29T05:21:26Z</time>
      </trkpt>
      <trkpt lat="42.4161620" lon="-2.6997190">
        <ele>539.2</ele>
        <time>2022-08-29T05:21:27Z</time>
      </trkpt>
      <trkpt lat="42.4161670" lon="-2.6997530">
        <ele>539.2</ele>
        <time>2022-08-29T05:21:28Z</time>
      </trkpt>
      <trkpt lat="42.4161650" lon="-2.6997880">
        <ele>539.2</ele>
        <time>2022-08-29T05:21:29Z</time>
      </trkpt>
      <trkpt lat="42.4161600" lon="-2.6998180">
        <ele>539.2</ele>
        <time>2022-08-29T05:21:30Z</time>
      </trkpt>
      <trkpt lat="42.4161510" lon="-2.6998400">
        <ele>539.2</ele>
        <time>2022-08-29T05:21:31Z</time>
      </trkpt>
      <trkpt lat="42.4161370" lon="-2.6998570">
        <ele>539.2</ele>
        <time>2022-08-29T05:21:32Z</time>
      </trkpt>
      <trkpt lat="42.4161240" lon="-2.6998750">
        <ele>539.0</ele>
        <time>2022-08-29T05:21:33Z</time>
      </trkpt>
      <trkpt lat="42.4161090" lon="-2.6998940">
        <ele>539.0</ele>
        <time>2022-08-29T05:21:34Z</time>
      </trkpt>
      <trkpt lat="42.4160940" lon="-2.6999100">
        <ele>539.2</ele>
        <time>2022-08-29T05:21:35Z</time>
      </trkpt>
      <trkpt lat="42.4160800" lon="-2.6999210">
        <ele>539.2</ele>
        <time>2022-08-29T05:21:36Z</time>
      </trkpt>
      <trkpt lat="42.4160720" lon="-2.6999290">
        <ele>539.2</ele>
        <time>2022-08-29T05:21:37Z</time>
      </trkpt>
      <trkpt lat="42.4160720" lon="-2.6999290">
        <ele>539.2</ele>
        <time>2022-08-29T05:21:38Z</time>
      </trkpt>
      <trkpt lat="42.4160740" lon="-2.6999290">
        <ele>539.0</ele>
        <time>2022-08-29T05:21:39Z</time>
      </trkpt>
      <trkpt lat="42.4160760" lon="-2.6999280">
        <ele>539.0</ele>
        <time>2022-08-29T05:21:40Z</time>
      </trkpt>
      <trkpt lat="42.4160780" lon="-2.6999280">
        <ele>539.0</ele>
        <time>2022-08-29T05:21:41Z</time>
      </trkpt>
      <trkpt lat="42.4160780" lon="-2.6999290">
        <ele>539.0</ele>
        <time>2022-08-29T05:21:42Z</time>
      </trkpt>
      <trkpt lat="42.4160780" lon="-2.6999290">
        <ele>539.2</ele>
        <time>2022-08-29T05:21:43Z</time>
      </trkpt>
      <trkpt lat="42.4160790" lon="-2.6999290">
        <ele>539.4</ele>
        <time>2022-08-29T05:21:44Z</time>
      </trkpt>
      <trkpt lat="42.4160790" lon="-2.6999290">
        <ele>539.4</ele>
        <time>2022-08-29T05:21:45Z</time>
      </trkpt>
      <trkpt lat="42.4160790" lon="-2.6999290">
        <ele>539.6</ele>
        <time>2022-08-29T05:21:46Z</time>
      </trkpt>
      <trkpt lat="42.4160790" lon="-2.6999290">
        <ele>539.8</ele>
        <time>2022-08-29T05:21:47Z</time>
      </trkpt>
      <trkpt lat="42.4160790" lon="-2.6999290">
        <ele>539.8</ele>
        <time>2022-08-29T05:21:48Z</time>
      </trkpt>
      <trkpt lat="42.4160800" lon="-2.6999280">
        <ele>540.0</ele>
        <time>2022-08-29T05:21:49Z</time>
      </trkpt>
      <trkpt lat="42.4160800" lon="-2.6999270">
        <ele>540.0</ele>
        <time>2022-08-29T05:21:50Z</time>
      </trkpt>
      <trkpt lat="42.4160800" lon="-2.6999270">
        <ele>540.2</ele>
        <time>2022-08-29T05:21:51Z</time>
      </trkpt>
      <trkpt lat="42.4160800" lon="-2.6999270">
        <ele>540.2</ele>
        <time>2022-08-29T05:21:52Z</time>
      </trkpt>
      <trkpt lat="42.4160810" lon="-2.6999270">
        <ele>540.0</ele>
        <time>2022-08-29T05:21:53Z</time>
      </trkpt>
      <trkpt lat="42.4160820" lon="-2.6999270">
        <ele>540.2</ele>
        <time>2022-08-29T05:21:54Z</time>
      </trkpt>
      <trkpt lat="42.4160820" lon="-2.6999270">
        <ele>540.2</ele>
        <time>2022-08-29T05:21:55Z</time>
      </trkpt>
      <trkpt lat="42.4160820" lon="-2.6999270">
        <ele>540.4</ele>
        <time>2022-08-29T05:21:56Z</time>
      </trkpt>
      <trkpt lat="42.4160820" lon="-2.6999270">
        <ele>540.2</ele>
        <time>2022-08-29T05:21:57Z</time>
      </trkpt>
      <trkpt lat="42.4160800" lon="-2.6999300">
        <ele>540.2</ele>
        <time>2022-08-29T05:21:58Z</time>
      </trkpt>
      <trkpt lat="42.4160730" lon="-2.6999370">
        <ele>540.2</ele>
        <time>2022-08-29T05:21:59Z</time>
      </trkpt>
      <trkpt lat="42.4160640" lon="-2.6999440">
        <ele>540.2</ele>
        <time>2022-08-29T05:22:00Z</time>
      </trkpt>
      <trkpt lat="42.4160490" lon="-2.6999590">
        <ele>540.2</ele>
        <time>2022-08-29T05:22:01Z</time>
      </trkpt>
      <trkpt lat="42.4160310" lon="-2.6999730">
        <ele>540.2</ele>
        <time>2022-08-29T05:22:02Z</time>
      </trkpt>
      <trkpt lat="42.4160120" lon="-2.6999940">
        <ele>540.2</ele>
        <time>2022-08-29T05:22:03Z</time>
      </trkpt>
      <trkpt lat="42.4159910" lon="-2.7000190">
        <ele>540.2</ele>
        <time>2022-08-29T05:22:04Z</time>
      </trkpt>
      <trkpt lat="42.4159660" lon="-2.7000420">
        <ele>540.2</ele>
        <time>2022-08-29T05:22:05Z</time>
      </trkpt>
      <trkpt lat="42.4159380" lon="-2.7000640">
        <ele>540.2</ele>
        <time>2022-08-29T05:22:06Z</time>
      </trkpt>
      <trkpt lat="42.4159080" lon="-2.7000870">
        <ele>540.4</ele>
        <time>2022-08-29T05:22:07Z</time>
      </trkpt>
      <trkpt lat="42.4158770" lon="-2.7001100">
        <ele>540.4</ele>
        <time>2022-08-29T05:22:08Z</time>
      </trkpt>
      <trkpt lat="42.4158450" lon="-2.7001370">
        <ele>540.4</ele>
        <time>2022-08-29T05:22:09Z</time>
      </trkpt>
      <trkpt lat="42.4158150" lon="-2.7001720">
        <ele>540.4</ele>
        <time>2022-08-29T05:22:10Z</time>
      </trkpt>
      <trkpt lat="42.4157890" lon="-2.7002170">
        <ele>540.2</ele>
        <time>2022-08-29T05:22:11Z</time>
      </trkpt>
      <trkpt lat="42.4157690" lon="-2.7002670">
        <ele>540.2</ele>
        <time>2022-08-29T05:22:12Z</time>
      </trkpt>
      <trkpt lat="42.4157530" lon="-2.7003240">
        <ele>539.8</ele>
        <time>2022-08-29T05:22:13Z</time>
      </trkpt>
      <trkpt lat="42.4157380" lon="-2.7003870">
        <ele>539.8</ele>
        <time>2022-08-29T05:22:14Z</time>
      </trkpt>
      <trkpt lat="42.4157290" lon="-2.7004500">
        <ele>539.6</ele>
        <time>2022-08-29T05:22:15Z</time>
      </trkpt>
      <trkpt lat="42.4157220" lon="-2.7005180">
        <ele>539.4</ele>
        <time>2022-08-29T05:22:16Z</time>
      </trkpt>
      <trkpt lat="42.4157140" lon="-2.7005870">
        <ele>539.0</ele>
        <time>2022-08-29T05:22:17Z</time>
      </trkpt>
      <trkpt lat="42.4157070" lon="-2.7006560">
        <ele>539.0</ele>
        <time>2022-08-29T05:22:18Z</time>
      </trkpt>
      <trkpt lat="42.4157000" lon="-2.7007280">
        <ele>538.8</ele>
        <time>2022-08-29T05:22:19Z</time>
      </trkpt>
      <trkpt lat="42.4156930" lon="-2.7008000">
        <ele>538.4</ele>
        <time>2022-08-29T05:22:20Z</time>
      </trkpt>
      <trkpt lat="42.4156860" lon="-2.7008720">
        <ele>538.2</ele>
        <time>2022-08-29T05:22:21Z</time>
      </trkpt>
      <trkpt lat="42.4156780" lon="-2.7009490">
        <ele>538.0</ele>
        <time>2022-08-29T05:22:22Z</time>
      </trkpt>
      <trkpt lat="42.4156710" lon="-2.7010250">
        <ele>538.0</ele>
        <time>2022-08-29T05:22:23Z</time>
      </trkpt>
      <trkpt lat="42.4156630" lon="-2.7011050">
        <ele>537.6</ele>
        <time>2022-08-29T05:22:24Z</time>
      </trkpt>
      <trkpt lat="42.4156560" lon="-2.7011810">
        <ele>537.6</ele>
        <time>2022-08-29T05:22:25Z</time>
      </trkpt>
      <trkpt lat="42.4156520" lon="-2.7012530">
        <ele>537.4</ele>
        <time>2022-08-29T05:22:26Z</time>
      </trkpt>
      <trkpt lat="42.4156450" lon="-2.7013260">
        <ele>537.4</ele>
        <time>2022-08-29T05:22:27Z</time>
      </trkpt>
      <trkpt lat="42.4156350" lon="-2.7014010">
        <ele>537.4</ele>
        <time>2022-08-29T05:22:28Z</time>
      </trkpt>
      <trkpt lat="42.4156220" lon="-2.7014770">
        <ele>537.2</ele>
        <time>2022-08-29T05:22:29Z</time>
      </trkpt>
      <trkpt lat="42.4156080" lon="-2.7015500">
        <ele>536.8</ele>
        <time>2022-08-29T05:22:30Z</time>
      </trkpt>
      <trkpt lat="42.4155940" lon="-2.7016220">
        <ele>536.8</ele>
        <time>2022-08-29T05:22:31Z</time>
      </trkpt>
      <trkpt lat="42.4155810" lon="-2.7016920">
        <ele>536.8</ele>
        <time>2022-08-29T05:22:32Z</time>
      </trkpt>
      <trkpt lat="42.4155690" lon="-2.7017620">
        <ele>536.8</ele>
        <time>2022-08-29T05:22:33Z</time>
      </trkpt>
      <trkpt lat="42.4155550" lon="-2.7018320">
        <ele>536.8</ele>
        <time>2022-08-29T05:22:34Z</time>
      </trkpt>
      <trkpt lat="42.4155400" lon="-2.7019060">
        <ele>536.6</ele>
        <time>2022-08-29T05:22:35Z</time>
      </trkpt>
      <trkpt lat="42.4155230" lon="-2.7019790">
        <ele>536.6</ele>
        <time>2022-08-29T05:22:36Z</time>
      </trkpt>
      <trkpt lat="42.4155080" lon="-2.7020510">
        <ele>536.6</ele>
        <time>2022-08-29T05:22:37Z</time>
      </trkpt>
      <trkpt lat="42.4154940" lon="-2.7021240">
        <ele>536.6</ele>
        <time>2022-08-29T05:22:38Z</time>
      </trkpt>
      <trkpt lat="42.4154750" lon="-2.7021940">
        <ele>536.4</ele>
        <time>2022-08-29T05:22:39Z</time>
      </trkpt>
      <trkpt lat="42.4154560" lon="-2.7022630">
        <ele>536.2</ele>
        <time>2022-08-29T05:22:40Z</time>
      </trkpt>
      <trkpt lat="42.4154390" lon="-2.7023310">
        <ele>536.2</ele>
        <time>2022-08-29T05:22:41Z</time>
      </trkpt>
      <trkpt lat="42.4154260" lon="-2.7023950">
        <ele>536.2</ele>
        <time>2022-08-29T05:22:42Z</time>
      </trkpt>
      <trkpt lat="42.4154140" lon="-2.7024540">
        <ele>536.2</ele>
        <time>2022-08-29T05:22:43Z</time>
      </trkpt>
      <trkpt lat="42.4154100" lon="-2.7025080">
        <ele>536.2</ele>
        <time>2022-08-29T05:22:44Z</time>
      </trkpt>
      <trkpt lat="42.4154140" lon="-2.7025630">
        <ele>536.0</ele>
        <time>2022-08-29T05:22:45Z</time>
      </trkpt>
      <trkpt lat="42.4154220" lon="-2.7026190">
        <ele>536.0</ele>
        <time>2022-08-29T05:22:46Z</time>
      </trkpt>
      <trkpt lat="42.4154330" lon="-2.7026780">
        <ele>536.0</ele>
        <time>2022-08-29T05:22:47Z</time>
      </trkpt>
      <trkpt lat="42.4154470" lon="-2.7027360">
        <ele>536.0</ele>
        <time>2022-08-29T05:22:48Z</time>
      </trkpt>
      <trkpt lat="42.4154590" lon="-2.7027970">
        <ele>536.2</ele>
        <time>2022-08-29T05:22:49Z</time>
      </trkpt>
      <trkpt lat="42.4154660" lon="-2.7028600">
        <ele>536.0</ele>
        <time>2022-08-29T05:22:50Z</time>
      </trkpt>
      <trkpt lat="42.4154680" lon="-2.7029240">
        <ele>536.0</ele>
        <time>2022-08-29T05:22:51Z</time>
      </trkpt>
      <trkpt lat="42.4154740" lon="-2.7029880">
        <ele>536.0</ele>
        <time>2022-08-29T05:22:52Z</time>
      </trkpt>
      <trkpt lat="42.4154850" lon="-2.7030500">
        <ele>536.0</ele>
        <time>2022-08-29T05:22:53Z</time>
      </trkpt>
      <trkpt lat="42.4154980" lon="-2.7031120">
        <ele>536.0</ele>
        <time>2022-08-29T05:22:54Z</time>
      </trkpt>
      <trkpt lat="42.4155100" lon="-2.7031730">
        <ele>536.0</ele>
        <time>2022-08-29T05:22:55Z</time>
      </trkpt>
      <trkpt lat="42.4155190" lon="-2.7032340">
        <ele>536.0</ele>
        <time>2022-08-29T05:22:56Z</time>
      </trkpt>
      <trkpt lat="42.4155260" lon="-2.7032970">
        <ele>536.0</ele>
        <time>2022-08-29T05:22:57Z</time>
      </trkpt>
      <trkpt lat="42.4155310" lon="-2.7033560">
        <ele>536.0</ele>
        <time>2022-08-29T05:22:58Z</time>
      </trkpt>
      <trkpt lat="42.4155350" lon="-2.7034150">
        <ele>536.0</ele>
        <time>2022-08-29T05:22:59Z</time>
      </trkpt>
      <trkpt lat="42.4155390" lon="-2.7034730">
        <ele>536.0</ele>
        <time>2022-08-29T05:23:00Z</time>
      </trkpt>
      <trkpt lat="42.4155450" lon="-2.7035280">
        <ele>536.0</ele>
        <time>2022-08-29T05:23:01Z</time>
      </trkpt>
      <trkpt lat="42.4155500" lon="-2.7035810">
        <ele>536.2</ele>
        <time>2022-08-29T05:23:02Z</time>
      </trkpt>
      <trkpt lat="42.4155570" lon="-2.7036320">
        <ele>536.0</ele>
        <time>2022-08-29T05:23:03Z</time>
      </trkpt>
      <trkpt lat="42.4155660" lon="-2.7036800">
        <ele>536.2</ele>
        <time>2022-08-29T05:23:04Z</time>
      </trkpt>
      <trkpt lat="42.4155720" lon="-2.7037270">
        <ele>536.0</ele>
        <time>2022-08-29T05:23:05Z</time>
      </trkpt>
      <trkpt lat="42.4155780" lon="-2.7037740">
        <ele>536.2</ele>
        <time>2022-08-29T05:23:06Z</time>
      </trkpt>
      <trkpt lat="42.4155870" lon="-2.7038160">
        <ele>536.0</ele>
        <time>2022-08-29T05:23:07Z</time>
      </trkpt>
      <trkpt lat="42.4155950" lon="-2.7038580">
        <ele>536.2</ele>
        <time>2022-08-29T05:23:08Z</time>
      </trkpt>
      <trkpt lat="42.4156010" lon="-2.7038970">
        <ele>536.2</ele>
        <time>2022-08-29T05:23:09Z</time>
      </trkpt>
      <trkpt lat="42.4156070" lon="-2.7039360">
        <ele>536.4</ele>
        <time>2022-08-29T05:23:10Z</time>
      </trkpt>
      <trkpt lat="42.4156120" lon="-2.7039770">
        <ele>536.2</ele>
        <time>2022-08-29T05:23:11Z</time>
      </trkpt>
      <trkpt lat="42.4156190" lon="-2.7040220">
        <ele>536.2</ele>
        <time>2022-08-29T05:23:12Z</time>
      </trkpt>
      <trkpt lat="42.4156240" lon="-2.7040690">
        <ele>536.2</ele>
        <time>2022-08-29T05:23:13Z</time>
      </trkpt>
      <trkpt lat="42.4156290" lon="-2.7041170">
        <ele>536.2</ele>
        <time>2022-08-29T05:23:14Z</time>
      </trkpt>
      <trkpt lat="42.4156360" lon="-2.7041680">
        <ele>536.2</ele>
        <time>2022-08-29T05:23:15Z</time>
      </trkpt>
      <trkpt lat="42.4156440" lon="-2.7042230">
        <ele>536.2</ele>
        <time>2022-08-29T05:23:16Z</time>
      </trkpt>
      <trkpt lat="42.4156530" lon="-2.7042800">
        <ele>536.2</ele>
        <time>2022-08-29T05:23:17Z</time>
      </trkpt>
      <trkpt lat="42.4156620" lon="-2.7043370">
        <ele>536.2</ele>
        <time>2022-08-29T05:23:18Z</time>
      </trkpt>
      <trkpt lat="42.4156710" lon="-2.7043970">
        <ele>536.4</ele>
        <time>2022-08-29T05:23:19Z</time>
      </trkpt>
      <trkpt lat="42.4156800" lon="-2.7044540">
        <ele>536.4</ele>
        <time>2022-08-29T05:23:20Z</time>
      </trkpt>
      <trkpt lat="42.4156890" lon="-2.7045080">
        <ele>536.2</ele>
        <time>2022-08-29T05:23:21Z</time>
      </trkpt>
      <trkpt lat="42.4156980" lon="-2.7045600">
        <ele>536.4</ele>
        <time>2022-08-29T05:23:22Z</time>
      </trkpt>
      <trkpt lat="42.4157080" lon="-2.7046090">
        <ele>536.4</ele>
        <time>2022-08-29T05:23:23Z</time>
      </trkpt>
      <trkpt lat="42.4157170" lon="-2.7046570">
        <ele>536.4</ele>
        <time>2022-08-29T05:23:24Z</time>
      </trkpt>
      <trkpt lat="42.4157270" lon="-2.7047050">
        <ele>536.6</ele>
        <time>2022-08-29T05:23:25Z</time>
      </trkpt>
      <trkpt lat="42.4157330" lon="-2.7047540">
        <ele>536.4</ele>
        <time>2022-08-29T05:23:26Z</time>
      </trkpt>
      <trkpt lat="42.4157350" lon="-2.7048040">
        <ele>536.4</ele>
        <time>2022-08-29T05:23:27Z</time>
      </trkpt>
      <trkpt lat="42.4157390" lon="-2.7048560">
        <ele>536.4</ele>
        <time>2022-08-29T05:23:28Z</time>
      </trkpt>
      <trkpt lat="42.4157440" lon="-2.7049080">
        <ele>536.6</ele>
        <time>2022-08-29T05:23:29Z</time>
      </trkpt>
      <trkpt lat="42.4157510" lon="-2.7049610">
        <ele>536.6</ele>
        <time>2022-08-29T05:23:30Z</time>
      </trkpt>
      <trkpt lat="42.4157560" lon="-2.7050160">
        <ele>536.6</ele>
        <time>2022-08-29T05:23:31Z</time>
      </trkpt>
      <trkpt lat="42.4157560" lon="-2.7050730">
        <ele>536.6</ele>
        <time>2022-08-29T05:23:32Z</time>
      </trkpt>
      <trkpt lat="42.4157530" lon="-2.7051300">
        <ele>536.8</ele>
        <time>2022-08-29T05:23:33Z</time>
      </trkpt>
      <trkpt lat="42.4157530" lon="-2.7051870">
        <ele>536.8</ele>
        <time>2022-08-29T05:23:34Z</time>
      </trkpt>
      <trkpt lat="42.4157540" lon="-2.7052460">
        <ele>536.8</ele>
        <time>2022-08-29T05:23:35Z</time>
      </trkpt>
      <trkpt lat="42.4157560" lon="-2.7053040">
        <ele>536.6</ele>
        <time>2022-08-29T05:23:36Z</time>
      </trkpt>
      <trkpt lat="42.4157580" lon="-2.7053640">
        <ele>536.6</ele>
        <time>2022-08-29T05:23:37Z</time>
      </trkpt>
      <trkpt lat="42.4157600" lon="-2.7054220">
        <ele>536.8</ele>
        <time>2022-08-29T05:23:38Z</time>
      </trkpt>
      <trkpt lat="42.4157620" lon="-2.7054810">
        <ele>536.6</ele>
        <time>2022-08-29T05:23:39Z</time>
      </trkpt>
      <trkpt lat="42.4157640" lon="-2.7055390">
        <ele>536.6</ele>
        <time>2022-08-29T05:23:40Z</time>
      </trkpt>
      <trkpt lat="42.4157680" lon="-2.7055970">
        <ele>536.6</ele>
        <time>2022-08-29T05:23:41Z</time>
      </trkpt>
      <trkpt lat="42.4157740" lon="-2.7056530">
        <ele>536.6</ele>
        <time>2022-08-29T05:23:42Z</time>
      </trkpt>
      <trkpt lat="42.4157780" lon="-2.7057100">
        <ele>536.6</ele>
        <time>2022-08-29T05:23:43Z</time>
      </trkpt>
      <trkpt lat="42.4157820" lon="-2.7057690">
        <ele>536.8</ele>
        <time>2022-08-29T05:23:44Z</time>
      </trkpt>
      <trkpt lat="42.4157860" lon="-2.7058290">
        <ele>536.6</ele>
        <time>2022-08-29T05:23:45Z</time>
      </trkpt>
      <trkpt lat="42.4157920" lon="-2.7058900">
        <ele>536.8</ele>
        <time>2022-08-29T05:23:46Z</time>
      </trkpt>
      <trkpt lat="42.4157980" lon="-2.7059500">
        <ele>536.6</ele>
        <time>2022-08-29T05:23:47Z</time>
      </trkpt>
      <trkpt lat="42.4158050" lon="-2.7060110">
        <ele>536.8</ele>
        <time>2022-08-29T05:23:48Z</time>
      </trkpt>
      <trkpt lat="42.4158100" lon="-2.7060720">
        <ele>536.6</ele>
        <time>2022-08-29T05:23:49Z</time>
      </trkpt>
      <trkpt lat="42.4158150" lon="-2.7061350">
        <ele>536.6</ele>
        <time>2022-08-29T05:23:50Z</time>
      </trkpt>
      <trkpt lat="42.4158210" lon="-2.7062000">
        <ele>536.6</ele>
        <time>2022-08-29T05:23:51Z</time>
      </trkpt>
      <trkpt lat="42.4158260" lon="-2.7062660">
        <ele>536.8</ele>
        <time>2022-08-29T05:23:52Z</time>
      </trkpt>
      <trkpt lat="42.4158320" lon="-2.7063310">
        <ele>536.6</ele>
        <time>2022-08-29T05:23:53Z</time>
      </trkpt>
      <trkpt lat="42.4158380" lon="-2.7063960">
        <ele>536.6</ele>
        <time>2022-08-29T05:23:54Z</time>
      </trkpt>
      <trkpt lat="42.4158430" lon="-2.7064610">
        <ele>536.6</ele>
        <time>2022-08-29T05:23:55Z</time>
      </trkpt>
      <trkpt lat="42.4158480" lon="-2.7065250">
        <ele>536.8</ele>
        <time>2022-08-29T05:23:56Z</time>
      </trkpt>
      <trkpt lat="42.4158510" lon="-2.7065880">
        <ele>536.8</ele>
        <time>2022-08-29T05:23:57Z</time>
      </trkpt>
      <trkpt lat="42.4158520" lon="-2.7066490">
        <ele>536.8</ele>
        <time>2022-08-29T05:23:58Z</time>
      </trkpt>
      <trkpt lat="42.4158530" lon="-2.7067100">
        <ele>536.8</ele>
        <time>2022-08-29T05:23:59Z</time>
      </trkpt>
      <trkpt lat="42.4158550" lon="-2.7067710">
        <ele>536.8</ele>
        <time>2022-08-29T05:24:00Z</time>
      </trkpt>
      <trkpt lat="42.4158550" lon="-2.7068330">
        <ele>536.8</ele>
        <time>2022-08-29T05:24:01Z</time>
      </trkpt>
      <trkpt lat="42.4158550" lon="-2.7068960">
        <ele>536.6</ele>
        <time>2022-08-29T05:24:02Z</time>
      </trkpt>
      <trkpt lat="42.4158540" lon="-2.7069590">
        <ele>536.8</ele>
        <time>2022-08-29T05:24:03Z</time>
      </trkpt>
      <trkpt lat="42.4158510" lon="-2.7070230">
        <ele>536.6</ele>
        <time>2022-08-29T05:24:04Z</time>
      </trkpt>
      <trkpt lat="42.4158520" lon="-2.7070880">
        <ele>536.6</ele>
        <time>2022-08-29T05:24:05Z</time>
      </trkpt>
      <trkpt lat="42.4158550" lon="-2.7071540">
        <ele>536.6</ele>
        <time>2022-08-29T05:24:06Z</time>
      </trkpt>
      <trkpt lat="42.4158610" lon="-2.7072200">
        <ele>536.6</ele>
        <time>2022-08-29T05:24:07Z</time>
      </trkpt>
      <trkpt lat="42.4158680" lon="-2.7072850">
        <ele>536.6</ele>
        <time>2022-08-29T05:24:08Z</time>
      </trkpt>
      <trkpt lat="42.4158750" lon="-2.7073500">
        <ele>536.6</ele>
        <time>2022-08-29T05:24:09Z</time>
      </trkpt>
      <trkpt lat="42.4158810" lon="-2.7074150">
        <ele>536.4</ele>
        <time>2022-08-29T05:24:10Z</time>
      </trkpt>
      <trkpt lat="42.4158880" lon="-2.7074810">
        <ele>536.6</ele>
        <time>2022-08-29T05:24:11Z</time>
      </trkpt>
      <trkpt lat="42.4158990" lon="-2.7075510">
        <ele>536.8</ele>
        <time>2022-08-29T05:24:12Z</time>
      </trkpt>
      <trkpt lat="42.4159120" lon="-2.7076220">
        <ele>536.6</ele>
        <time>2022-08-29T05:24:13Z</time>
      </trkpt>
      <trkpt lat="42.4159240" lon="-2.7076920">
        <ele>536.6</ele>
        <time>2022-08-29T05:24:14Z</time>
      </trkpt>
      <trkpt lat="42.4159330" lon="-2.7077610">
        <ele>536.4</ele>
        <time>2022-08-29T05:24:15Z</time>
      </trkpt>
      <trkpt lat="42.4159370" lon="-2.7078340">
        <ele>536.4</ele>
        <time>2022-08-29T05:24:16Z</time>
      </trkpt>
      <trkpt lat="42.4159390" lon="-2.7079040">
        <ele>536.6</ele>
        <time>2022-08-29T05:24:17Z</time>
      </trkpt>
      <trkpt lat="42.4159420" lon="-2.7079740">
        <ele>536.4</ele>
        <time>2022-08-29T05:24:18Z</time>
      </trkpt>
      <trkpt lat="42.4159460" lon="-2.7080400">
        <ele>536.4</ele>
        <time>2022-08-29T05:24:19Z</time>
      </trkpt>
      <trkpt lat="42.4159510" lon="-2.7081040">
        <ele>536.4</ele>
        <time>2022-08-29T05:24:20Z</time>
      </trkpt>
      <trkpt lat="42.4159600" lon="-2.7081660">
        <ele>536.2</ele>
        <time>2022-08-29T05:24:21Z</time>
      </trkpt>
      <trkpt lat="42.4159730" lon="-2.7082250">
        <ele>536.2</ele>
        <time>2022-08-29T05:24:22Z</time>
      </trkpt>
      <trkpt lat="42.4159850" lon="-2.7082860">
        <ele>536.0</ele>
        <time>2022-08-29T05:24:23Z</time>
      </trkpt>
      <trkpt lat="42.4159930" lon="-2.7083500">
        <ele>536.0</ele>
        <time>2022-08-29T05:24:24Z</time>
      </trkpt>
      <trkpt lat="42.4160010" lon="-2.7084120">
        <ele>535.8</ele>
        <time>2022-08-29T05:24:25Z</time>
      </trkpt>
      <trkpt lat="42.4160070" lon="-2.7084760">
        <ele>535.8</ele>
        <time>2022-08-29T05:24:26Z</time>
      </trkpt>
      <trkpt lat="42.4160110" lon="-2.7085410">
        <ele>535.8</ele>
        <time>2022-08-29T05:24:27Z</time>
      </trkpt>
      <trkpt lat="42.4160160" lon="-2.7086080">
        <ele>535.6</ele>
        <time>2022-08-29T05:24:28Z</time>
      </trkpt>
      <trkpt lat="42.4160240" lon="-2.7086770">
        <ele>535.6</ele>
        <time>2022-08-29T05:24:29Z</time>
      </trkpt>
      <trkpt lat="42.4160330" lon="-2.7087480">
        <ele>535.6</ele>
        <time>2022-08-29T05:24:30Z</time>
      </trkpt>
      <trkpt lat="42.4160430" lon="-2.7088180">
        <ele>535.6</ele>
        <time>2022-08-29T05:24:31Z</time>
      </trkpt>
      <trkpt lat="42.4160540" lon="-2.7088880">
        <ele>535.4</ele>
        <time>2022-08-29T05:24:32Z</time>
      </trkpt>
      <trkpt lat="42.4160670" lon="-2.7089570">
        <ele>535.4</ele>
        <time>2022-08-29T05:24:33Z</time>
      </trkpt>
      <trkpt lat="42.4160820" lon="-2.7090240">
        <ele>535.4</ele>
        <time>2022-08-29T05:24:34Z</time>
      </trkpt>
      <trkpt lat="42.4160940" lon="-2.7090890">
        <ele>535.2</ele>
        <time>2022-08-29T05:24:35Z</time>
      </trkpt>
      <trkpt lat="42.4161050" lon="-2.7091540">
        <ele>535.2</ele>
        <time>2022-08-29T05:24:36Z</time>
      </trkpt>
      <trkpt lat="42.4161170" lon="-2.7092220">
        <ele>535.2</ele>
        <time>2022-08-29T05:24:37Z</time>
      </trkpt>
      <trkpt lat="42.4161310" lon="-2.7092910">
        <ele>535.2</ele>
        <time>2022-08-29T05:24:38Z</time>
      </trkpt>
      <trkpt lat="42.4161410" lon="-2.7093600">
        <ele>535.0</ele>
        <time>2022-08-29T05:24:39Z</time>
      </trkpt>
      <trkpt lat="42.4161480" lon="-2.7094320">
        <ele>535.0</ele>
        <time>2022-08-29T05:24:40Z</time>
      </trkpt>
      <trkpt lat="42.4161500" lon="-2.7095030">
        <ele>535.0</ele>
        <time>2022-08-29T05:24:41Z</time>
      </trkpt>
      <trkpt lat="42.4161450" lon="-2.7095740">
        <ele>535.0</ele>
        <time>2022-08-29T05:24:42Z</time>
      </trkpt>
      <trkpt lat="42.4161350" lon="-2.7096400">
        <ele>535.0</ele>
        <time>2022-08-29T05:24:43Z</time>
      </trkpt>
      <trkpt lat="42.4161220" lon="-2.7097030">
        <ele>534.8</ele>
        <time>2022-08-29T05:24:44Z</time>
      </trkpt>
      <trkpt lat="42.4161100" lon="-2.7097660">
        <ele>534.8</ele>
        <time>2022-08-29T05:24:45Z</time>
      </trkpt>
      <trkpt lat="42.4161030" lon="-2.7098290">
        <ele>534.8</ele>
        <time>2022-08-29T05:24:46Z</time>
      </trkpt>
      <trkpt lat="42.4161010" lon="-2.7098930">
        <ele>534.8</ele>
        <time>2022-08-29T05:24:47Z</time>
      </trkpt>
      <trkpt lat="42.4161130" lon="-2.7099540">
        <ele>534.8</ele>
        <time>2022-08-29T05:24:48Z</time>
      </trkpt>
      <trkpt lat="42.4161390" lon="-2.7100140">
        <ele>534.8</ele>
        <time>2022-08-29T05:24:49Z</time>
      </trkpt>
      <trkpt lat="42.4161700" lon="-2.7100700">
        <ele>534.6</ele>
        <time>2022-08-29T05:24:50Z</time>
      </trkpt>
      <trkpt lat="42.4162030" lon="-2.7101260">
        <ele>534.6</ele>
        <time>2022-08-29T05:24:51Z</time>
      </trkpt>
      <trkpt lat="42.4162350" lon="-2.7101890">
        <ele>534.6</ele>
        <time>2022-08-29T05:24:52Z</time>
      </trkpt>
      <trkpt lat="42.4162630" lon="-2.7102580">
        <ele>534.6</ele>
        <time>2022-08-29T05:24:53Z</time>
      </trkpt>
      <trkpt lat="42.4162830" lon="-2.7103330">
        <ele>534.6</ele>
        <time>2022-08-29T05:24:54Z</time>
      </trkpt>
      <trkpt lat="42.4162980" lon="-2.7104100">
        <ele>534.4</ele>
        <time>2022-08-29T05:24:55Z</time>
      </trkpt>
      <trkpt lat="42.4163110" lon="-2.7104890">
        <ele>534.4</ele>
        <time>2022-08-29T05:24:56Z</time>
      </trkpt>
      <trkpt lat="42.4163250" lon="-2.7105670">
        <ele>534.2</ele>
        <time>2022-08-29T05:24:57Z</time>
      </trkpt>
      <trkpt lat="42.4163410" lon="-2.7106430">
        <ele>534.0</ele>
        <time>2022-08-29T05:24:58Z</time>
      </trkpt>
      <trkpt lat="42.4163600" lon="-2.7107170">
        <ele>533.8</ele>
        <time>2022-08-29T05:24:59Z</time>
      </trkpt>
      <trkpt lat="42.4163720" lon="-2.7107930">
        <ele>533.6</ele>
        <time>2022-08-29T05:25:00Z</time>
      </trkpt>
      <trkpt lat="42.4163820" lon="-2.7108660">
        <ele>533.2</ele>
        <time>2022-08-29T05:25:01Z</time>
      </trkpt>
      <trkpt lat="42.4163960" lon="-2.7109380">
        <ele>533.0</ele>
        <time>2022-08-29T05:25:02Z</time>
      </trkpt>
      <trkpt lat="42.4164110" lon="-2.7110060">
        <ele>532.6</ele>
        <time>2022-08-29T05:25:03Z</time>
      </trkpt>
      <trkpt lat="42.4164280" lon="-2.7110730">
        <ele>532.4</ele>
        <time>2022-08-29T05:25:04Z</time>
      </trkpt>
      <trkpt lat="42.4164410" lon="-2.7111370">
        <ele>532.4</ele>
        <time>2022-08-29T05:25:05Z</time>
      </trkpt>
      <trkpt lat="42.4164510" lon="-2.7112020">
        <ele>532.4</ele>
        <time>2022-08-29T05:25:06Z</time>
      </trkpt>
      <trkpt lat="42.4164610" lon="-2.7112680">
        <ele>532.2</ele>
        <time>2022-08-29T05:25:07Z</time>
      </trkpt>
      <trkpt lat="42.4164700" lon="-2.7113390">
        <ele>532.2</ele>
        <time>2022-08-29T05:25:08Z</time>
      </trkpt>
      <trkpt lat="42.4164810" lon="-2.7114130">
        <ele>532.0</ele>
        <time>2022-08-29T05:25:09Z</time>
      </trkpt>
      <trkpt lat="42.4164940" lon="-2.7114900">
        <ele>532.2</ele>
        <time>2022-08-29T05:25:10Z</time>
      </trkpt>
      <trkpt lat="42.4165080" lon="-2.7115680">
        <ele>532.2</ele>
        <time>2022-08-29T05:25:11Z</time>
      </trkpt>
      <trkpt lat="42.4165200" lon="-2.7116470">
        <ele>532.2</ele>
        <time>2022-08-29T05:25:12Z</time>
      </trkpt>
      <trkpt lat="42.4165320" lon="-2.7117240">
        <ele>532.0</ele>
        <time>2022-08-29T05:25:13Z</time>
      </trkpt>
      <trkpt lat="42.4165440" lon="-2.7118020">
        <ele>532.0</ele>
        <time>2022-08-29T05:25:14Z</time>
      </trkpt>
      <trkpt lat="42.4165550" lon="-2.7118790">
        <ele>531.8</ele>
        <time>2022-08-29T05:25:15Z</time>
      </trkpt>
      <trkpt lat="42.4165660" lon="-2.7119540">
        <ele>531.8</ele>
        <time>2022-08-29T05:25:16Z</time>
      </trkpt>
      <trkpt lat="42.4165760" lon="-2.7120300">
        <ele>531.8</ele>
        <time>2022-08-29T05:25:17Z</time>
      </trkpt>
      <trkpt lat="42.4165850" lon="-2.7121050">
        <ele>531.6</ele>
        <time>2022-08-29T05:25:18Z</time>
      </trkpt>
      <trkpt lat="42.4165980" lon="-2.7121760">
        <ele>531.6</ele>
        <time>2022-08-29T05:25:19Z</time>
      </trkpt>
      <trkpt lat="42.4166130" lon="-2.7122460">
        <ele>531.4</ele>
        <time>2022-08-29T05:25:20Z</time>
      </trkpt>
      <trkpt lat="42.4166300" lon="-2.7123170">
        <ele>531.4</ele>
        <time>2022-08-29T05:25:21Z</time>
      </trkpt>
      <trkpt lat="42.4166450" lon="-2.7123870">
        <ele>530.8</ele>
        <time>2022-08-29T05:25:22Z</time>
      </trkpt>
      <trkpt lat="42.4166590" lon="-2.7124570">
        <ele>530.8</ele>
        <time>2022-08-29T05:25:23Z</time>
      </trkpt>
      <trkpt lat="42.4166730" lon="-2.7125280">
        <ele>530.8</ele>
        <time>2022-08-29T05:25:24Z</time>
      </trkpt>
      <trkpt lat="42.4166880" lon="-2.7125960">
        <ele>530.6</ele>
        <time>2022-08-29T05:25:25Z</time>
      </trkpt>
      <trkpt lat="42.4167010" lon="-2.7126630">
        <ele>530.4</ele>
        <time>2022-08-29T05:25:26Z</time>
      </trkpt>
      <trkpt lat="42.4167120" lon="-2.7127320">
        <ele>530.4</ele>
        <time>2022-08-29T05:25:27Z</time>
      </trkpt>
      <trkpt lat="42.4167220" lon="-2.7127990">
        <ele>530.2</ele>
        <time>2022-08-29T05:25:28Z</time>
      </trkpt>
      <trkpt lat="42.4167350" lon="-2.7128660">
        <ele>530.2</ele>
        <time>2022-08-29T05:25:29Z</time>
      </trkpt>
      <trkpt lat="42.4167480" lon="-2.7129290">
        <ele>530.2</ele>
        <time>2022-08-29T05:25:30Z</time>
      </trkpt>
      <trkpt lat="42.4167630" lon="-2.7129890">
        <ele>530.0</ele>
        <time>2022-08-29T05:25:31Z</time>
      </trkpt>
      <trkpt lat="42.4167790" lon="-2.7130490">
        <ele>530.0</ele>
        <time>2022-08-29T05:25:32Z</time>
      </trkpt>
      <trkpt lat="42.4167930" lon="-2.7131060">
        <ele>529.8</ele>
        <time>2022-08-29T05:25:33Z</time>
      </trkpt>
      <trkpt lat="42.4168070" lon="-2.7131640">
        <ele>529.4</ele>
        <time>2022-08-29T05:25:34Z</time>
      </trkpt>
      <trkpt lat="42.4168190" lon="-2.7132230">
        <ele>529.4</ele>
        <time>2022-08-29T05:25:35Z</time>
      </trkpt>
      <trkpt lat="42.4168320" lon="-2.7132800">
        <ele>529.2</ele>
        <time>2022-08-29T05:25:36Z</time>
      </trkpt>
      <trkpt lat="42.4168470" lon="-2.7133370">
        <ele>529.2</ele>
        <time>2022-08-29T05:25:37Z</time>
      </trkpt>
      <trkpt lat="42.4168630" lon="-2.7133900">
        <ele>529.2</ele>
        <time>2022-08-29T05:25:38Z</time>
      </trkpt>
      <trkpt lat="42.4168780" lon="-2.7134440">
        <ele>529.0</ele>
        <time>2022-08-29T05:25:39Z</time>
      </trkpt>
      <trkpt lat="42.4168930" lon="-2.7134980">
        <ele>529.0</ele>
        <time>2022-08-29T05:25:40Z</time>
      </trkpt>
      <trkpt lat="42.4169080" lon="-2.7135540">
        <ele>529.2</ele>
        <time>2022-08-29T05:25:41Z</time>
      </trkpt>
      <trkpt lat="42.4169220" lon="-2.7136130">
        <ele>529.0</ele>
        <time>2022-08-29T05:25:42Z</time>
      </trkpt>
      <trkpt lat="42.4169340" lon="-2.7136760">
        <ele>529.0</ele>
        <time>2022-08-29T05:25:43Z</time>
      </trkpt>
      <trkpt lat="42.4169470" lon="-2.7137360">
        <ele>529.0</ele>
        <time>2022-08-29T05:25:44Z</time>
      </trkpt>
      <trkpt lat="42.4169580" lon="-2.7137970">
        <ele>529.0</ele>
        <time>2022-08-29T05:25:45Z</time>
      </trkpt>
      <trkpt lat="42.4169680" lon="-2.7138590">
        <ele>529.0</ele>
        <time>2022-08-29T05:25:46Z</time>
      </trkpt>
      <trkpt lat="42.4169810" lon="-2.7139210">
        <ele>529.0</ele>
        <time>2022-08-29T05:25:47Z</time>
      </trkpt>
      <trkpt lat="42.4169970" lon="-2.7139830">
        <ele>529.0</ele>
        <time>2022-08-29T05:25:48Z</time>
      </trkpt>
      <trkpt lat="42.4170150" lon="-2.7140470">
        <ele>529.0</ele>
        <time>2022-08-29T05:25:49Z</time>
      </trkpt>
      <trkpt lat="42.4170340" lon="-2.7141150">
        <ele>529.0</ele>
        <time>2022-08-29T05:25:50Z</time>
      </trkpt>
      <trkpt lat="42.4170540" lon="-2.7141850">
        <ele>529.0</ele>
        <time>2022-08-29T05:25:51Z</time>
      </trkpt>
      <trkpt lat="42.4170720" lon="-2.7142570">
        <ele>529.0</ele>
        <time>2022-08-29T05:25:52Z</time>
      </trkpt>
      <trkpt lat="42.4170920" lon="-2.7143290">
        <ele>528.8</ele>
        <time>2022-08-29T05:25:53Z</time>
      </trkpt>
      <trkpt lat="42.4171140" lon="-2.7144010">
        <ele>528.6</ele>
        <time>2022-08-29T05:25:54Z</time>
      </trkpt>
      <trkpt lat="42.4171370" lon="-2.7144740">
        <ele>528.6</ele>
        <time>2022-08-29T05:25:55Z</time>
      </trkpt>
      <trkpt lat="42.4171590" lon="-2.7145470">
        <ele>528.6</ele>
        <time>2022-08-29T05:25:56Z</time>
      </trkpt>
      <trkpt lat="42.4171770" lon="-2.7146210">
        <ele>528.4</ele>
        <time>2022-08-29T05:25:57Z</time>
      </trkpt>
      <trkpt lat="42.4171900" lon="-2.7146980">
        <ele>528.2</ele>
        <time>2022-08-29T05:25:58Z</time>
      </trkpt>
      <trkpt lat="42.4172000" lon="-2.7147730">
        <ele>528.0</ele>
        <time>2022-08-29T05:25:59Z</time>
      </trkpt>
      <trkpt lat="42.4172170" lon="-2.7148480">
        <ele>527.4</ele>
        <time>2022-08-29T05:26:00Z</time>
      </trkpt>
      <trkpt lat="42.4172470" lon="-2.7149120">
        <ele>527.0</ele>
        <time>2022-08-29T05:26:01Z</time>
      </trkpt>
      <trkpt lat="42.4172870" lon="-2.7149650">
        <ele>526.8</ele>
        <time>2022-08-29T05:26:02Z</time>
      </trkpt>
      <trkpt lat="42.4173310" lon="-2.7150070">
        <ele>526.6</ele>
        <time>2022-08-29T05:26:03Z</time>
      </trkpt>
      <trkpt lat="42.4173740" lon="-2.7150430">
        <ele>526.6</ele>
        <time>2022-08-29T05:26:04Z</time>
      </trkpt>
      <trkpt lat="42.4174160" lon="-2.7150800">
        <ele>526.6</ele>
        <time>2022-08-29T05:26:05Z</time>
      </trkpt>
      <trkpt lat="42.4174610" lon="-2.7151220">
        <ele>526.6</ele>
        <time>2022-08-29T05:26:06Z</time>
      </trkpt>
      <trkpt lat="42.4175080" lon="-2.7151620">
        <ele>526.2</ele>
        <time>2022-08-29T05:26:07Z</time>
      </trkpt>
      <trkpt lat="42.4175530" lon="-2.7152000">
        <ele>526.2</ele>
        <time>2022-08-29T05:26:08Z</time>
      </trkpt>
      <trkpt lat="42.4175960" lon="-2.7152380">
        <ele>526.2</ele>
        <time>2022-08-29T05:26:09Z</time>
      </trkpt>
      <trkpt lat="42.4176380" lon="-2.7152770">
        <ele>526.0</ele>
        <time>2022-08-29T05:26:10Z</time>
      </trkpt>
      <trkpt lat="42.4176770" lon="-2.7153170">
        <ele>525.8</ele>
        <time>2022-08-29T05:26:11Z</time>
      </trkpt>
      <trkpt lat="42.4177070" lon="-2.7153600">
        <ele>525.6</ele>
        <time>2022-08-29T05:26:12Z</time>
      </trkpt>
      <trkpt lat="42.4177240" lon="-2.7154070">
        <ele>525.6</ele>
        <time>2022-08-29T05:26:13Z</time>
      </trkpt>
      <trkpt lat="42.4177220" lon="-2.7154600">
        <ele>525.6</ele>
        <time>2022-08-29T05:26:14Z</time>
      </trkpt>
      <trkpt lat="42.4177130" lon="-2.7155070">
        <ele>525.6</ele>
        <time>2022-08-29T05:26:15Z</time>
      </trkpt>
      <trkpt lat="42.4177050" lon="-2.7155490">
        <ele>525.4</ele>
        <time>2022-08-29T05:26:16Z</time>
      </trkpt>
      <trkpt lat="42.4176940" lon="-2.7155930">
        <ele>525.4</ele>
        <time>2022-08-29T05:26:17Z</time>
      </trkpt>
      <trkpt lat="42.4176790" lon="-2.7156420">
        <ele>525.4</ele>
        <time>2022-08-29T05:26:18Z</time>
      </trkpt>
      <trkpt lat="42.4176630" lon="-2.7156960">
        <ele>525.4</ele>
        <time>2022-08-29T05:26:19Z</time>
      </trkpt>
      <trkpt lat="42.4176470" lon="-2.7157550">
        <ele>525.4</ele>
        <time>2022-08-29T05:26:20Z</time>
      </trkpt>
      <trkpt lat="42.4176330" lon="-2.7158170">
        <ele>525.6</ele>
        <time>2022-08-29T05:26:21Z</time>
      </trkpt>
      <trkpt lat="42.4176230" lon="-2.7158820">
        <ele>525.4</ele>
        <time>2022-08-29T05:26:22Z</time>
      </trkpt>
      <trkpt lat="42.4176170" lon="-2.7159530">
        <ele>525.4</ele>
        <time>2022-08-29T05:26:23Z</time>
      </trkpt>
      <trkpt lat="42.4176240" lon="-2.7160210">
        <ele>525.6</ele>
        <time>2022-08-29T05:26:24Z</time>
      </trkpt>
      <trkpt lat="42.4176400" lon="-2.7160890">
        <ele>525.4</ele>
        <time>2022-08-29T05:26:25Z</time>
      </trkpt>
      <trkpt lat="42.4176610" lon="-2.7161560">
        <ele>525.4</ele>
        <time>2022-08-29T05:26:26Z</time>
      </trkpt>
      <trkpt lat="42.4176840" lon="-2.7162210">
        <ele>525.4</ele>
        <time>2022-08-29T05:26:27Z</time>
      </trkpt>
      <trkpt lat="42.4177090" lon="-2.7162870">
        <ele>525.2</ele>
        <time>2022-08-29T05:26:28Z</time>
      </trkpt>
      <trkpt lat="42.4177350" lon="-2.7163520">
        <ele>525.4</ele>
        <time>2022-08-29T05:26:29Z</time>
      </trkpt>
      <trkpt lat="42.4177610" lon="-2.7164190">
        <ele>525.2</ele>
        <time>2022-08-29T05:26:30Z</time>
      </trkpt>
      <trkpt lat="42.4177860" lon="-2.7164880">
        <ele>525.2</ele>
        <time>2022-08-29T05:26:31Z</time>
      </trkpt>
      <trkpt lat="42.4178120" lon="-2.7165570">
        <ele>525.2</ele>
        <time>2022-08-29T05:26:32Z</time>
      </trkpt>
      <trkpt lat="42.4178370" lon="-2.7166240">
        <ele>525.0</ele>
        <time>2022-08-29T05:26:33Z</time>
      </trkpt>
      <trkpt lat="42.4178580" lon="-2.7166960">
        <ele>525.0</ele>
        <time>2022-08-29T05:26:34Z</time>
      </trkpt>
      <trkpt lat="42.4178780" lon="-2.7167660">
        <ele>525.0</ele>
        <time>2022-08-29T05:26:35Z</time>
      </trkpt>
      <trkpt lat="42.4178970" lon="-2.7168350">
        <ele>524.6</ele>
        <time>2022-08-29T05:26:36Z</time>
      </trkpt>
      <trkpt lat="42.4179160" lon="-2.7169030">
        <ele>524.2</ele>
        <time>2022-08-29T05:26:37Z</time>
      </trkpt>
      <trkpt lat="42.4179320" lon="-2.7169720">
        <ele>524.0</ele>
        <time>2022-08-29T05:26:38Z</time>
      </trkpt>
      <trkpt lat="42.4179480" lon="-2.7170400">
        <ele>524.0</ele>
        <time>2022-08-29T05:26:39Z</time>
      </trkpt>
      <trkpt lat="42.4179610" lon="-2.7171070">
        <ele>523.8</ele>
        <time>2022-08-29T05:26:40Z</time>
      </trkpt>
      <trkpt lat="42.4179710" lon="-2.7171760">
        <ele>523.6</ele>
        <time>2022-08-29T05:26:41Z</time>
      </trkpt>
      <trkpt lat="42.4179810" lon="-2.7172440">
        <ele>523.4</ele>
        <time>2022-08-29T05:26:42Z</time>
      </trkpt>
      <trkpt lat="42.4179930" lon="-2.7173100">
        <ele>523.4</ele>
        <time>2022-08-29T05:26:43Z</time>
      </trkpt>
      <trkpt lat="42.4180050" lon="-2.7173770">
        <ele>523.6</ele>
        <time>2022-08-29T05:26:44Z</time>
      </trkpt>
      <trkpt lat="42.4180130" lon="-2.7174480">
        <ele>523.4</ele>
        <time>2022-08-29T05:26:45Z</time>
      </trkpt>
      <trkpt lat="42.4180220" lon="-2.7175210">
        <ele>523.2</ele>
        <time>2022-08-29T05:26:46Z</time>
      </trkpt>
      <trkpt lat="42.4180290" lon="-2.7175960">
        <ele>523.2</ele>
        <time>2022-08-29T05:26:47Z</time>
      </trkpt>
      <trkpt lat="42.4180390" lon="-2.7176760">
        <ele>523.0</ele>
        <time>2022-08-29T05:26:48Z</time>
      </trkpt>
      <trkpt lat="42.4180500" lon="-2.7177580">
        <ele>523.0</ele>
        <time>2022-08-29T05:26:49Z</time>
      </trkpt>
      <trkpt lat="42.4180640" lon="-2.7178410">
        <ele>523.0</ele>
        <time>2022-08-29T05:26:50Z</time>
      </trkpt>
      <trkpt lat="42.4180850" lon="-2.7179240">
        <ele>522.8</ele>
        <time>2022-08-29T05:26:51Z</time>
      </trkpt>
      <trkpt lat="42.4181110" lon="-2.7180060">
        <ele>522.8</ele>
        <time>2022-08-29T05:26:52Z</time>
      </trkpt>
      <trkpt lat="42.4181390" lon="-2.7180860">
        <ele>522.8</ele>
        <time>2022-08-29T05:26:53Z</time>
      </trkpt>
      <trkpt lat="42.4181710" lon="-2.7181620">
        <ele>522.4</ele>
        <time>2022-08-29T05:26:54Z</time>
      </trkpt>
      <trkpt lat="42.4182010" lon="-2.7182340">
        <ele>522.4</ele>
        <time>2022-08-29T05:26:55Z</time>
      </trkpt>
      <trkpt lat="42.4182300" lon="-2.7183110">
        <ele>522.0</ele>
        <time>2022-08-29T05:26:56Z</time>
      </trkpt>
      <trkpt lat="42.4182590" lon="-2.7183880">
        <ele>521.8</ele>
        <time>2022-08-29T05:26:57Z</time>
      </trkpt>
      <trkpt lat="42.4182890" lon="-2.7184640">
        <ele>521.8</ele>
        <time>2022-08-29T05:26:58Z</time>
      </trkpt>
      <trkpt lat="42.4183190" lon="-2.7185410">
        <ele>521.6</ele>
        <time>2022-08-29T05:26:59Z</time>
      </trkpt>
      <trkpt lat="42.4183490" lon="-2.7186170">
        <ele>521.4</ele>
        <time>2022-08-29T05:27:00Z</time>
      </trkpt>
      <trkpt lat="42.4183800" lon="-2.7186930">
        <ele>521.0</ele>
        <time>2022-08-29T05:27:01Z</time>
      </trkpt>
      <trkpt lat="42.4184070" lon="-2.7187710">
        <ele>520.6</ele>
        <time>2022-08-29T05:27:02Z</time>
      </trkpt>
      <trkpt lat="42.4184310" lon="-2.7188480">
        <ele>520.4</ele>
        <time>2022-08-29T05:27:03Z</time>
      </trkpt>
      <trkpt lat="42.4184540" lon="-2.7189250">
        <ele>520.0</ele>
        <time>2022-08-29T05:27:04Z</time>
      </trkpt>
      <trkpt lat="42.4184740" lon="-2.7189980">
        <ele>519.2</ele>
        <time>2022-08-29T05:27:05Z</time>
      </trkpt>
      <trkpt lat="42.4184880" lon="-2.7190720">
        <ele>519.0</ele>
        <time>2022-08-29T05:27:06Z</time>
      </trkpt>
      <trkpt lat="42.4184990" lon="-2.7191460">
        <ele>518.8</ele>
        <time>2022-08-29T05:27:07Z</time>
      </trkpt>
      <trkpt lat="42.4185080" lon="-2.7192180">
        <ele>518.6</ele>
        <time>2022-08-29T05:27:08Z</time>
      </trkpt>
      <trkpt lat="42.4185170" lon="-2.7192910">
        <ele>518.4</ele>
        <time>2022-08-29T05:27:09Z</time>
      </trkpt>
      <trkpt lat="42.4185270" lon="-2.7193640">
        <ele>518.6</ele>
        <time>2022-08-29T05:27:10Z</time>
      </trkpt>
      <trkpt lat="42.4185380" lon="-2.7194370">
        <ele>518.4</ele>
        <time>2022-08-29T05:27:11Z</time>
      </trkpt>
      <trkpt lat="42.4185450" lon="-2.7195100">
        <ele>518.4</ele>
        <time>2022-08-29T05:27:12Z</time>
      </trkpt>
      <trkpt lat="42.4185540" lon="-2.7195820">
        <ele>518.4</ele>
        <time>2022-08-29T05:27:13Z</time>
      </trkpt>
      <trkpt lat="42.4185640" lon="-2.7196530">
        <ele>518.4</ele>
        <time>2022-08-29T05:27:14Z</time>
      </trkpt>
      <trkpt lat="42.4185720" lon="-2.7197230">
        <ele>518.2</ele>
        <time>2022-08-29T05:27:15Z</time>
      </trkpt>
      <trkpt lat="42.4185790" lon="-2.7197920">
        <ele>518.2</ele>
        <time>2022-08-29T05:27:16Z</time>
      </trkpt>
      <trkpt lat="42.4185830" lon="-2.7198620">
        <ele>518.2</ele>
        <time>2022-08-29T05:27:17Z</time>
      </trkpt>
      <trkpt lat="42.4185860" lon="-2.7199350">
        <ele>518.4</ele>
        <time>2022-08-29T05:27:18Z</time>
      </trkpt>
      <trkpt lat="42.4185920" lon="-2.7200100">
        <ele>518.2</ele>
        <time>2022-08-29T05:27:19Z</time>
      </trkpt>
      <trkpt lat="42.4185970" lon="-2.7200860">
        <ele>518.2</ele>
        <time>2022-08-29T05:27:20Z</time>
      </trkpt>
      <trkpt lat="42.4186000" lon="-2.7201620">
        <ele>518.0</ele>
        <time>2022-08-29T05:27:21Z</time>
      </trkpt>
      <trkpt lat="42.4186020" lon="-2.7202370">
        <ele>518.0</ele>
        <time>2022-08-29T05:27:22Z</time>
      </trkpt>
      <trkpt lat="42.4186050" lon="-2.7203120">
        <ele>518.0</ele>
        <time>2022-08-29T05:27:23Z</time>
      </trkpt>
      <trkpt lat="42.4186080" lon="-2.7203870">
        <ele>518.0</ele>
        <time>2022-08-29T05:27:24Z</time>
      </trkpt>
      <trkpt lat="42.4186110" lon="-2.7204620">
        <ele>517.8</ele>
        <time>2022-08-29T05:27:25Z</time>
      </trkpt>
      <trkpt lat="42.4186130" lon="-2.7205370">
        <ele>517.8</ele>
        <time>2022-08-29T05:27:26Z</time>
      </trkpt>
      <trkpt lat="42.4186150" lon="-2.7206120">
        <ele>517.6</ele>
        <time>2022-08-29T05:27:27Z</time>
      </trkpt>
      <trkpt lat="42.4186180" lon="-2.7206840">
        <ele>517.4</ele>
        <time>2022-08-29T05:27:28Z</time>
      </trkpt>
      <trkpt lat="42.4186180" lon="-2.7207500">
        <ele>517.0</ele>
        <time>2022-08-29T05:27:29Z</time>
      </trkpt>
      <trkpt lat="42.4186170" lon="-2.7208110">
        <ele>516.8</ele>
        <time>2022-08-29T05:27:30Z</time>
      </trkpt>
      <trkpt lat="42.4186170" lon="-2.7208670">
        <ele>516.8</ele>
        <time>2022-08-29T05:27:31Z</time>
      </trkpt>
      <trkpt lat="42.4186170" lon="-2.7209190">
        <ele>516.8</ele>
        <time>2022-08-29T05:27:32Z</time>
      </trkpt>
      <trkpt lat="42.4186160" lon="-2.7209690">
        <ele>516.8</ele>
        <time>2022-08-29T05:27:33Z</time>
      </trkpt>
      <trkpt lat="42.4186150" lon="-2.7210170">
        <ele>516.8</ele>
        <time>2022-08-29T05:27:34Z</time>
      </trkpt>
      <trkpt lat="42.4186150" lon="-2.7210620">
        <ele>516.6</ele>
        <time>2022-08-29T05:27:35Z</time>
      </trkpt>
      <trkpt lat="42.4186150" lon="-2.7211050">
        <ele>516.8</ele>
        <time>2022-08-29T05:27:36Z</time>
      </trkpt>
      <trkpt lat="42.4186140" lon="-2.7211440">
        <ele>516.8</ele>
        <time>2022-08-29T05:27:37Z</time>
      </trkpt>
      <trkpt lat="42.4186140" lon="-2.7211800">
        <ele>516.6</ele>
        <time>2022-08-29T05:27:38Z</time>
      </trkpt>
      <trkpt lat="42.4186170" lon="-2.7212130">
        <ele>516.6</ele>
        <time>2022-08-29T05:27:39Z</time>
      </trkpt>
      <trkpt lat="42.4186180" lon="-2.7212440">
        <ele>516.6</ele>
        <time>2022-08-29T05:27:40Z</time>
      </trkpt>
      <trkpt lat="42.4186190" lon="-2.7212750">
        <ele>516.6</ele>
        <time>2022-08-29T05:27:41Z</time>
      </trkpt>
      <trkpt lat="42.4186200" lon="-2.7213050">
        <ele>516.6</ele>
        <time>2022-08-29T05:27:42Z</time>
      </trkpt>
      <trkpt lat="42.4186210" lon="-2.7213330">
        <ele>516.6</ele>
        <time>2022-08-29T05:27:43Z</time>
      </trkpt>
      <trkpt lat="42.4186230" lon="-2.7213630">
        <ele>516.6</ele>
        <time>2022-08-29T05:27:44Z</time>
      </trkpt>
      <trkpt lat="42.4186250" lon="-2.7213940">
        <ele>516.6</ele>
        <time>2022-08-29T05:27:45Z</time>
      </trkpt>
      <trkpt lat="42.4186250" lon="-2.7214230">
        <ele>516.6</ele>
        <time>2022-08-29T05:27:46Z</time>
      </trkpt>
      <trkpt lat="42.4186230" lon="-2.7214530">
        <ele>516.6</ele>
        <time>2022-08-29T05:27:47Z</time>
      </trkpt>
      <trkpt lat="42.4186220" lon="-2.7214860">
        <ele>516.6</ele>
        <time>2022-08-29T05:27:48Z</time>
      </trkpt>
      <trkpt lat="42.4186220" lon="-2.7215240">
        <ele>516.6</ele>
        <time>2022-08-29T05:27:49Z</time>
      </trkpt>
      <trkpt lat="42.4186230" lon="-2.7215660">
        <ele>516.6</ele>
        <time>2022-08-29T05:27:50Z</time>
      </trkpt>
      <trkpt lat="42.4186220" lon="-2.7216080">
        <ele>516.6</ele>
        <time>2022-08-29T05:27:51Z</time>
      </trkpt>
      <trkpt lat="42.4186250" lon="-2.7216490">
        <ele>516.6</ele>
        <time>2022-08-29T05:27:52Z</time>
      </trkpt>
      <trkpt lat="42.4186310" lon="-2.7216940">
        <ele>516.6</ele>
        <time>2022-08-29T05:27:53Z</time>
      </trkpt>
      <trkpt lat="42.4186290" lon="-2.7217510">
        <ele>516.6</ele>
        <time>2022-08-29T05:27:54Z</time>
      </trkpt>
      <trkpt lat="42.4186290" lon="-2.7218090">
        <ele>516.6</ele>
        <time>2022-08-29T05:27:55Z</time>
      </trkpt>
      <trkpt lat="42.4186280" lon="-2.7218720">
        <ele>516.4</ele>
        <time>2022-08-29T05:27:56Z</time>
      </trkpt>
      <trkpt lat="42.4186220" lon="-2.7219380">
        <ele>516.6</ele>
        <time>2022-08-29T05:27:57Z</time>
      </trkpt>
      <trkpt lat="42.4186170" lon="-2.7220030">
        <ele>516.4</ele>
        <time>2022-08-29T05:27:58Z</time>
      </trkpt>
      <trkpt lat="42.4186150" lon="-2.7220720">
        <ele>516.4</ele>
        <time>2022-08-29T05:27:59Z</time>
      </trkpt>
      <trkpt lat="42.4186130" lon="-2.7221440">
        <ele>516.4</ele>
        <time>2022-08-29T05:28:00Z</time>
      </trkpt>
      <trkpt lat="42.4186080" lon="-2.7222140">
        <ele>516.0</ele>
        <time>2022-08-29T05:28:01Z</time>
      </trkpt>
      <trkpt lat="42.4186050" lon="-2.7222880">
        <ele>516.0</ele>
        <time>2022-08-29T05:28:02Z</time>
      </trkpt>
      <trkpt lat="42.4185990" lon="-2.7223580">
        <ele>515.8</ele>
        <time>2022-08-29T05:28:03Z</time>
      </trkpt>
      <trkpt lat="42.4185890" lon="-2.7224250">
        <ele>515.8</ele>
        <time>2022-08-29T05:28:04Z</time>
      </trkpt>
      <trkpt lat="42.4185730" lon="-2.7225040">
        <ele>515.6</ele>
        <time>2022-08-29T05:28:05Z</time>
      </trkpt>
      <trkpt lat="42.4185830" lon="-2.7225690">
        <ele>515.6</ele>
        <time>2022-08-29T05:28:06Z</time>
      </trkpt>
      <trkpt lat="42.4186050" lon="-2.7226240">
        <ele>515.6</ele>
        <time>2022-08-29T05:28:07Z</time>
      </trkpt>
      <trkpt lat="42.4186300" lon="-2.7226720">
        <ele>515.6</ele>
        <time>2022-08-29T05:28:08Z</time>
      </trkpt>
      <trkpt lat="42.4186610" lon="-2.7227000">
        <ele>515.6</ele>
        <time>2022-08-29T05:28:09Z</time>
      </trkpt>
      <trkpt lat="42.4187050" lon="-2.7226990">
        <ele>515.6</ele>
        <time>2022-08-29T05:28:10Z</time>
      </trkpt>
      <trkpt lat="42.4187410" lon="-2.7227080">
        <ele>515.6</ele>
        <time>2022-08-29T05:28:11Z</time>
      </trkpt>
      <trkpt lat="42.4187780" lon="-2.7227180">
        <ele>515.6</ele>
        <time>2022-08-29T05:28:12Z</time>
      </trkpt>
      <trkpt lat="42.4188130" lon="-2.7227260">
        <ele>515.6</ele>
        <time>2022-08-29T05:28:13Z</time>
      </trkpt>
      <trkpt lat="42.4188440" lon="-2.7227440">
        <ele>515.4</ele>
        <time>2022-08-29T05:28:14Z</time>
      </trkpt>
      <trkpt lat="42.4188790" lon="-2.7227540">
        <ele>515.4</ele>
        <time>2022-08-29T05:28:15Z</time>
      </trkpt>
      <trkpt lat="42.4189150" lon="-2.7227710">
        <ele>515.6</ele>
        <time>2022-08-29T05:28:16Z</time>
      </trkpt>
      <trkpt lat="42.4189500" lon="-2.7227850">
        <ele>515.4</ele>
        <time>2022-08-29T05:28:17Z</time>
      </trkpt>
      <trkpt lat="42.4189860" lon="-2.7227940">
        <ele>515.4</ele>
        <time>2022-08-29T05:28:18Z</time>
      </trkpt>
      <trkpt lat="42.4190220" lon="-2.7228080">
        <ele>515.4</ele>
        <time>2022-08-29T05:28:19Z</time>
      </trkpt>
      <trkpt lat="42.4190610" lon="-2.7228250">
        <ele>515.6</ele>
        <time>2022-08-29T05:28:20Z</time>
      </trkpt>
      <trkpt lat="42.4191000" lon="-2.7228440">
        <ele>515.6</ele>
        <time>2022-08-29T05:28:21Z</time>
      </trkpt>
      <trkpt lat="42.4191440" lon="-2.7228590">
        <ele>515.6</ele>
        <time>2022-08-29T05:28:22Z</time>
      </trkpt>
      <trkpt lat="42.4191870" lon="-2.7228730">
        <ele>515.6</ele>
        <time>2022-08-29T05:28:23Z</time>
      </trkpt>
      <trkpt lat="42.4192250" lon="-2.7228860">
        <ele>515.4</ele>
        <time>2022-08-29T05:28:24Z</time>
      </trkpt>
      <trkpt lat="42.4192620" lon="-2.7228960">
        <ele>515.4</ele>
        <time>2022-08-29T05:28:25Z</time>
      </trkpt>
      <trkpt lat="42.4192960" lon="-2.7229070">
        <ele>515.4</ele>
        <time>2022-08-29T05:28:26Z</time>
      </trkpt>
      <trkpt lat="42.4193290" lon="-2.7229150">
        <ele>515.4</ele>
        <time>2022-08-29T05:28:27Z</time>
      </trkpt>
      <trkpt lat="42.4193620" lon="-2.7229230">
        <ele>515.4</ele>
        <time>2022-08-29T05:28:28Z</time>
      </trkpt>
      <trkpt lat="42.4193920" lon="-2.7229290">
        <ele>515.6</ele>
        <time>2022-08-29T05:28:29Z</time>
      </trkpt>
      <trkpt lat="42.4194150" lon="-2.7229380">
        <ele>515.4</ele>
        <time>2022-08-29T05:28:30Z</time>
      </trkpt>
      <trkpt lat="42.4194330" lon="-2.7229460">
        <ele>515.4</ele>
        <time>2022-08-29T05:28:31Z</time>
      </trkpt>
      <trkpt lat="42.4194390" lon="-2.7229470">
        <ele>515.4</ele>
        <time>2022-08-29T05:28:32Z</time>
      </trkpt>
      <trkpt lat="42.4194410" lon="-2.7229470">
        <ele>515.4</ele>
        <time>2022-08-29T05:28:33Z</time>
      </trkpt>
      <trkpt lat="42.4194440" lon="-2.7229490">
        <ele>515.2</ele>
        <time>2022-08-29T05:28:34Z</time>
      </trkpt>
      <trkpt lat="42.4194490" lon="-2.7229510">
        <ele>515.2</ele>
        <time>2022-08-29T05:28:35Z</time>
      </trkpt>
      <trkpt lat="42.4194530" lon="-2.7229530">
        <ele>515.2</ele>
        <time>2022-08-29T05:28:36Z</time>
      </trkpt>
      <trkpt lat="42.4194540" lon="-2.7229530">
        <ele>515.2</ele>
        <time>2022-08-29T05:28:37Z</time>
      </trkpt>
      <trkpt lat="42.4194540" lon="-2.7229530">
        <ele>515.2</ele>
        <time>2022-08-29T05:28:38Z</time>
      </trkpt>
      <trkpt lat="42.4194540" lon="-2.7229530">
        <ele>515.0</ele>
        <time>2022-08-29T05:28:39Z</time>
      </trkpt>
      <trkpt lat="42.4194550" lon="-2.7229530">
        <ele>515.0</ele>
        <time>2022-08-29T05:28:40Z</time>
      </trkpt>
      <trkpt lat="42.4194550" lon="-2.7229540">
        <ele>515.2</ele>
        <time>2022-08-29T05:28:41Z</time>
      </trkpt>
      <trkpt lat="42.4194610" lon="-2.7229500">
        <ele>515.2</ele>
        <time>2022-08-29T05:28:42Z</time>
      </trkpt>
      <trkpt lat="42.4194720" lon="-2.7229430">
        <ele>515.0</ele>
        <time>2022-08-29T05:28:43Z</time>
      </trkpt>
      <trkpt lat="42.4194850" lon="-2.7229330">
        <ele>515.2</ele>
        <time>2022-08-29T05:28:44Z</time>
      </trkpt>
      <trkpt lat="42.4194970" lon="-2.7229180">
        <ele>515.0</ele>
        <time>2022-08-29T05:28:45Z</time>
      </trkpt>
      <trkpt lat="42.4195060" lon="-2.7228930">
        <ele>515.0</ele>
        <time>2022-08-29T05:28:46Z</time>
      </trkpt>
      <trkpt lat="42.4195100" lon="-2.7228640">
        <ele>515.0</ele>
        <time>2022-08-29T05:28:47Z</time>
      </trkpt>
      <trkpt lat="42.4195160" lon="-2.7228330">
        <ele>515.2</ele>
        <time>2022-08-29T05:28:48Z</time>
      </trkpt>
      <trkpt lat="42.4195260" lon="-2.7228050">
        <ele>515.0</ele>
        <time>2022-08-29T05:28:49Z</time>
      </trkpt>
      <trkpt lat="42.4195390" lon="-2.7227810">
        <ele>515.0</ele>
        <time>2022-08-29T05:28:50Z</time>
      </trkpt>
      <trkpt lat="42.4195510" lon="-2.7227600">
        <ele>515.2</ele>
        <time>2022-08-29T05:28:51Z</time>
      </trkpt>
      <trkpt lat="42.4195620" lon="-2.7227400">
        <ele>515.0</ele>
        <time>2022-08-29T05:28:52Z</time>
      </trkpt>
      <trkpt lat="42.4195740" lon="-2.7227250">
        <ele>514.8</ele>
        <time>2022-08-29T05:28:53Z</time>
      </trkpt>
      <trkpt lat="42.4195860" lon="-2.7227150">
        <ele>514.6</ele>
        <time>2022-08-29T05:28:54Z</time>
      </trkpt>
      <trkpt lat="42.4195970" lon="-2.7227120">
        <ele>514.8</ele>
        <time>2022-08-29T05:28:55Z</time>
      </trkpt>
      <trkpt lat="42.4196040" lon="-2.7227110">
        <ele>514.8</ele>
        <time>2022-08-29T05:28:56Z</time>
      </trkpt>
      <trkpt lat="42.4196070" lon="-2.7227100">
        <ele>514.6</ele>
        <time>2022-08-29T05:28:57Z</time>
      </trkpt>
      <trkpt lat="42.4196070" lon="-2.7227090">
        <ele>514.6</ele>
        <time>2022-08-29T05:28:58Z</time>
      </trkpt>
      <trkpt lat="42.4196100" lon="-2.7227070">
        <ele>514.8</ele>
        <time>2022-08-29T05:28:59Z</time>
      </trkpt>
      <trkpt lat="42.4196110" lon="-2.7227040">
        <ele>514.8</ele>
        <time>2022-08-29T05:29:00Z</time>
      </trkpt>
      <trkpt lat="42.4196120" lon="-2.7227010">
        <ele>514.8</ele>
        <time>2022-08-29T05:29:01Z</time>
      </trkpt>
      <trkpt lat="42.4196140" lon="-2.7226990">
        <ele>514.8</ele>
        <time>2022-08-29T05:29:02Z</time>
      </trkpt>
      <trkpt lat="42.4196160" lon="-2.7226970">
        <ele>514.6</ele>
        <time>2022-08-29T05:29:03Z</time>
      </trkpt>
      <trkpt lat="42.4196170" lon="-2.7226950">
        <ele>514.6</ele>
        <time>2022-08-29T05:29:04Z</time>
      </trkpt>
      <trkpt lat="42.4196190" lon="-2.7226930">
        <ele>514.8</ele>
        <time>2022-08-29T05:29:05Z</time>
      </trkpt>
      <trkpt lat="42.4196210" lon="-2.7226910">
        <ele>515.0</ele>
        <time>2022-08-29T05:29:06Z</time>
      </trkpt>
      <trkpt lat="42.4196240" lon="-2.7226890">
        <ele>515.2</ele>
        <time>2022-08-29T05:29:07Z</time>
      </trkpt>
      <trkpt lat="42.4196260" lon="-2.7226880">
        <ele>515.2</ele>
        <time>2022-08-29T05:29:08Z</time>
      </trkpt>
      <trkpt lat="42.4196280" lon="-2.7226870">
        <ele>515.2</ele>
        <time>2022-08-29T05:29:09Z</time>
      </trkpt>
      <trkpt lat="42.4196320" lon="-2.7226850">
        <ele>515.2</ele>
        <time>2022-08-29T05:29:10Z</time>
      </trkpt>
      <trkpt lat="42.4196320" lon="-2.7226850">
        <ele>515.2</ele>
        <time>2022-08-29T05:29:11Z</time>
      </trkpt>
      <trkpt lat="42.4196320" lon="-2.7226840">
        <ele>515.4</ele>
        <time>2022-08-29T05:29:12Z</time>
      </trkpt>
      <trkpt lat="42.4196330" lon="-2.7226840">
        <ele>515.4</ele>
        <time>2022-08-29T05:29:13Z</time>
      </trkpt>
      <trkpt lat="42.4196340" lon="-2.7226830">
        <ele>515.4</ele>
        <time>2022-08-29T05:29:14Z</time>
      </trkpt>
      <trkpt lat="42.4196350" lon="-2.7226850">
        <ele>515.2</ele>
        <time>2022-08-29T05:29:15Z</time>
      </trkpt>
      <trkpt lat="42.4196350" lon="-2.7226850">
        <ele>515.4</ele>
        <time>2022-08-29T05:29:16Z</time>
      </trkpt>
      <trkpt lat="42.4196370" lon="-2.7226850">
        <ele>515.2</ele>
        <time>2022-08-29T05:29:17Z</time>
      </trkpt>
      <trkpt lat="42.4196380" lon="-2.7226840">
        <ele>515.4</ele>
        <time>2022-08-29T05:29:18Z</time>
      </trkpt>
      <trkpt lat="42.4196390" lon="-2.7226840">
        <ele>515.4</ele>
        <time>2022-08-29T05:29:19Z</time>
      </trkpt>
      <trkpt lat="42.4196380" lon="-2.7226830">
        <ele>515.4</ele>
        <time>2022-08-29T05:29:20Z</time>
      </trkpt>
      <trkpt lat="42.4196380" lon="-2.7226830">
        <ele>515.2</ele>
        <time>2022-08-29T05:29:21Z</time>
      </trkpt>
      <trkpt lat="42.4196380" lon="-2.7226820">
        <ele>515.4</ele>
        <time>2022-08-29T05:29:22Z</time>
      </trkpt>
      <trkpt lat="42.4196380" lon="-2.7226830">
        <ele>515.2</ele>
        <time>2022-08-29T05:29:23Z</time>
      </trkpt>
      <trkpt lat="42.4196370" lon="-2.7226830">
        <ele>515.2</ele>
        <time>2022-08-29T05:29:24Z</time>
      </trkpt>
      <trkpt lat="42.4196370" lon="-2.7226840">
        <ele>515.2</ele>
        <time>2022-08-29T05:29:25Z</time>
      </trkpt>
      <trkpt lat="42.4196370" lon="-2.7226840">
        <ele>515.2</ele>
        <time>2022-08-29T05:29:26Z</time>
      </trkpt>
      <trkpt lat="42.4196370" lon="-2.7226840">
        <ele>515.2</ele>
        <time>2022-08-29T05:29:27Z</time>
      </trkpt>
      <trkpt lat="42.4196370" lon="-2.7226840">
        <ele>515.2</ele>
        <time>2022-08-29T05:29:28Z</time>
      </trkpt>
      <trkpt lat="42.4196370" lon="-2.7226840">
        <ele>515.4</ele>
        <time>2022-08-29T05:29:29Z</time>
      </trkpt>
      <trkpt lat="42.4196370" lon="-2.7226840">
        <ele>515.4</ele>
        <time>2022-08-29T05:29:30Z</time>
      </trkpt>
      <trkpt lat="42.4196370" lon="-2.7226830">
        <ele>515.4</ele>
        <time>2022-08-29T05:29:31Z</time>
      </trkpt>
      <trkpt lat="42.4196370" lon="-2.7226830">
        <ele>515.4</ele>
        <time>2022-08-29T05:29:32Z</time>
      </trkpt>
      <trkpt lat="42.4196370" lon="-2.7226830">
        <ele>515.2</ele>
        <time>2022-08-29T05:29:33Z</time>
      </trkpt>
      <trkpt lat="42.4196380" lon="-2.7226830">
        <ele>515.4</ele>
        <time>2022-08-29T05:29:34Z</time>
      </trkpt>
      <trkpt lat="42.4196380" lon="-2.7226810">
        <ele>515.4</ele>
        <time>2022-08-29T05:29:35Z</time>
      </trkpt>
      <trkpt lat="42.4196390" lon="-2.7226800">
        <ele>515.4</ele>
        <time>2022-08-29T05:29:36Z</time>
      </trkpt>
      <trkpt lat="42.4196390" lon="-2.7226790">
        <ele>515.4</ele>
        <time>2022-08-29T05:29:37Z</time>
      </trkpt>
      <trkpt lat="42.4196400" lon="-2.7226780">
        <ele>515.2</ele>
        <time>2022-08-29T05:29:38Z</time>
      </trkpt>
      <trkpt lat="42.4196390" lon="-2.7226800">
        <ele>515.2</ele>
        <time>2022-08-29T05:29:39Z</time>
      </trkpt>
      <trkpt lat="42.4196370" lon="-2.7226820">
        <ele>515.4</ele>
        <time>2022-08-29T05:29:40Z</time>
      </trkpt>
      <trkpt lat="42.4196330" lon="-2.7226840">
        <ele>515.2</ele>
        <time>2022-08-29T05:29:41Z</time>
      </trkpt>
      <trkpt lat="42.4196310" lon="-2.7226910">
        <ele>515.4</ele>
        <time>2022-08-29T05:29:42Z</time>
      </trkpt>
      <trkpt lat="42.4196290" lon="-2.7226950">
        <ele>515.2</ele>
        <time>2022-08-29T05:29:43Z</time>
      </trkpt>
      <trkpt lat="42.4196290" lon="-2.7226960">
        <ele>515.2</ele>
        <time>2022-08-29T05:29:44Z</time>
      </trkpt>
      <trkpt lat="42.4196290" lon="-2.7226960">
        <ele>515.2</ele>
        <time>2022-08-29T05:29:45Z</time>
      </trkpt>
      <trkpt lat="42.4196290" lon="-2.7226950">
        <ele>515.2</ele>
        <time>2022-08-29T05:29:46Z</time>
      </trkpt>
      <trkpt lat="42.4196280" lon="-2.7226960">
        <ele>515.2</ele>
        <time>2022-08-29T05:29:47Z</time>
      </trkpt>
      <trkpt lat="42.4196260" lon="-2.7227000">
        <ele>515.4</ele>
        <time>2022-08-29T05:29:48Z</time>
      </trkpt>
      <trkpt lat="42.4196230" lon="-2.7227050">
        <ele>515.2</ele>
        <time>2022-08-29T05:29:49Z</time>
      </trkpt>
      <trkpt lat="42.4196210" lon="-2.7227110">
        <ele>515.4</ele>
        <time>2022-08-29T05:29:50Z</time>
      </trkpt>
      <trkpt lat="42.4196210" lon="-2.7227160">
        <ele>515.4</ele>
        <time>2022-08-29T05:29:51Z</time>
      </trkpt>
      <trkpt lat="42.4196200" lon="-2.7227200">
        <ele>515.4</ele>
        <time>2022-08-29T05:29:52Z</time>
      </trkpt>
      <trkpt lat="42.4196180" lon="-2.7227230">
        <ele>515.4</ele>
        <time>2022-08-29T05:29:53Z</time>
      </trkpt>
      <trkpt lat="42.4196160" lon="-2.7227310">
        <ele>515.4</ele>
        <time>2022-08-29T05:29:54Z</time>
      </trkpt>
      <trkpt lat="42.4196060" lon="-2.7227430">
        <ele>515.4</ele>
        <time>2022-08-29T05:29:55Z</time>
      </trkpt>
      <trkpt lat="42.4196020" lon="-2.7227530">
        <ele>515.4</ele>
        <time>2022-08-29T05:29:56Z</time>
      </trkpt>
      <trkpt lat="42.4195900" lon="-2.7227700">
        <ele>515.4</ele>
        <time>2022-08-29T05:29:57Z</time>
      </trkpt>
      <trkpt lat="42.4195860" lon="-2.7227820">
        <ele>515.4</ele>
        <time>2022-08-29T05:29:58Z</time>
      </trkpt>
      <trkpt lat="42.4195810" lon="-2.7228020">
        <ele>515.4</ele>
        <time>2022-08-29T05:29:59Z</time>
      </trkpt>
      <trkpt lat="42.4195760" lon="-2.7228210">
        <ele>515.6</ele>
        <time>2022-08-29T05:30:00Z</time>
      </trkpt>
      <trkpt lat="42.4195680" lon="-2.7228440">
        <ele>515.4</ele>
        <time>2022-08-29T05:30:01Z</time>
      </trkpt>
      <trkpt lat="42.4195650" lon="-2.7228660">
        <ele>515.4</ele>
        <time>2022-08-29T05:30:02Z</time>
      </trkpt>
      <trkpt lat="42.4195590" lon="-2.7228900">
        <ele>515.4</ele>
        <time>2022-08-29T05:30:03Z</time>
      </trkpt>
      <trkpt lat="42.4195540" lon="-2.7229100">
        <ele>515.4</ele>
        <time>2022-08-29T05:30:04Z</time>
      </trkpt>
      <trkpt lat="42.4195480" lon="-2.7229320">
        <ele>515.4</ele>
        <time>2022-08-29T05:30:05Z</time>
      </trkpt>
      <trkpt lat="42.4195430" lon="-2.7229570">
        <ele>515.4</ele>
        <time>2022-08-29T05:30:06Z</time>
      </trkpt>
      <trkpt lat="42.4195400" lon="-2.7229830">
        <ele>515.4</ele>
        <time>2022-08-29T05:30:07Z</time>
      </trkpt>
      <trkpt lat="42.4195340" lon="-2.7230120">
        <ele>515.4</ele>
        <time>2022-08-29T05:30:08Z</time>
      </trkpt>
      <trkpt lat="42.4195300" lon="-2.7230400">
        <ele>515.4</ele>
        <time>2022-08-29T05:30:09Z</time>
      </trkpt>
      <trkpt lat="42.4195240" lon="-2.7230690">
        <ele>515.4</ele>
        <time>2022-08-29T05:30:10Z</time>
      </trkpt>
      <trkpt lat="42.4195140" lon="-2.7231010">
        <ele>515.4</ele>
        <time>2022-08-29T05:30:11Z</time>
      </trkpt>
      <trkpt lat="42.4195080" lon="-2.7231320">
        <ele>515.2</ele>
        <time>2022-08-29T05:30:12Z</time>
      </trkpt>
      <trkpt lat="42.4195030" lon="-2.7231630">
        <ele>515.4</ele>
        <time>2022-08-29T05:30:13Z</time>
      </trkpt>
      <trkpt lat="42.4194970" lon="-2.7232010">
        <ele>515.2</ele>
        <time>2022-08-29T05:30:14Z</time>
      </trkpt>
      <trkpt lat="42.4194940" lon="-2.7232340">
        <ele>515.2</ele>
        <time>2022-08-29T05:30:15Z</time>
      </trkpt>
      <trkpt lat="42.4194830" lon="-2.7232740">
        <ele>515.2</ele>
        <time>2022-08-29T05:30:16Z</time>
      </trkpt>
      <trkpt lat="42.4194710" lon="-2.7233170">
        <ele>515.0</ele>
        <time>2022-08-29T05:30:17Z</time>
      </trkpt>
      <trkpt lat="42.4194600" lon="-2.7233620">
        <ele>515.0</ele>
        <time>2022-08-29T05:30:18Z</time>
      </trkpt>
      <trkpt lat="42.4194490" lon="-2.7234090">
        <ele>515.0</ele>
        <time>2022-08-29T05:30:19Z</time>
      </trkpt>
      <trkpt lat="42.4194370" lon="-2.7234590">
        <ele>515.0</ele>
        <time>2022-08-29T05:30:20Z</time>
      </trkpt>
      <trkpt lat="42.4194240" lon="-2.7235090">
        <ele>515.0</ele>
        <time>2022-08-29T05:30:21Z</time>
      </trkpt>
      <trkpt lat="42.4194140" lon="-2.7235590">
        <ele>514.8</ele>
        <time>2022-08-29T05:30:22Z</time>
      </trkpt>
      <trkpt lat="42.4194050" lon="-2.7236110">
        <ele>514.8</ele>
        <time>2022-08-29T05:30:23Z</time>
      </trkpt>
      <trkpt lat="42.4193960" lon="-2.7236670">
        <ele>514.8</ele>
        <time>2022-08-29T05:30:24Z</time>
      </trkpt>
      <trkpt lat="42.4193850" lon="-2.7237210">
        <ele>514.6</ele>
        <time>2022-08-29T05:30:25Z</time>
      </trkpt>
      <trkpt lat="42.4193770" lon="-2.7237750">
        <ele>514.6</ele>
        <time>2022-08-29T05:30:26Z</time>
      </trkpt>
      <trkpt lat="42.4193710" lon="-2.7238320">
        <ele>514.4</ele>
        <time>2022-08-29T05:30:27Z</time>
      </trkpt>
      <trkpt lat="42.4193630" lon="-2.7238880">
        <ele>514.4</ele>
        <time>2022-08-29T05:30:28Z</time>
      </trkpt>
      <trkpt lat="42.4193560" lon="-2.7239460">
        <ele>514.2</ele>
        <time>2022-08-29T05:30:29Z</time>
      </trkpt>
      <trkpt lat="42.4193450" lon="-2.7240040">
        <ele>514.2</ele>
        <time>2022-08-29T05:30:30Z</time>
      </trkpt>
      <trkpt lat="42.4193360" lon="-2.7240610">
        <ele>514.0</ele>
        <time>2022-08-29T05:30:31Z</time>
      </trkpt>
      <trkpt lat="42.4193260" lon="-2.7241190">
        <ele>514.2</ele>
        <time>2022-08-29T05:30:32Z</time>
      </trkpt>
      <trkpt lat="42.4193140" lon="-2.7241750">
        <ele>514.0</ele>
        <time>2022-08-29T05:30:33Z</time>
      </trkpt>
      <trkpt lat="42.4193010" lon="-2.7242300">
        <ele>514.0</ele>
        <time>2022-08-29T05:30:34Z</time>
      </trkpt>
      <trkpt lat="42.4192890" lon="-2.7242830">
        <ele>513.8</ele>
        <time>2022-08-29T05:30:35Z</time>
      </trkpt>
      <trkpt lat="42.4192780" lon="-2.7243380">
        <ele>513.6</ele>
        <time>2022-08-29T05:30:36Z</time>
      </trkpt>
      <trkpt lat="42.4192710" lon="-2.7243930">
        <ele>513.6</ele>
        <time>2022-08-29T05:30:37Z</time>
      </trkpt>
      <trkpt lat="42.4192640" lon="-2.7244450">
        <ele>513.4</ele>
        <time>2022-08-29T05:30:38Z</time>
      </trkpt>
      <trkpt lat="42.4192570" lon="-2.7244970">
        <ele>513.2</ele>
        <time>2022-08-29T05:30:39Z</time>
      </trkpt>
      <trkpt lat="42.4192590" lon="-2.7245540">
        <ele>513.4</ele>
        <time>2022-08-29T05:30:40Z</time>
      </trkpt>
      <trkpt lat="42.4192640" lon="-2.7246090">
        <ele>513.0</ele>
        <time>2022-08-29T05:30:41Z</time>
      </trkpt>
      <trkpt lat="42.4192700" lon="-2.7246640">
        <ele>513.0</ele>
        <time>2022-08-29T05:30:42Z</time>
      </trkpt>
      <trkpt lat="42.4192660" lon="-2.7247200">
        <ele>513.2</ele>
        <time>2022-08-29T05:30:43Z</time>
      </trkpt>
      <trkpt lat="42.4192510" lon="-2.7247680">
        <ele>513.0</ele>
        <time>2022-08-29T05:30:44Z</time>
      </trkpt>
      <trkpt lat="42.4192300" lon="-2.7248140">
        <ele>513.0</ele>
        <time>2022-08-29T05:30:45Z</time>
      </trkpt>
      <trkpt lat="42.4192040" lon="-2.7248560">
        <ele>513.0</ele>
        <time>2022-08-29T05:30:46Z</time>
      </trkpt>
      <trkpt lat="42.4191710" lon="-2.7248930">
        <ele>513.0</ele>
        <time>2022-08-29T05:30:47Z</time>
      </trkpt>
      <trkpt lat="42.4191340" lon="-2.7249210">
        <ele>512.8</ele>
        <time>2022-08-29T05:30:48Z</time>
      </trkpt>
      <trkpt lat="42.4190990" lon="-2.7249480">
        <ele>513.0</ele>
        <time>2022-08-29T05:30:49Z</time>
      </trkpt>
      <trkpt lat="42.4190620" lon="-2.7249770">
        <ele>512.8</ele>
        <time>2022-08-29T05:30:50Z</time>
      </trkpt>
      <trkpt lat="42.4190240" lon="-2.7250050">
        <ele>512.8</ele>
        <time>2022-08-29T05:30:51Z</time>
      </trkpt>
      <trkpt lat="42.4189840" lon="-2.7250330">
        <ele>512.8</ele>
        <time>2022-08-29T05:30:52Z</time>
      </trkpt>
      <trkpt lat="42.4189420" lon="-2.7250610">
        <ele>512.6</ele>
        <time>2022-08-29T05:30:53Z</time>
      </trkpt>
      <trkpt lat="42.4189010" lon="-2.7250880">
        <ele>512.8</ele>
        <time>2022-08-29T05:30:54Z</time>
      </trkpt>
      <trkpt lat="42.4188550" lon="-2.7251140">
        <ele>512.8</ele>
        <time>2022-08-29T05:30:55Z</time>
      </trkpt>
      <trkpt lat="42.4188130" lon="-2.7251410">
        <ele>512.8</ele>
        <time>2022-08-29T05:30:56Z</time>
      </trkpt>
      <trkpt lat="42.4187720" lon="-2.7251670">
        <ele>512.6</ele>
        <time>2022-08-29T05:30:57Z</time>
      </trkpt>
      <trkpt lat="42.4187330" lon="-2.7251920">
        <ele>512.6</ele>
        <time>2022-08-29T05:30:58Z</time>
      </trkpt>
      <trkpt lat="42.4186970" lon="-2.7252200">
        <ele>512.8</ele>
        <time>2022-08-29T05:30:59Z</time>
      </trkpt>
      <trkpt lat="42.4186630" lon="-2.7252550">
        <ele>512.8</ele>
        <time>2022-08-29T05:31:00Z</time>
      </trkpt>
      <trkpt lat="42.4186310" lon="-2.7252950">
        <ele>512.6</ele>
        <time>2022-08-29T05:31:01Z</time>
      </trkpt>
      <trkpt lat="42.4186050" lon="-2.7253400">
        <ele>512.8</ele>
        <time>2022-08-29T05:31:02Z</time>
      </trkpt>
      <trkpt lat="42.4185850" lon="-2.7253900">
        <ele>512.6</ele>
        <time>2022-08-29T05:31:03Z</time>
      </trkpt>
      <trkpt lat="42.4185710" lon="-2.7254410">
        <ele>512.6</ele>
        <time>2022-08-29T05:31:04Z</time>
      </trkpt>
      <trkpt lat="42.4185530" lon="-2.7254920">
        <ele>512.6</ele>
        <time>2022-08-29T05:31:05Z</time>
      </trkpt>
      <trkpt lat="42.4185320" lon="-2.7255360">
        <ele>512.6</ele>
        <time>2022-08-29T05:31:06Z</time>
      </trkpt>
      <trkpt lat="42.4185080" lon="-2.7255750">
        <ele>512.6</ele>
        <time>2022-08-29T05:31:07Z</time>
      </trkpt>
      <trkpt lat="42.4184840" lon="-2.7256120">
        <ele>512.4</ele>
        <time>2022-08-29T05:31:08Z</time>
      </trkpt>
      <trkpt lat="42.4184590" lon="-2.7256510">
        <ele>512.4</ele>
        <time>2022-08-29T05:31:09Z</time>
      </trkpt>
      <trkpt lat="42.4184370" lon="-2.7256920">
        <ele>512.2</ele>
        <time>2022-08-29T05:31:10Z</time>
      </trkpt>
      <trkpt lat="42.4184210" lon="-2.7257370">
        <ele>512.2</ele>
        <time>2022-08-29T05:31:11Z</time>
      </trkpt>
      <trkpt lat="42.4184120" lon="-2.7257880">
        <ele>512.2</ele>
        <time>2022-08-29T05:31:12Z</time>
      </trkpt>
      <trkpt lat="42.4184030" lon="-2.7258410">
        <ele>512.2</ele>
        <time>2022-08-29T05:31:13Z</time>
      </trkpt>
      <trkpt lat="42.4183940" lon="-2.7258950">
        <ele>512.0</ele>
        <time>2022-08-29T05:31:14Z</time>
      </trkpt>
      <trkpt lat="42.4183860" lon="-2.7259470">
        <ele>512.2</ele>
        <time>2022-08-29T05:31:15Z</time>
      </trkpt>
      <trkpt lat="42.4183780" lon="-2.7259990">
        <ele>512.2</ele>
        <time>2022-08-29T05:31:16Z</time>
      </trkpt>
      <trkpt lat="42.4183680" lon="-2.7260500">
        <ele>512.0</ele>
        <time>2022-08-29T05:31:17Z</time>
      </trkpt>
      <trkpt lat="42.4183610" lon="-2.7261010">
        <ele>512.0</ele>
        <time>2022-08-29T05:31:18Z</time>
      </trkpt>
      <trkpt lat="42.4183550" lon="-2.7261500">
        <ele>511.8</ele>
        <time>2022-08-29T05:31:19Z</time>
      </trkpt>
      <trkpt lat="42.4183480" lon="-2.7262020">
        <ele>512.0</ele>
        <time>2022-08-29T05:31:20Z</time>
      </trkpt>
      <trkpt lat="42.4183400" lon="-2.7262550">
        <ele>511.8</ele>
        <time>2022-08-29T05:31:21Z</time>
      </trkpt>
      <trkpt lat="42.4183300" lon="-2.7263130">
        <ele>511.8</ele>
        <time>2022-08-29T05:31:22Z</time>
      </trkpt>
      <trkpt lat="42.4183190" lon="-2.7263780">
        <ele>511.8</ele>
        <time>2022-08-29T05:31:23Z</time>
      </trkpt>
      <trkpt lat="42.4183100" lon="-2.7264420">
        <ele>511.8</ele>
        <time>2022-08-29T05:31:24Z</time>
      </trkpt>
      <trkpt lat="42.4183010" lon="-2.7265020">
        <ele>511.6</ele>
        <time>2022-08-29T05:31:25Z</time>
      </trkpt>
      <trkpt lat="42.4182930" lon="-2.7265560">
        <ele>511.8</ele>
        <time>2022-08-29T05:31:26Z</time>
      </trkpt>
      <trkpt lat="42.4182840" lon="-2.7266100">
        <ele>511.6</ele>
        <time>2022-08-29T05:31:27Z</time>
      </trkpt>
      <trkpt lat="42.4182690" lon="-2.7266710">
        <ele>511.6</ele>
        <time>2022-08-29T05:31:28Z</time>
      </trkpt>
      <trkpt lat="42.4182550" lon="-2.7267340">
        <ele>511.6</ele>
        <time>2022-08-29T05:31:29Z</time>
      </trkpt>
      <trkpt lat="42.4182390" lon="-2.7268060">
        <ele>511.4</ele>
        <time>2022-08-29T05:31:30Z</time>
      </trkpt>
      <trkpt lat="42.4182250" lon="-2.7268770">
        <ele>511.2</ele>
        <time>2022-08-29T05:31:31Z</time>
      </trkpt>
      <trkpt lat="42.4182080" lon="-2.7269510">
        <ele>511.2</ele>
        <time>2022-08-29T05:31:32Z</time>
      </trkpt>
      <trkpt lat="42.4181920" lon="-2.7270260">
        <ele>511.2</ele>
        <time>2022-08-29T05:31:33Z</time>
      </trkpt>
      <trkpt lat="42.4181760" lon="-2.7271110">
        <ele>511.0</ele>
        <time>2022-08-29T05:31:34Z</time>
      </trkpt>
      <trkpt lat="42.4181700" lon="-2.7272010">
        <ele>510.8</ele>
        <time>2022-08-29T05:31:35Z</time>
      </trkpt>
      <trkpt lat="42.4181540" lon="-2.7272900">
        <ele>510.8</ele>
        <time>2022-08-29T05:31:36Z</time>
      </trkpt>
      <trkpt lat="42.4181360" lon="-2.7273760">
        <ele>510.8</ele>
        <time>2022-08-29T05:31:37Z</time>
      </trkpt>
      <trkpt lat="42.4181110" lon="-2.7274680">
        <ele>510.2</ele>
        <time>2022-08-29T05:31:38Z</time>
      </trkpt>
      <trkpt lat="42.4180920" lon="-2.7275620">
        <ele>509.8</ele>
        <time>2022-08-29T05:31:39Z</time>
      </trkpt>
      <trkpt lat="42.4180750" lon="-2.7276580">
        <ele>509.4</ele>
        <time>2022-08-29T05:31:40Z</time>
      </trkpt>
      <trkpt lat="42.4180610" lon="-2.7277450">
        <ele>508.6</ele>
        <time>2022-08-29T05:31:41Z</time>
      </trkpt>
      <trkpt lat="42.4180430" lon="-2.7278290">
        <ele>508.2</ele>
        <time>2022-08-29T05:31:42Z</time>
      </trkpt>
      <trkpt lat="42.4180220" lon="-2.7279120">
        <ele>508.0</ele>
        <time>2022-08-29T05:31:43Z</time>
      </trkpt>
      <trkpt lat="42.4180020" lon="-2.7279940">
        <ele>507.4</ele>
        <time>2022-08-29T05:31:44Z</time>
      </trkpt>
      <trkpt lat="42.4179840" lon="-2.7280680">
        <ele>507.0</ele>
        <time>2022-08-29T05:31:45Z</time>
      </trkpt>
      <trkpt lat="42.4179710" lon="-2.7281400">
        <ele>506.4</ele>
        <time>2022-08-29T05:31:46Z</time>
      </trkpt>
      <trkpt lat="42.4179580" lon="-2.7282050">
        <ele>505.6</ele>
        <time>2022-08-29T05:31:47Z</time>
      </trkpt>
      <trkpt lat="42.4179440" lon="-2.7282720">
        <ele>505.0</ele>
        <time>2022-08-29T05:31:48Z</time>
      </trkpt>
      <trkpt lat="42.4179290" lon="-2.7283330">
        <ele>504.8</ele>
        <time>2022-08-29T05:31:49Z</time>
      </trkpt>
      <trkpt lat="42.4179160" lon="-2.7283990">
        <ele>504.2</ele>
        <time>2022-08-29T05:31:50Z</time>
      </trkpt>
      <trkpt lat="42.4178980" lon="-2.7284620">
        <ele>503.8</ele>
        <time>2022-08-29T05:31:51Z</time>
      </trkpt>
      <trkpt lat="42.4178770" lon="-2.7285240">
        <ele>503.4</ele>
        <time>2022-08-29T05:31:52Z</time>
      </trkpt>
      <trkpt lat="42.4178490" lon="-2.7285880">
        <ele>503.0</ele>
        <time>2022-08-29T05:31:53Z</time>
      </trkpt>
      <trkpt lat="42.4178180" lon="-2.7286480">
        <ele>502.8</ele>
        <time>2022-08-29T05:31:54Z</time>
      </trkpt>
      <trkpt lat="42.4177850" lon="-2.7287080">
        <ele>502.6</ele>
        <time>2022-08-29T05:31:55Z</time>
      </trkpt>
      <trkpt lat="42.4177570" lon="-2.7287640">
        <ele>502.2</ele>
        <time>2022-08-29T05:31:56Z</time>
      </trkpt>
      <trkpt lat="42.4177360" lon="-2.7288140">
        <ele>502.0</ele>
        <time>2022-08-29T05:31:57Z</time>
      </trkpt>
      <trkpt lat="42.4177250" lon="-2.7288600">
        <ele>501.6</ele>
        <time>2022-08-29T05:31:58Z</time>
      </trkpt>
      <trkpt lat="42.4177310" lon="-2.7289000">
        <ele>501.2</ele>
        <time>2022-08-29T05:31:59Z</time>
      </trkpt>
      <trkpt lat="42.4177430" lon="-2.7289390">
        <ele>500.8</ele>
        <time>2022-08-29T05:32:00Z</time>
      </trkpt>
      <trkpt lat="42.4177640" lon="-2.7289740">
        <ele>500.4</ele>
        <time>2022-08-29T05:32:01Z</time>
      </trkpt>
      <trkpt lat="42.4177980" lon="-2.7290010">
        <ele>500.4</ele>
        <time>2022-08-29T05:32:02Z</time>
      </trkpt>
      <trkpt lat="42.4178430" lon="-2.7290320">
        <ele>499.8</ele>
        <time>2022-08-29T05:32:03Z</time>
      </trkpt>
      <trkpt lat="42.4178900" lon="-2.7290670">
        <ele>499.2</ele>
        <time>2022-08-29T05:32:04Z</time>
      </trkpt>
      <trkpt lat="42.4179370" lon="-2.7291040">
        <ele>498.8</ele>
        <time>2022-08-29T05:32:05Z</time>
      </trkpt>
      <trkpt lat="42.4179870" lon="-2.7291360">
        <ele>498.6</ele>
        <time>2022-08-29T05:32:06Z</time>
      </trkpt>
      <trkpt lat="42.4180330" lon="-2.7291650">
        <ele>498.6</ele>
        <time>2022-08-29T05:32:07Z</time>
      </trkpt>
      <trkpt lat="42.4180830" lon="-2.7291860">
        <ele>498.4</ele>
        <time>2022-08-29T05:32:08Z</time>
      </trkpt>
      <trkpt lat="42.4181280" lon="-2.7292150">
        <ele>498.4</ele>
        <time>2022-08-29T05:32:09Z</time>
      </trkpt>
      <trkpt lat="42.4181750" lon="-2.7292380">
        <ele>498.2</ele>
        <time>2022-08-29T05:32:10Z</time>
      </trkpt>
      <trkpt lat="42.4182190" lon="-2.7292590">
        <ele>498.2</ele>
        <time>2022-08-29T05:32:11Z</time>
      </trkpt>
      <trkpt lat="42.4182630" lon="-2.7292730">
        <ele>497.8</ele>
        <time>2022-08-29T05:32:12Z</time>
      </trkpt>
      <trkpt lat="42.4183130" lon="-2.7292780">
        <ele>497.4</ele>
        <time>2022-08-29T05:32:13Z</time>
      </trkpt>
      <trkpt lat="42.4183600" lon="-2.7292900">
        <ele>497.2</ele>
        <time>2022-08-29T05:32:14Z</time>
      </trkpt>
      <trkpt lat="42.4184020" lon="-2.7293030">
        <ele>496.6</ele>
        <time>2022-08-29T05:32:15Z</time>
      </trkpt>
      <trkpt lat="42.4184430" lon="-2.7293120">
        <ele>496.4</ele>
        <time>2022-08-29T05:32:16Z</time>
      </trkpt>
      <trkpt lat="42.4184890" lon="-2.7293220">
        <ele>496.4</ele>
        <time>2022-08-29T05:32:17Z</time>
      </trkpt>
      <trkpt lat="42.4185320" lon="-2.7293380">
        <ele>496.2</ele>
        <time>2022-08-29T05:32:18Z</time>
      </trkpt>
      <trkpt lat="42.4185760" lon="-2.7293460">
        <ele>496.4</ele>
        <time>2022-08-29T05:32:19Z</time>
      </trkpt>
      <trkpt lat="42.4186200" lon="-2.7293610">
        <ele>496.2</ele>
        <time>2022-08-29T05:32:20Z</time>
      </trkpt>
      <trkpt lat="42.4186610" lon="-2.7293640">
        <ele>496.2</ele>
        <time>2022-08-29T05:32:21Z</time>
      </trkpt>
      <trkpt lat="42.4187080" lon="-2.7293720">
        <ele>496.2</ele>
        <time>2022-08-29T05:32:22Z</time>
      </trkpt>
      <trkpt lat="42.4187540" lon="-2.7293900">
        <ele>496.0</ele>
        <time>2022-08-29T05:32:23Z</time>
      </trkpt>
      <trkpt lat="42.4187920" lon="-2.7294150">
        <ele>496.0</ele>
        <time>2022-08-29T05:32:24Z</time>
      </trkpt>
      <trkpt lat="42.4188130" lon="-2.7294680">
        <ele>496.2</ele>
        <time>2022-08-29T05:32:25Z</time>
      </trkpt>
      <trkpt lat="42.4188170" lon="-2.7295370">
        <ele>496.2</ele>
        <time>2022-08-29T05:32:26Z</time>
      </trkpt>
      <trkpt lat="42.4188200" lon="-2.7296070">
        <ele>496.0</ele>
        <time>2022-08-29T05:32:27Z</time>
      </trkpt>
      <trkpt lat="42.4188250" lon="-2.7296740">
        <ele>496.0</ele>
        <time>2022-08-29T05:32:28Z</time>
      </trkpt>
      <trkpt lat="42.4188330" lon="-2.7297400">
        <ele>496.0</ele>
        <time>2022-08-29T05:32:29Z</time>
      </trkpt>
      <trkpt lat="42.4188460" lon="-2.7298120">
        <ele>496.0</ele>
        <time>2022-08-29T05:32:30Z</time>
      </trkpt>
      <trkpt lat="42.4188580" lon="-2.7298860">
        <ele>496.0</ele>
        <time>2022-08-29T05:32:31Z</time>
      </trkpt>
      <trkpt lat="42.4188690" lon="-2.7299630">
        <ele>496.0</ele>
        <time>2022-08-29T05:32:32Z</time>
      </trkpt>
      <trkpt lat="42.4188820" lon="-2.7300410">
        <ele>495.8</ele>
        <time>2022-08-29T05:32:33Z</time>
      </trkpt>
      <trkpt lat="42.4188920" lon="-2.7301220">
        <ele>495.6</ele>
        <time>2022-08-29T05:32:34Z</time>
      </trkpt>
      <trkpt lat="42.4189040" lon="-2.7302020">
        <ele>495.6</ele>
        <time>2022-08-29T05:32:35Z</time>
      </trkpt>
      <trkpt lat="42.4189150" lon="-2.7302810">
        <ele>495.6</ele>
        <time>2022-08-29T05:32:36Z</time>
      </trkpt>
      <trkpt lat="42.4189380" lon="-2.7303530">
        <ele>495.2</ele>
        <time>2022-08-29T05:32:37Z</time>
      </trkpt>
      <trkpt lat="42.4189600" lon="-2.7304250">
        <ele>495.0</ele>
        <time>2022-08-29T05:32:38Z</time>
      </trkpt>
      <trkpt lat="42.4189730" lon="-2.7304970">
        <ele>494.6</ele>
        <time>2022-08-29T05:32:39Z</time>
      </trkpt>
      <trkpt lat="42.4189830" lon="-2.7305690">
        <ele>494.4</ele>
        <time>2022-08-29T05:32:40Z</time>
      </trkpt>
      <trkpt lat="42.4189940" lon="-2.7306400">
        <ele>494.0</ele>
        <time>2022-08-29T05:32:41Z</time>
      </trkpt>
      <trkpt lat="42.4190040" lon="-2.7307080">
        <ele>493.8</ele>
        <time>2022-08-29T05:32:42Z</time>
      </trkpt>
      <trkpt lat="42.4190170" lon="-2.7307750">
        <ele>493.6</ele>
        <time>2022-08-29T05:32:43Z</time>
      </trkpt>
      <trkpt lat="42.4190290" lon="-2.7308370">
        <ele>493.0</ele>
        <time>2022-08-29T05:32:44Z</time>
      </trkpt>
      <trkpt lat="42.4190400" lon="-2.7308960">
        <ele>493.0</ele>
        <time>2022-08-29T05:32:45Z</time>
      </trkpt>
      <trkpt lat="42.4190490" lon="-2.7309520">
        <ele>492.8</ele>
        <time>2022-08-29T05:32:46Z</time>
      </trkpt>
      <trkpt lat="42.4190610" lon="-2.7310030">
        <ele>492.8</ele>
        <time>2022-08-29T05:32:47Z</time>
      </trkpt>
      <trkpt lat="42.4190740" lon="-2.7310510">
        <ele>492.8</ele>
        <time>2022-08-29T05:32:48Z</time>
      </trkpt>
      <trkpt lat="42.4190880" lon="-2.7310970">
        <ele>492.6</ele>
        <time>2022-08-29T05:32:49Z</time>
      </trkpt>
      <trkpt lat="42.4190960" lon="-2.7311440">
        <ele>492.8</ele>
        <time>2022-08-29T05:32:50Z</time>
      </trkpt>
      <trkpt lat="42.4191000" lon="-2.7311910">
        <ele>492.6</ele>
        <time>2022-08-29T05:32:51Z</time>
      </trkpt>
      <trkpt lat="42.4190980" lon="-2.7312300">
        <ele>492.8</ele>
        <time>2022-08-29T05:32:52Z</time>
      </trkpt>
      <trkpt lat="42.4190840" lon="-2.7312620">
        <ele>492.6</ele>
        <time>2022-08-29T05:32:53Z</time>
      </trkpt>
      <trkpt lat="42.4190630" lon="-2.7312820">
        <ele>492.6</ele>
        <time>2022-08-29T05:32:54Z</time>
      </trkpt>
      <trkpt lat="42.4190420" lon="-2.7312880">
        <ele>492.6</ele>
        <time>2022-08-29T05:32:55Z</time>
      </trkpt>
      <trkpt lat="42.4190270" lon="-2.7312770">
        <ele>492.6</ele>
        <time>2022-08-29T05:32:56Z</time>
      </trkpt>
      <trkpt lat="42.4190260" lon="-2.7312570">
        <ele>492.8</ele>
        <time>2022-08-29T05:32:57Z</time>
      </trkpt>
      <trkpt lat="42.4190390" lon="-2.7312410">
        <ele>492.6</ele>
        <time>2022-08-29T05:32:58Z</time>
      </trkpt>
      <trkpt lat="42.4190610" lon="-2.7312320">
        <ele>492.8</ele>
        <time>2022-08-29T05:32:59Z</time>
      </trkpt>
      <trkpt lat="42.4190820" lon="-2.7312210">
        <ele>492.8</ele>
        <time>2022-08-29T05:33:00Z</time>
      </trkpt>
      <trkpt lat="42.4191020" lon="-2.7312100">
        <ele>492.6</ele>
        <time>2022-08-29T05:33:01Z</time>
      </trkpt>
      <trkpt lat="42.4191240" lon="-2.7311990">
        <ele>492.8</ele>
        <time>2022-08-29T05:33:02Z</time>
      </trkpt>
      <trkpt lat="42.4191460" lon="-2.7311900">
        <ele>492.8</ele>
        <time>2022-08-29T05:33:03Z</time>
      </trkpt>
      <trkpt lat="42.4191650" lon="-2.7311800">
        <ele>492.6</ele>
        <time>2022-08-29T05:33:04Z</time>
      </trkpt>
      <trkpt lat="42.4191820" lon="-2.7311690">
        <ele>492.8</ele>
        <time>2022-08-29T05:33:05Z</time>
      </trkpt>
      <trkpt lat="42.4191980" lon="-2.7311630">
        <ele>492.8</ele>
        <time>2022-08-29T05:33:06Z</time>
      </trkpt>
      <trkpt lat="42.4192150" lon="-2.7311570">
        <ele>492.8</ele>
        <time>2022-08-29T05:33:07Z</time>
      </trkpt>
      <trkpt lat="42.4192290" lon="-2.7311600">
        <ele>492.8</ele>
        <time>2022-08-29T05:33:08Z</time>
      </trkpt>
      <trkpt lat="42.4192370" lon="-2.7311780">
        <ele>492.8</ele>
        <time>2022-08-29T05:33:09Z</time>
      </trkpt>
      <trkpt lat="42.4192390" lon="-2.7312060">
        <ele>492.8</ele>
        <time>2022-08-29T05:33:10Z</time>
      </trkpt>
      <trkpt lat="42.4192370" lon="-2.7312360">
        <ele>492.8</ele>
        <time>2022-08-29T05:33:11Z</time>
      </trkpt>
      <trkpt lat="42.4192340" lon="-2.7312660">
        <ele>493.0</ele>
        <time>2022-08-29T05:33:12Z</time>
      </trkpt>
      <trkpt lat="42.4192330" lon="-2.7312980">
        <ele>492.8</ele>
        <time>2022-08-29T05:33:13Z</time>
      </trkpt>
      <trkpt lat="42.4192320" lon="-2.7313320">
        <ele>493.0</ele>
        <time>2022-08-29T05:33:14Z</time>
      </trkpt>
      <trkpt lat="42.4192360" lon="-2.7313630">
        <ele>492.8</ele>
        <time>2022-08-29T05:33:15Z</time>
      </trkpt>
      <trkpt lat="42.4192400" lon="-2.7313900">
        <ele>493.0</ele>
        <time>2022-08-29T05:33:16Z</time>
      </trkpt>
      <trkpt lat="42.4192450" lon="-2.7314150">
        <ele>493.0</ele>
        <time>2022-08-29T05:33:17Z</time>
      </trkpt>
      <trkpt lat="42.4192530" lon="-2.7314370">
        <ele>493.0</ele>
        <time>2022-08-29T05:33:18Z</time>
      </trkpt>
      <trkpt lat="42.4192600" lon="-2.7314610">
        <ele>493.0</ele>
        <time>2022-08-29T05:33:19Z</time>
      </trkpt>
      <trkpt lat="42.4192670" lon="-2.7314850">
        <ele>493.0</ele>
        <time>2022-08-29T05:33:20Z</time>
      </trkpt>
      <trkpt lat="42.4192710" lon="-2.7315100">
        <ele>493.0</ele>
        <time>2022-08-29T05:33:21Z</time>
      </trkpt>
      <trkpt lat="42.4192700" lon="-2.7315310">
        <ele>493.2</ele>
        <time>2022-08-29T05:33:22Z</time>
      </trkpt>
      <trkpt lat="42.4192670" lon="-2.7315440">
        <ele>493.0</ele>
        <time>2022-08-29T05:33:23Z</time>
      </trkpt>
      <trkpt lat="42.4192640" lon="-2.7315460">
        <ele>493.2</ele>
        <time>2022-08-29T05:33:24Z</time>
      </trkpt>
      <trkpt lat="42.4192650" lon="-2.7315440">
        <ele>493.4</ele>
        <time>2022-08-29T05:33:25Z</time>
      </trkpt>
      <trkpt lat="42.4192620" lon="-2.7315440">
        <ele>493.4</ele>
        <time>2022-08-29T05:33:26Z</time>
      </trkpt>
      <trkpt lat="42.4192600" lon="-2.7315440">
        <ele>493.2</ele>
        <time>2022-08-29T05:33:27Z</time>
      </trkpt>
      <trkpt lat="42.4192580" lon="-2.7315440">
        <ele>493.4</ele>
        <time>2022-08-29T05:33:28Z</time>
      </trkpt>
      <trkpt lat="42.4192580" lon="-2.7315440">
        <ele>493.2</ele>
        <time>2022-08-29T05:33:29Z</time>
      </trkpt>
      <trkpt lat="42.4192590" lon="-2.7315450">
        <ele>493.2</ele>
        <time>2022-08-29T05:33:30Z</time>
      </trkpt>
      <trkpt lat="42.4192620" lon="-2.7315490">
        <ele>493.2</ele>
        <time>2022-08-29T05:33:31Z</time>
      </trkpt>
      <trkpt lat="42.4192700" lon="-2.7315480">
        <ele>493.4</ele>
        <time>2022-08-29T05:33:32Z</time>
      </trkpt>
      <trkpt lat="42.4192690" lon="-2.7315510">
        <ele>493.6</ele>
        <time>2022-08-29T05:33:33Z</time>
      </trkpt>
      <trkpt lat="42.4192680" lon="-2.7315520">
        <ele>493.6</ele>
        <time>2022-08-29T05:33:34Z</time>
      </trkpt>
      <trkpt lat="42.4192680" lon="-2.7315550">
        <ele>493.8</ele>
        <time>2022-08-29T05:33:35Z</time>
      </trkpt>
      <trkpt lat="42.4192680" lon="-2.7315550">
        <ele>493.6</ele>
        <time>2022-08-29T05:33:36Z</time>
      </trkpt>
      <trkpt lat="42.4192670" lon="-2.7315550">
        <ele>493.6</ele>
        <time>2022-08-29T05:33:37Z</time>
      </trkpt>
      <trkpt lat="42.4192670" lon="-2.7315550">
        <ele>493.6</ele>
        <time>2022-08-29T05:33:38Z</time>
      </trkpt>
      <trkpt lat="42.4192650" lon="-2.7315570">
        <ele>493.6</ele>
        <time>2022-08-29T05:33:39Z</time>
      </trkpt>
      <trkpt lat="42.4192650" lon="-2.7315630">
        <ele>493.6</ele>
        <time>2022-08-29T05:33:40Z</time>
      </trkpt>
      <trkpt lat="42.4192620" lon="-2.7315640">
        <ele>493.8</ele>
        <time>2022-08-29T05:33:41Z</time>
      </trkpt>
      <trkpt lat="42.4192610" lon="-2.7315610">
        <ele>493.6</ele>
        <time>2022-08-29T05:33:42Z</time>
      </trkpt>
      <trkpt lat="42.4192620" lon="-2.7315530">
        <ele>493.8</ele>
        <time>2022-08-29T05:33:43Z</time>
      </trkpt>
      <trkpt lat="42.4192620" lon="-2.7315450">
        <ele>493.6</ele>
        <time>2022-08-29T05:33:44Z</time>
      </trkpt>
      <trkpt lat="42.4192600" lon="-2.7315410">
        <ele>493.6</ele>
        <time>2022-08-29T05:33:45Z</time>
      </trkpt>
      <trkpt lat="42.4192580" lon="-2.7315390">
        <ele>493.4</ele>
        <time>2022-08-29T05:33:46Z</time>
      </trkpt>
      <trkpt lat="42.4192580" lon="-2.7315370">
        <ele>493.4</ele>
        <time>2022-08-29T05:33:47Z</time>
      </trkpt>
      <trkpt lat="42.4192600" lon="-2.7315330">
        <ele>493.4</ele>
        <time>2022-08-29T05:33:48Z</time>
      </trkpt>
      <trkpt lat="42.4192590" lon="-2.7315310">
        <ele>493.4</ele>
        <time>2022-08-29T05:33:49Z</time>
      </trkpt>
      <trkpt lat="42.4192600" lon="-2.7315310">
        <ele>493.4</ele>
        <time>2022-08-29T05:33:50Z</time>
      </trkpt>
      <trkpt lat="42.4192620" lon="-2.7315290">
        <ele>493.4</ele>
        <time>2022-08-29T05:33:51Z</time>
      </trkpt>
      <trkpt lat="42.4192630" lon="-2.7315260">
        <ele>493.4</ele>
        <time>2022-08-29T05:33:52Z</time>
      </trkpt>
      <trkpt lat="42.4192640" lon="-2.7315240">
        <ele>493.2</ele>
        <time>2022-08-29T05:33:53Z</time>
      </trkpt>
      <trkpt lat="42.4192630" lon="-2.7315220">
        <ele>493.2</ele>
        <time>2022-08-29T05:33:54Z</time>
      </trkpt>
      <trkpt lat="42.4192600" lon="-2.7315220">
        <ele>493.2</ele>
        <time>2022-08-29T05:33:55Z</time>
      </trkpt>
      <trkpt lat="42.4192600" lon="-2.7315190">
        <ele>493.2</ele>
        <time>2022-08-29T05:33:56Z</time>
      </trkpt>
      <trkpt lat="42.4192560" lon="-2.7315190">
        <ele>493.2</ele>
        <time>2022-08-29T05:33:57Z</time>
      </trkpt>
      <trkpt lat="42.4192530" lon="-2.7315190">
        <ele>493.2</ele>
        <time>2022-08-29T05:33:58Z</time>
      </trkpt>
      <trkpt lat="42.4192520" lon="-2.7315190">
        <ele>493.0</ele>
        <time>2022-08-29T05:33:59Z</time>
      </trkpt>
      <trkpt lat="42.4192530" lon="-2.7315200">
        <ele>493.2</ele>
        <time>2022-08-29T05:34:00Z</time>
      </trkpt>
      <trkpt lat="42.4190880" lon="-2.7312830">
        <ele>493.0</ele>
        <time>2022-08-29T06:04:10Z</time>
      </trkpt>
      <trkpt lat="42.4190710" lon="-2.7312930">
        <ele>493.2</ele>
        <time>2022-08-29T06:04:11Z</time>
      </trkpt>
      <trkpt lat="42.4190520" lon="-2.7313020">
        <ele>493.2</ele>
        <time>2022-08-29T06:04:12Z</time>
      </trkpt>
      <trkpt lat="42.4190250" lon="-2.7313200">
        <ele>493.2</ele>
        <time>2022-08-29T06:04:13Z</time>
      </trkpt>
      <trkpt lat="42.4190020" lon="-2.7313310">
        <ele>493.0</ele>
        <time>2022-08-29T06:04:14Z</time>
      </trkpt>
      <trkpt lat="42.4189710" lon="-2.7313460">
        <ele>493.0</ele>
        <time>2022-08-29T06:04:15Z</time>
      </trkpt>
      <trkpt lat="42.4189410" lon="-2.7313590">
        <ele>493.0</ele>
        <time>2022-08-29T06:04:16Z</time>
      </trkpt>
      <trkpt lat="42.4189120" lon="-2.7313710">
        <ele>493.0</ele>
        <time>2022-08-29T06:04:17Z</time>
      </trkpt>
      <trkpt lat="42.4188850" lon="-2.7313840">
        <ele>492.8</ele>
        <time>2022-08-29T06:04:18Z</time>
      </trkpt>
      <trkpt lat="42.4188570" lon="-2.7314000">
        <ele>492.8</ele>
        <time>2022-08-29T06:04:19Z</time>
      </trkpt>
      <trkpt lat="42.4188280" lon="-2.7314220">
        <ele>492.6</ele>
        <time>2022-08-29T06:04:20Z</time>
      </trkpt>
      <trkpt lat="42.4188010" lon="-2.7314430">
        <ele>492.6</ele>
        <time>2022-08-29T06:04:21Z</time>
      </trkpt>
      <trkpt lat="42.4187720" lon="-2.7314610">
        <ele>492.6</ele>
        <time>2022-08-29T06:04:22Z</time>
      </trkpt>
      <trkpt lat="42.4187430" lon="-2.7314720">
        <ele>492.6</ele>
        <time>2022-08-29T06:04:23Z</time>
      </trkpt>
      <trkpt lat="42.4187130" lon="-2.7314780">
        <ele>492.6</ele>
        <time>2022-08-29T06:04:24Z</time>
      </trkpt>
      <trkpt lat="42.4186840" lon="-2.7314860">
        <ele>492.4</ele>
        <time>2022-08-29T06:04:25Z</time>
      </trkpt>
      <trkpt lat="42.4186560" lon="-2.7314910">
        <ele>492.6</ele>
        <time>2022-08-29T06:04:26Z</time>
      </trkpt>
      <trkpt lat="42.4186270" lon="-2.7314980">
        <ele>492.6</ele>
        <time>2022-08-29T06:04:27Z</time>
      </trkpt>
      <trkpt lat="42.4186000" lon="-2.7315040">
        <ele>492.6</ele>
        <time>2022-08-29T06:04:28Z</time>
      </trkpt>
      <trkpt lat="42.4185750" lon="-2.7315120">
        <ele>492.6</ele>
        <time>2022-08-29T06:04:29Z</time>
      </trkpt>
      <trkpt lat="42.4185510" lon="-2.7315170">
        <ele>492.6</ele>
        <time>2022-08-29T06:04:30Z</time>
      </trkpt>
      <trkpt lat="42.4185270" lon="-2.7315130">
        <ele>492.6</ele>
        <time>2022-08-29T06:04:31Z</time>
      </trkpt>
      <trkpt lat="42.4185020" lon="-2.7315130">
        <ele>492.6</ele>
        <time>2022-08-29T06:04:32Z</time>
      </trkpt>
      <trkpt lat="42.4184800" lon="-2.7315120">
        <ele>492.6</ele>
        <time>2022-08-29T06:04:33Z</time>
      </trkpt>
      <trkpt lat="42.4184610" lon="-2.7315130">
        <ele>492.8</ele>
        <time>2022-08-29T06:04:34Z</time>
      </trkpt>
      <trkpt lat="42.4184460" lon="-2.7315130">
        <ele>492.8</ele>
        <time>2022-08-29T06:04:35Z</time>
      </trkpt>
      <trkpt lat="42.4184340" lon="-2.7315110">
        <ele>492.6</ele>
        <time>2022-08-29T06:04:36Z</time>
      </trkpt>
      <trkpt lat="42.4184190" lon="-2.7315180">
        <ele>492.8</ele>
        <time>2022-08-29T06:04:37Z</time>
      </trkpt>
      <trkpt lat="42.4184070" lon="-2.7315280">
        <ele>492.8</ele>
        <time>2022-08-29T06:04:38Z</time>
      </trkpt>
      <trkpt lat="42.4184000" lon="-2.7315350">
        <ele>492.8</ele>
        <time>2022-08-29T06:04:39Z</time>
      </trkpt>
      <trkpt lat="42.4183970" lon="-2.7315420">
        <ele>493.0</ele>
        <time>2022-08-29T06:04:40Z</time>
      </trkpt>
      <trkpt lat="42.4183970" lon="-2.7315520">
        <ele>493.2</ele>
        <time>2022-08-29T06:04:41Z</time>
      </trkpt>
      <trkpt lat="42.4184000" lon="-2.7315610">
        <ele>493.0</ele>
        <time>2022-08-29T06:04:42Z</time>
      </trkpt>
      <trkpt lat="42.4184030" lon="-2.7315690">
        <ele>493.2</ele>
        <time>2022-08-29T06:04:43Z</time>
      </trkpt>
      <trkpt lat="42.4184010" lon="-2.7315740">
        <ele>493.2</ele>
        <time>2022-08-29T06:04:44Z</time>
      </trkpt>
      <trkpt lat="42.4184000" lon="-2.7315750">
        <ele>493.2</ele>
        <time>2022-08-29T06:04:45Z</time>
      </trkpt>
      <trkpt lat="42.4184010" lon="-2.7315840">
        <ele>493.0</ele>
        <time>2022-08-29T06:04:46Z</time>
      </trkpt>
      <trkpt lat="42.4183980" lon="-2.7315900">
        <ele>493.2</ele>
        <time>2022-08-29T06:04:47Z</time>
      </trkpt>
      <trkpt lat="42.4183960" lon="-2.7315930">
        <ele>493.2</ele>
        <time>2022-08-29T06:04:48Z</time>
      </trkpt>
      <trkpt lat="42.4183960" lon="-2.7316020">
        <ele>493.2</ele>
        <time>2022-08-29T06:04:49Z</time>
      </trkpt>
      <trkpt lat="42.4183970" lon="-2.7316100">
        <ele>493.2</ele>
        <time>2022-08-29T06:04:50Z</time>
      </trkpt>
      <trkpt lat="42.4183980" lon="-2.7316170">
        <ele>493.2</ele>
        <time>2022-08-29T06:04:51Z</time>
      </trkpt>
      <trkpt lat="42.4183980" lon="-2.7316230">
        <ele>493.2</ele>
        <time>2022-08-29T06:04:52Z</time>
      </trkpt>
      <trkpt lat="42.4183980" lon="-2.7316300">
        <ele>493.2</ele>
        <time>2022-08-29T06:04:53Z</time>
      </trkpt>
      <trkpt lat="42.4183980" lon="-2.7316300">
        <ele>493.2</ele>
        <time>2022-08-29T06:04:54Z</time>
      </trkpt>
      <trkpt lat="42.4183990" lon="-2.7316310">
        <ele>493.2</ele>
        <time>2022-08-29T06:04:55Z</time>
      </trkpt>
      <trkpt lat="42.4183990" lon="-2.7316310">
        <ele>493.2</ele>
        <time>2022-08-29T06:04:56Z</time>
      </trkpt>
      <trkpt lat="42.4184000" lon="-2.7316310">
        <ele>493.2</ele>
        <time>2022-08-29T06:04:57Z</time>
      </trkpt>
      <trkpt lat="42.4184000" lon="-2.7316310">
        <ele>493.2</ele>
        <time>2022-08-29T06:04:58Z</time>
      </trkpt>
      <trkpt lat="42.4184000" lon="-2.7316310">
        <ele>493.2</ele>
        <time>2022-08-29T06:04:59Z</time>
      </trkpt>
      <trkpt lat="42.4184000" lon="-2.7316310">
        <ele>493.2</ele>
        <time>2022-08-29T06:05:00Z</time>
      </trkpt>
      <trkpt lat="42.4184010" lon="-2.7316310">
        <ele>493.2</ele>
        <time>2022-08-29T06:05:01Z</time>
      </trkpt>
      <trkpt lat="42.4184010" lon="-2.7316320">
        <ele>493.2</ele>
        <time>2022-08-29T06:05:02Z</time>
      </trkpt>
      <trkpt lat="42.4184010" lon="-2.7316320">
        <ele>493.0</ele>
        <time>2022-08-29T06:05:03Z</time>
      </trkpt>
      <trkpt lat="42.4184020" lon="-2.7316330">
        <ele>493.2</ele>
        <time>2022-08-29T06:05:04Z</time>
      </trkpt>
      <trkpt lat="42.4184030" lon="-2.7316390">
        <ele>493.2</ele>
        <time>2022-08-29T06:05:05Z</time>
      </trkpt>
      <trkpt lat="42.4184050" lon="-2.7316430">
        <ele>493.2</ele>
        <time>2022-08-29T06:05:06Z</time>
      </trkpt>
      <trkpt lat="42.4184100" lon="-2.7316480">
        <ele>493.2</ele>
        <time>2022-08-29T06:05:07Z</time>
      </trkpt>
      <trkpt lat="42.4184110" lon="-2.7316540">
        <ele>493.2</ele>
        <time>2022-08-29T06:05:08Z</time>
      </trkpt>
      <trkpt lat="42.4184100" lon="-2.7316560">
        <ele>493.2</ele>
        <time>2022-08-29T06:05:09Z</time>
      </trkpt>
      <trkpt lat="42.4184100" lon="-2.7316580">
        <ele>493.2</ele>
        <time>2022-08-29T06:05:10Z</time>
      </trkpt>
      <trkpt lat="42.4184110" lon="-2.7316640">
        <ele>493.2</ele>
        <time>2022-08-29T06:05:11Z</time>
      </trkpt>
      <trkpt lat="42.4184090" lon="-2.7316640">
        <ele>493.0</ele>
        <time>2022-08-29T06:05:12Z</time>
      </trkpt>
      <trkpt lat="42.4184110" lon="-2.7316660">
        <ele>493.0</ele>
        <time>2022-08-29T06:05:13Z</time>
      </trkpt>
      <trkpt lat="42.4184180" lon="-2.7316660">
        <ele>493.2</ele>
        <time>2022-08-29T06:05:14Z</time>
      </trkpt>
      <trkpt lat="42.4184250" lon="-2.7316710">
        <ele>493.2</ele>
        <time>2022-08-29T06:05:15Z</time>
      </trkpt>
      <trkpt lat="42.4184310" lon="-2.7316750">
        <ele>493.2</ele>
        <time>2022-08-29T06:05:16Z</time>
      </trkpt>
      <trkpt lat="42.4184410" lon="-2.7316740">
        <ele>493.2</ele>
        <time>2022-08-29T06:05:17Z</time>
      </trkpt>
      <trkpt lat="42.4184490" lon="-2.7316720">
        <ele>493.2</ele>
        <time>2022-08-29T06:05:18Z</time>
      </trkpt>
      <trkpt lat="42.4184600" lon="-2.7316690">
        <ele>493.0</ele>
        <time>2022-08-29T06:05:19Z</time>
      </trkpt>
      <trkpt lat="42.4184670" lon="-2.7316710">
        <ele>493.2</ele>
        <time>2022-08-29T06:05:20Z</time>
      </trkpt>
      <trkpt lat="42.4184780" lon="-2.7316790">
        <ele>493.0</ele>
        <time>2022-08-29T06:05:21Z</time>
      </trkpt>
      <trkpt lat="42.4184830" lon="-2.7316840">
        <ele>493.0</ele>
        <time>2022-08-29T06:05:22Z</time>
      </trkpt>
      <trkpt lat="42.4184780" lon="-2.7316910">
        <ele>493.0</ele>
        <time>2022-08-29T06:05:23Z</time>
      </trkpt>
      <trkpt lat="42.4184580" lon="-2.7316900">
        <ele>493.0</ele>
        <time>2022-08-29T06:05:24Z</time>
      </trkpt>
      <trkpt lat="42.4184500" lon="-2.7316720">
        <ele>492.8</ele>
        <time>2022-08-29T06:05:25Z</time>
      </trkpt>
      <trkpt lat="42.4184380" lon="-2.7316660">
        <ele>493.0</ele>
        <time>2022-08-29T06:05:26Z</time>
      </trkpt>
      <trkpt lat="42.4184300" lon="-2.7316610">
        <ele>493.0</ele>
        <time>2022-08-29T06:05:27Z</time>
      </trkpt>
      <trkpt lat="42.4184210" lon="-2.7316570">
        <ele>493.0</ele>
        <time>2022-08-29T06:05:28Z</time>
      </trkpt>
      <trkpt lat="42.4184100" lon="-2.7316560">
        <ele>493.0</ele>
        <time>2022-08-29T06:05:29Z</time>
      </trkpt>
      <trkpt lat="42.4184000" lon="-2.7316550">
        <ele>492.8</ele>
        <time>2022-08-29T06:05:30Z</time>
      </trkpt>
      <trkpt lat="42.4183930" lon="-2.7316500">
        <ele>492.8</ele>
        <time>2022-08-29T06:05:31Z</time>
      </trkpt>
      <trkpt lat="42.4183900" lon="-2.7316490">
        <ele>492.8</ele>
        <time>2022-08-29T06:05:32Z</time>
      </trkpt>
      <trkpt lat="42.4183900" lon="-2.7316470">
        <ele>492.8</ele>
        <time>2022-08-29T06:05:33Z</time>
      </trkpt>
      <trkpt lat="42.4183890" lon="-2.7316410">
        <ele>492.8</ele>
        <time>2022-08-29T06:05:34Z</time>
      </trkpt>
      <trkpt lat="42.4183880" lon="-2.7316350">
        <ele>492.8</ele>
        <time>2022-08-29T06:05:35Z</time>
      </trkpt>
      <trkpt lat="42.4183870" lon="-2.7316320">
        <ele>492.8</ele>
        <time>2022-08-29T06:05:36Z</time>
      </trkpt>
      <trkpt lat="42.4183870" lon="-2.7316310">
        <ele>492.8</ele>
        <time>2022-08-29T06:05:37Z</time>
      </trkpt>
      <trkpt lat="42.4183870" lon="-2.7316320">
        <ele>492.8</ele>
        <time>2022-08-29T06:05:38Z</time>
      </trkpt>
      <trkpt lat="42.4183880" lon="-2.7316320">
        <ele>492.8</ele>
        <time>2022-08-29T06:05:39Z</time>
      </trkpt>
      <trkpt lat="42.4183900" lon="-2.7316350">
        <ele>492.6</ele>
        <time>2022-08-29T06:05:40Z</time>
      </trkpt>
      <trkpt lat="42.4183910" lon="-2.7316330">
        <ele>492.8</ele>
        <time>2022-08-29T06:05:41Z</time>
      </trkpt>
      <trkpt lat="42.4183910" lon="-2.7316270">
        <ele>492.8</ele>
        <time>2022-08-29T06:05:42Z</time>
      </trkpt>
      <trkpt lat="42.4183920" lon="-2.7316230">
        <ele>492.6</ele>
        <time>2022-08-29T06:05:43Z</time>
      </trkpt>
      <trkpt lat="42.4183920" lon="-2.7316250">
        <ele>492.8</ele>
        <time>2022-08-29T06:05:44Z</time>
      </trkpt>
      <trkpt lat="42.4183940" lon="-2.7316270">
        <ele>492.8</ele>
        <time>2022-08-29T06:05:45Z</time>
      </trkpt>
      <trkpt lat="42.4183930" lon="-2.7316270">
        <ele>492.8</ele>
        <time>2022-08-29T06:05:46Z</time>
      </trkpt>
      <trkpt lat="42.4183930" lon="-2.7316270">
        <ele>492.8</ele>
        <time>2022-08-29T06:05:47Z</time>
      </trkpt>
      <trkpt lat="42.4183930" lon="-2.7316260">
        <ele>492.8</ele>
        <time>2022-08-29T06:05:48Z</time>
      </trkpt>
      <trkpt lat="42.4183940" lon="-2.7316250">
        <ele>492.8</ele>
        <time>2022-08-29T06:05:49Z</time>
      </trkpt>
      <trkpt lat="42.4183920" lon="-2.7316230">
        <ele>492.8</ele>
        <time>2022-08-29T06:05:50Z</time>
      </trkpt>
      <trkpt lat="42.4183920" lon="-2.7316230">
        <ele>493.0</ele>
        <time>2022-08-29T06:05:51Z</time>
      </trkpt>
      <trkpt lat="42.4183920" lon="-2.7316230">
        <ele>493.0</ele>
        <time>2022-08-29T06:05:52Z</time>
      </trkpt>
      <trkpt lat="42.4183920" lon="-2.7316230">
        <ele>492.8</ele>
        <time>2022-08-29T06:05:53Z</time>
      </trkpt>
      <trkpt lat="42.4183920" lon="-2.7316230">
        <ele>493.0</ele>
        <time>2022-08-29T06:05:54Z</time>
      </trkpt>
      <trkpt lat="42.4183920" lon="-2.7316220">
        <ele>492.8</ele>
        <time>2022-08-29T06:05:55Z</time>
      </trkpt>
      <trkpt lat="42.4183920" lon="-2.7316220">
        <ele>493.0</ele>
        <time>2022-08-29T06:05:56Z</time>
      </trkpt>
      <trkpt lat="42.4183930" lon="-2.7316210">
        <ele>492.8</ele>
        <time>2022-08-29T06:05:57Z</time>
      </trkpt>
      <trkpt lat="42.4183930" lon="-2.7316210">
        <ele>492.8</ele>
        <time>2022-08-29T06:05:58Z</time>
      </trkpt>
      <trkpt lat="42.4183930" lon="-2.7316210">
        <ele>492.8</ele>
        <time>2022-08-29T06:05:59Z</time>
      </trkpt>
      <trkpt lat="42.4183930" lon="-2.7316190">
        <ele>492.8</ele>
        <time>2022-08-29T06:06:00Z</time>
      </trkpt>
      <trkpt lat="42.4183960" lon="-2.7316170">
        <ele>492.8</ele>
        <time>2022-08-29T06:06:01Z</time>
      </trkpt>
      <trkpt lat="42.4183980" lon="-2.7316130">
        <ele>492.6</ele>
        <time>2022-08-29T06:06:02Z</time>
      </trkpt>
      <trkpt lat="42.4183980" lon="-2.7316130">
        <ele>492.6</ele>
        <time>2022-08-29T06:06:03Z</time>
      </trkpt>
      <trkpt lat="42.4184000" lon="-2.7316110">
        <ele>492.8</ele>
        <time>2022-08-29T06:06:04Z</time>
      </trkpt>
      <trkpt lat="42.4184040" lon="-2.7316120">
        <ele>492.6</ele>
        <time>2022-08-29T06:06:05Z</time>
      </trkpt>
      <trkpt lat="42.4184070" lon="-2.7316140">
        <ele>492.8</ele>
        <time>2022-08-29T06:06:06Z</time>
      </trkpt>
      <trkpt lat="42.4184090" lon="-2.7316150">
        <ele>492.6</ele>
        <time>2022-08-29T06:06:07Z</time>
      </trkpt>
      <trkpt lat="42.4184100" lon="-2.7316140">
        <ele>492.8</ele>
        <time>2022-08-29T06:06:08Z</time>
      </trkpt>
      <trkpt lat="42.4184100" lon="-2.7316140">
        <ele>492.6</ele>
        <time>2022-08-29T06:06:09Z</time>
      </trkpt>
      <trkpt lat="42.4184110" lon="-2.7316140">
        <ele>492.6</ele>
        <time>2022-08-29T06:06:10Z</time>
      </trkpt>
      <trkpt lat="42.4184110" lon="-2.7316140">
        <ele>492.8</ele>
        <time>2022-08-29T06:06:11Z</time>
      </trkpt>
      <trkpt lat="42.4184120" lon="-2.7316140">
        <ele>492.8</ele>
        <time>2022-08-29T06:06:12Z</time>
      </trkpt>
      <trkpt lat="42.4184130" lon="-2.7316160">
        <ele>492.6</ele>
        <time>2022-08-29T06:06:13Z</time>
      </trkpt>
      <trkpt lat="42.4184140" lon="-2.7316150">
        <ele>492.6</ele>
        <time>2022-08-29T06:06:14Z</time>
      </trkpt>
      <trkpt lat="42.4184160" lon="-2.7316150">
        <ele>492.6</ele>
        <time>2022-08-29T06:06:15Z</time>
      </trkpt>
      <trkpt lat="42.4184180" lon="-2.7316160">
        <ele>492.8</ele>
        <time>2022-08-29T06:06:16Z</time>
      </trkpt>
      <trkpt lat="42.4184200" lon="-2.7316170">
        <ele>492.8</ele>
        <time>2022-08-29T06:06:17Z</time>
      </trkpt>
      <trkpt lat="42.4184210" lon="-2.7316170">
        <ele>492.6</ele>
        <time>2022-08-29T06:06:18Z</time>
      </trkpt>
      <trkpt lat="42.4184220" lon="-2.7316180">
        <ele>492.6</ele>
        <time>2022-08-29T06:06:19Z</time>
      </trkpt>
      <trkpt lat="42.4184220" lon="-2.7316180">
        <ele>492.6</ele>
        <time>2022-08-29T06:06:20Z</time>
      </trkpt>
      <trkpt lat="42.4184250" lon="-2.7316160">
        <ele>492.8</ele>
        <time>2022-08-29T06:06:21Z</time>
      </trkpt>
      <trkpt lat="42.4184260" lon="-2.7316150">
        <ele>492.6</ele>
        <time>2022-08-29T06:06:22Z</time>
      </trkpt>
      <trkpt lat="42.4184260" lon="-2.7316150">
        <ele>492.6</ele>
        <time>2022-08-29T06:06:23Z</time>
      </trkpt>
      <trkpt lat="42.4184250" lon="-2.7316150">
        <ele>492.6</ele>
        <time>2022-08-29T06:06:24Z</time>
      </trkpt>
      <trkpt lat="42.4184270" lon="-2.7316130">
        <ele>492.8</ele>
        <time>2022-08-29T06:06:25Z</time>
      </trkpt>
      <trkpt lat="42.4184300" lon="-2.7316100">
        <ele>492.6</ele>
        <time>2022-08-29T06:06:26Z</time>
      </trkpt>
      <trkpt lat="42.4184300" lon="-2.7316100">
        <ele>492.8</ele>
        <time>2022-08-29T06:06:27Z</time>
      </trkpt>
      <trkpt lat="42.4184300" lon="-2.7316090">
        <ele>492.8</ele>
        <time>2022-08-29T06:06:28Z</time>
      </trkpt>
      <trkpt lat="42.4184300" lon="-2.7316060">
        <ele>492.6</ele>
        <time>2022-08-29T06:06:29Z</time>
      </trkpt>
      <trkpt lat="42.4184310" lon="-2.7316080">
        <ele>492.8</ele>
        <time>2022-08-29T06:06:30Z</time>
      </trkpt>
      <trkpt lat="42.4184310" lon="-2.7316060">
        <ele>492.6</ele>
        <time>2022-08-29T06:06:31Z</time>
      </trkpt>
      <trkpt lat="42.4184320" lon="-2.7316040">
        <ele>492.6</ele>
        <time>2022-08-29T06:06:32Z</time>
      </trkpt>
      <trkpt lat="42.4184310" lon="-2.7316040">
        <ele>492.6</ele>
        <time>2022-08-29T06:06:33Z</time>
      </trkpt>
      <trkpt lat="42.4184310" lon="-2.7316090">
        <ele>492.6</ele>
        <time>2022-08-29T06:06:34Z</time>
      </trkpt>
      <trkpt lat="42.4184320" lon="-2.7316120">
        <ele>492.6</ele>
        <time>2022-08-29T06:06:35Z</time>
      </trkpt>
      <trkpt lat="42.4184320" lon="-2.7316120">
        <ele>492.4</ele>
        <time>2022-08-29T06:06:36Z</time>
      </trkpt>
      <trkpt lat="42.4184310" lon="-2.7316120">
        <ele>492.4</ele>
        <time>2022-08-29T06:06:37Z</time>
      </trkpt>
      <trkpt lat="42.4184310" lon="-2.7316110">
        <ele>492.6</ele>
        <time>2022-08-29T06:06:38Z</time>
      </trkpt>
      <trkpt lat="42.4184310" lon="-2.7316110">
        <ele>492.6</ele>
        <time>2022-08-29T06:06:39Z</time>
      </trkpt>
      <trkpt lat="42.4184310" lon="-2.7316120">
        <ele>492.6</ele>
        <time>2022-08-29T06:06:40Z</time>
      </trkpt>
      <trkpt lat="42.4184340" lon="-2.7316130">
        <ele>492.6</ele>
        <time>2022-08-29T06:06:41Z</time>
      </trkpt>
      <trkpt lat="42.4184370" lon="-2.7316210">
        <ele>492.4</ele>
        <time>2022-08-29T06:06:42Z</time>
      </trkpt>
      <trkpt lat="42.4184370" lon="-2.7316240">
        <ele>492.4</ele>
        <time>2022-08-29T06:06:43Z</time>
      </trkpt>
      <trkpt lat="42.4184320" lon="-2.7316290">
        <ele>492.4</ele>
        <time>2022-08-29T06:06:44Z</time>
      </trkpt>
      <trkpt lat="42.4184330" lon="-2.7316320">
        <ele>492.4</ele>
        <time>2022-08-29T06:06:45Z</time>
      </trkpt>
      <trkpt lat="42.4184330" lon="-2.7316360">
        <ele>492.4</ele>
        <time>2022-08-29T06:06:46Z</time>
      </trkpt>
      <trkpt lat="42.4184310" lon="-2.7316370">
        <ele>492.4</ele>
        <time>2022-08-29T06:06:47Z</time>
      </trkpt>
      <trkpt lat="42.4184320" lon="-2.7316380">
        <ele>492.4</ele>
        <time>2022-08-29T06:06:48Z</time>
      </trkpt>
      <trkpt lat="42.4184310" lon="-2.7316470">
        <ele>492.4</ele>
        <time>2022-08-29T06:06:49Z</time>
      </trkpt>
      <trkpt lat="42.4184320" lon="-2.7316480">
        <ele>492.4</ele>
        <time>2022-08-29T06:06:50Z</time>
      </trkpt>
      <trkpt lat="42.4184320" lon="-2.7316480">
        <ele>492.4</ele>
        <time>2022-08-29T06:06:51Z</time>
      </trkpt>
      <trkpt lat="42.4184330" lon="-2.7316480">
        <ele>492.4</ele>
        <time>2022-08-29T06:06:52Z</time>
      </trkpt>
      <trkpt lat="42.4184330" lon="-2.7316470">
        <ele>492.2</ele>
        <time>2022-08-29T06:06:53Z</time>
      </trkpt>
      <trkpt lat="42.4184320" lon="-2.7316470">
        <ele>492.4</ele>
        <time>2022-08-29T06:06:54Z</time>
      </trkpt>
      <trkpt lat="42.4184320" lon="-2.7316470">
        <ele>492.4</ele>
        <time>2022-08-29T06:06:55Z</time>
      </trkpt>
      <trkpt lat="42.4184320" lon="-2.7316470">
        <ele>492.4</ele>
        <time>2022-08-29T06:06:56Z</time>
      </trkpt>
      <trkpt lat="42.4184330" lon="-2.7316480">
        <ele>492.4</ele>
        <time>2022-08-29T06:06:57Z</time>
      </trkpt>
      <trkpt lat="42.4184340" lon="-2.7316480">
        <ele>492.2</ele>
        <time>2022-08-29T06:06:58Z</time>
      </trkpt>
      <trkpt lat="42.4184340" lon="-2.7316520">
        <ele>492.4</ele>
        <time>2022-08-29T06:06:59Z</time>
      </trkpt>
      <trkpt lat="42.4184340" lon="-2.7316470">
        <ele>492.4</ele>
        <time>2022-08-29T06:07:00Z</time>
      </trkpt>
      <trkpt lat="42.4184340" lon="-2.7316460">
        <ele>492.2</ele>
        <time>2022-08-29T06:07:01Z</time>
      </trkpt>
      <trkpt lat="42.4184340" lon="-2.7316460">
        <ele>492.2</ele>
        <time>2022-08-29T06:07:02Z</time>
      </trkpt>
      <trkpt lat="42.4184340" lon="-2.7316460">
        <ele>492.2</ele>
        <time>2022-08-29T06:07:03Z</time>
      </trkpt>
      <trkpt lat="42.4184340" lon="-2.7316460">
        <ele>492.4</ele>
        <time>2022-08-29T06:07:04Z</time>
      </trkpt>
      <trkpt lat="42.4184340" lon="-2.7316460">
        <ele>492.4</ele>
        <time>2022-08-29T06:07:05Z</time>
      </trkpt>
      <trkpt lat="42.4184340" lon="-2.7316460">
        <ele>492.4</ele>
        <time>2022-08-29T06:07:06Z</time>
      </trkpt>
      <trkpt lat="42.4184340" lon="-2.7316460">
        <ele>492.2</ele>
        <time>2022-08-29T06:07:07Z</time>
      </trkpt>
      <trkpt lat="42.4184350" lon="-2.7316450">
        <ele>492.4</ele>
        <time>2022-08-29T06:07:08Z</time>
      </trkpt>
      <trkpt lat="42.4184360" lon="-2.7316460">
        <ele>492.2</ele>
        <time>2022-08-29T06:07:09Z</time>
      </trkpt>
      <trkpt lat="42.4184390" lon="-2.7316470">
        <ele>492.2</ele>
        <time>2022-08-29T06:07:10Z</time>
      </trkpt>
      <trkpt lat="42.4184410" lon="-2.7316450">
        <ele>492.2</ele>
        <time>2022-08-29T06:07:11Z</time>
      </trkpt>
      <trkpt lat="42.4184410" lon="-2.7316430">
        <ele>492.4</ele>
        <time>2022-08-29T06:07:12Z</time>
      </trkpt>
      <trkpt lat="42.4184400" lon="-2.7316420">
        <ele>492.2</ele>
        <time>2022-08-29T06:07:13Z</time>
      </trkpt>
      <trkpt lat="42.4184410" lon="-2.7316430">
        <ele>492.2</ele>
        <time>2022-08-29T06:07:14Z</time>
      </trkpt>
      <trkpt lat="42.4184420" lon="-2.7316440">
        <ele>492.4</ele>
        <time>2022-08-29T06:07:15Z</time>
      </trkpt>
      <trkpt lat="42.4184420" lon="-2.7316410">
        <ele>492.4</ele>
        <time>2022-08-29T06:07:16Z</time>
      </trkpt>
      <trkpt lat="42.4184420" lon="-2.7316400">
        <ele>492.4</ele>
        <time>2022-08-29T06:07:17Z</time>
      </trkpt>
      <trkpt lat="42.4184420" lon="-2.7316400">
        <ele>492.4</ele>
        <time>2022-08-29T06:07:18Z</time>
      </trkpt>
      <trkpt lat="42.4184420" lon="-2.7316400">
        <ele>492.2</ele>
        <time>2022-08-29T06:07:19Z</time>
      </trkpt>
      <trkpt lat="42.4184420" lon="-2.7316370">
        <ele>492.4</ele>
        <time>2022-08-29T06:07:20Z</time>
      </trkpt>
      <trkpt lat="42.4184420" lon="-2.7316360">
        <ele>492.4</ele>
        <time>2022-08-29T06:07:21Z</time>
      </trkpt>
      <trkpt lat="42.4184420" lon="-2.7316370">
        <ele>492.4</ele>
        <time>2022-08-29T06:07:22Z</time>
      </trkpt>
      <trkpt lat="42.4184430" lon="-2.7316420">
        <ele>492.4</ele>
        <time>2022-08-29T06:07:23Z</time>
      </trkpt>
      <trkpt lat="42.4184430" lon="-2.7316410">
        <ele>492.4</ele>
        <time>2022-08-29T06:07:24Z</time>
      </trkpt>
      <trkpt lat="42.4184430" lon="-2.7316400">
        <ele>492.4</ele>
        <time>2022-08-29T06:07:25Z</time>
      </trkpt>
      <trkpt lat="42.4184430" lon="-2.7316390">
        <ele>492.4</ele>
        <time>2022-08-29T06:07:26Z</time>
      </trkpt>
      <trkpt lat="42.4184440" lon="-2.7316390">
        <ele>492.4</ele>
        <time>2022-08-29T06:07:27Z</time>
      </trkpt>
      <trkpt lat="42.4184440" lon="-2.7316380">
        <ele>492.4</ele>
        <time>2022-08-29T06:07:28Z</time>
      </trkpt>
      <trkpt lat="42.4184440" lon="-2.7316370">
        <ele>492.2</ele>
        <time>2022-08-29T06:07:29Z</time>
      </trkpt>
      <trkpt lat="42.4184440" lon="-2.7316360">
        <ele>492.4</ele>
        <time>2022-08-29T06:07:30Z</time>
      </trkpt>
      <trkpt lat="42.4184440" lon="-2.7316360">
        <ele>492.4</ele>
        <time>2022-08-29T06:07:31Z</time>
      </trkpt>
      <trkpt lat="42.4184440" lon="-2.7316360">
        <ele>492.4</ele>
        <time>2022-08-29T06:07:32Z</time>
      </trkpt>
      <trkpt lat="42.4184440" lon="-2.7316350">
        <ele>492.4</ele>
        <time>2022-08-29T06:07:33Z</time>
      </trkpt>
      <trkpt lat="42.4184450" lon="-2.7316340">
        <ele>492.2</ele>
        <time>2022-08-29T06:07:34Z</time>
      </trkpt>
      <trkpt lat="42.4184450" lon="-2.7316340">
        <ele>492.2</ele>
        <time>2022-08-29T06:07:35Z</time>
      </trkpt>
      <trkpt lat="42.4184450" lon="-2.7316330">
        <ele>492.2</ele>
        <time>2022-08-29T06:07:36Z</time>
      </trkpt>
      <trkpt lat="42.4184450" lon="-2.7316330">
        <ele>492.2</ele>
        <time>2022-08-29T06:07:37Z</time>
      </trkpt>
      <trkpt lat="42.4184450" lon="-2.7316330">
        <ele>492.2</ele>
        <time>2022-08-29T06:07:38Z</time>
      </trkpt>
      <trkpt lat="42.4184450" lon="-2.7316320">
        <ele>492.2</ele>
        <time>2022-08-29T06:07:39Z</time>
      </trkpt>
      <trkpt lat="42.4184450" lon="-2.7316330">
        <ele>492.2</ele>
        <time>2022-08-29T06:07:40Z</time>
      </trkpt>
      <trkpt lat="42.4184440" lon="-2.7316340">
        <ele>492.2</ele>
        <time>2022-08-29T06:07:41Z</time>
      </trkpt>
      <trkpt lat="42.4184440" lon="-2.7316320">
        <ele>492.0</ele>
        <time>2022-08-29T06:07:42Z</time>
      </trkpt>
      <trkpt lat="42.4184440" lon="-2.7316280">
        <ele>492.2</ele>
        <time>2022-08-29T06:07:43Z</time>
      </trkpt>
      <trkpt lat="42.4184430" lon="-2.7316270">
        <ele>492.2</ele>
        <time>2022-08-29T06:07:44Z</time>
      </trkpt>
      <trkpt lat="42.4184400" lon="-2.7316210">
        <ele>492.0</ele>
        <time>2022-08-29T06:07:45Z</time>
      </trkpt>
      <trkpt lat="42.4184410" lon="-2.7316200">
        <ele>492.2</ele>
        <time>2022-08-29T06:07:46Z</time>
      </trkpt>
      <trkpt lat="42.4184410" lon="-2.7316170">
        <ele>492.0</ele>
        <time>2022-08-29T06:07:47Z</time>
      </trkpt>
      <trkpt lat="42.4184410" lon="-2.7316160">
        <ele>492.2</ele>
        <time>2022-08-29T06:07:48Z</time>
      </trkpt>
      <trkpt lat="42.4184410" lon="-2.7316150">
        <ele>492.2</ele>
        <time>2022-08-29T06:07:49Z</time>
      </trkpt>
      <trkpt lat="42.4184410" lon="-2.7316160">
        <ele>492.0</ele>
        <time>2022-08-29T06:07:50Z</time>
      </trkpt>
      <trkpt lat="42.4184420" lon="-2.7316160">
        <ele>492.2</ele>
        <time>2022-08-29T06:07:51Z</time>
      </trkpt>
      <trkpt lat="42.4184420" lon="-2.7316160">
        <ele>492.0</ele>
        <time>2022-08-29T06:07:52Z</time>
      </trkpt>
      <trkpt lat="42.4184420" lon="-2.7316160">
        <ele>492.0</ele>
        <time>2022-08-29T06:07:53Z</time>
      </trkpt>
      <trkpt lat="42.4184410" lon="-2.7316230">
        <ele>492.2</ele>
        <time>2022-08-29T06:07:54Z</time>
      </trkpt>
      <trkpt lat="42.4184410" lon="-2.7316260">
        <ele>492.2</ele>
        <time>2022-08-29T06:07:55Z</time>
      </trkpt>
      <trkpt lat="42.4184410" lon="-2.7316270">
        <ele>492.0</ele>
        <time>2022-08-29T06:07:56Z</time>
      </trkpt>
      <trkpt lat="42.4184380" lon="-2.7316270">
        <ele>492.2</ele>
        <time>2022-08-29T06:07:57Z</time>
      </trkpt>
      <trkpt lat="42.4184370" lon="-2.7316270">
        <ele>492.2</ele>
        <time>2022-08-29T06:07:58Z</time>
      </trkpt>
      <trkpt lat="42.4184370" lon="-2.7316290">
        <ele>492.0</ele>
        <time>2022-08-29T06:07:59Z</time>
      </trkpt>
      <trkpt lat="42.4184370" lon="-2.7316310">
        <ele>492.2</ele>
        <time>2022-08-29T06:08:00Z</time>
      </trkpt>
      <trkpt lat="42.4184380" lon="-2.7316330">
        <ele>492.2</ele>
        <time>2022-08-29T06:08:01Z</time>
      </trkpt>
      <trkpt lat="42.4184390" lon="-2.7316350">
        <ele>492.2</ele>
        <time>2022-08-29T06:08:02Z</time>
      </trkpt>
      <trkpt lat="42.4184400" lon="-2.7316370">
        <ele>492.2</ele>
        <time>2022-08-29T06:08:03Z</time>
      </trkpt>
      <trkpt lat="42.4184400" lon="-2.7316360">
        <ele>492.2</ele>
        <time>2022-08-29T06:08:04Z</time>
      </trkpt>
      <trkpt lat="42.4184400" lon="-2.7316360">
        <ele>492.2</ele>
        <time>2022-08-29T06:08:05Z</time>
      </trkpt>
      <trkpt lat="42.4184400" lon="-2.7316350">
        <ele>492.0</ele>
        <time>2022-08-29T06:08:06Z</time>
      </trkpt>
      <trkpt lat="42.4184410" lon="-2.7316350">
        <ele>492.0</ele>
        <time>2022-08-29T06:08:07Z</time>
      </trkpt>
      <trkpt lat="42.4184410" lon="-2.7316330">
        <ele>492.2</ele>
        <time>2022-08-29T06:08:08Z</time>
      </trkpt>
      <trkpt lat="42.4184430" lon="-2.7316310">
        <ele>492.0</ele>
        <time>2022-08-29T06:08:09Z</time>
      </trkpt>
      <trkpt lat="42.4184440" lon="-2.7316290">
        <ele>492.0</ele>
        <time>2022-08-29T06:08:10Z</time>
      </trkpt>
      <trkpt lat="42.4184440" lon="-2.7316270">
        <ele>492.0</ele>
        <time>2022-08-29T06:08:11Z</time>
      </trkpt>
      <trkpt lat="42.4184450" lon="-2.7316270">
        <ele>492.0</ele>
        <time>2022-08-29T06:08:12Z</time>
      </trkpt>
      <trkpt lat="42.4184450" lon="-2.7316280">
        <ele>492.0</ele>
        <time>2022-08-29T06:08:13Z</time>
      </trkpt>
      <trkpt lat="42.4184450" lon="-2.7316260">
        <ele>492.0</ele>
        <time>2022-08-29T06:08:14Z</time>
      </trkpt>
      <trkpt lat="42.4184440" lon="-2.7316250">
        <ele>492.0</ele>
        <time>2022-08-29T06:08:15Z</time>
      </trkpt>
      <trkpt lat="42.4184440" lon="-2.7316250">
        <ele>492.0</ele>
        <time>2022-08-29T06:08:16Z</time>
      </trkpt>
      <trkpt lat="42.4184440" lon="-2.7316230">
        <ele>492.0</ele>
        <time>2022-08-29T06:08:17Z</time>
      </trkpt>
      <trkpt lat="42.4184440" lon="-2.7316220">
        <ele>492.0</ele>
        <time>2022-08-29T06:08:18Z</time>
      </trkpt>
      <trkpt lat="42.4184440" lon="-2.7316200">
        <ele>492.0</ele>
        <time>2022-08-29T06:08:19Z</time>
      </trkpt>
      <trkpt lat="42.4184450" lon="-2.7316180">
        <ele>492.0</ele>
        <time>2022-08-29T06:08:20Z</time>
      </trkpt>
      <trkpt lat="42.4184450" lon="-2.7316180">
        <ele>492.2</ele>
        <time>2022-08-29T06:08:21Z</time>
      </trkpt>
      <trkpt lat="42.4184450" lon="-2.7316170">
        <ele>492.0</ele>
        <time>2022-08-29T06:08:22Z</time>
      </trkpt>
      <trkpt lat="42.4184450" lon="-2.7316170">
        <ele>492.0</ele>
        <time>2022-08-29T06:08:23Z</time>
      </trkpt>
      <trkpt lat="42.4184450" lon="-2.7316160">
        <ele>492.0</ele>
        <time>2022-08-29T06:08:24Z</time>
      </trkpt>
      <trkpt lat="42.4184450" lon="-2.7316160">
        <ele>492.0</ele>
        <time>2022-08-29T06:08:25Z</time>
      </trkpt>
      <trkpt lat="42.4184460" lon="-2.7316150">
        <ele>492.0</ele>
        <time>2022-08-29T06:08:26Z</time>
      </trkpt>
      <trkpt lat="42.4184460" lon="-2.7316150">
        <ele>492.0</ele>
        <time>2022-08-29T06:08:27Z</time>
      </trkpt>
      <trkpt lat="42.4184460" lon="-2.7316150">
        <ele>492.0</ele>
        <time>2022-08-29T06:08:28Z</time>
      </trkpt>
      <trkpt lat="42.4184460" lon="-2.7316150">
        <ele>492.0</ele>
        <time>2022-08-29T06:08:29Z</time>
      </trkpt>
      <trkpt lat="42.4184460" lon="-2.7316150">
        <ele>492.0</ele>
        <time>2022-08-29T06:08:30Z</time>
      </trkpt>
      <trkpt lat="42.4184460" lon="-2.7316140">
        <ele>492.0</ele>
        <time>2022-08-29T06:08:31Z</time>
      </trkpt>
      <trkpt lat="42.4184470" lon="-2.7316140">
        <ele>492.0</ele>
        <time>2022-08-29T06:08:32Z</time>
      </trkpt>
      <trkpt lat="42.4184470" lon="-2.7316130">
        <ele>491.8</ele>
        <time>2022-08-29T06:08:33Z</time>
      </trkpt>
      <trkpt lat="42.4184480" lon="-2.7316120">
        <ele>492.0</ele>
        <time>2022-08-29T06:08:34Z</time>
      </trkpt>
      <trkpt lat="42.4184500" lon="-2.7316110">
        <ele>492.0</ele>
        <time>2022-08-29T06:08:35Z</time>
      </trkpt>
      <trkpt lat="42.4184510" lon="-2.7316100">
        <ele>492.0</ele>
        <time>2022-08-29T06:08:36Z</time>
      </trkpt>
      <trkpt lat="42.4184520" lon="-2.7316100">
        <ele>492.0</ele>
        <time>2022-08-29T06:08:37Z</time>
      </trkpt>
      <trkpt lat="42.4184530" lon="-2.7316090">
        <ele>492.0</ele>
        <time>2022-08-29T06:08:38Z</time>
      </trkpt>
      <trkpt lat="42.4184530" lon="-2.7316080">
        <ele>492.0</ele>
        <time>2022-08-29T06:08:39Z</time>
      </trkpt>
      <trkpt lat="42.4184540" lon="-2.7316080">
        <ele>492.0</ele>
        <time>2022-08-29T06:08:40Z</time>
      </trkpt>
      <trkpt lat="42.4184530" lon="-2.7316060">
        <ele>492.0</ele>
        <time>2022-08-29T06:08:41Z</time>
      </trkpt>
      <trkpt lat="42.4184540" lon="-2.7316050">
        <ele>492.0</ele>
        <time>2022-08-29T06:08:42Z</time>
      </trkpt>
      <trkpt lat="42.4184540" lon="-2.7316050">
        <ele>492.0</ele>
        <time>2022-08-29T06:08:43Z</time>
      </trkpt>
      <trkpt lat="42.4184550" lon="-2.7316040">
        <ele>492.0</ele>
        <time>2022-08-29T06:08:44Z</time>
      </trkpt>
      <trkpt lat="42.4184560" lon="-2.7316000">
        <ele>492.0</ele>
        <time>2022-08-29T06:08:45Z</time>
      </trkpt>
      <trkpt lat="42.4184540" lon="-2.7316000">
        <ele>492.0</ele>
        <time>2022-08-29T06:08:46Z</time>
      </trkpt>
      <trkpt lat="42.4184550" lon="-2.7315980">
        <ele>492.0</ele>
        <time>2022-08-29T06:08:47Z</time>
      </trkpt>
      <trkpt lat="42.4184540" lon="-2.7315960">
        <ele>492.0</ele>
        <time>2022-08-29T06:08:48Z</time>
      </trkpt>
      <trkpt lat="42.4184540" lon="-2.7315960">
        <ele>492.0</ele>
        <time>2022-08-29T06:08:49Z</time>
      </trkpt>
      <trkpt lat="42.4184540" lon="-2.7315950">
        <ele>491.8</ele>
        <time>2022-08-29T06:08:50Z</time>
      </trkpt>
      <trkpt lat="42.4184550" lon="-2.7315940">
        <ele>492.0</ele>
        <time>2022-08-29T06:08:51Z</time>
      </trkpt>
      <trkpt lat="42.4184560" lon="-2.7315930">
        <ele>492.0</ele>
        <time>2022-08-29T06:08:52Z</time>
      </trkpt>
      <trkpt lat="42.4184570" lon="-2.7315930">
        <ele>492.0</ele>
        <time>2022-08-29T06:08:53Z</time>
      </trkpt>
      <trkpt lat="42.4184570" lon="-2.7315910">
        <ele>492.0</ele>
        <time>2022-08-29T06:08:54Z</time>
      </trkpt>
      <trkpt lat="42.4184570" lon="-2.7315910">
        <ele>492.0</ele>
        <time>2022-08-29T06:08:55Z</time>
      </trkpt>
      <trkpt lat="42.4184570" lon="-2.7315900">
        <ele>491.8</ele>
        <time>2022-08-29T06:08:56Z</time>
      </trkpt>
      <trkpt lat="42.4184570" lon="-2.7315880">
        <ele>491.8</ele>
        <time>2022-08-29T06:08:57Z</time>
      </trkpt>
      <trkpt lat="42.4184570" lon="-2.7315870">
        <ele>492.0</ele>
        <time>2022-08-29T06:08:58Z</time>
      </trkpt>
      <trkpt lat="42.4184580" lon="-2.7315860">
        <ele>492.0</ele>
        <time>2022-08-29T06:08:59Z</time>
      </trkpt>
      <trkpt lat="42.4184580" lon="-2.7315860">
        <ele>492.0</ele>
        <time>2022-08-29T06:09:00Z</time>
      </trkpt>
      <trkpt lat="42.4184590" lon="-2.7315840">
        <ele>492.0</ele>
        <time>2022-08-29T06:09:01Z</time>
      </trkpt>
      <trkpt lat="42.4184590" lon="-2.7315780">
        <ele>492.0</ele>
        <time>2022-08-29T06:09:02Z</time>
      </trkpt>
      <trkpt lat="42.4184600" lon="-2.7315710">
        <ele>491.8</ele>
        <time>2022-08-29T06:09:03Z</time>
      </trkpt>
      <trkpt lat="42.4184620" lon="-2.7315660">
        <ele>492.0</ele>
        <time>2022-08-29T06:09:04Z</time>
      </trkpt>
      <trkpt lat="42.4184620" lon="-2.7315630">
        <ele>492.0</ele>
        <time>2022-08-29T06:09:05Z</time>
      </trkpt>
      <trkpt lat="42.4184620" lon="-2.7315620">
        <ele>491.8</ele>
        <time>2022-08-29T06:09:06Z</time>
      </trkpt>
      <trkpt lat="42.4184630" lon="-2.7315630">
        <ele>492.0</ele>
        <time>2022-08-29T06:09:07Z</time>
      </trkpt>
      <trkpt lat="42.4184620" lon="-2.7315660">
        <ele>492.0</ele>
        <time>2022-08-29T06:09:08Z</time>
      </trkpt>
      <trkpt lat="42.4184630" lon="-2.7315680">
        <ele>492.0</ele>
        <time>2022-08-29T06:09:09Z</time>
      </trkpt>
      <trkpt lat="42.4184640" lon="-2.7315670">
        <ele>492.0</ele>
        <time>2022-08-29T06:09:10Z</time>
      </trkpt>
      <trkpt lat="42.4184650" lon="-2.7315660">
        <ele>492.0</ele>
        <time>2022-08-29T06:09:11Z</time>
      </trkpt>
      <trkpt lat="42.4184660" lon="-2.7315660">
        <ele>492.0</ele>
        <time>2022-08-29T06:09:12Z</time>
      </trkpt>
      <trkpt lat="42.4184670" lon="-2.7315650">
        <ele>492.0</ele>
        <time>2022-08-29T06:09:13Z</time>
      </trkpt>
      <trkpt lat="42.4184670" lon="-2.7315670">
        <ele>492.0</ele>
        <time>2022-08-29T06:09:14Z</time>
      </trkpt>
      <trkpt lat="42.4184670" lon="-2.7315700">
        <ele>492.0</ele>
        <time>2022-08-29T06:09:15Z</time>
      </trkpt>
      <trkpt lat="42.4184680" lon="-2.7315720">
        <ele>492.0</ele>
        <time>2022-08-29T06:09:16Z</time>
      </trkpt>
      <trkpt lat="42.4184680" lon="-2.7315720">
        <ele>492.0</ele>
        <time>2022-08-29T06:09:17Z</time>
      </trkpt>
      <trkpt lat="42.4184690" lon="-2.7315710">
        <ele>492.0</ele>
        <time>2022-08-29T06:09:18Z</time>
      </trkpt>
      <trkpt lat="42.4184690" lon="-2.7315700">
        <ele>491.8</ele>
        <time>2022-08-29T06:09:19Z</time>
      </trkpt>
      <trkpt lat="42.4184680" lon="-2.7315710">
        <ele>491.8</ele>
        <time>2022-08-29T06:09:20Z</time>
      </trkpt>
      <trkpt lat="42.4184670" lon="-2.7315700">
        <ele>492.0</ele>
        <time>2022-08-29T06:09:21Z</time>
      </trkpt>
      <trkpt lat="42.4184660" lon="-2.7315700">
        <ele>491.8</ele>
        <time>2022-08-29T06:09:22Z</time>
      </trkpt>
      <trkpt lat="42.4184650" lon="-2.7315700">
        <ele>491.8</ele>
        <time>2022-08-29T06:09:23Z</time>
      </trkpt>
      <trkpt lat="42.4184640" lon="-2.7315720">
        <ele>491.8</ele>
        <time>2022-08-29T06:09:24Z</time>
      </trkpt>
      <trkpt lat="42.4184610" lon="-2.7315770">
        <ele>492.0</ele>
        <time>2022-08-29T06:09:25Z</time>
      </trkpt>
      <trkpt lat="42.4184570" lon="-2.7315710">
        <ele>491.8</ele>
        <time>2022-08-29T06:09:26Z</time>
      </trkpt>
      <trkpt lat="42.4184540" lon="-2.7315710">
        <ele>491.8</ele>
        <time>2022-08-29T06:09:27Z</time>
      </trkpt>
      <trkpt lat="42.4184490" lon="-2.7315730">
        <ele>491.8</ele>
        <time>2022-08-29T06:09:28Z</time>
      </trkpt>
      <trkpt lat="42.4184480" lon="-2.7315770">
        <ele>491.8</ele>
        <time>2022-08-29T06:09:29Z</time>
      </trkpt>
      <trkpt lat="42.4184470" lon="-2.7315800">
        <ele>491.6</ele>
        <time>2022-08-29T06:09:30Z</time>
      </trkpt>
      <trkpt lat="42.4184450" lon="-2.7315820">
        <ele>491.8</ele>
        <time>2022-08-29T06:09:31Z</time>
      </trkpt>
      <trkpt lat="42.4184430" lon="-2.7315830">
        <ele>491.8</ele>
        <time>2022-08-29T06:09:32Z</time>
      </trkpt>
      <trkpt lat="42.4184410" lon="-2.7315870">
        <ele>491.8</ele>
        <time>2022-08-29T06:09:33Z</time>
      </trkpt>
      <trkpt lat="42.4184360" lon="-2.7315940">
        <ele>491.8</ele>
        <time>2022-08-29T06:09:34Z</time>
      </trkpt>
      <trkpt lat="42.4184320" lon="-2.7315970">
        <ele>491.8</ele>
        <time>2022-08-29T06:09:35Z</time>
      </trkpt>
      <trkpt lat="42.4184260" lon="-2.7316060">
        <ele>491.8</ele>
        <time>2022-08-29T06:09:36Z</time>
      </trkpt>
      <trkpt lat="42.4184240" lon="-2.7316090">
        <ele>491.6</ele>
        <time>2022-08-29T06:09:37Z</time>
      </trkpt>
      <trkpt lat="42.4184230" lon="-2.7316090">
        <ele>491.6</ele>
        <time>2022-08-29T06:09:38Z</time>
      </trkpt>
      <trkpt lat="42.4184230" lon="-2.7316090">
        <ele>491.6</ele>
        <time>2022-08-29T06:09:39Z</time>
      </trkpt>
      <trkpt lat="42.4184230" lon="-2.7316100">
        <ele>491.6</ele>
        <time>2022-08-29T06:09:40Z</time>
      </trkpt>
      <trkpt lat="42.4184230" lon="-2.7316110">
        <ele>491.6</ele>
        <time>2022-08-29T06:09:41Z</time>
      </trkpt>
      <trkpt lat="42.4184230" lon="-2.7316120">
        <ele>491.6</ele>
        <time>2022-08-29T06:09:42Z</time>
      </trkpt>
      <trkpt lat="42.4184230" lon="-2.7316130">
        <ele>491.8</ele>
        <time>2022-08-29T06:09:43Z</time>
      </trkpt>
      <trkpt lat="42.4184240" lon="-2.7316140">
        <ele>491.6</ele>
        <time>2022-08-29T06:09:44Z</time>
      </trkpt>
      <trkpt lat="42.4184210" lon="-2.7316190">
        <ele>491.6</ele>
        <time>2022-08-29T06:09:45Z</time>
      </trkpt>
      <trkpt lat="42.4184220" lon="-2.7316200">
        <ele>491.8</ele>
        <time>2022-08-29T06:09:46Z</time>
      </trkpt>
      <trkpt lat="42.4184220" lon="-2.7316180">
        <ele>491.6</ele>
        <time>2022-08-29T06:09:47Z</time>
      </trkpt>
      <trkpt lat="42.4184220" lon="-2.7316180">
        <ele>491.8</ele>
        <time>2022-08-29T06:09:48Z</time>
      </trkpt>
      <trkpt lat="42.4184220" lon="-2.7316180">
        <ele>491.8</ele>
        <time>2022-08-29T06:09:49Z</time>
      </trkpt>
      <trkpt lat="42.4184220" lon="-2.7316180">
        <ele>491.6</ele>
        <time>2022-08-29T06:09:50Z</time>
      </trkpt>
      <trkpt lat="42.4184220" lon="-2.7316180">
        <ele>491.6</ele>
        <time>2022-08-29T06:09:51Z</time>
      </trkpt>
      <trkpt lat="42.4184220" lon="-2.7316170">
        <ele>491.8</ele>
        <time>2022-08-29T06:09:52Z</time>
      </trkpt>
      <trkpt lat="42.4184220" lon="-2.7316170">
        <ele>491.6</ele>
        <time>2022-08-29T06:09:53Z</time>
      </trkpt>
      <trkpt lat="42.4184220" lon="-2.7316170">
        <ele>491.6</ele>
        <time>2022-08-29T06:09:54Z</time>
      </trkpt>
      <trkpt lat="42.4184220" lon="-2.7316190">
        <ele>491.6</ele>
        <time>2022-08-29T06:09:55Z</time>
      </trkpt>
      <trkpt lat="42.4184210" lon="-2.7316180">
        <ele>491.6</ele>
        <time>2022-08-29T06:09:56Z</time>
      </trkpt>
      <trkpt lat="42.4184210" lon="-2.7316140">
        <ele>491.8</ele>
        <time>2022-08-29T06:09:57Z</time>
      </trkpt>
      <trkpt lat="42.4184210" lon="-2.7316140">
        <ele>491.6</ele>
        <time>2022-08-29T06:09:58Z</time>
      </trkpt>
      <trkpt lat="42.4184210" lon="-2.7316140">
        <ele>491.8</ele>
        <time>2022-08-29T06:09:59Z</time>
      </trkpt>
      <trkpt lat="42.4184210" lon="-2.7316120">
        <ele>491.8</ele>
        <time>2022-08-29T06:10:00Z</time>
      </trkpt>
      <trkpt lat="42.4184220" lon="-2.7316110">
        <ele>491.8</ele>
        <time>2022-08-29T06:10:01Z</time>
      </trkpt>
      <trkpt lat="42.4184220" lon="-2.7316100">
        <ele>491.8</ele>
        <time>2022-08-29T06:10:02Z</time>
      </trkpt>
      <trkpt lat="42.4184220" lon="-2.7316100">
        <ele>491.8</ele>
        <time>2022-08-29T06:10:03Z</time>
      </trkpt>
      <trkpt lat="42.4184230" lon="-2.7316110">
        <ele>491.8</ele>
        <time>2022-08-29T06:10:04Z</time>
      </trkpt>
      <trkpt lat="42.4184220" lon="-2.7316110">
        <ele>491.8</ele>
        <time>2022-08-29T06:10:05Z</time>
      </trkpt>
      <trkpt lat="42.4184210" lon="-2.7316150">
        <ele>491.8</ele>
        <time>2022-08-29T06:10:06Z</time>
      </trkpt>
      <trkpt lat="42.4184210" lon="-2.7316150">
        <ele>491.8</ele>
        <time>2022-08-29T06:10:07Z</time>
      </trkpt>
      <trkpt lat="42.4184210" lon="-2.7316160">
        <ele>491.8</ele>
        <time>2022-08-29T06:10:08Z</time>
      </trkpt>
      <trkpt lat="42.4184210" lon="-2.7316160">
        <ele>491.8</ele>
        <time>2022-08-29T06:10:09Z</time>
      </trkpt>
      <trkpt lat="42.4184210" lon="-2.7316160">
        <ele>491.8</ele>
        <time>2022-08-29T06:10:10Z</time>
      </trkpt>
      <trkpt lat="42.4184220" lon="-2.7316140">
        <ele>491.8</ele>
        <time>2022-08-29T06:10:11Z</time>
      </trkpt>
      <trkpt lat="42.4184210" lon="-2.7316170">
        <ele>491.8</ele>
        <time>2022-08-29T06:10:12Z</time>
      </trkpt>
      <trkpt lat="42.4184210" lon="-2.7316180">
        <ele>491.8</ele>
        <time>2022-08-29T06:10:13Z</time>
      </trkpt>
      <trkpt lat="42.4184220" lon="-2.7316200">
        <ele>492.0</ele>
        <time>2022-08-29T06:10:14Z</time>
      </trkpt>
      <trkpt lat="42.4184220" lon="-2.7316210">
        <ele>491.8</ele>
        <time>2022-08-29T06:10:15Z</time>
      </trkpt>
      <trkpt lat="42.4184220" lon="-2.7316210">
        <ele>491.8</ele>
        <time>2022-08-29T06:10:16Z</time>
      </trkpt>
      <trkpt lat="42.4184220" lon="-2.7316210">
        <ele>491.8</ele>
        <time>2022-08-29T06:10:17Z</time>
      </trkpt>
      <trkpt lat="42.4184230" lon="-2.7316210">
        <ele>491.6</ele>
        <time>2022-08-29T06:10:18Z</time>
      </trkpt>
      <trkpt lat="42.4184230" lon="-2.7316240">
        <ele>491.8</ele>
        <time>2022-08-29T06:10:19Z</time>
      </trkpt>
      <trkpt lat="42.4184220" lon="-2.7316260">
        <ele>492.0</ele>
        <time>2022-08-29T06:10:20Z</time>
      </trkpt>
      <trkpt lat="42.4184230" lon="-2.7316290">
        <ele>491.8</ele>
        <time>2022-08-29T06:10:21Z</time>
      </trkpt>
      <trkpt lat="42.4184240" lon="-2.7316300">
        <ele>491.8</ele>
        <time>2022-08-29T06:10:22Z</time>
      </trkpt>
      <trkpt lat="42.4184260" lon="-2.7316290">
        <ele>491.8</ele>
        <time>2022-08-29T06:10:23Z</time>
      </trkpt>
      <trkpt lat="42.4184270" lon="-2.7316280">
        <ele>491.8</ele>
        <time>2022-08-29T06:10:24Z</time>
      </trkpt>
      <trkpt lat="42.4184270" lon="-2.7316280">
        <ele>491.8</ele>
        <time>2022-08-29T06:10:25Z</time>
      </trkpt>
      <trkpt lat="42.4184280" lon="-2.7316280">
        <ele>491.8</ele>
        <time>2022-08-29T06:10:26Z</time>
      </trkpt>
      <trkpt lat="42.4184280" lon="-2.7316290">
        <ele>491.8</ele>
        <time>2022-08-29T06:10:27Z</time>
      </trkpt>
      <trkpt lat="42.4184300" lon="-2.7316340">
        <ele>492.0</ele>
        <time>2022-08-29T06:10:28Z</time>
      </trkpt>
      <trkpt lat="42.4184290" lon="-2.7316330">
        <ele>491.8</ele>
        <time>2022-08-29T06:10:29Z</time>
      </trkpt>
      <trkpt lat="42.4184320" lon="-2.7316340">
        <ele>491.8</ele>
        <time>2022-08-29T06:10:30Z</time>
      </trkpt>
      <trkpt lat="42.4184350" lon="-2.7316360">
        <ele>491.8</ele>
        <time>2022-08-29T06:10:31Z</time>
      </trkpt>
      <trkpt lat="42.4184350" lon="-2.7316360">
        <ele>491.8</ele>
        <time>2022-08-29T06:10:32Z</time>
      </trkpt>
      <trkpt lat="42.4184350" lon="-2.7316360">
        <ele>492.0</ele>
        <time>2022-08-29T06:10:33Z</time>
      </trkpt>
      <trkpt lat="42.4184360" lon="-2.7316340">
        <ele>492.0</ele>
        <time>2022-08-29T06:10:34Z</time>
      </trkpt>
      <trkpt lat="42.4184370" lon="-2.7316330">
        <ele>491.8</ele>
        <time>2022-08-29T06:10:35Z</time>
      </trkpt>
      <trkpt lat="42.4184380" lon="-2.7316320">
        <ele>491.8</ele>
        <time>2022-08-29T06:10:36Z</time>
      </trkpt>
      <trkpt lat="42.4184400" lon="-2.7316320">
        <ele>491.8</ele>
        <time>2022-08-29T06:10:37Z</time>
      </trkpt>
      <trkpt lat="42.4184420" lon="-2.7316310">
        <ele>492.0</ele>
        <time>2022-08-29T06:10:38Z</time>
      </trkpt>
      <trkpt lat="42.4184410" lon="-2.7316300">
        <ele>491.8</ele>
        <time>2022-08-29T06:10:39Z</time>
      </trkpt>
      <trkpt lat="42.4184410" lon="-2.7316290">
        <ele>491.8</ele>
        <time>2022-08-29T06:10:40Z</time>
      </trkpt>
      <trkpt lat="42.4184420" lon="-2.7316260">
        <ele>491.8</ele>
        <time>2022-08-29T06:10:41Z</time>
      </trkpt>
      <trkpt lat="42.4184420" lon="-2.7316240">
        <ele>492.0</ele>
        <time>2022-08-29T06:10:42Z</time>
      </trkpt>
      <trkpt lat="42.4184400" lon="-2.7316230">
        <ele>491.8</ele>
        <time>2022-08-29T06:10:43Z</time>
      </trkpt>
      <trkpt lat="42.4184390" lon="-2.7316220">
        <ele>491.8</ele>
        <time>2022-08-29T06:10:44Z</time>
      </trkpt>
      <trkpt lat="42.4184390" lon="-2.7316190">
        <ele>492.0</ele>
        <time>2022-08-29T06:10:45Z</time>
      </trkpt>
      <trkpt lat="42.4184400" lon="-2.7316170">
        <ele>492.0</ele>
        <time>2022-08-29T06:10:46Z</time>
      </trkpt>
      <trkpt lat="42.4184400" lon="-2.7316170">
        <ele>491.8</ele>
        <time>2022-08-29T06:10:47Z</time>
      </trkpt>
      <trkpt lat="42.4184400" lon="-2.7316190">
        <ele>491.8</ele>
        <time>2022-08-29T06:10:48Z</time>
      </trkpt>
      <trkpt lat="42.4184370" lon="-2.7316240">
        <ele>491.8</ele>
        <time>2022-08-29T06:10:49Z</time>
      </trkpt>
      <trkpt lat="42.4184350" lon="-2.7316320">
        <ele>492.0</ele>
        <time>2022-08-29T06:10:50Z</time>
      </trkpt>
      <trkpt lat="42.4184340" lon="-2.7316330">
        <ele>492.0</ele>
        <time>2022-08-29T06:10:51Z</time>
      </trkpt>
      <trkpt lat="42.4184350" lon="-2.7316340">
        <ele>492.0</ele>
        <time>2022-08-29T06:10:52Z</time>
      </trkpt>
      <trkpt lat="42.4184350" lon="-2.7316350">
        <ele>491.8</ele>
        <time>2022-08-29T06:10:53Z</time>
      </trkpt>
      <trkpt lat="42.4184350" lon="-2.7316360">
        <ele>491.8</ele>
        <time>2022-08-29T06:10:54Z</time>
      </trkpt>
      <trkpt lat="42.4184350" lon="-2.7316370">
        <ele>491.8</ele>
        <time>2022-08-29T06:10:55Z</time>
      </trkpt>
      <trkpt lat="42.4184350" lon="-2.7316370">
        <ele>491.8</ele>
        <time>2022-08-29T06:10:56Z</time>
      </trkpt>
      <trkpt lat="42.4184350" lon="-2.7316390">
        <ele>492.0</ele>
        <time>2022-08-29T06:10:57Z</time>
      </trkpt>
      <trkpt lat="42.4184350" lon="-2.7316410">
        <ele>492.0</ele>
        <time>2022-08-29T06:10:58Z</time>
      </trkpt>
      <trkpt lat="42.4184360" lon="-2.7316430">
        <ele>492.0</ele>
        <time>2022-08-29T06:10:59Z</time>
      </trkpt>
      <trkpt lat="42.4184360" lon="-2.7316430">
        <ele>491.8</ele>
        <time>2022-08-29T06:11:00Z</time>
      </trkpt>
      <trkpt lat="42.4184360" lon="-2.7316440">
        <ele>492.0</ele>
        <time>2022-08-29T06:11:01Z</time>
      </trkpt>
      <trkpt lat="42.4184360" lon="-2.7316440">
        <ele>491.8</ele>
        <time>2022-08-29T06:11:02Z</time>
      </trkpt>
      <trkpt lat="42.4184360" lon="-2.7316440">
        <ele>491.8</ele>
        <time>2022-08-29T06:11:03Z</time>
      </trkpt>
      <trkpt lat="42.4184360" lon="-2.7316390">
        <ele>491.8</ele>
        <time>2022-08-29T06:11:04Z</time>
      </trkpt>
      <trkpt lat="42.4184360" lon="-2.7316390">
        <ele>491.8</ele>
        <time>2022-08-29T06:11:05Z</time>
      </trkpt>
      <trkpt lat="42.4184370" lon="-2.7316400">
        <ele>491.8</ele>
        <time>2022-08-29T06:11:06Z</time>
      </trkpt>
      <trkpt lat="42.4184370" lon="-2.7316390">
        <ele>491.8</ele>
        <time>2022-08-29T06:11:07Z</time>
      </trkpt>
      <trkpt lat="42.4184380" lon="-2.7316400">
        <ele>491.8</ele>
        <time>2022-08-29T06:11:08Z</time>
      </trkpt>
      <trkpt lat="42.4184380" lon="-2.7316410">
        <ele>491.8</ele>
        <time>2022-08-29T06:11:09Z</time>
      </trkpt>
      <trkpt lat="42.4184370" lon="-2.7316430">
        <ele>491.8</ele>
        <time>2022-08-29T06:11:10Z</time>
      </trkpt>
      <trkpt lat="42.4184380" lon="-2.7316460">
        <ele>491.8</ele>
        <time>2022-08-29T06:11:11Z</time>
      </trkpt>
      <trkpt lat="42.4184390" lon="-2.7316470">
        <ele>491.8</ele>
        <time>2022-08-29T06:11:12Z</time>
      </trkpt>
      <trkpt lat="42.4184400" lon="-2.7316480">
        <ele>491.8</ele>
        <time>2022-08-29T06:11:13Z</time>
      </trkpt>
      <trkpt lat="42.4184400" lon="-2.7316490">
        <ele>491.8</ele>
        <time>2022-08-29T06:11:14Z</time>
      </trkpt>
      <trkpt lat="42.4184410" lon="-2.7316490">
        <ele>491.6</ele>
        <time>2022-08-29T06:11:15Z</time>
      </trkpt>
      <trkpt lat="42.4184420" lon="-2.7316490">
        <ele>491.6</ele>
        <time>2022-08-29T06:11:16Z</time>
      </trkpt>
      <trkpt lat="42.4184430" lon="-2.7316480">
        <ele>491.8</ele>
        <time>2022-08-29T06:11:17Z</time>
      </trkpt>
      <trkpt lat="42.4184420" lon="-2.7316480">
        <ele>491.8</ele>
        <time>2022-08-29T06:11:18Z</time>
      </trkpt>
      <trkpt lat="42.4184420" lon="-2.7316470">
        <ele>491.8</ele>
        <time>2022-08-29T06:11:19Z</time>
      </trkpt>
      <trkpt lat="42.4184430" lon="-2.7316450">
        <ele>491.8</ele>
        <time>2022-08-29T06:11:20Z</time>
      </trkpt>
      <trkpt lat="42.4184380" lon="-2.7316460">
        <ele>491.8</ele>
        <time>2022-08-29T06:11:21Z</time>
      </trkpt>
      <trkpt lat="42.4184350" lon="-2.7316480">
        <ele>491.8</ele>
        <time>2022-08-29T06:11:22Z</time>
      </trkpt>
      <trkpt lat="42.4184350" lon="-2.7316460">
        <ele>491.8</ele>
        <time>2022-08-29T06:11:23Z</time>
      </trkpt>
      <trkpt lat="42.4184350" lon="-2.7316430">
        <ele>491.8</ele>
        <time>2022-08-29T06:11:24Z</time>
      </trkpt>
      <trkpt lat="42.4184330" lon="-2.7316390">
        <ele>491.8</ele>
        <time>2022-08-29T06:11:25Z</time>
      </trkpt>
      <trkpt lat="42.4184320" lon="-2.7316370">
        <ele>491.8</ele>
        <time>2022-08-29T06:11:26Z</time>
      </trkpt>
      <trkpt lat="42.4184320" lon="-2.7316350">
        <ele>491.8</ele>
        <time>2022-08-29T06:11:27Z</time>
      </trkpt>
      <trkpt lat="42.4184310" lon="-2.7316350">
        <ele>491.8</ele>
        <time>2022-08-29T06:11:28Z</time>
      </trkpt>
      <trkpt lat="42.4184300" lon="-2.7316390">
        <ele>491.8</ele>
        <time>2022-08-29T06:11:29Z</time>
      </trkpt>
      <trkpt lat="42.4184280" lon="-2.7316440">
        <ele>491.8</ele>
        <time>2022-08-29T06:11:30Z</time>
      </trkpt>
      <trkpt lat="42.4184260" lon="-2.7316450">
        <ele>491.8</ele>
        <time>2022-08-29T06:11:31Z</time>
      </trkpt>
      <trkpt lat="42.4184240" lon="-2.7316460">
        <ele>491.8</ele>
        <time>2022-08-29T06:11:32Z</time>
      </trkpt>
      <trkpt lat="42.4184230" lon="-2.7316510">
        <ele>491.8</ele>
        <time>2022-08-29T06:11:33Z</time>
      </trkpt>
      <trkpt lat="42.4184230" lon="-2.7316550">
        <ele>491.6</ele>
        <time>2022-08-29T06:11:34Z</time>
      </trkpt>
      <trkpt lat="42.4184240" lon="-2.7316620">
        <ele>491.6</ele>
        <time>2022-08-29T06:11:35Z</time>
      </trkpt>
      <trkpt lat="42.4184240" lon="-2.7316650">
        <ele>491.6</ele>
        <time>2022-08-29T06:11:36Z</time>
      </trkpt>
      <trkpt lat="42.4184230" lon="-2.7316670">
        <ele>491.6</ele>
        <time>2022-08-29T06:11:37Z</time>
      </trkpt>
      <trkpt lat="42.4184210" lon="-2.7316700">
        <ele>491.6</ele>
        <time>2022-08-29T06:11:38Z</time>
      </trkpt>
      <trkpt lat="42.4184200" lon="-2.7316740">
        <ele>491.8</ele>
        <time>2022-08-29T06:11:39Z</time>
      </trkpt>
      <trkpt lat="42.4184170" lon="-2.7316760">
        <ele>491.8</ele>
        <time>2022-08-29T06:11:40Z</time>
      </trkpt>
      <trkpt lat="42.4184150" lon="-2.7316880">
        <ele>491.8</ele>
        <time>2022-08-29T06:11:41Z</time>
      </trkpt>
      <trkpt lat="42.4184120" lon="-2.7316960">
        <ele>491.8</ele>
        <time>2022-08-29T06:11:42Z</time>
      </trkpt>
      <trkpt lat="42.4184100" lon="-2.7317040">
        <ele>491.8</ele>
        <time>2022-08-29T06:11:43Z</time>
      </trkpt>
      <trkpt lat="42.4184100" lon="-2.7317080">
        <ele>491.6</ele>
        <time>2022-08-29T06:11:44Z</time>
      </trkpt>
      <trkpt lat="42.4184070" lon="-2.7317090">
        <ele>491.8</ele>
        <time>2022-08-29T06:11:45Z</time>
      </trkpt>
      <trkpt lat="42.4184040" lon="-2.7317100">
        <ele>491.6</ele>
        <time>2022-08-29T06:11:46Z</time>
      </trkpt>
      <trkpt lat="42.4184030" lon="-2.7317120">
        <ele>491.6</ele>
        <time>2022-08-29T06:11:47Z</time>
      </trkpt>
      <trkpt lat="42.4183970" lon="-2.7317180">
        <ele>491.6</ele>
        <time>2022-08-29T06:11:48Z</time>
      </trkpt>
      <trkpt lat="42.4183930" lon="-2.7317220">
        <ele>491.6</ele>
        <time>2022-08-29T06:11:49Z</time>
      </trkpt>
      <trkpt lat="42.4183910" lon="-2.7317250">
        <ele>491.8</ele>
        <time>2022-08-29T06:11:50Z</time>
      </trkpt>
      <trkpt lat="42.4183870" lon="-2.7317290">
        <ele>491.6</ele>
        <time>2022-08-29T06:11:51Z</time>
      </trkpt>
      <trkpt lat="42.4183850" lon="-2.7317340">
        <ele>491.6</ele>
        <time>2022-08-29T06:11:52Z</time>
      </trkpt>
      <trkpt lat="42.4183820" lon="-2.7317370">
        <ele>491.6</ele>
        <time>2022-08-29T06:11:53Z</time>
      </trkpt>
      <trkpt lat="42.4183790" lon="-2.7317370">
        <ele>491.8</ele>
        <time>2022-08-29T06:11:54Z</time>
      </trkpt>
      <trkpt lat="42.4183750" lon="-2.7317410">
        <ele>491.6</ele>
        <time>2022-08-29T06:11:55Z</time>
      </trkpt>
      <trkpt lat="42.4183740" lon="-2.7317480">
        <ele>491.6</ele>
        <time>2022-08-29T06:11:56Z</time>
      </trkpt>
      <trkpt lat="42.4183750" lon="-2.7317610">
        <ele>491.8</ele>
        <time>2022-08-29T06:11:57Z</time>
      </trkpt>
      <trkpt lat="42.4183780" lon="-2.7317740">
        <ele>491.6</ele>
        <time>2022-08-29T06:11:58Z</time>
      </trkpt>
      <trkpt lat="42.4183770" lon="-2.7317850">
        <ele>491.6</ele>
        <time>2022-08-29T06:11:59Z</time>
      </trkpt>
      <trkpt lat="42.4183660" lon="-2.7317960">
        <ele>491.6</ele>
        <time>2022-08-29T06:12:00Z</time>
      </trkpt>
      <trkpt lat="42.4183580" lon="-2.7318050">
        <ele>491.8</ele>
        <time>2022-08-29T06:12:01Z</time>
      </trkpt>
      <trkpt lat="42.4183420" lon="-2.7318130">
        <ele>491.6</ele>
        <time>2022-08-29T06:12:02Z</time>
      </trkpt>
      <trkpt lat="42.4183300" lon="-2.7318200">
        <ele>491.6</ele>
        <time>2022-08-29T06:12:03Z</time>
      </trkpt>
      <trkpt lat="42.4183240" lon="-2.7318010">
        <ele>491.8</ele>
        <time>2022-08-29T06:12:04Z</time>
      </trkpt>
      <trkpt lat="42.4183080" lon="-2.7318020">
        <ele>491.8</ele>
        <time>2022-08-29T06:12:05Z</time>
      </trkpt>
      <trkpt lat="42.4182960" lon="-2.7318010">
        <ele>491.6</ele>
        <time>2022-08-29T06:12:06Z</time>
      </trkpt>
      <trkpt lat="42.4182820" lon="-2.7317990">
        <ele>491.6</ele>
        <time>2022-08-29T06:12:07Z</time>
      </trkpt>
      <trkpt lat="42.4182650" lon="-2.7318020">
        <ele>491.6</ele>
        <time>2022-08-29T06:12:08Z</time>
      </trkpt>
      <trkpt lat="42.4182490" lon="-2.7318090">
        <ele>491.6</ele>
        <time>2022-08-29T06:12:09Z</time>
      </trkpt>
      <trkpt lat="42.4182320" lon="-2.7318170">
        <ele>491.6</ele>
        <time>2022-08-29T06:12:10Z</time>
      </trkpt>
      <trkpt lat="42.4182130" lon="-2.7318210">
        <ele>491.6</ele>
        <time>2022-08-29T06:12:11Z</time>
      </trkpt>
      <trkpt lat="42.4181910" lon="-2.7318250">
        <ele>491.4</ele>
        <time>2022-08-29T06:12:12Z</time>
      </trkpt>
      <trkpt lat="42.4181660" lon="-2.7318290">
        <ele>491.6</ele>
        <time>2022-08-29T06:12:13Z</time>
      </trkpt>
      <trkpt lat="42.4181430" lon="-2.7318330">
        <ele>491.4</ele>
        <time>2022-08-29T06:12:14Z</time>
      </trkpt>
      <trkpt lat="42.4181200" lon="-2.7318250">
        <ele>491.4</ele>
        <time>2022-08-29T06:12:15Z</time>
      </trkpt>
      <trkpt lat="42.4180960" lon="-2.7318280">
        <ele>491.4</ele>
        <time>2022-08-29T06:12:16Z</time>
      </trkpt>
      <trkpt lat="42.4180720" lon="-2.7318330">
        <ele>491.4</ele>
        <time>2022-08-29T06:12:17Z</time>
      </trkpt>
      <trkpt lat="42.4180480" lon="-2.7318350">
        <ele>491.4</ele>
        <time>2022-08-29T06:12:18Z</time>
      </trkpt>
      <trkpt lat="42.4180220" lon="-2.7318450">
        <ele>491.4</ele>
        <time>2022-08-29T06:12:19Z</time>
      </trkpt>
      <trkpt lat="42.4179970" lon="-2.7318540">
        <ele>491.4</ele>
        <time>2022-08-29T06:12:20Z</time>
      </trkpt>
      <trkpt lat="42.4179710" lon="-2.7318590">
        <ele>491.6</ele>
        <time>2022-08-29T06:12:21Z</time>
      </trkpt>
      <trkpt lat="42.4179390" lon="-2.7318620">
        <ele>491.6</ele>
        <time>2022-08-29T06:12:22Z</time>
      </trkpt>
      <trkpt lat="42.4179120" lon="-2.7318690">
        <ele>491.6</ele>
        <time>2022-08-29T06:12:23Z</time>
      </trkpt>
      <trkpt lat="42.4178880" lon="-2.7318750">
        <ele>491.8</ele>
        <time>2022-08-29T06:12:24Z</time>
      </trkpt>
      <trkpt lat="42.4178680" lon="-2.7318760">
        <ele>491.8</ele>
        <time>2022-08-29T06:12:25Z</time>
      </trkpt>
      <trkpt lat="42.4178530" lon="-2.7318720">
        <ele>491.8</ele>
        <time>2022-08-29T06:12:26Z</time>
      </trkpt>
      <trkpt lat="42.4178390" lon="-2.7318690">
        <ele>491.8</ele>
        <time>2022-08-29T06:12:27Z</time>
      </trkpt>
      <trkpt lat="42.4178250" lon="-2.7318640">
        <ele>492.0</ele>
        <time>2022-08-29T06:12:28Z</time>
      </trkpt>
      <trkpt lat="42.4178100" lon="-2.7318640">
        <ele>492.0</ele>
        <time>2022-08-29T06:12:29Z</time>
      </trkpt>
      <trkpt lat="42.4177910" lon="-2.7318680">
        <ele>492.0</ele>
        <time>2022-08-29T06:12:30Z</time>
      </trkpt>
      <trkpt lat="42.4177660" lon="-2.7318740">
        <ele>492.0</ele>
        <time>2022-08-29T06:12:31Z</time>
      </trkpt>
      <trkpt lat="42.4177370" lon="-2.7318840">
        <ele>491.8</ele>
        <time>2022-08-29T06:12:32Z</time>
      </trkpt>
      <trkpt lat="42.4177120" lon="-2.7318890">
        <ele>492.0</ele>
        <time>2022-08-29T06:12:33Z</time>
      </trkpt>
      <trkpt lat="42.4176900" lon="-2.7318970">
        <ele>492.0</ele>
        <time>2022-08-29T06:12:34Z</time>
      </trkpt>
      <trkpt lat="42.4176670" lon="-2.7319010">
        <ele>492.0</ele>
        <time>2022-08-29T06:12:35Z</time>
      </trkpt>
      <trkpt lat="42.4176490" lon="-2.7318990">
        <ele>492.2</ele>
        <time>2022-08-29T06:12:36Z</time>
      </trkpt>
      <trkpt lat="42.4176290" lon="-2.7319010">
        <ele>492.2</ele>
        <time>2022-08-29T06:12:37Z</time>
      </trkpt>
      <trkpt lat="42.4176050" lon="-2.7319080">
        <ele>492.2</ele>
        <time>2022-08-29T06:12:38Z</time>
      </trkpt>
      <trkpt lat="42.4175770" lon="-2.7319150">
        <ele>492.2</ele>
        <time>2022-08-29T06:12:39Z</time>
      </trkpt>
      <trkpt lat="42.4175490" lon="-2.7319190">
        <ele>492.2</ele>
        <time>2022-08-29T06:12:40Z</time>
      </trkpt>
      <trkpt lat="42.4175240" lon="-2.7319230">
        <ele>492.4</ele>
        <time>2022-08-29T06:12:41Z</time>
      </trkpt>
      <trkpt lat="42.4174990" lon="-2.7319260">
        <ele>492.2</ele>
        <time>2022-08-29T06:12:42Z</time>
      </trkpt>
      <trkpt lat="42.4174740" lon="-2.7319300">
        <ele>492.4</ele>
        <time>2022-08-29T06:12:43Z</time>
      </trkpt>
      <trkpt lat="42.4174500" lon="-2.7319370">
        <ele>492.4</ele>
        <time>2022-08-29T06:12:44Z</time>
      </trkpt>
      <trkpt lat="42.4174290" lon="-2.7319440">
        <ele>492.4</ele>
        <time>2022-08-29T06:12:45Z</time>
      </trkpt>
      <trkpt lat="42.4174090" lon="-2.7319530">
        <ele>492.6</ele>
        <time>2022-08-29T06:12:46Z</time>
      </trkpt>
      <trkpt lat="42.4173890" lon="-2.7319600">
        <ele>492.6</ele>
        <time>2022-08-29T06:12:47Z</time>
      </trkpt>
      <trkpt lat="42.4173690" lon="-2.7319720">
        <ele>492.6</ele>
        <time>2022-08-29T06:12:48Z</time>
      </trkpt>
      <trkpt lat="42.4173470" lon="-2.7319890">
        <ele>492.6</ele>
        <time>2022-08-29T06:12:49Z</time>
      </trkpt>
      <trkpt lat="42.4173280" lon="-2.7320000">
        <ele>492.8</ele>
        <time>2022-08-29T06:12:50Z</time>
      </trkpt>
      <trkpt lat="42.4173060" lon="-2.7320130">
        <ele>493.0</ele>
        <time>2022-08-29T06:12:51Z</time>
      </trkpt>
      <trkpt lat="42.4172860" lon="-2.7320150">
        <ele>493.0</ele>
        <time>2022-08-29T06:12:52Z</time>
      </trkpt>
      <trkpt lat="42.4172630" lon="-2.7320150">
        <ele>493.0</ele>
        <time>2022-08-29T06:12:53Z</time>
      </trkpt>
      <trkpt lat="42.4172360" lon="-2.7320150">
        <ele>493.2</ele>
        <time>2022-08-29T06:12:54Z</time>
      </trkpt>
      <trkpt lat="42.4172080" lon="-2.7320110">
        <ele>493.4</ele>
        <time>2022-08-29T06:12:55Z</time>
      </trkpt>
      <trkpt lat="42.4171790" lon="-2.7320100">
        <ele>493.6</ele>
        <time>2022-08-29T06:12:56Z</time>
      </trkpt>
      <trkpt lat="42.4171500" lon="-2.7320100">
        <ele>493.6</ele>
        <time>2022-08-29T06:12:57Z</time>
      </trkpt>
      <trkpt lat="42.4171240" lon="-2.7320020">
        <ele>493.6</ele>
        <time>2022-08-29T06:12:58Z</time>
      </trkpt>
      <trkpt lat="42.4170970" lon="-2.7319990">
        <ele>493.6</ele>
        <time>2022-08-29T06:12:59Z</time>
      </trkpt>
      <trkpt lat="42.4170650" lon="-2.7320040">
        <ele>493.6</ele>
        <time>2022-08-29T06:13:00Z</time>
      </trkpt>
      <trkpt lat="42.4170250" lon="-2.7320290">
        <ele>493.8</ele>
        <time>2022-08-29T06:13:01Z</time>
      </trkpt>
      <trkpt lat="42.4169890" lon="-2.7320450">
        <ele>493.6</ele>
        <time>2022-08-29T06:13:02Z</time>
      </trkpt>
      <trkpt lat="42.4169530" lon="-2.7320520">
        <ele>493.6</ele>
        <time>2022-08-29T06:13:03Z</time>
      </trkpt>
      <trkpt lat="42.4169200" lon="-2.7320470">
        <ele>493.6</ele>
        <time>2022-08-29T06:13:04Z</time>
      </trkpt>
      <trkpt lat="42.4168930" lon="-2.7320300">
        <ele>493.6</ele>
        <time>2022-08-29T06:13:05Z</time>
      </trkpt>
      <trkpt lat="42.4168690" lon="-2.7320150">
        <ele>493.2</ele>
        <time>2022-08-29T06:13:06Z</time>
      </trkpt>
      <trkpt lat="42.4168480" lon="-2.7320010">
        <ele>493.4</ele>
        <time>2022-08-29T06:13:07Z</time>
      </trkpt>
      <trkpt lat="42.4168320" lon="-2.7319880">
        <ele>493.2</ele>
        <time>2022-08-29T06:13:08Z</time>
      </trkpt>
      <trkpt lat="42.4168230" lon="-2.7319620">
        <ele>493.0</ele>
        <time>2022-08-29T06:13:09Z</time>
      </trkpt>
      <trkpt lat="42.4168070" lon="-2.7319470">
        <ele>492.8</ele>
        <time>2022-08-29T06:13:10Z</time>
      </trkpt>
      <trkpt lat="42.4167930" lon="-2.7319320">
        <ele>492.8</ele>
        <time>2022-08-29T06:13:11Z</time>
      </trkpt>
      <trkpt lat="42.4167810" lon="-2.7319180">
        <ele>492.6</ele>
        <time>2022-08-29T06:13:12Z</time>
      </trkpt>
      <trkpt lat="42.4167690" lon="-2.7319110">
        <ele>492.8</ele>
        <time>2022-08-29T06:13:13Z</time>
      </trkpt>
      <trkpt lat="42.4167650" lon="-2.7319030">
        <ele>492.6</ele>
        <time>2022-08-29T06:13:14Z</time>
      </trkpt>
      <trkpt lat="42.4167590" lon="-2.7319060">
        <ele>492.6</ele>
        <time>2022-08-29T06:13:15Z</time>
      </trkpt>
      <trkpt lat="42.4167600" lon="-2.7319000">
        <ele>492.8</ele>
        <time>2022-08-29T06:13:16Z</time>
      </trkpt>
      <trkpt lat="42.4167580" lon="-2.7318970">
        <ele>492.6</ele>
        <time>2022-08-29T06:13:17Z</time>
      </trkpt>
      <trkpt lat="42.4167570" lon="-2.7318950">
        <ele>492.6</ele>
        <time>2022-08-29T06:13:18Z</time>
      </trkpt>
      <trkpt lat="42.4167550" lon="-2.7319000">
        <ele>492.6</ele>
        <time>2022-08-29T06:13:19Z</time>
      </trkpt>
      <trkpt lat="42.4167510" lon="-2.7318980">
        <ele>492.6</ele>
        <time>2022-08-29T06:13:20Z</time>
      </trkpt>
      <trkpt lat="42.4167480" lon="-2.7319000">
        <ele>492.6</ele>
        <time>2022-08-29T06:13:21Z</time>
      </trkpt>
      <trkpt lat="42.4167400" lon="-2.7318980">
        <ele>492.6</ele>
        <time>2022-08-29T06:13:22Z</time>
      </trkpt>
      <trkpt lat="42.4167360" lon="-2.7318980">
        <ele>492.8</ele>
        <time>2022-08-29T06:13:23Z</time>
      </trkpt>
      <trkpt lat="42.4167360" lon="-2.7318970">
        <ele>492.6</ele>
        <time>2022-08-29T06:13:24Z</time>
      </trkpt>
      <trkpt lat="42.4167360" lon="-2.7318980">
        <ele>492.6</ele>
        <time>2022-08-29T06:13:25Z</time>
      </trkpt>
      <trkpt lat="42.4167360" lon="-2.7318970">
        <ele>492.8</ele>
        <time>2022-08-29T06:13:26Z</time>
      </trkpt>
      <trkpt lat="42.4167360" lon="-2.7318970">
        <ele>492.8</ele>
        <time>2022-08-29T06:13:27Z</time>
      </trkpt>
      <trkpt lat="42.4167360" lon="-2.7318950">
        <ele>492.6</ele>
        <time>2022-08-29T06:13:28Z</time>
      </trkpt>
      <trkpt lat="42.4167360" lon="-2.7318930">
        <ele>492.8</ele>
        <time>2022-08-29T06:13:29Z</time>
      </trkpt>
      <trkpt lat="42.4167360" lon="-2.7318910">
        <ele>492.6</ele>
        <time>2022-08-29T06:13:30Z</time>
      </trkpt>
      <trkpt lat="42.4167350" lon="-2.7318890">
        <ele>492.6</ele>
        <time>2022-08-29T06:13:31Z</time>
      </trkpt>
      <trkpt lat="42.4167360" lon="-2.7318880">
        <ele>492.8</ele>
        <time>2022-08-29T06:13:32Z</time>
      </trkpt>
      <trkpt lat="42.4167340" lon="-2.7318870">
        <ele>492.6</ele>
        <time>2022-08-29T06:13:33Z</time>
      </trkpt>
      <trkpt lat="42.4167310" lon="-2.7318850">
        <ele>492.8</ele>
        <time>2022-08-29T06:13:34Z</time>
      </trkpt>
      <trkpt lat="42.4167300" lon="-2.7318850">
        <ele>492.6</ele>
        <time>2022-08-29T06:13:35Z</time>
      </trkpt>
      <trkpt lat="42.4167300" lon="-2.7318850">
        <ele>492.6</ele>
        <time>2022-08-29T06:13:36Z</time>
      </trkpt>
      <trkpt lat="42.4167300" lon="-2.7318850">
        <ele>492.6</ele>
        <time>2022-08-29T06:13:37Z</time>
      </trkpt>
      <trkpt lat="42.4167290" lon="-2.7318860">
        <ele>492.6</ele>
        <time>2022-08-29T06:13:38Z</time>
      </trkpt>
      <trkpt lat="42.4167280" lon="-2.7318860">
        <ele>492.6</ele>
        <time>2022-08-29T06:13:39Z</time>
      </trkpt>
      <trkpt lat="42.4167240" lon="-2.7318850">
        <ele>492.6</ele>
        <time>2022-08-29T06:13:40Z</time>
      </trkpt>
      <trkpt lat="42.4167220" lon="-2.7318850">
        <ele>492.8</ele>
        <time>2022-08-29T06:13:41Z</time>
      </trkpt>
      <trkpt lat="42.4167210" lon="-2.7318870">
        <ele>492.8</ele>
        <time>2022-08-29T06:13:42Z</time>
      </trkpt>
      <trkpt lat="42.4167190" lon="-2.7318870">
        <ele>492.8</ele>
        <time>2022-08-29T06:13:43Z</time>
      </trkpt>
      <trkpt lat="42.4167170" lon="-2.7318860">
        <ele>492.8</ele>
        <time>2022-08-29T06:13:44Z</time>
      </trkpt>
      <trkpt lat="42.4167140" lon="-2.7318830">
        <ele>492.6</ele>
        <time>2022-08-29T06:13:45Z</time>
      </trkpt>
      <trkpt lat="42.4167110" lon="-2.7318830">
        <ele>492.8</ele>
        <time>2022-08-29T06:13:46Z</time>
      </trkpt>
      <trkpt lat="42.4167070" lon="-2.7318860">
        <ele>492.8</ele>
        <time>2022-08-29T06:13:47Z</time>
      </trkpt>
      <trkpt lat="42.4167020" lon="-2.7318870">
        <ele>492.8</ele>
        <time>2022-08-29T06:13:48Z</time>
      </trkpt>
      <trkpt lat="42.4166920" lon="-2.7318910">
        <ele>492.8</ele>
        <time>2022-08-29T06:13:49Z</time>
      </trkpt>
      <trkpt lat="42.4166820" lon="-2.7318950">
        <ele>492.8</ele>
        <time>2022-08-29T06:13:50Z</time>
      </trkpt>
      <trkpt lat="42.4166760" lon="-2.7318950">
        <ele>493.0</ele>
        <time>2022-08-29T06:13:51Z</time>
      </trkpt>
      <trkpt lat="42.4166650" lon="-2.7319010">
        <ele>492.8</ele>
        <time>2022-08-29T06:13:52Z</time>
      </trkpt>
      <trkpt lat="42.4166600" lon="-2.7319020">
        <ele>492.8</ele>
        <time>2022-08-29T06:13:53Z</time>
      </trkpt>
      <trkpt lat="42.4166560" lon="-2.7319040">
        <ele>493.0</ele>
        <time>2022-08-29T06:13:54Z</time>
      </trkpt>
      <trkpt lat="42.4166480" lon="-2.7319060">
        <ele>493.0</ele>
        <time>2022-08-29T06:13:55Z</time>
      </trkpt>
      <trkpt lat="42.4166390" lon="-2.7319080">
        <ele>493.0</ele>
        <time>2022-08-29T06:13:56Z</time>
      </trkpt>
      <trkpt lat="42.4166260" lon="-2.7319090">
        <ele>492.8</ele>
        <time>2022-08-29T06:13:57Z</time>
      </trkpt>
      <trkpt lat="42.4166040" lon="-2.7319160">
        <ele>493.0</ele>
        <time>2022-08-29T06:13:58Z</time>
      </trkpt>
      <trkpt lat="42.4165980" lon="-2.7319130">
        <ele>492.8</ele>
        <time>2022-08-29T06:13:59Z</time>
      </trkpt>
      <trkpt lat="42.4165880" lon="-2.7319130">
        <ele>493.0</ele>
        <time>2022-08-29T06:14:00Z</time>
      </trkpt>
      <trkpt lat="42.4165730" lon="-2.7319180">
        <ele>493.0</ele>
        <time>2022-08-29T06:14:01Z</time>
      </trkpt>
      <trkpt lat="42.4165630" lon="-2.7319220">
        <ele>492.8</ele>
        <time>2022-08-29T06:14:02Z</time>
      </trkpt>
      <trkpt lat="42.4165580" lon="-2.7319230">
        <ele>492.8</ele>
        <time>2022-08-29T06:14:03Z</time>
      </trkpt>
      <trkpt lat="42.4165540" lon="-2.7319280">
        <ele>492.8</ele>
        <time>2022-08-29T06:14:04Z</time>
      </trkpt>
      <trkpt lat="42.4165480" lon="-2.7319320">
        <ele>493.0</ele>
        <time>2022-08-29T06:14:05Z</time>
      </trkpt>
      <trkpt lat="42.4165450" lon="-2.7319360">
        <ele>493.0</ele>
        <time>2022-08-29T06:14:06Z</time>
      </trkpt>
      <trkpt lat="42.4165410" lon="-2.7319390">
        <ele>492.8</ele>
        <time>2022-08-29T06:14:07Z</time>
      </trkpt>
      <trkpt lat="42.4165380" lon="-2.7319480">
        <ele>492.8</ele>
        <time>2022-08-29T06:14:08Z</time>
      </trkpt>
      <trkpt lat="42.4165360" lon="-2.7319520">
        <ele>493.0</ele>
        <time>2022-08-29T06:14:09Z</time>
      </trkpt>
      <trkpt lat="42.4165310" lon="-2.7319570">
        <ele>493.0</ele>
        <time>2022-08-29T06:14:10Z</time>
      </trkpt>
      <trkpt lat="42.4165300" lon="-2.7319630">
        <ele>493.0</ele>
        <time>2022-08-29T06:14:11Z</time>
      </trkpt>
      <trkpt lat="42.4165250" lon="-2.7319810">
        <ele>493.0</ele>
        <time>2022-08-29T06:14:12Z</time>
      </trkpt>
      <trkpt lat="42.4165230" lon="-2.7319880">
        <ele>493.0</ele>
        <time>2022-08-29T06:14:13Z</time>
      </trkpt>
      <trkpt lat="42.4165210" lon="-2.7319960">
        <ele>493.0</ele>
        <time>2022-08-29T06:14:14Z</time>
      </trkpt>
      <trkpt lat="42.4165210" lon="-2.7320040">
        <ele>493.0</ele>
        <time>2022-08-29T06:14:15Z</time>
      </trkpt>
      <trkpt lat="42.4165220" lon="-2.7320110">
        <ele>493.0</ele>
        <time>2022-08-29T06:14:16Z</time>
      </trkpt>
      <trkpt lat="42.4165220" lon="-2.7320120">
        <ele>493.0</ele>
        <time>2022-08-29T06:14:17Z</time>
      </trkpt>
      <trkpt lat="42.4165220" lon="-2.7320130">
        <ele>493.0</ele>
        <time>2022-08-29T06:14:18Z</time>
      </trkpt>
      <trkpt lat="42.4165220" lon="-2.7320130">
        <ele>493.0</ele>
        <time>2022-08-29T06:14:19Z</time>
      </trkpt>
      <trkpt lat="42.4165220" lon="-2.7320130">
        <ele>493.0</ele>
        <time>2022-08-29T06:14:20Z</time>
      </trkpt>
      <trkpt lat="42.4165220" lon="-2.7320130">
        <ele>493.0</ele>
        <time>2022-08-29T06:14:21Z</time>
      </trkpt>
      <trkpt lat="42.4165220" lon="-2.7320130">
        <ele>493.0</ele>
        <time>2022-08-29T06:14:22Z</time>
      </trkpt>
      <trkpt lat="42.4165230" lon="-2.7320130">
        <ele>493.0</ele>
        <time>2022-08-29T06:14:23Z</time>
      </trkpt>
      <trkpt lat="42.4165230" lon="-2.7320120">
        <ele>493.0</ele>
        <time>2022-08-29T06:14:24Z</time>
      </trkpt>
      <trkpt lat="42.4165240" lon="-2.7320120">
        <ele>493.0</ele>
        <time>2022-08-29T06:14:25Z</time>
      </trkpt>
      <trkpt lat="42.4165260" lon="-2.7320140">
        <ele>493.0</ele>
        <time>2022-08-29T06:14:26Z</time>
      </trkpt>
      <trkpt lat="42.4165270" lon="-2.7320170">
        <ele>493.0</ele>
        <time>2022-08-29T06:14:27Z</time>
      </trkpt>
      <trkpt lat="42.4165240" lon="-2.7320160">
        <ele>493.0</ele>
        <time>2022-08-29T06:14:28Z</time>
      </trkpt>
      <trkpt lat="42.4165240" lon="-2.7320160">
        <ele>493.0</ele>
        <time>2022-08-29T06:14:29Z</time>
      </trkpt>
      <trkpt lat="42.4165240" lon="-2.7320170">
        <ele>493.0</ele>
        <time>2022-08-29T06:14:30Z</time>
      </trkpt>
      <trkpt lat="42.4165250" lon="-2.7320160">
        <ele>493.0</ele>
        <time>2022-08-29T06:14:31Z</time>
      </trkpt>
      <trkpt lat="42.4165270" lon="-2.7320150">
        <ele>493.0</ele>
        <time>2022-08-29T06:14:32Z</time>
      </trkpt>
      <trkpt lat="42.4165290" lon="-2.7320140">
        <ele>493.2</ele>
        <time>2022-08-29T06:14:33Z</time>
      </trkpt>
      <trkpt lat="42.4165300" lon="-2.7320150">
        <ele>493.0</ele>
        <time>2022-08-29T06:14:34Z</time>
      </trkpt>
      <trkpt lat="42.4165300" lon="-2.7320150">
        <ele>493.0</ele>
        <time>2022-08-29T06:14:35Z</time>
      </trkpt>
      <trkpt lat="42.4165320" lon="-2.7320160">
        <ele>493.0</ele>
        <time>2022-08-29T06:14:36Z</time>
      </trkpt>
      <trkpt lat="42.4165310" lon="-2.7320140">
        <ele>493.0</ele>
        <time>2022-08-29T06:14:37Z</time>
      </trkpt>
      <trkpt lat="42.4165330" lon="-2.7320120">
        <ele>492.8</ele>
        <time>2022-08-29T06:14:38Z</time>
      </trkpt>
      <trkpt lat="42.4165330" lon="-2.7320110">
        <ele>493.0</ele>
        <time>2022-08-29T06:14:39Z</time>
      </trkpt>
      <trkpt lat="42.4165330" lon="-2.7320110">
        <ele>492.8</ele>
        <time>2022-08-29T06:14:40Z</time>
      </trkpt>
      <trkpt lat="42.4165320" lon="-2.7320090">
        <ele>493.0</ele>
        <time>2022-08-29T06:14:41Z</time>
      </trkpt>
      <trkpt lat="42.4165310" lon="-2.7320080">
        <ele>492.8</ele>
        <time>2022-08-29T06:14:42Z</time>
      </trkpt>
      <trkpt lat="42.4165310" lon="-2.7320050">
        <ele>492.8</ele>
        <time>2022-08-29T06:14:43Z</time>
      </trkpt>
      <trkpt lat="42.4165280" lon="-2.7320040">
        <ele>493.0</ele>
        <time>2022-08-29T06:14:44Z</time>
      </trkpt>
      <trkpt lat="42.4165260" lon="-2.7320020">
        <ele>492.8</ele>
        <time>2022-08-29T06:14:45Z</time>
      </trkpt>
      <trkpt lat="42.4165240" lon="-2.7319990">
        <ele>492.8</ele>
        <time>2022-08-29T06:14:46Z</time>
      </trkpt>
      <trkpt lat="42.4165220" lon="-2.7319970">
        <ele>492.8</ele>
        <time>2022-08-29T06:14:47Z</time>
      </trkpt>
      <trkpt lat="42.4165220" lon="-2.7319940">
        <ele>492.8</ele>
        <time>2022-08-29T06:14:48Z</time>
      </trkpt>
      <trkpt lat="42.4165210" lon="-2.7319930">
        <ele>492.8</ele>
        <time>2022-08-29T06:14:49Z</time>
      </trkpt>
      <trkpt lat="42.4165170" lon="-2.7319930">
        <ele>492.8</ele>
        <time>2022-08-29T06:14:50Z</time>
      </trkpt>
      <trkpt lat="42.4165040" lon="-2.7319940">
        <ele>492.8</ele>
        <time>2022-08-29T06:14:51Z</time>
      </trkpt>
      <trkpt lat="42.4165010" lon="-2.7319930">
        <ele>492.8</ele>
        <time>2022-08-29T06:14:52Z</time>
      </trkpt>
      <trkpt lat="42.4164920" lon="-2.7319980">
        <ele>492.8</ele>
        <time>2022-08-29T06:14:53Z</time>
      </trkpt>
      <trkpt lat="42.4164910" lon="-2.7319950">
        <ele>492.6</ele>
        <time>2022-08-29T06:14:54Z</time>
      </trkpt>
      <trkpt lat="42.4164890" lon="-2.7319930">
        <ele>492.6</ele>
        <time>2022-08-29T06:14:55Z</time>
      </trkpt>
      <trkpt lat="42.4164880" lon="-2.7319930">
        <ele>492.6</ele>
        <time>2022-08-29T06:14:56Z</time>
      </trkpt>
      <trkpt lat="42.4164860" lon="-2.7319940">
        <ele>492.6</ele>
        <time>2022-08-29T06:14:57Z</time>
      </trkpt>
      <trkpt lat="42.4164850" lon="-2.7319930">
        <ele>492.6</ele>
        <time>2022-08-29T06:14:58Z</time>
      </trkpt>
      <trkpt lat="42.4164840" lon="-2.7319930">
        <ele>492.8</ele>
        <time>2022-08-29T06:14:59Z</time>
      </trkpt>
      <trkpt lat="42.4164820" lon="-2.7319930">
        <ele>492.6</ele>
        <time>2022-08-29T06:15:00Z</time>
      </trkpt>
      <trkpt lat="42.4164790" lon="-2.7319930">
        <ele>492.8</ele>
        <time>2022-08-29T06:15:01Z</time>
      </trkpt>
      <trkpt lat="42.4164770" lon="-2.7319940">
        <ele>492.8</ele>
        <time>2022-08-29T06:15:02Z</time>
      </trkpt>
      <trkpt lat="42.4164770" lon="-2.7319930">
        <ele>492.8</ele>
        <time>2022-08-29T06:15:03Z</time>
      </trkpt>
      <trkpt lat="42.4164760" lon="-2.7319920">
        <ele>492.6</ele>
        <time>2022-08-29T06:15:04Z</time>
      </trkpt>
      <trkpt lat="42.4164770" lon="-2.7319900">
        <ele>492.8</ele>
        <time>2022-08-29T06:15:05Z</time>
      </trkpt>
      <trkpt lat="42.4164750" lon="-2.7319890">
        <ele>492.6</ele>
        <time>2022-08-29T06:15:06Z</time>
      </trkpt>
      <trkpt lat="42.4164760" lon="-2.7319870">
        <ele>492.8</ele>
        <time>2022-08-29T06:15:07Z</time>
      </trkpt>
      <trkpt lat="42.4164770" lon="-2.7319870">
        <ele>492.6</ele>
        <time>2022-08-29T06:15:08Z</time>
      </trkpt>
      <trkpt lat="42.4164830" lon="-2.7319860">
        <ele>492.6</ele>
        <time>2022-08-29T06:15:09Z</time>
      </trkpt>
      <trkpt lat="42.4164870" lon="-2.7319850">
        <ele>492.6</ele>
        <time>2022-08-29T06:15:10Z</time>
      </trkpt>
      <trkpt lat="42.4164960" lon="-2.7319820">
        <ele>492.6</ele>
        <time>2022-08-29T06:15:11Z</time>
      </trkpt>
      <trkpt lat="42.4165060" lon="-2.7319750">
        <ele>492.6</ele>
        <time>2022-08-29T06:15:12Z</time>
      </trkpt>
      <trkpt lat="42.4165120" lon="-2.7319730">
        <ele>492.6</ele>
        <time>2022-08-29T06:15:13Z</time>
      </trkpt>
      <trkpt lat="42.4165120" lon="-2.7319730">
        <ele>492.8</ele>
        <time>2022-08-29T06:15:14Z</time>
      </trkpt>
      <trkpt lat="42.4165130" lon="-2.7319730">
        <ele>492.6</ele>
        <time>2022-08-29T06:15:15Z</time>
      </trkpt>
      <trkpt lat="42.4165130" lon="-2.7319730">
        <ele>492.6</ele>
        <time>2022-08-29T06:15:16Z</time>
      </trkpt>
      <trkpt lat="42.4165140" lon="-2.7319720">
        <ele>492.6</ele>
        <time>2022-08-29T06:15:17Z</time>
      </trkpt>
      <trkpt lat="42.4165130" lon="-2.7319700">
        <ele>492.6</ele>
        <time>2022-08-29T06:15:18Z</time>
      </trkpt>
      <trkpt lat="42.4165150" lon="-2.7319680">
        <ele>492.6</ele>
        <time>2022-08-29T06:15:19Z</time>
      </trkpt>
      <trkpt lat="42.4165190" lon="-2.7319650">
        <ele>492.6</ele>
        <time>2022-08-29T06:15:20Z</time>
      </trkpt>
      <trkpt lat="42.4165210" lon="-2.7319630">
        <ele>492.6</ele>
        <time>2022-08-29T06:15:21Z</time>
      </trkpt>
      <trkpt lat="42.4165230" lon="-2.7319600">
        <ele>492.6</ele>
        <time>2022-08-29T06:15:22Z</time>
      </trkpt>
      <trkpt lat="42.4165240" lon="-2.7319590">
        <ele>492.6</ele>
        <time>2022-08-29T06:15:23Z</time>
      </trkpt>
      <trkpt lat="42.4165240" lon="-2.7319590">
        <ele>492.6</ele>
        <time>2022-08-29T06:15:24Z</time>
      </trkpt>
      <trkpt lat="42.4165260" lon="-2.7319590">
        <ele>492.8</ele>
        <time>2022-08-29T06:15:25Z</time>
      </trkpt>
      <trkpt lat="42.4165300" lon="-2.7319570">
        <ele>492.6</ele>
        <time>2022-08-29T06:15:26Z</time>
      </trkpt>
      <trkpt lat="42.4165330" lon="-2.7319570">
        <ele>492.6</ele>
        <time>2022-08-29T06:15:27Z</time>
      </trkpt>
      <trkpt lat="42.4165360" lon="-2.7319560">
        <ele>492.6</ele>
        <time>2022-08-29T06:15:28Z</time>
      </trkpt>
      <trkpt lat="42.4165410" lon="-2.7319560">
        <ele>492.6</ele>
        <time>2022-08-29T06:15:29Z</time>
      </trkpt>
      <trkpt lat="42.4165450" lon="-2.7319530">
        <ele>492.6</ele>
        <time>2022-08-29T06:15:30Z</time>
      </trkpt>
      <trkpt lat="42.4165470" lon="-2.7319480">
        <ele>492.6</ele>
        <time>2022-08-29T06:15:31Z</time>
      </trkpt>
      <trkpt lat="42.4165480" lon="-2.7319450">
        <ele>492.6</ele>
        <time>2022-08-29T06:15:32Z</time>
      </trkpt>
      <trkpt lat="42.4165490" lon="-2.7319440">
        <ele>492.6</ele>
        <time>2022-08-29T06:15:33Z</time>
      </trkpt>
      <trkpt lat="42.4165550" lon="-2.7319410">
        <ele>492.6</ele>
        <time>2022-08-29T06:15:34Z</time>
      </trkpt>
      <trkpt lat="42.4165540" lon="-2.7319370">
        <ele>492.8</ele>
        <time>2022-08-29T06:15:35Z</time>
      </trkpt>
      <trkpt lat="42.4165540" lon="-2.7319350">
        <ele>492.8</ele>
        <time>2022-08-29T06:15:36Z</time>
      </trkpt>
      <trkpt lat="42.4165550" lon="-2.7319350">
        <ele>492.8</ele>
        <time>2022-08-29T06:15:37Z</time>
      </trkpt>
      <trkpt lat="42.4165610" lon="-2.7319420">
        <ele>492.8</ele>
        <time>2022-08-29T06:15:38Z</time>
      </trkpt>
      <trkpt lat="42.4165650" lon="-2.7319470">
        <ele>492.8</ele>
        <time>2022-08-29T06:15:39Z</time>
      </trkpt>
      <trkpt lat="42.4165680" lon="-2.7319510">
        <ele>492.6</ele>
        <time>2022-08-29T06:15:40Z</time>
      </trkpt>
      <trkpt lat="42.4165720" lon="-2.7319540">
        <ele>492.6</ele>
        <time>2022-08-29T06:15:41Z</time>
      </trkpt>
      <trkpt lat="42.4165610" lon="-2.7319650">
        <ele>492.6</ele>
        <time>2022-08-29T06:15:42Z</time>
      </trkpt>
      <trkpt lat="42.4165420" lon="-2.7319740">
        <ele>492.6</ele>
        <time>2022-08-29T06:15:43Z</time>
      </trkpt>
      <trkpt lat="42.4165260" lon="-2.7319810">
        <ele>492.8</ele>
        <time>2022-08-29T06:15:44Z</time>
      </trkpt>
      <trkpt lat="42.4165200" lon="-2.7319830">
        <ele>492.6</ele>
        <time>2022-08-29T06:15:45Z</time>
      </trkpt>
      <trkpt lat="42.4165150" lon="-2.7319870">
        <ele>492.6</ele>
        <time>2022-08-29T06:15:46Z</time>
      </trkpt>
      <trkpt lat="42.4165140" lon="-2.7319870">
        <ele>492.8</ele>
        <time>2022-08-29T06:15:47Z</time>
      </trkpt>
      <trkpt lat="42.4165140" lon="-2.7319880">
        <ele>492.6</ele>
        <time>2022-08-29T06:15:48Z</time>
      </trkpt>
      <trkpt lat="42.4165130" lon="-2.7319900">
        <ele>492.6</ele>
        <time>2022-08-29T06:15:49Z</time>
      </trkpt>
      <trkpt lat="42.4165150" lon="-2.7319900">
        <ele>492.6</ele>
        <time>2022-08-29T06:15:50Z</time>
      </trkpt>
      <trkpt lat="42.4165150" lon="-2.7319920">
        <ele>492.6</ele>
        <time>2022-08-29T06:15:51Z</time>
      </trkpt>
      <trkpt lat="42.4165150" lon="-2.7319920">
        <ele>492.8</ele>
        <time>2022-08-29T06:15:52Z</time>
      </trkpt>
      <trkpt lat="42.4165140" lon="-2.7319930">
        <ele>492.8</ele>
        <time>2022-08-29T06:15:53Z</time>
      </trkpt>
      <trkpt lat="42.4165160" lon="-2.7319920">
        <ele>492.8</ele>
        <time>2022-08-29T06:15:54Z</time>
      </trkpt>
      <trkpt lat="42.4165180" lon="-2.7319930">
        <ele>492.8</ele>
        <time>2022-08-29T06:15:55Z</time>
      </trkpt>
      <trkpt lat="42.4165190" lon="-2.7319950">
        <ele>492.8</ele>
        <time>2022-08-29T06:15:56Z</time>
      </trkpt>
      <trkpt lat="42.4165210" lon="-2.7319950">
        <ele>492.8</ele>
        <time>2022-08-29T06:15:57Z</time>
      </trkpt>
      <trkpt lat="42.4165250" lon="-2.7319920">
        <ele>492.8</ele>
        <time>2022-08-29T06:15:58Z</time>
      </trkpt>
      <trkpt lat="42.4165300" lon="-2.7319870">
        <ele>492.8</ele>
        <time>2022-08-29T06:15:59Z</time>
      </trkpt>
      <trkpt lat="42.4165300" lon="-2.7319860">
        <ele>493.0</ele>
        <time>2022-08-29T06:16:00Z</time>
      </trkpt>
      <trkpt lat="42.4165310" lon="-2.7319860">
        <ele>492.8</ele>
        <time>2022-08-29T06:16:01Z</time>
      </trkpt>
      <trkpt lat="42.4165310" lon="-2.7319850">
        <ele>492.8</ele>
        <time>2022-08-29T06:16:02Z</time>
      </trkpt>
      <trkpt lat="42.4165320" lon="-2.7319850">
        <ele>492.8</ele>
        <time>2022-08-29T06:16:03Z</time>
      </trkpt>
      <trkpt lat="42.4165320" lon="-2.7319850">
        <ele>492.8</ele>
        <time>2022-08-29T06:16:04Z</time>
      </trkpt>
      <trkpt lat="42.4165320" lon="-2.7319870">
        <ele>492.8</ele>
        <time>2022-08-29T06:16:05Z</time>
      </trkpt>
      <trkpt lat="42.4165310" lon="-2.7319860">
        <ele>492.8</ele>
        <time>2022-08-29T06:16:06Z</time>
      </trkpt>
      <trkpt lat="42.4165300" lon="-2.7319840">
        <ele>493.0</ele>
        <time>2022-08-29T06:16:07Z</time>
      </trkpt>
      <trkpt lat="42.4165300" lon="-2.7319830">
        <ele>492.8</ele>
        <time>2022-08-29T06:16:08Z</time>
      </trkpt>
      <trkpt lat="42.4165310" lon="-2.7319810">
        <ele>492.8</ele>
        <time>2022-08-29T06:16:09Z</time>
      </trkpt>
      <trkpt lat="42.4165300" lon="-2.7319800">
        <ele>492.8</ele>
        <time>2022-08-29T06:16:10Z</time>
      </trkpt>
      <trkpt lat="42.4165290" lon="-2.7319760">
        <ele>492.8</ele>
        <time>2022-08-29T06:16:11Z</time>
      </trkpt>
      <trkpt lat="42.4165260" lon="-2.7319700">
        <ele>492.6</ele>
        <time>2022-08-29T06:16:12Z</time>
      </trkpt>
      <trkpt lat="42.4165230" lon="-2.7319670">
        <ele>492.8</ele>
        <time>2022-08-29T06:16:13Z</time>
      </trkpt>
      <trkpt lat="42.4165200" lon="-2.7319620">
        <ele>492.8</ele>
        <time>2022-08-29T06:16:14Z</time>
      </trkpt>
      <trkpt lat="42.4165200" lon="-2.7319580">
        <ele>492.6</ele>
        <time>2022-08-29T06:16:15Z</time>
      </trkpt>
      <trkpt lat="42.4165190" lon="-2.7319530">
        <ele>492.6</ele>
        <time>2022-08-29T06:16:16Z</time>
      </trkpt>
      <trkpt lat="42.4165170" lon="-2.7319510">
        <ele>492.8</ele>
        <time>2022-08-29T06:16:17Z</time>
      </trkpt>
      <trkpt lat="42.4165140" lon="-2.7319460">
        <ele>492.6</ele>
        <time>2022-08-29T06:16:18Z</time>
      </trkpt>
      <trkpt lat="42.4165380" lon="-2.7319670">
        <ele>492.8</ele>
        <time>2022-08-29T06:16:19Z</time>
      </trkpt>
      <trkpt lat="42.4165430" lon="-2.7319700">
        <ele>492.6</ele>
        <time>2022-08-29T06:16:20Z</time>
      </trkpt>
      <trkpt lat="42.4165430" lon="-2.7319680">
        <ele>492.6</ele>
        <time>2022-08-29T06:16:21Z</time>
      </trkpt>
      <trkpt lat="42.4165440" lon="-2.7319690">
        <ele>492.8</ele>
        <time>2022-08-29T06:16:22Z</time>
      </trkpt>
      <trkpt lat="42.4165440" lon="-2.7319690">
        <ele>492.6</ele>
        <time>2022-08-29T06:16:23Z</time>
      </trkpt>
      <trkpt lat="42.4165430" lon="-2.7319710">
        <ele>492.6</ele>
        <time>2022-08-29T06:16:24Z</time>
      </trkpt>
      <trkpt lat="42.4165410" lon="-2.7319750">
        <ele>492.6</ele>
        <time>2022-08-29T06:16:25Z</time>
      </trkpt>
      <trkpt lat="42.4165400" lon="-2.7319760">
        <ele>492.6</ele>
        <time>2022-08-29T06:16:26Z</time>
      </trkpt>
      <trkpt lat="42.4165400" lon="-2.7319790">
        <ele>492.8</ele>
        <time>2022-08-29T06:16:27Z</time>
      </trkpt>
      <trkpt lat="42.4165420" lon="-2.7319820">
        <ele>492.8</ele>
        <time>2022-08-29T06:16:28Z</time>
      </trkpt>
      <trkpt lat="42.4165430" lon="-2.7319840">
        <ele>492.8</ele>
        <time>2022-08-29T06:16:29Z</time>
      </trkpt>
      <trkpt lat="42.4165530" lon="-2.7319790">
        <ele>492.8</ele>
        <time>2022-08-29T06:16:30Z</time>
      </trkpt>
      <trkpt lat="42.4165550" lon="-2.7319780">
        <ele>492.8</ele>
        <time>2022-08-29T06:16:31Z</time>
      </trkpt>
      <trkpt lat="42.4165560" lon="-2.7319780">
        <ele>492.8</ele>
        <time>2022-08-29T06:16:32Z</time>
      </trkpt>
      <trkpt lat="42.4165580" lon="-2.7319760">
        <ele>492.8</ele>
        <time>2022-08-29T06:16:33Z</time>
      </trkpt>
      <trkpt lat="42.4165600" lon="-2.7319760">
        <ele>493.0</ele>
        <time>2022-08-29T06:16:34Z</time>
      </trkpt>
      <trkpt lat="42.4165610" lon="-2.7319770">
        <ele>492.8</ele>
        <time>2022-08-29T06:16:35Z</time>
      </trkpt>
      <trkpt lat="42.4165630" lon="-2.7319760">
        <ele>492.8</ele>
        <time>2022-08-29T06:16:36Z</time>
      </trkpt>
      <trkpt lat="42.4165660" lon="-2.7319730">
        <ele>492.8</ele>
        <time>2022-08-29T06:16:37Z</time>
      </trkpt>
      <trkpt lat="42.4165690" lon="-2.7319690">
        <ele>492.8</ele>
        <time>2022-08-29T06:16:38Z</time>
      </trkpt>
      <trkpt lat="42.4165740" lon="-2.7319670">
        <ele>492.8</ele>
        <time>2022-08-29T06:16:39Z</time>
      </trkpt>
      <trkpt lat="42.4165790" lon="-2.7319660">
        <ele>492.8</ele>
        <time>2022-08-29T06:16:40Z</time>
      </trkpt>
      <trkpt lat="42.4165840" lon="-2.7319600">
        <ele>492.8</ele>
        <time>2022-08-29T06:16:41Z</time>
      </trkpt>
      <trkpt lat="42.4165870" lon="-2.7319570">
        <ele>492.8</ele>
        <time>2022-08-29T06:16:42Z</time>
      </trkpt>
      <trkpt lat="42.4165930" lon="-2.7319520">
        <ele>492.8</ele>
        <time>2022-08-29T06:16:43Z</time>
      </trkpt>
      <trkpt lat="42.4165970" lon="-2.7319460">
        <ele>493.0</ele>
        <time>2022-08-29T06:16:44Z</time>
      </trkpt>
      <trkpt lat="42.4166010" lon="-2.7319410">
        <ele>493.0</ele>
        <time>2022-08-29T06:16:45Z</time>
      </trkpt>
      <trkpt lat="42.4166030" lon="-2.7319410">
        <ele>492.8</ele>
        <time>2022-08-29T06:16:46Z</time>
      </trkpt>
      <trkpt lat="42.4166060" lon="-2.7319400">
        <ele>492.8</ele>
        <time>2022-08-29T06:16:47Z</time>
      </trkpt>
      <trkpt lat="42.4166070" lon="-2.7319410">
        <ele>493.0</ele>
        <time>2022-08-29T06:16:48Z</time>
      </trkpt>
      <trkpt lat="42.4166080" lon="-2.7319400">
        <ele>493.0</ele>
        <time>2022-08-29T06:16:49Z</time>
      </trkpt>
      <trkpt lat="42.4166100" lon="-2.7319340">
        <ele>493.0</ele>
        <time>2022-08-29T06:16:50Z</time>
      </trkpt>
      <trkpt lat="42.4166120" lon="-2.7319300">
        <ele>493.0</ele>
        <time>2022-08-29T06:16:51Z</time>
      </trkpt>
      <trkpt lat="42.4166130" lon="-2.7319240">
        <ele>493.0</ele>
        <time>2022-08-29T06:16:52Z</time>
      </trkpt>
      <trkpt lat="42.4166120" lon="-2.7319220">
        <ele>493.0</ele>
        <time>2022-08-29T06:16:53Z</time>
      </trkpt>
      <trkpt lat="42.4166100" lon="-2.7319220">
        <ele>492.8</ele>
        <time>2022-08-29T06:16:54Z</time>
      </trkpt>
      <trkpt lat="42.4166080" lon="-2.7319220">
        <ele>492.8</ele>
        <time>2022-08-29T06:16:55Z</time>
      </trkpt>
      <trkpt lat="42.4166070" lon="-2.7319180">
        <ele>492.8</ele>
        <time>2022-08-29T06:16:56Z</time>
      </trkpt>
      <trkpt lat="42.4166010" lon="-2.7319180">
        <ele>492.8</ele>
        <time>2022-08-29T06:16:57Z</time>
      </trkpt>
      <trkpt lat="42.4165940" lon="-2.7319100">
        <ele>492.8</ele>
        <time>2022-08-29T06:16:58Z</time>
      </trkpt>
      <trkpt lat="42.4165880" lon="-2.7319060">
        <ele>493.0</ele>
        <time>2022-08-29T06:16:59Z</time>
      </trkpt>
      <trkpt lat="42.4165850" lon="-2.7319030">
        <ele>492.8</ele>
        <time>2022-08-29T06:17:00Z</time>
      </trkpt>
      <trkpt lat="42.4165850" lon="-2.7319030">
        <ele>492.8</ele>
        <time>2022-08-29T06:17:01Z</time>
      </trkpt>
      <trkpt lat="42.4165840" lon="-2.7319020">
        <ele>492.8</ele>
        <time>2022-08-29T06:17:02Z</time>
      </trkpt>
      <trkpt lat="42.4165820" lon="-2.7319000">
        <ele>492.8</ele>
        <time>2022-08-29T06:17:03Z</time>
      </trkpt>
      <trkpt lat="42.4165800" lon="-2.7319000">
        <ele>492.8</ele>
        <time>2022-08-29T06:17:04Z</time>
      </trkpt>
      <trkpt lat="42.4165780" lon="-2.7319050">
        <ele>492.8</ele>
        <time>2022-08-29T06:17:05Z</time>
      </trkpt>
      <trkpt lat="42.4165760" lon="-2.7319070">
        <ele>492.6</ele>
        <time>2022-08-29T06:17:06Z</time>
      </trkpt>
      <trkpt lat="42.4165760" lon="-2.7319080">
        <ele>492.6</ele>
        <time>2022-08-29T06:17:07Z</time>
      </trkpt>
      <trkpt lat="42.4165760" lon="-2.7319070">
        <ele>492.8</ele>
        <time>2022-08-29T06:17:08Z</time>
      </trkpt>
      <trkpt lat="42.4165760" lon="-2.7319070">
        <ele>492.8</ele>
        <time>2022-08-29T06:17:09Z</time>
      </trkpt>
      <trkpt lat="42.4165760" lon="-2.7319070">
        <ele>492.8</ele>
        <time>2022-08-29T06:17:10Z</time>
      </trkpt>
      <trkpt lat="42.4165760" lon="-2.7319070">
        <ele>492.6</ele>
        <time>2022-08-29T06:17:11Z</time>
      </trkpt>
      <trkpt lat="42.4165760" lon="-2.7319070">
        <ele>492.8</ele>
        <time>2022-08-29T06:17:12Z</time>
      </trkpt>
      <trkpt lat="42.4165760" lon="-2.7319070">
        <ele>492.8</ele>
        <time>2022-08-29T06:17:13Z</time>
      </trkpt>
      <trkpt lat="42.4165750" lon="-2.7319080">
        <ele>492.6</ele>
        <time>2022-08-29T06:17:14Z</time>
      </trkpt>
      <trkpt lat="42.4165750" lon="-2.7319080">
        <ele>492.8</ele>
        <time>2022-08-29T06:17:15Z</time>
      </trkpt>
      <trkpt lat="42.4165740" lon="-2.7319090">
        <ele>492.6</ele>
        <time>2022-08-29T06:17:16Z</time>
      </trkpt>
      <trkpt lat="42.4165730" lon="-2.7319090">
        <ele>492.6</ele>
        <time>2022-08-29T06:17:17Z</time>
      </trkpt>
      <trkpt lat="42.4165710" lon="-2.7319120">
        <ele>492.8</ele>
        <time>2022-08-29T06:17:18Z</time>
      </trkpt>
      <trkpt lat="42.4165690" lon="-2.7319160">
        <ele>492.8</ele>
        <time>2022-08-29T06:17:19Z</time>
      </trkpt>
      <trkpt lat="42.4165680" lon="-2.7319200">
        <ele>492.8</ele>
        <time>2022-08-29T06:17:20Z</time>
      </trkpt>
      <trkpt lat="42.4165660" lon="-2.7319240">
        <ele>492.6</ele>
        <time>2022-08-29T06:17:21Z</time>
      </trkpt>
      <trkpt lat="42.4165630" lon="-2.7319290">
        <ele>492.6</ele>
        <time>2022-08-29T06:17:22Z</time>
      </trkpt>
      <trkpt lat="42.4165650" lon="-2.7319300">
        <ele>492.6</ele>
        <time>2022-08-29T06:17:23Z</time>
      </trkpt>
      <trkpt lat="42.4165650" lon="-2.7319350">
        <ele>492.8</ele>
        <time>2022-08-29T06:17:24Z</time>
      </trkpt>
      <trkpt lat="42.4165690" lon="-2.7319350">
        <ele>492.8</ele>
        <time>2022-08-29T06:17:25Z</time>
      </trkpt>
      <trkpt lat="42.4165710" lon="-2.7319410">
        <ele>492.6</ele>
        <time>2022-08-29T06:17:26Z</time>
      </trkpt>
      <trkpt lat="42.4165740" lon="-2.7319450">
        <ele>492.8</ele>
        <time>2022-08-29T06:17:27Z</time>
      </trkpt>
      <trkpt lat="42.4165740" lon="-2.7319460">
        <ele>492.8</ele>
        <time>2022-08-29T06:17:28Z</time>
      </trkpt>
      <trkpt lat="42.4165740" lon="-2.7319460">
        <ele>492.8</ele>
        <time>2022-08-29T06:17:29Z</time>
      </trkpt>
      <trkpt lat="42.4165740" lon="-2.7319460">
        <ele>492.8</ele>
        <time>2022-08-29T06:17:30Z</time>
      </trkpt>
      <trkpt lat="42.4165740" lon="-2.7319460">
        <ele>492.8</ele>
        <time>2022-08-29T06:17:31Z</time>
      </trkpt>
      <trkpt lat="42.4165740" lon="-2.7319460">
        <ele>492.8</ele>
        <time>2022-08-29T06:17:32Z</time>
      </trkpt>
      <trkpt lat="42.4165740" lon="-2.7319460">
        <ele>492.6</ele>
        <time>2022-08-29T06:17:33Z</time>
      </trkpt>
      <trkpt lat="42.4165750" lon="-2.7319480">
        <ele>492.8</ele>
        <time>2022-08-29T06:17:34Z</time>
      </trkpt>
      <trkpt lat="42.4165740" lon="-2.7319490">
        <ele>492.8</ele>
        <time>2022-08-29T06:17:35Z</time>
      </trkpt>
      <trkpt lat="42.4165750" lon="-2.7319500">
        <ele>492.8</ele>
        <time>2022-08-29T06:17:36Z</time>
      </trkpt>
      <trkpt lat="42.4165760" lon="-2.7319520">
        <ele>492.8</ele>
        <time>2022-08-29T06:17:37Z</time>
      </trkpt>
      <trkpt lat="42.4165770" lon="-2.7319520">
        <ele>492.8</ele>
        <time>2022-08-29T06:17:38Z</time>
      </trkpt>
      <trkpt lat="42.4165770" lon="-2.7319520">
        <ele>492.8</ele>
        <time>2022-08-29T06:17:39Z</time>
      </trkpt>
      <trkpt lat="42.4165770" lon="-2.7319510">
        <ele>492.8</ele>
        <time>2022-08-29T06:17:40Z</time>
      </trkpt>
      <trkpt lat="42.4165790" lon="-2.7319500">
        <ele>492.8</ele>
        <time>2022-08-29T06:17:41Z</time>
      </trkpt>
      <trkpt lat="42.4165800" lon="-2.7319520">
        <ele>492.8</ele>
        <time>2022-08-29T06:17:42Z</time>
      </trkpt>
      <trkpt lat="42.4165820" lon="-2.7319520">
        <ele>492.8</ele>
        <time>2022-08-29T06:17:43Z</time>
      </trkpt>
      <trkpt lat="42.4165830" lon="-2.7319530">
        <ele>492.8</ele>
        <time>2022-08-29T06:17:44Z</time>
      </trkpt>
      <trkpt lat="42.4165840" lon="-2.7319570">
        <ele>492.8</ele>
        <time>2022-08-29T06:17:45Z</time>
      </trkpt>
      <trkpt lat="42.4165850" lon="-2.7319560">
        <ele>492.8</ele>
        <time>2022-08-29T06:17:46Z</time>
      </trkpt>
      <trkpt lat="42.4165880" lon="-2.7319550">
        <ele>492.8</ele>
        <time>2022-08-29T06:17:47Z</time>
      </trkpt>
      <trkpt lat="42.4165880" lon="-2.7319550">
        <ele>492.8</ele>
        <time>2022-08-29T06:17:48Z</time>
      </trkpt>
      <trkpt lat="42.4165880" lon="-2.7319540">
        <ele>492.8</ele>
        <time>2022-08-29T06:17:49Z</time>
      </trkpt>
      <trkpt lat="42.4165880" lon="-2.7319520">
        <ele>492.8</ele>
        <time>2022-08-29T06:17:50Z</time>
      </trkpt>
      <trkpt lat="42.4165890" lon="-2.7319500">
        <ele>492.8</ele>
        <time>2022-08-29T06:17:51Z</time>
      </trkpt>
      <trkpt lat="42.4165900" lon="-2.7319500">
        <ele>492.8</ele>
        <time>2022-08-29T06:17:52Z</time>
      </trkpt>
      <trkpt lat="42.4165920" lon="-2.7319480">
        <ele>492.6</ele>
        <time>2022-08-29T06:17:53Z</time>
      </trkpt>
      <trkpt lat="42.4165940" lon="-2.7319460">
        <ele>492.8</ele>
        <time>2022-08-29T06:17:54Z</time>
      </trkpt>
      <trkpt lat="42.4165990" lon="-2.7319400">
        <ele>492.8</ele>
        <time>2022-08-29T06:17:55Z</time>
      </trkpt>
      <trkpt lat="42.4165990" lon="-2.7319370">
        <ele>492.6</ele>
        <time>2022-08-29T06:17:56Z</time>
      </trkpt>
      <trkpt lat="42.4166010" lon="-2.7319320">
        <ele>492.6</ele>
        <time>2022-08-29T06:17:57Z</time>
      </trkpt>
      <trkpt lat="42.4166030" lon="-2.7319280">
        <ele>492.8</ele>
        <time>2022-08-29T06:17:58Z</time>
      </trkpt>
      <trkpt lat="42.4166030" lon="-2.7319270">
        <ele>492.8</ele>
        <time>2022-08-29T06:17:59Z</time>
      </trkpt>
      <trkpt lat="42.4166040" lon="-2.7319260">
        <ele>492.6</ele>
        <time>2022-08-29T06:18:00Z</time>
      </trkpt>
      <trkpt lat="42.4166040" lon="-2.7319260">
        <ele>492.8</ele>
        <time>2022-08-29T06:18:01Z</time>
      </trkpt>
      <trkpt lat="42.4166040" lon="-2.7319240">
        <ele>492.8</ele>
        <time>2022-08-29T06:18:02Z</time>
      </trkpt>
      <trkpt lat="42.4166040" lon="-2.7319220">
        <ele>492.8</ele>
        <time>2022-08-29T06:18:03Z</time>
      </trkpt>
      <trkpt lat="42.4166020" lon="-2.7319190">
        <ele>492.8</ele>
        <time>2022-08-29T06:18:04Z</time>
      </trkpt>
      <trkpt lat="42.4165980" lon="-2.7319130">
        <ele>492.8</ele>
        <time>2022-08-29T06:18:05Z</time>
      </trkpt>
      <trkpt lat="42.4165970" lon="-2.7319110">
        <ele>492.8</ele>
        <time>2022-08-29T06:18:06Z</time>
      </trkpt>
      <trkpt lat="42.4165950" lon="-2.7319110">
        <ele>492.8</ele>
        <time>2022-08-29T06:18:07Z</time>
      </trkpt>
      <trkpt lat="42.4165950" lon="-2.7319060">
        <ele>492.8</ele>
        <time>2022-08-29T06:18:08Z</time>
      </trkpt>
      <trkpt lat="42.4165970" lon="-2.7319040">
        <ele>492.8</ele>
        <time>2022-08-29T06:18:09Z</time>
      </trkpt>
      <trkpt lat="42.4165970" lon="-2.7319040">
        <ele>492.8</ele>
        <time>2022-08-29T06:18:10Z</time>
      </trkpt>
      <trkpt lat="42.4165970" lon="-2.7319040">
        <ele>492.8</ele>
        <time>2022-08-29T06:18:11Z</time>
      </trkpt>
      <trkpt lat="42.4165970" lon="-2.7319040">
        <ele>492.8</ele>
        <time>2022-08-29T06:18:12Z</time>
      </trkpt>
      <trkpt lat="42.4166000" lon="-2.7319020">
        <ele>492.8</ele>
        <time>2022-08-29T06:18:13Z</time>
      </trkpt>
      <trkpt lat="42.4166000" lon="-2.7319010">
        <ele>492.8</ele>
        <time>2022-08-29T06:18:14Z</time>
      </trkpt>
      <trkpt lat="42.4166010" lon="-2.7319010">
        <ele>492.8</ele>
        <time>2022-08-29T06:18:15Z</time>
      </trkpt>
      <trkpt lat="42.4166020" lon="-2.7319010">
        <ele>492.8</ele>
        <time>2022-08-29T06:18:16Z</time>
      </trkpt>
      <trkpt lat="42.4166020" lon="-2.7318990">
        <ele>492.8</ele>
        <time>2022-08-29T06:18:17Z</time>
      </trkpt>
      <trkpt lat="42.4166030" lon="-2.7318980">
        <ele>493.0</ele>
        <time>2022-08-29T06:18:18Z</time>
      </trkpt>
      <trkpt lat="42.4166050" lon="-2.7318980">
        <ele>492.8</ele>
        <time>2022-08-29T06:18:19Z</time>
      </trkpt>
      <trkpt lat="42.4166070" lon="-2.7318980">
        <ele>492.8</ele>
        <time>2022-08-29T06:18:20Z</time>
      </trkpt>
      <trkpt lat="42.4166090" lon="-2.7318960">
        <ele>492.8</ele>
        <time>2022-08-29T06:18:21Z</time>
      </trkpt>
      <trkpt lat="42.4166140" lon="-2.7318950">
        <ele>492.8</ele>
        <time>2022-08-29T06:18:22Z</time>
      </trkpt>
      <trkpt lat="42.4166180" lon="-2.7318940">
        <ele>492.8</ele>
        <time>2022-08-29T06:18:23Z</time>
      </trkpt>
      <trkpt lat="42.4166220" lon="-2.7318940">
        <ele>492.8</ele>
        <time>2022-08-29T06:18:24Z</time>
      </trkpt>
      <trkpt lat="42.4166250" lon="-2.7318940">
        <ele>493.0</ele>
        <time>2022-08-29T06:18:25Z</time>
      </trkpt>
      <trkpt lat="42.4166270" lon="-2.7318930">
        <ele>492.8</ele>
        <time>2022-08-29T06:18:26Z</time>
      </trkpt>
      <trkpt lat="42.4166300" lon="-2.7318900">
        <ele>492.8</ele>
        <time>2022-08-29T06:18:27Z</time>
      </trkpt>
      <trkpt lat="42.4166330" lon="-2.7318900">
        <ele>492.8</ele>
        <time>2022-08-29T06:18:28Z</time>
      </trkpt>
      <trkpt lat="42.4166350" lon="-2.7318850">
        <ele>492.8</ele>
        <time>2022-08-29T06:18:29Z</time>
      </trkpt>
      <trkpt lat="42.4166390" lon="-2.7318840">
        <ele>492.8</ele>
        <time>2022-08-29T06:18:30Z</time>
      </trkpt>
      <trkpt lat="42.4166420" lon="-2.7318800">
        <ele>492.8</ele>
        <time>2022-08-29T06:18:31Z</time>
      </trkpt>
      <trkpt lat="42.4166440" lon="-2.7318780">
        <ele>492.8</ele>
        <time>2022-08-29T06:18:32Z</time>
      </trkpt>
      <trkpt lat="42.4166460" lon="-2.7318760">
        <ele>492.8</ele>
        <time>2022-08-29T06:18:33Z</time>
      </trkpt>
      <trkpt lat="42.4166470" lon="-2.7318720">
        <ele>492.8</ele>
        <time>2022-08-29T06:18:34Z</time>
      </trkpt>
      <trkpt lat="42.4166450" lon="-2.7318690">
        <ele>492.8</ele>
        <time>2022-08-29T06:18:35Z</time>
      </trkpt>
      <trkpt lat="42.4166420" lon="-2.7318660">
        <ele>492.8</ele>
        <time>2022-08-29T06:18:36Z</time>
      </trkpt>
      <trkpt lat="42.4166370" lon="-2.7318650">
        <ele>492.8</ele>
        <time>2022-08-29T06:18:37Z</time>
      </trkpt>
      <trkpt lat="42.4166340" lon="-2.7318640">
        <ele>492.8</ele>
        <time>2022-08-29T06:18:38Z</time>
      </trkpt>
      <trkpt lat="42.4166280" lon="-2.7318660">
        <ele>493.0</ele>
        <time>2022-08-29T06:18:39Z</time>
      </trkpt>
      <trkpt lat="42.4166280" lon="-2.7318670">
        <ele>492.8</ele>
        <time>2022-08-29T06:18:40Z</time>
      </trkpt>
      <trkpt lat="42.4166280" lon="-2.7318670">
        <ele>493.0</ele>
        <time>2022-08-29T06:18:41Z</time>
      </trkpt>
      <trkpt lat="42.4166270" lon="-2.7318670">
        <ele>493.0</ele>
        <time>2022-08-29T06:18:42Z</time>
      </trkpt>
      <trkpt lat="42.4166250" lon="-2.7318670">
        <ele>492.8</ele>
        <time>2022-08-29T06:18:43Z</time>
      </trkpt>
      <trkpt lat="42.4166210" lon="-2.7318640">
        <ele>492.8</ele>
        <time>2022-08-29T06:18:44Z</time>
      </trkpt>
      <trkpt lat="42.4166240" lon="-2.7318690">
        <ele>493.0</ele>
        <time>2022-08-29T06:18:45Z</time>
      </trkpt>
      <trkpt lat="42.4166220" lon="-2.7318670">
        <ele>493.0</ele>
        <time>2022-08-29T06:18:46Z</time>
      </trkpt>
      <trkpt lat="42.4166200" lon="-2.7318690">
        <ele>493.0</ele>
        <time>2022-08-29T06:18:47Z</time>
      </trkpt>
      <trkpt lat="42.4166120" lon="-2.7318710">
        <ele>492.8</ele>
        <time>2022-08-29T06:18:48Z</time>
      </trkpt>
      <trkpt lat="42.4166070" lon="-2.7318730">
        <ele>492.8</ele>
        <time>2022-08-29T06:18:49Z</time>
      </trkpt>
      <trkpt lat="42.4165990" lon="-2.7318740">
        <ele>492.8</ele>
        <time>2022-08-29T06:18:50Z</time>
      </trkpt>
      <trkpt lat="42.4165990" lon="-2.7318730">
        <ele>493.0</ele>
        <time>2022-08-29T06:18:51Z</time>
      </trkpt>
      <trkpt lat="42.4165980" lon="-2.7318730">
        <ele>493.0</ele>
        <time>2022-08-29T06:18:52Z</time>
      </trkpt>
      <trkpt lat="42.4165970" lon="-2.7318710">
        <ele>493.0</ele>
        <time>2022-08-29T06:18:53Z</time>
      </trkpt>
      <trkpt lat="42.4165940" lon="-2.7318720">
        <ele>493.0</ele>
        <time>2022-08-29T06:18:54Z</time>
      </trkpt>
      <trkpt lat="42.4165910" lon="-2.7318730">
        <ele>493.0</ele>
        <time>2022-08-29T06:18:55Z</time>
      </trkpt>
      <trkpt lat="42.4165880" lon="-2.7318740">
        <ele>493.0</ele>
        <time>2022-08-29T06:18:56Z</time>
      </trkpt>
      <trkpt lat="42.4165850" lon="-2.7318750">
        <ele>493.0</ele>
        <time>2022-08-29T06:18:57Z</time>
      </trkpt>
      <trkpt lat="42.4165830" lon="-2.7318780">
        <ele>493.0</ele>
        <time>2022-08-29T06:18:58Z</time>
      </trkpt>
      <trkpt lat="42.4165820" lon="-2.7318770">
        <ele>493.0</ele>
        <time>2022-08-29T06:18:59Z</time>
      </trkpt>
      <trkpt lat="42.4165790" lon="-2.7318780">
        <ele>492.8</ele>
        <time>2022-08-29T06:19:00Z</time>
      </trkpt>
      <trkpt lat="42.4165760" lon="-2.7318790">
        <ele>493.0</ele>
        <time>2022-08-29T06:19:01Z</time>
      </trkpt>
      <trkpt lat="42.4165760" lon="-2.7318790">
        <ele>493.0</ele>
        <time>2022-08-29T06:19:02Z</time>
      </trkpt>
      <trkpt lat="42.4165750" lon="-2.7318780">
        <ele>493.0</ele>
        <time>2022-08-29T06:19:03Z</time>
      </trkpt>
      <trkpt lat="42.4165740" lon="-2.7318780">
        <ele>493.0</ele>
        <time>2022-08-29T06:19:04Z</time>
      </trkpt>
      <trkpt lat="42.4165740" lon="-2.7318770">
        <ele>493.0</ele>
        <time>2022-08-29T06:19:05Z</time>
      </trkpt>
      <trkpt lat="42.4165770" lon="-2.7318780">
        <ele>493.0</ele>
        <time>2022-08-29T06:19:06Z</time>
      </trkpt>
      <trkpt lat="42.4165780" lon="-2.7318780">
        <ele>493.0</ele>
        <time>2022-08-29T06:19:07Z</time>
      </trkpt>
      <trkpt lat="42.4165800" lon="-2.7318790">
        <ele>493.0</ele>
        <time>2022-08-29T06:19:08Z</time>
      </trkpt>
      <trkpt lat="42.4165760" lon="-2.7318770">
        <ele>493.0</ele>
        <time>2022-08-29T06:19:09Z</time>
      </trkpt>
      <trkpt lat="42.4165740" lon="-2.7318750">
        <ele>493.0</ele>
        <time>2022-08-29T06:19:10Z</time>
      </trkpt>
      <trkpt lat="42.4165720" lon="-2.7318790">
        <ele>493.0</ele>
        <time>2022-08-29T06:19:11Z</time>
      </trkpt>
      <trkpt lat="42.4165700" lon="-2.7318790">
        <ele>493.0</ele>
        <time>2022-08-29T06:19:12Z</time>
      </trkpt>
      <trkpt lat="42.4165680" lon="-2.7318820">
        <ele>492.8</ele>
        <time>2022-08-29T06:19:13Z</time>
      </trkpt>
      <trkpt lat="42.4165630" lon="-2.7318820">
        <ele>492.8</ele>
        <time>2022-08-29T06:19:14Z</time>
      </trkpt>
      <trkpt lat="42.4165600" lon="-2.7318880">
        <ele>493.0</ele>
        <time>2022-08-29T06:19:15Z</time>
      </trkpt>
      <trkpt lat="42.4165560" lon="-2.7318930">
        <ele>493.0</ele>
        <time>2022-08-29T06:19:16Z</time>
      </trkpt>
      <trkpt lat="42.4165500" lon="-2.7318990">
        <ele>492.8</ele>
        <time>2022-08-29T06:19:17Z</time>
      </trkpt>
      <trkpt lat="42.4165450" lon="-2.7318980">
        <ele>492.8</ele>
        <time>2022-08-29T06:19:18Z</time>
      </trkpt>
      <trkpt lat="42.4165370" lon="-2.7319040">
        <ele>493.0</ele>
        <time>2022-08-29T06:19:19Z</time>
      </trkpt>
      <trkpt lat="42.4165310" lon="-2.7319030">
        <ele>493.0</ele>
        <time>2022-08-29T06:19:20Z</time>
      </trkpt>
      <trkpt lat="42.4165300" lon="-2.7319030">
        <ele>492.8</ele>
        <time>2022-08-29T06:19:21Z</time>
      </trkpt>
      <trkpt lat="42.4165300" lon="-2.7319040">
        <ele>492.8</ele>
        <time>2022-08-29T06:19:22Z</time>
      </trkpt>
      <trkpt lat="42.4165300" lon="-2.7319050">
        <ele>492.8</ele>
        <time>2022-08-29T06:19:23Z</time>
      </trkpt>
      <trkpt lat="42.4165320" lon="-2.7319040">
        <ele>493.0</ele>
        <time>2022-08-29T06:19:24Z</time>
      </trkpt>
      <trkpt lat="42.4165330" lon="-2.7319020">
        <ele>493.0</ele>
        <time>2022-08-29T06:19:25Z</time>
      </trkpt>
      <trkpt lat="42.4165330" lon="-2.7319010">
        <ele>492.8</ele>
        <time>2022-08-29T06:19:26Z</time>
      </trkpt>
      <trkpt lat="42.4165330" lon="-2.7319010">
        <ele>492.8</ele>
        <time>2022-08-29T06:19:27Z</time>
      </trkpt>
      <trkpt lat="42.4165330" lon="-2.7319000">
        <ele>493.0</ele>
        <time>2022-08-29T06:19:28Z</time>
      </trkpt>
      <trkpt lat="42.4165340" lon="-2.7319000">
        <ele>493.0</ele>
        <time>2022-08-29T06:19:29Z</time>
      </trkpt>
      <trkpt lat="42.4165340" lon="-2.7318980">
        <ele>493.0</ele>
        <time>2022-08-29T06:19:30Z</time>
      </trkpt>
      <trkpt lat="42.4165340" lon="-2.7318990">
        <ele>493.0</ele>
        <time>2022-08-29T06:19:31Z</time>
      </trkpt>
      <trkpt lat="42.4165350" lon="-2.7319010">
        <ele>493.0</ele>
        <time>2022-08-29T06:19:32Z</time>
      </trkpt>
      <trkpt lat="42.4165360" lon="-2.7319040">
        <ele>493.0</ele>
        <time>2022-08-29T06:19:33Z</time>
      </trkpt>
      <trkpt lat="42.4165370" lon="-2.7319080">
        <ele>493.0</ele>
        <time>2022-08-29T06:19:34Z</time>
      </trkpt>
      <trkpt lat="42.4165380" lon="-2.7319120">
        <ele>493.0</ele>
        <time>2022-08-29T06:19:35Z</time>
      </trkpt>
      <trkpt lat="42.4165390" lon="-2.7319200">
        <ele>493.0</ele>
        <time>2022-08-29T06:19:36Z</time>
      </trkpt>
      <trkpt lat="42.4165370" lon="-2.7319240">
        <ele>492.8</ele>
        <time>2022-08-29T06:19:37Z</time>
      </trkpt>
      <trkpt lat="42.4165360" lon="-2.7319260">
        <ele>493.0</ele>
        <time>2022-08-29T06:19:38Z</time>
      </trkpt>
      <trkpt lat="42.4165350" lon="-2.7319310">
        <ele>492.8</ele>
        <time>2022-08-29T06:19:39Z</time>
      </trkpt>
      <trkpt lat="42.4165340" lon="-2.7319320">
        <ele>493.0</ele>
        <time>2022-08-29T06:19:40Z</time>
      </trkpt>
      <trkpt lat="42.4165350" lon="-2.7319310">
        <ele>493.0</ele>
        <time>2022-08-29T06:19:41Z</time>
      </trkpt>
      <trkpt lat="42.4165360" lon="-2.7319300">
        <ele>493.0</ele>
        <time>2022-08-29T06:19:42Z</time>
      </trkpt>
      <trkpt lat="42.4165350" lon="-2.7319300">
        <ele>493.0</ele>
        <time>2022-08-29T06:19:43Z</time>
      </trkpt>
      <trkpt lat="42.4165340" lon="-2.7319300">
        <ele>493.0</ele>
        <time>2022-08-29T06:19:44Z</time>
      </trkpt>
      <trkpt lat="42.4165340" lon="-2.7319290">
        <ele>493.0</ele>
        <time>2022-08-29T06:19:45Z</time>
      </trkpt>
      <trkpt lat="42.4165340" lon="-2.7319280">
        <ele>493.0</ele>
        <time>2022-08-29T06:19:46Z</time>
      </trkpt>
      <trkpt lat="42.4165340" lon="-2.7319280">
        <ele>493.0</ele>
        <time>2022-08-29T06:19:47Z</time>
      </trkpt>
      <trkpt lat="42.4165360" lon="-2.7319280">
        <ele>493.0</ele>
        <time>2022-08-29T06:19:48Z</time>
      </trkpt>
      <trkpt lat="42.4165340" lon="-2.7319260">
        <ele>493.0</ele>
        <time>2022-08-29T06:19:49Z</time>
      </trkpt>
      <trkpt lat="42.4165400" lon="-2.7319350">
        <ele>493.2</ele>
        <time>2022-08-29T06:19:50Z</time>
      </trkpt>
      <trkpt lat="42.4165450" lon="-2.7319500">
        <ele>493.2</ele>
        <time>2022-08-29T06:19:51Z</time>
      </trkpt>
      <trkpt lat="42.4165480" lon="-2.7319570">
        <ele>493.0</ele>
        <time>2022-08-29T06:19:52Z</time>
      </trkpt>
      <trkpt lat="42.4165470" lon="-2.7319580">
        <ele>493.2</ele>
        <time>2022-08-29T06:19:53Z</time>
      </trkpt>
      <trkpt lat="42.4165440" lon="-2.7319560">
        <ele>493.2</ele>
        <time>2022-08-29T06:19:54Z</time>
      </trkpt>
      <trkpt lat="42.4165520" lon="-2.7319440">
        <ele>493.2</ele>
        <time>2022-08-29T06:19:55Z</time>
      </trkpt>
      <trkpt lat="42.4165610" lon="-2.7319460">
        <ele>493.2</ele>
        <time>2022-08-29T06:19:56Z</time>
      </trkpt>
      <trkpt lat="42.4165850" lon="-2.7319490">
        <ele>493.0</ele>
        <time>2022-08-29T06:19:57Z</time>
      </trkpt>
      <trkpt lat="42.4166020" lon="-2.7319400">
        <ele>493.2</ele>
        <time>2022-08-29T06:19:58Z</time>
      </trkpt>
      <trkpt lat="42.4166120" lon="-2.7319460">
        <ele>493.2</ele>
        <time>2022-08-29T06:19:59Z</time>
      </trkpt>
      <trkpt lat="42.4166220" lon="-2.7319540">
        <ele>493.2</ele>
        <time>2022-08-29T06:20:00Z</time>
      </trkpt>
      <trkpt lat="42.4166320" lon="-2.7319550">
        <ele>493.2</ele>
        <time>2022-08-29T06:20:01Z</time>
      </trkpt>
      <trkpt lat="42.4166420" lon="-2.7319610">
        <ele>493.2</ele>
        <time>2022-08-29T06:20:02Z</time>
      </trkpt>
      <trkpt lat="42.4166460" lon="-2.7319620">
        <ele>493.2</ele>
        <time>2022-08-29T06:20:03Z</time>
      </trkpt>
      <trkpt lat="42.4166500" lon="-2.7319640">
        <ele>493.2</ele>
        <time>2022-08-29T06:20:04Z</time>
      </trkpt>
      <trkpt lat="42.4166550" lon="-2.7319620">
        <ele>493.2</ele>
        <time>2022-08-29T06:20:05Z</time>
      </trkpt>
      <trkpt lat="42.4166620" lon="-2.7319620">
        <ele>493.2</ele>
        <time>2022-08-29T06:20:06Z</time>
      </trkpt>
      <trkpt lat="42.4166770" lon="-2.7319650">
        <ele>493.2</ele>
        <time>2022-08-29T06:20:07Z</time>
      </trkpt>
      <trkpt lat="42.4166890" lon="-2.7319640">
        <ele>493.2</ele>
        <time>2022-08-29T06:20:08Z</time>
      </trkpt>
      <trkpt lat="42.4166950" lon="-2.7319640">
        <ele>493.2</ele>
        <time>2022-08-29T06:20:09Z</time>
      </trkpt>
      <trkpt lat="42.4166980" lon="-2.7319620">
        <ele>493.2</ele>
        <time>2022-08-29T06:20:10Z</time>
      </trkpt>
      <trkpt lat="42.4167030" lon="-2.7319540">
        <ele>493.2</ele>
        <time>2022-08-29T06:20:11Z</time>
      </trkpt>
      <trkpt lat="42.4167020" lon="-2.7319470">
        <ele>493.2</ele>
        <time>2022-08-29T06:20:12Z</time>
      </trkpt>
      <trkpt lat="42.4167000" lon="-2.7319310">
        <ele>493.2</ele>
        <time>2022-08-29T06:20:13Z</time>
      </trkpt>
      <trkpt lat="42.4166990" lon="-2.7319240">
        <ele>493.0</ele>
        <time>2022-08-29T06:20:14Z</time>
      </trkpt>
      <trkpt lat="42.4166980" lon="-2.7319120">
        <ele>493.0</ele>
        <time>2022-08-29T06:20:15Z</time>
      </trkpt>
      <trkpt lat="42.4166980" lon="-2.7319070">
        <ele>493.2</ele>
        <time>2022-08-29T06:20:16Z</time>
      </trkpt>
      <trkpt lat="42.4166960" lon="-2.7319080">
        <ele>493.2</ele>
        <time>2022-08-29T06:20:17Z</time>
      </trkpt>
      <trkpt lat="42.4166950" lon="-2.7319130">
        <ele>493.2</ele>
        <time>2022-08-29T06:20:18Z</time>
      </trkpt>
      <trkpt lat="42.4166910" lon="-2.7319110">
        <ele>493.2</ele>
        <time>2022-08-29T06:20:19Z</time>
      </trkpt>
      <trkpt lat="42.4166850" lon="-2.7319140">
        <ele>493.2</ele>
        <time>2022-08-29T06:20:20Z</time>
      </trkpt>
      <trkpt lat="42.4166780" lon="-2.7319200">
        <ele>493.4</ele>
        <time>2022-08-29T06:20:21Z</time>
      </trkpt>
      <trkpt lat="42.4166710" lon="-2.7319310">
        <ele>493.4</ele>
        <time>2022-08-29T06:20:22Z</time>
      </trkpt>
      <trkpt lat="42.4166660" lon="-2.7319380">
        <ele>493.2</ele>
        <time>2022-08-29T06:20:23Z</time>
      </trkpt>
      <trkpt lat="42.4166620" lon="-2.7319440">
        <ele>493.2</ele>
        <time>2022-08-29T06:20:24Z</time>
      </trkpt>
      <trkpt lat="42.4166600" lon="-2.7319450">
        <ele>493.4</ele>
        <time>2022-08-29T06:20:25Z</time>
      </trkpt>
      <trkpt lat="42.4166570" lon="-2.7319460">
        <ele>493.2</ele>
        <time>2022-08-29T06:20:26Z</time>
      </trkpt>
      <trkpt lat="42.4166490" lon="-2.7319550">
        <ele>493.2</ele>
        <time>2022-08-29T06:20:27Z</time>
      </trkpt>
      <trkpt lat="42.4166420" lon="-2.7319630">
        <ele>493.2</ele>
        <time>2022-08-29T06:20:28Z</time>
      </trkpt>
      <trkpt lat="42.4166390" lon="-2.7319660">
        <ele>493.2</ele>
        <time>2022-08-29T06:20:29Z</time>
      </trkpt>
      <trkpt lat="42.4166390" lon="-2.7319660">
        <ele>493.4</ele>
        <time>2022-08-29T06:20:30Z</time>
      </trkpt>
      <trkpt lat="42.4166380" lon="-2.7319650">
        <ele>493.2</ele>
        <time>2022-08-29T06:20:31Z</time>
      </trkpt>
      <trkpt lat="42.4166380" lon="-2.7319660">
        <ele>493.4</ele>
        <time>2022-08-29T06:20:32Z</time>
      </trkpt>
      <trkpt lat="42.4166370" lon="-2.7319660">
        <ele>493.4</ele>
        <time>2022-08-29T06:20:33Z</time>
      </trkpt>
      <trkpt lat="42.4166360" lon="-2.7319680">
        <ele>493.4</ele>
        <time>2022-08-29T06:20:34Z</time>
      </trkpt>
      <trkpt lat="42.4166340" lon="-2.7319680">
        <ele>493.2</ele>
        <time>2022-08-29T06:20:35Z</time>
      </trkpt>
      <trkpt lat="42.4166310" lon="-2.7319690">
        <ele>493.4</ele>
        <time>2022-08-29T06:20:36Z</time>
      </trkpt>
      <trkpt lat="42.4166270" lon="-2.7319700">
        <ele>493.4</ele>
        <time>2022-08-29T06:20:37Z</time>
      </trkpt>
      <trkpt lat="42.4166210" lon="-2.7319680">
        <ele>493.4</ele>
        <time>2022-08-29T06:20:38Z</time>
      </trkpt>
      <trkpt lat="42.4166170" lon="-2.7319680">
        <ele>493.4</ele>
        <time>2022-08-29T06:20:39Z</time>
      </trkpt>
      <trkpt lat="42.4166170" lon="-2.7319680">
        <ele>493.4</ele>
        <time>2022-08-29T06:20:40Z</time>
      </trkpt>
      <trkpt lat="42.4166180" lon="-2.7319670">
        <ele>493.2</ele>
        <time>2022-08-29T06:20:41Z</time>
      </trkpt>
      <trkpt lat="42.4166190" lon="-2.7319690">
        <ele>493.4</ele>
        <time>2022-08-29T06:20:42Z</time>
      </trkpt>
      <trkpt lat="42.4166200" lon="-2.7319680">
        <ele>493.2</ele>
        <time>2022-08-29T06:20:43Z</time>
      </trkpt>
      <trkpt lat="42.4166210" lon="-2.7319670">
        <ele>493.4</ele>
        <time>2022-08-29T06:20:44Z</time>
      </trkpt>
      <trkpt lat="42.4166220" lon="-2.7319670">
        <ele>493.4</ele>
        <time>2022-08-29T06:20:45Z</time>
      </trkpt>
      <trkpt lat="42.4166230" lon="-2.7319670">
        <ele>493.4</ele>
        <time>2022-08-29T06:20:46Z</time>
      </trkpt>
      <trkpt lat="42.4166230" lon="-2.7319670">
        <ele>493.4</ele>
        <time>2022-08-29T06:20:47Z</time>
      </trkpt>
      <trkpt lat="42.4166220" lon="-2.7319690">
        <ele>493.4</ele>
        <time>2022-08-29T06:20:48Z</time>
      </trkpt>
      <trkpt lat="42.4166180" lon="-2.7319660">
        <ele>493.4</ele>
        <time>2022-08-29T06:20:49Z</time>
      </trkpt>
      <trkpt lat="42.4166110" lon="-2.7319690">
        <ele>493.4</ele>
        <time>2022-08-29T06:20:50Z</time>
      </trkpt>
      <trkpt lat="42.4166050" lon="-2.7319690">
        <ele>493.4</ele>
        <time>2022-08-29T06:20:51Z</time>
      </trkpt>
      <trkpt lat="42.4166010" lon="-2.7319700">
        <ele>493.4</ele>
        <time>2022-08-29T06:20:52Z</time>
      </trkpt>
      <trkpt lat="42.4165970" lon="-2.7319720">
        <ele>493.4</ele>
        <time>2022-08-29T06:20:53Z</time>
      </trkpt>
      <trkpt lat="42.4165910" lon="-2.7319730">
        <ele>493.4</ele>
        <time>2022-08-29T06:20:54Z</time>
      </trkpt>
      <trkpt lat="42.4165880" lon="-2.7319730">
        <ele>493.4</ele>
        <time>2022-08-29T06:20:55Z</time>
      </trkpt>
      <trkpt lat="42.4165860" lon="-2.7319730">
        <ele>493.4</ele>
        <time>2022-08-29T06:20:56Z</time>
      </trkpt>
      <trkpt lat="42.4165860" lon="-2.7319720">
        <ele>493.4</ele>
        <time>2022-08-29T06:20:57Z</time>
      </trkpt>
      <trkpt lat="42.4165870" lon="-2.7319700">
        <ele>493.4</ele>
        <time>2022-08-29T06:20:58Z</time>
      </trkpt>
      <trkpt lat="42.4165890" lon="-2.7319640">
        <ele>493.6</ele>
        <time>2022-08-29T06:20:59Z</time>
      </trkpt>
      <trkpt lat="42.4165900" lon="-2.7319620">
        <ele>493.6</ele>
        <time>2022-08-29T06:21:00Z</time>
      </trkpt>
      <trkpt lat="42.4165890" lon="-2.7319610">
        <ele>493.4</ele>
        <time>2022-08-29T06:21:01Z</time>
      </trkpt>
      <trkpt lat="42.4165910" lon="-2.7319580">
        <ele>493.6</ele>
        <time>2022-08-29T06:21:02Z</time>
      </trkpt>
      <trkpt lat="42.4165900" lon="-2.7319540">
        <ele>493.6</ele>
        <time>2022-08-29T06:21:03Z</time>
      </trkpt>
      <trkpt lat="42.4165890" lon="-2.7319480">
        <ele>493.4</ele>
        <time>2022-08-29T06:21:04Z</time>
      </trkpt>
      <trkpt lat="42.4166030" lon="-2.7318980">
        <ele>493.6</ele>
        <time>2022-08-29T06:21:05Z</time>
      </trkpt>
      <trkpt lat="42.4166110" lon="-2.7318670">
        <ele>493.4</ele>
        <time>2022-08-29T06:21:06Z</time>
      </trkpt>
      <trkpt lat="42.4166150" lon="-2.7318490">
        <ele>493.6</ele>
        <time>2022-08-29T06:21:07Z</time>
      </trkpt>
      <trkpt lat="42.4166180" lon="-2.7318370">
        <ele>493.4</ele>
        <time>2022-08-29T06:21:08Z</time>
      </trkpt>
      <trkpt lat="42.4166260" lon="-2.7318390">
        <ele>493.6</ele>
        <time>2022-08-29T06:21:09Z</time>
      </trkpt>
      <trkpt lat="42.4166340" lon="-2.7318370">
        <ele>493.4</ele>
        <time>2022-08-29T06:21:10Z</time>
      </trkpt>
      <trkpt lat="42.4166420" lon="-2.7318350">
        <ele>493.6</ele>
        <time>2022-08-29T06:21:11Z</time>
      </trkpt>
      <trkpt lat="42.4166590" lon="-2.7318300">
        <ele>493.4</ele>
        <time>2022-08-29T06:21:12Z</time>
      </trkpt>
      <trkpt lat="42.4166740" lon="-2.7318340">
        <ele>493.6</ele>
        <time>2022-08-29T06:21:13Z</time>
      </trkpt>
      <trkpt lat="42.4166940" lon="-2.7318340">
        <ele>493.4</ele>
        <time>2022-08-29T06:21:14Z</time>
      </trkpt>
      <trkpt lat="42.4167140" lon="-2.7318370">
        <ele>493.4</ele>
        <time>2022-08-29T06:21:15Z</time>
      </trkpt>
      <trkpt lat="42.4167430" lon="-2.7318440">
        <ele>493.4</ele>
        <time>2022-08-29T06:21:16Z</time>
      </trkpt>
      <trkpt lat="42.4167680" lon="-2.7318520">
        <ele>493.6</ele>
        <time>2022-08-29T06:21:17Z</time>
      </trkpt>
      <trkpt lat="42.4167960" lon="-2.7318670">
        <ele>493.6</ele>
        <time>2022-08-29T06:21:18Z</time>
      </trkpt>
      <trkpt lat="42.4168200" lon="-2.7318800">
        <ele>493.6</ele>
        <time>2022-08-29T06:21:19Z</time>
      </trkpt>
      <trkpt lat="42.4168450" lon="-2.7318920">
        <ele>493.4</ele>
        <time>2022-08-29T06:21:20Z</time>
      </trkpt>
      <trkpt lat="42.4168830" lon="-2.7319040">
        <ele>493.4</ele>
        <time>2022-08-29T06:21:21Z</time>
      </trkpt>
      <trkpt lat="42.4169170" lon="-2.7319160">
        <ele>493.6</ele>
        <time>2022-08-29T06:21:22Z</time>
      </trkpt>
      <trkpt lat="42.4169510" lon="-2.7319340">
        <ele>493.6</ele>
        <time>2022-08-29T06:21:23Z</time>
      </trkpt>
      <trkpt lat="42.4169870" lon="-2.7319490">
        <ele>493.6</ele>
        <time>2022-08-29T06:21:24Z</time>
      </trkpt>
      <trkpt lat="42.4170280" lon="-2.7319640">
        <ele>493.4</ele>
        <time>2022-08-29T06:21:25Z</time>
      </trkpt>
      <trkpt lat="42.4170660" lon="-2.7319780">
        <ele>493.4</ele>
        <time>2022-08-29T06:21:26Z</time>
      </trkpt>
      <trkpt lat="42.4171000" lon="-2.7319880">
        <ele>493.6</ele>
        <time>2022-08-29T06:21:27Z</time>
      </trkpt>
      <trkpt lat="42.4171360" lon="-2.7319930">
        <ele>493.4</ele>
        <time>2022-08-29T06:21:28Z</time>
      </trkpt>
      <trkpt lat="42.4171710" lon="-2.7320040">
        <ele>493.4</ele>
        <time>2022-08-29T06:21:29Z</time>
      </trkpt>
      <trkpt lat="42.4172060" lon="-2.7320080">
        <ele>493.4</ele>
        <time>2022-08-29T06:21:30Z</time>
      </trkpt>
      <trkpt lat="42.4172410" lon="-2.7320120">
        <ele>493.6</ele>
        <time>2022-08-29T06:21:31Z</time>
      </trkpt>
      <trkpt lat="42.4172750" lon="-2.7320280">
        <ele>493.6</ele>
        <time>2022-08-29T06:21:32Z</time>
      </trkpt>
      <trkpt lat="42.4173010" lon="-2.7320500">
        <ele>493.4</ele>
        <time>2022-08-29T06:21:33Z</time>
      </trkpt>
      <trkpt lat="42.4173240" lon="-2.7320720">
        <ele>493.6</ele>
        <time>2022-08-29T06:21:34Z</time>
      </trkpt>
      <trkpt lat="42.4173440" lon="-2.7321030">
        <ele>493.6</ele>
        <time>2022-08-29T06:21:35Z</time>
      </trkpt>
      <trkpt lat="42.4173600" lon="-2.7321310">
        <ele>493.6</ele>
        <time>2022-08-29T06:21:36Z</time>
      </trkpt>
      <trkpt lat="42.4173720" lon="-2.7321630">
        <ele>493.6</ele>
        <time>2022-08-29T06:21:37Z</time>
      </trkpt>
      <trkpt lat="42.4173830" lon="-2.7321940">
        <ele>493.8</ele>
        <time>2022-08-29T06:21:38Z</time>
      </trkpt>
      <trkpt lat="42.4173930" lon="-2.7322270">
        <ele>494.0</ele>
        <time>2022-08-29T06:21:39Z</time>
      </trkpt>
      <trkpt lat="42.4173960" lon="-2.7322660">
        <ele>494.0</ele>
        <time>2022-08-29T06:21:40Z</time>
      </trkpt>
      <trkpt lat="42.4174000" lon="-2.7323030">
        <ele>494.2</ele>
        <time>2022-08-29T06:21:41Z</time>
      </trkpt>
      <trkpt lat="42.4174030" lon="-2.7323410">
        <ele>494.2</ele>
        <time>2022-08-29T06:21:42Z</time>
      </trkpt>
      <trkpt lat="42.4174100" lon="-2.7323750">
        <ele>494.6</ele>
        <time>2022-08-29T06:21:43Z</time>
      </trkpt>
      <trkpt lat="42.4174150" lon="-2.7324160">
        <ele>494.8</ele>
        <time>2022-08-29T06:21:44Z</time>
      </trkpt>
      <trkpt lat="42.4174200" lon="-2.7324570">
        <ele>494.8</ele>
        <time>2022-08-29T06:21:45Z</time>
      </trkpt>
      <trkpt lat="42.4174250" lon="-2.7324950">
        <ele>494.8</ele>
        <time>2022-08-29T06:21:46Z</time>
      </trkpt>
      <trkpt lat="42.4174290" lon="-2.7325360">
        <ele>494.8</ele>
        <time>2022-08-29T06:21:47Z</time>
      </trkpt>
      <trkpt lat="42.4174350" lon="-2.7325750">
        <ele>494.8</ele>
        <time>2022-08-29T06:21:48Z</time>
      </trkpt>
      <trkpt lat="42.4174400" lon="-2.7326140">
        <ele>494.8</ele>
        <time>2022-08-29T06:21:49Z</time>
      </trkpt>
      <trkpt lat="42.4174450" lon="-2.7326500">
        <ele>495.2</ele>
        <time>2022-08-29T06:21:50Z</time>
      </trkpt>
      <trkpt lat="42.4174480" lon="-2.7326870">
        <ele>495.2</ele>
        <time>2022-08-29T06:21:51Z</time>
      </trkpt>
      <trkpt lat="42.4174520" lon="-2.7327230">
        <ele>495.2</ele>
        <time>2022-08-29T06:21:52Z</time>
      </trkpt>
      <trkpt lat="42.4174580" lon="-2.7327620">
        <ele>495.2</ele>
        <time>2022-08-29T06:21:53Z</time>
      </trkpt>
      <trkpt lat="42.4174620" lon="-2.7328020">
        <ele>495.2</ele>
        <time>2022-08-29T06:21:54Z</time>
      </trkpt>
      <trkpt lat="42.4174660" lon="-2.7328400">
        <ele>495.2</ele>
        <time>2022-08-29T06:21:55Z</time>
      </trkpt>
      <trkpt lat="42.4174690" lon="-2.7328760">
        <ele>495.2</ele>
        <time>2022-08-29T06:21:56Z</time>
      </trkpt>
      <trkpt lat="42.4174730" lon="-2.7329110">
        <ele>495.2</ele>
        <time>2022-08-29T06:21:57Z</time>
      </trkpt>
      <trkpt lat="42.4174760" lon="-2.7329440">
        <ele>495.2</ele>
        <time>2022-08-29T06:21:58Z</time>
      </trkpt>
      <trkpt lat="42.4174790" lon="-2.7329760">
        <ele>495.0</ele>
        <time>2022-08-29T06:21:59Z</time>
      </trkpt>
      <trkpt lat="42.4174820" lon="-2.7330060">
        <ele>495.2</ele>
        <time>2022-08-29T06:22:00Z</time>
      </trkpt>
      <trkpt lat="42.4174860" lon="-2.7330340">
        <ele>495.2</ele>
        <time>2022-08-29T06:22:01Z</time>
      </trkpt>
      <trkpt lat="42.4174900" lon="-2.7330600">
        <ele>495.2</ele>
        <time>2022-08-29T06:22:02Z</time>
      </trkpt>
      <trkpt lat="42.4174930" lon="-2.7330860">
        <ele>495.2</ele>
        <time>2022-08-29T06:22:03Z</time>
      </trkpt>
      <trkpt lat="42.4174940" lon="-2.7331100">
        <ele>495.2</ele>
        <time>2022-08-29T06:22:04Z</time>
      </trkpt>
      <trkpt lat="42.4174940" lon="-2.7331320">
        <ele>495.0</ele>
        <time>2022-08-29T06:22:05Z</time>
      </trkpt>
      <trkpt lat="42.4174950" lon="-2.7331550">
        <ele>495.0</ele>
        <time>2022-08-29T06:22:06Z</time>
      </trkpt>
      <trkpt lat="42.4175000" lon="-2.7331770">
        <ele>495.2</ele>
        <time>2022-08-29T06:22:07Z</time>
      </trkpt>
      <trkpt lat="42.4175070" lon="-2.7331970">
        <ele>495.2</ele>
        <time>2022-08-29T06:22:08Z</time>
      </trkpt>
      <trkpt lat="42.4175150" lon="-2.7332170">
        <ele>495.2</ele>
        <time>2022-08-29T06:22:09Z</time>
      </trkpt>
      <trkpt lat="42.4175250" lon="-2.7332380">
        <ele>495.2</ele>
        <time>2022-08-29T06:22:10Z</time>
      </trkpt>
      <trkpt lat="42.4175350" lon="-2.7332570">
        <ele>495.2</ele>
        <time>2022-08-29T06:22:11Z</time>
      </trkpt>
      <trkpt lat="42.4175450" lon="-2.7332750">
        <ele>495.0</ele>
        <time>2022-08-29T06:22:12Z</time>
      </trkpt>
      <trkpt lat="42.4175580" lon="-2.7332920">
        <ele>495.2</ele>
        <time>2022-08-29T06:22:13Z</time>
      </trkpt>
      <trkpt lat="42.4175740" lon="-2.7333120">
        <ele>495.0</ele>
        <time>2022-08-29T06:22:14Z</time>
      </trkpt>
      <trkpt lat="42.4175930" lon="-2.7333320">
        <ele>495.0</ele>
        <time>2022-08-29T06:22:15Z</time>
      </trkpt>
      <trkpt lat="42.4176210" lon="-2.7333490">
        <ele>495.0</ele>
        <time>2022-08-29T06:22:16Z</time>
      </trkpt>
      <trkpt lat="42.4176530" lon="-2.7333670">
        <ele>495.2</ele>
        <time>2022-08-29T06:22:17Z</time>
      </trkpt>
      <trkpt lat="42.4176910" lon="-2.7333820">
        <ele>495.2</ele>
        <time>2022-08-29T06:22:18Z</time>
      </trkpt>
      <trkpt lat="42.4177350" lon="-2.7333940">
        <ele>495.2</ele>
        <time>2022-08-29T06:22:19Z</time>
      </trkpt>
      <trkpt lat="42.4177810" lon="-2.7334040">
        <ele>495.0</ele>
        <time>2022-08-29T06:22:20Z</time>
      </trkpt>
      <trkpt lat="42.4178290" lon="-2.7334090">
        <ele>495.0</ele>
        <time>2022-08-29T06:22:21Z</time>
      </trkpt>
      <trkpt lat="42.4178790" lon="-2.7334160">
        <ele>495.0</ele>
        <time>2022-08-29T06:22:22Z</time>
      </trkpt>
      <trkpt lat="42.4179240" lon="-2.7334450">
        <ele>495.0</ele>
        <time>2022-08-29T06:22:23Z</time>
      </trkpt>
      <trkpt lat="42.4179650" lon="-2.7334880">
        <ele>494.8</ele>
        <time>2022-08-29T06:22:24Z</time>
      </trkpt>
      <trkpt lat="42.4179970" lon="-2.7335390">
        <ele>494.6</ele>
        <time>2022-08-29T06:22:25Z</time>
      </trkpt>
      <trkpt lat="42.4180170" lon="-2.7335940">
        <ele>494.2</ele>
        <time>2022-08-29T06:22:26Z</time>
      </trkpt>
      <trkpt lat="42.4180390" lon="-2.7336480">
        <ele>493.8</ele>
        <time>2022-08-29T06:22:27Z</time>
      </trkpt>
      <trkpt lat="42.4180660" lon="-2.7337030">
        <ele>493.6</ele>
        <time>2022-08-29T06:22:28Z</time>
      </trkpt>
      <trkpt lat="42.4180950" lon="-2.7337490">
        <ele>493.2</ele>
        <time>2022-08-29T06:22:29Z</time>
      </trkpt>
      <trkpt lat="42.4181240" lon="-2.7337920">
        <ele>493.2</ele>
        <time>2022-08-29T06:22:30Z</time>
      </trkpt>
      <trkpt lat="42.4181520" lon="-2.7338340">
        <ele>492.8</ele>
        <time>2022-08-29T06:22:31Z</time>
      </trkpt>
      <trkpt lat="42.4181830" lon="-2.7338640">
        <ele>492.8</ele>
        <time>2022-08-29T06:22:32Z</time>
      </trkpt>
      <trkpt lat="42.4182100" lon="-2.7339020">
        <ele>492.8</ele>
        <time>2022-08-29T06:22:33Z</time>
      </trkpt>
      <trkpt lat="42.4182300" lon="-2.7339390">
        <ele>492.6</ele>
        <time>2022-08-29T06:22:34Z</time>
      </trkpt>
      <trkpt lat="42.4182470" lon="-2.7339780">
        <ele>492.2</ele>
        <time>2022-08-29T06:22:35Z</time>
      </trkpt>
      <trkpt lat="42.4182640" lon="-2.7340180">
        <ele>492.0</ele>
        <time>2022-08-29T06:22:36Z</time>
      </trkpt>
      <trkpt lat="42.4182900" lon="-2.7340460">
        <ele>491.8</ele>
        <time>2022-08-29T06:22:37Z</time>
      </trkpt>
      <trkpt lat="42.4183110" lon="-2.7340850">
        <ele>491.6</ele>
        <time>2022-08-29T06:22:38Z</time>
      </trkpt>
      <trkpt lat="42.4183320" lon="-2.7341200">
        <ele>491.4</ele>
        <time>2022-08-29T06:22:39Z</time>
      </trkpt>
      <trkpt lat="42.4183570" lon="-2.7341520">
        <ele>491.2</ele>
        <time>2022-08-29T06:22:40Z</time>
      </trkpt>
      <trkpt lat="42.4183810" lon="-2.7341830">
        <ele>491.2</ele>
        <time>2022-08-29T06:22:41Z</time>
      </trkpt>
      <trkpt lat="42.4183970" lon="-2.7342210">
        <ele>491.2</ele>
        <time>2022-08-29T06:22:42Z</time>
      </trkpt>
      <trkpt lat="42.4184170" lon="-2.7342580">
        <ele>491.2</ele>
        <time>2022-08-29T06:22:43Z</time>
      </trkpt>
      <trkpt lat="42.4184410" lon="-2.7342890">
        <ele>491.2</ele>
        <time>2022-08-29T06:22:44Z</time>
      </trkpt>
      <trkpt lat="42.4184590" lon="-2.7343230">
        <ele>491.2</ele>
        <time>2022-08-29T06:22:45Z</time>
      </trkpt>
      <trkpt lat="42.4184760" lon="-2.7343640">
        <ele>491.2</ele>
        <time>2022-08-29T06:22:46Z</time>
      </trkpt>
      <trkpt lat="42.4184930" lon="-2.7344000">
        <ele>491.2</ele>
        <time>2022-08-29T06:22:47Z</time>
      </trkpt>
      <trkpt lat="42.4185080" lon="-2.7344370">
        <ele>491.2</ele>
        <time>2022-08-29T06:22:48Z</time>
      </trkpt>
      <trkpt lat="42.4185220" lon="-2.7344740">
        <ele>491.2</ele>
        <time>2022-08-29T06:22:49Z</time>
      </trkpt>
      <trkpt lat="42.4185300" lon="-2.7345100">
        <ele>491.2</ele>
        <time>2022-08-29T06:22:50Z</time>
      </trkpt>
      <trkpt lat="42.4185250" lon="-2.7345440">
        <ele>491.0</ele>
        <time>2022-08-29T06:22:51Z</time>
      </trkpt>
      <trkpt lat="42.4185210" lon="-2.7345690">
        <ele>491.0</ele>
        <time>2022-08-29T06:22:52Z</time>
      </trkpt>
      <trkpt lat="42.4185150" lon="-2.7345950">
        <ele>491.0</ele>
        <time>2022-08-29T06:22:53Z</time>
      </trkpt>
      <trkpt lat="42.4185110" lon="-2.7346100">
        <ele>491.0</ele>
        <time>2022-08-29T06:22:54Z</time>
      </trkpt>
      <trkpt lat="42.4185060" lon="-2.7346230">
        <ele>491.0</ele>
        <time>2022-08-29T06:22:55Z</time>
      </trkpt>
      <trkpt lat="42.4184970" lon="-2.7346350">
        <ele>491.0</ele>
        <time>2022-08-29T06:22:56Z</time>
      </trkpt>
      <trkpt lat="42.4184950" lon="-2.7346370">
        <ele>491.0</ele>
        <time>2022-08-29T06:22:57Z</time>
      </trkpt>
      <trkpt lat="42.4184940" lon="-2.7346380">
        <ele>491.0</ele>
        <time>2022-08-29T06:22:58Z</time>
      </trkpt>
      <trkpt lat="42.4184910" lon="-2.7346500">
        <ele>491.2</ele>
        <time>2022-08-29T06:22:59Z</time>
      </trkpt>
      <trkpt lat="42.4184870" lon="-2.7346540">
        <ele>491.2</ele>
        <time>2022-08-29T06:23:00Z</time>
      </trkpt>
      <trkpt lat="42.4184800" lon="-2.7346560">
        <ele>491.2</ele>
        <time>2022-08-29T06:23:01Z</time>
      </trkpt>
      <trkpt lat="42.4184710" lon="-2.7346560">
        <ele>491.0</ele>
        <time>2022-08-29T06:23:02Z</time>
      </trkpt>
      <trkpt lat="42.4184610" lon="-2.7346600">
        <ele>491.2</ele>
        <time>2022-08-29T06:23:03Z</time>
      </trkpt>
      <trkpt lat="42.4184530" lon="-2.7346640">
        <ele>491.2</ele>
        <time>2022-08-29T06:23:04Z</time>
      </trkpt>
      <trkpt lat="42.4184410" lon="-2.7346740">
        <ele>491.2</ele>
        <time>2022-08-29T06:23:05Z</time>
      </trkpt>
      <trkpt lat="42.4184320" lon="-2.7346820">
        <ele>491.2</ele>
        <time>2022-08-29T06:23:06Z</time>
      </trkpt>
      <trkpt lat="42.4184210" lon="-2.7346890">
        <ele>491.4</ele>
        <time>2022-08-29T06:23:07Z</time>
      </trkpt>
      <trkpt lat="42.4184150" lon="-2.7346870">
        <ele>491.2</ele>
        <time>2022-08-29T06:23:08Z</time>
      </trkpt>
      <trkpt lat="42.4184130" lon="-2.7346880">
        <ele>491.2</ele>
        <time>2022-08-29T06:23:09Z</time>
      </trkpt>
      <trkpt lat="42.4184090" lon="-2.7346920">
        <ele>491.4</ele>
        <time>2022-08-29T06:23:10Z</time>
      </trkpt>
      <trkpt lat="42.4184090" lon="-2.7346930">
        <ele>491.2</ele>
        <time>2022-08-29T06:23:11Z</time>
      </trkpt>
      <trkpt lat="42.4184080" lon="-2.7346940">
        <ele>491.4</ele>
        <time>2022-08-29T06:23:12Z</time>
      </trkpt>
      <trkpt lat="42.4184070" lon="-2.7346940">
        <ele>491.2</ele>
        <time>2022-08-29T06:23:13Z</time>
      </trkpt>
      <trkpt lat="42.4184070" lon="-2.7346930">
        <ele>491.2</ele>
        <time>2022-08-29T06:23:14Z</time>
      </trkpt>
      <trkpt lat="42.4184070" lon="-2.7346940">
        <ele>491.2</ele>
        <time>2022-08-29T06:23:15Z</time>
      </trkpt>
      <trkpt lat="42.4184060" lon="-2.7346920">
        <ele>491.4</ele>
        <time>2022-08-29T06:23:16Z</time>
      </trkpt>
      <trkpt lat="42.4184060" lon="-2.7346900">
        <ele>491.4</ele>
        <time>2022-08-29T06:23:17Z</time>
      </trkpt>
      <trkpt lat="42.4184050" lon="-2.7346890">
        <ele>491.2</ele>
        <time>2022-08-29T06:23:18Z</time>
      </trkpt>
      <trkpt lat="42.4184050" lon="-2.7346900">
        <ele>491.2</ele>
        <time>2022-08-29T06:23:19Z</time>
      </trkpt>
      <trkpt lat="42.4184040" lon="-2.7346880">
        <ele>491.2</ele>
        <time>2022-08-29T06:23:20Z</time>
      </trkpt>
      <trkpt lat="42.4184040" lon="-2.7346890">
        <ele>491.2</ele>
        <time>2022-08-29T06:23:21Z</time>
      </trkpt>
      <trkpt lat="42.4184050" lon="-2.7346910">
        <ele>491.2</ele>
        <time>2022-08-29T06:23:22Z</time>
      </trkpt>
      <trkpt lat="42.4184060" lon="-2.7346910">
        <ele>491.4</ele>
        <time>2022-08-29T06:23:23Z</time>
      </trkpt>
      <trkpt lat="42.4184060" lon="-2.7346910">
        <ele>491.4</ele>
        <time>2022-08-29T06:23:24Z</time>
      </trkpt>
      <trkpt lat="42.4184070" lon="-2.7346900">
        <ele>491.4</ele>
        <time>2022-08-29T06:23:25Z</time>
      </trkpt>
      <trkpt lat="42.4184070" lon="-2.7346900">
        <ele>491.4</ele>
        <time>2022-08-29T06:23:26Z</time>
      </trkpt>
      <trkpt lat="42.4184070" lon="-2.7346900">
        <ele>491.2</ele>
        <time>2022-08-29T06:23:27Z</time>
      </trkpt>
      <trkpt lat="42.4184080" lon="-2.7346900">
        <ele>491.2</ele>
        <time>2022-08-29T06:23:28Z</time>
      </trkpt>
      <trkpt lat="42.4184080" lon="-2.7346900">
        <ele>491.4</ele>
        <time>2022-08-29T06:23:29Z</time>
      </trkpt>
      <trkpt lat="42.4184080" lon="-2.7346890">
        <ele>491.2</ele>
        <time>2022-08-29T06:23:30Z</time>
      </trkpt>
      <trkpt lat="42.4184080" lon="-2.7346890">
        <ele>491.2</ele>
        <time>2022-08-29T06:23:31Z</time>
      </trkpt>
      <trkpt lat="42.4184080" lon="-2.7346880">
        <ele>491.4</ele>
        <time>2022-08-29T06:23:32Z</time>
      </trkpt>
      <trkpt lat="42.4184050" lon="-2.7346880">
        <ele>491.2</ele>
        <time>2022-08-29T06:23:33Z</time>
      </trkpt>
      <trkpt lat="42.4183980" lon="-2.7346880">
        <ele>491.2</ele>
        <time>2022-08-29T06:23:34Z</time>
      </trkpt>
      <trkpt lat="42.4183900" lon="-2.7346920">
        <ele>491.2</ele>
        <time>2022-08-29T06:23:35Z</time>
      </trkpt>
      <trkpt lat="42.4183810" lon="-2.7346990">
        <ele>491.2</ele>
        <time>2022-08-29T06:23:36Z</time>
      </trkpt>
      <trkpt lat="42.4183660" lon="-2.7347110">
        <ele>491.2</ele>
        <time>2022-08-29T06:23:37Z</time>
      </trkpt>
      <trkpt lat="42.4183460" lon="-2.7347330">
        <ele>491.4</ele>
        <time>2022-08-29T06:23:38Z</time>
      </trkpt>
      <trkpt lat="42.4183300" lon="-2.7347470">
        <ele>491.4</ele>
        <time>2022-08-29T06:23:39Z</time>
      </trkpt>
      <trkpt lat="42.4183090" lon="-2.7347540">
        <ele>491.2</ele>
        <time>2022-08-29T06:23:40Z</time>
      </trkpt>
      <trkpt lat="42.4182810" lon="-2.7347580">
        <ele>491.2</ele>
        <time>2022-08-29T06:23:41Z</time>
      </trkpt>
      <trkpt lat="42.4182510" lon="-2.7347650">
        <ele>491.2</ele>
        <time>2022-08-29T06:23:42Z</time>
      </trkpt>
      <trkpt lat="42.4182200" lon="-2.7347780">
        <ele>491.4</ele>
        <time>2022-08-29T06:23:43Z</time>
      </trkpt>
      <trkpt lat="42.4181860" lon="-2.7347850">
        <ele>491.4</ele>
        <time>2022-08-29T06:23:44Z</time>
      </trkpt>
      <trkpt lat="42.4181530" lon="-2.7347950">
        <ele>491.4</ele>
        <time>2022-08-29T06:23:45Z</time>
      </trkpt>
      <trkpt lat="42.4181180" lon="-2.7348060">
        <ele>491.4</ele>
        <time>2022-08-29T06:23:46Z</time>
      </trkpt>
      <trkpt lat="42.4180800" lon="-2.7348170">
        <ele>491.2</ele>
        <time>2022-08-29T06:23:47Z</time>
      </trkpt>
      <trkpt lat="42.4180410" lon="-2.7348310">
        <ele>491.2</ele>
        <time>2022-08-29T06:23:48Z</time>
      </trkpt>
      <trkpt lat="42.4180050" lon="-2.7348360">
        <ele>491.2</ele>
        <time>2022-08-29T06:23:49Z</time>
      </trkpt>
      <trkpt lat="42.4179690" lon="-2.7348370">
        <ele>491.2</ele>
        <time>2022-08-29T06:23:50Z</time>
      </trkpt>
      <trkpt lat="42.4179320" lon="-2.7348420">
        <ele>491.4</ele>
        <time>2022-08-29T06:23:51Z</time>
      </trkpt>
      <trkpt lat="42.4178900" lon="-2.7348510">
        <ele>491.4</ele>
        <time>2022-08-29T06:23:52Z</time>
      </trkpt>
      <trkpt lat="42.4178480" lon="-2.7348570">
        <ele>491.2</ele>
        <time>2022-08-29T06:23:53Z</time>
      </trkpt>
      <trkpt lat="42.4178100" lon="-2.7348660">
        <ele>491.4</ele>
        <time>2022-08-29T06:23:54Z</time>
      </trkpt>
      <trkpt lat="42.4177730" lon="-2.7348760">
        <ele>491.4</ele>
        <time>2022-08-29T06:23:55Z</time>
      </trkpt>
      <trkpt lat="42.4177400" lon="-2.7348770">
        <ele>491.4</ele>
        <time>2022-08-29T06:23:56Z</time>
      </trkpt>
      <trkpt lat="42.4177030" lon="-2.7348520">
        <ele>491.4</ele>
        <time>2022-08-29T06:23:57Z</time>
      </trkpt>
      <trkpt lat="42.4176670" lon="-2.7348340">
        <ele>491.4</ele>
        <time>2022-08-29T06:23:58Z</time>
      </trkpt>
      <trkpt lat="42.4176160" lon="-2.7348660">
        <ele>491.6</ele>
        <time>2022-08-29T06:23:59Z</time>
      </trkpt>
      <trkpt lat="42.4175700" lon="-2.7348910">
        <ele>491.6</ele>
        <time>2022-08-29T06:24:00Z</time>
      </trkpt>
      <trkpt lat="42.4175310" lon="-2.7349160">
        <ele>491.6</ele>
        <time>2022-08-29T06:24:01Z</time>
      </trkpt>
      <trkpt lat="42.4174950" lon="-2.7349390">
        <ele>491.8</ele>
        <time>2022-08-29T06:24:02Z</time>
      </trkpt>
      <trkpt lat="42.4174590" lon="-2.7349610">
        <ele>491.8</ele>
        <time>2022-08-29T06:24:03Z</time>
      </trkpt>
      <trkpt lat="42.4174220" lon="-2.7349850">
        <ele>492.0</ele>
        <time>2022-08-29T06:24:04Z</time>
      </trkpt>
      <trkpt lat="42.4173870" lon="-2.7350090">
        <ele>492.0</ele>
        <time>2022-08-29T06:24:05Z</time>
      </trkpt>
      <trkpt lat="42.4173510" lon="-2.7350370">
        <ele>492.0</ele>
        <time>2022-08-29T06:24:06Z</time>
      </trkpt>
      <trkpt lat="42.4173180" lon="-2.7350670">
        <ele>492.4</ele>
        <time>2022-08-29T06:24:07Z</time>
      </trkpt>
      <trkpt lat="42.4172880" lon="-2.7350920">
        <ele>492.4</ele>
        <time>2022-08-29T06:24:08Z</time>
      </trkpt>
      <trkpt lat="42.4172580" lon="-2.7351210">
        <ele>492.6</ele>
        <time>2022-08-29T06:24:09Z</time>
      </trkpt>
      <trkpt lat="42.4172230" lon="-2.7351440">
        <ele>492.6</ele>
        <time>2022-08-29T06:24:10Z</time>
      </trkpt>
      <trkpt lat="42.4171880" lon="-2.7351670">
        <ele>492.8</ele>
        <time>2022-08-29T06:24:11Z</time>
      </trkpt>
      <trkpt lat="42.4171510" lon="-2.7351870">
        <ele>492.8</ele>
        <time>2022-08-29T06:24:12Z</time>
      </trkpt>
      <trkpt lat="42.4171150" lon="-2.7352030">
        <ele>493.0</ele>
        <time>2022-08-29T06:24:13Z</time>
      </trkpt>
      <trkpt lat="42.4170800" lon="-2.7352160">
        <ele>493.2</ele>
        <time>2022-08-29T06:24:14Z</time>
      </trkpt>
      <trkpt lat="42.4170410" lon="-2.7352230">
        <ele>493.2</ele>
        <time>2022-08-29T06:24:15Z</time>
      </trkpt>
      <trkpt lat="42.4170050" lon="-2.7352410">
        <ele>493.0</ele>
        <time>2022-08-29T06:24:16Z</time>
      </trkpt>
      <trkpt lat="42.4169690" lon="-2.7352580">
        <ele>493.2</ele>
        <time>2022-08-29T06:24:17Z</time>
      </trkpt>
      <trkpt lat="42.4169290" lon="-2.7352650">
        <ele>493.2</ele>
        <time>2022-08-29T06:24:18Z</time>
      </trkpt>
      <trkpt lat="42.4168950" lon="-2.7352670">
        <ele>493.2</ele>
        <time>2022-08-29T06:24:19Z</time>
      </trkpt>
      <trkpt lat="42.4168700" lon="-2.7352630">
        <ele>493.2</ele>
        <time>2022-08-29T06:24:20Z</time>
      </trkpt>
      <trkpt lat="42.4168470" lon="-2.7352620">
        <ele>493.2</ele>
        <time>2022-08-29T06:24:21Z</time>
      </trkpt>
      <trkpt lat="42.4168280" lon="-2.7352630">
        <ele>493.4</ele>
        <time>2022-08-29T06:24:22Z</time>
      </trkpt>
      <trkpt lat="42.4168120" lon="-2.7352610">
        <ele>493.4</ele>
        <time>2022-08-29T06:24:23Z</time>
      </trkpt>
      <trkpt lat="42.4167970" lon="-2.7352600">
        <ele>493.4</ele>
        <time>2022-08-29T06:24:24Z</time>
      </trkpt>
      <trkpt lat="42.4167830" lon="-2.7352550">
        <ele>493.4</ele>
        <time>2022-08-29T06:24:25Z</time>
      </trkpt>
      <trkpt lat="42.4167710" lon="-2.7352490">
        <ele>493.4</ele>
        <time>2022-08-29T06:24:26Z</time>
      </trkpt>
      <trkpt lat="42.4167590" lon="-2.7352430">
        <ele>493.6</ele>
        <time>2022-08-29T06:24:27Z</time>
      </trkpt>
      <trkpt lat="42.4167490" lon="-2.7352400">
        <ele>493.6</ele>
        <time>2022-08-29T06:24:28Z</time>
      </trkpt>
      <trkpt lat="42.4167390" lon="-2.7352380">
        <ele>493.8</ele>
        <time>2022-08-29T06:24:29Z</time>
      </trkpt>
      <trkpt lat="42.4167310" lon="-2.7352370">
        <ele>493.8</ele>
        <time>2022-08-29T06:24:30Z</time>
      </trkpt>
      <trkpt lat="42.4167210" lon="-2.7352420">
        <ele>494.0</ele>
        <time>2022-08-29T06:24:31Z</time>
      </trkpt>
      <trkpt lat="42.4167130" lon="-2.7352380">
        <ele>494.0</ele>
        <time>2022-08-29T06:24:32Z</time>
      </trkpt>
      <trkpt lat="42.4167040" lon="-2.7352380">
        <ele>494.0</ele>
        <time>2022-08-29T06:24:33Z</time>
      </trkpt>
      <trkpt lat="42.4166990" lon="-2.7352360">
        <ele>494.2</ele>
        <time>2022-08-29T06:24:34Z</time>
      </trkpt>
      <trkpt lat="42.4166990" lon="-2.7352360">
        <ele>494.0</ele>
        <time>2022-08-29T06:24:35Z</time>
      </trkpt>
      <trkpt lat="42.4166980" lon="-2.7352340">
        <ele>494.2</ele>
        <time>2022-08-29T06:24:36Z</time>
      </trkpt>
      <trkpt lat="42.4166950" lon="-2.7352260">
        <ele>494.2</ele>
        <time>2022-08-29T06:24:37Z</time>
      </trkpt>
      <trkpt lat="42.4166860" lon="-2.7352220">
        <ele>494.2</ele>
        <time>2022-08-29T06:24:38Z</time>
      </trkpt>
      <trkpt lat="42.4166700" lon="-2.7352230">
        <ele>494.2</ele>
        <time>2022-08-29T06:24:39Z</time>
      </trkpt>
      <trkpt lat="42.4166500" lon="-2.7352190">
        <ele>494.2</ele>
        <time>2022-08-29T06:24:40Z</time>
      </trkpt>
      <trkpt lat="42.4166240" lon="-2.7352220">
        <ele>494.2</ele>
        <time>2022-08-29T06:24:41Z</time>
      </trkpt>
      <trkpt lat="42.4165970" lon="-2.7352250">
        <ele>494.0</ele>
        <time>2022-08-29T06:24:42Z</time>
      </trkpt>
      <trkpt lat="42.4165680" lon="-2.7352290">
        <ele>494.0</ele>
        <time>2022-08-29T06:24:43Z</time>
      </trkpt>
      <trkpt lat="42.4165370" lon="-2.7352330">
        <ele>494.2</ele>
        <time>2022-08-29T06:24:44Z</time>
      </trkpt>
      <trkpt lat="42.4165040" lon="-2.7352340">
        <ele>494.2</ele>
        <time>2022-08-29T06:24:45Z</time>
      </trkpt>
      <trkpt lat="42.4164720" lon="-2.7352320">
        <ele>494.2</ele>
        <time>2022-08-29T06:24:46Z</time>
      </trkpt>
      <trkpt lat="42.4164430" lon="-2.7352220">
        <ele>494.2</ele>
        <time>2022-08-29T06:24:47Z</time>
      </trkpt>
      <trkpt lat="42.4164120" lon="-2.7352120">
        <ele>494.2</ele>
        <time>2022-08-29T06:24:48Z</time>
      </trkpt>
      <trkpt lat="42.4163840" lon="-2.7352080">
        <ele>494.2</ele>
        <time>2022-08-29T06:24:49Z</time>
      </trkpt>
      <trkpt lat="42.4163550" lon="-2.7352030">
        <ele>494.0</ele>
        <time>2022-08-29T06:24:50Z</time>
      </trkpt>
      <trkpt lat="42.4163280" lon="-2.7352050">
        <ele>494.2</ele>
        <time>2022-08-29T06:24:51Z</time>
      </trkpt>
      <trkpt lat="42.4163000" lon="-2.7352070">
        <ele>494.0</ele>
        <time>2022-08-29T06:24:52Z</time>
      </trkpt>
      <trkpt lat="42.4162720" lon="-2.7352100">
        <ele>494.0</ele>
        <time>2022-08-29T06:24:53Z</time>
      </trkpt>
      <trkpt lat="42.4162460" lon="-2.7352060">
        <ele>494.2</ele>
        <time>2022-08-29T06:24:54Z</time>
      </trkpt>
      <trkpt lat="42.4162220" lon="-2.7352030">
        <ele>494.2</ele>
        <time>2022-08-29T06:24:55Z</time>
      </trkpt>
      <trkpt lat="42.4162000" lon="-2.7351960">
        <ele>494.2</ele>
        <time>2022-08-29T06:24:56Z</time>
      </trkpt>
      <trkpt lat="42.4161750" lon="-2.7351900">
        <ele>494.2</ele>
        <time>2022-08-29T06:24:57Z</time>
      </trkpt>
      <trkpt lat="42.4161550" lon="-2.7351950">
        <ele>494.2</ele>
        <time>2022-08-29T06:24:58Z</time>
      </trkpt>
      <trkpt lat="42.4161400" lon="-2.7351940">
        <ele>494.2</ele>
        <time>2022-08-29T06:24:59Z</time>
      </trkpt>
      <trkpt lat="42.4161220" lon="-2.7351810">
        <ele>494.4</ele>
        <time>2022-08-29T06:25:00Z</time>
      </trkpt>
      <trkpt lat="42.4161020" lon="-2.7352030">
        <ele>494.4</ele>
        <time>2022-08-29T06:25:01Z</time>
      </trkpt>
      <trkpt lat="42.4160810" lon="-2.7352140">
        <ele>494.4</ele>
        <time>2022-08-29T06:25:02Z</time>
      </trkpt>
      <trkpt lat="42.4160640" lon="-2.7352200">
        <ele>494.4</ele>
        <time>2022-08-29T06:25:03Z</time>
      </trkpt>
      <trkpt lat="42.4160360" lon="-2.7352770">
        <ele>494.6</ele>
        <time>2022-08-29T06:25:04Z</time>
      </trkpt>
      <trkpt lat="42.4160160" lon="-2.7353050">
        <ele>494.6</ele>
        <time>2022-08-29T06:25:05Z</time>
      </trkpt>
      <trkpt lat="42.4159960" lon="-2.7353220">
        <ele>494.6</ele>
        <time>2022-08-29T06:25:06Z</time>
      </trkpt>
      <trkpt lat="42.4159800" lon="-2.7353380">
        <ele>494.6</ele>
        <time>2022-08-29T06:25:07Z</time>
      </trkpt>
      <trkpt lat="42.4159640" lon="-2.7353450">
        <ele>494.8</ele>
        <time>2022-08-29T06:25:08Z</time>
      </trkpt>
      <trkpt lat="42.4159480" lon="-2.7353480">
        <ele>494.8</ele>
        <time>2022-08-29T06:25:09Z</time>
      </trkpt>
      <trkpt lat="42.4159310" lon="-2.7353530">
        <ele>495.0</ele>
        <time>2022-08-29T06:25:10Z</time>
      </trkpt>
      <trkpt lat="42.4159120" lon="-2.7353590">
        <ele>495.0</ele>
        <time>2022-08-29T06:25:11Z</time>
      </trkpt>
      <trkpt lat="42.4158920" lon="-2.7353630">
        <ele>495.0</ele>
        <time>2022-08-29T06:25:12Z</time>
      </trkpt>
      <trkpt lat="42.4158740" lon="-2.7353680">
        <ele>495.2</ele>
        <time>2022-08-29T06:25:13Z</time>
      </trkpt>
      <trkpt lat="42.4158600" lon="-2.7353840">
        <ele>495.2</ele>
        <time>2022-08-29T06:25:14Z</time>
      </trkpt>
      <trkpt lat="42.4158490" lon="-2.7354060">
        <ele>495.0</ele>
        <time>2022-08-29T06:25:15Z</time>
      </trkpt>
      <trkpt lat="42.4158360" lon="-2.7354260">
        <ele>495.2</ele>
        <time>2022-08-29T06:25:16Z</time>
      </trkpt>
      <trkpt lat="42.4158240" lon="-2.7354450">
        <ele>495.4</ele>
        <time>2022-08-29T06:25:17Z</time>
      </trkpt>
      <trkpt lat="42.4158130" lon="-2.7354590">
        <ele>495.6</ele>
        <time>2022-08-29T06:25:18Z</time>
      </trkpt>
      <trkpt lat="42.4158050" lon="-2.7354740">
        <ele>495.6</ele>
        <time>2022-08-29T06:25:19Z</time>
      </trkpt>
      <trkpt lat="42.4157980" lon="-2.7354850">
        <ele>495.6</ele>
        <time>2022-08-29T06:25:20Z</time>
      </trkpt>
      <trkpt lat="42.4157960" lon="-2.7354980">
        <ele>495.8</ele>
        <time>2022-08-29T06:25:21Z</time>
      </trkpt>
      <trkpt lat="42.4157980" lon="-2.7355220">
        <ele>495.8</ele>
        <time>2022-08-29T06:25:22Z</time>
      </trkpt>
      <trkpt lat="42.4157980" lon="-2.7355430">
        <ele>495.8</ele>
        <time>2022-08-29T06:25:23Z</time>
      </trkpt>
      <trkpt lat="42.4157980" lon="-2.7355610">
        <ele>496.2</ele>
        <time>2022-08-29T06:25:24Z</time>
      </trkpt>
      <trkpt lat="42.4157970" lon="-2.7355810">
        <ele>496.2</ele>
        <time>2022-08-29T06:25:25Z</time>
      </trkpt>
      <trkpt lat="42.4157950" lon="-2.7356070">
        <ele>496.4</ele>
        <time>2022-08-29T06:25:26Z</time>
      </trkpt>
      <trkpt lat="42.4157960" lon="-2.7356330">
        <ele>496.4</ele>
        <time>2022-08-29T06:25:27Z</time>
      </trkpt>
      <trkpt lat="42.4157990" lon="-2.7356540">
        <ele>496.6</ele>
        <time>2022-08-29T06:25:28Z</time>
      </trkpt>
      <trkpt lat="42.4158050" lon="-2.7356740">
        <ele>496.6</ele>
        <time>2022-08-29T06:25:29Z</time>
      </trkpt>
      <trkpt lat="42.4158150" lon="-2.7356940">
        <ele>496.6</ele>
        <time>2022-08-29T06:25:30Z</time>
      </trkpt>
      <trkpt lat="42.4158220" lon="-2.7357120">
        <ele>496.8</ele>
        <time>2022-08-29T06:25:31Z</time>
      </trkpt>
      <trkpt lat="42.4158280" lon="-2.7357280">
        <ele>496.6</ele>
        <time>2022-08-29T06:25:32Z</time>
      </trkpt>
      <trkpt lat="42.4158320" lon="-2.7357390">
        <ele>496.8</ele>
        <time>2022-08-29T06:25:33Z</time>
      </trkpt>
      <trkpt lat="42.4158340" lon="-2.7357490">
        <ele>496.8</ele>
        <time>2022-08-29T06:25:34Z</time>
      </trkpt>
      <trkpt lat="42.4158350" lon="-2.7357570">
        <ele>496.8</ele>
        <time>2022-08-29T06:25:35Z</time>
      </trkpt>
      <trkpt lat="42.4158370" lon="-2.7357610">
        <ele>497.2</ele>
        <time>2022-08-29T06:25:36Z</time>
      </trkpt>
      <trkpt lat="42.4158370" lon="-2.7357620">
        <ele>497.2</ele>
        <time>2022-08-29T06:25:37Z</time>
      </trkpt>
      <trkpt lat="42.4158380" lon="-2.7357610">
        <ele>497.0</ele>
        <time>2022-08-29T06:25:38Z</time>
      </trkpt>
      <trkpt lat="42.4158390" lon="-2.7357600">
        <ele>497.4</ele>
        <time>2022-08-29T06:25:39Z</time>
      </trkpt>
      <trkpt lat="42.4158390" lon="-2.7357600">
        <ele>497.6</ele>
        <time>2022-08-29T06:25:40Z</time>
      </trkpt>
      <trkpt lat="42.4158390" lon="-2.7357600">
        <ele>497.8</ele>
        <time>2022-08-29T06:25:41Z</time>
      </trkpt>
      <trkpt lat="42.4158340" lon="-2.7357640">
        <ele>498.0</ele>
        <time>2022-08-29T06:25:42Z</time>
      </trkpt>
      <trkpt lat="42.4158240" lon="-2.7357660">
        <ele>497.8</ele>
        <time>2022-08-29T06:25:43Z</time>
      </trkpt>
      <trkpt lat="42.4158090" lon="-2.7357770">
        <ele>497.8</ele>
        <time>2022-08-29T06:25:44Z</time>
      </trkpt>
      <trkpt lat="42.4157960" lon="-2.7357950">
        <ele>498.0</ele>
        <time>2022-08-29T06:25:45Z</time>
      </trkpt>
      <trkpt lat="42.4157880" lon="-2.7358160">
        <ele>498.0</ele>
        <time>2022-08-29T06:25:46Z</time>
      </trkpt>
      <trkpt lat="42.4157850" lon="-2.7358430">
        <ele>498.0</ele>
        <time>2022-08-29T06:25:47Z</time>
      </trkpt>
      <trkpt lat="42.4157870" lon="-2.7358660">
        <ele>498.2</ele>
        <time>2022-08-29T06:25:48Z</time>
      </trkpt>
      <trkpt lat="42.4157900" lon="-2.7358850">
        <ele>498.2</ele>
        <time>2022-08-29T06:25:49Z</time>
      </trkpt>
      <trkpt lat="42.4157910" lon="-2.7359040">
        <ele>498.0</ele>
        <time>2022-08-29T06:25:50Z</time>
      </trkpt>
      <trkpt lat="42.4157940" lon="-2.7359160">
        <ele>498.2</ele>
        <time>2022-08-29T06:25:51Z</time>
      </trkpt>
      <trkpt lat="42.4157970" lon="-2.7359260">
        <ele>498.0</ele>
        <time>2022-08-29T06:25:52Z</time>
      </trkpt>
      <trkpt lat="42.4158020" lon="-2.7359390">
        <ele>498.2</ele>
        <time>2022-08-29T06:25:53Z</time>
      </trkpt>
      <trkpt lat="42.4158050" lon="-2.7359600">
        <ele>498.0</ele>
        <time>2022-08-29T06:25:54Z</time>
      </trkpt>
      <trkpt lat="42.4158080" lon="-2.7359790">
        <ele>498.2</ele>
        <time>2022-08-29T06:25:55Z</time>
      </trkpt>
      <trkpt lat="42.4158110" lon="-2.7360020">
        <ele>498.2</ele>
        <time>2022-08-29T06:25:56Z</time>
      </trkpt>
      <trkpt lat="42.4158100" lon="-2.7360360">
        <ele>498.4</ele>
        <time>2022-08-29T06:25:57Z</time>
      </trkpt>
      <trkpt lat="42.4158100" lon="-2.7360620">
        <ele>498.4</ele>
        <time>2022-08-29T06:25:58Z</time>
      </trkpt>
      <trkpt lat="42.4158100" lon="-2.7360920">
        <ele>498.4</ele>
        <time>2022-08-29T06:25:59Z</time>
      </trkpt>
      <trkpt lat="42.4158090" lon="-2.7361220">
        <ele>498.6</ele>
        <time>2022-08-29T06:26:00Z</time>
      </trkpt>
      <trkpt lat="42.4158110" lon="-2.7361530">
        <ele>498.8</ele>
        <time>2022-08-29T06:26:01Z</time>
      </trkpt>
      <trkpt lat="42.4158110" lon="-2.7361780">
        <ele>498.8</ele>
        <time>2022-08-29T06:26:02Z</time>
      </trkpt>
      <trkpt lat="42.4158140" lon="-2.7362060">
        <ele>499.0</ele>
        <time>2022-08-29T06:26:03Z</time>
      </trkpt>
      <trkpt lat="42.4158210" lon="-2.7362330">
        <ele>499.2</ele>
        <time>2022-08-29T06:26:04Z</time>
      </trkpt>
      <trkpt lat="42.4158340" lon="-2.7362580">
        <ele>499.4</ele>
        <time>2022-08-29T06:26:05Z</time>
      </trkpt>
      <trkpt lat="42.4158440" lon="-2.7362890">
        <ele>499.4</ele>
        <time>2022-08-29T06:26:06Z</time>
      </trkpt>
      <trkpt lat="42.4158550" lon="-2.7363210">
        <ele>499.6</ele>
        <time>2022-08-29T06:26:07Z</time>
      </trkpt>
      <trkpt lat="42.4158650" lon="-2.7363540">
        <ele>499.6</ele>
        <time>2022-08-29T06:26:08Z</time>
      </trkpt>
      <trkpt lat="42.4158740" lon="-2.7363820">
        <ele>499.6</ele>
        <time>2022-08-29T06:26:09Z</time>
      </trkpt>
      <trkpt lat="42.4158890" lon="-2.7364220">
        <ele>499.8</ele>
        <time>2022-08-29T06:26:10Z</time>
      </trkpt>
      <trkpt lat="42.4158880" lon="-2.7364540">
        <ele>500.2</ele>
        <time>2022-08-29T06:26:11Z</time>
      </trkpt>
      <trkpt lat="42.4158870" lon="-2.7364860">
        <ele>500.2</ele>
        <time>2022-08-29T06:26:12Z</time>
      </trkpt>
      <trkpt lat="42.4158860" lon="-2.7365180">
        <ele>500.4</ele>
        <time>2022-08-29T06:26:13Z</time>
      </trkpt>
      <trkpt lat="42.4158810" lon="-2.7365860">
        <ele>500.6</ele>
        <time>2022-08-29T06:26:14Z</time>
      </trkpt>
      <trkpt lat="42.4158790" lon="-2.7366440">
        <ele>500.6</ele>
        <time>2022-08-29T06:26:15Z</time>
      </trkpt>
      <trkpt lat="42.4158870" lon="-2.7366810">
        <ele>500.6</ele>
        <time>2022-08-29T06:26:16Z</time>
      </trkpt>
      <trkpt lat="42.4158960" lon="-2.7367160">
        <ele>501.0</ele>
        <time>2022-08-29T06:26:17Z</time>
      </trkpt>
      <trkpt lat="42.4159030" lon="-2.7367490">
        <ele>501.2</ele>
        <time>2022-08-29T06:26:18Z</time>
      </trkpt>
      <trkpt lat="42.4159100" lon="-2.7367800">
        <ele>501.2</ele>
        <time>2022-08-29T06:26:19Z</time>
      </trkpt>
      <trkpt lat="42.4159160" lon="-2.7368060">
        <ele>501.2</ele>
        <time>2022-08-29T06:26:20Z</time>
      </trkpt>
      <trkpt lat="42.4159240" lon="-2.7368320">
        <ele>501.6</ele>
        <time>2022-08-29T06:26:21Z</time>
      </trkpt>
      <trkpt lat="42.4159320" lon="-2.7368630">
        <ele>501.6</ele>
        <time>2022-08-29T06:26:22Z</time>
      </trkpt>
      <trkpt lat="42.4159420" lon="-2.7368920">
        <ele>501.8</ele>
        <time>2022-08-29T06:26:23Z</time>
      </trkpt>
      <trkpt lat="42.4159530" lon="-2.7369210">
        <ele>501.8</ele>
        <time>2022-08-29T06:26:24Z</time>
      </trkpt>
      <trkpt lat="42.4159620" lon="-2.7369510">
        <ele>502.2</ele>
        <time>2022-08-29T06:26:25Z</time>
      </trkpt>
      <trkpt lat="42.4159670" lon="-2.7369860">
        <ele>502.2</ele>
        <time>2022-08-29T06:26:26Z</time>
      </trkpt>
      <trkpt lat="42.4159730" lon="-2.7370310">
        <ele>502.4</ele>
        <time>2022-08-29T06:26:27Z</time>
      </trkpt>
      <trkpt lat="42.4159810" lon="-2.7370600">
        <ele>502.6</ele>
        <time>2022-08-29T06:26:28Z</time>
      </trkpt>
      <trkpt lat="42.4159820" lon="-2.7370950">
        <ele>502.6</ele>
        <time>2022-08-29T06:26:29Z</time>
      </trkpt>
      <trkpt lat="42.4159860" lon="-2.7371280">
        <ele>502.8</ele>
        <time>2022-08-29T06:26:30Z</time>
      </trkpt>
      <trkpt lat="42.4159910" lon="-2.7371610">
        <ele>503.0</ele>
        <time>2022-08-29T06:26:31Z</time>
      </trkpt>
      <trkpt lat="42.4159980" lon="-2.7371920">
        <ele>503.2</ele>
        <time>2022-08-29T06:26:32Z</time>
      </trkpt>
      <trkpt lat="42.4160040" lon="-2.7372260">
        <ele>503.2</ele>
        <time>2022-08-29T06:26:33Z</time>
      </trkpt>
      <trkpt lat="42.4160100" lon="-2.7372580">
        <ele>503.2</ele>
        <time>2022-08-29T06:26:34Z</time>
      </trkpt>
      <trkpt lat="42.4160140" lon="-2.7372950">
        <ele>503.4</ele>
        <time>2022-08-29T06:26:35Z</time>
      </trkpt>
      <trkpt lat="42.4160180" lon="-2.7373270">
        <ele>503.6</ele>
        <time>2022-08-29T06:26:36Z</time>
      </trkpt>
      <trkpt lat="42.4160170" lon="-2.7373590">
        <ele>503.6</ele>
        <time>2022-08-29T06:26:37Z</time>
      </trkpt>
      <trkpt lat="42.4160140" lon="-2.7373920">
        <ele>503.8</ele>
        <time>2022-08-29T06:26:38Z</time>
      </trkpt>
      <trkpt lat="42.4160090" lon="-2.7374240">
        <ele>504.0</ele>
        <time>2022-08-29T06:26:39Z</time>
      </trkpt>
      <trkpt lat="42.4160030" lon="-2.7374640">
        <ele>504.2</ele>
        <time>2022-08-29T06:26:40Z</time>
      </trkpt>
      <trkpt lat="42.4159950" lon="-2.7375100">
        <ele>504.4</ele>
        <time>2022-08-29T06:26:41Z</time>
      </trkpt>
      <trkpt lat="42.4159880" lon="-2.7375540">
        <ele>504.4</ele>
        <time>2022-08-29T06:26:42Z</time>
      </trkpt>
      <trkpt lat="42.4159800" lon="-2.7375850">
        <ele>504.6</ele>
        <time>2022-08-29T06:26:43Z</time>
      </trkpt>
      <trkpt lat="42.4159600" lon="-2.7376370">
        <ele>504.8</ele>
        <time>2022-08-29T06:26:44Z</time>
      </trkpt>
      <trkpt lat="42.4159450" lon="-2.7376670">
        <ele>505.0</ele>
        <time>2022-08-29T06:26:45Z</time>
      </trkpt>
      <trkpt lat="42.4159320" lon="-2.7376970">
        <ele>505.2</ele>
        <time>2022-08-29T06:26:46Z</time>
      </trkpt>
      <trkpt lat="42.4159190" lon="-2.7377240">
        <ele>505.2</ele>
        <time>2022-08-29T06:26:47Z</time>
      </trkpt>
      <trkpt lat="42.4159040" lon="-2.7377610">
        <ele>505.4</ele>
        <time>2022-08-29T06:26:48Z</time>
      </trkpt>
      <trkpt lat="42.4158880" lon="-2.7378020">
        <ele>505.6</ele>
        <time>2022-08-29T06:26:49Z</time>
      </trkpt>
      <trkpt lat="42.4158760" lon="-2.7378360">
        <ele>505.6</ele>
        <time>2022-08-29T06:26:50Z</time>
      </trkpt>
      <trkpt lat="42.4158650" lon="-2.7378670">
        <ele>505.8</ele>
        <time>2022-08-29T06:26:51Z</time>
      </trkpt>
      <trkpt lat="42.4158540" lon="-2.7378980">
        <ele>505.8</ele>
        <time>2022-08-29T06:26:52Z</time>
      </trkpt>
      <trkpt lat="42.4158450" lon="-2.7379270">
        <ele>506.0</ele>
        <time>2022-08-29T06:26:53Z</time>
      </trkpt>
      <trkpt lat="42.4158250" lon="-2.7379530">
        <ele>506.2</ele>
        <time>2022-08-29T06:26:54Z</time>
      </trkpt>
      <trkpt lat="42.4158080" lon="-2.7379810">
        <ele>506.4</ele>
        <time>2022-08-29T06:26:55Z</time>
      </trkpt>
      <trkpt lat="42.4157900" lon="-2.7380120">
        <ele>506.6</ele>
        <time>2022-08-29T06:26:56Z</time>
      </trkpt>
      <trkpt lat="42.4157790" lon="-2.7380460">
        <ele>506.6</ele>
        <time>2022-08-29T06:26:57Z</time>
      </trkpt>
      <trkpt lat="42.4157610" lon="-2.7380780">
        <ele>506.8</ele>
        <time>2022-08-29T06:26:58Z</time>
      </trkpt>
      <trkpt lat="42.4157420" lon="-2.7381090">
        <ele>507.0</ele>
        <time>2022-08-29T06:26:59Z</time>
      </trkpt>
      <trkpt lat="42.4157230" lon="-2.7381370">
        <ele>507.2</ele>
        <time>2022-08-29T06:27:00Z</time>
      </trkpt>
      <trkpt lat="42.4157100" lon="-2.7381760">
        <ele>507.4</ele>
        <time>2022-08-29T06:27:01Z</time>
      </trkpt>
      <trkpt lat="42.4156960" lon="-2.7382130">
        <ele>507.4</ele>
        <time>2022-08-29T06:27:02Z</time>
      </trkpt>
      <trkpt lat="42.4156860" lon="-2.7382450">
        <ele>507.6</ele>
        <time>2022-08-29T06:27:03Z</time>
      </trkpt>
      <trkpt lat="42.4156750" lon="-2.7382720">
        <ele>508.0</ele>
        <time>2022-08-29T06:27:04Z</time>
      </trkpt>
      <trkpt lat="42.4156620" lon="-2.7383000">
        <ele>508.2</ele>
        <time>2022-08-29T06:27:05Z</time>
      </trkpt>
      <trkpt lat="42.4156540" lon="-2.7383290">
        <ele>508.2</ele>
        <time>2022-08-29T06:27:06Z</time>
      </trkpt>
      <trkpt lat="42.4156460" lon="-2.7383580">
        <ele>508.6</ele>
        <time>2022-08-29T06:27:07Z</time>
      </trkpt>
      <trkpt lat="42.4156370" lon="-2.7383890">
        <ele>509.0</ele>
        <time>2022-08-29T06:27:08Z</time>
      </trkpt>
      <trkpt lat="42.4156270" lon="-2.7384220">
        <ele>508.8</ele>
        <time>2022-08-29T06:27:09Z</time>
      </trkpt>
      <trkpt lat="42.4156180" lon="-2.7384520">
        <ele>509.0</ele>
        <time>2022-08-29T06:27:10Z</time>
      </trkpt>
      <trkpt lat="42.4156090" lon="-2.7384860">
        <ele>509.2</ele>
        <time>2022-08-29T06:27:11Z</time>
      </trkpt>
      <trkpt lat="42.4156010" lon="-2.7385180">
        <ele>509.4</ele>
        <time>2022-08-29T06:27:12Z</time>
      </trkpt>
      <trkpt lat="42.4155930" lon="-2.7385500">
        <ele>509.8</ele>
        <time>2022-08-29T06:27:13Z</time>
      </trkpt>
      <trkpt lat="42.4155890" lon="-2.7385840">
        <ele>509.8</ele>
        <time>2022-08-29T06:27:14Z</time>
      </trkpt>
      <trkpt lat="42.4155860" lon="-2.7386160">
        <ele>510.2</ele>
        <time>2022-08-29T06:27:15Z</time>
      </trkpt>
      <trkpt lat="42.4155800" lon="-2.7386400">
        <ele>510.2</ele>
        <time>2022-08-29T06:27:16Z</time>
      </trkpt>
      <trkpt lat="42.4155720" lon="-2.7386630">
        <ele>510.6</ele>
        <time>2022-08-29T06:27:17Z</time>
      </trkpt>
      <trkpt lat="42.4155660" lon="-2.7386840">
        <ele>510.8</ele>
        <time>2022-08-29T06:27:18Z</time>
      </trkpt>
      <trkpt lat="42.4155620" lon="-2.7387070">
        <ele>510.8</ele>
        <time>2022-08-29T06:27:19Z</time>
      </trkpt>
      <trkpt lat="42.4155600" lon="-2.7387390">
        <ele>510.8</ele>
        <time>2022-08-29T06:27:20Z</time>
      </trkpt>
      <trkpt lat="42.4155540" lon="-2.7387650">
        <ele>511.2</ele>
        <time>2022-08-29T06:27:21Z</time>
      </trkpt>
      <trkpt lat="42.4155500" lon="-2.7387910">
        <ele>511.2</ele>
        <time>2022-08-29T06:27:22Z</time>
      </trkpt>
      <trkpt lat="42.4155440" lon="-2.7388140">
        <ele>511.4</ele>
        <time>2022-08-29T06:27:23Z</time>
      </trkpt>
      <trkpt lat="42.4155350" lon="-2.7388300">
        <ele>511.4</ele>
        <time>2022-08-29T06:27:24Z</time>
      </trkpt>
      <trkpt lat="42.4155380" lon="-2.7388590">
        <ele>511.6</ele>
        <time>2022-08-29T06:27:25Z</time>
      </trkpt>
      <trkpt lat="42.4155410" lon="-2.7388940">
        <ele>511.8</ele>
        <time>2022-08-29T06:27:26Z</time>
      </trkpt>
      <trkpt lat="42.4155410" lon="-2.7389320">
        <ele>512.0</ele>
        <time>2022-08-29T06:27:27Z</time>
      </trkpt>
      <trkpt lat="42.4155360" lon="-2.7389670">
        <ele>512.4</ele>
        <time>2022-08-29T06:27:28Z</time>
      </trkpt>
      <trkpt lat="42.4155300" lon="-2.7390100">
        <ele>512.4</ele>
        <time>2022-08-29T06:27:29Z</time>
      </trkpt>
      <trkpt lat="42.4155260" lon="-2.7390540">
        <ele>512.4</ele>
        <time>2022-08-29T06:27:30Z</time>
      </trkpt>
      <trkpt lat="42.4155200" lon="-2.7390930">
        <ele>512.6</ele>
        <time>2022-08-29T06:27:31Z</time>
      </trkpt>
      <trkpt lat="42.4155150" lon="-2.7391270">
        <ele>512.8</ele>
        <time>2022-08-29T06:27:32Z</time>
      </trkpt>
      <trkpt lat="42.4155090" lon="-2.7391630">
        <ele>513.0</ele>
        <time>2022-08-29T06:27:33Z</time>
      </trkpt>
      <trkpt lat="42.4154990" lon="-2.7391980">
        <ele>513.0</ele>
        <time>2022-08-29T06:27:34Z</time>
      </trkpt>
      <trkpt lat="42.4154930" lon="-2.7392300">
        <ele>513.0</ele>
        <time>2022-08-29T06:27:35Z</time>
      </trkpt>
      <trkpt lat="42.4154890" lon="-2.7392640">
        <ele>513.2</ele>
        <time>2022-08-29T06:27:36Z</time>
      </trkpt>
      <trkpt lat="42.4154860" lon="-2.7393000">
        <ele>513.4</ele>
        <time>2022-08-29T06:27:37Z</time>
      </trkpt>
      <trkpt lat="42.4154810" lon="-2.7393380">
        <ele>513.6</ele>
        <time>2022-08-29T06:27:38Z</time>
      </trkpt>
      <trkpt lat="42.4154740" lon="-2.7393760">
        <ele>513.8</ele>
        <time>2022-08-29T06:27:39Z</time>
      </trkpt>
      <trkpt lat="42.4154660" lon="-2.7394130">
        <ele>513.8</ele>
        <time>2022-08-29T06:27:40Z</time>
      </trkpt>
      <trkpt lat="42.4154580" lon="-2.7394450">
        <ele>514.0</ele>
        <time>2022-08-29T06:27:41Z</time>
      </trkpt>
      <trkpt lat="42.4154470" lon="-2.7394780">
        <ele>514.0</ele>
        <time>2022-08-29T06:27:42Z</time>
      </trkpt>
      <trkpt lat="42.4154340" lon="-2.7395140">
        <ele>514.0</ele>
        <time>2022-08-29T06:27:43Z</time>
      </trkpt>
      <trkpt lat="42.4154180" lon="-2.7395500">
        <ele>514.2</ele>
        <time>2022-08-29T06:27:44Z</time>
      </trkpt>
      <trkpt lat="42.4154010" lon="-2.7395790">
        <ele>514.2</ele>
        <time>2022-08-29T06:27:45Z</time>
      </trkpt>
      <trkpt lat="42.4153840" lon="-2.7396160">
        <ele>514.4</ele>
        <time>2022-08-29T06:27:46Z</time>
      </trkpt>
      <trkpt lat="42.4153680" lon="-2.7396410">
        <ele>514.6</ele>
        <time>2022-08-29T06:27:47Z</time>
      </trkpt>
      <trkpt lat="42.4153520" lon="-2.7396690">
        <ele>514.6</ele>
        <time>2022-08-29T06:27:48Z</time>
      </trkpt>
      <trkpt lat="42.4153320" lon="-2.7397080">
        <ele>514.8</ele>
        <time>2022-08-29T06:27:49Z</time>
      </trkpt>
      <trkpt lat="42.4153160" lon="-2.7397420">
        <ele>515.2</ele>
        <time>2022-08-29T06:27:50Z</time>
      </trkpt>
      <trkpt lat="42.4153010" lon="-2.7397730">
        <ele>515.4</ele>
        <time>2022-08-29T06:27:51Z</time>
      </trkpt>
      <trkpt lat="42.4152850" lon="-2.7398040">
        <ele>515.4</ele>
        <time>2022-08-29T06:27:52Z</time>
      </trkpt>
      <trkpt lat="42.4152690" lon="-2.7398310">
        <ele>515.4</ele>
        <time>2022-08-29T06:27:53Z</time>
      </trkpt>
      <trkpt lat="42.4152550" lon="-2.7398580">
        <ele>515.6</ele>
        <time>2022-08-29T06:27:54Z</time>
      </trkpt>
      <trkpt lat="42.4152440" lon="-2.7398830">
        <ele>515.8</ele>
        <time>2022-08-29T06:27:55Z</time>
      </trkpt>
      <trkpt lat="42.4152330" lon="-2.7399060">
        <ele>515.8</ele>
        <time>2022-08-29T06:27:56Z</time>
      </trkpt>
      <trkpt lat="42.4152200" lon="-2.7399240">
        <ele>516.0</ele>
        <time>2022-08-29T06:27:57Z</time>
      </trkpt>
      <trkpt lat="42.4152080" lon="-2.7399420">
        <ele>516.2</ele>
        <time>2022-08-29T06:27:58Z</time>
      </trkpt>
      <trkpt lat="42.4151960" lon="-2.7399620">
        <ele>516.2</ele>
        <time>2022-08-29T06:27:59Z</time>
      </trkpt>
      <trkpt lat="42.4151850" lon="-2.7399840">
        <ele>516.6</ele>
        <time>2022-08-29T06:28:00Z</time>
      </trkpt>
      <trkpt lat="42.4151730" lon="-2.7400050">
        <ele>516.6</ele>
        <time>2022-08-29T06:28:01Z</time>
      </trkpt>
      <trkpt lat="42.4151600" lon="-2.7400240">
        <ele>516.8</ele>
        <time>2022-08-29T06:28:02Z</time>
      </trkpt>
      <trkpt lat="42.4151480" lon="-2.7400400">
        <ele>517.2</ele>
        <time>2022-08-29T06:28:03Z</time>
      </trkpt>
      <trkpt lat="42.4151360" lon="-2.7400580">
        <ele>517.4</ele>
        <time>2022-08-29T06:28:04Z</time>
      </trkpt>
      <trkpt lat="42.4151250" lon="-2.7400780">
        <ele>517.6</ele>
        <time>2022-08-29T06:28:05Z</time>
      </trkpt>
      <trkpt lat="42.4151180" lon="-2.7401000">
        <ele>517.8</ele>
        <time>2022-08-29T06:28:06Z</time>
      </trkpt>
      <trkpt lat="42.4151080" lon="-2.7401250">
        <ele>518.0</ele>
        <time>2022-08-29T06:28:07Z</time>
      </trkpt>
      <trkpt lat="42.4150980" lon="-2.7401450">
        <ele>518.4</ele>
        <time>2022-08-29T06:28:08Z</time>
      </trkpt>
      <trkpt lat="42.4150870" lon="-2.7401640">
        <ele>518.4</ele>
        <time>2022-08-29T06:28:09Z</time>
      </trkpt>
      <trkpt lat="42.4150770" lon="-2.7401840">
        <ele>518.6</ele>
        <time>2022-08-29T06:28:10Z</time>
      </trkpt>
      <trkpt lat="42.4150680" lon="-2.7402050">
        <ele>519.0</ele>
        <time>2022-08-29T06:28:11Z</time>
      </trkpt>
      <trkpt lat="42.4150580" lon="-2.7402250">
        <ele>519.2</ele>
        <time>2022-08-29T06:28:12Z</time>
      </trkpt>
      <trkpt lat="42.4150470" lon="-2.7402440">
        <ele>519.4</ele>
        <time>2022-08-29T06:28:13Z</time>
      </trkpt>
      <trkpt lat="42.4150380" lon="-2.7402630">
        <ele>519.6</ele>
        <time>2022-08-29T06:28:14Z</time>
      </trkpt>
      <trkpt lat="42.4150270" lon="-2.7402820">
        <ele>519.6</ele>
        <time>2022-08-29T06:28:15Z</time>
      </trkpt>
      <trkpt lat="42.4150170" lon="-2.7403000">
        <ele>519.8</ele>
        <time>2022-08-29T06:28:16Z</time>
      </trkpt>
      <trkpt lat="42.4150080" lon="-2.7403150">
        <ele>520.0</ele>
        <time>2022-08-29T06:28:17Z</time>
      </trkpt>
      <trkpt lat="42.4149990" lon="-2.7403280">
        <ele>520.2</ele>
        <time>2022-08-29T06:28:18Z</time>
      </trkpt>
      <trkpt lat="42.4149890" lon="-2.7403400">
        <ele>520.4</ele>
        <time>2022-08-29T06:28:19Z</time>
      </trkpt>
      <trkpt lat="42.4149790" lon="-2.7403560">
        <ele>520.8</ele>
        <time>2022-08-29T06:28:20Z</time>
      </trkpt>
      <trkpt lat="42.4149680" lon="-2.7403730">
        <ele>520.8</ele>
        <time>2022-08-29T06:28:21Z</time>
      </trkpt>
      <trkpt lat="42.4149560" lon="-2.7403900">
        <ele>521.4</ele>
        <time>2022-08-29T06:28:22Z</time>
      </trkpt>
      <trkpt lat="42.4149460" lon="-2.7404080">
        <ele>521.6</ele>
        <time>2022-08-29T06:28:23Z</time>
      </trkpt>
      <trkpt lat="42.4149350" lon="-2.7404260">
        <ele>521.8</ele>
        <time>2022-08-29T06:28:24Z</time>
      </trkpt>
      <trkpt lat="42.4149220" lon="-2.7404440">
        <ele>522.2</ele>
        <time>2022-08-29T06:28:25Z</time>
      </trkpt>
      <trkpt lat="42.4149080" lon="-2.7404570">
        <ele>522.2</ele>
        <time>2022-08-29T06:28:26Z</time>
      </trkpt>
      <trkpt lat="42.4148930" lon="-2.7404640">
        <ele>522.6</ele>
        <time>2022-08-29T06:28:27Z</time>
      </trkpt>
      <trkpt lat="42.4148770" lon="-2.7404690">
        <ele>522.6</ele>
        <time>2022-08-29T06:28:28Z</time>
      </trkpt>
      <trkpt lat="42.4148620" lon="-2.7404740">
        <ele>523.0</ele>
        <time>2022-08-29T06:28:29Z</time>
      </trkpt>
      <trkpt lat="42.4148460" lon="-2.7404840">
        <ele>523.2</ele>
        <time>2022-08-29T06:28:30Z</time>
      </trkpt>
      <trkpt lat="42.4148350" lon="-2.7405000">
        <ele>523.4</ele>
        <time>2022-08-29T06:28:31Z</time>
      </trkpt>
      <trkpt lat="42.4148260" lon="-2.7405170">
        <ele>523.8</ele>
        <time>2022-08-29T06:28:32Z</time>
      </trkpt>
      <trkpt lat="42.4148160" lon="-2.7405370">
        <ele>523.8</ele>
        <time>2022-08-29T06:28:33Z</time>
      </trkpt>
      <trkpt lat="42.4148040" lon="-2.7405550">
        <ele>524.0</ele>
        <time>2022-08-29T06:28:34Z</time>
      </trkpt>
      <trkpt lat="42.4147930" lon="-2.7405740">
        <ele>524.0</ele>
        <time>2022-08-29T06:28:35Z</time>
      </trkpt>
      <trkpt lat="42.4147840" lon="-2.7405980">
        <ele>524.2</ele>
        <time>2022-08-29T06:28:36Z</time>
      </trkpt>
      <trkpt lat="42.4147750" lon="-2.7406240">
        <ele>524.2</ele>
        <time>2022-08-29T06:28:37Z</time>
      </trkpt>
      <trkpt lat="42.4147630" lon="-2.7406490">
        <ele>524.6</ele>
        <time>2022-08-29T06:28:38Z</time>
      </trkpt>
      <trkpt lat="42.4147510" lon="-2.7406710">
        <ele>524.8</ele>
        <time>2022-08-29T06:28:39Z</time>
      </trkpt>
      <trkpt lat="42.4147400" lon="-2.7406920">
        <ele>525.0</ele>
        <time>2022-08-29T06:28:40Z</time>
      </trkpt>
      <trkpt lat="42.4147280" lon="-2.7407130">
        <ele>525.0</ele>
        <time>2022-08-29T06:28:41Z</time>
      </trkpt>
      <trkpt lat="42.4147150" lon="-2.7407350">
        <ele>525.2</ele>
        <time>2022-08-29T06:28:42Z</time>
      </trkpt>
      <trkpt lat="42.4147030" lon="-2.7407560">
        <ele>525.6</ele>
        <time>2022-08-29T06:28:43Z</time>
      </trkpt>
      <trkpt lat="42.4146940" lon="-2.7407750">
        <ele>525.8</ele>
        <time>2022-08-29T06:28:44Z</time>
      </trkpt>
      <trkpt lat="42.4146850" lon="-2.7407940">
        <ele>525.8</ele>
        <time>2022-08-29T06:28:45Z</time>
      </trkpt>
      <trkpt lat="42.4146750" lon="-2.7408110">
        <ele>525.8</ele>
        <time>2022-08-29T06:28:46Z</time>
      </trkpt>
      <trkpt lat="42.4146650" lon="-2.7408290">
        <ele>526.0</ele>
        <time>2022-08-29T06:28:47Z</time>
      </trkpt>
      <trkpt lat="42.4146540" lon="-2.7408470">
        <ele>526.4</ele>
        <time>2022-08-29T06:28:48Z</time>
      </trkpt>
      <trkpt lat="42.4146430" lon="-2.7408670">
        <ele>526.6</ele>
        <time>2022-08-29T06:28:49Z</time>
      </trkpt>
      <trkpt lat="42.4146340" lon="-2.7408880">
        <ele>526.6</ele>
        <time>2022-08-29T06:28:50Z</time>
      </trkpt>
      <trkpt lat="42.4146230" lon="-2.7409090">
        <ele>527.0</ele>
        <time>2022-08-29T06:28:51Z</time>
      </trkpt>
      <trkpt lat="42.4146130" lon="-2.7409290">
        <ele>527.0</ele>
        <time>2022-08-29T06:28:52Z</time>
      </trkpt>
      <trkpt lat="42.4146040" lon="-2.7409480">
        <ele>527.2</ele>
        <time>2022-08-29T06:28:53Z</time>
      </trkpt>
      <trkpt lat="42.4145950" lon="-2.7409680">
        <ele>527.4</ele>
        <time>2022-08-29T06:28:54Z</time>
      </trkpt>
      <trkpt lat="42.4145850" lon="-2.7409860">
        <ele>527.6</ele>
        <time>2022-08-29T06:28:55Z</time>
      </trkpt>
      <trkpt lat="42.4145760" lon="-2.7410040">
        <ele>527.6</ele>
        <time>2022-08-29T06:28:56Z</time>
      </trkpt>
      <trkpt lat="42.4145680" lon="-2.7410230">
        <ele>528.0</ele>
        <time>2022-08-29T06:28:57Z</time>
      </trkpt>
      <trkpt lat="42.4145610" lon="-2.7410410">
        <ele>528.2</ele>
        <time>2022-08-29T06:28:58Z</time>
      </trkpt>
      <trkpt lat="42.4145550" lon="-2.7410600">
        <ele>528.4</ele>
        <time>2022-08-29T06:28:59Z</time>
      </trkpt>
      <trkpt lat="42.4145480" lon="-2.7410800">
        <ele>528.4</ele>
        <time>2022-08-29T06:29:00Z</time>
      </trkpt>
      <trkpt lat="42.4145400" lon="-2.7411010">
        <ele>528.8</ele>
        <time>2022-08-29T06:29:01Z</time>
      </trkpt>
      <trkpt lat="42.4145330" lon="-2.7411230">
        <ele>529.0</ele>
        <time>2022-08-29T06:29:02Z</time>
      </trkpt>
      <trkpt lat="42.4145260" lon="-2.7411440">
        <ele>529.2</ele>
        <time>2022-08-29T06:29:03Z</time>
      </trkpt>
      <trkpt lat="42.4145210" lon="-2.7411680">
        <ele>529.6</ele>
        <time>2022-08-29T06:29:04Z</time>
      </trkpt>
      <trkpt lat="42.4145180" lon="-2.7411900">
        <ele>530.0</ele>
        <time>2022-08-29T06:29:05Z</time>
      </trkpt>
      <trkpt lat="42.4145150" lon="-2.7412100">
        <ele>530.2</ele>
        <time>2022-08-29T06:29:06Z</time>
      </trkpt>
      <trkpt lat="42.4145140" lon="-2.7412320">
        <ele>530.4</ele>
        <time>2022-08-29T06:29:07Z</time>
      </trkpt>
      <trkpt lat="42.4145130" lon="-2.7412530">
        <ele>530.6</ele>
        <time>2022-08-29T06:29:08Z</time>
      </trkpt>
      <trkpt lat="42.4145080" lon="-2.7412720">
        <ele>530.6</ele>
        <time>2022-08-29T06:29:09Z</time>
      </trkpt>
      <trkpt lat="42.4145030" lon="-2.7412900">
        <ele>530.8</ele>
        <time>2022-08-29T06:29:10Z</time>
      </trkpt>
      <trkpt lat="42.4144970" lon="-2.7413080">
        <ele>530.8</ele>
        <time>2022-08-29T06:29:11Z</time>
      </trkpt>
      <trkpt lat="42.4144910" lon="-2.7413250">
        <ele>531.0</ele>
        <time>2022-08-29T06:29:12Z</time>
      </trkpt>
      <trkpt lat="42.4144840" lon="-2.7413430">
        <ele>531.2</ele>
        <time>2022-08-29T06:29:13Z</time>
      </trkpt>
      <trkpt lat="42.4144790" lon="-2.7413610">
        <ele>531.2</ele>
        <time>2022-08-29T06:29:14Z</time>
      </trkpt>
      <trkpt lat="42.4144760" lon="-2.7413800">
        <ele>531.6</ele>
        <time>2022-08-29T06:29:15Z</time>
      </trkpt>
      <trkpt lat="42.4144730" lon="-2.7413990">
        <ele>531.8</ele>
        <time>2022-08-29T06:29:16Z</time>
      </trkpt>
      <trkpt lat="42.4144690" lon="-2.7414170">
        <ele>532.0</ele>
        <time>2022-08-29T06:29:17Z</time>
      </trkpt>
      <trkpt lat="42.4144640" lon="-2.7414340">
        <ele>532.4</ele>
        <time>2022-08-29T06:29:18Z</time>
      </trkpt>
      <trkpt lat="42.4144600" lon="-2.7414520">
        <ele>532.4</ele>
        <time>2022-08-29T06:29:19Z</time>
      </trkpt>
      <trkpt lat="42.4144560" lon="-2.7414700">
        <ele>532.4</ele>
        <time>2022-08-29T06:29:20Z</time>
      </trkpt>
      <trkpt lat="42.4144520" lon="-2.7414880">
        <ele>532.6</ele>
        <time>2022-08-29T06:29:21Z</time>
      </trkpt>
      <trkpt lat="42.4144460" lon="-2.7415050">
        <ele>532.6</ele>
        <time>2022-08-29T06:29:22Z</time>
      </trkpt>
      <trkpt lat="42.4144420" lon="-2.7415230">
        <ele>532.8</ele>
        <time>2022-08-29T06:29:23Z</time>
      </trkpt>
      <trkpt lat="42.4144360" lon="-2.7415410">
        <ele>533.4</ele>
        <time>2022-08-29T06:29:24Z</time>
      </trkpt>
      <trkpt lat="42.4144300" lon="-2.7415570">
        <ele>533.4</ele>
        <time>2022-08-29T06:29:25Z</time>
      </trkpt>
      <trkpt lat="42.4144250" lon="-2.7415760">
        <ele>533.8</ele>
        <time>2022-08-29T06:29:26Z</time>
      </trkpt>
      <trkpt lat="42.4144200" lon="-2.7415930">
        <ele>534.0</ele>
        <time>2022-08-29T06:29:27Z</time>
      </trkpt>
      <trkpt lat="42.4144150" lon="-2.7416100">
        <ele>534.2</ele>
        <time>2022-08-29T06:29:28Z</time>
      </trkpt>
      <trkpt lat="42.4144090" lon="-2.7416280">
        <ele>534.2</ele>
        <time>2022-08-29T06:29:29Z</time>
      </trkpt>
      <trkpt lat="42.4144020" lon="-2.7416450">
        <ele>534.2</ele>
        <time>2022-08-29T06:29:30Z</time>
      </trkpt>
      <trkpt lat="42.4143960" lon="-2.7416620">
        <ele>534.6</ele>
        <time>2022-08-29T06:29:31Z</time>
      </trkpt>
      <trkpt lat="42.4143900" lon="-2.7416800">
        <ele>534.6</ele>
        <time>2022-08-29T06:29:32Z</time>
      </trkpt>
      <trkpt lat="42.4143840" lon="-2.7416980">
        <ele>535.0</ele>
        <time>2022-08-29T06:29:33Z</time>
      </trkpt>
      <trkpt lat="42.4143770" lon="-2.7417150">
        <ele>535.2</ele>
        <time>2022-08-29T06:29:34Z</time>
      </trkpt>
      <trkpt lat="42.4143690" lon="-2.7417320">
        <ele>535.2</ele>
        <time>2022-08-29T06:29:35Z</time>
      </trkpt>
      <trkpt lat="42.4143620" lon="-2.7417490">
        <ele>535.6</ele>
        <time>2022-08-29T06:29:36Z</time>
      </trkpt>
      <trkpt lat="42.4143540" lon="-2.7417680">
        <ele>535.8</ele>
        <time>2022-08-29T06:29:37Z</time>
      </trkpt>
      <trkpt lat="42.4143470" lon="-2.7417870">
        <ele>535.8</ele>
        <time>2022-08-29T06:29:38Z</time>
      </trkpt>
      <trkpt lat="42.4143390" lon="-2.7418040">
        <ele>536.2</ele>
        <time>2022-08-29T06:29:39Z</time>
      </trkpt>
      <trkpt lat="42.4143310" lon="-2.7418230">
        <ele>536.6</ele>
        <time>2022-08-29T06:29:40Z</time>
      </trkpt>
      <trkpt lat="42.4143230" lon="-2.7418400">
        <ele>536.6</ele>
        <time>2022-08-29T06:29:41Z</time>
      </trkpt>
      <trkpt lat="42.4143130" lon="-2.7418560">
        <ele>536.8</ele>
        <time>2022-08-29T06:29:42Z</time>
      </trkpt>
      <trkpt lat="42.4143030" lon="-2.7418720">
        <ele>536.8</ele>
        <time>2022-08-29T06:29:43Z</time>
      </trkpt>
      <trkpt lat="42.4142970" lon="-2.7418920">
        <ele>537.0</ele>
        <time>2022-08-29T06:29:44Z</time>
      </trkpt>
      <trkpt lat="42.4142900" lon="-2.7419120">
        <ele>537.0</ele>
        <time>2022-08-29T06:29:45Z</time>
      </trkpt>
      <trkpt lat="42.4142840" lon="-2.7419320">
        <ele>537.2</ele>
        <time>2022-08-29T06:29:46Z</time>
      </trkpt>
      <trkpt lat="42.4142750" lon="-2.7419510">
        <ele>537.4</ele>
        <time>2022-08-29T06:29:47Z</time>
      </trkpt>
      <trkpt lat="42.4142670" lon="-2.7419700">
        <ele>537.6</ele>
        <time>2022-08-29T06:29:48Z</time>
      </trkpt>
      <trkpt lat="42.4142590" lon="-2.7419900">
        <ele>537.8</ele>
        <time>2022-08-29T06:29:49Z</time>
      </trkpt>
      <trkpt lat="42.4142510" lon="-2.7420090">
        <ele>538.0</ele>
        <time>2022-08-29T06:29:50Z</time>
      </trkpt>
      <trkpt lat="42.4142410" lon="-2.7420270">
        <ele>538.0</ele>
        <time>2022-08-29T06:29:51Z</time>
      </trkpt>
      <trkpt lat="42.4142300" lon="-2.7420440">
        <ele>538.2</ele>
        <time>2022-08-29T06:29:52Z</time>
      </trkpt>
      <trkpt lat="42.4142200" lon="-2.7420590">
        <ele>538.4</ele>
        <time>2022-08-29T06:29:53Z</time>
      </trkpt>
      <trkpt lat="42.4142110" lon="-2.7420720">
        <ele>538.6</ele>
        <time>2022-08-29T06:29:54Z</time>
      </trkpt>
      <trkpt lat="42.4142010" lon="-2.7420890">
        <ele>538.8</ele>
        <time>2022-08-29T06:29:55Z</time>
      </trkpt>
      <trkpt lat="42.4141920" lon="-2.7421110">
        <ele>539.0</ele>
        <time>2022-08-29T06:29:56Z</time>
      </trkpt>
      <trkpt lat="42.4141860" lon="-2.7421290">
        <ele>539.0</ele>
        <time>2022-08-29T06:29:57Z</time>
      </trkpt>
      <trkpt lat="42.4141800" lon="-2.7421490">
        <ele>539.2</ele>
        <time>2022-08-29T06:29:58Z</time>
      </trkpt>
      <trkpt lat="42.4141730" lon="-2.7421710">
        <ele>539.4</ele>
        <time>2022-08-29T06:29:59Z</time>
      </trkpt>
      <trkpt lat="42.4141660" lon="-2.7421930">
        <ele>539.4</ele>
        <time>2022-08-29T06:30:00Z</time>
      </trkpt>
      <trkpt lat="42.4141600" lon="-2.7422120">
        <ele>539.6</ele>
        <time>2022-08-29T06:30:01Z</time>
      </trkpt>
      <trkpt lat="42.4141530" lon="-2.7422310">
        <ele>539.6</ele>
        <time>2022-08-29T06:30:02Z</time>
      </trkpt>
      <trkpt lat="42.4141450" lon="-2.7422490">
        <ele>539.8</ele>
        <time>2022-08-29T06:30:03Z</time>
      </trkpt>
      <trkpt lat="42.4141370" lon="-2.7422660">
        <ele>540.0</ele>
        <time>2022-08-29T06:30:04Z</time>
      </trkpt>
      <trkpt lat="42.4141300" lon="-2.7422850">
        <ele>540.2</ele>
        <time>2022-08-29T06:30:05Z</time>
      </trkpt>
      <trkpt lat="42.4141240" lon="-2.7423010">
        <ele>540.4</ele>
        <time>2022-08-29T06:30:06Z</time>
      </trkpt>
      <trkpt lat="42.4141190" lon="-2.7423230">
        <ele>540.4</ele>
        <time>2022-08-29T06:30:07Z</time>
      </trkpt>
      <trkpt lat="42.4141120" lon="-2.7423420">
        <ele>540.4</ele>
        <time>2022-08-29T06:30:08Z</time>
      </trkpt>
      <trkpt lat="42.4141040" lon="-2.7423600">
        <ele>540.6</ele>
        <time>2022-08-29T06:30:09Z</time>
      </trkpt>
      <trkpt lat="42.4140980" lon="-2.7423800">
        <ele>541.0</ele>
        <time>2022-08-29T06:30:10Z</time>
      </trkpt>
      <trkpt lat="42.4140910" lon="-2.7423980">
        <ele>541.0</ele>
        <time>2022-08-29T06:30:11Z</time>
      </trkpt>
      <trkpt lat="42.4140870" lon="-2.7424180">
        <ele>541.4</ele>
        <time>2022-08-29T06:30:12Z</time>
      </trkpt>
      <trkpt lat="42.4140830" lon="-2.7424380">
        <ele>541.4</ele>
        <time>2022-08-29T06:30:13Z</time>
      </trkpt>
      <trkpt lat="42.4140810" lon="-2.7424590">
        <ele>541.6</ele>
        <time>2022-08-29T06:30:14Z</time>
      </trkpt>
      <trkpt lat="42.4140790" lon="-2.7424810">
        <ele>541.6</ele>
        <time>2022-08-29T06:30:15Z</time>
      </trkpt>
      <trkpt lat="42.4140780" lon="-2.7425030">
        <ele>541.8</ele>
        <time>2022-08-29T06:30:16Z</time>
      </trkpt>
      <trkpt lat="42.4140760" lon="-2.7425260">
        <ele>541.8</ele>
        <time>2022-08-29T06:30:17Z</time>
      </trkpt>
      <trkpt lat="42.4140740" lon="-2.7425480">
        <ele>542.0</ele>
        <time>2022-08-29T06:30:18Z</time>
      </trkpt>
      <trkpt lat="42.4140710" lon="-2.7425700">
        <ele>542.4</ele>
        <time>2022-08-29T06:30:19Z</time>
      </trkpt>
      <trkpt lat="42.4140670" lon="-2.7425920">
        <ele>542.6</ele>
        <time>2022-08-29T06:30:20Z</time>
      </trkpt>
      <trkpt lat="42.4140630" lon="-2.7426130">
        <ele>542.6</ele>
        <time>2022-08-29T06:30:21Z</time>
      </trkpt>
      <trkpt lat="42.4140600" lon="-2.7426340">
        <ele>542.8</ele>
        <time>2022-08-29T06:30:22Z</time>
      </trkpt>
      <trkpt lat="42.4140560" lon="-2.7426550">
        <ele>543.0</ele>
        <time>2022-08-29T06:30:23Z</time>
      </trkpt>
      <trkpt lat="42.4140560" lon="-2.7426780">
        <ele>543.2</ele>
        <time>2022-08-29T06:30:24Z</time>
      </trkpt>
      <trkpt lat="42.4140560" lon="-2.7427010">
        <ele>543.4</ele>
        <time>2022-08-29T06:30:25Z</time>
      </trkpt>
      <trkpt lat="42.4140570" lon="-2.7427240">
        <ele>543.4</ele>
        <time>2022-08-29T06:30:26Z</time>
      </trkpt>
      <trkpt lat="42.4140560" lon="-2.7427460">
        <ele>543.6</ele>
        <time>2022-08-29T06:30:27Z</time>
      </trkpt>
      <trkpt lat="42.4140520" lon="-2.7427670">
        <ele>543.6</ele>
        <time>2022-08-29T06:30:28Z</time>
      </trkpt>
      <trkpt lat="42.4140480" lon="-2.7427880">
        <ele>544.0</ele>
        <time>2022-08-29T06:30:29Z</time>
      </trkpt>
      <trkpt lat="42.4140470" lon="-2.7428100">
        <ele>544.0</ele>
        <time>2022-08-29T06:30:30Z</time>
      </trkpt>
      <trkpt lat="42.4140460" lon="-2.7428320">
        <ele>544.0</ele>
        <time>2022-08-29T06:30:31Z</time>
      </trkpt>
      <trkpt lat="42.4140470" lon="-2.7428540">
        <ele>544.4</ele>
        <time>2022-08-29T06:30:32Z</time>
      </trkpt>
      <trkpt lat="42.4140490" lon="-2.7428760">
        <ele>544.4</ele>
        <time>2022-08-29T06:30:33Z</time>
      </trkpt>
      <trkpt lat="42.4140520" lon="-2.7428970">
        <ele>544.6</ele>
        <time>2022-08-29T06:30:34Z</time>
      </trkpt>
      <trkpt lat="42.4140520" lon="-2.7429170">
        <ele>544.8</ele>
        <time>2022-08-29T06:30:35Z</time>
      </trkpt>
      <trkpt lat="42.4140520" lon="-2.7429370">
        <ele>545.0</ele>
        <time>2022-08-29T06:30:36Z</time>
      </trkpt>
      <trkpt lat="42.4140540" lon="-2.7429570">
        <ele>545.2</ele>
        <time>2022-08-29T06:30:37Z</time>
      </trkpt>
      <trkpt lat="42.4140550" lon="-2.7429780">
        <ele>545.4</ele>
        <time>2022-08-29T06:30:38Z</time>
      </trkpt>
      <trkpt lat="42.4140570" lon="-2.7429990">
        <ele>545.4</ele>
        <time>2022-08-29T06:30:39Z</time>
      </trkpt>
      <trkpt lat="42.4140620" lon="-2.7430210">
        <ele>545.8</ele>
        <time>2022-08-29T06:30:40Z</time>
      </trkpt>
      <trkpt lat="42.4140700" lon="-2.7430430">
        <ele>545.8</ele>
        <time>2022-08-29T06:30:41Z</time>
      </trkpt>
      <trkpt lat="42.4140800" lon="-2.7430640">
        <ele>546.2</ele>
        <time>2022-08-29T06:30:42Z</time>
      </trkpt>
      <trkpt lat="42.4140910" lon="-2.7430870">
        <ele>546.2</ele>
        <time>2022-08-29T06:30:43Z</time>
      </trkpt>
      <trkpt lat="42.4141000" lon="-2.7431090">
        <ele>546.4</ele>
        <time>2022-08-29T06:30:44Z</time>
      </trkpt>
      <trkpt lat="42.4141090" lon="-2.7431290">
        <ele>546.6</ele>
        <time>2022-08-29T06:30:45Z</time>
      </trkpt>
      <trkpt lat="42.4141180" lon="-2.7431480">
        <ele>546.8</ele>
        <time>2022-08-29T06:30:46Z</time>
      </trkpt>
      <trkpt lat="42.4141290" lon="-2.7431660">
        <ele>547.0</ele>
        <time>2022-08-29T06:30:47Z</time>
      </trkpt>
      <trkpt lat="42.4141410" lon="-2.7431820">
        <ele>547.0</ele>
        <time>2022-08-29T06:30:48Z</time>
      </trkpt>
      <trkpt lat="42.4141530" lon="-2.7431990">
        <ele>547.2</ele>
        <time>2022-08-29T06:30:49Z</time>
      </trkpt>
      <trkpt lat="42.4141640" lon="-2.7432170">
        <ele>547.4</ele>
        <time>2022-08-29T06:30:50Z</time>
      </trkpt>
      <trkpt lat="42.4141750" lon="-2.7432370">
        <ele>547.6</ele>
        <time>2022-08-29T06:30:51Z</time>
      </trkpt>
      <trkpt lat="42.4141860" lon="-2.7432550">
        <ele>547.6</ele>
        <time>2022-08-29T06:30:52Z</time>
      </trkpt>
      <trkpt lat="42.4141970" lon="-2.7432750">
        <ele>547.8</ele>
        <time>2022-08-29T06:30:53Z</time>
      </trkpt>
      <trkpt lat="42.4142060" lon="-2.7433010">
        <ele>548.2</ele>
        <time>2022-08-29T06:30:54Z</time>
      </trkpt>
      <trkpt lat="42.4142150" lon="-2.7433280">
        <ele>548.4</ele>
        <time>2022-08-29T06:30:55Z</time>
      </trkpt>
      <trkpt lat="42.4142250" lon="-2.7433550">
        <ele>548.4</ele>
        <time>2022-08-29T06:30:56Z</time>
      </trkpt>
      <trkpt lat="42.4142360" lon="-2.7433820">
        <ele>548.6</ele>
        <time>2022-08-29T06:30:57Z</time>
      </trkpt>
      <trkpt lat="42.4142470" lon="-2.7434090">
        <ele>548.8</ele>
        <time>2022-08-29T06:30:58Z</time>
      </trkpt>
      <trkpt lat="42.4142560" lon="-2.7434360">
        <ele>549.0</ele>
        <time>2022-08-29T06:30:59Z</time>
      </trkpt>
      <trkpt lat="42.4142660" lon="-2.7434650">
        <ele>549.4</ele>
        <time>2022-08-29T06:31:00Z</time>
      </trkpt>
      <trkpt lat="42.4142740" lon="-2.7434950">
        <ele>549.4</ele>
        <time>2022-08-29T06:31:01Z</time>
      </trkpt>
      <trkpt lat="42.4142820" lon="-2.7435280">
        <ele>549.4</ele>
        <time>2022-08-29T06:31:02Z</time>
      </trkpt>
      <trkpt lat="42.4142880" lon="-2.7435660">
        <ele>549.6</ele>
        <time>2022-08-29T06:31:03Z</time>
      </trkpt>
      <trkpt lat="42.4142950" lon="-2.7436060">
        <ele>550.0</ele>
        <time>2022-08-29T06:31:04Z</time>
      </trkpt>
      <trkpt lat="42.4143020" lon="-2.7436480">
        <ele>550.0</ele>
        <time>2022-08-29T06:31:05Z</time>
      </trkpt>
      <trkpt lat="42.4143090" lon="-2.7436900">
        <ele>550.2</ele>
        <time>2022-08-29T06:31:06Z</time>
      </trkpt>
      <trkpt lat="42.4143140" lon="-2.7437340">
        <ele>550.4</ele>
        <time>2022-08-29T06:31:07Z</time>
      </trkpt>
      <trkpt lat="42.4143180" lon="-2.7437800">
        <ele>550.4</ele>
        <time>2022-08-29T06:31:08Z</time>
      </trkpt>
      <trkpt lat="42.4143210" lon="-2.7438260">
        <ele>550.8</ele>
        <time>2022-08-29T06:31:09Z</time>
      </trkpt>
      <trkpt lat="42.4143240" lon="-2.7438720">
        <ele>550.8</ele>
        <time>2022-08-29T06:31:10Z</time>
      </trkpt>
      <trkpt lat="42.4143260" lon="-2.7439170">
        <ele>550.8</ele>
        <time>2022-08-29T06:31:11Z</time>
      </trkpt>
      <trkpt lat="42.4143280" lon="-2.7439600">
        <ele>551.0</ele>
        <time>2022-08-29T06:31:12Z</time>
      </trkpt>
      <trkpt lat="42.4143320" lon="-2.7440030">
        <ele>551.0</ele>
        <time>2022-08-29T06:31:13Z</time>
      </trkpt>
      <trkpt lat="42.4143340" lon="-2.7440470">
        <ele>551.2</ele>
        <time>2022-08-29T06:31:14Z</time>
      </trkpt>
      <trkpt lat="42.4143340" lon="-2.7440910">
        <ele>551.4</ele>
        <time>2022-08-29T06:31:15Z</time>
      </trkpt>
      <trkpt lat="42.4143310" lon="-2.7441360">
        <ele>551.2</ele>
        <time>2022-08-29T06:31:16Z</time>
      </trkpt>
      <trkpt lat="42.4143270" lon="-2.7441800">
        <ele>551.4</ele>
        <time>2022-08-29T06:31:17Z</time>
      </trkpt>
      <trkpt lat="42.4143230" lon="-2.7442250">
        <ele>551.4</ele>
        <time>2022-08-29T06:31:18Z</time>
      </trkpt>
      <trkpt lat="42.4143210" lon="-2.7442690">
        <ele>551.4</ele>
        <time>2022-08-29T06:31:19Z</time>
      </trkpt>
      <trkpt lat="42.4143200" lon="-2.7443120">
        <ele>551.4</ele>
        <time>2022-08-29T06:31:20Z</time>
      </trkpt>
      <trkpt lat="42.4143210" lon="-2.7443550">
        <ele>551.6</ele>
        <time>2022-08-29T06:31:21Z</time>
      </trkpt>
      <trkpt lat="42.4143230" lon="-2.7443980">
        <ele>551.6</ele>
        <time>2022-08-29T06:31:22Z</time>
      </trkpt>
      <trkpt lat="42.4143240" lon="-2.7444410">
        <ele>551.8</ele>
        <time>2022-08-29T06:31:23Z</time>
      </trkpt>
      <trkpt lat="42.4143250" lon="-2.7444820">
        <ele>551.8</ele>
        <time>2022-08-29T06:31:24Z</time>
      </trkpt>
      <trkpt lat="42.4143290" lon="-2.7445220">
        <ele>551.8</ele>
        <time>2022-08-29T06:31:25Z</time>
      </trkpt>
      <trkpt lat="42.4143340" lon="-2.7445610">
        <ele>551.8</ele>
        <time>2022-08-29T06:31:26Z</time>
      </trkpt>
      <trkpt lat="42.4143390" lon="-2.7446000">
        <ele>552.0</ele>
        <time>2022-08-29T06:31:27Z</time>
      </trkpt>
      <trkpt lat="42.4143420" lon="-2.7446370">
        <ele>552.0</ele>
        <time>2022-08-29T06:31:28Z</time>
      </trkpt>
      <trkpt lat="42.4143450" lon="-2.7446770">
        <ele>552.0</ele>
        <time>2022-08-29T06:31:29Z</time>
      </trkpt>
      <trkpt lat="42.4143500" lon="-2.7447140">
        <ele>552.2</ele>
        <time>2022-08-29T06:31:30Z</time>
      </trkpt>
      <trkpt lat="42.4143550" lon="-2.7447490">
        <ele>552.6</ele>
        <time>2022-08-29T06:31:31Z</time>
      </trkpt>
      <trkpt lat="42.4143600" lon="-2.7447850">
        <ele>552.8</ele>
        <time>2022-08-29T06:31:32Z</time>
      </trkpt>
      <trkpt lat="42.4143670" lon="-2.7448200">
        <ele>553.0</ele>
        <time>2022-08-29T06:31:33Z</time>
      </trkpt>
      <trkpt lat="42.4143760" lon="-2.7448540">
        <ele>553.0</ele>
        <time>2022-08-29T06:31:34Z</time>
      </trkpt>
      <trkpt lat="42.4143820" lon="-2.7448880">
        <ele>553.0</ele>
        <time>2022-08-29T06:31:35Z</time>
      </trkpt>
      <trkpt lat="42.4143900" lon="-2.7449210">
        <ele>553.2</ele>
        <time>2022-08-29T06:31:36Z</time>
      </trkpt>
      <trkpt lat="42.4144000" lon="-2.7449530">
        <ele>553.2</ele>
        <time>2022-08-29T06:31:37Z</time>
      </trkpt>
      <trkpt lat="42.4144100" lon="-2.7449850">
        <ele>553.4</ele>
        <time>2022-08-29T06:31:38Z</time>
      </trkpt>
      <trkpt lat="42.4144190" lon="-2.7450170">
        <ele>553.6</ele>
        <time>2022-08-29T06:31:39Z</time>
      </trkpt>
      <trkpt lat="42.4144300" lon="-2.7450480">
        <ele>553.8</ele>
        <time>2022-08-29T06:31:40Z</time>
      </trkpt>
      <trkpt lat="42.4144410" lon="-2.7450790">
        <ele>554.2</ele>
        <time>2022-08-29T06:31:41Z</time>
      </trkpt>
      <trkpt lat="42.4144530" lon="-2.7451100">
        <ele>554.4</ele>
        <time>2022-08-29T06:31:42Z</time>
      </trkpt>
      <trkpt lat="42.4144630" lon="-2.7451430">
        <ele>554.4</ele>
        <time>2022-08-29T06:31:43Z</time>
      </trkpt>
      <trkpt lat="42.4144730" lon="-2.7451760">
        <ele>554.6</ele>
        <time>2022-08-29T06:31:44Z</time>
      </trkpt>
      <trkpt lat="42.4144820" lon="-2.7452100">
        <ele>554.6</ele>
        <time>2022-08-29T06:31:45Z</time>
      </trkpt>
      <trkpt lat="42.4144910" lon="-2.7452440">
        <ele>554.8</ele>
        <time>2022-08-29T06:31:46Z</time>
      </trkpt>
      <trkpt lat="42.4144960" lon="-2.7452790">
        <ele>554.8</ele>
        <time>2022-08-29T06:31:47Z</time>
      </trkpt>
      <trkpt lat="42.4144980" lon="-2.7453140">
        <ele>555.0</ele>
        <time>2022-08-29T06:31:48Z</time>
      </trkpt>
      <trkpt lat="42.4144980" lon="-2.7453470">
        <ele>555.2</ele>
        <time>2022-08-29T06:31:49Z</time>
      </trkpt>
      <trkpt lat="42.4144950" lon="-2.7453780">
        <ele>555.6</ele>
        <time>2022-08-29T06:31:50Z</time>
      </trkpt>
      <trkpt lat="42.4144900" lon="-2.7454060">
        <ele>555.4</ele>
        <time>2022-08-29T06:31:51Z</time>
      </trkpt>
      <trkpt lat="42.4144880" lon="-2.7454300">
        <ele>555.8</ele>
        <time>2022-08-29T06:31:52Z</time>
      </trkpt>
      <trkpt lat="42.4144850" lon="-2.7454500">
        <ele>556.0</ele>
        <time>2022-08-29T06:31:53Z</time>
      </trkpt>
      <trkpt lat="42.4144780" lon="-2.7454720">
        <ele>556.4</ele>
        <time>2022-08-29T06:31:54Z</time>
      </trkpt>
      <trkpt lat="42.4144720" lon="-2.7454980">
        <ele>556.6</ele>
        <time>2022-08-29T06:31:55Z</time>
      </trkpt>
      <trkpt lat="42.4144690" lon="-2.7455290">
        <ele>557.0</ele>
        <time>2022-08-29T06:31:56Z</time>
      </trkpt>
      <trkpt lat="42.4144650" lon="-2.7455680">
        <ele>557.0</ele>
        <time>2022-08-29T06:31:57Z</time>
      </trkpt>
      <trkpt lat="42.4144640" lon="-2.7456120">
        <ele>557.0</ele>
        <time>2022-08-29T06:31:58Z</time>
      </trkpt>
      <trkpt lat="42.4144690" lon="-2.7456650">
        <ele>557.2</ele>
        <time>2022-08-29T06:31:59Z</time>
      </trkpt>
      <trkpt lat="42.4144830" lon="-2.7457250">
        <ele>557.2</ele>
        <time>2022-08-29T06:32:00Z</time>
      </trkpt>
      <trkpt lat="42.4145060" lon="-2.7457890">
        <ele>557.2</ele>
        <time>2022-08-29T06:32:01Z</time>
      </trkpt>
      <trkpt lat="42.4145340" lon="-2.7458560">
        <ele>557.0</ele>
        <time>2022-08-29T06:32:02Z</time>
      </trkpt>
      <trkpt lat="42.4145670" lon="-2.7459280">
        <ele>557.4</ele>
        <time>2022-08-29T06:32:03Z</time>
      </trkpt>
      <trkpt lat="42.4146010" lon="-2.7460050">
        <ele>557.2</ele>
        <time>2022-08-29T06:32:04Z</time>
      </trkpt>
      <trkpt lat="42.4146340" lon="-2.7460860">
        <ele>557.2</ele>
        <time>2022-08-29T06:32:05Z</time>
      </trkpt>
      <trkpt lat="42.4146660" lon="-2.7461710">
        <ele>557.2</ele>
        <time>2022-08-29T06:32:06Z</time>
      </trkpt>
      <trkpt lat="42.4146990" lon="-2.7462590">
        <ele>557.2</ele>
        <time>2022-08-29T06:32:07Z</time>
      </trkpt>
      <trkpt lat="42.4147340" lon="-2.7463520">
        <ele>557.0</ele>
        <time>2022-08-29T06:32:08Z</time>
      </trkpt>
      <trkpt lat="42.4147670" lon="-2.7464580">
        <ele>557.2</ele>
        <time>2022-08-29T06:32:09Z</time>
      </trkpt>
      <trkpt lat="42.4147950" lon="-2.7465720">
        <ele>556.2</ele>
        <time>2022-08-29T06:32:10Z</time>
      </trkpt>
      <trkpt lat="42.4148190" lon="-2.7466910">
        <ele>555.6</ele>
        <time>2022-08-29T06:32:11Z</time>
      </trkpt>
      <trkpt lat="42.4148430" lon="-2.7468140">
        <ele>554.8</ele>
        <time>2022-08-29T06:32:12Z</time>
      </trkpt>
      <trkpt lat="42.4148710" lon="-2.7469340">
        <ele>554.2</ele>
        <time>2022-08-29T06:32:13Z</time>
      </trkpt>
      <trkpt lat="42.4149020" lon="-2.7470510">
        <ele>554.0</ele>
        <time>2022-08-29T06:32:14Z</time>
      </trkpt>
      <trkpt lat="42.4149340" lon="-2.7471660">
        <ele>553.2</ele>
        <time>2022-08-29T06:32:15Z</time>
      </trkpt>
      <trkpt lat="42.4149660" lon="-2.7472820">
        <ele>552.8</ele>
        <time>2022-08-29T06:32:16Z</time>
      </trkpt>
      <trkpt lat="42.4150000" lon="-2.7473950">
        <ele>551.6</ele>
        <time>2022-08-29T06:32:17Z</time>
      </trkpt>
      <trkpt lat="42.4150360" lon="-2.7475010">
        <ele>550.8</ele>
        <time>2022-08-29T06:32:18Z</time>
      </trkpt>
      <trkpt lat="42.4150760" lon="-2.7476030">
        <ele>550.2</ele>
        <time>2022-08-29T06:32:19Z</time>
      </trkpt>
      <trkpt lat="42.4151210" lon="-2.7476990">
        <ele>549.0</ele>
        <time>2022-08-29T06:32:20Z</time>
      </trkpt>
      <trkpt lat="42.4151660" lon="-2.7477900">
        <ele>548.2</ele>
        <time>2022-08-29T06:32:21Z</time>
      </trkpt>
      <trkpt lat="42.4152090" lon="-2.7478800">
        <ele>547.4</ele>
        <time>2022-08-29T06:32:22Z</time>
      </trkpt>
      <trkpt lat="42.4152470" lon="-2.7479700">
        <ele>547.0</ele>
        <time>2022-08-29T06:32:23Z</time>
      </trkpt>
      <trkpt lat="42.4152790" lon="-2.7480580">
        <ele>546.6</ele>
        <time>2022-08-29T06:32:24Z</time>
      </trkpt>
      <trkpt lat="42.4153070" lon="-2.7481430">
        <ele>546.4</ele>
        <time>2022-08-29T06:32:25Z</time>
      </trkpt>
      <trkpt lat="42.4153280" lon="-2.7482260">
        <ele>546.4</ele>
        <time>2022-08-29T06:32:26Z</time>
      </trkpt>
      <trkpt lat="42.4153430" lon="-2.7483080">
        <ele>546.6</ele>
        <time>2022-08-29T06:32:27Z</time>
      </trkpt>
      <trkpt lat="42.4153530" lon="-2.7483930">
        <ele>546.6</ele>
        <time>2022-08-29T06:32:28Z</time>
      </trkpt>
      <trkpt lat="42.4153580" lon="-2.7484760">
        <ele>546.6</ele>
        <time>2022-08-29T06:32:29Z</time>
      </trkpt>
      <trkpt lat="42.4153630" lon="-2.7485510">
        <ele>546.6</ele>
        <time>2022-08-29T06:32:30Z</time>
      </trkpt>
      <trkpt lat="42.4153640" lon="-2.7486200">
        <ele>546.4</ele>
        <time>2022-08-29T06:32:31Z</time>
      </trkpt>
      <trkpt lat="42.4153660" lon="-2.7486810">
        <ele>546.4</ele>
        <time>2022-08-29T06:32:32Z</time>
      </trkpt>
      <trkpt lat="42.4153700" lon="-2.7487390">
        <ele>546.6</ele>
        <time>2022-08-29T06:32:33Z</time>
      </trkpt>
      <trkpt lat="42.4153770" lon="-2.7487950">
        <ele>546.8</ele>
        <time>2022-08-29T06:32:34Z</time>
      </trkpt>
      <trkpt lat="42.4153840" lon="-2.7488490">
        <ele>546.6</ele>
        <time>2022-08-29T06:32:35Z</time>
      </trkpt>
      <trkpt lat="42.4153880" lon="-2.7489040">
        <ele>547.0</ele>
        <time>2022-08-29T06:32:36Z</time>
      </trkpt>
      <trkpt lat="42.4153920" lon="-2.7489620">
        <ele>547.6</ele>
        <time>2022-08-29T06:32:37Z</time>
      </trkpt>
      <trkpt lat="42.4153960" lon="-2.7490260">
        <ele>547.8</ele>
        <time>2022-08-29T06:32:38Z</time>
      </trkpt>
      <trkpt lat="42.4153980" lon="-2.7490970">
        <ele>548.0</ele>
        <time>2022-08-29T06:32:39Z</time>
      </trkpt>
      <trkpt lat="42.4154030" lon="-2.7491740">
        <ele>548.2</ele>
        <time>2022-08-29T06:32:40Z</time>
      </trkpt>
      <trkpt lat="42.4154100" lon="-2.7492570">
        <ele>548.2</ele>
        <time>2022-08-29T06:32:41Z</time>
      </trkpt>
      <trkpt lat="42.4154210" lon="-2.7493460">
        <ele>548.4</ele>
        <time>2022-08-29T06:32:42Z</time>
      </trkpt>
      <trkpt lat="42.4154360" lon="-2.7494400">
        <ele>548.4</ele>
        <time>2022-08-29T06:32:43Z</time>
      </trkpt>
      <trkpt lat="42.4154530" lon="-2.7495370">
        <ele>548.4</ele>
        <time>2022-08-29T06:32:44Z</time>
      </trkpt>
      <trkpt lat="42.4154710" lon="-2.7496380">
        <ele>548.4</ele>
        <time>2022-08-29T06:32:45Z</time>
      </trkpt>
      <trkpt lat="42.4154900" lon="-2.7497430">
        <ele>548.4</ele>
        <time>2022-08-29T06:32:46Z</time>
      </trkpt>
      <trkpt lat="42.4155070" lon="-2.7498510">
        <ele>548.6</ele>
        <time>2022-08-29T06:32:47Z</time>
      </trkpt>
      <trkpt lat="42.4155260" lon="-2.7499610">
        <ele>548.4</ele>
        <time>2022-08-29T06:32:48Z</time>
      </trkpt>
      <trkpt lat="42.4155470" lon="-2.7500780">
        <ele>548.4</ele>
        <time>2022-08-29T06:32:49Z</time>
      </trkpt>
      <trkpt lat="42.4155700" lon="-2.7502010">
        <ele>548.2</ele>
        <time>2022-08-29T06:32:50Z</time>
      </trkpt>
      <trkpt lat="42.4155940" lon="-2.7503280">
        <ele>548.0</ele>
        <time>2022-08-29T06:32:51Z</time>
      </trkpt>
      <trkpt lat="42.4156210" lon="-2.7504580">
        <ele>547.6</ele>
        <time>2022-08-29T06:32:52Z</time>
      </trkpt>
      <trkpt lat="42.4156580" lon="-2.7505870">
        <ele>547.0</ele>
        <time>2022-08-29T06:32:53Z</time>
      </trkpt>
      <trkpt lat="42.4157080" lon="-2.7507110">
        <ele>547.0</ele>
        <time>2022-08-29T06:32:54Z</time>
      </trkpt>
      <trkpt lat="42.4157660" lon="-2.7508270">
        <ele>546.4</ele>
        <time>2022-08-29T06:32:55Z</time>
      </trkpt>
      <trkpt lat="42.4158330" lon="-2.7509400">
        <ele>545.8</ele>
        <time>2022-08-29T06:32:56Z</time>
      </trkpt>
      <trkpt lat="42.4159050" lon="-2.7510520">
        <ele>545.0</ele>
        <time>2022-08-29T06:32:57Z</time>
      </trkpt>
      <trkpt lat="42.4159860" lon="-2.7511590">
        <ele>543.8</ele>
        <time>2022-08-29T06:32:58Z</time>
      </trkpt>
      <trkpt lat="42.4160700" lon="-2.7512650">
        <ele>543.0</ele>
        <time>2022-08-29T06:32:59Z</time>
      </trkpt>
      <trkpt lat="42.4161570" lon="-2.7513730">
        <ele>542.4</ele>
        <time>2022-08-29T06:33:00Z</time>
      </trkpt>
      <trkpt lat="42.4162350" lon="-2.7514830">
        <ele>541.2</ele>
        <time>2022-08-29T06:33:01Z</time>
      </trkpt>
      <trkpt lat="42.4162970" lon="-2.7516010">
        <ele>540.2</ele>
        <time>2022-08-29T06:33:02Z</time>
      </trkpt>
      <trkpt lat="42.4163490" lon="-2.7517300">
        <ele>539.6</ele>
        <time>2022-08-29T06:33:03Z</time>
      </trkpt>
      <trkpt lat="42.4163740" lon="-2.7518750">
        <ele>538.8</ele>
        <time>2022-08-29T06:33:04Z</time>
      </trkpt>
      <trkpt lat="42.4163750" lon="-2.7520210">
        <ele>537.8</ele>
        <time>2022-08-29T06:33:05Z</time>
      </trkpt>
      <trkpt lat="42.4163640" lon="-2.7521720">
        <ele>536.6</ele>
        <time>2022-08-29T06:33:06Z</time>
      </trkpt>
      <trkpt lat="42.4163520" lon="-2.7523160">
        <ele>535.4</ele>
        <time>2022-08-29T06:33:07Z</time>
      </trkpt>
      <trkpt lat="42.4163460" lon="-2.7524580">
        <ele>534.4</ele>
        <time>2022-08-29T06:33:08Z</time>
      </trkpt>
      <trkpt lat="42.4163430" lon="-2.7526030">
        <ele>533.6</ele>
        <time>2022-08-29T06:33:09Z</time>
      </trkpt>
      <trkpt lat="42.4163390" lon="-2.7527510">
        <ele>532.0</ele>
        <time>2022-08-29T06:33:10Z</time>
      </trkpt>
      <trkpt lat="42.4163340" lon="-2.7529040">
        <ele>531.2</ele>
        <time>2022-08-29T06:33:11Z</time>
      </trkpt>
      <trkpt lat="42.4163310" lon="-2.7530590">
        <ele>530.0</ele>
        <time>2022-08-29T06:33:12Z</time>
      </trkpt>
      <trkpt lat="42.4163270" lon="-2.7532150">
        <ele>528.4</ele>
        <time>2022-08-29T06:33:13Z</time>
      </trkpt>
      <trkpt lat="42.4163180" lon="-2.7533710">
        <ele>526.8</ele>
        <time>2022-08-29T06:33:14Z</time>
      </trkpt>
      <trkpt lat="42.4163050" lon="-2.7535220">
        <ele>526.0</ele>
        <time>2022-08-29T06:33:15Z</time>
      </trkpt>
      <trkpt lat="42.4162850" lon="-2.7536680">
        <ele>525.4</ele>
        <time>2022-08-29T06:33:16Z</time>
      </trkpt>
      <trkpt lat="42.4162640" lon="-2.7538120">
        <ele>525.4</ele>
        <time>2022-08-29T06:33:17Z</time>
      </trkpt>
      <trkpt lat="42.4162470" lon="-2.7539480">
        <ele>525.0</ele>
        <time>2022-08-29T06:33:18Z</time>
      </trkpt>
      <trkpt lat="42.4162290" lon="-2.7540820">
        <ele>524.4</ele>
        <time>2022-08-29T06:33:19Z</time>
      </trkpt>
      <trkpt lat="42.4162110" lon="-2.7542110">
        <ele>523.6</ele>
        <time>2022-08-29T06:33:20Z</time>
      </trkpt>
      <trkpt lat="42.4161940" lon="-2.7543350">
        <ele>522.4</ele>
        <time>2022-08-29T06:33:21Z</time>
      </trkpt>
      <trkpt lat="42.4161800" lon="-2.7544530">
        <ele>521.6</ele>
        <time>2022-08-29T06:33:22Z</time>
      </trkpt>
      <trkpt lat="42.4161620" lon="-2.7545690">
        <ele>520.4</ele>
        <time>2022-08-29T06:33:23Z</time>
      </trkpt>
      <trkpt lat="42.4161460" lon="-2.7546780">
        <ele>519.8</ele>
        <time>2022-08-29T06:33:24Z</time>
      </trkpt>
      <trkpt lat="42.4161430" lon="-2.7547860">
        <ele>519.8</ele>
        <time>2022-08-29T06:33:25Z</time>
      </trkpt>
      <trkpt lat="42.4161530" lon="-2.7548910">
        <ele>519.6</ele>
        <time>2022-08-29T06:33:26Z</time>
      </trkpt>
      <trkpt lat="42.4161700" lon="-2.7549910">
        <ele>519.4</ele>
        <time>2022-08-29T06:33:27Z</time>
      </trkpt>
      <trkpt lat="42.4161840" lon="-2.7550890">
        <ele>519.4</ele>
        <time>2022-08-29T06:33:28Z</time>
      </trkpt>
      <trkpt lat="42.4161940" lon="-2.7551880">
        <ele>519.4</ele>
        <time>2022-08-29T06:33:29Z</time>
      </trkpt>
      <trkpt lat="42.4161990" lon="-2.7552870">
        <ele>519.4</ele>
        <time>2022-08-29T06:33:30Z</time>
      </trkpt>
      <trkpt lat="42.4161970" lon="-2.7553840">
        <ele>519.4</ele>
        <time>2022-08-29T06:33:31Z</time>
      </trkpt>
      <trkpt lat="42.4161900" lon="-2.7554790">
        <ele>519.6</ele>
        <time>2022-08-29T06:33:32Z</time>
      </trkpt>
      <trkpt lat="42.4161820" lon="-2.7555730">
        <ele>519.8</ele>
        <time>2022-08-29T06:33:33Z</time>
      </trkpt>
      <trkpt lat="42.4161760" lon="-2.7556620">
        <ele>520.0</ele>
        <time>2022-08-29T06:33:34Z</time>
      </trkpt>
      <trkpt lat="42.4161700" lon="-2.7557500">
        <ele>520.2</ele>
        <time>2022-08-29T06:33:35Z</time>
      </trkpt>
      <trkpt lat="42.4161650" lon="-2.7558360">
        <ele>520.2</ele>
        <time>2022-08-29T06:33:36Z</time>
      </trkpt>
      <trkpt lat="42.4161620" lon="-2.7559200">
        <ele>520.2</ele>
        <time>2022-08-29T06:33:37Z</time>
      </trkpt>
      <trkpt lat="42.4161580" lon="-2.7560020">
        <ele>520.4</ele>
        <time>2022-08-29T06:33:38Z</time>
      </trkpt>
      <trkpt lat="42.4161510" lon="-2.7560820">
        <ele>520.8</ele>
        <time>2022-08-29T06:33:39Z</time>
      </trkpt>
      <trkpt lat="42.4161420" lon="-2.7561600">
        <ele>520.8</ele>
        <time>2022-08-29T06:33:40Z</time>
      </trkpt>
      <trkpt lat="42.4161350" lon="-2.7562380">
        <ele>520.8</ele>
        <time>2022-08-29T06:33:41Z</time>
      </trkpt>
      <trkpt lat="42.4161290" lon="-2.7563150">
        <ele>520.8</ele>
        <time>2022-08-29T06:33:42Z</time>
      </trkpt>
      <trkpt lat="42.4161200" lon="-2.7563910">
        <ele>521.0</ele>
        <time>2022-08-29T06:33:43Z</time>
      </trkpt>
      <trkpt lat="42.4161130" lon="-2.7564680">
        <ele>521.2</ele>
        <time>2022-08-29T06:33:44Z</time>
      </trkpt>
      <trkpt lat="42.4161070" lon="-2.7565440">
        <ele>521.2</ele>
        <time>2022-08-29T06:33:45Z</time>
      </trkpt>
      <trkpt lat="42.4161020" lon="-2.7566200">
        <ele>521.4</ele>
        <time>2022-08-29T06:33:46Z</time>
      </trkpt>
      <trkpt lat="42.4160970" lon="-2.7566950">
        <ele>521.2</ele>
        <time>2022-08-29T06:33:47Z</time>
      </trkpt>
      <trkpt lat="42.4160940" lon="-2.7567690">
        <ele>521.4</ele>
        <time>2022-08-29T06:33:48Z</time>
      </trkpt>
      <trkpt lat="42.4160900" lon="-2.7568440">
        <ele>521.4</ele>
        <time>2022-08-29T06:33:49Z</time>
      </trkpt>
      <trkpt lat="42.4160860" lon="-2.7569180">
        <ele>521.4</ele>
        <time>2022-08-29T06:33:50Z</time>
      </trkpt>
      <trkpt lat="42.4160810" lon="-2.7569910">
        <ele>521.6</ele>
        <time>2022-08-29T06:33:51Z</time>
      </trkpt>
      <trkpt lat="42.4160740" lon="-2.7570630">
        <ele>521.6</ele>
        <time>2022-08-29T06:33:52Z</time>
      </trkpt>
      <trkpt lat="42.4160670" lon="-2.7571350">
        <ele>521.6</ele>
        <time>2022-08-29T06:33:53Z</time>
      </trkpt>
      <trkpt lat="42.4160600" lon="-2.7572040">
        <ele>522.0</ele>
        <time>2022-08-29T06:33:54Z</time>
      </trkpt>
      <trkpt lat="42.4160540" lon="-2.7572710">
        <ele>522.2</ele>
        <time>2022-08-29T06:33:55Z</time>
      </trkpt>
      <trkpt lat="42.4160500" lon="-2.7573360">
        <ele>522.2</ele>
        <time>2022-08-29T06:33:56Z</time>
      </trkpt>
      <trkpt lat="42.4160460" lon="-2.7573990">
        <ele>522.2</ele>
        <time>2022-08-29T06:33:57Z</time>
      </trkpt>
      <trkpt lat="42.4160420" lon="-2.7574610">
        <ele>522.4</ele>
        <time>2022-08-29T06:33:58Z</time>
      </trkpt>
      <trkpt lat="42.4160400" lon="-2.7575200">
        <ele>522.4</ele>
        <time>2022-08-29T06:33:59Z</time>
      </trkpt>
      <trkpt lat="42.4160380" lon="-2.7575780">
        <ele>522.6</ele>
        <time>2022-08-29T06:34:00Z</time>
      </trkpt>
      <trkpt lat="42.4160370" lon="-2.7576340">
        <ele>523.0</ele>
        <time>2022-08-29T06:34:01Z</time>
      </trkpt>
      <trkpt lat="42.4160360" lon="-2.7576890">
        <ele>523.2</ele>
        <time>2022-08-29T06:34:02Z</time>
      </trkpt>
      <trkpt lat="42.4160350" lon="-2.7577420">
        <ele>523.6</ele>
        <time>2022-08-29T06:34:03Z</time>
      </trkpt>
      <trkpt lat="42.4160340" lon="-2.7577940">
        <ele>523.8</ele>
        <time>2022-08-29T06:34:04Z</time>
      </trkpt>
      <trkpt lat="42.4160330" lon="-2.7578460">
        <ele>524.0</ele>
        <time>2022-08-29T06:34:05Z</time>
      </trkpt>
      <trkpt lat="42.4160310" lon="-2.7578970">
        <ele>524.2</ele>
        <time>2022-08-29T06:34:06Z</time>
      </trkpt>
      <trkpt lat="42.4160290" lon="-2.7579470">
        <ele>524.2</ele>
        <time>2022-08-29T06:34:07Z</time>
      </trkpt>
      <trkpt lat="42.4160280" lon="-2.7579950">
        <ele>524.8</ele>
        <time>2022-08-29T06:34:08Z</time>
      </trkpt>
      <trkpt lat="42.4160260" lon="-2.7580440">
        <ele>525.0</ele>
        <time>2022-08-29T06:34:09Z</time>
      </trkpt>
      <trkpt lat="42.4160260" lon="-2.7580910">
        <ele>525.2</ele>
        <time>2022-08-29T06:34:10Z</time>
      </trkpt>
      <trkpt lat="42.4160240" lon="-2.7581390">
        <ele>525.4</ele>
        <time>2022-08-29T06:34:11Z</time>
      </trkpt>
      <trkpt lat="42.4160200" lon="-2.7581850">
        <ele>525.8</ele>
        <time>2022-08-29T06:34:12Z</time>
      </trkpt>
      <trkpt lat="42.4160180" lon="-2.7582300">
        <ele>526.0</ele>
        <time>2022-08-29T06:34:13Z</time>
      </trkpt>
      <trkpt lat="42.4160160" lon="-2.7582740">
        <ele>526.2</ele>
        <time>2022-08-29T06:34:14Z</time>
      </trkpt>
      <trkpt lat="42.4160140" lon="-2.7583160">
        <ele>526.4</ele>
        <time>2022-08-29T06:34:15Z</time>
      </trkpt>
      <trkpt lat="42.4160110" lon="-2.7583570">
        <ele>526.6</ele>
        <time>2022-08-29T06:34:16Z</time>
      </trkpt>
      <trkpt lat="42.4160080" lon="-2.7583960">
        <ele>526.6</ele>
        <time>2022-08-29T06:34:17Z</time>
      </trkpt>
      <trkpt lat="42.4160050" lon="-2.7584340">
        <ele>526.8</ele>
        <time>2022-08-29T06:34:18Z</time>
      </trkpt>
      <trkpt lat="42.4160010" lon="-2.7584710">
        <ele>527.2</ele>
        <time>2022-08-29T06:34:19Z</time>
      </trkpt>
      <trkpt lat="42.4159980" lon="-2.7585080">
        <ele>527.4</ele>
        <time>2022-08-29T06:34:20Z</time>
      </trkpt>
      <trkpt lat="42.4159980" lon="-2.7585450">
        <ele>527.8</ele>
        <time>2022-08-29T06:34:21Z</time>
      </trkpt>
      <trkpt lat="42.4159990" lon="-2.7585830">
        <ele>528.0</ele>
        <time>2022-08-29T06:34:22Z</time>
      </trkpt>
      <trkpt lat="42.4159990" lon="-2.7586190">
        <ele>528.2</ele>
        <time>2022-08-29T06:34:23Z</time>
      </trkpt>
      <trkpt lat="42.4159990" lon="-2.7586560">
        <ele>528.4</ele>
        <time>2022-08-29T06:34:24Z</time>
      </trkpt>
      <trkpt lat="42.4159990" lon="-2.7586920">
        <ele>528.8</ele>
        <time>2022-08-29T06:34:25Z</time>
      </trkpt>
      <trkpt lat="42.4159970" lon="-2.7587270">
        <ele>528.8</ele>
        <time>2022-08-29T06:34:26Z</time>
      </trkpt>
      <trkpt lat="42.4159940" lon="-2.7587630">
        <ele>529.0</ele>
        <time>2022-08-29T06:34:27Z</time>
      </trkpt>
      <trkpt lat="42.4159910" lon="-2.7587980">
        <ele>529.4</ele>
        <time>2022-08-29T06:34:28Z</time>
      </trkpt>
      <trkpt lat="42.4159890" lon="-2.7588340">
        <ele>529.6</ele>
        <time>2022-08-29T06:34:29Z</time>
      </trkpt>
      <trkpt lat="42.4159870" lon="-2.7588690">
        <ele>529.8</ele>
        <time>2022-08-29T06:34:30Z</time>
      </trkpt>
      <trkpt lat="42.4159840" lon="-2.7589030">
        <ele>530.2</ele>
        <time>2022-08-29T06:34:31Z</time>
      </trkpt>
      <trkpt lat="42.4159800" lon="-2.7589370">
        <ele>530.2</ele>
        <time>2022-08-29T06:34:32Z</time>
      </trkpt>
      <trkpt lat="42.4159800" lon="-2.7589710">
        <ele>530.2</ele>
        <time>2022-08-29T06:34:33Z</time>
      </trkpt>
      <trkpt lat="42.4159810" lon="-2.7590050">
        <ele>530.4</ele>
        <time>2022-08-29T06:34:34Z</time>
      </trkpt>
      <trkpt lat="42.4159800" lon="-2.7590390">
        <ele>530.8</ele>
        <time>2022-08-29T06:34:35Z</time>
      </trkpt>
      <trkpt lat="42.4159810" lon="-2.7590720">
        <ele>531.0</ele>
        <time>2022-08-29T06:34:36Z</time>
      </trkpt>
      <trkpt lat="42.4159840" lon="-2.7591050">
        <ele>531.2</ele>
        <time>2022-08-29T06:34:37Z</time>
      </trkpt>
      <trkpt lat="42.4159890" lon="-2.7591380">
        <ele>531.4</ele>
        <time>2022-08-29T06:34:38Z</time>
      </trkpt>
      <trkpt lat="42.4159960" lon="-2.7591710">
        <ele>531.8</ele>
        <time>2022-08-29T06:34:39Z</time>
      </trkpt>
      <trkpt lat="42.4160040" lon="-2.7592040">
        <ele>531.8</ele>
        <time>2022-08-29T06:34:40Z</time>
      </trkpt>
      <trkpt lat="42.4160150" lon="-2.7592360">
        <ele>532.0</ele>
        <time>2022-08-29T06:34:41Z</time>
      </trkpt>
      <trkpt lat="42.4160300" lon="-2.7592640">
        <ele>532.4</ele>
        <time>2022-08-29T06:34:42Z</time>
      </trkpt>
      <trkpt lat="42.4160460" lon="-2.7592920">
        <ele>532.6</ele>
        <time>2022-08-29T06:34:43Z</time>
      </trkpt>
      <trkpt lat="42.4160610" lon="-2.7593220">
        <ele>532.8</ele>
        <time>2022-08-29T06:34:44Z</time>
      </trkpt>
      <trkpt lat="42.4160740" lon="-2.7593530">
        <ele>533.2</ele>
        <time>2022-08-29T06:34:45Z</time>
      </trkpt>
      <trkpt lat="42.4160880" lon="-2.7593820">
        <ele>533.4</ele>
        <time>2022-08-29T06:34:46Z</time>
      </trkpt>
      <trkpt lat="42.4161020" lon="-2.7594110">
        <ele>533.6</ele>
        <time>2022-08-29T06:34:47Z</time>
      </trkpt>
      <trkpt lat="42.4161160" lon="-2.7594400">
        <ele>534.0</ele>
        <time>2022-08-29T06:34:48Z</time>
      </trkpt>
      <trkpt lat="42.4161280" lon="-2.7594720">
        <ele>534.2</ele>
        <time>2022-08-29T06:34:49Z</time>
      </trkpt>
      <trkpt lat="42.4161390" lon="-2.7595050">
        <ele>534.2</ele>
        <time>2022-08-29T06:34:50Z</time>
      </trkpt>
      <trkpt lat="42.4161510" lon="-2.7595380">
        <ele>534.2</ele>
        <time>2022-08-29T06:34:51Z</time>
      </trkpt>
      <trkpt lat="42.4161650" lon="-2.7595710">
        <ele>534.4</ele>
        <time>2022-08-29T06:34:52Z</time>
      </trkpt>
      <trkpt lat="42.4161780" lon="-2.7596040">
        <ele>534.6</ele>
        <time>2022-08-29T06:34:53Z</time>
      </trkpt>
      <trkpt lat="42.4161910" lon="-2.7596380">
        <ele>534.8</ele>
        <time>2022-08-29T06:34:54Z</time>
      </trkpt>
      <trkpt lat="42.4162040" lon="-2.7596710">
        <ele>535.2</ele>
        <time>2022-08-29T06:34:55Z</time>
      </trkpt>
      <trkpt lat="42.4162160" lon="-2.7597030">
        <ele>535.2</ele>
        <time>2022-08-29T06:34:56Z</time>
      </trkpt>
      <trkpt lat="42.4162290" lon="-2.7597350">
        <ele>535.4</ele>
        <time>2022-08-29T06:34:57Z</time>
      </trkpt>
      <trkpt lat="42.4162440" lon="-2.7597660">
        <ele>535.6</ele>
        <time>2022-08-29T06:34:58Z</time>
      </trkpt>
      <trkpt lat="42.4162590" lon="-2.7597970">
        <ele>535.8</ele>
        <time>2022-08-29T06:34:59Z</time>
      </trkpt>
      <trkpt lat="42.4162750" lon="-2.7598260">
        <ele>535.8</ele>
        <time>2022-08-29T06:35:00Z</time>
      </trkpt>
      <trkpt lat="42.4162900" lon="-2.7598550">
        <ele>536.0</ele>
        <time>2022-08-29T06:35:01Z</time>
      </trkpt>
      <trkpt lat="42.4163060" lon="-2.7598840">
        <ele>536.2</ele>
        <time>2022-08-29T06:35:02Z</time>
      </trkpt>
      <trkpt lat="42.4163210" lon="-2.7599140">
        <ele>536.2</ele>
        <time>2022-08-29T06:35:03Z</time>
      </trkpt>
      <trkpt lat="42.4163360" lon="-2.7599440">
        <ele>536.6</ele>
        <time>2022-08-29T06:35:04Z</time>
      </trkpt>
      <trkpt lat="42.4163510" lon="-2.7599760">
        <ele>536.8</ele>
        <time>2022-08-29T06:35:05Z</time>
      </trkpt>
      <trkpt lat="42.4163650" lon="-2.7600100">
        <ele>537.0</ele>
        <time>2022-08-29T06:35:06Z</time>
      </trkpt>
      <trkpt lat="42.4163780" lon="-2.7600450">
        <ele>537.2</ele>
        <time>2022-08-29T06:35:07Z</time>
      </trkpt>
      <trkpt lat="42.4163900" lon="-2.7600820">
        <ele>537.4</ele>
        <time>2022-08-29T06:35:08Z</time>
      </trkpt>
      <trkpt lat="42.4164010" lon="-2.7601200">
        <ele>537.6</ele>
        <time>2022-08-29T06:35:09Z</time>
      </trkpt>
      <trkpt lat="42.4164110" lon="-2.7601600">
        <ele>537.8</ele>
        <time>2022-08-29T06:35:10Z</time>
      </trkpt>
      <trkpt lat="42.4164190" lon="-2.7602000">
        <ele>538.0</ele>
        <time>2022-08-29T06:35:11Z</time>
      </trkpt>
      <trkpt lat="42.4164280" lon="-2.7602390">
        <ele>538.2</ele>
        <time>2022-08-29T06:35:12Z</time>
      </trkpt>
      <trkpt lat="42.4164360" lon="-2.7602790">
        <ele>538.2</ele>
        <time>2022-08-29T06:35:13Z</time>
      </trkpt>
      <trkpt lat="42.4164450" lon="-2.7603190">
        <ele>538.4</ele>
        <time>2022-08-29T06:35:14Z</time>
      </trkpt>
      <trkpt lat="42.4164520" lon="-2.7603590">
        <ele>538.6</ele>
        <time>2022-08-29T06:35:15Z</time>
      </trkpt>
      <trkpt lat="42.4164590" lon="-2.7604000">
        <ele>538.6</ele>
        <time>2022-08-29T06:35:16Z</time>
      </trkpt>
      <trkpt lat="42.4164670" lon="-2.7604420">
        <ele>538.6</ele>
        <time>2022-08-29T06:35:17Z</time>
      </trkpt>
      <trkpt lat="42.4164760" lon="-2.7604840">
        <ele>538.8</ele>
        <time>2022-08-29T06:35:18Z</time>
      </trkpt>
      <trkpt lat="42.4164860" lon="-2.7605260">
        <ele>539.0</ele>
        <time>2022-08-29T06:35:19Z</time>
      </trkpt>
      <trkpt lat="42.4164950" lon="-2.7605680">
        <ele>539.0</ele>
        <time>2022-08-29T06:35:20Z</time>
      </trkpt>
      <trkpt lat="42.4165010" lon="-2.7606110">
        <ele>539.2</ele>
        <time>2022-08-29T06:35:21Z</time>
      </trkpt>
      <trkpt lat="42.4165070" lon="-2.7606530">
        <ele>539.2</ele>
        <time>2022-08-29T06:35:22Z</time>
      </trkpt>
      <trkpt lat="42.4165120" lon="-2.7606940">
        <ele>539.6</ele>
        <time>2022-08-29T06:35:23Z</time>
      </trkpt>
      <trkpt lat="42.4165170" lon="-2.7607350">
        <ele>539.8</ele>
        <time>2022-08-29T06:35:24Z</time>
      </trkpt>
      <trkpt lat="42.4165220" lon="-2.7607750">
        <ele>539.6</ele>
        <time>2022-08-29T06:35:25Z</time>
      </trkpt>
      <trkpt lat="42.4165290" lon="-2.7608150">
        <ele>539.8</ele>
        <time>2022-08-29T06:35:26Z</time>
      </trkpt>
      <trkpt lat="42.4165360" lon="-2.7608560">
        <ele>540.0</ele>
        <time>2022-08-29T06:35:27Z</time>
      </trkpt>
      <trkpt lat="42.4165440" lon="-2.7608950">
        <ele>540.0</ele>
        <time>2022-08-29T06:35:28Z</time>
      </trkpt>
      <trkpt lat="42.4165530" lon="-2.7609350">
        <ele>540.2</ele>
        <time>2022-08-29T06:35:29Z</time>
      </trkpt>
      <trkpt lat="42.4165640" lon="-2.7609740">
        <ele>540.2</ele>
        <time>2022-08-29T06:35:30Z</time>
      </trkpt>
      <trkpt lat="42.4165760" lon="-2.7610130">
        <ele>540.2</ele>
        <time>2022-08-29T06:35:31Z</time>
      </trkpt>
      <trkpt lat="42.4165860" lon="-2.7610530">
        <ele>540.4</ele>
        <time>2022-08-29T06:35:32Z</time>
      </trkpt>
      <trkpt lat="42.4165980" lon="-2.7610950">
        <ele>540.8</ele>
        <time>2022-08-29T06:35:33Z</time>
      </trkpt>
      <trkpt lat="42.4166110" lon="-2.7611380">
        <ele>541.0</ele>
        <time>2022-08-29T06:35:34Z</time>
      </trkpt>
      <trkpt lat="42.4166240" lon="-2.7611820">
        <ele>541.2</ele>
        <time>2022-08-29T06:35:35Z</time>
      </trkpt>
      <trkpt lat="42.4166360" lon="-2.7612260">
        <ele>541.4</ele>
        <time>2022-08-29T06:35:36Z</time>
      </trkpt>
      <trkpt lat="42.4166460" lon="-2.7612710">
        <ele>541.4</ele>
        <time>2022-08-29T06:35:37Z</time>
      </trkpt>
      <trkpt lat="42.4166570" lon="-2.7613170">
        <ele>541.8</ele>
        <time>2022-08-29T06:35:38Z</time>
      </trkpt>
      <trkpt lat="42.4166700" lon="-2.7613630">
        <ele>541.8</ele>
        <time>2022-08-29T06:35:39Z</time>
      </trkpt>
      <trkpt lat="42.4166830" lon="-2.7614100">
        <ele>542.0</ele>
        <time>2022-08-29T06:35:40Z</time>
      </trkpt>
      <trkpt lat="42.4166950" lon="-2.7614570">
        <ele>542.2</ele>
        <time>2022-08-29T06:35:41Z</time>
      </trkpt>
      <trkpt lat="42.4167080" lon="-2.7615060">
        <ele>542.4</ele>
        <time>2022-08-29T06:35:42Z</time>
      </trkpt>
      <trkpt lat="42.4167170" lon="-2.7615560">
        <ele>542.4</ele>
        <time>2022-08-29T06:35:43Z</time>
      </trkpt>
      <trkpt lat="42.4167240" lon="-2.7616090">
        <ele>542.6</ele>
        <time>2022-08-29T06:35:44Z</time>
      </trkpt>
      <trkpt lat="42.4167330" lon="-2.7616610">
        <ele>542.6</ele>
        <time>2022-08-29T06:35:45Z</time>
      </trkpt>
      <trkpt lat="42.4167440" lon="-2.7617120">
        <ele>542.6</ele>
        <time>2022-08-29T06:35:46Z</time>
      </trkpt>
      <trkpt lat="42.4167560" lon="-2.7617640">
        <ele>542.8</ele>
        <time>2022-08-29T06:35:47Z</time>
      </trkpt>
      <trkpt lat="42.4167660" lon="-2.7618180">
        <ele>542.8</ele>
        <time>2022-08-29T06:35:48Z</time>
      </trkpt>
      <trkpt lat="42.4167770" lon="-2.7618700">
        <ele>542.8</ele>
        <time>2022-08-29T06:35:49Z</time>
      </trkpt>
      <trkpt lat="42.4167880" lon="-2.7619230">
        <ele>543.0</ele>
        <time>2022-08-29T06:35:50Z</time>
      </trkpt>
      <trkpt lat="42.4167980" lon="-2.7619750">
        <ele>543.2</ele>
        <time>2022-08-29T06:35:51Z</time>
      </trkpt>
      <trkpt lat="42.4168080" lon="-2.7620290">
        <ele>543.2</ele>
        <time>2022-08-29T06:35:52Z</time>
      </trkpt>
      <trkpt lat="42.4168180" lon="-2.7620820">
        <ele>543.2</ele>
        <time>2022-08-29T06:35:53Z</time>
      </trkpt>
      <trkpt lat="42.4168290" lon="-2.7621340">
        <ele>543.2</ele>
        <time>2022-08-29T06:35:54Z</time>
      </trkpt>
      <trkpt lat="42.4168410" lon="-2.7621860">
        <ele>543.4</ele>
        <time>2022-08-29T06:35:55Z</time>
      </trkpt>
      <trkpt lat="42.4168520" lon="-2.7622380">
        <ele>543.6</ele>
        <time>2022-08-29T06:35:56Z</time>
      </trkpt>
      <trkpt lat="42.4168640" lon="-2.7622900">
        <ele>543.4</ele>
        <time>2022-08-29T06:35:57Z</time>
      </trkpt>
      <trkpt lat="42.4168750" lon="-2.7623410">
        <ele>543.8</ele>
        <time>2022-08-29T06:35:58Z</time>
      </trkpt>
      <trkpt lat="42.4168880" lon="-2.7623910">
        <ele>543.8</ele>
        <time>2022-08-29T06:35:59Z</time>
      </trkpt>
      <trkpt lat="42.4168990" lon="-2.7624410">
        <ele>543.8</ele>
        <time>2022-08-29T06:36:00Z</time>
      </trkpt>
      <trkpt lat="42.4169100" lon="-2.7624910">
        <ele>544.0</ele>
        <time>2022-08-29T06:36:01Z</time>
      </trkpt>
      <trkpt lat="42.4169220" lon="-2.7625430">
        <ele>544.0</ele>
        <time>2022-08-29T06:36:02Z</time>
      </trkpt>
      <trkpt lat="42.4169350" lon="-2.7625940">
        <ele>544.2</ele>
        <time>2022-08-29T06:36:03Z</time>
      </trkpt>
      <trkpt lat="42.4169460" lon="-2.7626460">
        <ele>544.2</ele>
        <time>2022-08-29T06:36:04Z</time>
      </trkpt>
      <trkpt lat="42.4169560" lon="-2.7626990">
        <ele>544.6</ele>
        <time>2022-08-29T06:36:05Z</time>
      </trkpt>
      <trkpt lat="42.4169650" lon="-2.7627510">
        <ele>544.8</ele>
        <time>2022-08-29T06:36:06Z</time>
      </trkpt>
      <trkpt lat="42.4169760" lon="-2.7628030">
        <ele>544.8</ele>
        <time>2022-08-29T06:36:07Z</time>
      </trkpt>
      <trkpt lat="42.4169860" lon="-2.7628550">
        <ele>545.0</ele>
        <time>2022-08-29T06:36:08Z</time>
      </trkpt>
      <trkpt lat="42.4169950" lon="-2.7629070">
        <ele>545.0</ele>
        <time>2022-08-29T06:36:09Z</time>
      </trkpt>
      <trkpt lat="42.4170040" lon="-2.7629590">
        <ele>545.0</ele>
        <time>2022-08-29T06:36:10Z</time>
      </trkpt>
      <trkpt lat="42.4170120" lon="-2.7630100">
        <ele>545.0</ele>
        <time>2022-08-29T06:36:11Z</time>
      </trkpt>
      <trkpt lat="42.4170200" lon="-2.7630610">
        <ele>545.2</ele>
        <time>2022-08-29T06:36:12Z</time>
      </trkpt>
      <trkpt lat="42.4170280" lon="-2.7631110">
        <ele>545.2</ele>
        <time>2022-08-29T06:36:13Z</time>
      </trkpt>
      <trkpt lat="42.4170360" lon="-2.7631630">
        <ele>545.4</ele>
        <time>2022-08-29T06:36:14Z</time>
      </trkpt>
      <trkpt lat="42.4170460" lon="-2.7632140">
        <ele>545.6</ele>
        <time>2022-08-29T06:36:15Z</time>
      </trkpt>
      <trkpt lat="42.4170570" lon="-2.7632660">
        <ele>545.6</ele>
        <time>2022-08-29T06:36:16Z</time>
      </trkpt>
      <trkpt lat="42.4170680" lon="-2.7633190">
        <ele>545.6</ele>
        <time>2022-08-29T06:36:17Z</time>
      </trkpt>
      <trkpt lat="42.4170780" lon="-2.7633720">
        <ele>545.8</ele>
        <time>2022-08-29T06:36:18Z</time>
      </trkpt>
      <trkpt lat="42.4170880" lon="-2.7634270">
        <ele>545.8</ele>
        <time>2022-08-29T06:36:19Z</time>
      </trkpt>
      <trkpt lat="42.4170970" lon="-2.7634840">
        <ele>546.0</ele>
        <time>2022-08-29T06:36:20Z</time>
      </trkpt>
      <trkpt lat="42.4171070" lon="-2.7635410">
        <ele>546.0</ele>
        <time>2022-08-29T06:36:21Z</time>
      </trkpt>
      <trkpt lat="42.4171180" lon="-2.7635990">
        <ele>546.2</ele>
        <time>2022-08-29T06:36:22Z</time>
      </trkpt>
      <trkpt lat="42.4171280" lon="-2.7636570">
        <ele>546.2</ele>
        <time>2022-08-29T06:36:23Z</time>
      </trkpt>
      <trkpt lat="42.4171360" lon="-2.7637150">
        <ele>546.2</ele>
        <time>2022-08-29T06:36:24Z</time>
      </trkpt>
      <trkpt lat="42.4171420" lon="-2.7637730">
        <ele>546.4</ele>
        <time>2022-08-29T06:36:25Z</time>
      </trkpt>
      <trkpt lat="42.4171460" lon="-2.7638310">
        <ele>546.4</ele>
        <time>2022-08-29T06:36:26Z</time>
      </trkpt>
      <trkpt lat="42.4171520" lon="-2.7638890">
        <ele>546.6</ele>
        <time>2022-08-29T06:36:27Z</time>
      </trkpt>
      <trkpt lat="42.4171590" lon="-2.7639470">
        <ele>546.8</ele>
        <time>2022-08-29T06:36:28Z</time>
      </trkpt>
      <trkpt lat="42.4171690" lon="-2.7640040">
        <ele>546.8</ele>
        <time>2022-08-29T06:36:29Z</time>
      </trkpt>
      <trkpt lat="42.4171820" lon="-2.7640610">
        <ele>546.8</ele>
        <time>2022-08-29T06:36:30Z</time>
      </trkpt>
      <trkpt lat="42.4171960" lon="-2.7641180">
        <ele>546.8</ele>
        <time>2022-08-29T06:36:31Z</time>
      </trkpt>
      <trkpt lat="42.4172090" lon="-2.7641760">
        <ele>546.8</ele>
        <time>2022-08-29T06:36:32Z</time>
      </trkpt>
      <trkpt lat="42.4172230" lon="-2.7642340">
        <ele>546.8</ele>
        <time>2022-08-29T06:36:33Z</time>
      </trkpt>
      <trkpt lat="42.4172360" lon="-2.7642920">
        <ele>547.0</ele>
        <time>2022-08-29T06:36:34Z</time>
      </trkpt>
      <trkpt lat="42.4172500" lon="-2.7643490">
        <ele>546.8</ele>
        <time>2022-08-29T06:36:35Z</time>
      </trkpt>
      <trkpt lat="42.4172650" lon="-2.7644070">
        <ele>547.0</ele>
        <time>2022-08-29T06:36:36Z</time>
      </trkpt>
      <trkpt lat="42.4172810" lon="-2.7644640">
        <ele>547.2</ele>
        <time>2022-08-29T06:36:37Z</time>
      </trkpt>
      <trkpt lat="42.4172960" lon="-2.7645210">
        <ele>547.2</ele>
        <time>2022-08-29T06:36:38Z</time>
      </trkpt>
      <trkpt lat="42.4173120" lon="-2.7645780">
        <ele>547.4</ele>
        <time>2022-08-29T06:36:39Z</time>
      </trkpt>
      <trkpt lat="42.4173240" lon="-2.7646370">
        <ele>547.2</ele>
        <time>2022-08-29T06:36:40Z</time>
      </trkpt>
      <trkpt lat="42.4173340" lon="-2.7646950">
        <ele>547.4</ele>
        <time>2022-08-29T06:36:41Z</time>
      </trkpt>
      <trkpt lat="42.4173450" lon="-2.7647520">
        <ele>547.4</ele>
        <time>2022-08-29T06:36:42Z</time>
      </trkpt>
      <trkpt lat="42.4173550" lon="-2.7648070">
        <ele>547.6</ele>
        <time>2022-08-29T06:36:43Z</time>
      </trkpt>
      <trkpt lat="42.4173660" lon="-2.7648600">
        <ele>547.8</ele>
        <time>2022-08-29T06:36:44Z</time>
      </trkpt>
      <trkpt lat="42.4173790" lon="-2.7649120">
        <ele>547.8</ele>
        <time>2022-08-29T06:36:45Z</time>
      </trkpt>
      <trkpt lat="42.4173900" lon="-2.7649630">
        <ele>548.0</ele>
        <time>2022-08-29T06:36:46Z</time>
      </trkpt>
      <trkpt lat="42.4174000" lon="-2.7650140">
        <ele>548.0</ele>
        <time>2022-08-29T06:36:47Z</time>
      </trkpt>
      <trkpt lat="42.4174080" lon="-2.7650650">
        <ele>547.8</ele>
        <time>2022-08-29T06:36:48Z</time>
      </trkpt>
      <trkpt lat="42.4174160" lon="-2.7651160">
        <ele>548.0</ele>
        <time>2022-08-29T06:36:49Z</time>
      </trkpt>
      <trkpt lat="42.4174240" lon="-2.7651670">
        <ele>548.2</ele>
        <time>2022-08-29T06:36:50Z</time>
      </trkpt>
      <trkpt lat="42.4174320" lon="-2.7652200">
        <ele>548.4</ele>
        <time>2022-08-29T06:36:51Z</time>
      </trkpt>
      <trkpt lat="42.4174400" lon="-2.7652720">
        <ele>548.6</ele>
        <time>2022-08-29T06:36:52Z</time>
      </trkpt>
      <trkpt lat="42.4174470" lon="-2.7653240">
        <ele>548.6</ele>
        <time>2022-08-29T06:36:53Z</time>
      </trkpt>
      <trkpt lat="42.4174520" lon="-2.7653780">
        <ele>548.8</ele>
        <time>2022-08-29T06:36:54Z</time>
      </trkpt>
      <trkpt lat="42.4174570" lon="-2.7654310">
        <ele>548.8</ele>
        <time>2022-08-29T06:36:55Z</time>
      </trkpt>
      <trkpt lat="42.4174610" lon="-2.7654830">
        <ele>548.8</ele>
        <time>2022-08-29T06:36:56Z</time>
      </trkpt>
      <trkpt lat="42.4174650" lon="-2.7655360">
        <ele>548.8</ele>
        <time>2022-08-29T06:36:57Z</time>
      </trkpt>
      <trkpt lat="42.4174690" lon="-2.7655900">
        <ele>549.0</ele>
        <time>2022-08-29T06:36:58Z</time>
      </trkpt>
      <trkpt lat="42.4174760" lon="-2.7656430">
        <ele>549.2</ele>
        <time>2022-08-29T06:36:59Z</time>
      </trkpt>
      <trkpt lat="42.4174820" lon="-2.7656950">
        <ele>549.4</ele>
        <time>2022-08-29T06:37:00Z</time>
      </trkpt>
      <trkpt lat="42.4174870" lon="-2.7657470">
        <ele>549.6</ele>
        <time>2022-08-29T06:37:01Z</time>
      </trkpt>
      <trkpt lat="42.4174890" lon="-2.7657980">
        <ele>549.6</ele>
        <time>2022-08-29T06:37:02Z</time>
      </trkpt>
      <trkpt lat="42.4174910" lon="-2.7658490">
        <ele>549.8</ele>
        <time>2022-08-29T06:37:03Z</time>
      </trkpt>
      <trkpt lat="42.4174960" lon="-2.7659000">
        <ele>549.8</ele>
        <time>2022-08-29T06:37:04Z</time>
      </trkpt>
      <trkpt lat="42.4175040" lon="-2.7659510">
        <ele>549.8</ele>
        <time>2022-08-29T06:37:05Z</time>
      </trkpt>
      <trkpt lat="42.4175130" lon="-2.7660030">
        <ele>550.0</ele>
        <time>2022-08-29T06:37:06Z</time>
      </trkpt>
      <trkpt lat="42.4175210" lon="-2.7660550">
        <ele>550.4</ele>
        <time>2022-08-29T06:37:07Z</time>
      </trkpt>
      <trkpt lat="42.4175250" lon="-2.7661070">
        <ele>550.4</ele>
        <time>2022-08-29T06:37:08Z</time>
      </trkpt>
      <trkpt lat="42.4175280" lon="-2.7661600">
        <ele>550.6</ele>
        <time>2022-08-29T06:37:09Z</time>
      </trkpt>
      <trkpt lat="42.4175310" lon="-2.7662130">
        <ele>550.8</ele>
        <time>2022-08-29T06:37:10Z</time>
      </trkpt>
      <trkpt lat="42.4175330" lon="-2.7662660">
        <ele>550.8</ele>
        <time>2022-08-29T06:37:11Z</time>
      </trkpt>
      <trkpt lat="42.4175360" lon="-2.7663180">
        <ele>551.0</ele>
        <time>2022-08-29T06:37:12Z</time>
      </trkpt>
      <trkpt lat="42.4175370" lon="-2.7663710">
        <ele>551.2</ele>
        <time>2022-08-29T06:37:13Z</time>
      </trkpt>
      <trkpt lat="42.4175400" lon="-2.7664240">
        <ele>551.4</ele>
        <time>2022-08-29T06:37:14Z</time>
      </trkpt>
      <trkpt lat="42.4175430" lon="-2.7664770">
        <ele>551.4</ele>
        <time>2022-08-29T06:37:15Z</time>
      </trkpt>
      <trkpt lat="42.4175460" lon="-2.7665310">
        <ele>551.6</ele>
        <time>2022-08-29T06:37:16Z</time>
      </trkpt>
      <trkpt lat="42.4175520" lon="-2.7665860">
        <ele>551.6</ele>
        <time>2022-08-29T06:37:17Z</time>
      </trkpt>
      <trkpt lat="42.4175600" lon="-2.7666420">
        <ele>551.8</ele>
        <time>2022-08-29T06:37:18Z</time>
      </trkpt>
      <trkpt lat="42.4175700" lon="-2.7666980">
        <ele>551.8</ele>
        <time>2022-08-29T06:37:19Z</time>
      </trkpt>
      <trkpt lat="42.4175810" lon="-2.7667530">
        <ele>551.8</ele>
        <time>2022-08-29T06:37:20Z</time>
      </trkpt>
      <trkpt lat="42.4175930" lon="-2.7668070">
        <ele>551.8</ele>
        <time>2022-08-29T06:37:21Z</time>
      </trkpt>
      <trkpt lat="42.4176050" lon="-2.7668590">
        <ele>552.0</ele>
        <time>2022-08-29T06:37:22Z</time>
      </trkpt>
      <trkpt lat="42.4176190" lon="-2.7669080">
        <ele>552.2</ele>
        <time>2022-08-29T06:37:23Z</time>
      </trkpt>
      <trkpt lat="42.4176300" lon="-2.7669560">
        <ele>552.2</ele>
        <time>2022-08-29T06:37:24Z</time>
      </trkpt>
      <trkpt lat="42.4176370" lon="-2.7670030">
        <ele>552.2</ele>
        <time>2022-08-29T06:37:25Z</time>
      </trkpt>
      <trkpt lat="42.4176420" lon="-2.7670510">
        <ele>552.4</ele>
        <time>2022-08-29T06:37:26Z</time>
      </trkpt>
      <trkpt lat="42.4176450" lon="-2.7670990">
        <ele>552.6</ele>
        <time>2022-08-29T06:37:27Z</time>
      </trkpt>
      <trkpt lat="42.4176500" lon="-2.7671460">
        <ele>552.6</ele>
        <time>2022-08-29T06:37:28Z</time>
      </trkpt>
      <trkpt lat="42.4176560" lon="-2.7671930">
        <ele>552.6</ele>
        <time>2022-08-29T06:37:29Z</time>
      </trkpt>
      <trkpt lat="42.4176640" lon="-2.7672390">
        <ele>552.8</ele>
        <time>2022-08-29T06:37:30Z</time>
      </trkpt>
      <trkpt lat="42.4176720" lon="-2.7672860">
        <ele>552.8</ele>
        <time>2022-08-29T06:37:31Z</time>
      </trkpt>
      <trkpt lat="42.4176800" lon="-2.7673330">
        <ele>553.2</ele>
        <time>2022-08-29T06:37:32Z</time>
      </trkpt>
      <trkpt lat="42.4176880" lon="-2.7673800">
        <ele>553.4</ele>
        <time>2022-08-29T06:37:33Z</time>
      </trkpt>
      <trkpt lat="42.4176970" lon="-2.7674260">
        <ele>553.6</ele>
        <time>2022-08-29T06:37:34Z</time>
      </trkpt>
      <trkpt lat="42.4177060" lon="-2.7674730">
        <ele>553.6</ele>
        <time>2022-08-29T06:37:35Z</time>
      </trkpt>
      <trkpt lat="42.4177140" lon="-2.7675210">
        <ele>554.0</ele>
        <time>2022-08-29T06:37:36Z</time>
      </trkpt>
      <trkpt lat="42.4177200" lon="-2.7675710">
        <ele>554.2</ele>
        <time>2022-08-29T06:37:37Z</time>
      </trkpt>
      <trkpt lat="42.4177270" lon="-2.7676220">
        <ele>554.2</ele>
        <time>2022-08-29T06:37:38Z</time>
      </trkpt>
      <trkpt lat="42.4177370" lon="-2.7676750">
        <ele>554.4</ele>
        <time>2022-08-29T06:37:39Z</time>
      </trkpt>
      <trkpt lat="42.4177460" lon="-2.7677300">
        <ele>554.6</ele>
        <time>2022-08-29T06:37:40Z</time>
      </trkpt>
      <trkpt lat="42.4177540" lon="-2.7677860">
        <ele>554.8</ele>
        <time>2022-08-29T06:37:41Z</time>
      </trkpt>
      <trkpt lat="42.4177630" lon="-2.7678450">
        <ele>554.8</ele>
        <time>2022-08-29T06:37:42Z</time>
      </trkpt>
      <trkpt lat="42.4177700" lon="-2.7679050">
        <ele>555.0</ele>
        <time>2022-08-29T06:37:43Z</time>
      </trkpt>
      <trkpt lat="42.4177770" lon="-2.7679660">
        <ele>555.0</ele>
        <time>2022-08-29T06:37:44Z</time>
      </trkpt>
      <trkpt lat="42.4177830" lon="-2.7680280">
        <ele>555.0</ele>
        <time>2022-08-29T06:37:45Z</time>
      </trkpt>
      <trkpt lat="42.4177890" lon="-2.7680910">
        <ele>555.2</ele>
        <time>2022-08-29T06:37:46Z</time>
      </trkpt>
      <trkpt lat="42.4177950" lon="-2.7681540">
        <ele>555.2</ele>
        <time>2022-08-29T06:37:47Z</time>
      </trkpt>
      <trkpt lat="42.4177980" lon="-2.7682170">
        <ele>555.2</ele>
        <time>2022-08-29T06:37:48Z</time>
      </trkpt>
      <trkpt lat="42.4178020" lon="-2.7682780">
        <ele>555.2</ele>
        <time>2022-08-29T06:37:49Z</time>
      </trkpt>
      <trkpt lat="42.4178060" lon="-2.7683380">
        <ele>555.2</ele>
        <time>2022-08-29T06:37:50Z</time>
      </trkpt>
      <trkpt lat="42.4178110" lon="-2.7683980">
        <ele>555.2</ele>
        <time>2022-08-29T06:37:51Z</time>
      </trkpt>
      <trkpt lat="42.4178150" lon="-2.7684590">
        <ele>555.4</ele>
        <time>2022-08-29T06:37:52Z</time>
      </trkpt>
      <trkpt lat="42.4178200" lon="-2.7685210">
        <ele>555.2</ele>
        <time>2022-08-29T06:37:53Z</time>
      </trkpt>
      <trkpt lat="42.4178250" lon="-2.7685840">
        <ele>555.2</ele>
        <time>2022-08-29T06:37:54Z</time>
      </trkpt>
      <trkpt lat="42.4178280" lon="-2.7686470">
        <ele>555.2</ele>
        <time>2022-08-29T06:37:55Z</time>
      </trkpt>
      <trkpt lat="42.4178310" lon="-2.7687100">
        <ele>555.2</ele>
        <time>2022-08-29T06:37:56Z</time>
      </trkpt>
      <trkpt lat="42.4178330" lon="-2.7687740">
        <ele>555.2</ele>
        <time>2022-08-29T06:37:57Z</time>
      </trkpt>
      <trkpt lat="42.4178370" lon="-2.7688380">
        <ele>555.2</ele>
        <time>2022-08-29T06:37:58Z</time>
      </trkpt>
      <trkpt lat="42.4178410" lon="-2.7689040">
        <ele>555.4</ele>
        <time>2022-08-29T06:37:59Z</time>
      </trkpt>
      <trkpt lat="42.4178450" lon="-2.7689710">
        <ele>555.4</ele>
        <time>2022-08-29T06:38:00Z</time>
      </trkpt>
      <trkpt lat="42.4178480" lon="-2.7690380">
        <ele>555.4</ele>
        <time>2022-08-29T06:38:01Z</time>
      </trkpt>
      <trkpt lat="42.4178490" lon="-2.7691070">
        <ele>555.2</ele>
        <time>2022-08-29T06:38:02Z</time>
      </trkpt>
      <trkpt lat="42.4178480" lon="-2.7691770">
        <ele>555.2</ele>
        <time>2022-08-29T06:38:03Z</time>
      </trkpt>
      <trkpt lat="42.4178480" lon="-2.7692480">
        <ele>555.2</ele>
        <time>2022-08-29T06:38:04Z</time>
      </trkpt>
      <trkpt lat="42.4178510" lon="-2.7693220">
        <ele>555.4</ele>
        <time>2022-08-29T06:38:05Z</time>
      </trkpt>
      <trkpt lat="42.4178550" lon="-2.7693970">
        <ele>555.2</ele>
        <time>2022-08-29T06:38:06Z</time>
      </trkpt>
      <trkpt lat="42.4178600" lon="-2.7694750">
        <ele>555.4</ele>
        <time>2022-08-29T06:38:07Z</time>
      </trkpt>
      <trkpt lat="42.4178670" lon="-2.7695540">
        <ele>555.4</ele>
        <time>2022-08-29T06:38:08Z</time>
      </trkpt>
      <trkpt lat="42.4178740" lon="-2.7696340">
        <ele>555.4</ele>
        <time>2022-08-29T06:38:09Z</time>
      </trkpt>
      <trkpt lat="42.4178800" lon="-2.7697140">
        <ele>555.2</ele>
        <time>2022-08-29T06:38:10Z</time>
      </trkpt>
      <trkpt lat="42.4178850" lon="-2.7697930">
        <ele>555.2</ele>
        <time>2022-08-29T06:38:11Z</time>
      </trkpt>
      <trkpt lat="42.4178900" lon="-2.7698720">
        <ele>555.0</ele>
        <time>2022-08-29T06:38:12Z</time>
      </trkpt>
      <trkpt lat="42.4178970" lon="-2.7699490">
        <ele>554.8</ele>
        <time>2022-08-29T06:38:13Z</time>
      </trkpt>
      <trkpt lat="42.4179070" lon="-2.7700270">
        <ele>554.6</ele>
        <time>2022-08-29T06:38:14Z</time>
      </trkpt>
      <trkpt lat="42.4179190" lon="-2.7701040">
        <ele>554.4</ele>
        <time>2022-08-29T06:38:15Z</time>
      </trkpt>
      <trkpt lat="42.4179330" lon="-2.7701800">
        <ele>554.4</ele>
        <time>2022-08-29T06:38:16Z</time>
      </trkpt>
      <trkpt lat="42.4179470" lon="-2.7702570">
        <ele>554.2</ele>
        <time>2022-08-29T06:38:17Z</time>
      </trkpt>
      <trkpt lat="42.4179610" lon="-2.7703340">
        <ele>554.2</ele>
        <time>2022-08-29T06:38:18Z</time>
      </trkpt>
      <trkpt lat="42.4179770" lon="-2.7704130">
        <ele>554.0</ele>
        <time>2022-08-29T06:38:19Z</time>
      </trkpt>
      <trkpt lat="42.4179950" lon="-2.7704940">
        <ele>553.8</ele>
        <time>2022-08-29T06:38:20Z</time>
      </trkpt>
      <trkpt lat="42.4180140" lon="-2.7705760">
        <ele>553.8</ele>
        <time>2022-08-29T06:38:21Z</time>
      </trkpt>
      <trkpt lat="42.4180330" lon="-2.7706610">
        <ele>553.6</ele>
        <time>2022-08-29T06:38:22Z</time>
      </trkpt>
      <trkpt lat="42.4180540" lon="-2.7707480">
        <ele>553.6</ele>
        <time>2022-08-29T06:38:23Z</time>
      </trkpt>
      <trkpt lat="42.4180740" lon="-2.7708360">
        <ele>553.2</ele>
        <time>2022-08-29T06:38:24Z</time>
      </trkpt>
      <trkpt lat="42.4180910" lon="-2.7709250">
        <ele>552.6</ele>
        <time>2022-08-29T06:38:25Z</time>
      </trkpt>
      <trkpt lat="42.4181080" lon="-2.7710180">
        <ele>552.6</ele>
        <time>2022-08-29T06:38:26Z</time>
      </trkpt>
      <trkpt lat="42.4181250" lon="-2.7711100">
        <ele>552.4</ele>
        <time>2022-08-29T06:38:27Z</time>
      </trkpt>
      <trkpt lat="42.4181440" lon="-2.7712010">
        <ele>552.4</ele>
        <time>2022-08-29T06:38:28Z</time>
      </trkpt>
      <trkpt lat="42.4181650" lon="-2.7712910">
        <ele>552.2</ele>
        <time>2022-08-29T06:38:29Z</time>
      </trkpt>
      <trkpt lat="42.4181880" lon="-2.7713790">
        <ele>552.0</ele>
        <time>2022-08-29T06:38:30Z</time>
      </trkpt>
      <trkpt lat="42.4182120" lon="-2.7714660">
        <ele>552.0</ele>
        <time>2022-08-29T06:38:31Z</time>
      </trkpt>
      <trkpt lat="42.4182380" lon="-2.7715540">
        <ele>551.8</ele>
        <time>2022-08-29T06:38:32Z</time>
      </trkpt>
      <trkpt lat="42.4182650" lon="-2.7716440">
        <ele>551.6</ele>
        <time>2022-08-29T06:38:33Z</time>
      </trkpt>
      <trkpt lat="42.4182910" lon="-2.7717340">
        <ele>551.4</ele>
        <time>2022-08-29T06:38:34Z</time>
      </trkpt>
      <trkpt lat="42.4183170" lon="-2.7718260">
        <ele>550.8</ele>
        <time>2022-08-29T06:38:35Z</time>
      </trkpt>
      <trkpt lat="42.4183440" lon="-2.7719190">
        <ele>550.8</ele>
        <time>2022-08-29T06:38:36Z</time>
      </trkpt>
      <trkpt lat="42.4183730" lon="-2.7720130">
        <ele>550.4</ele>
        <time>2022-08-29T06:38:37Z</time>
      </trkpt>
      <trkpt lat="42.4184010" lon="-2.7721080">
        <ele>550.4</ele>
        <time>2022-08-29T06:38:38Z</time>
      </trkpt>
      <trkpt lat="42.4184290" lon="-2.7722030">
        <ele>550.2</ele>
        <time>2022-08-29T06:38:39Z</time>
      </trkpt>
      <trkpt lat="42.4184570" lon="-2.7722980">
        <ele>550.2</ele>
        <time>2022-08-29T06:38:40Z</time>
      </trkpt>
      <trkpt lat="42.4184850" lon="-2.7723950">
        <ele>550.0</ele>
        <time>2022-08-29T06:38:41Z</time>
      </trkpt>
      <trkpt lat="42.4185100" lon="-2.7724920">
        <ele>549.8</ele>
        <time>2022-08-29T06:38:42Z</time>
      </trkpt>
      <trkpt lat="42.4185330" lon="-2.7725910">
        <ele>549.8</ele>
        <time>2022-08-29T06:38:43Z</time>
      </trkpt>
      <trkpt lat="42.4185540" lon="-2.7726890">
        <ele>549.8</ele>
        <time>2022-08-29T06:38:44Z</time>
      </trkpt>
      <trkpt lat="42.4185750" lon="-2.7727870">
        <ele>549.6</ele>
        <time>2022-08-29T06:38:45Z</time>
      </trkpt>
      <trkpt lat="42.4185980" lon="-2.7728830">
        <ele>549.6</ele>
        <time>2022-08-29T06:38:46Z</time>
      </trkpt>
      <trkpt lat="42.4186220" lon="-2.7729780">
        <ele>549.6</ele>
        <time>2022-08-29T06:38:47Z</time>
      </trkpt>
      <trkpt lat="42.4186470" lon="-2.7730720">
        <ele>549.4</ele>
        <time>2022-08-29T06:38:48Z</time>
      </trkpt>
      <trkpt lat="42.4186700" lon="-2.7731650">
        <ele>549.2</ele>
        <time>2022-08-29T06:38:49Z</time>
      </trkpt>
      <trkpt lat="42.4186930" lon="-2.7732580">
        <ele>549.2</ele>
        <time>2022-08-29T06:38:50Z</time>
      </trkpt>
      <trkpt lat="42.4187160" lon="-2.7733500">
        <ele>549.0</ele>
        <time>2022-08-29T06:38:51Z</time>
      </trkpt>
      <trkpt lat="42.4187430" lon="-2.7734390">
        <ele>548.8</ele>
        <time>2022-08-29T06:38:52Z</time>
      </trkpt>
      <trkpt lat="42.4187690" lon="-2.7735260">
        <ele>549.0</ele>
        <time>2022-08-29T06:38:53Z</time>
      </trkpt>
      <trkpt lat="42.4187930" lon="-2.7736130">
        <ele>548.8</ele>
        <time>2022-08-29T06:38:54Z</time>
      </trkpt>
      <trkpt lat="42.4188160" lon="-2.7736990">
        <ele>548.6</ele>
        <time>2022-08-29T06:38:55Z</time>
      </trkpt>
      <trkpt lat="42.4188380" lon="-2.7737850">
        <ele>548.6</ele>
        <time>2022-08-29T06:38:56Z</time>
      </trkpt>
      <trkpt lat="42.4188590" lon="-2.7738680">
        <ele>548.6</ele>
        <time>2022-08-29T06:38:57Z</time>
      </trkpt>
      <trkpt lat="42.4188790" lon="-2.7739500">
        <ele>548.4</ele>
        <time>2022-08-29T06:38:58Z</time>
      </trkpt>
      <trkpt lat="42.4188970" lon="-2.7740320">
        <ele>548.0</ele>
        <time>2022-08-29T06:38:59Z</time>
      </trkpt>
      <trkpt lat="42.4189160" lon="-2.7741110">
        <ele>547.8</ele>
        <time>2022-08-29T06:39:00Z</time>
      </trkpt>
      <trkpt lat="42.4189360" lon="-2.7741910">
        <ele>547.8</ele>
        <time>2022-08-29T06:39:01Z</time>
      </trkpt>
      <trkpt lat="42.4189560" lon="-2.7742690">
        <ele>547.8</ele>
        <time>2022-08-29T06:39:02Z</time>
      </trkpt>
      <trkpt lat="42.4189760" lon="-2.7743450">
        <ele>547.6</ele>
        <time>2022-08-29T06:39:03Z</time>
      </trkpt>
      <trkpt lat="42.4189970" lon="-2.7744200">
        <ele>547.6</ele>
        <time>2022-08-29T06:39:04Z</time>
      </trkpt>
      <trkpt lat="42.4190170" lon="-2.7744950">
        <ele>547.6</ele>
        <time>2022-08-29T06:39:05Z</time>
      </trkpt>
      <trkpt lat="42.4190370" lon="-2.7745700">
        <ele>547.6</ele>
        <time>2022-08-29T06:39:06Z</time>
      </trkpt>
      <trkpt lat="42.4190600" lon="-2.7746440">
        <ele>547.6</ele>
        <time>2022-08-29T06:39:07Z</time>
      </trkpt>
      <trkpt lat="42.4190840" lon="-2.7747170">
        <ele>547.6</ele>
        <time>2022-08-29T06:39:08Z</time>
      </trkpt>
      <trkpt lat="42.4191070" lon="-2.7747890">
        <ele>547.6</ele>
        <time>2022-08-29T06:39:09Z</time>
      </trkpt>
      <trkpt lat="42.4191280" lon="-2.7748620">
        <ele>547.8</ele>
        <time>2022-08-29T06:39:10Z</time>
      </trkpt>
      <trkpt lat="42.4191470" lon="-2.7749360">
        <ele>548.0</ele>
        <time>2022-08-29T06:39:11Z</time>
      </trkpt>
      <trkpt lat="42.4191670" lon="-2.7750090">
        <ele>548.2</ele>
        <time>2022-08-29T06:39:12Z</time>
      </trkpt>
      <trkpt lat="42.4191890" lon="-2.7750820">
        <ele>548.2</ele>
        <time>2022-08-29T06:39:13Z</time>
      </trkpt>
      <trkpt lat="42.4192110" lon="-2.7751540">
        <ele>548.4</ele>
        <time>2022-08-29T06:39:14Z</time>
      </trkpt>
      <trkpt lat="42.4192320" lon="-2.7752240">
        <ele>548.4</ele>
        <time>2022-08-29T06:39:15Z</time>
      </trkpt>
      <trkpt lat="42.4192520" lon="-2.7752930">
        <ele>548.8</ele>
        <time>2022-08-29T06:39:16Z</time>
      </trkpt>
      <trkpt lat="42.4192710" lon="-2.7753600">
        <ele>548.8</ele>
        <time>2022-08-29T06:39:17Z</time>
      </trkpt>
      <trkpt lat="42.4192890" lon="-2.7754260">
        <ele>549.0</ele>
        <time>2022-08-29T06:39:18Z</time>
      </trkpt>
      <trkpt lat="42.4193060" lon="-2.7754920">
        <ele>549.0</ele>
        <time>2022-08-29T06:39:19Z</time>
      </trkpt>
      <trkpt lat="42.4193230" lon="-2.7755560">
        <ele>549.0</ele>
        <time>2022-08-29T06:39:20Z</time>
      </trkpt>
      <trkpt lat="42.4193380" lon="-2.7756200">
        <ele>549.2</ele>
        <time>2022-08-29T06:39:21Z</time>
      </trkpt>
      <trkpt lat="42.4193530" lon="-2.7756810">
        <ele>549.2</ele>
        <time>2022-08-29T06:39:22Z</time>
      </trkpt>
      <trkpt lat="42.4193670" lon="-2.7757410">
        <ele>549.4</ele>
        <time>2022-08-29T06:39:23Z</time>
      </trkpt>
      <trkpt lat="42.4193810" lon="-2.7758010">
        <ele>549.6</ele>
        <time>2022-08-29T06:39:24Z</time>
      </trkpt>
      <trkpt lat="42.4193950" lon="-2.7758600">
        <ele>549.6</ele>
        <time>2022-08-29T06:39:25Z</time>
      </trkpt>
      <trkpt lat="42.4194070" lon="-2.7759190">
        <ele>549.8</ele>
        <time>2022-08-29T06:39:26Z</time>
      </trkpt>
      <trkpt lat="42.4194140" lon="-2.7759780">
        <ele>549.8</ele>
        <time>2022-08-29T06:39:27Z</time>
      </trkpt>
      <trkpt lat="42.4194180" lon="-2.7760350">
        <ele>549.8</ele>
        <time>2022-08-29T06:39:28Z</time>
      </trkpt>
      <trkpt lat="42.4194230" lon="-2.7760910">
        <ele>550.2</ele>
        <time>2022-08-29T06:39:29Z</time>
      </trkpt>
      <trkpt lat="42.4194350" lon="-2.7761450">
        <ele>550.2</ele>
        <time>2022-08-29T06:39:30Z</time>
      </trkpt>
      <trkpt lat="42.4194490" lon="-2.7761970">
        <ele>550.4</ele>
        <time>2022-08-29T06:39:31Z</time>
      </trkpt>
      <trkpt lat="42.4194630" lon="-2.7762490">
        <ele>550.6</ele>
        <time>2022-08-29T06:39:32Z</time>
      </trkpt>
      <trkpt lat="42.4194760" lon="-2.7763010">
        <ele>551.0</ele>
        <time>2022-08-29T06:39:33Z</time>
      </trkpt>
      <trkpt lat="42.4194880" lon="-2.7763510">
        <ele>551.0</ele>
        <time>2022-08-29T06:39:34Z</time>
      </trkpt>
      <trkpt lat="42.4194990" lon="-2.7764020">
        <ele>551.2</ele>
        <time>2022-08-29T06:39:35Z</time>
      </trkpt>
      <trkpt lat="42.4195100" lon="-2.7764560">
        <ele>551.4</ele>
        <time>2022-08-29T06:39:36Z</time>
      </trkpt>
      <trkpt lat="42.4195190" lon="-2.7765110">
        <ele>551.6</ele>
        <time>2022-08-29T06:39:37Z</time>
      </trkpt>
      <trkpt lat="42.4195280" lon="-2.7765640">
        <ele>551.6</ele>
        <time>2022-08-29T06:39:38Z</time>
      </trkpt>
      <trkpt lat="42.4195390" lon="-2.7766180">
        <ele>551.8</ele>
        <time>2022-08-29T06:39:39Z</time>
      </trkpt>
      <trkpt lat="42.4195470" lon="-2.7766720">
        <ele>552.0</ele>
        <time>2022-08-29T06:39:40Z</time>
      </trkpt>
      <trkpt lat="42.4195560" lon="-2.7767260">
        <ele>552.2</ele>
        <time>2022-08-29T06:39:41Z</time>
      </trkpt>
      <trkpt lat="42.4195670" lon="-2.7767800">
        <ele>552.2</ele>
        <time>2022-08-29T06:39:42Z</time>
      </trkpt>
      <trkpt lat="42.4195810" lon="-2.7768340">
        <ele>552.4</ele>
        <time>2022-08-29T06:39:43Z</time>
      </trkpt>
      <trkpt lat="42.4195930" lon="-2.7768880">
        <ele>552.4</ele>
        <time>2022-08-29T06:39:44Z</time>
      </trkpt>
      <trkpt lat="42.4196050" lon="-2.7769430">
        <ele>552.4</ele>
        <time>2022-08-29T06:39:45Z</time>
      </trkpt>
      <trkpt lat="42.4196170" lon="-2.7770000">
        <ele>552.6</ele>
        <time>2022-08-29T06:39:46Z</time>
      </trkpt>
      <trkpt lat="42.4196290" lon="-2.7770590">
        <ele>552.8</ele>
        <time>2022-08-29T06:39:47Z</time>
      </trkpt>
      <trkpt lat="42.4196420" lon="-2.7771180">
        <ele>553.0</ele>
        <time>2022-08-29T06:39:48Z</time>
      </trkpt>
      <trkpt lat="42.4196560" lon="-2.7771770">
        <ele>553.2</ele>
        <time>2022-08-29T06:39:49Z</time>
      </trkpt>
      <trkpt lat="42.4196690" lon="-2.7772390">
        <ele>553.2</ele>
        <time>2022-08-29T06:39:50Z</time>
      </trkpt>
      <trkpt lat="42.4196810" lon="-2.7773010">
        <ele>553.4</ele>
        <time>2022-08-29T06:39:51Z</time>
      </trkpt>
      <trkpt lat="42.4196930" lon="-2.7773650">
        <ele>553.4</ele>
        <time>2022-08-29T06:39:52Z</time>
      </trkpt>
      <trkpt lat="42.4197060" lon="-2.7774290">
        <ele>553.6</ele>
        <time>2022-08-29T06:39:53Z</time>
      </trkpt>
      <trkpt lat="42.4197170" lon="-2.7774940">
        <ele>553.6</ele>
        <time>2022-08-29T06:39:54Z</time>
      </trkpt>
      <trkpt lat="42.4197280" lon="-2.7775580">
        <ele>553.8</ele>
        <time>2022-08-29T06:39:55Z</time>
      </trkpt>
      <trkpt lat="42.4197390" lon="-2.7776230">
        <ele>553.8</ele>
        <time>2022-08-29T06:39:56Z</time>
      </trkpt>
      <trkpt lat="42.4197490" lon="-2.7776880">
        <ele>553.8</ele>
        <time>2022-08-29T06:39:57Z</time>
      </trkpt>
      <trkpt lat="42.4197610" lon="-2.7777540">
        <ele>554.0</ele>
        <time>2022-08-29T06:39:58Z</time>
      </trkpt>
      <trkpt lat="42.4197750" lon="-2.7778210">
        <ele>553.8</ele>
        <time>2022-08-29T06:39:59Z</time>
      </trkpt>
      <trkpt lat="42.4197910" lon="-2.7778880">
        <ele>553.8</ele>
        <time>2022-08-29T06:40:00Z</time>
      </trkpt>
      <trkpt lat="42.4198060" lon="-2.7779560">
        <ele>553.8</ele>
        <time>2022-08-29T06:40:01Z</time>
      </trkpt>
      <trkpt lat="42.4198170" lon="-2.7780240">
        <ele>554.0</ele>
        <time>2022-08-29T06:40:02Z</time>
      </trkpt>
      <trkpt lat="42.4198250" lon="-2.7780910">
        <ele>553.8</ele>
        <time>2022-08-29T06:40:03Z</time>
      </trkpt>
      <trkpt lat="42.4198320" lon="-2.7781610">
        <ele>554.0</ele>
        <time>2022-08-29T06:40:04Z</time>
      </trkpt>
      <trkpt lat="42.4198370" lon="-2.7782300">
        <ele>554.0</ele>
        <time>2022-08-29T06:40:05Z</time>
      </trkpt>
      <trkpt lat="42.4198420" lon="-2.7783000">
        <ele>554.0</ele>
        <time>2022-08-29T06:40:06Z</time>
      </trkpt>
      <trkpt lat="42.4198450" lon="-2.7783730">
        <ele>554.0</ele>
        <time>2022-08-29T06:40:07Z</time>
      </trkpt>
      <trkpt lat="42.4198470" lon="-2.7784470">
        <ele>554.0</ele>
        <time>2022-08-29T06:40:08Z</time>
      </trkpt>
      <trkpt lat="42.4198490" lon="-2.7785220">
        <ele>553.8</ele>
        <time>2022-08-29T06:40:09Z</time>
      </trkpt>
      <trkpt lat="42.4198510" lon="-2.7786000">
        <ele>554.0</ele>
        <time>2022-08-29T06:40:10Z</time>
      </trkpt>
      <trkpt lat="42.4198540" lon="-2.7786780">
        <ele>553.8</ele>
        <time>2022-08-29T06:40:11Z</time>
      </trkpt>
      <trkpt lat="42.4198590" lon="-2.7787540">
        <ele>554.0</ele>
        <time>2022-08-29T06:40:12Z</time>
      </trkpt>
      <trkpt lat="42.4198660" lon="-2.7788280">
        <ele>554.0</ele>
        <time>2022-08-29T06:40:13Z</time>
      </trkpt>
      <trkpt lat="42.4198740" lon="-2.7789010">
        <ele>554.0</ele>
        <time>2022-08-29T06:40:14Z</time>
      </trkpt>
      <trkpt lat="42.4198830" lon="-2.7789720">
        <ele>553.8</ele>
        <time>2022-08-29T06:40:15Z</time>
      </trkpt>
      <trkpt lat="42.4198930" lon="-2.7790420">
        <ele>553.8</ele>
        <time>2022-08-29T06:40:16Z</time>
      </trkpt>
      <trkpt lat="42.4199000" lon="-2.7791100">
        <ele>553.8</ele>
        <time>2022-08-29T06:40:17Z</time>
      </trkpt>
      <trkpt lat="42.4199050" lon="-2.7791790">
        <ele>553.8</ele>
        <time>2022-08-29T06:40:18Z</time>
      </trkpt>
      <trkpt lat="42.4199090" lon="-2.7792490">
        <ele>553.8</ele>
        <time>2022-08-29T06:40:19Z</time>
      </trkpt>
      <trkpt lat="42.4199130" lon="-2.7793180">
        <ele>553.8</ele>
        <time>2022-08-29T06:40:20Z</time>
      </trkpt>
      <trkpt lat="42.4199170" lon="-2.7793870">
        <ele>553.6</ele>
        <time>2022-08-29T06:40:21Z</time>
      </trkpt>
      <trkpt lat="42.4199220" lon="-2.7794550">
        <ele>553.6</ele>
        <time>2022-08-29T06:40:22Z</time>
      </trkpt>
      <trkpt lat="42.4199290" lon="-2.7795210">
        <ele>553.6</ele>
        <time>2022-08-29T06:40:23Z</time>
      </trkpt>
      <trkpt lat="42.4199370" lon="-2.7795850">
        <ele>553.6</ele>
        <time>2022-08-29T06:40:24Z</time>
      </trkpt>
      <trkpt lat="42.4199480" lon="-2.7796490">
        <ele>553.6</ele>
        <time>2022-08-29T06:40:25Z</time>
      </trkpt>
      <trkpt lat="42.4199610" lon="-2.7797120">
        <ele>553.6</ele>
        <time>2022-08-29T06:40:26Z</time>
      </trkpt>
      <trkpt lat="42.4199750" lon="-2.7797740">
        <ele>553.6</ele>
        <time>2022-08-29T06:40:27Z</time>
      </trkpt>
      <trkpt lat="42.4199910" lon="-2.7798360">
        <ele>553.6</ele>
        <time>2022-08-29T06:40:28Z</time>
      </trkpt>
      <trkpt lat="42.4200080" lon="-2.7798980">
        <ele>553.6</ele>
        <time>2022-08-29T06:40:29Z</time>
      </trkpt>
      <trkpt lat="42.4200240" lon="-2.7799600">
        <ele>553.6</ele>
        <time>2022-08-29T06:40:30Z</time>
      </trkpt>
      <trkpt lat="42.4200400" lon="-2.7800230">
        <ele>553.6</ele>
        <time>2022-08-29T06:40:31Z</time>
      </trkpt>
      <trkpt lat="42.4200560" lon="-2.7800880">
        <ele>553.6</ele>
        <time>2022-08-29T06:40:32Z</time>
      </trkpt>
      <trkpt lat="42.4200720" lon="-2.7801540">
        <ele>553.6</ele>
        <time>2022-08-29T06:40:33Z</time>
      </trkpt>
      <trkpt lat="42.4200880" lon="-2.7802200">
        <ele>553.6</ele>
        <time>2022-08-29T06:40:34Z</time>
      </trkpt>
      <trkpt lat="42.4201050" lon="-2.7802870">
        <ele>553.6</ele>
        <time>2022-08-29T06:40:35Z</time>
      </trkpt>
      <trkpt lat="42.4201210" lon="-2.7803560">
        <ele>553.6</ele>
        <time>2022-08-29T06:40:36Z</time>
      </trkpt>
      <trkpt lat="42.4201370" lon="-2.7804250">
        <ele>553.8</ele>
        <time>2022-08-29T06:40:37Z</time>
      </trkpt>
      <trkpt lat="42.4201560" lon="-2.7804940">
        <ele>553.6</ele>
        <time>2022-08-29T06:40:38Z</time>
      </trkpt>
      <trkpt lat="42.4201740" lon="-2.7805640">
        <ele>553.6</ele>
        <time>2022-08-29T06:40:39Z</time>
      </trkpt>
      <trkpt lat="42.4201900" lon="-2.7806370">
        <ele>553.6</ele>
        <time>2022-08-29T06:40:40Z</time>
      </trkpt>
      <trkpt lat="42.4202040" lon="-2.7807100">
        <ele>553.6</ele>
        <time>2022-08-29T06:40:41Z</time>
      </trkpt>
      <trkpt lat="42.4202180" lon="-2.7807840">
        <ele>553.6</ele>
        <time>2022-08-29T06:40:42Z</time>
      </trkpt>
      <trkpt lat="42.4202280" lon="-2.7808590">
        <ele>553.4</ele>
        <time>2022-08-29T06:40:43Z</time>
      </trkpt>
      <trkpt lat="42.4202360" lon="-2.7809340">
        <ele>553.4</ele>
        <time>2022-08-29T06:40:44Z</time>
      </trkpt>
      <trkpt lat="42.4202420" lon="-2.7810120">
        <ele>553.2</ele>
        <time>2022-08-29T06:40:45Z</time>
      </trkpt>
      <trkpt lat="42.4202420" lon="-2.7810930">
        <ele>553.2</ele>
        <time>2022-08-29T06:40:46Z</time>
      </trkpt>
      <trkpt lat="42.4202380" lon="-2.7811750">
        <ele>553.2</ele>
        <time>2022-08-29T06:40:47Z</time>
      </trkpt>
      <trkpt lat="42.4202330" lon="-2.7812570">
        <ele>553.0</ele>
        <time>2022-08-29T06:40:48Z</time>
      </trkpt>
      <trkpt lat="42.4202280" lon="-2.7813410">
        <ele>553.0</ele>
        <time>2022-08-29T06:40:49Z</time>
      </trkpt>
      <trkpt lat="42.4202240" lon="-2.7814290">
        <ele>553.0</ele>
        <time>2022-08-29T06:40:50Z</time>
      </trkpt>
      <trkpt lat="42.4202220" lon="-2.7815190">
        <ele>553.0</ele>
        <time>2022-08-29T06:40:51Z</time>
      </trkpt>
      <trkpt lat="42.4202180" lon="-2.7816120">
        <ele>553.0</ele>
        <time>2022-08-29T06:40:52Z</time>
      </trkpt>
      <trkpt lat="42.4202160" lon="-2.7817060">
        <ele>553.0</ele>
        <time>2022-08-29T06:40:53Z</time>
      </trkpt>
      <trkpt lat="42.4202140" lon="-2.7818050">
        <ele>553.0</ele>
        <time>2022-08-29T06:40:54Z</time>
      </trkpt>
      <trkpt lat="42.4202130" lon="-2.7819070">
        <ele>552.8</ele>
        <time>2022-08-29T06:40:55Z</time>
      </trkpt>
      <trkpt lat="42.4202120" lon="-2.7820110">
        <ele>552.8</ele>
        <time>2022-08-29T06:40:56Z</time>
      </trkpt>
      <trkpt lat="42.4202130" lon="-2.7821180">
        <ele>552.8</ele>
        <time>2022-08-29T06:40:57Z</time>
      </trkpt>
      <trkpt lat="42.4202160" lon="-2.7822270">
        <ele>552.6</ele>
        <time>2022-08-29T06:40:58Z</time>
      </trkpt>
      <trkpt lat="42.4202180" lon="-2.7823400">
        <ele>552.6</ele>
        <time>2022-08-29T06:40:59Z</time>
      </trkpt>
      <trkpt lat="42.4202210" lon="-2.7824550">
        <ele>552.6</ele>
        <time>2022-08-29T06:41:00Z</time>
      </trkpt>
      <trkpt lat="42.4202250" lon="-2.7825720">
        <ele>552.2</ele>
        <time>2022-08-29T06:41:01Z</time>
      </trkpt>
      <trkpt lat="42.4202290" lon="-2.7826900">
        <ele>552.0</ele>
        <time>2022-08-29T06:41:02Z</time>
      </trkpt>
      <trkpt lat="42.4202330" lon="-2.7828120">
        <ele>551.6</ele>
        <time>2022-08-29T06:41:03Z</time>
      </trkpt>
      <trkpt lat="42.4202370" lon="-2.7829360">
        <ele>551.0</ele>
        <time>2022-08-29T06:41:04Z</time>
      </trkpt>
      <trkpt lat="42.4202410" lon="-2.7830630">
        <ele>550.8</ele>
        <time>2022-08-29T06:41:05Z</time>
      </trkpt>
      <trkpt lat="42.4202480" lon="-2.7831940">
        <ele>550.4</ele>
        <time>2022-08-29T06:41:06Z</time>
      </trkpt>
      <trkpt lat="42.4202590" lon="-2.7833240">
        <ele>550.0</ele>
        <time>2022-08-29T06:41:07Z</time>
      </trkpt>
      <trkpt lat="42.4202740" lon="-2.7834560">
        <ele>549.6</ele>
        <time>2022-08-29T06:41:08Z</time>
      </trkpt>
      <trkpt lat="42.4202910" lon="-2.7835880">
        <ele>549.2</ele>
        <time>2022-08-29T06:41:09Z</time>
      </trkpt>
      <trkpt lat="42.4203090" lon="-2.7837220">
        <ele>548.4</ele>
        <time>2022-08-29T06:41:10Z</time>
      </trkpt>
      <trkpt lat="42.4203270" lon="-2.7838580">
        <ele>548.0</ele>
        <time>2022-08-29T06:41:11Z</time>
      </trkpt>
      <trkpt lat="42.4203440" lon="-2.7839950">
        <ele>547.6</ele>
        <time>2022-08-29T06:41:12Z</time>
      </trkpt>
      <trkpt lat="42.4203620" lon="-2.7841320">
        <ele>547.2</ele>
        <time>2022-08-29T06:41:13Z</time>
      </trkpt>
      <trkpt lat="42.4203800" lon="-2.7842680">
        <ele>546.6</ele>
        <time>2022-08-29T06:41:14Z</time>
      </trkpt>
      <trkpt lat="42.4203990" lon="-2.7844040">
        <ele>546.2</ele>
        <time>2022-08-29T06:41:15Z</time>
      </trkpt>
      <trkpt lat="42.4204160" lon="-2.7845390">
        <ele>545.6</ele>
        <time>2022-08-29T06:41:16Z</time>
      </trkpt>
      <trkpt lat="42.4204340" lon="-2.7846730">
        <ele>545.6</ele>
        <time>2022-08-29T06:41:17Z</time>
      </trkpt>
      <trkpt lat="42.4204500" lon="-2.7848070">
        <ele>545.4</ele>
        <time>2022-08-29T06:41:18Z</time>
      </trkpt>
      <trkpt lat="42.4204680" lon="-2.7849400">
        <ele>544.4</ele>
        <time>2022-08-29T06:41:19Z</time>
      </trkpt>
      <trkpt lat="42.4204850" lon="-2.7850690">
        <ele>543.8</ele>
        <time>2022-08-29T06:41:20Z</time>
      </trkpt>
      <trkpt lat="42.4204990" lon="-2.7851950">
        <ele>543.6</ele>
        <time>2022-08-29T06:41:21Z</time>
      </trkpt>
      <trkpt lat="42.4205130" lon="-2.7853180">
        <ele>543.4</ele>
        <time>2022-08-29T06:41:22Z</time>
      </trkpt>
      <trkpt lat="42.4205270" lon="-2.7854370">
        <ele>543.2</ele>
        <time>2022-08-29T06:41:23Z</time>
      </trkpt>
      <trkpt lat="42.4205400" lon="-2.7855540">
        <ele>543.0</ele>
        <time>2022-08-29T06:41:24Z</time>
      </trkpt>
      <trkpt lat="42.4205530" lon="-2.7856680">
        <ele>543.0</ele>
        <time>2022-08-29T06:41:25Z</time>
      </trkpt>
      <trkpt lat="42.4205680" lon="-2.7857770">
        <ele>542.8</ele>
        <time>2022-08-29T06:41:26Z</time>
      </trkpt>
      <trkpt lat="42.4205800" lon="-2.7858840">
        <ele>543.0</ele>
        <time>2022-08-29T06:41:27Z</time>
      </trkpt>
      <trkpt lat="42.4205900" lon="-2.7859890">
        <ele>543.0</ele>
        <time>2022-08-29T06:41:28Z</time>
      </trkpt>
      <trkpt lat="42.4205970" lon="-2.7860910">
        <ele>543.0</ele>
        <time>2022-08-29T06:41:29Z</time>
      </trkpt>
      <trkpt lat="42.4206040" lon="-2.7861900">
        <ele>542.8</ele>
        <time>2022-08-29T06:41:30Z</time>
      </trkpt>
      <trkpt lat="42.4206110" lon="-2.7862850">
        <ele>542.8</ele>
        <time>2022-08-29T06:41:31Z</time>
      </trkpt>
      <trkpt lat="42.4206190" lon="-2.7863770">
        <ele>543.0</ele>
        <time>2022-08-29T06:41:32Z</time>
      </trkpt>
      <trkpt lat="42.4206250" lon="-2.7864670">
        <ele>543.0</ele>
        <time>2022-08-29T06:41:33Z</time>
      </trkpt>
      <trkpt lat="42.4206310" lon="-2.7865570">
        <ele>543.4</ele>
        <time>2022-08-29T06:41:34Z</time>
      </trkpt>
      <trkpt lat="42.4206370" lon="-2.7866440">
        <ele>543.6</ele>
        <time>2022-08-29T06:41:35Z</time>
      </trkpt>
      <trkpt lat="42.4206430" lon="-2.7867290">
        <ele>543.8</ele>
        <time>2022-08-29T06:41:36Z</time>
      </trkpt>
      <trkpt lat="42.4206480" lon="-2.7868110">
        <ele>544.0</ele>
        <time>2022-08-29T06:41:37Z</time>
      </trkpt>
      <trkpt lat="42.4206530" lon="-2.7868940">
        <ele>544.2</ele>
        <time>2022-08-29T06:41:38Z</time>
      </trkpt>
      <trkpt lat="42.4206580" lon="-2.7869750">
        <ele>544.8</ele>
        <time>2022-08-29T06:41:39Z</time>
      </trkpt>
      <trkpt lat="42.4206630" lon="-2.7870530">
        <ele>545.2</ele>
        <time>2022-08-29T06:41:40Z</time>
      </trkpt>
      <trkpt lat="42.4206690" lon="-2.7871290">
        <ele>545.4</ele>
        <time>2022-08-29T06:41:41Z</time>
      </trkpt>
      <trkpt lat="42.4206750" lon="-2.7872050">
        <ele>545.4</ele>
        <time>2022-08-29T06:41:42Z</time>
      </trkpt>
      <trkpt lat="42.4206810" lon="-2.7872790">
        <ele>545.8</ele>
        <time>2022-08-29T06:41:43Z</time>
      </trkpt>
      <trkpt lat="42.4206860" lon="-2.7873520">
        <ele>546.0</ele>
        <time>2022-08-29T06:41:44Z</time>
      </trkpt>
      <trkpt lat="42.4206890" lon="-2.7874270">
        <ele>546.2</ele>
        <time>2022-08-29T06:41:45Z</time>
      </trkpt>
      <trkpt lat="42.4206920" lon="-2.7875000">
        <ele>546.6</ele>
        <time>2022-08-29T06:41:46Z</time>
      </trkpt>
      <trkpt lat="42.4206940" lon="-2.7875730">
        <ele>547.0</ele>
        <time>2022-08-29T06:41:47Z</time>
      </trkpt>
      <trkpt lat="42.4206970" lon="-2.7876460">
        <ele>547.2</ele>
        <time>2022-08-29T06:41:48Z</time>
      </trkpt>
      <trkpt lat="42.4207000" lon="-2.7877190">
        <ele>547.6</ele>
        <time>2022-08-29T06:41:49Z</time>
      </trkpt>
      <trkpt lat="42.4207030" lon="-2.7877910">
        <ele>547.6</ele>
        <time>2022-08-29T06:41:50Z</time>
      </trkpt>
      <trkpt lat="42.4207070" lon="-2.7878620">
        <ele>548.2</ele>
        <time>2022-08-29T06:41:51Z</time>
      </trkpt>
      <trkpt lat="42.4207110" lon="-2.7879320">
        <ele>548.2</ele>
        <time>2022-08-29T06:41:52Z</time>
      </trkpt>
      <trkpt lat="42.4207140" lon="-2.7880000">
        <ele>548.4</ele>
        <time>2022-08-29T06:41:53Z</time>
      </trkpt>
      <trkpt lat="42.4207170" lon="-2.7880720">
        <ele>548.8</ele>
        <time>2022-08-29T06:41:54Z</time>
      </trkpt>
      <trkpt lat="42.4207230" lon="-2.7881440">
        <ele>549.2</ele>
        <time>2022-08-29T06:41:55Z</time>
      </trkpt>
      <trkpt lat="42.4207280" lon="-2.7882160">
        <ele>549.2</ele>
        <time>2022-08-29T06:41:56Z</time>
      </trkpt>
      <trkpt lat="42.4207320" lon="-2.7882890">
        <ele>549.6</ele>
        <time>2022-08-29T06:41:57Z</time>
      </trkpt>
      <trkpt lat="42.4207340" lon="-2.7883620">
        <ele>549.6</ele>
        <time>2022-08-29T06:41:58Z</time>
      </trkpt>
      <trkpt lat="42.4207360" lon="-2.7884350">
        <ele>550.0</ele>
        <time>2022-08-29T06:41:59Z</time>
      </trkpt>
      <trkpt lat="42.4207360" lon="-2.7885070">
        <ele>550.2</ele>
        <time>2022-08-29T06:42:00Z</time>
      </trkpt>
      <trkpt lat="42.4207380" lon="-2.7885780">
        <ele>550.4</ele>
        <time>2022-08-29T06:42:01Z</time>
      </trkpt>
      <trkpt lat="42.4207400" lon="-2.7886510">
        <ele>550.6</ele>
        <time>2022-08-29T06:42:02Z</time>
      </trkpt>
      <trkpt lat="42.4207410" lon="-2.7887230">
        <ele>550.8</ele>
        <time>2022-08-29T06:42:03Z</time>
      </trkpt>
      <trkpt lat="42.4207420" lon="-2.7887950">
        <ele>551.0</ele>
        <time>2022-08-29T06:42:04Z</time>
      </trkpt>
      <trkpt lat="42.4207430" lon="-2.7888680">
        <ele>550.8</ele>
        <time>2022-08-29T06:42:05Z</time>
      </trkpt>
      <trkpt lat="42.4207470" lon="-2.7889380">
        <ele>551.0</ele>
        <time>2022-08-29T06:42:06Z</time>
      </trkpt>
      <trkpt lat="42.4207570" lon="-2.7890050">
        <ele>551.0</ele>
        <time>2022-08-29T06:42:07Z</time>
      </trkpt>
      <trkpt lat="42.4207720" lon="-2.7890700">
        <ele>551.0</ele>
        <time>2022-08-29T06:42:08Z</time>
      </trkpt>
      <trkpt lat="42.4207900" lon="-2.7891330">
        <ele>551.2</ele>
        <time>2022-08-29T06:42:09Z</time>
      </trkpt>
      <trkpt lat="42.4208100" lon="-2.7891950">
        <ele>551.4</ele>
        <time>2022-08-29T06:42:10Z</time>
      </trkpt>
      <trkpt lat="42.4208310" lon="-2.7892560">
        <ele>551.6</ele>
        <time>2022-08-29T06:42:11Z</time>
      </trkpt>
      <trkpt lat="42.4208520" lon="-2.7893200">
        <ele>551.8</ele>
        <time>2022-08-29T06:42:12Z</time>
      </trkpt>
      <trkpt lat="42.4208730" lon="-2.7893850">
        <ele>552.0</ele>
        <time>2022-08-29T06:42:13Z</time>
      </trkpt>
      <trkpt lat="42.4208950" lon="-2.7894490">
        <ele>552.2</ele>
        <time>2022-08-29T06:42:14Z</time>
      </trkpt>
      <trkpt lat="42.4209170" lon="-2.7895150">
        <ele>552.6</ele>
        <time>2022-08-29T06:42:15Z</time>
      </trkpt>
      <trkpt lat="42.4209380" lon="-2.7895840">
        <ele>552.8</ele>
        <time>2022-08-29T06:42:16Z</time>
      </trkpt>
      <trkpt lat="42.4209610" lon="-2.7896530">
        <ele>552.8</ele>
        <time>2022-08-29T06:42:17Z</time>
      </trkpt>
      <trkpt lat="42.4209900" lon="-2.7897180">
        <ele>553.0</ele>
        <time>2022-08-29T06:42:18Z</time>
      </trkpt>
      <trkpt lat="42.4210210" lon="-2.7897840">
        <ele>553.0</ele>
        <time>2022-08-29T06:42:19Z</time>
      </trkpt>
      <trkpt lat="42.4210510" lon="-2.7898520">
        <ele>553.0</ele>
        <time>2022-08-29T06:42:20Z</time>
      </trkpt>
      <trkpt lat="42.4210800" lon="-2.7899200">
        <ele>553.0</ele>
        <time>2022-08-29T06:42:21Z</time>
      </trkpt>
      <trkpt lat="42.4211090" lon="-2.7899870">
        <ele>553.0</ele>
        <time>2022-08-29T06:42:22Z</time>
      </trkpt>
      <trkpt lat="42.4211370" lon="-2.7900540">
        <ele>553.0</ele>
        <time>2022-08-29T06:42:23Z</time>
      </trkpt>
      <trkpt lat="42.4211660" lon="-2.7901190">
        <ele>553.0</ele>
        <time>2022-08-29T06:42:24Z</time>
      </trkpt>
      <trkpt lat="42.4211940" lon="-2.7901840">
        <ele>553.2</ele>
        <time>2022-08-29T06:42:25Z</time>
      </trkpt>
      <trkpt lat="42.4212240" lon="-2.7902480">
        <ele>553.0</ele>
        <time>2022-08-29T06:42:26Z</time>
      </trkpt>
      <trkpt lat="42.4212540" lon="-2.7903120">
        <ele>552.8</ele>
        <time>2022-08-29T06:42:27Z</time>
      </trkpt>
      <trkpt lat="42.4212820" lon="-2.7903750">
        <ele>552.8</ele>
        <time>2022-08-29T06:42:28Z</time>
      </trkpt>
      <trkpt lat="42.4213100" lon="-2.7904390">
        <ele>552.8</ele>
        <time>2022-08-29T06:42:29Z</time>
      </trkpt>
      <trkpt lat="42.4213370" lon="-2.7905020">
        <ele>552.6</ele>
        <time>2022-08-29T06:42:30Z</time>
      </trkpt>
      <trkpt lat="42.4213650" lon="-2.7905650">
        <ele>552.6</ele>
        <time>2022-08-29T06:42:31Z</time>
      </trkpt>
      <trkpt lat="42.4213940" lon="-2.7906290">
        <ele>552.4</ele>
        <time>2022-08-29T06:42:32Z</time>
      </trkpt>
      <trkpt lat="42.4214210" lon="-2.7906920">
        <ele>552.6</ele>
        <time>2022-08-29T06:42:33Z</time>
      </trkpt>
      <trkpt lat="42.4214470" lon="-2.7907570">
        <ele>552.4</ele>
        <time>2022-08-29T06:42:34Z</time>
      </trkpt>
      <trkpt lat="42.4214730" lon="-2.7908200">
        <ele>552.6</ele>
        <time>2022-08-29T06:42:35Z</time>
      </trkpt>
      <trkpt lat="42.4214990" lon="-2.7908840">
        <ele>552.4</ele>
        <time>2022-08-29T06:42:36Z</time>
      </trkpt>
      <trkpt lat="42.4215240" lon="-2.7909480">
        <ele>552.4</ele>
        <time>2022-08-29T06:42:37Z</time>
      </trkpt>
      <trkpt lat="42.4215490" lon="-2.7910150">
        <ele>552.2</ele>
        <time>2022-08-29T06:42:38Z</time>
      </trkpt>
      <trkpt lat="42.4215740" lon="-2.7910830">
        <ele>552.2</ele>
        <time>2022-08-29T06:42:39Z</time>
      </trkpt>
      <trkpt lat="42.4215980" lon="-2.7911520">
        <ele>552.2</ele>
        <time>2022-08-29T06:42:40Z</time>
      </trkpt>
      <trkpt lat="42.4216200" lon="-2.7912200">
        <ele>552.0</ele>
        <time>2022-08-29T06:42:41Z</time>
      </trkpt>
      <trkpt lat="42.4216410" lon="-2.7912880">
        <ele>552.0</ele>
        <time>2022-08-29T06:42:42Z</time>
      </trkpt>
      <trkpt lat="42.4216620" lon="-2.7913560">
        <ele>551.8</ele>
        <time>2022-08-29T06:42:43Z</time>
      </trkpt>
      <trkpt lat="42.4216830" lon="-2.7914240">
        <ele>551.6</ele>
        <time>2022-08-29T06:42:44Z</time>
      </trkpt>
      <trkpt lat="42.4217060" lon="-2.7914920">
        <ele>551.4</ele>
        <time>2022-08-29T06:42:45Z</time>
      </trkpt>
      <trkpt lat="42.4217290" lon="-2.7915590">
        <ele>551.2</ele>
        <time>2022-08-29T06:42:46Z</time>
      </trkpt>
      <trkpt lat="42.4217510" lon="-2.7916270">
        <ele>551.2</ele>
        <time>2022-08-29T06:42:47Z</time>
      </trkpt>
      <trkpt lat="42.4217730" lon="-2.7916960">
        <ele>551.2</ele>
        <time>2022-08-29T06:42:48Z</time>
      </trkpt>
      <trkpt lat="42.4217930" lon="-2.7917680">
        <ele>551.0</ele>
        <time>2022-08-29T06:42:49Z</time>
      </trkpt>
      <trkpt lat="42.4218160" lon="-2.7918390">
        <ele>551.0</ele>
        <time>2022-08-29T06:42:50Z</time>
      </trkpt>
      <trkpt lat="42.4218410" lon="-2.7919110">
        <ele>550.8</ele>
        <time>2022-08-29T06:42:51Z</time>
      </trkpt>
      <trkpt lat="42.4218650" lon="-2.7919810">
        <ele>550.8</ele>
        <time>2022-08-29T06:42:52Z</time>
      </trkpt>
      <trkpt lat="42.4218890" lon="-2.7920520">
        <ele>550.6</ele>
        <time>2022-08-29T06:42:53Z</time>
      </trkpt>
      <trkpt lat="42.4219110" lon="-2.7921220">
        <ele>550.8</ele>
        <time>2022-08-29T06:42:54Z</time>
      </trkpt>
      <trkpt lat="42.4219340" lon="-2.7921900">
        <ele>550.8</ele>
        <time>2022-08-29T06:42:55Z</time>
      </trkpt>
      <trkpt lat="42.4219580" lon="-2.7922570">
        <ele>550.6</ele>
        <time>2022-08-29T06:42:56Z</time>
      </trkpt>
      <trkpt lat="42.4219820" lon="-2.7923240">
        <ele>550.6</ele>
        <time>2022-08-29T06:42:57Z</time>
      </trkpt>
      <trkpt lat="42.4220040" lon="-2.7923930">
        <ele>550.6</ele>
        <time>2022-08-29T06:42:58Z</time>
      </trkpt>
      <trkpt lat="42.4220250" lon="-2.7924640">
        <ele>550.8</ele>
        <time>2022-08-29T06:42:59Z</time>
      </trkpt>
      <trkpt lat="42.4220450" lon="-2.7925350">
        <ele>550.6</ele>
        <time>2022-08-29T06:43:00Z</time>
      </trkpt>
      <trkpt lat="42.4220660" lon="-2.7926070">
        <ele>550.8</ele>
        <time>2022-08-29T06:43:01Z</time>
      </trkpt>
      <trkpt lat="42.4220910" lon="-2.7926780">
        <ele>550.6</ele>
        <time>2022-08-29T06:43:02Z</time>
      </trkpt>
      <trkpt lat="42.4221210" lon="-2.7927470">
        <ele>550.6</ele>
        <time>2022-08-29T06:43:03Z</time>
      </trkpt>
      <trkpt lat="42.4221520" lon="-2.7928160">
        <ele>550.6</ele>
        <time>2022-08-29T06:43:04Z</time>
      </trkpt>
      <trkpt lat="42.4221820" lon="-2.7928870">
        <ele>550.6</ele>
        <time>2022-08-29T06:43:05Z</time>
      </trkpt>
      <trkpt lat="42.4222100" lon="-2.7929610">
        <ele>550.8</ele>
        <time>2022-08-29T06:43:06Z</time>
      </trkpt>
      <trkpt lat="42.4222370" lon="-2.7930360">
        <ele>550.6</ele>
        <time>2022-08-29T06:43:07Z</time>
      </trkpt>
      <trkpt lat="42.4222640" lon="-2.7931130">
        <ele>550.6</ele>
        <time>2022-08-29T06:43:08Z</time>
      </trkpt>
      <trkpt lat="42.4222900" lon="-2.7931900">
        <ele>550.6</ele>
        <time>2022-08-29T06:43:09Z</time>
      </trkpt>
      <trkpt lat="42.4223140" lon="-2.7932700">
        <ele>550.6</ele>
        <time>2022-08-29T06:43:10Z</time>
      </trkpt>
      <trkpt lat="42.4223330" lon="-2.7933550">
        <ele>550.6</ele>
        <time>2022-08-29T06:43:11Z</time>
      </trkpt>
      <trkpt lat="42.4223520" lon="-2.7934420">
        <ele>550.6</ele>
        <time>2022-08-29T06:43:12Z</time>
      </trkpt>
      <trkpt lat="42.4223710" lon="-2.7935300">
        <ele>550.6</ele>
        <time>2022-08-29T06:43:13Z</time>
      </trkpt>
      <trkpt lat="42.4223920" lon="-2.7936190">
        <ele>550.6</ele>
        <time>2022-08-29T06:43:14Z</time>
      </trkpt>
      <trkpt lat="42.4224110" lon="-2.7937100">
        <ele>550.4</ele>
        <time>2022-08-29T06:43:15Z</time>
      </trkpt>
      <trkpt lat="42.4224290" lon="-2.7938030">
        <ele>550.6</ele>
        <time>2022-08-29T06:43:16Z</time>
      </trkpt>
      <trkpt lat="42.4224480" lon="-2.7938960">
        <ele>550.6</ele>
        <time>2022-08-29T06:43:17Z</time>
      </trkpt>
      <trkpt lat="42.4224660" lon="-2.7939890">
        <ele>550.6</ele>
        <time>2022-08-29T06:43:18Z</time>
      </trkpt>
      <trkpt lat="42.4224830" lon="-2.7940830">
        <ele>550.4</ele>
        <time>2022-08-29T06:43:19Z</time>
      </trkpt>
      <trkpt lat="42.4225010" lon="-2.7941770">
        <ele>550.4</ele>
        <time>2022-08-29T06:43:20Z</time>
      </trkpt>
      <trkpt lat="42.4225180" lon="-2.7942720">
        <ele>550.4</ele>
        <time>2022-08-29T06:43:21Z</time>
      </trkpt>
      <trkpt lat="42.4225360" lon="-2.7943670">
        <ele>550.4</ele>
        <time>2022-08-29T06:43:22Z</time>
      </trkpt>
      <trkpt lat="42.4225530" lon="-2.7944620">
        <ele>550.2</ele>
        <time>2022-08-29T06:43:23Z</time>
      </trkpt>
      <trkpt lat="42.4225690" lon="-2.7945550">
        <ele>550.0</ele>
        <time>2022-08-29T06:43:24Z</time>
      </trkpt>
      <trkpt lat="42.4225820" lon="-2.7946480">
        <ele>549.8</ele>
        <time>2022-08-29T06:43:25Z</time>
      </trkpt>
      <trkpt lat="42.4225970" lon="-2.7947390">
        <ele>549.8</ele>
        <time>2022-08-29T06:43:26Z</time>
      </trkpt>
      <trkpt lat="42.4226160" lon="-2.7948270">
        <ele>549.6</ele>
        <time>2022-08-29T06:43:27Z</time>
      </trkpt>
      <trkpt lat="42.4226360" lon="-2.7949140">
        <ele>549.4</ele>
        <time>2022-08-29T06:43:28Z</time>
      </trkpt>
      <trkpt lat="42.4226550" lon="-2.7949990">
        <ele>549.4</ele>
        <time>2022-08-29T06:43:29Z</time>
      </trkpt>
      <trkpt lat="42.4226720" lon="-2.7950840">
        <ele>549.6</ele>
        <time>2022-08-29T06:43:30Z</time>
      </trkpt>
      <trkpt lat="42.4226870" lon="-2.7951690">
        <ele>549.4</ele>
        <time>2022-08-29T06:43:31Z</time>
      </trkpt>
      <trkpt lat="42.4226990" lon="-2.7952530">
        <ele>549.6</ele>
        <time>2022-08-29T06:43:32Z</time>
      </trkpt>
      <trkpt lat="42.4227100" lon="-2.7953360">
        <ele>549.4</ele>
        <time>2022-08-29T06:43:33Z</time>
      </trkpt>
      <trkpt lat="42.4227200" lon="-2.7954200">
        <ele>549.4</ele>
        <time>2022-08-29T06:43:34Z</time>
      </trkpt>
      <trkpt lat="42.4227320" lon="-2.7955040">
        <ele>549.6</ele>
        <time>2022-08-29T06:43:35Z</time>
      </trkpt>
      <trkpt lat="42.4227470" lon="-2.7955850">
        <ele>549.6</ele>
        <time>2022-08-29T06:43:36Z</time>
      </trkpt>
      <trkpt lat="42.4227640" lon="-2.7956640">
        <ele>549.6</ele>
        <time>2022-08-29T06:43:37Z</time>
      </trkpt>
      <trkpt lat="42.4227820" lon="-2.7957400">
        <ele>549.6</ele>
        <time>2022-08-29T06:43:38Z</time>
      </trkpt>
      <trkpt lat="42.4228000" lon="-2.7958150">
        <ele>549.6</ele>
        <time>2022-08-29T06:43:39Z</time>
      </trkpt>
      <trkpt lat="42.4228130" lon="-2.7958910">
        <ele>549.8</ele>
        <time>2022-08-29T06:43:40Z</time>
      </trkpt>
      <trkpt lat="42.4228170" lon="-2.7959660">
        <ele>549.6</ele>
        <time>2022-08-29T06:43:41Z</time>
      </trkpt>
      <trkpt lat="42.4228220" lon="-2.7960410">
        <ele>549.6</ele>
        <time>2022-08-29T06:43:42Z</time>
      </trkpt>
      <trkpt lat="42.4228350" lon="-2.7961130">
        <ele>549.8</ele>
        <time>2022-08-29T06:43:43Z</time>
      </trkpt>
      <trkpt lat="42.4228500" lon="-2.7961820">
        <ele>550.0</ele>
        <time>2022-08-29T06:43:44Z</time>
      </trkpt>
      <trkpt lat="42.4228660" lon="-2.7962480">
        <ele>550.0</ele>
        <time>2022-08-29T06:43:45Z</time>
      </trkpt>
      <trkpt lat="42.4228810" lon="-2.7963140">
        <ele>550.2</ele>
        <time>2022-08-29T06:43:46Z</time>
      </trkpt>
      <trkpt lat="42.4228930" lon="-2.7963790">
        <ele>550.2</ele>
        <time>2022-08-29T06:43:47Z</time>
      </trkpt>
      <trkpt lat="42.4229030" lon="-2.7964440">
        <ele>550.4</ele>
        <time>2022-08-29T06:43:48Z</time>
      </trkpt>
      <trkpt lat="42.4229120" lon="-2.7965070">
        <ele>550.6</ele>
        <time>2022-08-29T06:43:49Z</time>
      </trkpt>
      <trkpt lat="42.4229210" lon="-2.7965700">
        <ele>550.6</ele>
        <time>2022-08-29T06:43:50Z</time>
      </trkpt>
      <trkpt lat="42.4229310" lon="-2.7966310">
        <ele>551.2</ele>
        <time>2022-08-29T06:43:51Z</time>
      </trkpt>
      <trkpt lat="42.4229400" lon="-2.7966920">
        <ele>551.2</ele>
        <time>2022-08-29T06:43:52Z</time>
      </trkpt>
      <trkpt lat="42.4229490" lon="-2.7967500">
        <ele>551.4</ele>
        <time>2022-08-29T06:43:53Z</time>
      </trkpt>
      <trkpt lat="42.4229580" lon="-2.7968060">
        <ele>551.4</ele>
        <time>2022-08-29T06:43:54Z</time>
      </trkpt>
      <trkpt lat="42.4229650" lon="-2.7968580">
        <ele>551.6</ele>
        <time>2022-08-29T06:43:55Z</time>
      </trkpt>
      <trkpt lat="42.4229730" lon="-2.7969060">
        <ele>551.8</ele>
        <time>2022-08-29T06:43:56Z</time>
      </trkpt>
      <trkpt lat="42.4229820" lon="-2.7969520">
        <ele>552.0</ele>
        <time>2022-08-29T06:43:57Z</time>
      </trkpt>
      <trkpt lat="42.4229910" lon="-2.7970000">
        <ele>552.2</ele>
        <time>2022-08-29T06:43:58Z</time>
      </trkpt>
      <trkpt lat="42.4230030" lon="-2.7970490">
        <ele>552.6</ele>
        <time>2022-08-29T06:43:59Z</time>
      </trkpt>
      <trkpt lat="42.4230150" lon="-2.7970980">
        <ele>553.0</ele>
        <time>2022-08-29T06:44:00Z</time>
      </trkpt>
      <trkpt lat="42.4230250" lon="-2.7971500">
        <ele>553.2</ele>
        <time>2022-08-29T06:44:01Z</time>
      </trkpt>
      <trkpt lat="42.4230320" lon="-2.7972030">
        <ele>553.6</ele>
        <time>2022-08-29T06:44:02Z</time>
      </trkpt>
      <trkpt lat="42.4230380" lon="-2.7972560">
        <ele>553.8</ele>
        <time>2022-08-29T06:44:03Z</time>
      </trkpt>
      <trkpt lat="42.4230450" lon="-2.7973050">
        <ele>554.0</ele>
        <time>2022-08-29T06:44:04Z</time>
      </trkpt>
      <trkpt lat="42.4230600" lon="-2.7973380">
        <ele>554.0</ele>
        <time>2022-08-29T06:44:05Z</time>
      </trkpt>
      <trkpt lat="42.4230720" lon="-2.7973790">
        <ele>554.2</ele>
        <time>2022-08-29T06:44:06Z</time>
      </trkpt>
      <trkpt lat="42.4230810" lon="-2.7974240">
        <ele>554.6</ele>
        <time>2022-08-29T06:44:07Z</time>
      </trkpt>
      <trkpt lat="42.4230870" lon="-2.7974710">
        <ele>554.6</ele>
        <time>2022-08-29T06:44:08Z</time>
      </trkpt>
      <trkpt lat="42.4230940" lon="-2.7975190">
        <ele>554.8</ele>
        <time>2022-08-29T06:44:09Z</time>
      </trkpt>
      <trkpt lat="42.4231030" lon="-2.7975710">
        <ele>555.0</ele>
        <time>2022-08-29T06:44:10Z</time>
      </trkpt>
      <trkpt lat="42.4231140" lon="-2.7976240">
        <ele>555.0</ele>
        <time>2022-08-29T06:44:11Z</time>
      </trkpt>
      <trkpt lat="42.4231260" lon="-2.7976750">
        <ele>555.2</ele>
        <time>2022-08-29T06:44:12Z</time>
      </trkpt>
      <trkpt lat="42.4231360" lon="-2.7977280">
        <ele>555.4</ele>
        <time>2022-08-29T06:44:13Z</time>
      </trkpt>
      <trkpt lat="42.4231450" lon="-2.7977820">
        <ele>555.4</ele>
        <time>2022-08-29T06:44:14Z</time>
      </trkpt>
      <trkpt lat="42.4231520" lon="-2.7978370">
        <ele>555.6</ele>
        <time>2022-08-29T06:44:15Z</time>
      </trkpt>
      <trkpt lat="42.4231610" lon="-2.7978900">
        <ele>555.6</ele>
        <time>2022-08-29T06:44:16Z</time>
      </trkpt>
      <trkpt lat="42.4231700" lon="-2.7979410">
        <ele>555.8</ele>
        <time>2022-08-29T06:44:17Z</time>
      </trkpt>
      <trkpt lat="42.4231810" lon="-2.7979920">
        <ele>555.8</ele>
        <time>2022-08-29T06:44:18Z</time>
      </trkpt>
      <trkpt lat="42.4231910" lon="-2.7980420">
        <ele>556.0</ele>
        <time>2022-08-29T06:44:19Z</time>
      </trkpt>
      <trkpt lat="42.4232000" lon="-2.7980910">
        <ele>556.0</ele>
        <time>2022-08-29T06:44:20Z</time>
      </trkpt>
      <trkpt lat="42.4232110" lon="-2.7981370">
        <ele>556.0</ele>
        <time>2022-08-29T06:44:21Z</time>
      </trkpt>
      <trkpt lat="42.4232230" lon="-2.7981890">
        <ele>556.0</ele>
        <time>2022-08-29T06:44:22Z</time>
      </trkpt>
      <trkpt lat="42.4232340" lon="-2.7982350">
        <ele>556.2</ele>
        <time>2022-08-29T06:44:23Z</time>
      </trkpt>
      <trkpt lat="42.4232460" lon="-2.7982790">
        <ele>556.2</ele>
        <time>2022-08-29T06:44:24Z</time>
      </trkpt>
      <trkpt lat="42.4232590" lon="-2.7983230">
        <ele>556.2</ele>
        <time>2022-08-29T06:44:25Z</time>
      </trkpt>
      <trkpt lat="42.4232710" lon="-2.7983670">
        <ele>556.6</ele>
        <time>2022-08-29T06:44:26Z</time>
      </trkpt>
      <trkpt lat="42.4232830" lon="-2.7984120">
        <ele>556.6</ele>
        <time>2022-08-29T06:44:27Z</time>
      </trkpt>
      <trkpt lat="42.4232940" lon="-2.7984560">
        <ele>556.6</ele>
        <time>2022-08-29T06:44:28Z</time>
      </trkpt>
      <trkpt lat="42.4233050" lon="-2.7984980">
        <ele>556.8</ele>
        <time>2022-08-29T06:44:29Z</time>
      </trkpt>
      <trkpt lat="42.4233170" lon="-2.7985370">
        <ele>556.8</ele>
        <time>2022-08-29T06:44:30Z</time>
      </trkpt>
      <trkpt lat="42.4233280" lon="-2.7985800">
        <ele>557.0</ele>
        <time>2022-08-29T06:44:31Z</time>
      </trkpt>
      <trkpt lat="42.4233440" lon="-2.7986210">
        <ele>557.0</ele>
        <time>2022-08-29T06:44:32Z</time>
      </trkpt>
      <trkpt lat="42.4233610" lon="-2.7986640">
        <ele>557.2</ele>
        <time>2022-08-29T06:44:33Z</time>
      </trkpt>
      <trkpt lat="42.4233820" lon="-2.7987120">
        <ele>557.4</ele>
        <time>2022-08-29T06:44:34Z</time>
      </trkpt>
      <trkpt lat="42.4234010" lon="-2.7987610">
        <ele>557.6</ele>
        <time>2022-08-29T06:44:35Z</time>
      </trkpt>
      <trkpt lat="42.4234230" lon="-2.7988080">
        <ele>557.6</ele>
        <time>2022-08-29T06:44:36Z</time>
      </trkpt>
      <trkpt lat="42.4234480" lon="-2.7988570">
        <ele>557.8</ele>
        <time>2022-08-29T06:44:37Z</time>
      </trkpt>
      <trkpt lat="42.4234750" lon="-2.7989130">
        <ele>557.8</ele>
        <time>2022-08-29T06:44:38Z</time>
      </trkpt>
      <trkpt lat="42.4235050" lon="-2.7989750">
        <ele>557.8</ele>
        <time>2022-08-29T06:44:39Z</time>
      </trkpt>
      <trkpt lat="42.4235340" lon="-2.7990380">
        <ele>557.8</ele>
        <time>2022-08-29T06:44:40Z</time>
      </trkpt>
      <trkpt lat="42.4235610" lon="-2.7991030">
        <ele>558.0</ele>
        <time>2022-08-29T06:44:41Z</time>
      </trkpt>
      <trkpt lat="42.4235910" lon="-2.7991660">
        <ele>558.0</ele>
        <time>2022-08-29T06:44:42Z</time>
      </trkpt>
      <trkpt lat="42.4236190" lon="-2.7992330">
        <ele>557.8</ele>
        <time>2022-08-29T06:44:43Z</time>
      </trkpt>
      <trkpt lat="42.4236500" lon="-2.7992980">
        <ele>557.8</ele>
        <time>2022-08-29T06:44:44Z</time>
      </trkpt>
      <trkpt lat="42.4236810" lon="-2.7993650">
        <ele>557.8</ele>
        <time>2022-08-29T06:44:45Z</time>
      </trkpt>
      <trkpt lat="42.4237090" lon="-2.7994350">
        <ele>557.8</ele>
        <time>2022-08-29T06:44:46Z</time>
      </trkpt>
      <trkpt lat="42.4237360" lon="-2.7995070">
        <ele>557.4</ele>
        <time>2022-08-29T06:44:47Z</time>
      </trkpt>
      <trkpt lat="42.4237630" lon="-2.7995780">
        <ele>556.8</ele>
        <time>2022-08-29T06:44:48Z</time>
      </trkpt>
      <trkpt lat="42.4237900" lon="-2.7996510">
        <ele>556.4</ele>
        <time>2022-08-29T06:44:49Z</time>
      </trkpt>
      <trkpt lat="42.4238180" lon="-2.7997190">
        <ele>556.2</ele>
        <time>2022-08-29T06:44:50Z</time>
      </trkpt>
      <trkpt lat="42.4238450" lon="-2.7997880">
        <ele>556.0</ele>
        <time>2022-08-29T06:44:51Z</time>
      </trkpt>
      <trkpt lat="42.4238680" lon="-2.7998630">
        <ele>556.0</ele>
        <time>2022-08-29T06:44:52Z</time>
      </trkpt>
      <trkpt lat="42.4238910" lon="-2.7999320">
        <ele>555.8</ele>
        <time>2022-08-29T06:44:53Z</time>
      </trkpt>
      <trkpt lat="42.4239130" lon="-2.7999960">
        <ele>555.8</ele>
        <time>2022-08-29T06:44:54Z</time>
      </trkpt>
      <trkpt lat="42.4239280" lon="-2.8000580">
        <ele>555.8</ele>
        <time>2022-08-29T06:44:55Z</time>
      </trkpt>
      <trkpt lat="42.4239410" lon="-2.8001080">
        <ele>555.6</ele>
        <time>2022-08-29T06:44:56Z</time>
      </trkpt>
      <trkpt lat="42.4239560" lon="-2.8001540">
        <ele>555.4</ele>
        <time>2022-08-29T06:44:57Z</time>
      </trkpt>
      <trkpt lat="42.4239700" lon="-2.8001960">
        <ele>555.2</ele>
        <time>2022-08-29T06:44:58Z</time>
      </trkpt>
      <trkpt lat="42.4239820" lon="-2.8002310">
        <ele>555.4</ele>
        <time>2022-08-29T06:44:59Z</time>
      </trkpt>
      <trkpt lat="42.4239930" lon="-2.8002660">
        <ele>555.4</ele>
        <time>2022-08-29T06:45:00Z</time>
      </trkpt>
      <trkpt lat="42.4240040" lon="-2.8003040">
        <ele>555.4</ele>
        <time>2022-08-29T06:45:01Z</time>
      </trkpt>
      <trkpt lat="42.4240220" lon="-2.8003420">
        <ele>555.4</ele>
        <time>2022-08-29T06:45:02Z</time>
      </trkpt>
      <trkpt lat="42.4240430" lon="-2.8003820">
        <ele>555.2</ele>
        <time>2022-08-29T06:45:03Z</time>
      </trkpt>
      <trkpt lat="42.4240630" lon="-2.8004280">
        <ele>555.2</ele>
        <time>2022-08-29T06:45:04Z</time>
      </trkpt>
      <trkpt lat="42.4240860" lon="-2.8004720">
        <ele>555.0</ele>
        <time>2022-08-29T06:45:05Z</time>
      </trkpt>
      <trkpt lat="42.4241100" lon="-2.8005270">
        <ele>555.2</ele>
        <time>2022-08-29T06:45:06Z</time>
      </trkpt>
      <trkpt lat="42.4241370" lon="-2.8005840">
        <ele>555.0</ele>
        <time>2022-08-29T06:45:07Z</time>
      </trkpt>
      <trkpt lat="42.4241630" lon="-2.8006410">
        <ele>555.2</ele>
        <time>2022-08-29T06:45:08Z</time>
      </trkpt>
      <trkpt lat="42.4241930" lon="-2.8006950">
        <ele>555.0</ele>
        <time>2022-08-29T06:45:09Z</time>
      </trkpt>
      <trkpt lat="42.4242150" lon="-2.8007750">
        <ele>555.0</ele>
        <time>2022-08-29T06:45:10Z</time>
      </trkpt>
      <trkpt lat="42.4242420" lon="-2.8008460">
        <ele>555.0</ele>
        <time>2022-08-29T06:45:11Z</time>
      </trkpt>
      <trkpt lat="42.4242690" lon="-2.8009220">
        <ele>554.8</ele>
        <time>2022-08-29T06:45:12Z</time>
      </trkpt>
      <trkpt lat="42.4242870" lon="-2.8010220">
        <ele>554.8</ele>
        <time>2022-08-29T06:45:13Z</time>
      </trkpt>
      <trkpt lat="42.4243170" lon="-2.8010980">
        <ele>554.6</ele>
        <time>2022-08-29T06:45:14Z</time>
      </trkpt>
      <trkpt lat="42.4243490" lon="-2.8011780">
        <ele>554.4</ele>
        <time>2022-08-29T06:45:15Z</time>
      </trkpt>
      <trkpt lat="42.4243830" lon="-2.8012590">
        <ele>554.0</ele>
        <time>2022-08-29T06:45:16Z</time>
      </trkpt>
      <trkpt lat="42.4244180" lon="-2.8013500">
        <ele>554.0</ele>
        <time>2022-08-29T06:45:17Z</time>
      </trkpt>
      <trkpt lat="42.4244510" lon="-2.8014470">
        <ele>553.8</ele>
        <time>2022-08-29T06:45:18Z</time>
      </trkpt>
      <trkpt lat="42.4244860" lon="-2.8015440">
        <ele>553.6</ele>
        <time>2022-08-29T06:45:19Z</time>
      </trkpt>
      <trkpt lat="42.4245210" lon="-2.8016470">
        <ele>553.2</ele>
        <time>2022-08-29T06:45:20Z</time>
      </trkpt>
      <trkpt lat="42.4245490" lon="-2.8017590">
        <ele>552.8</ele>
        <time>2022-08-29T06:45:21Z</time>
      </trkpt>
      <trkpt lat="42.4245700" lon="-2.8018870">
        <ele>552.4</ele>
        <time>2022-08-29T06:45:22Z</time>
      </trkpt>
      <trkpt lat="42.4245940" lon="-2.8020070">
        <ele>552.0</ele>
        <time>2022-08-29T06:45:23Z</time>
      </trkpt>
      <trkpt lat="42.4246130" lon="-2.8021360">
        <ele>551.6</ele>
        <time>2022-08-29T06:45:24Z</time>
      </trkpt>
      <trkpt lat="42.4246380" lon="-2.8022610">
        <ele>551.0</ele>
        <time>2022-08-29T06:45:25Z</time>
      </trkpt>
      <trkpt lat="42.4246700" lon="-2.8023760">
        <ele>550.4</ele>
        <time>2022-08-29T06:45:26Z</time>
      </trkpt>
      <trkpt lat="42.4247110" lon="-2.8024800">
        <ele>549.8</ele>
        <time>2022-08-29T06:45:27Z</time>
      </trkpt>
      <trkpt lat="42.4247660" lon="-2.8025690">
        <ele>549.2</ele>
        <time>2022-08-29T06:45:28Z</time>
      </trkpt>
      <trkpt lat="42.4248270" lon="-2.8026480">
        <ele>548.4</ele>
        <time>2022-08-29T06:45:29Z</time>
      </trkpt>
      <trkpt lat="42.4248910" lon="-2.8027180">
        <ele>547.6</ele>
        <time>2022-08-29T06:45:30Z</time>
      </trkpt>
      <trkpt lat="42.4249590" lon="-2.8027840">
        <ele>546.8</ele>
        <time>2022-08-29T06:45:31Z</time>
      </trkpt>
      <trkpt lat="42.4250270" lon="-2.8028480">
        <ele>546.2</ele>
        <time>2022-08-29T06:45:32Z</time>
      </trkpt>
      <trkpt lat="42.4250920" lon="-2.8029100">
        <ele>545.8</ele>
        <time>2022-08-29T06:45:33Z</time>
      </trkpt>
      <trkpt lat="42.4251570" lon="-2.8029750">
        <ele>545.4</ele>
        <time>2022-08-29T06:45:34Z</time>
      </trkpt>
      <trkpt lat="42.4252220" lon="-2.8030420">
        <ele>545.2</ele>
        <time>2022-08-29T06:45:35Z</time>
      </trkpt>
      <trkpt lat="42.4252890" lon="-2.8031100">
        <ele>544.8</ele>
        <time>2022-08-29T06:45:36Z</time>
      </trkpt>
      <trkpt lat="42.4253550" lon="-2.8031770">
        <ele>544.6</ele>
        <time>2022-08-29T06:45:37Z</time>
      </trkpt>
      <trkpt lat="42.4254240" lon="-2.8032400">
        <ele>544.6</ele>
        <time>2022-08-29T06:45:38Z</time>
      </trkpt>
      <trkpt lat="42.4254930" lon="-2.8033040">
        <ele>544.2</ele>
        <time>2022-08-29T06:45:39Z</time>
      </trkpt>
      <trkpt lat="42.4255590" lon="-2.8033650">
        <ele>544.2</ele>
        <time>2022-08-29T06:45:40Z</time>
      </trkpt>
      <trkpt lat="42.4256230" lon="-2.8034210">
        <ele>544.2</ele>
        <time>2022-08-29T06:45:41Z</time>
      </trkpt>
      <trkpt lat="42.4256880" lon="-2.8034750">
        <ele>544.0</ele>
        <time>2022-08-29T06:45:42Z</time>
      </trkpt>
      <trkpt lat="42.4257500" lon="-2.8035290">
        <ele>543.8</ele>
        <time>2022-08-29T06:45:43Z</time>
      </trkpt>
      <trkpt lat="42.4258080" lon="-2.8035870">
        <ele>543.4</ele>
        <time>2022-08-29T06:45:44Z</time>
      </trkpt>
      <trkpt lat="42.4258490" lon="-2.8036600">
        <ele>543.6</ele>
        <time>2022-08-29T06:45:45Z</time>
      </trkpt>
      <trkpt lat="42.4258740" lon="-2.8037400">
        <ele>543.4</ele>
        <time>2022-08-29T06:45:46Z</time>
      </trkpt>
      <trkpt lat="42.4258820" lon="-2.8038270">
        <ele>543.4</ele>
        <time>2022-08-29T06:45:47Z</time>
      </trkpt>
      <trkpt lat="42.4258860" lon="-2.8039130">
        <ele>543.4</ele>
        <time>2022-08-29T06:45:48Z</time>
      </trkpt>
      <trkpt lat="42.4258920" lon="-2.8039950">
        <ele>543.4</ele>
        <time>2022-08-29T06:45:49Z</time>
      </trkpt>
      <trkpt lat="42.4258950" lon="-2.8040790">
        <ele>543.4</ele>
        <time>2022-08-29T06:45:50Z</time>
      </trkpt>
      <trkpt lat="42.4259000" lon="-2.8041570">
        <ele>543.4</ele>
        <time>2022-08-29T06:45:51Z</time>
      </trkpt>
      <trkpt lat="42.4259060" lon="-2.8042310">
        <ele>543.4</ele>
        <time>2022-08-29T06:45:52Z</time>
      </trkpt>
      <trkpt lat="42.4259120" lon="-2.8043060">
        <ele>543.4</ele>
        <time>2022-08-29T06:45:53Z</time>
      </trkpt>
      <trkpt lat="42.4259200" lon="-2.8043780">
        <ele>543.4</ele>
        <time>2022-08-29T06:45:54Z</time>
      </trkpt>
      <trkpt lat="42.4259280" lon="-2.8044510">
        <ele>543.6</ele>
        <time>2022-08-29T06:45:55Z</time>
      </trkpt>
      <trkpt lat="42.4259360" lon="-2.8045220">
        <ele>543.4</ele>
        <time>2022-08-29T06:45:56Z</time>
      </trkpt>
      <trkpt lat="42.4259440" lon="-2.8045940">
        <ele>543.6</ele>
        <time>2022-08-29T06:45:57Z</time>
      </trkpt>
      <trkpt lat="42.4259500" lon="-2.8046660">
        <ele>543.6</ele>
        <time>2022-08-29T06:45:58Z</time>
      </trkpt>
      <trkpt lat="42.4259570" lon="-2.8047350">
        <ele>543.8</ele>
        <time>2022-08-29T06:45:59Z</time>
      </trkpt>
      <trkpt lat="42.4259630" lon="-2.8048050">
        <ele>544.0</ele>
        <time>2022-08-29T06:46:00Z</time>
      </trkpt>
      <trkpt lat="42.4259670" lon="-2.8048770">
        <ele>544.2</ele>
        <time>2022-08-29T06:46:01Z</time>
      </trkpt>
      <trkpt lat="42.4259710" lon="-2.8049480">
        <ele>544.2</ele>
        <time>2022-08-29T06:46:02Z</time>
      </trkpt>
      <trkpt lat="42.4259780" lon="-2.8050160">
        <ele>544.4</ele>
        <time>2022-08-29T06:46:03Z</time>
      </trkpt>
      <trkpt lat="42.4259850" lon="-2.8050830">
        <ele>544.2</ele>
        <time>2022-08-29T06:46:04Z</time>
      </trkpt>
      <trkpt lat="42.4259920" lon="-2.8051520">
        <ele>544.2</ele>
        <time>2022-08-29T06:46:05Z</time>
      </trkpt>
      <trkpt lat="42.4259990" lon="-2.8052220">
        <ele>544.6</ele>
        <time>2022-08-29T06:46:06Z</time>
      </trkpt>
      <trkpt lat="42.4260070" lon="-2.8052910">
        <ele>544.8</ele>
        <time>2022-08-29T06:46:07Z</time>
      </trkpt>
      <trkpt lat="42.4260140" lon="-2.8053590">
        <ele>545.0</ele>
        <time>2022-08-29T06:46:08Z</time>
      </trkpt>
      <trkpt lat="42.4260210" lon="-2.8054280">
        <ele>545.0</ele>
        <time>2022-08-29T06:46:09Z</time>
      </trkpt>
      <trkpt lat="42.4260290" lon="-2.8054960">
        <ele>544.8</ele>
        <time>2022-08-29T06:46:10Z</time>
      </trkpt>
      <trkpt lat="42.4260370" lon="-2.8055640">
        <ele>544.8</ele>
        <time>2022-08-29T06:46:11Z</time>
      </trkpt>
      <trkpt lat="42.4260430" lon="-2.8056330">
        <ele>545.0</ele>
        <time>2022-08-29T06:46:12Z</time>
      </trkpt>
      <trkpt lat="42.4260500" lon="-2.8057020">
        <ele>545.0</ele>
        <time>2022-08-29T06:46:13Z</time>
      </trkpt>
      <trkpt lat="42.4260580" lon="-2.8057720">
        <ele>545.2</ele>
        <time>2022-08-29T06:46:14Z</time>
      </trkpt>
      <trkpt lat="42.4260660" lon="-2.8058410">
        <ele>545.4</ele>
        <time>2022-08-29T06:46:15Z</time>
      </trkpt>
      <trkpt lat="42.4260740" lon="-2.8059120">
        <ele>545.6</ele>
        <time>2022-08-29T06:46:16Z</time>
      </trkpt>
      <trkpt lat="42.4260820" lon="-2.8059820">
        <ele>545.8</ele>
        <time>2022-08-29T06:46:17Z</time>
      </trkpt>
      <trkpt lat="42.4260900" lon="-2.8060510">
        <ele>545.8</ele>
        <time>2022-08-29T06:46:18Z</time>
      </trkpt>
      <trkpt lat="42.4260970" lon="-2.8061200">
        <ele>546.0</ele>
        <time>2022-08-29T06:46:19Z</time>
      </trkpt>
      <trkpt lat="42.4261040" lon="-2.8061890">
        <ele>546.2</ele>
        <time>2022-08-29T06:46:20Z</time>
      </trkpt>
      <trkpt lat="42.4261100" lon="-2.8062590">
        <ele>546.0</ele>
        <time>2022-08-29T06:46:21Z</time>
      </trkpt>
      <trkpt lat="42.4261160" lon="-2.8063290">
        <ele>546.2</ele>
        <time>2022-08-29T06:46:22Z</time>
      </trkpt>
      <trkpt lat="42.4261240" lon="-2.8064000">
        <ele>546.2</ele>
        <time>2022-08-29T06:46:23Z</time>
      </trkpt>
      <trkpt lat="42.4261320" lon="-2.8064700">
        <ele>546.4</ele>
        <time>2022-08-29T06:46:24Z</time>
      </trkpt>
      <trkpt lat="42.4261390" lon="-2.8065410">
        <ele>546.6</ele>
        <time>2022-08-29T06:46:25Z</time>
      </trkpt>
      <trkpt lat="42.4261440" lon="-2.8066120">
        <ele>546.6</ele>
        <time>2022-08-29T06:46:26Z</time>
      </trkpt>
      <trkpt lat="42.4261520" lon="-2.8066820">
        <ele>546.8</ele>
        <time>2022-08-29T06:46:27Z</time>
      </trkpt>
      <trkpt lat="42.4261620" lon="-2.8067500">
        <ele>546.8</ele>
        <time>2022-08-29T06:46:28Z</time>
      </trkpt>
      <trkpt lat="42.4261690" lon="-2.8068180">
        <ele>546.8</ele>
        <time>2022-08-29T06:46:29Z</time>
      </trkpt>
      <trkpt lat="42.4261750" lon="-2.8068860">
        <ele>546.8</ele>
        <time>2022-08-29T06:46:30Z</time>
      </trkpt>
      <trkpt lat="42.4261800" lon="-2.8069520">
        <ele>547.0</ele>
        <time>2022-08-29T06:46:31Z</time>
      </trkpt>
      <trkpt lat="42.4261860" lon="-2.8070160">
        <ele>546.8</ele>
        <time>2022-08-29T06:46:32Z</time>
      </trkpt>
      <trkpt lat="42.4261920" lon="-2.8070800">
        <ele>547.0</ele>
        <time>2022-08-29T06:46:33Z</time>
      </trkpt>
      <trkpt lat="42.4262000" lon="-2.8071460">
        <ele>546.8</ele>
        <time>2022-08-29T06:46:34Z</time>
      </trkpt>
      <trkpt lat="42.4262080" lon="-2.8072120">
        <ele>547.0</ele>
        <time>2022-08-29T06:46:35Z</time>
      </trkpt>
      <trkpt lat="42.4262180" lon="-2.8072770">
        <ele>547.0</ele>
        <time>2022-08-29T06:46:36Z</time>
      </trkpt>
      <trkpt lat="42.4262280" lon="-2.8073430">
        <ele>547.0</ele>
        <time>2022-08-29T06:46:37Z</time>
      </trkpt>
      <trkpt lat="42.4262410" lon="-2.8074070">
        <ele>547.0</ele>
        <time>2022-08-29T06:46:38Z</time>
      </trkpt>
      <trkpt lat="42.4262540" lon="-2.8074700">
        <ele>547.2</ele>
        <time>2022-08-29T06:46:39Z</time>
      </trkpt>
      <trkpt lat="42.4262670" lon="-2.8075340">
        <ele>547.4</ele>
        <time>2022-08-29T06:46:40Z</time>
      </trkpt>
      <trkpt lat="42.4262810" lon="-2.8075980">
        <ele>547.2</ele>
        <time>2022-08-29T06:46:41Z</time>
      </trkpt>
      <trkpt lat="42.4262960" lon="-2.8076620">
        <ele>547.4</ele>
        <time>2022-08-29T06:46:42Z</time>
      </trkpt>
      <trkpt lat="42.4263120" lon="-2.8077270">
        <ele>547.4</ele>
        <time>2022-08-29T06:46:43Z</time>
      </trkpt>
      <trkpt lat="42.4263290" lon="-2.8077910">
        <ele>547.4</ele>
        <time>2022-08-29T06:46:44Z</time>
      </trkpt>
      <trkpt lat="42.4263470" lon="-2.8078560">
        <ele>547.6</ele>
        <time>2022-08-29T06:46:45Z</time>
      </trkpt>
      <trkpt lat="42.4263670" lon="-2.8079200">
        <ele>547.6</ele>
        <time>2022-08-29T06:46:46Z</time>
      </trkpt>
      <trkpt lat="42.4263850" lon="-2.8079850">
        <ele>547.6</ele>
        <time>2022-08-29T06:46:47Z</time>
      </trkpt>
      <trkpt lat="42.4264040" lon="-2.8080480">
        <ele>547.8</ele>
        <time>2022-08-29T06:46:48Z</time>
      </trkpt>
      <trkpt lat="42.4264220" lon="-2.8081130">
        <ele>548.0</ele>
        <time>2022-08-29T06:46:49Z</time>
      </trkpt>
      <trkpt lat="42.4264390" lon="-2.8081780">
        <ele>547.8</ele>
        <time>2022-08-29T06:46:50Z</time>
      </trkpt>
      <trkpt lat="42.4264570" lon="-2.8082440">
        <ele>548.0</ele>
        <time>2022-08-29T06:46:51Z</time>
      </trkpt>
      <trkpt lat="42.4264730" lon="-2.8083110">
        <ele>548.0</ele>
        <time>2022-08-29T06:46:52Z</time>
      </trkpt>
      <trkpt lat="42.4264910" lon="-2.8083770">
        <ele>548.2</ele>
        <time>2022-08-29T06:46:53Z</time>
      </trkpt>
      <trkpt lat="42.4265090" lon="-2.8084420">
        <ele>548.2</ele>
        <time>2022-08-29T06:46:54Z</time>
      </trkpt>
      <trkpt lat="42.4265250" lon="-2.8085080">
        <ele>548.2</ele>
        <time>2022-08-29T06:46:55Z</time>
      </trkpt>
      <trkpt lat="42.4265430" lon="-2.8085720">
        <ele>548.4</ele>
        <time>2022-08-29T06:46:56Z</time>
      </trkpt>
      <trkpt lat="42.4265620" lon="-2.8086350">
        <ele>548.2</ele>
        <time>2022-08-29T06:46:57Z</time>
      </trkpt>
      <trkpt lat="42.4265790" lon="-2.8086970">
        <ele>548.4</ele>
        <time>2022-08-29T06:46:58Z</time>
      </trkpt>
      <trkpt lat="42.4265970" lon="-2.8087580">
        <ele>548.6</ele>
        <time>2022-08-29T06:46:59Z</time>
      </trkpt>
      <trkpt lat="42.4266140" lon="-2.8088180">
        <ele>548.4</ele>
        <time>2022-08-29T06:47:00Z</time>
      </trkpt>
      <trkpt lat="42.4266310" lon="-2.8088770">
        <ele>548.6</ele>
        <time>2022-08-29T06:47:01Z</time>
      </trkpt>
      <trkpt lat="42.4266470" lon="-2.8089360">
        <ele>548.6</ele>
        <time>2022-08-29T06:47:02Z</time>
      </trkpt>
      <trkpt lat="42.4266630" lon="-2.8089930">
        <ele>548.8</ele>
        <time>2022-08-29T06:47:03Z</time>
      </trkpt>
      <trkpt lat="42.4266790" lon="-2.8090470">
        <ele>548.8</ele>
        <time>2022-08-29T06:47:04Z</time>
      </trkpt>
      <trkpt lat="42.4266970" lon="-2.8090990">
        <ele>549.0</ele>
        <time>2022-08-29T06:47:05Z</time>
      </trkpt>
      <trkpt lat="42.4267130" lon="-2.8091500">
        <ele>549.2</ele>
        <time>2022-08-29T06:47:06Z</time>
      </trkpt>
      <trkpt lat="42.4267280" lon="-2.8092000">
        <ele>549.4</ele>
        <time>2022-08-29T06:47:07Z</time>
      </trkpt>
      <trkpt lat="42.4267420" lon="-2.8092480">
        <ele>549.6</ele>
        <time>2022-08-29T06:47:08Z</time>
      </trkpt>
      <trkpt lat="42.4267550" lon="-2.8092980">
        <ele>549.8</ele>
        <time>2022-08-29T06:47:09Z</time>
      </trkpt>
      <trkpt lat="42.4267700" lon="-2.8093460">
        <ele>549.8</ele>
        <time>2022-08-29T06:47:10Z</time>
      </trkpt>
      <trkpt lat="42.4267840" lon="-2.8093940">
        <ele>550.0</ele>
        <time>2022-08-29T06:47:11Z</time>
      </trkpt>
      <trkpt lat="42.4267990" lon="-2.8094430">
        <ele>550.4</ele>
        <time>2022-08-29T06:47:12Z</time>
      </trkpt>
      <trkpt lat="42.4268150" lon="-2.8094900">
        <ele>550.6</ele>
        <time>2022-08-29T06:47:13Z</time>
      </trkpt>
      <trkpt lat="42.4268290" lon="-2.8095380">
        <ele>550.8</ele>
        <time>2022-08-29T06:47:14Z</time>
      </trkpt>
      <trkpt lat="42.4268420" lon="-2.8095870">
        <ele>551.2</ele>
        <time>2022-08-29T06:47:15Z</time>
      </trkpt>
      <trkpt lat="42.4268570" lon="-2.8096360">
        <ele>551.4</ele>
        <time>2022-08-29T06:47:16Z</time>
      </trkpt>
      <trkpt lat="42.4268710" lon="-2.8096830">
        <ele>551.4</ele>
        <time>2022-08-29T06:47:17Z</time>
      </trkpt>
      <trkpt lat="42.4268830" lon="-2.8097310">
        <ele>551.8</ele>
        <time>2022-08-29T06:47:18Z</time>
      </trkpt>
      <trkpt lat="42.4268970" lon="-2.8097770">
        <ele>552.0</ele>
        <time>2022-08-29T06:47:19Z</time>
      </trkpt>
      <trkpt lat="42.4269110" lon="-2.8098240">
        <ele>552.0</ele>
        <time>2022-08-29T06:47:20Z</time>
      </trkpt>
      <trkpt lat="42.4269210" lon="-2.8098710">
        <ele>552.0</ele>
        <time>2022-08-29T06:47:21Z</time>
      </trkpt>
      <trkpt lat="42.4269340" lon="-2.8099190">
        <ele>552.2</ele>
        <time>2022-08-29T06:47:22Z</time>
      </trkpt>
      <trkpt lat="42.4269500" lon="-2.8099670">
        <ele>552.2</ele>
        <time>2022-08-29T06:47:23Z</time>
      </trkpt>
      <trkpt lat="42.4269650" lon="-2.8100130">
        <ele>552.2</ele>
        <time>2022-08-29T06:47:24Z</time>
      </trkpt>
      <trkpt lat="42.4269790" lon="-2.8100590">
        <ele>552.4</ele>
        <time>2022-08-29T06:47:25Z</time>
      </trkpt>
      <trkpt lat="42.4269900" lon="-2.8101080">
        <ele>552.6</ele>
        <time>2022-08-29T06:47:26Z</time>
      </trkpt>
      <trkpt lat="42.4270030" lon="-2.8101560">
        <ele>552.8</ele>
        <time>2022-08-29T06:47:27Z</time>
      </trkpt>
      <trkpt lat="42.4270160" lon="-2.8102050">
        <ele>553.2</ele>
        <time>2022-08-29T06:47:28Z</time>
      </trkpt>
      <trkpt lat="42.4270300" lon="-2.8102530">
        <ele>553.2</ele>
        <time>2022-08-29T06:47:29Z</time>
      </trkpt>
      <trkpt lat="42.4270440" lon="-2.8102990">
        <ele>553.4</ele>
        <time>2022-08-29T06:47:30Z</time>
      </trkpt>
      <trkpt lat="42.4270590" lon="-2.8103440">
        <ele>553.6</ele>
        <time>2022-08-29T06:47:31Z</time>
      </trkpt>
      <trkpt lat="42.4270760" lon="-2.8103900">
        <ele>553.8</ele>
        <time>2022-08-29T06:47:32Z</time>
      </trkpt>
      <trkpt lat="42.4270920" lon="-2.8104380">
        <ele>554.0</ele>
        <time>2022-08-29T06:47:33Z</time>
      </trkpt>
      <trkpt lat="42.4271070" lon="-2.8104880">
        <ele>554.2</ele>
        <time>2022-08-29T06:47:34Z</time>
      </trkpt>
      <trkpt lat="42.4271230" lon="-2.8105370">
        <ele>554.2</ele>
        <time>2022-08-29T06:47:35Z</time>
      </trkpt>
      <trkpt lat="42.4271390" lon="-2.8105860">
        <ele>554.8</ele>
        <time>2022-08-29T06:47:36Z</time>
      </trkpt>
      <trkpt lat="42.4271540" lon="-2.8106360">
        <ele>554.8</ele>
        <time>2022-08-29T06:47:37Z</time>
      </trkpt>
      <trkpt lat="42.4271690" lon="-2.8106880">
        <ele>555.0</ele>
        <time>2022-08-29T06:47:38Z</time>
      </trkpt>
      <trkpt lat="42.4271860" lon="-2.8107370">
        <ele>555.2</ele>
        <time>2022-08-29T06:47:39Z</time>
      </trkpt>
      <trkpt lat="42.4272030" lon="-2.8107860">
        <ele>555.6</ele>
        <time>2022-08-29T06:47:40Z</time>
      </trkpt>
      <trkpt lat="42.4272200" lon="-2.8108340">
        <ele>555.8</ele>
        <time>2022-08-29T06:47:41Z</time>
      </trkpt>
      <trkpt lat="42.4272390" lon="-2.8108820">
        <ele>555.8</ele>
        <time>2022-08-29T06:47:42Z</time>
      </trkpt>
      <trkpt lat="42.4272580" lon="-2.8109290">
        <ele>555.8</ele>
        <time>2022-08-29T06:47:43Z</time>
      </trkpt>
      <trkpt lat="42.4272780" lon="-2.8109750">
        <ele>555.8</ele>
        <time>2022-08-29T06:47:44Z</time>
      </trkpt>
      <trkpt lat="42.4272980" lon="-2.8110220">
        <ele>555.8</ele>
        <time>2022-08-29T06:47:45Z</time>
      </trkpt>
      <trkpt lat="42.4273190" lon="-2.8110660">
        <ele>556.0</ele>
        <time>2022-08-29T06:47:46Z</time>
      </trkpt>
      <trkpt lat="42.4273410" lon="-2.8111100">
        <ele>556.2</ele>
        <time>2022-08-29T06:47:47Z</time>
      </trkpt>
      <trkpt lat="42.4273620" lon="-2.8111550">
        <ele>556.2</ele>
        <time>2022-08-29T06:47:48Z</time>
      </trkpt>
      <trkpt lat="42.4273820" lon="-2.8112010">
        <ele>556.6</ele>
        <time>2022-08-29T06:47:49Z</time>
      </trkpt>
      <trkpt lat="42.4274030" lon="-2.8112480">
        <ele>556.6</ele>
        <time>2022-08-29T06:47:50Z</time>
      </trkpt>
      <trkpt lat="42.4274240" lon="-2.8112940">
        <ele>556.8</ele>
        <time>2022-08-29T06:47:51Z</time>
      </trkpt>
      <trkpt lat="42.4274450" lon="-2.8113390">
        <ele>557.0</ele>
        <time>2022-08-29T06:47:52Z</time>
      </trkpt>
      <trkpt lat="42.4274660" lon="-2.8113860">
        <ele>556.8</ele>
        <time>2022-08-29T06:47:53Z</time>
      </trkpt>
      <trkpt lat="42.4274870" lon="-2.8114320">
        <ele>557.0</ele>
        <time>2022-08-29T06:47:54Z</time>
      </trkpt>
      <trkpt lat="42.4275090" lon="-2.8114790">
        <ele>557.2</ele>
        <time>2022-08-29T06:47:55Z</time>
      </trkpt>
      <trkpt lat="42.4275300" lon="-2.8115240">
        <ele>557.4</ele>
        <time>2022-08-29T06:47:56Z</time>
      </trkpt>
      <trkpt lat="42.4275500" lon="-2.8115690">
        <ele>557.6</ele>
        <time>2022-08-29T06:47:57Z</time>
      </trkpt>
      <trkpt lat="42.4275720" lon="-2.8116140">
        <ele>557.6</ele>
        <time>2022-08-29T06:47:58Z</time>
      </trkpt>
      <trkpt lat="42.4275930" lon="-2.8116580">
        <ele>557.8</ele>
        <time>2022-08-29T06:47:59Z</time>
      </trkpt>
      <trkpt lat="42.4276140" lon="-2.8117030">
        <ele>557.8</ele>
        <time>2022-08-29T06:48:00Z</time>
      </trkpt>
      <trkpt lat="42.4276340" lon="-2.8117480">
        <ele>557.8</ele>
        <time>2022-08-29T06:48:01Z</time>
      </trkpt>
      <trkpt lat="42.4276550" lon="-2.8117920">
        <ele>558.0</ele>
        <time>2022-08-29T06:48:02Z</time>
      </trkpt>
      <trkpt lat="42.4276770" lon="-2.8118360">
        <ele>558.0</ele>
        <time>2022-08-29T06:48:03Z</time>
      </trkpt>
      <trkpt lat="42.4276970" lon="-2.8118800">
        <ele>558.0</ele>
        <time>2022-08-29T06:48:04Z</time>
      </trkpt>
      <trkpt lat="42.4277160" lon="-2.8119230">
        <ele>558.2</ele>
        <time>2022-08-29T06:48:05Z</time>
      </trkpt>
      <trkpt lat="42.4277350" lon="-2.8119670">
        <ele>558.2</ele>
        <time>2022-08-29T06:48:06Z</time>
      </trkpt>
      <trkpt lat="42.4277550" lon="-2.8120100">
        <ele>558.2</ele>
        <time>2022-08-29T06:48:07Z</time>
      </trkpt>
      <trkpt lat="42.4277750" lon="-2.8120520">
        <ele>558.4</ele>
        <time>2022-08-29T06:48:08Z</time>
      </trkpt>
      <trkpt lat="42.4277930" lon="-2.8120930">
        <ele>558.6</ele>
        <time>2022-08-29T06:48:09Z</time>
      </trkpt>
      <trkpt lat="42.4278110" lon="-2.8121340">
        <ele>558.6</ele>
        <time>2022-08-29T06:48:10Z</time>
      </trkpt>
      <trkpt lat="42.4278310" lon="-2.8121740">
        <ele>558.8</ele>
        <time>2022-08-29T06:48:11Z</time>
      </trkpt>
      <trkpt lat="42.4278500" lon="-2.8122140">
        <ele>559.0</ele>
        <time>2022-08-29T06:48:12Z</time>
      </trkpt>
      <trkpt lat="42.4278700" lon="-2.8122540">
        <ele>559.0</ele>
        <time>2022-08-29T06:48:13Z</time>
      </trkpt>
      <trkpt lat="42.4278910" lon="-2.8122920">
        <ele>559.0</ele>
        <time>2022-08-29T06:48:14Z</time>
      </trkpt>
      <trkpt lat="42.4279110" lon="-2.8123320">
        <ele>559.2</ele>
        <time>2022-08-29T06:48:15Z</time>
      </trkpt>
      <trkpt lat="42.4279290" lon="-2.8123730">
        <ele>559.4</ele>
        <time>2022-08-29T06:48:16Z</time>
      </trkpt>
      <trkpt lat="42.4279480" lon="-2.8124160">
        <ele>559.4</ele>
        <time>2022-08-29T06:48:17Z</time>
      </trkpt>
      <trkpt lat="42.4279670" lon="-2.8124600">
        <ele>559.6</ele>
        <time>2022-08-29T06:48:18Z</time>
      </trkpt>
      <trkpt lat="42.4279850" lon="-2.8125030">
        <ele>559.8</ele>
        <time>2022-08-29T06:48:19Z</time>
      </trkpt>
      <trkpt lat="42.4280040" lon="-2.8125460">
        <ele>560.0</ele>
        <time>2022-08-29T06:48:20Z</time>
      </trkpt>
      <trkpt lat="42.4280230" lon="-2.8125910">
        <ele>560.0</ele>
        <time>2022-08-29T06:48:21Z</time>
      </trkpt>
      <trkpt lat="42.4280430" lon="-2.8126340">
        <ele>560.0</ele>
        <time>2022-08-29T06:48:22Z</time>
      </trkpt>
      <trkpt lat="42.4280620" lon="-2.8126780">
        <ele>560.2</ele>
        <time>2022-08-29T06:48:23Z</time>
      </trkpt>
      <trkpt lat="42.4280810" lon="-2.8127210">
        <ele>560.2</ele>
        <time>2022-08-29T06:48:24Z</time>
      </trkpt>
      <trkpt lat="42.4280970" lon="-2.8127640">
        <ele>560.4</ele>
        <time>2022-08-29T06:48:25Z</time>
      </trkpt>
      <trkpt lat="42.4281120" lon="-2.8128090">
        <ele>560.6</ele>
        <time>2022-08-29T06:48:26Z</time>
      </trkpt>
      <trkpt lat="42.4281280" lon="-2.8128550">
        <ele>560.8</ele>
        <time>2022-08-29T06:48:27Z</time>
      </trkpt>
      <trkpt lat="42.4281450" lon="-2.8129000">
        <ele>560.8</ele>
        <time>2022-08-29T06:48:28Z</time>
      </trkpt>
      <trkpt lat="42.4281630" lon="-2.8129440">
        <ele>560.8</ele>
        <time>2022-08-29T06:48:29Z</time>
      </trkpt>
      <trkpt lat="42.4281800" lon="-2.8129880">
        <ele>560.8</ele>
        <time>2022-08-29T06:48:30Z</time>
      </trkpt>
      <trkpt lat="42.4281950" lon="-2.8130320">
        <ele>560.8</ele>
        <time>2022-08-29T06:48:31Z</time>
      </trkpt>
      <trkpt lat="42.4282100" lon="-2.8130770">
        <ele>561.0</ele>
        <time>2022-08-29T06:48:32Z</time>
      </trkpt>
      <trkpt lat="42.4282250" lon="-2.8131220">
        <ele>561.2</ele>
        <time>2022-08-29T06:48:33Z</time>
      </trkpt>
      <trkpt lat="42.4282420" lon="-2.8131660">
        <ele>561.2</ele>
        <time>2022-08-29T06:48:34Z</time>
      </trkpt>
      <trkpt lat="42.4282580" lon="-2.8132100">
        <ele>561.2</ele>
        <time>2022-08-29T06:48:35Z</time>
      </trkpt>
      <trkpt lat="42.4282750" lon="-2.8132530">
        <ele>561.4</ele>
        <time>2022-08-29T06:48:36Z</time>
      </trkpt>
      <trkpt lat="42.4282940" lon="-2.8132940">
        <ele>561.8</ele>
        <time>2022-08-29T06:48:37Z</time>
      </trkpt>
      <trkpt lat="42.4283130" lon="-2.8133340">
        <ele>562.2</ele>
        <time>2022-08-29T06:48:38Z</time>
      </trkpt>
      <trkpt lat="42.4283300" lon="-2.8133760">
        <ele>562.4</ele>
        <time>2022-08-29T06:48:39Z</time>
      </trkpt>
      <trkpt lat="42.4283460" lon="-2.8134190">
        <ele>562.4</ele>
        <time>2022-08-29T06:48:40Z</time>
      </trkpt>
      <trkpt lat="42.4283610" lon="-2.8134640">
        <ele>562.4</ele>
        <time>2022-08-29T06:48:41Z</time>
      </trkpt>
      <trkpt lat="42.4283780" lon="-2.8135100">
        <ele>562.6</ele>
        <time>2022-08-29T06:48:42Z</time>
      </trkpt>
      <trkpt lat="42.4283930" lon="-2.8135580">
        <ele>562.6</ele>
        <time>2022-08-29T06:48:43Z</time>
      </trkpt>
      <trkpt lat="42.4284060" lon="-2.8136060">
        <ele>562.8</ele>
        <time>2022-08-29T06:48:44Z</time>
      </trkpt>
      <trkpt lat="42.4284200" lon="-2.8136550">
        <ele>563.0</ele>
        <time>2022-08-29T06:48:45Z</time>
      </trkpt>
      <trkpt lat="42.4284360" lon="-2.8137030">
        <ele>563.4</ele>
        <time>2022-08-29T06:48:46Z</time>
      </trkpt>
      <trkpt lat="42.4284540" lon="-2.8137510">
        <ele>563.6</ele>
        <time>2022-08-29T06:48:47Z</time>
      </trkpt>
      <trkpt lat="42.4284700" lon="-2.8137980">
        <ele>563.6</ele>
        <time>2022-08-29T06:48:48Z</time>
      </trkpt>
      <trkpt lat="42.4284860" lon="-2.8138460">
        <ele>563.8</ele>
        <time>2022-08-29T06:48:49Z</time>
      </trkpt>
      <trkpt lat="42.4285010" lon="-2.8138960">
        <ele>564.2</ele>
        <time>2022-08-29T06:48:50Z</time>
      </trkpt>
      <trkpt lat="42.4285160" lon="-2.8139460">
        <ele>564.2</ele>
        <time>2022-08-29T06:48:51Z</time>
      </trkpt>
      <trkpt lat="42.4285310" lon="-2.8139940">
        <ele>564.4</ele>
        <time>2022-08-29T06:48:52Z</time>
      </trkpt>
      <trkpt lat="42.4285450" lon="-2.8140430">
        <ele>564.6</ele>
        <time>2022-08-29T06:48:53Z</time>
      </trkpt>
      <trkpt lat="42.4285590" lon="-2.8140930">
        <ele>564.6</ele>
        <time>2022-08-29T06:48:54Z</time>
      </trkpt>
      <trkpt lat="42.4285700" lon="-2.8141450">
        <ele>564.6</ele>
        <time>2022-08-29T06:48:55Z</time>
      </trkpt>
      <trkpt lat="42.4285810" lon="-2.8141970">
        <ele>564.6</ele>
        <time>2022-08-29T06:48:56Z</time>
      </trkpt>
      <trkpt lat="42.4285910" lon="-2.8142500">
        <ele>564.6</ele>
        <time>2022-08-29T06:48:57Z</time>
      </trkpt>
      <trkpt lat="42.4286000" lon="-2.8143020">
        <ele>564.6</ele>
        <time>2022-08-29T06:48:58Z</time>
      </trkpt>
      <trkpt lat="42.4286090" lon="-2.8143550">
        <ele>564.6</ele>
        <time>2022-08-29T06:48:59Z</time>
      </trkpt>
      <trkpt lat="42.4286170" lon="-2.8144090">
        <ele>564.8</ele>
        <time>2022-08-29T06:49:00Z</time>
      </trkpt>
      <trkpt lat="42.4286270" lon="-2.8144630">
        <ele>564.8</ele>
        <time>2022-08-29T06:49:01Z</time>
      </trkpt>
      <trkpt lat="42.4286360" lon="-2.8145180">
        <ele>564.8</ele>
        <time>2022-08-29T06:49:02Z</time>
      </trkpt>
      <trkpt lat="42.4286470" lon="-2.8145740">
        <ele>565.0</ele>
        <time>2022-08-29T06:49:03Z</time>
      </trkpt>
      <trkpt lat="42.4286590" lon="-2.8146280">
        <ele>565.2</ele>
        <time>2022-08-29T06:49:04Z</time>
      </trkpt>
      <trkpt lat="42.4286730" lon="-2.8146800">
        <ele>565.0</ele>
        <time>2022-08-29T06:49:05Z</time>
      </trkpt>
      <trkpt lat="42.4286850" lon="-2.8147330">
        <ele>565.4</ele>
        <time>2022-08-29T06:49:06Z</time>
      </trkpt>
      <trkpt lat="42.4286990" lon="-2.8147850">
        <ele>565.4</ele>
        <time>2022-08-29T06:49:07Z</time>
      </trkpt>
      <trkpt lat="42.4287120" lon="-2.8148360">
        <ele>565.6</ele>
        <time>2022-08-29T06:49:08Z</time>
      </trkpt>
      <trkpt lat="42.4287240" lon="-2.8148870">
        <ele>565.8</ele>
        <time>2022-08-29T06:49:09Z</time>
      </trkpt>
      <trkpt lat="42.4287380" lon="-2.8149390">
        <ele>565.8</ele>
        <time>2022-08-29T06:49:10Z</time>
      </trkpt>
      <trkpt lat="42.4287530" lon="-2.8149910">
        <ele>566.0</ele>
        <time>2022-08-29T06:49:11Z</time>
      </trkpt>
      <trkpt lat="42.4287680" lon="-2.8150440">
        <ele>566.0</ele>
        <time>2022-08-29T06:49:12Z</time>
      </trkpt>
      <trkpt lat="42.4287820" lon="-2.8150970">
        <ele>566.2</ele>
        <time>2022-08-29T06:49:13Z</time>
      </trkpt>
      <trkpt lat="42.4287980" lon="-2.8151470">
        <ele>566.2</ele>
        <time>2022-08-29T06:49:14Z</time>
      </trkpt>
      <trkpt lat="42.4288130" lon="-2.8151970">
        <ele>566.2</ele>
        <time>2022-08-29T06:49:15Z</time>
      </trkpt>
      <trkpt lat="42.4288270" lon="-2.8152450">
        <ele>566.2</ele>
        <time>2022-08-29T06:49:16Z</time>
      </trkpt>
      <trkpt lat="42.4288390" lon="-2.8152920">
        <ele>566.4</ele>
        <time>2022-08-29T06:49:17Z</time>
      </trkpt>
      <trkpt lat="42.4288500" lon="-2.8153400">
        <ele>566.4</ele>
        <time>2022-08-29T06:49:18Z</time>
      </trkpt>
      <trkpt lat="42.4288610" lon="-2.8153870">
        <ele>566.4</ele>
        <time>2022-08-29T06:49:19Z</time>
      </trkpt>
      <trkpt lat="42.4288750" lon="-2.8154330">
        <ele>566.6</ele>
        <time>2022-08-29T06:49:20Z</time>
      </trkpt>
      <trkpt lat="42.4288950" lon="-2.8154740">
        <ele>566.6</ele>
        <time>2022-08-29T06:49:21Z</time>
      </trkpt>
      <trkpt lat="42.4289200" lon="-2.8155120">
        <ele>566.8</ele>
        <time>2022-08-29T06:49:22Z</time>
      </trkpt>
      <trkpt lat="42.4289440" lon="-2.8155520">
        <ele>566.8</ele>
        <time>2022-08-29T06:49:23Z</time>
      </trkpt>
      <trkpt lat="42.4289640" lon="-2.8155960">
        <ele>567.0</ele>
        <time>2022-08-29T06:49:24Z</time>
      </trkpt>
      <trkpt lat="42.4289820" lon="-2.8156440">
        <ele>567.2</ele>
        <time>2022-08-29T06:49:25Z</time>
      </trkpt>
      <trkpt lat="42.4290010" lon="-2.8156920">
        <ele>567.4</ele>
        <time>2022-08-29T06:49:26Z</time>
      </trkpt>
      <trkpt lat="42.4290200" lon="-2.8157420">
        <ele>567.6</ele>
        <time>2022-08-29T06:49:27Z</time>
      </trkpt>
      <trkpt lat="42.4290370" lon="-2.8157940">
        <ele>567.6</ele>
        <time>2022-08-29T06:49:28Z</time>
      </trkpt>
      <trkpt lat="42.4290530" lon="-2.8158460">
        <ele>567.6</ele>
        <time>2022-08-29T06:49:29Z</time>
      </trkpt>
      <trkpt lat="42.4290680" lon="-2.8158980">
        <ele>567.6</ele>
        <time>2022-08-29T06:49:30Z</time>
      </trkpt>
      <trkpt lat="42.4290850" lon="-2.8159480">
        <ele>567.8</ele>
        <time>2022-08-29T06:49:31Z</time>
      </trkpt>
      <trkpt lat="42.4291010" lon="-2.8159980">
        <ele>568.0</ele>
        <time>2022-08-29T06:49:32Z</time>
      </trkpt>
      <trkpt lat="42.4291170" lon="-2.8160480">
        <ele>568.0</ele>
        <time>2022-08-29T06:49:33Z</time>
      </trkpt>
      <trkpt lat="42.4291310" lon="-2.8161020">
        <ele>568.0</ele>
        <time>2022-08-29T06:49:34Z</time>
      </trkpt>
      <trkpt lat="42.4291460" lon="-2.8161560">
        <ele>568.0</ele>
        <time>2022-08-29T06:49:35Z</time>
      </trkpt>
      <trkpt lat="42.4291610" lon="-2.8162090">
        <ele>568.2</ele>
        <time>2022-08-29T06:49:36Z</time>
      </trkpt>
      <trkpt lat="42.4291760" lon="-2.8162620">
        <ele>568.2</ele>
        <time>2022-08-29T06:49:37Z</time>
      </trkpt>
      <trkpt lat="42.4291900" lon="-2.8163170">
        <ele>568.2</ele>
        <time>2022-08-29T06:49:38Z</time>
      </trkpt>
      <trkpt lat="42.4292060" lon="-2.8163700">
        <ele>568.6</ele>
        <time>2022-08-29T06:49:39Z</time>
      </trkpt>
      <trkpt lat="42.4292230" lon="-2.8164240">
        <ele>568.6</ele>
        <time>2022-08-29T06:49:40Z</time>
      </trkpt>
      <trkpt lat="42.4292390" lon="-2.8164770">
        <ele>568.8</ele>
        <time>2022-08-29T06:49:41Z</time>
      </trkpt>
      <trkpt lat="42.4292540" lon="-2.8165340">
        <ele>568.8</ele>
        <time>2022-08-29T06:49:42Z</time>
      </trkpt>
      <trkpt lat="42.4292710" lon="-2.8165900">
        <ele>568.8</ele>
        <time>2022-08-29T06:49:43Z</time>
      </trkpt>
      <trkpt lat="42.4292900" lon="-2.8166440">
        <ele>569.0</ele>
        <time>2022-08-29T06:49:44Z</time>
      </trkpt>
      <trkpt lat="42.4293080" lon="-2.8166990">
        <ele>569.2</ele>
        <time>2022-08-29T06:49:45Z</time>
      </trkpt>
      <trkpt lat="42.4293260" lon="-2.8167540">
        <ele>569.0</ele>
        <time>2022-08-29T06:49:46Z</time>
      </trkpt>
      <trkpt lat="42.4293430" lon="-2.8168090">
        <ele>569.4</ele>
        <time>2022-08-29T06:49:47Z</time>
      </trkpt>
      <trkpt lat="42.4293600" lon="-2.8168650">
        <ele>569.6</ele>
        <time>2022-08-29T06:49:48Z</time>
      </trkpt>
      <trkpt lat="42.4293780" lon="-2.8169200">
        <ele>569.6</ele>
        <time>2022-08-29T06:49:49Z</time>
      </trkpt>
      <trkpt lat="42.4293970" lon="-2.8169740">
        <ele>569.8</ele>
        <time>2022-08-29T06:49:50Z</time>
      </trkpt>
      <trkpt lat="42.4294170" lon="-2.8170260">
        <ele>570.0</ele>
        <time>2022-08-29T06:49:51Z</time>
      </trkpt>
      <trkpt lat="42.4294370" lon="-2.8170770">
        <ele>570.2</ele>
        <time>2022-08-29T06:49:52Z</time>
      </trkpt>
      <trkpt lat="42.4294550" lon="-2.8171290">
        <ele>570.2</ele>
        <time>2022-08-29T06:49:53Z</time>
      </trkpt>
      <trkpt lat="42.4294720" lon="-2.8171800">
        <ele>570.4</ele>
        <time>2022-08-29T06:49:54Z</time>
      </trkpt>
      <trkpt lat="42.4294900" lon="-2.8172320">
        <ele>570.6</ele>
        <time>2022-08-29T06:49:55Z</time>
      </trkpt>
      <trkpt lat="42.4295080" lon="-2.8172820">
        <ele>570.6</ele>
        <time>2022-08-29T06:49:56Z</time>
      </trkpt>
      <trkpt lat="42.4295270" lon="-2.8173300">
        <ele>570.8</ele>
        <time>2022-08-29T06:49:57Z</time>
      </trkpt>
      <trkpt lat="42.4295470" lon="-2.8173770">
        <ele>570.8</ele>
        <time>2022-08-29T06:49:58Z</time>
      </trkpt>
      <trkpt lat="42.4295660" lon="-2.8174210">
        <ele>571.0</ele>
        <time>2022-08-29T06:49:59Z</time>
      </trkpt>
      <trkpt lat="42.4295850" lon="-2.8174610">
        <ele>571.0</ele>
        <time>2022-08-29T06:50:00Z</time>
      </trkpt>
      <trkpt lat="42.4296060" lon="-2.8174990">
        <ele>571.2</ele>
        <time>2022-08-29T06:50:01Z</time>
      </trkpt>
      <trkpt lat="42.4296280" lon="-2.8175370">
        <ele>571.2</ele>
        <time>2022-08-29T06:50:02Z</time>
      </trkpt>
      <trkpt lat="42.4296500" lon="-2.8175730">
        <ele>571.4</ele>
        <time>2022-08-29T06:50:03Z</time>
      </trkpt>
      <trkpt lat="42.4296740" lon="-2.8176050">
        <ele>571.6</ele>
        <time>2022-08-29T06:50:04Z</time>
      </trkpt>
      <trkpt lat="42.4296950" lon="-2.8176360">
        <ele>571.6</ele>
        <time>2022-08-29T06:50:05Z</time>
      </trkpt>
      <trkpt lat="42.4297120" lon="-2.8176690">
        <ele>571.6</ele>
        <time>2022-08-29T06:50:06Z</time>
      </trkpt>
      <trkpt lat="42.4297280" lon="-2.8177050">
        <ele>571.6</ele>
        <time>2022-08-29T06:50:07Z</time>
      </trkpt>
      <trkpt lat="42.4297470" lon="-2.8177460">
        <ele>571.8</ele>
        <time>2022-08-29T06:50:08Z</time>
      </trkpt>
      <trkpt lat="42.4297700" lon="-2.8177900">
        <ele>572.0</ele>
        <time>2022-08-29T06:50:09Z</time>
      </trkpt>
      <trkpt lat="42.4297940" lon="-2.8178330">
        <ele>572.6</ele>
        <time>2022-08-29T06:50:10Z</time>
      </trkpt>
      <trkpt lat="42.4298200" lon="-2.8178790">
        <ele>573.0</ele>
        <time>2022-08-29T06:50:11Z</time>
      </trkpt>
      <trkpt lat="42.4298480" lon="-2.8179210">
        <ele>573.4</ele>
        <time>2022-08-29T06:50:12Z</time>
      </trkpt>
      <trkpt lat="42.4298770" lon="-2.8179630">
        <ele>573.8</ele>
        <time>2022-08-29T06:50:13Z</time>
      </trkpt>
      <trkpt lat="42.4299070" lon="-2.8180010">
        <ele>574.2</ele>
        <time>2022-08-29T06:50:14Z</time>
      </trkpt>
      <trkpt lat="42.4299360" lon="-2.8180360">
        <ele>574.4</ele>
        <time>2022-08-29T06:50:15Z</time>
      </trkpt>
      <trkpt lat="42.4299610" lon="-2.8180710">
        <ele>574.6</ele>
        <time>2022-08-29T06:50:16Z</time>
      </trkpt>
      <trkpt lat="42.4299840" lon="-2.8181080">
        <ele>574.6</ele>
        <time>2022-08-29T06:50:17Z</time>
      </trkpt>
      <trkpt lat="42.4300090" lon="-2.8181440">
        <ele>574.8</ele>
        <time>2022-08-29T06:50:18Z</time>
      </trkpt>
      <trkpt lat="42.4300330" lon="-2.8181810">
        <ele>574.8</ele>
        <time>2022-08-29T06:50:19Z</time>
      </trkpt>
      <trkpt lat="42.4300580" lon="-2.8182190">
        <ele>575.0</ele>
        <time>2022-08-29T06:50:20Z</time>
      </trkpt>
      <trkpt lat="42.4300860" lon="-2.8182540">
        <ele>575.2</ele>
        <time>2022-08-29T06:50:21Z</time>
      </trkpt>
      <trkpt lat="42.4301150" lon="-2.8182860">
        <ele>575.2</ele>
        <time>2022-08-29T06:50:22Z</time>
      </trkpt>
      <trkpt lat="42.4301450" lon="-2.8183190">
        <ele>575.2</ele>
        <time>2022-08-29T06:50:23Z</time>
      </trkpt>
      <trkpt lat="42.4301750" lon="-2.8183530">
        <ele>575.4</ele>
        <time>2022-08-29T06:50:24Z</time>
      </trkpt>
      <trkpt lat="42.4302070" lon="-2.8183850">
        <ele>575.2</ele>
        <time>2022-08-29T06:50:25Z</time>
      </trkpt>
      <trkpt lat="42.4302400" lon="-2.8184200">
        <ele>575.4</ele>
        <time>2022-08-29T06:50:26Z</time>
      </trkpt>
      <trkpt lat="42.4302750" lon="-2.8184590">
        <ele>575.6</ele>
        <time>2022-08-29T06:50:27Z</time>
      </trkpt>
      <trkpt lat="42.4303100" lon="-2.8185000">
        <ele>575.8</ele>
        <time>2022-08-29T06:50:28Z</time>
      </trkpt>
      <trkpt lat="42.4303480" lon="-2.8185440">
        <ele>576.0</ele>
        <time>2022-08-29T06:50:29Z</time>
      </trkpt>
      <trkpt lat="42.4303920" lon="-2.8185860">
        <ele>576.0</ele>
        <time>2022-08-29T06:50:30Z</time>
      </trkpt>
      <trkpt lat="42.4304360" lon="-2.8186270">
        <ele>576.2</ele>
        <time>2022-08-29T06:50:31Z</time>
      </trkpt>
      <trkpt lat="42.4304840" lon="-2.8186670">
        <ele>576.0</ele>
        <time>2022-08-29T06:50:32Z</time>
      </trkpt>
      <trkpt lat="42.4305370" lon="-2.8187080">
        <ele>576.2</ele>
        <time>2022-08-29T06:50:33Z</time>
      </trkpt>
      <trkpt lat="42.4305950" lon="-2.8187500">
        <ele>576.0</ele>
        <time>2022-08-29T06:50:34Z</time>
      </trkpt>
      <trkpt lat="42.4306530" lon="-2.8187960">
        <ele>576.0</ele>
        <time>2022-08-29T06:50:35Z</time>
      </trkpt>
      <trkpt lat="42.4307160" lon="-2.8188480">
        <ele>576.0</ele>
        <time>2022-08-29T06:50:36Z</time>
      </trkpt>
      <trkpt lat="42.4307790" lon="-2.8188990">
        <ele>576.0</ele>
        <time>2022-08-29T06:50:37Z</time>
      </trkpt>
      <trkpt lat="42.4308450" lon="-2.8189520">
        <ele>575.8</ele>
        <time>2022-08-29T06:50:38Z</time>
      </trkpt>
      <trkpt lat="42.4309120" lon="-2.8190050">
        <ele>575.8</ele>
        <time>2022-08-29T06:50:39Z</time>
      </trkpt>
      <trkpt lat="42.4309790" lon="-2.8190590">
        <ele>575.6</ele>
        <time>2022-08-29T06:50:40Z</time>
      </trkpt>
      <trkpt lat="42.4310510" lon="-2.8191110">
        <ele>575.8</ele>
        <time>2022-08-29T06:50:41Z</time>
      </trkpt>
      <trkpt lat="42.4311230" lon="-2.8191640">
        <ele>574.8</ele>
        <time>2022-08-29T06:50:42Z</time>
      </trkpt>
      <trkpt lat="42.4311990" lon="-2.8192200">
        <ele>574.2</ele>
        <time>2022-08-29T06:50:43Z</time>
      </trkpt>
      <trkpt lat="42.4312750" lon="-2.8192840">
        <ele>573.8</ele>
        <time>2022-08-29T06:50:44Z</time>
      </trkpt>
      <trkpt lat="42.4313540" lon="-2.8193610">
        <ele>573.0</ele>
        <time>2022-08-29T06:50:45Z</time>
      </trkpt>
      <trkpt lat="42.4314350" lon="-2.8194550">
        <ele>572.4</ele>
        <time>2022-08-29T06:50:46Z</time>
      </trkpt>
      <trkpt lat="42.4315150" lon="-2.8195650">
        <ele>571.8</ele>
        <time>2022-08-29T06:50:47Z</time>
      </trkpt>
      <trkpt lat="42.4315970" lon="-2.8196770">
        <ele>571.2</ele>
        <time>2022-08-29T06:50:48Z</time>
      </trkpt>
      <trkpt lat="42.4316830" lon="-2.8197900">
        <ele>570.8</ele>
        <time>2022-08-29T06:50:49Z</time>
      </trkpt>
      <trkpt lat="42.4317720" lon="-2.8199050">
        <ele>569.8</ele>
        <time>2022-08-29T06:50:50Z</time>
      </trkpt>
      <trkpt lat="42.4318640" lon="-2.8200210">
        <ele>569.4</ele>
        <time>2022-08-29T06:50:51Z</time>
      </trkpt>
      <trkpt lat="42.4319550" lon="-2.8201360">
        <ele>568.8</ele>
        <time>2022-08-29T06:50:52Z</time>
      </trkpt>
      <trkpt lat="42.4320440" lon="-2.8202550">
        <ele>567.6</ele>
        <time>2022-08-29T06:50:53Z</time>
      </trkpt>
      <trkpt lat="42.4321290" lon="-2.8203790">
        <ele>567.6</ele>
        <time>2022-08-29T06:50:54Z</time>
      </trkpt>
      <trkpt lat="42.4322060" lon="-2.8205090">
        <ele>565.2</ele>
        <time>2022-08-29T06:50:55Z</time>
      </trkpt>
      <trkpt lat="42.4322760" lon="-2.8206430">
        <ele>563.6</ele>
        <time>2022-08-29T06:50:56Z</time>
      </trkpt>
      <trkpt lat="42.4323400" lon="-2.8207750">
        <ele>562.8</ele>
        <time>2022-08-29T06:50:57Z</time>
      </trkpt>
      <trkpt lat="42.4323970" lon="-2.8208960">
        <ele>560.6</ele>
        <time>2022-08-29T06:50:58Z</time>
      </trkpt>
      <trkpt lat="42.4324490" lon="-2.8210020">
        <ele>558.2</ele>
        <time>2022-08-29T06:50:59Z</time>
      </trkpt>
      <trkpt lat="42.4324930" lon="-2.8210870">
        <ele>557.0</ele>
        <time>2022-08-29T06:51:00Z</time>
      </trkpt>
      <trkpt lat="42.4325330" lon="-2.8211460">
        <ele>555.6</ele>
        <time>2022-08-29T06:51:01Z</time>
      </trkpt>
      <trkpt lat="42.4325780" lon="-2.8211680">
        <ele>554.2</ele>
        <time>2022-08-29T06:51:02Z</time>
      </trkpt>
      <trkpt lat="42.4326200" lon="-2.8211580">
        <ele>553.8</ele>
        <time>2022-08-29T06:51:03Z</time>
      </trkpt>
      <trkpt lat="42.4326590" lon="-2.8211300">
        <ele>553.4</ele>
        <time>2022-08-29T06:51:04Z</time>
      </trkpt>
      <trkpt lat="42.4326980" lon="-2.8210960">
        <ele>553.2</ele>
        <time>2022-08-29T06:51:05Z</time>
      </trkpt>
      <trkpt lat="42.4327370" lon="-2.8210630">
        <ele>553.2</ele>
        <time>2022-08-29T06:51:06Z</time>
      </trkpt>
      <trkpt lat="42.4327770" lon="-2.8210410">
        <ele>553.0</ele>
        <time>2022-08-29T06:51:07Z</time>
      </trkpt>
      <trkpt lat="42.4328210" lon="-2.8210220">
        <ele>553.0</ele>
        <time>2022-08-29T06:51:08Z</time>
      </trkpt>
      <trkpt lat="42.4328640" lon="-2.8209960">
        <ele>552.8</ele>
        <time>2022-08-29T06:51:09Z</time>
      </trkpt>
      <trkpt lat="42.4329040" lon="-2.8209630">
        <ele>553.0</ele>
        <time>2022-08-29T06:51:10Z</time>
      </trkpt>
      <trkpt lat="42.4329420" lon="-2.8209310">
        <ele>552.8</ele>
        <time>2022-08-29T06:51:11Z</time>
      </trkpt>
      <trkpt lat="42.4329800" lon="-2.8209010">
        <ele>552.8</ele>
        <time>2022-08-29T06:51:12Z</time>
      </trkpt>
      <trkpt lat="42.4330170" lon="-2.8208710">
        <ele>552.6</ele>
        <time>2022-08-29T06:51:13Z</time>
      </trkpt>
      <trkpt lat="42.4330530" lon="-2.8208410">
        <ele>552.8</ele>
        <time>2022-08-29T06:51:14Z</time>
      </trkpt>
      <trkpt lat="42.4330890" lon="-2.8208150">
        <ele>552.6</ele>
        <time>2022-08-29T06:51:15Z</time>
      </trkpt>
      <trkpt lat="42.4331240" lon="-2.8207900">
        <ele>552.6</ele>
        <time>2022-08-29T06:51:16Z</time>
      </trkpt>
      <trkpt lat="42.4331590" lon="-2.8207690">
        <ele>552.6</ele>
        <time>2022-08-29T06:51:17Z</time>
      </trkpt>
      <trkpt lat="42.4331940" lon="-2.8207480">
        <ele>552.6</ele>
        <time>2022-08-29T06:51:18Z</time>
      </trkpt>
      <trkpt lat="42.4332280" lon="-2.8207300">
        <ele>552.6</ele>
        <time>2022-08-29T06:51:19Z</time>
      </trkpt>
      <trkpt lat="42.4332610" lon="-2.8207140">
        <ele>552.4</ele>
        <time>2022-08-29T06:51:20Z</time>
      </trkpt>
      <trkpt lat="42.4332910" lon="-2.8207050">
        <ele>552.4</ele>
        <time>2022-08-29T06:51:21Z</time>
      </trkpt>
      <trkpt lat="42.4333170" lon="-2.8207080">
        <ele>552.4</ele>
        <time>2022-08-29T06:51:22Z</time>
      </trkpt>
      <trkpt lat="42.4333360" lon="-2.8207240">
        <ele>552.4</ele>
        <time>2022-08-29T06:51:23Z</time>
      </trkpt>
      <trkpt lat="42.4333520" lon="-2.8207480">
        <ele>552.2</ele>
        <time>2022-08-29T06:51:24Z</time>
      </trkpt>
      <trkpt lat="42.4333630" lon="-2.8207780">
        <ele>552.2</ele>
        <time>2022-08-29T06:51:25Z</time>
      </trkpt>
      <trkpt lat="42.4333700" lon="-2.8208150">
        <ele>552.2</ele>
        <time>2022-08-29T06:51:26Z</time>
      </trkpt>
      <trkpt lat="42.4333750" lon="-2.8208570">
        <ele>552.2</ele>
        <time>2022-08-29T06:51:27Z</time>
      </trkpt>
      <trkpt lat="42.4333790" lon="-2.8209000">
        <ele>552.0</ele>
        <time>2022-08-29T06:51:28Z</time>
      </trkpt>
      <trkpt lat="42.4333860" lon="-2.8209440">
        <ele>552.0</ele>
        <time>2022-08-29T06:51:29Z</time>
      </trkpt>
      <trkpt lat="42.4333930" lon="-2.8209890">
        <ele>552.2</ele>
        <time>2022-08-29T06:51:30Z</time>
      </trkpt>
      <trkpt lat="42.4333990" lon="-2.8210360">
        <ele>552.2</ele>
        <time>2022-08-29T06:51:31Z</time>
      </trkpt>
      <trkpt lat="42.4334040" lon="-2.8210840">
        <ele>552.2</ele>
        <time>2022-08-29T06:51:32Z</time>
      </trkpt>
      <trkpt lat="42.4334090" lon="-2.8211310">
        <ele>552.0</ele>
        <time>2022-08-29T06:51:33Z</time>
      </trkpt>
      <trkpt lat="42.4334120" lon="-2.8211780">
        <ele>552.0</ele>
        <time>2022-08-29T06:51:34Z</time>
      </trkpt>
      <trkpt lat="42.4334140" lon="-2.8212240">
        <ele>552.0</ele>
        <time>2022-08-29T06:51:35Z</time>
      </trkpt>
      <trkpt lat="42.4334160" lon="-2.8212690">
        <ele>552.2</ele>
        <time>2022-08-29T06:51:36Z</time>
      </trkpt>
      <trkpt lat="42.4334220" lon="-2.8213130">
        <ele>552.2</ele>
        <time>2022-08-29T06:51:37Z</time>
      </trkpt>
      <trkpt lat="42.4334270" lon="-2.8213570">
        <ele>552.2</ele>
        <time>2022-08-29T06:51:38Z</time>
      </trkpt>
      <trkpt lat="42.4334330" lon="-2.8214010">
        <ele>552.0</ele>
        <time>2022-08-29T06:51:39Z</time>
      </trkpt>
      <trkpt lat="42.4334400" lon="-2.8214450">
        <ele>552.2</ele>
        <time>2022-08-29T06:51:40Z</time>
      </trkpt>
      <trkpt lat="42.4334480" lon="-2.8214880">
        <ele>552.2</ele>
        <time>2022-08-29T06:51:41Z</time>
      </trkpt>
      <trkpt lat="42.4334550" lon="-2.8215320">
        <ele>552.4</ele>
        <time>2022-08-29T06:51:42Z</time>
      </trkpt>
      <trkpt lat="42.4334610" lon="-2.8215770">
        <ele>552.4</ele>
        <time>2022-08-29T06:51:43Z</time>
      </trkpt>
      <trkpt lat="42.4334650" lon="-2.8216240">
        <ele>552.4</ele>
        <time>2022-08-29T06:51:44Z</time>
      </trkpt>
      <trkpt lat="42.4334680" lon="-2.8216750">
        <ele>552.6</ele>
        <time>2022-08-29T06:51:45Z</time>
      </trkpt>
      <trkpt lat="42.4334700" lon="-2.8217260">
        <ele>552.6</ele>
        <time>2022-08-29T06:51:46Z</time>
      </trkpt>
      <trkpt lat="42.4334720" lon="-2.8217780">
        <ele>552.6</ele>
        <time>2022-08-29T06:51:47Z</time>
      </trkpt>
      <trkpt lat="42.4334740" lon="-2.8218280">
        <ele>552.6</ele>
        <time>2022-08-29T06:51:48Z</time>
      </trkpt>
      <trkpt lat="42.4334780" lon="-2.8218780">
        <ele>552.8</ele>
        <time>2022-08-29T06:51:49Z</time>
      </trkpt>
      <trkpt lat="42.4334860" lon="-2.8219280">
        <ele>552.6</ele>
        <time>2022-08-29T06:51:50Z</time>
      </trkpt>
      <trkpt lat="42.4334960" lon="-2.8219760">
        <ele>552.6</ele>
        <time>2022-08-29T06:51:51Z</time>
      </trkpt>
      <trkpt lat="42.4335080" lon="-2.8220170">
        <ele>552.8</ele>
        <time>2022-08-29T06:51:52Z</time>
      </trkpt>
      <trkpt lat="42.4335180" lon="-2.8220530">
        <ele>552.8</ele>
        <time>2022-08-29T06:51:53Z</time>
      </trkpt>
      <trkpt lat="42.4335250" lon="-2.8220880">
        <ele>552.8</ele>
        <time>2022-08-29T06:51:54Z</time>
      </trkpt>
      <trkpt lat="42.4335280" lon="-2.8221210">
        <ele>552.8</ele>
        <time>2022-08-29T06:51:55Z</time>
      </trkpt>
      <trkpt lat="42.4335300" lon="-2.8221510">
        <ele>552.8</ele>
        <time>2022-08-29T06:51:56Z</time>
      </trkpt>
      <trkpt lat="42.4335310" lon="-2.8221800">
        <ele>552.8</ele>
        <time>2022-08-29T06:51:57Z</time>
      </trkpt>
      <trkpt lat="42.4335330" lon="-2.8222070">
        <ele>552.8</ele>
        <time>2022-08-29T06:51:58Z</time>
      </trkpt>
      <trkpt lat="42.4335350" lon="-2.8222320">
        <ele>552.8</ele>
        <time>2022-08-29T06:51:59Z</time>
      </trkpt>
      <trkpt lat="42.4335380" lon="-2.8222570">
        <ele>552.8</ele>
        <time>2022-08-29T06:52:00Z</time>
      </trkpt>
      <trkpt lat="42.4335420" lon="-2.8222810">
        <ele>552.8</ele>
        <time>2022-08-29T06:52:01Z</time>
      </trkpt>
      <trkpt lat="42.4335450" lon="-2.8223040">
        <ele>552.8</ele>
        <time>2022-08-29T06:52:02Z</time>
      </trkpt>
      <trkpt lat="42.4335500" lon="-2.8223270">
        <ele>553.0</ele>
        <time>2022-08-29T06:52:03Z</time>
      </trkpt>
      <trkpt lat="42.4335570" lon="-2.8223520">
        <ele>553.0</ele>
        <time>2022-08-29T06:52:04Z</time>
      </trkpt>
      <trkpt lat="42.4335650" lon="-2.8223790">
        <ele>553.0</ele>
        <time>2022-08-29T06:52:05Z</time>
      </trkpt>
      <trkpt lat="42.4335720" lon="-2.8224100">
        <ele>553.0</ele>
        <time>2022-08-29T06:52:06Z</time>
      </trkpt>
      <trkpt lat="42.4335800" lon="-2.8224440">
        <ele>553.0</ele>
        <time>2022-08-29T06:52:07Z</time>
      </trkpt>
      <trkpt lat="42.4335870" lon="-2.8224810">
        <ele>553.0</ele>
        <time>2022-08-29T06:52:08Z</time>
      </trkpt>
      <trkpt lat="42.4335940" lon="-2.8225200">
        <ele>553.0</ele>
        <time>2022-08-29T06:52:09Z</time>
      </trkpt>
      <trkpt lat="42.4336020" lon="-2.8225590">
        <ele>553.0</ele>
        <time>2022-08-29T06:52:10Z</time>
      </trkpt>
      <trkpt lat="42.4336080" lon="-2.8225980">
        <ele>553.0</ele>
        <time>2022-08-29T06:52:11Z</time>
      </trkpt>
      <trkpt lat="42.4336150" lon="-2.8226360">
        <ele>553.2</ele>
        <time>2022-08-29T06:52:12Z</time>
      </trkpt>
      <trkpt lat="42.4336210" lon="-2.8226740">
        <ele>553.0</ele>
        <time>2022-08-29T06:52:13Z</time>
      </trkpt>
      <trkpt lat="42.4336260" lon="-2.8227140">
        <ele>553.2</ele>
        <time>2022-08-29T06:52:14Z</time>
      </trkpt>
      <trkpt lat="42.4336300" lon="-2.8227550">
        <ele>553.2</ele>
        <time>2022-08-29T06:52:15Z</time>
      </trkpt>
      <trkpt lat="42.4336360" lon="-2.8227960">
        <ele>553.2</ele>
        <time>2022-08-29T06:52:16Z</time>
      </trkpt>
      <trkpt lat="42.4336420" lon="-2.8228400">
        <ele>553.2</ele>
        <time>2022-08-29T06:52:17Z</time>
      </trkpt>
      <trkpt lat="42.4336500" lon="-2.8228860">
        <ele>553.2</ele>
        <time>2022-08-29T06:52:18Z</time>
      </trkpt>
      <trkpt lat="42.4336570" lon="-2.8229340">
        <ele>553.0</ele>
        <time>2022-08-29T06:52:19Z</time>
      </trkpt>
      <trkpt lat="42.4336620" lon="-2.8229820">
        <ele>553.2</ele>
        <time>2022-08-29T06:52:20Z</time>
      </trkpt>
      <trkpt lat="42.4336660" lon="-2.8230280">
        <ele>553.2</ele>
        <time>2022-08-29T06:52:21Z</time>
      </trkpt>
      <trkpt lat="42.4336700" lon="-2.8230740">
        <ele>553.2</ele>
        <time>2022-08-29T06:52:22Z</time>
      </trkpt>
      <trkpt lat="42.4336740" lon="-2.8231190">
        <ele>553.4</ele>
        <time>2022-08-29T06:52:23Z</time>
      </trkpt>
      <trkpt lat="42.4336780" lon="-2.8231660">
        <ele>553.4</ele>
        <time>2022-08-29T06:52:24Z</time>
      </trkpt>
      <trkpt lat="42.4336820" lon="-2.8232130">
        <ele>553.4</ele>
        <time>2022-08-29T06:52:25Z</time>
      </trkpt>
      <trkpt lat="42.4336860" lon="-2.8232620">
        <ele>553.4</ele>
        <time>2022-08-29T06:52:26Z</time>
      </trkpt>
      <trkpt lat="42.4336900" lon="-2.8233130">
        <ele>553.4</ele>
        <time>2022-08-29T06:52:27Z</time>
      </trkpt>
      <trkpt lat="42.4336940" lon="-2.8233640">
        <ele>553.6</ele>
        <time>2022-08-29T06:52:28Z</time>
      </trkpt>
      <trkpt lat="42.4336980" lon="-2.8234160">
        <ele>553.6</ele>
        <time>2022-08-29T06:52:29Z</time>
      </trkpt>
      <trkpt lat="42.4337020" lon="-2.8234700">
        <ele>553.6</ele>
        <time>2022-08-29T06:52:30Z</time>
      </trkpt>
      <trkpt lat="42.4337060" lon="-2.8235260">
        <ele>553.6</ele>
        <time>2022-08-29T06:52:31Z</time>
      </trkpt>
      <trkpt lat="42.4337090" lon="-2.8235820">
        <ele>553.6</ele>
        <time>2022-08-29T06:52:32Z</time>
      </trkpt>
      <trkpt lat="42.4337120" lon="-2.8236380">
        <ele>553.6</ele>
        <time>2022-08-29T06:52:33Z</time>
      </trkpt>
      <trkpt lat="42.4337160" lon="-2.8236930">
        <ele>553.6</ele>
        <time>2022-08-29T06:52:34Z</time>
      </trkpt>
      <trkpt lat="42.4337200" lon="-2.8237500">
        <ele>553.8</ele>
        <time>2022-08-29T06:52:35Z</time>
      </trkpt>
      <trkpt lat="42.4337240" lon="-2.8238050">
        <ele>553.6</ele>
        <time>2022-08-29T06:52:36Z</time>
      </trkpt>
      <trkpt lat="42.4337280" lon="-2.8238600">
        <ele>553.8</ele>
        <time>2022-08-29T06:52:37Z</time>
      </trkpt>
      <trkpt lat="42.4337310" lon="-2.8239160">
        <ele>553.8</ele>
        <time>2022-08-29T06:52:38Z</time>
      </trkpt>
      <trkpt lat="42.4337340" lon="-2.8239730">
        <ele>554.0</ele>
        <time>2022-08-29T06:52:39Z</time>
      </trkpt>
      <trkpt lat="42.4337360" lon="-2.8240290">
        <ele>553.8</ele>
        <time>2022-08-29T06:52:40Z</time>
      </trkpt>
      <trkpt lat="42.4337390" lon="-2.8240850">
        <ele>554.0</ele>
        <time>2022-08-29T06:52:41Z</time>
      </trkpt>
      <trkpt lat="42.4337430" lon="-2.8241420">
        <ele>554.0</ele>
        <time>2022-08-29T06:52:42Z</time>
      </trkpt>
      <trkpt lat="42.4337470" lon="-2.8241970">
        <ele>554.0</ele>
        <time>2022-08-29T06:52:43Z</time>
      </trkpt>
      <trkpt lat="42.4337510" lon="-2.8242540">
        <ele>554.0</ele>
        <time>2022-08-29T06:52:44Z</time>
      </trkpt>
      <trkpt lat="42.4337550" lon="-2.8243100">
        <ele>554.0</ele>
        <time>2022-08-29T06:52:45Z</time>
      </trkpt>
      <trkpt lat="42.4337590" lon="-2.8243640">
        <ele>554.0</ele>
        <time>2022-08-29T06:52:46Z</time>
      </trkpt>
      <trkpt lat="42.4337620" lon="-2.8244150">
        <ele>554.0</ele>
        <time>2022-08-29T06:52:47Z</time>
      </trkpt>
      <trkpt lat="42.4337670" lon="-2.8244650">
        <ele>554.0</ele>
        <time>2022-08-29T06:52:48Z</time>
      </trkpt>
      <trkpt lat="42.4337730" lon="-2.8245140">
        <ele>554.0</ele>
        <time>2022-08-29T06:52:49Z</time>
      </trkpt>
      <trkpt lat="42.4337760" lon="-2.8245660">
        <ele>554.2</ele>
        <time>2022-08-29T06:52:50Z</time>
      </trkpt>
      <trkpt lat="42.4337790" lon="-2.8246180">
        <ele>554.2</ele>
        <time>2022-08-29T06:52:51Z</time>
      </trkpt>
      <trkpt lat="42.4337830" lon="-2.8246710">
        <ele>554.4</ele>
        <time>2022-08-29T06:52:52Z</time>
      </trkpt>
      <trkpt lat="42.4337870" lon="-2.8247240">
        <ele>554.4</ele>
        <time>2022-08-29T06:52:53Z</time>
      </trkpt>
      <trkpt lat="42.4337920" lon="-2.8247790">
        <ele>554.4</ele>
        <time>2022-08-29T06:52:54Z</time>
      </trkpt>
      <trkpt lat="42.4337960" lon="-2.8248340">
        <ele>554.4</ele>
        <time>2022-08-29T06:52:55Z</time>
      </trkpt>
      <trkpt lat="42.4337990" lon="-2.8248880">
        <ele>554.6</ele>
        <time>2022-08-29T06:52:56Z</time>
      </trkpt>
      <trkpt lat="42.4338020" lon="-2.8249420">
        <ele>554.8</ele>
        <time>2022-08-29T06:52:57Z</time>
      </trkpt>
      <trkpt lat="42.4338050" lon="-2.8249930">
        <ele>555.0</ele>
        <time>2022-08-29T06:52:58Z</time>
      </trkpt>
      <trkpt lat="42.4338090" lon="-2.8250430">
        <ele>554.8</ele>
        <time>2022-08-29T06:52:59Z</time>
      </trkpt>
      <trkpt lat="42.4338130" lon="-2.8250920">
        <ele>555.0</ele>
        <time>2022-08-29T06:53:00Z</time>
      </trkpt>
      <trkpt lat="42.4338150" lon="-2.8251420">
        <ele>555.0</ele>
        <time>2022-08-29T06:53:01Z</time>
      </trkpt>
      <trkpt lat="42.4338200" lon="-2.8251920">
        <ele>555.2</ele>
        <time>2022-08-29T06:53:02Z</time>
      </trkpt>
      <trkpt lat="42.4338250" lon="-2.8252420">
        <ele>555.4</ele>
        <time>2022-08-29T06:53:03Z</time>
      </trkpt>
      <trkpt lat="42.4338290" lon="-2.8252920">
        <ele>555.4</ele>
        <time>2022-08-29T06:53:04Z</time>
      </trkpt>
      <trkpt lat="42.4338310" lon="-2.8253420">
        <ele>555.4</ele>
        <time>2022-08-29T06:53:05Z</time>
      </trkpt>
      <trkpt lat="42.4338340" lon="-2.8253920">
        <ele>555.6</ele>
        <time>2022-08-29T06:53:06Z</time>
      </trkpt>
      <trkpt lat="42.4338390" lon="-2.8254410">
        <ele>555.8</ele>
        <time>2022-08-29T06:53:07Z</time>
      </trkpt>
      <trkpt lat="42.4338480" lon="-2.8254890">
        <ele>556.0</ele>
        <time>2022-08-29T06:53:08Z</time>
      </trkpt>
      <trkpt lat="42.4338580" lon="-2.8255370">
        <ele>556.2</ele>
        <time>2022-08-29T06:53:09Z</time>
      </trkpt>
      <trkpt lat="42.4338630" lon="-2.8255860">
        <ele>556.2</ele>
        <time>2022-08-29T06:53:10Z</time>
      </trkpt>
      <trkpt lat="42.4338670" lon="-2.8256360">
        <ele>556.2</ele>
        <time>2022-08-29T06:53:11Z</time>
      </trkpt>
      <trkpt lat="42.4338700" lon="-2.8256870">
        <ele>556.4</ele>
        <time>2022-08-29T06:53:12Z</time>
      </trkpt>
      <trkpt lat="42.4338720" lon="-2.8257400">
        <ele>556.8</ele>
        <time>2022-08-29T06:53:13Z</time>
      </trkpt>
      <trkpt lat="42.4338750" lon="-2.8257920">
        <ele>556.8</ele>
        <time>2022-08-29T06:53:14Z</time>
      </trkpt>
      <trkpt lat="42.4338780" lon="-2.8258450">
        <ele>557.0</ele>
        <time>2022-08-29T06:53:15Z</time>
      </trkpt>
      <trkpt lat="42.4338810" lon="-2.8258990">
        <ele>557.2</ele>
        <time>2022-08-29T06:53:16Z</time>
      </trkpt>
      <trkpt lat="42.4338860" lon="-2.8259550">
        <ele>557.4</ele>
        <time>2022-08-29T06:53:17Z</time>
      </trkpt>
      <trkpt lat="42.4338890" lon="-2.8260100">
        <ele>557.4</ele>
        <time>2022-08-29T06:53:18Z</time>
      </trkpt>
      <trkpt lat="42.4338940" lon="-2.8260660">
        <ele>557.4</ele>
        <time>2022-08-29T06:53:19Z</time>
      </trkpt>
      <trkpt lat="42.4338990" lon="-2.8261220">
        <ele>557.4</ele>
        <time>2022-08-29T06:53:20Z</time>
      </trkpt>
      <trkpt lat="42.4339030" lon="-2.8261780">
        <ele>557.6</ele>
        <time>2022-08-29T06:53:21Z</time>
      </trkpt>
      <trkpt lat="42.4339050" lon="-2.8262320">
        <ele>557.6</ele>
        <time>2022-08-29T06:53:22Z</time>
      </trkpt>
      <trkpt lat="42.4339080" lon="-2.8262860">
        <ele>557.4</ele>
        <time>2022-08-29T06:53:23Z</time>
      </trkpt>
      <trkpt lat="42.4339120" lon="-2.8263390">
        <ele>557.6</ele>
        <time>2022-08-29T06:53:24Z</time>
      </trkpt>
      <trkpt lat="42.4339170" lon="-2.8263910">
        <ele>557.6</ele>
        <time>2022-08-29T06:53:25Z</time>
      </trkpt>
      <trkpt lat="42.4339220" lon="-2.8264420">
        <ele>557.6</ele>
        <time>2022-08-29T06:53:26Z</time>
      </trkpt>
      <trkpt lat="42.4339250" lon="-2.8264970">
        <ele>557.6</ele>
        <time>2022-08-29T06:53:27Z</time>
      </trkpt>
      <trkpt lat="42.4339290" lon="-2.8265500">
        <ele>557.6</ele>
        <time>2022-08-29T06:53:28Z</time>
      </trkpt>
      <trkpt lat="42.4339320" lon="-2.8266030">
        <ele>557.6</ele>
        <time>2022-08-29T06:53:29Z</time>
      </trkpt>
      <trkpt lat="42.4339360" lon="-2.8266580">
        <ele>557.6</ele>
        <time>2022-08-29T06:53:30Z</time>
      </trkpt>
      <trkpt lat="42.4339410" lon="-2.8267120">
        <ele>557.8</ele>
        <time>2022-08-29T06:53:31Z</time>
      </trkpt>
      <trkpt lat="42.4339460" lon="-2.8267660">
        <ele>557.8</ele>
        <time>2022-08-29T06:53:32Z</time>
      </trkpt>
      <trkpt lat="42.4339510" lon="-2.8268230">
        <ele>557.8</ele>
        <time>2022-08-29T06:53:33Z</time>
      </trkpt>
      <trkpt lat="42.4339560" lon="-2.8268790">
        <ele>558.0</ele>
        <time>2022-08-29T06:53:34Z</time>
      </trkpt>
      <trkpt lat="42.4339600" lon="-2.8269360">
        <ele>558.2</ele>
        <time>2022-08-29T06:53:35Z</time>
      </trkpt>
      <trkpt lat="42.4339640" lon="-2.8269940">
        <ele>558.4</ele>
        <time>2022-08-29T06:53:36Z</time>
      </trkpt>
      <trkpt lat="42.4339680" lon="-2.8270520">
        <ele>558.4</ele>
        <time>2022-08-29T06:53:37Z</time>
      </trkpt>
      <trkpt lat="42.4339720" lon="-2.8271110">
        <ele>558.4</ele>
        <time>2022-08-29T06:53:38Z</time>
      </trkpt>
      <trkpt lat="42.4339770" lon="-2.8271720">
        <ele>558.4</ele>
        <time>2022-08-29T06:53:39Z</time>
      </trkpt>
      <trkpt lat="42.4339820" lon="-2.8272320">
        <ele>558.4</ele>
        <time>2022-08-29T06:53:40Z</time>
      </trkpt>
      <trkpt lat="42.4339850" lon="-2.8272920">
        <ele>558.4</ele>
        <time>2022-08-29T06:53:41Z</time>
      </trkpt>
      <trkpt lat="42.4339840" lon="-2.8273510">
        <ele>558.4</ele>
        <time>2022-08-29T06:53:42Z</time>
      </trkpt>
      <trkpt lat="42.4339820" lon="-2.8274090">
        <ele>558.6</ele>
        <time>2022-08-29T06:53:43Z</time>
      </trkpt>
      <trkpt lat="42.4339820" lon="-2.8274670">
        <ele>558.6</ele>
        <time>2022-08-29T06:53:44Z</time>
      </trkpt>
      <trkpt lat="42.4339850" lon="-2.8275260">
        <ele>558.6</ele>
        <time>2022-08-29T06:53:45Z</time>
      </trkpt>
      <trkpt lat="42.4339890" lon="-2.8275830">
        <ele>558.6</ele>
        <time>2022-08-29T06:53:46Z</time>
      </trkpt>
      <trkpt lat="42.4339930" lon="-2.8276380">
        <ele>558.6</ele>
        <time>2022-08-29T06:53:47Z</time>
      </trkpt>
      <trkpt lat="42.4339970" lon="-2.8276920">
        <ele>558.6</ele>
        <time>2022-08-29T06:53:48Z</time>
      </trkpt>
      <trkpt lat="42.4340070" lon="-2.8277450">
        <ele>558.6</ele>
        <time>2022-08-29T06:53:49Z</time>
      </trkpt>
      <trkpt lat="42.4340180" lon="-2.8277980">
        <ele>558.8</ele>
        <time>2022-08-29T06:53:50Z</time>
      </trkpt>
      <trkpt lat="42.4340260" lon="-2.8278510">
        <ele>558.6</ele>
        <time>2022-08-29T06:53:51Z</time>
      </trkpt>
      <trkpt lat="42.4340350" lon="-2.8279060">
        <ele>558.6</ele>
        <time>2022-08-29T06:53:52Z</time>
      </trkpt>
      <trkpt lat="42.4340420" lon="-2.8279620">
        <ele>558.6</ele>
        <time>2022-08-29T06:53:53Z</time>
      </trkpt>
      <trkpt lat="42.4340490" lon="-2.8280190">
        <ele>558.6</ele>
        <time>2022-08-29T06:53:54Z</time>
      </trkpt>
      <trkpt lat="42.4340570" lon="-2.8280770">
        <ele>558.4</ele>
        <time>2022-08-29T06:53:55Z</time>
      </trkpt>
      <trkpt lat="42.4340620" lon="-2.8281350">
        <ele>558.6</ele>
        <time>2022-08-29T06:53:56Z</time>
      </trkpt>
      <trkpt lat="42.4340680" lon="-2.8281920">
        <ele>558.6</ele>
        <time>2022-08-29T06:53:57Z</time>
      </trkpt>
      <trkpt lat="42.4340780" lon="-2.8282480">
        <ele>558.6</ele>
        <time>2022-08-29T06:53:58Z</time>
      </trkpt>
      <trkpt lat="42.4340900" lon="-2.8283050">
        <ele>558.6</ele>
        <time>2022-08-29T06:53:59Z</time>
      </trkpt>
      <trkpt lat="42.4341000" lon="-2.8283660">
        <ele>558.6</ele>
        <time>2022-08-29T06:54:00Z</time>
      </trkpt>
      <trkpt lat="42.4341080" lon="-2.8284280">
        <ele>558.4</ele>
        <time>2022-08-29T06:54:01Z</time>
      </trkpt>
      <trkpt lat="42.4341160" lon="-2.8284890">
        <ele>558.4</ele>
        <time>2022-08-29T06:54:02Z</time>
      </trkpt>
      <trkpt lat="42.4341240" lon="-2.8285480">
        <ele>558.4</ele>
        <time>2022-08-29T06:54:03Z</time>
      </trkpt>
      <trkpt lat="42.4341330" lon="-2.8286030">
        <ele>558.6</ele>
        <time>2022-08-29T06:54:04Z</time>
      </trkpt>
      <trkpt lat="42.4341360" lon="-2.8286550">
        <ele>558.4</ele>
        <time>2022-08-29T06:54:05Z</time>
      </trkpt>
      <trkpt lat="42.4341360" lon="-2.8287080">
        <ele>558.4</ele>
        <time>2022-08-29T06:54:06Z</time>
      </trkpt>
      <trkpt lat="42.4341420" lon="-2.8287600">
        <ele>558.6</ele>
        <time>2022-08-29T06:54:07Z</time>
      </trkpt>
      <trkpt lat="42.4341500" lon="-2.8288140">
        <ele>558.6</ele>
        <time>2022-08-29T06:54:08Z</time>
      </trkpt>
      <trkpt lat="42.4341550" lon="-2.8288700">
        <ele>558.6</ele>
        <time>2022-08-29T06:54:09Z</time>
      </trkpt>
      <trkpt lat="42.4341600" lon="-2.8289280">
        <ele>558.4</ele>
        <time>2022-08-29T06:54:10Z</time>
      </trkpt>
      <trkpt lat="42.4341630" lon="-2.8289890">
        <ele>558.6</ele>
        <time>2022-08-29T06:54:11Z</time>
      </trkpt>
      <trkpt lat="42.4341640" lon="-2.8290510">
        <ele>558.6</ele>
        <time>2022-08-29T06:54:12Z</time>
      </trkpt>
      <trkpt lat="42.4341630" lon="-2.8291140">
        <ele>558.6</ele>
        <time>2022-08-29T06:54:13Z</time>
      </trkpt>
      <trkpt lat="42.4341600" lon="-2.8291760">
        <ele>558.6</ele>
        <time>2022-08-29T06:54:14Z</time>
      </trkpt>
      <trkpt lat="42.4341560" lon="-2.8292390">
        <ele>558.6</ele>
        <time>2022-08-29T06:54:15Z</time>
      </trkpt>
      <trkpt lat="42.4341550" lon="-2.8293000">
        <ele>558.8</ele>
        <time>2022-08-29T06:54:16Z</time>
      </trkpt>
      <trkpt lat="42.4341540" lon="-2.8293590">
        <ele>558.8</ele>
        <time>2022-08-29T06:54:17Z</time>
      </trkpt>
      <trkpt lat="42.4341490" lon="-2.8294190">
        <ele>558.8</ele>
        <time>2022-08-29T06:54:18Z</time>
      </trkpt>
      <trkpt lat="42.4341450" lon="-2.8294760">
        <ele>558.8</ele>
        <time>2022-08-29T06:54:19Z</time>
      </trkpt>
      <trkpt lat="42.4341420" lon="-2.8295300">
        <ele>559.0</ele>
        <time>2022-08-29T06:54:20Z</time>
      </trkpt>
      <trkpt lat="42.4341410" lon="-2.8295860">
        <ele>559.2</ele>
        <time>2022-08-29T06:54:21Z</time>
      </trkpt>
      <trkpt lat="42.4341410" lon="-2.8296450">
        <ele>559.0</ele>
        <time>2022-08-29T06:54:22Z</time>
      </trkpt>
      <trkpt lat="42.4341380" lon="-2.8297100">
        <ele>559.2</ele>
        <time>2022-08-29T06:54:23Z</time>
      </trkpt>
      <trkpt lat="42.4341360" lon="-2.8297770">
        <ele>559.2</ele>
        <time>2022-08-29T06:54:24Z</time>
      </trkpt>
      <trkpt lat="42.4341370" lon="-2.8298450">
        <ele>559.2</ele>
        <time>2022-08-29T06:54:25Z</time>
      </trkpt>
      <trkpt lat="42.4341390" lon="-2.8299110">
        <ele>559.4</ele>
        <time>2022-08-29T06:54:26Z</time>
      </trkpt>
      <trkpt lat="42.4341400" lon="-2.8299780">
        <ele>559.2</ele>
        <time>2022-08-29T06:54:27Z</time>
      </trkpt>
      <trkpt lat="42.4341410" lon="-2.8300440">
        <ele>559.6</ele>
        <time>2022-08-29T06:54:28Z</time>
      </trkpt>
      <trkpt lat="42.4341430" lon="-2.8301120">
        <ele>559.8</ele>
        <time>2022-08-29T06:54:29Z</time>
      </trkpt>
      <trkpt lat="42.4341470" lon="-2.8301790">
        <ele>560.0</ele>
        <time>2022-08-29T06:54:30Z</time>
      </trkpt>
      <trkpt lat="42.4341500" lon="-2.8302470">
        <ele>560.0</ele>
        <time>2022-08-29T06:54:31Z</time>
      </trkpt>
      <trkpt lat="42.4341540" lon="-2.8303130">
        <ele>560.0</ele>
        <time>2022-08-29T06:54:32Z</time>
      </trkpt>
      <trkpt lat="42.4341580" lon="-2.8303780">
        <ele>560.0</ele>
        <time>2022-08-29T06:54:33Z</time>
      </trkpt>
      <trkpt lat="42.4341610" lon="-2.8304420">
        <ele>560.0</ele>
        <time>2022-08-29T06:54:34Z</time>
      </trkpt>
      <trkpt lat="42.4341650" lon="-2.8305070">
        <ele>560.2</ele>
        <time>2022-08-29T06:54:35Z</time>
      </trkpt>
      <trkpt lat="42.4341710" lon="-2.8305720">
        <ele>560.2</ele>
        <time>2022-08-29T06:54:36Z</time>
      </trkpt>
      <trkpt lat="42.4341790" lon="-2.8306380">
        <ele>560.2</ele>
        <time>2022-08-29T06:54:37Z</time>
      </trkpt>
      <trkpt lat="42.4341890" lon="-2.8307030">
        <ele>560.2</ele>
        <time>2022-08-29T06:54:38Z</time>
      </trkpt>
      <trkpt lat="42.4341990" lon="-2.8307690">
        <ele>560.4</ele>
        <time>2022-08-29T06:54:39Z</time>
      </trkpt>
      <trkpt lat="42.4342080" lon="-2.8308360">
        <ele>560.4</ele>
        <time>2022-08-29T06:54:40Z</time>
      </trkpt>
      <trkpt lat="42.4342180" lon="-2.8309020">
        <ele>560.6</ele>
        <time>2022-08-29T06:54:41Z</time>
      </trkpt>
      <trkpt lat="42.4342270" lon="-2.8309680">
        <ele>560.6</ele>
        <time>2022-08-29T06:54:42Z</time>
      </trkpt>
      <trkpt lat="42.4342330" lon="-2.8310310">
        <ele>560.8</ele>
        <time>2022-08-29T06:54:43Z</time>
      </trkpt>
      <trkpt lat="42.4342400" lon="-2.8310950">
        <ele>560.8</ele>
        <time>2022-08-29T06:54:44Z</time>
      </trkpt>
      <trkpt lat="42.4342440" lon="-2.8311580">
        <ele>560.8</ele>
        <time>2022-08-29T06:54:45Z</time>
      </trkpt>
      <trkpt lat="42.4342450" lon="-2.8312200">
        <ele>561.0</ele>
        <time>2022-08-29T06:54:46Z</time>
      </trkpt>
      <trkpt lat="42.4342440" lon="-2.8312840">
        <ele>561.0</ele>
        <time>2022-08-29T06:54:47Z</time>
      </trkpt>
      <trkpt lat="42.4342450" lon="-2.8313500">
        <ele>560.8</ele>
        <time>2022-08-29T06:54:48Z</time>
      </trkpt>
      <trkpt lat="42.4342500" lon="-2.8314170">
        <ele>561.0</ele>
        <time>2022-08-29T06:54:49Z</time>
      </trkpt>
      <trkpt lat="42.4342540" lon="-2.8314860">
        <ele>561.0</ele>
        <time>2022-08-29T06:54:50Z</time>
      </trkpt>
      <trkpt lat="42.4342550" lon="-2.8315540">
        <ele>561.0</ele>
        <time>2022-08-29T06:54:51Z</time>
      </trkpt>
      <trkpt lat="42.4342540" lon="-2.8316230">
        <ele>561.2</ele>
        <time>2022-08-29T06:54:52Z</time>
      </trkpt>
      <trkpt lat="42.4342510" lon="-2.8316900">
        <ele>561.2</ele>
        <time>2022-08-29T06:54:53Z</time>
      </trkpt>
      <trkpt lat="42.4342480" lon="-2.8317600">
        <ele>561.4</ele>
        <time>2022-08-29T06:54:54Z</time>
      </trkpt>
      <trkpt lat="42.4342460" lon="-2.8318280">
        <ele>561.4</ele>
        <time>2022-08-29T06:54:55Z</time>
      </trkpt>
      <trkpt lat="42.4342450" lon="-2.8318970">
        <ele>561.4</ele>
        <time>2022-08-29T06:54:56Z</time>
      </trkpt>
      <trkpt lat="42.4342430" lon="-2.8319660">
        <ele>561.4</ele>
        <time>2022-08-29T06:54:57Z</time>
      </trkpt>
      <trkpt lat="42.4342400" lon="-2.8320340">
        <ele>561.6</ele>
        <time>2022-08-29T06:54:58Z</time>
      </trkpt>
      <trkpt lat="42.4342380" lon="-2.8321010">
        <ele>561.6</ele>
        <time>2022-08-29T06:54:59Z</time>
      </trkpt>
      <trkpt lat="42.4342360" lon="-2.8321670">
        <ele>561.6</ele>
        <time>2022-08-29T06:55:00Z</time>
      </trkpt>
      <trkpt lat="42.4342330" lon="-2.8322320">
        <ele>561.6</ele>
        <time>2022-08-29T06:55:01Z</time>
      </trkpt>
      <trkpt lat="42.4342310" lon="-2.8322980">
        <ele>561.6</ele>
        <time>2022-08-29T06:55:02Z</time>
      </trkpt>
      <trkpt lat="42.4342270" lon="-2.8323650">
        <ele>561.8</ele>
        <time>2022-08-29T06:55:03Z</time>
      </trkpt>
      <trkpt lat="42.4342250" lon="-2.8324320">
        <ele>561.6</ele>
        <time>2022-08-29T06:55:04Z</time>
      </trkpt>
      <trkpt lat="42.4342230" lon="-2.8324980">
        <ele>561.8</ele>
        <time>2022-08-29T06:55:05Z</time>
      </trkpt>
      <trkpt lat="42.4342200" lon="-2.8325630">
        <ele>561.8</ele>
        <time>2022-08-29T06:55:06Z</time>
      </trkpt>
      <trkpt lat="42.4342150" lon="-2.8326300">
        <ele>561.8</ele>
        <time>2022-08-29T06:55:07Z</time>
      </trkpt>
      <trkpt lat="42.4342070" lon="-2.8326960">
        <ele>561.8</ele>
        <time>2022-08-29T06:55:08Z</time>
      </trkpt>
      <trkpt lat="42.4341960" lon="-2.8327620">
        <ele>562.0</ele>
        <time>2022-08-29T06:55:09Z</time>
      </trkpt>
      <trkpt lat="42.4341830" lon="-2.8328270">
        <ele>562.0</ele>
        <time>2022-08-29T06:55:10Z</time>
      </trkpt>
      <trkpt lat="42.4341680" lon="-2.8328890">
        <ele>562.2</ele>
        <time>2022-08-29T06:55:11Z</time>
      </trkpt>
      <trkpt lat="42.4341510" lon="-2.8329470">
        <ele>562.4</ele>
        <time>2022-08-29T06:55:12Z</time>
      </trkpt>
      <trkpt lat="42.4341300" lon="-2.8330020">
        <ele>562.6</ele>
        <time>2022-08-29T06:55:13Z</time>
      </trkpt>
      <trkpt lat="42.4341050" lon="-2.8330530">
        <ele>562.6</ele>
        <time>2022-08-29T06:55:14Z</time>
      </trkpt>
      <trkpt lat="42.4340800" lon="-2.8331030">
        <ele>562.6</ele>
        <time>2022-08-29T06:55:15Z</time>
      </trkpt>
      <trkpt lat="42.4340540" lon="-2.8331480">
        <ele>562.6</ele>
        <time>2022-08-29T06:55:16Z</time>
      </trkpt>
      <trkpt lat="42.4340290" lon="-2.8331910">
        <ele>563.0</ele>
        <time>2022-08-29T06:55:17Z</time>
      </trkpt>
      <trkpt lat="42.4340040" lon="-2.8332300">
        <ele>563.0</ele>
        <time>2022-08-29T06:55:18Z</time>
      </trkpt>
      <trkpt lat="42.4339810" lon="-2.8332650">
        <ele>563.2</ele>
        <time>2022-08-29T06:55:19Z</time>
      </trkpt>
      <trkpt lat="42.4339630" lon="-2.8332950">
        <ele>563.4</ele>
        <time>2022-08-29T06:55:20Z</time>
      </trkpt>
      <trkpt lat="42.4339470" lon="-2.8333240">
        <ele>563.4</ele>
        <time>2022-08-29T06:55:21Z</time>
      </trkpt>
      <trkpt lat="42.4339290" lon="-2.8333520">
        <ele>563.6</ele>
        <time>2022-08-29T06:55:22Z</time>
      </trkpt>
      <trkpt lat="42.4339090" lon="-2.8333850">
        <ele>563.6</ele>
        <time>2022-08-29T06:55:23Z</time>
      </trkpt>
      <trkpt lat="42.4338900" lon="-2.8334200">
        <ele>563.6</ele>
        <time>2022-08-29T06:55:24Z</time>
      </trkpt>
      <trkpt lat="42.4338680" lon="-2.8334600">
        <ele>564.0</ele>
        <time>2022-08-29T06:55:25Z</time>
      </trkpt>
      <trkpt lat="42.4338430" lon="-2.8335080">
        <ele>564.4</ele>
        <time>2022-08-29T06:55:26Z</time>
      </trkpt>
      <trkpt lat="42.4338130" lon="-2.8335620">
        <ele>564.6</ele>
        <time>2022-08-29T06:55:27Z</time>
      </trkpt>
      <trkpt lat="42.4337790" lon="-2.8336200">
        <ele>565.0</ele>
        <time>2022-08-29T06:55:28Z</time>
      </trkpt>
      <trkpt lat="42.4337430" lon="-2.8336820">
        <ele>565.0</ele>
        <time>2022-08-29T06:55:29Z</time>
      </trkpt>
      <trkpt lat="42.4337120" lon="-2.8337480">
        <ele>565.0</ele>
        <time>2022-08-29T06:55:30Z</time>
      </trkpt>
      <trkpt lat="42.4336820" lon="-2.8338140">
        <ele>565.0</ele>
        <time>2022-08-29T06:55:31Z</time>
      </trkpt>
      <trkpt lat="42.4336550" lon="-2.8338830">
        <ele>565.2</ele>
        <time>2022-08-29T06:55:32Z</time>
      </trkpt>
      <trkpt lat="42.4336320" lon="-2.8339550">
        <ele>565.0</ele>
        <time>2022-08-29T06:55:33Z</time>
      </trkpt>
      <trkpt lat="42.4336140" lon="-2.8340310">
        <ele>565.2</ele>
        <time>2022-08-29T06:55:34Z</time>
      </trkpt>
      <trkpt lat="42.4336030" lon="-2.8341080">
        <ele>565.0</ele>
        <time>2022-08-29T06:55:35Z</time>
      </trkpt>
      <trkpt lat="42.4335970" lon="-2.8341860">
        <ele>565.2</ele>
        <time>2022-08-29T06:55:36Z</time>
      </trkpt>
      <trkpt lat="42.4335950" lon="-2.8342650">
        <ele>565.2</ele>
        <time>2022-08-29T06:55:37Z</time>
      </trkpt>
      <trkpt lat="42.4335970" lon="-2.8343440">
        <ele>565.0</ele>
        <time>2022-08-29T06:55:38Z</time>
      </trkpt>
      <trkpt lat="42.4335980" lon="-2.8344220">
        <ele>565.0</ele>
        <time>2022-08-29T06:55:39Z</time>
      </trkpt>
      <trkpt lat="42.4335960" lon="-2.8345000">
        <ele>565.0</ele>
        <time>2022-08-29T06:55:40Z</time>
      </trkpt>
      <trkpt lat="42.4335900" lon="-2.8345770">
        <ele>564.8</ele>
        <time>2022-08-29T06:55:41Z</time>
      </trkpt>
      <trkpt lat="42.4335850" lon="-2.8346550">
        <ele>564.8</ele>
        <time>2022-08-29T06:55:42Z</time>
      </trkpt>
      <trkpt lat="42.4335800" lon="-2.8347320">
        <ele>564.8</ele>
        <time>2022-08-29T06:55:43Z</time>
      </trkpt>
      <trkpt lat="42.4335740" lon="-2.8348100">
        <ele>564.8</ele>
        <time>2022-08-29T06:55:44Z</time>
      </trkpt>
      <trkpt lat="42.4335710" lon="-2.8348900">
        <ele>564.8</ele>
        <time>2022-08-29T06:55:45Z</time>
      </trkpt>
      <trkpt lat="42.4335680" lon="-2.8349710">
        <ele>564.8</ele>
        <time>2022-08-29T06:55:46Z</time>
      </trkpt>
      <trkpt lat="42.4335680" lon="-2.8350490">
        <ele>564.6</ele>
        <time>2022-08-29T06:55:47Z</time>
      </trkpt>
      <trkpt lat="42.4335670" lon="-2.8351270">
        <ele>564.6</ele>
        <time>2022-08-29T06:55:48Z</time>
      </trkpt>
      <trkpt lat="42.4335660" lon="-2.8352060">
        <ele>564.8</ele>
        <time>2022-08-29T06:55:49Z</time>
      </trkpt>
      <trkpt lat="42.4335630" lon="-2.8352840">
        <ele>565.0</ele>
        <time>2022-08-29T06:55:50Z</time>
      </trkpt>
      <trkpt lat="42.4335590" lon="-2.8353620">
        <ele>565.0</ele>
        <time>2022-08-29T06:55:51Z</time>
      </trkpt>
      <trkpt lat="42.4335540" lon="-2.8354400">
        <ele>565.0</ele>
        <time>2022-08-29T06:55:52Z</time>
      </trkpt>
      <trkpt lat="42.4335500" lon="-2.8355180">
        <ele>565.0</ele>
        <time>2022-08-29T06:55:53Z</time>
      </trkpt>
      <trkpt lat="42.4335500" lon="-2.8355950">
        <ele>565.0</ele>
        <time>2022-08-29T06:55:54Z</time>
      </trkpt>
      <trkpt lat="42.4335520" lon="-2.8356720">
        <ele>565.0</ele>
        <time>2022-08-29T06:55:55Z</time>
      </trkpt>
      <trkpt lat="42.4335530" lon="-2.8357460">
        <ele>565.0</ele>
        <time>2022-08-29T06:55:56Z</time>
      </trkpt>
      <trkpt lat="42.4335530" lon="-2.8358190">
        <ele>565.0</ele>
        <time>2022-08-29T06:55:57Z</time>
      </trkpt>
      <trkpt lat="42.4335520" lon="-2.8358910">
        <ele>565.0</ele>
        <time>2022-08-29T06:55:58Z</time>
      </trkpt>
      <trkpt lat="42.4335510" lon="-2.8359610">
        <ele>565.0</ele>
        <time>2022-08-29T06:55:59Z</time>
      </trkpt>
      <trkpt lat="42.4335530" lon="-2.8360290">
        <ele>565.0</ele>
        <time>2022-08-29T06:56:00Z</time>
      </trkpt>
      <trkpt lat="42.4335580" lon="-2.8360960">
        <ele>565.0</ele>
        <time>2022-08-29T06:56:01Z</time>
      </trkpt>
      <trkpt lat="42.4335630" lon="-2.8361620">
        <ele>565.2</ele>
        <time>2022-08-29T06:56:02Z</time>
      </trkpt>
      <trkpt lat="42.4335670" lon="-2.8362250">
        <ele>565.0</ele>
        <time>2022-08-29T06:56:03Z</time>
      </trkpt>
      <trkpt lat="42.4335680" lon="-2.8362890">
        <ele>565.0</ele>
        <time>2022-08-29T06:56:04Z</time>
      </trkpt>
      <trkpt lat="42.4335680" lon="-2.8363490">
        <ele>565.2</ele>
        <time>2022-08-29T06:56:05Z</time>
      </trkpt>
      <trkpt lat="42.4335700" lon="-2.8364020">
        <ele>565.2</ele>
        <time>2022-08-29T06:56:06Z</time>
      </trkpt>
      <trkpt lat="42.4335720" lon="-2.8364480">
        <ele>565.2</ele>
        <time>2022-08-29T06:56:07Z</time>
      </trkpt>
      <trkpt lat="42.4335730" lon="-2.8364850">
        <ele>565.2</ele>
        <time>2022-08-29T06:56:08Z</time>
      </trkpt>
      <trkpt lat="42.4335750" lon="-2.8365180">
        <ele>565.4</ele>
        <time>2022-08-29T06:56:09Z</time>
      </trkpt>
      <trkpt lat="42.4335770" lon="-2.8365530">
        <ele>565.4</ele>
        <time>2022-08-29T06:56:10Z</time>
      </trkpt>
      <trkpt lat="42.4335790" lon="-2.8365930">
        <ele>565.4</ele>
        <time>2022-08-29T06:56:11Z</time>
      </trkpt>
      <trkpt lat="42.4335800" lon="-2.8366380">
        <ele>565.6</ele>
        <time>2022-08-29T06:56:12Z</time>
      </trkpt>
      <trkpt lat="42.4335820" lon="-2.8366890">
        <ele>565.6</ele>
        <time>2022-08-29T06:56:13Z</time>
      </trkpt>
      <trkpt lat="42.4335830" lon="-2.8367450">
        <ele>565.8</ele>
        <time>2022-08-29T06:56:14Z</time>
      </trkpt>
      <trkpt lat="42.4335840" lon="-2.8368060">
        <ele>566.0</ele>
        <time>2022-08-29T06:56:15Z</time>
      </trkpt>
      <trkpt lat="42.4335860" lon="-2.8368700">
        <ele>566.0</ele>
        <time>2022-08-29T06:56:16Z</time>
      </trkpt>
      <trkpt lat="42.4335870" lon="-2.8369350">
        <ele>566.0</ele>
        <time>2022-08-29T06:56:17Z</time>
      </trkpt>
      <trkpt lat="42.4335890" lon="-2.8370020">
        <ele>566.0</ele>
        <time>2022-08-29T06:56:18Z</time>
      </trkpt>
      <trkpt lat="42.4335900" lon="-2.8370680">
        <ele>566.2</ele>
        <time>2022-08-29T06:56:19Z</time>
      </trkpt>
      <trkpt lat="42.4335900" lon="-2.8371340">
        <ele>566.2</ele>
        <time>2022-08-29T06:56:20Z</time>
      </trkpt>
      <trkpt lat="42.4335930" lon="-2.8372000">
        <ele>566.2</ele>
        <time>2022-08-29T06:56:21Z</time>
      </trkpt>
      <trkpt lat="42.4335970" lon="-2.8372680">
        <ele>566.2</ele>
        <time>2022-08-29T06:56:22Z</time>
      </trkpt>
      <trkpt lat="42.4336000" lon="-2.8373350">
        <ele>566.2</ele>
        <time>2022-08-29T06:56:23Z</time>
      </trkpt>
      <trkpt lat="42.4336050" lon="-2.8374010">
        <ele>566.4</ele>
        <time>2022-08-29T06:56:24Z</time>
      </trkpt>
      <trkpt lat="42.4336100" lon="-2.8374670">
        <ele>566.4</ele>
        <time>2022-08-29T06:56:25Z</time>
      </trkpt>
      <trkpt lat="42.4336140" lon="-2.8375330">
        <ele>566.2</ele>
        <time>2022-08-29T06:56:26Z</time>
      </trkpt>
      <trkpt lat="42.4336170" lon="-2.8375980">
        <ele>566.4</ele>
        <time>2022-08-29T06:56:27Z</time>
      </trkpt>
      <trkpt lat="42.4336180" lon="-2.8376640">
        <ele>566.4</ele>
        <time>2022-08-29T06:56:28Z</time>
      </trkpt>
      <trkpt lat="42.4336200" lon="-2.8377280">
        <ele>566.6</ele>
        <time>2022-08-29T06:56:29Z</time>
      </trkpt>
      <trkpt lat="42.4336220" lon="-2.8377900">
        <ele>566.4</ele>
        <time>2022-08-29T06:56:30Z</time>
      </trkpt>
      <trkpt lat="42.4336240" lon="-2.8378490">
        <ele>566.4</ele>
        <time>2022-08-29T06:56:31Z</time>
      </trkpt>
      <trkpt lat="42.4336280" lon="-2.8379060">
        <ele>566.6</ele>
        <time>2022-08-29T06:56:32Z</time>
      </trkpt>
      <trkpt lat="42.4336320" lon="-2.8379630">
        <ele>566.6</ele>
        <time>2022-08-29T06:56:33Z</time>
      </trkpt>
      <trkpt lat="42.4336330" lon="-2.8380210">
        <ele>566.6</ele>
        <time>2022-08-29T06:56:34Z</time>
      </trkpt>
      <trkpt lat="42.4336330" lon="-2.8380790">
        <ele>566.6</ele>
        <time>2022-08-29T06:56:35Z</time>
      </trkpt>
      <trkpt lat="42.4336350" lon="-2.8381390">
        <ele>566.6</ele>
        <time>2022-08-29T06:56:36Z</time>
      </trkpt>
      <trkpt lat="42.4336390" lon="-2.8381990">
        <ele>566.8</ele>
        <time>2022-08-29T06:56:37Z</time>
      </trkpt>
      <trkpt lat="42.4336430" lon="-2.8382600">
        <ele>566.8</ele>
        <time>2022-08-29T06:56:38Z</time>
      </trkpt>
      <trkpt lat="42.4336450" lon="-2.8383210">
        <ele>567.0</ele>
        <time>2022-08-29T06:56:39Z</time>
      </trkpt>
      <trkpt lat="42.4336470" lon="-2.8383830">
        <ele>567.0</ele>
        <time>2022-08-29T06:56:40Z</time>
      </trkpt>
      <trkpt lat="42.4336490" lon="-2.8384460">
        <ele>567.0</ele>
        <time>2022-08-29T06:56:41Z</time>
      </trkpt>
      <trkpt lat="42.4336530" lon="-2.8385100">
        <ele>567.2</ele>
        <time>2022-08-29T06:56:42Z</time>
      </trkpt>
      <trkpt lat="42.4336580" lon="-2.8385730">
        <ele>567.2</ele>
        <time>2022-08-29T06:56:43Z</time>
      </trkpt>
      <trkpt lat="42.4336610" lon="-2.8386350">
        <ele>567.4</ele>
        <time>2022-08-29T06:56:44Z</time>
      </trkpt>
      <trkpt lat="42.4336650" lon="-2.8386950">
        <ele>567.4</ele>
        <time>2022-08-29T06:56:45Z</time>
      </trkpt>
      <trkpt lat="42.4336700" lon="-2.8387570">
        <ele>567.4</ele>
        <time>2022-08-29T06:56:46Z</time>
      </trkpt>
      <trkpt lat="42.4336720" lon="-2.8388200">
        <ele>567.6</ele>
        <time>2022-08-29T06:56:47Z</time>
      </trkpt>
      <trkpt lat="42.4336800" lon="-2.8388840">
        <ele>567.6</ele>
        <time>2022-08-29T06:56:48Z</time>
      </trkpt>
      <trkpt lat="42.4336900" lon="-2.8389470">
        <ele>567.6</ele>
        <time>2022-08-29T06:56:49Z</time>
      </trkpt>
      <trkpt lat="42.4337040" lon="-2.8390110">
        <ele>567.6</ele>
        <time>2022-08-29T06:56:50Z</time>
      </trkpt>
      <trkpt lat="42.4337200" lon="-2.8390740">
        <ele>567.8</ele>
        <time>2022-08-29T06:56:51Z</time>
      </trkpt>
      <trkpt lat="42.4337380" lon="-2.8391370">
        <ele>567.8</ele>
        <time>2022-08-29T06:56:52Z</time>
      </trkpt>
      <trkpt lat="42.4337580" lon="-2.8391990">
        <ele>567.8</ele>
        <time>2022-08-29T06:56:53Z</time>
      </trkpt>
      <trkpt lat="42.4337800" lon="-2.8392610">
        <ele>567.8</ele>
        <time>2022-08-29T06:56:54Z</time>
      </trkpt>
      <trkpt lat="42.4338020" lon="-2.8393220">
        <ele>568.0</ele>
        <time>2022-08-29T06:56:55Z</time>
      </trkpt>
      <trkpt lat="42.4338230" lon="-2.8393820">
        <ele>568.2</ele>
        <time>2022-08-29T06:56:56Z</time>
      </trkpt>
      <trkpt lat="42.4338460" lon="-2.8394410">
        <ele>568.2</ele>
        <time>2022-08-29T06:56:57Z</time>
      </trkpt>
      <trkpt lat="42.4338700" lon="-2.8395030">
        <ele>568.0</ele>
        <time>2022-08-29T06:56:58Z</time>
      </trkpt>
      <trkpt lat="42.4338930" lon="-2.8395660">
        <ele>568.2</ele>
        <time>2022-08-29T06:56:59Z</time>
      </trkpt>
      <trkpt lat="42.4339160" lon="-2.8396280">
        <ele>568.2</ele>
        <time>2022-08-29T06:57:00Z</time>
      </trkpt>
      <trkpt lat="42.4339390" lon="-2.8396920">
        <ele>568.4</ele>
        <time>2022-08-29T06:57:01Z</time>
      </trkpt>
      <trkpt lat="42.4339620" lon="-2.8397590">
        <ele>568.4</ele>
        <time>2022-08-29T06:57:02Z</time>
      </trkpt>
      <trkpt lat="42.4339840" lon="-2.8398260">
        <ele>568.4</ele>
        <time>2022-08-29T06:57:03Z</time>
      </trkpt>
      <trkpt lat="42.4340060" lon="-2.8398920">
        <ele>568.6</ele>
        <time>2022-08-29T06:57:04Z</time>
      </trkpt>
      <trkpt lat="42.4340280" lon="-2.8399570">
        <ele>568.6</ele>
        <time>2022-08-29T06:57:05Z</time>
      </trkpt>
      <trkpt lat="42.4340440" lon="-2.8400260">
        <ele>568.6</ele>
        <time>2022-08-29T06:57:06Z</time>
      </trkpt>
      <trkpt lat="42.4340550" lon="-2.8400950">
        <ele>568.8</ele>
        <time>2022-08-29T06:57:07Z</time>
      </trkpt>
      <trkpt lat="42.4340610" lon="-2.8401640">
        <ele>568.6</ele>
        <time>2022-08-29T06:57:08Z</time>
      </trkpt>
      <trkpt lat="42.4340610" lon="-2.8402320">
        <ele>568.8</ele>
        <time>2022-08-29T06:57:09Z</time>
      </trkpt>
      <trkpt lat="42.4340570" lon="-2.8402930">
        <ele>568.8</ele>
        <time>2022-08-29T06:57:10Z</time>
      </trkpt>
      <trkpt lat="42.4340500" lon="-2.8403510">
        <ele>569.0</ele>
        <time>2022-08-29T06:57:11Z</time>
      </trkpt>
      <trkpt lat="42.4340430" lon="-2.8404080">
        <ele>568.8</ele>
        <time>2022-08-29T06:57:12Z</time>
      </trkpt>
      <trkpt lat="42.4340370" lon="-2.8404700">
        <ele>569.0</ele>
        <time>2022-08-29T06:57:13Z</time>
      </trkpt>
      <trkpt lat="42.4340310" lon="-2.8405330">
        <ele>569.2</ele>
        <time>2022-08-29T06:57:14Z</time>
      </trkpt>
      <trkpt lat="42.4340220" lon="-2.8405990">
        <ele>569.4</ele>
        <time>2022-08-29T06:57:15Z</time>
      </trkpt>
      <trkpt lat="42.4340160" lon="-2.8406640">
        <ele>569.2</ele>
        <time>2022-08-29T06:57:16Z</time>
      </trkpt>
      <trkpt lat="42.4340120" lon="-2.8407290">
        <ele>569.4</ele>
        <time>2022-08-29T06:57:17Z</time>
      </trkpt>
      <trkpt lat="42.4340100" lon="-2.8407960">
        <ele>569.6</ele>
        <time>2022-08-29T06:57:18Z</time>
      </trkpt>
      <trkpt lat="42.4340100" lon="-2.8408620">
        <ele>569.6</ele>
        <time>2022-08-29T06:57:19Z</time>
      </trkpt>
      <trkpt lat="42.4340120" lon="-2.8409250">
        <ele>569.6</ele>
        <time>2022-08-29T06:57:20Z</time>
      </trkpt>
      <trkpt lat="42.4340120" lon="-2.8409870">
        <ele>569.6</ele>
        <time>2022-08-29T06:57:21Z</time>
      </trkpt>
      <trkpt lat="42.4340110" lon="-2.8410490">
        <ele>569.6</ele>
        <time>2022-08-29T06:57:22Z</time>
      </trkpt>
      <trkpt lat="42.4340030" lon="-2.8411120">
        <ele>569.6</ele>
        <time>2022-08-29T06:57:23Z</time>
      </trkpt>
      <trkpt lat="42.4339830" lon="-2.8411710">
        <ele>569.6</ele>
        <time>2022-08-29T06:57:24Z</time>
      </trkpt>
      <trkpt lat="42.4339520" lon="-2.8412210">
        <ele>569.8</ele>
        <time>2022-08-29T06:57:25Z</time>
      </trkpt>
      <trkpt lat="42.4339110" lon="-2.8412500">
        <ele>569.8</ele>
        <time>2022-08-29T06:57:26Z</time>
      </trkpt>
      <trkpt lat="42.4338660" lon="-2.8412680">
        <ele>569.6</ele>
        <time>2022-08-29T06:57:27Z</time>
      </trkpt>
      <trkpt lat="42.4338210" lon="-2.8412870">
        <ele>569.6</ele>
        <time>2022-08-29T06:57:28Z</time>
      </trkpt>
      <trkpt lat="42.4337770" lon="-2.8413120">
        <ele>569.8</ele>
        <time>2022-08-29T06:57:29Z</time>
      </trkpt>
      <trkpt lat="42.4337330" lon="-2.8413460">
        <ele>569.6</ele>
        <time>2022-08-29T06:57:30Z</time>
      </trkpt>
      <trkpt lat="42.4336980" lon="-2.8413910">
        <ele>569.8</ele>
        <time>2022-08-29T06:57:31Z</time>
      </trkpt>
      <trkpt lat="42.4336700" lon="-2.8414410">
        <ele>569.8</ele>
        <time>2022-08-29T06:57:32Z</time>
      </trkpt>
      <trkpt lat="42.4336430" lon="-2.8414950">
        <ele>569.8</ele>
        <time>2022-08-29T06:57:33Z</time>
      </trkpt>
      <trkpt lat="42.4336150" lon="-2.8415500">
        <ele>569.8</ele>
        <time>2022-08-29T06:57:34Z</time>
      </trkpt>
      <trkpt lat="42.4335900" lon="-2.8416070">
        <ele>569.8</ele>
        <time>2022-08-29T06:57:35Z</time>
      </trkpt>
      <trkpt lat="42.4335650" lon="-2.8416680">
        <ele>569.8</ele>
        <time>2022-08-29T06:57:36Z</time>
      </trkpt>
      <trkpt lat="42.4335450" lon="-2.8417300">
        <ele>570.0</ele>
        <time>2022-08-29T06:57:37Z</time>
      </trkpt>
      <trkpt lat="42.4335260" lon="-2.8417930">
        <ele>569.8</ele>
        <time>2022-08-29T06:57:38Z</time>
      </trkpt>
      <trkpt lat="42.4335070" lon="-2.8418560">
        <ele>569.8</ele>
        <time>2022-08-29T06:57:39Z</time>
      </trkpt>
      <trkpt lat="42.4334860" lon="-2.8419170">
        <ele>570.0</ele>
        <time>2022-08-29T06:57:40Z</time>
      </trkpt>
      <trkpt lat="42.4334630" lon="-2.8419800">
        <ele>569.8</ele>
        <time>2022-08-29T06:57:41Z</time>
      </trkpt>
      <trkpt lat="42.4334420" lon="-2.8420450">
        <ele>569.8</ele>
        <time>2022-08-29T06:57:42Z</time>
      </trkpt>
      <trkpt lat="42.4334200" lon="-2.8421070">
        <ele>570.0</ele>
        <time>2022-08-29T06:57:43Z</time>
      </trkpt>
      <trkpt lat="42.4333990" lon="-2.8421690">
        <ele>570.0</ele>
        <time>2022-08-29T06:57:44Z</time>
      </trkpt>
      <trkpt lat="42.4333820" lon="-2.8422340">
        <ele>570.2</ele>
        <time>2022-08-29T06:57:45Z</time>
      </trkpt>
      <trkpt lat="42.4333650" lon="-2.8422930">
        <ele>570.2</ele>
        <time>2022-08-29T06:57:46Z</time>
      </trkpt>
      <trkpt lat="42.4333500" lon="-2.8423480">
        <ele>570.0</ele>
        <time>2022-08-29T06:57:47Z</time>
      </trkpt>
      <trkpt lat="42.4333350" lon="-2.8424020">
        <ele>570.0</ele>
        <time>2022-08-29T06:57:48Z</time>
      </trkpt>
      <trkpt lat="42.4333230" lon="-2.8424540">
        <ele>570.2</ele>
        <time>2022-08-29T06:57:49Z</time>
      </trkpt>
      <trkpt lat="42.4333120" lon="-2.8425040">
        <ele>570.2</ele>
        <time>2022-08-29T06:57:50Z</time>
      </trkpt>
      <trkpt lat="42.4333030" lon="-2.8425590">
        <ele>570.4</ele>
        <time>2022-08-29T06:57:51Z</time>
      </trkpt>
      <trkpt lat="42.4332940" lon="-2.8426120">
        <ele>570.6</ele>
        <time>2022-08-29T06:57:52Z</time>
      </trkpt>
      <trkpt lat="42.4332860" lon="-2.8426650">
        <ele>570.6</ele>
        <time>2022-08-29T06:57:53Z</time>
      </trkpt>
      <trkpt lat="42.4332770" lon="-2.8427190">
        <ele>570.6</ele>
        <time>2022-08-29T06:57:54Z</time>
      </trkpt>
      <trkpt lat="42.4332710" lon="-2.8427760">
        <ele>570.8</ele>
        <time>2022-08-29T06:57:55Z</time>
      </trkpt>
      <trkpt lat="42.4332660" lon="-2.8428330">
        <ele>570.8</ele>
        <time>2022-08-29T06:57:56Z</time>
      </trkpt>
      <trkpt lat="42.4332590" lon="-2.8428910">
        <ele>570.8</ele>
        <time>2022-08-29T06:57:57Z</time>
      </trkpt>
      <trkpt lat="42.4332490" lon="-2.8429500">
        <ele>570.8</ele>
        <time>2022-08-29T06:57:58Z</time>
      </trkpt>
      <trkpt lat="42.4332370" lon="-2.8430080">
        <ele>570.8</ele>
        <time>2022-08-29T06:57:59Z</time>
      </trkpt>
      <trkpt lat="42.4332260" lon="-2.8430680">
        <ele>570.8</ele>
        <time>2022-08-29T06:58:00Z</time>
      </trkpt>
      <trkpt lat="42.4332160" lon="-2.8431290">
        <ele>571.0</ele>
        <time>2022-08-29T06:58:01Z</time>
      </trkpt>
      <trkpt lat="42.4332040" lon="-2.8431940">
        <ele>571.0</ele>
        <time>2022-08-29T06:58:02Z</time>
      </trkpt>
      <trkpt lat="42.4331910" lon="-2.8432580">
        <ele>571.0</ele>
        <time>2022-08-29T06:58:03Z</time>
      </trkpt>
      <trkpt lat="42.4331760" lon="-2.8433210">
        <ele>571.2</ele>
        <time>2022-08-29T06:58:04Z</time>
      </trkpt>
      <trkpt lat="42.4331610" lon="-2.8433850">
        <ele>571.2</ele>
        <time>2022-08-29T06:58:05Z</time>
      </trkpt>
      <trkpt lat="42.4331460" lon="-2.8434490">
        <ele>571.2</ele>
        <time>2022-08-29T06:58:06Z</time>
      </trkpt>
      <trkpt lat="42.4331320" lon="-2.8435150">
        <ele>571.2</ele>
        <time>2022-08-29T06:58:07Z</time>
      </trkpt>
      <trkpt lat="42.4331160" lon="-2.8435830">
        <ele>571.2</ele>
        <time>2022-08-29T06:58:08Z</time>
      </trkpt>
      <trkpt lat="42.4331000" lon="-2.8436490">
        <ele>571.4</ele>
        <time>2022-08-29T06:58:09Z</time>
      </trkpt>
      <trkpt lat="42.4330860" lon="-2.8437200">
        <ele>571.4</ele>
        <time>2022-08-29T06:58:10Z</time>
      </trkpt>
      <trkpt lat="42.4330720" lon="-2.8437900">
        <ele>571.4</ele>
        <time>2022-08-29T06:58:11Z</time>
      </trkpt>
      <trkpt lat="42.4330580" lon="-2.8438590">
        <ele>571.2</ele>
        <time>2022-08-29T06:58:12Z</time>
      </trkpt>
      <trkpt lat="42.4330420" lon="-2.8439260">
        <ele>571.2</ele>
        <time>2022-08-29T06:58:13Z</time>
      </trkpt>
      <trkpt lat="42.4330290" lon="-2.8439930">
        <ele>571.2</ele>
        <time>2022-08-29T06:58:14Z</time>
      </trkpt>
      <trkpt lat="42.4330150" lon="-2.8440590">
        <ele>571.2</ele>
        <time>2022-08-29T06:58:15Z</time>
      </trkpt>
      <trkpt lat="42.4330030" lon="-2.8441250">
        <ele>571.4</ele>
        <time>2022-08-29T06:58:16Z</time>
      </trkpt>
      <trkpt lat="42.4329890" lon="-2.8441870">
        <ele>571.4</ele>
        <time>2022-08-29T06:58:17Z</time>
      </trkpt>
      <trkpt lat="42.4329740" lon="-2.8442500">
        <ele>571.4</ele>
        <time>2022-08-29T06:58:18Z</time>
      </trkpt>
      <trkpt lat="42.4329610" lon="-2.8443120">
        <ele>571.6</ele>
        <time>2022-08-29T06:58:19Z</time>
      </trkpt>
      <trkpt lat="42.4329470" lon="-2.8443740">
        <ele>571.6</ele>
        <time>2022-08-29T06:58:20Z</time>
      </trkpt>
      <trkpt lat="42.4329330" lon="-2.8444360">
        <ele>571.4</ele>
        <time>2022-08-29T06:58:21Z</time>
      </trkpt>
      <trkpt lat="42.4329190" lon="-2.8444970">
        <ele>571.4</ele>
        <time>2022-08-29T06:58:22Z</time>
      </trkpt>
      <trkpt lat="42.4329050" lon="-2.8445570">
        <ele>571.4</ele>
        <time>2022-08-29T06:58:23Z</time>
      </trkpt>
      <trkpt lat="42.4328920" lon="-2.8446170">
        <ele>571.6</ele>
        <time>2022-08-29T06:58:24Z</time>
      </trkpt>
      <trkpt lat="42.4328780" lon="-2.8446770">
        <ele>571.6</ele>
        <time>2022-08-29T06:58:25Z</time>
      </trkpt>
      <trkpt lat="42.4328660" lon="-2.8447390">
        <ele>571.8</ele>
        <time>2022-08-29T06:58:26Z</time>
      </trkpt>
      <trkpt lat="42.4328550" lon="-2.8448020">
        <ele>571.8</ele>
        <time>2022-08-29T06:58:27Z</time>
      </trkpt>
      <trkpt lat="42.4328440" lon="-2.8448640">
        <ele>572.0</ele>
        <time>2022-08-29T06:58:28Z</time>
      </trkpt>
      <trkpt lat="42.4328300" lon="-2.8449270">
        <ele>572.0</ele>
        <time>2022-08-29T06:58:29Z</time>
      </trkpt>
      <trkpt lat="42.4328160" lon="-2.8449900">
        <ele>572.2</ele>
        <time>2022-08-29T06:58:30Z</time>
      </trkpt>
      <trkpt lat="42.4328020" lon="-2.8450540">
        <ele>572.2</ele>
        <time>2022-08-29T06:58:31Z</time>
      </trkpt>
      <trkpt lat="42.4327880" lon="-2.8451140">
        <ele>572.2</ele>
        <time>2022-08-29T06:58:32Z</time>
      </trkpt>
      <trkpt lat="42.4327750" lon="-2.8451720">
        <ele>572.2</ele>
        <time>2022-08-29T06:58:33Z</time>
      </trkpt>
      <trkpt lat="42.4327640" lon="-2.8452280">
        <ele>572.2</ele>
        <time>2022-08-29T06:58:34Z</time>
      </trkpt>
      <trkpt lat="42.4327560" lon="-2.8452840">
        <ele>572.4</ele>
        <time>2022-08-29T06:58:35Z</time>
      </trkpt>
      <trkpt lat="42.4327460" lon="-2.8453440">
        <ele>572.4</ele>
        <time>2022-08-29T06:58:36Z</time>
      </trkpt>
      <trkpt lat="42.4327360" lon="-2.8454010">
        <ele>572.4</ele>
        <time>2022-08-29T06:58:37Z</time>
      </trkpt>
      <trkpt lat="42.4327270" lon="-2.8454590">
        <ele>572.6</ele>
        <time>2022-08-29T06:58:38Z</time>
      </trkpt>
      <trkpt lat="42.4327180" lon="-2.8455150">
        <ele>572.6</ele>
        <time>2022-08-29T06:58:39Z</time>
      </trkpt>
      <trkpt lat="42.4327120" lon="-2.8455710">
        <ele>572.6</ele>
        <time>2022-08-29T06:58:40Z</time>
      </trkpt>
      <trkpt lat="42.4327070" lon="-2.8456270">
        <ele>573.0</ele>
        <time>2022-08-29T06:58:41Z</time>
      </trkpt>
      <trkpt lat="42.4327000" lon="-2.8456860">
        <ele>573.0</ele>
        <time>2022-08-29T06:58:42Z</time>
      </trkpt>
      <trkpt lat="42.4326940" lon="-2.8457430">
        <ele>573.2</ele>
        <time>2022-08-29T06:58:43Z</time>
      </trkpt>
      <trkpt lat="42.4326880" lon="-2.8458000">
        <ele>573.2</ele>
        <time>2022-08-29T06:58:44Z</time>
      </trkpt>
      <trkpt lat="42.4326810" lon="-2.8458600">
        <ele>573.4</ele>
        <time>2022-08-29T06:58:45Z</time>
      </trkpt>
      <trkpt lat="42.4326740" lon="-2.8459180">
        <ele>573.2</ele>
        <time>2022-08-29T06:58:46Z</time>
      </trkpt>
      <trkpt lat="42.4326710" lon="-2.8459780">
        <ele>573.4</ele>
        <time>2022-08-29T06:58:47Z</time>
      </trkpt>
      <trkpt lat="42.4326680" lon="-2.8460390">
        <ele>573.6</ele>
        <time>2022-08-29T06:58:48Z</time>
      </trkpt>
      <trkpt lat="42.4326670" lon="-2.8461020">
        <ele>573.8</ele>
        <time>2022-08-29T06:58:49Z</time>
      </trkpt>
      <trkpt lat="42.4326690" lon="-2.8461670">
        <ele>573.8</ele>
        <time>2022-08-29T06:58:50Z</time>
      </trkpt>
      <trkpt lat="42.4326720" lon="-2.8462310">
        <ele>574.0</ele>
        <time>2022-08-29T06:58:51Z</time>
      </trkpt>
      <trkpt lat="42.4326760" lon="-2.8462930">
        <ele>574.0</ele>
        <time>2022-08-29T06:58:52Z</time>
      </trkpt>
      <trkpt lat="42.4326810" lon="-2.8463540">
        <ele>574.0</ele>
        <time>2022-08-29T06:58:53Z</time>
      </trkpt>
      <trkpt lat="42.4326880" lon="-2.8464140">
        <ele>574.0</ele>
        <time>2022-08-29T06:58:54Z</time>
      </trkpt>
      <trkpt lat="42.4326970" lon="-2.8464750">
        <ele>574.0</ele>
        <time>2022-08-29T06:58:55Z</time>
      </trkpt>
      <trkpt lat="42.4327080" lon="-2.8465360">
        <ele>574.2</ele>
        <time>2022-08-29T06:58:56Z</time>
      </trkpt>
      <trkpt lat="42.4327210" lon="-2.8465980">
        <ele>574.2</ele>
        <time>2022-08-29T06:58:57Z</time>
      </trkpt>
      <trkpt lat="42.4327340" lon="-2.8466590">
        <ele>574.2</ele>
        <time>2022-08-29T06:58:58Z</time>
      </trkpt>
      <trkpt lat="42.4327470" lon="-2.8467220">
        <ele>574.2</ele>
        <time>2022-08-29T06:58:59Z</time>
      </trkpt>
      <trkpt lat="42.4327590" lon="-2.8467820">
        <ele>574.2</ele>
        <time>2022-08-29T06:59:00Z</time>
      </trkpt>
      <trkpt lat="42.4327720" lon="-2.8468410">
        <ele>574.2</ele>
        <time>2022-08-29T06:59:01Z</time>
      </trkpt>
      <trkpt lat="42.4327830" lon="-2.8468990">
        <ele>574.2</ele>
        <time>2022-08-29T06:59:02Z</time>
      </trkpt>
      <trkpt lat="42.4327920" lon="-2.8469580">
        <ele>574.2</ele>
        <time>2022-08-29T06:59:03Z</time>
      </trkpt>
      <trkpt lat="42.4328020" lon="-2.8470150">
        <ele>574.2</ele>
        <time>2022-08-29T06:59:04Z</time>
      </trkpt>
      <trkpt lat="42.4328130" lon="-2.8470720">
        <ele>574.2</ele>
        <time>2022-08-29T06:59:05Z</time>
      </trkpt>
      <trkpt lat="42.4328280" lon="-2.8471290">
        <ele>574.2</ele>
        <time>2022-08-29T06:59:06Z</time>
      </trkpt>
      <trkpt lat="42.4328450" lon="-2.8471830">
        <ele>574.6</ele>
        <time>2022-08-29T06:59:07Z</time>
      </trkpt>
      <trkpt lat="42.4328610" lon="-2.8472390">
        <ele>574.8</ele>
        <time>2022-08-29T06:59:08Z</time>
      </trkpt>
      <trkpt lat="42.4328740" lon="-2.8472960">
        <ele>574.8</ele>
        <time>2022-08-29T06:59:09Z</time>
      </trkpt>
      <trkpt lat="42.4328880" lon="-2.8473520">
        <ele>575.0</ele>
        <time>2022-08-29T06:59:10Z</time>
      </trkpt>
      <trkpt lat="42.4329000" lon="-2.8474070">
        <ele>575.4</ele>
        <time>2022-08-29T06:59:11Z</time>
      </trkpt>
      <trkpt lat="42.4329150" lon="-2.8474630">
        <ele>575.2</ele>
        <time>2022-08-29T06:59:12Z</time>
      </trkpt>
      <trkpt lat="42.4329280" lon="-2.8475180">
        <ele>575.4</ele>
        <time>2022-08-29T06:59:13Z</time>
      </trkpt>
      <trkpt lat="42.4329400" lon="-2.8475760">
        <ele>575.4</ele>
        <time>2022-08-29T06:59:14Z</time>
      </trkpt>
      <trkpt lat="42.4329490" lon="-2.8476330">
        <ele>575.2</ele>
        <time>2022-08-29T06:59:15Z</time>
      </trkpt>
      <trkpt lat="42.4329560" lon="-2.8476910">
        <ele>575.2</ele>
        <time>2022-08-29T06:59:16Z</time>
      </trkpt>
      <trkpt lat="42.4329640" lon="-2.8477480">
        <ele>575.2</ele>
        <time>2022-08-29T06:59:17Z</time>
      </trkpt>
      <trkpt lat="42.4329700" lon="-2.8478070">
        <ele>575.2</ele>
        <time>2022-08-29T06:59:18Z</time>
      </trkpt>
      <trkpt lat="42.4329740" lon="-2.8478660">
        <ele>575.4</ele>
        <time>2022-08-29T06:59:19Z</time>
      </trkpt>
      <trkpt lat="42.4329790" lon="-2.8479250">
        <ele>575.4</ele>
        <time>2022-08-29T06:59:20Z</time>
      </trkpt>
      <trkpt lat="42.4329830" lon="-2.8479860">
        <ele>575.4</ele>
        <time>2022-08-29T06:59:21Z</time>
      </trkpt>
      <trkpt lat="42.4329880" lon="-2.8480470">
        <ele>575.6</ele>
        <time>2022-08-29T06:59:22Z</time>
      </trkpt>
      <trkpt lat="42.4329920" lon="-2.8481090">
        <ele>575.6</ele>
        <time>2022-08-29T06:59:23Z</time>
      </trkpt>
      <trkpt lat="42.4329940" lon="-2.8481700">
        <ele>575.6</ele>
        <time>2022-08-29T06:59:24Z</time>
      </trkpt>
      <trkpt lat="42.4329940" lon="-2.8482300">
        <ele>575.6</ele>
        <time>2022-08-29T06:59:25Z</time>
      </trkpt>
      <trkpt lat="42.4329900" lon="-2.8482910">
        <ele>575.6</ele>
        <time>2022-08-29T06:59:26Z</time>
      </trkpt>
      <trkpt lat="42.4329820" lon="-2.8483520">
        <ele>575.8</ele>
        <time>2022-08-29T06:59:27Z</time>
      </trkpt>
      <trkpt lat="42.4329690" lon="-2.8484100">
        <ele>575.6</ele>
        <time>2022-08-29T06:59:28Z</time>
      </trkpt>
      <trkpt lat="42.4329520" lon="-2.8484660">
        <ele>575.8</ele>
        <time>2022-08-29T06:59:29Z</time>
      </trkpt>
      <trkpt lat="42.4329290" lon="-2.8485210">
        <ele>575.8</ele>
        <time>2022-08-29T06:59:30Z</time>
      </trkpt>
      <trkpt lat="42.4329050" lon="-2.8485730">
        <ele>575.6</ele>
        <time>2022-08-29T06:59:31Z</time>
      </trkpt>
      <trkpt lat="42.4328790" lon="-2.8486230">
        <ele>575.8</ele>
        <time>2022-08-29T06:59:32Z</time>
      </trkpt>
      <trkpt lat="42.4328510" lon="-2.8486720">
        <ele>575.8</ele>
        <time>2022-08-29T06:59:33Z</time>
      </trkpt>
      <trkpt lat="42.4328210" lon="-2.8487200">
        <ele>575.8</ele>
        <time>2022-08-29T06:59:34Z</time>
      </trkpt>
      <trkpt lat="42.4327880" lon="-2.8487640">
        <ele>575.8</ele>
        <time>2022-08-29T06:59:35Z</time>
      </trkpt>
      <trkpt lat="42.4327520" lon="-2.8488060">
        <ele>575.8</ele>
        <time>2022-08-29T06:59:36Z</time>
      </trkpt>
      <trkpt lat="42.4327170" lon="-2.8488480">
        <ele>575.8</ele>
        <time>2022-08-29T06:59:37Z</time>
      </trkpt>
      <trkpt lat="42.4326810" lon="-2.8488880">
        <ele>575.8</ele>
        <time>2022-08-29T06:59:38Z</time>
      </trkpt>
      <trkpt lat="42.4326460" lon="-2.8489260">
        <ele>575.8</ele>
        <time>2022-08-29T06:59:39Z</time>
      </trkpt>
      <trkpt lat="42.4326100" lon="-2.8489700">
        <ele>576.0</ele>
        <time>2022-08-29T06:59:40Z</time>
      </trkpt>
      <trkpt lat="42.4325750" lon="-2.8490090">
        <ele>576.0</ele>
        <time>2022-08-29T06:59:41Z</time>
      </trkpt>
      <trkpt lat="42.4325400" lon="-2.8490470">
        <ele>576.0</ele>
        <time>2022-08-29T06:59:42Z</time>
      </trkpt>
      <trkpt lat="42.4325050" lon="-2.8490850">
        <ele>576.0</ele>
        <time>2022-08-29T06:59:43Z</time>
      </trkpt>
      <trkpt lat="42.4324740" lon="-2.8491200">
        <ele>576.0</ele>
        <time>2022-08-29T06:59:44Z</time>
      </trkpt>
      <trkpt lat="42.4324450" lon="-2.8491570">
        <ele>576.2</ele>
        <time>2022-08-29T06:59:45Z</time>
      </trkpt>
      <trkpt lat="42.4324220" lon="-2.8491940">
        <ele>576.2</ele>
        <time>2022-08-29T06:59:46Z</time>
      </trkpt>
      <trkpt lat="42.4324040" lon="-2.8492350">
        <ele>576.4</ele>
        <time>2022-08-29T06:59:47Z</time>
      </trkpt>
      <trkpt lat="42.4323880" lon="-2.8492770">
        <ele>576.4</ele>
        <time>2022-08-29T06:59:48Z</time>
      </trkpt>
      <trkpt lat="42.4323730" lon="-2.8493280">
        <ele>576.4</ele>
        <time>2022-08-29T06:59:49Z</time>
      </trkpt>
      <trkpt lat="42.4323610" lon="-2.8493810">
        <ele>576.4</ele>
        <time>2022-08-29T06:59:50Z</time>
      </trkpt>
      <trkpt lat="42.4323470" lon="-2.8494350">
        <ele>576.8</ele>
        <time>2022-08-29T06:59:51Z</time>
      </trkpt>
      <trkpt lat="42.4323310" lon="-2.8494870">
        <ele>577.0</ele>
        <time>2022-08-29T06:59:52Z</time>
      </trkpt>
      <trkpt lat="42.4323120" lon="-2.8495400">
        <ele>577.0</ele>
        <time>2022-08-29T06:59:53Z</time>
      </trkpt>
      <trkpt lat="42.4322950" lon="-2.8495960">
        <ele>577.0</ele>
        <time>2022-08-29T06:59:54Z</time>
      </trkpt>
      <trkpt lat="42.4322760" lon="-2.8496500">
        <ele>577.2</ele>
        <time>2022-08-29T06:59:55Z</time>
      </trkpt>
      <trkpt lat="42.4322560" lon="-2.8497030">
        <ele>577.4</ele>
        <time>2022-08-29T06:59:56Z</time>
      </trkpt>
      <trkpt lat="42.4322370" lon="-2.8497570">
        <ele>577.6</ele>
        <time>2022-08-29T06:59:57Z</time>
      </trkpt>
      <trkpt lat="42.4322190" lon="-2.8498120">
        <ele>577.6</ele>
        <time>2022-08-29T06:59:58Z</time>
      </trkpt>
      <trkpt lat="42.4321990" lon="-2.8498660">
        <ele>577.6</ele>
        <time>2022-08-29T06:59:59Z</time>
      </trkpt>
      <trkpt lat="42.4321800" lon="-2.8499200">
        <ele>577.6</ele>
        <time>2022-08-29T07:00:00Z</time>
      </trkpt>
      <trkpt lat="42.4321620" lon="-2.8499730">
        <ele>577.6</ele>
        <time>2022-08-29T07:00:01Z</time>
      </trkpt>
      <trkpt lat="42.4321450" lon="-2.8500270">
        <ele>577.6</ele>
        <time>2022-08-29T07:00:02Z</time>
      </trkpt>
      <trkpt lat="42.4321290" lon="-2.8500790">
        <ele>577.8</ele>
        <time>2022-08-29T07:00:03Z</time>
      </trkpt>
      <trkpt lat="42.4321120" lon="-2.8501310">
        <ele>577.8</ele>
        <time>2022-08-29T07:00:04Z</time>
      </trkpt>
      <trkpt lat="42.4320930" lon="-2.8501830">
        <ele>577.8</ele>
        <time>2022-08-29T07:00:05Z</time>
      </trkpt>
      <trkpt lat="42.4320750" lon="-2.8502350">
        <ele>577.8</ele>
        <time>2022-08-29T07:00:06Z</time>
      </trkpt>
      <trkpt lat="42.4320560" lon="-2.8502880">
        <ele>577.8</ele>
        <time>2022-08-29T07:00:07Z</time>
      </trkpt>
      <trkpt lat="42.4320390" lon="-2.8503390">
        <ele>577.6</ele>
        <time>2022-08-29T07:00:08Z</time>
      </trkpt>
      <trkpt lat="42.4320220" lon="-2.8503910">
        <ele>577.8</ele>
        <time>2022-08-29T07:00:09Z</time>
      </trkpt>
      <trkpt lat="42.4320070" lon="-2.8504460">
        <ele>577.8</ele>
        <time>2022-08-29T07:00:10Z</time>
      </trkpt>
      <trkpt lat="42.4319930" lon="-2.8504980">
        <ele>577.8</ele>
        <time>2022-08-29T07:00:11Z</time>
      </trkpt>
      <trkpt lat="42.4319760" lon="-2.8505520">
        <ele>577.8</ele>
        <time>2022-08-29T07:00:12Z</time>
      </trkpt>
      <trkpt lat="42.4319570" lon="-2.8506040">
        <ele>578.0</ele>
        <time>2022-08-29T07:00:13Z</time>
      </trkpt>
      <trkpt lat="42.4319410" lon="-2.8506550">
        <ele>578.2</ele>
        <time>2022-08-29T07:00:14Z</time>
      </trkpt>
      <trkpt lat="42.4319270" lon="-2.8507110">
        <ele>578.2</ele>
        <time>2022-08-29T07:00:15Z</time>
      </trkpt>
      <trkpt lat="42.4319110" lon="-2.8507660">
        <ele>578.4</ele>
        <time>2022-08-29T07:00:16Z</time>
      </trkpt>
      <trkpt lat="42.4318960" lon="-2.8508190">
        <ele>578.6</ele>
        <time>2022-08-29T07:00:17Z</time>
      </trkpt>
      <trkpt lat="42.4318810" lon="-2.8508730">
        <ele>578.6</ele>
        <time>2022-08-29T07:00:18Z</time>
      </trkpt>
      <trkpt lat="42.4318660" lon="-2.8509280">
        <ele>578.6</ele>
        <time>2022-08-29T07:00:19Z</time>
      </trkpt>
      <trkpt lat="42.4318520" lon="-2.8509820">
        <ele>578.8</ele>
        <time>2022-08-29T07:00:20Z</time>
      </trkpt>
      <trkpt lat="42.4318370" lon="-2.8510360">
        <ele>578.8</ele>
        <time>2022-08-29T07:00:21Z</time>
      </trkpt>
      <trkpt lat="42.4318220" lon="-2.8510910">
        <ele>578.8</ele>
        <time>2022-08-29T07:00:22Z</time>
      </trkpt>
      <trkpt lat="42.4318060" lon="-2.8511460">
        <ele>579.0</ele>
        <time>2022-08-29T07:00:23Z</time>
      </trkpt>
      <trkpt lat="42.4317910" lon="-2.8512030">
        <ele>579.0</ele>
        <time>2022-08-29T07:00:24Z</time>
      </trkpt>
      <trkpt lat="42.4317750" lon="-2.8512600">
        <ele>579.0</ele>
        <time>2022-08-29T07:00:25Z</time>
      </trkpt>
      <trkpt lat="42.4317600" lon="-2.8513180">
        <ele>579.2</ele>
        <time>2022-08-29T07:00:26Z</time>
      </trkpt>
      <trkpt lat="42.4317440" lon="-2.8513760">
        <ele>579.2</ele>
        <time>2022-08-29T07:00:27Z</time>
      </trkpt>
      <trkpt lat="42.4317270" lon="-2.8514330">
        <ele>579.4</ele>
        <time>2022-08-29T07:00:28Z</time>
      </trkpt>
      <trkpt lat="42.4317110" lon="-2.8514890">
        <ele>579.2</ele>
        <time>2022-08-29T07:00:29Z</time>
      </trkpt>
      <trkpt lat="42.4316960" lon="-2.8515470">
        <ele>579.2</ele>
        <time>2022-08-29T07:00:30Z</time>
      </trkpt>
      <trkpt lat="42.4316800" lon="-2.8516020">
        <ele>579.4</ele>
        <time>2022-08-29T07:00:31Z</time>
      </trkpt>
      <trkpt lat="42.4316640" lon="-2.8516570">
        <ele>579.6</ele>
        <time>2022-08-29T07:00:32Z</time>
      </trkpt>
      <trkpt lat="42.4316500" lon="-2.8517090">
        <ele>579.6</ele>
        <time>2022-08-29T07:00:33Z</time>
      </trkpt>
      <trkpt lat="42.4316380" lon="-2.8517620">
        <ele>579.8</ele>
        <time>2022-08-29T07:00:34Z</time>
      </trkpt>
      <trkpt lat="42.4316250" lon="-2.8518140">
        <ele>579.8</ele>
        <time>2022-08-29T07:00:35Z</time>
      </trkpt>
      <trkpt lat="42.4316110" lon="-2.8518640">
        <ele>579.8</ele>
        <time>2022-08-29T07:00:36Z</time>
      </trkpt>
      <trkpt lat="42.4315970" lon="-2.8519130">
        <ele>579.8</ele>
        <time>2022-08-29T07:00:37Z</time>
      </trkpt>
      <trkpt lat="42.4315840" lon="-2.8519640">
        <ele>580.0</ele>
        <time>2022-08-29T07:00:38Z</time>
      </trkpt>
      <trkpt lat="42.4315700" lon="-2.8520130">
        <ele>580.0</ele>
        <time>2022-08-29T07:00:39Z</time>
      </trkpt>
      <trkpt lat="42.4315580" lon="-2.8520620">
        <ele>580.2</ele>
        <time>2022-08-29T07:00:40Z</time>
      </trkpt>
      <trkpt lat="42.4315460" lon="-2.8521120">
        <ele>580.4</ele>
        <time>2022-08-29T07:00:41Z</time>
      </trkpt>
      <trkpt lat="42.4315330" lon="-2.8521610">
        <ele>580.6</ele>
        <time>2022-08-29T07:00:42Z</time>
      </trkpt>
      <trkpt lat="42.4315210" lon="-2.8522100">
        <ele>580.6</ele>
        <time>2022-08-29T07:00:43Z</time>
      </trkpt>
      <trkpt lat="42.4315090" lon="-2.8522610">
        <ele>580.8</ele>
        <time>2022-08-29T07:00:44Z</time>
      </trkpt>
      <trkpt lat="42.4314950" lon="-2.8523130">
        <ele>580.8</ele>
        <time>2022-08-29T07:00:45Z</time>
      </trkpt>
      <trkpt lat="42.4314790" lon="-2.8523630">
        <ele>581.0</ele>
        <time>2022-08-29T07:00:46Z</time>
      </trkpt>
      <trkpt lat="42.4314650" lon="-2.8524130">
        <ele>581.2</ele>
        <time>2022-08-29T07:00:47Z</time>
      </trkpt>
      <trkpt lat="42.4314520" lon="-2.8524620">
        <ele>581.2</ele>
        <time>2022-08-29T07:00:48Z</time>
      </trkpt>
      <trkpt lat="42.4314400" lon="-2.8525110">
        <ele>581.2</ele>
        <time>2022-08-29T07:00:49Z</time>
      </trkpt>
      <trkpt lat="42.4314270" lon="-2.8525630">
        <ele>581.2</ele>
        <time>2022-08-29T07:00:50Z</time>
      </trkpt>
      <trkpt lat="42.4314140" lon="-2.8526130">
        <ele>581.2</ele>
        <time>2022-08-29T07:00:51Z</time>
      </trkpt>
      <trkpt lat="42.4313990" lon="-2.8526620">
        <ele>581.4</ele>
        <time>2022-08-29T07:00:52Z</time>
      </trkpt>
      <trkpt lat="42.4313850" lon="-2.8527130">
        <ele>581.4</ele>
        <time>2022-08-29T07:00:53Z</time>
      </trkpt>
      <trkpt lat="42.4313700" lon="-2.8527670">
        <ele>581.4</ele>
        <time>2022-08-29T07:00:54Z</time>
      </trkpt>
      <trkpt lat="42.4313560" lon="-2.8528160">
        <ele>581.4</ele>
        <time>2022-08-29T07:00:55Z</time>
      </trkpt>
      <trkpt lat="42.4313400" lon="-2.8528660">
        <ele>581.4</ele>
        <time>2022-08-29T07:00:56Z</time>
      </trkpt>
      <trkpt lat="42.4313240" lon="-2.8529150">
        <ele>581.4</ele>
        <time>2022-08-29T07:00:57Z</time>
      </trkpt>
      <trkpt lat="42.4313090" lon="-2.8529640">
        <ele>581.6</ele>
        <time>2022-08-29T07:00:58Z</time>
      </trkpt>
      <trkpt lat="42.4312930" lon="-2.8530130">
        <ele>581.6</ele>
        <time>2022-08-29T07:00:59Z</time>
      </trkpt>
      <trkpt lat="42.4312750" lon="-2.8530620">
        <ele>581.6</ele>
        <time>2022-08-29T07:01:00Z</time>
      </trkpt>
      <trkpt lat="42.4312570" lon="-2.8531110">
        <ele>581.6</ele>
        <time>2022-08-29T07:01:01Z</time>
      </trkpt>
      <trkpt lat="42.4312390" lon="-2.8531590">
        <ele>581.8</ele>
        <time>2022-08-29T07:01:02Z</time>
      </trkpt>
      <trkpt lat="42.4312200" lon="-2.8532080">
        <ele>581.8</ele>
        <time>2022-08-29T07:01:03Z</time>
      </trkpt>
      <trkpt lat="42.4312000" lon="-2.8532570">
        <ele>581.8</ele>
        <time>2022-08-29T07:01:04Z</time>
      </trkpt>
      <trkpt lat="42.4311800" lon="-2.8533030">
        <ele>582.0</ele>
        <time>2022-08-29T07:01:05Z</time>
      </trkpt>
      <trkpt lat="42.4311590" lon="-2.8533490">
        <ele>582.0</ele>
        <time>2022-08-29T07:01:06Z</time>
      </trkpt>
      <trkpt lat="42.4311370" lon="-2.8533970">
        <ele>582.2</ele>
        <time>2022-08-29T07:01:07Z</time>
      </trkpt>
      <trkpt lat="42.4311130" lon="-2.8534450">
        <ele>582.2</ele>
        <time>2022-08-29T07:01:08Z</time>
      </trkpt>
      <trkpt lat="42.4310900" lon="-2.8534940">
        <ele>582.4</ele>
        <time>2022-08-29T07:01:09Z</time>
      </trkpt>
      <trkpt lat="42.4310650" lon="-2.8535420">
        <ele>582.2</ele>
        <time>2022-08-29T07:01:10Z</time>
      </trkpt>
      <trkpt lat="42.4310390" lon="-2.8535900">
        <ele>582.4</ele>
        <time>2022-08-29T07:01:11Z</time>
      </trkpt>
      <trkpt lat="42.4310140" lon="-2.8536390">
        <ele>582.6</ele>
        <time>2022-08-29T07:01:12Z</time>
      </trkpt>
      <trkpt lat="42.4309880" lon="-2.8536880">
        <ele>582.6</ele>
        <time>2022-08-29T07:01:13Z</time>
      </trkpt>
      <trkpt lat="42.4309630" lon="-2.8537360">
        <ele>582.6</ele>
        <time>2022-08-29T07:01:14Z</time>
      </trkpt>
      <trkpt lat="42.4309370" lon="-2.8537840">
        <ele>582.6</ele>
        <time>2022-08-29T07:01:15Z</time>
      </trkpt>
      <trkpt lat="42.4309120" lon="-2.8538320">
        <ele>582.6</ele>
        <time>2022-08-29T07:01:16Z</time>
      </trkpt>
      <trkpt lat="42.4308870" lon="-2.8538800">
        <ele>582.8</ele>
        <time>2022-08-29T07:01:17Z</time>
      </trkpt>
      <trkpt lat="42.4308620" lon="-2.8539280">
        <ele>582.8</ele>
        <time>2022-08-29T07:01:18Z</time>
      </trkpt>
      <trkpt lat="42.4308380" lon="-2.8539760">
        <ele>582.8</ele>
        <time>2022-08-29T07:01:19Z</time>
      </trkpt>
      <trkpt lat="42.4308130" lon="-2.8540220">
        <ele>582.8</ele>
        <time>2022-08-29T07:01:20Z</time>
      </trkpt>
      <trkpt lat="42.4307880" lon="-2.8540690">
        <ele>582.8</ele>
        <time>2022-08-29T07:01:21Z</time>
      </trkpt>
      <trkpt lat="42.4307630" lon="-2.8541170">
        <ele>583.0</ele>
        <time>2022-08-29T07:01:22Z</time>
      </trkpt>
      <trkpt lat="42.4307370" lon="-2.8541660">
        <ele>583.0</ele>
        <time>2022-08-29T07:01:23Z</time>
      </trkpt>
      <trkpt lat="42.4307110" lon="-2.8542160">
        <ele>583.0</ele>
        <time>2022-08-29T07:01:24Z</time>
      </trkpt>
      <trkpt lat="42.4306850" lon="-2.8542650">
        <ele>583.2</ele>
        <time>2022-08-29T07:01:25Z</time>
      </trkpt>
      <trkpt lat="42.4306590" lon="-2.8543140">
        <ele>583.2</ele>
        <time>2022-08-29T07:01:26Z</time>
      </trkpt>
      <trkpt lat="42.4306330" lon="-2.8543640">
        <ele>583.2</ele>
        <time>2022-08-29T07:01:27Z</time>
      </trkpt>
      <trkpt lat="42.4306080" lon="-2.8544130">
        <ele>583.4</ele>
        <time>2022-08-29T07:01:28Z</time>
      </trkpt>
      <trkpt lat="42.4305820" lon="-2.8544630">
        <ele>583.4</ele>
        <time>2022-08-29T07:01:29Z</time>
      </trkpt>
      <trkpt lat="42.4305560" lon="-2.8545130">
        <ele>583.4</ele>
        <time>2022-08-29T07:01:30Z</time>
      </trkpt>
      <trkpt lat="42.4305300" lon="-2.8545630">
        <ele>583.4</ele>
        <time>2022-08-29T07:01:31Z</time>
      </trkpt>
      <trkpt lat="42.4305050" lon="-2.8546100">
        <ele>583.6</ele>
        <time>2022-08-29T07:01:32Z</time>
      </trkpt>
      <trkpt lat="42.4304800" lon="-2.8546590">
        <ele>583.6</ele>
        <time>2022-08-29T07:01:33Z</time>
      </trkpt>
      <trkpt lat="42.4304550" lon="-2.8547070">
        <ele>583.8</ele>
        <time>2022-08-29T07:01:34Z</time>
      </trkpt>
      <trkpt lat="42.4304300" lon="-2.8547560">
        <ele>583.8</ele>
        <time>2022-08-29T07:01:35Z</time>
      </trkpt>
      <trkpt lat="42.4304050" lon="-2.8548040">
        <ele>584.0</ele>
        <time>2022-08-29T07:01:36Z</time>
      </trkpt>
      <trkpt lat="42.4303800" lon="-2.8548510">
        <ele>583.8</ele>
        <time>2022-08-29T07:01:37Z</time>
      </trkpt>
      <trkpt lat="42.4303550" lon="-2.8548980">
        <ele>584.0</ele>
        <time>2022-08-29T07:01:38Z</time>
      </trkpt>
      <trkpt lat="42.4303320" lon="-2.8549430">
        <ele>583.8</ele>
        <time>2022-08-29T07:01:39Z</time>
      </trkpt>
      <trkpt lat="42.4303080" lon="-2.8549870">
        <ele>584.0</ele>
        <time>2022-08-29T07:01:40Z</time>
      </trkpt>
      <trkpt lat="42.4302850" lon="-2.8550310">
        <ele>584.0</ele>
        <time>2022-08-29T07:01:41Z</time>
      </trkpt>
      <trkpt lat="42.4302620" lon="-2.8550750">
        <ele>584.2</ele>
        <time>2022-08-29T07:01:42Z</time>
      </trkpt>
      <trkpt lat="42.4302400" lon="-2.8551170">
        <ele>584.2</ele>
        <time>2022-08-29T07:01:43Z</time>
      </trkpt>
      <trkpt lat="42.4302180" lon="-2.8551590">
        <ele>584.2</ele>
        <time>2022-08-29T07:01:44Z</time>
      </trkpt>
      <trkpt lat="42.4301970" lon="-2.8552010">
        <ele>584.2</ele>
        <time>2022-08-29T07:01:45Z</time>
      </trkpt>
      <trkpt lat="42.4301750" lon="-2.8552440">
        <ele>584.4</ele>
        <time>2022-08-29T07:01:46Z</time>
      </trkpt>
      <trkpt lat="42.4301530" lon="-2.8552870">
        <ele>584.4</ele>
        <time>2022-08-29T07:01:47Z</time>
      </trkpt>
      <trkpt lat="42.4301310" lon="-2.8553300">
        <ele>584.4</ele>
        <time>2022-08-29T07:01:48Z</time>
      </trkpt>
      <trkpt lat="42.4301080" lon="-2.8553740">
        <ele>584.4</ele>
        <time>2022-08-29T07:01:49Z</time>
      </trkpt>
      <trkpt lat="42.4300860" lon="-2.8554170">
        <ele>584.4</ele>
        <time>2022-08-29T07:01:50Z</time>
      </trkpt>
      <trkpt lat="42.4300630" lon="-2.8554620">
        <ele>584.8</ele>
        <time>2022-08-29T07:01:51Z</time>
      </trkpt>
      <trkpt lat="42.4300380" lon="-2.8555080">
        <ele>585.0</ele>
        <time>2022-08-29T07:01:52Z</time>
      </trkpt>
      <trkpt lat="42.4300130" lon="-2.8555540">
        <ele>585.0</ele>
        <time>2022-08-29T07:01:53Z</time>
      </trkpt>
      <trkpt lat="42.4299880" lon="-2.8556000">
        <ele>585.0</ele>
        <time>2022-08-29T07:01:54Z</time>
      </trkpt>
      <trkpt lat="42.4299640" lon="-2.8556460">
        <ele>585.2</ele>
        <time>2022-08-29T07:01:55Z</time>
      </trkpt>
      <trkpt lat="42.4299410" lon="-2.8556930">
        <ele>585.2</ele>
        <time>2022-08-29T07:01:56Z</time>
      </trkpt>
      <trkpt lat="42.4299170" lon="-2.8557380">
        <ele>585.4</ele>
        <time>2022-08-29T07:01:57Z</time>
      </trkpt>
      <trkpt lat="42.4298930" lon="-2.8557810">
        <ele>585.6</ele>
        <time>2022-08-29T07:01:58Z</time>
      </trkpt>
      <trkpt lat="42.4298720" lon="-2.8558220">
        <ele>585.8</ele>
        <time>2022-08-29T07:01:59Z</time>
      </trkpt>
      <trkpt lat="42.4298510" lon="-2.8558630">
        <ele>586.2</ele>
        <time>2022-08-29T07:02:00Z</time>
      </trkpt>
      <trkpt lat="42.4298290" lon="-2.8559030">
        <ele>586.2</ele>
        <time>2022-08-29T07:02:01Z</time>
      </trkpt>
      <trkpt lat="42.4298070" lon="-2.8559440">
        <ele>586.2</ele>
        <time>2022-08-29T07:02:02Z</time>
      </trkpt>
      <trkpt lat="42.4297850" lon="-2.8559870">
        <ele>586.2</ele>
        <time>2022-08-29T07:02:03Z</time>
      </trkpt>
      <trkpt lat="42.4297620" lon="-2.8560280">
        <ele>586.2</ele>
        <time>2022-08-29T07:02:04Z</time>
      </trkpt>
      <trkpt lat="42.4297390" lon="-2.8560700">
        <ele>586.2</ele>
        <time>2022-08-29T07:02:05Z</time>
      </trkpt>
      <trkpt lat="42.4297150" lon="-2.8561120">
        <ele>586.2</ele>
        <time>2022-08-29T07:02:06Z</time>
      </trkpt>
      <trkpt lat="42.4296930" lon="-2.8561550">
        <ele>586.6</ele>
        <time>2022-08-29T07:02:07Z</time>
      </trkpt>
      <trkpt lat="42.4296710" lon="-2.8561990">
        <ele>586.4</ele>
        <time>2022-08-29T07:02:08Z</time>
      </trkpt>
      <trkpt lat="42.4296480" lon="-2.8562410">
        <ele>586.6</ele>
        <time>2022-08-29T07:02:09Z</time>
      </trkpt>
      <trkpt lat="42.4296250" lon="-2.8562820">
        <ele>586.6</ele>
        <time>2022-08-29T07:02:10Z</time>
      </trkpt>
      <trkpt lat="42.4296030" lon="-2.8563230">
        <ele>586.4</ele>
        <time>2022-08-29T07:02:11Z</time>
      </trkpt>
      <trkpt lat="42.4295800" lon="-2.8563620">
        <ele>586.4</ele>
        <time>2022-08-29T07:02:12Z</time>
      </trkpt>
      <trkpt lat="42.4295570" lon="-2.8564020">
        <ele>586.6</ele>
        <time>2022-08-29T07:02:13Z</time>
      </trkpt>
      <trkpt lat="42.4295310" lon="-2.8564380">
        <ele>586.6</ele>
        <time>2022-08-29T07:02:14Z</time>
      </trkpt>
      <trkpt lat="42.4295050" lon="-2.8564740">
        <ele>586.8</ele>
        <time>2022-08-29T07:02:15Z</time>
      </trkpt>
      <trkpt lat="42.4294840" lon="-2.8565140">
        <ele>586.8</ele>
        <time>2022-08-29T07:02:16Z</time>
      </trkpt>
      <trkpt lat="42.4294650" lon="-2.8565580">
        <ele>586.8</ele>
        <time>2022-08-29T07:02:17Z</time>
      </trkpt>
      <trkpt lat="42.4294430" lon="-2.8566000">
        <ele>587.0</ele>
        <time>2022-08-29T07:02:18Z</time>
      </trkpt>
      <trkpt lat="42.4294200" lon="-2.8566430">
        <ele>587.2</ele>
        <time>2022-08-29T07:02:19Z</time>
      </trkpt>
      <trkpt lat="42.4293960" lon="-2.8566860">
        <ele>587.2</ele>
        <time>2022-08-29T07:02:20Z</time>
      </trkpt>
      <trkpt lat="42.4293710" lon="-2.8567290">
        <ele>587.4</ele>
        <time>2022-08-29T07:02:21Z</time>
      </trkpt>
      <trkpt lat="42.4293470" lon="-2.8567730">
        <ele>587.6</ele>
        <time>2022-08-29T07:02:22Z</time>
      </trkpt>
      <trkpt lat="42.4293220" lon="-2.8568180">
        <ele>587.6</ele>
        <time>2022-08-29T07:02:23Z</time>
      </trkpt>
      <trkpt lat="42.4292980" lon="-2.8568620">
        <ele>587.6</ele>
        <time>2022-08-29T07:02:24Z</time>
      </trkpt>
      <trkpt lat="42.4292740" lon="-2.8569050">
        <ele>587.8</ele>
        <time>2022-08-29T07:02:25Z</time>
      </trkpt>
      <trkpt lat="42.4292500" lon="-2.8569490">
        <ele>588.0</ele>
        <time>2022-08-29T07:02:26Z</time>
      </trkpt>
      <trkpt lat="42.4292260" lon="-2.8569910">
        <ele>587.8</ele>
        <time>2022-08-29T07:02:27Z</time>
      </trkpt>
      <trkpt lat="42.4292030" lon="-2.8570320">
        <ele>588.0</ele>
        <time>2022-08-29T07:02:28Z</time>
      </trkpt>
      <trkpt lat="42.4291800" lon="-2.8570720">
        <ele>588.0</ele>
        <time>2022-08-29T07:02:29Z</time>
      </trkpt>
      <trkpt lat="42.4291570" lon="-2.8571120">
        <ele>588.2</ele>
        <time>2022-08-29T07:02:30Z</time>
      </trkpt>
      <trkpt lat="42.4291350" lon="-2.8571480">
        <ele>588.2</ele>
        <time>2022-08-29T07:02:31Z</time>
      </trkpt>
      <trkpt lat="42.4291130" lon="-2.8571850">
        <ele>588.4</ele>
        <time>2022-08-29T07:02:32Z</time>
      </trkpt>
      <trkpt lat="42.4290920" lon="-2.8572150">
        <ele>588.6</ele>
        <time>2022-08-29T07:02:33Z</time>
      </trkpt>
      <trkpt lat="42.4290740" lon="-2.8572360">
        <ele>588.6</ele>
        <time>2022-08-29T07:02:34Z</time>
      </trkpt>
      <trkpt lat="42.4290620" lon="-2.8572520">
        <ele>588.6</ele>
        <time>2022-08-29T07:02:35Z</time>
      </trkpt>
      <trkpt lat="42.4290530" lon="-2.8572670">
        <ele>588.6</ele>
        <time>2022-08-29T07:02:36Z</time>
      </trkpt>
      <trkpt lat="42.4290450" lon="-2.8572810">
        <ele>588.8</ele>
        <time>2022-08-29T07:02:37Z</time>
      </trkpt>
      <trkpt lat="42.4290360" lon="-2.8572960">
        <ele>588.8</ele>
        <time>2022-08-29T07:02:38Z</time>
      </trkpt>
      <trkpt lat="42.4290270" lon="-2.8573110">
        <ele>588.6</ele>
        <time>2022-08-29T07:02:39Z</time>
      </trkpt>
      <trkpt lat="42.4290190" lon="-2.8573250">
        <ele>588.8</ele>
        <time>2022-08-29T07:02:40Z</time>
      </trkpt>
      <trkpt lat="42.4290140" lon="-2.8573390">
        <ele>588.8</ele>
        <time>2022-08-29T07:02:41Z</time>
      </trkpt>
      <trkpt lat="42.4290100" lon="-2.8573500">
        <ele>588.8</ele>
        <time>2022-08-29T07:02:42Z</time>
      </trkpt>
      <trkpt lat="42.4290100" lon="-2.8573520">
        <ele>589.0</ele>
        <time>2022-08-29T07:02:43Z</time>
      </trkpt>
      <trkpt lat="42.4290100" lon="-2.8573520">
        <ele>589.0</ele>
        <time>2022-08-29T07:02:44Z</time>
      </trkpt>
      <trkpt lat="42.4290100" lon="-2.8573510">
        <ele>589.2</ele>
        <time>2022-08-29T07:02:45Z</time>
      </trkpt>
      <trkpt lat="42.4290090" lon="-2.8573500">
        <ele>589.2</ele>
        <time>2022-08-29T07:02:46Z</time>
      </trkpt>
      <trkpt lat="42.4290090" lon="-2.8573490">
        <ele>589.4</ele>
        <time>2022-08-29T07:02:47Z</time>
      </trkpt>
      <trkpt lat="42.4290090" lon="-2.8573490">
        <ele>589.4</ele>
        <time>2022-08-29T07:02:48Z</time>
      </trkpt>
      <trkpt lat="42.4290090" lon="-2.8573480">
        <ele>589.4</ele>
        <time>2022-08-29T07:02:49Z</time>
      </trkpt>
      <trkpt lat="42.4290090" lon="-2.8573480">
        <ele>589.6</ele>
        <time>2022-08-29T07:02:50Z</time>
      </trkpt>
      <trkpt lat="42.4290090" lon="-2.8573480">
        <ele>589.6</ele>
        <time>2022-08-29T07:02:51Z</time>
      </trkpt>
      <trkpt lat="42.4290090" lon="-2.8573480">
        <ele>589.6</ele>
        <time>2022-08-29T07:02:52Z</time>
      </trkpt>
      <trkpt lat="42.4290090" lon="-2.8573480">
        <ele>589.4</ele>
        <time>2022-08-29T07:02:53Z</time>
      </trkpt>
      <trkpt lat="42.4290090" lon="-2.8573480">
        <ele>589.4</ele>
        <time>2022-08-29T07:02:54Z</time>
      </trkpt>
      <trkpt lat="42.4290090" lon="-2.8573480">
        <ele>589.6</ele>
        <time>2022-08-29T07:02:55Z</time>
      </trkpt>
      <trkpt lat="42.4290090" lon="-2.8573480">
        <ele>589.6</ele>
        <time>2022-08-29T07:02:56Z</time>
      </trkpt>
      <trkpt lat="42.4290090" lon="-2.8573480">
        <ele>589.6</ele>
        <time>2022-08-29T07:02:57Z</time>
      </trkpt>
      <trkpt lat="42.4290100" lon="-2.8573470">
        <ele>589.4</ele>
        <time>2022-08-29T07:02:58Z</time>
      </trkpt>
      <trkpt lat="42.4290100" lon="-2.8573470">
        <ele>589.4</ele>
        <time>2022-08-29T07:02:59Z</time>
      </trkpt>
      <trkpt lat="42.4290100" lon="-2.8573470">
        <ele>589.4</ele>
        <time>2022-08-29T07:03:00Z</time>
      </trkpt>
      <trkpt lat="42.4290100" lon="-2.8573470">
        <ele>589.4</ele>
        <time>2022-08-29T07:03:01Z</time>
      </trkpt>
      <trkpt lat="42.4290100" lon="-2.8573470">
        <ele>589.4</ele>
        <time>2022-08-29T07:03:02Z</time>
      </trkpt>
      <trkpt lat="42.4290110" lon="-2.8573470">
        <ele>589.4</ele>
        <time>2022-08-29T07:03:03Z</time>
      </trkpt>
      <trkpt lat="42.4290110" lon="-2.8573470">
        <ele>589.4</ele>
        <time>2022-08-29T07:03:04Z</time>
      </trkpt>
      <trkpt lat="42.4290110" lon="-2.8573470">
        <ele>589.2</ele>
        <time>2022-08-29T07:03:05Z</time>
      </trkpt>
      <trkpt lat="42.4290100" lon="-2.8573470">
        <ele>589.2</ele>
        <time>2022-08-29T07:03:06Z</time>
      </trkpt>
      <trkpt lat="42.4290100" lon="-2.8573470">
        <ele>589.4</ele>
        <time>2022-08-29T07:03:07Z</time>
      </trkpt>
      <trkpt lat="42.4290100" lon="-2.8573470">
        <ele>589.4</ele>
        <time>2022-08-29T07:03:08Z</time>
      </trkpt>
      <trkpt lat="42.4290110" lon="-2.8573470">
        <ele>589.2</ele>
        <time>2022-08-29T07:03:09Z</time>
      </trkpt>
      <trkpt lat="42.4290110" lon="-2.8573470">
        <ele>589.2</ele>
        <time>2022-08-29T07:03:10Z</time>
      </trkpt>
      <trkpt lat="42.4290110" lon="-2.8573480">
        <ele>589.2</ele>
        <time>2022-08-29T07:03:11Z</time>
      </trkpt>
      <trkpt lat="42.4290110" lon="-2.8573480">
        <ele>589.2</ele>
        <time>2022-08-29T07:03:12Z</time>
      </trkpt>
      <trkpt lat="42.4290110" lon="-2.8573480">
        <ele>589.2</ele>
        <time>2022-08-29T07:03:13Z</time>
      </trkpt>
      <trkpt lat="42.4290110" lon="-2.8573480">
        <ele>589.2</ele>
        <time>2022-08-29T07:03:14Z</time>
      </trkpt>
      <trkpt lat="42.4290100" lon="-2.8573480">
        <ele>589.0</ele>
        <time>2022-08-29T07:03:15Z</time>
      </trkpt>
      <trkpt lat="42.4290110" lon="-2.8573470">
        <ele>589.2</ele>
        <time>2022-08-29T07:03:16Z</time>
      </trkpt>
      <trkpt lat="42.4290110" lon="-2.8573480">
        <ele>589.0</ele>
        <time>2022-08-29T07:03:17Z</time>
      </trkpt>
      <trkpt lat="42.4290110" lon="-2.8573480">
        <ele>589.0</ele>
        <time>2022-08-29T07:03:18Z</time>
      </trkpt>
      <trkpt lat="42.4290120" lon="-2.8573480">
        <ele>589.0</ele>
        <time>2022-08-29T07:03:19Z</time>
      </trkpt>
      <trkpt lat="42.4290110" lon="-2.8573480">
        <ele>589.2</ele>
        <time>2022-08-29T07:03:20Z</time>
      </trkpt>
      <trkpt lat="42.4290110" lon="-2.8573480">
        <ele>589.2</ele>
        <time>2022-08-29T07:03:21Z</time>
      </trkpt>
      <trkpt lat="42.4290110" lon="-2.8573480">
        <ele>589.2</ele>
        <time>2022-08-29T07:03:22Z</time>
      </trkpt>
      <trkpt lat="42.4290110" lon="-2.8573480">
        <ele>589.0</ele>
        <time>2022-08-29T07:03:23Z</time>
      </trkpt>
      <trkpt lat="42.4290110" lon="-2.8573480">
        <ele>589.2</ele>
        <time>2022-08-29T07:03:24Z</time>
      </trkpt>
      <trkpt lat="42.4290110" lon="-2.8573480">
        <ele>589.2</ele>
        <time>2022-08-29T07:03:25Z</time>
      </trkpt>
      <trkpt lat="42.4290110" lon="-2.8573480">
        <ele>589.0</ele>
        <time>2022-08-29T07:03:26Z</time>
      </trkpt>
      <trkpt lat="42.4290110" lon="-2.8573480">
        <ele>589.0</ele>
        <time>2022-08-29T07:03:27Z</time>
      </trkpt>
      <trkpt lat="42.4290110" lon="-2.8573480">
        <ele>589.0</ele>
        <time>2022-08-29T07:03:28Z</time>
      </trkpt>
      <trkpt lat="42.4290110" lon="-2.8573480">
        <ele>589.2</ele>
        <time>2022-08-29T07:03:29Z</time>
      </trkpt>
      <trkpt lat="42.4290110" lon="-2.8573480">
        <ele>589.2</ele>
        <time>2022-08-29T07:03:30Z</time>
      </trkpt>
      <trkpt lat="42.4290110" lon="-2.8573480">
        <ele>589.0</ele>
        <time>2022-08-29T07:03:31Z</time>
      </trkpt>
      <trkpt lat="42.4290110" lon="-2.8573480">
        <ele>589.0</ele>
        <time>2022-08-29T07:03:32Z</time>
      </trkpt>
      <trkpt lat="42.4290110" lon="-2.8573470">
        <ele>589.0</ele>
        <time>2022-08-29T07:03:33Z</time>
      </trkpt>
      <trkpt lat="42.4290110" lon="-2.8573470">
        <ele>589.0</ele>
        <time>2022-08-29T07:03:34Z</time>
      </trkpt>
      <trkpt lat="42.4290100" lon="-2.8573480">
        <ele>589.0</ele>
        <time>2022-08-29T07:03:35Z</time>
      </trkpt>
      <trkpt lat="42.4290100" lon="-2.8573480">
        <ele>589.0</ele>
        <time>2022-08-29T07:03:36Z</time>
      </trkpt>
      <trkpt lat="42.4290100" lon="-2.8573480">
        <ele>589.0</ele>
        <time>2022-08-29T07:03:37Z</time>
      </trkpt>
      <trkpt lat="42.4290100" lon="-2.8573470">
        <ele>589.0</ele>
        <time>2022-08-29T07:03:38Z</time>
      </trkpt>
      <trkpt lat="42.4290100" lon="-2.8573480">
        <ele>589.0</ele>
        <time>2022-08-29T07:03:39Z</time>
      </trkpt>
      <trkpt lat="42.4290100" lon="-2.8573480">
        <ele>588.8</ele>
        <time>2022-08-29T07:03:40Z</time>
      </trkpt>
      <trkpt lat="42.4290100" lon="-2.8573480">
        <ele>588.8</ele>
        <time>2022-08-29T07:03:41Z</time>
      </trkpt>
      <trkpt lat="42.4290100" lon="-2.8573480">
        <ele>589.0</ele>
        <time>2022-08-29T07:03:42Z</time>
      </trkpt>
      <trkpt lat="42.4290100" lon="-2.8573480">
        <ele>588.8</ele>
        <time>2022-08-29T07:03:43Z</time>
      </trkpt>
      <trkpt lat="42.4290100" lon="-2.8573480">
        <ele>588.8</ele>
        <time>2022-08-29T07:03:44Z</time>
      </trkpt>
      <trkpt lat="42.4290100" lon="-2.8573480">
        <ele>588.8</ele>
        <time>2022-08-29T07:03:45Z</time>
      </trkpt>
      <trkpt lat="42.4290100" lon="-2.8573480">
        <ele>588.8</ele>
        <time>2022-08-29T07:03:46Z</time>
      </trkpt>
      <trkpt lat="42.4290100" lon="-2.8573480">
        <ele>588.8</ele>
        <time>2022-08-29T07:03:47Z</time>
      </trkpt>
      <trkpt lat="42.4290100" lon="-2.8573480">
        <ele>589.0</ele>
        <time>2022-08-29T07:03:48Z</time>
      </trkpt>
      <trkpt lat="42.4290100" lon="-2.8573480">
        <ele>589.0</ele>
        <time>2022-08-29T07:03:49Z</time>
      </trkpt>
      <trkpt lat="42.4290100" lon="-2.8573470">
        <ele>589.0</ele>
        <time>2022-08-29T07:03:50Z</time>
      </trkpt>
      <trkpt lat="42.4290100" lon="-2.8573470">
        <ele>588.8</ele>
        <time>2022-08-29T07:03:51Z</time>
      </trkpt>
      <trkpt lat="42.4290100" lon="-2.8573470">
        <ele>589.0</ele>
        <time>2022-08-29T07:03:52Z</time>
      </trkpt>
      <trkpt lat="42.4290100" lon="-2.8573470">
        <ele>588.8</ele>
        <time>2022-08-29T07:03:53Z</time>
      </trkpt>
      <trkpt lat="42.4290100" lon="-2.8573470">
        <ele>588.8</ele>
        <time>2022-08-29T07:03:54Z</time>
      </trkpt>
      <trkpt lat="42.4290100" lon="-2.8573470">
        <ele>588.8</ele>
        <time>2022-08-29T07:03:55Z</time>
      </trkpt>
      <trkpt lat="42.4290100" lon="-2.8573470">
        <ele>588.8</ele>
        <time>2022-08-29T07:03:56Z</time>
      </trkpt>
      <trkpt lat="42.4290100" lon="-2.8573470">
        <ele>588.8</ele>
        <time>2022-08-29T07:03:57Z</time>
      </trkpt>
      <trkpt lat="42.4290100" lon="-2.8573470">
        <ele>589.0</ele>
        <time>2022-08-29T07:03:58Z</time>
      </trkpt>
      <trkpt lat="42.4290100" lon="-2.8573470">
        <ele>588.8</ele>
        <time>2022-08-29T07:03:59Z</time>
      </trkpt>
      <trkpt lat="42.4290100" lon="-2.8573470">
        <ele>589.0</ele>
        <time>2022-08-29T07:04:00Z</time>
      </trkpt>
      <trkpt lat="42.4290100" lon="-2.8573470">
        <ele>589.0</ele>
        <time>2022-08-29T07:04:01Z</time>
      </trkpt>
      <trkpt lat="42.4290100" lon="-2.8573470">
        <ele>589.0</ele>
        <time>2022-08-29T07:04:02Z</time>
      </trkpt>
      <trkpt lat="42.4290100" lon="-2.8573470">
        <ele>588.8</ele>
        <time>2022-08-29T07:04:03Z</time>
      </trkpt>
      <trkpt lat="42.4290100" lon="-2.8573470">
        <ele>588.8</ele>
        <time>2022-08-29T07:04:04Z</time>
      </trkpt>
      <trkpt lat="42.4290100" lon="-2.8573470">
        <ele>589.0</ele>
        <time>2022-08-29T07:04:05Z</time>
      </trkpt>
      <trkpt lat="42.4290100" lon="-2.8573470">
        <ele>589.0</ele>
        <time>2022-08-29T07:04:06Z</time>
      </trkpt>
      <trkpt lat="42.4290100" lon="-2.8573470">
        <ele>589.0</ele>
        <time>2022-08-29T07:04:07Z</time>
      </trkpt>
      <trkpt lat="42.4290030" lon="-2.8573600">
        <ele>589.0</ele>
        <time>2022-08-29T07:04:08Z</time>
      </trkpt>
      <trkpt lat="42.4289960" lon="-2.8573740">
        <ele>589.0</ele>
        <time>2022-08-29T07:04:09Z</time>
      </trkpt>
      <trkpt lat="42.4289870" lon="-2.8573900">
        <ele>589.0</ele>
        <time>2022-08-29T07:04:10Z</time>
      </trkpt>
      <trkpt lat="42.4289740" lon="-2.8574100">
        <ele>589.0</ele>
        <time>2022-08-29T07:04:11Z</time>
      </trkpt>
      <trkpt lat="42.4289600" lon="-2.8574320">
        <ele>589.0</ele>
        <time>2022-08-29T07:04:12Z</time>
      </trkpt>
      <trkpt lat="42.4289450" lon="-2.8574560">
        <ele>589.0</ele>
        <time>2022-08-29T07:04:13Z</time>
      </trkpt>
      <trkpt lat="42.4289290" lon="-2.8574830">
        <ele>589.0</ele>
        <time>2022-08-29T07:04:14Z</time>
      </trkpt>
      <trkpt lat="42.4289120" lon="-2.8575140">
        <ele>589.0</ele>
        <time>2022-08-29T07:04:15Z</time>
      </trkpt>
      <trkpt lat="42.4288960" lon="-2.8575460">
        <ele>589.0</ele>
        <time>2022-08-29T07:04:16Z</time>
      </trkpt>
      <trkpt lat="42.4288800" lon="-2.8575750">
        <ele>589.0</ele>
        <time>2022-08-29T07:04:17Z</time>
      </trkpt>
      <trkpt lat="42.4288630" lon="-2.8576050">
        <ele>589.0</ele>
        <time>2022-08-29T07:04:18Z</time>
      </trkpt>
      <trkpt lat="42.4288450" lon="-2.8576370">
        <ele>589.0</ele>
        <time>2022-08-29T07:04:19Z</time>
      </trkpt>
      <trkpt lat="42.4288260" lon="-2.8576700">
        <ele>589.0</ele>
        <time>2022-08-29T07:04:20Z</time>
      </trkpt>
      <trkpt lat="42.4288040" lon="-2.8577050">
        <ele>589.0</ele>
        <time>2022-08-29T07:04:21Z</time>
      </trkpt>
      <trkpt lat="42.4287840" lon="-2.8577410">
        <ele>589.0</ele>
        <time>2022-08-29T07:04:22Z</time>
      </trkpt>
      <trkpt lat="42.4287640" lon="-2.8577780">
        <ele>589.0</ele>
        <time>2022-08-29T07:04:23Z</time>
      </trkpt>
      <trkpt lat="42.4287420" lon="-2.8578160">
        <ele>589.0</ele>
        <time>2022-08-29T07:04:24Z</time>
      </trkpt>
      <trkpt lat="42.4287210" lon="-2.8578540">
        <ele>589.0</ele>
        <time>2022-08-29T07:04:25Z</time>
      </trkpt>
      <trkpt lat="42.4287010" lon="-2.8578910">
        <ele>589.0</ele>
        <time>2022-08-29T07:04:26Z</time>
      </trkpt>
      <trkpt lat="42.4286800" lon="-2.8579280">
        <ele>589.0</ele>
        <time>2022-08-29T07:04:27Z</time>
      </trkpt>
      <trkpt lat="42.4286590" lon="-2.8579670">
        <ele>589.2</ele>
        <time>2022-08-29T07:04:28Z</time>
      </trkpt>
      <trkpt lat="42.4286390" lon="-2.8580060">
        <ele>589.0</ele>
        <time>2022-08-29T07:04:29Z</time>
      </trkpt>
      <trkpt lat="42.4286190" lon="-2.8580430">
        <ele>589.2</ele>
        <time>2022-08-29T07:04:30Z</time>
      </trkpt>
      <trkpt lat="42.4285990" lon="-2.8580790">
        <ele>589.2</ele>
        <time>2022-08-29T07:04:31Z</time>
      </trkpt>
      <trkpt lat="42.4285780" lon="-2.8581140">
        <ele>589.2</ele>
        <time>2022-08-29T07:04:32Z</time>
      </trkpt>
      <trkpt lat="42.4285580" lon="-2.8581490">
        <ele>589.2</ele>
        <time>2022-08-29T07:04:33Z</time>
      </trkpt>
      <trkpt lat="42.4285400" lon="-2.8581860">
        <ele>589.2</ele>
        <time>2022-08-29T07:04:34Z</time>
      </trkpt>
      <trkpt lat="42.4285220" lon="-2.8582210">
        <ele>589.2</ele>
        <time>2022-08-29T07:04:35Z</time>
      </trkpt>
      <trkpt lat="42.4285030" lon="-2.8582570">
        <ele>589.4</ele>
        <time>2022-08-29T07:04:36Z</time>
      </trkpt>
      <trkpt lat="42.4284850" lon="-2.8582930">
        <ele>589.6</ele>
        <time>2022-08-29T07:04:37Z</time>
      </trkpt>
      <trkpt lat="42.4284660" lon="-2.8583290">
        <ele>589.4</ele>
        <time>2022-08-29T07:04:38Z</time>
      </trkpt>
      <trkpt lat="42.4284470" lon="-2.8583640">
        <ele>589.4</ele>
        <time>2022-08-29T07:04:39Z</time>
      </trkpt>
      <trkpt lat="42.4284270" lon="-2.8583990">
        <ele>589.8</ele>
        <time>2022-08-29T07:04:40Z</time>
      </trkpt>
      <trkpt lat="42.4284070" lon="-2.8584330">
        <ele>590.0</ele>
        <time>2022-08-29T07:04:41Z</time>
      </trkpt>
      <trkpt lat="42.4283870" lon="-2.8584660">
        <ele>590.2</ele>
        <time>2022-08-29T07:04:42Z</time>
      </trkpt>
      <trkpt lat="42.4283670" lon="-2.8584990">
        <ele>590.2</ele>
        <time>2022-08-29T07:04:43Z</time>
      </trkpt>
      <trkpt lat="42.4283480" lon="-2.8585310">
        <ele>590.4</ele>
        <time>2022-08-29T07:04:44Z</time>
      </trkpt>
      <trkpt lat="42.4283310" lon="-2.8585630">
        <ele>590.6</ele>
        <time>2022-08-29T07:04:45Z</time>
      </trkpt>
      <trkpt lat="42.4283130" lon="-2.8585930">
        <ele>590.6</ele>
        <time>2022-08-29T07:04:46Z</time>
      </trkpt>
      <trkpt lat="42.4282960" lon="-2.8586220">
        <ele>590.6</ele>
        <time>2022-08-29T07:04:47Z</time>
      </trkpt>
      <trkpt lat="42.4282780" lon="-2.8586490">
        <ele>590.6</ele>
        <time>2022-08-29T07:04:48Z</time>
      </trkpt>
      <trkpt lat="42.4282620" lon="-2.8586750">
        <ele>590.8</ele>
        <time>2022-08-29T07:04:49Z</time>
      </trkpt>
      <trkpt lat="42.4282450" lon="-2.8587030">
        <ele>590.8</ele>
        <time>2022-08-29T07:04:50Z</time>
      </trkpt>
      <trkpt lat="42.4282280" lon="-2.8587320">
        <ele>591.0</ele>
        <time>2022-08-29T07:04:51Z</time>
      </trkpt>
      <trkpt lat="42.4282110" lon="-2.8587640">
        <ele>590.8</ele>
        <time>2022-08-29T07:04:52Z</time>
      </trkpt>
      <trkpt lat="42.4281960" lon="-2.8587980">
        <ele>591.0</ele>
        <time>2022-08-29T07:04:53Z</time>
      </trkpt>
      <trkpt lat="42.4281810" lon="-2.8588310">
        <ele>591.0</ele>
        <time>2022-08-29T07:04:54Z</time>
      </trkpt>
      <trkpt lat="42.4281640" lon="-2.8588620">
        <ele>591.0</ele>
        <time>2022-08-29T07:04:55Z</time>
      </trkpt>
      <trkpt lat="42.4281450" lon="-2.8588940">
        <ele>591.2</ele>
        <time>2022-08-29T07:04:56Z</time>
      </trkpt>
      <trkpt lat="42.4281240" lon="-2.8589290">
        <ele>591.2</ele>
        <time>2022-08-29T07:04:57Z</time>
      </trkpt>
      <trkpt lat="42.4281000" lon="-2.8589680">
        <ele>591.2</ele>
        <time>2022-08-29T07:04:58Z</time>
      </trkpt>
      <trkpt lat="42.4280750" lon="-2.8590090">
        <ele>591.4</ele>
        <time>2022-08-29T07:04:59Z</time>
      </trkpt>
      <trkpt lat="42.4280480" lon="-2.8590550">
        <ele>591.4</ele>
        <time>2022-08-29T07:05:00Z</time>
      </trkpt>
      <trkpt lat="42.4280200" lon="-2.8591040">
        <ele>591.4</ele>
        <time>2022-08-29T07:05:01Z</time>
      </trkpt>
      <trkpt lat="42.4279940" lon="-2.8591540">
        <ele>591.6</ele>
        <time>2022-08-29T07:05:02Z</time>
      </trkpt>
      <trkpt lat="42.4279690" lon="-2.8592020">
        <ele>591.6</ele>
        <time>2022-08-29T07:05:03Z</time>
      </trkpt>
      <trkpt lat="42.4279450" lon="-2.8592490">
        <ele>591.6</ele>
        <time>2022-08-29T07:05:04Z</time>
      </trkpt>
      <trkpt lat="42.4279210" lon="-2.8592920">
        <ele>591.8</ele>
        <time>2022-08-29T07:05:05Z</time>
      </trkpt>
      <trkpt lat="42.4278980" lon="-2.8593340">
        <ele>592.0</ele>
        <time>2022-08-29T07:05:06Z</time>
      </trkpt>
      <trkpt lat="42.4278740" lon="-2.8593730">
        <ele>592.0</ele>
        <time>2022-08-29T07:05:07Z</time>
      </trkpt>
      <trkpt lat="42.4278500" lon="-2.8594100">
        <ele>592.2</ele>
        <time>2022-08-29T07:05:08Z</time>
      </trkpt>
      <trkpt lat="42.4278280" lon="-2.8594470">
        <ele>592.2</ele>
        <time>2022-08-29T07:05:09Z</time>
      </trkpt>
      <trkpt lat="42.4278070" lon="-2.8594810">
        <ele>592.2</ele>
        <time>2022-08-29T07:05:10Z</time>
      </trkpt>
      <trkpt lat="42.4277850" lon="-2.8595150">
        <ele>592.2</ele>
        <time>2022-08-29T07:05:11Z</time>
      </trkpt>
      <trkpt lat="42.4277650" lon="-2.8595510">
        <ele>592.4</ele>
        <time>2022-08-29T07:05:12Z</time>
      </trkpt>
      <trkpt lat="42.4277440" lon="-2.8595860">
        <ele>592.4</ele>
        <time>2022-08-29T07:05:13Z</time>
      </trkpt>
      <trkpt lat="42.4277220" lon="-2.8596220">
        <ele>592.6</ele>
        <time>2022-08-29T07:05:14Z</time>
      </trkpt>
      <trkpt lat="42.4277010" lon="-2.8596600">
        <ele>592.8</ele>
        <time>2022-08-29T07:05:15Z</time>
      </trkpt>
      <trkpt lat="42.4276800" lon="-2.8596980">
        <ele>592.8</ele>
        <time>2022-08-29T07:05:16Z</time>
      </trkpt>
      <trkpt lat="42.4276600" lon="-2.8597350">
        <ele>592.8</ele>
        <time>2022-08-29T07:05:17Z</time>
      </trkpt>
      <trkpt lat="42.4276420" lon="-2.8597700">
        <ele>593.2</ele>
        <time>2022-08-29T07:05:18Z</time>
      </trkpt>
      <trkpt lat="42.4276230" lon="-2.8598070">
        <ele>593.0</ele>
        <time>2022-08-29T07:05:19Z</time>
      </trkpt>
      <trkpt lat="42.4276040" lon="-2.8598410">
        <ele>593.4</ele>
        <time>2022-08-29T07:05:20Z</time>
      </trkpt>
      <trkpt lat="42.4275860" lon="-2.8598710">
        <ele>593.2</ele>
        <time>2022-08-29T07:05:21Z</time>
      </trkpt>
      <trkpt lat="42.4275700" lon="-2.8598970">
        <ele>593.6</ele>
        <time>2022-08-29T07:05:22Z</time>
      </trkpt>
      <trkpt lat="42.4275560" lon="-2.8599190">
        <ele>593.4</ele>
        <time>2022-08-29T07:05:23Z</time>
      </trkpt>
      <trkpt lat="42.4275460" lon="-2.8599410">
        <ele>593.8</ele>
        <time>2022-08-29T07:05:24Z</time>
      </trkpt>
      <trkpt lat="42.4275370" lon="-2.8599630">
        <ele>594.0</ele>
        <time>2022-08-29T07:05:25Z</time>
      </trkpt>
      <trkpt lat="42.4275310" lon="-2.8599820">
        <ele>594.2</ele>
        <time>2022-08-29T07:05:26Z</time>
      </trkpt>
      <trkpt lat="42.4275240" lon="-2.8599990">
        <ele>594.4</ele>
        <time>2022-08-29T07:05:27Z</time>
      </trkpt>
      <trkpt lat="42.4275140" lon="-2.8600110">
        <ele>594.2</ele>
        <time>2022-08-29T07:05:28Z</time>
      </trkpt>
      <trkpt lat="42.4275040" lon="-2.8600200">
        <ele>594.6</ele>
        <time>2022-08-29T07:05:29Z</time>
      </trkpt>
      <trkpt lat="42.4274970" lon="-2.8600290">
        <ele>594.6</ele>
        <time>2022-08-29T07:05:30Z</time>
      </trkpt>
      <trkpt lat="42.4274930" lon="-2.8600350">
        <ele>594.6</ele>
        <time>2022-08-29T07:05:31Z</time>
      </trkpt>
      <trkpt lat="42.4274920" lon="-2.8600350">
        <ele>594.8</ele>
        <time>2022-08-29T07:05:32Z</time>
      </trkpt>
      <trkpt lat="42.4274920" lon="-2.8600330">
        <ele>594.8</ele>
        <time>2022-08-29T07:05:33Z</time>
      </trkpt>
      <trkpt lat="42.4274910" lon="-2.8600320">
        <ele>594.8</ele>
        <time>2022-08-29T07:05:34Z</time>
      </trkpt>
      <trkpt lat="42.4274910" lon="-2.8600300">
        <ele>594.8</ele>
        <time>2022-08-29T07:05:35Z</time>
      </trkpt>
      <trkpt lat="42.4274910" lon="-2.8600290">
        <ele>594.8</ele>
        <time>2022-08-29T07:05:36Z</time>
      </trkpt>
      <trkpt lat="42.4274910" lon="-2.8600290">
        <ele>595.0</ele>
        <time>2022-08-29T07:05:37Z</time>
      </trkpt>
      <trkpt lat="42.4274910" lon="-2.8600290">
        <ele>595.0</ele>
        <time>2022-08-29T07:05:38Z</time>
      </trkpt>
      <trkpt lat="42.4274900" lon="-2.8600290">
        <ele>595.2</ele>
        <time>2022-08-29T07:05:39Z</time>
      </trkpt>
      <trkpt lat="42.4274910" lon="-2.8600290">
        <ele>595.2</ele>
        <time>2022-08-29T07:05:40Z</time>
      </trkpt>
      <trkpt lat="42.4274900" lon="-2.8600300">
        <ele>595.0</ele>
        <time>2022-08-29T07:05:41Z</time>
      </trkpt>
      <trkpt lat="42.4274900" lon="-2.8600320">
        <ele>595.0</ele>
        <time>2022-08-29T07:05:42Z</time>
      </trkpt>
      <trkpt lat="42.4274870" lon="-2.8600370">
        <ele>595.2</ele>
        <time>2022-08-29T07:05:43Z</time>
      </trkpt>
      <trkpt lat="42.4274820" lon="-2.8600450">
        <ele>595.2</ele>
        <time>2022-08-29T07:05:44Z</time>
      </trkpt>
      <trkpt lat="42.4274790" lon="-2.8600530">
        <ele>595.2</ele>
        <time>2022-08-29T07:05:45Z</time>
      </trkpt>
      <trkpt lat="42.4274730" lon="-2.8600640">
        <ele>595.2</ele>
        <time>2022-08-29T07:05:46Z</time>
      </trkpt>
      <trkpt lat="42.4274690" lon="-2.8600760">
        <ele>595.2</ele>
        <time>2022-08-29T07:05:47Z</time>
      </trkpt>
      <trkpt lat="42.4274630" lon="-2.8600870">
        <ele>595.2</ele>
        <time>2022-08-29T07:05:48Z</time>
      </trkpt>
      <trkpt lat="42.4274580" lon="-2.8600970">
        <ele>595.4</ele>
        <time>2022-08-29T07:05:49Z</time>
      </trkpt>
      <trkpt lat="42.4274520" lon="-2.8601080">
        <ele>595.4</ele>
        <time>2022-08-29T07:05:50Z</time>
      </trkpt>
      <trkpt lat="42.4274470" lon="-2.8601210">
        <ele>595.4</ele>
        <time>2022-08-29T07:05:51Z</time>
      </trkpt>
      <trkpt lat="42.4274420" lon="-2.8601330">
        <ele>595.4</ele>
        <time>2022-08-29T07:05:52Z</time>
      </trkpt>
      <trkpt lat="42.4274360" lon="-2.8601470">
        <ele>595.6</ele>
        <time>2022-08-29T07:05:53Z</time>
      </trkpt>
      <trkpt lat="42.4274310" lon="-2.8601610">
        <ele>595.8</ele>
        <time>2022-08-29T07:05:54Z</time>
      </trkpt>
      <trkpt lat="42.4274260" lon="-2.8601750">
        <ele>595.8</ele>
        <time>2022-08-29T07:05:55Z</time>
      </trkpt>
      <trkpt lat="42.4274200" lon="-2.8601880">
        <ele>595.6</ele>
        <time>2022-08-29T07:05:56Z</time>
      </trkpt>
      <trkpt lat="42.4274140" lon="-2.8602040">
        <ele>595.8</ele>
        <time>2022-08-29T07:05:57Z</time>
      </trkpt>
      <trkpt lat="42.4274070" lon="-2.8602200">
        <ele>595.8</ele>
        <time>2022-08-29T07:05:58Z</time>
      </trkpt>
      <trkpt lat="42.4274000" lon="-2.8602370">
        <ele>595.8</ele>
        <time>2022-08-29T07:05:59Z</time>
      </trkpt>
      <trkpt lat="42.4273970" lon="-2.8602600">
        <ele>595.8</ele>
        <time>2022-08-29T07:06:00Z</time>
      </trkpt>
      <trkpt lat="42.4273940" lon="-2.8602900">
        <ele>596.0</ele>
        <time>2022-08-29T07:06:01Z</time>
      </trkpt>
      <trkpt lat="42.4273940" lon="-2.8603250">
        <ele>596.0</ele>
        <time>2022-08-29T07:06:02Z</time>
      </trkpt>
      <trkpt lat="42.4273950" lon="-2.8603630">
        <ele>595.8</ele>
        <time>2022-08-29T07:06:03Z</time>
      </trkpt>
      <trkpt lat="42.4273970" lon="-2.8604010">
        <ele>595.8</ele>
        <time>2022-08-29T07:06:04Z</time>
      </trkpt>
      <trkpt lat="42.4273980" lon="-2.8604380">
        <ele>596.0</ele>
        <time>2022-08-29T07:06:05Z</time>
      </trkpt>
      <trkpt lat="42.4273980" lon="-2.8604720">
        <ele>595.8</ele>
        <time>2022-08-29T07:06:06Z</time>
      </trkpt>
      <trkpt lat="42.4273970" lon="-2.8605040">
        <ele>596.0</ele>
        <time>2022-08-29T07:06:07Z</time>
      </trkpt>
      <trkpt lat="42.4273950" lon="-2.8605370">
        <ele>596.0</ele>
        <time>2022-08-29T07:06:08Z</time>
      </trkpt>
      <trkpt lat="42.4273910" lon="-2.8605710">
        <ele>596.2</ele>
        <time>2022-08-29T07:06:09Z</time>
      </trkpt>
      <trkpt lat="42.4273880" lon="-2.8606090">
        <ele>596.2</ele>
        <time>2022-08-29T07:06:10Z</time>
      </trkpt>
      <trkpt lat="42.4273850" lon="-2.8606500">
        <ele>596.2</ele>
        <time>2022-08-29T07:06:11Z</time>
      </trkpt>
      <trkpt lat="42.4273810" lon="-2.8606930">
        <ele>596.2</ele>
        <time>2022-08-29T07:06:12Z</time>
      </trkpt>
      <trkpt lat="42.4273780" lon="-2.8607360">
        <ele>596.2</ele>
        <time>2022-08-29T07:06:13Z</time>
      </trkpt>
      <trkpt lat="42.4273760" lon="-2.8607820">
        <ele>596.4</ele>
        <time>2022-08-29T07:06:14Z</time>
      </trkpt>
      <trkpt lat="42.4273720" lon="-2.8608280">
        <ele>596.4</ele>
        <time>2022-08-29T07:06:15Z</time>
      </trkpt>
      <trkpt lat="42.4273670" lon="-2.8608750">
        <ele>596.6</ele>
        <time>2022-08-29T07:06:16Z</time>
      </trkpt>
      <trkpt lat="42.4273610" lon="-2.8609210">
        <ele>596.6</ele>
        <time>2022-08-29T07:06:17Z</time>
      </trkpt>
      <trkpt lat="42.4273560" lon="-2.8609690">
        <ele>596.6</ele>
        <time>2022-08-29T07:06:18Z</time>
      </trkpt>
      <trkpt lat="42.4273520" lon="-2.8610170">
        <ele>596.8</ele>
        <time>2022-08-29T07:06:19Z</time>
      </trkpt>
      <trkpt lat="42.4273490" lon="-2.8610660">
        <ele>596.8</ele>
        <time>2022-08-29T07:06:20Z</time>
      </trkpt>
      <trkpt lat="42.4273450" lon="-2.8611140">
        <ele>596.8</ele>
        <time>2022-08-29T07:06:21Z</time>
      </trkpt>
      <trkpt lat="42.4273410" lon="-2.8611630">
        <ele>597.0</ele>
        <time>2022-08-29T07:06:22Z</time>
      </trkpt>
      <trkpt lat="42.4273370" lon="-2.8612130">
        <ele>597.0</ele>
        <time>2022-08-29T07:06:23Z</time>
      </trkpt>
      <trkpt lat="42.4273320" lon="-2.8612620">
        <ele>597.0</ele>
        <time>2022-08-29T07:06:24Z</time>
      </trkpt>
      <trkpt lat="42.4273280" lon="-2.8613120">
        <ele>597.2</ele>
        <time>2022-08-29T07:06:25Z</time>
      </trkpt>
      <trkpt lat="42.4273250" lon="-2.8613620">
        <ele>597.4</ele>
        <time>2022-08-29T07:06:26Z</time>
      </trkpt>
      <trkpt lat="42.4273220" lon="-2.8614120">
        <ele>597.6</ele>
        <time>2022-08-29T07:06:27Z</time>
      </trkpt>
      <trkpt lat="42.4273190" lon="-2.8614620">
        <ele>597.6</ele>
        <time>2022-08-29T07:06:28Z</time>
      </trkpt>
      <trkpt lat="42.4273140" lon="-2.8615120">
        <ele>597.8</ele>
        <time>2022-08-29T07:06:29Z</time>
      </trkpt>
      <trkpt lat="42.4273090" lon="-2.8615620">
        <ele>597.8</ele>
        <time>2022-08-29T07:06:30Z</time>
      </trkpt>
      <trkpt lat="42.4273050" lon="-2.8616130">
        <ele>597.8</ele>
        <time>2022-08-29T07:06:31Z</time>
      </trkpt>
      <trkpt lat="42.4273000" lon="-2.8616650">
        <ele>597.8</ele>
        <time>2022-08-29T07:06:32Z</time>
      </trkpt>
      <trkpt lat="42.4272960" lon="-2.8617170">
        <ele>597.8</ele>
        <time>2022-08-29T07:06:33Z</time>
      </trkpt>
      <trkpt lat="42.4272910" lon="-2.8617700">
        <ele>597.8</ele>
        <time>2022-08-29T07:06:34Z</time>
      </trkpt>
      <trkpt lat="42.4272870" lon="-2.8618220">
        <ele>597.8</ele>
        <time>2022-08-29T07:06:35Z</time>
      </trkpt>
      <trkpt lat="42.4272840" lon="-2.8618740">
        <ele>598.0</ele>
        <time>2022-08-29T07:06:36Z</time>
      </trkpt>
      <trkpt lat="42.4272790" lon="-2.8619260">
        <ele>598.2</ele>
        <time>2022-08-29T07:06:37Z</time>
      </trkpt>
      <trkpt lat="42.4272740" lon="-2.8619760">
        <ele>598.2</ele>
        <time>2022-08-29T07:06:38Z</time>
      </trkpt>
      <trkpt lat="42.4272700" lon="-2.8620260">
        <ele>598.4</ele>
        <time>2022-08-29T07:06:39Z</time>
      </trkpt>
      <trkpt lat="42.4272660" lon="-2.8620750">
        <ele>598.4</ele>
        <time>2022-08-29T07:06:40Z</time>
      </trkpt>
      <trkpt lat="42.4272630" lon="-2.8621250">
        <ele>598.6</ele>
        <time>2022-08-29T07:06:41Z</time>
      </trkpt>
      <trkpt lat="42.4272590" lon="-2.8621740">
        <ele>598.6</ele>
        <time>2022-08-29T07:06:42Z</time>
      </trkpt>
      <trkpt lat="42.4272550" lon="-2.8622220">
        <ele>598.8</ele>
        <time>2022-08-29T07:06:43Z</time>
      </trkpt>
      <trkpt lat="42.4272500" lon="-2.8622700">
        <ele>599.0</ele>
        <time>2022-08-29T07:06:44Z</time>
      </trkpt>
      <trkpt lat="42.4272460" lon="-2.8623180">
        <ele>599.2</ele>
        <time>2022-08-29T07:06:45Z</time>
      </trkpt>
      <trkpt lat="42.4272430" lon="-2.8623650">
        <ele>599.4</ele>
        <time>2022-08-29T07:06:46Z</time>
      </trkpt>
      <trkpt lat="42.4272400" lon="-2.8624130">
        <ele>599.2</ele>
        <time>2022-08-29T07:06:47Z</time>
      </trkpt>
      <trkpt lat="42.4272360" lon="-2.8624600">
        <ele>599.2</ele>
        <time>2022-08-29T07:06:48Z</time>
      </trkpt>
      <trkpt lat="42.4272330" lon="-2.8625070">
        <ele>599.6</ele>
        <time>2022-08-29T07:06:49Z</time>
      </trkpt>
      <trkpt lat="42.4272300" lon="-2.8625530">
        <ele>599.6</ele>
        <time>2022-08-29T07:06:50Z</time>
      </trkpt>
      <trkpt lat="42.4272270" lon="-2.8626000">
        <ele>599.6</ele>
        <time>2022-08-29T07:06:51Z</time>
      </trkpt>
      <trkpt lat="42.4272240" lon="-2.8626480">
        <ele>599.8</ele>
        <time>2022-08-29T07:06:52Z</time>
      </trkpt>
      <trkpt lat="42.4272200" lon="-2.8626950">
        <ele>600.0</ele>
        <time>2022-08-29T07:06:53Z</time>
      </trkpt>
      <trkpt lat="42.4272170" lon="-2.8627420">
        <ele>600.0</ele>
        <time>2022-08-29T07:06:54Z</time>
      </trkpt>
      <trkpt lat="42.4272130" lon="-2.8627910">
        <ele>600.2</ele>
        <time>2022-08-29T07:06:55Z</time>
      </trkpt>
      <trkpt lat="42.4272080" lon="-2.8628400">
        <ele>600.4</ele>
        <time>2022-08-29T07:06:56Z</time>
      </trkpt>
      <trkpt lat="42.4272030" lon="-2.8628870">
        <ele>600.6</ele>
        <time>2022-08-29T07:06:57Z</time>
      </trkpt>
      <trkpt lat="42.4271990" lon="-2.8629330">
        <ele>600.8</ele>
        <time>2022-08-29T07:06:58Z</time>
      </trkpt>
      <trkpt lat="42.4271950" lon="-2.8629800">
        <ele>600.8</ele>
        <time>2022-08-29T07:06:59Z</time>
      </trkpt>
      <trkpt lat="42.4271900" lon="-2.8630260">
        <ele>601.0</ele>
        <time>2022-08-29T07:07:00Z</time>
      </trkpt>
      <trkpt lat="42.4271860" lon="-2.8630730">
        <ele>601.0</ele>
        <time>2022-08-29T07:07:01Z</time>
      </trkpt>
      <trkpt lat="42.4271820" lon="-2.8631190">
        <ele>601.2</ele>
        <time>2022-08-29T07:07:02Z</time>
      </trkpt>
      <trkpt lat="42.4271780" lon="-2.8631650">
        <ele>601.2</ele>
        <time>2022-08-29T07:07:03Z</time>
      </trkpt>
      <trkpt lat="42.4271740" lon="-2.8632100">
        <ele>601.6</ele>
        <time>2022-08-29T07:07:04Z</time>
      </trkpt>
      <trkpt lat="42.4271690" lon="-2.8632550">
        <ele>601.6</ele>
        <time>2022-08-29T07:07:05Z</time>
      </trkpt>
      <trkpt lat="42.4271660" lon="-2.8633000">
        <ele>601.6</ele>
        <time>2022-08-29T07:07:06Z</time>
      </trkpt>
      <trkpt lat="42.4271620" lon="-2.8633460">
        <ele>601.6</ele>
        <time>2022-08-29T07:07:07Z</time>
      </trkpt>
      <trkpt lat="42.4271570" lon="-2.8633920">
        <ele>601.6</ele>
        <time>2022-08-29T07:07:08Z</time>
      </trkpt>
      <trkpt lat="42.4271540" lon="-2.8634380">
        <ele>602.0</ele>
        <time>2022-08-29T07:07:09Z</time>
      </trkpt>
      <trkpt lat="42.4271510" lon="-2.8634830">
        <ele>602.2</ele>
        <time>2022-08-29T07:07:10Z</time>
      </trkpt>
      <trkpt lat="42.4271480" lon="-2.8635280">
        <ele>602.2</ele>
        <time>2022-08-29T07:07:11Z</time>
      </trkpt>
      <trkpt lat="42.4271450" lon="-2.8635720">
        <ele>602.4</ele>
        <time>2022-08-29T07:07:12Z</time>
      </trkpt>
      <trkpt lat="42.4271420" lon="-2.8636150">
        <ele>602.4</ele>
        <time>2022-08-29T07:07:13Z</time>
      </trkpt>
      <trkpt lat="42.4271390" lon="-2.8636590">
        <ele>602.6</ele>
        <time>2022-08-29T07:07:14Z</time>
      </trkpt>
      <trkpt lat="42.4271380" lon="-2.8637040">
        <ele>602.6</ele>
        <time>2022-08-29T07:07:15Z</time>
      </trkpt>
      <trkpt lat="42.4271380" lon="-2.8637490">
        <ele>602.8</ele>
        <time>2022-08-29T07:07:16Z</time>
      </trkpt>
      <trkpt lat="42.4271380" lon="-2.8637940">
        <ele>603.0</ele>
        <time>2022-08-29T07:07:17Z</time>
      </trkpt>
      <trkpt lat="42.4271370" lon="-2.8638390">
        <ele>603.0</ele>
        <time>2022-08-29T07:07:18Z</time>
      </trkpt>
      <trkpt lat="42.4271340" lon="-2.8638830">
        <ele>603.2</ele>
        <time>2022-08-29T07:07:19Z</time>
      </trkpt>
      <trkpt lat="42.4271310" lon="-2.8639280">
        <ele>603.2</ele>
        <time>2022-08-29T07:07:20Z</time>
      </trkpt>
      <trkpt lat="42.4271260" lon="-2.8639720">
        <ele>603.4</ele>
        <time>2022-08-29T07:07:21Z</time>
      </trkpt>
      <trkpt lat="42.4271210" lon="-2.8640170">
        <ele>603.4</ele>
        <time>2022-08-29T07:07:22Z</time>
      </trkpt>
      <trkpt lat="42.4271160" lon="-2.8640610">
        <ele>603.4</ele>
        <time>2022-08-29T07:07:23Z</time>
      </trkpt>
      <trkpt lat="42.4271100" lon="-2.8641040">
        <ele>603.8</ele>
        <time>2022-08-29T07:07:24Z</time>
      </trkpt>
      <trkpt lat="42.4271040" lon="-2.8641480">
        <ele>604.2</ele>
        <time>2022-08-29T07:07:25Z</time>
      </trkpt>
      <trkpt lat="42.4271000" lon="-2.8641920">
        <ele>604.4</ele>
        <time>2022-08-29T07:07:26Z</time>
      </trkpt>
      <trkpt lat="42.4270970" lon="-2.8642370">
        <ele>604.4</ele>
        <time>2022-08-29T07:07:27Z</time>
      </trkpt>
      <trkpt lat="42.4270950" lon="-2.8642820">
        <ele>604.6</ele>
        <time>2022-08-29T07:07:28Z</time>
      </trkpt>
      <trkpt lat="42.4270920" lon="-2.8643270">
        <ele>604.6</ele>
        <time>2022-08-29T07:07:29Z</time>
      </trkpt>
      <trkpt lat="42.4270890" lon="-2.8643710">
        <ele>604.6</ele>
        <time>2022-08-29T07:07:30Z</time>
      </trkpt>
      <trkpt lat="42.4270880" lon="-2.8644150">
        <ele>604.8</ele>
        <time>2022-08-29T07:07:31Z</time>
      </trkpt>
      <trkpt lat="42.4270860" lon="-2.8644590">
        <ele>604.8</ele>
        <time>2022-08-29T07:07:32Z</time>
      </trkpt>
      <trkpt lat="42.4270810" lon="-2.8645020">
        <ele>605.0</ele>
        <time>2022-08-29T07:07:33Z</time>
      </trkpt>
      <trkpt lat="42.4270750" lon="-2.8645470">
        <ele>605.0</ele>
        <time>2022-08-29T07:07:34Z</time>
      </trkpt>
      <trkpt lat="42.4270710" lon="-2.8645930">
        <ele>605.2</ele>
        <time>2022-08-29T07:07:35Z</time>
      </trkpt>
      <trkpt lat="42.4270670" lon="-2.8646390">
        <ele>605.4</ele>
        <time>2022-08-29T07:07:36Z</time>
      </trkpt>
      <trkpt lat="42.4270620" lon="-2.8646850">
        <ele>605.6</ele>
        <time>2022-08-29T07:07:37Z</time>
      </trkpt>
      <trkpt lat="42.4270580" lon="-2.8647310">
        <ele>605.6</ele>
        <time>2022-08-29T07:07:38Z</time>
      </trkpt>
      <trkpt lat="42.4270540" lon="-2.8647770">
        <ele>605.6</ele>
        <time>2022-08-29T07:07:39Z</time>
      </trkpt>
      <trkpt lat="42.4270490" lon="-2.8648220">
        <ele>605.8</ele>
        <time>2022-08-29T07:07:40Z</time>
      </trkpt>
      <trkpt lat="42.4270420" lon="-2.8648670">
        <ele>605.8</ele>
        <time>2022-08-29T07:07:41Z</time>
      </trkpt>
      <trkpt lat="42.4270350" lon="-2.8649110">
        <ele>605.8</ele>
        <time>2022-08-29T07:07:42Z</time>
      </trkpt>
      <trkpt lat="42.4270280" lon="-2.8649550">
        <ele>606.0</ele>
        <time>2022-08-29T07:07:43Z</time>
      </trkpt>
      <trkpt lat="42.4270210" lon="-2.8649980">
        <ele>606.2</ele>
        <time>2022-08-29T07:07:44Z</time>
      </trkpt>
      <trkpt lat="42.4270120" lon="-2.8650410">
        <ele>606.2</ele>
        <time>2022-08-29T07:07:45Z</time>
      </trkpt>
      <trkpt lat="42.4270020" lon="-2.8650850">
        <ele>606.4</ele>
        <time>2022-08-29T07:07:46Z</time>
      </trkpt>
      <trkpt lat="42.4269900" lon="-2.8651270">
        <ele>606.4</ele>
        <time>2022-08-29T07:07:47Z</time>
      </trkpt>
      <trkpt lat="42.4269780" lon="-2.8651720">
        <ele>606.4</ele>
        <time>2022-08-29T07:07:48Z</time>
      </trkpt>
      <trkpt lat="42.4269650" lon="-2.8652160">
        <ele>606.6</ele>
        <time>2022-08-29T07:07:49Z</time>
      </trkpt>
      <trkpt lat="42.4269530" lon="-2.8652590">
        <ele>606.8</ele>
        <time>2022-08-29T07:07:50Z</time>
      </trkpt>
      <trkpt lat="42.4269390" lon="-2.8653020">
        <ele>606.8</ele>
        <time>2022-08-29T07:07:51Z</time>
      </trkpt>
      <trkpt lat="42.4269250" lon="-2.8653440">
        <ele>607.0</ele>
        <time>2022-08-29T07:07:52Z</time>
      </trkpt>
      <trkpt lat="42.4269110" lon="-2.8653860">
        <ele>607.0</ele>
        <time>2022-08-29T07:07:53Z</time>
      </trkpt>
      <trkpt lat="42.4268980" lon="-2.8654290">
        <ele>607.0</ele>
        <time>2022-08-29T07:07:54Z</time>
      </trkpt>
      <trkpt lat="42.4268860" lon="-2.8654710">
        <ele>607.2</ele>
        <time>2022-08-29T07:07:55Z</time>
      </trkpt>
      <trkpt lat="42.4268740" lon="-2.8655140">
        <ele>607.2</ele>
        <time>2022-08-29T07:07:56Z</time>
      </trkpt>
      <trkpt lat="42.4268600" lon="-2.8655550">
        <ele>607.2</ele>
        <time>2022-08-29T07:07:57Z</time>
      </trkpt>
      <trkpt lat="42.4268460" lon="-2.8655970">
        <ele>607.4</ele>
        <time>2022-08-29T07:07:58Z</time>
      </trkpt>
      <trkpt lat="42.4268340" lon="-2.8656400">
        <ele>607.4</ele>
        <time>2022-08-29T07:07:59Z</time>
      </trkpt>
      <trkpt lat="42.4268240" lon="-2.8656840">
        <ele>607.6</ele>
        <time>2022-08-29T07:08:00Z</time>
      </trkpt>
      <trkpt lat="42.4268120" lon="-2.8657260">
        <ele>607.8</ele>
        <time>2022-08-29T07:08:01Z</time>
      </trkpt>
      <trkpt lat="42.4267990" lon="-2.8657680">
        <ele>607.8</ele>
        <time>2022-08-29T07:08:02Z</time>
      </trkpt>
      <trkpt lat="42.4267870" lon="-2.8658100">
        <ele>608.0</ele>
        <time>2022-08-29T07:08:03Z</time>
      </trkpt>
      <trkpt lat="42.4267750" lon="-2.8658540">
        <ele>608.4</ele>
        <time>2022-08-29T07:08:04Z</time>
      </trkpt>
      <trkpt lat="42.4267630" lon="-2.8658970">
        <ele>608.6</ele>
        <time>2022-08-29T07:08:05Z</time>
      </trkpt>
      <trkpt lat="42.4267510" lon="-2.8659390">
        <ele>608.8</ele>
        <time>2022-08-29T07:08:06Z</time>
      </trkpt>
      <trkpt lat="42.4267390" lon="-2.8659820">
        <ele>608.8</ele>
        <time>2022-08-29T07:08:07Z</time>
      </trkpt>
      <trkpt lat="42.4267280" lon="-2.8660240">
        <ele>609.0</ele>
        <time>2022-08-29T07:08:08Z</time>
      </trkpt>
      <trkpt lat="42.4267170" lon="-2.8660670">
        <ele>609.0</ele>
        <time>2022-08-29T07:08:09Z</time>
      </trkpt>
      <trkpt lat="42.4267050" lon="-2.8661080">
        <ele>609.2</ele>
        <time>2022-08-29T07:08:10Z</time>
      </trkpt>
      <trkpt lat="42.4266950" lon="-2.8661490">
        <ele>609.2</ele>
        <time>2022-08-29T07:08:11Z</time>
      </trkpt>
      <trkpt lat="42.4266910" lon="-2.8661910">
        <ele>609.4</ele>
        <time>2022-08-29T07:08:12Z</time>
      </trkpt>
      <trkpt lat="42.4266830" lon="-2.8662310">
        <ele>609.6</ele>
        <time>2022-08-29T07:08:13Z</time>
      </trkpt>
      <trkpt lat="42.4266730" lon="-2.8662680">
        <ele>609.6</ele>
        <time>2022-08-29T07:08:14Z</time>
      </trkpt>
      <trkpt lat="42.4266620" lon="-2.8663060">
        <ele>609.6</ele>
        <time>2022-08-29T07:08:15Z</time>
      </trkpt>
      <trkpt lat="42.4266500" lon="-2.8663420">
        <ele>609.8</ele>
        <time>2022-08-29T07:08:16Z</time>
      </trkpt>
      <trkpt lat="42.4266370" lon="-2.8663770">
        <ele>610.0</ele>
        <time>2022-08-29T07:08:17Z</time>
      </trkpt>
      <trkpt lat="42.4266270" lon="-2.8664130">
        <ele>610.2</ele>
        <time>2022-08-29T07:08:18Z</time>
      </trkpt>
      <trkpt lat="42.4266180" lon="-2.8664490">
        <ele>610.4</ele>
        <time>2022-08-29T07:08:19Z</time>
      </trkpt>
      <trkpt lat="42.4266070" lon="-2.8664850">
        <ele>610.4</ele>
        <time>2022-08-29T07:08:20Z</time>
      </trkpt>
      <trkpt lat="42.4265950" lon="-2.8665210">
        <ele>610.6</ele>
        <time>2022-08-29T07:08:21Z</time>
      </trkpt>
      <trkpt lat="42.4265840" lon="-2.8665580">
        <ele>610.8</ele>
        <time>2022-08-29T07:08:22Z</time>
      </trkpt>
      <trkpt lat="42.4265740" lon="-2.8665960">
        <ele>611.0</ele>
        <time>2022-08-29T07:08:23Z</time>
      </trkpt>
      <trkpt lat="42.4265620" lon="-2.8666350">
        <ele>611.2</ele>
        <time>2022-08-29T07:08:24Z</time>
      </trkpt>
      <trkpt lat="42.4265480" lon="-2.8666730">
        <ele>611.2</ele>
        <time>2022-08-29T07:08:25Z</time>
      </trkpt>
      <trkpt lat="42.4265340" lon="-2.8667130">
        <ele>611.2</ele>
        <time>2022-08-29T07:08:26Z</time>
      </trkpt>
      <trkpt lat="42.4265210" lon="-2.8667540">
        <ele>611.4</ele>
        <time>2022-08-29T07:08:27Z</time>
      </trkpt>
      <trkpt lat="42.4265090" lon="-2.8667950">
        <ele>611.2</ele>
        <time>2022-08-29T07:08:28Z</time>
      </trkpt>
      <trkpt lat="42.4264970" lon="-2.8668380">
        <ele>611.4</ele>
        <time>2022-08-29T07:08:29Z</time>
      </trkpt>
      <trkpt lat="42.4264840" lon="-2.8668800">
        <ele>611.4</ele>
        <time>2022-08-29T07:08:30Z</time>
      </trkpt>
      <trkpt lat="42.4264730" lon="-2.8669240">
        <ele>611.4</ele>
        <time>2022-08-29T07:08:31Z</time>
      </trkpt>
      <trkpt lat="42.4264640" lon="-2.8669680">
        <ele>611.4</ele>
        <time>2022-08-29T07:08:32Z</time>
      </trkpt>
      <trkpt lat="42.4264560" lon="-2.8670140">
        <ele>611.6</ele>
        <time>2022-08-29T07:08:33Z</time>
      </trkpt>
      <trkpt lat="42.4264460" lon="-2.8670580">
        <ele>611.6</ele>
        <time>2022-08-29T07:08:34Z</time>
      </trkpt>
      <trkpt lat="42.4264330" lon="-2.8671020">
        <ele>611.8</ele>
        <time>2022-08-29T07:08:35Z</time>
      </trkpt>
      <trkpt lat="42.4264190" lon="-2.8671470">
        <ele>611.8</ele>
        <time>2022-08-29T07:08:36Z</time>
      </trkpt>
      <trkpt lat="42.4264060" lon="-2.8671930">
        <ele>612.0</ele>
        <time>2022-08-29T07:08:37Z</time>
      </trkpt>
      <trkpt lat="42.4263930" lon="-2.8672390">
        <ele>612.2</ele>
        <time>2022-08-29T07:08:38Z</time>
      </trkpt>
      <trkpt lat="42.4263800" lon="-2.8672840">
        <ele>612.4</ele>
        <time>2022-08-29T07:08:39Z</time>
      </trkpt>
      <trkpt lat="42.4263670" lon="-2.8673300">
        <ele>612.4</ele>
        <time>2022-08-29T07:08:40Z</time>
      </trkpt>
      <trkpt lat="42.4263550" lon="-2.8673750">
        <ele>612.6</ele>
        <time>2022-08-29T07:08:41Z</time>
      </trkpt>
      <trkpt lat="42.4263430" lon="-2.8674200">
        <ele>612.6</ele>
        <time>2022-08-29T07:08:42Z</time>
      </trkpt>
      <trkpt lat="42.4263310" lon="-2.8674640">
        <ele>612.8</ele>
        <time>2022-08-29T07:08:43Z</time>
      </trkpt>
      <trkpt lat="42.4263170" lon="-2.8675090">
        <ele>613.2</ele>
        <time>2022-08-29T07:08:44Z</time>
      </trkpt>
      <trkpt lat="42.4263030" lon="-2.8675540">
        <ele>613.2</ele>
        <time>2022-08-29T07:08:45Z</time>
      </trkpt>
      <trkpt lat="42.4262910" lon="-2.8675980">
        <ele>613.2</ele>
        <time>2022-08-29T07:08:46Z</time>
      </trkpt>
      <trkpt lat="42.4262780" lon="-2.8676410">
        <ele>613.4</ele>
        <time>2022-08-29T07:08:47Z</time>
      </trkpt>
      <trkpt lat="42.4262660" lon="-2.8676840">
        <ele>613.6</ele>
        <time>2022-08-29T07:08:48Z</time>
      </trkpt>
      <trkpt lat="42.4262550" lon="-2.8677270">
        <ele>613.4</ele>
        <time>2022-08-29T07:08:49Z</time>
      </trkpt>
      <trkpt lat="42.4262440" lon="-2.8677670">
        <ele>613.4</ele>
        <time>2022-08-29T07:08:50Z</time>
      </trkpt>
      <trkpt lat="42.4262320" lon="-2.8678060">
        <ele>613.6</ele>
        <time>2022-08-29T07:08:51Z</time>
      </trkpt>
      <trkpt lat="42.4262190" lon="-2.8678450">
        <ele>613.6</ele>
        <time>2022-08-29T07:08:52Z</time>
      </trkpt>
      <trkpt lat="42.4262080" lon="-2.8678860">
        <ele>613.6</ele>
        <time>2022-08-29T07:08:53Z</time>
      </trkpt>
      <trkpt lat="42.4261990" lon="-2.8679270">
        <ele>613.8</ele>
        <time>2022-08-29T07:08:54Z</time>
      </trkpt>
      <trkpt lat="42.4261880" lon="-2.8679680">
        <ele>614.0</ele>
        <time>2022-08-29T07:08:55Z</time>
      </trkpt>
      <trkpt lat="42.4261770" lon="-2.8680100">
        <ele>614.4</ele>
        <time>2022-08-29T07:08:56Z</time>
      </trkpt>
      <trkpt lat="42.4261640" lon="-2.8680520">
        <ele>614.6</ele>
        <time>2022-08-29T07:08:57Z</time>
      </trkpt>
      <trkpt lat="42.4261510" lon="-2.8680930">
        <ele>614.8</ele>
        <time>2022-08-29T07:08:58Z</time>
      </trkpt>
      <trkpt lat="42.4261400" lon="-2.8681350">
        <ele>615.0</ele>
        <time>2022-08-29T07:08:59Z</time>
      </trkpt>
      <trkpt lat="42.4261280" lon="-2.8681770">
        <ele>615.0</ele>
        <time>2022-08-29T07:09:00Z</time>
      </trkpt>
      <trkpt lat="42.4261180" lon="-2.8682180">
        <ele>615.2</ele>
        <time>2022-08-29T07:09:01Z</time>
      </trkpt>
      <trkpt lat="42.4261070" lon="-2.8682570">
        <ele>615.6</ele>
        <time>2022-08-29T07:09:02Z</time>
      </trkpt>
      <trkpt lat="42.4260950" lon="-2.8682960">
        <ele>615.6</ele>
        <time>2022-08-29T07:09:03Z</time>
      </trkpt>
      <trkpt lat="42.4260840" lon="-2.8683340">
        <ele>615.8</ele>
        <time>2022-08-29T07:09:04Z</time>
      </trkpt>
      <trkpt lat="42.4260740" lon="-2.8683720">
        <ele>615.8</ele>
        <time>2022-08-29T07:09:05Z</time>
      </trkpt>
      <trkpt lat="42.4260640" lon="-2.8684100">
        <ele>615.8</ele>
        <time>2022-08-29T07:09:06Z</time>
      </trkpt>
      <trkpt lat="42.4260530" lon="-2.8684470">
        <ele>616.0</ele>
        <time>2022-08-29T07:09:07Z</time>
      </trkpt>
      <trkpt lat="42.4260400" lon="-2.8684830">
        <ele>616.4</ele>
        <time>2022-08-29T07:09:08Z</time>
      </trkpt>
      <trkpt lat="42.4260290" lon="-2.8685200">
        <ele>616.2</ele>
        <time>2022-08-29T07:09:09Z</time>
      </trkpt>
      <trkpt lat="42.4260190" lon="-2.8685560">
        <ele>616.6</ele>
        <time>2022-08-29T07:09:10Z</time>
      </trkpt>
      <trkpt lat="42.4260100" lon="-2.8685930">
        <ele>616.6</ele>
        <time>2022-08-29T07:09:11Z</time>
      </trkpt>
      <trkpt lat="42.4260010" lon="-2.8686290">
        <ele>617.0</ele>
        <time>2022-08-29T07:09:12Z</time>
      </trkpt>
      <trkpt lat="42.4259910" lon="-2.8686640">
        <ele>617.0</ele>
        <time>2022-08-29T07:09:13Z</time>
      </trkpt>
      <trkpt lat="42.4259810" lon="-2.8686990">
        <ele>617.0</ele>
        <time>2022-08-29T07:09:14Z</time>
      </trkpt>
      <trkpt lat="42.4259700" lon="-2.8687350">
        <ele>617.0</ele>
        <time>2022-08-29T07:09:15Z</time>
      </trkpt>
      <trkpt lat="42.4259610" lon="-2.8687690">
        <ele>617.6</ele>
        <time>2022-08-29T07:09:16Z</time>
      </trkpt>
      <trkpt lat="42.4259510" lon="-2.8688040">
        <ele>617.8</ele>
        <time>2022-08-29T07:09:17Z</time>
      </trkpt>
      <trkpt lat="42.4259390" lon="-2.8688380">
        <ele>617.8</ele>
        <time>2022-08-29T07:09:18Z</time>
      </trkpt>
      <trkpt lat="42.4259280" lon="-2.8688720">
        <ele>618.0</ele>
        <time>2022-08-29T07:09:19Z</time>
      </trkpt>
      <trkpt lat="42.4259180" lon="-2.8689050">
        <ele>618.0</ele>
        <time>2022-08-29T07:09:20Z</time>
      </trkpt>
      <trkpt lat="42.4259070" lon="-2.8689390">
        <ele>618.2</ele>
        <time>2022-08-29T07:09:21Z</time>
      </trkpt>
      <trkpt lat="42.4258970" lon="-2.8689720">
        <ele>618.2</ele>
        <time>2022-08-29T07:09:22Z</time>
      </trkpt>
      <trkpt lat="42.4258890" lon="-2.8690070">
        <ele>618.4</ele>
        <time>2022-08-29T07:09:23Z</time>
      </trkpt>
      <trkpt lat="42.4258790" lon="-2.8690410">
        <ele>618.6</ele>
        <time>2022-08-29T07:09:24Z</time>
      </trkpt>
      <trkpt lat="42.4258700" lon="-2.8690750">
        <ele>618.8</ele>
        <time>2022-08-29T07:09:25Z</time>
      </trkpt>
      <trkpt lat="42.4258580" lon="-2.8691050">
        <ele>619.0</ele>
        <time>2022-08-29T07:09:26Z</time>
      </trkpt>
      <trkpt lat="42.4258450" lon="-2.8691360">
        <ele>619.0</ele>
        <time>2022-08-29T07:09:27Z</time>
      </trkpt>
      <trkpt lat="42.4258340" lon="-2.8691690">
        <ele>619.2</ele>
        <time>2022-08-29T07:09:28Z</time>
      </trkpt>
      <trkpt lat="42.4258250" lon="-2.8692010">
        <ele>619.2</ele>
        <time>2022-08-29T07:09:29Z</time>
      </trkpt>
      <trkpt lat="42.4258160" lon="-2.8692320">
        <ele>619.6</ele>
        <time>2022-08-29T07:09:30Z</time>
      </trkpt>
      <trkpt lat="42.4258070" lon="-2.8692620">
        <ele>619.6</ele>
        <time>2022-08-29T07:09:31Z</time>
      </trkpt>
      <trkpt lat="42.4257970" lon="-2.8692900">
        <ele>619.8</ele>
        <time>2022-08-29T07:09:32Z</time>
      </trkpt>
      <trkpt lat="42.4257870" lon="-2.8693170">
        <ele>619.8</ele>
        <time>2022-08-29T07:09:33Z</time>
      </trkpt>
      <trkpt lat="42.4257790" lon="-2.8693440">
        <ele>620.0</ele>
        <time>2022-08-29T07:09:34Z</time>
      </trkpt>
      <trkpt lat="42.4257720" lon="-2.8693720">
        <ele>620.0</ele>
        <time>2022-08-29T07:09:35Z</time>
      </trkpt>
      <trkpt lat="42.4257650" lon="-2.8694010">
        <ele>620.4</ele>
        <time>2022-08-29T07:09:36Z</time>
      </trkpt>
      <trkpt lat="42.4257590" lon="-2.8694290">
        <ele>620.4</ele>
        <time>2022-08-29T07:09:37Z</time>
      </trkpt>
      <trkpt lat="42.4257500" lon="-2.8694570">
        <ele>620.4</ele>
        <time>2022-08-29T07:09:38Z</time>
      </trkpt>
      <trkpt lat="42.4257390" lon="-2.8694840">
        <ele>620.8</ele>
        <time>2022-08-29T07:09:39Z</time>
      </trkpt>
      <trkpt lat="42.4257280" lon="-2.8695110">
        <ele>621.0</ele>
        <time>2022-08-29T07:09:40Z</time>
      </trkpt>
      <trkpt lat="42.4257200" lon="-2.8695380">
        <ele>621.2</ele>
        <time>2022-08-29T07:09:41Z</time>
      </trkpt>
      <trkpt lat="42.4257130" lon="-2.8695650">
        <ele>621.6</ele>
        <time>2022-08-29T07:09:42Z</time>
      </trkpt>
      <trkpt lat="42.4257050" lon="-2.8695920">
        <ele>621.8</ele>
        <time>2022-08-29T07:09:43Z</time>
      </trkpt>
      <trkpt lat="42.4256970" lon="-2.8696190">
        <ele>622.0</ele>
        <time>2022-08-29T07:09:44Z</time>
      </trkpt>
      <trkpt lat="42.4256890" lon="-2.8696470">
        <ele>622.0</ele>
        <time>2022-08-29T07:09:45Z</time>
      </trkpt>
      <trkpt lat="42.4256820" lon="-2.8696750">
        <ele>622.2</ele>
        <time>2022-08-29T07:09:46Z</time>
      </trkpt>
      <trkpt lat="42.4256740" lon="-2.8697030">
        <ele>622.4</ele>
        <time>2022-08-29T07:09:47Z</time>
      </trkpt>
      <trkpt lat="42.4256650" lon="-2.8697320">
        <ele>622.6</ele>
        <time>2022-08-29T07:09:48Z</time>
      </trkpt>
      <trkpt lat="42.4256550" lon="-2.8697590">
        <ele>622.8</ele>
        <time>2022-08-29T07:09:49Z</time>
      </trkpt>
      <trkpt lat="42.4256460" lon="-2.8697880">
        <ele>623.0</ele>
        <time>2022-08-29T07:09:50Z</time>
      </trkpt>
      <trkpt lat="42.4256370" lon="-2.8698170">
        <ele>623.2</ele>
        <time>2022-08-29T07:09:51Z</time>
      </trkpt>
      <trkpt lat="42.4256280" lon="-2.8698460">
        <ele>623.4</ele>
        <time>2022-08-29T07:09:52Z</time>
      </trkpt>
      <trkpt lat="42.4256210" lon="-2.8698750">
        <ele>623.6</ele>
        <time>2022-08-29T07:09:53Z</time>
      </trkpt>
      <trkpt lat="42.4256130" lon="-2.8699040">
        <ele>624.0</ele>
        <time>2022-08-29T07:09:54Z</time>
      </trkpt>
      <trkpt lat="42.4256050" lon="-2.8699330">
        <ele>624.0</ele>
        <time>2022-08-29T07:09:55Z</time>
      </trkpt>
      <trkpt lat="42.4255960" lon="-2.8699600">
        <ele>624.4</ele>
        <time>2022-08-29T07:09:56Z</time>
      </trkpt>
      <trkpt lat="42.4255870" lon="-2.8699870">
        <ele>624.4</ele>
        <time>2022-08-29T07:09:57Z</time>
      </trkpt>
      <trkpt lat="42.4255780" lon="-2.8700150">
        <ele>624.8</ele>
        <time>2022-08-29T07:09:58Z</time>
      </trkpt>
      <trkpt lat="42.4255700" lon="-2.8700440">
        <ele>624.8</ele>
        <time>2022-08-29T07:09:59Z</time>
      </trkpt>
      <trkpt lat="42.4255610" lon="-2.8700720">
        <ele>625.2</ele>
        <time>2022-08-29T07:10:00Z</time>
      </trkpt>
      <trkpt lat="42.4255530" lon="-2.8700990">
        <ele>625.4</ele>
        <time>2022-08-29T07:10:01Z</time>
      </trkpt>
      <trkpt lat="42.4255460" lon="-2.8701250">
        <ele>625.4</ele>
        <time>2022-08-29T07:10:02Z</time>
      </trkpt>
      <trkpt lat="42.4255370" lon="-2.8701510">
        <ele>625.6</ele>
        <time>2022-08-29T07:10:03Z</time>
      </trkpt>
      <trkpt lat="42.4255280" lon="-2.8701750">
        <ele>625.8</ele>
        <time>2022-08-29T07:10:04Z</time>
      </trkpt>
      <trkpt lat="42.4255180" lon="-2.8702000">
        <ele>626.0</ele>
        <time>2022-08-29T07:10:05Z</time>
      </trkpt>
      <trkpt lat="42.4255120" lon="-2.8702220">
        <ele>626.4</ele>
        <time>2022-08-29T07:10:06Z</time>
      </trkpt>
      <trkpt lat="42.4255070" lon="-2.8702450">
        <ele>626.6</ele>
        <time>2022-08-29T07:10:07Z</time>
      </trkpt>
      <trkpt lat="42.4255030" lon="-2.8702700">
        <ele>626.6</ele>
        <time>2022-08-29T07:10:08Z</time>
      </trkpt>
      <trkpt lat="42.4254990" lon="-2.8702940">
        <ele>627.0</ele>
        <time>2022-08-29T07:10:09Z</time>
      </trkpt>
      <trkpt lat="42.4254930" lon="-2.8703200">
        <ele>627.2</ele>
        <time>2022-08-29T07:10:10Z</time>
      </trkpt>
      <trkpt lat="42.4254870" lon="-2.8703460">
        <ele>627.6</ele>
        <time>2022-08-29T07:10:11Z</time>
      </trkpt>
      <trkpt lat="42.4254800" lon="-2.8703710">
        <ele>627.8</ele>
        <time>2022-08-29T07:10:12Z</time>
      </trkpt>
      <trkpt lat="42.4254720" lon="-2.8703950">
        <ele>628.2</ele>
        <time>2022-08-29T07:10:13Z</time>
      </trkpt>
      <trkpt lat="42.4254640" lon="-2.8704180">
        <ele>628.2</ele>
        <time>2022-08-29T07:10:14Z</time>
      </trkpt>
      <trkpt lat="42.4254570" lon="-2.8704420">
        <ele>628.6</ele>
        <time>2022-08-29T07:10:15Z</time>
      </trkpt>
      <trkpt lat="42.4254500" lon="-2.8704660">
        <ele>628.8</ele>
        <time>2022-08-29T07:10:16Z</time>
      </trkpt>
      <trkpt lat="42.4254440" lon="-2.8704900">
        <ele>629.0</ele>
        <time>2022-08-29T07:10:17Z</time>
      </trkpt>
      <trkpt lat="42.4254380" lon="-2.8705150">
        <ele>629.4</ele>
        <time>2022-08-29T07:10:18Z</time>
      </trkpt>
      <trkpt lat="42.4254310" lon="-2.8705390">
        <ele>629.4</ele>
        <time>2022-08-29T07:10:19Z</time>
      </trkpt>
      <trkpt lat="42.4254250" lon="-2.8705640">
        <ele>629.6</ele>
        <time>2022-08-29T07:10:20Z</time>
      </trkpt>
      <trkpt lat="42.4254180" lon="-2.8705880">
        <ele>630.0</ele>
        <time>2022-08-29T07:10:21Z</time>
      </trkpt>
      <trkpt lat="42.4254120" lon="-2.8706130">
        <ele>630.4</ele>
        <time>2022-08-29T07:10:22Z</time>
      </trkpt>
      <trkpt lat="42.4254040" lon="-2.8706390">
        <ele>630.6</ele>
        <time>2022-08-29T07:10:23Z</time>
      </trkpt>
      <trkpt lat="42.4253960" lon="-2.8706640">
        <ele>630.8</ele>
        <time>2022-08-29T07:10:24Z</time>
      </trkpt>
      <trkpt lat="42.4253880" lon="-2.8706890">
        <ele>631.0</ele>
        <time>2022-08-29T07:10:25Z</time>
      </trkpt>
      <trkpt lat="42.4253810" lon="-2.8707140">
        <ele>631.0</ele>
        <time>2022-08-29T07:10:26Z</time>
      </trkpt>
      <trkpt lat="42.4253730" lon="-2.8707390">
        <ele>631.2</ele>
        <time>2022-08-29T07:10:27Z</time>
      </trkpt>
      <trkpt lat="42.4253670" lon="-2.8707630">
        <ele>631.6</ele>
        <time>2022-08-29T07:10:28Z</time>
      </trkpt>
      <trkpt lat="42.4253610" lon="-2.8707870">
        <ele>631.8</ele>
        <time>2022-08-29T07:10:29Z</time>
      </trkpt>
      <trkpt lat="42.4253560" lon="-2.8708120">
        <ele>632.0</ele>
        <time>2022-08-29T07:10:30Z</time>
      </trkpt>
      <trkpt lat="42.4253510" lon="-2.8708360">
        <ele>632.4</ele>
        <time>2022-08-29T07:10:31Z</time>
      </trkpt>
      <trkpt lat="42.4253460" lon="-2.8708610">
        <ele>632.4</ele>
        <time>2022-08-29T07:10:32Z</time>
      </trkpt>
      <trkpt lat="42.4253390" lon="-2.8708860">
        <ele>632.6</ele>
        <time>2022-08-29T07:10:33Z</time>
      </trkpt>
      <trkpt lat="42.4253320" lon="-2.8709100">
        <ele>633.0</ele>
        <time>2022-08-29T07:10:34Z</time>
      </trkpt>
      <trkpt lat="42.4253260" lon="-2.8709340">
        <ele>633.4</ele>
        <time>2022-08-29T07:10:35Z</time>
      </trkpt>
      <trkpt lat="42.4253200" lon="-2.8709590">
        <ele>633.6</ele>
        <time>2022-08-29T07:10:36Z</time>
      </trkpt>
      <trkpt lat="42.4253150" lon="-2.8709840">
        <ele>633.8</ele>
        <time>2022-08-29T07:10:37Z</time>
      </trkpt>
      <trkpt lat="42.4253100" lon="-2.8710090">
        <ele>633.8</ele>
        <time>2022-08-29T07:10:38Z</time>
      </trkpt>
      <trkpt lat="42.4253050" lon="-2.8710320">
        <ele>634.2</ele>
        <time>2022-08-29T07:10:39Z</time>
      </trkpt>
      <trkpt lat="42.4253000" lon="-2.8710560">
        <ele>634.6</ele>
        <time>2022-08-29T07:10:40Z</time>
      </trkpt>
      <trkpt lat="42.4252940" lon="-2.8710790">
        <ele>634.6</ele>
        <time>2022-08-29T07:10:41Z</time>
      </trkpt>
      <trkpt lat="42.4252890" lon="-2.8711030">
        <ele>635.0</ele>
        <time>2022-08-29T07:10:42Z</time>
      </trkpt>
      <trkpt lat="42.4252840" lon="-2.8711270">
        <ele>635.4</ele>
        <time>2022-08-29T07:10:43Z</time>
      </trkpt>
      <trkpt lat="42.4252800" lon="-2.8711520">
        <ele>635.6</ele>
        <time>2022-08-29T07:10:44Z</time>
      </trkpt>
      <trkpt lat="42.4252750" lon="-2.8711780">
        <ele>635.8</ele>
        <time>2022-08-29T07:10:45Z</time>
      </trkpt>
      <trkpt lat="42.4252720" lon="-2.8712030">
        <ele>636.0</ele>
        <time>2022-08-29T07:10:46Z</time>
      </trkpt>
      <trkpt lat="42.4252680" lon="-2.8712290">
        <ele>636.2</ele>
        <time>2022-08-29T07:10:47Z</time>
      </trkpt>
      <trkpt lat="42.4252630" lon="-2.8712540">
        <ele>636.2</ele>
        <time>2022-08-29T07:10:48Z</time>
      </trkpt>
      <trkpt lat="42.4252580" lon="-2.8712790">
        <ele>636.6</ele>
        <time>2022-08-29T07:10:49Z</time>
      </trkpt>
      <trkpt lat="42.4252530" lon="-2.8713050">
        <ele>636.6</ele>
        <time>2022-08-29T07:10:50Z</time>
      </trkpt>
      <trkpt lat="42.4252490" lon="-2.8713320">
        <ele>636.8</ele>
        <time>2022-08-29T07:10:51Z</time>
      </trkpt>
      <trkpt lat="42.4252430" lon="-2.8713580">
        <ele>637.0</ele>
        <time>2022-08-29T07:10:52Z</time>
      </trkpt>
      <trkpt lat="42.4252370" lon="-2.8713840">
        <ele>637.2</ele>
        <time>2022-08-29T07:10:53Z</time>
      </trkpt>
      <trkpt lat="42.4252320" lon="-2.8714100">
        <ele>637.4</ele>
        <time>2022-08-29T07:10:54Z</time>
      </trkpt>
      <trkpt lat="42.4252300" lon="-2.8714360">
        <ele>637.6</ele>
        <time>2022-08-29T07:10:55Z</time>
      </trkpt>
      <trkpt lat="42.4252300" lon="-2.8714610">
        <ele>638.0</ele>
        <time>2022-08-29T07:10:56Z</time>
      </trkpt>
      <trkpt lat="42.4252280" lon="-2.8714870">
        <ele>638.2</ele>
        <time>2022-08-29T07:10:57Z</time>
      </trkpt>
      <trkpt lat="42.4252270" lon="-2.8715140">
        <ele>638.4</ele>
        <time>2022-08-29T07:10:58Z</time>
      </trkpt>
      <trkpt lat="42.4252250" lon="-2.8715410">
        <ele>638.6</ele>
        <time>2022-08-29T07:10:59Z</time>
      </trkpt>
      <trkpt lat="42.4252220" lon="-2.8715670">
        <ele>639.0</ele>
        <time>2022-08-29T07:11:00Z</time>
      </trkpt>
      <trkpt lat="42.4252180" lon="-2.8715940">
        <ele>639.0</ele>
        <time>2022-08-29T07:11:01Z</time>
      </trkpt>
      <trkpt lat="42.4252150" lon="-2.8716210">
        <ele>639.0</ele>
        <time>2022-08-29T07:11:02Z</time>
      </trkpt>
      <trkpt lat="42.4252120" lon="-2.8716480">
        <ele>639.2</ele>
        <time>2022-08-29T07:11:03Z</time>
      </trkpt>
      <trkpt lat="42.4252090" lon="-2.8716760">
        <ele>639.6</ele>
        <time>2022-08-29T07:11:04Z</time>
      </trkpt>
      <trkpt lat="42.4252060" lon="-2.8717050">
        <ele>639.8</ele>
        <time>2022-08-29T07:11:05Z</time>
      </trkpt>
      <trkpt lat="42.4252040" lon="-2.8717340">
        <ele>640.0</ele>
        <time>2022-08-29T07:11:06Z</time>
      </trkpt>
      <trkpt lat="42.4252010" lon="-2.8717630">
        <ele>640.2</ele>
        <time>2022-08-29T07:11:07Z</time>
      </trkpt>
      <trkpt lat="42.4251990" lon="-2.8717910">
        <ele>640.2</ele>
        <time>2022-08-29T07:11:08Z</time>
      </trkpt>
      <trkpt lat="42.4251960" lon="-2.8718200">
        <ele>640.6</ele>
        <time>2022-08-29T07:11:09Z</time>
      </trkpt>
      <trkpt lat="42.4251940" lon="-2.8718470">
        <ele>641.0</ele>
        <time>2022-08-29T07:11:10Z</time>
      </trkpt>
      <trkpt lat="42.4251910" lon="-2.8718750">
        <ele>641.2</ele>
        <time>2022-08-29T07:11:11Z</time>
      </trkpt>
      <trkpt lat="42.4251890" lon="-2.8719020">
        <ele>641.4</ele>
        <time>2022-08-29T07:11:12Z</time>
      </trkpt>
      <trkpt lat="42.4251870" lon="-2.8719300">
        <ele>641.4</ele>
        <time>2022-08-29T07:11:13Z</time>
      </trkpt>
      <trkpt lat="42.4251840" lon="-2.8719580">
        <ele>641.6</ele>
        <time>2022-08-29T07:11:14Z</time>
      </trkpt>
      <trkpt lat="42.4251820" lon="-2.8719860">
        <ele>641.8</ele>
        <time>2022-08-29T07:11:15Z</time>
      </trkpt>
      <trkpt lat="42.4251780" lon="-2.8720130">
        <ele>642.0</ele>
        <time>2022-08-29T07:11:16Z</time>
      </trkpt>
      <trkpt lat="42.4251740" lon="-2.8720410">
        <ele>642.2</ele>
        <time>2022-08-29T07:11:17Z</time>
      </trkpt>
      <trkpt lat="42.4251710" lon="-2.8720690">
        <ele>642.4</ele>
        <time>2022-08-29T07:11:18Z</time>
      </trkpt>
      <trkpt lat="42.4251690" lon="-2.8720990">
        <ele>642.6</ele>
        <time>2022-08-29T07:11:19Z</time>
      </trkpt>
      <trkpt lat="42.4251670" lon="-2.8721290">
        <ele>643.0</ele>
        <time>2022-08-29T07:11:20Z</time>
      </trkpt>
      <trkpt lat="42.4251630" lon="-2.8721590">
        <ele>643.0</ele>
        <time>2022-08-29T07:11:21Z</time>
      </trkpt>
      <trkpt lat="42.4251580" lon="-2.8721880">
        <ele>643.4</ele>
        <time>2022-08-29T07:11:22Z</time>
      </trkpt>
      <trkpt lat="42.4251530" lon="-2.8722180">
        <ele>643.2</ele>
        <time>2022-08-29T07:11:23Z</time>
      </trkpt>
      <trkpt lat="42.4251500" lon="-2.8722480">
        <ele>643.6</ele>
        <time>2022-08-29T07:11:24Z</time>
      </trkpt>
      <trkpt lat="42.4251470" lon="-2.8722770">
        <ele>644.0</ele>
        <time>2022-08-29T07:11:25Z</time>
      </trkpt>
      <trkpt lat="42.4251430" lon="-2.8723060">
        <ele>644.0</ele>
        <time>2022-08-29T07:11:26Z</time>
      </trkpt>
      <trkpt lat="42.4251410" lon="-2.8723350">
        <ele>644.4</ele>
        <time>2022-08-29T07:11:27Z</time>
      </trkpt>
      <trkpt lat="42.4251370" lon="-2.8723630">
        <ele>644.4</ele>
        <time>2022-08-29T07:11:28Z</time>
      </trkpt>
      <trkpt lat="42.4251330" lon="-2.8723910">
        <ele>644.6</ele>
        <time>2022-08-29T07:11:29Z</time>
      </trkpt>
      <trkpt lat="42.4251300" lon="-2.8724180">
        <ele>644.8</ele>
        <time>2022-08-29T07:11:30Z</time>
      </trkpt>
      <trkpt lat="42.4251280" lon="-2.8724440">
        <ele>645.0</ele>
        <time>2022-08-29T07:11:31Z</time>
      </trkpt>
      <trkpt lat="42.4251270" lon="-2.8724710">
        <ele>645.2</ele>
        <time>2022-08-29T07:11:32Z</time>
      </trkpt>
      <trkpt lat="42.4251250" lon="-2.8724970">
        <ele>645.6</ele>
        <time>2022-08-29T07:11:33Z</time>
      </trkpt>
      <trkpt lat="42.4251240" lon="-2.8725240">
        <ele>645.8</ele>
        <time>2022-08-29T07:11:34Z</time>
      </trkpt>
      <trkpt lat="42.4251220" lon="-2.8725520">
        <ele>645.8</ele>
        <time>2022-08-29T07:11:35Z</time>
      </trkpt>
      <trkpt lat="42.4251190" lon="-2.8725810">
        <ele>646.2</ele>
        <time>2022-08-29T07:11:36Z</time>
      </trkpt>
      <trkpt lat="42.4251140" lon="-2.8726090">
        <ele>646.2</ele>
        <time>2022-08-29T07:11:37Z</time>
      </trkpt>
      <trkpt lat="42.4251100" lon="-2.8726370">
        <ele>646.2</ele>
        <time>2022-08-29T07:11:38Z</time>
      </trkpt>
      <trkpt lat="42.4251070" lon="-2.8726660">
        <ele>646.4</ele>
        <time>2022-08-29T07:11:39Z</time>
      </trkpt>
      <trkpt lat="42.4251050" lon="-2.8726960">
        <ele>646.4</ele>
        <time>2022-08-29T07:11:40Z</time>
      </trkpt>
      <trkpt lat="42.4251020" lon="-2.8727250">
        <ele>646.6</ele>
        <time>2022-08-29T07:11:41Z</time>
      </trkpt>
      <trkpt lat="42.4250990" lon="-2.8727550">
        <ele>647.0</ele>
        <time>2022-08-29T07:11:42Z</time>
      </trkpt>
      <trkpt lat="42.4250950" lon="-2.8727840">
        <ele>647.2</ele>
        <time>2022-08-29T07:11:43Z</time>
      </trkpt>
      <trkpt lat="42.4250910" lon="-2.8728120">
        <ele>647.6</ele>
        <time>2022-08-29T07:11:44Z</time>
      </trkpt>
      <trkpt lat="42.4250860" lon="-2.8728400">
        <ele>647.8</ele>
        <time>2022-08-29T07:11:45Z</time>
      </trkpt>
      <trkpt lat="42.4250810" lon="-2.8728670">
        <ele>648.0</ele>
        <time>2022-08-29T07:11:46Z</time>
      </trkpt>
      <trkpt lat="42.4250770" lon="-2.8728950">
        <ele>648.2</ele>
        <time>2022-08-29T07:11:47Z</time>
      </trkpt>
      <trkpt lat="42.4250740" lon="-2.8729230">
        <ele>648.2</ele>
        <time>2022-08-29T07:11:48Z</time>
      </trkpt>
      <trkpt lat="42.4250710" lon="-2.8729510">
        <ele>648.6</ele>
        <time>2022-08-29T07:11:49Z</time>
      </trkpt>
      <trkpt lat="42.4250670" lon="-2.8729790">
        <ele>649.0</ele>
        <time>2022-08-29T07:11:50Z</time>
      </trkpt>
      <trkpt lat="42.4250650" lon="-2.8730070">
        <ele>649.2</ele>
        <time>2022-08-29T07:11:51Z</time>
      </trkpt>
      <trkpt lat="42.4250640" lon="-2.8730350">
        <ele>649.2</ele>
        <time>2022-08-29T07:11:52Z</time>
      </trkpt>
      <trkpt lat="42.4250610" lon="-2.8730630">
        <ele>649.2</ele>
        <time>2022-08-29T07:11:53Z</time>
      </trkpt>
      <trkpt lat="42.4250580" lon="-2.8730910">
        <ele>649.6</ele>
        <time>2022-08-29T07:11:54Z</time>
      </trkpt>
      <trkpt lat="42.4250550" lon="-2.8731200">
        <ele>649.8</ele>
        <time>2022-08-29T07:11:55Z</time>
      </trkpt>
      <trkpt lat="42.4250530" lon="-2.8731480">
        <ele>650.2</ele>
        <time>2022-08-29T07:11:56Z</time>
      </trkpt>
      <trkpt lat="42.4250500" lon="-2.8731770">
        <ele>650.4</ele>
        <time>2022-08-29T07:11:57Z</time>
      </trkpt>
      <trkpt lat="42.4250450" lon="-2.8732060">
        <ele>650.6</ele>
        <time>2022-08-29T07:11:58Z</time>
      </trkpt>
      <trkpt lat="42.4250400" lon="-2.8732350">
        <ele>650.8</ele>
        <time>2022-08-29T07:11:59Z</time>
      </trkpt>
      <trkpt lat="42.4250350" lon="-2.8732640">
        <ele>650.8</ele>
        <time>2022-08-29T07:12:00Z</time>
      </trkpt>
      <trkpt lat="42.4250300" lon="-2.8732930">
        <ele>650.8</ele>
        <time>2022-08-29T07:12:01Z</time>
      </trkpt>
      <trkpt lat="42.4250250" lon="-2.8733210">
        <ele>651.2</ele>
        <time>2022-08-29T07:12:02Z</time>
      </trkpt>
      <trkpt lat="42.4250190" lon="-2.8733490">
        <ele>651.8</ele>
        <time>2022-08-29T07:12:03Z</time>
      </trkpt>
      <trkpt lat="42.4250140" lon="-2.8733780">
        <ele>651.8</ele>
        <time>2022-08-29T07:12:04Z</time>
      </trkpt>
      <trkpt lat="42.4250090" lon="-2.8734060">
        <ele>652.0</ele>
        <time>2022-08-29T07:12:05Z</time>
      </trkpt>
      <trkpt lat="42.4250030" lon="-2.8734350">
        <ele>652.2</ele>
        <time>2022-08-29T07:12:06Z</time>
      </trkpt>
      <trkpt lat="42.4249970" lon="-2.8734630">
        <ele>652.4</ele>
        <time>2022-08-29T07:12:07Z</time>
      </trkpt>
      <trkpt lat="42.4249920" lon="-2.8734910">
        <ele>652.8</ele>
        <time>2022-08-29T07:12:08Z</time>
      </trkpt>
      <trkpt lat="42.4249850" lon="-2.8735190">
        <ele>653.0</ele>
        <time>2022-08-29T07:12:09Z</time>
      </trkpt>
      <trkpt lat="42.4249790" lon="-2.8735480">
        <ele>653.2</ele>
        <time>2022-08-29T07:12:10Z</time>
      </trkpt>
      <trkpt lat="42.4249720" lon="-2.8735770">
        <ele>653.4</ele>
        <time>2022-08-29T07:12:11Z</time>
      </trkpt>
      <trkpt lat="42.4249650" lon="-2.8736070">
        <ele>653.6</ele>
        <time>2022-08-29T07:12:12Z</time>
      </trkpt>
      <trkpt lat="42.4249580" lon="-2.8736360">
        <ele>653.8</ele>
        <time>2022-08-29T07:12:13Z</time>
      </trkpt>
      <trkpt lat="42.4249520" lon="-2.8736660">
        <ele>654.0</ele>
        <time>2022-08-29T07:12:14Z</time>
      </trkpt>
      <trkpt lat="42.4249450" lon="-2.8736960">
        <ele>654.4</ele>
        <time>2022-08-29T07:12:15Z</time>
      </trkpt>
      <trkpt lat="42.4249390" lon="-2.8737260">
        <ele>654.6</ele>
        <time>2022-08-29T07:12:16Z</time>
      </trkpt>
      <trkpt lat="42.4249310" lon="-2.8737560">
        <ele>654.8</ele>
        <time>2022-08-29T07:12:17Z</time>
      </trkpt>
      <trkpt lat="42.4249240" lon="-2.8737860">
        <ele>654.8</ele>
        <time>2022-08-29T07:12:18Z</time>
      </trkpt>
      <trkpt lat="42.4249160" lon="-2.8738160">
        <ele>655.2</ele>
        <time>2022-08-29T07:12:19Z</time>
      </trkpt>
      <trkpt lat="42.4249080" lon="-2.8738460">
        <ele>655.6</ele>
        <time>2022-08-29T07:12:20Z</time>
      </trkpt>
      <trkpt lat="42.4249000" lon="-2.8738770">
        <ele>655.6</ele>
        <time>2022-08-29T07:12:21Z</time>
      </trkpt>
      <trkpt lat="42.4248940" lon="-2.8739080">
        <ele>656.0</ele>
        <time>2022-08-29T07:12:22Z</time>
      </trkpt>
      <trkpt lat="42.4248880" lon="-2.8739390">
        <ele>656.4</ele>
        <time>2022-08-29T07:12:23Z</time>
      </trkpt>
      <trkpt lat="42.4248800" lon="-2.8739690">
        <ele>656.4</ele>
        <time>2022-08-29T07:12:24Z</time>
      </trkpt>
      <trkpt lat="42.4248720" lon="-2.8739980">
        <ele>656.4</ele>
        <time>2022-08-29T07:12:25Z</time>
      </trkpt>
      <trkpt lat="42.4248640" lon="-2.8740260">
        <ele>656.8</ele>
        <time>2022-08-29T07:12:26Z</time>
      </trkpt>
      <trkpt lat="42.4248580" lon="-2.8740550">
        <ele>657.0</ele>
        <time>2022-08-29T07:12:27Z</time>
      </trkpt>
      <trkpt lat="42.4248520" lon="-2.8740840">
        <ele>657.4</ele>
        <time>2022-08-29T07:12:28Z</time>
      </trkpt>
      <trkpt lat="42.4248450" lon="-2.8741130">
        <ele>657.4</ele>
        <time>2022-08-29T07:12:29Z</time>
      </trkpt>
      <trkpt lat="42.4248380" lon="-2.8741420">
        <ele>657.6</ele>
        <time>2022-08-29T07:12:30Z</time>
      </trkpt>
      <trkpt lat="42.4248320" lon="-2.8741700">
        <ele>658.0</ele>
        <time>2022-08-29T07:12:31Z</time>
      </trkpt>
      <trkpt lat="42.4248260" lon="-2.8741990">
        <ele>658.2</ele>
        <time>2022-08-29T07:12:32Z</time>
      </trkpt>
      <trkpt lat="42.4248200" lon="-2.8742260">
        <ele>658.2</ele>
        <time>2022-08-29T07:12:33Z</time>
      </trkpt>
      <trkpt lat="42.4248130" lon="-2.8742550">
        <ele>658.4</ele>
        <time>2022-08-29T07:12:34Z</time>
      </trkpt>
      <trkpt lat="42.4248060" lon="-2.8742830">
        <ele>658.8</ele>
        <time>2022-08-29T07:12:35Z</time>
      </trkpt>
      <trkpt lat="42.4247980" lon="-2.8743120">
        <ele>659.0</ele>
        <time>2022-08-29T07:12:36Z</time>
      </trkpt>
      <trkpt lat="42.4247900" lon="-2.8743420">
        <ele>659.2</ele>
        <time>2022-08-29T07:12:37Z</time>
      </trkpt>
      <trkpt lat="42.4247820" lon="-2.8743740">
        <ele>659.4</ele>
        <time>2022-08-29T07:12:38Z</time>
      </trkpt>
      <trkpt lat="42.4247740" lon="-2.8744070">
        <ele>659.6</ele>
        <time>2022-08-29T07:12:39Z</time>
      </trkpt>
      <trkpt lat="42.4247660" lon="-2.8744400">
        <ele>659.8</ele>
        <time>2022-08-29T07:12:40Z</time>
      </trkpt>
      <trkpt lat="42.4247580" lon="-2.8744740">
        <ele>660.2</ele>
        <time>2022-08-29T07:12:41Z</time>
      </trkpt>
      <trkpt lat="42.4247490" lon="-2.8745080">
        <ele>660.2</ele>
        <time>2022-08-29T07:12:42Z</time>
      </trkpt>
      <trkpt lat="42.4247400" lon="-2.8745430">
        <ele>660.4</ele>
        <time>2022-08-29T07:12:43Z</time>
      </trkpt>
      <trkpt lat="42.4247320" lon="-2.8745790">
        <ele>660.6</ele>
        <time>2022-08-29T07:12:44Z</time>
      </trkpt>
      <trkpt lat="42.4247230" lon="-2.8746150">
        <ele>660.6</ele>
        <time>2022-08-29T07:12:45Z</time>
      </trkpt>
      <trkpt lat="42.4247150" lon="-2.8746510">
        <ele>661.0</ele>
        <time>2022-08-29T07:12:46Z</time>
      </trkpt>
      <trkpt lat="42.4247070" lon="-2.8746890">
        <ele>661.2</ele>
        <time>2022-08-29T07:12:47Z</time>
      </trkpt>
      <trkpt lat="42.4246980" lon="-2.8747250">
        <ele>661.4</ele>
        <time>2022-08-29T07:12:48Z</time>
      </trkpt>
      <trkpt lat="42.4246910" lon="-2.8747620">
        <ele>661.8</ele>
        <time>2022-08-29T07:12:49Z</time>
      </trkpt>
      <trkpt lat="42.4246830" lon="-2.8747980">
        <ele>661.8</ele>
        <time>2022-08-29T07:12:50Z</time>
      </trkpt>
      <trkpt lat="42.4246750" lon="-2.8748350">
        <ele>661.8</ele>
        <time>2022-08-29T07:12:51Z</time>
      </trkpt>
      <trkpt lat="42.4246660" lon="-2.8748710">
        <ele>661.8</ele>
        <time>2022-08-29T07:12:52Z</time>
      </trkpt>
      <trkpt lat="42.4246570" lon="-2.8749060">
        <ele>661.8</ele>
        <time>2022-08-29T07:12:53Z</time>
      </trkpt>
      <trkpt lat="42.4246500" lon="-2.8749410">
        <ele>662.2</ele>
        <time>2022-08-29T07:12:54Z</time>
      </trkpt>
      <trkpt lat="42.4246420" lon="-2.8749760">
        <ele>662.4</ele>
        <time>2022-08-29T07:12:55Z</time>
      </trkpt>
      <trkpt lat="42.4246330" lon="-2.8750100">
        <ele>662.8</ele>
        <time>2022-08-29T07:12:56Z</time>
      </trkpt>
      <trkpt lat="42.4246260" lon="-2.8750440">
        <ele>663.0</ele>
        <time>2022-08-29T07:12:57Z</time>
      </trkpt>
      <trkpt lat="42.4246180" lon="-2.8750770">
        <ele>663.4</ele>
        <time>2022-08-29T07:12:58Z</time>
      </trkpt>
      <trkpt lat="42.4246100" lon="-2.8751110">
        <ele>663.6</ele>
        <time>2022-08-29T07:12:59Z</time>
      </trkpt>
      <trkpt lat="42.4246020" lon="-2.8751440">
        <ele>663.8</ele>
        <time>2022-08-29T07:13:00Z</time>
      </trkpt>
      <trkpt lat="42.4245950" lon="-2.8751770">
        <ele>664.0</ele>
        <time>2022-08-29T07:13:01Z</time>
      </trkpt>
      <trkpt lat="42.4245870" lon="-2.8752100">
        <ele>664.2</ele>
        <time>2022-08-29T07:13:02Z</time>
      </trkpt>
      <trkpt lat="42.4245780" lon="-2.8752440">
        <ele>664.4</ele>
        <time>2022-08-29T07:13:03Z</time>
      </trkpt>
      <trkpt lat="42.4245720" lon="-2.8752780">
        <ele>664.4</ele>
        <time>2022-08-29T07:13:04Z</time>
      </trkpt>
      <trkpt lat="42.4245650" lon="-2.8753130">
        <ele>664.6</ele>
        <time>2022-08-29T07:13:05Z</time>
      </trkpt>
      <trkpt lat="42.4245570" lon="-2.8753490">
        <ele>665.0</ele>
        <time>2022-08-29T07:13:06Z</time>
      </trkpt>
      <trkpt lat="42.4245490" lon="-2.8753840">
        <ele>665.4</ele>
        <time>2022-08-29T07:13:07Z</time>
      </trkpt>
      <trkpt lat="42.4245400" lon="-2.8754180">
        <ele>665.6</ele>
        <time>2022-08-29T07:13:08Z</time>
      </trkpt>
      <trkpt lat="42.4245310" lon="-2.8754520">
        <ele>666.0</ele>
        <time>2022-08-29T07:13:09Z</time>
      </trkpt>
      <trkpt lat="42.4245230" lon="-2.8754860">
        <ele>666.4</ele>
        <time>2022-08-29T07:13:10Z</time>
      </trkpt>
      <trkpt lat="42.4245150" lon="-2.8755200">
        <ele>666.4</ele>
        <time>2022-08-29T07:13:11Z</time>
      </trkpt>
      <trkpt lat="42.4245080" lon="-2.8755540">
        <ele>666.6</ele>
        <time>2022-08-29T07:13:12Z</time>
      </trkpt>
      <trkpt lat="42.4245000" lon="-2.8755890">
        <ele>666.6</ele>
        <time>2022-08-29T07:13:13Z</time>
      </trkpt>
      <trkpt lat="42.4244910" lon="-2.8756230">
        <ele>666.8</ele>
        <time>2022-08-29T07:13:14Z</time>
      </trkpt>
      <trkpt lat="42.4244820" lon="-2.8756570">
        <ele>667.2</ele>
        <time>2022-08-29T07:13:15Z</time>
      </trkpt>
      <trkpt lat="42.4244730" lon="-2.8756890">
        <ele>667.4</ele>
        <time>2022-08-29T07:13:16Z</time>
      </trkpt>
      <trkpt lat="42.4244650" lon="-2.8757220">
        <ele>667.8</ele>
        <time>2022-08-29T07:13:17Z</time>
      </trkpt>
      <trkpt lat="42.4244560" lon="-2.8757560">
        <ele>667.8</ele>
        <time>2022-08-29T07:13:18Z</time>
      </trkpt>
      <trkpt lat="42.4244480" lon="-2.8757890">
        <ele>668.0</ele>
        <time>2022-08-29T07:13:19Z</time>
      </trkpt>
      <trkpt lat="42.4244380" lon="-2.8758230">
        <ele>668.2</ele>
        <time>2022-08-29T07:13:20Z</time>
      </trkpt>
      <trkpt lat="42.4244290" lon="-2.8758570">
        <ele>668.6</ele>
        <time>2022-08-29T07:13:21Z</time>
      </trkpt>
      <trkpt lat="42.4244200" lon="-2.8758910">
        <ele>668.6</ele>
        <time>2022-08-29T07:13:22Z</time>
      </trkpt>
      <trkpt lat="42.4244120" lon="-2.8759250">
        <ele>669.0</ele>
        <time>2022-08-29T07:13:23Z</time>
      </trkpt>
      <trkpt lat="42.4244020" lon="-2.8759590">
        <ele>669.2</ele>
        <time>2022-08-29T07:13:24Z</time>
      </trkpt>
      <trkpt lat="42.4243930" lon="-2.8759910">
        <ele>669.4</ele>
        <time>2022-08-29T07:13:25Z</time>
      </trkpt>
      <trkpt lat="42.4243840" lon="-2.8760240">
        <ele>669.6</ele>
        <time>2022-08-29T07:13:26Z</time>
      </trkpt>
      <trkpt lat="42.4243750" lon="-2.8760570">
        <ele>669.8</ele>
        <time>2022-08-29T07:13:27Z</time>
      </trkpt>
      <trkpt lat="42.4243660" lon="-2.8760900">
        <ele>670.0</ele>
        <time>2022-08-29T07:13:28Z</time>
      </trkpt>
      <trkpt lat="42.4243580" lon="-2.8761220">
        <ele>670.0</ele>
        <time>2022-08-29T07:13:29Z</time>
      </trkpt>
      <trkpt lat="42.4243490" lon="-2.8761540">
        <ele>670.2</ele>
        <time>2022-08-29T07:13:30Z</time>
      </trkpt>
      <trkpt lat="42.4243390" lon="-2.8761860">
        <ele>670.4</ele>
        <time>2022-08-29T07:13:31Z</time>
      </trkpt>
      <trkpt lat="42.4243290" lon="-2.8762160">
        <ele>670.6</ele>
        <time>2022-08-29T07:13:32Z</time>
      </trkpt>
      <trkpt lat="42.4243190" lon="-2.8762480">
        <ele>670.8</ele>
        <time>2022-08-29T07:13:33Z</time>
      </trkpt>
      <trkpt lat="42.4243090" lon="-2.8762790">
        <ele>671.0</ele>
        <time>2022-08-29T07:13:34Z</time>
      </trkpt>
      <trkpt lat="42.4242990" lon="-2.8763100">
        <ele>671.0</ele>
        <time>2022-08-29T07:13:35Z</time>
      </trkpt>
      <trkpt lat="42.4242890" lon="-2.8763430">
        <ele>671.2</ele>
        <time>2022-08-29T07:13:36Z</time>
      </trkpt>
      <trkpt lat="42.4242790" lon="-2.8763760">
        <ele>671.2</ele>
        <time>2022-08-29T07:13:37Z</time>
      </trkpt>
      <trkpt lat="42.4242680" lon="-2.8764090">
        <ele>671.4</ele>
        <time>2022-08-29T07:13:38Z</time>
      </trkpt>
      <trkpt lat="42.4242570" lon="-2.8764420">
        <ele>671.6</ele>
        <time>2022-08-29T07:13:39Z</time>
      </trkpt>
      <trkpt lat="42.4242470" lon="-2.8764740">
        <ele>671.8</ele>
        <time>2022-08-29T07:13:40Z</time>
      </trkpt>
      <trkpt lat="42.4242370" lon="-2.8765050">
        <ele>672.2</ele>
        <time>2022-08-29T07:13:41Z</time>
      </trkpt>
      <trkpt lat="42.4242280" lon="-2.8765360">
        <ele>672.4</ele>
        <time>2022-08-29T07:13:42Z</time>
      </trkpt>
      <trkpt lat="42.4242200" lon="-2.8765660">
        <ele>672.6</ele>
        <time>2022-08-29T07:13:43Z</time>
      </trkpt>
      <trkpt lat="42.4242100" lon="-2.8765950">
        <ele>672.8</ele>
        <time>2022-08-29T07:13:44Z</time>
      </trkpt>
      <trkpt lat="42.4242000" lon="-2.8766220">
        <ele>673.2</ele>
        <time>2022-08-29T07:13:45Z</time>
      </trkpt>
      <trkpt lat="42.4241890" lon="-2.8766490">
        <ele>673.6</ele>
        <time>2022-08-29T07:13:46Z</time>
      </trkpt>
      <trkpt lat="42.4241770" lon="-2.8766760">
        <ele>673.6</ele>
        <time>2022-08-29T07:13:47Z</time>
      </trkpt>
      <trkpt lat="42.4241650" lon="-2.8767030">
        <ele>673.6</ele>
        <time>2022-08-29T07:13:48Z</time>
      </trkpt>
      <trkpt lat="42.4241540" lon="-2.8767300">
        <ele>673.8</ele>
        <time>2022-08-29T07:13:49Z</time>
      </trkpt>
      <trkpt lat="42.4241430" lon="-2.8767580">
        <ele>674.0</ele>
        <time>2022-08-29T07:13:50Z</time>
      </trkpt>
      <trkpt lat="42.4241310" lon="-2.8767840">
        <ele>674.2</ele>
        <time>2022-08-29T07:13:51Z</time>
      </trkpt>
      <trkpt lat="42.4241200" lon="-2.8768100">
        <ele>674.4</ele>
        <time>2022-08-29T07:13:52Z</time>
      </trkpt>
      <trkpt lat="42.4241080" lon="-2.8768350">
        <ele>674.6</ele>
        <time>2022-08-29T07:13:53Z</time>
      </trkpt>
      <trkpt lat="42.4240960" lon="-2.8768610">
        <ele>674.8</ele>
        <time>2022-08-29T07:13:54Z</time>
      </trkpt>
      <trkpt lat="42.4240840" lon="-2.8768850">
        <ele>675.0</ele>
        <time>2022-08-29T07:13:55Z</time>
      </trkpt>
      <trkpt lat="42.4240710" lon="-2.8769090">
        <ele>675.0</ele>
        <time>2022-08-29T07:13:56Z</time>
      </trkpt>
      <trkpt lat="42.4240560" lon="-2.8769310">
        <ele>675.4</ele>
        <time>2022-08-29T07:13:57Z</time>
      </trkpt>
      <trkpt lat="42.4240410" lon="-2.8769530">
        <ele>676.0</ele>
        <time>2022-08-29T07:13:58Z</time>
      </trkpt>
      <trkpt lat="42.4240280" lon="-2.8769770">
        <ele>676.2</ele>
        <time>2022-08-29T07:13:59Z</time>
      </trkpt>
      <trkpt lat="42.4240160" lon="-2.8770000">
        <ele>676.6</ele>
        <time>2022-08-29T07:14:00Z</time>
      </trkpt>
      <trkpt lat="42.4240050" lon="-2.8770230">
        <ele>676.6</ele>
        <time>2022-08-29T07:14:01Z</time>
      </trkpt>
      <trkpt lat="42.4239930" lon="-2.8770460">
        <ele>676.8</ele>
        <time>2022-08-29T07:14:02Z</time>
      </trkpt>
      <trkpt lat="42.4239820" lon="-2.8770690">
        <ele>677.2</ele>
        <time>2022-08-29T07:14:03Z</time>
      </trkpt>
      <trkpt lat="42.4239700" lon="-2.8770930">
        <ele>677.4</ele>
        <time>2022-08-29T07:14:04Z</time>
      </trkpt>
      <trkpt lat="42.4239590" lon="-2.8771170">
        <ele>677.6</ele>
        <time>2022-08-29T07:14:05Z</time>
      </trkpt>
      <trkpt lat="42.4239460" lon="-2.8771410">
        <ele>677.8</ele>
        <time>2022-08-29T07:14:06Z</time>
      </trkpt>
      <trkpt lat="42.4239340" lon="-2.8771640">
        <ele>678.0</ele>
        <time>2022-08-29T07:14:07Z</time>
      </trkpt>
      <trkpt lat="42.4239210" lon="-2.8771870">
        <ele>678.2</ele>
        <time>2022-08-29T07:14:08Z</time>
      </trkpt>
      <trkpt lat="42.4239090" lon="-2.8772100">
        <ele>678.4</ele>
        <time>2022-08-29T07:14:09Z</time>
      </trkpt>
      <trkpt lat="42.4238970" lon="-2.8772340">
        <ele>678.6</ele>
        <time>2022-08-29T07:14:10Z</time>
      </trkpt>
      <trkpt lat="42.4238850" lon="-2.8772580">
        <ele>678.8</ele>
        <time>2022-08-29T07:14:11Z</time>
      </trkpt>
      <trkpt lat="42.4238730" lon="-2.8772820">
        <ele>679.2</ele>
        <time>2022-08-29T07:14:12Z</time>
      </trkpt>
      <trkpt lat="42.4238610" lon="-2.8773060">
        <ele>679.4</ele>
        <time>2022-08-29T07:14:13Z</time>
      </trkpt>
      <trkpt lat="42.4238490" lon="-2.8773300">
        <ele>679.8</ele>
        <time>2022-08-29T07:14:14Z</time>
      </trkpt>
      <trkpt lat="42.4238370" lon="-2.8773530">
        <ele>680.2</ele>
        <time>2022-08-29T07:14:15Z</time>
      </trkpt>
      <trkpt lat="42.4238240" lon="-2.8773760">
        <ele>680.4</ele>
        <time>2022-08-29T07:14:16Z</time>
      </trkpt>
      <trkpt lat="42.4238100" lon="-2.8773970">
        <ele>680.6</ele>
        <time>2022-08-29T07:14:17Z</time>
      </trkpt>
      <trkpt lat="42.4237970" lon="-2.8774180">
        <ele>680.8</ele>
        <time>2022-08-29T07:14:18Z</time>
      </trkpt>
      <trkpt lat="42.4237830" lon="-2.8774380">
        <ele>681.2</ele>
        <time>2022-08-29T07:14:19Z</time>
      </trkpt>
      <trkpt lat="42.4237690" lon="-2.8774590">
        <ele>681.4</ele>
        <time>2022-08-29T07:14:20Z</time>
      </trkpt>
      <trkpt lat="42.4237570" lon="-2.8774800">
        <ele>681.8</ele>
        <time>2022-08-29T07:14:21Z</time>
      </trkpt>
      <trkpt lat="42.4237440" lon="-2.8775010">
        <ele>682.2</ele>
        <time>2022-08-29T07:14:22Z</time>
      </trkpt>
      <trkpt lat="42.4237320" lon="-2.8775230">
        <ele>682.4</ele>
        <time>2022-08-29T07:14:23Z</time>
      </trkpt>
      <trkpt lat="42.4237190" lon="-2.8775440">
        <ele>682.4</ele>
        <time>2022-08-29T07:14:24Z</time>
      </trkpt>
      <trkpt lat="42.4237070" lon="-2.8775670">
        <ele>682.6</ele>
        <time>2022-08-29T07:14:25Z</time>
      </trkpt>
      <trkpt lat="42.4236940" lon="-2.8775890">
        <ele>682.8</ele>
        <time>2022-08-29T07:14:26Z</time>
      </trkpt>
      <trkpt lat="42.4236820" lon="-2.8776110">
        <ele>683.0</ele>
        <time>2022-08-29T07:14:27Z</time>
      </trkpt>
      <trkpt lat="42.4236690" lon="-2.8776330">
        <ele>683.2</ele>
        <time>2022-08-29T07:14:28Z</time>
      </trkpt>
      <trkpt lat="42.4236560" lon="-2.8776540">
        <ele>683.8</ele>
        <time>2022-08-29T07:14:29Z</time>
      </trkpt>
      <trkpt lat="42.4236440" lon="-2.8776760">
        <ele>683.8</ele>
        <time>2022-08-29T07:14:30Z</time>
      </trkpt>
      <trkpt lat="42.4236320" lon="-2.8776980">
        <ele>684.4</ele>
        <time>2022-08-29T07:14:31Z</time>
      </trkpt>
      <trkpt lat="42.4236190" lon="-2.8777190">
        <ele>684.4</ele>
        <time>2022-08-29T07:14:32Z</time>
      </trkpt>
      <trkpt lat="42.4236060" lon="-2.8777400">
        <ele>684.6</ele>
        <time>2022-08-29T07:14:33Z</time>
      </trkpt>
      <trkpt lat="42.4235930" lon="-2.8777630">
        <ele>685.2</ele>
        <time>2022-08-29T07:14:34Z</time>
      </trkpt>
      <trkpt lat="42.4235800" lon="-2.8777860">
        <ele>685.4</ele>
        <time>2022-08-29T07:14:35Z</time>
      </trkpt>
      <trkpt lat="42.4235680" lon="-2.8778080">
        <ele>685.8</ele>
        <time>2022-08-29T07:14:36Z</time>
      </trkpt>
      <trkpt lat="42.4235560" lon="-2.8778310">
        <ele>686.0</ele>
        <time>2022-08-29T07:14:37Z</time>
      </trkpt>
      <trkpt lat="42.4235450" lon="-2.8778540">
        <ele>686.2</ele>
        <time>2022-08-29T07:14:38Z</time>
      </trkpt>
      <trkpt lat="42.4235320" lon="-2.8778750">
        <ele>686.6</ele>
        <time>2022-08-29T07:14:39Z</time>
      </trkpt>
      <trkpt lat="42.4235180" lon="-2.8778960">
        <ele>686.8</ele>
        <time>2022-08-29T07:14:40Z</time>
      </trkpt>
      <trkpt lat="42.4235050" lon="-2.8779170">
        <ele>687.2</ele>
        <time>2022-08-29T07:14:41Z</time>
      </trkpt>
      <trkpt lat="42.4234930" lon="-2.8779390">
        <ele>687.4</ele>
        <time>2022-08-29T07:14:42Z</time>
      </trkpt>
      <trkpt lat="42.4234790" lon="-2.8779630">
        <ele>687.8</ele>
        <time>2022-08-29T07:14:43Z</time>
      </trkpt>
      <trkpt lat="42.4234660" lon="-2.8779850">
        <ele>688.0</ele>
        <time>2022-08-29T07:14:44Z</time>
      </trkpt>
      <trkpt lat="42.4234550" lon="-2.8780050">
        <ele>688.4</ele>
        <time>2022-08-29T07:14:45Z</time>
      </trkpt>
      <trkpt lat="42.4234420" lon="-2.8780260">
        <ele>688.6</ele>
        <time>2022-08-29T07:14:46Z</time>
      </trkpt>
      <trkpt lat="42.4234300" lon="-2.8780450">
        <ele>688.8</ele>
        <time>2022-08-29T07:14:47Z</time>
      </trkpt>
      <trkpt lat="42.4234150" lon="-2.8780690">
        <ele>689.0</ele>
        <time>2022-08-29T07:14:48Z</time>
      </trkpt>
      <trkpt lat="42.4234000" lon="-2.8780900">
        <ele>689.0</ele>
        <time>2022-08-29T07:14:49Z</time>
      </trkpt>
      <trkpt lat="42.4233880" lon="-2.8781090">
        <ele>689.4</ele>
        <time>2022-08-29T07:14:50Z</time>
      </trkpt>
      <trkpt lat="42.4233740" lon="-2.8781310">
        <ele>689.4</ele>
        <time>2022-08-29T07:14:51Z</time>
      </trkpt>
      <trkpt lat="42.4233610" lon="-2.8781510">
        <ele>689.6</ele>
        <time>2022-08-29T07:14:52Z</time>
      </trkpt>
      <trkpt lat="42.4233470" lon="-2.8781720">
        <ele>689.8</ele>
        <time>2022-08-29T07:14:53Z</time>
      </trkpt>
      <trkpt lat="42.4233330" lon="-2.8781930">
        <ele>690.2</ele>
        <time>2022-08-29T07:14:54Z</time>
      </trkpt>
      <trkpt lat="42.4233190" lon="-2.8782130">
        <ele>690.4</ele>
        <time>2022-08-29T07:14:55Z</time>
      </trkpt>
      <trkpt lat="42.4233040" lon="-2.8782330">
        <ele>690.8</ele>
        <time>2022-08-29T07:14:56Z</time>
      </trkpt>
      <trkpt lat="42.4232880" lon="-2.8782540">
        <ele>691.2</ele>
        <time>2022-08-29T07:14:57Z</time>
      </trkpt>
      <trkpt lat="42.4232720" lon="-2.8782750">
        <ele>691.6</ele>
        <time>2022-08-29T07:14:58Z</time>
      </trkpt>
      <trkpt lat="42.4232570" lon="-2.8782950">
        <ele>692.0</ele>
        <time>2022-08-29T07:14:59Z</time>
      </trkpt>
      <trkpt lat="42.4232420" lon="-2.8783160">
        <ele>692.2</ele>
        <time>2022-08-29T07:15:00Z</time>
      </trkpt>
      <trkpt lat="42.4232270" lon="-2.8783370">
        <ele>692.4</ele>
        <time>2022-08-29T07:15:01Z</time>
      </trkpt>
      <trkpt lat="42.4232120" lon="-2.8783600">
        <ele>692.4</ele>
        <time>2022-08-29T07:15:02Z</time>
      </trkpt>
      <trkpt lat="42.4231980" lon="-2.8783800">
        <ele>692.8</ele>
        <time>2022-08-29T07:15:03Z</time>
      </trkpt>
      <trkpt lat="42.4231830" lon="-2.8784000">
        <ele>693.2</ele>
        <time>2022-08-29T07:15:04Z</time>
      </trkpt>
      <trkpt lat="42.4231680" lon="-2.8784210">
        <ele>693.4</ele>
        <time>2022-08-29T07:15:05Z</time>
      </trkpt>
      <trkpt lat="42.4231540" lon="-2.8784430">
        <ele>693.8</ele>
        <time>2022-08-29T07:15:06Z</time>
      </trkpt>
      <trkpt lat="42.4231390" lon="-2.8784650">
        <ele>694.0</ele>
        <time>2022-08-29T07:15:07Z</time>
      </trkpt>
      <trkpt lat="42.4231230" lon="-2.8784840">
        <ele>694.2</ele>
        <time>2022-08-29T07:15:08Z</time>
      </trkpt>
      <trkpt lat="42.4231070" lon="-2.8785040">
        <ele>694.4</ele>
        <time>2022-08-29T07:15:09Z</time>
      </trkpt>
      <trkpt lat="42.4230920" lon="-2.8785230">
        <ele>694.8</ele>
        <time>2022-08-29T07:15:10Z</time>
      </trkpt>
      <trkpt lat="42.4230790" lon="-2.8785430">
        <ele>695.0</ele>
        <time>2022-08-29T07:15:11Z</time>
      </trkpt>
      <trkpt lat="42.4230660" lon="-2.8785620">
        <ele>695.2</ele>
        <time>2022-08-29T07:15:12Z</time>
      </trkpt>
      <trkpt lat="42.4230520" lon="-2.8785800">
        <ele>695.2</ele>
        <time>2022-08-29T07:15:13Z</time>
      </trkpt>
      <trkpt lat="42.4230390" lon="-2.8785980">
        <ele>695.6</ele>
        <time>2022-08-29T07:15:14Z</time>
      </trkpt>
      <trkpt lat="42.4230240" lon="-2.8786170">
        <ele>695.8</ele>
        <time>2022-08-29T07:15:15Z</time>
      </trkpt>
      <trkpt lat="42.4230100" lon="-2.8786350">
        <ele>695.8</ele>
        <time>2022-08-29T07:15:16Z</time>
      </trkpt>
      <trkpt lat="42.4229950" lon="-2.8786560">
        <ele>696.2</ele>
        <time>2022-08-29T07:15:17Z</time>
      </trkpt>
      <trkpt lat="42.4229790" lon="-2.8786770">
        <ele>696.4</ele>
        <time>2022-08-29T07:15:18Z</time>
      </trkpt>
      <trkpt lat="42.4229640" lon="-2.8786970">
        <ele>696.6</ele>
        <time>2022-08-29T07:15:19Z</time>
      </trkpt>
      <trkpt lat="42.4229480" lon="-2.8787180">
        <ele>696.8</ele>
        <time>2022-08-29T07:15:20Z</time>
      </trkpt>
      <trkpt lat="42.4229320" lon="-2.8787390">
        <ele>697.0</ele>
        <time>2022-08-29T07:15:21Z</time>
      </trkpt>
      <trkpt lat="42.4229170" lon="-2.8787600">
        <ele>697.0</ele>
        <time>2022-08-29T07:15:22Z</time>
      </trkpt>
      <trkpt lat="42.4229020" lon="-2.8787800">
        <ele>697.2</ele>
        <time>2022-08-29T07:15:23Z</time>
      </trkpt>
      <trkpt lat="42.4228880" lon="-2.8788010">
        <ele>697.4</ele>
        <time>2022-08-29T07:15:24Z</time>
      </trkpt>
      <trkpt lat="42.4228740" lon="-2.8788220">
        <ele>697.6</ele>
        <time>2022-08-29T07:15:25Z</time>
      </trkpt>
      <trkpt lat="42.4228600" lon="-2.8788440">
        <ele>697.8</ele>
        <time>2022-08-29T07:15:26Z</time>
      </trkpt>
      <trkpt lat="42.4228450" lon="-2.8788650">
        <ele>697.8</ele>
        <time>2022-08-29T07:15:27Z</time>
      </trkpt>
      <trkpt lat="42.4228310" lon="-2.8788870">
        <ele>698.2</ele>
        <time>2022-08-29T07:15:28Z</time>
      </trkpt>
      <trkpt lat="42.4228170" lon="-2.8789080">
        <ele>698.4</ele>
        <time>2022-08-29T07:15:29Z</time>
      </trkpt>
      <trkpt lat="42.4228030" lon="-2.8789280">
        <ele>698.4</ele>
        <time>2022-08-29T07:15:30Z</time>
      </trkpt>
      <trkpt lat="42.4227900" lon="-2.8789500">
        <ele>698.6</ele>
        <time>2022-08-29T07:15:31Z</time>
      </trkpt>
      <trkpt lat="42.4227780" lon="-2.8789730">
        <ele>698.8</ele>
        <time>2022-08-29T07:15:32Z</time>
      </trkpt>
      <trkpt lat="42.4227650" lon="-2.8789950">
        <ele>699.0</ele>
        <time>2022-08-29T07:15:33Z</time>
      </trkpt>
      <trkpt lat="42.4227510" lon="-2.8790150">
        <ele>699.2</ele>
        <time>2022-08-29T07:15:34Z</time>
      </trkpt>
      <trkpt lat="42.4227350" lon="-2.8790340">
        <ele>699.4</ele>
        <time>2022-08-29T07:15:35Z</time>
      </trkpt>
      <trkpt lat="42.4227200" lon="-2.8790540">
        <ele>699.6</ele>
        <time>2022-08-29T07:15:36Z</time>
      </trkpt>
      <trkpt lat="42.4227060" lon="-2.8790760">
        <ele>699.6</ele>
        <time>2022-08-29T07:15:37Z</time>
      </trkpt>
      <trkpt lat="42.4226910" lon="-2.8790990">
        <ele>699.6</ele>
        <time>2022-08-29T07:15:38Z</time>
      </trkpt>
      <trkpt lat="42.4226750" lon="-2.8791170">
        <ele>700.0</ele>
        <time>2022-08-29T07:15:39Z</time>
      </trkpt>
      <trkpt lat="42.4226620" lon="-2.8791380">
        <ele>700.2</ele>
        <time>2022-08-29T07:15:40Z</time>
      </trkpt>
      <trkpt lat="42.4226520" lon="-2.8791630">
        <ele>700.4</ele>
        <time>2022-08-29T07:15:41Z</time>
      </trkpt>
      <trkpt lat="42.4226400" lon="-2.8791870">
        <ele>700.6</ele>
        <time>2022-08-29T07:15:42Z</time>
      </trkpt>
      <trkpt lat="42.4226260" lon="-2.8792140">
        <ele>700.8</ele>
        <time>2022-08-29T07:15:43Z</time>
      </trkpt>
      <trkpt lat="42.4226090" lon="-2.8792430">
        <ele>701.0</ele>
        <time>2022-08-29T07:15:44Z</time>
      </trkpt>
      <trkpt lat="42.4225900" lon="-2.8792730">
        <ele>701.2</ele>
        <time>2022-08-29T07:15:45Z</time>
      </trkpt>
      <trkpt lat="42.4225710" lon="-2.8793050">
        <ele>701.4</ele>
        <time>2022-08-29T07:15:46Z</time>
      </trkpt>
      <trkpt lat="42.4225500" lon="-2.8793370">
        <ele>701.4</ele>
        <time>2022-08-29T07:15:47Z</time>
      </trkpt>
      <trkpt lat="42.4225290" lon="-2.8793690">
        <ele>701.6</ele>
        <time>2022-08-29T07:15:48Z</time>
      </trkpt>
      <trkpt lat="42.4225090" lon="-2.8794020">
        <ele>701.6</ele>
        <time>2022-08-29T07:15:49Z</time>
      </trkpt>
      <trkpt lat="42.4224900" lon="-2.8794350">
        <ele>701.8</ele>
        <time>2022-08-29T07:15:50Z</time>
      </trkpt>
      <trkpt lat="42.4224720" lon="-2.8794680">
        <ele>701.8</ele>
        <time>2022-08-29T07:15:51Z</time>
      </trkpt>
      <trkpt lat="42.4224530" lon="-2.8795000">
        <ele>701.8</ele>
        <time>2022-08-29T07:15:52Z</time>
      </trkpt>
      <trkpt lat="42.4224340" lon="-2.8795310">
        <ele>701.8</ele>
        <time>2022-08-29T07:15:53Z</time>
      </trkpt>
      <trkpt lat="42.4224150" lon="-2.8795620">
        <ele>702.0</ele>
        <time>2022-08-29T07:15:54Z</time>
      </trkpt>
      <trkpt lat="42.4223960" lon="-2.8795930">
        <ele>702.0</ele>
        <time>2022-08-29T07:15:55Z</time>
      </trkpt>
      <trkpt lat="42.4223760" lon="-2.8796250">
        <ele>702.2</ele>
        <time>2022-08-29T07:15:56Z</time>
      </trkpt>
      <trkpt lat="42.4223560" lon="-2.8796570">
        <ele>702.0</ele>
        <time>2022-08-29T07:15:57Z</time>
      </trkpt>
      <trkpt lat="42.4223380" lon="-2.8796910">
        <ele>702.2</ele>
        <time>2022-08-29T07:15:58Z</time>
      </trkpt>
      <trkpt lat="42.4223190" lon="-2.8797240">
        <ele>702.4</ele>
        <time>2022-08-29T07:15:59Z</time>
      </trkpt>
      <trkpt lat="42.4222990" lon="-2.8797560">
        <ele>702.6</ele>
        <time>2022-08-29T07:16:00Z</time>
      </trkpt>
      <trkpt lat="42.4222790" lon="-2.8797880">
        <ele>702.6</ele>
        <time>2022-08-29T07:16:01Z</time>
      </trkpt>
      <trkpt lat="42.4222600" lon="-2.8798220">
        <ele>702.6</ele>
        <time>2022-08-29T07:16:02Z</time>
      </trkpt>
      <trkpt lat="42.4222410" lon="-2.8798550">
        <ele>702.8</ele>
        <time>2022-08-29T07:16:03Z</time>
      </trkpt>
      <trkpt lat="42.4222210" lon="-2.8798880">
        <ele>702.8</ele>
        <time>2022-08-29T07:16:04Z</time>
      </trkpt>
      <trkpt lat="42.4222020" lon="-2.8799210">
        <ele>703.0</ele>
        <time>2022-08-29T07:16:05Z</time>
      </trkpt>
      <trkpt lat="42.4221830" lon="-2.8799540">
        <ele>703.2</ele>
        <time>2022-08-29T07:16:06Z</time>
      </trkpt>
      <trkpt lat="42.4221630" lon="-2.8799880">
        <ele>703.4</ele>
        <time>2022-08-29T07:16:07Z</time>
      </trkpt>
      <trkpt lat="42.4221420" lon="-2.8800210">
        <ele>703.4</ele>
        <time>2022-08-29T07:16:08Z</time>
      </trkpt>
      <trkpt lat="42.4221220" lon="-2.8800540">
        <ele>703.6</ele>
        <time>2022-08-29T07:16:09Z</time>
      </trkpt>
      <trkpt lat="42.4221020" lon="-2.8800870">
        <ele>703.8</ele>
        <time>2022-08-29T07:16:10Z</time>
      </trkpt>
      <trkpt lat="42.4220810" lon="-2.8801200">
        <ele>704.0</ele>
        <time>2022-08-29T07:16:11Z</time>
      </trkpt>
      <trkpt lat="42.4220620" lon="-2.8801530">
        <ele>704.2</ele>
        <time>2022-08-29T07:16:12Z</time>
      </trkpt>
      <trkpt lat="42.4220410" lon="-2.8801860">
        <ele>704.2</ele>
        <time>2022-08-29T07:16:13Z</time>
      </trkpt>
      <trkpt lat="42.4220210" lon="-2.8802200">
        <ele>704.4</ele>
        <time>2022-08-29T07:16:14Z</time>
      </trkpt>
      <trkpt lat="42.4220000" lon="-2.8802540">
        <ele>704.6</ele>
        <time>2022-08-29T07:16:15Z</time>
      </trkpt>
      <trkpt lat="42.4219790" lon="-2.8802890">
        <ele>704.6</ele>
        <time>2022-08-29T07:16:16Z</time>
      </trkpt>
      <trkpt lat="42.4219580" lon="-2.8803260">
        <ele>704.6</ele>
        <time>2022-08-29T07:16:17Z</time>
      </trkpt>
      <trkpt lat="42.4219370" lon="-2.8803610">
        <ele>704.8</ele>
        <time>2022-08-29T07:16:18Z</time>
      </trkpt>
      <trkpt lat="42.4219170" lon="-2.8803970">
        <ele>705.0</ele>
        <time>2022-08-29T07:16:19Z</time>
      </trkpt>
      <trkpt lat="42.4218970" lon="-2.8804320">
        <ele>705.0</ele>
        <time>2022-08-29T07:16:20Z</time>
      </trkpt>
      <trkpt lat="42.4218770" lon="-2.8804680">
        <ele>705.0</ele>
        <time>2022-08-29T07:16:21Z</time>
      </trkpt>
      <trkpt lat="42.4218570" lon="-2.8805040">
        <ele>705.2</ele>
        <time>2022-08-29T07:16:22Z</time>
      </trkpt>
      <trkpt lat="42.4218370" lon="-2.8805410">
        <ele>705.2</ele>
        <time>2022-08-29T07:16:23Z</time>
      </trkpt>
      <trkpt lat="42.4218170" lon="-2.8805780">
        <ele>705.4</ele>
        <time>2022-08-29T07:16:24Z</time>
      </trkpt>
      <trkpt lat="42.4217950" lon="-2.8806130">
        <ele>705.4</ele>
        <time>2022-08-29T07:16:25Z</time>
      </trkpt>
      <trkpt lat="42.4217730" lon="-2.8806460">
        <ele>705.4</ele>
        <time>2022-08-29T07:16:26Z</time>
      </trkpt>
      <trkpt lat="42.4217510" lon="-2.8806800">
        <ele>705.6</ele>
        <time>2022-08-29T07:16:27Z</time>
      </trkpt>
      <trkpt lat="42.4217290" lon="-2.8807150">
        <ele>705.8</ele>
        <time>2022-08-29T07:16:28Z</time>
      </trkpt>
      <trkpt lat="42.4217060" lon="-2.8807500">
        <ele>706.0</ele>
        <time>2022-08-29T07:16:29Z</time>
      </trkpt>
      <trkpt lat="42.4216830" lon="-2.8807860">
        <ele>706.0</ele>
        <time>2022-08-29T07:16:30Z</time>
      </trkpt>
      <trkpt lat="42.4216610" lon="-2.8808230">
        <ele>706.2</ele>
        <time>2022-08-29T07:16:31Z</time>
      </trkpt>
      <trkpt lat="42.4216390" lon="-2.8808610">
        <ele>706.2</ele>
        <time>2022-08-29T07:16:32Z</time>
      </trkpt>
      <trkpt lat="42.4216160" lon="-2.8808980">
        <ele>706.4</ele>
        <time>2022-08-29T07:16:33Z</time>
      </trkpt>
      <trkpt lat="42.4215930" lon="-2.8809360">
        <ele>706.4</ele>
        <time>2022-08-29T07:16:34Z</time>
      </trkpt>
      <trkpt lat="42.4215700" lon="-2.8809750">
        <ele>706.4</ele>
        <time>2022-08-29T07:16:35Z</time>
      </trkpt>
      <trkpt lat="42.4215470" lon="-2.8810140">
        <ele>706.6</ele>
        <time>2022-08-29T07:16:36Z</time>
      </trkpt>
      <trkpt lat="42.4215240" lon="-2.8810520">
        <ele>706.6</ele>
        <time>2022-08-29T07:16:37Z</time>
      </trkpt>
      <trkpt lat="42.4215010" lon="-2.8810910">
        <ele>706.8</ele>
        <time>2022-08-29T07:16:38Z</time>
      </trkpt>
      <trkpt lat="42.4214790" lon="-2.8811300">
        <ele>706.6</ele>
        <time>2022-08-29T07:16:39Z</time>
      </trkpt>
      <trkpt lat="42.4214550" lon="-2.8811680">
        <ele>706.8</ele>
        <time>2022-08-29T07:16:40Z</time>
      </trkpt>
      <trkpt lat="42.4214310" lon="-2.8812070">
        <ele>707.0</ele>
        <time>2022-08-29T07:16:41Z</time>
      </trkpt>
      <trkpt lat="42.4214080" lon="-2.8812470">
        <ele>707.0</ele>
        <time>2022-08-29T07:16:42Z</time>
      </trkpt>
      <trkpt lat="42.4213840" lon="-2.8812870">
        <ele>707.2</ele>
        <time>2022-08-29T07:16:43Z</time>
      </trkpt>
      <trkpt lat="42.4213590" lon="-2.8813280">
        <ele>707.4</ele>
        <time>2022-08-29T07:16:44Z</time>
      </trkpt>
      <trkpt lat="42.4213340" lon="-2.8813690">
        <ele>707.6</ele>
        <time>2022-08-29T07:16:45Z</time>
      </trkpt>
      <trkpt lat="42.4213080" lon="-2.8814100">
        <ele>707.6</ele>
        <time>2022-08-29T07:16:46Z</time>
      </trkpt>
      <trkpt lat="42.4212850" lon="-2.8814520">
        <ele>707.6</ele>
        <time>2022-08-29T07:16:47Z</time>
      </trkpt>
      <trkpt lat="42.4212610" lon="-2.8814940">
        <ele>707.6</ele>
        <time>2022-08-29T07:16:48Z</time>
      </trkpt>
      <trkpt lat="42.4212380" lon="-2.8815350">
        <ele>707.8</ele>
        <time>2022-08-29T07:16:49Z</time>
      </trkpt>
      <trkpt lat="42.4212130" lon="-2.8815760">
        <ele>708.0</ele>
        <time>2022-08-29T07:16:50Z</time>
      </trkpt>
      <trkpt lat="42.4211880" lon="-2.8816180">
        <ele>708.0</ele>
        <time>2022-08-29T07:16:51Z</time>
      </trkpt>
      <trkpt lat="42.4211630" lon="-2.8816600">
        <ele>708.4</ele>
        <time>2022-08-29T07:16:52Z</time>
      </trkpt>
      <trkpt lat="42.4211390" lon="-2.8817020">
        <ele>708.4</ele>
        <time>2022-08-29T07:16:53Z</time>
      </trkpt>
      <trkpt lat="42.4211150" lon="-2.8817430">
        <ele>708.6</ele>
        <time>2022-08-29T07:16:54Z</time>
      </trkpt>
      <trkpt lat="42.4210890" lon="-2.8817850">
        <ele>708.8</ele>
        <time>2022-08-29T07:16:55Z</time>
      </trkpt>
      <trkpt lat="42.4210640" lon="-2.8818260">
        <ele>709.0</ele>
        <time>2022-08-29T07:16:56Z</time>
      </trkpt>
      <trkpt lat="42.4210400" lon="-2.8818680">
        <ele>708.8</ele>
        <time>2022-08-29T07:16:57Z</time>
      </trkpt>
      <trkpt lat="42.4210180" lon="-2.8819090">
        <ele>709.0</ele>
        <time>2022-08-29T07:16:58Z</time>
      </trkpt>
      <trkpt lat="42.4209940" lon="-2.8819490">
        <ele>709.0</ele>
        <time>2022-08-29T07:16:59Z</time>
      </trkpt>
      <trkpt lat="42.4209710" lon="-2.8819880">
        <ele>709.2</ele>
        <time>2022-08-29T07:17:00Z</time>
      </trkpt>
      <trkpt lat="42.4209480" lon="-2.8820280">
        <ele>709.2</ele>
        <time>2022-08-29T07:17:01Z</time>
      </trkpt>
      <trkpt lat="42.4209250" lon="-2.8820690">
        <ele>709.6</ele>
        <time>2022-08-29T07:17:02Z</time>
      </trkpt>
      <trkpt lat="42.4209020" lon="-2.8821100">
        <ele>709.6</ele>
        <time>2022-08-29T07:17:03Z</time>
      </trkpt>
      <trkpt lat="42.4208790" lon="-2.8821490">
        <ele>709.6</ele>
        <time>2022-08-29T07:17:04Z</time>
      </trkpt>
      <trkpt lat="42.4208550" lon="-2.8821880">
        <ele>709.8</ele>
        <time>2022-08-29T07:17:05Z</time>
      </trkpt>
      <trkpt lat="42.4208330" lon="-2.8822280">
        <ele>710.2</ele>
        <time>2022-08-29T07:17:06Z</time>
      </trkpt>
      <trkpt lat="42.4208090" lon="-2.8822680">
        <ele>710.2</ele>
        <time>2022-08-29T07:17:07Z</time>
      </trkpt>
      <trkpt lat="42.4207850" lon="-2.8823070">
        <ele>710.4</ele>
        <time>2022-08-29T07:17:08Z</time>
      </trkpt>
      <trkpt lat="42.4207620" lon="-2.8823470">
        <ele>710.4</ele>
        <time>2022-08-29T07:17:09Z</time>
      </trkpt>
      <trkpt lat="42.4207400" lon="-2.8823860">
        <ele>710.4</ele>
        <time>2022-08-29T07:17:10Z</time>
      </trkpt>
      <trkpt lat="42.4207170" lon="-2.8824240">
        <ele>710.4</ele>
        <time>2022-08-29T07:17:11Z</time>
      </trkpt>
      <trkpt lat="42.4206940" lon="-2.8824630">
        <ele>710.4</ele>
        <time>2022-08-29T07:17:12Z</time>
      </trkpt>
      <trkpt lat="42.4206710" lon="-2.8825020">
        <ele>710.4</ele>
        <time>2022-08-29T07:17:13Z</time>
      </trkpt>
      <trkpt lat="42.4206480" lon="-2.8825400">
        <ele>710.4</ele>
        <time>2022-08-29T07:17:14Z</time>
      </trkpt>
      <trkpt lat="42.4206250" lon="-2.8825770">
        <ele>710.6</ele>
        <time>2022-08-29T07:17:15Z</time>
      </trkpt>
      <trkpt lat="42.4206020" lon="-2.8826150">
        <ele>711.0</ele>
        <time>2022-08-29T07:17:16Z</time>
      </trkpt>
      <trkpt lat="42.4205790" lon="-2.8826510">
        <ele>711.0</ele>
        <time>2022-08-29T07:17:17Z</time>
      </trkpt>
      <trkpt lat="42.4205560" lon="-2.8826860">
        <ele>711.2</ele>
        <time>2022-08-29T07:17:18Z</time>
      </trkpt>
      <trkpt lat="42.4205330" lon="-2.8827200">
        <ele>711.0</ele>
        <time>2022-08-29T07:17:19Z</time>
      </trkpt>
      <trkpt lat="42.4205110" lon="-2.8827520">
        <ele>711.2</ele>
        <time>2022-08-29T07:17:20Z</time>
      </trkpt>
      <trkpt lat="42.4204920" lon="-2.8827840">
        <ele>711.2</ele>
        <time>2022-08-29T07:17:21Z</time>
      </trkpt>
      <trkpt lat="42.4204730" lon="-2.8828140">
        <ele>711.4</ele>
        <time>2022-08-29T07:17:22Z</time>
      </trkpt>
      <trkpt lat="42.4204530" lon="-2.8828370">
        <ele>711.6</ele>
        <time>2022-08-29T07:17:23Z</time>
      </trkpt>
      <trkpt lat="42.4204350" lon="-2.8828560">
        <ele>711.8</ele>
        <time>2022-08-29T07:17:24Z</time>
      </trkpt>
      <trkpt lat="42.4204230" lon="-2.8828720">
        <ele>711.8</ele>
        <time>2022-08-29T07:17:25Z</time>
      </trkpt>
      <trkpt lat="42.4204180" lon="-2.8828790">
        <ele>712.0</ele>
        <time>2022-08-29T07:17:26Z</time>
      </trkpt>
      <trkpt lat="42.4204150" lon="-2.8828790">
        <ele>712.2</ele>
        <time>2022-08-29T07:17:27Z</time>
      </trkpt>
      <trkpt lat="42.4204140" lon="-2.8828780">
        <ele>712.2</ele>
        <time>2022-08-29T07:17:28Z</time>
      </trkpt>
      <trkpt lat="42.4204130" lon="-2.8828770">
        <ele>712.4</ele>
        <time>2022-08-29T07:17:29Z</time>
      </trkpt>
      <trkpt lat="42.4204130" lon="-2.8828760">
        <ele>712.4</ele>
        <time>2022-08-29T07:17:30Z</time>
      </trkpt>
      <trkpt lat="42.4204120" lon="-2.8828750">
        <ele>712.4</ele>
        <time>2022-08-29T07:17:31Z</time>
      </trkpt>
      <trkpt lat="42.4204120" lon="-2.8828750">
        <ele>712.4</ele>
        <time>2022-08-29T07:17:32Z</time>
      </trkpt>
      <trkpt lat="42.4204120" lon="-2.8828750">
        <ele>712.4</ele>
        <time>2022-08-29T07:17:33Z</time>
      </trkpt>
      <trkpt lat="42.4204120" lon="-2.8828750">
        <ele>712.4</ele>
        <time>2022-08-29T07:17:34Z</time>
      </trkpt>
      <trkpt lat="42.4204120" lon="-2.8828750">
        <ele>712.4</ele>
        <time>2022-08-29T07:17:35Z</time>
      </trkpt>
      <trkpt lat="42.4204120" lon="-2.8828750">
        <ele>712.4</ele>
        <time>2022-08-29T07:17:36Z</time>
      </trkpt>
      <trkpt lat="42.4204120" lon="-2.8828750">
        <ele>712.4</ele>
        <time>2022-08-29T07:17:37Z</time>
      </trkpt>
      <trkpt lat="42.4204120" lon="-2.8828750">
        <ele>712.4</ele>
        <time>2022-08-29T07:17:38Z</time>
      </trkpt>
      <trkpt lat="42.4204120" lon="-2.8828750">
        <ele>712.4</ele>
        <time>2022-08-29T07:17:39Z</time>
      </trkpt>
      <trkpt lat="42.4204120" lon="-2.8828750">
        <ele>712.4</ele>
        <time>2022-08-29T07:17:40Z</time>
      </trkpt>
      <trkpt lat="42.4204120" lon="-2.8828750">
        <ele>712.2</ele>
        <time>2022-08-29T07:17:41Z</time>
      </trkpt>
      <trkpt lat="42.4204120" lon="-2.8828750">
        <ele>712.2</ele>
        <time>2022-08-29T07:17:42Z</time>
      </trkpt>
      <trkpt lat="42.4204120" lon="-2.8828750">
        <ele>712.2</ele>
        <time>2022-08-29T07:17:43Z</time>
      </trkpt>
      <trkpt lat="42.4204120" lon="-2.8828750">
        <ele>712.2</ele>
        <time>2022-08-29T07:17:44Z</time>
      </trkpt>
      <trkpt lat="42.4204120" lon="-2.8828740">
        <ele>712.2</ele>
        <time>2022-08-29T07:17:45Z</time>
      </trkpt>
      <trkpt lat="42.4204120" lon="-2.8828740">
        <ele>712.2</ele>
        <time>2022-08-29T07:17:46Z</time>
      </trkpt>
      <trkpt lat="42.4204120" lon="-2.8828740">
        <ele>712.2</ele>
        <time>2022-08-29T07:17:47Z</time>
      </trkpt>
      <trkpt lat="42.4204120" lon="-2.8828740">
        <ele>712.2</ele>
        <time>2022-08-29T07:17:48Z</time>
      </trkpt>
      <trkpt lat="42.4204120" lon="-2.8828740">
        <ele>712.2</ele>
        <time>2022-08-29T07:17:49Z</time>
      </trkpt>
      <trkpt lat="42.4204120" lon="-2.8828740">
        <ele>712.0</ele>
        <time>2022-08-29T07:17:50Z</time>
      </trkpt>
      <trkpt lat="42.4204120" lon="-2.8828740">
        <ele>712.2</ele>
        <time>2022-08-29T07:17:51Z</time>
      </trkpt>
      <trkpt lat="42.4204120" lon="-2.8828740">
        <ele>712.0</ele>
        <time>2022-08-29T07:17:52Z</time>
      </trkpt>
      <trkpt lat="42.4204120" lon="-2.8828740">
        <ele>712.0</ele>
        <time>2022-08-29T07:17:53Z</time>
      </trkpt>
      <trkpt lat="42.4204120" lon="-2.8828740">
        <ele>712.2</ele>
        <time>2022-08-29T07:17:54Z</time>
      </trkpt>
      <trkpt lat="42.4204120" lon="-2.8828740">
        <ele>712.2</ele>
        <time>2022-08-29T07:17:55Z</time>
      </trkpt>
      <trkpt lat="42.4204120" lon="-2.8828740">
        <ele>712.0</ele>
        <time>2022-08-29T07:17:56Z</time>
      </trkpt>
      <trkpt lat="42.4204120" lon="-2.8828730">
        <ele>712.0</ele>
        <time>2022-08-29T07:17:57Z</time>
      </trkpt>
      <trkpt lat="42.4204120" lon="-2.8828730">
        <ele>712.2</ele>
        <time>2022-08-29T07:17:58Z</time>
      </trkpt>
      <trkpt lat="42.4204120" lon="-2.8828730">
        <ele>712.2</ele>
        <time>2022-08-29T07:17:59Z</time>
      </trkpt>
      <trkpt lat="42.4204120" lon="-2.8828730">
        <ele>712.2</ele>
        <time>2022-08-29T07:18:00Z</time>
      </trkpt>
      <trkpt lat="42.4204120" lon="-2.8828730">
        <ele>712.0</ele>
        <time>2022-08-29T07:18:01Z</time>
      </trkpt>
      <trkpt lat="42.4204120" lon="-2.8828730">
        <ele>712.2</ele>
        <time>2022-08-29T07:18:02Z</time>
      </trkpt>
      <trkpt lat="42.4204120" lon="-2.8828730">
        <ele>712.2</ele>
        <time>2022-08-29T07:18:03Z</time>
      </trkpt>
      <trkpt lat="42.4204120" lon="-2.8828730">
        <ele>712.2</ele>
        <time>2022-08-29T07:18:04Z</time>
      </trkpt>
      <trkpt lat="42.4204120" lon="-2.8828730">
        <ele>712.2</ele>
        <time>2022-08-29T07:18:05Z</time>
      </trkpt>
      <trkpt lat="42.4204120" lon="-2.8828730">
        <ele>712.2</ele>
        <time>2022-08-29T07:18:06Z</time>
      </trkpt>
      <trkpt lat="42.4204120" lon="-2.8828720">
        <ele>712.0</ele>
        <time>2022-08-29T07:18:07Z</time>
      </trkpt>
      <trkpt lat="42.4204120" lon="-2.8828720">
        <ele>712.2</ele>
        <time>2022-08-29T07:18:08Z</time>
      </trkpt>
      <trkpt lat="42.4204120" lon="-2.8828720">
        <ele>712.0</ele>
        <time>2022-08-29T07:18:09Z</time>
      </trkpt>
      <trkpt lat="42.4204110" lon="-2.8828720">
        <ele>712.0</ele>
        <time>2022-08-29T07:18:10Z</time>
      </trkpt>
      <trkpt lat="42.4204110" lon="-2.8828720">
        <ele>712.0</ele>
        <time>2022-08-29T07:18:11Z</time>
      </trkpt>
      <trkpt lat="42.4204110" lon="-2.8828720">
        <ele>712.0</ele>
        <time>2022-08-29T07:18:12Z</time>
      </trkpt>
      <trkpt lat="42.4204110" lon="-2.8828720">
        <ele>711.8</ele>
        <time>2022-08-29T07:18:13Z</time>
      </trkpt>
      <trkpt lat="42.4204110" lon="-2.8828720">
        <ele>712.0</ele>
        <time>2022-08-29T07:18:14Z</time>
      </trkpt>
      <trkpt lat="42.4204110" lon="-2.8828720">
        <ele>712.0</ele>
        <time>2022-08-29T07:18:15Z</time>
      </trkpt>
      <trkpt lat="42.4204110" lon="-2.8828720">
        <ele>712.0</ele>
        <time>2022-08-29T07:18:16Z</time>
      </trkpt>
      <trkpt lat="42.4204110" lon="-2.8828720">
        <ele>712.0</ele>
        <time>2022-08-29T07:18:17Z</time>
      </trkpt>
      <trkpt lat="42.4204110" lon="-2.8828720">
        <ele>712.0</ele>
        <time>2022-08-29T07:18:18Z</time>
      </trkpt>
      <trkpt lat="42.4204110" lon="-2.8828720">
        <ele>712.0</ele>
        <time>2022-08-29T07:18:19Z</time>
      </trkpt>
      <trkpt lat="42.4204110" lon="-2.8828720">
        <ele>711.8</ele>
        <time>2022-08-29T07:18:20Z</time>
      </trkpt>
      <trkpt lat="42.4204110" lon="-2.8828720">
        <ele>712.0</ele>
        <time>2022-08-29T07:18:21Z</time>
      </trkpt>
      <trkpt lat="42.4204110" lon="-2.8828720">
        <ele>712.0</ele>
        <time>2022-08-29T07:18:22Z</time>
      </trkpt>
      <trkpt lat="42.4204110" lon="-2.8828710">
        <ele>712.0</ele>
        <time>2022-08-29T07:18:23Z</time>
      </trkpt>
      <trkpt lat="42.4204110" lon="-2.8828710">
        <ele>712.0</ele>
        <time>2022-08-29T07:18:24Z</time>
      </trkpt>
      <trkpt lat="42.4204140" lon="-2.8828730">
        <ele>712.0</ele>
        <time>2022-08-29T07:18:25Z</time>
      </trkpt>
      <trkpt lat="42.4204120" lon="-2.8828820">
        <ele>711.8</ele>
        <time>2022-08-29T07:18:26Z</time>
      </trkpt>
      <trkpt lat="42.4204000" lon="-2.8829080">
        <ele>711.8</ele>
        <time>2022-08-29T07:18:27Z</time>
      </trkpt>
      <trkpt lat="42.4203970" lon="-2.8829230">
        <ele>712.0</ele>
        <time>2022-08-29T07:18:28Z</time>
      </trkpt>
      <trkpt lat="42.4203910" lon="-2.8829380">
        <ele>712.0</ele>
        <time>2022-08-29T07:18:29Z</time>
      </trkpt>
      <trkpt lat="42.4203800" lon="-2.8829560">
        <ele>712.0</ele>
        <time>2022-08-29T07:18:30Z</time>
      </trkpt>
      <trkpt lat="42.4203670" lon="-2.8829750">
        <ele>712.0</ele>
        <time>2022-08-29T07:18:31Z</time>
      </trkpt>
      <trkpt lat="42.4203520" lon="-2.8829960">
        <ele>712.0</ele>
        <time>2022-08-29T07:18:32Z</time>
      </trkpt>
      <trkpt lat="42.4203360" lon="-2.8830210">
        <ele>712.0</ele>
        <time>2022-08-29T07:18:33Z</time>
      </trkpt>
      <trkpt lat="42.4203200" lon="-2.8830500">
        <ele>712.0</ele>
        <time>2022-08-29T07:18:34Z</time>
      </trkpt>
      <trkpt lat="42.4203030" lon="-2.8830810">
        <ele>712.2</ele>
        <time>2022-08-29T07:18:35Z</time>
      </trkpt>
      <trkpt lat="42.4202860" lon="-2.8831120">
        <ele>712.2</ele>
        <time>2022-08-29T07:18:36Z</time>
      </trkpt>
      <trkpt lat="42.4202680" lon="-2.8831450">
        <ele>712.2</ele>
        <time>2022-08-29T07:18:37Z</time>
      </trkpt>
      <trkpt lat="42.4202500" lon="-2.8831780">
        <ele>712.2</ele>
        <time>2022-08-29T07:18:38Z</time>
      </trkpt>
      <trkpt lat="42.4202290" lon="-2.8832110">
        <ele>712.2</ele>
        <time>2022-08-29T07:18:39Z</time>
      </trkpt>
      <trkpt lat="42.4202080" lon="-2.8832470">
        <ele>712.2</ele>
        <time>2022-08-29T07:18:40Z</time>
      </trkpt>
      <trkpt lat="42.4201880" lon="-2.8832830">
        <ele>712.2</ele>
        <time>2022-08-29T07:18:41Z</time>
      </trkpt>
      <trkpt lat="42.4201670" lon="-2.8833210">
        <ele>712.2</ele>
        <time>2022-08-29T07:18:42Z</time>
      </trkpt>
      <trkpt lat="42.4201470" lon="-2.8833580">
        <ele>712.4</ele>
        <time>2022-08-29T07:18:43Z</time>
      </trkpt>
      <trkpt lat="42.4201260" lon="-2.8833960">
        <ele>712.4</ele>
        <time>2022-08-29T07:18:44Z</time>
      </trkpt>
      <trkpt lat="42.4201050" lon="-2.8834350">
        <ele>712.6</ele>
        <time>2022-08-29T07:18:45Z</time>
      </trkpt>
      <trkpt lat="42.4200810" lon="-2.8834740">
        <ele>712.4</ele>
        <time>2022-08-29T07:18:46Z</time>
      </trkpt>
      <trkpt lat="42.4200570" lon="-2.8835140">
        <ele>712.6</ele>
        <time>2022-08-29T07:18:47Z</time>
      </trkpt>
      <trkpt lat="42.4200320" lon="-2.8835530">
        <ele>712.6</ele>
        <time>2022-08-29T07:18:48Z</time>
      </trkpt>
      <trkpt lat="42.4200070" lon="-2.8835900">
        <ele>712.6</ele>
        <time>2022-08-29T07:18:49Z</time>
      </trkpt>
      <trkpt lat="42.4199820" lon="-2.8836270">
        <ele>712.6</ele>
        <time>2022-08-29T07:18:50Z</time>
      </trkpt>
      <trkpt lat="42.4199590" lon="-2.8836650">
        <ele>712.8</ele>
        <time>2022-08-29T07:18:51Z</time>
      </trkpt>
      <trkpt lat="42.4199350" lon="-2.8837020">
        <ele>712.8</ele>
        <time>2022-08-29T07:18:52Z</time>
      </trkpt>
      <trkpt lat="42.4199130" lon="-2.8837380">
        <ele>712.6</ele>
        <time>2022-08-29T07:18:53Z</time>
      </trkpt>
      <trkpt lat="42.4198900" lon="-2.8837750">
        <ele>712.6</ele>
        <time>2022-08-29T07:18:54Z</time>
      </trkpt>
      <trkpt lat="42.4198680" lon="-2.8838120">
        <ele>712.8</ele>
        <time>2022-08-29T07:18:55Z</time>
      </trkpt>
      <trkpt lat="42.4198470" lon="-2.8838480">
        <ele>712.8</ele>
        <time>2022-08-29T07:18:56Z</time>
      </trkpt>
      <trkpt lat="42.4198260" lon="-2.8838820">
        <ele>712.8</ele>
        <time>2022-08-29T07:18:57Z</time>
      </trkpt>
      <trkpt lat="42.4198040" lon="-2.8839160">
        <ele>713.0</ele>
        <time>2022-08-29T07:18:58Z</time>
      </trkpt>
      <trkpt lat="42.4197830" lon="-2.8839510">
        <ele>713.0</ele>
        <time>2022-08-29T07:18:59Z</time>
      </trkpt>
      <trkpt lat="42.4197630" lon="-2.8839870">
        <ele>713.0</ele>
        <time>2022-08-29T07:19:00Z</time>
      </trkpt>
      <trkpt lat="42.4197450" lon="-2.8840220">
        <ele>713.2</ele>
        <time>2022-08-29T07:19:01Z</time>
      </trkpt>
      <trkpt lat="42.4197260" lon="-2.8840570">
        <ele>713.4</ele>
        <time>2022-08-29T07:19:02Z</time>
      </trkpt>
      <trkpt lat="42.4197060" lon="-2.8840920">
        <ele>713.4</ele>
        <time>2022-08-29T07:19:03Z</time>
      </trkpt>
      <trkpt lat="42.4196850" lon="-2.8841270">
        <ele>713.4</ele>
        <time>2022-08-29T07:19:04Z</time>
      </trkpt>
      <trkpt lat="42.4196650" lon="-2.8841620">
        <ele>713.4</ele>
        <time>2022-08-29T07:19:05Z</time>
      </trkpt>
      <trkpt lat="42.4196440" lon="-2.8841960">
        <ele>713.4</ele>
        <time>2022-08-29T07:19:06Z</time>
      </trkpt>
      <trkpt lat="42.4196250" lon="-2.8842290">
        <ele>713.4</ele>
        <time>2022-08-29T07:19:07Z</time>
      </trkpt>
      <trkpt lat="42.4196060" lon="-2.8842630">
        <ele>713.6</ele>
        <time>2022-08-29T07:19:08Z</time>
      </trkpt>
      <trkpt lat="42.4195840" lon="-2.8842960">
        <ele>713.8</ele>
        <time>2022-08-29T07:19:09Z</time>
      </trkpt>
      <trkpt lat="42.4195640" lon="-2.8843290">
        <ele>714.0</ele>
        <time>2022-08-29T07:19:10Z</time>
      </trkpt>
      <trkpt lat="42.4195430" lon="-2.8843630">
        <ele>714.2</ele>
        <time>2022-08-29T07:19:11Z</time>
      </trkpt>
      <trkpt lat="42.4195230" lon="-2.8843960">
        <ele>714.4</ele>
        <time>2022-08-29T07:19:12Z</time>
      </trkpt>
      <trkpt lat="42.4195020" lon="-2.8844280">
        <ele>714.4</ele>
        <time>2022-08-29T07:19:13Z</time>
      </trkpt>
      <trkpt lat="42.4194820" lon="-2.8844600">
        <ele>714.4</ele>
        <time>2022-08-29T07:19:14Z</time>
      </trkpt>
      <trkpt lat="42.4194630" lon="-2.8844930">
        <ele>714.6</ele>
        <time>2022-08-29T07:19:15Z</time>
      </trkpt>
      <trkpt lat="42.4194450" lon="-2.8845260">
        <ele>714.6</ele>
        <time>2022-08-29T07:19:16Z</time>
      </trkpt>
      <trkpt lat="42.4194260" lon="-2.8845600">
        <ele>714.6</ele>
        <time>2022-08-29T07:19:17Z</time>
      </trkpt>
      <trkpt lat="42.4194090" lon="-2.8845960">
        <ele>714.6</ele>
        <time>2022-08-29T07:19:18Z</time>
      </trkpt>
      <trkpt lat="42.4193920" lon="-2.8846320">
        <ele>714.8</ele>
        <time>2022-08-29T07:19:19Z</time>
      </trkpt>
      <trkpt lat="42.4193720" lon="-2.8846660">
        <ele>715.0</ele>
        <time>2022-08-29T07:19:20Z</time>
      </trkpt>
      <trkpt lat="42.4193520" lon="-2.8847000">
        <ele>715.0</ele>
        <time>2022-08-29T07:19:21Z</time>
      </trkpt>
      <trkpt lat="42.4193300" lon="-2.8847320">
        <ele>715.2</ele>
        <time>2022-08-29T07:19:22Z</time>
      </trkpt>
      <trkpt lat="42.4193120" lon="-2.8847660">
        <ele>715.4</ele>
        <time>2022-08-29T07:19:23Z</time>
      </trkpt>
      <trkpt lat="42.4192930" lon="-2.8847980">
        <ele>715.4</ele>
        <time>2022-08-29T07:19:24Z</time>
      </trkpt>
      <trkpt lat="42.4192740" lon="-2.8848320">
        <ele>715.6</ele>
        <time>2022-08-29T07:19:25Z</time>
      </trkpt>
      <trkpt lat="42.4192560" lon="-2.8848660">
        <ele>715.6</ele>
        <time>2022-08-29T07:19:26Z</time>
      </trkpt>
      <trkpt lat="42.4192380" lon="-2.8848990">
        <ele>715.6</ele>
        <time>2022-08-29T07:19:27Z</time>
      </trkpt>
      <trkpt lat="42.4192180" lon="-2.8849310">
        <ele>715.8</ele>
        <time>2022-08-29T07:19:28Z</time>
      </trkpt>
      <trkpt lat="42.4192010" lon="-2.8849640">
        <ele>716.0</ele>
        <time>2022-08-29T07:19:29Z</time>
      </trkpt>
      <trkpt lat="42.4191820" lon="-2.8849980">
        <ele>716.2</ele>
        <time>2022-08-29T07:19:30Z</time>
      </trkpt>
      <trkpt lat="42.4191630" lon="-2.8850320">
        <ele>716.0</ele>
        <time>2022-08-29T07:19:31Z</time>
      </trkpt>
      <trkpt lat="42.4191440" lon="-2.8850650">
        <ele>716.2</ele>
        <time>2022-08-29T07:19:32Z</time>
      </trkpt>
      <trkpt lat="42.4191250" lon="-2.8850990">
        <ele>716.6</ele>
        <time>2022-08-29T07:19:33Z</time>
      </trkpt>
      <trkpt lat="42.4191050" lon="-2.8851310">
        <ele>716.6</ele>
        <time>2022-08-29T07:19:34Z</time>
      </trkpt>
      <trkpt lat="42.4190840" lon="-2.8851630">
        <ele>716.8</ele>
        <time>2022-08-29T07:19:35Z</time>
      </trkpt>
      <trkpt lat="42.4190640" lon="-2.8851950">
        <ele>717.0</ele>
        <time>2022-08-29T07:19:36Z</time>
      </trkpt>
      <trkpt lat="42.4190450" lon="-2.8852290">
        <ele>717.0</ele>
        <time>2022-08-29T07:19:37Z</time>
      </trkpt>
      <trkpt lat="42.4190260" lon="-2.8852640">
        <ele>717.0</ele>
        <time>2022-08-29T07:19:38Z</time>
      </trkpt>
      <trkpt lat="42.4190070" lon="-2.8852970">
        <ele>717.0</ele>
        <time>2022-08-29T07:19:39Z</time>
      </trkpt>
      <trkpt lat="42.4189880" lon="-2.8853310">
        <ele>717.0</ele>
        <time>2022-08-29T07:19:40Z</time>
      </trkpt>
      <trkpt lat="42.4189700" lon="-2.8853630">
        <ele>717.2</ele>
        <time>2022-08-29T07:19:41Z</time>
      </trkpt>
      <trkpt lat="42.4189530" lon="-2.8853940">
        <ele>717.2</ele>
        <time>2022-08-29T07:19:42Z</time>
      </trkpt>
      <trkpt lat="42.4189350" lon="-2.8854240">
        <ele>717.6</ele>
        <time>2022-08-29T07:19:43Z</time>
      </trkpt>
      <trkpt lat="42.4189140" lon="-2.8854530">
        <ele>717.6</ele>
        <time>2022-08-29T07:19:44Z</time>
      </trkpt>
      <trkpt lat="42.4188960" lon="-2.8854830">
        <ele>717.8</ele>
        <time>2022-08-29T07:19:45Z</time>
      </trkpt>
      <trkpt lat="42.4188780" lon="-2.8855120">
        <ele>717.6</ele>
        <time>2022-08-29T07:19:46Z</time>
      </trkpt>
      <trkpt lat="42.4188620" lon="-2.8855410">
        <ele>717.8</ele>
        <time>2022-08-29T07:19:47Z</time>
      </trkpt>
      <trkpt lat="42.4188470" lon="-2.8855720">
        <ele>717.8</ele>
        <time>2022-08-29T07:19:48Z</time>
      </trkpt>
      <trkpt lat="42.4188280" lon="-2.8855990">
        <ele>718.0</ele>
        <time>2022-08-29T07:19:49Z</time>
      </trkpt>
      <trkpt lat="42.4188100" lon="-2.8856250">
        <ele>718.0</ele>
        <time>2022-08-29T07:19:50Z</time>
      </trkpt>
      <trkpt lat="42.4187910" lon="-2.8856500">
        <ele>718.0</ele>
        <time>2022-08-29T07:19:51Z</time>
      </trkpt>
      <trkpt lat="42.4187730" lon="-2.8856750">
        <ele>718.2</ele>
        <time>2022-08-29T07:19:52Z</time>
      </trkpt>
      <trkpt lat="42.4187570" lon="-2.8857000">
        <ele>718.2</ele>
        <time>2022-08-29T07:19:53Z</time>
      </trkpt>
      <trkpt lat="42.4187400" lon="-2.8857220">
        <ele>718.6</ele>
        <time>2022-08-29T07:19:54Z</time>
      </trkpt>
      <trkpt lat="42.4187250" lon="-2.8857450">
        <ele>718.8</ele>
        <time>2022-08-29T07:19:55Z</time>
      </trkpt>
      <trkpt lat="42.4187100" lon="-2.8857690">
        <ele>718.8</ele>
        <time>2022-08-29T07:19:56Z</time>
      </trkpt>
      <trkpt lat="42.4186960" lon="-2.8857910">
        <ele>719.0</ele>
        <time>2022-08-29T07:19:57Z</time>
      </trkpt>
      <trkpt lat="42.4186800" lon="-2.8858130">
        <ele>719.2</ele>
        <time>2022-08-29T07:19:58Z</time>
      </trkpt>
      <trkpt lat="42.4186670" lon="-2.8858330">
        <ele>719.2</ele>
        <time>2022-08-29T07:19:59Z</time>
      </trkpt>
      <trkpt lat="42.4186520" lon="-2.8858500">
        <ele>719.2</ele>
        <time>2022-08-29T07:20:00Z</time>
      </trkpt>
      <trkpt lat="42.4186370" lon="-2.8858610">
        <ele>719.4</ele>
        <time>2022-08-29T07:20:01Z</time>
      </trkpt>
      <trkpt lat="42.4186160" lon="-2.8858630">
        <ele>719.6</ele>
        <time>2022-08-29T07:20:02Z</time>
      </trkpt>
      <trkpt lat="42.4185900" lon="-2.8858620">
        <ele>719.8</ele>
        <time>2022-08-29T07:20:03Z</time>
      </trkpt>
      <trkpt lat="42.4185640" lon="-2.8858560">
        <ele>720.0</ele>
        <time>2022-08-29T07:20:04Z</time>
      </trkpt>
      <trkpt lat="42.4185360" lon="-2.8858470">
        <ele>720.2</ele>
        <time>2022-08-29T07:20:05Z</time>
      </trkpt>
      <trkpt lat="42.4185080" lon="-2.8858370">
        <ele>720.4</ele>
        <time>2022-08-29T07:20:06Z</time>
      </trkpt>
      <trkpt lat="42.4184800" lon="-2.8858290">
        <ele>720.4</ele>
        <time>2022-08-29T07:20:07Z</time>
      </trkpt>
      <trkpt lat="42.4184500" lon="-2.8858210">
        <ele>720.6</ele>
        <time>2022-08-29T07:20:08Z</time>
      </trkpt>
      <trkpt lat="42.4184200" lon="-2.8858130">
        <ele>720.6</ele>
        <time>2022-08-29T07:20:09Z</time>
      </trkpt>
      <trkpt lat="42.4183890" lon="-2.8858130">
        <ele>720.8</ele>
        <time>2022-08-29T07:20:10Z</time>
      </trkpt>
      <trkpt lat="42.4183590" lon="-2.8858240">
        <ele>721.0</ele>
        <time>2022-08-29T07:20:11Z</time>
      </trkpt>
      <trkpt lat="42.4183340" lon="-2.8858490">
        <ele>720.8</ele>
        <time>2022-08-29T07:20:12Z</time>
      </trkpt>
      <trkpt lat="42.4183130" lon="-2.8858810">
        <ele>720.8</ele>
        <time>2022-08-29T07:20:13Z</time>
      </trkpt>
      <trkpt lat="42.4182920" lon="-2.8859130">
        <ele>721.0</ele>
        <time>2022-08-29T07:20:14Z</time>
      </trkpt>
      <trkpt lat="42.4182710" lon="-2.8859440">
        <ele>721.0</ele>
        <time>2022-08-29T07:20:15Z</time>
      </trkpt>
      <trkpt lat="42.4182500" lon="-2.8859760">
        <ele>721.2</ele>
        <time>2022-08-29T07:20:16Z</time>
      </trkpt>
      <trkpt lat="42.4182300" lon="-2.8860050">
        <ele>721.2</ele>
        <time>2022-08-29T07:20:17Z</time>
      </trkpt>
      <trkpt lat="42.4182120" lon="-2.8860360">
        <ele>721.2</ele>
        <time>2022-08-29T07:20:18Z</time>
      </trkpt>
      <trkpt lat="42.4181940" lon="-2.8860670">
        <ele>721.0</ele>
        <time>2022-08-29T07:20:19Z</time>
      </trkpt>
      <trkpt lat="42.4181720" lon="-2.8860980">
        <ele>721.2</ele>
        <time>2022-08-29T07:20:20Z</time>
      </trkpt>
      <trkpt lat="42.4181510" lon="-2.8861280">
        <ele>721.2</ele>
        <time>2022-08-29T07:20:21Z</time>
      </trkpt>
      <trkpt lat="42.4181290" lon="-2.8861570">
        <ele>721.2</ele>
        <time>2022-08-29T07:20:22Z</time>
      </trkpt>
      <trkpt lat="42.4181070" lon="-2.8861870">
        <ele>721.2</ele>
        <time>2022-08-29T07:20:23Z</time>
      </trkpt>
      <trkpt lat="42.4180850" lon="-2.8862180">
        <ele>721.2</ele>
        <time>2022-08-29T07:20:24Z</time>
      </trkpt>
      <trkpt lat="42.4180620" lon="-2.8862480">
        <ele>721.2</ele>
        <time>2022-08-29T07:20:25Z</time>
      </trkpt>
      <trkpt lat="42.4180370" lon="-2.8862740">
        <ele>721.4</ele>
        <time>2022-08-29T07:20:26Z</time>
      </trkpt>
      <trkpt lat="42.4180080" lon="-2.8862960">
        <ele>721.6</ele>
        <time>2022-08-29T07:20:27Z</time>
      </trkpt>
      <trkpt lat="42.4179780" lon="-2.8863170">
        <ele>721.8</ele>
        <time>2022-08-29T07:20:28Z</time>
      </trkpt>
      <trkpt lat="42.4179480" lon="-2.8863370">
        <ele>721.8</ele>
        <time>2022-08-29T07:20:29Z</time>
      </trkpt>
      <trkpt lat="42.4179180" lon="-2.8863560">
        <ele>722.0</ele>
        <time>2022-08-29T07:20:30Z</time>
      </trkpt>
      <trkpt lat="42.4178900" lon="-2.8863780">
        <ele>722.0</ele>
        <time>2022-08-29T07:20:31Z</time>
      </trkpt>
      <trkpt lat="42.4178630" lon="-2.8864020">
        <ele>722.0</ele>
        <time>2022-08-29T07:20:32Z</time>
      </trkpt>
      <trkpt lat="42.4178400" lon="-2.8864290">
        <ele>722.2</ele>
        <time>2022-08-29T07:20:33Z</time>
      </trkpt>
      <trkpt lat="42.4178200" lon="-2.8864590">
        <ele>722.2</ele>
        <time>2022-08-29T07:20:34Z</time>
      </trkpt>
      <trkpt lat="42.4177980" lon="-2.8864930">
        <ele>722.2</ele>
        <time>2022-08-29T07:20:35Z</time>
      </trkpt>
      <trkpt lat="42.4177740" lon="-2.8865280">
        <ele>722.4</ele>
        <time>2022-08-29T07:20:36Z</time>
      </trkpt>
      <trkpt lat="42.4177490" lon="-2.8865630">
        <ele>722.4</ele>
        <time>2022-08-29T07:20:37Z</time>
      </trkpt>
      <trkpt lat="42.4177250" lon="-2.8865960">
        <ele>722.6</ele>
        <time>2022-08-29T07:20:38Z</time>
      </trkpt>
      <trkpt lat="42.4177030" lon="-2.8866300">
        <ele>722.8</ele>
        <time>2022-08-29T07:20:39Z</time>
      </trkpt>
      <trkpt lat="42.4176810" lon="-2.8866650">
        <ele>722.8</ele>
        <time>2022-08-29T07:20:40Z</time>
      </trkpt>
      <trkpt lat="42.4176600" lon="-2.8867000">
        <ele>723.2</ele>
        <time>2022-08-29T07:20:41Z</time>
      </trkpt>
      <trkpt lat="42.4176390" lon="-2.8867380">
        <ele>723.4</ele>
        <time>2022-08-29T07:20:42Z</time>
      </trkpt>
      <trkpt lat="42.4176170" lon="-2.8867760">
        <ele>723.4</ele>
        <time>2022-08-29T07:20:43Z</time>
      </trkpt>
      <trkpt lat="42.4175960" lon="-2.8868120">
        <ele>723.4</ele>
        <time>2022-08-29T07:20:44Z</time>
      </trkpt>
      <trkpt lat="42.4175730" lon="-2.8868470">
        <ele>723.4</ele>
        <time>2022-08-29T07:20:45Z</time>
      </trkpt>
      <trkpt lat="42.4175500" lon="-2.8868810">
        <ele>723.8</ele>
        <time>2022-08-29T07:20:46Z</time>
      </trkpt>
      <trkpt lat="42.4175260" lon="-2.8869160">
        <ele>723.8</ele>
        <time>2022-08-29T07:20:47Z</time>
      </trkpt>
      <trkpt lat="42.4175050" lon="-2.8869510">
        <ele>723.8</ele>
        <time>2022-08-29T07:20:48Z</time>
      </trkpt>
      <trkpt lat="42.4174860" lon="-2.8869850">
        <ele>723.8</ele>
        <time>2022-08-29T07:20:49Z</time>
      </trkpt>
      <trkpt lat="42.4174660" lon="-2.8870220">
        <ele>723.8</ele>
        <time>2022-08-29T07:20:50Z</time>
      </trkpt>
      <trkpt lat="42.4174460" lon="-2.8870540">
        <ele>723.8</ele>
        <time>2022-08-29T07:20:51Z</time>
      </trkpt>
      <trkpt lat="42.4174240" lon="-2.8870850">
        <ele>723.8</ele>
        <time>2022-08-29T07:20:52Z</time>
      </trkpt>
      <trkpt lat="42.4174020" lon="-2.8871150">
        <ele>723.8</ele>
        <time>2022-08-29T07:20:53Z</time>
      </trkpt>
      <trkpt lat="42.4173820" lon="-2.8871450">
        <ele>724.0</ele>
        <time>2022-08-29T07:20:54Z</time>
      </trkpt>
      <trkpt lat="42.4173640" lon="-2.8871780">
        <ele>724.0</ele>
        <time>2022-08-29T07:20:55Z</time>
      </trkpt>
      <trkpt lat="42.4173480" lon="-2.8872140">
        <ele>724.0</ele>
        <time>2022-08-29T07:20:56Z</time>
      </trkpt>
      <trkpt lat="42.4173340" lon="-2.8872520">
        <ele>724.2</ele>
        <time>2022-08-29T07:20:57Z</time>
      </trkpt>
      <trkpt lat="42.4173190" lon="-2.8872890">
        <ele>724.2</ele>
        <time>2022-08-29T07:20:58Z</time>
      </trkpt>
      <trkpt lat="42.4173010" lon="-2.8873250">
        <ele>724.4</ele>
        <time>2022-08-29T07:20:59Z</time>
      </trkpt>
      <trkpt lat="42.4172800" lon="-2.8873590">
        <ele>724.4</ele>
        <time>2022-08-29T07:21:00Z</time>
      </trkpt>
      <trkpt lat="42.4172570" lon="-2.8873920">
        <ele>724.6</ele>
        <time>2022-08-29T07:21:01Z</time>
      </trkpt>
      <trkpt lat="42.4172340" lon="-2.8874270">
        <ele>724.4</ele>
        <time>2022-08-29T07:21:02Z</time>
      </trkpt>
      <trkpt lat="42.4172110" lon="-2.8874630">
        <ele>724.8</ele>
        <time>2022-08-29T07:21:03Z</time>
      </trkpt>
      <trkpt lat="42.4171890" lon="-2.8874990">
        <ele>725.0</ele>
        <time>2022-08-29T07:21:04Z</time>
      </trkpt>
      <trkpt lat="42.4171670" lon="-2.8875370">
        <ele>725.2</ele>
        <time>2022-08-29T07:21:05Z</time>
      </trkpt>
      <trkpt lat="42.4171460" lon="-2.8875750">
        <ele>725.2</ele>
        <time>2022-08-29T07:21:06Z</time>
      </trkpt>
      <trkpt lat="42.4171260" lon="-2.8876130">
        <ele>725.2</ele>
        <time>2022-08-29T07:21:07Z</time>
      </trkpt>
      <trkpt lat="42.4171040" lon="-2.8876500">
        <ele>725.4</ele>
        <time>2022-08-29T07:21:08Z</time>
      </trkpt>
      <trkpt lat="42.4170830" lon="-2.8876880">
        <ele>725.6</ele>
        <time>2022-08-29T07:21:09Z</time>
      </trkpt>
      <trkpt lat="42.4170610" lon="-2.8877250">
        <ele>725.4</ele>
        <time>2022-08-29T07:21:10Z</time>
      </trkpt>
      <trkpt lat="42.4170380" lon="-2.8877610">
        <ele>725.4</ele>
        <time>2022-08-29T07:21:11Z</time>
      </trkpt>
      <trkpt lat="42.4170140" lon="-2.8877950">
        <ele>725.6</ele>
        <time>2022-08-29T07:21:12Z</time>
      </trkpt>
      <trkpt lat="42.4169920" lon="-2.8878300">
        <ele>725.4</ele>
        <time>2022-08-29T07:21:13Z</time>
      </trkpt>
      <trkpt lat="42.4169710" lon="-2.8878660">
        <ele>725.6</ele>
        <time>2022-08-29T07:21:14Z</time>
      </trkpt>
      <trkpt lat="42.4169480" lon="-2.8879010">
        <ele>725.6</ele>
        <time>2022-08-29T07:21:15Z</time>
      </trkpt>
      <trkpt lat="42.4169250" lon="-2.8879350">
        <ele>725.6</ele>
        <time>2022-08-29T07:21:16Z</time>
      </trkpt>
      <trkpt lat="42.4169030" lon="-2.8879720">
        <ele>725.8</ele>
        <time>2022-08-29T07:21:17Z</time>
      </trkpt>
      <trkpt lat="42.4168820" lon="-2.8880080">
        <ele>725.6</ele>
        <time>2022-08-29T07:21:18Z</time>
      </trkpt>
      <trkpt lat="42.4168600" lon="-2.8880440">
        <ele>725.8</ele>
        <time>2022-08-29T07:21:19Z</time>
      </trkpt>
      <trkpt lat="42.4168380" lon="-2.8880790">
        <ele>725.8</ele>
        <time>2022-08-29T07:21:20Z</time>
      </trkpt>
      <trkpt lat="42.4168140" lon="-2.8881120">
        <ele>726.0</ele>
        <time>2022-08-29T07:21:21Z</time>
      </trkpt>
      <trkpt lat="42.4167900" lon="-2.8881460">
        <ele>726.2</ele>
        <time>2022-08-29T07:21:22Z</time>
      </trkpt>
      <trkpt lat="42.4167710" lon="-2.8881830">
        <ele>726.4</ele>
        <time>2022-08-29T07:21:23Z</time>
      </trkpt>
      <trkpt lat="42.4167530" lon="-2.8882230">
        <ele>726.2</ele>
        <time>2022-08-29T07:21:24Z</time>
      </trkpt>
      <trkpt lat="42.4167390" lon="-2.8882650">
        <ele>726.4</ele>
        <time>2022-08-29T07:21:25Z</time>
      </trkpt>
      <trkpt lat="42.4167280" lon="-2.8883090">
        <ele>726.4</ele>
        <time>2022-08-29T07:21:26Z</time>
      </trkpt>
      <trkpt lat="42.4167180" lon="-2.8883530">
        <ele>726.6</ele>
        <time>2022-08-29T07:21:27Z</time>
      </trkpt>
      <trkpt lat="42.4167070" lon="-2.8883970">
        <ele>726.6</ele>
        <time>2022-08-29T07:21:28Z</time>
      </trkpt>
      <trkpt lat="42.4166930" lon="-2.8884400">
        <ele>726.8</ele>
        <time>2022-08-29T07:21:29Z</time>
      </trkpt>
      <trkpt lat="42.4166780" lon="-2.8884820">
        <ele>726.8</ele>
        <time>2022-08-29T07:21:30Z</time>
      </trkpt>
      <trkpt lat="42.4166580" lon="-2.8885240">
        <ele>727.0</ele>
        <time>2022-08-29T07:21:31Z</time>
      </trkpt>
      <trkpt lat="42.4166360" lon="-2.8885640">
        <ele>727.2</ele>
        <time>2022-08-29T07:21:32Z</time>
      </trkpt>
      <trkpt lat="42.4166140" lon="-2.8886030">
        <ele>727.4</ele>
        <time>2022-08-29T07:21:33Z</time>
      </trkpt>
      <trkpt lat="42.4165910" lon="-2.8886400">
        <ele>727.4</ele>
        <time>2022-08-29T07:21:34Z</time>
      </trkpt>
      <trkpt lat="42.4165670" lon="-2.8886760">
        <ele>727.4</ele>
        <time>2022-08-29T07:21:35Z</time>
      </trkpt>
      <trkpt lat="42.4165440" lon="-2.8887130">
        <ele>727.4</ele>
        <time>2022-08-29T07:21:36Z</time>
      </trkpt>
      <trkpt lat="42.4165200" lon="-2.8887490">
        <ele>727.4</ele>
        <time>2022-08-29T07:21:37Z</time>
      </trkpt>
      <trkpt lat="42.4164970" lon="-2.8887860">
        <ele>727.6</ele>
        <time>2022-08-29T07:21:38Z</time>
      </trkpt>
      <trkpt lat="42.4164730" lon="-2.8888250">
        <ele>727.6</ele>
        <time>2022-08-29T07:21:39Z</time>
      </trkpt>
      <trkpt lat="42.4164510" lon="-2.8888630">
        <ele>727.8</ele>
        <time>2022-08-29T07:21:40Z</time>
      </trkpt>
      <trkpt lat="42.4164300" lon="-2.8889030">
        <ele>727.6</ele>
        <time>2022-08-29T07:21:41Z</time>
      </trkpt>
      <trkpt lat="42.4164060" lon="-2.8889430">
        <ele>727.8</ele>
        <time>2022-08-29T07:21:42Z</time>
      </trkpt>
      <trkpt lat="42.4163820" lon="-2.8889820">
        <ele>728.0</ele>
        <time>2022-08-29T07:21:43Z</time>
      </trkpt>
      <trkpt lat="42.4163550" lon="-2.8890200">
        <ele>728.0</ele>
        <time>2022-08-29T07:21:44Z</time>
      </trkpt>
      <trkpt lat="42.4163290" lon="-2.8890580">
        <ele>728.0</ele>
        <time>2022-08-29T07:21:45Z</time>
      </trkpt>
      <trkpt lat="42.4163030" lon="-2.8890940">
        <ele>728.0</ele>
        <time>2022-08-29T07:21:46Z</time>
      </trkpt>
      <trkpt lat="42.4162790" lon="-2.8891320">
        <ele>728.0</ele>
        <time>2022-08-29T07:21:47Z</time>
      </trkpt>
      <trkpt lat="42.4162570" lon="-2.8891700">
        <ele>728.2</ele>
        <time>2022-08-29T07:21:48Z</time>
      </trkpt>
      <trkpt lat="42.4162360" lon="-2.8892100">
        <ele>728.2</ele>
        <time>2022-08-29T07:21:49Z</time>
      </trkpt>
      <trkpt lat="42.4162140" lon="-2.8892500">
        <ele>728.4</ele>
        <time>2022-08-29T07:21:50Z</time>
      </trkpt>
      <trkpt lat="42.4161910" lon="-2.8892890">
        <ele>728.4</ele>
        <time>2022-08-29T07:21:51Z</time>
      </trkpt>
      <trkpt lat="42.4161660" lon="-2.8893260">
        <ele>728.6</ele>
        <time>2022-08-29T07:21:52Z</time>
      </trkpt>
      <trkpt lat="42.4161400" lon="-2.8893610">
        <ele>728.6</ele>
        <time>2022-08-29T07:21:53Z</time>
      </trkpt>
      <trkpt lat="42.4161140" lon="-2.8893920">
        <ele>728.8</ele>
        <time>2022-08-29T07:21:54Z</time>
      </trkpt>
      <trkpt lat="42.4160900" lon="-2.8894280">
        <ele>729.0</ele>
        <time>2022-08-29T07:21:55Z</time>
      </trkpt>
      <trkpt lat="42.4160640" lon="-2.8894650">
        <ele>729.2</ele>
        <time>2022-08-29T07:21:56Z</time>
      </trkpt>
      <trkpt lat="42.4160410" lon="-2.8895030">
        <ele>729.2</ele>
        <time>2022-08-29T07:21:57Z</time>
      </trkpt>
      <trkpt lat="42.4160200" lon="-2.8895430">
        <ele>729.2</ele>
        <time>2022-08-29T07:21:58Z</time>
      </trkpt>
      <trkpt lat="42.4159990" lon="-2.8895840">
        <ele>729.6</ele>
        <time>2022-08-29T07:21:59Z</time>
      </trkpt>
      <trkpt lat="42.4159730" lon="-2.8896200">
        <ele>729.4</ele>
        <time>2022-08-29T07:22:00Z</time>
      </trkpt>
      <trkpt lat="42.4159470" lon="-2.8896520">
        <ele>729.4</ele>
        <time>2022-08-29T07:22:01Z</time>
      </trkpt>
      <trkpt lat="42.4159230" lon="-2.8896870">
        <ele>729.6</ele>
        <time>2022-08-29T07:22:02Z</time>
      </trkpt>
      <trkpt lat="42.4159000" lon="-2.8897250">
        <ele>729.6</ele>
        <time>2022-08-29T07:22:03Z</time>
      </trkpt>
      <trkpt lat="42.4158780" lon="-2.8897650">
        <ele>729.6</ele>
        <time>2022-08-29T07:22:04Z</time>
      </trkpt>
      <trkpt lat="42.4158560" lon="-2.8898040">
        <ele>729.8</ele>
        <time>2022-08-29T07:22:05Z</time>
      </trkpt>
      <trkpt lat="42.4158320" lon="-2.8898420">
        <ele>730.0</ele>
        <time>2022-08-29T07:22:06Z</time>
      </trkpt>
      <trkpt lat="42.4158090" lon="-2.8898810">
        <ele>730.0</ele>
        <time>2022-08-29T07:22:07Z</time>
      </trkpt>
      <trkpt lat="42.4157850" lon="-2.8899210">
        <ele>729.8</ele>
        <time>2022-08-29T07:22:08Z</time>
      </trkpt>
      <trkpt lat="42.4157600" lon="-2.8899580">
        <ele>730.0</ele>
        <time>2022-08-29T07:22:09Z</time>
      </trkpt>
      <trkpt lat="42.4157380" lon="-2.8899980">
        <ele>730.2</ele>
        <time>2022-08-29T07:22:10Z</time>
      </trkpt>
      <trkpt lat="42.4157200" lon="-2.8900430">
        <ele>730.4</ele>
        <time>2022-08-29T07:22:11Z</time>
      </trkpt>
      <trkpt lat="42.4157120" lon="-2.8900920">
        <ele>730.6</ele>
        <time>2022-08-29T07:22:12Z</time>
      </trkpt>
      <trkpt lat="42.4157100" lon="-2.8901460">
        <ele>730.6</ele>
        <time>2022-08-29T07:22:13Z</time>
      </trkpt>
      <trkpt lat="42.4157110" lon="-2.8902030">
        <ele>730.6</ele>
        <time>2022-08-29T07:22:14Z</time>
      </trkpt>
      <trkpt lat="42.4157120" lon="-2.8902620">
        <ele>730.6</ele>
        <time>2022-08-29T07:22:15Z</time>
      </trkpt>
      <trkpt lat="42.4157150" lon="-2.8903240">
        <ele>730.8</ele>
        <time>2022-08-29T07:22:16Z</time>
      </trkpt>
      <trkpt lat="42.4157190" lon="-2.8903900">
        <ele>730.8</ele>
        <time>2022-08-29T07:22:17Z</time>
      </trkpt>
      <trkpt lat="42.4157230" lon="-2.8904580">
        <ele>730.8</ele>
        <time>2022-08-29T07:22:18Z</time>
      </trkpt>
      <trkpt lat="42.4157270" lon="-2.8905280">
        <ele>730.6</ele>
        <time>2022-08-29T07:22:19Z</time>
      </trkpt>
      <trkpt lat="42.4157320" lon="-2.8905990">
        <ele>730.8</ele>
        <time>2022-08-29T07:22:20Z</time>
      </trkpt>
      <trkpt lat="42.4157350" lon="-2.8906720">
        <ele>730.6</ele>
        <time>2022-08-29T07:22:21Z</time>
      </trkpt>
      <trkpt lat="42.4157390" lon="-2.8907450">
        <ele>730.6</ele>
        <time>2022-08-29T07:22:22Z</time>
      </trkpt>
      <trkpt lat="42.4157450" lon="-2.8908200">
        <ele>730.8</ele>
        <time>2022-08-29T07:22:23Z</time>
      </trkpt>
      <trkpt lat="42.4157470" lon="-2.8908950">
        <ele>730.8</ele>
        <time>2022-08-29T07:22:24Z</time>
      </trkpt>
      <trkpt lat="42.4157460" lon="-2.8909710">
        <ele>730.6</ele>
        <time>2022-08-29T07:22:25Z</time>
      </trkpt>
      <trkpt lat="42.4157450" lon="-2.8910470">
        <ele>730.8</ele>
        <time>2022-08-29T07:22:26Z</time>
      </trkpt>
      <trkpt lat="42.4157460" lon="-2.8911230">
        <ele>730.6</ele>
        <time>2022-08-29T07:22:27Z</time>
      </trkpt>
      <trkpt lat="42.4157450" lon="-2.8912000">
        <ele>730.6</ele>
        <time>2022-08-29T07:22:28Z</time>
      </trkpt>
      <trkpt lat="42.4157460" lon="-2.8912760">
        <ele>730.8</ele>
        <time>2022-08-29T07:22:29Z</time>
      </trkpt>
      <trkpt lat="42.4157480" lon="-2.8913540">
        <ele>730.6</ele>
        <time>2022-08-29T07:22:30Z</time>
      </trkpt>
      <trkpt lat="42.4157490" lon="-2.8914320">
        <ele>730.6</ele>
        <time>2022-08-29T07:22:31Z</time>
      </trkpt>
      <trkpt lat="42.4157520" lon="-2.8915090">
        <ele>730.6</ele>
        <time>2022-08-29T07:22:32Z</time>
      </trkpt>
      <trkpt lat="42.4157550" lon="-2.8915850">
        <ele>730.4</ele>
        <time>2022-08-29T07:22:33Z</time>
      </trkpt>
      <trkpt lat="42.4157580" lon="-2.8916600">
        <ele>730.4</ele>
        <time>2022-08-29T07:22:34Z</time>
      </trkpt>
      <trkpt lat="42.4157610" lon="-2.8917340">
        <ele>730.4</ele>
        <time>2022-08-29T07:22:35Z</time>
      </trkpt>
      <trkpt lat="42.4157630" lon="-2.8918080">
        <ele>730.4</ele>
        <time>2022-08-29T07:22:36Z</time>
      </trkpt>
      <trkpt lat="42.4157660" lon="-2.8918800">
        <ele>730.4</ele>
        <time>2022-08-29T07:22:37Z</time>
      </trkpt>
      <trkpt lat="42.4157700" lon="-2.8919530">
        <ele>730.2</ele>
        <time>2022-08-29T07:22:38Z</time>
      </trkpt>
      <trkpt lat="42.4157740" lon="-2.8920260">
        <ele>730.2</ele>
        <time>2022-08-29T07:22:39Z</time>
      </trkpt>
      <trkpt lat="42.4157770" lon="-2.8921000">
        <ele>730.2</ele>
        <time>2022-08-29T07:22:40Z</time>
      </trkpt>
      <trkpt lat="42.4157790" lon="-2.8921740">
        <ele>730.2</ele>
        <time>2022-08-29T07:22:41Z</time>
      </trkpt>
      <trkpt lat="42.4157820" lon="-2.8922460">
        <ele>730.0</ele>
        <time>2022-08-29T07:22:42Z</time>
      </trkpt>
      <trkpt lat="42.4157860" lon="-2.8923110">
        <ele>730.0</ele>
        <time>2022-08-29T07:22:43Z</time>
      </trkpt>
      <trkpt lat="42.4157880" lon="-2.8923680">
        <ele>730.2</ele>
        <time>2022-08-29T07:22:44Z</time>
      </trkpt>
      <trkpt lat="42.4157850" lon="-2.8924190">
        <ele>730.0</ele>
        <time>2022-08-29T07:22:45Z</time>
      </trkpt>
      <trkpt lat="42.4157640" lon="-2.8924590">
        <ele>730.2</ele>
        <time>2022-08-29T07:22:46Z</time>
      </trkpt>
      <trkpt lat="42.4157320" lon="-2.8924870">
        <ele>730.0</ele>
        <time>2022-08-29T07:22:47Z</time>
      </trkpt>
      <trkpt lat="42.4156950" lon="-2.8925080">
        <ele>730.0</ele>
        <time>2022-08-29T07:22:48Z</time>
      </trkpt>
      <trkpt lat="42.4156550" lon="-2.8925240">
        <ele>730.2</ele>
        <time>2022-08-29T07:22:49Z</time>
      </trkpt>
      <trkpt lat="42.4156180" lon="-2.8925350">
        <ele>730.2</ele>
        <time>2022-08-29T07:22:50Z</time>
      </trkpt>
      <trkpt lat="42.4155810" lon="-2.8925390">
        <ele>730.2</ele>
        <time>2022-08-29T07:22:51Z</time>
      </trkpt>
      <trkpt lat="42.4155470" lon="-2.8925410">
        <ele>730.4</ele>
        <time>2022-08-29T07:22:52Z</time>
      </trkpt>
      <trkpt lat="42.4155140" lon="-2.8925420">
        <ele>730.4</ele>
        <time>2022-08-29T07:22:53Z</time>
      </trkpt>
      <trkpt lat="42.4154810" lon="-2.8925440">
        <ele>730.4</ele>
        <time>2022-08-29T07:22:54Z</time>
      </trkpt>
      <trkpt lat="42.4154480" lon="-2.8925450">
        <ele>730.6</ele>
        <time>2022-08-29T07:22:55Z</time>
      </trkpt>
      <trkpt lat="42.4154150" lon="-2.8925480">
        <ele>730.6</ele>
        <time>2022-08-29T07:22:56Z</time>
      </trkpt>
      <trkpt lat="42.4153820" lon="-2.8925500">
        <ele>730.6</ele>
        <time>2022-08-29T07:22:57Z</time>
      </trkpt>
      <trkpt lat="42.4153500" lon="-2.8925510">
        <ele>730.8</ele>
        <time>2022-08-29T07:22:58Z</time>
      </trkpt>
      <trkpt lat="42.4153200" lon="-2.8925520">
        <ele>730.8</ele>
        <time>2022-08-29T07:22:59Z</time>
      </trkpt>
      <trkpt lat="42.4152900" lon="-2.8925540">
        <ele>730.8</ele>
        <time>2022-08-29T07:23:00Z</time>
      </trkpt>
      <trkpt lat="42.4152620" lon="-2.8925570">
        <ele>731.0</ele>
        <time>2022-08-29T07:23:01Z</time>
      </trkpt>
      <trkpt lat="42.4152330" lon="-2.8925580">
        <ele>731.2</ele>
        <time>2022-08-29T07:23:02Z</time>
      </trkpt>
      <trkpt lat="42.4152050" lon="-2.8925580">
        <ele>731.4</ele>
        <time>2022-08-29T07:23:03Z</time>
      </trkpt>
      <trkpt lat="42.4151770" lon="-2.8925610">
        <ele>731.6</ele>
        <time>2022-08-29T07:23:04Z</time>
      </trkpt>
      <trkpt lat="42.4151500" lon="-2.8925620">
        <ele>731.6</ele>
        <time>2022-08-29T07:23:05Z</time>
      </trkpt>
      <trkpt lat="42.4151240" lon="-2.8925610">
        <ele>732.0</ele>
        <time>2022-08-29T07:23:06Z</time>
      </trkpt>
      <trkpt lat="42.4150980" lon="-2.8925620">
        <ele>732.2</ele>
        <time>2022-08-29T07:23:07Z</time>
      </trkpt>
      <trkpt lat="42.4150710" lon="-2.8925640">
        <ele>732.2</ele>
        <time>2022-08-29T07:23:08Z</time>
      </trkpt>
      <trkpt lat="42.4150450" lon="-2.8925660">
        <ele>732.4</ele>
        <time>2022-08-29T07:23:09Z</time>
      </trkpt>
      <trkpt lat="42.4150180" lon="-2.8925680">
        <ele>732.6</ele>
        <time>2022-08-29T07:23:10Z</time>
      </trkpt>
      <trkpt lat="42.4149910" lon="-2.8925680">
        <ele>732.6</ele>
        <time>2022-08-29T07:23:11Z</time>
      </trkpt>
      <trkpt lat="42.4149640" lon="-2.8925700">
        <ele>732.6</ele>
        <time>2022-08-29T07:23:12Z</time>
      </trkpt>
      <trkpt lat="42.4149370" lon="-2.8925720">
        <ele>732.8</ele>
        <time>2022-08-29T07:23:13Z</time>
      </trkpt>
      <trkpt lat="42.4149110" lon="-2.8925720">
        <ele>732.8</ele>
        <time>2022-08-29T07:23:14Z</time>
      </trkpt>
      <trkpt lat="42.4148850" lon="-2.8925720">
        <ele>733.2</ele>
        <time>2022-08-29T07:23:15Z</time>
      </trkpt>
      <trkpt lat="42.4148580" lon="-2.8925720">
        <ele>733.6</ele>
        <time>2022-08-29T07:23:16Z</time>
      </trkpt>
      <trkpt lat="42.4148300" lon="-2.8925700">
        <ele>733.8</ele>
        <time>2022-08-29T07:23:17Z</time>
      </trkpt>
      <trkpt lat="42.4148020" lon="-2.8925700">
        <ele>734.0</ele>
        <time>2022-08-29T07:23:18Z</time>
      </trkpt>
      <trkpt lat="42.4147750" lon="-2.8925670">
        <ele>734.2</ele>
        <time>2022-08-29T07:23:19Z</time>
      </trkpt>
      <trkpt lat="42.4147480" lon="-2.8925630">
        <ele>734.2</ele>
        <time>2022-08-29T07:23:20Z</time>
      </trkpt>
      <trkpt lat="42.4147200" lon="-2.8925610">
        <ele>734.4</ele>
        <time>2022-08-29T07:23:21Z</time>
      </trkpt>
      <trkpt lat="42.4146910" lon="-2.8925610">
        <ele>734.6</ele>
        <time>2022-08-29T07:23:22Z</time>
      </trkpt>
      <trkpt lat="42.4146620" lon="-2.8925630">
        <ele>734.6</ele>
        <time>2022-08-29T07:23:23Z</time>
      </trkpt>
      <trkpt lat="42.4146340" lon="-2.8925660">
        <ele>734.8</ele>
        <time>2022-08-29T07:23:24Z</time>
      </trkpt>
      <trkpt lat="42.4146050" lon="-2.8925690">
        <ele>734.8</ele>
        <time>2022-08-29T07:23:25Z</time>
      </trkpt>
      <trkpt lat="42.4145770" lon="-2.8925730">
        <ele>735.0</ele>
        <time>2022-08-29T07:23:26Z</time>
      </trkpt>
      <trkpt lat="42.4145490" lon="-2.8925750">
        <ele>735.4</ele>
        <time>2022-08-29T07:23:27Z</time>
      </trkpt>
      <trkpt lat="42.4145220" lon="-2.8925790">
        <ele>735.4</ele>
        <time>2022-08-29T07:23:28Z</time>
      </trkpt>
      <trkpt lat="42.4144940" lon="-2.8925840">
        <ele>735.8</ele>
        <time>2022-08-29T07:23:29Z</time>
      </trkpt>
      <trkpt lat="42.4144690" lon="-2.8925950">
        <ele>735.8</ele>
        <time>2022-08-29T07:23:30Z</time>
      </trkpt>
      <trkpt lat="42.4144450" lon="-2.8926120">
        <ele>735.8</ele>
        <time>2022-08-29T07:23:31Z</time>
      </trkpt>
      <trkpt lat="42.4144260" lon="-2.8926380">
        <ele>735.8</ele>
        <time>2022-08-29T07:23:32Z</time>
      </trkpt>
      <trkpt lat="42.4144140" lon="-2.8926680">
        <ele>736.2</ele>
        <time>2022-08-29T07:23:33Z</time>
      </trkpt>
      <trkpt lat="42.4144090" lon="-2.8926990">
        <ele>736.4</ele>
        <time>2022-08-29T07:23:34Z</time>
      </trkpt>
      <trkpt lat="42.4144100" lon="-2.8927330">
        <ele>736.4</ele>
        <time>2022-08-29T07:23:35Z</time>
      </trkpt>
      <trkpt lat="42.4144110" lon="-2.8927720">
        <ele>736.4</ele>
        <time>2022-08-29T07:23:36Z</time>
      </trkpt>
      <trkpt lat="42.4144130" lon="-2.8928150">
        <ele>736.6</ele>
        <time>2022-08-29T07:23:37Z</time>
      </trkpt>
      <trkpt lat="42.4144160" lon="-2.8928610">
        <ele>736.8</ele>
        <time>2022-08-29T07:23:38Z</time>
      </trkpt>
      <trkpt lat="42.4144180" lon="-2.8929080">
        <ele>736.8</ele>
        <time>2022-08-29T07:23:39Z</time>
      </trkpt>
      <trkpt lat="42.4144190" lon="-2.8929560">
        <ele>737.0</ele>
        <time>2022-08-29T07:23:40Z</time>
      </trkpt>
      <trkpt lat="42.4144210" lon="-2.8930050">
        <ele>737.2</ele>
        <time>2022-08-29T07:23:41Z</time>
      </trkpt>
      <trkpt lat="42.4144240" lon="-2.8930540">
        <ele>737.6</ele>
        <time>2022-08-29T07:23:42Z</time>
      </trkpt>
      <trkpt lat="42.4144250" lon="-2.8931040">
        <ele>737.6</ele>
        <time>2022-08-29T07:23:43Z</time>
      </trkpt>
      <trkpt lat="42.4144300" lon="-2.8931540">
        <ele>737.6</ele>
        <time>2022-08-29T07:23:44Z</time>
      </trkpt>
      <trkpt lat="42.4144340" lon="-2.8932050">
        <ele>737.8</ele>
        <time>2022-08-29T07:23:45Z</time>
      </trkpt>
      <trkpt lat="42.4144360" lon="-2.8932560">
        <ele>737.8</ele>
        <time>2022-08-29T07:23:46Z</time>
      </trkpt>
      <trkpt lat="42.4144370" lon="-2.8933080">
        <ele>737.8</ele>
        <time>2022-08-29T07:23:47Z</time>
      </trkpt>
      <trkpt lat="42.4144370" lon="-2.8933600">
        <ele>738.0</ele>
        <time>2022-08-29T07:23:48Z</time>
      </trkpt>
      <trkpt lat="42.4144330" lon="-2.8934130">
        <ele>738.0</ele>
        <time>2022-08-29T07:23:49Z</time>
      </trkpt>
      <trkpt lat="42.4144260" lon="-2.8934650">
        <ele>738.2</ele>
        <time>2022-08-29T07:23:50Z</time>
      </trkpt>
      <trkpt lat="42.4144110" lon="-2.8935140">
        <ele>738.2</ele>
        <time>2022-08-29T07:23:51Z</time>
      </trkpt>
      <trkpt lat="42.4143940" lon="-2.8935620">
        <ele>738.2</ele>
        <time>2022-08-29T07:23:52Z</time>
      </trkpt>
      <trkpt lat="42.4143780" lon="-2.8936100">
        <ele>738.4</ele>
        <time>2022-08-29T07:23:53Z</time>
      </trkpt>
      <trkpt lat="42.4143590" lon="-2.8936580">
        <ele>738.2</ele>
        <time>2022-08-29T07:23:54Z</time>
      </trkpt>
      <trkpt lat="42.4143400" lon="-2.8937060">
        <ele>738.4</ele>
        <time>2022-08-29T07:23:55Z</time>
      </trkpt>
      <trkpt lat="42.4143180" lon="-2.8937530">
        <ele>738.6</ele>
        <time>2022-08-29T07:23:56Z</time>
      </trkpt>
      <trkpt lat="42.4142950" lon="-2.8937990">
        <ele>738.6</ele>
        <time>2022-08-29T07:23:57Z</time>
      </trkpt>
      <trkpt lat="42.4142720" lon="-2.8938450">
        <ele>738.6</ele>
        <time>2022-08-29T07:23:58Z</time>
      </trkpt>
      <trkpt lat="42.4142490" lon="-2.8938900">
        <ele>738.6</ele>
        <time>2022-08-29T07:23:59Z</time>
      </trkpt>
      <trkpt lat="42.4142260" lon="-2.8939330">
        <ele>738.6</ele>
        <time>2022-08-29T07:24:00Z</time>
      </trkpt>
      <trkpt lat="42.4142020" lon="-2.8939740">
        <ele>738.8</ele>
        <time>2022-08-29T07:24:01Z</time>
      </trkpt>
      <trkpt lat="42.4141760" lon="-2.8940110">
        <ele>738.8</ele>
        <time>2022-08-29T07:24:02Z</time>
      </trkpt>
      <trkpt lat="42.4141500" lon="-2.8940470">
        <ele>738.8</ele>
        <time>2022-08-29T07:24:03Z</time>
      </trkpt>
      <trkpt lat="42.4141240" lon="-2.8940840">
        <ele>738.8</ele>
        <time>2022-08-29T07:24:04Z</time>
      </trkpt>
      <trkpt lat="42.4140980" lon="-2.8941180">
        <ele>739.0</ele>
        <time>2022-08-29T07:24:05Z</time>
      </trkpt>
      <trkpt lat="42.4140720" lon="-2.8941540">
        <ele>739.0</ele>
        <time>2022-08-29T07:24:06Z</time>
      </trkpt>
      <trkpt lat="42.4140480" lon="-2.8941910">
        <ele>739.0</ele>
        <time>2022-08-29T07:24:07Z</time>
      </trkpt>
      <trkpt lat="42.4140250" lon="-2.8942280">
        <ele>739.4</ele>
        <time>2022-08-29T07:24:08Z</time>
      </trkpt>
      <trkpt lat="42.4140010" lon="-2.8942650">
        <ele>739.6</ele>
        <time>2022-08-29T07:24:09Z</time>
      </trkpt>
      <trkpt lat="42.4139770" lon="-2.8942990">
        <ele>739.8</ele>
        <time>2022-08-29T07:24:10Z</time>
      </trkpt>
      <trkpt lat="42.4139510" lon="-2.8943320">
        <ele>740.0</ele>
        <time>2022-08-29T07:24:11Z</time>
      </trkpt>
      <trkpt lat="42.4139260" lon="-2.8943660">
        <ele>740.2</ele>
        <time>2022-08-29T07:24:12Z</time>
      </trkpt>
      <trkpt lat="42.4139010" lon="-2.8943990">
        <ele>740.4</ele>
        <time>2022-08-29T07:24:13Z</time>
      </trkpt>
      <trkpt lat="42.4138750" lon="-2.8944320">
        <ele>740.4</ele>
        <time>2022-08-29T07:24:14Z</time>
      </trkpt>
      <trkpt lat="42.4138490" lon="-2.8944630">
        <ele>740.6</ele>
        <time>2022-08-29T07:24:15Z</time>
      </trkpt>
      <trkpt lat="42.4138240" lon="-2.8944960">
        <ele>740.8</ele>
        <time>2022-08-29T07:24:16Z</time>
      </trkpt>
      <trkpt lat="42.4138010" lon="-2.8945310">
        <ele>741.0</ele>
        <time>2022-08-29T07:24:17Z</time>
      </trkpt>
      <trkpt lat="42.4137800" lon="-2.8945680">
        <ele>741.0</ele>
        <time>2022-08-29T07:24:18Z</time>
      </trkpt>
      <trkpt lat="42.4137600" lon="-2.8946070">
        <ele>741.2</ele>
        <time>2022-08-29T07:24:19Z</time>
      </trkpt>
      <trkpt lat="42.4137370" lon="-2.8946440">
        <ele>741.4</ele>
        <time>2022-08-29T07:24:20Z</time>
      </trkpt>
      <trkpt lat="42.4137150" lon="-2.8946810">
        <ele>741.4</ele>
        <time>2022-08-29T07:24:21Z</time>
      </trkpt>
      <trkpt lat="42.4136930" lon="-2.8947190">
        <ele>741.4</ele>
        <time>2022-08-29T07:24:22Z</time>
      </trkpt>
      <trkpt lat="42.4136690" lon="-2.8947550">
        <ele>741.4</ele>
        <time>2022-08-29T07:24:23Z</time>
      </trkpt>
      <trkpt lat="42.4136450" lon="-2.8947920">
        <ele>741.4</ele>
        <time>2022-08-29T07:24:24Z</time>
      </trkpt>
      <trkpt lat="42.4136190" lon="-2.8948300">
        <ele>741.6</ele>
        <time>2022-08-29T07:24:25Z</time>
      </trkpt>
      <trkpt lat="42.4135920" lon="-2.8948670">
        <ele>741.8</ele>
        <time>2022-08-29T07:24:26Z</time>
      </trkpt>
      <trkpt lat="42.4135630" lon="-2.8949060">
        <ele>742.0</ele>
        <time>2022-08-29T07:24:27Z</time>
      </trkpt>
      <trkpt lat="42.4135320" lon="-2.8949450">
        <ele>742.2</ele>
        <time>2022-08-29T07:24:28Z</time>
      </trkpt>
      <trkpt lat="42.4134970" lon="-2.8949850">
        <ele>742.2</ele>
        <time>2022-08-29T07:24:29Z</time>
      </trkpt>
      <trkpt lat="42.4134580" lon="-2.8950250">
        <ele>742.2</ele>
        <time>2022-08-29T07:24:30Z</time>
      </trkpt>
      <trkpt lat="42.4134140" lon="-2.8950650">
        <ele>742.2</ele>
        <time>2022-08-29T07:24:31Z</time>
      </trkpt>
      <trkpt lat="42.4133640" lon="-2.8951030">
        <ele>742.2</ele>
        <time>2022-08-29T07:24:32Z</time>
      </trkpt>
      <trkpt lat="42.4133110" lon="-2.8951380">
        <ele>742.4</ele>
        <time>2022-08-29T07:24:33Z</time>
      </trkpt>
      <trkpt lat="42.4132530" lon="-2.8951720">
        <ele>742.2</ele>
        <time>2022-08-29T07:24:34Z</time>
      </trkpt>
      <trkpt lat="42.4131940" lon="-2.8952080">
        <ele>742.4</ele>
        <time>2022-08-29T07:24:35Z</time>
      </trkpt>
      <trkpt lat="42.4131350" lon="-2.8952470">
        <ele>742.2</ele>
        <time>2022-08-29T07:24:36Z</time>
      </trkpt>
      <trkpt lat="42.4130840" lon="-2.8952900">
        <ele>742.2</ele>
        <time>2022-08-29T07:24:37Z</time>
      </trkpt>
      <trkpt lat="42.4130390" lon="-2.8953430">
        <ele>742.2</ele>
        <time>2022-08-29T07:24:38Z</time>
      </trkpt>
      <trkpt lat="42.4130050" lon="-2.8954070">
        <ele>742.2</ele>
        <time>2022-08-29T07:24:39Z</time>
      </trkpt>
      <trkpt lat="42.4129760" lon="-2.8954770">
        <ele>741.8</ele>
        <time>2022-08-29T07:24:40Z</time>
      </trkpt>
      <trkpt lat="42.4129510" lon="-2.8955460">
        <ele>741.2</ele>
        <time>2022-08-29T07:24:41Z</time>
      </trkpt>
      <trkpt lat="42.4129270" lon="-2.8956130">
        <ele>740.8</ele>
        <time>2022-08-29T07:24:42Z</time>
      </trkpt>
      <trkpt lat="42.4129050" lon="-2.8956780">
        <ele>740.4</ele>
        <time>2022-08-29T07:24:43Z</time>
      </trkpt>
      <trkpt lat="42.4128850" lon="-2.8957410">
        <ele>740.4</ele>
        <time>2022-08-29T07:24:44Z</time>
      </trkpt>
      <trkpt lat="42.4128670" lon="-2.8957980">
        <ele>740.2</ele>
        <time>2022-08-29T07:24:45Z</time>
      </trkpt>
      <trkpt lat="42.4128500" lon="-2.8958510">
        <ele>740.2</ele>
        <time>2022-08-29T07:24:46Z</time>
      </trkpt>
      <trkpt lat="42.4128330" lon="-2.8959020">
        <ele>740.2</ele>
        <time>2022-08-29T07:24:47Z</time>
      </trkpt>
      <trkpt lat="42.4128170" lon="-2.8959470">
        <ele>740.2</ele>
        <time>2022-08-29T07:24:48Z</time>
      </trkpt>
      <trkpt lat="42.4128020" lon="-2.8959900">
        <ele>740.0</ele>
        <time>2022-08-29T07:24:49Z</time>
      </trkpt>
      <trkpt lat="42.4127900" lon="-2.8960320">
        <ele>740.2</ele>
        <time>2022-08-29T07:24:50Z</time>
      </trkpt>
      <trkpt lat="42.4127820" lon="-2.8960710">
        <ele>740.2</ele>
        <time>2022-08-29T07:24:51Z</time>
      </trkpt>
      <trkpt lat="42.4127780" lon="-2.8961080">
        <ele>740.2</ele>
        <time>2022-08-29T07:24:52Z</time>
      </trkpt>
      <trkpt lat="42.4127800" lon="-2.8961430">
        <ele>740.4</ele>
        <time>2022-08-29T07:24:53Z</time>
      </trkpt>
      <trkpt lat="42.4127910" lon="-2.8961650">
        <ele>740.4</ele>
        <time>2022-08-29T07:24:54Z</time>
      </trkpt>
      <trkpt lat="42.4128140" lon="-2.8961720">
        <ele>741.0</ele>
        <time>2022-08-29T07:24:55Z</time>
      </trkpt>
      <trkpt lat="42.4128440" lon="-2.8961740">
        <ele>741.2</ele>
        <time>2022-08-29T07:24:56Z</time>
      </trkpt>
      <trkpt lat="42.4128810" lon="-2.8961790">
        <ele>741.6</ele>
        <time>2022-08-29T07:24:57Z</time>
      </trkpt>
      <trkpt lat="42.4129200" lon="-2.8961880">
        <ele>742.2</ele>
        <time>2022-08-29T07:24:58Z</time>
      </trkpt>
      <trkpt lat="42.4129620" lon="-2.8962010">
        <ele>742.4</ele>
        <time>2022-08-29T07:24:59Z</time>
      </trkpt>
      <trkpt lat="42.4130060" lon="-2.8962190">
        <ele>742.4</ele>
        <time>2022-08-29T07:25:00Z</time>
      </trkpt>
      <trkpt lat="42.4130540" lon="-2.8962390">
        <ele>742.6</ele>
        <time>2022-08-29T07:25:01Z</time>
      </trkpt>
      <trkpt lat="42.4131070" lon="-2.8962520">
        <ele>742.4</ele>
        <time>2022-08-29T07:25:02Z</time>
      </trkpt>
      <trkpt lat="42.4131590" lon="-2.8962670">
        <ele>742.4</ele>
        <time>2022-08-29T07:25:03Z</time>
      </trkpt>
      <trkpt lat="42.4132130" lon="-2.8962770">
        <ele>742.4</ele>
        <time>2022-08-29T07:25:04Z</time>
      </trkpt>
      <trkpt lat="42.4132660" lon="-2.8962830">
        <ele>742.6</ele>
        <time>2022-08-29T07:25:05Z</time>
      </trkpt>
      <trkpt lat="42.4133230" lon="-2.8962880">
        <ele>742.6</ele>
        <time>2022-08-29T07:25:06Z</time>
      </trkpt>
      <trkpt lat="42.4133800" lon="-2.8962900">
        <ele>742.4</ele>
        <time>2022-08-29T07:25:07Z</time>
      </trkpt>
      <trkpt lat="42.4134430" lon="-2.8962860">
        <ele>742.4</ele>
        <time>2022-08-29T07:25:08Z</time>
      </trkpt>
      <trkpt lat="42.4135020" lon="-2.8962830">
        <ele>742.2</ele>
        <time>2022-08-29T07:25:09Z</time>
      </trkpt>
      <trkpt lat="42.4135660" lon="-2.8962820">
        <ele>742.2</ele>
        <time>2022-08-29T07:25:10Z</time>
      </trkpt>
      <trkpt lat="42.4136280" lon="-2.8962850">
        <ele>742.0</ele>
        <time>2022-08-29T07:25:11Z</time>
      </trkpt>
      <trkpt lat="42.4136930" lon="-2.8962900">
        <ele>741.6</ele>
        <time>2022-08-29T07:25:12Z</time>
      </trkpt>
      <trkpt lat="42.4137560" lon="-2.8962970">
        <ele>741.6</ele>
        <time>2022-08-29T07:25:13Z</time>
      </trkpt>
      <trkpt lat="42.4138190" lon="-2.8963050">
        <ele>741.4</ele>
        <time>2022-08-29T07:25:14Z</time>
      </trkpt>
      <trkpt lat="42.4138850" lon="-2.8963120">
        <ele>741.2</ele>
        <time>2022-08-29T07:25:15Z</time>
      </trkpt>
      <trkpt lat="42.4139530" lon="-2.8963130">
        <ele>741.0</ele>
        <time>2022-08-29T07:25:16Z</time>
      </trkpt>
      <trkpt lat="42.4140190" lon="-2.8963090">
        <ele>740.6</ele>
        <time>2022-08-29T07:25:17Z</time>
      </trkpt>
      <trkpt lat="42.4140820" lon="-2.8963040">
        <ele>740.2</ele>
        <time>2022-08-29T07:25:18Z</time>
      </trkpt>
      <trkpt lat="42.4141430" lon="-2.8963080">
        <ele>739.6</ele>
        <time>2022-08-29T07:25:19Z</time>
      </trkpt>
      <trkpt lat="42.4142030" lon="-2.8963230">
        <ele>739.2</ele>
        <time>2022-08-29T07:25:20Z</time>
      </trkpt>
      <trkpt lat="42.4142610" lon="-2.8963510">
        <ele>738.6</ele>
        <time>2022-08-29T07:25:21Z</time>
      </trkpt>
      <trkpt lat="42.4143080" lon="-2.8963990">
        <ele>738.2</ele>
        <time>2022-08-29T07:25:22Z</time>
      </trkpt>
      <trkpt lat="42.4143440" lon="-2.8964590">
        <ele>738.0</ele>
        <time>2022-08-29T07:25:23Z</time>
      </trkpt>
      <trkpt lat="42.4143620" lon="-2.8965260">
        <ele>737.8</ele>
        <time>2022-08-29T07:25:24Z</time>
      </trkpt>
      <trkpt lat="42.4143660" lon="-2.8965940">
        <ele>737.4</ele>
        <time>2022-08-29T07:25:25Z</time>
      </trkpt>
      <trkpt lat="42.4143650" lon="-2.8966620">
        <ele>737.4</ele>
        <time>2022-08-29T07:25:26Z</time>
      </trkpt>
      <trkpt lat="42.4143700" lon="-2.8967330">
        <ele>737.2</ele>
        <time>2022-08-29T07:25:27Z</time>
      </trkpt>
      <trkpt lat="42.4143750" lon="-2.8968050">
        <ele>737.0</ele>
        <time>2022-08-29T07:25:28Z</time>
      </trkpt>
      <trkpt lat="42.4143850" lon="-2.8968790">
        <ele>737.0</ele>
        <time>2022-08-29T07:25:29Z</time>
      </trkpt>
      <trkpt lat="42.4143970" lon="-2.8969560">
        <ele>736.8</ele>
        <time>2022-08-29T07:25:30Z</time>
      </trkpt>
      <trkpt lat="42.4144090" lon="-2.8970370">
        <ele>736.6</ele>
        <time>2022-08-29T07:25:31Z</time>
      </trkpt>
      <trkpt lat="42.4144200" lon="-2.8971250">
        <ele>736.8</ele>
        <time>2022-08-29T07:25:32Z</time>
      </trkpt>
      <trkpt lat="42.4144340" lon="-2.8972150">
        <ele>736.8</ele>
        <time>2022-08-29T07:25:33Z</time>
      </trkpt>
      <trkpt lat="42.4144600" lon="-2.8973060">
        <ele>736.8</ele>
        <time>2022-08-29T07:25:34Z</time>
      </trkpt>
      <trkpt lat="42.4144960" lon="-2.8973990">
        <ele>736.8</ele>
        <time>2022-08-29T07:25:35Z</time>
      </trkpt>
      <trkpt lat="42.4145330" lon="-2.8974950">
        <ele>736.6</ele>
        <time>2022-08-29T07:25:36Z</time>
      </trkpt>
      <trkpt lat="42.4145680" lon="-2.8975980">
        <ele>736.6</ele>
        <time>2022-08-29T07:25:37Z</time>
      </trkpt>
      <trkpt lat="42.4146030" lon="-2.8977090">
        <ele>736.4</ele>
        <time>2022-08-29T07:25:38Z</time>
      </trkpt>
      <trkpt lat="42.4146400" lon="-2.8978230">
        <ele>736.2</ele>
        <time>2022-08-29T07:25:39Z</time>
      </trkpt>
      <trkpt lat="42.4146820" lon="-2.8979360">
        <ele>735.6</ele>
        <time>2022-08-29T07:25:40Z</time>
      </trkpt>
      <trkpt lat="42.4147310" lon="-2.8980440">
        <ele>735.2</ele>
        <time>2022-08-29T07:25:41Z</time>
      </trkpt>
      <trkpt lat="42.4147830" lon="-2.8981470">
        <ele>734.6</ele>
        <time>2022-08-29T07:25:42Z</time>
      </trkpt>
      <trkpt lat="42.4148410" lon="-2.8982420">
        <ele>734.0</ele>
        <time>2022-08-29T07:25:43Z</time>
      </trkpt>
      <trkpt lat="42.4148960" lon="-2.8983340">
        <ele>733.0</ele>
        <time>2022-08-29T07:25:44Z</time>
      </trkpt>
      <trkpt lat="42.4149400" lon="-2.8984290">
        <ele>732.2</ele>
        <time>2022-08-29T07:25:45Z</time>
      </trkpt>
      <trkpt lat="42.4149740" lon="-2.8985240">
        <ele>731.2</ele>
        <time>2022-08-29T07:25:46Z</time>
      </trkpt>
      <trkpt lat="42.4149970" lon="-2.8986070">
        <ele>730.2</ele>
        <time>2022-08-29T07:25:47Z</time>
      </trkpt>
      <trkpt lat="42.4150140" lon="-2.8986620">
        <ele>729.4</ele>
        <time>2022-08-29T07:25:48Z</time>
      </trkpt>
      <trkpt lat="42.4150230" lon="-2.8986930">
        <ele>729.0</ele>
        <time>2022-08-29T07:25:49Z</time>
      </trkpt>
      <trkpt lat="42.4150230" lon="-2.8987170">
        <ele>728.8</ele>
        <time>2022-08-29T07:25:50Z</time>
      </trkpt>
      <trkpt lat="42.4150140" lon="-2.8987340">
        <ele>728.8</ele>
        <time>2022-08-29T07:25:51Z</time>
      </trkpt>
      <trkpt lat="42.4150020" lon="-2.8987380">
        <ele>728.6</ele>
        <time>2022-08-29T07:25:52Z</time>
      </trkpt>
      <trkpt lat="42.4149910" lon="-2.8987290">
        <ele>728.4</ele>
        <time>2022-08-29T07:25:53Z</time>
      </trkpt>
      <trkpt lat="42.4149840" lon="-2.8987100">
        <ele>728.4</ele>
        <time>2022-08-29T07:25:54Z</time>
      </trkpt>
      <trkpt lat="42.4149850" lon="-2.8986860">
        <ele>728.0</ele>
        <time>2022-08-29T07:25:55Z</time>
      </trkpt>
      <trkpt lat="42.4149930" lon="-2.8986620">
        <ele>728.2</ele>
        <time>2022-08-29T07:25:56Z</time>
      </trkpt>
      <trkpt lat="42.4150100" lon="-2.8986410">
        <ele>728.2</ele>
        <time>2022-08-29T07:25:57Z</time>
      </trkpt>
      <trkpt lat="42.4150320" lon="-2.8986260">
        <ele>728.0</ele>
        <time>2022-08-29T07:25:58Z</time>
      </trkpt>
      <trkpt lat="42.4150570" lon="-2.8986230">
        <ele>728.2</ele>
        <time>2022-08-29T07:25:59Z</time>
      </trkpt>
      <trkpt lat="42.4150870" lon="-2.8986300">
        <ele>728.2</ele>
        <time>2022-08-29T07:26:00Z</time>
      </trkpt>
      <trkpt lat="42.4151160" lon="-2.8986430">
        <ele>728.0</ele>
        <time>2022-08-29T07:26:01Z</time>
      </trkpt>
      <trkpt lat="42.4151430" lon="-2.8986640">
        <ele>728.2</ele>
        <time>2022-08-29T07:26:02Z</time>
      </trkpt>
      <trkpt lat="42.4151700" lon="-2.8986890">
        <ele>728.2</ele>
        <time>2022-08-29T07:26:03Z</time>
      </trkpt>
      <trkpt lat="42.4151990" lon="-2.8987150">
        <ele>728.0</ele>
        <time>2022-08-29T07:26:04Z</time>
      </trkpt>
      <trkpt lat="42.4152250" lon="-2.8987430">
        <ele>728.2</ele>
        <time>2022-08-29T07:26:05Z</time>
      </trkpt>
      <trkpt lat="42.4152440" lon="-2.8987830">
        <ele>728.0</ele>
        <time>2022-08-29T07:26:06Z</time>
      </trkpt>
      <trkpt lat="42.4152560" lon="-2.8988330">
        <ele>728.2</ele>
        <time>2022-08-29T07:26:07Z</time>
      </trkpt>
      <trkpt lat="42.4152670" lon="-2.8988850">
        <ele>728.2</ele>
        <time>2022-08-29T07:26:08Z</time>
      </trkpt>
      <trkpt lat="42.4152780" lon="-2.8989410">
        <ele>728.2</ele>
        <time>2022-08-29T07:26:09Z</time>
      </trkpt>
      <trkpt lat="42.4152870" lon="-2.8989960">
        <ele>728.2</ele>
        <time>2022-08-29T07:26:10Z</time>
      </trkpt>
      <trkpt lat="42.4152960" lon="-2.8990510">
        <ele>728.0</ele>
        <time>2022-08-29T07:26:11Z</time>
      </trkpt>
      <trkpt lat="42.4153070" lon="-2.8991050">
        <ele>728.0</ele>
        <time>2022-08-29T07:26:12Z</time>
      </trkpt>
      <trkpt lat="42.4153160" lon="-2.8991600">
        <ele>728.2</ele>
        <time>2022-08-29T07:26:13Z</time>
      </trkpt>
      <trkpt lat="42.4153230" lon="-2.8992160">
        <ele>728.2</ele>
        <time>2022-08-29T07:26:14Z</time>
      </trkpt>
      <trkpt lat="42.4153280" lon="-2.8992760">
        <ele>728.2</ele>
        <time>2022-08-29T07:26:15Z</time>
      </trkpt>
      <trkpt lat="42.4153360" lon="-2.8993360">
        <ele>728.0</ele>
        <time>2022-08-29T07:26:16Z</time>
      </trkpt>
      <trkpt lat="42.4153440" lon="-2.8993980">
        <ele>728.0</ele>
        <time>2022-08-29T07:26:17Z</time>
      </trkpt>
      <trkpt lat="42.4153520" lon="-2.8994610">
        <ele>728.0</ele>
        <time>2022-08-29T07:26:18Z</time>
      </trkpt>
      <trkpt lat="42.4153580" lon="-2.8995230">
        <ele>728.2</ele>
        <time>2022-08-29T07:26:19Z</time>
      </trkpt>
      <trkpt lat="42.4153650" lon="-2.8995860">
        <ele>728.0</ele>
        <time>2022-08-29T07:26:20Z</time>
      </trkpt>
      <trkpt lat="42.4153730" lon="-2.8996490">
        <ele>728.0</ele>
        <time>2022-08-29T07:26:21Z</time>
      </trkpt>
      <trkpt lat="42.4153820" lon="-2.8997120">
        <ele>728.2</ele>
        <time>2022-08-29T07:26:22Z</time>
      </trkpt>
      <trkpt lat="42.4153910" lon="-2.8997780">
        <ele>728.2</ele>
        <time>2022-08-29T07:26:23Z</time>
      </trkpt>
      <trkpt lat="42.4154020" lon="-2.8998420">
        <ele>728.2</ele>
        <time>2022-08-29T07:26:24Z</time>
      </trkpt>
      <trkpt lat="42.4154110" lon="-2.8999070">
        <ele>728.2</ele>
        <time>2022-08-29T07:26:25Z</time>
      </trkpt>
      <trkpt lat="42.4154130" lon="-2.8999730">
        <ele>728.4</ele>
        <time>2022-08-29T07:26:26Z</time>
      </trkpt>
      <trkpt lat="42.4154150" lon="-2.9000380">
        <ele>728.4</ele>
        <time>2022-08-29T07:26:27Z</time>
      </trkpt>
      <trkpt lat="42.4154230" lon="-2.9001050">
        <ele>728.4</ele>
        <time>2022-08-29T07:26:28Z</time>
      </trkpt>
      <trkpt lat="42.4154320" lon="-2.9001740">
        <ele>728.4</ele>
        <time>2022-08-29T07:26:29Z</time>
      </trkpt>
      <trkpt lat="42.4154430" lon="-2.9002440">
        <ele>728.6</ele>
        <time>2022-08-29T07:26:30Z</time>
      </trkpt>
      <trkpt lat="42.4154540" lon="-2.9003140">
        <ele>728.6</ele>
        <time>2022-08-29T07:26:31Z</time>
      </trkpt>
      <trkpt lat="42.4154660" lon="-2.9003860">
        <ele>728.6</ele>
        <time>2022-08-29T07:26:32Z</time>
      </trkpt>
      <trkpt lat="42.4154770" lon="-2.9004590">
        <ele>728.6</ele>
        <time>2022-08-29T07:26:33Z</time>
      </trkpt>
      <trkpt lat="42.4154880" lon="-2.9005320">
        <ele>728.6</ele>
        <time>2022-08-29T07:26:34Z</time>
      </trkpt>
      <trkpt lat="42.4154980" lon="-2.9006060">
        <ele>728.6</ele>
        <time>2022-08-29T07:26:35Z</time>
      </trkpt>
      <trkpt lat="42.4155050" lon="-2.9006800">
        <ele>728.6</ele>
        <time>2022-08-29T07:26:36Z</time>
      </trkpt>
      <trkpt lat="42.4155100" lon="-2.9007540">
        <ele>728.6</ele>
        <time>2022-08-29T07:26:37Z</time>
      </trkpt>
      <trkpt lat="42.4155160" lon="-2.9008250">
        <ele>728.6</ele>
        <time>2022-08-29T07:26:38Z</time>
      </trkpt>
      <trkpt lat="42.4155240" lon="-2.9008980">
        <ele>728.6</ele>
        <time>2022-08-29T07:26:39Z</time>
      </trkpt>
      <trkpt lat="42.4155320" lon="-2.9009710">
        <ele>728.6</ele>
        <time>2022-08-29T07:26:40Z</time>
      </trkpt>
      <trkpt lat="42.4155420" lon="-2.9010420">
        <ele>728.6</ele>
        <time>2022-08-29T07:26:41Z</time>
      </trkpt>
      <trkpt lat="42.4155520" lon="-2.9011120">
        <ele>728.6</ele>
        <time>2022-08-29T07:26:42Z</time>
      </trkpt>
      <trkpt lat="42.4155620" lon="-2.9011820">
        <ele>728.8</ele>
        <time>2022-08-29T07:26:43Z</time>
      </trkpt>
      <trkpt lat="42.4155710" lon="-2.9012520">
        <ele>728.6</ele>
        <time>2022-08-29T07:26:44Z</time>
      </trkpt>
      <trkpt lat="42.4155800" lon="-2.9013220">
        <ele>728.6</ele>
        <time>2022-08-29T07:26:45Z</time>
      </trkpt>
      <trkpt lat="42.4155890" lon="-2.9013910">
        <ele>728.6</ele>
        <time>2022-08-29T07:26:46Z</time>
      </trkpt>
      <trkpt lat="42.4156000" lon="-2.9014590">
        <ele>728.4</ele>
        <time>2022-08-29T07:26:47Z</time>
      </trkpt>
      <trkpt lat="42.4156110" lon="-2.9015260">
        <ele>728.4</ele>
        <time>2022-08-29T07:26:48Z</time>
      </trkpt>
      <trkpt lat="42.4156210" lon="-2.9015950">
        <ele>728.4</ele>
        <time>2022-08-29T07:26:49Z</time>
      </trkpt>
      <trkpt lat="42.4156310" lon="-2.9016650">
        <ele>728.4</ele>
        <time>2022-08-29T07:26:50Z</time>
      </trkpt>
      <trkpt lat="42.4156400" lon="-2.9017330">
        <ele>728.4</ele>
        <time>2022-08-29T07:26:51Z</time>
      </trkpt>
      <trkpt lat="42.4156470" lon="-2.9018000">
        <ele>728.4</ele>
        <time>2022-08-29T07:26:52Z</time>
      </trkpt>
      <trkpt lat="42.4156540" lon="-2.9018650">
        <ele>728.2</ele>
        <time>2022-08-29T07:26:53Z</time>
      </trkpt>
      <trkpt lat="42.4156610" lon="-2.9019270">
        <ele>728.4</ele>
        <time>2022-08-29T07:26:54Z</time>
      </trkpt>
      <trkpt lat="42.4156680" lon="-2.9019890">
        <ele>728.4</ele>
        <time>2022-08-29T07:26:55Z</time>
      </trkpt>
      <trkpt lat="42.4156750" lon="-2.9020480">
        <ele>728.4</ele>
        <time>2022-08-29T07:26:56Z</time>
      </trkpt>
      <trkpt lat="42.4156860" lon="-2.9021060">
        <ele>728.4</ele>
        <time>2022-08-29T07:26:57Z</time>
      </trkpt>
      <trkpt lat="42.4156980" lon="-2.9021610">
        <ele>728.4</ele>
        <time>2022-08-29T07:26:58Z</time>
      </trkpt>
      <trkpt lat="42.4157080" lon="-2.9022150">
        <ele>728.4</ele>
        <time>2022-08-29T07:26:59Z</time>
      </trkpt>
      <trkpt lat="42.4157170" lon="-2.9022690">
        <ele>728.2</ele>
        <time>2022-08-29T07:27:00Z</time>
      </trkpt>
      <trkpt lat="42.4157250" lon="-2.9023210">
        <ele>728.2</ele>
        <time>2022-08-29T07:27:01Z</time>
      </trkpt>
      <trkpt lat="42.4157320" lon="-2.9023740">
        <ele>728.2</ele>
        <time>2022-08-29T07:27:02Z</time>
      </trkpt>
      <trkpt lat="42.4157360" lon="-2.9024290">
        <ele>728.2</ele>
        <time>2022-08-29T07:27:03Z</time>
      </trkpt>
      <trkpt lat="42.4157410" lon="-2.9024840">
        <ele>728.2</ele>
        <time>2022-08-29T07:27:04Z</time>
      </trkpt>
      <trkpt lat="42.4157450" lon="-2.9025400">
        <ele>728.2</ele>
        <time>2022-08-29T07:27:05Z</time>
      </trkpt>
      <trkpt lat="42.4157520" lon="-2.9025960">
        <ele>728.2</ele>
        <time>2022-08-29T07:27:06Z</time>
      </trkpt>
      <trkpt lat="42.4157600" lon="-2.9026540">
        <ele>728.2</ele>
        <time>2022-08-29T07:27:07Z</time>
      </trkpt>
      <trkpt lat="42.4157690" lon="-2.9027130">
        <ele>728.0</ele>
        <time>2022-08-29T07:27:08Z</time>
      </trkpt>
      <trkpt lat="42.4157780" lon="-2.9027740">
        <ele>728.0</ele>
        <time>2022-08-29T07:27:09Z</time>
      </trkpt>
      <trkpt lat="42.4157860" lon="-2.9028350">
        <ele>728.0</ele>
        <time>2022-08-29T07:27:10Z</time>
      </trkpt>
      <trkpt lat="42.4157950" lon="-2.9028950">
        <ele>728.0</ele>
        <time>2022-08-29T07:27:11Z</time>
      </trkpt>
      <trkpt lat="42.4158020" lon="-2.9029540">
        <ele>728.0</ele>
        <time>2022-08-29T07:27:12Z</time>
      </trkpt>
      <trkpt lat="42.4158080" lon="-2.9030110">
        <ele>728.0</ele>
        <time>2022-08-29T07:27:13Z</time>
      </trkpt>
      <trkpt lat="42.4158140" lon="-2.9030630">
        <ele>727.8</ele>
        <time>2022-08-29T07:27:14Z</time>
      </trkpt>
      <trkpt lat="42.4158200" lon="-2.9031120">
        <ele>727.8</ele>
        <time>2022-08-29T07:27:15Z</time>
      </trkpt>
      <trkpt lat="42.4158280" lon="-2.9031570">
        <ele>727.8</ele>
        <time>2022-08-29T07:27:16Z</time>
      </trkpt>
      <trkpt lat="42.4158350" lon="-2.9031980">
        <ele>727.8</ele>
        <time>2022-08-29T07:27:17Z</time>
      </trkpt>
      <trkpt lat="42.4158440" lon="-2.9032370">
        <ele>728.0</ele>
        <time>2022-08-29T07:27:18Z</time>
      </trkpt>
      <trkpt lat="42.4158540" lon="-2.9032760">
        <ele>727.8</ele>
        <time>2022-08-29T07:27:19Z</time>
      </trkpt>
      <trkpt lat="42.4158610" lon="-2.9033150">
        <ele>727.8</ele>
        <time>2022-08-29T07:27:20Z</time>
      </trkpt>
      <trkpt lat="42.4158660" lon="-2.9033550">
        <ele>727.8</ele>
        <time>2022-08-29T07:27:21Z</time>
      </trkpt>
      <trkpt lat="42.4158710" lon="-2.9033970">
        <ele>727.8</ele>
        <time>2022-08-29T07:27:22Z</time>
      </trkpt>
      <trkpt lat="42.4158760" lon="-2.9034380">
        <ele>727.8</ele>
        <time>2022-08-29T07:27:23Z</time>
      </trkpt>
      <trkpt lat="42.4158800" lon="-2.9034770">
        <ele>727.8</ele>
        <time>2022-08-29T07:27:24Z</time>
      </trkpt>
      <trkpt lat="42.4158860" lon="-2.9035170">
        <ele>728.0</ele>
        <time>2022-08-29T07:27:25Z</time>
      </trkpt>
      <trkpt lat="42.4158920" lon="-2.9035570">
        <ele>728.0</ele>
        <time>2022-08-29T07:27:26Z</time>
      </trkpt>
      <trkpt lat="42.4158960" lon="-2.9035960">
        <ele>728.0</ele>
        <time>2022-08-29T07:27:27Z</time>
      </trkpt>
      <trkpt lat="42.4158990" lon="-2.9036320">
        <ele>728.0</ele>
        <time>2022-08-29T07:27:28Z</time>
      </trkpt>
      <trkpt lat="42.4159010" lon="-2.9036650">
        <ele>728.2</ele>
        <time>2022-08-29T07:27:29Z</time>
      </trkpt>
      <trkpt lat="42.4159030" lon="-2.9036950">
        <ele>728.4</ele>
        <time>2022-08-29T07:27:30Z</time>
      </trkpt>
      <trkpt lat="42.4159050" lon="-2.9037220">
        <ele>728.2</ele>
        <time>2022-08-29T07:27:31Z</time>
      </trkpt>
      <trkpt lat="42.4159090" lon="-2.9037470">
        <ele>728.2</ele>
        <time>2022-08-29T07:27:32Z</time>
      </trkpt>
      <trkpt lat="42.4159130" lon="-2.9037750">
        <ele>728.6</ele>
        <time>2022-08-29T07:27:33Z</time>
      </trkpt>
      <trkpt lat="42.4159150" lon="-2.9038070">
        <ele>728.6</ele>
        <time>2022-08-29T07:27:34Z</time>
      </trkpt>
      <trkpt lat="42.4159180" lon="-2.9038410">
        <ele>728.6</ele>
        <time>2022-08-29T07:27:35Z</time>
      </trkpt>
      <trkpt lat="42.4159230" lon="-2.9038780">
        <ele>729.0</ele>
        <time>2022-08-29T07:27:36Z</time>
      </trkpt>
      <trkpt lat="42.4159280" lon="-2.9039140">
        <ele>729.2</ele>
        <time>2022-08-29T07:27:37Z</time>
      </trkpt>
      <trkpt lat="42.4159320" lon="-2.9039530">
        <ele>729.2</ele>
        <time>2022-08-29T07:27:38Z</time>
      </trkpt>
      <trkpt lat="42.4159360" lon="-2.9039920">
        <ele>729.4</ele>
        <time>2022-08-29T07:27:39Z</time>
      </trkpt>
      <trkpt lat="42.4159410" lon="-2.9040310">
        <ele>729.6</ele>
        <time>2022-08-29T07:27:40Z</time>
      </trkpt>
      <trkpt lat="42.4159470" lon="-2.9040690">
        <ele>730.0</ele>
        <time>2022-08-29T07:27:41Z</time>
      </trkpt>
      <trkpt lat="42.4159530" lon="-2.9041060">
        <ele>730.0</ele>
        <time>2022-08-29T07:27:42Z</time>
      </trkpt>
      <trkpt lat="42.4159580" lon="-2.9041450">
        <ele>730.2</ele>
        <time>2022-08-29T07:27:43Z</time>
      </trkpt>
      <trkpt lat="42.4159620" lon="-2.9041830">
        <ele>730.0</ele>
        <time>2022-08-29T07:27:44Z</time>
      </trkpt>
      <trkpt lat="42.4159670" lon="-2.9042200">
        <ele>730.6</ele>
        <time>2022-08-29T07:27:45Z</time>
      </trkpt>
      <trkpt lat="42.4159720" lon="-2.9042560">
        <ele>730.8</ele>
        <time>2022-08-29T07:27:46Z</time>
      </trkpt>
      <trkpt lat="42.4159770" lon="-2.9042910">
        <ele>731.0</ele>
        <time>2022-08-29T07:27:47Z</time>
      </trkpt>
      <trkpt lat="42.4159810" lon="-2.9043260">
        <ele>731.4</ele>
        <time>2022-08-29T07:27:48Z</time>
      </trkpt>
      <trkpt lat="42.4159850" lon="-2.9043610">
        <ele>731.6</ele>
        <time>2022-08-29T07:27:49Z</time>
      </trkpt>
      <trkpt lat="42.4159890" lon="-2.9043950">
        <ele>731.8</ele>
        <time>2022-08-29T07:27:50Z</time>
      </trkpt>
      <trkpt lat="42.4159930" lon="-2.9044300">
        <ele>732.0</ele>
        <time>2022-08-29T07:27:51Z</time>
      </trkpt>
      <trkpt lat="42.4159980" lon="-2.9044650">
        <ele>732.4</ele>
        <time>2022-08-29T07:27:52Z</time>
      </trkpt>
      <trkpt lat="42.4160020" lon="-2.9045000">
        <ele>732.8</ele>
        <time>2022-08-29T07:27:53Z</time>
      </trkpt>
      <trkpt lat="42.4160070" lon="-2.9045360">
        <ele>733.2</ele>
        <time>2022-08-29T07:27:54Z</time>
      </trkpt>
      <trkpt lat="42.4160140" lon="-2.9045720">
        <ele>733.4</ele>
        <time>2022-08-29T07:27:55Z</time>
      </trkpt>
      <trkpt lat="42.4160220" lon="-2.9046070">
        <ele>733.4</ele>
        <time>2022-08-29T07:27:56Z</time>
      </trkpt>
      <trkpt lat="42.4160290" lon="-2.9046460">
        <ele>733.8</ele>
        <time>2022-08-29T07:27:57Z</time>
      </trkpt>
      <trkpt lat="42.4160350" lon="-2.9046860">
        <ele>734.0</ele>
        <time>2022-08-29T07:27:58Z</time>
      </trkpt>
      <trkpt lat="42.4160400" lon="-2.9047240">
        <ele>734.2</ele>
        <time>2022-08-29T07:27:59Z</time>
      </trkpt>
      <trkpt lat="42.4160430" lon="-2.9047580">
        <ele>734.6</ele>
        <time>2022-08-29T07:28:00Z</time>
      </trkpt>
      <trkpt lat="42.4160460" lon="-2.9047910">
        <ele>734.6</ele>
        <time>2022-08-29T07:28:01Z</time>
      </trkpt>
      <trkpt lat="42.4160520" lon="-2.9048200">
        <ele>734.8</ele>
        <time>2022-08-29T07:28:02Z</time>
      </trkpt>
      <trkpt lat="42.4160580" lon="-2.9048480">
        <ele>735.0</ele>
        <time>2022-08-29T07:28:03Z</time>
      </trkpt>
      <trkpt lat="42.4160630" lon="-2.9048760">
        <ele>735.2</ele>
        <time>2022-08-29T07:28:04Z</time>
      </trkpt>
      <trkpt lat="42.4160650" lon="-2.9049050">
        <ele>735.4</ele>
        <time>2022-08-29T07:28:05Z</time>
      </trkpt>
      <trkpt lat="42.4160680" lon="-2.9049350">
        <ele>735.4</ele>
        <time>2022-08-29T07:28:06Z</time>
      </trkpt>
      <trkpt lat="42.4160730" lon="-2.9049650">
        <ele>735.4</ele>
        <time>2022-08-29T07:28:07Z</time>
      </trkpt>
      <trkpt lat="42.4160780" lon="-2.9049970">
        <ele>735.2</ele>
        <time>2022-08-29T07:28:08Z</time>
      </trkpt>
      <trkpt lat="42.4160830" lon="-2.9050290">
        <ele>735.4</ele>
        <time>2022-08-29T07:28:09Z</time>
      </trkpt>
      <trkpt lat="42.4160900" lon="-2.9050640">
        <ele>735.4</ele>
        <time>2022-08-29T07:28:10Z</time>
      </trkpt>
      <trkpt lat="42.4160980" lon="-2.9051020">
        <ele>735.4</ele>
        <time>2022-08-29T07:28:11Z</time>
      </trkpt>
      <trkpt lat="42.4161070" lon="-2.9051450">
        <ele>735.4</ele>
        <time>2022-08-29T07:28:12Z</time>
      </trkpt>
      <trkpt lat="42.4161160" lon="-2.9051950">
        <ele>735.2</ele>
        <time>2022-08-29T07:28:13Z</time>
      </trkpt>
      <trkpt lat="42.4161270" lon="-2.9052490">
        <ele>735.2</ele>
        <time>2022-08-29T07:28:14Z</time>
      </trkpt>
      <trkpt lat="42.4161420" lon="-2.9053090">
        <ele>735.2</ele>
        <time>2022-08-29T07:28:15Z</time>
      </trkpt>
      <trkpt lat="42.4161640" lon="-2.9053770">
        <ele>735.2</ele>
        <time>2022-08-29T07:28:16Z</time>
      </trkpt>
      <trkpt lat="42.4161870" lon="-2.9054500">
        <ele>735.2</ele>
        <time>2022-08-29T07:28:17Z</time>
      </trkpt>
      <trkpt lat="42.4162120" lon="-2.9055340">
        <ele>735.2</ele>
        <time>2022-08-29T07:28:18Z</time>
      </trkpt>
      <trkpt lat="42.4162410" lon="-2.9056280">
        <ele>735.2</ele>
        <time>2022-08-29T07:28:19Z</time>
      </trkpt>
      <trkpt lat="42.4162750" lon="-2.9057300">
        <ele>735.0</ele>
        <time>2022-08-29T07:28:20Z</time>
      </trkpt>
      <trkpt lat="42.4163140" lon="-2.9058400">
        <ele>734.8</ele>
        <time>2022-08-29T07:28:21Z</time>
      </trkpt>
      <trkpt lat="42.4163560" lon="-2.9059590">
        <ele>734.4</ele>
        <time>2022-08-29T07:28:22Z</time>
      </trkpt>
      <trkpt lat="42.4164040" lon="-2.9060900">
        <ele>734.0</ele>
        <time>2022-08-29T07:28:23Z</time>
      </trkpt>
      <trkpt lat="42.4164530" lon="-2.9062300">
        <ele>733.6</ele>
        <time>2022-08-29T07:28:24Z</time>
      </trkpt>
      <trkpt lat="42.4165030" lon="-2.9063750">
        <ele>733.0</ele>
        <time>2022-08-29T07:28:25Z</time>
      </trkpt>
      <trkpt lat="42.4165560" lon="-2.9065250">
        <ele>732.6</ele>
        <time>2022-08-29T07:28:26Z</time>
      </trkpt>
      <trkpt lat="42.4166110" lon="-2.9066830">
        <ele>732.0</ele>
        <time>2022-08-29T07:28:27Z</time>
      </trkpt>
      <trkpt lat="42.4166660" lon="-2.9068450">
        <ele>731.0</ele>
        <time>2022-08-29T07:28:28Z</time>
      </trkpt>
      <trkpt lat="42.4167220" lon="-2.9070070">
        <ele>729.6</ele>
        <time>2022-08-29T07:28:29Z</time>
      </trkpt>
      <trkpt lat="42.4167800" lon="-2.9071720">
        <ele>727.6</ele>
        <time>2022-08-29T07:28:30Z</time>
      </trkpt>
      <trkpt lat="42.4168410" lon="-2.9073350">
        <ele>726.0</ele>
        <time>2022-08-29T07:28:31Z</time>
      </trkpt>
      <trkpt lat="42.4168990" lon="-2.9074940">
        <ele>724.4</ele>
        <time>2022-08-29T07:28:32Z</time>
      </trkpt>
      <trkpt lat="42.4169570" lon="-2.9076520">
        <ele>722.8</ele>
        <time>2022-08-29T07:28:33Z</time>
      </trkpt>
      <trkpt lat="42.4170130" lon="-2.9078080">
        <ele>720.6</ele>
        <time>2022-08-29T07:28:34Z</time>
      </trkpt>
      <trkpt lat="42.4170680" lon="-2.9079640">
        <ele>718.2</ele>
        <time>2022-08-29T07:28:35Z</time>
      </trkpt>
      <trkpt lat="42.4171210" lon="-2.9081170">
        <ele>716.0</ele>
        <time>2022-08-29T07:28:36Z</time>
      </trkpt>
      <trkpt lat="42.4171740" lon="-2.9082680">
        <ele>714.4</ele>
        <time>2022-08-29T07:28:37Z</time>
      </trkpt>
      <trkpt lat="42.4172280" lon="-2.9084180">
        <ele>713.0</ele>
        <time>2022-08-29T07:28:38Z</time>
      </trkpt>
      <trkpt lat="42.4172780" lon="-2.9085670">
        <ele>711.8</ele>
        <time>2022-08-29T07:28:39Z</time>
      </trkpt>
      <trkpt lat="42.4173260" lon="-2.9087100">
        <ele>710.8</ele>
        <time>2022-08-29T07:28:40Z</time>
      </trkpt>
      <trkpt lat="42.4173750" lon="-2.9088460">
        <ele>710.2</ele>
        <time>2022-08-29T07:28:41Z</time>
      </trkpt>
      <trkpt lat="42.4174240" lon="-2.9089770">
        <ele>709.8</ele>
        <time>2022-08-29T07:28:42Z</time>
      </trkpt>
      <trkpt lat="42.4174670" lon="-2.9091010">
        <ele>709.8</ele>
        <time>2022-08-29T07:28:43Z</time>
      </trkpt>
      <trkpt lat="42.4175070" lon="-2.9092180">
        <ele>709.8</ele>
        <time>2022-08-29T07:28:44Z</time>
      </trkpt>
      <trkpt lat="42.4175430" lon="-2.9093270">
        <ele>709.6</ele>
        <time>2022-08-29T07:28:45Z</time>
      </trkpt>
      <trkpt lat="42.4175780" lon="-2.9094290">
        <ele>709.6</ele>
        <time>2022-08-29T07:28:46Z</time>
      </trkpt>
      <trkpt lat="42.4176120" lon="-2.9095250">
        <ele>709.6</ele>
        <time>2022-08-29T07:28:47Z</time>
      </trkpt>
      <trkpt lat="42.4176430" lon="-2.9096180">
        <ele>709.6</ele>
        <time>2022-08-29T07:28:48Z</time>
      </trkpt>
      <trkpt lat="42.4176740" lon="-2.9097070">
        <ele>709.6</ele>
        <time>2022-08-29T07:28:49Z</time>
      </trkpt>
      <trkpt lat="42.4177030" lon="-2.9097900">
        <ele>709.6</ele>
        <time>2022-08-29T07:28:50Z</time>
      </trkpt>
      <trkpt lat="42.4177310" lon="-2.9098690">
        <ele>709.6</ele>
        <time>2022-08-29T07:28:51Z</time>
      </trkpt>
      <trkpt lat="42.4177580" lon="-2.9099450">
        <ele>710.0</ele>
        <time>2022-08-29T07:28:52Z</time>
      </trkpt>
      <trkpt lat="42.4177840" lon="-2.9100170">
        <ele>710.6</ele>
        <time>2022-08-29T07:28:53Z</time>
      </trkpt>
      <trkpt lat="42.4178060" lon="-2.9100840">
        <ele>711.4</ele>
        <time>2022-08-29T07:28:54Z</time>
      </trkpt>
      <trkpt lat="42.4178280" lon="-2.9101480">
        <ele>711.8</ele>
        <time>2022-08-29T07:28:55Z</time>
      </trkpt>
      <trkpt lat="42.4178490" lon="-2.9102090">
        <ele>712.0</ele>
        <time>2022-08-29T07:28:56Z</time>
      </trkpt>
      <trkpt lat="42.4178680" lon="-2.9102670">
        <ele>712.4</ele>
        <time>2022-08-29T07:28:57Z</time>
      </trkpt>
      <trkpt lat="42.4178850" lon="-2.9103220">
        <ele>713.2</ele>
        <time>2022-08-29T07:28:58Z</time>
      </trkpt>
      <trkpt lat="42.4179030" lon="-2.9103760">
        <ele>713.6</ele>
        <time>2022-08-29T07:28:59Z</time>
      </trkpt>
      <trkpt lat="42.4179200" lon="-2.9104270">
        <ele>714.0</ele>
        <time>2022-08-29T07:29:00Z</time>
      </trkpt>
      <trkpt lat="42.4179360" lon="-2.9104750">
        <ele>714.6</ele>
        <time>2022-08-29T07:29:01Z</time>
      </trkpt>
      <trkpt lat="42.4179510" lon="-2.9105200">
        <ele>715.0</ele>
        <time>2022-08-29T07:29:02Z</time>
      </trkpt>
      <trkpt lat="42.4179670" lon="-2.9105630">
        <ele>715.4</ele>
        <time>2022-08-29T07:29:03Z</time>
      </trkpt>
      <trkpt lat="42.4179830" lon="-2.9106050">
        <ele>715.8</ele>
        <time>2022-08-29T07:29:04Z</time>
      </trkpt>
      <trkpt lat="42.4179970" lon="-2.9106470">
        <ele>716.2</ele>
        <time>2022-08-29T07:29:05Z</time>
      </trkpt>
      <trkpt lat="42.4180100" lon="-2.9106850">
        <ele>716.2</ele>
        <time>2022-08-29T07:29:06Z</time>
      </trkpt>
      <trkpt lat="42.4180230" lon="-2.9107200">
        <ele>716.2</ele>
        <time>2022-08-29T07:29:07Z</time>
      </trkpt>
      <trkpt lat="42.4180360" lon="-2.9107500">
        <ele>716.4</ele>
        <time>2022-08-29T07:29:08Z</time>
      </trkpt>
      <trkpt lat="42.4180470" lon="-2.9107790">
        <ele>716.6</ele>
        <time>2022-08-29T07:29:09Z</time>
      </trkpt>
      <trkpt lat="42.4180550" lon="-2.9108090">
        <ele>717.0</ele>
        <time>2022-08-29T07:29:10Z</time>
      </trkpt>
      <trkpt lat="42.4180660" lon="-2.9108380">
        <ele>717.2</ele>
        <time>2022-08-29T07:29:11Z</time>
      </trkpt>
      <trkpt lat="42.4180760" lon="-2.9108660">
        <ele>717.2</ele>
        <time>2022-08-29T07:29:12Z</time>
      </trkpt>
      <trkpt lat="42.4180830" lon="-2.9108920">
        <ele>717.4</ele>
        <time>2022-08-29T07:29:13Z</time>
      </trkpt>
      <trkpt lat="42.4180910" lon="-2.9109150">
        <ele>717.4</ele>
        <time>2022-08-29T07:29:14Z</time>
      </trkpt>
      <trkpt lat="42.4181010" lon="-2.9109380">
        <ele>717.8</ele>
        <time>2022-08-29T07:29:15Z</time>
      </trkpt>
      <trkpt lat="42.4181140" lon="-2.9109600">
        <ele>717.8</ele>
        <time>2022-08-29T07:29:16Z</time>
      </trkpt>
      <trkpt lat="42.4181280" lon="-2.9109830">
        <ele>718.0</ele>
        <time>2022-08-29T07:29:17Z</time>
      </trkpt>
      <trkpt lat="42.4181440" lon="-2.9110080">
        <ele>718.2</ele>
        <time>2022-08-29T07:29:18Z</time>
      </trkpt>
      <trkpt lat="42.4181620" lon="-2.9110340">
        <ele>718.2</ele>
        <time>2022-08-29T07:29:19Z</time>
      </trkpt>
      <trkpt lat="42.4181820" lon="-2.9110620">
        <ele>718.4</ele>
        <time>2022-08-29T07:29:20Z</time>
      </trkpt>
      <trkpt lat="42.4182020" lon="-2.9110950">
        <ele>718.2</ele>
        <time>2022-08-29T07:29:21Z</time>
      </trkpt>
      <trkpt lat="42.4182220" lon="-2.9111280">
        <ele>718.4</ele>
        <time>2022-08-29T07:29:22Z</time>
      </trkpt>
      <trkpt lat="42.4182450" lon="-2.9111630">
        <ele>718.4</ele>
        <time>2022-08-29T07:29:23Z</time>
      </trkpt>
      <trkpt lat="42.4182680" lon="-2.9112030">
        <ele>718.4</ele>
        <time>2022-08-29T07:29:24Z</time>
      </trkpt>
      <trkpt lat="42.4182890" lon="-2.9112480">
        <ele>718.4</ele>
        <time>2022-08-29T07:29:25Z</time>
      </trkpt>
      <trkpt lat="42.4183120" lon="-2.9112940">
        <ele>718.4</ele>
        <time>2022-08-29T07:29:26Z</time>
      </trkpt>
      <trkpt lat="42.4183390" lon="-2.9113420">
        <ele>718.4</ele>
        <time>2022-08-29T07:29:27Z</time>
      </trkpt>
      <trkpt lat="42.4183700" lon="-2.9113880">
        <ele>718.6</ele>
        <time>2022-08-29T07:29:28Z</time>
      </trkpt>
      <trkpt lat="42.4184020" lon="-2.9114390">
        <ele>718.4</ele>
        <time>2022-08-29T07:29:29Z</time>
      </trkpt>
      <trkpt lat="42.4184350" lon="-2.9114950">
        <ele>718.4</ele>
        <time>2022-08-29T07:29:30Z</time>
      </trkpt>
      <trkpt lat="42.4184710" lon="-2.9115550">
        <ele>718.4</ele>
        <time>2022-08-29T07:29:31Z</time>
      </trkpt>
      <trkpt lat="42.4185080" lon="-2.9116180">
        <ele>718.2</ele>
        <time>2022-08-29T07:29:32Z</time>
      </trkpt>
      <trkpt lat="42.4185480" lon="-2.9116860">
        <ele>718.0</ele>
        <time>2022-08-29T07:29:33Z</time>
      </trkpt>
      <trkpt lat="42.4185890" lon="-2.9117580">
        <ele>717.6</ele>
        <time>2022-08-29T07:29:34Z</time>
      </trkpt>
      <trkpt lat="42.4186340" lon="-2.9118330">
        <ele>717.4</ele>
        <time>2022-08-29T07:29:35Z</time>
      </trkpt>
      <trkpt lat="42.4186800" lon="-2.9119100">
        <ele>717.2</ele>
        <time>2022-08-29T07:29:36Z</time>
      </trkpt>
      <trkpt lat="42.4187250" lon="-2.9119900">
        <ele>717.0</ele>
        <time>2022-08-29T07:29:37Z</time>
      </trkpt>
      <trkpt lat="42.4187710" lon="-2.9120730">
        <ele>716.6</ele>
        <time>2022-08-29T07:29:38Z</time>
      </trkpt>
      <trkpt lat="42.4188180" lon="-2.9121520">
        <ele>716.0</ele>
        <time>2022-08-29T07:29:39Z</time>
      </trkpt>
      <trkpt lat="42.4188660" lon="-2.9122300">
        <ele>715.6</ele>
        <time>2022-08-29T07:29:40Z</time>
      </trkpt>
      <trkpt lat="42.4189120" lon="-2.9123060">
        <ele>715.2</ele>
        <time>2022-08-29T07:29:41Z</time>
      </trkpt>
      <trkpt lat="42.4189560" lon="-2.9123810">
        <ele>715.0</ele>
        <time>2022-08-29T07:29:42Z</time>
      </trkpt>
      <trkpt lat="42.4190010" lon="-2.9124540">
        <ele>714.8</ele>
        <time>2022-08-29T07:29:43Z</time>
      </trkpt>
      <trkpt lat="42.4190430" lon="-2.9125240">
        <ele>714.4</ele>
        <time>2022-08-29T07:29:44Z</time>
      </trkpt>
      <trkpt lat="42.4190840" lon="-2.9125890">
        <ele>713.4</ele>
        <time>2022-08-29T07:29:45Z</time>
      </trkpt>
      <trkpt lat="42.4191240" lon="-2.9126540">
        <ele>713.0</ele>
        <time>2022-08-29T07:29:46Z</time>
      </trkpt>
      <trkpt lat="42.4191620" lon="-2.9127150">
        <ele>712.8</ele>
        <time>2022-08-29T07:29:47Z</time>
      </trkpt>
      <trkpt lat="42.4191970" lon="-2.9127730">
        <ele>712.6</ele>
        <time>2022-08-29T07:29:48Z</time>
      </trkpt>
      <trkpt lat="42.4192290" lon="-2.9128280">
        <ele>712.2</ele>
        <time>2022-08-29T07:29:49Z</time>
      </trkpt>
      <trkpt lat="42.4192590" lon="-2.9128780">
        <ele>712.4</ele>
        <time>2022-08-29T07:29:50Z</time>
      </trkpt>
      <trkpt lat="42.4192880" lon="-2.9129250">
        <ele>712.2</ele>
        <time>2022-08-29T07:29:51Z</time>
      </trkpt>
      <trkpt lat="42.4193150" lon="-2.9129690">
        <ele>712.4</ele>
        <time>2022-08-29T07:29:52Z</time>
      </trkpt>
      <trkpt lat="42.4193400" lon="-2.9130120">
        <ele>712.4</ele>
        <time>2022-08-29T07:29:53Z</time>
      </trkpt>
      <trkpt lat="42.4193640" lon="-2.9130550">
        <ele>712.2</ele>
        <time>2022-08-29T07:29:54Z</time>
      </trkpt>
      <trkpt lat="42.4193890" lon="-2.9130980">
        <ele>712.4</ele>
        <time>2022-08-29T07:29:55Z</time>
      </trkpt>
      <trkpt lat="42.4194130" lon="-2.9131390">
        <ele>712.4</ele>
        <time>2022-08-29T07:29:56Z</time>
      </trkpt>
      <trkpt lat="42.4194370" lon="-2.9131790">
        <ele>712.4</ele>
        <time>2022-08-29T07:29:57Z</time>
      </trkpt>
      <trkpt lat="42.4194620" lon="-2.9132200">
        <ele>712.6</ele>
        <time>2022-08-29T07:29:58Z</time>
      </trkpt>
      <trkpt lat="42.4194870" lon="-2.9132610">
        <ele>712.6</ele>
        <time>2022-08-29T07:29:59Z</time>
      </trkpt>
      <trkpt lat="42.4195120" lon="-2.9133030">
        <ele>712.8</ele>
        <time>2022-08-29T07:30:00Z</time>
      </trkpt>
      <trkpt lat="42.4195350" lon="-2.9133450">
        <ele>713.0</ele>
        <time>2022-08-29T07:30:01Z</time>
      </trkpt>
      <trkpt lat="42.4195570" lon="-2.9133860">
        <ele>713.2</ele>
        <time>2022-08-29T07:30:02Z</time>
      </trkpt>
      <trkpt lat="42.4195790" lon="-2.9134260">
        <ele>713.4</ele>
        <time>2022-08-29T07:30:03Z</time>
      </trkpt>
      <trkpt lat="42.4196020" lon="-2.9134620">
        <ele>713.4</ele>
        <time>2022-08-29T07:30:04Z</time>
      </trkpt>
      <trkpt lat="42.4196230" lon="-2.9134980">
        <ele>713.6</ele>
        <time>2022-08-29T07:30:05Z</time>
      </trkpt>
      <trkpt lat="42.4196430" lon="-2.9135310">
        <ele>713.6</ele>
        <time>2022-08-29T07:30:06Z</time>
      </trkpt>
      <trkpt lat="42.4196610" lon="-2.9135620">
        <ele>713.8</ele>
        <time>2022-08-29T07:30:07Z</time>
      </trkpt>
      <trkpt lat="42.4196800" lon="-2.9135930">
        <ele>714.0</ele>
        <time>2022-08-29T07:30:08Z</time>
      </trkpt>
      <trkpt lat="42.4196980" lon="-2.9136250">
        <ele>714.2</ele>
        <time>2022-08-29T07:30:09Z</time>
      </trkpt>
      <trkpt lat="42.4197170" lon="-2.9136560">
        <ele>714.2</ele>
        <time>2022-08-29T07:30:10Z</time>
      </trkpt>
      <trkpt lat="42.4197360" lon="-2.9136850">
        <ele>714.4</ele>
        <time>2022-08-29T07:30:11Z</time>
      </trkpt>
      <trkpt lat="42.4197540" lon="-2.9137140">
        <ele>714.8</ele>
        <time>2022-08-29T07:30:12Z</time>
      </trkpt>
      <trkpt lat="42.4197730" lon="-2.9137430">
        <ele>715.2</ele>
        <time>2022-08-29T07:30:13Z</time>
      </trkpt>
      <trkpt lat="42.4197900" lon="-2.9137720">
        <ele>715.4</ele>
        <time>2022-08-29T07:30:14Z</time>
      </trkpt>
      <trkpt lat="42.4198080" lon="-2.9138000">
        <ele>715.6</ele>
        <time>2022-08-29T07:30:15Z</time>
      </trkpt>
      <trkpt lat="42.4198250" lon="-2.9138270">
        <ele>715.8</ele>
        <time>2022-08-29T07:30:16Z</time>
      </trkpt>
      <trkpt lat="42.4198410" lon="-2.9138560">
        <ele>715.8</ele>
        <time>2022-08-29T07:30:17Z</time>
      </trkpt>
      <trkpt lat="42.4198580" lon="-2.9138840">
        <ele>716.2</ele>
        <time>2022-08-29T07:30:18Z</time>
      </trkpt>
      <trkpt lat="42.4198750" lon="-2.9139120">
        <ele>716.4</ele>
        <time>2022-08-29T07:30:19Z</time>
      </trkpt>
      <trkpt lat="42.4198920" lon="-2.9139400">
        <ele>716.4</ele>
        <time>2022-08-29T07:30:20Z</time>
      </trkpt>
      <trkpt lat="42.4199090" lon="-2.9139690">
        <ele>716.6</ele>
        <time>2022-08-29T07:30:21Z</time>
      </trkpt>
      <trkpt lat="42.4199250" lon="-2.9139980">
        <ele>716.8</ele>
        <time>2022-08-29T07:30:22Z</time>
      </trkpt>
      <trkpt lat="42.4199410" lon="-2.9140280">
        <ele>717.0</ele>
        <time>2022-08-29T07:30:23Z</time>
      </trkpt>
      <trkpt lat="42.4199580" lon="-2.9140570">
        <ele>717.2</ele>
        <time>2022-08-29T07:30:24Z</time>
      </trkpt>
      <trkpt lat="42.4199740" lon="-2.9140850">
        <ele>717.4</ele>
        <time>2022-08-29T07:30:25Z</time>
      </trkpt>
      <trkpt lat="42.4199910" lon="-2.9141130">
        <ele>717.8</ele>
        <time>2022-08-29T07:30:26Z</time>
      </trkpt>
      <trkpt lat="42.4200080" lon="-2.9141420">
        <ele>717.8</ele>
        <time>2022-08-29T07:30:27Z</time>
      </trkpt>
      <trkpt lat="42.4200250" lon="-2.9141700">
        <ele>718.0</ele>
        <time>2022-08-29T07:30:28Z</time>
      </trkpt>
      <trkpt lat="42.4200400" lon="-2.9141970">
        <ele>718.2</ele>
        <time>2022-08-29T07:30:29Z</time>
      </trkpt>
      <trkpt lat="42.4200560" lon="-2.9142240">
        <ele>718.6</ele>
        <time>2022-08-29T07:30:30Z</time>
      </trkpt>
      <trkpt lat="42.4200720" lon="-2.9142500">
        <ele>718.6</ele>
        <time>2022-08-29T07:30:31Z</time>
      </trkpt>
      <trkpt lat="42.4200860" lon="-2.9142760">
        <ele>718.8</ele>
        <time>2022-08-29T07:30:32Z</time>
      </trkpt>
      <trkpt lat="42.4201000" lon="-2.9143010">
        <ele>719.2</ele>
        <time>2022-08-29T07:30:33Z</time>
      </trkpt>
      <trkpt lat="42.4201160" lon="-2.9143260">
        <ele>719.6</ele>
        <time>2022-08-29T07:30:34Z</time>
      </trkpt>
      <trkpt lat="42.4201320" lon="-2.9143480">
        <ele>719.8</ele>
        <time>2022-08-29T07:30:35Z</time>
      </trkpt>
      <trkpt lat="42.4201480" lon="-2.9143730">
        <ele>719.8</ele>
        <time>2022-08-29T07:30:36Z</time>
      </trkpt>
      <trkpt lat="42.4201630" lon="-2.9143980">
        <ele>720.2</ele>
        <time>2022-08-29T07:30:37Z</time>
      </trkpt>
      <trkpt lat="42.4201770" lon="-2.9144230">
        <ele>720.4</ele>
        <time>2022-08-29T07:30:38Z</time>
      </trkpt>
      <trkpt lat="42.4201920" lon="-2.9144470">
        <ele>720.4</ele>
        <time>2022-08-29T07:30:39Z</time>
      </trkpt>
      <trkpt lat="42.4202070" lon="-2.9144720">
        <ele>720.8</ele>
        <time>2022-08-29T07:30:40Z</time>
      </trkpt>
      <trkpt lat="42.4202210" lon="-2.9144980">
        <ele>721.0</ele>
        <time>2022-08-29T07:30:41Z</time>
      </trkpt>
      <trkpt lat="42.4202350" lon="-2.9145260">
        <ele>721.0</ele>
        <time>2022-08-29T07:30:42Z</time>
      </trkpt>
      <trkpt lat="42.4202500" lon="-2.9145540">
        <ele>721.4</ele>
        <time>2022-08-29T07:30:43Z</time>
      </trkpt>
      <trkpt lat="42.4202650" lon="-2.9145790">
        <ele>721.4</ele>
        <time>2022-08-29T07:30:44Z</time>
      </trkpt>
      <trkpt lat="42.4202810" lon="-2.9146040">
        <ele>721.4</ele>
        <time>2022-08-29T07:30:45Z</time>
      </trkpt>
      <trkpt lat="42.4202970" lon="-2.9146290">
        <ele>721.8</ele>
        <time>2022-08-29T07:30:46Z</time>
      </trkpt>
      <trkpt lat="42.4203130" lon="-2.9146580">
        <ele>722.0</ele>
        <time>2022-08-29T07:30:47Z</time>
      </trkpt>
      <trkpt lat="42.4203280" lon="-2.9146850">
        <ele>722.2</ele>
        <time>2022-08-29T07:30:48Z</time>
      </trkpt>
      <trkpt lat="42.4203430" lon="-2.9147130">
        <ele>722.4</ele>
        <time>2022-08-29T07:30:49Z</time>
      </trkpt>
      <trkpt lat="42.4203580" lon="-2.9147410">
        <ele>722.6</ele>
        <time>2022-08-29T07:30:50Z</time>
      </trkpt>
      <trkpt lat="42.4203730" lon="-2.9147690">
        <ele>722.8</ele>
        <time>2022-08-29T07:30:51Z</time>
      </trkpt>
      <trkpt lat="42.4203880" lon="-2.9147980">
        <ele>722.8</ele>
        <time>2022-08-29T07:30:52Z</time>
      </trkpt>
      <trkpt lat="42.4204030" lon="-2.9148270">
        <ele>723.0</ele>
        <time>2022-08-29T07:30:53Z</time>
      </trkpt>
      <trkpt lat="42.4204190" lon="-2.9148570">
        <ele>723.0</ele>
        <time>2022-08-29T07:30:54Z</time>
      </trkpt>
      <trkpt lat="42.4204350" lon="-2.9148840">
        <ele>723.4</ele>
        <time>2022-08-29T07:30:55Z</time>
      </trkpt>
      <trkpt lat="42.4204520" lon="-2.9149110">
        <ele>723.4</ele>
        <time>2022-08-29T07:30:56Z</time>
      </trkpt>
      <trkpt lat="42.4204680" lon="-2.9149390">
        <ele>723.6</ele>
        <time>2022-08-29T07:30:57Z</time>
      </trkpt>
      <trkpt lat="42.4204830" lon="-2.9149690">
        <ele>724.0</ele>
        <time>2022-08-29T07:30:58Z</time>
      </trkpt>
      <trkpt lat="42.4205010" lon="-2.9149990">
        <ele>723.8</ele>
        <time>2022-08-29T07:30:59Z</time>
      </trkpt>
      <trkpt lat="42.4205200" lon="-2.9150290">
        <ele>723.8</ele>
        <time>2022-08-29T07:31:00Z</time>
      </trkpt>
      <trkpt lat="42.4205390" lon="-2.9150600">
        <ele>724.0</ele>
        <time>2022-08-29T07:31:01Z</time>
      </trkpt>
      <trkpt lat="42.4205570" lon="-2.9150900">
        <ele>724.2</ele>
        <time>2022-08-29T07:31:02Z</time>
      </trkpt>
      <trkpt lat="42.4205750" lon="-2.9151200">
        <ele>724.4</ele>
        <time>2022-08-29T07:31:03Z</time>
      </trkpt>
      <trkpt lat="42.4205930" lon="-2.9151500">
        <ele>724.6</ele>
        <time>2022-08-29T07:31:04Z</time>
      </trkpt>
      <trkpt lat="42.4206110" lon="-2.9151810">
        <ele>724.6</ele>
        <time>2022-08-29T07:31:05Z</time>
      </trkpt>
      <trkpt lat="42.4206300" lon="-2.9152120">
        <ele>724.8</ele>
        <time>2022-08-29T07:31:06Z</time>
      </trkpt>
      <trkpt lat="42.4206490" lon="-2.9152410">
        <ele>724.8</ele>
        <time>2022-08-29T07:31:07Z</time>
      </trkpt>
      <trkpt lat="42.4206700" lon="-2.9152690">
        <ele>725.0</ele>
        <time>2022-08-29T07:31:08Z</time>
      </trkpt>
      <trkpt lat="42.4206900" lon="-2.9152990">
        <ele>725.0</ele>
        <time>2022-08-29T07:31:09Z</time>
      </trkpt>
      <trkpt lat="42.4207100" lon="-2.9153280">
        <ele>725.0</ele>
        <time>2022-08-29T07:31:10Z</time>
      </trkpt>
      <trkpt lat="42.4207300" lon="-2.9153580">
        <ele>725.0</ele>
        <time>2022-08-29T07:31:11Z</time>
      </trkpt>
      <trkpt lat="42.4207490" lon="-2.9153870">
        <ele>725.2</ele>
        <time>2022-08-29T07:31:12Z</time>
      </trkpt>
      <trkpt lat="42.4207670" lon="-2.9154150">
        <ele>725.4</ele>
        <time>2022-08-29T07:31:13Z</time>
      </trkpt>
      <trkpt lat="42.4207850" lon="-2.9154440">
        <ele>725.4</ele>
        <time>2022-08-29T07:31:14Z</time>
      </trkpt>
      <trkpt lat="42.4208040" lon="-2.9154730">
        <ele>725.6</ele>
        <time>2022-08-29T07:31:15Z</time>
      </trkpt>
      <trkpt lat="42.4208220" lon="-2.9155020">
        <ele>725.6</ele>
        <time>2022-08-29T07:31:16Z</time>
      </trkpt>
      <trkpt lat="42.4208390" lon="-2.9155320">
        <ele>725.8</ele>
        <time>2022-08-29T07:31:17Z</time>
      </trkpt>
      <trkpt lat="42.4208550" lon="-2.9155620">
        <ele>725.8</ele>
        <time>2022-08-29T07:31:18Z</time>
      </trkpt>
      <trkpt lat="42.4208680" lon="-2.9155920">
        <ele>725.8</ele>
        <time>2022-08-29T07:31:19Z</time>
      </trkpt>
      <trkpt lat="42.4208820" lon="-2.9156220">
        <ele>725.8</ele>
        <time>2022-08-29T07:31:20Z</time>
      </trkpt>
      <trkpt lat="42.4208960" lon="-2.9156520">
        <ele>726.0</ele>
        <time>2022-08-29T07:31:21Z</time>
      </trkpt>
      <trkpt lat="42.4209110" lon="-2.9156820">
        <ele>726.0</ele>
        <time>2022-08-29T07:31:22Z</time>
      </trkpt>
      <trkpt lat="42.4209270" lon="-2.9157100">
        <ele>726.2</ele>
        <time>2022-08-29T07:31:23Z</time>
      </trkpt>
      <trkpt lat="42.4209450" lon="-2.9157360">
        <ele>726.4</ele>
        <time>2022-08-29T07:31:24Z</time>
      </trkpt>
      <trkpt lat="42.4209650" lon="-2.9157590">
        <ele>726.2</ele>
        <time>2022-08-29T07:31:25Z</time>
      </trkpt>
      <trkpt lat="42.4209830" lon="-2.9157810">
        <ele>726.4</ele>
        <time>2022-08-29T07:31:26Z</time>
      </trkpt>
      <trkpt lat="42.4210000" lon="-2.9158070">
        <ele>726.6</ele>
        <time>2022-08-29T07:31:27Z</time>
      </trkpt>
      <trkpt lat="42.4210140" lon="-2.9158350">
        <ele>726.6</ele>
        <time>2022-08-29T07:31:28Z</time>
      </trkpt>
      <trkpt lat="42.4210280" lon="-2.9158650">
        <ele>726.8</ele>
        <time>2022-08-29T07:31:29Z</time>
      </trkpt>
      <trkpt lat="42.4210430" lon="-2.9158920">
        <ele>726.8</ele>
        <time>2022-08-29T07:31:30Z</time>
      </trkpt>
      <trkpt lat="42.4210600" lon="-2.9159190">
        <ele>727.0</ele>
        <time>2022-08-29T07:31:31Z</time>
      </trkpt>
      <trkpt lat="42.4210790" lon="-2.9159440">
        <ele>727.0</ele>
        <time>2022-08-29T07:31:32Z</time>
      </trkpt>
      <trkpt lat="42.4210960" lon="-2.9159700">
        <ele>727.2</ele>
        <time>2022-08-29T07:31:33Z</time>
      </trkpt>
      <trkpt lat="42.4211130" lon="-2.9159970">
        <ele>727.4</ele>
        <time>2022-08-29T07:31:34Z</time>
      </trkpt>
      <trkpt lat="42.4211290" lon="-2.9160240">
        <ele>727.4</ele>
        <time>2022-08-29T07:31:35Z</time>
      </trkpt>
      <trkpt lat="42.4211450" lon="-2.9160510">
        <ele>727.6</ele>
        <time>2022-08-29T07:31:36Z</time>
      </trkpt>
      <trkpt lat="42.4211630" lon="-2.9160760">
        <ele>727.4</ele>
        <time>2022-08-29T07:31:37Z</time>
      </trkpt>
      <trkpt lat="42.4211790" lon="-2.9161010">
        <ele>727.6</ele>
        <time>2022-08-29T07:31:38Z</time>
      </trkpt>
      <trkpt lat="42.4211940" lon="-2.9161300">
        <ele>727.8</ele>
        <time>2022-08-29T07:31:39Z</time>
      </trkpt>
      <trkpt lat="42.4212080" lon="-2.9161570">
        <ele>728.0</ele>
        <time>2022-08-29T07:31:40Z</time>
      </trkpt>
      <trkpt lat="42.4212220" lon="-2.9161840">
        <ele>728.2</ele>
        <time>2022-08-29T07:31:41Z</time>
      </trkpt>
      <trkpt lat="42.4212390" lon="-2.9162100">
        <ele>728.2</ele>
        <time>2022-08-29T07:31:42Z</time>
      </trkpt>
      <trkpt lat="42.4212540" lon="-2.9162360">
        <ele>728.4</ele>
        <time>2022-08-29T07:31:43Z</time>
      </trkpt>
      <trkpt lat="42.4212700" lon="-2.9162600">
        <ele>728.4</ele>
        <time>2022-08-29T07:31:44Z</time>
      </trkpt>
      <trkpt lat="42.4212870" lon="-2.9162860">
        <ele>728.6</ele>
        <time>2022-08-29T07:31:45Z</time>
      </trkpt>
      <trkpt lat="42.4213050" lon="-2.9163130">
        <ele>728.6</ele>
        <time>2022-08-29T07:31:46Z</time>
      </trkpt>
      <trkpt lat="42.4213250" lon="-2.9163380">
        <ele>728.8</ele>
        <time>2022-08-29T07:31:47Z</time>
      </trkpt>
      <trkpt lat="42.4213450" lon="-2.9163620">
        <ele>728.8</ele>
        <time>2022-08-29T07:31:48Z</time>
      </trkpt>
      <trkpt lat="42.4213650" lon="-2.9163880">
        <ele>729.0</ele>
        <time>2022-08-29T07:31:49Z</time>
      </trkpt>
      <trkpt lat="42.4213850" lon="-2.9164160">
        <ele>729.4</ele>
        <time>2022-08-29T07:31:50Z</time>
      </trkpt>
      <trkpt lat="42.4214030" lon="-2.9164460">
        <ele>729.6</ele>
        <time>2022-08-29T07:31:51Z</time>
      </trkpt>
      <trkpt lat="42.4214210" lon="-2.9164770">
        <ele>729.6</ele>
        <time>2022-08-29T07:31:52Z</time>
      </trkpt>
      <trkpt lat="42.4214390" lon="-2.9165060">
        <ele>729.8</ele>
        <time>2022-08-29T07:31:53Z</time>
      </trkpt>
      <trkpt lat="42.4214580" lon="-2.9165340">
        <ele>730.0</ele>
        <time>2022-08-29T07:31:54Z</time>
      </trkpt>
      <trkpt lat="42.4214760" lon="-2.9165600">
        <ele>730.2</ele>
        <time>2022-08-29T07:31:55Z</time>
      </trkpt>
      <trkpt lat="42.4214940" lon="-2.9165870">
        <ele>730.2</ele>
        <time>2022-08-29T07:31:56Z</time>
      </trkpt>
      <trkpt lat="42.4215110" lon="-2.9166160">
        <ele>730.2</ele>
        <time>2022-08-29T07:31:57Z</time>
      </trkpt>
      <trkpt lat="42.4215270" lon="-2.9166450">
        <ele>730.2</ele>
        <time>2022-08-29T07:31:58Z</time>
      </trkpt>
      <trkpt lat="42.4215430" lon="-2.9166750">
        <ele>730.4</ele>
        <time>2022-08-29T07:31:59Z</time>
      </trkpt>
      <trkpt lat="42.4215620" lon="-2.9167050">
        <ele>730.6</ele>
        <time>2022-08-29T07:32:00Z</time>
      </trkpt>
      <trkpt lat="42.4215800" lon="-2.9167360">
        <ele>730.8</ele>
        <time>2022-08-29T07:32:01Z</time>
      </trkpt>
      <trkpt lat="42.4215970" lon="-2.9167680">
        <ele>730.8</ele>
        <time>2022-08-29T07:32:02Z</time>
      </trkpt>
      <trkpt lat="42.4216140" lon="-2.9168000">
        <ele>730.8</ele>
        <time>2022-08-29T07:32:03Z</time>
      </trkpt>
      <trkpt lat="42.4216310" lon="-2.9168310">
        <ele>730.8</ele>
        <time>2022-08-29T07:32:04Z</time>
      </trkpt>
      <trkpt lat="42.4216500" lon="-2.9168630">
        <ele>730.8</ele>
        <time>2022-08-29T07:32:05Z</time>
      </trkpt>
      <trkpt lat="42.4216720" lon="-2.9168940">
        <ele>731.0</ele>
        <time>2022-08-29T07:32:06Z</time>
      </trkpt>
      <trkpt lat="42.4216940" lon="-2.9169250">
        <ele>731.0</ele>
        <time>2022-08-29T07:32:07Z</time>
      </trkpt>
      <trkpt lat="42.4217180" lon="-2.9169570">
        <ele>731.0</ele>
        <time>2022-08-29T07:32:08Z</time>
      </trkpt>
      <trkpt lat="42.4217400" lon="-2.9169890">
        <ele>731.2</ele>
        <time>2022-08-29T07:32:09Z</time>
      </trkpt>
      <trkpt lat="42.4217600" lon="-2.9170240">
        <ele>731.2</ele>
        <time>2022-08-29T07:32:10Z</time>
      </trkpt>
      <trkpt lat="42.4217800" lon="-2.9170600">
        <ele>731.4</ele>
        <time>2022-08-29T07:32:11Z</time>
      </trkpt>
      <trkpt lat="42.4217980" lon="-2.9170960">
        <ele>731.4</ele>
        <time>2022-08-29T07:32:12Z</time>
      </trkpt>
      <trkpt lat="42.4218180" lon="-2.9171330">
        <ele>731.4</ele>
        <time>2022-08-29T07:32:13Z</time>
      </trkpt>
      <trkpt lat="42.4218390" lon="-2.9171710">
        <ele>731.2</ele>
        <time>2022-08-29T07:32:14Z</time>
      </trkpt>
      <trkpt lat="42.4218620" lon="-2.9172110">
        <ele>731.4</ele>
        <time>2022-08-29T07:32:15Z</time>
      </trkpt>
      <trkpt lat="42.4218850" lon="-2.9172550">
        <ele>731.4</ele>
        <time>2022-08-29T07:32:16Z</time>
      </trkpt>
      <trkpt lat="42.4219110" lon="-2.9173000">
        <ele>731.6</ele>
        <time>2022-08-29T07:32:17Z</time>
      </trkpt>
      <trkpt lat="42.4219390" lon="-2.9173460">
        <ele>731.4</ele>
        <time>2022-08-29T07:32:18Z</time>
      </trkpt>
      <trkpt lat="42.4219680" lon="-2.9173920">
        <ele>731.4</ele>
        <time>2022-08-29T07:32:19Z</time>
      </trkpt>
      <trkpt lat="42.4219990" lon="-2.9174400">
        <ele>731.4</ele>
        <time>2022-08-29T07:32:20Z</time>
      </trkpt>
      <trkpt lat="42.4220300" lon="-2.9174920">
        <ele>731.4</ele>
        <time>2022-08-29T07:32:21Z</time>
      </trkpt>
      <trkpt lat="42.4220620" lon="-2.9175480">
        <ele>731.4</ele>
        <time>2022-08-29T07:32:22Z</time>
      </trkpt>
      <trkpt lat="42.4220950" lon="-2.9176070">
        <ele>731.4</ele>
        <time>2022-08-29T07:32:23Z</time>
      </trkpt>
      <trkpt lat="42.4221310" lon="-2.9176690">
        <ele>731.2</ele>
        <time>2022-08-29T07:32:24Z</time>
      </trkpt>
      <trkpt lat="42.4221700" lon="-2.9177340">
        <ele>731.2</ele>
        <time>2022-08-29T07:32:25Z</time>
      </trkpt>
      <trkpt lat="42.4222130" lon="-2.9178060">
        <ele>731.2</ele>
        <time>2022-08-29T07:32:26Z</time>
      </trkpt>
      <trkpt lat="42.4222560" lon="-2.9178810">
        <ele>730.8</ele>
        <time>2022-08-29T07:32:27Z</time>
      </trkpt>
      <trkpt lat="42.4223020" lon="-2.9179570">
        <ele>730.8</ele>
        <time>2022-08-29T07:32:28Z</time>
      </trkpt>
      <trkpt lat="42.4223510" lon="-2.9180350">
        <ele>730.4</ele>
        <time>2022-08-29T07:32:29Z</time>
      </trkpt>
      <trkpt lat="42.4224010" lon="-2.9181160">
        <ele>730.2</ele>
        <time>2022-08-29T07:32:30Z</time>
      </trkpt>
      <trkpt lat="42.4224520" lon="-2.9182020">
        <ele>729.8</ele>
        <time>2022-08-29T07:32:31Z</time>
      </trkpt>
      <trkpt lat="42.4225050" lon="-2.9182910">
        <ele>729.6</ele>
        <time>2022-08-29T07:32:32Z</time>
      </trkpt>
      <trkpt lat="42.4225590" lon="-2.9183820">
        <ele>729.2</ele>
        <time>2022-08-29T07:32:33Z</time>
      </trkpt>
      <trkpt lat="42.4226140" lon="-2.9184770">
        <ele>729.0</ele>
        <time>2022-08-29T07:32:34Z</time>
      </trkpt>
      <trkpt lat="42.4226700" lon="-2.9185720">
        <ele>728.8</ele>
        <time>2022-08-29T07:32:35Z</time>
      </trkpt>
      <trkpt lat="42.4227250" lon="-2.9186680">
        <ele>728.6</ele>
        <time>2022-08-29T07:32:36Z</time>
      </trkpt>
      <trkpt lat="42.4227790" lon="-2.9187650">
        <ele>727.8</ele>
        <time>2022-08-29T07:32:37Z</time>
      </trkpt>
      <trkpt lat="42.4228330" lon="-2.9188610">
        <ele>727.0</ele>
        <time>2022-08-29T07:32:38Z</time>
      </trkpt>
      <trkpt lat="42.4228900" lon="-2.9189550">
        <ele>725.6</ele>
        <time>2022-08-29T07:32:39Z</time>
      </trkpt>
      <trkpt lat="42.4229460" lon="-2.9190510">
        <ele>724.8</ele>
        <time>2022-08-29T07:32:40Z</time>
      </trkpt>
      <trkpt lat="42.4230040" lon="-2.9191440">
        <ele>724.4</ele>
        <time>2022-08-29T07:32:41Z</time>
      </trkpt>
      <trkpt lat="42.4230650" lon="-2.9192370">
        <ele>724.2</ele>
        <time>2022-08-29T07:32:42Z</time>
      </trkpt>
      <trkpt lat="42.4231330" lon="-2.9193280">
        <ele>723.8</ele>
        <time>2022-08-29T07:32:43Z</time>
      </trkpt>
      <trkpt lat="42.4232040" lon="-2.9194200">
        <ele>723.8</ele>
        <time>2022-08-29T07:32:44Z</time>
      </trkpt>
      <trkpt lat="42.4232800" lon="-2.9195140">
        <ele>723.2</ele>
        <time>2022-08-29T07:32:45Z</time>
      </trkpt>
      <trkpt lat="42.4233630" lon="-2.9196080">
        <ele>722.8</ele>
        <time>2022-08-29T07:32:46Z</time>
      </trkpt>
      <trkpt lat="42.4234520" lon="-2.9197050">
        <ele>722.6</ele>
        <time>2022-08-29T07:32:47Z</time>
      </trkpt>
      <trkpt lat="42.4235450" lon="-2.9198050">
        <ele>722.0</ele>
        <time>2022-08-29T07:32:48Z</time>
      </trkpt>
      <trkpt lat="42.4236420" lon="-2.9199120">
        <ele>721.6</ele>
        <time>2022-08-29T07:32:49Z</time>
      </trkpt>
      <trkpt lat="42.4237420" lon="-2.9200250">
        <ele>720.8</ele>
        <time>2022-08-29T07:32:50Z</time>
      </trkpt>
      <trkpt lat="42.4238460" lon="-2.9201460">
        <ele>720.2</ele>
        <time>2022-08-29T07:32:51Z</time>
      </trkpt>
      <trkpt lat="42.4239520" lon="-2.9202700">
        <ele>719.4</ele>
        <time>2022-08-29T07:32:52Z</time>
      </trkpt>
      <trkpt lat="42.4240620" lon="-2.9203960">
        <ele>718.8</ele>
        <time>2022-08-29T07:32:53Z</time>
      </trkpt>
      <trkpt lat="42.4241750" lon="-2.9205260">
        <ele>717.6</ele>
        <time>2022-08-29T07:32:54Z</time>
      </trkpt>
      <trkpt lat="42.4242940" lon="-2.9206580">
        <ele>716.2</ele>
        <time>2022-08-29T07:32:55Z</time>
      </trkpt>
      <trkpt lat="42.4244160" lon="-2.9207930">
        <ele>714.0</ele>
        <time>2022-08-29T07:32:56Z</time>
      </trkpt>
      <trkpt lat="42.4245400" lon="-2.9209300">
        <ele>712.6</ele>
        <time>2022-08-29T07:32:57Z</time>
      </trkpt>
      <trkpt lat="42.4246650" lon="-2.9210710">
        <ele>711.0</ele>
        <time>2022-08-29T07:32:58Z</time>
      </trkpt>
      <trkpt lat="42.4247920" lon="-2.9212170">
        <ele>707.8</ele>
        <time>2022-08-29T07:32:59Z</time>
      </trkpt>
      <trkpt lat="42.4249210" lon="-2.9213630">
        <ele>705.4</ele>
        <time>2022-08-29T07:33:00Z</time>
      </trkpt>
      <trkpt lat="42.4250520" lon="-2.9215100">
        <ele>702.8</ele>
        <time>2022-08-29T07:33:01Z</time>
      </trkpt>
      <trkpt lat="42.4251850" lon="-2.9216590">
        <ele>700.4</ele>
        <time>2022-08-29T07:33:02Z</time>
      </trkpt>
      <trkpt lat="42.4253190" lon="-2.9218120">
        <ele>698.2</ele>
        <time>2022-08-29T07:33:03Z</time>
      </trkpt>
      <trkpt lat="42.4254540" lon="-2.9219660">
        <ele>696.0</ele>
        <time>2022-08-29T07:33:04Z</time>
      </trkpt>
      <trkpt lat="42.4255880" lon="-2.9221160">
        <ele>693.6</ele>
        <time>2022-08-29T07:33:05Z</time>
      </trkpt>
      <trkpt lat="42.4257190" lon="-2.9222630">
        <ele>690.8</ele>
        <time>2022-08-29T07:33:06Z</time>
      </trkpt>
      <trkpt lat="42.4258460" lon="-2.9224070">
        <ele>689.6</ele>
        <time>2022-08-29T07:33:07Z</time>
      </trkpt>
      <trkpt lat="42.4259680" lon="-2.9225490">
        <ele>689.6</ele>
        <time>2022-08-29T07:33:08Z</time>
      </trkpt>
      <trkpt lat="42.4260880" lon="-2.9226890">
        <ele>686.6</ele>
        <time>2022-08-29T07:33:09Z</time>
      </trkpt>
      <trkpt lat="42.4262080" lon="-2.9228220">
        <ele>683.4</ele>
        <time>2022-08-29T07:33:10Z</time>
      </trkpt>
      <trkpt lat="42.4263250" lon="-2.9229530">
        <ele>680.6</ele>
        <time>2022-08-29T07:33:11Z</time>
      </trkpt>
      <trkpt lat="42.4264400" lon="-2.9230810">
        <ele>678.2</ele>
        <time>2022-08-29T07:33:12Z</time>
      </trkpt>
      <trkpt lat="42.4265540" lon="-2.9232060">
        <ele>676.0</ele>
        <time>2022-08-29T07:33:13Z</time>
      </trkpt>
      <trkpt lat="42.4266660" lon="-2.9233300">
        <ele>674.0</ele>
        <time>2022-08-29T07:33:14Z</time>
      </trkpt>
      <trkpt lat="42.4267760" lon="-2.9234530">
        <ele>672.4</ele>
        <time>2022-08-29T07:33:15Z</time>
      </trkpt>
      <trkpt lat="42.4268820" lon="-2.9235780">
        <ele>671.6</ele>
        <time>2022-08-29T07:33:16Z</time>
      </trkpt>
      <trkpt lat="42.4269840" lon="-2.9237020">
        <ele>671.2</ele>
        <time>2022-08-29T07:33:17Z</time>
      </trkpt>
      <trkpt lat="42.4270870" lon="-2.9238210">
        <ele>670.8</ele>
        <time>2022-08-29T07:33:18Z</time>
      </trkpt>
      <trkpt lat="42.4271890" lon="-2.9239370">
        <ele>670.6</ele>
        <time>2022-08-29T07:33:19Z</time>
      </trkpt>
      <trkpt lat="42.4272890" lon="-2.9240490">
        <ele>670.4</ele>
        <time>2022-08-29T07:33:20Z</time>
      </trkpt>
      <trkpt lat="42.4273870" lon="-2.9241590">
        <ele>670.0</ele>
        <time>2022-08-29T07:33:21Z</time>
      </trkpt>
      <trkpt lat="42.4274810" lon="-2.9242670">
        <ele>669.4</ele>
        <time>2022-08-29T07:33:22Z</time>
      </trkpt>
      <trkpt lat="42.4275740" lon="-2.9243720">
        <ele>668.8</ele>
        <time>2022-08-29T07:33:23Z</time>
      </trkpt>
      <trkpt lat="42.4276650" lon="-2.9244760">
        <ele>668.8</ele>
        <time>2022-08-29T07:33:24Z</time>
      </trkpt>
      <trkpt lat="42.4277540" lon="-2.9245810">
        <ele>668.4</ele>
        <time>2022-08-29T07:33:25Z</time>
      </trkpt>
      <trkpt lat="42.4278430" lon="-2.9246850">
        <ele>668.2</ele>
        <time>2022-08-29T07:33:26Z</time>
      </trkpt>
      <trkpt lat="42.4279310" lon="-2.9247880">
        <ele>668.0</ele>
        <time>2022-08-29T07:33:27Z</time>
      </trkpt>
      <trkpt lat="42.4280160" lon="-2.9248890">
        <ele>667.8</ele>
        <time>2022-08-29T07:33:28Z</time>
      </trkpt>
      <trkpt lat="42.4280970" lon="-2.9249870">
        <ele>667.4</ele>
        <time>2022-08-29T07:33:29Z</time>
      </trkpt>
      <trkpt lat="42.4281770" lon="-2.9250800">
        <ele>667.2</ele>
        <time>2022-08-29T07:33:30Z</time>
      </trkpt>
      <trkpt lat="42.4282560" lon="-2.9251680">
        <ele>667.0</ele>
        <time>2022-08-29T07:33:31Z</time>
      </trkpt>
      <trkpt lat="42.4283340" lon="-2.9252510">
        <ele>667.0</ele>
        <time>2022-08-29T07:33:32Z</time>
      </trkpt>
      <trkpt lat="42.4284060" lon="-2.9253300">
        <ele>667.0</ele>
        <time>2022-08-29T07:33:33Z</time>
      </trkpt>
      <trkpt lat="42.4284750" lon="-2.9254060">
        <ele>667.0</ele>
        <time>2022-08-29T07:33:34Z</time>
      </trkpt>
      <trkpt lat="42.4285390" lon="-2.9254790">
        <ele>666.8</ele>
        <time>2022-08-29T07:33:35Z</time>
      </trkpt>
      <trkpt lat="42.4286020" lon="-2.9255500">
        <ele>666.8</ele>
        <time>2022-08-29T07:33:36Z</time>
      </trkpt>
      <trkpt lat="42.4286630" lon="-2.9256190">
        <ele>667.0</ele>
        <time>2022-08-29T07:33:37Z</time>
      </trkpt>
      <trkpt lat="42.4287240" lon="-2.9256870">
        <ele>667.2</ele>
        <time>2022-08-29T07:33:38Z</time>
      </trkpt>
      <trkpt lat="42.4287850" lon="-2.9257530">
        <ele>667.2</ele>
        <time>2022-08-29T07:33:39Z</time>
      </trkpt>
      <trkpt lat="42.4288450" lon="-2.9258160">
        <ele>667.2</ele>
        <time>2022-08-29T07:33:40Z</time>
      </trkpt>
      <trkpt lat="42.4289010" lon="-2.9258780">
        <ele>667.4</ele>
        <time>2022-08-29T07:33:41Z</time>
      </trkpt>
      <trkpt lat="42.4289540" lon="-2.9259410">
        <ele>667.4</ele>
        <time>2022-08-29T07:33:42Z</time>
      </trkpt>
      <trkpt lat="42.4290060" lon="-2.9260030">
        <ele>667.6</ele>
        <time>2022-08-29T07:33:43Z</time>
      </trkpt>
      <trkpt lat="42.4290570" lon="-2.9260640">
        <ele>668.0</ele>
        <time>2022-08-29T07:33:44Z</time>
      </trkpt>
      <trkpt lat="42.4291100" lon="-2.9261250">
        <ele>668.4</ele>
        <time>2022-08-29T07:33:45Z</time>
      </trkpt>
      <trkpt lat="42.4291640" lon="-2.9261860">
        <ele>669.2</ele>
        <time>2022-08-29T07:33:46Z</time>
      </trkpt>
      <trkpt lat="42.4292180" lon="-2.9262470">
        <ele>669.6</ele>
        <time>2022-08-29T07:33:47Z</time>
      </trkpt>
      <trkpt lat="42.4292730" lon="-2.9263070">
        <ele>670.0</ele>
        <time>2022-08-29T07:33:48Z</time>
      </trkpt>
      <trkpt lat="42.4293280" lon="-2.9263660">
        <ele>670.6</ele>
        <time>2022-08-29T07:33:49Z</time>
      </trkpt>
      <trkpt lat="42.4293800" lon="-2.9264240">
        <ele>670.8</ele>
        <time>2022-08-29T07:33:50Z</time>
      </trkpt>
      <trkpt lat="42.4294280" lon="-2.9264850">
        <ele>671.0</ele>
        <time>2022-08-29T07:33:51Z</time>
      </trkpt>
      <trkpt lat="42.4294760" lon="-2.9265470">
        <ele>671.0</ele>
        <time>2022-08-29T07:33:52Z</time>
      </trkpt>
      <trkpt lat="42.4295240" lon="-2.9266040">
        <ele>671.2</ele>
        <time>2022-08-29T07:33:53Z</time>
      </trkpt>
      <trkpt lat="42.4295750" lon="-2.9266600">
        <ele>671.2</ele>
        <time>2022-08-29T07:33:54Z</time>
      </trkpt>
      <trkpt lat="42.4296240" lon="-2.9267190">
        <ele>671.2</ele>
        <time>2022-08-29T07:33:55Z</time>
      </trkpt>
      <trkpt lat="42.4296750" lon="-2.9267790">
        <ele>671.2</ele>
        <time>2022-08-29T07:33:56Z</time>
      </trkpt>
      <trkpt lat="42.4297280" lon="-2.9268360">
        <ele>671.2</ele>
        <time>2022-08-29T07:33:57Z</time>
      </trkpt>
      <trkpt lat="42.4297800" lon="-2.9268950">
        <ele>671.0</ele>
        <time>2022-08-29T07:33:58Z</time>
      </trkpt>
      <trkpt lat="42.4298320" lon="-2.9269540">
        <ele>671.0</ele>
        <time>2022-08-29T07:33:59Z</time>
      </trkpt>
      <trkpt lat="42.4298850" lon="-2.9270130">
        <ele>671.0</ele>
        <time>2022-08-29T07:34:00Z</time>
      </trkpt>
      <trkpt lat="42.4299380" lon="-2.9270720">
        <ele>671.0</ele>
        <time>2022-08-29T07:34:01Z</time>
      </trkpt>
      <trkpt lat="42.4299930" lon="-2.9271330">
        <ele>671.0</ele>
        <time>2022-08-29T07:34:02Z</time>
      </trkpt>
      <trkpt lat="42.4300500" lon="-2.9271970">
        <ele>670.6</ele>
        <time>2022-08-29T07:34:03Z</time>
      </trkpt>
      <trkpt lat="42.4301090" lon="-2.9272650">
        <ele>670.6</ele>
        <time>2022-08-29T07:34:04Z</time>
      </trkpt>
      <trkpt lat="42.4301710" lon="-2.9273360">
        <ele>670.4</ele>
        <time>2022-08-29T07:34:05Z</time>
      </trkpt>
      <trkpt lat="42.4302360" lon="-2.9274120">
        <ele>670.2</ele>
        <time>2022-08-29T07:34:06Z</time>
      </trkpt>
      <trkpt lat="42.4303070" lon="-2.9274930">
        <ele>669.8</ele>
        <time>2022-08-29T07:34:07Z</time>
      </trkpt>
      <trkpt lat="42.4303830" lon="-2.9275790">
        <ele>669.6</ele>
        <time>2022-08-29T07:34:08Z</time>
      </trkpt>
      <trkpt lat="42.4304660" lon="-2.9276700">
        <ele>669.6</ele>
        <time>2022-08-29T07:34:09Z</time>
      </trkpt>
      <trkpt lat="42.4305540" lon="-2.9277670">
        <ele>669.4</ele>
        <time>2022-08-29T07:34:10Z</time>
      </trkpt>
      <trkpt lat="42.4306460" lon="-2.9278700">
        <ele>669.4</ele>
        <time>2022-08-29T07:34:11Z</time>
      </trkpt>
      <trkpt lat="42.4307400" lon="-2.9279770">
        <ele>669.0</ele>
        <time>2022-08-29T07:34:12Z</time>
      </trkpt>
      <trkpt lat="42.4308370" lon="-2.9280890">
        <ele>668.8</ele>
        <time>2022-08-29T07:34:13Z</time>
      </trkpt>
      <trkpt lat="42.4309360" lon="-2.9282040">
        <ele>668.4</ele>
        <time>2022-08-29T07:34:14Z</time>
      </trkpt>
      <trkpt lat="42.4310360" lon="-2.9283220">
        <ele>668.0</ele>
        <time>2022-08-29T07:34:15Z</time>
      </trkpt>
      <trkpt lat="42.4311400" lon="-2.9284400">
        <ele>666.8</ele>
        <time>2022-08-29T07:34:16Z</time>
      </trkpt>
      <trkpt lat="42.4312470" lon="-2.9285620">
        <ele>665.2</ele>
        <time>2022-08-29T07:34:17Z</time>
      </trkpt>
      <trkpt lat="42.4313570" lon="-2.9286870">
        <ele>663.8</ele>
        <time>2022-08-29T07:34:18Z</time>
      </trkpt>
      <trkpt lat="42.4314690" lon="-2.9288170">
        <ele>663.0</ele>
        <time>2022-08-29T07:34:19Z</time>
      </trkpt>
      <trkpt lat="42.4315840" lon="-2.9289490">
        <ele>663.0</ele>
        <time>2022-08-29T07:34:20Z</time>
      </trkpt>
      <trkpt lat="42.4317030" lon="-2.9290830">
        <ele>661.2</ele>
        <time>2022-08-29T07:34:21Z</time>
      </trkpt>
      <trkpt lat="42.4318260" lon="-2.9292210">
        <ele>659.4</ele>
        <time>2022-08-29T07:34:22Z</time>
      </trkpt>
      <trkpt lat="42.4319510" lon="-2.9293620">
        <ele>658.4</ele>
        <time>2022-08-29T07:34:23Z</time>
      </trkpt>
      <trkpt lat="42.4320740" lon="-2.9295020">
        <ele>656.8</ele>
        <time>2022-08-29T07:34:24Z</time>
      </trkpt>
      <trkpt lat="42.4321970" lon="-2.9296400">
        <ele>655.2</ele>
        <time>2022-08-29T07:34:25Z</time>
      </trkpt>
      <trkpt lat="42.4323170" lon="-2.9297760">
        <ele>653.4</ele>
        <time>2022-08-29T07:34:26Z</time>
      </trkpt>
      <trkpt lat="42.4324320" lon="-2.9299080">
        <ele>651.8</ele>
        <time>2022-08-29T07:34:27Z</time>
      </trkpt>
      <trkpt lat="42.4325460" lon="-2.9300370">
        <ele>649.4</ele>
        <time>2022-08-29T07:34:28Z</time>
      </trkpt>
      <trkpt lat="42.4326570" lon="-2.9301640">
        <ele>648.0</ele>
        <time>2022-08-29T07:34:29Z</time>
      </trkpt>
      <trkpt lat="42.4327650" lon="-2.9302850">
        <ele>646.0</ele>
        <time>2022-08-29T07:34:30Z</time>
      </trkpt>
      <trkpt lat="42.4328710" lon="-2.9304030">
        <ele>643.4</ele>
        <time>2022-08-29T07:34:31Z</time>
      </trkpt>
      <trkpt lat="42.4329720" lon="-2.9305180">
        <ele>642.0</ele>
        <time>2022-08-29T07:34:32Z</time>
      </trkpt>
      <trkpt lat="42.4330690" lon="-2.9306340">
        <ele>640.6</ele>
        <time>2022-08-29T07:34:33Z</time>
      </trkpt>
      <trkpt lat="42.4331650" lon="-2.9307470">
        <ele>639.8</ele>
        <time>2022-08-29T07:34:34Z</time>
      </trkpt>
      <trkpt lat="42.4332600" lon="-2.9308550">
        <ele>639.2</ele>
        <time>2022-08-29T07:34:35Z</time>
      </trkpt>
      <trkpt lat="42.4333560" lon="-2.9309630">
        <ele>638.8</ele>
        <time>2022-08-29T07:34:36Z</time>
      </trkpt>
      <trkpt lat="42.4334520" lon="-2.9310710">
        <ele>638.6</ele>
        <time>2022-08-29T07:34:37Z</time>
      </trkpt>
      <trkpt lat="42.4335500" lon="-2.9311800">
        <ele>638.4</ele>
        <time>2022-08-29T07:34:38Z</time>
      </trkpt>
      <trkpt lat="42.4336490" lon="-2.9312940">
        <ele>638.4</ele>
        <time>2022-08-29T07:34:39Z</time>
      </trkpt>
      <trkpt lat="42.4337520" lon="-2.9314100">
        <ele>638.0</ele>
        <time>2022-08-29T07:34:40Z</time>
      </trkpt>
      <trkpt lat="42.4338580" lon="-2.9315270">
        <ele>638.0</ele>
        <time>2022-08-29T07:34:41Z</time>
      </trkpt>
      <trkpt lat="42.4339650" lon="-2.9316440">
        <ele>637.8</ele>
        <time>2022-08-29T07:34:42Z</time>
      </trkpt>
      <trkpt lat="42.4340720" lon="-2.9317580">
        <ele>637.4</ele>
        <time>2022-08-29T07:34:43Z</time>
      </trkpt>
      <trkpt lat="42.4341780" lon="-2.9318700">
        <ele>637.4</ele>
        <time>2022-08-29T07:34:44Z</time>
      </trkpt>
      <trkpt lat="42.4342840" lon="-2.9319790">
        <ele>637.2</ele>
        <time>2022-08-29T07:34:45Z</time>
      </trkpt>
      <trkpt lat="42.4343900" lon="-2.9320840">
        <ele>637.0</ele>
        <time>2022-08-29T07:34:46Z</time>
      </trkpt>
      <trkpt lat="42.4344930" lon="-2.9321850">
        <ele>636.8</ele>
        <time>2022-08-29T07:34:47Z</time>
      </trkpt>
      <trkpt lat="42.4345940" lon="-2.9322820">
        <ele>636.6</ele>
        <time>2022-08-29T07:34:48Z</time>
      </trkpt>
      <trkpt lat="42.4346920" lon="-2.9323770">
        <ele>636.0</ele>
        <time>2022-08-29T07:34:49Z</time>
      </trkpt>
      <trkpt lat="42.4347880" lon="-2.9324690">
        <ele>634.6</ele>
        <time>2022-08-29T07:34:50Z</time>
      </trkpt>
      <trkpt lat="42.4348810" lon="-2.9325600">
        <ele>633.2</ele>
        <time>2022-08-29T07:34:51Z</time>
      </trkpt>
      <trkpt lat="42.4349700" lon="-2.9326520">
        <ele>632.4</ele>
        <time>2022-08-29T07:34:52Z</time>
      </trkpt>
      <trkpt lat="42.4350570" lon="-2.9327400">
        <ele>631.6</ele>
        <time>2022-08-29T07:34:53Z</time>
      </trkpt>
      <trkpt lat="42.4351400" lon="-2.9328240">
        <ele>631.4</ele>
        <time>2022-08-29T07:34:54Z</time>
      </trkpt>
      <trkpt lat="42.4352190" lon="-2.9329070">
        <ele>631.4</ele>
        <time>2022-08-29T07:34:55Z</time>
      </trkpt>
      <trkpt lat="42.4352960" lon="-2.9329900">
        <ele>631.2</ele>
        <time>2022-08-29T07:34:56Z</time>
      </trkpt>
      <trkpt lat="42.4353720" lon="-2.9330700">
        <ele>631.2</ele>
        <time>2022-08-29T07:34:57Z</time>
      </trkpt>
      <trkpt lat="42.4354470" lon="-2.9331480">
        <ele>631.2</ele>
        <time>2022-08-29T07:34:58Z</time>
      </trkpt>
      <trkpt lat="42.4355220" lon="-2.9332240">
        <ele>631.2</ele>
        <time>2022-08-29T07:34:59Z</time>
      </trkpt>
      <trkpt lat="42.4355920" lon="-2.9332990">
        <ele>631.2</ele>
        <time>2022-08-29T07:35:00Z</time>
      </trkpt>
      <trkpt lat="42.4356610" lon="-2.9333730">
        <ele>631.2</ele>
        <time>2022-08-29T07:35:01Z</time>
      </trkpt>
      <trkpt lat="42.4357280" lon="-2.9334470">
        <ele>631.4</ele>
        <time>2022-08-29T07:35:02Z</time>
      </trkpt>
      <trkpt lat="42.4357920" lon="-2.9335220">
        <ele>631.6</ele>
        <time>2022-08-29T07:35:03Z</time>
      </trkpt>
      <trkpt lat="42.4358540" lon="-2.9335940">
        <ele>631.8</ele>
        <time>2022-08-29T07:35:04Z</time>
      </trkpt>
      <trkpt lat="42.4359130" lon="-2.9336620">
        <ele>632.0</ele>
        <time>2022-08-29T07:35:05Z</time>
      </trkpt>
      <trkpt lat="42.4359680" lon="-2.9337310">
        <ele>632.0</ele>
        <time>2022-08-29T07:35:06Z</time>
      </trkpt>
      <trkpt lat="42.4360220" lon="-2.9337990">
        <ele>632.0</ele>
        <time>2022-08-29T07:35:07Z</time>
      </trkpt>
      <trkpt lat="42.4360750" lon="-2.9338660">
        <ele>632.4</ele>
        <time>2022-08-29T07:35:08Z</time>
      </trkpt>
      <trkpt lat="42.4361260" lon="-2.9339350">
        <ele>632.8</ele>
        <time>2022-08-29T07:35:09Z</time>
      </trkpt>
      <trkpt lat="42.4361740" lon="-2.9340070">
        <ele>633.0</ele>
        <time>2022-08-29T07:35:10Z</time>
      </trkpt>
      <trkpt lat="42.4362190" lon="-2.9340820">
        <ele>633.0</ele>
        <time>2022-08-29T07:35:11Z</time>
      </trkpt>
      <trkpt lat="42.4362620" lon="-2.9341580">
        <ele>633.0</ele>
        <time>2022-08-29T07:35:12Z</time>
      </trkpt>
      <trkpt lat="42.4363030" lon="-2.9342350">
        <ele>633.0</ele>
        <time>2022-08-29T07:35:13Z</time>
      </trkpt>
      <trkpt lat="42.4363430" lon="-2.9343100">
        <ele>633.2</ele>
        <time>2022-08-29T07:35:14Z</time>
      </trkpt>
      <trkpt lat="42.4363810" lon="-2.9343830">
        <ele>633.2</ele>
        <time>2022-08-29T07:35:15Z</time>
      </trkpt>
      <trkpt lat="42.4364140" lon="-2.9344560">
        <ele>633.4</ele>
        <time>2022-08-29T07:35:16Z</time>
      </trkpt>
      <trkpt lat="42.4364460" lon="-2.9345280">
        <ele>633.4</ele>
        <time>2022-08-29T07:35:17Z</time>
      </trkpt>
      <trkpt lat="42.4364770" lon="-2.9345970">
        <ele>633.6</ele>
        <time>2022-08-29T07:35:18Z</time>
      </trkpt>
      <trkpt lat="42.4365050" lon="-2.9346650">
        <ele>633.8</ele>
        <time>2022-08-29T07:35:19Z</time>
      </trkpt>
      <trkpt lat="42.4365300" lon="-2.9347350">
        <ele>633.8</ele>
        <time>2022-08-29T07:35:20Z</time>
      </trkpt>
      <trkpt lat="42.4365560" lon="-2.9348020">
        <ele>634.0</ele>
        <time>2022-08-29T07:35:21Z</time>
      </trkpt>
      <trkpt lat="42.4365850" lon="-2.9348650">
        <ele>634.0</ele>
        <time>2022-08-29T07:35:22Z</time>
      </trkpt>
      <trkpt lat="42.4366130" lon="-2.9349270">
        <ele>634.0</ele>
        <time>2022-08-29T07:35:23Z</time>
      </trkpt>
      <trkpt lat="42.4366360" lon="-2.9349910">
        <ele>634.2</ele>
        <time>2022-08-29T07:35:24Z</time>
      </trkpt>
      <trkpt lat="42.4366550" lon="-2.9350580">
        <ele>634.2</ele>
        <time>2022-08-29T07:35:25Z</time>
      </trkpt>
      <trkpt lat="42.4366730" lon="-2.9351240">
        <ele>634.2</ele>
        <time>2022-08-29T07:35:26Z</time>
      </trkpt>
      <trkpt lat="42.4366960" lon="-2.9351890">
        <ele>634.2</ele>
        <time>2022-08-29T07:35:27Z</time>
      </trkpt>
      <trkpt lat="42.4367200" lon="-2.9352510">
        <ele>634.2</ele>
        <time>2022-08-29T07:35:28Z</time>
      </trkpt>
      <trkpt lat="42.4367410" lon="-2.9353130">
        <ele>634.4</ele>
        <time>2022-08-29T07:35:29Z</time>
      </trkpt>
      <trkpt lat="42.4367610" lon="-2.9353770">
        <ele>634.2</ele>
        <time>2022-08-29T07:35:30Z</time>
      </trkpt>
      <trkpt lat="42.4367810" lon="-2.9354410">
        <ele>634.2</ele>
        <time>2022-08-29T07:35:31Z</time>
      </trkpt>
      <trkpt lat="42.4367990" lon="-2.9355040">
        <ele>634.2</ele>
        <time>2022-08-29T07:35:32Z</time>
      </trkpt>
      <trkpt lat="42.4368170" lon="-2.9355680">
        <ele>634.2</ele>
        <time>2022-08-29T07:35:33Z</time>
      </trkpt>
      <trkpt lat="42.4368340" lon="-2.9356310">
        <ele>634.4</ele>
        <time>2022-08-29T07:35:34Z</time>
      </trkpt>
      <trkpt lat="42.4368520" lon="-2.9356950">
        <ele>634.4</ele>
        <time>2022-08-29T07:35:35Z</time>
      </trkpt>
      <trkpt lat="42.4368700" lon="-2.9357580">
        <ele>634.2</ele>
        <time>2022-08-29T07:35:36Z</time>
      </trkpt>
      <trkpt lat="42.4368890" lon="-2.9358200">
        <ele>634.4</ele>
        <time>2022-08-29T07:35:37Z</time>
      </trkpt>
      <trkpt lat="42.4369070" lon="-2.9358830">
        <ele>634.6</ele>
        <time>2022-08-29T07:35:38Z</time>
      </trkpt>
      <trkpt lat="42.4369240" lon="-2.9359460">
        <ele>634.6</ele>
        <time>2022-08-29T07:35:39Z</time>
      </trkpt>
      <trkpt lat="42.4369410" lon="-2.9360100">
        <ele>634.6</ele>
        <time>2022-08-29T07:35:40Z</time>
      </trkpt>
      <trkpt lat="42.4369580" lon="-2.9360730">
        <ele>634.6</ele>
        <time>2022-08-29T07:35:41Z</time>
      </trkpt>
      <trkpt lat="42.4369780" lon="-2.9361350">
        <ele>634.6</ele>
        <time>2022-08-29T07:35:42Z</time>
      </trkpt>
      <trkpt lat="42.4369970" lon="-2.9361970">
        <ele>634.6</ele>
        <time>2022-08-29T07:35:43Z</time>
      </trkpt>
      <trkpt lat="42.4370130" lon="-2.9362620">
        <ele>634.6</ele>
        <time>2022-08-29T07:35:44Z</time>
      </trkpt>
      <trkpt lat="42.4370270" lon="-2.9363280">
        <ele>634.6</ele>
        <time>2022-08-29T07:35:45Z</time>
      </trkpt>
      <trkpt lat="42.4370450" lon="-2.9363920">
        <ele>634.6</ele>
        <time>2022-08-29T07:35:46Z</time>
      </trkpt>
      <trkpt lat="42.4370660" lon="-2.9364540">
        <ele>634.6</ele>
        <time>2022-08-29T07:35:47Z</time>
      </trkpt>
      <trkpt lat="42.4370860" lon="-2.9365160">
        <ele>634.6</ele>
        <time>2022-08-29T07:35:48Z</time>
      </trkpt>
      <trkpt lat="42.4371040" lon="-2.9365780">
        <ele>634.8</ele>
        <time>2022-08-29T07:35:49Z</time>
      </trkpt>
      <trkpt lat="42.4371230" lon="-2.9366390">
        <ele>634.6</ele>
        <time>2022-08-29T07:35:50Z</time>
      </trkpt>
      <trkpt lat="42.4371410" lon="-2.9367000">
        <ele>634.6</ele>
        <time>2022-08-29T07:35:51Z</time>
      </trkpt>
      <trkpt lat="42.4371600" lon="-2.9367620">
        <ele>634.6</ele>
        <time>2022-08-29T07:35:52Z</time>
      </trkpt>
      <trkpt lat="42.4371790" lon="-2.9368230">
        <ele>634.6</ele>
        <time>2022-08-29T07:35:53Z</time>
      </trkpt>
      <trkpt lat="42.4372000" lon="-2.9368850">
        <ele>634.6</ele>
        <time>2022-08-29T07:35:54Z</time>
      </trkpt>
      <trkpt lat="42.4372220" lon="-2.9369460">
        <ele>634.6</ele>
        <time>2022-08-29T07:35:55Z</time>
      </trkpt>
      <trkpt lat="42.4372420" lon="-2.9370090">
        <ele>634.6</ele>
        <time>2022-08-29T07:35:56Z</time>
      </trkpt>
      <trkpt lat="42.4372570" lon="-2.9370740">
        <ele>634.8</ele>
        <time>2022-08-29T07:35:57Z</time>
      </trkpt>
      <trkpt lat="42.4372710" lon="-2.9371390">
        <ele>634.6</ele>
        <time>2022-08-29T07:35:58Z</time>
      </trkpt>
      <trkpt lat="42.4372850" lon="-2.9372040">
        <ele>634.8</ele>
        <time>2022-08-29T07:35:59Z</time>
      </trkpt>
      <trkpt lat="42.4373020" lon="-2.9372670">
        <ele>634.8</ele>
        <time>2022-08-29T07:36:00Z</time>
      </trkpt>
      <trkpt lat="42.4373190" lon="-2.9373300">
        <ele>634.8</ele>
        <time>2022-08-29T07:36:01Z</time>
      </trkpt>
      <trkpt lat="42.4373360" lon="-2.9373920">
        <ele>634.8</ele>
        <time>2022-08-29T07:36:02Z</time>
      </trkpt>
      <trkpt lat="42.4373540" lon="-2.9374540">
        <ele>634.8</ele>
        <time>2022-08-29T07:36:03Z</time>
      </trkpt>
      <trkpt lat="42.4373730" lon="-2.9375150">
        <ele>634.8</ele>
        <time>2022-08-29T07:36:04Z</time>
      </trkpt>
      <trkpt lat="42.4373890" lon="-2.9375760">
        <ele>634.8</ele>
        <time>2022-08-29T07:36:05Z</time>
      </trkpt>
      <trkpt lat="42.4374040" lon="-2.9376370">
        <ele>634.8</ele>
        <time>2022-08-29T07:36:06Z</time>
      </trkpt>
      <trkpt lat="42.4374190" lon="-2.9376980">
        <ele>634.8</ele>
        <time>2022-08-29T07:36:07Z</time>
      </trkpt>
      <trkpt lat="42.4374320" lon="-2.9377610">
        <ele>634.8</ele>
        <time>2022-08-29T07:36:08Z</time>
      </trkpt>
      <trkpt lat="42.4374460" lon="-2.9378250">
        <ele>635.0</ele>
        <time>2022-08-29T07:36:09Z</time>
      </trkpt>
      <trkpt lat="42.4374610" lon="-2.9378880">
        <ele>635.0</ele>
        <time>2022-08-29T07:36:10Z</time>
      </trkpt>
      <trkpt lat="42.4374740" lon="-2.9379520">
        <ele>635.0</ele>
        <time>2022-08-29T07:36:11Z</time>
      </trkpt>
      <trkpt lat="42.4374890" lon="-2.9380160">
        <ele>635.0</ele>
        <time>2022-08-29T07:36:12Z</time>
      </trkpt>
      <trkpt lat="42.4375030" lon="-2.9380790">
        <ele>635.2</ele>
        <time>2022-08-29T07:36:13Z</time>
      </trkpt>
      <trkpt lat="42.4375200" lon="-2.9381410">
        <ele>635.0</ele>
        <time>2022-08-29T07:36:14Z</time>
      </trkpt>
      <trkpt lat="42.4375380" lon="-2.9382030">
        <ele>635.0</ele>
        <time>2022-08-29T07:36:15Z</time>
      </trkpt>
      <trkpt lat="42.4375530" lon="-2.9382660">
        <ele>635.2</ele>
        <time>2022-08-29T07:36:16Z</time>
      </trkpt>
      <trkpt lat="42.4375710" lon="-2.9383270">
        <ele>635.2</ele>
        <time>2022-08-29T07:36:17Z</time>
      </trkpt>
      <trkpt lat="42.4375880" lon="-2.9383880">
        <ele>635.2</ele>
        <time>2022-08-29T07:36:18Z</time>
      </trkpt>
      <trkpt lat="42.4376070" lon="-2.9384480">
        <ele>635.2</ele>
        <time>2022-08-29T07:36:19Z</time>
      </trkpt>
      <trkpt lat="42.4376240" lon="-2.9385050">
        <ele>635.2</ele>
        <time>2022-08-29T07:36:20Z</time>
      </trkpt>
      <trkpt lat="42.4376390" lon="-2.9385600">
        <ele>635.2</ele>
        <time>2022-08-29T07:36:21Z</time>
      </trkpt>
      <trkpt lat="42.4376530" lon="-2.9386130">
        <ele>635.4</ele>
        <time>2022-08-29T07:36:22Z</time>
      </trkpt>
      <trkpt lat="42.4376700" lon="-2.9386660">
        <ele>635.4</ele>
        <time>2022-08-29T07:36:23Z</time>
      </trkpt>
      <trkpt lat="42.4376890" lon="-2.9387170">
        <ele>635.4</ele>
        <time>2022-08-29T07:36:24Z</time>
      </trkpt>
      <trkpt lat="42.4377120" lon="-2.9387620">
        <ele>635.4</ele>
        <time>2022-08-29T07:36:25Z</time>
      </trkpt>
      <trkpt lat="42.4377400" lon="-2.9388040">
        <ele>635.4</ele>
        <time>2022-08-29T07:36:26Z</time>
      </trkpt>
      <trkpt lat="42.4377710" lon="-2.9388440">
        <ele>635.4</ele>
        <time>2022-08-29T07:36:27Z</time>
      </trkpt>
      <trkpt lat="42.4378060" lon="-2.9388830">
        <ele>635.4</ele>
        <time>2022-08-29T07:36:28Z</time>
      </trkpt>
      <trkpt lat="42.4378390" lon="-2.9389180">
        <ele>635.6</ele>
        <time>2022-08-29T07:36:29Z</time>
      </trkpt>
      <trkpt lat="42.4378780" lon="-2.9389490">
        <ele>635.4</ele>
        <time>2022-08-29T07:36:30Z</time>
      </trkpt>
      <trkpt lat="42.4379180" lon="-2.9389750">
        <ele>635.6</ele>
        <time>2022-08-29T07:36:31Z</time>
      </trkpt>
      <trkpt lat="42.4379590" lon="-2.9389960">
        <ele>635.4</ele>
        <time>2022-08-29T07:36:32Z</time>
      </trkpt>
      <trkpt lat="42.4380000" lon="-2.9390130">
        <ele>635.6</ele>
        <time>2022-08-29T07:36:33Z</time>
      </trkpt>
      <trkpt lat="42.4380410" lon="-2.9390250">
        <ele>635.6</ele>
        <time>2022-08-29T07:36:34Z</time>
      </trkpt>
      <trkpt lat="42.4380800" lon="-2.9390290">
        <ele>635.6</ele>
        <time>2022-08-29T07:36:35Z</time>
      </trkpt>
      <trkpt lat="42.4381160" lon="-2.9390360">
        <ele>635.6</ele>
        <time>2022-08-29T07:36:36Z</time>
      </trkpt>
      <trkpt lat="42.4381500" lon="-2.9390500">
        <ele>635.6</ele>
        <time>2022-08-29T07:36:37Z</time>
      </trkpt>
      <trkpt lat="42.4381790" lon="-2.9390680">
        <ele>635.4</ele>
        <time>2022-08-29T07:36:38Z</time>
      </trkpt>
      <trkpt lat="42.4382090" lon="-2.9390910">
        <ele>635.4</ele>
        <time>2022-08-29T07:36:39Z</time>
      </trkpt>
      <trkpt lat="42.4382360" lon="-2.9391220">
        <ele>635.4</ele>
        <time>2022-08-29T07:36:40Z</time>
      </trkpt>
      <trkpt lat="42.4382580" lon="-2.9391640">
        <ele>635.4</ele>
        <time>2022-08-29T07:36:41Z</time>
      </trkpt>
      <trkpt lat="42.4382730" lon="-2.9392130">
        <ele>635.4</ele>
        <time>2022-08-29T07:36:42Z</time>
      </trkpt>
      <trkpt lat="42.4382860" lon="-2.9392640">
        <ele>635.2</ele>
        <time>2022-08-29T07:36:43Z</time>
      </trkpt>
      <trkpt lat="42.4382980" lon="-2.9393200">
        <ele>635.4</ele>
        <time>2022-08-29T07:36:44Z</time>
      </trkpt>
      <trkpt lat="42.4383100" lon="-2.9393770">
        <ele>635.4</ele>
        <time>2022-08-29T07:36:45Z</time>
      </trkpt>
      <trkpt lat="42.4383230" lon="-2.9394360">
        <ele>635.4</ele>
        <time>2022-08-29T07:36:46Z</time>
      </trkpt>
      <trkpt lat="42.4383360" lon="-2.9394950">
        <ele>635.4</ele>
        <time>2022-08-29T07:36:47Z</time>
      </trkpt>
      <trkpt lat="42.4383480" lon="-2.9395550">
        <ele>635.4</ele>
        <time>2022-08-29T07:36:48Z</time>
      </trkpt>
      <trkpt lat="42.4383610" lon="-2.9396160">
        <ele>635.2</ele>
        <time>2022-08-29T07:36:49Z</time>
      </trkpt>
      <trkpt lat="42.4383730" lon="-2.9396770">
        <ele>635.4</ele>
        <time>2022-08-29T07:36:50Z</time>
      </trkpt>
      <trkpt lat="42.4383840" lon="-2.9397390">
        <ele>635.2</ele>
        <time>2022-08-29T07:36:51Z</time>
      </trkpt>
      <trkpt lat="42.4383960" lon="-2.9398020">
        <ele>635.2</ele>
        <time>2022-08-29T07:36:52Z</time>
      </trkpt>
      <trkpt lat="42.4384090" lon="-2.9398660">
        <ele>635.2</ele>
        <time>2022-08-29T07:36:53Z</time>
      </trkpt>
      <trkpt lat="42.4384210" lon="-2.9399300">
        <ele>635.4</ele>
        <time>2022-08-29T07:36:54Z</time>
      </trkpt>
      <trkpt lat="42.4384320" lon="-2.9399970">
        <ele>635.2</ele>
        <time>2022-08-29T07:36:55Z</time>
      </trkpt>
      <trkpt lat="42.4384430" lon="-2.9400640">
        <ele>635.4</ele>
        <time>2022-08-29T07:36:56Z</time>
      </trkpt>
      <trkpt lat="42.4384550" lon="-2.9401300">
        <ele>635.4</ele>
        <time>2022-08-29T07:36:57Z</time>
      </trkpt>
      <trkpt lat="42.4384680" lon="-2.9401960">
        <ele>635.4</ele>
        <time>2022-08-29T07:36:58Z</time>
      </trkpt>
      <trkpt lat="42.4384810" lon="-2.9402630">
        <ele>635.4</ele>
        <time>2022-08-29T07:36:59Z</time>
      </trkpt>
      <trkpt lat="42.4384940" lon="-2.9403300">
        <ele>635.2</ele>
        <time>2022-08-29T07:37:00Z</time>
      </trkpt>
      <trkpt lat="42.4385060" lon="-2.9403970">
        <ele>635.4</ele>
        <time>2022-08-29T07:37:01Z</time>
      </trkpt>
      <trkpt lat="42.4385180" lon="-2.9404650">
        <ele>635.4</ele>
        <time>2022-08-29T07:37:02Z</time>
      </trkpt>
      <trkpt lat="42.4385310" lon="-2.9405300">
        <ele>635.4</ele>
        <time>2022-08-29T07:37:03Z</time>
      </trkpt>
      <trkpt lat="42.4385430" lon="-2.9405960">
        <ele>635.4</ele>
        <time>2022-08-29T07:37:04Z</time>
      </trkpt>
      <trkpt lat="42.4385560" lon="-2.9406610">
        <ele>635.4</ele>
        <time>2022-08-29T07:37:05Z</time>
      </trkpt>
      <trkpt lat="42.4385690" lon="-2.9407250">
        <ele>635.4</ele>
        <time>2022-08-29T07:37:06Z</time>
      </trkpt>
      <trkpt lat="42.4385820" lon="-2.9407900">
        <ele>635.4</ele>
        <time>2022-08-29T07:37:07Z</time>
      </trkpt>
      <trkpt lat="42.4385940" lon="-2.9408540">
        <ele>635.4</ele>
        <time>2022-08-29T07:37:08Z</time>
      </trkpt>
      <trkpt lat="42.4386040" lon="-2.9409180">
        <ele>635.4</ele>
        <time>2022-08-29T07:37:09Z</time>
      </trkpt>
      <trkpt lat="42.4386130" lon="-2.9409830">
        <ele>635.2</ele>
        <time>2022-08-29T07:37:10Z</time>
      </trkpt>
      <trkpt lat="42.4386220" lon="-2.9410470">
        <ele>635.4</ele>
        <time>2022-08-29T07:37:11Z</time>
      </trkpt>
      <trkpt lat="42.4386340" lon="-2.9411110">
        <ele>635.4</ele>
        <time>2022-08-29T07:37:12Z</time>
      </trkpt>
      <trkpt lat="42.4386450" lon="-2.9411750">
        <ele>635.4</ele>
        <time>2022-08-29T07:37:13Z</time>
      </trkpt>
      <trkpt lat="42.4386560" lon="-2.9412400">
        <ele>635.2</ele>
        <time>2022-08-29T07:37:14Z</time>
      </trkpt>
      <trkpt lat="42.4386650" lon="-2.9413030">
        <ele>635.2</ele>
        <time>2022-08-29T07:37:15Z</time>
      </trkpt>
      <trkpt lat="42.4386750" lon="-2.9413680">
        <ele>635.4</ele>
        <time>2022-08-29T07:37:16Z</time>
      </trkpt>
      <trkpt lat="42.4386840" lon="-2.9414320">
        <ele>635.4</ele>
        <time>2022-08-29T07:37:17Z</time>
      </trkpt>
      <trkpt lat="42.4386940" lon="-2.9414950">
        <ele>635.4</ele>
        <time>2022-08-29T07:37:18Z</time>
      </trkpt>
      <trkpt lat="42.4387050" lon="-2.9415590">
        <ele>635.4</ele>
        <time>2022-08-29T07:37:19Z</time>
      </trkpt>
      <trkpt lat="42.4387160" lon="-2.9416240">
        <ele>635.4</ele>
        <time>2022-08-29T07:37:20Z</time>
      </trkpt>
      <trkpt lat="42.4387280" lon="-2.9416880">
        <ele>635.6</ele>
        <time>2022-08-29T07:37:21Z</time>
      </trkpt>
      <trkpt lat="42.4387400" lon="-2.9417530">
        <ele>635.4</ele>
        <time>2022-08-29T07:37:22Z</time>
      </trkpt>
      <trkpt lat="42.4387530" lon="-2.9418170">
        <ele>635.4</ele>
        <time>2022-08-29T07:37:23Z</time>
      </trkpt>
      <trkpt lat="42.4387660" lon="-2.9418820">
        <ele>635.4</ele>
        <time>2022-08-29T07:37:24Z</time>
      </trkpt>
      <trkpt lat="42.4387800" lon="-2.9419470">
        <ele>635.6</ele>
        <time>2022-08-29T07:37:25Z</time>
      </trkpt>
      <trkpt lat="42.4387920" lon="-2.9420130">
        <ele>635.6</ele>
        <time>2022-08-29T07:37:26Z</time>
      </trkpt>
      <trkpt lat="42.4388030" lon="-2.9420790">
        <ele>635.6</ele>
        <time>2022-08-29T07:37:27Z</time>
      </trkpt>
      <trkpt lat="42.4388140" lon="-2.9421460">
        <ele>635.6</ele>
        <time>2022-08-29T07:37:28Z</time>
      </trkpt>
      <trkpt lat="42.4388260" lon="-2.9422120">
        <ele>635.6</ele>
        <time>2022-08-29T07:37:29Z</time>
      </trkpt>
      <trkpt lat="42.4388390" lon="-2.9422770">
        <ele>635.6</ele>
        <time>2022-08-29T07:37:30Z</time>
      </trkpt>
      <trkpt lat="42.4388520" lon="-2.9423420">
        <ele>635.4</ele>
        <time>2022-08-29T07:37:31Z</time>
      </trkpt>
      <trkpt lat="42.4388640" lon="-2.9424080">
        <ele>635.4</ele>
        <time>2022-08-29T07:37:32Z</time>
      </trkpt>
      <trkpt lat="42.4388750" lon="-2.9424740">
        <ele>635.4</ele>
        <time>2022-08-29T07:37:33Z</time>
      </trkpt>
      <trkpt lat="42.4388870" lon="-2.9425380">
        <ele>635.4</ele>
        <time>2022-08-29T07:37:34Z</time>
      </trkpt>
      <trkpt lat="42.4388980" lon="-2.9426020">
        <ele>635.4</ele>
        <time>2022-08-29T07:37:35Z</time>
      </trkpt>
      <trkpt lat="42.4389080" lon="-2.9426650">
        <ele>635.2</ele>
        <time>2022-08-29T07:37:36Z</time>
      </trkpt>
      <trkpt lat="42.4389190" lon="-2.9427280">
        <ele>635.2</ele>
        <time>2022-08-29T07:37:37Z</time>
      </trkpt>
      <trkpt lat="42.4389300" lon="-2.9427910">
        <ele>635.4</ele>
        <time>2022-08-29T07:37:38Z</time>
      </trkpt>
      <trkpt lat="42.4389400" lon="-2.9428540">
        <ele>635.2</ele>
        <time>2022-08-29T07:37:39Z</time>
      </trkpt>
      <trkpt lat="42.4389520" lon="-2.9429180">
        <ele>635.4</ele>
        <time>2022-08-29T07:37:40Z</time>
      </trkpt>
      <trkpt lat="42.4389640" lon="-2.9429820">
        <ele>635.2</ele>
        <time>2022-08-29T07:37:41Z</time>
      </trkpt>
      <trkpt lat="42.4389770" lon="-2.9430470">
        <ele>635.4</ele>
        <time>2022-08-29T07:37:42Z</time>
      </trkpt>
      <trkpt lat="42.4389890" lon="-2.9431110">
        <ele>635.4</ele>
        <time>2022-08-29T07:37:43Z</time>
      </trkpt>
      <trkpt lat="42.4390000" lon="-2.9431750">
        <ele>635.4</ele>
        <time>2022-08-29T07:37:44Z</time>
      </trkpt>
      <trkpt lat="42.4390110" lon="-2.9432390">
        <ele>635.4</ele>
        <time>2022-08-29T07:37:45Z</time>
      </trkpt>
      <trkpt lat="42.4390230" lon="-2.9433020">
        <ele>635.4</ele>
        <time>2022-08-29T07:37:46Z</time>
      </trkpt>
      <trkpt lat="42.4390340" lon="-2.9433640">
        <ele>635.6</ele>
        <time>2022-08-29T07:37:47Z</time>
      </trkpt>
      <trkpt lat="42.4390450" lon="-2.9434260">
        <ele>635.6</ele>
        <time>2022-08-29T07:37:48Z</time>
      </trkpt>
      <trkpt lat="42.4390550" lon="-2.9434860">
        <ele>635.6</ele>
        <time>2022-08-29T07:37:49Z</time>
      </trkpt>
      <trkpt lat="42.4390660" lon="-2.9435400">
        <ele>635.6</ele>
        <time>2022-08-29T07:37:50Z</time>
      </trkpt>
      <trkpt lat="42.4390740" lon="-2.9435880">
        <ele>635.6</ele>
        <time>2022-08-29T07:37:51Z</time>
      </trkpt>
      <trkpt lat="42.4390900" lon="-2.9436290">
        <ele>635.6</ele>
        <time>2022-08-29T07:37:52Z</time>
      </trkpt>
      <trkpt lat="42.4391160" lon="-2.9436580">
        <ele>635.6</ele>
        <time>2022-08-29T07:37:53Z</time>
      </trkpt>
      <trkpt lat="42.4391490" lon="-2.9436800">
        <ele>635.8</ele>
        <time>2022-08-29T07:37:54Z</time>
      </trkpt>
      <trkpt lat="42.4391840" lon="-2.9437030">
        <ele>635.8</ele>
        <time>2022-08-29T07:37:55Z</time>
      </trkpt>
      <trkpt lat="42.4392210" lon="-2.9437300">
        <ele>635.8</ele>
        <time>2022-08-29T07:37:56Z</time>
      </trkpt>
      <trkpt lat="42.4392590" lon="-2.9437620">
        <ele>635.8</ele>
        <time>2022-08-29T07:37:57Z</time>
      </trkpt>
      <trkpt lat="42.4392910" lon="-2.9438060">
        <ele>636.0</ele>
        <time>2022-08-29T07:37:58Z</time>
      </trkpt>
      <trkpt lat="42.4393050" lon="-2.9438660">
        <ele>635.8</ele>
        <time>2022-08-29T07:37:59Z</time>
      </trkpt>
      <trkpt lat="42.4392970" lon="-2.9439280">
        <ele>636.0</ele>
        <time>2022-08-29T07:38:00Z</time>
      </trkpt>
      <trkpt lat="42.4392730" lon="-2.9439790">
        <ele>635.8</ele>
        <time>2022-08-29T07:38:01Z</time>
      </trkpt>
      <trkpt lat="42.4392290" lon="-2.9440010">
        <ele>636.0</ele>
        <time>2022-08-29T07:38:02Z</time>
      </trkpt>
      <trkpt lat="42.4391820" lon="-2.9439940">
        <ele>636.0</ele>
        <time>2022-08-29T07:38:03Z</time>
      </trkpt>
      <trkpt lat="42.4391430" lon="-2.9439650">
        <ele>636.0</ele>
        <time>2022-08-29T07:38:04Z</time>
      </trkpt>
      <trkpt lat="42.4391130" lon="-2.9439230">
        <ele>636.0</ele>
        <time>2022-08-29T07:38:05Z</time>
      </trkpt>
      <trkpt lat="42.4390930" lon="-2.9438750">
        <ele>636.0</ele>
        <time>2022-08-29T07:38:06Z</time>
      </trkpt>
      <trkpt lat="42.4390770" lon="-2.9438260">
        <ele>636.0</ele>
        <time>2022-08-29T07:38:07Z</time>
      </trkpt>
      <trkpt lat="42.4390640" lon="-2.9437740">
        <ele>636.2</ele>
        <time>2022-08-29T07:38:08Z</time>
      </trkpt>
      <trkpt lat="42.4390500" lon="-2.9437240">
        <ele>636.2</ele>
        <time>2022-08-29T07:38:09Z</time>
      </trkpt>
      <trkpt lat="42.4390340" lon="-2.9436760">
        <ele>636.0</ele>
        <time>2022-08-29T07:38:10Z</time>
      </trkpt>
      <trkpt lat="42.4390170" lon="-2.9436320">
        <ele>636.0</ele>
        <time>2022-08-29T07:38:11Z</time>
      </trkpt>
      <trkpt lat="42.4389970" lon="-2.9435950">
        <ele>636.0</ele>
        <time>2022-08-29T07:38:12Z</time>
      </trkpt>
      <trkpt lat="42.4389720" lon="-2.9435690">
        <ele>636.2</ele>
        <time>2022-08-29T07:38:13Z</time>
      </trkpt>
      <trkpt lat="42.4389450" lon="-2.9435600">
        <ele>636.2</ele>
        <time>2022-08-29T07:38:14Z</time>
      </trkpt>
      <trkpt lat="42.4389190" lon="-2.9435670">
        <ele>636.2</ele>
        <time>2022-08-29T07:38:15Z</time>
      </trkpt>
      <trkpt lat="42.4388970" lon="-2.9435790">
        <ele>636.2</ele>
        <time>2022-08-29T07:38:16Z</time>
      </trkpt>
      <trkpt lat="42.4388810" lon="-2.9435910">
        <ele>636.2</ele>
        <time>2022-08-29T07:38:17Z</time>
      </trkpt>
      <trkpt lat="42.4388660" lon="-2.9435990">
        <ele>636.2</ele>
        <time>2022-08-29T07:38:18Z</time>
      </trkpt>
      <trkpt lat="42.4388530" lon="-2.9436050">
        <ele>636.0</ele>
        <time>2022-08-29T07:38:19Z</time>
      </trkpt>
      <trkpt lat="42.4388400" lon="-2.9436160">
        <ele>636.0</ele>
        <time>2022-08-29T07:38:20Z</time>
      </trkpt>
      <trkpt lat="42.4388290" lon="-2.9436300">
        <ele>636.2</ele>
        <time>2022-08-29T07:38:21Z</time>
      </trkpt>
      <trkpt lat="42.4388160" lon="-2.9436440">
        <ele>636.2</ele>
        <time>2022-08-29T07:38:22Z</time>
      </trkpt>
      <trkpt lat="42.4388020" lon="-2.9436490">
        <ele>636.4</ele>
        <time>2022-08-29T07:38:23Z</time>
      </trkpt>
      <trkpt lat="42.4387970" lon="-2.9436400">
        <ele>636.4</ele>
        <time>2022-08-29T07:38:24Z</time>
      </trkpt>
      <trkpt lat="42.4388020" lon="-2.9436290">
        <ele>636.6</ele>
        <time>2022-08-29T07:38:25Z</time>
      </trkpt>
      <trkpt lat="42.4388130" lon="-2.9436200">
        <ele>636.6</ele>
        <time>2022-08-29T07:38:26Z</time>
      </trkpt>
      <trkpt lat="42.4388250" lon="-2.9436100">
        <ele>636.6</ele>
        <time>2022-08-29T07:38:27Z</time>
      </trkpt>
      <trkpt lat="42.4388340" lon="-2.9435970">
        <ele>636.4</ele>
        <time>2022-08-29T07:38:28Z</time>
      </trkpt>
      <trkpt lat="42.4388340" lon="-2.9435810">
        <ele>636.4</ele>
        <time>2022-08-29T07:38:29Z</time>
      </trkpt>
      <trkpt lat="42.4388320" lon="-2.9435640">
        <ele>636.6</ele>
        <time>2022-08-29T07:38:30Z</time>
      </trkpt>
      <trkpt lat="42.4388300" lon="-2.9435480">
        <ele>636.6</ele>
        <time>2022-08-29T07:38:31Z</time>
      </trkpt>
      <trkpt lat="42.4388310" lon="-2.9435370">
        <ele>636.8</ele>
        <time>2022-08-29T07:38:32Z</time>
      </trkpt>
      <trkpt lat="42.4388330" lon="-2.9435340">
        <ele>636.6</ele>
        <time>2022-08-29T07:38:33Z</time>
      </trkpt>
      <trkpt lat="42.4388330" lon="-2.9435340">
        <ele>636.6</ele>
        <time>2022-08-29T07:38:34Z</time>
      </trkpt>
      <trkpt lat="42.4388340" lon="-2.9435320">
        <ele>636.6</ele>
        <time>2022-08-29T07:38:35Z</time>
      </trkpt>
      <trkpt lat="42.4388370" lon="-2.9435420">
        <ele>636.6</ele>
        <time>2022-08-29T07:38:36Z</time>
      </trkpt>
      <trkpt lat="42.4388390" lon="-2.9435470">
        <ele>636.8</ele>
        <time>2022-08-29T07:38:37Z</time>
      </trkpt>
      <trkpt lat="42.4388430" lon="-2.9435490">
        <ele>636.6</ele>
        <time>2022-08-29T07:38:38Z</time>
      </trkpt>
      <trkpt lat="42.4388430" lon="-2.9435470">
        <ele>636.6</ele>
        <time>2022-08-29T07:38:39Z</time>
      </trkpt>
      <trkpt lat="42.4388420" lon="-2.9435470">
        <ele>636.6</ele>
        <time>2022-08-29T07:38:40Z</time>
      </trkpt>
      <trkpt lat="42.4388430" lon="-2.9435470">
        <ele>636.6</ele>
        <time>2022-08-29T07:38:41Z</time>
      </trkpt>
      <trkpt lat="42.4388450" lon="-2.9435460">
        <ele>636.8</ele>
        <time>2022-08-29T07:38:42Z</time>
      </trkpt>
      <trkpt lat="42.4388470" lon="-2.9435460">
        <ele>636.6</ele>
        <time>2022-08-29T07:38:43Z</time>
      </trkpt>
      <trkpt lat="42.4388480" lon="-2.9435460">
        <ele>636.6</ele>
        <time>2022-08-29T07:38:44Z</time>
      </trkpt>
      <trkpt lat="42.4388480" lon="-2.9435470">
        <ele>636.6</ele>
        <time>2022-08-29T07:38:45Z</time>
      </trkpt>
      <trkpt lat="42.4388480" lon="-2.9435470">
        <ele>636.8</ele>
        <time>2022-08-29T07:38:46Z</time>
      </trkpt>
      <trkpt lat="42.4388480" lon="-2.9435470">
        <ele>636.8</ele>
        <time>2022-08-29T07:38:47Z</time>
      </trkpt>
      <trkpt lat="42.4388480" lon="-2.9435470">
        <ele>636.8</ele>
        <time>2022-08-29T07:38:48Z</time>
      </trkpt>
      <trkpt lat="42.4388480" lon="-2.9435470">
        <ele>636.6</ele>
        <time>2022-08-29T07:38:49Z</time>
      </trkpt>
      <trkpt lat="42.4388480" lon="-2.9435470">
        <ele>636.6</ele>
        <time>2022-08-29T07:38:50Z</time>
      </trkpt>
      <trkpt lat="42.4388480" lon="-2.9435470">
        <ele>636.8</ele>
        <time>2022-08-29T07:38:51Z</time>
      </trkpt>
      <trkpt lat="42.4388480" lon="-2.9435460">
        <ele>636.6</ele>
        <time>2022-08-29T07:38:52Z</time>
      </trkpt>
      <trkpt lat="42.4388480" lon="-2.9435460">
        <ele>636.8</ele>
        <time>2022-08-29T07:38:53Z</time>
      </trkpt>
      <trkpt lat="42.4388480" lon="-2.9435460">
        <ele>636.8</ele>
        <time>2022-08-29T07:38:54Z</time>
      </trkpt>
      <trkpt lat="42.4388480" lon="-2.9435460">
        <ele>636.6</ele>
        <time>2022-08-29T07:38:55Z</time>
      </trkpt>
      <trkpt lat="42.4388480" lon="-2.9435460">
        <ele>636.6</ele>
        <time>2022-08-29T07:38:56Z</time>
      </trkpt>
      <trkpt lat="42.4388480" lon="-2.9435460">
        <ele>636.8</ele>
        <time>2022-08-29T07:38:57Z</time>
      </trkpt>
      <trkpt lat="42.4388480" lon="-2.9435460">
        <ele>636.8</ele>
        <time>2022-08-29T07:38:58Z</time>
      </trkpt>
      <trkpt lat="42.4388480" lon="-2.9435470">
        <ele>636.6</ele>
        <time>2022-08-29T07:38:59Z</time>
      </trkpt>
      <trkpt lat="42.4388490" lon="-2.9435470">
        <ele>636.6</ele>
        <time>2022-08-29T07:39:00Z</time>
      </trkpt>
      <trkpt lat="42.4388500" lon="-2.9435460">
        <ele>636.6</ele>
        <time>2022-08-29T07:39:01Z</time>
      </trkpt>
      <trkpt lat="42.4388520" lon="-2.9435460">
        <ele>636.6</ele>
        <time>2022-08-29T07:39:02Z</time>
      </trkpt>
      <trkpt lat="42.4388530" lon="-2.9435470">
        <ele>636.6</ele>
        <time>2022-08-29T07:39:03Z</time>
      </trkpt>
      <trkpt lat="42.4397030" lon="-2.9491640">
        <ele>643.0</ele>
        <time>2022-08-29T07:47:08Z</time>
      </trkpt>
      <trkpt lat="42.4397000" lon="-2.9491680">
        <ele>643.0</ele>
        <time>2022-08-29T07:47:09Z</time>
      </trkpt>
      <trkpt lat="42.4396970" lon="-2.9491720">
        <ele>643.2</ele>
        <time>2022-08-29T07:47:10Z</time>
      </trkpt>
      <trkpt lat="42.4396930" lon="-2.9491740">
        <ele>643.4</ele>
        <time>2022-08-29T07:47:11Z</time>
      </trkpt>
      <trkpt lat="42.4396900" lon="-2.9491740">
        <ele>643.4</ele>
        <time>2022-08-29T07:47:12Z</time>
      </trkpt>
      <trkpt lat="42.4396860" lon="-2.9491760">
        <ele>642.4</ele>
        <time>2022-08-29T07:47:13Z</time>
      </trkpt>
      <trkpt lat="42.4399100" lon="-2.9490150">
        <ele>646.2</ele>
        <time>2022-08-29T07:55:15Z</time>
      </trkpt>
      <trkpt lat="42.4399220" lon="-2.9490130">
        <ele>646.2</ele>
        <time>2022-08-29T07:55:16Z</time>
      </trkpt>
      <trkpt lat="42.4399380" lon="-2.9490060">
        <ele>646.2</ele>
        <time>2022-08-29T07:55:17Z</time>
      </trkpt>
      <trkpt lat="42.4399620" lon="-2.9489960">
        <ele>646.2</ele>
        <time>2022-08-29T07:55:18Z</time>
      </trkpt>
      <trkpt lat="42.4399860" lon="-2.9489860">
        <ele>646.0</ele>
        <time>2022-08-29T07:55:19Z</time>
      </trkpt>
      <trkpt lat="42.4400080" lon="-2.9489740">
        <ele>645.8</ele>
        <time>2022-08-29T07:55:20Z</time>
      </trkpt>
      <trkpt lat="42.4400320" lon="-2.9489620">
        <ele>646.0</ele>
        <time>2022-08-29T07:55:21Z</time>
      </trkpt>
      <trkpt lat="42.4400570" lon="-2.9489520">
        <ele>646.0</ele>
        <time>2022-08-29T07:55:22Z</time>
      </trkpt>
      <trkpt lat="42.4400820" lon="-2.9489420">
        <ele>645.8</ele>
        <time>2022-08-29T07:55:23Z</time>
      </trkpt>
      <trkpt lat="42.4401060" lon="-2.9489310">
        <ele>645.8</ele>
        <time>2022-08-29T07:55:24Z</time>
      </trkpt>
      <trkpt lat="42.4401290" lon="-2.9489230">
        <ele>645.8</ele>
        <time>2022-08-29T07:55:25Z</time>
      </trkpt>
      <trkpt lat="42.4401500" lon="-2.9489190">
        <ele>645.8</ele>
        <time>2022-08-29T07:55:26Z</time>
      </trkpt>
      <trkpt lat="42.4401690" lon="-2.9489230">
        <ele>645.8</ele>
        <time>2022-08-29T07:55:27Z</time>
      </trkpt>
      <trkpt lat="42.4401840" lon="-2.9489270">
        <ele>645.6</ele>
        <time>2022-08-29T07:55:28Z</time>
      </trkpt>
      <trkpt lat="42.4402020" lon="-2.9489390">
        <ele>645.8</ele>
        <time>2022-08-29T07:55:29Z</time>
      </trkpt>
      <trkpt lat="42.4402240" lon="-2.9489570">
        <ele>645.8</ele>
        <time>2022-08-29T07:55:30Z</time>
      </trkpt>
      <trkpt lat="42.4402400" lon="-2.9489820">
        <ele>645.8</ele>
        <time>2022-08-29T07:55:31Z</time>
      </trkpt>
      <trkpt lat="42.4402560" lon="-2.9490070">
        <ele>645.8</ele>
        <time>2022-08-29T07:55:32Z</time>
      </trkpt>
      <trkpt lat="42.4402710" lon="-2.9490330">
        <ele>646.0</ele>
        <time>2022-08-29T07:55:33Z</time>
      </trkpt>
      <trkpt lat="42.4402850" lon="-2.9490640">
        <ele>645.8</ele>
        <time>2022-08-29T07:55:34Z</time>
      </trkpt>
      <trkpt lat="42.4403000" lon="-2.9490990">
        <ele>645.8</ele>
        <time>2022-08-29T07:55:35Z</time>
      </trkpt>
      <trkpt lat="42.4403110" lon="-2.9491350">
        <ele>645.8</ele>
        <time>2022-08-29T07:55:36Z</time>
      </trkpt>
      <trkpt lat="42.4403240" lon="-2.9491700">
        <ele>646.0</ele>
        <time>2022-08-29T07:55:37Z</time>
      </trkpt>
      <trkpt lat="42.4403310" lon="-2.9492040">
        <ele>646.0</ele>
        <time>2022-08-29T07:55:38Z</time>
      </trkpt>
      <trkpt lat="42.4403380" lon="-2.9492400">
        <ele>645.8</ele>
        <time>2022-08-29T07:55:39Z</time>
      </trkpt>
      <trkpt lat="42.4403420" lon="-2.9492750">
        <ele>645.8</ele>
        <time>2022-08-29T07:55:40Z</time>
      </trkpt>
      <trkpt lat="42.4403440" lon="-2.9493120">
        <ele>645.8</ele>
        <time>2022-08-29T07:55:41Z</time>
      </trkpt>
      <trkpt lat="42.4403460" lon="-2.9493530">
        <ele>646.0</ele>
        <time>2022-08-29T07:55:42Z</time>
      </trkpt>
      <trkpt lat="42.4403320" lon="-2.9494050">
        <ele>645.8</ele>
        <time>2022-08-29T07:55:43Z</time>
      </trkpt>
      <trkpt lat="42.4403320" lon="-2.9494600">
        <ele>645.8</ele>
        <time>2022-08-29T07:55:44Z</time>
      </trkpt>
      <trkpt lat="42.4403380" lon="-2.9495150">
        <ele>646.0</ele>
        <time>2022-08-29T07:55:45Z</time>
      </trkpt>
      <trkpt lat="42.4403430" lon="-2.9495710">
        <ele>646.0</ele>
        <time>2022-08-29T07:55:46Z</time>
      </trkpt>
      <trkpt lat="42.4403460" lon="-2.9496260">
        <ele>645.8</ele>
        <time>2022-08-29T07:55:47Z</time>
      </trkpt>
      <trkpt lat="42.4403510" lon="-2.9496790">
        <ele>645.8</ele>
        <time>2022-08-29T07:55:48Z</time>
      </trkpt>
      <trkpt lat="42.4403520" lon="-2.9497350">
        <ele>645.8</ele>
        <time>2022-08-29T07:55:49Z</time>
      </trkpt>
      <trkpt lat="42.4403560" lon="-2.9497870">
        <ele>645.4</ele>
        <time>2022-08-29T07:55:50Z</time>
      </trkpt>
      <trkpt lat="42.4403680" lon="-2.9498390">
        <ele>645.0</ele>
        <time>2022-08-29T07:55:51Z</time>
      </trkpt>
      <trkpt lat="42.4403810" lon="-2.9498940">
        <ele>645.0</ele>
        <time>2022-08-29T07:55:52Z</time>
      </trkpt>
      <trkpt lat="42.4403940" lon="-2.9499460">
        <ele>644.8</ele>
        <time>2022-08-29T07:55:53Z</time>
      </trkpt>
      <trkpt lat="42.4404110" lon="-2.9499940">
        <ele>644.6</ele>
        <time>2022-08-29T07:55:54Z</time>
      </trkpt>
      <trkpt lat="42.4404280" lon="-2.9500410">
        <ele>644.6</ele>
        <time>2022-08-29T07:55:55Z</time>
      </trkpt>
      <trkpt lat="42.4404470" lon="-2.9500870">
        <ele>644.8</ele>
        <time>2022-08-29T07:55:56Z</time>
      </trkpt>
      <trkpt lat="42.4404610" lon="-2.9501320">
        <ele>644.6</ele>
        <time>2022-08-29T07:55:57Z</time>
      </trkpt>
      <trkpt lat="42.4404700" lon="-2.9501830">
        <ele>644.6</ele>
        <time>2022-08-29T07:55:58Z</time>
      </trkpt>
      <trkpt lat="42.4404760" lon="-2.9502350">
        <ele>644.6</ele>
        <time>2022-08-29T07:55:59Z</time>
      </trkpt>
      <trkpt lat="42.4404850" lon="-2.9502880">
        <ele>644.4</ele>
        <time>2022-08-29T07:56:00Z</time>
      </trkpt>
      <trkpt lat="42.4404910" lon="-2.9503360">
        <ele>644.4</ele>
        <time>2022-08-29T07:56:01Z</time>
      </trkpt>
      <trkpt lat="42.4405000" lon="-2.9503800">
        <ele>644.4</ele>
        <time>2022-08-29T07:56:02Z</time>
      </trkpt>
      <trkpt lat="42.4405110" lon="-2.9504200">
        <ele>644.4</ele>
        <time>2022-08-29T07:56:03Z</time>
      </trkpt>
      <trkpt lat="42.4405160" lon="-2.9504610">
        <ele>644.4</ele>
        <time>2022-08-29T07:56:04Z</time>
      </trkpt>
      <trkpt lat="42.4405250" lon="-2.9504970">
        <ele>644.2</ele>
        <time>2022-08-29T07:56:05Z</time>
      </trkpt>
      <trkpt lat="42.4405310" lon="-2.9505320">
        <ele>644.2</ele>
        <time>2022-08-29T07:56:06Z</time>
      </trkpt>
      <trkpt lat="42.4405420" lon="-2.9505660">
        <ele>644.4</ele>
        <time>2022-08-29T07:56:07Z</time>
      </trkpt>
      <trkpt lat="42.4405540" lon="-2.9506020">
        <ele>644.4</ele>
        <time>2022-08-29T07:56:08Z</time>
      </trkpt>
      <trkpt lat="42.4405630" lon="-2.9506390">
        <ele>644.4</ele>
        <time>2022-08-29T07:56:09Z</time>
      </trkpt>
      <trkpt lat="42.4405710" lon="-2.9506760">
        <ele>644.4</ele>
        <time>2022-08-29T07:56:10Z</time>
      </trkpt>
      <trkpt lat="42.4405780" lon="-2.9507140">
        <ele>644.4</ele>
        <time>2022-08-29T07:56:11Z</time>
      </trkpt>
      <trkpt lat="42.4405810" lon="-2.9507520">
        <ele>644.4</ele>
        <time>2022-08-29T07:56:12Z</time>
      </trkpt>
      <trkpt lat="42.4405980" lon="-2.9507920">
        <ele>644.4</ele>
        <time>2022-08-29T07:56:13Z</time>
      </trkpt>
      <trkpt lat="42.4406060" lon="-2.9508330">
        <ele>644.4</ele>
        <time>2022-08-29T07:56:14Z</time>
      </trkpt>
      <trkpt lat="42.4406180" lon="-2.9508760">
        <ele>644.4</ele>
        <time>2022-08-29T07:56:15Z</time>
      </trkpt>
      <trkpt lat="42.4406400" lon="-2.9509140">
        <ele>644.4</ele>
        <time>2022-08-29T07:56:16Z</time>
      </trkpt>
      <trkpt lat="42.4406410" lon="-2.9509600">
        <ele>644.4</ele>
        <time>2022-08-29T07:56:17Z</time>
      </trkpt>
      <trkpt lat="42.4406410" lon="-2.9510040">
        <ele>644.4</ele>
        <time>2022-08-29T07:56:18Z</time>
      </trkpt>
      <trkpt lat="42.4406450" lon="-2.9510420">
        <ele>644.6</ele>
        <time>2022-08-29T07:56:19Z</time>
      </trkpt>
      <trkpt lat="42.4406440" lon="-2.9510840">
        <ele>644.6</ele>
        <time>2022-08-29T07:56:20Z</time>
      </trkpt>
      <trkpt lat="42.4406420" lon="-2.9511250">
        <ele>644.6</ele>
        <time>2022-08-29T07:56:21Z</time>
      </trkpt>
      <trkpt lat="42.4406410" lon="-2.9511680">
        <ele>644.6</ele>
        <time>2022-08-29T07:56:22Z</time>
      </trkpt>
      <trkpt lat="42.4406470" lon="-2.9512090">
        <ele>644.8</ele>
        <time>2022-08-29T07:56:23Z</time>
      </trkpt>
      <trkpt lat="42.4406530" lon="-2.9512490">
        <ele>644.8</ele>
        <time>2022-08-29T07:56:24Z</time>
      </trkpt>
      <trkpt lat="42.4406600" lon="-2.9512880">
        <ele>644.8</ele>
        <time>2022-08-29T07:56:25Z</time>
      </trkpt>
      <trkpt lat="42.4406730" lon="-2.9513290">
        <ele>645.0</ele>
        <time>2022-08-29T07:56:26Z</time>
      </trkpt>
      <trkpt lat="42.4406810" lon="-2.9513700">
        <ele>645.0</ele>
        <time>2022-08-29T07:56:27Z</time>
      </trkpt>
      <trkpt lat="42.4406910" lon="-2.9514140">
        <ele>644.8</ele>
        <time>2022-08-29T07:56:28Z</time>
      </trkpt>
      <trkpt lat="42.4406820" lon="-2.9514660">
        <ele>644.8</ele>
        <time>2022-08-29T07:56:29Z</time>
      </trkpt>
      <trkpt lat="42.4406730" lon="-2.9515170">
        <ele>644.8</ele>
        <time>2022-08-29T07:56:30Z</time>
      </trkpt>
      <trkpt lat="42.4406870" lon="-2.9515610">
        <ele>644.6</ele>
        <time>2022-08-29T07:56:31Z</time>
      </trkpt>
      <trkpt lat="42.4407060" lon="-2.9516060">
        <ele>644.8</ele>
        <time>2022-08-29T07:56:32Z</time>
      </trkpt>
      <trkpt lat="42.4407220" lon="-2.9516520">
        <ele>644.8</ele>
        <time>2022-08-29T07:56:33Z</time>
      </trkpt>
      <trkpt lat="42.4407340" lon="-2.9516990">
        <ele>644.8</ele>
        <time>2022-08-29T07:56:34Z</time>
      </trkpt>
      <trkpt lat="42.4407440" lon="-2.9517490">
        <ele>644.8</ele>
        <time>2022-08-29T07:56:35Z</time>
      </trkpt>
      <trkpt lat="42.4407520" lon="-2.9517980">
        <ele>644.8</ele>
        <time>2022-08-29T07:56:36Z</time>
      </trkpt>
      <trkpt lat="42.4407640" lon="-2.9518440">
        <ele>644.8</ele>
        <time>2022-08-29T07:56:37Z</time>
      </trkpt>
      <trkpt lat="42.4407770" lon="-2.9518910">
        <ele>644.6</ele>
        <time>2022-08-29T07:56:38Z</time>
      </trkpt>
      <trkpt lat="42.4407880" lon="-2.9519370">
        <ele>644.6</ele>
        <time>2022-08-29T07:56:39Z</time>
      </trkpt>
      <trkpt lat="42.4407980" lon="-2.9519830">
        <ele>644.6</ele>
        <time>2022-08-29T07:56:40Z</time>
      </trkpt>
      <trkpt lat="42.4408090" lon="-2.9520270">
        <ele>644.6</ele>
        <time>2022-08-29T07:56:41Z</time>
      </trkpt>
      <trkpt lat="42.4408160" lon="-2.9520700">
        <ele>644.6</ele>
        <time>2022-08-29T07:56:42Z</time>
      </trkpt>
      <trkpt lat="42.4408250" lon="-2.9521110">
        <ele>644.4</ele>
        <time>2022-08-29T07:56:43Z</time>
      </trkpt>
      <trkpt lat="42.4408320" lon="-2.9521570">
        <ele>644.6</ele>
        <time>2022-08-29T07:56:44Z</time>
      </trkpt>
      <trkpt lat="42.4408410" lon="-2.9521990">
        <ele>644.6</ele>
        <time>2022-08-29T07:56:45Z</time>
      </trkpt>
      <trkpt lat="42.4408500" lon="-2.9522430">
        <ele>644.6</ele>
        <time>2022-08-29T07:56:46Z</time>
      </trkpt>
      <trkpt lat="42.4408620" lon="-2.9522850">
        <ele>644.6</ele>
        <time>2022-08-29T07:56:47Z</time>
      </trkpt>
      <trkpt lat="42.4408700" lon="-2.9523300">
        <ele>644.6</ele>
        <time>2022-08-29T07:56:48Z</time>
      </trkpt>
      <trkpt lat="42.4408760" lon="-2.9523730">
        <ele>644.4</ele>
        <time>2022-08-29T07:56:49Z</time>
      </trkpt>
      <trkpt lat="42.4408790" lon="-2.9524160">
        <ele>644.4</ele>
        <time>2022-08-29T07:56:50Z</time>
      </trkpt>
      <trkpt lat="42.4408820" lon="-2.9524580">
        <ele>644.6</ele>
        <time>2022-08-29T07:56:51Z</time>
      </trkpt>
      <trkpt lat="42.4408840" lon="-2.9524980">
        <ele>644.4</ele>
        <time>2022-08-29T07:56:52Z</time>
      </trkpt>
      <trkpt lat="42.4408860" lon="-2.9525410">
        <ele>644.4</ele>
        <time>2022-08-29T07:56:53Z</time>
      </trkpt>
      <trkpt lat="42.4408910" lon="-2.9525840">
        <ele>644.4</ele>
        <time>2022-08-29T07:56:54Z</time>
      </trkpt>
      <trkpt lat="42.4408990" lon="-2.9526270">
        <ele>644.4</ele>
        <time>2022-08-29T07:56:55Z</time>
      </trkpt>
      <trkpt lat="42.4409140" lon="-2.9526680">
        <ele>644.4</ele>
        <time>2022-08-29T07:56:56Z</time>
      </trkpt>
      <trkpt lat="42.4409220" lon="-2.9527090">
        <ele>644.4</ele>
        <time>2022-08-29T07:56:57Z</time>
      </trkpt>
      <trkpt lat="42.4409330" lon="-2.9527510">
        <ele>644.4</ele>
        <time>2022-08-29T07:56:58Z</time>
      </trkpt>
      <trkpt lat="42.4409470" lon="-2.9527910">
        <ele>644.6</ele>
        <time>2022-08-29T07:56:59Z</time>
      </trkpt>
      <trkpt lat="42.4409600" lon="-2.9528300">
        <ele>644.4</ele>
        <time>2022-08-29T07:57:00Z</time>
      </trkpt>
      <trkpt lat="42.4409670" lon="-2.9528710">
        <ele>644.6</ele>
        <time>2022-08-29T07:57:01Z</time>
      </trkpt>
      <trkpt lat="42.4409700" lon="-2.9529140">
        <ele>644.6</ele>
        <time>2022-08-29T07:57:02Z</time>
      </trkpt>
      <trkpt lat="42.4409780" lon="-2.9529560">
        <ele>644.4</ele>
        <time>2022-08-29T07:57:03Z</time>
      </trkpt>
      <trkpt lat="42.4409920" lon="-2.9529940">
        <ele>644.6</ele>
        <time>2022-08-29T07:57:04Z</time>
      </trkpt>
      <trkpt lat="42.4409940" lon="-2.9530330">
        <ele>644.4</ele>
        <time>2022-08-29T07:57:05Z</time>
      </trkpt>
      <trkpt lat="42.4410000" lon="-2.9530700">
        <ele>644.6</ele>
        <time>2022-08-29T07:57:06Z</time>
      </trkpt>
      <trkpt lat="42.4410070" lon="-2.9531090">
        <ele>644.4</ele>
        <time>2022-08-29T07:57:07Z</time>
      </trkpt>
      <trkpt lat="42.4410020" lon="-2.9531530">
        <ele>644.6</ele>
        <time>2022-08-29T07:57:08Z</time>
      </trkpt>
      <trkpt lat="42.4409960" lon="-2.9531960">
        <ele>644.6</ele>
        <time>2022-08-29T07:57:09Z</time>
      </trkpt>
      <trkpt lat="42.4409920" lon="-2.9532370">
        <ele>644.6</ele>
        <time>2022-08-29T07:57:10Z</time>
      </trkpt>
      <trkpt lat="42.4409860" lon="-2.9532750">
        <ele>644.6</ele>
        <time>2022-08-29T07:57:11Z</time>
      </trkpt>
      <trkpt lat="42.4409740" lon="-2.9533070">
        <ele>644.6</ele>
        <time>2022-08-29T07:57:12Z</time>
      </trkpt>
      <trkpt lat="42.4409600" lon="-2.9533390">
        <ele>644.6</ele>
        <time>2022-08-29T07:57:13Z</time>
      </trkpt>
      <trkpt lat="42.4409460" lon="-2.9533690">
        <ele>644.6</ele>
        <time>2022-08-29T07:57:14Z</time>
      </trkpt>
      <trkpt lat="42.4409340" lon="-2.9533950">
        <ele>644.6</ele>
        <time>2022-08-29T07:57:15Z</time>
      </trkpt>
      <trkpt lat="42.4409270" lon="-2.9534210">
        <ele>644.8</ele>
        <time>2022-08-29T07:57:16Z</time>
      </trkpt>
      <trkpt lat="42.4409020" lon="-2.9534400">
        <ele>644.8</ele>
        <time>2022-08-29T07:57:17Z</time>
      </trkpt>
      <trkpt lat="42.4408840" lon="-2.9534620">
        <ele>644.8</ele>
        <time>2022-08-29T07:57:18Z</time>
      </trkpt>
      <trkpt lat="42.4408710" lon="-2.9534890">
        <ele>644.8</ele>
        <time>2022-08-29T07:57:19Z</time>
      </trkpt>
      <trkpt lat="42.4408570" lon="-2.9535180">
        <ele>644.6</ele>
        <time>2022-08-29T07:57:20Z</time>
      </trkpt>
      <trkpt lat="42.4408440" lon="-2.9535440">
        <ele>644.8</ele>
        <time>2022-08-29T07:57:21Z</time>
      </trkpt>
      <trkpt lat="42.4408320" lon="-2.9535710">
        <ele>644.8</ele>
        <time>2022-08-29T07:57:22Z</time>
      </trkpt>
      <trkpt lat="42.4408260" lon="-2.9536040">
        <ele>644.8</ele>
        <time>2022-08-29T07:57:23Z</time>
      </trkpt>
      <trkpt lat="42.4408200" lon="-2.9536330">
        <ele>645.0</ele>
        <time>2022-08-29T07:57:24Z</time>
      </trkpt>
      <trkpt lat="42.4408160" lon="-2.9536600">
        <ele>645.4</ele>
        <time>2022-08-29T07:57:25Z</time>
      </trkpt>
      <trkpt lat="42.4408170" lon="-2.9536930">
        <ele>645.4</ele>
        <time>2022-08-29T07:57:26Z</time>
      </trkpt>
      <trkpt lat="42.4408160" lon="-2.9537200">
        <ele>645.6</ele>
        <time>2022-08-29T07:57:27Z</time>
      </trkpt>
      <trkpt lat="42.4408110" lon="-2.9537430">
        <ele>645.6</ele>
        <time>2022-08-29T07:57:28Z</time>
      </trkpt>
      <trkpt lat="42.4407980" lon="-2.9537690">
        <ele>645.6</ele>
        <time>2022-08-29T07:57:29Z</time>
      </trkpt>
      <trkpt lat="42.4407900" lon="-2.9537880">
        <ele>645.6</ele>
        <time>2022-08-29T07:57:30Z</time>
      </trkpt>
      <trkpt lat="42.4407830" lon="-2.9538080">
        <ele>645.4</ele>
        <time>2022-08-29T07:57:31Z</time>
      </trkpt>
      <trkpt lat="42.4407790" lon="-2.9538280">
        <ele>645.6</ele>
        <time>2022-08-29T07:57:32Z</time>
      </trkpt>
      <trkpt lat="42.4407760" lon="-2.9538360">
        <ele>645.6</ele>
        <time>2022-08-29T07:57:33Z</time>
      </trkpt>
      <trkpt lat="42.4407610" lon="-2.9538370">
        <ele>645.8</ele>
        <time>2022-08-29T07:57:34Z</time>
      </trkpt>
      <trkpt lat="42.4407590" lon="-2.9538360">
        <ele>645.6</ele>
        <time>2022-08-29T07:57:35Z</time>
      </trkpt>
      <trkpt lat="42.4407610" lon="-2.9538340">
        <ele>645.6</ele>
        <time>2022-08-29T07:57:36Z</time>
      </trkpt>
      <trkpt lat="42.4407710" lon="-2.9538300">
        <ele>645.6</ele>
        <time>2022-08-29T07:57:37Z</time>
      </trkpt>
      <trkpt lat="42.4407720" lon="-2.9538300">
        <ele>645.6</ele>
        <time>2022-08-29T07:57:38Z</time>
      </trkpt>
      <trkpt lat="42.4407720" lon="-2.9538300">
        <ele>645.6</ele>
        <time>2022-08-29T07:57:39Z</time>
      </trkpt>
      <trkpt lat="42.4407720" lon="-2.9538290">
        <ele>645.6</ele>
        <time>2022-08-29T07:57:40Z</time>
      </trkpt>
      <trkpt lat="42.4407720" lon="-2.9538290">
        <ele>645.6</ele>
        <time>2022-08-29T07:57:41Z</time>
      </trkpt>
      <trkpt lat="42.4407720" lon="-2.9538290">
        <ele>645.6</ele>
        <time>2022-08-29T07:57:42Z</time>
      </trkpt>
      <trkpt lat="42.4407720" lon="-2.9538290">
        <ele>645.4</ele>
        <time>2022-08-29T07:57:43Z</time>
      </trkpt>
      <trkpt lat="42.4407720" lon="-2.9538290">
        <ele>645.6</ele>
        <time>2022-08-29T07:57:44Z</time>
      </trkpt>
      <trkpt lat="42.4407720" lon="-2.9538290">
        <ele>645.6</ele>
        <time>2022-08-29T07:57:45Z</time>
      </trkpt>
      <trkpt lat="42.4407720" lon="-2.9538290">
        <ele>645.6</ele>
        <time>2022-08-29T07:57:46Z</time>
      </trkpt>
      <trkpt lat="42.4407720" lon="-2.9538280">
        <ele>645.6</ele>
        <time>2022-08-29T07:57:47Z</time>
      </trkpt>
      <trkpt lat="42.4407720" lon="-2.9538270">
        <ele>645.6</ele>
        <time>2022-08-29T07:57:48Z</time>
      </trkpt>
      <trkpt lat="42.4407720" lon="-2.9538260">
        <ele>645.6</ele>
        <time>2022-08-29T07:57:49Z</time>
      </trkpt>
      <trkpt lat="42.4407730" lon="-2.9538250">
        <ele>645.8</ele>
        <time>2022-08-29T07:57:50Z</time>
      </trkpt>
      <trkpt lat="42.4407730" lon="-2.9538230">
        <ele>645.6</ele>
        <time>2022-08-29T07:57:51Z</time>
      </trkpt>
      <trkpt lat="42.4407730" lon="-2.9538230">
        <ele>645.6</ele>
        <time>2022-08-29T07:57:52Z</time>
      </trkpt>
      <trkpt lat="42.4407730" lon="-2.9538230">
        <ele>645.8</ele>
        <time>2022-08-29T07:57:53Z</time>
      </trkpt>
      <trkpt lat="42.4407740" lon="-2.9538220">
        <ele>645.6</ele>
        <time>2022-08-29T07:57:54Z</time>
      </trkpt>
      <trkpt lat="42.4407750" lon="-2.9538210">
        <ele>645.6</ele>
        <time>2022-08-29T07:57:55Z</time>
      </trkpt>
      <trkpt lat="42.4407750" lon="-2.9538170">
        <ele>645.6</ele>
        <time>2022-08-29T07:57:56Z</time>
      </trkpt>
      <trkpt lat="42.4407760" lon="-2.9538110">
        <ele>645.6</ele>
        <time>2022-08-29T07:57:57Z</time>
      </trkpt>
      <trkpt lat="42.4407750" lon="-2.9538070">
        <ele>645.6</ele>
        <time>2022-08-29T07:57:58Z</time>
      </trkpt>
      <trkpt lat="42.4407720" lon="-2.9538050">
        <ele>645.6</ele>
        <time>2022-08-29T07:57:59Z</time>
      </trkpt>
      <trkpt lat="42.4407700" lon="-2.9538030">
        <ele>645.8</ele>
        <time>2022-08-29T07:58:00Z</time>
      </trkpt>
      <trkpt lat="42.4407700" lon="-2.9538020">
        <ele>645.8</ele>
        <time>2022-08-29T07:58:01Z</time>
      </trkpt>
      <trkpt lat="42.4407700" lon="-2.9538020">
        <ele>645.8</ele>
        <time>2022-08-29T07:58:02Z</time>
      </trkpt>
      <trkpt lat="42.4407700" lon="-2.9538020">
        <ele>645.6</ele>
        <time>2022-08-29T07:58:03Z</time>
      </trkpt>
      <trkpt lat="42.4407690" lon="-2.9538020">
        <ele>645.6</ele>
        <time>2022-08-29T07:58:04Z</time>
      </trkpt>
      <trkpt lat="42.4407680" lon="-2.9538030">
        <ele>645.8</ele>
        <time>2022-08-29T07:58:05Z</time>
      </trkpt>
      <trkpt lat="42.4407650" lon="-2.9538040">
        <ele>645.8</ele>
        <time>2022-08-29T07:58:06Z</time>
      </trkpt>
      <trkpt lat="42.4407640" lon="-2.9538030">
        <ele>645.6</ele>
        <time>2022-08-29T07:58:07Z</time>
      </trkpt>
      <trkpt lat="42.4407640" lon="-2.9538030">
        <ele>645.6</ele>
        <time>2022-08-29T07:58:08Z</time>
      </trkpt>
      <trkpt lat="42.4407640" lon="-2.9538030">
        <ele>645.8</ele>
        <time>2022-08-29T07:58:09Z</time>
      </trkpt>
      <trkpt lat="42.4407640" lon="-2.9538030">
        <ele>645.6</ele>
        <time>2022-08-29T07:58:10Z</time>
      </trkpt>
      <trkpt lat="42.4407640" lon="-2.9538020">
        <ele>645.6</ele>
        <time>2022-08-29T07:58:11Z</time>
      </trkpt>
      <trkpt lat="42.4407630" lon="-2.9538020">
        <ele>645.8</ele>
        <time>2022-08-29T07:58:12Z</time>
      </trkpt>
      <trkpt lat="42.4407630" lon="-2.9538020">
        <ele>645.6</ele>
        <time>2022-08-29T07:58:13Z</time>
      </trkpt>
      <trkpt lat="42.4407630" lon="-2.9538010">
        <ele>645.8</ele>
        <time>2022-08-29T07:58:14Z</time>
      </trkpt>
      <trkpt lat="42.4407630" lon="-2.9538000">
        <ele>645.6</ele>
        <time>2022-08-29T07:58:15Z</time>
      </trkpt>
      <trkpt lat="42.4407630" lon="-2.9537990">
        <ele>645.6</ele>
        <time>2022-08-29T07:58:16Z</time>
      </trkpt>
      <trkpt lat="42.4407630" lon="-2.9537980">
        <ele>645.6</ele>
        <time>2022-08-29T07:58:17Z</time>
      </trkpt>
      <trkpt lat="42.4407630" lon="-2.9537970">
        <ele>645.6</ele>
        <time>2022-08-29T07:58:18Z</time>
      </trkpt>
      <trkpt lat="42.4407650" lon="-2.9537950">
        <ele>645.6</ele>
        <time>2022-08-29T07:58:19Z</time>
      </trkpt>
      <trkpt lat="42.4407660" lon="-2.9537940">
        <ele>645.6</ele>
        <time>2022-08-29T07:58:20Z</time>
      </trkpt>
      <trkpt lat="42.4407670" lon="-2.9537920">
        <ele>645.6</ele>
        <time>2022-08-29T07:58:21Z</time>
      </trkpt>
      <trkpt lat="42.4407700" lon="-2.9537890">
        <ele>645.4</ele>
        <time>2022-08-29T07:58:22Z</time>
      </trkpt>
      <trkpt lat="42.4407750" lon="-2.9537880">
        <ele>645.6</ele>
        <time>2022-08-29T07:58:23Z</time>
      </trkpt>
      <trkpt lat="42.4407770" lon="-2.9537870">
        <ele>645.6</ele>
        <time>2022-08-29T07:58:24Z</time>
      </trkpt>
      <trkpt lat="42.4407790" lon="-2.9537850">
        <ele>645.4</ele>
        <time>2022-08-29T07:58:25Z</time>
      </trkpt>
      <trkpt lat="42.4407830" lon="-2.9537830">
        <ele>645.4</ele>
        <time>2022-08-29T07:58:26Z</time>
      </trkpt>
      <trkpt lat="42.4407810" lon="-2.9537740">
        <ele>645.4</ele>
        <time>2022-08-29T07:58:27Z</time>
      </trkpt>
      <trkpt lat="42.4407760" lon="-2.9537570">
        <ele>645.4</ele>
        <time>2022-08-29T07:58:28Z</time>
      </trkpt>
      <trkpt lat="42.4407750" lon="-2.9537390">
        <ele>645.4</ele>
        <time>2022-08-29T07:58:29Z</time>
      </trkpt>
      <trkpt lat="42.4407740" lon="-2.9537230">
        <ele>645.4</ele>
        <time>2022-08-29T07:58:30Z</time>
      </trkpt>
      <trkpt lat="42.4407690" lon="-2.9537100">
        <ele>645.4</ele>
        <time>2022-08-29T07:58:31Z</time>
      </trkpt>
      <trkpt lat="42.4407700" lon="-2.9536950">
        <ele>645.2</ele>
        <time>2022-08-29T07:58:32Z</time>
      </trkpt>
      <trkpt lat="42.4407660" lon="-2.9536840">
        <ele>645.4</ele>
        <time>2022-08-29T07:58:33Z</time>
      </trkpt>
      <trkpt lat="42.4407640" lon="-2.9536730">
        <ele>645.4</ele>
        <time>2022-08-29T07:58:34Z</time>
      </trkpt>
      <trkpt lat="42.4407570" lon="-2.9536690">
        <ele>645.2</ele>
        <time>2022-08-29T07:58:35Z</time>
      </trkpt>
      <trkpt lat="42.4407560" lon="-2.9536680">
        <ele>645.2</ele>
        <time>2022-08-29T07:58:36Z</time>
      </trkpt>
      <trkpt lat="42.4407540" lon="-2.9536650">
        <ele>645.2</ele>
        <time>2022-08-29T07:58:37Z</time>
      </trkpt>
      <trkpt lat="42.4407540" lon="-2.9536640">
        <ele>645.2</ele>
        <time>2022-08-29T07:58:38Z</time>
      </trkpt>
      <trkpt lat="42.4407570" lon="-2.9536590">
        <ele>645.2</ele>
        <time>2022-08-29T07:58:39Z</time>
      </trkpt>
      <trkpt lat="42.4407580" lon="-2.9536600">
        <ele>645.0</ele>
        <time>2022-08-29T07:58:40Z</time>
      </trkpt>
      <trkpt lat="42.4407610" lon="-2.9536580">
        <ele>645.0</ele>
        <time>2022-08-29T07:58:41Z</time>
      </trkpt>
      <trkpt lat="42.4407600" lon="-2.9536570">
        <ele>645.0</ele>
        <time>2022-08-29T07:58:42Z</time>
      </trkpt>
      <trkpt lat="42.4407580" lon="-2.9536570">
        <ele>645.0</ele>
        <time>2022-08-29T07:58:43Z</time>
      </trkpt>
      <trkpt lat="42.4407590" lon="-2.9536550">
        <ele>645.0</ele>
        <time>2022-08-29T07:58:44Z</time>
      </trkpt>
      <trkpt lat="42.4407600" lon="-2.9536550">
        <ele>645.0</ele>
        <time>2022-08-29T07:58:45Z</time>
      </trkpt>
      <trkpt lat="42.4407610" lon="-2.9536550">
        <ele>645.0</ele>
        <time>2022-08-29T07:58:46Z</time>
      </trkpt>
      <trkpt lat="42.4407600" lon="-2.9536540">
        <ele>645.0</ele>
        <time>2022-08-29T07:58:47Z</time>
      </trkpt>
      <trkpt lat="42.4407590" lon="-2.9536550">
        <ele>645.0</ele>
        <time>2022-08-29T07:58:48Z</time>
      </trkpt>
      <trkpt lat="42.4407670" lon="-2.9536560">
        <ele>645.0</ele>
        <time>2022-08-29T07:58:49Z</time>
      </trkpt>
      <trkpt lat="42.4407700" lon="-2.9536570">
        <ele>645.0</ele>
        <time>2022-08-29T07:58:50Z</time>
      </trkpt>
      <trkpt lat="42.4407730" lon="-2.9536570">
        <ele>645.0</ele>
        <time>2022-08-29T07:58:51Z</time>
      </trkpt>
      <trkpt lat="42.4407750" lon="-2.9536570">
        <ele>645.2</ele>
        <time>2022-08-29T07:58:52Z</time>
      </trkpt>
      <trkpt lat="42.4407780" lon="-2.9536570">
        <ele>645.0</ele>
        <time>2022-08-29T07:58:53Z</time>
      </trkpt>
      <trkpt lat="42.4407800" lon="-2.9536590">
        <ele>645.2</ele>
        <time>2022-08-29T07:58:54Z</time>
      </trkpt>
      <trkpt lat="42.4407810" lon="-2.9536590">
        <ele>645.0</ele>
        <time>2022-08-29T07:58:55Z</time>
      </trkpt>
      <trkpt lat="42.4407790" lon="-2.9536610">
        <ele>645.0</ele>
        <time>2022-08-29T07:58:56Z</time>
      </trkpt>
      <trkpt lat="42.4407800" lon="-2.9536620">
        <ele>645.0</ele>
        <time>2022-08-29T07:58:57Z</time>
      </trkpt>
      <trkpt lat="42.4407770" lon="-2.9536600">
        <ele>645.0</ele>
        <time>2022-08-29T07:58:58Z</time>
      </trkpt>
      <trkpt lat="42.4407730" lon="-2.9536590">
        <ele>645.0</ele>
        <time>2022-08-29T07:58:59Z</time>
      </trkpt>
      <trkpt lat="42.4407750" lon="-2.9536630">
        <ele>645.0</ele>
        <time>2022-08-29T07:59:00Z</time>
      </trkpt>
      <trkpt lat="42.4407730" lon="-2.9536620">
        <ele>645.0</ele>
        <time>2022-08-29T07:59:01Z</time>
      </trkpt>
      <trkpt lat="42.4407760" lon="-2.9536640">
        <ele>645.0</ele>
        <time>2022-08-29T07:59:02Z</time>
      </trkpt>
      <trkpt lat="42.4407760" lon="-2.9536640">
        <ele>645.0</ele>
        <time>2022-08-29T07:59:03Z</time>
      </trkpt>
      <trkpt lat="42.4407810" lon="-2.9536690">
        <ele>645.2</ele>
        <time>2022-08-29T07:59:04Z</time>
      </trkpt>
      <trkpt lat="42.4407820" lon="-2.9536730">
        <ele>645.0</ele>
        <time>2022-08-29T07:59:05Z</time>
      </trkpt>
      <trkpt lat="42.4407880" lon="-2.9536770">
        <ele>645.0</ele>
        <time>2022-08-29T07:59:06Z</time>
      </trkpt>
      <trkpt lat="42.4407940" lon="-2.9536830">
        <ele>645.0</ele>
        <time>2022-08-29T07:59:07Z</time>
      </trkpt>
      <trkpt lat="42.4407950" lon="-2.9536840">
        <ele>645.0</ele>
        <time>2022-08-29T07:59:08Z</time>
      </trkpt>
      <trkpt lat="42.4407900" lon="-2.9536840">
        <ele>644.8</ele>
        <time>2022-08-29T07:59:09Z</time>
      </trkpt>
      <trkpt lat="42.4407870" lon="-2.9536820">
        <ele>644.8</ele>
        <time>2022-08-29T07:59:10Z</time>
      </trkpt>
      <trkpt lat="42.4407840" lon="-2.9536820">
        <ele>644.8</ele>
        <time>2022-08-29T07:59:11Z</time>
      </trkpt>
      <trkpt lat="42.4407780" lon="-2.9536800">
        <ele>644.8</ele>
        <time>2022-08-29T07:59:12Z</time>
      </trkpt>
      <trkpt lat="42.4407770" lon="-2.9536820">
        <ele>644.8</ele>
        <time>2022-08-29T07:59:13Z</time>
      </trkpt>
      <trkpt lat="42.4407750" lon="-2.9536850">
        <ele>645.0</ele>
        <time>2022-08-29T07:59:14Z</time>
      </trkpt>
      <trkpt lat="42.4407720" lon="-2.9536860">
        <ele>644.8</ele>
        <time>2022-08-29T07:59:15Z</time>
      </trkpt>
      <trkpt lat="42.4407680" lon="-2.9536860">
        <ele>645.0</ele>
        <time>2022-08-29T07:59:16Z</time>
      </trkpt>
      <trkpt lat="42.4407630" lon="-2.9536860">
        <ele>644.8</ele>
        <time>2022-08-29T07:59:17Z</time>
      </trkpt>
      <trkpt lat="42.4407580" lon="-2.9536840">
        <ele>644.8</ele>
        <time>2022-08-29T07:59:18Z</time>
      </trkpt>
      <trkpt lat="42.4407550" lon="-2.9536840">
        <ele>645.0</ele>
        <time>2022-08-29T07:59:19Z</time>
      </trkpt>
      <trkpt lat="42.4407540" lon="-2.9536860">
        <ele>644.8</ele>
        <time>2022-08-29T07:59:20Z</time>
      </trkpt>
      <trkpt lat="42.4407500" lon="-2.9536870">
        <ele>644.8</ele>
        <time>2022-08-29T07:59:21Z</time>
      </trkpt>
      <trkpt lat="42.4407460" lon="-2.9536880">
        <ele>644.8</ele>
        <time>2022-08-29T07:59:22Z</time>
      </trkpt>
      <trkpt lat="42.4407430" lon="-2.9536880">
        <ele>644.8</ele>
        <time>2022-08-29T07:59:23Z</time>
      </trkpt>
      <trkpt lat="42.4407390" lon="-2.9536910">
        <ele>644.8</ele>
        <time>2022-08-29T07:59:24Z</time>
      </trkpt>
      <trkpt lat="42.4407370" lon="-2.9536940">
        <ele>644.8</ele>
        <time>2022-08-29T07:59:25Z</time>
      </trkpt>
      <trkpt lat="42.4407340" lon="-2.9536960">
        <ele>644.8</ele>
        <time>2022-08-29T07:59:26Z</time>
      </trkpt>
      <trkpt lat="42.4407320" lon="-2.9536980">
        <ele>644.6</ele>
        <time>2022-08-29T07:59:27Z</time>
      </trkpt>
      <trkpt lat="42.4407280" lon="-2.9536980">
        <ele>644.6</ele>
        <time>2022-08-29T07:59:28Z</time>
      </trkpt>
      <trkpt lat="42.4407270" lon="-2.9537020">
        <ele>644.8</ele>
        <time>2022-08-29T07:59:29Z</time>
      </trkpt>
      <trkpt lat="42.4407270" lon="-2.9537060">
        <ele>644.8</ele>
        <time>2022-08-29T07:59:30Z</time>
      </trkpt>
      <trkpt lat="42.4407260" lon="-2.9537080">
        <ele>644.8</ele>
        <time>2022-08-29T07:59:31Z</time>
      </trkpt>
      <trkpt lat="42.4407250" lon="-2.9537090">
        <ele>644.6</ele>
        <time>2022-08-29T07:59:32Z</time>
      </trkpt>
      <trkpt lat="42.4407250" lon="-2.9537090">
        <ele>644.8</ele>
        <time>2022-08-29T07:59:33Z</time>
      </trkpt>
      <trkpt lat="42.4407210" lon="-2.9537100">
        <ele>644.8</ele>
        <time>2022-08-29T07:59:34Z</time>
      </trkpt>
      <trkpt lat="42.4407210" lon="-2.9537120">
        <ele>644.8</ele>
        <time>2022-08-29T07:59:35Z</time>
      </trkpt>
      <trkpt lat="42.4407190" lon="-2.9537140">
        <ele>644.8</ele>
        <time>2022-08-29T07:59:36Z</time>
      </trkpt>
      <trkpt lat="42.4407180" lon="-2.9537150">
        <ele>644.8</ele>
        <time>2022-08-29T07:59:37Z</time>
      </trkpt>
      <trkpt lat="42.4407180" lon="-2.9537150">
        <ele>644.6</ele>
        <time>2022-08-29T07:59:38Z</time>
      </trkpt>
      <trkpt lat="42.4407180" lon="-2.9537150">
        <ele>644.6</ele>
        <time>2022-08-29T07:59:39Z</time>
      </trkpt>
      <trkpt lat="42.4407180" lon="-2.9537150">
        <ele>644.8</ele>
        <time>2022-08-29T07:59:40Z</time>
      </trkpt>
      <trkpt lat="42.4407180" lon="-2.9537140">
        <ele>644.6</ele>
        <time>2022-08-29T07:59:41Z</time>
      </trkpt>
      <trkpt lat="42.4407190" lon="-2.9537120">
        <ele>644.6</ele>
        <time>2022-08-29T07:59:42Z</time>
      </trkpt>
      <trkpt lat="42.4407180" lon="-2.9537110">
        <ele>644.6</ele>
        <time>2022-08-29T07:59:43Z</time>
      </trkpt>
      <trkpt lat="42.4407160" lon="-2.9537080">
        <ele>644.6</ele>
        <time>2022-08-29T07:59:44Z</time>
      </trkpt>
      <trkpt lat="42.4407170" lon="-2.9537080">
        <ele>644.4</ele>
        <time>2022-08-29T07:59:45Z</time>
      </trkpt>
      <trkpt lat="42.4407190" lon="-2.9537070">
        <ele>644.4</ele>
        <time>2022-08-29T07:59:46Z</time>
      </trkpt>
      <trkpt lat="42.4407180" lon="-2.9537050">
        <ele>644.6</ele>
        <time>2022-08-29T07:59:47Z</time>
      </trkpt>
      <trkpt lat="42.4407160" lon="-2.9537020">
        <ele>644.6</ele>
        <time>2022-08-29T07:59:48Z</time>
      </trkpt>
      <trkpt lat="42.4407150" lon="-2.9537020">
        <ele>644.6</ele>
        <time>2022-08-29T07:59:49Z</time>
      </trkpt>
      <trkpt lat="42.4407150" lon="-2.9537030">
        <ele>644.6</ele>
        <time>2022-08-29T07:59:50Z</time>
      </trkpt>
      <trkpt lat="42.4407150" lon="-2.9537030">
        <ele>644.6</ele>
        <time>2022-08-29T07:59:51Z</time>
      </trkpt>
      <trkpt lat="42.4407150" lon="-2.9537030">
        <ele>644.4</ele>
        <time>2022-08-29T07:59:52Z</time>
      </trkpt>
      <trkpt lat="42.4407150" lon="-2.9537020">
        <ele>644.4</ele>
        <time>2022-08-29T07:59:53Z</time>
      </trkpt>
      <trkpt lat="42.4407160" lon="-2.9537020">
        <ele>644.6</ele>
        <time>2022-08-29T07:59:54Z</time>
      </trkpt>
      <trkpt lat="42.4407160" lon="-2.9537020">
        <ele>644.6</ele>
        <time>2022-08-29T07:59:55Z</time>
      </trkpt>
      <trkpt lat="42.4407160" lon="-2.9537010">
        <ele>644.6</ele>
        <time>2022-08-29T07:59:56Z</time>
      </trkpt>
      <trkpt lat="42.4407160" lon="-2.9537020">
        <ele>644.4</ele>
        <time>2022-08-29T07:59:57Z</time>
      </trkpt>
      <trkpt lat="42.4407160" lon="-2.9537020">
        <ele>644.6</ele>
        <time>2022-08-29T07:59:58Z</time>
      </trkpt>
      <trkpt lat="42.4407150" lon="-2.9537010">
        <ele>644.6</ele>
        <time>2022-08-29T07:59:59Z</time>
      </trkpt>
      <trkpt lat="42.4407150" lon="-2.9537010">
        <ele>644.6</ele>
        <time>2022-08-29T08:00:00Z</time>
      </trkpt>
      <trkpt lat="42.4407160" lon="-2.9537010">
        <ele>644.4</ele>
        <time>2022-08-29T08:00:01Z</time>
      </trkpt>
      <trkpt lat="42.4407160" lon="-2.9537010">
        <ele>644.6</ele>
        <time>2022-08-29T08:00:02Z</time>
      </trkpt>
      <trkpt lat="42.4407150" lon="-2.9537000">
        <ele>644.6</ele>
        <time>2022-08-29T08:00:03Z</time>
      </trkpt>
      <trkpt lat="42.4407150" lon="-2.9536990">
        <ele>644.6</ele>
        <time>2022-08-29T08:00:04Z</time>
      </trkpt>
      <trkpt lat="42.4407160" lon="-2.9536990">
        <ele>644.6</ele>
        <time>2022-08-29T08:00:05Z</time>
      </trkpt>
      <trkpt lat="42.4407140" lon="-2.9536980">
        <ele>644.6</ele>
        <time>2022-08-29T08:00:06Z</time>
      </trkpt>
      <trkpt lat="42.4407140" lon="-2.9536970">
        <ele>644.6</ele>
        <time>2022-08-29T08:00:07Z</time>
      </trkpt>
      <trkpt lat="42.4407130" lon="-2.9536970">
        <ele>644.6</ele>
        <time>2022-08-29T08:00:08Z</time>
      </trkpt>
      <trkpt lat="42.4407130" lon="-2.9536950">
        <ele>644.4</ele>
        <time>2022-08-29T08:00:09Z</time>
      </trkpt>
      <trkpt lat="42.4407140" lon="-2.9536950">
        <ele>644.4</ele>
        <time>2022-08-29T08:00:10Z</time>
      </trkpt>
      <trkpt lat="42.4407140" lon="-2.9536950">
        <ele>644.4</ele>
        <time>2022-08-29T08:00:11Z</time>
      </trkpt>
      <trkpt lat="42.4407150" lon="-2.9536960">
        <ele>644.4</ele>
        <time>2022-08-29T08:00:12Z</time>
      </trkpt>
      <trkpt lat="42.4407170" lon="-2.9536970">
        <ele>644.6</ele>
        <time>2022-08-29T08:00:13Z</time>
      </trkpt>
      <trkpt lat="42.4407190" lon="-2.9536980">
        <ele>644.4</ele>
        <time>2022-08-29T08:00:14Z</time>
      </trkpt>
      <trkpt lat="42.4407210" lon="-2.9536980">
        <ele>644.4</ele>
        <time>2022-08-29T08:00:15Z</time>
      </trkpt>
      <trkpt lat="42.4407220" lon="-2.9536990">
        <ele>644.4</ele>
        <time>2022-08-29T08:00:16Z</time>
      </trkpt>
      <trkpt lat="42.4407230" lon="-2.9536990">
        <ele>644.4</ele>
        <time>2022-08-29T08:00:17Z</time>
      </trkpt>
      <trkpt lat="42.4407240" lon="-2.9537000">
        <ele>644.4</ele>
        <time>2022-08-29T08:00:18Z</time>
      </trkpt>
      <trkpt lat="42.4407250" lon="-2.9536990">
        <ele>644.4</ele>
        <time>2022-08-29T08:00:19Z</time>
      </trkpt>
      <trkpt lat="42.4407260" lon="-2.9536980">
        <ele>644.4</ele>
        <time>2022-08-29T08:00:20Z</time>
      </trkpt>
      <trkpt lat="42.4407250" lon="-2.9536960">
        <ele>644.4</ele>
        <time>2022-08-29T08:00:21Z</time>
      </trkpt>
      <trkpt lat="42.4407250" lon="-2.9536960">
        <ele>644.6</ele>
        <time>2022-08-29T08:00:22Z</time>
      </trkpt>
      <trkpt lat="42.4407250" lon="-2.9536940">
        <ele>644.4</ele>
        <time>2022-08-29T08:00:23Z</time>
      </trkpt>
      <trkpt lat="42.4407240" lon="-2.9536930">
        <ele>644.4</ele>
        <time>2022-08-29T08:00:24Z</time>
      </trkpt>
      <trkpt lat="42.4407250" lon="-2.9536930">
        <ele>644.4</ele>
        <time>2022-08-29T08:00:25Z</time>
      </trkpt>
      <trkpt lat="42.4407260" lon="-2.9536920">
        <ele>644.4</ele>
        <time>2022-08-29T08:00:26Z</time>
      </trkpt>
      <trkpt lat="42.4407260" lon="-2.9536910">
        <ele>644.4</ele>
        <time>2022-08-29T08:00:27Z</time>
      </trkpt>
      <trkpt lat="42.4407260" lon="-2.9536910">
        <ele>644.4</ele>
        <time>2022-08-29T08:00:28Z</time>
      </trkpt>
      <trkpt lat="42.4407260" lon="-2.9536900">
        <ele>644.4</ele>
        <time>2022-08-29T08:00:29Z</time>
      </trkpt>
      <trkpt lat="42.4407270" lon="-2.9536920">
        <ele>644.4</ele>
        <time>2022-08-29T08:00:30Z</time>
      </trkpt>
      <trkpt lat="42.4407260" lon="-2.9536920">
        <ele>644.4</ele>
        <time>2022-08-29T08:00:31Z</time>
      </trkpt>
      <trkpt lat="42.4407250" lon="-2.9536910">
        <ele>644.4</ele>
        <time>2022-08-29T08:00:32Z</time>
      </trkpt>
      <trkpt lat="42.4407240" lon="-2.9536920">
        <ele>644.4</ele>
        <time>2022-08-29T08:00:33Z</time>
      </trkpt>
      <trkpt lat="42.4407220" lon="-2.9536910">
        <ele>644.4</ele>
        <time>2022-08-29T08:00:34Z</time>
      </trkpt>
      <trkpt lat="42.4407220" lon="-2.9536910">
        <ele>644.4</ele>
        <time>2022-08-29T08:00:35Z</time>
      </trkpt>
      <trkpt lat="42.4407220" lon="-2.9536910">
        <ele>644.4</ele>
        <time>2022-08-29T08:00:36Z</time>
      </trkpt>
      <trkpt lat="42.4407210" lon="-2.9536900">
        <ele>644.4</ele>
        <time>2022-08-29T08:00:37Z</time>
      </trkpt>
      <trkpt lat="42.4407190" lon="-2.9536880">
        <ele>644.4</ele>
        <time>2022-08-29T08:00:38Z</time>
      </trkpt>
      <trkpt lat="42.4407180" lon="-2.9536880">
        <ele>644.4</ele>
        <time>2022-08-29T08:00:39Z</time>
      </trkpt>
      <trkpt lat="42.4407180" lon="-2.9536870">
        <ele>644.4</ele>
        <time>2022-08-29T08:00:40Z</time>
      </trkpt>
      <trkpt lat="42.4407160" lon="-2.9536870">
        <ele>644.2</ele>
        <time>2022-08-29T08:00:41Z</time>
      </trkpt>
      <trkpt lat="42.4407120" lon="-2.9536840">
        <ele>644.4</ele>
        <time>2022-08-29T08:00:42Z</time>
      </trkpt>
      <trkpt lat="42.4407100" lon="-2.9536820">
        <ele>644.4</ele>
        <time>2022-08-29T08:00:43Z</time>
      </trkpt>
      <trkpt lat="42.4407090" lon="-2.9536820">
        <ele>644.4</ele>
        <time>2022-08-29T08:00:44Z</time>
      </trkpt>
      <trkpt lat="42.4407090" lon="-2.9536830">
        <ele>644.4</ele>
        <time>2022-08-29T08:00:45Z</time>
      </trkpt>
      <trkpt lat="42.4407090" lon="-2.9536840">
        <ele>644.4</ele>
        <time>2022-08-29T08:00:46Z</time>
      </trkpt>
      <trkpt lat="42.4407090" lon="-2.9536840">
        <ele>644.2</ele>
        <time>2022-08-29T08:00:47Z</time>
      </trkpt>
      <trkpt lat="42.4407090" lon="-2.9536840">
        <ele>644.4</ele>
        <time>2022-08-29T08:00:48Z</time>
      </trkpt>
      <trkpt lat="42.4407090" lon="-2.9536850">
        <ele>644.4</ele>
        <time>2022-08-29T08:00:49Z</time>
      </trkpt>
      <trkpt lat="42.4407090" lon="-2.9536850">
        <ele>644.2</ele>
        <time>2022-08-29T08:00:50Z</time>
      </trkpt>
      <trkpt lat="42.4407090" lon="-2.9536870">
        <ele>644.2</ele>
        <time>2022-08-29T08:00:51Z</time>
      </trkpt>
      <trkpt lat="42.4407090" lon="-2.9536870">
        <ele>644.2</ele>
        <time>2022-08-29T08:00:52Z</time>
      </trkpt>
      <trkpt lat="42.4407090" lon="-2.9536880">
        <ele>644.4</ele>
        <time>2022-08-29T08:00:53Z</time>
      </trkpt>
      <trkpt lat="42.4407090" lon="-2.9536880">
        <ele>644.4</ele>
        <time>2022-08-29T08:00:54Z</time>
      </trkpt>
      <trkpt lat="42.4407090" lon="-2.9536880">
        <ele>644.4</ele>
        <time>2022-08-29T08:00:55Z</time>
      </trkpt>
      <trkpt lat="42.4407090" lon="-2.9536890">
        <ele>644.4</ele>
        <time>2022-08-29T08:00:56Z</time>
      </trkpt>
      <trkpt lat="42.4407100" lon="-2.9536890">
        <ele>644.4</ele>
        <time>2022-08-29T08:00:57Z</time>
      </trkpt>
      <trkpt lat="42.4407100" lon="-2.9536890">
        <ele>644.4</ele>
        <time>2022-08-29T08:00:58Z</time>
      </trkpt>
      <trkpt lat="42.4407100" lon="-2.9536880">
        <ele>644.4</ele>
        <time>2022-08-29T08:00:59Z</time>
      </trkpt>
      <trkpt lat="42.4407100" lon="-2.9536880">
        <ele>644.4</ele>
        <time>2022-08-29T08:01:00Z</time>
      </trkpt>
      <trkpt lat="42.4407100" lon="-2.9536870">
        <ele>644.4</ele>
        <time>2022-08-29T08:01:01Z</time>
      </trkpt>
      <trkpt lat="42.4407100" lon="-2.9536870">
        <ele>644.4</ele>
        <time>2022-08-29T08:01:02Z</time>
      </trkpt>
      <trkpt lat="42.4407100" lon="-2.9536870">
        <ele>644.4</ele>
        <time>2022-08-29T08:01:03Z</time>
      </trkpt>
      <trkpt lat="42.4407090" lon="-2.9536860">
        <ele>644.4</ele>
        <time>2022-08-29T08:01:04Z</time>
      </trkpt>
      <trkpt lat="42.4407080" lon="-2.9536850">
        <ele>644.4</ele>
        <time>2022-08-29T08:01:05Z</time>
      </trkpt>
      <trkpt lat="42.4407070" lon="-2.9536840">
        <ele>644.4</ele>
        <time>2022-08-29T08:01:06Z</time>
      </trkpt>
      <trkpt lat="42.4407050" lon="-2.9536820">
        <ele>644.4</ele>
        <time>2022-08-29T08:01:07Z</time>
      </trkpt>
      <trkpt lat="42.4407050" lon="-2.9536820">
        <ele>644.4</ele>
        <time>2022-08-29T08:01:08Z</time>
      </trkpt>
      <trkpt lat="42.4407040" lon="-2.9536820">
        <ele>644.4</ele>
        <time>2022-08-29T08:01:09Z</time>
      </trkpt>
      <trkpt lat="42.4407040" lon="-2.9536820">
        <ele>644.4</ele>
        <time>2022-08-29T08:01:10Z</time>
      </trkpt>
      <trkpt lat="42.4407040" lon="-2.9536810">
        <ele>644.4</ele>
        <time>2022-08-29T08:01:11Z</time>
      </trkpt>
      <trkpt lat="42.4407040" lon="-2.9536810">
        <ele>644.4</ele>
        <time>2022-08-29T08:01:12Z</time>
      </trkpt>
      <trkpt lat="42.4407030" lon="-2.9536800">
        <ele>644.4</ele>
        <time>2022-08-29T08:01:13Z</time>
      </trkpt>
      <trkpt lat="42.4407030" lon="-2.9536800">
        <ele>644.4</ele>
        <time>2022-08-29T08:01:14Z</time>
      </trkpt>
      <trkpt lat="42.4407030" lon="-2.9536780">
        <ele>644.4</ele>
        <time>2022-08-29T08:01:15Z</time>
      </trkpt>
      <trkpt lat="42.4407030" lon="-2.9536770">
        <ele>644.4</ele>
        <time>2022-08-29T08:01:16Z</time>
      </trkpt>
      <trkpt lat="42.4407020" lon="-2.9536760">
        <ele>644.4</ele>
        <time>2022-08-29T08:01:17Z</time>
      </trkpt>
      <trkpt lat="42.4407020" lon="-2.9536760">
        <ele>644.4</ele>
        <time>2022-08-29T08:01:18Z</time>
      </trkpt>
      <trkpt lat="42.4407010" lon="-2.9536770">
        <ele>644.4</ele>
        <time>2022-08-29T08:01:19Z</time>
      </trkpt>
      <trkpt lat="42.4406990" lon="-2.9536770">
        <ele>644.4</ele>
        <time>2022-08-29T08:01:20Z</time>
      </trkpt>
      <trkpt lat="42.4406990" lon="-2.9536760">
        <ele>644.4</ele>
        <time>2022-08-29T08:01:21Z</time>
      </trkpt>
      <trkpt lat="42.4406980" lon="-2.9536760">
        <ele>644.4</ele>
        <time>2022-08-29T08:01:22Z</time>
      </trkpt>
      <trkpt lat="42.4406970" lon="-2.9536750">
        <ele>644.4</ele>
        <time>2022-08-29T08:01:23Z</time>
      </trkpt>
      <trkpt lat="42.4406970" lon="-2.9536750">
        <ele>644.2</ele>
        <time>2022-08-29T08:01:24Z</time>
      </trkpt>
      <trkpt lat="42.4406970" lon="-2.9536750">
        <ele>644.4</ele>
        <time>2022-08-29T08:01:25Z</time>
      </trkpt>
      <trkpt lat="42.4406970" lon="-2.9536750">
        <ele>644.2</ele>
        <time>2022-08-29T08:01:26Z</time>
      </trkpt>
      <trkpt lat="42.4406970" lon="-2.9536750">
        <ele>644.4</ele>
        <time>2022-08-29T08:01:27Z</time>
      </trkpt>
      <trkpt lat="42.4406970" lon="-2.9536750">
        <ele>644.4</ele>
        <time>2022-08-29T08:01:28Z</time>
      </trkpt>
      <trkpt lat="42.4406970" lon="-2.9536750">
        <ele>644.4</ele>
        <time>2022-08-29T08:01:29Z</time>
      </trkpt>
      <trkpt lat="42.4406970" lon="-2.9536750">
        <ele>644.4</ele>
        <time>2022-08-29T08:01:30Z</time>
      </trkpt>
      <trkpt lat="42.4406970" lon="-2.9536750">
        <ele>644.4</ele>
        <time>2022-08-29T08:01:31Z</time>
      </trkpt>
      <trkpt lat="42.4406970" lon="-2.9536750">
        <ele>644.4</ele>
        <time>2022-08-29T08:01:32Z</time>
      </trkpt>
      <trkpt lat="42.4406970" lon="-2.9536740">
        <ele>644.4</ele>
        <time>2022-08-29T08:01:33Z</time>
      </trkpt>
      <trkpt lat="42.4406970" lon="-2.9536740">
        <ele>644.4</ele>
        <time>2022-08-29T08:01:34Z</time>
      </trkpt>
      <trkpt lat="42.4406960" lon="-2.9536750">
        <ele>644.4</ele>
        <time>2022-08-29T08:01:35Z</time>
      </trkpt>
      <trkpt lat="42.4406960" lon="-2.9536760">
        <ele>644.4</ele>
        <time>2022-08-29T08:01:36Z</time>
      </trkpt>
      <trkpt lat="42.4406970" lon="-2.9536760">
        <ele>644.4</ele>
        <time>2022-08-29T08:01:37Z</time>
      </trkpt>
      <trkpt lat="42.4406960" lon="-2.9536760">
        <ele>644.4</ele>
        <time>2022-08-29T08:01:38Z</time>
      </trkpt>
      <trkpt lat="42.4406960" lon="-2.9536760">
        <ele>644.4</ele>
        <time>2022-08-29T08:01:39Z</time>
      </trkpt>
      <trkpt lat="42.4406960" lon="-2.9536760">
        <ele>644.4</ele>
        <time>2022-08-29T08:01:40Z</time>
      </trkpt>
      <trkpt lat="42.4406960" lon="-2.9536750">
        <ele>644.2</ele>
        <time>2022-08-29T08:01:41Z</time>
      </trkpt>
      <trkpt lat="42.4406960" lon="-2.9536740">
        <ele>644.4</ele>
        <time>2022-08-29T08:01:42Z</time>
      </trkpt>
      <trkpt lat="42.4406960" lon="-2.9536730">
        <ele>644.4</ele>
        <time>2022-08-29T08:01:43Z</time>
      </trkpt>
      <trkpt lat="42.4406960" lon="-2.9536740">
        <ele>644.4</ele>
        <time>2022-08-29T08:01:44Z</time>
      </trkpt>
      <trkpt lat="42.4406960" lon="-2.9536740">
        <ele>644.6</ele>
        <time>2022-08-29T08:01:45Z</time>
      </trkpt>
      <trkpt lat="42.4406960" lon="-2.9536740">
        <ele>644.6</ele>
        <time>2022-08-29T08:01:46Z</time>
      </trkpt>
      <trkpt lat="42.4406960" lon="-2.9536740">
        <ele>644.4</ele>
        <time>2022-08-29T08:01:47Z</time>
      </trkpt>
      <trkpt lat="42.4406960" lon="-2.9536740">
        <ele>644.4</ele>
        <time>2022-08-29T08:01:48Z</time>
      </trkpt>
      <trkpt lat="42.4406970" lon="-2.9536740">
        <ele>644.4</ele>
        <time>2022-08-29T08:01:49Z</time>
      </trkpt>
      <trkpt lat="42.4406970" lon="-2.9536740">
        <ele>644.6</ele>
        <time>2022-08-29T08:01:50Z</time>
      </trkpt>
      <trkpt lat="42.4406970" lon="-2.9536730">
        <ele>644.4</ele>
        <time>2022-08-29T08:01:51Z</time>
      </trkpt>
      <trkpt lat="42.4406970" lon="-2.9536730">
        <ele>644.4</ele>
        <time>2022-08-29T08:01:52Z</time>
      </trkpt>
      <trkpt lat="42.4406970" lon="-2.9536720">
        <ele>644.4</ele>
        <time>2022-08-29T08:01:53Z</time>
      </trkpt>
      <trkpt lat="42.4406980" lon="-2.9536720">
        <ele>644.4</ele>
        <time>2022-08-29T08:01:54Z</time>
      </trkpt>
      <trkpt lat="42.4406980" lon="-2.9536720">
        <ele>644.4</ele>
        <time>2022-08-29T08:01:55Z</time>
      </trkpt>
      <trkpt lat="42.4406980" lon="-2.9536720">
        <ele>644.4</ele>
        <time>2022-08-29T08:01:56Z</time>
      </trkpt>
      <trkpt lat="42.4406990" lon="-2.9536720">
        <ele>644.4</ele>
        <time>2022-08-29T08:01:57Z</time>
      </trkpt>
      <trkpt lat="42.4406990" lon="-2.9536720">
        <ele>644.4</ele>
        <time>2022-08-29T08:01:58Z</time>
      </trkpt>
      <trkpt lat="42.4407000" lon="-2.9536710">
        <ele>644.4</ele>
        <time>2022-08-29T08:01:59Z</time>
      </trkpt>
      <trkpt lat="42.4407000" lon="-2.9536720">
        <ele>644.4</ele>
        <time>2022-08-29T08:02:00Z</time>
      </trkpt>
      <trkpt lat="42.4407010" lon="-2.9536720">
        <ele>644.4</ele>
        <time>2022-08-29T08:02:01Z</time>
      </trkpt>
      <trkpt lat="42.4407020" lon="-2.9536730">
        <ele>644.4</ele>
        <time>2022-08-29T08:02:02Z</time>
      </trkpt>
      <trkpt lat="42.4407030" lon="-2.9536740">
        <ele>644.6</ele>
        <time>2022-08-29T08:02:03Z</time>
      </trkpt>
      <trkpt lat="42.4407050" lon="-2.9536760">
        <ele>644.6</ele>
        <time>2022-08-29T08:02:04Z</time>
      </trkpt>
      <trkpt lat="42.4407080" lon="-2.9536800">
        <ele>644.6</ele>
        <time>2022-08-29T08:02:05Z</time>
      </trkpt>
      <trkpt lat="42.4407090" lon="-2.9536810">
        <ele>644.6</ele>
        <time>2022-08-29T08:02:06Z</time>
      </trkpt>
      <trkpt lat="42.4407090" lon="-2.9536810">
        <ele>644.6</ele>
        <time>2022-08-29T08:02:07Z</time>
      </trkpt>
      <trkpt lat="42.4407100" lon="-2.9536820">
        <ele>644.4</ele>
        <time>2022-08-29T08:02:08Z</time>
      </trkpt>
      <trkpt lat="42.4407100" lon="-2.9536810">
        <ele>644.4</ele>
        <time>2022-08-29T08:02:09Z</time>
      </trkpt>
      <trkpt lat="42.4407100" lon="-2.9536810">
        <ele>644.6</ele>
        <time>2022-08-29T08:02:10Z</time>
      </trkpt>
      <trkpt lat="42.4407110" lon="-2.9536810">
        <ele>644.6</ele>
        <time>2022-08-29T08:02:11Z</time>
      </trkpt>
      <trkpt lat="42.4407110" lon="-2.9536820">
        <ele>644.6</ele>
        <time>2022-08-29T08:02:12Z</time>
      </trkpt>
      <trkpt lat="42.4407130" lon="-2.9536820">
        <ele>644.6</ele>
        <time>2022-08-29T08:02:13Z</time>
      </trkpt>
      <trkpt lat="42.4407150" lon="-2.9536830">
        <ele>644.6</ele>
        <time>2022-08-29T08:02:14Z</time>
      </trkpt>
      <trkpt lat="42.4407150" lon="-2.9536830">
        <ele>644.6</ele>
        <time>2022-08-29T08:02:15Z</time>
      </trkpt>
      <trkpt lat="42.4407160" lon="-2.9536830">
        <ele>644.6</ele>
        <time>2022-08-29T08:02:16Z</time>
      </trkpt>
      <trkpt lat="42.4407170" lon="-2.9536840">
        <ele>644.8</ele>
        <time>2022-08-29T08:02:17Z</time>
      </trkpt>
      <trkpt lat="42.4407170" lon="-2.9536840">
        <ele>644.6</ele>
        <time>2022-08-29T08:02:18Z</time>
      </trkpt>
      <trkpt lat="42.4407180" lon="-2.9536850">
        <ele>644.6</ele>
        <time>2022-08-29T08:02:19Z</time>
      </trkpt>
      <trkpt lat="42.4407180" lon="-2.9536850">
        <ele>644.8</ele>
        <time>2022-08-29T08:02:20Z</time>
      </trkpt>
      <trkpt lat="42.4407180" lon="-2.9536850">
        <ele>644.8</ele>
        <time>2022-08-29T08:02:21Z</time>
      </trkpt>
      <trkpt lat="42.4407180" lon="-2.9536850">
        <ele>644.8</ele>
        <time>2022-08-29T08:02:22Z</time>
      </trkpt>
      <trkpt lat="42.4407180" lon="-2.9536850">
        <ele>644.8</ele>
        <time>2022-08-29T08:02:23Z</time>
      </trkpt>
      <trkpt lat="42.4407180" lon="-2.9536850">
        <ele>644.8</ele>
        <time>2022-08-29T08:02:24Z</time>
      </trkpt>
      <trkpt lat="42.4407190" lon="-2.9536850">
        <ele>644.6</ele>
        <time>2022-08-29T08:02:25Z</time>
      </trkpt>
      <trkpt lat="42.4407190" lon="-2.9536850">
        <ele>644.6</ele>
        <time>2022-08-29T08:02:26Z</time>
      </trkpt>
      <trkpt lat="42.4407200" lon="-2.9536850">
        <ele>644.8</ele>
        <time>2022-08-29T08:02:27Z</time>
      </trkpt>
      <trkpt lat="42.4407200" lon="-2.9536850">
        <ele>644.6</ele>
        <time>2022-08-29T08:02:28Z</time>
      </trkpt>
      <trkpt lat="42.4407200" lon="-2.9536850">
        <ele>644.6</ele>
        <time>2022-08-29T08:02:29Z</time>
      </trkpt>
      <trkpt lat="42.4407210" lon="-2.9536850">
        <ele>644.6</ele>
        <time>2022-08-29T08:02:30Z</time>
      </trkpt>
      <trkpt lat="42.4407210" lon="-2.9536850">
        <ele>644.6</ele>
        <time>2022-08-29T08:02:31Z</time>
      </trkpt>
      <trkpt lat="42.4407210" lon="-2.9536840">
        <ele>644.8</ele>
        <time>2022-08-29T08:02:32Z</time>
      </trkpt>
      <trkpt lat="42.4407200" lon="-2.9536840">
        <ele>644.8</ele>
        <time>2022-08-29T08:02:33Z</time>
      </trkpt>
      <trkpt lat="42.4407210" lon="-2.9536850">
        <ele>644.8</ele>
        <time>2022-08-29T08:02:34Z</time>
      </trkpt>
      <trkpt lat="42.4407210" lon="-2.9536850">
        <ele>644.8</ele>
        <time>2022-08-29T08:02:35Z</time>
      </trkpt>
      <trkpt lat="42.4407210" lon="-2.9536850">
        <ele>644.8</ele>
        <time>2022-08-29T08:02:36Z</time>
      </trkpt>
      <trkpt lat="42.4407230" lon="-2.9536870">
        <ele>644.8</ele>
        <time>2022-08-29T08:02:37Z</time>
      </trkpt>
      <trkpt lat="42.4407240" lon="-2.9536870">
        <ele>644.6</ele>
        <time>2022-08-29T08:02:38Z</time>
      </trkpt>
      <trkpt lat="42.4407240" lon="-2.9536870">
        <ele>644.8</ele>
        <time>2022-08-29T08:02:39Z</time>
      </trkpt>
      <trkpt lat="42.4407250" lon="-2.9536870">
        <ele>644.8</ele>
        <time>2022-08-29T08:02:40Z</time>
      </trkpt>
      <trkpt lat="42.4407250" lon="-2.9536870">
        <ele>644.8</ele>
        <time>2022-08-29T08:02:41Z</time>
      </trkpt>
      <trkpt lat="42.4407250" lon="-2.9536870">
        <ele>644.8</ele>
        <time>2022-08-29T08:02:42Z</time>
      </trkpt>
      <trkpt lat="42.4407250" lon="-2.9536870">
        <ele>644.8</ele>
        <time>2022-08-29T08:02:43Z</time>
      </trkpt>
      <trkpt lat="42.4407260" lon="-2.9536870">
        <ele>644.8</ele>
        <time>2022-08-29T08:02:44Z</time>
      </trkpt>
      <trkpt lat="42.4407260" lon="-2.9536870">
        <ele>644.8</ele>
        <time>2022-08-29T08:02:45Z</time>
      </trkpt>
      <trkpt lat="42.4407260" lon="-2.9536870">
        <ele>644.8</ele>
        <time>2022-08-29T08:02:46Z</time>
      </trkpt>
      <trkpt lat="42.4407270" lon="-2.9536870">
        <ele>644.8</ele>
        <time>2022-08-29T08:02:47Z</time>
      </trkpt>
      <trkpt lat="42.4407280" lon="-2.9536860">
        <ele>644.8</ele>
        <time>2022-08-29T08:02:48Z</time>
      </trkpt>
      <trkpt lat="42.4407280" lon="-2.9536850">
        <ele>644.8</ele>
        <time>2022-08-29T08:02:49Z</time>
      </trkpt>
      <trkpt lat="42.4407280" lon="-2.9536850">
        <ele>644.8</ele>
        <time>2022-08-29T08:02:50Z</time>
      </trkpt>
      <trkpt lat="42.4407280" lon="-2.9536850">
        <ele>644.8</ele>
        <time>2022-08-29T08:02:51Z</time>
      </trkpt>
      <trkpt lat="42.4407280" lon="-2.9536850">
        <ele>644.8</ele>
        <time>2022-08-29T08:02:52Z</time>
      </trkpt>
      <trkpt lat="42.4407280" lon="-2.9536850">
        <ele>644.8</ele>
        <time>2022-08-29T08:02:53Z</time>
      </trkpt>
      <trkpt lat="42.4407290" lon="-2.9536850">
        <ele>644.8</ele>
        <time>2022-08-29T08:02:54Z</time>
      </trkpt>
      <trkpt lat="42.4407290" lon="-2.9536840">
        <ele>644.8</ele>
        <time>2022-08-29T08:02:55Z</time>
      </trkpt>
      <trkpt lat="42.4407290" lon="-2.9536830">
        <ele>644.8</ele>
        <time>2022-08-29T08:02:56Z</time>
      </trkpt>
      <trkpt lat="42.4407290" lon="-2.9536830">
        <ele>644.8</ele>
        <time>2022-08-29T08:02:57Z</time>
      </trkpt>
      <trkpt lat="42.4407290" lon="-2.9536830">
        <ele>644.8</ele>
        <time>2022-08-29T08:02:58Z</time>
      </trkpt>
      <trkpt lat="42.4407300" lon="-2.9536830">
        <ele>644.8</ele>
        <time>2022-08-29T08:02:59Z</time>
      </trkpt>
      <trkpt lat="42.4407300" lon="-2.9536830">
        <ele>644.8</ele>
        <time>2022-08-29T08:03:00Z</time>
      </trkpt>
      <trkpt lat="42.4407290" lon="-2.9536830">
        <ele>644.8</ele>
        <time>2022-08-29T08:03:01Z</time>
      </trkpt>
      <trkpt lat="42.4407290" lon="-2.9536830">
        <ele>644.8</ele>
        <time>2022-08-29T08:03:02Z</time>
      </trkpt>
      <trkpt lat="42.4407300" lon="-2.9536820">
        <ele>644.8</ele>
        <time>2022-08-29T08:03:03Z</time>
      </trkpt>
      <trkpt lat="42.4407290" lon="-2.9536830">
        <ele>644.8</ele>
        <time>2022-08-29T08:03:04Z</time>
      </trkpt>
      <trkpt lat="42.4407290" lon="-2.9536830">
        <ele>644.8</ele>
        <time>2022-08-29T08:03:05Z</time>
      </trkpt>
      <trkpt lat="42.4407290" lon="-2.9536830">
        <ele>644.8</ele>
        <time>2022-08-29T08:03:06Z</time>
      </trkpt>
      <trkpt lat="42.4407290" lon="-2.9536830">
        <ele>644.8</ele>
        <time>2022-08-29T08:03:07Z</time>
      </trkpt>
      <trkpt lat="42.4407290" lon="-2.9536830">
        <ele>644.6</ele>
        <time>2022-08-29T08:03:08Z</time>
      </trkpt>
      <trkpt lat="42.4407300" lon="-2.9536830">
        <ele>644.8</ele>
        <time>2022-08-29T08:03:09Z</time>
      </trkpt>
      <trkpt lat="42.4407300" lon="-2.9536820">
        <ele>644.8</ele>
        <time>2022-08-29T08:03:10Z</time>
      </trkpt>
      <trkpt lat="42.4407300" lon="-2.9536820">
        <ele>644.8</ele>
        <time>2022-08-29T08:03:11Z</time>
      </trkpt>
      <trkpt lat="42.4407300" lon="-2.9536810">
        <ele>644.8</ele>
        <time>2022-08-29T08:03:12Z</time>
      </trkpt>
      <trkpt lat="42.4407300" lon="-2.9536810">
        <ele>644.8</ele>
        <time>2022-08-29T08:03:13Z</time>
      </trkpt>
      <trkpt lat="42.4407310" lon="-2.9536800">
        <ele>644.8</ele>
        <time>2022-08-29T08:03:14Z</time>
      </trkpt>
      <trkpt lat="42.4407310" lon="-2.9536800">
        <ele>644.8</ele>
        <time>2022-08-29T08:03:15Z</time>
      </trkpt>
      <trkpt lat="42.4407310" lon="-2.9536800">
        <ele>644.8</ele>
        <time>2022-08-29T08:03:16Z</time>
      </trkpt>
      <trkpt lat="42.4407310" lon="-2.9536800">
        <ele>644.8</ele>
        <time>2022-08-29T08:03:17Z</time>
      </trkpt>
      <trkpt lat="42.4407320" lon="-2.9536800">
        <ele>644.8</ele>
        <time>2022-08-29T08:03:18Z</time>
      </trkpt>
      <trkpt lat="42.4407320" lon="-2.9536800">
        <ele>644.8</ele>
        <time>2022-08-29T08:03:19Z</time>
      </trkpt>
      <trkpt lat="42.4407320" lon="-2.9536800">
        <ele>644.8</ele>
        <time>2022-08-29T08:03:20Z</time>
      </trkpt>
      <trkpt lat="42.4407320" lon="-2.9536800">
        <ele>644.8</ele>
        <time>2022-08-29T08:03:21Z</time>
      </trkpt>
      <trkpt lat="42.4407320" lon="-2.9536800">
        <ele>645.0</ele>
        <time>2022-08-29T08:03:22Z</time>
      </trkpt>
      <trkpt lat="42.4407320" lon="-2.9536800">
        <ele>645.0</ele>
        <time>2022-08-29T08:03:23Z</time>
      </trkpt>
      <trkpt lat="42.4407320" lon="-2.9536800">
        <ele>645.0</ele>
        <time>2022-08-29T08:03:24Z</time>
      </trkpt>
      <trkpt lat="42.4407320" lon="-2.9536800">
        <ele>645.0</ele>
        <time>2022-08-29T08:03:25Z</time>
      </trkpt>
      <trkpt lat="42.4407320" lon="-2.9536800">
        <ele>644.8</ele>
        <time>2022-08-29T08:03:26Z</time>
      </trkpt>
      <trkpt lat="42.4407320" lon="-2.9536800">
        <ele>644.8</ele>
        <time>2022-08-29T08:03:27Z</time>
      </trkpt>
      <trkpt lat="42.4407320" lon="-2.9536800">
        <ele>644.8</ele>
        <time>2022-08-29T08:03:28Z</time>
      </trkpt>
      <trkpt lat="42.4407310" lon="-2.9536810">
        <ele>645.0</ele>
        <time>2022-08-29T08:03:29Z</time>
      </trkpt>
      <trkpt lat="42.4407310" lon="-2.9536810">
        <ele>645.0</ele>
        <time>2022-08-29T08:03:30Z</time>
      </trkpt>
      <trkpt lat="42.4407320" lon="-2.9536800">
        <ele>644.8</ele>
        <time>2022-08-29T08:03:31Z</time>
      </trkpt>
      <trkpt lat="42.4407320" lon="-2.9536800">
        <ele>645.0</ele>
        <time>2022-08-29T08:03:32Z</time>
      </trkpt>
      <trkpt lat="42.4407320" lon="-2.9536800">
        <ele>645.0</ele>
        <time>2022-08-29T08:03:33Z</time>
      </trkpt>
      <trkpt lat="42.4407320" lon="-2.9536790">
        <ele>645.0</ele>
        <time>2022-08-29T08:03:34Z</time>
      </trkpt>
      <trkpt lat="42.4407320" lon="-2.9536790">
        <ele>644.8</ele>
        <time>2022-08-29T08:03:35Z</time>
      </trkpt>
      <trkpt lat="42.4407320" lon="-2.9536790">
        <ele>644.8</ele>
        <time>2022-08-29T08:03:36Z</time>
      </trkpt>
      <trkpt lat="42.4407320" lon="-2.9536790">
        <ele>645.0</ele>
        <time>2022-08-29T08:03:37Z</time>
      </trkpt>
      <trkpt lat="42.4407320" lon="-2.9536790">
        <ele>644.8</ele>
        <time>2022-08-29T08:03:38Z</time>
      </trkpt>
      <trkpt lat="42.4407330" lon="-2.9536790">
        <ele>644.8</ele>
        <time>2022-08-29T08:03:39Z</time>
      </trkpt>
      <trkpt lat="42.4407330" lon="-2.9536780">
        <ele>645.0</ele>
        <time>2022-08-29T08:03:40Z</time>
      </trkpt>
      <trkpt lat="42.4407330" lon="-2.9536780">
        <ele>645.0</ele>
        <time>2022-08-29T08:03:41Z</time>
      </trkpt>
      <trkpt lat="42.4407340" lon="-2.9536770">
        <ele>645.0</ele>
        <time>2022-08-29T08:03:42Z</time>
      </trkpt>
      <trkpt lat="42.4407340" lon="-2.9536760">
        <ele>645.0</ele>
        <time>2022-08-29T08:03:43Z</time>
      </trkpt>
      <trkpt lat="42.4407350" lon="-2.9536760">
        <ele>645.0</ele>
        <time>2022-08-29T08:03:44Z</time>
      </trkpt>
      <trkpt lat="42.4407360" lon="-2.9536760">
        <ele>645.0</ele>
        <time>2022-08-29T08:03:45Z</time>
      </trkpt>
      <trkpt lat="42.4407370" lon="-2.9536760">
        <ele>645.0</ele>
        <time>2022-08-29T08:03:46Z</time>
      </trkpt>
      <trkpt lat="42.4407370" lon="-2.9536760">
        <ele>644.8</ele>
        <time>2022-08-29T08:03:47Z</time>
      </trkpt>
      <trkpt lat="42.4407380" lon="-2.9536770">
        <ele>644.8</ele>
        <time>2022-08-29T08:03:48Z</time>
      </trkpt>
      <trkpt lat="42.4407380" lon="-2.9536770">
        <ele>645.0</ele>
        <time>2022-08-29T08:03:49Z</time>
      </trkpt>
      <trkpt lat="42.4407390" lon="-2.9536760">
        <ele>644.8</ele>
        <time>2022-08-29T08:03:50Z</time>
      </trkpt>
      <trkpt lat="42.4407390" lon="-2.9536750">
        <ele>645.0</ele>
        <time>2022-08-29T08:03:51Z</time>
      </trkpt>
      <trkpt lat="42.4407390" lon="-2.9536750">
        <ele>645.0</ele>
        <time>2022-08-29T08:03:52Z</time>
      </trkpt>
      <trkpt lat="42.4407390" lon="-2.9536760">
        <ele>644.8</ele>
        <time>2022-08-29T08:03:53Z</time>
      </trkpt>
      <trkpt lat="42.4407400" lon="-2.9536760">
        <ele>644.8</ele>
        <time>2022-08-29T08:03:54Z</time>
      </trkpt>
      <trkpt lat="42.4407410" lon="-2.9536760">
        <ele>645.0</ele>
        <time>2022-08-29T08:03:55Z</time>
      </trkpt>
      <trkpt lat="42.4407410" lon="-2.9536760">
        <ele>645.0</ele>
        <time>2022-08-29T08:03:56Z</time>
      </trkpt>
      <trkpt lat="42.4407410" lon="-2.9536760">
        <ele>644.8</ele>
        <time>2022-08-29T08:03:57Z</time>
      </trkpt>
      <trkpt lat="42.4407420" lon="-2.9536750">
        <ele>644.8</ele>
        <time>2022-08-29T08:03:58Z</time>
      </trkpt>
      <trkpt lat="42.4407410" lon="-2.9536750">
        <ele>645.0</ele>
        <time>2022-08-29T08:03:59Z</time>
      </trkpt>
      <trkpt lat="42.4407420" lon="-2.9536760">
        <ele>645.0</ele>
        <time>2022-08-29T08:04:00Z</time>
      </trkpt>
      <trkpt lat="42.4407410" lon="-2.9536750">
        <ele>645.0</ele>
        <time>2022-08-29T08:04:01Z</time>
      </trkpt>
      <trkpt lat="42.4407420" lon="-2.9536750">
        <ele>644.8</ele>
        <time>2022-08-29T08:04:02Z</time>
      </trkpt>
      <trkpt lat="42.4407420" lon="-2.9536750">
        <ele>645.0</ele>
        <time>2022-08-29T08:04:03Z</time>
      </trkpt>
      <trkpt lat="42.4407420" lon="-2.9536750">
        <ele>644.8</ele>
        <time>2022-08-29T08:04:04Z</time>
      </trkpt>
      <trkpt lat="42.4407410" lon="-2.9536740">
        <ele>644.8</ele>
        <time>2022-08-29T08:04:05Z</time>
      </trkpt>
      <trkpt lat="42.4407400" lon="-2.9536740">
        <ele>644.8</ele>
        <time>2022-08-29T08:04:06Z</time>
      </trkpt>
      <trkpt lat="42.4407410" lon="-2.9536740">
        <ele>645.0</ele>
        <time>2022-08-29T08:04:07Z</time>
      </trkpt>
      <trkpt lat="42.4407410" lon="-2.9536740">
        <ele>644.8</ele>
        <time>2022-08-29T08:04:08Z</time>
      </trkpt>
      <trkpt lat="42.4407420" lon="-2.9536750">
        <ele>645.0</ele>
        <time>2022-08-29T08:04:09Z</time>
      </trkpt>
      <trkpt lat="42.4407420" lon="-2.9536750">
        <ele>645.0</ele>
        <time>2022-08-29T08:04:10Z</time>
      </trkpt>
      <trkpt lat="42.4407430" lon="-2.9536750">
        <ele>644.8</ele>
        <time>2022-08-29T08:04:11Z</time>
      </trkpt>
      <trkpt lat="42.4407420" lon="-2.9536750">
        <ele>644.8</ele>
        <time>2022-08-29T08:04:12Z</time>
      </trkpt>
      <trkpt lat="42.4407420" lon="-2.9536760">
        <ele>644.8</ele>
        <time>2022-08-29T08:04:13Z</time>
      </trkpt>
      <trkpt lat="42.4407420" lon="-2.9536770">
        <ele>644.8</ele>
        <time>2022-08-29T08:04:14Z</time>
      </trkpt>
      <trkpt lat="42.4407430" lon="-2.9536780">
        <ele>644.8</ele>
        <time>2022-08-29T08:04:15Z</time>
      </trkpt>
      <trkpt lat="42.4407440" lon="-2.9536800">
        <ele>644.8</ele>
        <time>2022-08-29T08:04:16Z</time>
      </trkpt>
      <trkpt lat="42.4407480" lon="-2.9536840">
        <ele>644.8</ele>
        <time>2022-08-29T08:04:17Z</time>
      </trkpt>
      <trkpt lat="42.4407500" lon="-2.9536860">
        <ele>644.8</ele>
        <time>2022-08-29T08:04:18Z</time>
      </trkpt>
      <trkpt lat="42.4407500" lon="-2.9536870">
        <ele>644.8</ele>
        <time>2022-08-29T08:04:19Z</time>
      </trkpt>
      <trkpt lat="42.4407500" lon="-2.9536870">
        <ele>644.8</ele>
        <time>2022-08-29T08:04:20Z</time>
      </trkpt>
      <trkpt lat="42.4407500" lon="-2.9536870">
        <ele>644.8</ele>
        <time>2022-08-29T08:04:21Z</time>
      </trkpt>
      <trkpt lat="42.4407510" lon="-2.9536860">
        <ele>644.8</ele>
        <time>2022-08-29T08:04:22Z</time>
      </trkpt>
      <trkpt lat="42.4407530" lon="-2.9536860">
        <ele>644.8</ele>
        <time>2022-08-29T08:04:23Z</time>
      </trkpt>
      <trkpt lat="42.4407520" lon="-2.9536870">
        <ele>644.8</ele>
        <time>2022-08-29T08:04:24Z</time>
      </trkpt>
      <trkpt lat="42.4407530" lon="-2.9536860">
        <ele>644.8</ele>
        <time>2022-08-29T08:04:25Z</time>
      </trkpt>
      <trkpt lat="42.4407530" lon="-2.9536860">
        <ele>644.8</ele>
        <time>2022-08-29T08:04:26Z</time>
      </trkpt>
      <trkpt lat="42.4407530" lon="-2.9536860">
        <ele>644.8</ele>
        <time>2022-08-29T08:04:27Z</time>
      </trkpt>
      <trkpt lat="42.4407520" lon="-2.9536870">
        <ele>644.8</ele>
        <time>2022-08-29T08:04:28Z</time>
      </trkpt>
      <trkpt lat="42.4407520" lon="-2.9536880">
        <ele>644.8</ele>
        <time>2022-08-29T08:04:29Z</time>
      </trkpt>
      <trkpt lat="42.4407520" lon="-2.9536880">
        <ele>644.8</ele>
        <time>2022-08-29T08:04:30Z</time>
      </trkpt>
      <trkpt lat="42.4407510" lon="-2.9536870">
        <ele>644.8</ele>
        <time>2022-08-29T08:04:31Z</time>
      </trkpt>
      <trkpt lat="42.4407510" lon="-2.9536870">
        <ele>644.8</ele>
        <time>2022-08-29T08:04:32Z</time>
      </trkpt>
      <trkpt lat="42.4407500" lon="-2.9536870">
        <ele>645.0</ele>
        <time>2022-08-29T08:04:33Z</time>
      </trkpt>
      <trkpt lat="42.4407490" lon="-2.9536860">
        <ele>645.0</ele>
        <time>2022-08-29T08:04:34Z</time>
      </trkpt>
      <trkpt lat="42.4407480" lon="-2.9536860">
        <ele>645.0</ele>
        <time>2022-08-29T08:04:35Z</time>
      </trkpt>
      <trkpt lat="42.4407460" lon="-2.9536850">
        <ele>644.8</ele>
        <time>2022-08-29T08:04:36Z</time>
      </trkpt>
      <trkpt lat="42.4407460" lon="-2.9536860">
        <ele>644.8</ele>
        <time>2022-08-29T08:04:37Z</time>
      </trkpt>
      <trkpt lat="42.4407460" lon="-2.9536870">
        <ele>645.0</ele>
        <time>2022-08-29T08:04:38Z</time>
      </trkpt>
      <trkpt lat="42.4407460" lon="-2.9536870">
        <ele>644.8</ele>
        <time>2022-08-29T08:04:39Z</time>
      </trkpt>
      <trkpt lat="42.4407460" lon="-2.9536870">
        <ele>644.8</ele>
        <time>2022-08-29T08:04:40Z</time>
      </trkpt>
      <trkpt lat="42.4407460" lon="-2.9536870">
        <ele>645.0</ele>
        <time>2022-08-29T08:04:41Z</time>
      </trkpt>
      <trkpt lat="42.4407460" lon="-2.9536860">
        <ele>645.0</ele>
        <time>2022-08-29T08:04:42Z</time>
      </trkpt>
      <trkpt lat="42.4407460" lon="-2.9536850">
        <ele>644.8</ele>
        <time>2022-08-29T08:04:43Z</time>
      </trkpt>
      <trkpt lat="42.4407460" lon="-2.9536850">
        <ele>644.8</ele>
        <time>2022-08-29T08:04:44Z</time>
      </trkpt>
      <trkpt lat="42.4407450" lon="-2.9536840">
        <ele>645.0</ele>
        <time>2022-08-29T08:04:45Z</time>
      </trkpt>
      <trkpt lat="42.4407450" lon="-2.9536830">
        <ele>644.8</ele>
        <time>2022-08-29T08:04:46Z</time>
      </trkpt>
      <trkpt lat="42.4407450" lon="-2.9536840">
        <ele>645.0</ele>
        <time>2022-08-29T08:04:47Z</time>
      </trkpt>
      <trkpt lat="42.4407450" lon="-2.9536830">
        <ele>644.8</ele>
        <time>2022-08-29T08:04:48Z</time>
      </trkpt>
      <trkpt lat="42.4407440" lon="-2.9536810">
        <ele>645.0</ele>
        <time>2022-08-29T08:04:49Z</time>
      </trkpt>
      <trkpt lat="42.4407440" lon="-2.9536800">
        <ele>645.0</ele>
        <time>2022-08-29T08:04:50Z</time>
      </trkpt>
      <trkpt lat="42.4407440" lon="-2.9536810">
        <ele>644.8</ele>
        <time>2022-08-29T08:04:51Z</time>
      </trkpt>
      <trkpt lat="42.4407430" lon="-2.9536810">
        <ele>644.8</ele>
        <time>2022-08-29T08:04:52Z</time>
      </trkpt>
      <trkpt lat="42.4407430" lon="-2.9536800">
        <ele>645.0</ele>
        <time>2022-08-29T08:04:53Z</time>
      </trkpt>
      <trkpt lat="42.4407430" lon="-2.9536800">
        <ele>645.0</ele>
        <time>2022-08-29T08:04:54Z</time>
      </trkpt>
      <trkpt lat="42.4407440" lon="-2.9536800">
        <ele>645.0</ele>
        <time>2022-08-29T08:04:55Z</time>
      </trkpt>
      <trkpt lat="42.4407440" lon="-2.9536790">
        <ele>645.0</ele>
        <time>2022-08-29T08:04:56Z</time>
      </trkpt>
      <trkpt lat="42.4407440" lon="-2.9536790">
        <ele>644.8</ele>
        <time>2022-08-29T08:04:57Z</time>
      </trkpt>
      <trkpt lat="42.4407440" lon="-2.9536780">
        <ele>645.0</ele>
        <time>2022-08-29T08:04:58Z</time>
      </trkpt>
      <trkpt lat="42.4407440" lon="-2.9536770">
        <ele>644.8</ele>
        <time>2022-08-29T08:04:59Z</time>
      </trkpt>
      <trkpt lat="42.4407440" lon="-2.9536770">
        <ele>644.8</ele>
        <time>2022-08-29T08:05:00Z</time>
      </trkpt>
      <trkpt lat="42.4407440" lon="-2.9536770">
        <ele>645.0</ele>
        <time>2022-08-29T08:05:01Z</time>
      </trkpt>
      <trkpt lat="42.4407440" lon="-2.9536770">
        <ele>645.0</ele>
        <time>2022-08-29T08:05:02Z</time>
      </trkpt>
      <trkpt lat="42.4407440" lon="-2.9536770">
        <ele>645.0</ele>
        <time>2022-08-29T08:05:03Z</time>
      </trkpt>
      <trkpt lat="42.4407440" lon="-2.9536770">
        <ele>645.0</ele>
        <time>2022-08-29T08:05:04Z</time>
      </trkpt>
      <trkpt lat="42.4407440" lon="-2.9536780">
        <ele>645.0</ele>
        <time>2022-08-29T08:05:05Z</time>
      </trkpt>
      <trkpt lat="42.4407440" lon="-2.9536780">
        <ele>645.0</ele>
        <time>2022-08-29T08:05:06Z</time>
      </trkpt>
      <trkpt lat="42.4407440" lon="-2.9536780">
        <ele>645.0</ele>
        <time>2022-08-29T08:05:07Z</time>
      </trkpt>
      <trkpt lat="42.4407430" lon="-2.9536770">
        <ele>645.0</ele>
        <time>2022-08-29T08:05:08Z</time>
      </trkpt>
      <trkpt lat="42.4407420" lon="-2.9536750">
        <ele>645.0</ele>
        <time>2022-08-29T08:05:09Z</time>
      </trkpt>
      <trkpt lat="42.4407420" lon="-2.9536750">
        <ele>645.2</ele>
        <time>2022-08-29T08:05:10Z</time>
      </trkpt>
      <trkpt lat="42.4407410" lon="-2.9536740">
        <ele>645.2</ele>
        <time>2022-08-29T08:05:11Z</time>
      </trkpt>
      <trkpt lat="42.4407400" lon="-2.9536730">
        <ele>645.0</ele>
        <time>2022-08-29T08:05:12Z</time>
      </trkpt>
      <trkpt lat="42.4407400" lon="-2.9536720">
        <ele>645.0</ele>
        <time>2022-08-29T08:05:13Z</time>
      </trkpt>
      <trkpt lat="42.4407390" lon="-2.9536710">
        <ele>645.0</ele>
        <time>2022-08-29T08:05:14Z</time>
      </trkpt>
      <trkpt lat="42.4407390" lon="-2.9536710">
        <ele>645.0</ele>
        <time>2022-08-29T08:05:15Z</time>
      </trkpt>
      <trkpt lat="42.4407370" lon="-2.9536700">
        <ele>645.0</ele>
        <time>2022-08-29T08:05:16Z</time>
      </trkpt>
      <trkpt lat="42.4407360" lon="-2.9536690">
        <ele>645.0</ele>
        <time>2022-08-29T08:05:17Z</time>
      </trkpt>
      <trkpt lat="42.4407370" lon="-2.9536710">
        <ele>645.2</ele>
        <time>2022-08-29T08:05:18Z</time>
      </trkpt>
      <trkpt lat="42.4407370" lon="-2.9536720">
        <ele>645.0</ele>
        <time>2022-08-29T08:05:19Z</time>
      </trkpt>
      <trkpt lat="42.4407370" lon="-2.9536720">
        <ele>645.0</ele>
        <time>2022-08-29T08:05:20Z</time>
      </trkpt>
      <trkpt lat="42.4407370" lon="-2.9536710">
        <ele>645.0</ele>
        <time>2022-08-29T08:05:21Z</time>
      </trkpt>
      <trkpt lat="42.4407370" lon="-2.9536710">
        <ele>645.2</ele>
        <time>2022-08-29T08:05:22Z</time>
      </trkpt>
      <trkpt lat="42.4407370" lon="-2.9536700">
        <ele>645.2</ele>
        <time>2022-08-29T08:05:23Z</time>
      </trkpt>
      <trkpt lat="42.4407370" lon="-2.9536690">
        <ele>645.2</ele>
        <time>2022-08-29T08:05:24Z</time>
      </trkpt>
      <trkpt lat="42.4407370" lon="-2.9536690">
        <ele>645.0</ele>
        <time>2022-08-29T08:05:25Z</time>
      </trkpt>
      <trkpt lat="42.4407370" lon="-2.9536680">
        <ele>645.0</ele>
        <time>2022-08-29T08:05:26Z</time>
      </trkpt>
      <trkpt lat="42.4407370" lon="-2.9536670">
        <ele>644.8</ele>
        <time>2022-08-29T08:05:27Z</time>
      </trkpt>
      <trkpt lat="42.4407360" lon="-2.9536670">
        <ele>645.0</ele>
        <time>2022-08-29T08:05:28Z</time>
      </trkpt>
      <trkpt lat="42.4407360" lon="-2.9536660">
        <ele>645.0</ele>
        <time>2022-08-29T08:05:29Z</time>
      </trkpt>
      <trkpt lat="42.4407360" lon="-2.9536660">
        <ele>645.0</ele>
        <time>2022-08-29T08:05:30Z</time>
      </trkpt>
      <trkpt lat="42.4407360" lon="-2.9536660">
        <ele>645.0</ele>
        <time>2022-08-29T08:05:31Z</time>
      </trkpt>
      <trkpt lat="42.4407360" lon="-2.9536660">
        <ele>645.0</ele>
        <time>2022-08-29T08:05:32Z</time>
      </trkpt>
      <trkpt lat="42.4407360" lon="-2.9536660">
        <ele>645.0</ele>
        <time>2022-08-29T08:05:33Z</time>
      </trkpt>
      <trkpt lat="42.4407370" lon="-2.9536650">
        <ele>644.8</ele>
        <time>2022-08-29T08:05:34Z</time>
      </trkpt>
      <trkpt lat="42.4407370" lon="-2.9536660">
        <ele>645.0</ele>
        <time>2022-08-29T08:05:35Z</time>
      </trkpt>
      <trkpt lat="42.4407360" lon="-2.9536660">
        <ele>644.8</ele>
        <time>2022-08-29T08:05:36Z</time>
      </trkpt>
      <trkpt lat="42.4407360" lon="-2.9536660">
        <ele>644.8</ele>
        <time>2022-08-29T08:05:37Z</time>
      </trkpt>
      <trkpt lat="42.4407370" lon="-2.9536660">
        <ele>644.8</ele>
        <time>2022-08-29T08:05:38Z</time>
      </trkpt>
      <trkpt lat="42.4407370" lon="-2.9536660">
        <ele>645.0</ele>
        <time>2022-08-29T08:05:39Z</time>
      </trkpt>
      <trkpt lat="42.4407360" lon="-2.9536660">
        <ele>644.8</ele>
        <time>2022-08-29T08:05:40Z</time>
      </trkpt>
      <trkpt lat="42.4407350" lon="-2.9536660">
        <ele>645.0</ele>
        <time>2022-08-29T08:05:41Z</time>
      </trkpt>
      <trkpt lat="42.4407350" lon="-2.9536660">
        <ele>645.0</ele>
        <time>2022-08-29T08:05:42Z</time>
      </trkpt>
      <trkpt lat="42.4407360" lon="-2.9536660">
        <ele>644.8</ele>
        <time>2022-08-29T08:05:43Z</time>
      </trkpt>
      <trkpt lat="42.4407360" lon="-2.9536650">
        <ele>644.8</ele>
        <time>2022-08-29T08:05:44Z</time>
      </trkpt>
      <trkpt lat="42.4407360" lon="-2.9536650">
        <ele>644.8</ele>
        <time>2022-08-29T08:05:45Z</time>
      </trkpt>
      <trkpt lat="42.4407360" lon="-2.9536650">
        <ele>644.8</ele>
        <time>2022-08-29T08:05:46Z</time>
      </trkpt>
      <trkpt lat="42.4407360" lon="-2.9536640">
        <ele>645.0</ele>
        <time>2022-08-29T08:05:47Z</time>
      </trkpt>
      <trkpt lat="42.4407360" lon="-2.9536640">
        <ele>644.8</ele>
        <time>2022-08-29T08:05:48Z</time>
      </trkpt>
      <trkpt lat="42.4407350" lon="-2.9536640">
        <ele>645.0</ele>
        <time>2022-08-29T08:05:49Z</time>
      </trkpt>
      <trkpt lat="42.4407350" lon="-2.9536630">
        <ele>644.8</ele>
        <time>2022-08-29T08:05:50Z</time>
      </trkpt>
      <trkpt lat="42.4407350" lon="-2.9536630">
        <ele>645.0</ele>
        <time>2022-08-29T08:05:51Z</time>
      </trkpt>
      <trkpt lat="42.4407360" lon="-2.9536660">
        <ele>644.8</ele>
        <time>2022-08-29T08:05:52Z</time>
      </trkpt>
      <trkpt lat="42.4407350" lon="-2.9536670">
        <ele>645.0</ele>
        <time>2022-08-29T08:05:53Z</time>
      </trkpt>
      <trkpt lat="42.4407360" lon="-2.9536670">
        <ele>644.8</ele>
        <time>2022-08-29T08:05:54Z</time>
      </trkpt>
      <trkpt lat="42.4407360" lon="-2.9536680">
        <ele>645.0</ele>
        <time>2022-08-29T08:05:55Z</time>
      </trkpt>
      <trkpt lat="42.4407360" lon="-2.9536680">
        <ele>644.8</ele>
        <time>2022-08-29T08:05:56Z</time>
      </trkpt>
      <trkpt lat="42.4407360" lon="-2.9536690">
        <ele>644.8</ele>
        <time>2022-08-29T08:05:57Z</time>
      </trkpt>
      <trkpt lat="42.4407360" lon="-2.9536700">
        <ele>644.8</ele>
        <time>2022-08-29T08:05:58Z</time>
      </trkpt>
      <trkpt lat="42.4407360" lon="-2.9536700">
        <ele>645.0</ele>
        <time>2022-08-29T08:05:59Z</time>
      </trkpt>
      <trkpt lat="42.4407360" lon="-2.9536700">
        <ele>645.0</ele>
        <time>2022-08-29T08:06:00Z</time>
      </trkpt>
      <trkpt lat="42.4407360" lon="-2.9536700">
        <ele>644.8</ele>
        <time>2022-08-29T08:06:01Z</time>
      </trkpt>
      <trkpt lat="42.4407360" lon="-2.9536710">
        <ele>644.8</ele>
        <time>2022-08-29T08:06:02Z</time>
      </trkpt>
      <trkpt lat="42.4407360" lon="-2.9536720">
        <ele>645.0</ele>
        <time>2022-08-29T08:06:03Z</time>
      </trkpt>
      <trkpt lat="42.4407360" lon="-2.9536730">
        <ele>644.8</ele>
        <time>2022-08-29T08:06:04Z</time>
      </trkpt>
      <trkpt lat="42.4407350" lon="-2.9536750">
        <ele>644.8</ele>
        <time>2022-08-29T08:06:05Z</time>
      </trkpt>
      <trkpt lat="42.4407350" lon="-2.9536760">
        <ele>644.8</ele>
        <time>2022-08-29T08:06:06Z</time>
      </trkpt>
      <trkpt lat="42.4407340" lon="-2.9536770">
        <ele>644.8</ele>
        <time>2022-08-29T08:06:07Z</time>
      </trkpt>
      <trkpt lat="42.4407350" lon="-2.9536800">
        <ele>645.0</ele>
        <time>2022-08-29T08:06:08Z</time>
      </trkpt>
      <trkpt lat="42.4407350" lon="-2.9536830">
        <ele>645.0</ele>
        <time>2022-08-29T08:06:09Z</time>
      </trkpt>
      <trkpt lat="42.4407340" lon="-2.9536840">
        <ele>645.0</ele>
        <time>2022-08-29T08:06:10Z</time>
      </trkpt>
      <trkpt lat="42.4407330" lon="-2.9536860">
        <ele>644.8</ele>
        <time>2022-08-29T08:06:11Z</time>
      </trkpt>
      <trkpt lat="42.4407360" lon="-2.9536890">
        <ele>644.8</ele>
        <time>2022-08-29T08:06:12Z</time>
      </trkpt>
      <trkpt lat="42.4407390" lon="-2.9536920">
        <ele>644.8</ele>
        <time>2022-08-29T08:06:13Z</time>
      </trkpt>
      <trkpt lat="42.4407400" lon="-2.9536920">
        <ele>645.0</ele>
        <time>2022-08-29T08:06:14Z</time>
      </trkpt>
      <trkpt lat="42.4407400" lon="-2.9536930">
        <ele>644.8</ele>
        <time>2022-08-29T08:06:15Z</time>
      </trkpt>
      <trkpt lat="42.4407400" lon="-2.9536930">
        <ele>644.8</ele>
        <time>2022-08-29T08:06:16Z</time>
      </trkpt>
      <trkpt lat="42.4407400" lon="-2.9536930">
        <ele>644.8</ele>
        <time>2022-08-29T08:06:17Z</time>
      </trkpt>
      <trkpt lat="42.4407400" lon="-2.9536940">
        <ele>644.8</ele>
        <time>2022-08-29T08:06:18Z</time>
      </trkpt>
      <trkpt lat="42.4407400" lon="-2.9536940">
        <ele>644.8</ele>
        <time>2022-08-29T08:06:19Z</time>
      </trkpt>
      <trkpt lat="42.4407410" lon="-2.9536950">
        <ele>645.0</ele>
        <time>2022-08-29T08:06:20Z</time>
      </trkpt>
      <trkpt lat="42.4407410" lon="-2.9536950">
        <ele>644.8</ele>
        <time>2022-08-29T08:06:21Z</time>
      </trkpt>
      <trkpt lat="42.4407410" lon="-2.9536960">
        <ele>644.8</ele>
        <time>2022-08-29T08:06:22Z</time>
      </trkpt>
      <trkpt lat="42.4407410" lon="-2.9536960">
        <ele>644.8</ele>
        <time>2022-08-29T08:06:23Z</time>
      </trkpt>
      <trkpt lat="42.4407410" lon="-2.9536960">
        <ele>644.8</ele>
        <time>2022-08-29T08:06:24Z</time>
      </trkpt>
      <trkpt lat="42.4407410" lon="-2.9536970">
        <ele>644.8</ele>
        <time>2022-08-29T08:06:25Z</time>
      </trkpt>
      <trkpt lat="42.4407410" lon="-2.9536960">
        <ele>644.8</ele>
        <time>2022-08-29T08:06:26Z</time>
      </trkpt>
      <trkpt lat="42.4407410" lon="-2.9536960">
        <ele>644.8</ele>
        <time>2022-08-29T08:06:27Z</time>
      </trkpt>
      <trkpt lat="42.4407410" lon="-2.9536960">
        <ele>644.8</ele>
        <time>2022-08-29T08:06:28Z</time>
      </trkpt>
      <trkpt lat="42.4407410" lon="-2.9536960">
        <ele>644.8</ele>
        <time>2022-08-29T08:06:29Z</time>
      </trkpt>
      <trkpt lat="42.4407410" lon="-2.9536960">
        <ele>644.8</ele>
        <time>2022-08-29T08:06:30Z</time>
      </trkpt>
      <trkpt lat="42.4407410" lon="-2.9536960">
        <ele>644.6</ele>
        <time>2022-08-29T08:06:31Z</time>
      </trkpt>
      <trkpt lat="42.4407410" lon="-2.9536960">
        <ele>644.8</ele>
        <time>2022-08-29T08:06:32Z</time>
      </trkpt>
      <trkpt lat="42.4407420" lon="-2.9536990">
        <ele>644.8</ele>
        <time>2022-08-29T08:06:33Z</time>
      </trkpt>
      <trkpt lat="42.4407430" lon="-2.9537000">
        <ele>644.8</ele>
        <time>2022-08-29T08:06:34Z</time>
      </trkpt>
      <trkpt lat="42.4407440" lon="-2.9537030">
        <ele>644.8</ele>
        <time>2022-08-29T08:06:35Z</time>
      </trkpt>
      <trkpt lat="42.4407450" lon="-2.9537040">
        <ele>644.6</ele>
        <time>2022-08-29T08:06:36Z</time>
      </trkpt>
      <trkpt lat="42.4407450" lon="-2.9537060">
        <ele>644.6</ele>
        <time>2022-08-29T08:06:37Z</time>
      </trkpt>
      <trkpt lat="42.4407450" lon="-2.9537060">
        <ele>644.8</ele>
        <time>2022-08-29T08:06:38Z</time>
      </trkpt>
      <trkpt lat="42.4407450" lon="-2.9537070">
        <ele>644.6</ele>
        <time>2022-08-29T08:06:39Z</time>
      </trkpt>
      <trkpt lat="42.4407450" lon="-2.9537070">
        <ele>644.6</ele>
        <time>2022-08-29T08:06:40Z</time>
      </trkpt>
      <trkpt lat="42.4407450" lon="-2.9537070">
        <ele>644.8</ele>
        <time>2022-08-29T08:06:41Z</time>
      </trkpt>
      <trkpt lat="42.4407450" lon="-2.9537070">
        <ele>644.6</ele>
        <time>2022-08-29T08:06:42Z</time>
      </trkpt>
      <trkpt lat="42.4407460" lon="-2.9537070">
        <ele>644.6</ele>
        <time>2022-08-29T08:06:43Z</time>
      </trkpt>
      <trkpt lat="42.4407460" lon="-2.9537070">
        <ele>644.6</ele>
        <time>2022-08-29T08:06:44Z</time>
      </trkpt>
      <trkpt lat="42.4407460" lon="-2.9537080">
        <ele>644.6</ele>
        <time>2022-08-29T08:06:45Z</time>
      </trkpt>
      <trkpt lat="42.4407460" lon="-2.9537080">
        <ele>644.6</ele>
        <time>2022-08-29T08:06:46Z</time>
      </trkpt>
      <trkpt lat="42.4407450" lon="-2.9537080">
        <ele>644.8</ele>
        <time>2022-08-29T08:06:47Z</time>
      </trkpt>
      <trkpt lat="42.4407450" lon="-2.9537080">
        <ele>644.6</ele>
        <time>2022-08-29T08:06:48Z</time>
      </trkpt>
      <trkpt lat="42.4407460" lon="-2.9537090">
        <ele>644.6</ele>
        <time>2022-08-29T08:06:49Z</time>
      </trkpt>
      <trkpt lat="42.4407480" lon="-2.9537090">
        <ele>644.8</ele>
        <time>2022-08-29T08:06:50Z</time>
      </trkpt>
      <trkpt lat="42.4407540" lon="-2.9537060">
        <ele>644.6</ele>
        <time>2022-08-29T08:06:51Z</time>
      </trkpt>
      <trkpt lat="42.4407590" lon="-2.9537060">
        <ele>644.6</ele>
        <time>2022-08-29T08:06:52Z</time>
      </trkpt>
      <trkpt lat="42.4407640" lon="-2.9537090">
        <ele>644.8</ele>
        <time>2022-08-29T08:06:53Z</time>
      </trkpt>
      <trkpt lat="42.4407690" lon="-2.9537160">
        <ele>644.6</ele>
        <time>2022-08-29T08:06:54Z</time>
      </trkpt>
      <trkpt lat="42.4407720" lon="-2.9537210">
        <ele>644.6</ele>
        <time>2022-08-29T08:06:55Z</time>
      </trkpt>
      <trkpt lat="42.4407770" lon="-2.9537290">
        <ele>644.6</ele>
        <time>2022-08-29T08:06:56Z</time>
      </trkpt>
      <trkpt lat="42.4407840" lon="-2.9537380">
        <ele>644.6</ele>
        <time>2022-08-29T08:06:57Z</time>
      </trkpt>
      <trkpt lat="42.4407880" lon="-2.9537470">
        <ele>644.6</ele>
        <time>2022-08-29T08:06:58Z</time>
      </trkpt>
      <trkpt lat="42.4407850" lon="-2.9537530">
        <ele>644.6</ele>
        <time>2022-08-29T08:06:59Z</time>
      </trkpt>
      <trkpt lat="42.4407870" lon="-2.9537600">
        <ele>644.6</ele>
        <time>2022-08-29T08:07:00Z</time>
      </trkpt>
      <trkpt lat="42.4407880" lon="-2.9537690">
        <ele>644.6</ele>
        <time>2022-08-29T08:07:01Z</time>
      </trkpt>
      <trkpt lat="42.4407920" lon="-2.9537820">
        <ele>644.6</ele>
        <time>2022-08-29T08:07:02Z</time>
      </trkpt>
      <trkpt lat="42.4407970" lon="-2.9538000">
        <ele>644.6</ele>
        <time>2022-08-29T08:07:03Z</time>
      </trkpt>
      <trkpt lat="42.4407970" lon="-2.9538150">
        <ele>644.6</ele>
        <time>2022-08-29T08:07:04Z</time>
      </trkpt>
      <trkpt lat="42.4408040" lon="-2.9538380">
        <ele>644.4</ele>
        <time>2022-08-29T08:07:05Z</time>
      </trkpt>
      <trkpt lat="42.4408090" lon="-2.9538560">
        <ele>644.6</ele>
        <time>2022-08-29T08:07:06Z</time>
      </trkpt>
      <trkpt lat="42.4408130" lon="-2.9538750">
        <ele>644.6</ele>
        <time>2022-08-29T08:07:07Z</time>
      </trkpt>
      <trkpt lat="42.4408190" lon="-2.9538950">
        <ele>644.4</ele>
        <time>2022-08-29T08:07:08Z</time>
      </trkpt>
      <trkpt lat="42.4408230" lon="-2.9539230">
        <ele>644.6</ele>
        <time>2022-08-29T08:07:09Z</time>
      </trkpt>
      <trkpt lat="42.4408270" lon="-2.9539530">
        <ele>644.4</ele>
        <time>2022-08-29T08:07:10Z</time>
      </trkpt>
      <trkpt lat="42.4408330" lon="-2.9539840">
        <ele>644.4</ele>
        <time>2022-08-29T08:07:11Z</time>
      </trkpt>
      <trkpt lat="42.4408400" lon="-2.9540120">
        <ele>644.6</ele>
        <time>2022-08-29T08:07:12Z</time>
      </trkpt>
      <trkpt lat="42.4408480" lon="-2.9540420">
        <ele>644.6</ele>
        <time>2022-08-29T08:07:13Z</time>
      </trkpt>
      <trkpt lat="42.4408550" lon="-2.9540720">
        <ele>644.4</ele>
        <time>2022-08-29T08:07:14Z</time>
      </trkpt>
      <trkpt lat="42.4408560" lon="-2.9541040">
        <ele>644.2</ele>
        <time>2022-08-29T08:07:15Z</time>
      </trkpt>
      <trkpt lat="42.4408570" lon="-2.9541390">
        <ele>644.4</ele>
        <time>2022-08-29T08:07:16Z</time>
      </trkpt>
      <trkpt lat="42.4408570" lon="-2.9541740">
        <ele>644.4</ele>
        <time>2022-08-29T08:07:17Z</time>
      </trkpt>
      <trkpt lat="42.4408500" lon="-2.9542130">
        <ele>644.4</ele>
        <time>2022-08-29T08:07:18Z</time>
      </trkpt>
      <trkpt lat="42.4408540" lon="-2.9542480">
        <ele>644.4</ele>
        <time>2022-08-29T08:07:19Z</time>
      </trkpt>
      <trkpt lat="42.4408540" lon="-2.9542850">
        <ele>644.4</ele>
        <time>2022-08-29T08:07:20Z</time>
      </trkpt>
      <trkpt lat="42.4408510" lon="-2.9543220">
        <ele>644.4</ele>
        <time>2022-08-29T08:07:21Z</time>
      </trkpt>
      <trkpt lat="42.4408480" lon="-2.9543570">
        <ele>644.4</ele>
        <time>2022-08-29T08:07:22Z</time>
      </trkpt>
      <trkpt lat="42.4408470" lon="-2.9543920">
        <ele>644.4</ele>
        <time>2022-08-29T08:07:23Z</time>
      </trkpt>
      <trkpt lat="42.4408430" lon="-2.9544290">
        <ele>644.0</ele>
        <time>2022-08-29T08:07:24Z</time>
      </trkpt>
      <trkpt lat="42.4408430" lon="-2.9544690">
        <ele>644.0</ele>
        <time>2022-08-29T08:07:25Z</time>
      </trkpt>
      <trkpt lat="42.4408510" lon="-2.9545100">
        <ele>644.0</ele>
        <time>2022-08-29T08:07:26Z</time>
      </trkpt>
      <trkpt lat="42.4408690" lon="-2.9545530">
        <ele>644.0</ele>
        <time>2022-08-29T08:07:27Z</time>
      </trkpt>
      <trkpt lat="42.4408810" lon="-2.9545970">
        <ele>644.0</ele>
        <time>2022-08-29T08:07:28Z</time>
      </trkpt>
      <trkpt lat="42.4408970" lon="-2.9546330">
        <ele>643.6</ele>
        <time>2022-08-29T08:07:29Z</time>
      </trkpt>
      <trkpt lat="42.4409070" lon="-2.9546690">
        <ele>643.8</ele>
        <time>2022-08-29T08:07:30Z</time>
      </trkpt>
      <trkpt lat="42.4409260" lon="-2.9547040">
        <ele>643.6</ele>
        <time>2022-08-29T08:07:31Z</time>
      </trkpt>
      <trkpt lat="42.4409510" lon="-2.9547420">
        <ele>643.4</ele>
        <time>2022-08-29T08:07:32Z</time>
      </trkpt>
      <trkpt lat="42.4409610" lon="-2.9547760">
        <ele>643.4</ele>
        <time>2022-08-29T08:07:33Z</time>
      </trkpt>
      <trkpt lat="42.4409730" lon="-2.9548140">
        <ele>643.4</ele>
        <time>2022-08-29T08:07:34Z</time>
      </trkpt>
      <trkpt lat="42.4409830" lon="-2.9548520">
        <ele>643.4</ele>
        <time>2022-08-29T08:07:35Z</time>
      </trkpt>
      <trkpt lat="42.4409870" lon="-2.9548960">
        <ele>643.2</ele>
        <time>2022-08-29T08:07:36Z</time>
      </trkpt>
      <trkpt lat="42.4409940" lon="-2.9549390">
        <ele>643.4</ele>
        <time>2022-08-29T08:07:37Z</time>
      </trkpt>
      <trkpt lat="42.4409940" lon="-2.9549810">
        <ele>643.4</ele>
        <time>2022-08-29T08:07:38Z</time>
      </trkpt>
      <trkpt lat="42.4409940" lon="-2.9550200">
        <ele>643.2</ele>
        <time>2022-08-29T08:07:39Z</time>
      </trkpt>
      <trkpt lat="42.4409940" lon="-2.9550530">
        <ele>643.2</ele>
        <time>2022-08-29T08:07:40Z</time>
      </trkpt>
      <trkpt lat="42.4410050" lon="-2.9550840">
        <ele>643.2</ele>
        <time>2022-08-29T08:07:41Z</time>
      </trkpt>
      <trkpt lat="42.4410050" lon="-2.9551170">
        <ele>643.2</ele>
        <time>2022-08-29T08:07:42Z</time>
      </trkpt>
      <trkpt lat="42.4410030" lon="-2.9551530">
        <ele>643.2</ele>
        <time>2022-08-29T08:07:43Z</time>
      </trkpt>
      <trkpt lat="42.4410080" lon="-2.9551890">
        <ele>643.2</ele>
        <time>2022-08-29T08:07:44Z</time>
      </trkpt>
      <trkpt lat="42.4410110" lon="-2.9552210">
        <ele>643.2</ele>
        <time>2022-08-29T08:07:45Z</time>
      </trkpt>
      <trkpt lat="42.4410110" lon="-2.9552540">
        <ele>643.2</ele>
        <time>2022-08-29T08:07:46Z</time>
      </trkpt>
      <trkpt lat="42.4410160" lon="-2.9552880">
        <ele>643.2</ele>
        <time>2022-08-29T08:07:47Z</time>
      </trkpt>
      <trkpt lat="42.4410170" lon="-2.9553220">
        <ele>643.0</ele>
        <time>2022-08-29T08:07:48Z</time>
      </trkpt>
      <trkpt lat="42.4410370" lon="-2.9553570">
        <ele>643.0</ele>
        <time>2022-08-29T08:07:49Z</time>
      </trkpt>
      <trkpt lat="42.4410170" lon="-2.9554000">
        <ele>643.2</ele>
        <time>2022-08-29T08:07:50Z</time>
      </trkpt>
      <trkpt lat="42.4410050" lon="-2.9554400">
        <ele>643.0</ele>
        <time>2022-08-29T08:07:51Z</time>
      </trkpt>
      <trkpt lat="42.4410060" lon="-2.9554850">
        <ele>643.2</ele>
        <time>2022-08-29T08:07:52Z</time>
      </trkpt>
      <trkpt lat="42.4410040" lon="-2.9555260">
        <ele>643.2</ele>
        <time>2022-08-29T08:07:53Z</time>
      </trkpt>
      <trkpt lat="42.4410000" lon="-2.9555670">
        <ele>643.2</ele>
        <time>2022-08-29T08:07:54Z</time>
      </trkpt>
      <trkpt lat="42.4410180" lon="-2.9556120">
        <ele>643.2</ele>
        <time>2022-08-29T08:07:55Z</time>
      </trkpt>
      <trkpt lat="42.4410120" lon="-2.9556550">
        <ele>643.2</ele>
        <time>2022-08-29T08:07:56Z</time>
      </trkpt>
      <trkpt lat="42.4410030" lon="-2.9556960">
        <ele>643.2</ele>
        <time>2022-08-29T08:07:57Z</time>
      </trkpt>
      <trkpt lat="42.4410020" lon="-2.9557380">
        <ele>643.2</ele>
        <time>2022-08-29T08:07:58Z</time>
      </trkpt>
      <trkpt lat="42.4410020" lon="-2.9557790">
        <ele>643.2</ele>
        <time>2022-08-29T08:07:59Z</time>
      </trkpt>
      <trkpt lat="42.4409850" lon="-2.9558190">
        <ele>643.2</ele>
        <time>2022-08-29T08:08:00Z</time>
      </trkpt>
      <trkpt lat="42.4409910" lon="-2.9558580">
        <ele>643.2</ele>
        <time>2022-08-29T08:08:01Z</time>
      </trkpt>
      <trkpt lat="42.4409820" lon="-2.9558890">
        <ele>643.2</ele>
        <time>2022-08-29T08:08:02Z</time>
      </trkpt>
      <trkpt lat="42.4409840" lon="-2.9559140">
        <ele>643.4</ele>
        <time>2022-08-29T08:08:03Z</time>
      </trkpt>
      <trkpt lat="42.4409830" lon="-2.9559370">
        <ele>643.4</ele>
        <time>2022-08-29T08:08:04Z</time>
      </trkpt>
      <trkpt lat="42.4409800" lon="-2.9559630">
        <ele>643.4</ele>
        <time>2022-08-29T08:08:05Z</time>
      </trkpt>
      <trkpt lat="42.4409820" lon="-2.9559900">
        <ele>643.4</ele>
        <time>2022-08-29T08:08:06Z</time>
      </trkpt>
      <trkpt lat="42.4409920" lon="-2.9560220">
        <ele>643.4</ele>
        <time>2022-08-29T08:08:07Z</time>
      </trkpt>
      <trkpt lat="42.4409960" lon="-2.9560530">
        <ele>643.4</ele>
        <time>2022-08-29T08:08:08Z</time>
      </trkpt>
      <trkpt lat="42.4410270" lon="-2.9560860">
        <ele>643.4</ele>
        <time>2022-08-29T08:08:09Z</time>
      </trkpt>
      <trkpt lat="42.4410550" lon="-2.9561360">
        <ele>643.2</ele>
        <time>2022-08-29T08:08:10Z</time>
      </trkpt>
      <trkpt lat="42.4410650" lon="-2.9561820">
        <ele>643.4</ele>
        <time>2022-08-29T08:08:11Z</time>
      </trkpt>
      <trkpt lat="42.4410910" lon="-2.9562310">
        <ele>643.4</ele>
        <time>2022-08-29T08:08:12Z</time>
      </trkpt>
      <trkpt lat="42.4411020" lon="-2.9562750">
        <ele>643.4</ele>
        <time>2022-08-29T08:08:13Z</time>
      </trkpt>
      <trkpt lat="42.4411260" lon="-2.9563190">
        <ele>643.4</ele>
        <time>2022-08-29T08:08:14Z</time>
      </trkpt>
      <trkpt lat="42.4411360" lon="-2.9563570">
        <ele>643.4</ele>
        <time>2022-08-29T08:08:15Z</time>
      </trkpt>
      <trkpt lat="42.4411380" lon="-2.9563960">
        <ele>643.4</ele>
        <time>2022-08-29T08:08:16Z</time>
      </trkpt>
      <trkpt lat="42.4411480" lon="-2.9564340">
        <ele>643.4</ele>
        <time>2022-08-29T08:08:17Z</time>
      </trkpt>
      <trkpt lat="42.4411610" lon="-2.9564720">
        <ele>643.4</ele>
        <time>2022-08-29T08:08:18Z</time>
      </trkpt>
      <trkpt lat="42.4411750" lon="-2.9565180">
        <ele>643.2</ele>
        <time>2022-08-29T08:08:19Z</time>
      </trkpt>
      <trkpt lat="42.4411840" lon="-2.9565630">
        <ele>643.4</ele>
        <time>2022-08-29T08:08:20Z</time>
      </trkpt>
      <trkpt lat="42.4411990" lon="-2.9566110">
        <ele>643.4</ele>
        <time>2022-08-29T08:08:21Z</time>
      </trkpt>
      <trkpt lat="42.4412180" lon="-2.9566580">
        <ele>643.4</ele>
        <time>2022-08-29T08:08:22Z</time>
      </trkpt>
      <trkpt lat="42.4412210" lon="-2.9567140">
        <ele>643.4</ele>
        <time>2022-08-29T08:08:23Z</time>
      </trkpt>
      <trkpt lat="42.4412380" lon="-2.9567630">
        <ele>643.4</ele>
        <time>2022-08-29T08:08:24Z</time>
      </trkpt>
      <trkpt lat="42.4412440" lon="-2.9568160">
        <ele>643.2</ele>
        <time>2022-08-29T08:08:25Z</time>
      </trkpt>
      <trkpt lat="42.4412510" lon="-2.9568710">
        <ele>643.4</ele>
        <time>2022-08-29T08:08:26Z</time>
      </trkpt>
      <trkpt lat="42.4412330" lon="-2.9569310">
        <ele>643.2</ele>
        <time>2022-08-29T08:08:27Z</time>
      </trkpt>
      <trkpt lat="42.4412250" lon="-2.9569820">
        <ele>643.2</ele>
        <time>2022-08-29T08:08:28Z</time>
      </trkpt>
      <trkpt lat="42.4412080" lon="-2.9570350">
        <ele>643.4</ele>
        <time>2022-08-29T08:08:29Z</time>
      </trkpt>
      <trkpt lat="42.4411990" lon="-2.9570720">
        <ele>643.4</ele>
        <time>2022-08-29T08:08:30Z</time>
      </trkpt>
      <trkpt lat="42.4411760" lon="-2.9571110">
        <ele>643.2</ele>
        <time>2022-08-29T08:08:31Z</time>
      </trkpt>
      <trkpt lat="42.4411570" lon="-2.9571450">
        <ele>643.4</ele>
        <time>2022-08-29T08:08:32Z</time>
      </trkpt>
      <trkpt lat="42.4411350" lon="-2.9571720">
        <ele>643.2</ele>
        <time>2022-08-29T08:08:33Z</time>
      </trkpt>
      <trkpt lat="42.4411130" lon="-2.9571920">
        <ele>643.4</ele>
        <time>2022-08-29T08:08:34Z</time>
      </trkpt>
      <trkpt lat="42.4410850" lon="-2.9572070">
        <ele>643.8</ele>
        <time>2022-08-29T08:08:35Z</time>
      </trkpt>
      <trkpt lat="42.4410560" lon="-2.9572320">
        <ele>644.0</ele>
        <time>2022-08-29T08:08:36Z</time>
      </trkpt>
      <trkpt lat="42.4410400" lon="-2.9572650">
        <ele>644.2</ele>
        <time>2022-08-29T08:08:37Z</time>
      </trkpt>
      <trkpt lat="42.4410320" lon="-2.9573050">
        <ele>644.2</ele>
        <time>2022-08-29T08:08:38Z</time>
      </trkpt>
      <trkpt lat="42.4410320" lon="-2.9573490">
        <ele>644.2</ele>
        <time>2022-08-29T08:08:39Z</time>
      </trkpt>
      <trkpt lat="42.4410380" lon="-2.9573910">
        <ele>644.2</ele>
        <time>2022-08-29T08:08:40Z</time>
      </trkpt>
      <trkpt lat="42.4410430" lon="-2.9574360">
        <ele>644.4</ele>
        <time>2022-08-29T08:08:41Z</time>
      </trkpt>
      <trkpt lat="42.4410490" lon="-2.9574830">
        <ele>644.4</ele>
        <time>2022-08-29T08:08:42Z</time>
      </trkpt>
      <trkpt lat="42.4410560" lon="-2.9575330">
        <ele>644.6</ele>
        <time>2022-08-29T08:08:43Z</time>
      </trkpt>
      <trkpt lat="42.4410630" lon="-2.9575840">
        <ele>644.6</ele>
        <time>2022-08-29T08:08:44Z</time>
      </trkpt>
      <trkpt lat="42.4410700" lon="-2.9576360">
        <ele>644.6</ele>
        <time>2022-08-29T08:08:45Z</time>
      </trkpt>
      <trkpt lat="42.4410740" lon="-2.9576900">
        <ele>644.8</ele>
        <time>2022-08-29T08:08:46Z</time>
      </trkpt>
      <trkpt lat="42.4410770" lon="-2.9577440">
        <ele>644.8</ele>
        <time>2022-08-29T08:08:47Z</time>
      </trkpt>
      <trkpt lat="42.4410810" lon="-2.9577990">
        <ele>644.8</ele>
        <time>2022-08-29T08:08:48Z</time>
      </trkpt>
      <trkpt lat="42.4410850" lon="-2.9578540">
        <ele>645.0</ele>
        <time>2022-08-29T08:08:49Z</time>
      </trkpt>
      <trkpt lat="42.4410900" lon="-2.9579090">
        <ele>645.0</ele>
        <time>2022-08-29T08:08:50Z</time>
      </trkpt>
      <trkpt lat="42.4410970" lon="-2.9579640">
        <ele>645.0</ele>
        <time>2022-08-29T08:08:51Z</time>
      </trkpt>
      <trkpt lat="42.4411030" lon="-2.9580190">
        <ele>645.0</ele>
        <time>2022-08-29T08:08:52Z</time>
      </trkpt>
      <trkpt lat="42.4411050" lon="-2.9580790">
        <ele>645.0</ele>
        <time>2022-08-29T08:08:53Z</time>
      </trkpt>
      <trkpt lat="42.4411080" lon="-2.9581410">
        <ele>645.0</ele>
        <time>2022-08-29T08:08:54Z</time>
      </trkpt>
      <trkpt lat="42.4411110" lon="-2.9582030">
        <ele>645.0</ele>
        <time>2022-08-29T08:08:55Z</time>
      </trkpt>
      <trkpt lat="42.4411180" lon="-2.9582690">
        <ele>645.0</ele>
        <time>2022-08-29T08:08:56Z</time>
      </trkpt>
      <trkpt lat="42.4411260" lon="-2.9583340">
        <ele>645.0</ele>
        <time>2022-08-29T08:08:57Z</time>
      </trkpt>
      <trkpt lat="42.4411380" lon="-2.9583990">
        <ele>645.0</ele>
        <time>2022-08-29T08:08:58Z</time>
      </trkpt>
      <trkpt lat="42.4411540" lon="-2.9584610">
        <ele>645.0</ele>
        <time>2022-08-29T08:08:59Z</time>
      </trkpt>
      <trkpt lat="42.4411750" lon="-2.9585260">
        <ele>644.6</ele>
        <time>2022-08-29T08:09:00Z</time>
      </trkpt>
      <trkpt lat="42.4411990" lon="-2.9585880">
        <ele>644.6</ele>
        <time>2022-08-29T08:09:01Z</time>
      </trkpt>
      <trkpt lat="42.4412240" lon="-2.9586470">
        <ele>644.6</ele>
        <time>2022-08-29T08:09:02Z</time>
      </trkpt>
      <trkpt lat="42.4412480" lon="-2.9587050">
        <ele>644.6</ele>
        <time>2022-08-29T08:09:03Z</time>
      </trkpt>
      <trkpt lat="42.4412710" lon="-2.9587650">
        <ele>644.6</ele>
        <time>2022-08-29T08:09:04Z</time>
      </trkpt>
      <trkpt lat="42.4412970" lon="-2.9588250">
        <ele>644.6</ele>
        <time>2022-08-29T08:09:05Z</time>
      </trkpt>
      <trkpt lat="42.4413250" lon="-2.9588840">
        <ele>644.6</ele>
        <time>2022-08-29T08:09:06Z</time>
      </trkpt>
      <trkpt lat="42.4413530" lon="-2.9589450">
        <ele>644.4</ele>
        <time>2022-08-29T08:09:07Z</time>
      </trkpt>
      <trkpt lat="42.4413820" lon="-2.9590060">
        <ele>644.6</ele>
        <time>2022-08-29T08:09:08Z</time>
      </trkpt>
      <trkpt lat="42.4414110" lon="-2.9590660">
        <ele>644.4</ele>
        <time>2022-08-29T08:09:09Z</time>
      </trkpt>
      <trkpt lat="42.4414360" lon="-2.9591290">
        <ele>644.4</ele>
        <time>2022-08-29T08:09:10Z</time>
      </trkpt>
      <trkpt lat="42.4414620" lon="-2.9591940">
        <ele>644.6</ele>
        <time>2022-08-29T08:09:11Z</time>
      </trkpt>
      <trkpt lat="42.4414890" lon="-2.9592580">
        <ele>644.6</ele>
        <time>2022-08-29T08:09:12Z</time>
      </trkpt>
      <trkpt lat="42.4415150" lon="-2.9593190">
        <ele>644.4</ele>
        <time>2022-08-29T08:09:13Z</time>
      </trkpt>
      <trkpt lat="42.4415390" lon="-2.9593790">
        <ele>644.4</ele>
        <time>2022-08-29T08:09:14Z</time>
      </trkpt>
      <trkpt lat="42.4415630" lon="-2.9594400">
        <ele>644.4</ele>
        <time>2022-08-29T08:09:15Z</time>
      </trkpt>
      <trkpt lat="42.4415860" lon="-2.9595040">
        <ele>644.4</ele>
        <time>2022-08-29T08:09:16Z</time>
      </trkpt>
      <trkpt lat="42.4416100" lon="-2.9595660">
        <ele>644.4</ele>
        <time>2022-08-29T08:09:17Z</time>
      </trkpt>
      <trkpt lat="42.4416310" lon="-2.9596290">
        <ele>644.6</ele>
        <time>2022-08-29T08:09:18Z</time>
      </trkpt>
      <trkpt lat="42.4416510" lon="-2.9596930">
        <ele>644.6</ele>
        <time>2022-08-29T08:09:19Z</time>
      </trkpt>
      <trkpt lat="42.4416720" lon="-2.9597580">
        <ele>644.6</ele>
        <time>2022-08-29T08:09:20Z</time>
      </trkpt>
      <trkpt lat="42.4416840" lon="-2.9598250">
        <ele>644.4</ele>
        <time>2022-08-29T08:09:21Z</time>
      </trkpt>
      <trkpt lat="42.4416970" lon="-2.9598850">
        <ele>644.6</ele>
        <time>2022-08-29T08:09:22Z</time>
      </trkpt>
      <trkpt lat="42.4417140" lon="-2.9599460">
        <ele>644.4</ele>
        <time>2022-08-29T08:09:23Z</time>
      </trkpt>
      <trkpt lat="42.4417330" lon="-2.9600090">
        <ele>644.6</ele>
        <time>2022-08-29T08:09:24Z</time>
      </trkpt>
      <trkpt lat="42.4417530" lon="-2.9600710">
        <ele>644.6</ele>
        <time>2022-08-29T08:09:25Z</time>
      </trkpt>
      <trkpt lat="42.4417700" lon="-2.9601330">
        <ele>644.6</ele>
        <time>2022-08-29T08:09:26Z</time>
      </trkpt>
      <trkpt lat="42.4417870" lon="-2.9601950">
        <ele>644.8</ele>
        <time>2022-08-29T08:09:27Z</time>
      </trkpt>
      <trkpt lat="42.4418030" lon="-2.9602550">
        <ele>645.0</ele>
        <time>2022-08-29T08:09:28Z</time>
      </trkpt>
      <trkpt lat="42.4418190" lon="-2.9603170">
        <ele>645.2</ele>
        <time>2022-08-29T08:09:29Z</time>
      </trkpt>
      <trkpt lat="42.4418380" lon="-2.9603780">
        <ele>645.4</ele>
        <time>2022-08-29T08:09:30Z</time>
      </trkpt>
      <trkpt lat="42.4418570" lon="-2.9604380">
        <ele>645.6</ele>
        <time>2022-08-29T08:09:31Z</time>
      </trkpt>
      <trkpt lat="42.4418750" lon="-2.9604960">
        <ele>645.6</ele>
        <time>2022-08-29T08:09:32Z</time>
      </trkpt>
      <trkpt lat="42.4418910" lon="-2.9605550">
        <ele>645.6</ele>
        <time>2022-08-29T08:09:33Z</time>
      </trkpt>
      <trkpt lat="42.4419050" lon="-2.9606160">
        <ele>645.8</ele>
        <time>2022-08-29T08:09:34Z</time>
      </trkpt>
      <trkpt lat="42.4419200" lon="-2.9606790">
        <ele>646.0</ele>
        <time>2022-08-29T08:09:35Z</time>
      </trkpt>
      <trkpt lat="42.4419340" lon="-2.9607430">
        <ele>646.0</ele>
        <time>2022-08-29T08:09:36Z</time>
      </trkpt>
      <trkpt lat="42.4419510" lon="-2.9608060">
        <ele>646.0</ele>
        <time>2022-08-29T08:09:37Z</time>
      </trkpt>
      <trkpt lat="42.4419700" lon="-2.9608660">
        <ele>646.0</ele>
        <time>2022-08-29T08:09:38Z</time>
      </trkpt>
      <trkpt lat="42.4419920" lon="-2.9609260">
        <ele>646.2</ele>
        <time>2022-08-29T08:09:39Z</time>
      </trkpt>
      <trkpt lat="42.4420110" lon="-2.9609890">
        <ele>646.2</ele>
        <time>2022-08-29T08:09:40Z</time>
      </trkpt>
      <trkpt lat="42.4420300" lon="-2.9610540">
        <ele>646.2</ele>
        <time>2022-08-29T08:09:41Z</time>
      </trkpt>
      <trkpt lat="42.4420480" lon="-2.9611210">
        <ele>646.2</ele>
        <time>2022-08-29T08:09:42Z</time>
      </trkpt>
      <trkpt lat="42.4420670" lon="-2.9611850">
        <ele>646.4</ele>
        <time>2022-08-29T08:09:43Z</time>
      </trkpt>
      <trkpt lat="42.4420870" lon="-2.9612490">
        <ele>646.2</ele>
        <time>2022-08-29T08:09:44Z</time>
      </trkpt>
      <trkpt lat="42.4421080" lon="-2.9613140">
        <ele>646.2</ele>
        <time>2022-08-29T08:09:45Z</time>
      </trkpt>
      <trkpt lat="42.4421280" lon="-2.9613800">
        <ele>646.2</ele>
        <time>2022-08-29T08:09:46Z</time>
      </trkpt>
      <trkpt lat="42.4421490" lon="-2.9614470">
        <ele>646.2</ele>
        <time>2022-08-29T08:09:47Z</time>
      </trkpt>
      <trkpt lat="42.4421700" lon="-2.9615130">
        <ele>646.2</ele>
        <time>2022-08-29T08:09:48Z</time>
      </trkpt>
      <trkpt lat="42.4421920" lon="-2.9615800">
        <ele>646.4</ele>
        <time>2022-08-29T08:09:49Z</time>
      </trkpt>
      <trkpt lat="42.4422120" lon="-2.9616460">
        <ele>646.2</ele>
        <time>2022-08-29T08:09:50Z</time>
      </trkpt>
      <trkpt lat="42.4422330" lon="-2.9617130">
        <ele>646.2</ele>
        <time>2022-08-29T08:09:51Z</time>
      </trkpt>
      <trkpt lat="42.4422530" lon="-2.9617780">
        <ele>646.2</ele>
        <time>2022-08-29T08:09:52Z</time>
      </trkpt>
      <trkpt lat="42.4422720" lon="-2.9618430">
        <ele>646.2</ele>
        <time>2022-08-29T08:09:53Z</time>
      </trkpt>
      <trkpt lat="42.4422910" lon="-2.9619100">
        <ele>646.2</ele>
        <time>2022-08-29T08:09:54Z</time>
      </trkpt>
      <trkpt lat="42.4423090" lon="-2.9619760">
        <ele>646.2</ele>
        <time>2022-08-29T08:09:55Z</time>
      </trkpt>
      <trkpt lat="42.4423260" lon="-2.9620420">
        <ele>646.2</ele>
        <time>2022-08-29T08:09:56Z</time>
      </trkpt>
      <trkpt lat="42.4423430" lon="-2.9621070">
        <ele>646.2</ele>
        <time>2022-08-29T08:09:57Z</time>
      </trkpt>
      <trkpt lat="42.4423600" lon="-2.9621700">
        <ele>646.4</ele>
        <time>2022-08-29T08:09:58Z</time>
      </trkpt>
      <trkpt lat="42.4423770" lon="-2.9622330">
        <ele>646.4</ele>
        <time>2022-08-29T08:09:59Z</time>
      </trkpt>
      <trkpt lat="42.4423980" lon="-2.9622930">
        <ele>646.2</ele>
        <time>2022-08-29T08:10:00Z</time>
      </trkpt>
      <trkpt lat="42.4424190" lon="-2.9623530">
        <ele>646.4</ele>
        <time>2022-08-29T08:10:01Z</time>
      </trkpt>
      <trkpt lat="42.4424390" lon="-2.9624110">
        <ele>646.4</ele>
        <time>2022-08-29T08:10:02Z</time>
      </trkpt>
      <trkpt lat="42.4424620" lon="-2.9624680">
        <ele>646.4</ele>
        <time>2022-08-29T08:10:03Z</time>
      </trkpt>
      <trkpt lat="42.4424770" lon="-2.9625180">
        <ele>646.2</ele>
        <time>2022-08-29T08:10:04Z</time>
      </trkpt>
      <trkpt lat="42.4424780" lon="-2.9625620">
        <ele>646.2</ele>
        <time>2022-08-29T08:10:05Z</time>
      </trkpt>
      <trkpt lat="42.4424620" lon="-2.9625930">
        <ele>646.4</ele>
        <time>2022-08-29T08:10:06Z</time>
      </trkpt>
      <trkpt lat="42.4424400" lon="-2.9625890">
        <ele>646.4</ele>
        <time>2022-08-29T08:10:07Z</time>
      </trkpt>
      <trkpt lat="42.4424250" lon="-2.9625590">
        <ele>646.2</ele>
        <time>2022-08-29T08:10:08Z</time>
      </trkpt>
      <trkpt lat="42.4424180" lon="-2.9625210">
        <ele>646.4</ele>
        <time>2022-08-29T08:10:09Z</time>
      </trkpt>
      <trkpt lat="42.4424120" lon="-2.9624790">
        <ele>646.4</ele>
        <time>2022-08-29T08:10:10Z</time>
      </trkpt>
      <trkpt lat="42.4424090" lon="-2.9624360">
        <ele>646.4</ele>
        <time>2022-08-29T08:10:11Z</time>
      </trkpt>
      <trkpt lat="42.4424090" lon="-2.9623910">
        <ele>646.2</ele>
        <time>2022-08-29T08:10:12Z</time>
      </trkpt>
      <trkpt lat="42.4424120" lon="-2.9623470">
        <ele>646.2</ele>
        <time>2022-08-29T08:10:13Z</time>
      </trkpt>
      <trkpt lat="42.4424160" lon="-2.9623060">
        <ele>646.2</ele>
        <time>2022-08-29T08:10:14Z</time>
      </trkpt>
      <trkpt lat="42.4424230" lon="-2.9622670">
        <ele>646.2</ele>
        <time>2022-08-29T08:10:15Z</time>
      </trkpt>
      <trkpt lat="42.4424370" lon="-2.9622260">
        <ele>646.2</ele>
        <time>2022-08-29T08:10:16Z</time>
      </trkpt>
      <trkpt lat="42.4424570" lon="-2.9621890">
        <ele>646.0</ele>
        <time>2022-08-29T08:10:17Z</time>
      </trkpt>
      <trkpt lat="42.4424790" lon="-2.9621530">
        <ele>646.0</ele>
        <time>2022-08-29T08:10:18Z</time>
      </trkpt>
      <trkpt lat="42.4425010" lon="-2.9621180">
        <ele>646.0</ele>
        <time>2022-08-29T08:10:19Z</time>
      </trkpt>
      <trkpt lat="42.4425270" lon="-2.9620840">
        <ele>645.8</ele>
        <time>2022-08-29T08:10:20Z</time>
      </trkpt>
      <trkpt lat="42.4425550" lon="-2.9620470">
        <ele>645.6</ele>
        <time>2022-08-29T08:10:21Z</time>
      </trkpt>
      <trkpt lat="42.4425860" lon="-2.9620080">
        <ele>645.6</ele>
        <time>2022-08-29T08:10:22Z</time>
      </trkpt>
      <trkpt lat="42.4426180" lon="-2.9619670">
        <ele>645.6</ele>
        <time>2022-08-29T08:10:23Z</time>
      </trkpt>
      <trkpt lat="42.4426500" lon="-2.9619260">
        <ele>645.6</ele>
        <time>2022-08-29T08:10:24Z</time>
      </trkpt>
      <trkpt lat="42.4426790" lon="-2.9618840">
        <ele>645.6</ele>
        <time>2022-08-29T08:10:25Z</time>
      </trkpt>
      <trkpt lat="42.4427070" lon="-2.9618470">
        <ele>645.6</ele>
        <time>2022-08-29T08:10:26Z</time>
      </trkpt>
      <trkpt lat="42.4427350" lon="-2.9618270">
        <ele>645.4</ele>
        <time>2022-08-29T08:10:27Z</time>
      </trkpt>
      <trkpt lat="42.4427610" lon="-2.9618370">
        <ele>645.4</ele>
        <time>2022-08-29T08:10:28Z</time>
      </trkpt>
      <trkpt lat="42.4427800" lon="-2.9618680">
        <ele>645.2</ele>
        <time>2022-08-29T08:10:29Z</time>
      </trkpt>
      <trkpt lat="42.4427820" lon="-2.9619050">
        <ele>645.0</ele>
        <time>2022-08-29T08:10:30Z</time>
      </trkpt>
      <trkpt lat="42.4427660" lon="-2.9619380">
        <ele>644.6</ele>
        <time>2022-08-29T08:10:31Z</time>
      </trkpt>
      <trkpt lat="42.4427420" lon="-2.9619680">
        <ele>644.4</ele>
        <time>2022-08-29T08:10:32Z</time>
      </trkpt>
      <trkpt lat="42.4427190" lon="-2.9620000">
        <ele>643.8</ele>
        <time>2022-08-29T08:10:33Z</time>
      </trkpt>
      <trkpt lat="42.4426970" lon="-2.9620380">
        <ele>643.6</ele>
        <time>2022-08-29T08:10:34Z</time>
      </trkpt>
      <trkpt lat="42.4426740" lon="-2.9620800">
        <ele>643.4</ele>
        <time>2022-08-29T08:10:35Z</time>
      </trkpt>
      <trkpt lat="42.4426520" lon="-2.9621210">
        <ele>643.2</ele>
        <time>2022-08-29T08:10:36Z</time>
      </trkpt>
      <trkpt lat="42.4426320" lon="-2.9621630">
        <ele>643.0</ele>
        <time>2022-08-29T08:10:37Z</time>
      </trkpt>
      <trkpt lat="42.4426130" lon="-2.9622050">
        <ele>643.0</ele>
        <time>2022-08-29T08:10:38Z</time>
      </trkpt>
      <trkpt lat="42.4425960" lon="-2.9622500">
        <ele>642.8</ele>
        <time>2022-08-29T08:10:39Z</time>
      </trkpt>
      <trkpt lat="42.4425880" lon="-2.9622970">
        <ele>642.8</ele>
        <time>2022-08-29T08:10:40Z</time>
      </trkpt>
      <trkpt lat="42.4425890" lon="-2.9623440">
        <ele>642.8</ele>
        <time>2022-08-29T08:10:41Z</time>
      </trkpt>
      <trkpt lat="42.4425950" lon="-2.9623920">
        <ele>642.8</ele>
        <time>2022-08-29T08:10:42Z</time>
      </trkpt>
      <trkpt lat="42.4426030" lon="-2.9624390">
        <ele>642.6</ele>
        <time>2022-08-29T08:10:43Z</time>
      </trkpt>
      <trkpt lat="42.4426170" lon="-2.9624830">
        <ele>642.6</ele>
        <time>2022-08-29T08:10:44Z</time>
      </trkpt>
      <trkpt lat="42.4426330" lon="-2.9625290">
        <ele>642.6</ele>
        <time>2022-08-29T08:10:45Z</time>
      </trkpt>
      <trkpt lat="42.4426470" lon="-2.9625780">
        <ele>642.8</ele>
        <time>2022-08-29T08:10:46Z</time>
      </trkpt>
      <trkpt lat="42.4426620" lon="-2.9626300">
        <ele>642.6</ele>
        <time>2022-08-29T08:10:47Z</time>
      </trkpt>
      <trkpt lat="42.4426790" lon="-2.9626830">
        <ele>642.8</ele>
        <time>2022-08-29T08:10:48Z</time>
      </trkpt>
      <trkpt lat="42.4426960" lon="-2.9627340">
        <ele>642.6</ele>
        <time>2022-08-29T08:10:49Z</time>
      </trkpt>
      <trkpt lat="42.4427180" lon="-2.9627870">
        <ele>642.6</ele>
        <time>2022-08-29T08:10:50Z</time>
      </trkpt>
      <trkpt lat="42.4427390" lon="-2.9628420">
        <ele>642.6</ele>
        <time>2022-08-29T08:10:51Z</time>
      </trkpt>
      <trkpt lat="42.4427610" lon="-2.9628950">
        <ele>642.4</ele>
        <time>2022-08-29T08:10:52Z</time>
      </trkpt>
      <trkpt lat="42.4427880" lon="-2.9629480">
        <ele>642.6</ele>
        <time>2022-08-29T08:10:53Z</time>
      </trkpt>
      <trkpt lat="42.4428180" lon="-2.9629990">
        <ele>642.4</ele>
        <time>2022-08-29T08:10:54Z</time>
      </trkpt>
      <trkpt lat="42.4428480" lon="-2.9630480">
        <ele>642.4</ele>
        <time>2022-08-29T08:10:55Z</time>
      </trkpt>
      <trkpt lat="42.4428770" lon="-2.9630970">
        <ele>642.4</ele>
        <time>2022-08-29T08:10:56Z</time>
      </trkpt>
      <trkpt lat="42.4429070" lon="-2.9631450">
        <ele>642.4</ele>
        <time>2022-08-29T08:10:57Z</time>
      </trkpt>
      <trkpt lat="42.4429360" lon="-2.9631920">
        <ele>642.2</ele>
        <time>2022-08-29T08:10:58Z</time>
      </trkpt>
      <trkpt lat="42.4429640" lon="-2.9632380">
        <ele>642.2</ele>
        <time>2022-08-29T08:10:59Z</time>
      </trkpt>
      <trkpt lat="42.4429910" lon="-2.9632840">
        <ele>642.2</ele>
        <time>2022-08-29T08:11:00Z</time>
      </trkpt>
      <trkpt lat="42.4430220" lon="-2.9633300">
        <ele>642.2</ele>
        <time>2022-08-29T08:11:01Z</time>
      </trkpt>
      <trkpt lat="42.4430500" lon="-2.9633760">
        <ele>642.4</ele>
        <time>2022-08-29T08:11:02Z</time>
      </trkpt>
      <trkpt lat="42.4430760" lon="-2.9634210">
        <ele>642.2</ele>
        <time>2022-08-29T08:11:03Z</time>
      </trkpt>
      <trkpt lat="42.4431020" lon="-2.9634650">
        <ele>642.4</ele>
        <time>2022-08-29T08:11:04Z</time>
      </trkpt>
      <trkpt lat="42.4431300" lon="-2.9635110">
        <ele>642.2</ele>
        <time>2022-08-29T08:11:05Z</time>
      </trkpt>
      <trkpt lat="42.4431590" lon="-2.9635560">
        <ele>642.4</ele>
        <time>2022-08-29T08:11:06Z</time>
      </trkpt>
      <trkpt lat="42.4431880" lon="-2.9635980">
        <ele>642.4</ele>
        <time>2022-08-29T08:11:07Z</time>
      </trkpt>
      <trkpt lat="42.4432170" lon="-2.9636430">
        <ele>642.4</ele>
        <time>2022-08-29T08:11:08Z</time>
      </trkpt>
      <trkpt lat="42.4432460" lon="-2.9636870">
        <ele>642.4</ele>
        <time>2022-08-29T08:11:09Z</time>
      </trkpt>
      <trkpt lat="42.4432750" lon="-2.9637290">
        <ele>642.4</ele>
        <time>2022-08-29T08:11:10Z</time>
      </trkpt>
      <trkpt lat="42.4433040" lon="-2.9637710">
        <ele>642.4</ele>
        <time>2022-08-29T08:11:11Z</time>
      </trkpt>
      <trkpt lat="42.4433330" lon="-2.9638160">
        <ele>642.4</ele>
        <time>2022-08-29T08:11:12Z</time>
      </trkpt>
      <trkpt lat="42.4433640" lon="-2.9638620">
        <ele>642.4</ele>
        <time>2022-08-29T08:11:13Z</time>
      </trkpt>
      <trkpt lat="42.4433960" lon="-2.9639060">
        <ele>642.6</ele>
        <time>2022-08-29T08:11:14Z</time>
      </trkpt>
      <trkpt lat="42.4434300" lon="-2.9639510">
        <ele>642.6</ele>
        <time>2022-08-29T08:11:15Z</time>
      </trkpt>
      <trkpt lat="42.4434640" lon="-2.9639930">
        <ele>642.6</ele>
        <time>2022-08-29T08:11:16Z</time>
      </trkpt>
      <trkpt lat="42.4434980" lon="-2.9640330">
        <ele>642.6</ele>
        <time>2022-08-29T08:11:17Z</time>
      </trkpt>
      <trkpt lat="42.4435320" lon="-2.9640730">
        <ele>642.6</ele>
        <time>2022-08-29T08:11:18Z</time>
      </trkpt>
      <trkpt lat="42.4435640" lon="-2.9641140">
        <ele>642.8</ele>
        <time>2022-08-29T08:11:19Z</time>
      </trkpt>
      <trkpt lat="42.4435960" lon="-2.9641570">
        <ele>642.8</ele>
        <time>2022-08-29T08:11:20Z</time>
      </trkpt>
      <trkpt lat="42.4436270" lon="-2.9642020">
        <ele>642.6</ele>
        <time>2022-08-29T08:11:21Z</time>
      </trkpt>
      <trkpt lat="42.4436560" lon="-2.9642460">
        <ele>642.8</ele>
        <time>2022-08-29T08:11:22Z</time>
      </trkpt>
      <trkpt lat="42.4436870" lon="-2.9642880">
        <ele>643.0</ele>
        <time>2022-08-29T08:11:23Z</time>
      </trkpt>
      <trkpt lat="42.4437190" lon="-2.9643280">
        <ele>643.0</ele>
        <time>2022-08-29T08:11:24Z</time>
      </trkpt>
      <trkpt lat="42.4437490" lon="-2.9643680">
        <ele>642.8</ele>
        <time>2022-08-29T08:11:25Z</time>
      </trkpt>
      <trkpt lat="42.4437810" lon="-2.9644090">
        <ele>643.0</ele>
        <time>2022-08-29T08:11:26Z</time>
      </trkpt>
      <trkpt lat="42.4438110" lon="-2.9644540">
        <ele>643.0</ele>
        <time>2022-08-29T08:11:27Z</time>
      </trkpt>
      <trkpt lat="42.4438350" lon="-2.9645010">
        <ele>642.8</ele>
        <time>2022-08-29T08:11:28Z</time>
      </trkpt>
      <trkpt lat="42.4438530" lon="-2.9645540">
        <ele>643.0</ele>
        <time>2022-08-29T08:11:29Z</time>
      </trkpt>
      <trkpt lat="42.4438690" lon="-2.9646080">
        <ele>643.0</ele>
        <time>2022-08-29T08:11:30Z</time>
      </trkpt>
      <trkpt lat="42.4438860" lon="-2.9646640">
        <ele>643.0</ele>
        <time>2022-08-29T08:11:31Z</time>
      </trkpt>
      <trkpt lat="42.4439020" lon="-2.9647160">
        <ele>643.0</ele>
        <time>2022-08-29T08:11:32Z</time>
      </trkpt>
      <trkpt lat="42.4439170" lon="-2.9647660">
        <ele>643.2</ele>
        <time>2022-08-29T08:11:33Z</time>
      </trkpt>
      <trkpt lat="42.4439380" lon="-2.9648110">
        <ele>643.2</ele>
        <time>2022-08-29T08:11:34Z</time>
      </trkpt>
      <trkpt lat="42.4439660" lon="-2.9648480">
        <ele>643.0</ele>
        <time>2022-08-29T08:11:35Z</time>
      </trkpt>
      <trkpt lat="42.4439980" lon="-2.9648810">
        <ele>643.2</ele>
        <time>2022-08-29T08:11:36Z</time>
      </trkpt>
      <trkpt lat="42.4440350" lon="-2.9649140">
        <ele>643.2</ele>
        <time>2022-08-29T08:11:37Z</time>
      </trkpt>
      <trkpt lat="42.4440740" lon="-2.9649470">
        <ele>643.2</ele>
        <time>2022-08-29T08:11:38Z</time>
      </trkpt>
      <trkpt lat="42.4441130" lon="-2.9649830">
        <ele>643.4</ele>
        <time>2022-08-29T08:11:39Z</time>
      </trkpt>
      <trkpt lat="42.4441520" lon="-2.9650210">
        <ele>643.2</ele>
        <time>2022-08-29T08:11:40Z</time>
      </trkpt>
      <trkpt lat="42.4441880" lon="-2.9650640">
        <ele>643.4</ele>
        <time>2022-08-29T08:11:41Z</time>
      </trkpt>
      <trkpt lat="42.4442210" lon="-2.9651140">
        <ele>643.4</ele>
        <time>2022-08-29T08:11:42Z</time>
      </trkpt>
      <trkpt lat="42.4442500" lon="-2.9651680">
        <ele>643.6</ele>
        <time>2022-08-29T08:11:43Z</time>
      </trkpt>
      <trkpt lat="42.4442740" lon="-2.9652290">
        <ele>643.4</ele>
        <time>2022-08-29T08:11:44Z</time>
      </trkpt>
      <trkpt lat="42.4442970" lon="-2.9652930">
        <ele>643.6</ele>
        <time>2022-08-29T08:11:45Z</time>
      </trkpt>
      <trkpt lat="42.4443200" lon="-2.9653540">
        <ele>643.4</ele>
        <time>2022-08-29T08:11:46Z</time>
      </trkpt>
      <trkpt lat="42.4443450" lon="-2.9654110">
        <ele>643.4</ele>
        <time>2022-08-29T08:11:47Z</time>
      </trkpt>
      <trkpt lat="42.4443750" lon="-2.9654670">
        <ele>643.6</ele>
        <time>2022-08-29T08:11:48Z</time>
      </trkpt>
      <trkpt lat="42.4444040" lon="-2.9655230">
        <ele>643.4</ele>
        <time>2022-08-29T08:11:49Z</time>
      </trkpt>
      <trkpt lat="42.4444310" lon="-2.9655800">
        <ele>643.4</ele>
        <time>2022-08-29T08:11:50Z</time>
      </trkpt>
      <trkpt lat="42.4444550" lon="-2.9656370">
        <ele>643.4</ele>
        <time>2022-08-29T08:11:51Z</time>
      </trkpt>
      <trkpt lat="42.4444770" lon="-2.9656960">
        <ele>643.4</ele>
        <time>2022-08-29T08:11:52Z</time>
      </trkpt>
      <trkpt lat="42.4444990" lon="-2.9657550">
        <ele>643.2</ele>
        <time>2022-08-29T08:11:53Z</time>
      </trkpt>
      <trkpt lat="42.4445210" lon="-2.9658140">
        <ele>643.2</ele>
        <time>2022-08-29T08:11:54Z</time>
      </trkpt>
      <trkpt lat="42.4445410" lon="-2.9658740">
        <ele>643.2</ele>
        <time>2022-08-29T08:11:55Z</time>
      </trkpt>
      <trkpt lat="42.4445600" lon="-2.9659350">
        <ele>643.2</ele>
        <time>2022-08-29T08:11:56Z</time>
      </trkpt>
      <trkpt lat="42.4445760" lon="-2.9659960">
        <ele>643.0</ele>
        <time>2022-08-29T08:11:57Z</time>
      </trkpt>
      <trkpt lat="42.4445940" lon="-2.9660580">
        <ele>643.0</ele>
        <time>2022-08-29T08:11:58Z</time>
      </trkpt>
      <trkpt lat="42.4446140" lon="-2.9661200">
        <ele>643.0</ele>
        <time>2022-08-29T08:11:59Z</time>
      </trkpt>
      <trkpt lat="42.4446320" lon="-2.9661810">
        <ele>642.8</ele>
        <time>2022-08-29T08:12:00Z</time>
      </trkpt>
      <trkpt lat="42.4446500" lon="-2.9662440">
        <ele>642.8</ele>
        <time>2022-08-29T08:12:01Z</time>
      </trkpt>
      <trkpt lat="42.4446660" lon="-2.9663090">
        <ele>642.8</ele>
        <time>2022-08-29T08:12:02Z</time>
      </trkpt>
      <trkpt lat="42.4446780" lon="-2.9663740">
        <ele>642.8</ele>
        <time>2022-08-29T08:12:03Z</time>
      </trkpt>
      <trkpt lat="42.4446940" lon="-2.9664390">
        <ele>642.8</ele>
        <time>2022-08-29T08:12:04Z</time>
      </trkpt>
      <trkpt lat="42.4447110" lon="-2.9665000">
        <ele>642.6</ele>
        <time>2022-08-29T08:12:05Z</time>
      </trkpt>
      <trkpt lat="42.4447300" lon="-2.9665600">
        <ele>642.6</ele>
        <time>2022-08-29T08:12:06Z</time>
      </trkpt>
      <trkpt lat="42.4447500" lon="-2.9666250">
        <ele>642.6</ele>
        <time>2022-08-29T08:12:07Z</time>
      </trkpt>
      <trkpt lat="42.4447680" lon="-2.9666930">
        <ele>642.6</ele>
        <time>2022-08-29T08:12:08Z</time>
      </trkpt>
      <trkpt lat="42.4447890" lon="-2.9667620">
        <ele>642.4</ele>
        <time>2022-08-29T08:12:09Z</time>
      </trkpt>
      <trkpt lat="42.4448110" lon="-2.9668330">
        <ele>642.2</ele>
        <time>2022-08-29T08:12:10Z</time>
      </trkpt>
      <trkpt lat="42.4448290" lon="-2.9669030">
        <ele>642.2</ele>
        <time>2022-08-29T08:12:11Z</time>
      </trkpt>
      <trkpt lat="42.4448480" lon="-2.9669730">
        <ele>642.0</ele>
        <time>2022-08-29T08:12:12Z</time>
      </trkpt>
      <trkpt lat="42.4448620" lon="-2.9670440">
        <ele>642.0</ele>
        <time>2022-08-29T08:12:13Z</time>
      </trkpt>
      <trkpt lat="42.4448720" lon="-2.9671160">
        <ele>641.8</ele>
        <time>2022-08-29T08:12:14Z</time>
      </trkpt>
      <trkpt lat="42.4448820" lon="-2.9671840">
        <ele>641.8</ele>
        <time>2022-08-29T08:12:15Z</time>
      </trkpt>
      <trkpt lat="42.4448950" lon="-2.9672490">
        <ele>641.8</ele>
        <time>2022-08-29T08:12:16Z</time>
      </trkpt>
      <trkpt lat="42.4449080" lon="-2.9673160">
        <ele>641.6</ele>
        <time>2022-08-29T08:12:17Z</time>
      </trkpt>
      <trkpt lat="42.4449200" lon="-2.9673870">
        <ele>641.6</ele>
        <time>2022-08-29T08:12:18Z</time>
      </trkpt>
      <trkpt lat="42.4449350" lon="-2.9674550">
        <ele>641.6</ele>
        <time>2022-08-29T08:12:19Z</time>
      </trkpt>
      <trkpt lat="42.4449530" lon="-2.9675270">
        <ele>641.6</ele>
        <time>2022-08-29T08:12:20Z</time>
      </trkpt>
      <trkpt lat="42.4449680" lon="-2.9675980">
        <ele>641.4</ele>
        <time>2022-08-29T08:12:21Z</time>
      </trkpt>
      <trkpt lat="42.4449790" lon="-2.9676750">
        <ele>641.4</ele>
        <time>2022-08-29T08:12:22Z</time>
      </trkpt>
      <trkpt lat="42.4449920" lon="-2.9677530">
        <ele>641.4</ele>
        <time>2022-08-29T08:12:23Z</time>
      </trkpt>
      <trkpt lat="42.4450080" lon="-2.9678300">
        <ele>641.4</ele>
        <time>2022-08-29T08:12:24Z</time>
      </trkpt>
      <trkpt lat="42.4450250" lon="-2.9679090">
        <ele>641.2</ele>
        <time>2022-08-29T08:12:25Z</time>
      </trkpt>
      <trkpt lat="42.4450410" lon="-2.9679890">
        <ele>641.0</ele>
        <time>2022-08-29T08:12:26Z</time>
      </trkpt>
      <trkpt lat="42.4450550" lon="-2.9680710">
        <ele>641.0</ele>
        <time>2022-08-29T08:12:27Z</time>
      </trkpt>
      <trkpt lat="42.4450700" lon="-2.9681540">
        <ele>641.0</ele>
        <time>2022-08-29T08:12:28Z</time>
      </trkpt>
      <trkpt lat="42.4450830" lon="-2.9682360">
        <ele>640.8</ele>
        <time>2022-08-29T08:12:29Z</time>
      </trkpt>
      <trkpt lat="42.4450970" lon="-2.9683170">
        <ele>640.8</ele>
        <time>2022-08-29T08:12:30Z</time>
      </trkpt>
      <trkpt lat="42.4451100" lon="-2.9683980">
        <ele>640.8</ele>
        <time>2022-08-29T08:12:31Z</time>
      </trkpt>
      <trkpt lat="42.4451220" lon="-2.9684790">
        <ele>640.8</ele>
        <time>2022-08-29T08:12:32Z</time>
      </trkpt>
      <trkpt lat="42.4451360" lon="-2.9685590">
        <ele>640.6</ele>
        <time>2022-08-29T08:12:33Z</time>
      </trkpt>
      <trkpt lat="42.4451510" lon="-2.9686390">
        <ele>640.6</ele>
        <time>2022-08-29T08:12:34Z</time>
      </trkpt>
      <trkpt lat="42.4451680" lon="-2.9687190">
        <ele>640.4</ele>
        <time>2022-08-29T08:12:35Z</time>
      </trkpt>
      <trkpt lat="42.4451840" lon="-2.9687990">
        <ele>640.4</ele>
        <time>2022-08-29T08:12:36Z</time>
      </trkpt>
      <trkpt lat="42.4452010" lon="-2.9688800">
        <ele>640.2</ele>
        <time>2022-08-29T08:12:37Z</time>
      </trkpt>
      <trkpt lat="42.4452190" lon="-2.9689620">
        <ele>640.2</ele>
        <time>2022-08-29T08:12:38Z</time>
      </trkpt>
      <trkpt lat="42.4452380" lon="-2.9690440">
        <ele>640.0</ele>
        <time>2022-08-29T08:12:39Z</time>
      </trkpt>
      <trkpt lat="42.4452580" lon="-2.9691270">
        <ele>639.8</ele>
        <time>2022-08-29T08:12:40Z</time>
      </trkpt>
      <trkpt lat="42.4452800" lon="-2.9692110">
        <ele>639.8</ele>
        <time>2022-08-29T08:12:41Z</time>
      </trkpt>
      <trkpt lat="42.4453030" lon="-2.9692960">
        <ele>639.8</ele>
        <time>2022-08-29T08:12:42Z</time>
      </trkpt>
      <trkpt lat="42.4453270" lon="-2.9693820">
        <ele>639.6</ele>
        <time>2022-08-29T08:12:43Z</time>
      </trkpt>
      <trkpt lat="42.4453490" lon="-2.9694670">
        <ele>639.6</ele>
        <time>2022-08-29T08:12:44Z</time>
      </trkpt>
      <trkpt lat="42.4453700" lon="-2.9695520">
        <ele>639.4</ele>
        <time>2022-08-29T08:12:45Z</time>
      </trkpt>
      <trkpt lat="42.4453910" lon="-2.9696350">
        <ele>639.2</ele>
        <time>2022-08-29T08:12:46Z</time>
      </trkpt>
      <trkpt lat="42.4454100" lon="-2.9697220">
        <ele>639.0</ele>
        <time>2022-08-29T08:12:47Z</time>
      </trkpt>
      <trkpt lat="42.4454270" lon="-2.9698090">
        <ele>638.8</ele>
        <time>2022-08-29T08:12:48Z</time>
      </trkpt>
      <trkpt lat="42.4454440" lon="-2.9698950">
        <ele>638.4</ele>
        <time>2022-08-29T08:12:49Z</time>
      </trkpt>
      <trkpt lat="42.4454640" lon="-2.9699800">
        <ele>638.2</ele>
        <time>2022-08-29T08:12:50Z</time>
      </trkpt>
      <trkpt lat="42.4454840" lon="-2.9700640">
        <ele>638.2</ele>
        <time>2022-08-29T08:12:51Z</time>
      </trkpt>
      <trkpt lat="42.4455030" lon="-2.9701490">
        <ele>638.0</ele>
        <time>2022-08-29T08:12:52Z</time>
      </trkpt>
      <trkpt lat="42.4455220" lon="-2.9702340">
        <ele>638.0</ele>
        <time>2022-08-29T08:12:53Z</time>
      </trkpt>
      <trkpt lat="42.4455410" lon="-2.9703160">
        <ele>638.0</ele>
        <time>2022-08-29T08:12:54Z</time>
      </trkpt>
      <trkpt lat="42.4455610" lon="-2.9703970">
        <ele>638.0</ele>
        <time>2022-08-29T08:12:55Z</time>
      </trkpt>
      <trkpt lat="42.4455810" lon="-2.9704780">
        <ele>637.8</ele>
        <time>2022-08-29T08:12:56Z</time>
      </trkpt>
      <trkpt lat="42.4456000" lon="-2.9705580">
        <ele>637.6</ele>
        <time>2022-08-29T08:12:57Z</time>
      </trkpt>
      <trkpt lat="42.4456200" lon="-2.9706380">
        <ele>637.4</ele>
        <time>2022-08-29T08:12:58Z</time>
      </trkpt>
      <trkpt lat="42.4456410" lon="-2.9707190">
        <ele>637.2</ele>
        <time>2022-08-29T08:12:59Z</time>
      </trkpt>
      <trkpt lat="42.4456620" lon="-2.9708020">
        <ele>637.0</ele>
        <time>2022-08-29T08:13:00Z</time>
      </trkpt>
      <trkpt lat="42.4456810" lon="-2.9708860">
        <ele>637.0</ele>
        <time>2022-08-29T08:13:01Z</time>
      </trkpt>
      <trkpt lat="42.4456980" lon="-2.9709720">
        <ele>636.8</ele>
        <time>2022-08-29T08:13:02Z</time>
      </trkpt>
      <trkpt lat="42.4457180" lon="-2.9710590">
        <ele>636.8</ele>
        <time>2022-08-29T08:13:03Z</time>
      </trkpt>
      <trkpt lat="42.4457380" lon="-2.9711450">
        <ele>636.6</ele>
        <time>2022-08-29T08:13:04Z</time>
      </trkpt>
      <trkpt lat="42.4457590" lon="-2.9712330">
        <ele>636.6</ele>
        <time>2022-08-29T08:13:05Z</time>
      </trkpt>
      <trkpt lat="42.4457790" lon="-2.9713200">
        <ele>636.8</ele>
        <time>2022-08-29T08:13:06Z</time>
      </trkpt>
      <trkpt lat="42.4457980" lon="-2.9714060">
        <ele>636.4</ele>
        <time>2022-08-29T08:13:07Z</time>
      </trkpt>
      <trkpt lat="42.4458160" lon="-2.9714900">
        <ele>636.2</ele>
        <time>2022-08-29T08:13:08Z</time>
      </trkpt>
      <trkpt lat="42.4458360" lon="-2.9715710">
        <ele>636.2</ele>
        <time>2022-08-29T08:13:09Z</time>
      </trkpt>
      <trkpt lat="42.4458530" lon="-2.9716500">
        <ele>636.2</ele>
        <time>2022-08-29T08:13:10Z</time>
      </trkpt>
      <trkpt lat="42.4458590" lon="-2.9717290">
        <ele>636.0</ele>
        <time>2022-08-29T08:13:11Z</time>
      </trkpt>
      <trkpt lat="42.4458410" lon="-2.9717990">
        <ele>635.8</ele>
        <time>2022-08-29T08:13:12Z</time>
      </trkpt>
      <trkpt lat="42.4458120" lon="-2.9718480">
        <ele>635.6</ele>
        <time>2022-08-29T08:13:13Z</time>
      </trkpt>
      <trkpt lat="42.4457710" lon="-2.9718790">
        <ele>635.4</ele>
        <time>2022-08-29T08:13:14Z</time>
      </trkpt>
      <trkpt lat="42.4457220" lon="-2.9718950">
        <ele>635.2</ele>
        <time>2022-08-29T08:13:15Z</time>
      </trkpt>
      <trkpt lat="42.4456670" lon="-2.9719040">
        <ele>635.2</ele>
        <time>2022-08-29T08:13:16Z</time>
      </trkpt>
      <trkpt lat="42.4456150" lon="-2.9719170">
        <ele>635.0</ele>
        <time>2022-08-29T08:13:17Z</time>
      </trkpt>
      <trkpt lat="42.4455630" lon="-2.9719220">
        <ele>635.0</ele>
        <time>2022-08-29T08:13:18Z</time>
      </trkpt>
      <trkpt lat="42.4455160" lon="-2.9719310">
        <ele>634.8</ele>
        <time>2022-08-29T08:13:19Z</time>
      </trkpt>
      <trkpt lat="42.4454770" lon="-2.9719500">
        <ele>634.8</ele>
        <time>2022-08-29T08:13:20Z</time>
      </trkpt>
      <trkpt lat="42.4454470" lon="-2.9719790">
        <ele>634.8</ele>
        <time>2022-08-29T08:13:21Z</time>
      </trkpt>
      <trkpt lat="42.4454260" lon="-2.9720160">
        <ele>634.8</ele>
        <time>2022-08-29T08:13:22Z</time>
      </trkpt>
      <trkpt lat="42.4454150" lon="-2.9720550">
        <ele>635.0</ele>
        <time>2022-08-29T08:13:23Z</time>
      </trkpt>
      <trkpt lat="42.4453970" lon="-2.9720920">
        <ele>635.0</ele>
        <time>2022-08-29T08:13:24Z</time>
      </trkpt>
      <trkpt lat="42.4453770" lon="-2.9721280">
        <ele>635.0</ele>
        <time>2022-08-29T08:13:25Z</time>
      </trkpt>
      <trkpt lat="42.4453560" lon="-2.9721670">
        <ele>635.0</ele>
        <time>2022-08-29T08:13:26Z</time>
      </trkpt>
      <trkpt lat="42.4453430" lon="-2.9722130">
        <ele>635.0</ele>
        <time>2022-08-29T08:13:27Z</time>
      </trkpt>
      <trkpt lat="42.4453400" lon="-2.9722680">
        <ele>635.2</ele>
        <time>2022-08-29T08:13:28Z</time>
      </trkpt>
      <trkpt lat="42.4453480" lon="-2.9723270">
        <ele>635.2</ele>
        <time>2022-08-29T08:13:29Z</time>
      </trkpt>
      <trkpt lat="42.4453670" lon="-2.9723900">
        <ele>635.0</ele>
        <time>2022-08-29T08:13:30Z</time>
      </trkpt>
      <trkpt lat="42.4453890" lon="-2.9724580">
        <ele>635.2</ele>
        <time>2022-08-29T08:13:31Z</time>
      </trkpt>
      <trkpt lat="42.4454100" lon="-2.9725300">
        <ele>635.2</ele>
        <time>2022-08-29T08:13:32Z</time>
      </trkpt>
      <trkpt lat="42.4454290" lon="-2.9726030">
        <ele>635.2</ele>
        <time>2022-08-29T08:13:33Z</time>
      </trkpt>
      <trkpt lat="42.4454490" lon="-2.9726750">
        <ele>635.2</ele>
        <time>2022-08-29T08:13:34Z</time>
      </trkpt>
      <trkpt lat="42.4454680" lon="-2.9727440">
        <ele>635.2</ele>
        <time>2022-08-29T08:13:35Z</time>
      </trkpt>
      <trkpt lat="42.4454880" lon="-2.9728090">
        <ele>635.2</ele>
        <time>2022-08-29T08:13:36Z</time>
      </trkpt>
      <trkpt lat="42.4455110" lon="-2.9728760">
        <ele>635.2</ele>
        <time>2022-08-29T08:13:37Z</time>
      </trkpt>
      <trkpt lat="42.4455350" lon="-2.9729420">
        <ele>635.0</ele>
        <time>2022-08-29T08:13:38Z</time>
      </trkpt>
      <trkpt lat="42.4455580" lon="-2.9730080">
        <ele>635.0</ele>
        <time>2022-08-29T08:13:39Z</time>
      </trkpt>
      <trkpt lat="42.4455820" lon="-2.9730730">
        <ele>634.8</ele>
        <time>2022-08-29T08:13:40Z</time>
      </trkpt>
      <trkpt lat="42.4456040" lon="-2.9731390">
        <ele>634.8</ele>
        <time>2022-08-29T08:13:41Z</time>
      </trkpt>
      <trkpt lat="42.4456240" lon="-2.9732060">
        <ele>634.8</ele>
        <time>2022-08-29T08:13:42Z</time>
      </trkpt>
      <trkpt lat="42.4456460" lon="-2.9732720">
        <ele>634.8</ele>
        <time>2022-08-29T08:13:43Z</time>
      </trkpt>
      <trkpt lat="42.4456700" lon="-2.9733380">
        <ele>634.6</ele>
        <time>2022-08-29T08:13:44Z</time>
      </trkpt>
      <trkpt lat="42.4456950" lon="-2.9734040">
        <ele>634.6</ele>
        <time>2022-08-29T08:13:45Z</time>
      </trkpt>
      <trkpt lat="42.4457180" lon="-2.9734670">
        <ele>634.6</ele>
        <time>2022-08-29T08:13:46Z</time>
      </trkpt>
      <trkpt lat="42.4457370" lon="-2.9735350">
        <ele>634.8</ele>
        <time>2022-08-29T08:13:47Z</time>
      </trkpt>
      <trkpt lat="42.4457560" lon="-2.9736020">
        <ele>634.6</ele>
        <time>2022-08-29T08:13:48Z</time>
      </trkpt>
      <trkpt lat="42.4457760" lon="-2.9736680">
        <ele>634.8</ele>
        <time>2022-08-29T08:13:49Z</time>
      </trkpt>
      <trkpt lat="42.4457970" lon="-2.9737350">
        <ele>634.6</ele>
        <time>2022-08-29T08:13:50Z</time>
      </trkpt>
      <trkpt lat="42.4458180" lon="-2.9738010">
        <ele>634.8</ele>
        <time>2022-08-29T08:13:51Z</time>
      </trkpt>
      <trkpt lat="42.4458380" lon="-2.9738680">
        <ele>634.6</ele>
        <time>2022-08-29T08:13:52Z</time>
      </trkpt>
      <trkpt lat="42.4458590" lon="-2.9739340">
        <ele>634.6</ele>
        <time>2022-08-29T08:13:53Z</time>
      </trkpt>
      <trkpt lat="42.4458820" lon="-2.9740000">
        <ele>634.8</ele>
        <time>2022-08-29T08:13:54Z</time>
      </trkpt>
      <trkpt lat="42.4459040" lon="-2.9740660">
        <ele>634.8</ele>
        <time>2022-08-29T08:13:55Z</time>
      </trkpt>
      <trkpt lat="42.4459260" lon="-2.9741330">
        <ele>634.8</ele>
        <time>2022-08-29T08:13:56Z</time>
      </trkpt>
      <trkpt lat="42.4459460" lon="-2.9742020">
        <ele>634.8</ele>
        <time>2022-08-29T08:13:57Z</time>
      </trkpt>
      <trkpt lat="42.4459660" lon="-2.9742710">
        <ele>634.8</ele>
        <time>2022-08-29T08:13:58Z</time>
      </trkpt>
      <trkpt lat="42.4459870" lon="-2.9743420">
        <ele>634.6</ele>
        <time>2022-08-29T08:13:59Z</time>
      </trkpt>
      <trkpt lat="42.4460100" lon="-2.9744100">
        <ele>634.8</ele>
        <time>2022-08-29T08:14:00Z</time>
      </trkpt>
      <trkpt lat="42.4460330" lon="-2.9744780">
        <ele>634.8</ele>
        <time>2022-08-29T08:14:01Z</time>
      </trkpt>
      <trkpt lat="42.4460570" lon="-2.9745450">
        <ele>634.8</ele>
        <time>2022-08-29T08:14:02Z</time>
      </trkpt>
      <trkpt lat="42.4460800" lon="-2.9746140">
        <ele>634.8</ele>
        <time>2022-08-29T08:14:03Z</time>
      </trkpt>
      <trkpt lat="42.4461030" lon="-2.9746830">
        <ele>634.8</ele>
        <time>2022-08-29T08:14:04Z</time>
      </trkpt>
      <trkpt lat="42.4461250" lon="-2.9747520">
        <ele>634.8</ele>
        <time>2022-08-29T08:14:05Z</time>
      </trkpt>
      <trkpt lat="42.4461480" lon="-2.9748170">
        <ele>634.8</ele>
        <time>2022-08-29T08:14:06Z</time>
      </trkpt>
      <trkpt lat="42.4461720" lon="-2.9748800">
        <ele>635.0</ele>
        <time>2022-08-29T08:14:07Z</time>
      </trkpt>
      <trkpt lat="42.4461940" lon="-2.9749410">
        <ele>634.8</ele>
        <time>2022-08-29T08:14:08Z</time>
      </trkpt>
      <trkpt lat="42.4462130" lon="-2.9750020">
        <ele>635.0</ele>
        <time>2022-08-29T08:14:09Z</time>
      </trkpt>
      <trkpt lat="42.4462340" lon="-2.9750630">
        <ele>635.0</ele>
        <time>2022-08-29T08:14:10Z</time>
      </trkpt>
      <trkpt lat="42.4462550" lon="-2.9751250">
        <ele>635.0</ele>
        <time>2022-08-29T08:14:11Z</time>
      </trkpt>
      <trkpt lat="42.4462770" lon="-2.9751870">
        <ele>634.8</ele>
        <time>2022-08-29T08:14:12Z</time>
      </trkpt>
      <trkpt lat="42.4462970" lon="-2.9752500">
        <ele>635.0</ele>
        <time>2022-08-29T08:14:13Z</time>
      </trkpt>
      <trkpt lat="42.4463160" lon="-2.9753160">
        <ele>635.0</ele>
        <time>2022-08-29T08:14:14Z</time>
      </trkpt>
      <trkpt lat="42.4463330" lon="-2.9753830">
        <ele>635.2</ele>
        <time>2022-08-29T08:14:15Z</time>
      </trkpt>
      <trkpt lat="42.4463530" lon="-2.9754480">
        <ele>635.2</ele>
        <time>2022-08-29T08:14:16Z</time>
      </trkpt>
      <trkpt lat="42.4463730" lon="-2.9755140">
        <ele>635.2</ele>
        <time>2022-08-29T08:14:17Z</time>
      </trkpt>
      <trkpt lat="42.4463920" lon="-2.9755820">
        <ele>635.4</ele>
        <time>2022-08-29T08:14:18Z</time>
      </trkpt>
      <trkpt lat="42.4464110" lon="-2.9756520">
        <ele>635.4</ele>
        <time>2022-08-29T08:14:19Z</time>
      </trkpt>
      <trkpt lat="42.4464290" lon="-2.9757220">
        <ele>635.6</ele>
        <time>2022-08-29T08:14:20Z</time>
      </trkpt>
      <trkpt lat="42.4464540" lon="-2.9757890">
        <ele>635.6</ele>
        <time>2022-08-29T08:14:21Z</time>
      </trkpt>
      <trkpt lat="42.4464820" lon="-2.9758520">
        <ele>635.6</ele>
        <time>2022-08-29T08:14:22Z</time>
      </trkpt>
      <trkpt lat="42.4465070" lon="-2.9759180">
        <ele>635.6</ele>
        <time>2022-08-29T08:14:23Z</time>
      </trkpt>
      <trkpt lat="42.4465300" lon="-2.9759860">
        <ele>635.6</ele>
        <time>2022-08-29T08:14:24Z</time>
      </trkpt>
      <trkpt lat="42.4465520" lon="-2.9760560">
        <ele>635.6</ele>
        <time>2022-08-29T08:14:25Z</time>
      </trkpt>
      <trkpt lat="42.4465710" lon="-2.9761250">
        <ele>635.6</ele>
        <time>2022-08-29T08:14:26Z</time>
      </trkpt>
      <trkpt lat="42.4465910" lon="-2.9761950">
        <ele>635.6</ele>
        <time>2022-08-29T08:14:27Z</time>
      </trkpt>
      <trkpt lat="42.4466090" lon="-2.9762670">
        <ele>635.8</ele>
        <time>2022-08-29T08:14:28Z</time>
      </trkpt>
      <trkpt lat="42.4466260" lon="-2.9763380">
        <ele>635.8</ele>
        <time>2022-08-29T08:14:29Z</time>
      </trkpt>
      <trkpt lat="42.4466450" lon="-2.9764080">
        <ele>635.6</ele>
        <time>2022-08-29T08:14:30Z</time>
      </trkpt>
      <trkpt lat="42.4466700" lon="-2.9764740">
        <ele>635.8</ele>
        <time>2022-08-29T08:14:31Z</time>
      </trkpt>
      <trkpt lat="42.4466960" lon="-2.9765390">
        <ele>635.8</ele>
        <time>2022-08-29T08:14:32Z</time>
      </trkpt>
      <trkpt lat="42.4467220" lon="-2.9766040">
        <ele>635.8</ele>
        <time>2022-08-29T08:14:33Z</time>
      </trkpt>
      <trkpt lat="42.4467470" lon="-2.9766670">
        <ele>635.8</ele>
        <time>2022-08-29T08:14:34Z</time>
      </trkpt>
      <trkpt lat="42.4467700" lon="-2.9767310">
        <ele>635.8</ele>
        <time>2022-08-29T08:14:35Z</time>
      </trkpt>
      <trkpt lat="42.4467920" lon="-2.9767960">
        <ele>636.0</ele>
        <time>2022-08-29T08:14:36Z</time>
      </trkpt>
      <trkpt lat="42.4468120" lon="-2.9768590">
        <ele>635.8</ele>
        <time>2022-08-29T08:14:37Z</time>
      </trkpt>
      <trkpt lat="42.4468310" lon="-2.9769220">
        <ele>636.0</ele>
        <time>2022-08-29T08:14:38Z</time>
      </trkpt>
      <trkpt lat="42.4468510" lon="-2.9769830">
        <ele>636.2</ele>
        <time>2022-08-29T08:14:39Z</time>
      </trkpt>
      <trkpt lat="42.4468690" lon="-2.9770450">
        <ele>636.0</ele>
        <time>2022-08-29T08:14:40Z</time>
      </trkpt>
      <trkpt lat="42.4468890" lon="-2.9771050">
        <ele>636.0</ele>
        <time>2022-08-29T08:14:41Z</time>
      </trkpt>
      <trkpt lat="42.4469080" lon="-2.9771650">
        <ele>636.2</ele>
        <time>2022-08-29T08:14:42Z</time>
      </trkpt>
      <trkpt lat="42.4469280" lon="-2.9772260">
        <ele>636.2</ele>
        <time>2022-08-29T08:14:43Z</time>
      </trkpt>
      <trkpt lat="42.4469470" lon="-2.9772870">
        <ele>636.2</ele>
        <time>2022-08-29T08:14:44Z</time>
      </trkpt>
      <trkpt lat="42.4469670" lon="-2.9773500">
        <ele>636.2</ele>
        <time>2022-08-29T08:14:45Z</time>
      </trkpt>
      <trkpt lat="42.4469880" lon="-2.9774150">
        <ele>636.4</ele>
        <time>2022-08-29T08:14:46Z</time>
      </trkpt>
      <trkpt lat="42.4470070" lon="-2.9774860">
        <ele>636.6</ele>
        <time>2022-08-29T08:14:47Z</time>
      </trkpt>
      <trkpt lat="42.4470240" lon="-2.9775600">
        <ele>636.6</ele>
        <time>2022-08-29T08:14:48Z</time>
      </trkpt>
      <trkpt lat="42.4470410" lon="-2.9776350">
        <ele>636.6</ele>
        <time>2022-08-29T08:14:49Z</time>
      </trkpt>
      <trkpt lat="42.4470590" lon="-2.9777060">
        <ele>636.6</ele>
        <time>2022-08-29T08:14:50Z</time>
      </trkpt>
      <trkpt lat="42.4470810" lon="-2.9777730">
        <ele>636.8</ele>
        <time>2022-08-29T08:14:51Z</time>
      </trkpt>
      <trkpt lat="42.4471010" lon="-2.9778350">
        <ele>636.8</ele>
        <time>2022-08-29T08:14:52Z</time>
      </trkpt>
      <trkpt lat="42.4471200" lon="-2.9778960">
        <ele>636.8</ele>
        <time>2022-08-29T08:14:53Z</time>
      </trkpt>
      <trkpt lat="42.4471380" lon="-2.9779570">
        <ele>636.8</ele>
        <time>2022-08-29T08:14:54Z</time>
      </trkpt>
      <trkpt lat="42.4471550" lon="-2.9780170">
        <ele>637.0</ele>
        <time>2022-08-29T08:14:55Z</time>
      </trkpt>
      <trkpt lat="42.4471710" lon="-2.9780770">
        <ele>637.0</ele>
        <time>2022-08-29T08:14:56Z</time>
      </trkpt>
      <trkpt lat="42.4471880" lon="-2.9781360">
        <ele>637.2</ele>
        <time>2022-08-29T08:14:57Z</time>
      </trkpt>
      <trkpt lat="42.4472060" lon="-2.9781930">
        <ele>637.2</ele>
        <time>2022-08-29T08:14:58Z</time>
      </trkpt>
      <trkpt lat="42.4472240" lon="-2.9782530">
        <ele>637.2</ele>
        <time>2022-08-29T08:14:59Z</time>
      </trkpt>
      <trkpt lat="42.4472380" lon="-2.9783150">
        <ele>637.4</ele>
        <time>2022-08-29T08:15:00Z</time>
      </trkpt>
      <trkpt lat="42.4472510" lon="-2.9783740">
        <ele>637.4</ele>
        <time>2022-08-29T08:15:01Z</time>
      </trkpt>
      <trkpt lat="42.4472650" lon="-2.9784280">
        <ele>637.4</ele>
        <time>2022-08-29T08:15:02Z</time>
      </trkpt>
      <trkpt lat="42.4472780" lon="-2.9784780">
        <ele>637.4</ele>
        <time>2022-08-29T08:15:03Z</time>
      </trkpt>
      <trkpt lat="42.4472910" lon="-2.9785260">
        <ele>637.4</ele>
        <time>2022-08-29T08:15:04Z</time>
      </trkpt>
      <trkpt lat="42.4473040" lon="-2.9785750">
        <ele>637.4</ele>
        <time>2022-08-29T08:15:05Z</time>
      </trkpt>
      <trkpt lat="42.4473150" lon="-2.9786250">
        <ele>637.4</ele>
        <time>2022-08-29T08:15:06Z</time>
      </trkpt>
      <trkpt lat="42.4473260" lon="-2.9786790">
        <ele>637.4</ele>
        <time>2022-08-29T08:15:07Z</time>
      </trkpt>
      <trkpt lat="42.4473370" lon="-2.9787290">
        <ele>637.4</ele>
        <time>2022-08-29T08:15:08Z</time>
      </trkpt>
      <trkpt lat="42.4473510" lon="-2.9787810">
        <ele>637.6</ele>
        <time>2022-08-29T08:15:09Z</time>
      </trkpt>
      <trkpt lat="42.4473690" lon="-2.9788330">
        <ele>637.6</ele>
        <time>2022-08-29T08:15:10Z</time>
      </trkpt>
      <trkpt lat="42.4473850" lon="-2.9788860">
        <ele>637.8</ele>
        <time>2022-08-29T08:15:11Z</time>
      </trkpt>
      <trkpt lat="42.4473970" lon="-2.9789420">
        <ele>637.8</ele>
        <time>2022-08-29T08:15:12Z</time>
      </trkpt>
      <trkpt lat="42.4474090" lon="-2.9789970">
        <ele>637.8</ele>
        <time>2022-08-29T08:15:13Z</time>
      </trkpt>
      <trkpt lat="42.4474220" lon="-2.9790520">
        <ele>638.0</ele>
        <time>2022-08-29T08:15:14Z</time>
      </trkpt>
      <trkpt lat="42.4474340" lon="-2.9791080">
        <ele>638.0</ele>
        <time>2022-08-29T08:15:15Z</time>
      </trkpt>
      <trkpt lat="42.4474470" lon="-2.9791650">
        <ele>638.0</ele>
        <time>2022-08-29T08:15:16Z</time>
      </trkpt>
      <trkpt lat="42.4474590" lon="-2.9792220">
        <ele>638.2</ele>
        <time>2022-08-29T08:15:17Z</time>
      </trkpt>
      <trkpt lat="42.4474710" lon="-2.9792790">
        <ele>638.2</ele>
        <time>2022-08-29T08:15:18Z</time>
      </trkpt>
      <trkpt lat="42.4474860" lon="-2.9793350">
        <ele>638.4</ele>
        <time>2022-08-29T08:15:19Z</time>
      </trkpt>
      <trkpt lat="42.4475020" lon="-2.9793930">
        <ele>638.4</ele>
        <time>2022-08-29T08:15:20Z</time>
      </trkpt>
      <trkpt lat="42.4475180" lon="-2.9794510">
        <ele>638.4</ele>
        <time>2022-08-29T08:15:21Z</time>
      </trkpt>
      <trkpt lat="42.4475340" lon="-2.9795110">
        <ele>638.4</ele>
        <time>2022-08-29T08:15:22Z</time>
      </trkpt>
      <trkpt lat="42.4475470" lon="-2.9795680">
        <ele>638.4</ele>
        <time>2022-08-29T08:15:23Z</time>
      </trkpt>
      <trkpt lat="42.4475610" lon="-2.9796220">
        <ele>638.6</ele>
        <time>2022-08-29T08:15:24Z</time>
      </trkpt>
      <trkpt lat="42.4475740" lon="-2.9796730">
        <ele>638.4</ele>
        <time>2022-08-29T08:15:25Z</time>
      </trkpt>
      <trkpt lat="42.4475850" lon="-2.9797200">
        <ele>638.6</ele>
        <time>2022-08-29T08:15:26Z</time>
      </trkpt>
      <trkpt lat="42.4475960" lon="-2.9797620">
        <ele>638.6</ele>
        <time>2022-08-29T08:15:27Z</time>
      </trkpt>
      <trkpt lat="42.4476040" lon="-2.9798020">
        <ele>638.6</ele>
        <time>2022-08-29T08:15:28Z</time>
      </trkpt>
      <trkpt lat="42.4476100" lon="-2.9798380">
        <ele>638.6</ele>
        <time>2022-08-29T08:15:29Z</time>
      </trkpt>
      <trkpt lat="42.4476170" lon="-2.9798710">
        <ele>638.6</ele>
        <time>2022-08-29T08:15:30Z</time>
      </trkpt>
      <trkpt lat="42.4476240" lon="-2.9799050">
        <ele>638.6</ele>
        <time>2022-08-29T08:15:31Z</time>
      </trkpt>
      <trkpt lat="42.4476330" lon="-2.9799420">
        <ele>639.0</ele>
        <time>2022-08-29T08:15:32Z</time>
      </trkpt>
      <trkpt lat="42.4476420" lon="-2.9799800">
        <ele>639.0</ele>
        <time>2022-08-29T08:15:33Z</time>
      </trkpt>
      <trkpt lat="42.4476520" lon="-2.9800180">
        <ele>638.8</ele>
        <time>2022-08-29T08:15:34Z</time>
      </trkpt>
      <trkpt lat="42.4476600" lon="-2.9800550">
        <ele>639.0</ele>
        <time>2022-08-29T08:15:35Z</time>
      </trkpt>
      <trkpt lat="42.4476700" lon="-2.9800920">
        <ele>639.2</ele>
        <time>2022-08-29T08:15:36Z</time>
      </trkpt>
      <trkpt lat="42.4476860" lon="-2.9801250">
        <ele>639.6</ele>
        <time>2022-08-29T08:15:37Z</time>
      </trkpt>
      <trkpt lat="42.4477090" lon="-2.9801540">
        <ele>639.6</ele>
        <time>2022-08-29T08:15:38Z</time>
      </trkpt>
      <trkpt lat="42.4477350" lon="-2.9801860">
        <ele>639.6</ele>
        <time>2022-08-29T08:15:39Z</time>
      </trkpt>
      <trkpt lat="42.4477610" lon="-2.9802160">
        <ele>639.6</ele>
        <time>2022-08-29T08:15:40Z</time>
      </trkpt>
      <trkpt lat="42.4477850" lon="-2.9802470">
        <ele>639.8</ele>
        <time>2022-08-29T08:15:41Z</time>
      </trkpt>
      <trkpt lat="42.4478060" lon="-2.9802840">
        <ele>639.8</ele>
        <time>2022-08-29T08:15:42Z</time>
      </trkpt>
      <trkpt lat="42.4478240" lon="-2.9803250">
        <ele>639.8</ele>
        <time>2022-08-29T08:15:43Z</time>
      </trkpt>
      <trkpt lat="42.4478410" lon="-2.9803690">
        <ele>639.6</ele>
        <time>2022-08-29T08:15:44Z</time>
      </trkpt>
      <trkpt lat="42.4478550" lon="-2.9804140">
        <ele>639.8</ele>
        <time>2022-08-29T08:15:45Z</time>
      </trkpt>
      <trkpt lat="42.4478680" lon="-2.9804600">
        <ele>639.8</ele>
        <time>2022-08-29T08:15:46Z</time>
      </trkpt>
      <trkpt lat="42.4478810" lon="-2.9805040">
        <ele>639.8</ele>
        <time>2022-08-29T08:15:47Z</time>
      </trkpt>
      <trkpt lat="42.4478950" lon="-2.9805460">
        <ele>640.0</ele>
        <time>2022-08-29T08:15:48Z</time>
      </trkpt>
      <trkpt lat="42.4479070" lon="-2.9805880">
        <ele>639.8</ele>
        <time>2022-08-29T08:15:49Z</time>
      </trkpt>
      <trkpt lat="42.4479180" lon="-2.9806310">
        <ele>640.0</ele>
        <time>2022-08-29T08:15:50Z</time>
      </trkpt>
      <trkpt lat="42.4479280" lon="-2.9806730">
        <ele>640.2</ele>
        <time>2022-08-29T08:15:51Z</time>
      </trkpt>
      <trkpt lat="42.4479370" lon="-2.9807160">
        <ele>640.2</ele>
        <time>2022-08-29T08:15:52Z</time>
      </trkpt>
      <trkpt lat="42.4479450" lon="-2.9807600">
        <ele>640.0</ele>
        <time>2022-08-29T08:15:53Z</time>
      </trkpt>
      <trkpt lat="42.4479540" lon="-2.9808050">
        <ele>640.0</ele>
        <time>2022-08-29T08:15:54Z</time>
      </trkpt>
      <trkpt lat="42.4479660" lon="-2.9808500">
        <ele>640.0</ele>
        <time>2022-08-29T08:15:55Z</time>
      </trkpt>
      <trkpt lat="42.4479770" lon="-2.9808960">
        <ele>640.0</ele>
        <time>2022-08-29T08:15:56Z</time>
      </trkpt>
      <trkpt lat="42.4479860" lon="-2.9809390">
        <ele>640.2</ele>
        <time>2022-08-29T08:15:57Z</time>
      </trkpt>
      <trkpt lat="42.4479950" lon="-2.9809820">
        <ele>640.4</ele>
        <time>2022-08-29T08:15:58Z</time>
      </trkpt>
      <trkpt lat="42.4480040" lon="-2.9810250">
        <ele>640.4</ele>
        <time>2022-08-29T08:15:59Z</time>
      </trkpt>
      <trkpt lat="42.4480100" lon="-2.9810700">
        <ele>640.4</ele>
        <time>2022-08-29T08:16:00Z</time>
      </trkpt>
      <trkpt lat="42.4480140" lon="-2.9811160">
        <ele>640.4</ele>
        <time>2022-08-29T08:16:01Z</time>
      </trkpt>
      <trkpt lat="42.4480180" lon="-2.9811620">
        <ele>640.6</ele>
        <time>2022-08-29T08:16:02Z</time>
      </trkpt>
      <trkpt lat="42.4480220" lon="-2.9812110">
        <ele>640.6</ele>
        <time>2022-08-29T08:16:03Z</time>
      </trkpt>
      <trkpt lat="42.4480250" lon="-2.9812630">
        <ele>641.0</ele>
        <time>2022-08-29T08:16:04Z</time>
      </trkpt>
      <trkpt lat="42.4480280" lon="-2.9813170">
        <ele>641.0</ele>
        <time>2022-08-29T08:16:05Z</time>
      </trkpt>
      <trkpt lat="42.4480320" lon="-2.9813730">
        <ele>641.2</ele>
        <time>2022-08-29T08:16:06Z</time>
      </trkpt>
      <trkpt lat="42.4480360" lon="-2.9814300">
        <ele>641.2</ele>
        <time>2022-08-29T08:16:07Z</time>
      </trkpt>
      <trkpt lat="42.4480420" lon="-2.9814880">
        <ele>641.2</ele>
        <time>2022-08-29T08:16:08Z</time>
      </trkpt>
      <trkpt lat="42.4480520" lon="-2.9815450">
        <ele>641.4</ele>
        <time>2022-08-29T08:16:09Z</time>
      </trkpt>
      <trkpt lat="42.4480640" lon="-2.9816000">
        <ele>641.4</ele>
        <time>2022-08-29T08:16:10Z</time>
      </trkpt>
      <trkpt lat="42.4480760" lon="-2.9816550">
        <ele>641.4</ele>
        <time>2022-08-29T08:16:11Z</time>
      </trkpt>
      <trkpt lat="42.4480870" lon="-2.9817090">
        <ele>641.4</ele>
        <time>2022-08-29T08:16:12Z</time>
      </trkpt>
      <trkpt lat="42.4480970" lon="-2.9817630">
        <ele>641.4</ele>
        <time>2022-08-29T08:16:13Z</time>
      </trkpt>
      <trkpt lat="42.4481090" lon="-2.9818170">
        <ele>641.4</ele>
        <time>2022-08-29T08:16:14Z</time>
      </trkpt>
      <trkpt lat="42.4481220" lon="-2.9818700">
        <ele>641.4</ele>
        <time>2022-08-29T08:16:15Z</time>
      </trkpt>
      <trkpt lat="42.4481360" lon="-2.9819250">
        <ele>641.6</ele>
        <time>2022-08-29T08:16:16Z</time>
      </trkpt>
      <trkpt lat="42.4481510" lon="-2.9819800">
        <ele>641.6</ele>
        <time>2022-08-29T08:16:17Z</time>
      </trkpt>
      <trkpt lat="42.4481640" lon="-2.9820360">
        <ele>641.6</ele>
        <time>2022-08-29T08:16:18Z</time>
      </trkpt>
      <trkpt lat="42.4481750" lon="-2.9820920">
        <ele>641.6</ele>
        <time>2022-08-29T08:16:19Z</time>
      </trkpt>
      <trkpt lat="42.4481870" lon="-2.9821470">
        <ele>641.6</ele>
        <time>2022-08-29T08:16:20Z</time>
      </trkpt>
      <trkpt lat="42.4482000" lon="-2.9822000">
        <ele>641.6</ele>
        <time>2022-08-29T08:16:21Z</time>
      </trkpt>
      <trkpt lat="42.4482150" lon="-2.9822500">
        <ele>641.6</ele>
        <time>2022-08-29T08:16:22Z</time>
      </trkpt>
      <trkpt lat="42.4482300" lon="-2.9823000">
        <ele>641.8</ele>
        <time>2022-08-29T08:16:23Z</time>
      </trkpt>
      <trkpt lat="42.4482430" lon="-2.9823490">
        <ele>642.2</ele>
        <time>2022-08-29T08:16:24Z</time>
      </trkpt>
      <trkpt lat="42.4482530" lon="-2.9824000">
        <ele>642.0</ele>
        <time>2022-08-29T08:16:25Z</time>
      </trkpt>
      <trkpt lat="42.4482640" lon="-2.9824500">
        <ele>642.2</ele>
        <time>2022-08-29T08:16:26Z</time>
      </trkpt>
      <trkpt lat="42.4482770" lon="-2.9825020">
        <ele>642.2</ele>
        <time>2022-08-29T08:16:27Z</time>
      </trkpt>
      <trkpt lat="42.4482890" lon="-2.9825510">
        <ele>642.6</ele>
        <time>2022-08-29T08:16:28Z</time>
      </trkpt>
      <trkpt lat="42.4483010" lon="-2.9825990">
        <ele>642.6</ele>
        <time>2022-08-29T08:16:29Z</time>
      </trkpt>
      <trkpt lat="42.4483120" lon="-2.9826480">
        <ele>642.6</ele>
        <time>2022-08-29T08:16:30Z</time>
      </trkpt>
      <trkpt lat="42.4483220" lon="-2.9826970">
        <ele>642.8</ele>
        <time>2022-08-29T08:16:31Z</time>
      </trkpt>
      <trkpt lat="42.4483350" lon="-2.9827450">
        <ele>642.8</ele>
        <time>2022-08-29T08:16:32Z</time>
      </trkpt>
      <trkpt lat="42.4483480" lon="-2.9827900">
        <ele>642.6</ele>
        <time>2022-08-29T08:16:33Z</time>
      </trkpt>
      <trkpt lat="42.4483610" lon="-2.9828330">
        <ele>642.8</ele>
        <time>2022-08-29T08:16:34Z</time>
      </trkpt>
      <trkpt lat="42.4483730" lon="-2.9828740">
        <ele>642.8</ele>
        <time>2022-08-29T08:16:35Z</time>
      </trkpt>
      <trkpt lat="42.4483850" lon="-2.9829180">
        <ele>642.8</ele>
        <time>2022-08-29T08:16:36Z</time>
      </trkpt>
      <trkpt lat="42.4483970" lon="-2.9829650">
        <ele>643.0</ele>
        <time>2022-08-29T08:16:37Z</time>
      </trkpt>
      <trkpt lat="42.4484090" lon="-2.9830120">
        <ele>643.0</ele>
        <time>2022-08-29T08:16:38Z</time>
      </trkpt>
      <trkpt lat="42.4484210" lon="-2.9830580">
        <ele>643.2</ele>
        <time>2022-08-29T08:16:39Z</time>
      </trkpt>
      <trkpt lat="42.4484320" lon="-2.9831060">
        <ele>643.2</ele>
        <time>2022-08-29T08:16:40Z</time>
      </trkpt>
      <trkpt lat="42.4484420" lon="-2.9831550">
        <ele>643.2</ele>
        <time>2022-08-29T08:16:41Z</time>
      </trkpt>
      <trkpt lat="42.4484540" lon="-2.9832040">
        <ele>643.2</ele>
        <time>2022-08-29T08:16:42Z</time>
      </trkpt>
      <trkpt lat="42.4484680" lon="-2.9832530">
        <ele>643.4</ele>
        <time>2022-08-29T08:16:43Z</time>
      </trkpt>
      <trkpt lat="42.4484810" lon="-2.9833020">
        <ele>643.4</ele>
        <time>2022-08-29T08:16:44Z</time>
      </trkpt>
      <trkpt lat="42.4484940" lon="-2.9833510">
        <ele>643.6</ele>
        <time>2022-08-29T08:16:45Z</time>
      </trkpt>
      <trkpt lat="42.4485060" lon="-2.9834000">
        <ele>643.4</ele>
        <time>2022-08-29T08:16:46Z</time>
      </trkpt>
      <trkpt lat="42.4485180" lon="-2.9834480">
        <ele>643.6</ele>
        <time>2022-08-29T08:16:47Z</time>
      </trkpt>
      <trkpt lat="42.4485320" lon="-2.9834960">
        <ele>643.6</ele>
        <time>2022-08-29T08:16:48Z</time>
      </trkpt>
      <trkpt lat="42.4485450" lon="-2.9835450">
        <ele>643.8</ele>
        <time>2022-08-29T08:16:49Z</time>
      </trkpt>
      <trkpt lat="42.4485590" lon="-2.9835930">
        <ele>643.6</ele>
        <time>2022-08-29T08:16:50Z</time>
      </trkpt>
      <trkpt lat="42.4485720" lon="-2.9836410">
        <ele>643.8</ele>
        <time>2022-08-29T08:16:51Z</time>
      </trkpt>
      <trkpt lat="42.4485860" lon="-2.9836870">
        <ele>643.8</ele>
        <time>2022-08-29T08:16:52Z</time>
      </trkpt>
      <trkpt lat="42.4485990" lon="-2.9837320">
        <ele>643.8</ele>
        <time>2022-08-29T08:16:53Z</time>
      </trkpt>
      <trkpt lat="42.4486120" lon="-2.9837770">
        <ele>643.8</ele>
        <time>2022-08-29T08:16:54Z</time>
      </trkpt>
      <trkpt lat="42.4486270" lon="-2.9838240">
        <ele>644.0</ele>
        <time>2022-08-29T08:16:55Z</time>
      </trkpt>
      <trkpt lat="42.4486420" lon="-2.9838710">
        <ele>644.0</ele>
        <time>2022-08-29T08:16:56Z</time>
      </trkpt>
      <trkpt lat="42.4486570" lon="-2.9839170">
        <ele>644.0</ele>
        <time>2022-08-29T08:16:57Z</time>
      </trkpt>
      <trkpt lat="42.4486700" lon="-2.9839640">
        <ele>644.2</ele>
        <time>2022-08-29T08:16:58Z</time>
      </trkpt>
      <trkpt lat="42.4486860" lon="-2.9840110">
        <ele>644.2</ele>
        <time>2022-08-29T08:16:59Z</time>
      </trkpt>
      <trkpt lat="42.4487010" lon="-2.9840590">
        <ele>644.2</ele>
        <time>2022-08-29T08:17:00Z</time>
      </trkpt>
      <trkpt lat="42.4487160" lon="-2.9841060">
        <ele>644.2</ele>
        <time>2022-08-29T08:17:01Z</time>
      </trkpt>
      <trkpt lat="42.4487310" lon="-2.9841530">
        <ele>644.4</ele>
        <time>2022-08-29T08:17:02Z</time>
      </trkpt>
      <trkpt lat="42.4487470" lon="-2.9842010">
        <ele>644.6</ele>
        <time>2022-08-29T08:17:03Z</time>
      </trkpt>
      <trkpt lat="42.4487610" lon="-2.9842510">
        <ele>644.6</ele>
        <time>2022-08-29T08:17:04Z</time>
      </trkpt>
      <trkpt lat="42.4487750" lon="-2.9843010">
        <ele>644.8</ele>
        <time>2022-08-29T08:17:05Z</time>
      </trkpt>
      <trkpt lat="42.4487910" lon="-2.9843520">
        <ele>645.0</ele>
        <time>2022-08-29T08:17:06Z</time>
      </trkpt>
      <trkpt lat="42.4488080" lon="-2.9844020">
        <ele>645.0</ele>
        <time>2022-08-29T08:17:07Z</time>
      </trkpt>
      <trkpt lat="42.4488240" lon="-2.9844520">
        <ele>645.2</ele>
        <time>2022-08-29T08:17:08Z</time>
      </trkpt>
      <trkpt lat="42.4488410" lon="-2.9845020">
        <ele>645.4</ele>
        <time>2022-08-29T08:17:09Z</time>
      </trkpt>
      <trkpt lat="42.4488570" lon="-2.9845530">
        <ele>645.2</ele>
        <time>2022-08-29T08:17:10Z</time>
      </trkpt>
      <trkpt lat="42.4488730" lon="-2.9846030">
        <ele>645.4</ele>
        <time>2022-08-29T08:17:11Z</time>
      </trkpt>
      <trkpt lat="42.4488890" lon="-2.9846540">
        <ele>645.4</ele>
        <time>2022-08-29T08:17:12Z</time>
      </trkpt>
      <trkpt lat="42.4489050" lon="-2.9847050">
        <ele>645.6</ele>
        <time>2022-08-29T08:17:13Z</time>
      </trkpt>
      <trkpt lat="42.4489230" lon="-2.9847520">
        <ele>645.6</ele>
        <time>2022-08-29T08:17:14Z</time>
      </trkpt>
      <trkpt lat="42.4489400" lon="-2.9847990">
        <ele>645.8</ele>
        <time>2022-08-29T08:17:15Z</time>
      </trkpt>
      <trkpt lat="42.4489590" lon="-2.9848480">
        <ele>645.8</ele>
        <time>2022-08-29T08:17:16Z</time>
      </trkpt>
      <trkpt lat="42.4489760" lon="-2.9848970">
        <ele>646.0</ele>
        <time>2022-08-29T08:17:17Z</time>
      </trkpt>
      <trkpt lat="42.4489950" lon="-2.9849470">
        <ele>646.0</ele>
        <time>2022-08-29T08:17:18Z</time>
      </trkpt>
      <trkpt lat="42.4490120" lon="-2.9849970">
        <ele>646.0</ele>
        <time>2022-08-29T08:17:19Z</time>
      </trkpt>
      <trkpt lat="42.4490300" lon="-2.9850460">
        <ele>646.0</ele>
        <time>2022-08-29T08:17:20Z</time>
      </trkpt>
      <trkpt lat="42.4490460" lon="-2.9850940">
        <ele>646.2</ele>
        <time>2022-08-29T08:17:21Z</time>
      </trkpt>
      <trkpt lat="42.4490630" lon="-2.9851430">
        <ele>646.2</ele>
        <time>2022-08-29T08:17:22Z</time>
      </trkpt>
      <trkpt lat="42.4490780" lon="-2.9851920">
        <ele>646.2</ele>
        <time>2022-08-29T08:17:23Z</time>
      </trkpt>
      <trkpt lat="42.4490950" lon="-2.9852400">
        <ele>646.4</ele>
        <time>2022-08-29T08:17:24Z</time>
      </trkpt>
      <trkpt lat="42.4491120" lon="-2.9852890">
        <ele>646.4</ele>
        <time>2022-08-29T08:17:25Z</time>
      </trkpt>
      <trkpt lat="42.4491300" lon="-2.9853370">
        <ele>646.4</ele>
        <time>2022-08-29T08:17:26Z</time>
      </trkpt>
      <trkpt lat="42.4491450" lon="-2.9853870">
        <ele>646.4</ele>
        <time>2022-08-29T08:17:27Z</time>
      </trkpt>
      <trkpt lat="42.4491600" lon="-2.9854370">
        <ele>646.4</ele>
        <time>2022-08-29T08:17:28Z</time>
      </trkpt>
      <trkpt lat="42.4491740" lon="-2.9854870">
        <ele>646.6</ele>
        <time>2022-08-29T08:17:29Z</time>
      </trkpt>
      <trkpt lat="42.4491890" lon="-2.9855380">
        <ele>646.6</ele>
        <time>2022-08-29T08:17:30Z</time>
      </trkpt>
      <trkpt lat="42.4492050" lon="-2.9855880">
        <ele>646.6</ele>
        <time>2022-08-29T08:17:31Z</time>
      </trkpt>
      <trkpt lat="42.4492200" lon="-2.9856380">
        <ele>646.8</ele>
        <time>2022-08-29T08:17:32Z</time>
      </trkpt>
      <trkpt lat="42.4492350" lon="-2.9856850">
        <ele>646.8</ele>
        <time>2022-08-29T08:17:33Z</time>
      </trkpt>
      <trkpt lat="42.4492500" lon="-2.9857300">
        <ele>646.8</ele>
        <time>2022-08-29T08:17:34Z</time>
      </trkpt>
      <trkpt lat="42.4492650" lon="-2.9857720">
        <ele>647.0</ele>
        <time>2022-08-29T08:17:35Z</time>
      </trkpt>
      <trkpt lat="42.4492790" lon="-2.9858100">
        <ele>647.2</ele>
        <time>2022-08-29T08:17:36Z</time>
      </trkpt>
      <trkpt lat="42.4492980" lon="-2.9858450">
        <ele>647.2</ele>
        <time>2022-08-29T08:17:37Z</time>
      </trkpt>
      <trkpt lat="42.4493210" lon="-2.9858730">
        <ele>647.2</ele>
        <time>2022-08-29T08:17:38Z</time>
      </trkpt>
      <trkpt lat="42.4493480" lon="-2.9858930">
        <ele>647.2</ele>
        <time>2022-08-29T08:17:39Z</time>
      </trkpt>
      <trkpt lat="42.4493760" lon="-2.9859020">
        <ele>647.2</ele>
        <time>2022-08-29T08:17:40Z</time>
      </trkpt>
      <trkpt lat="42.4494010" lon="-2.9859010">
        <ele>647.2</ele>
        <time>2022-08-29T08:17:41Z</time>
      </trkpt>
      <trkpt lat="42.4494250" lon="-2.9858910">
        <ele>647.4</ele>
        <time>2022-08-29T08:17:42Z</time>
      </trkpt>
      <trkpt lat="42.4494480" lon="-2.9858760">
        <ele>647.4</ele>
        <time>2022-08-29T08:17:43Z</time>
      </trkpt>
      <trkpt lat="42.4494750" lon="-2.9858610">
        <ele>647.6</ele>
        <time>2022-08-29T08:17:44Z</time>
      </trkpt>
      <trkpt lat="42.4495020" lon="-2.9858500">
        <ele>647.8</ele>
        <time>2022-08-29T08:17:45Z</time>
      </trkpt>
      <trkpt lat="42.4495300" lon="-2.9858490">
        <ele>648.0</ele>
        <time>2022-08-29T08:17:46Z</time>
      </trkpt>
      <trkpt lat="42.4495590" lon="-2.9858610">
        <ele>647.8</ele>
        <time>2022-08-29T08:17:47Z</time>
      </trkpt>
      <trkpt lat="42.4495880" lon="-2.9858860">
        <ele>648.0</ele>
        <time>2022-08-29T08:17:48Z</time>
      </trkpt>
      <trkpt lat="42.4496130" lon="-2.9859230">
        <ele>648.0</ele>
        <time>2022-08-29T08:17:49Z</time>
      </trkpt>
      <trkpt lat="42.4496320" lon="-2.9859690">
        <ele>648.0</ele>
        <time>2022-08-29T08:17:50Z</time>
      </trkpt>
      <trkpt lat="42.4496440" lon="-2.9860180">
        <ele>648.0</ele>
        <time>2022-08-29T08:17:51Z</time>
      </trkpt>
      <trkpt lat="42.4496580" lon="-2.9860660">
        <ele>648.0</ele>
        <time>2022-08-29T08:17:52Z</time>
      </trkpt>
      <trkpt lat="42.4496710" lon="-2.9861150">
        <ele>648.0</ele>
        <time>2022-08-29T08:17:53Z</time>
      </trkpt>
      <trkpt lat="42.4496850" lon="-2.9861650">
        <ele>647.8</ele>
        <time>2022-08-29T08:17:54Z</time>
      </trkpt>
      <trkpt lat="42.4497000" lon="-2.9862160">
        <ele>648.2</ele>
        <time>2022-08-29T08:17:55Z</time>
      </trkpt>
      <trkpt lat="42.4497140" lon="-2.9862660">
        <ele>648.0</ele>
        <time>2022-08-29T08:17:56Z</time>
      </trkpt>
      <trkpt lat="42.4497280" lon="-2.9863160">
        <ele>648.2</ele>
        <time>2022-08-29T08:17:57Z</time>
      </trkpt>
      <trkpt lat="42.4497420" lon="-2.9863670">
        <ele>648.4</ele>
        <time>2022-08-29T08:17:58Z</time>
      </trkpt>
      <trkpt lat="42.4497550" lon="-2.9864170">
        <ele>648.2</ele>
        <time>2022-08-29T08:17:59Z</time>
      </trkpt>
      <trkpt lat="42.4497680" lon="-2.9864660">
        <ele>648.2</ele>
        <time>2022-08-29T08:18:00Z</time>
      </trkpt>
      <trkpt lat="42.4497830" lon="-2.9865170">
        <ele>648.4</ele>
        <time>2022-08-29T08:18:01Z</time>
      </trkpt>
      <trkpt lat="42.4497970" lon="-2.9865680">
        <ele>648.4</ele>
        <time>2022-08-29T08:18:02Z</time>
      </trkpt>
      <trkpt lat="42.4498130" lon="-2.9866210">
        <ele>648.4</ele>
        <time>2022-08-29T08:18:03Z</time>
      </trkpt>
      <trkpt lat="42.4498270" lon="-2.9866750">
        <ele>648.6</ele>
        <time>2022-08-29T08:18:04Z</time>
      </trkpt>
      <trkpt lat="42.4498410" lon="-2.9867280">
        <ele>648.6</ele>
        <time>2022-08-29T08:18:05Z</time>
      </trkpt>
      <trkpt lat="42.4498550" lon="-2.9867800">
        <ele>648.6</ele>
        <time>2022-08-29T08:18:06Z</time>
      </trkpt>
      <trkpt lat="42.4498690" lon="-2.9868320">
        <ele>648.6</ele>
        <time>2022-08-29T08:18:07Z</time>
      </trkpt>
      <trkpt lat="42.4498840" lon="-2.9868830">
        <ele>648.6</ele>
        <time>2022-08-29T08:18:08Z</time>
      </trkpt>
      <trkpt lat="42.4498980" lon="-2.9869350">
        <ele>648.6</ele>
        <time>2022-08-29T08:18:09Z</time>
      </trkpt>
      <trkpt lat="42.4499120" lon="-2.9869850">
        <ele>648.8</ele>
        <time>2022-08-29T08:18:10Z</time>
      </trkpt>
      <trkpt lat="42.4499250" lon="-2.9870350">
        <ele>648.8</ele>
        <time>2022-08-29T08:18:11Z</time>
      </trkpt>
      <trkpt lat="42.4499410" lon="-2.9870830">
        <ele>648.8</ele>
        <time>2022-08-29T08:18:12Z</time>
      </trkpt>
      <trkpt lat="42.4499550" lon="-2.9871310">
        <ele>648.8</ele>
        <time>2022-08-29T08:18:13Z</time>
      </trkpt>
      <trkpt lat="42.4499680" lon="-2.9871800">
        <ele>648.8</ele>
        <time>2022-08-29T08:18:14Z</time>
      </trkpt>
      <trkpt lat="42.4499810" lon="-2.9872280">
        <ele>648.8</ele>
        <time>2022-08-29T08:18:15Z</time>
      </trkpt>
      <trkpt lat="42.4499930" lon="-2.9872740">
        <ele>649.0</ele>
        <time>2022-08-29T08:18:16Z</time>
      </trkpt>
      <trkpt lat="42.4500050" lon="-2.9873200">
        <ele>649.2</ele>
        <time>2022-08-29T08:18:17Z</time>
      </trkpt>
      <trkpt lat="42.4500150" lon="-2.9873670">
        <ele>649.2</ele>
        <time>2022-08-29T08:18:18Z</time>
      </trkpt>
      <trkpt lat="42.4500250" lon="-2.9874160">
        <ele>649.2</ele>
        <time>2022-08-29T08:18:19Z</time>
      </trkpt>
      <trkpt lat="42.4500350" lon="-2.9874620">
        <ele>649.2</ele>
        <time>2022-08-29T08:18:20Z</time>
      </trkpt>
      <trkpt lat="42.4500450" lon="-2.9875080">
        <ele>649.4</ele>
        <time>2022-08-29T08:18:21Z</time>
      </trkpt>
      <trkpt lat="42.4500540" lon="-2.9875520">
        <ele>649.6</ele>
        <time>2022-08-29T08:18:22Z</time>
      </trkpt>
      <trkpt lat="42.4500640" lon="-2.9875950">
        <ele>649.8</ele>
        <time>2022-08-29T08:18:23Z</time>
      </trkpt>
      <trkpt lat="42.4500700" lon="-2.9876380">
        <ele>649.8</ele>
        <time>2022-08-29T08:18:24Z</time>
      </trkpt>
      <trkpt lat="42.4500770" lon="-2.9876800">
        <ele>650.0</ele>
        <time>2022-08-29T08:18:25Z</time>
      </trkpt>
      <trkpt lat="42.4500830" lon="-2.9877220">
        <ele>650.0</ele>
        <time>2022-08-29T08:18:26Z</time>
      </trkpt>
      <trkpt lat="42.4500890" lon="-2.9877620">
        <ele>650.0</ele>
        <time>2022-08-29T08:18:27Z</time>
      </trkpt>
      <trkpt lat="42.4500950" lon="-2.9878020">
        <ele>650.2</ele>
        <time>2022-08-29T08:18:28Z</time>
      </trkpt>
      <trkpt lat="42.4501030" lon="-2.9878400">
        <ele>650.2</ele>
        <time>2022-08-29T08:18:29Z</time>
      </trkpt>
      <trkpt lat="42.4501110" lon="-2.9878780">
        <ele>650.6</ele>
        <time>2022-08-29T08:18:30Z</time>
      </trkpt>
      <trkpt lat="42.4501180" lon="-2.9879160">
        <ele>650.8</ele>
        <time>2022-08-29T08:18:31Z</time>
      </trkpt>
      <trkpt lat="42.4501240" lon="-2.9879550">
        <ele>651.0</ele>
        <time>2022-08-29T08:18:32Z</time>
      </trkpt>
      <trkpt lat="42.4501270" lon="-2.9879940">
        <ele>651.2</ele>
        <time>2022-08-29T08:18:33Z</time>
      </trkpt>
      <trkpt lat="42.4501280" lon="-2.9880320">
        <ele>651.2</ele>
        <time>2022-08-29T08:18:34Z</time>
      </trkpt>
      <trkpt lat="42.4501320" lon="-2.9880700">
        <ele>651.2</ele>
        <time>2022-08-29T08:18:35Z</time>
      </trkpt>
      <trkpt lat="42.4501370" lon="-2.9881070">
        <ele>651.2</ele>
        <time>2022-08-29T08:18:36Z</time>
      </trkpt>
      <trkpt lat="42.4501410" lon="-2.9881430">
        <ele>651.4</ele>
        <time>2022-08-29T08:18:37Z</time>
      </trkpt>
      <trkpt lat="42.4501460" lon="-2.9881780">
        <ele>651.6</ele>
        <time>2022-08-29T08:18:38Z</time>
      </trkpt>
      <trkpt lat="42.4501520" lon="-2.9882130">
        <ele>651.6</ele>
        <time>2022-08-29T08:18:39Z</time>
      </trkpt>
      <trkpt lat="42.4501590" lon="-2.9882480">
        <ele>651.8</ele>
        <time>2022-08-29T08:18:40Z</time>
      </trkpt>
      <trkpt lat="42.4501640" lon="-2.9882810">
        <ele>651.8</ele>
        <time>2022-08-29T08:18:41Z</time>
      </trkpt>
      <trkpt lat="42.4501690" lon="-2.9883120">
        <ele>651.8</ele>
        <time>2022-08-29T08:18:42Z</time>
      </trkpt>
      <trkpt lat="42.4501750" lon="-2.9883420">
        <ele>651.8</ele>
        <time>2022-08-29T08:18:43Z</time>
      </trkpt>
      <trkpt lat="42.4501790" lon="-2.9883720">
        <ele>652.0</ele>
        <time>2022-08-29T08:18:44Z</time>
      </trkpt>
      <trkpt lat="42.4501850" lon="-2.9884000">
        <ele>652.2</ele>
        <time>2022-08-29T08:18:45Z</time>
      </trkpt>
      <trkpt lat="42.4501930" lon="-2.9884240">
        <ele>652.2</ele>
        <time>2022-08-29T08:18:46Z</time>
      </trkpt>
      <trkpt lat="42.4502030" lon="-2.9884450">
        <ele>652.4</ele>
        <time>2022-08-29T08:18:47Z</time>
      </trkpt>
      <trkpt lat="42.4502080" lon="-2.9884660">
        <ele>652.4</ele>
        <time>2022-08-29T08:18:48Z</time>
      </trkpt>
      <trkpt lat="42.4502050" lon="-2.9884870">
        <ele>652.6</ele>
        <time>2022-08-29T08:18:49Z</time>
      </trkpt>
      <trkpt lat="42.4501970" lon="-2.9885080">
        <ele>652.8</ele>
        <time>2022-08-29T08:18:50Z</time>
      </trkpt>
      <trkpt lat="42.4501900" lon="-2.9885300">
        <ele>653.0</ele>
        <time>2022-08-29T08:18:51Z</time>
      </trkpt>
      <trkpt lat="42.4501880" lon="-2.9885550">
        <ele>653.0</ele>
        <time>2022-08-29T08:18:52Z</time>
      </trkpt>
      <trkpt lat="42.4501880" lon="-2.9885800">
        <ele>653.0</ele>
        <time>2022-08-29T08:18:53Z</time>
      </trkpt>
      <trkpt lat="42.4501910" lon="-2.9886040">
        <ele>653.2</ele>
        <time>2022-08-29T08:18:54Z</time>
      </trkpt>
      <trkpt lat="42.4501960" lon="-2.9886290">
        <ele>653.6</ele>
        <time>2022-08-29T08:18:55Z</time>
      </trkpt>
      <trkpt lat="42.4502010" lon="-2.9886540">
        <ele>653.6</ele>
        <time>2022-08-29T08:18:56Z</time>
      </trkpt>
      <trkpt lat="42.4502070" lon="-2.9886800">
        <ele>653.8</ele>
        <time>2022-08-29T08:18:57Z</time>
      </trkpt>
      <trkpt lat="42.4502150" lon="-2.9887040">
        <ele>654.0</ele>
        <time>2022-08-29T08:18:58Z</time>
      </trkpt>
      <trkpt lat="42.4502210" lon="-2.9887260">
        <ele>654.0</ele>
        <time>2022-08-29T08:18:59Z</time>
      </trkpt>
      <trkpt lat="42.4502260" lon="-2.9887510">
        <ele>654.0</ele>
        <time>2022-08-29T08:19:00Z</time>
      </trkpt>
      <trkpt lat="42.4502290" lon="-2.9887760">
        <ele>654.2</ele>
        <time>2022-08-29T08:19:01Z</time>
      </trkpt>
      <trkpt lat="42.4502280" lon="-2.9888010">
        <ele>654.2</ele>
        <time>2022-08-29T08:19:02Z</time>
      </trkpt>
      <trkpt lat="42.4502270" lon="-2.9888290">
        <ele>654.2</ele>
        <time>2022-08-29T08:19:03Z</time>
      </trkpt>
      <trkpt lat="42.4502280" lon="-2.9888570">
        <ele>654.6</ele>
        <time>2022-08-29T08:19:04Z</time>
      </trkpt>
      <trkpt lat="42.4502270" lon="-2.9888860">
        <ele>654.6</ele>
        <time>2022-08-29T08:19:05Z</time>
      </trkpt>
      <trkpt lat="42.4502260" lon="-2.9889140">
        <ele>654.8</ele>
        <time>2022-08-29T08:19:06Z</time>
      </trkpt>
      <trkpt lat="42.4502260" lon="-2.9889440">
        <ele>655.0</ele>
        <time>2022-08-29T08:19:07Z</time>
      </trkpt>
      <trkpt lat="42.4502260" lon="-2.9889750">
        <ele>655.2</ele>
        <time>2022-08-29T08:19:08Z</time>
      </trkpt>
      <trkpt lat="42.4502270" lon="-2.9890090">
        <ele>655.4</ele>
        <time>2022-08-29T08:19:09Z</time>
      </trkpt>
      <trkpt lat="42.4502280" lon="-2.9890400">
        <ele>655.6</ele>
        <time>2022-08-29T08:19:10Z</time>
      </trkpt>
      <trkpt lat="42.4502310" lon="-2.9890670">
        <ele>655.6</ele>
        <time>2022-08-29T08:19:11Z</time>
      </trkpt>
      <trkpt lat="42.4502360" lon="-2.9890900">
        <ele>656.0</ele>
        <time>2022-08-29T08:19:12Z</time>
      </trkpt>
      <trkpt lat="42.4502390" lon="-2.9891130">
        <ele>656.2</ele>
        <time>2022-08-29T08:19:13Z</time>
      </trkpt>
      <trkpt lat="42.4502390" lon="-2.9891380">
        <ele>656.4</ele>
        <time>2022-08-29T08:19:14Z</time>
      </trkpt>
      <trkpt lat="42.4502380" lon="-2.9891650">
        <ele>656.6</ele>
        <time>2022-08-29T08:19:15Z</time>
      </trkpt>
      <trkpt lat="42.4502400" lon="-2.9891940">
        <ele>656.8</ele>
        <time>2022-08-29T08:19:16Z</time>
      </trkpt>
      <trkpt lat="42.4502440" lon="-2.9892260">
        <ele>657.0</ele>
        <time>2022-08-29T08:19:17Z</time>
      </trkpt>
      <trkpt lat="42.4502470" lon="-2.9892550">
        <ele>657.0</ele>
        <time>2022-08-29T08:19:18Z</time>
      </trkpt>
      <trkpt lat="42.4502510" lon="-2.9892850">
        <ele>657.4</ele>
        <time>2022-08-29T08:19:19Z</time>
      </trkpt>
      <trkpt lat="42.4502540" lon="-2.9893140">
        <ele>657.8</ele>
        <time>2022-08-29T08:19:20Z</time>
      </trkpt>
      <trkpt lat="42.4502570" lon="-2.9893430">
        <ele>657.8</ele>
        <time>2022-08-29T08:19:21Z</time>
      </trkpt>
      <trkpt lat="42.4502600" lon="-2.9893700">
        <ele>658.0</ele>
        <time>2022-08-29T08:19:22Z</time>
      </trkpt>
      <trkpt lat="42.4502620" lon="-2.9893970">
        <ele>658.4</ele>
        <time>2022-08-29T08:19:23Z</time>
      </trkpt>
      <trkpt lat="42.4502670" lon="-2.9894250">
        <ele>658.4</ele>
        <time>2022-08-29T08:19:24Z</time>
      </trkpt>
      <trkpt lat="42.4502730" lon="-2.9894520">
        <ele>658.4</ele>
        <time>2022-08-29T08:19:25Z</time>
      </trkpt>
      <trkpt lat="42.4502810" lon="-2.9894770">
        <ele>658.4</ele>
        <time>2022-08-29T08:19:26Z</time>
      </trkpt>
      <trkpt lat="42.4502880" lon="-2.9895000">
        <ele>658.6</ele>
        <time>2022-08-29T08:19:27Z</time>
      </trkpt>
      <trkpt lat="42.4502920" lon="-2.9895250">
        <ele>658.8</ele>
        <time>2022-08-29T08:19:28Z</time>
      </trkpt>
      <trkpt lat="42.4502960" lon="-2.9895510">
        <ele>659.0</ele>
        <time>2022-08-29T08:19:29Z</time>
      </trkpt>
      <trkpt lat="42.4503010" lon="-2.9895770">
        <ele>659.2</ele>
        <time>2022-08-29T08:19:30Z</time>
      </trkpt>
      <trkpt lat="42.4503040" lon="-2.9896040">
        <ele>659.6</ele>
        <time>2022-08-29T08:19:31Z</time>
      </trkpt>
      <trkpt lat="42.4503080" lon="-2.9896320">
        <ele>659.8</ele>
        <time>2022-08-29T08:19:32Z</time>
      </trkpt>
      <trkpt lat="42.4503100" lon="-2.9896600">
        <ele>660.0</ele>
        <time>2022-08-29T08:19:33Z</time>
      </trkpt>
      <trkpt lat="42.4503100" lon="-2.9896880">
        <ele>660.2</ele>
        <time>2022-08-29T08:19:34Z</time>
      </trkpt>
      <trkpt lat="42.4503110" lon="-2.9897160">
        <ele>660.4</ele>
        <time>2022-08-29T08:19:35Z</time>
      </trkpt>
      <trkpt lat="42.4503120" lon="-2.9897430">
        <ele>660.6</ele>
        <time>2022-08-29T08:19:36Z</time>
      </trkpt>
      <trkpt lat="42.4503160" lon="-2.9897670">
        <ele>660.8</ele>
        <time>2022-08-29T08:19:37Z</time>
      </trkpt>
      <trkpt lat="42.4503220" lon="-2.9897900">
        <ele>660.8</ele>
        <time>2022-08-29T08:19:38Z</time>
      </trkpt>
      <trkpt lat="42.4503250" lon="-2.9898130">
        <ele>661.2</ele>
        <time>2022-08-29T08:19:39Z</time>
      </trkpt>
      <trkpt lat="42.4503250" lon="-2.9898380">
        <ele>661.2</ele>
        <time>2022-08-29T08:19:40Z</time>
      </trkpt>
      <trkpt lat="42.4503280" lon="-2.9898630">
        <ele>661.6</ele>
        <time>2022-08-29T08:19:41Z</time>
      </trkpt>
      <trkpt lat="42.4503320" lon="-2.9898880">
        <ele>661.6</ele>
        <time>2022-08-29T08:19:42Z</time>
      </trkpt>
      <trkpt lat="42.4503370" lon="-2.9899120">
        <ele>661.8</ele>
        <time>2022-08-29T08:19:43Z</time>
      </trkpt>
      <trkpt lat="42.4503410" lon="-2.9899360">
        <ele>662.0</ele>
        <time>2022-08-29T08:19:44Z</time>
      </trkpt>
      <trkpt lat="42.4503450" lon="-2.9899620">
        <ele>662.2</ele>
        <time>2022-08-29T08:19:45Z</time>
      </trkpt>
      <trkpt lat="42.4503470" lon="-2.9899880">
        <ele>662.4</ele>
        <time>2022-08-29T08:19:46Z</time>
      </trkpt>
      <trkpt lat="42.4503510" lon="-2.9900130">
        <ele>662.6</ele>
        <time>2022-08-29T08:19:47Z</time>
      </trkpt>
      <trkpt lat="42.4503540" lon="-2.9900390">
        <ele>663.0</ele>
        <time>2022-08-29T08:19:48Z</time>
      </trkpt>
      <trkpt lat="42.4503550" lon="-2.9900650">
        <ele>663.2</ele>
        <time>2022-08-29T08:19:49Z</time>
      </trkpt>
      <trkpt lat="42.4503550" lon="-2.9900910">
        <ele>663.2</ele>
        <time>2022-08-29T08:19:50Z</time>
      </trkpt>
      <trkpt lat="42.4503560" lon="-2.9901170">
        <ele>663.4</ele>
        <time>2022-08-29T08:19:51Z</time>
      </trkpt>
      <trkpt lat="42.4503580" lon="-2.9901440">
        <ele>663.6</ele>
        <time>2022-08-29T08:19:52Z</time>
      </trkpt>
      <trkpt lat="42.4503600" lon="-2.9901700">
        <ele>663.8</ele>
        <time>2022-08-29T08:19:53Z</time>
      </trkpt>
      <trkpt lat="42.4503630" lon="-2.9901970">
        <ele>664.2</ele>
        <time>2022-08-29T08:19:54Z</time>
      </trkpt>
      <trkpt lat="42.4503650" lon="-2.9902240">
        <ele>664.2</ele>
        <time>2022-08-29T08:19:55Z</time>
      </trkpt>
      <trkpt lat="42.4503660" lon="-2.9902510">
        <ele>664.6</ele>
        <time>2022-08-29T08:19:56Z</time>
      </trkpt>
      <trkpt lat="42.4503680" lon="-2.9902790">
        <ele>664.8</ele>
        <time>2022-08-29T08:19:57Z</time>
      </trkpt>
      <trkpt lat="42.4503700" lon="-2.9903090">
        <ele>664.8</ele>
        <time>2022-08-29T08:19:58Z</time>
      </trkpt>
      <trkpt lat="42.4503710" lon="-2.9903370">
        <ele>664.8</ele>
        <time>2022-08-29T08:19:59Z</time>
      </trkpt>
      <trkpt lat="42.4503730" lon="-2.9903650">
        <ele>665.2</ele>
        <time>2022-08-29T08:20:00Z</time>
      </trkpt>
      <trkpt lat="42.4503770" lon="-2.9903920">
        <ele>665.4</ele>
        <time>2022-08-29T08:20:01Z</time>
      </trkpt>
      <trkpt lat="42.4503840" lon="-2.9904210">
        <ele>665.6</ele>
        <time>2022-08-29T08:20:02Z</time>
      </trkpt>
      <trkpt lat="42.4503890" lon="-2.9904520">
        <ele>665.8</ele>
        <time>2022-08-29T08:20:03Z</time>
      </trkpt>
      <trkpt lat="42.4503920" lon="-2.9904870">
        <ele>666.2</ele>
        <time>2022-08-29T08:20:04Z</time>
      </trkpt>
      <trkpt lat="42.4503910" lon="-2.9905230">
        <ele>666.2</ele>
        <time>2022-08-29T08:20:05Z</time>
      </trkpt>
      <trkpt lat="42.4503900" lon="-2.9905570">
        <ele>666.4</ele>
        <time>2022-08-29T08:20:06Z</time>
      </trkpt>
      <trkpt lat="42.4503930" lon="-2.9905910">
        <ele>666.6</ele>
        <time>2022-08-29T08:20:07Z</time>
      </trkpt>
      <trkpt lat="42.4503960" lon="-2.9906250">
        <ele>666.8</ele>
        <time>2022-08-29T08:20:08Z</time>
      </trkpt>
      <trkpt lat="42.4504000" lon="-2.9906610">
        <ele>667.2</ele>
        <time>2022-08-29T08:20:09Z</time>
      </trkpt>
      <trkpt lat="42.4504050" lon="-2.9906980">
        <ele>667.4</ele>
        <time>2022-08-29T08:20:10Z</time>
      </trkpt>
      <trkpt lat="42.4504100" lon="-2.9907360">
        <ele>667.8</ele>
        <time>2022-08-29T08:20:11Z</time>
      </trkpt>
      <trkpt lat="42.4504160" lon="-2.9907740">
        <ele>667.8</ele>
        <time>2022-08-29T08:20:12Z</time>
      </trkpt>
      <trkpt lat="42.4504210" lon="-2.9908120">
        <ele>667.8</ele>
        <time>2022-08-29T08:20:13Z</time>
      </trkpt>
      <trkpt lat="42.4504300" lon="-2.9908490">
        <ele>667.8</ele>
        <time>2022-08-29T08:20:14Z</time>
      </trkpt>
      <trkpt lat="42.4504380" lon="-2.9908870">
        <ele>668.0</ele>
        <time>2022-08-29T08:20:15Z</time>
      </trkpt>
      <trkpt lat="42.4504430" lon="-2.9909260">
        <ele>668.0</ele>
        <time>2022-08-29T08:20:16Z</time>
      </trkpt>
      <trkpt lat="42.4504480" lon="-2.9909640">
        <ele>668.2</ele>
        <time>2022-08-29T08:20:17Z</time>
      </trkpt>
      <trkpt lat="42.4504550" lon="-2.9910010">
        <ele>668.2</ele>
        <time>2022-08-29T08:20:18Z</time>
      </trkpt>
      <trkpt lat="42.4504600" lon="-2.9910380">
        <ele>668.2</ele>
        <time>2022-08-29T08:20:19Z</time>
      </trkpt>
      <trkpt lat="42.4504650" lon="-2.9910760">
        <ele>668.2</ele>
        <time>2022-08-29T08:20:20Z</time>
      </trkpt>
      <trkpt lat="42.4504690" lon="-2.9911130">
        <ele>668.4</ele>
        <time>2022-08-29T08:20:21Z</time>
      </trkpt>
      <trkpt lat="42.4504720" lon="-2.9911500">
        <ele>668.6</ele>
        <time>2022-08-29T08:20:22Z</time>
      </trkpt>
      <trkpt lat="42.4504770" lon="-2.9911880">
        <ele>668.6</ele>
        <time>2022-08-29T08:20:23Z</time>
      </trkpt>
      <trkpt lat="42.4504830" lon="-2.9912260">
        <ele>668.8</ele>
        <time>2022-08-29T08:20:24Z</time>
      </trkpt>
      <trkpt lat="42.4504880" lon="-2.9912640">
        <ele>669.0</ele>
        <time>2022-08-29T08:20:25Z</time>
      </trkpt>
      <trkpt lat="42.4504940" lon="-2.9913010">
        <ele>669.0</ele>
        <time>2022-08-29T08:20:26Z</time>
      </trkpt>
      <trkpt lat="42.4505000" lon="-2.9913380">
        <ele>669.2</ele>
        <time>2022-08-29T08:20:27Z</time>
      </trkpt>
      <trkpt lat="42.4505070" lon="-2.9913770">
        <ele>669.2</ele>
        <time>2022-08-29T08:20:28Z</time>
      </trkpt>
      <trkpt lat="42.4505130" lon="-2.9914140">
        <ele>669.2</ele>
        <time>2022-08-29T08:20:29Z</time>
      </trkpt>
      <trkpt lat="42.4505190" lon="-2.9914510">
        <ele>669.4</ele>
        <time>2022-08-29T08:20:30Z</time>
      </trkpt>
      <trkpt lat="42.4505270" lon="-2.9914880">
        <ele>669.8</ele>
        <time>2022-08-29T08:20:31Z</time>
      </trkpt>
      <trkpt lat="42.4505360" lon="-2.9915260">
        <ele>669.8</ele>
        <time>2022-08-29T08:20:32Z</time>
      </trkpt>
      <trkpt lat="42.4505450" lon="-2.9915640">
        <ele>669.8</ele>
        <time>2022-08-29T08:20:33Z</time>
      </trkpt>
      <trkpt lat="42.4505530" lon="-2.9916020">
        <ele>670.2</ele>
        <time>2022-08-29T08:20:34Z</time>
      </trkpt>
      <trkpt lat="42.4505590" lon="-2.9916420">
        <ele>670.2</ele>
        <time>2022-08-29T08:20:35Z</time>
      </trkpt>
      <trkpt lat="42.4505660" lon="-2.9916820">
        <ele>670.2</ele>
        <time>2022-08-29T08:20:36Z</time>
      </trkpt>
      <trkpt lat="42.4505740" lon="-2.9917220">
        <ele>670.2</ele>
        <time>2022-08-29T08:20:37Z</time>
      </trkpt>
      <trkpt lat="42.4505830" lon="-2.9917670">
        <ele>670.2</ele>
        <time>2022-08-29T08:20:38Z</time>
      </trkpt>
      <trkpt lat="42.4505900" lon="-2.9918160">
        <ele>670.4</ele>
        <time>2022-08-29T08:20:39Z</time>
      </trkpt>
      <trkpt lat="42.4505960" lon="-2.9918690">
        <ele>670.4</ele>
        <time>2022-08-29T08:20:40Z</time>
      </trkpt>
      <trkpt lat="42.4506020" lon="-2.9919220">
        <ele>670.8</ele>
        <time>2022-08-29T08:20:41Z</time>
      </trkpt>
      <trkpt lat="42.4506060" lon="-2.9919750">
        <ele>670.8</ele>
        <time>2022-08-29T08:20:42Z</time>
      </trkpt>
      <trkpt lat="42.4506150" lon="-2.9920290">
        <ele>670.8</ele>
        <time>2022-08-29T08:20:43Z</time>
      </trkpt>
      <trkpt lat="42.4506230" lon="-2.9920820">
        <ele>671.0</ele>
        <time>2022-08-29T08:20:44Z</time>
      </trkpt>
      <trkpt lat="42.4506310" lon="-2.9921350">
        <ele>671.0</ele>
        <time>2022-08-29T08:20:45Z</time>
      </trkpt>
      <trkpt lat="42.4506390" lon="-2.9921860">
        <ele>671.2</ele>
        <time>2022-08-29T08:20:46Z</time>
      </trkpt>
      <trkpt lat="42.4506480" lon="-2.9922380">
        <ele>671.2</ele>
        <time>2022-08-29T08:20:47Z</time>
      </trkpt>
      <trkpt lat="42.4506550" lon="-2.9922900">
        <ele>671.2</ele>
        <time>2022-08-29T08:20:48Z</time>
      </trkpt>
      <trkpt lat="42.4506630" lon="-2.9923400">
        <ele>671.2</ele>
        <time>2022-08-29T08:20:49Z</time>
      </trkpt>
      <trkpt lat="42.4506690" lon="-2.9923920">
        <ele>671.2</ele>
        <time>2022-08-29T08:20:50Z</time>
      </trkpt>
      <trkpt lat="42.4506740" lon="-2.9924430">
        <ele>671.4</ele>
        <time>2022-08-29T08:20:51Z</time>
      </trkpt>
      <trkpt lat="42.4506790" lon="-2.9924960">
        <ele>671.4</ele>
        <time>2022-08-29T08:20:52Z</time>
      </trkpt>
      <trkpt lat="42.4506850" lon="-2.9925480">
        <ele>671.4</ele>
        <time>2022-08-29T08:20:53Z</time>
      </trkpt>
      <trkpt lat="42.4506910" lon="-2.9925980">
        <ele>671.4</ele>
        <time>2022-08-29T08:20:54Z</time>
      </trkpt>
      <trkpt lat="42.4506950" lon="-2.9926490">
        <ele>671.6</ele>
        <time>2022-08-29T08:20:55Z</time>
      </trkpt>
      <trkpt lat="42.4507020" lon="-2.9926980">
        <ele>671.6</ele>
        <time>2022-08-29T08:20:56Z</time>
      </trkpt>
      <trkpt lat="42.4507100" lon="-2.9927440">
        <ele>671.8</ele>
        <time>2022-08-29T08:20:57Z</time>
      </trkpt>
      <trkpt lat="42.4507160" lon="-2.9927900">
        <ele>671.8</ele>
        <time>2022-08-29T08:20:58Z</time>
      </trkpt>
      <trkpt lat="42.4507210" lon="-2.9928330">
        <ele>672.0</ele>
        <time>2022-08-29T08:20:59Z</time>
      </trkpt>
      <trkpt lat="42.4507250" lon="-2.9928750">
        <ele>672.0</ele>
        <time>2022-08-29T08:21:00Z</time>
      </trkpt>
      <trkpt lat="42.4507290" lon="-2.9929160">
        <ele>672.0</ele>
        <time>2022-08-29T08:21:01Z</time>
      </trkpt>
      <trkpt lat="42.4507350" lon="-2.9929560">
        <ele>672.0</ele>
        <time>2022-08-29T08:21:02Z</time>
      </trkpt>
      <trkpt lat="42.4507380" lon="-2.9929960">
        <ele>672.0</ele>
        <time>2022-08-29T08:21:03Z</time>
      </trkpt>
      <trkpt lat="42.4507420" lon="-2.9930360">
        <ele>672.0</ele>
        <time>2022-08-29T08:21:04Z</time>
      </trkpt>
      <trkpt lat="42.4507450" lon="-2.9930770">
        <ele>672.2</ele>
        <time>2022-08-29T08:21:05Z</time>
      </trkpt>
      <trkpt lat="42.4507500" lon="-2.9931190">
        <ele>672.2</ele>
        <time>2022-08-29T08:21:06Z</time>
      </trkpt>
      <trkpt lat="42.4507560" lon="-2.9931630">
        <ele>672.2</ele>
        <time>2022-08-29T08:21:07Z</time>
      </trkpt>
      <trkpt lat="42.4507610" lon="-2.9932070">
        <ele>672.2</ele>
        <time>2022-08-29T08:21:08Z</time>
      </trkpt>
      <trkpt lat="42.4507670" lon="-2.9932530">
        <ele>672.4</ele>
        <time>2022-08-29T08:21:09Z</time>
      </trkpt>
      <trkpt lat="42.4507730" lon="-2.9932980">
        <ele>672.4</ele>
        <time>2022-08-29T08:21:10Z</time>
      </trkpt>
      <trkpt lat="42.4507810" lon="-2.9933440">
        <ele>672.4</ele>
        <time>2022-08-29T08:21:11Z</time>
      </trkpt>
      <trkpt lat="42.4507900" lon="-2.9933910">
        <ele>672.4</ele>
        <time>2022-08-29T08:21:12Z</time>
      </trkpt>
      <trkpt lat="42.4507970" lon="-2.9934390">
        <ele>672.4</ele>
        <time>2022-08-29T08:21:13Z</time>
      </trkpt>
      <trkpt lat="42.4508040" lon="-2.9934870">
        <ele>672.4</ele>
        <time>2022-08-29T08:21:14Z</time>
      </trkpt>
      <trkpt lat="42.4508120" lon="-2.9935350">
        <ele>672.4</ele>
        <time>2022-08-29T08:21:15Z</time>
      </trkpt>
      <trkpt lat="42.4508220" lon="-2.9935840">
        <ele>672.4</ele>
        <time>2022-08-29T08:21:16Z</time>
      </trkpt>
      <trkpt lat="42.4508330" lon="-2.9936340">
        <ele>672.4</ele>
        <time>2022-08-29T08:21:17Z</time>
      </trkpt>
      <trkpt lat="42.4508450" lon="-2.9936860">
        <ele>672.4</ele>
        <time>2022-08-29T08:21:18Z</time>
      </trkpt>
      <trkpt lat="42.4508540" lon="-2.9937370">
        <ele>672.4</ele>
        <time>2022-08-29T08:21:19Z</time>
      </trkpt>
      <trkpt lat="42.4508640" lon="-2.9937880">
        <ele>672.4</ele>
        <time>2022-08-29T08:21:20Z</time>
      </trkpt>
      <trkpt lat="42.4508730" lon="-2.9938400">
        <ele>672.4</ele>
        <time>2022-08-29T08:21:21Z</time>
      </trkpt>
      <trkpt lat="42.4508820" lon="-2.9938950">
        <ele>672.4</ele>
        <time>2022-08-29T08:21:22Z</time>
      </trkpt>
      <trkpt lat="42.4508920" lon="-2.9939500">
        <ele>672.4</ele>
        <time>2022-08-29T08:21:23Z</time>
      </trkpt>
      <trkpt lat="42.4509010" lon="-2.9940040">
        <ele>672.4</ele>
        <time>2022-08-29T08:21:24Z</time>
      </trkpt>
      <trkpt lat="42.4509090" lon="-2.9940590">
        <ele>672.4</ele>
        <time>2022-08-29T08:21:25Z</time>
      </trkpt>
      <trkpt lat="42.4509170" lon="-2.9941150">
        <ele>672.2</ele>
        <time>2022-08-29T08:21:26Z</time>
      </trkpt>
      <trkpt lat="42.4509260" lon="-2.9941700">
        <ele>672.4</ele>
        <time>2022-08-29T08:21:27Z</time>
      </trkpt>
      <trkpt lat="42.4509350" lon="-2.9942270">
        <ele>672.2</ele>
        <time>2022-08-29T08:21:28Z</time>
      </trkpt>
      <trkpt lat="42.4509430" lon="-2.9942820">
        <ele>672.4</ele>
        <time>2022-08-29T08:21:29Z</time>
      </trkpt>
      <trkpt lat="42.4509530" lon="-2.9943370">
        <ele>672.4</ele>
        <time>2022-08-29T08:21:30Z</time>
      </trkpt>
      <trkpt lat="42.4509630" lon="-2.9943960">
        <ele>672.4</ele>
        <time>2022-08-29T08:21:31Z</time>
      </trkpt>
      <trkpt lat="42.4509730" lon="-2.9944540">
        <ele>672.4</ele>
        <time>2022-08-29T08:21:32Z</time>
      </trkpt>
      <trkpt lat="42.4509810" lon="-2.9945140">
        <ele>672.4</ele>
        <time>2022-08-29T08:21:33Z</time>
      </trkpt>
      <trkpt lat="42.4509900" lon="-2.9945760">
        <ele>672.4</ele>
        <time>2022-08-29T08:21:34Z</time>
      </trkpt>
      <trkpt lat="42.4509980" lon="-2.9946390">
        <ele>672.2</ele>
        <time>2022-08-29T08:21:35Z</time>
      </trkpt>
      <trkpt lat="42.4510080" lon="-2.9947020">
        <ele>672.4</ele>
        <time>2022-08-29T08:21:36Z</time>
      </trkpt>
      <trkpt lat="42.4510190" lon="-2.9947640">
        <ele>672.4</ele>
        <time>2022-08-29T08:21:37Z</time>
      </trkpt>
      <trkpt lat="42.4510300" lon="-2.9948260">
        <ele>672.4</ele>
        <time>2022-08-29T08:21:38Z</time>
      </trkpt>
      <trkpt lat="42.4510410" lon="-2.9948870">
        <ele>672.4</ele>
        <time>2022-08-29T08:21:39Z</time>
      </trkpt>
      <trkpt lat="42.4510520" lon="-2.9949480">
        <ele>672.4</ele>
        <time>2022-08-29T08:21:40Z</time>
      </trkpt>
      <trkpt lat="42.4510600" lon="-2.9950120">
        <ele>672.4</ele>
        <time>2022-08-29T08:21:41Z</time>
      </trkpt>
      <trkpt lat="42.4510670" lon="-2.9950780">
        <ele>672.4</ele>
        <time>2022-08-29T08:21:42Z</time>
      </trkpt>
      <trkpt lat="42.4510760" lon="-2.9951440">
        <ele>672.4</ele>
        <time>2022-08-29T08:21:43Z</time>
      </trkpt>
      <trkpt lat="42.4510850" lon="-2.9952110">
        <ele>672.4</ele>
        <time>2022-08-29T08:21:44Z</time>
      </trkpt>
      <trkpt lat="42.4510960" lon="-2.9952780">
        <ele>672.4</ele>
        <time>2022-08-29T08:21:45Z</time>
      </trkpt>
      <trkpt lat="42.4511070" lon="-2.9953470">
        <ele>672.2</ele>
        <time>2022-08-29T08:21:46Z</time>
      </trkpt>
      <trkpt lat="42.4511170" lon="-2.9954160">
        <ele>672.0</ele>
        <time>2022-08-29T08:21:47Z</time>
      </trkpt>
      <trkpt lat="42.4511290" lon="-2.9954880">
        <ele>672.0</ele>
        <time>2022-08-29T08:21:48Z</time>
      </trkpt>
      <trkpt lat="42.4511420" lon="-2.9955610">
        <ele>672.0</ele>
        <time>2022-08-29T08:21:49Z</time>
      </trkpt>
      <trkpt lat="42.4511530" lon="-2.9956350">
        <ele>672.0</ele>
        <time>2022-08-29T08:21:50Z</time>
      </trkpt>
      <trkpt lat="42.4511610" lon="-2.9957070">
        <ele>671.8</ele>
        <time>2022-08-29T08:21:51Z</time>
      </trkpt>
      <trkpt lat="42.4511730" lon="-2.9957790">
        <ele>671.8</ele>
        <time>2022-08-29T08:21:52Z</time>
      </trkpt>
      <trkpt lat="42.4511870" lon="-2.9958500">
        <ele>671.4</ele>
        <time>2022-08-29T08:21:53Z</time>
      </trkpt>
      <trkpt lat="42.4512020" lon="-2.9959220">
        <ele>671.6</ele>
        <time>2022-08-29T08:21:54Z</time>
      </trkpt>
      <trkpt lat="42.4512160" lon="-2.9959940">
        <ele>671.4</ele>
        <time>2022-08-29T08:21:55Z</time>
      </trkpt>
      <trkpt lat="42.4512280" lon="-2.9960650">
        <ele>671.2</ele>
        <time>2022-08-29T08:21:56Z</time>
      </trkpt>
      <trkpt lat="42.4512390" lon="-2.9961370">
        <ele>671.2</ele>
        <time>2022-08-29T08:21:57Z</time>
      </trkpt>
      <trkpt lat="42.4512500" lon="-2.9962080">
        <ele>671.2</ele>
        <time>2022-08-29T08:21:58Z</time>
      </trkpt>
      <trkpt lat="42.4512610" lon="-2.9962780">
        <ele>671.2</ele>
        <time>2022-08-29T08:21:59Z</time>
      </trkpt>
      <trkpt lat="42.4512710" lon="-2.9963470">
        <ele>671.2</ele>
        <time>2022-08-29T08:22:00Z</time>
      </trkpt>
      <trkpt lat="42.4512830" lon="-2.9964150">
        <ele>671.2</ele>
        <time>2022-08-29T08:22:01Z</time>
      </trkpt>
      <trkpt lat="42.4512970" lon="-2.9964850">
        <ele>671.0</ele>
        <time>2022-08-29T08:22:02Z</time>
      </trkpt>
      <trkpt lat="42.4513110" lon="-2.9965550">
        <ele>671.2</ele>
        <time>2022-08-29T08:22:03Z</time>
      </trkpt>
      <trkpt lat="42.4513240" lon="-2.9966260">
        <ele>671.0</ele>
        <time>2022-08-29T08:22:04Z</time>
      </trkpt>
      <trkpt lat="42.4513370" lon="-2.9967000">
        <ele>671.0</ele>
        <time>2022-08-29T08:22:05Z</time>
      </trkpt>
      <trkpt lat="42.4513490" lon="-2.9967740">
        <ele>671.2</ele>
        <time>2022-08-29T08:22:06Z</time>
      </trkpt>
      <trkpt lat="42.4513620" lon="-2.9968520">
        <ele>671.0</ele>
        <time>2022-08-29T08:22:07Z</time>
      </trkpt>
      <trkpt lat="42.4513740" lon="-2.9969300">
        <ele>671.0</ele>
        <time>2022-08-29T08:22:08Z</time>
      </trkpt>
      <trkpt lat="42.4513880" lon="-2.9970090">
        <ele>671.0</ele>
        <time>2022-08-29T08:22:09Z</time>
      </trkpt>
      <trkpt lat="42.4514020" lon="-2.9970880">
        <ele>671.2</ele>
        <time>2022-08-29T08:22:10Z</time>
      </trkpt>
      <trkpt lat="42.4514160" lon="-2.9971660">
        <ele>671.0</ele>
        <time>2022-08-29T08:22:11Z</time>
      </trkpt>
      <trkpt lat="42.4514290" lon="-2.9972440">
        <ele>671.0</ele>
        <time>2022-08-29T08:22:12Z</time>
      </trkpt>
      <trkpt lat="42.4514420" lon="-2.9973220">
        <ele>671.0</ele>
        <time>2022-08-29T08:22:13Z</time>
      </trkpt>
      <trkpt lat="42.4514560" lon="-2.9974030">
        <ele>671.0</ele>
        <time>2022-08-29T08:22:14Z</time>
      </trkpt>
      <trkpt lat="42.4514680" lon="-2.9974820">
        <ele>671.0</ele>
        <time>2022-08-29T08:22:15Z</time>
      </trkpt>
      <trkpt lat="42.4514790" lon="-2.9975600">
        <ele>670.8</ele>
        <time>2022-08-29T08:22:16Z</time>
      </trkpt>
      <trkpt lat="42.4514900" lon="-2.9976390">
        <ele>670.8</ele>
        <time>2022-08-29T08:22:17Z</time>
      </trkpt>
      <trkpt lat="42.4515030" lon="-2.9977170">
        <ele>670.6</ele>
        <time>2022-08-29T08:22:18Z</time>
      </trkpt>
      <trkpt lat="42.4515170" lon="-2.9977950">
        <ele>670.4</ele>
        <time>2022-08-29T08:22:19Z</time>
      </trkpt>
      <trkpt lat="42.4515300" lon="-2.9978740">
        <ele>670.4</ele>
        <time>2022-08-29T08:22:20Z</time>
      </trkpt>
      <trkpt lat="42.4515400" lon="-2.9979510">
        <ele>670.2</ele>
        <time>2022-08-29T08:22:21Z</time>
      </trkpt>
      <trkpt lat="42.4515500" lon="-2.9980260">
        <ele>670.0</ele>
        <time>2022-08-29T08:22:22Z</time>
      </trkpt>
      <trkpt lat="42.4515580" lon="-2.9981010">
        <ele>670.0</ele>
        <time>2022-08-29T08:22:23Z</time>
      </trkpt>
      <trkpt lat="42.4515630" lon="-2.9981740">
        <ele>669.8</ele>
        <time>2022-08-29T08:22:24Z</time>
      </trkpt>
      <trkpt lat="42.4515650" lon="-2.9982460">
        <ele>669.8</ele>
        <time>2022-08-29T08:22:25Z</time>
      </trkpt>
      <trkpt lat="42.4515670" lon="-2.9983160">
        <ele>669.8</ele>
        <time>2022-08-29T08:22:26Z</time>
      </trkpt>
      <trkpt lat="42.4515720" lon="-2.9983820">
        <ele>669.6</ele>
        <time>2022-08-29T08:22:27Z</time>
      </trkpt>
      <trkpt lat="42.4515780" lon="-2.9984480">
        <ele>669.4</ele>
        <time>2022-08-29T08:22:28Z</time>
      </trkpt>
      <trkpt lat="42.4515870" lon="-2.9985130">
        <ele>669.2</ele>
        <time>2022-08-29T08:22:29Z</time>
      </trkpt>
      <trkpt lat="42.4515960" lon="-2.9985790">
        <ele>669.0</ele>
        <time>2022-08-29T08:22:30Z</time>
      </trkpt>
      <trkpt lat="42.4516080" lon="-2.9986450">
        <ele>669.0</ele>
        <time>2022-08-29T08:22:31Z</time>
      </trkpt>
      <trkpt lat="42.4516210" lon="-2.9987130">
        <ele>669.0</ele>
        <time>2022-08-29T08:22:32Z</time>
      </trkpt>
      <trkpt lat="42.4516300" lon="-2.9987830">
        <ele>669.0</ele>
        <time>2022-08-29T08:22:33Z</time>
      </trkpt>
      <trkpt lat="42.4516390" lon="-2.9988560">
        <ele>669.0</ele>
        <time>2022-08-29T08:22:34Z</time>
      </trkpt>
      <trkpt lat="42.4516470" lon="-2.9989280">
        <ele>669.0</ele>
        <time>2022-08-29T08:22:35Z</time>
      </trkpt>
      <trkpt lat="42.4516550" lon="-2.9990000">
        <ele>668.8</ele>
        <time>2022-08-29T08:22:36Z</time>
      </trkpt>
      <trkpt lat="42.4516640" lon="-2.9990720">
        <ele>668.8</ele>
        <time>2022-08-29T08:22:37Z</time>
      </trkpt>
      <trkpt lat="42.4516710" lon="-2.9991460">
        <ele>668.8</ele>
        <time>2022-08-29T08:22:38Z</time>
      </trkpt>
      <trkpt lat="42.4516770" lon="-2.9992210">
        <ele>668.8</ele>
        <time>2022-08-29T08:22:39Z</time>
      </trkpt>
      <trkpt lat="42.4516860" lon="-2.9992960">
        <ele>668.8</ele>
        <time>2022-08-29T08:22:40Z</time>
      </trkpt>
      <trkpt lat="42.4516940" lon="-2.9993700">
        <ele>668.8</ele>
        <time>2022-08-29T08:22:41Z</time>
      </trkpt>
      <trkpt lat="42.4517030" lon="-2.9994450">
        <ele>668.6</ele>
        <time>2022-08-29T08:22:42Z</time>
      </trkpt>
      <trkpt lat="42.4517110" lon="-2.9995210">
        <ele>668.6</ele>
        <time>2022-08-29T08:22:43Z</time>
      </trkpt>
      <trkpt lat="42.4517190" lon="-2.9995960">
        <ele>668.4</ele>
        <time>2022-08-29T08:22:44Z</time>
      </trkpt>
      <trkpt lat="42.4517270" lon="-2.9996700">
        <ele>668.6</ele>
        <time>2022-08-29T08:22:45Z</time>
      </trkpt>
      <trkpt lat="42.4517340" lon="-2.9997440">
        <ele>668.4</ele>
        <time>2022-08-29T08:22:46Z</time>
      </trkpt>
      <trkpt lat="42.4517420" lon="-2.9998180">
        <ele>668.2</ele>
        <time>2022-08-29T08:22:47Z</time>
      </trkpt>
      <trkpt lat="42.4517490" lon="-2.9998910">
        <ele>668.4</ele>
        <time>2022-08-29T08:22:48Z</time>
      </trkpt>
      <trkpt lat="42.4517570" lon="-2.9999660">
        <ele>668.2</ele>
        <time>2022-08-29T08:22:49Z</time>
      </trkpt>
      <trkpt lat="42.4517640" lon="-3.0000410">
        <ele>668.2</ele>
        <time>2022-08-29T08:22:50Z</time>
      </trkpt>
      <trkpt lat="42.4517710" lon="-3.0001190">
        <ele>668.2</ele>
        <time>2022-08-29T08:22:51Z</time>
      </trkpt>
      <trkpt lat="42.4517790" lon="-3.0001990">
        <ele>668.2</ele>
        <time>2022-08-29T08:22:52Z</time>
      </trkpt>
      <trkpt lat="42.4517880" lon="-3.0002780">
        <ele>668.2</ele>
        <time>2022-08-29T08:22:53Z</time>
      </trkpt>
      <trkpt lat="42.4517990" lon="-3.0003580">
        <ele>668.0</ele>
        <time>2022-08-29T08:22:54Z</time>
      </trkpt>
      <trkpt lat="42.4518100" lon="-3.0004390">
        <ele>668.0</ele>
        <time>2022-08-29T08:22:55Z</time>
      </trkpt>
      <trkpt lat="42.4518200" lon="-3.0005210">
        <ele>668.0</ele>
        <time>2022-08-29T08:22:56Z</time>
      </trkpt>
      <trkpt lat="42.4518290" lon="-3.0006040">
        <ele>668.0</ele>
        <time>2022-08-29T08:22:57Z</time>
      </trkpt>
      <trkpt lat="42.4518410" lon="-3.0006890">
        <ele>668.0</ele>
        <time>2022-08-29T08:22:58Z</time>
      </trkpt>
      <trkpt lat="42.4518510" lon="-3.0007740">
        <ele>668.0</ele>
        <time>2022-08-29T08:22:59Z</time>
      </trkpt>
      <trkpt lat="42.4518610" lon="-3.0008600">
        <ele>667.6</ele>
        <time>2022-08-29T08:23:00Z</time>
      </trkpt>
      <trkpt lat="42.4518710" lon="-3.0009460">
        <ele>667.4</ele>
        <time>2022-08-29T08:23:01Z</time>
      </trkpt>
      <trkpt lat="42.4518800" lon="-3.0010330">
        <ele>667.4</ele>
        <time>2022-08-29T08:23:02Z</time>
      </trkpt>
      <trkpt lat="42.4518890" lon="-3.0011210">
        <ele>667.2</ele>
        <time>2022-08-29T08:23:03Z</time>
      </trkpt>
      <trkpt lat="42.4518960" lon="-3.0012100">
        <ele>667.2</ele>
        <time>2022-08-29T08:23:04Z</time>
      </trkpt>
      <trkpt lat="42.4519040" lon="-3.0013000">
        <ele>667.0</ele>
        <time>2022-08-29T08:23:05Z</time>
      </trkpt>
      <trkpt lat="42.4519130" lon="-3.0013900">
        <ele>667.0</ele>
        <time>2022-08-29T08:23:06Z</time>
      </trkpt>
      <trkpt lat="42.4519190" lon="-3.0014800">
        <ele>666.8</ele>
        <time>2022-08-29T08:23:07Z</time>
      </trkpt>
      <trkpt lat="42.4519260" lon="-3.0015720">
        <ele>666.6</ele>
        <time>2022-08-29T08:23:08Z</time>
      </trkpt>
      <trkpt lat="42.4519350" lon="-3.0016640">
        <ele>666.6</ele>
        <time>2022-08-29T08:23:09Z</time>
      </trkpt>
      <trkpt lat="42.4519410" lon="-3.0017550">
        <ele>666.2</ele>
        <time>2022-08-29T08:23:10Z</time>
      </trkpt>
      <trkpt lat="42.4519510" lon="-3.0018460">
        <ele>665.8</ele>
        <time>2022-08-29T08:23:11Z</time>
      </trkpt>
      <trkpt lat="42.4519570" lon="-3.0019340">
        <ele>665.8</ele>
        <time>2022-08-29T08:23:12Z</time>
      </trkpt>
      <trkpt lat="42.4519630" lon="-3.0020190">
        <ele>665.2</ele>
        <time>2022-08-29T08:23:13Z</time>
      </trkpt>
      <trkpt lat="42.4519670" lon="-3.0021030">
        <ele>665.0</ele>
        <time>2022-08-29T08:23:14Z</time>
      </trkpt>
      <trkpt lat="42.4519720" lon="-3.0021840">
        <ele>664.8</ele>
        <time>2022-08-29T08:23:15Z</time>
      </trkpt>
      <trkpt lat="42.4519750" lon="-3.0022650">
        <ele>664.4</ele>
        <time>2022-08-29T08:23:16Z</time>
      </trkpt>
      <trkpt lat="42.4519810" lon="-3.0023460">
        <ele>664.0</ele>
        <time>2022-08-29T08:23:17Z</time>
      </trkpt>
      <trkpt lat="42.4519880" lon="-3.0024270">
        <ele>664.0</ele>
        <time>2022-08-29T08:23:18Z</time>
      </trkpt>
      <trkpt lat="42.4519960" lon="-3.0025090">
        <ele>663.8</ele>
        <time>2022-08-29T08:23:19Z</time>
      </trkpt>
      <trkpt lat="42.4520050" lon="-3.0025910">
        <ele>663.8</ele>
        <time>2022-08-29T08:23:20Z</time>
      </trkpt>
      <trkpt lat="42.4520060" lon="-3.0026740">
        <ele>663.8</ele>
        <time>2022-08-29T08:23:21Z</time>
      </trkpt>
      <trkpt lat="42.4520060" lon="-3.0027550">
        <ele>663.8</ele>
        <time>2022-08-29T08:23:22Z</time>
      </trkpt>
      <trkpt lat="42.4520070" lon="-3.0028350">
        <ele>663.8</ele>
        <time>2022-08-29T08:23:23Z</time>
      </trkpt>
      <trkpt lat="42.4520110" lon="-3.0029150">
        <ele>663.6</ele>
        <time>2022-08-29T08:23:24Z</time>
      </trkpt>
      <trkpt lat="42.4520140" lon="-3.0029950">
        <ele>663.6</ele>
        <time>2022-08-29T08:23:25Z</time>
      </trkpt>
      <trkpt lat="42.4520190" lon="-3.0030740">
        <ele>663.6</ele>
        <time>2022-08-29T08:23:26Z</time>
      </trkpt>
      <trkpt lat="42.4520260" lon="-3.0031520">
        <ele>663.4</ele>
        <time>2022-08-29T08:23:27Z</time>
      </trkpt>
      <trkpt lat="42.4520320" lon="-3.0032290">
        <ele>663.4</ele>
        <time>2022-08-29T08:23:28Z</time>
      </trkpt>
      <trkpt lat="42.4520360" lon="-3.0033050">
        <ele>663.4</ele>
        <time>2022-08-29T08:23:29Z</time>
      </trkpt>
      <trkpt lat="42.4520410" lon="-3.0033830">
        <ele>663.4</ele>
        <time>2022-08-29T08:23:30Z</time>
      </trkpt>
      <trkpt lat="42.4520460" lon="-3.0034600">
        <ele>663.4</ele>
        <time>2022-08-29T08:23:31Z</time>
      </trkpt>
      <trkpt lat="42.4520480" lon="-3.0035360">
        <ele>663.2</ele>
        <time>2022-08-29T08:23:32Z</time>
      </trkpt>
      <trkpt lat="42.4520520" lon="-3.0036110">
        <ele>663.4</ele>
        <time>2022-08-29T08:23:33Z</time>
      </trkpt>
      <trkpt lat="42.4520550" lon="-3.0036870">
        <ele>663.2</ele>
        <time>2022-08-29T08:23:34Z</time>
      </trkpt>
      <trkpt lat="42.4520600" lon="-3.0037620">
        <ele>663.2</ele>
        <time>2022-08-29T08:23:35Z</time>
      </trkpt>
      <trkpt lat="42.4520650" lon="-3.0038380">
        <ele>663.2</ele>
        <time>2022-08-29T08:23:36Z</time>
      </trkpt>
      <trkpt lat="42.4520680" lon="-3.0039140">
        <ele>663.2</ele>
        <time>2022-08-29T08:23:37Z</time>
      </trkpt>
      <trkpt lat="42.4520720" lon="-3.0039900">
        <ele>663.0</ele>
        <time>2022-08-29T08:23:38Z</time>
      </trkpt>
      <trkpt lat="42.4520750" lon="-3.0040660">
        <ele>663.2</ele>
        <time>2022-08-29T08:23:39Z</time>
      </trkpt>
      <trkpt lat="42.4520770" lon="-3.0041420">
        <ele>663.2</ele>
        <time>2022-08-29T08:23:40Z</time>
      </trkpt>
      <trkpt lat="42.4520790" lon="-3.0042180">
        <ele>663.2</ele>
        <time>2022-08-29T08:23:41Z</time>
      </trkpt>
      <trkpt lat="42.4520830" lon="-3.0042950">
        <ele>663.2</ele>
        <time>2022-08-29T08:23:42Z</time>
      </trkpt>
      <trkpt lat="42.4520860" lon="-3.0043720">
        <ele>663.2</ele>
        <time>2022-08-29T08:23:43Z</time>
      </trkpt>
      <trkpt lat="42.4520890" lon="-3.0044500">
        <ele>663.4</ele>
        <time>2022-08-29T08:23:44Z</time>
      </trkpt>
      <trkpt lat="42.4520920" lon="-3.0045270">
        <ele>663.4</ele>
        <time>2022-08-29T08:23:45Z</time>
      </trkpt>
      <trkpt lat="42.4520940" lon="-3.0046030">
        <ele>663.4</ele>
        <time>2022-08-29T08:23:46Z</time>
      </trkpt>
      <trkpt lat="42.4520960" lon="-3.0046800">
        <ele>663.2</ele>
        <time>2022-08-29T08:23:47Z</time>
      </trkpt>
      <trkpt lat="42.4520980" lon="-3.0047550">
        <ele>663.4</ele>
        <time>2022-08-29T08:23:48Z</time>
      </trkpt>
      <trkpt lat="42.4521010" lon="-3.0048290">
        <ele>663.4</ele>
        <time>2022-08-29T08:23:49Z</time>
      </trkpt>
      <trkpt lat="42.4521070" lon="-3.0048980">
        <ele>663.2</ele>
        <time>2022-08-29T08:23:50Z</time>
      </trkpt>
      <trkpt lat="42.4521190" lon="-3.0049610">
        <ele>663.4</ele>
        <time>2022-08-29T08:23:51Z</time>
      </trkpt>
      <trkpt lat="42.4521420" lon="-3.0050110">
        <ele>663.4</ele>
        <time>2022-08-29T08:23:52Z</time>
      </trkpt>
      <trkpt lat="42.4521730" lon="-3.0050490">
        <ele>663.4</ele>
        <time>2022-08-29T08:23:53Z</time>
      </trkpt>
      <trkpt lat="42.4522090" lon="-3.0050780">
        <ele>663.4</ele>
        <time>2022-08-29T08:23:54Z</time>
      </trkpt>
      <trkpt lat="42.4522440" lon="-3.0051020">
        <ele>663.4</ele>
        <time>2022-08-29T08:23:55Z</time>
      </trkpt>
      <trkpt lat="42.4522750" lon="-3.0051250">
        <ele>663.6</ele>
        <time>2022-08-29T08:23:56Z</time>
      </trkpt>
      <trkpt lat="42.4523010" lon="-3.0051500">
        <ele>663.8</ele>
        <time>2022-08-29T08:23:57Z</time>
      </trkpt>
      <trkpt lat="42.4523190" lon="-3.0051780">
        <ele>663.6</ele>
        <time>2022-08-29T08:23:58Z</time>
      </trkpt>
      <trkpt lat="42.4523310" lon="-3.0052100">
        <ele>663.8</ele>
        <time>2022-08-29T08:23:59Z</time>
      </trkpt>
      <trkpt lat="42.4523410" lon="-3.0052380">
        <ele>664.2</ele>
        <time>2022-08-29T08:24:00Z</time>
      </trkpt>
      <trkpt lat="42.4523490" lon="-3.0052660">
        <ele>664.2</ele>
        <time>2022-08-29T08:24:01Z</time>
      </trkpt>
      <trkpt lat="42.4523530" lon="-3.0052960">
        <ele>664.4</ele>
        <time>2022-08-29T08:24:02Z</time>
      </trkpt>
      <trkpt lat="42.4523550" lon="-3.0053260">
        <ele>664.4</ele>
        <time>2022-08-29T08:24:03Z</time>
      </trkpt>
      <trkpt lat="42.4523570" lon="-3.0053530">
        <ele>664.6</ele>
        <time>2022-08-29T08:24:04Z</time>
      </trkpt>
      <trkpt lat="42.4523590" lon="-3.0053830">
        <ele>664.8</ele>
        <time>2022-08-29T08:24:05Z</time>
      </trkpt>
      <trkpt lat="42.4523610" lon="-3.0054170">
        <ele>664.6</ele>
        <time>2022-08-29T08:24:06Z</time>
      </trkpt>
      <trkpt lat="42.4523610" lon="-3.0054560">
        <ele>664.8</ele>
        <time>2022-08-29T08:24:07Z</time>
      </trkpt>
      <trkpt lat="42.4523570" lon="-3.0054970">
        <ele>665.0</ele>
        <time>2022-08-29T08:24:08Z</time>
      </trkpt>
      <trkpt lat="42.4523530" lon="-3.0055390">
        <ele>665.0</ele>
        <time>2022-08-29T08:24:09Z</time>
      </trkpt>
      <trkpt lat="42.4523400" lon="-3.0055810">
        <ele>665.0</ele>
        <time>2022-08-29T08:24:10Z</time>
      </trkpt>
      <trkpt lat="42.4523220" lon="-3.0056190">
        <ele>665.2</ele>
        <time>2022-08-29T08:24:11Z</time>
      </trkpt>
      <trkpt lat="42.4523020" lon="-3.0056580">
        <ele>665.0</ele>
        <time>2022-08-29T08:24:12Z</time>
      </trkpt>
      <trkpt lat="42.4522750" lon="-3.0056940">
        <ele>665.2</ele>
        <time>2022-08-29T08:24:13Z</time>
      </trkpt>
      <trkpt lat="42.4522460" lon="-3.0057280">
        <ele>665.2</ele>
        <time>2022-08-29T08:24:14Z</time>
      </trkpt>
      <trkpt lat="42.4522150" lon="-3.0057640">
        <ele>665.2</ele>
        <time>2022-08-29T08:24:15Z</time>
      </trkpt>
      <trkpt lat="42.4521810" lon="-3.0058100">
        <ele>665.0</ele>
        <time>2022-08-29T08:24:16Z</time>
      </trkpt>
      <trkpt lat="42.4521520" lon="-3.0058610">
        <ele>665.0</ele>
        <time>2022-08-29T08:24:17Z</time>
      </trkpt>
      <trkpt lat="42.4521300" lon="-3.0059200">
        <ele>665.2</ele>
        <time>2022-08-29T08:24:18Z</time>
      </trkpt>
      <trkpt lat="42.4521160" lon="-3.0059810">
        <ele>665.2</ele>
        <time>2022-08-29T08:24:19Z</time>
      </trkpt>
      <trkpt lat="42.4521100" lon="-3.0060450">
        <ele>665.0</ele>
        <time>2022-08-29T08:24:20Z</time>
      </trkpt>
      <trkpt lat="42.4521110" lon="-3.0061100">
        <ele>665.0</ele>
        <time>2022-08-29T08:24:21Z</time>
      </trkpt>
      <trkpt lat="42.4521180" lon="-3.0061760">
        <ele>665.0</ele>
        <time>2022-08-29T08:24:22Z</time>
      </trkpt>
      <trkpt lat="42.4521260" lon="-3.0062400">
        <ele>665.0</ele>
        <time>2022-08-29T08:24:23Z</time>
      </trkpt>
      <trkpt lat="42.4521320" lon="-3.0063040">
        <ele>664.8</ele>
        <time>2022-08-29T08:24:24Z</time>
      </trkpt>
      <trkpt lat="42.4521370" lon="-3.0063670">
        <ele>664.6</ele>
        <time>2022-08-29T08:24:25Z</time>
      </trkpt>
      <trkpt lat="42.4521430" lon="-3.0064300">
        <ele>664.6</ele>
        <time>2022-08-29T08:24:26Z</time>
      </trkpt>
      <trkpt lat="42.4521500" lon="-3.0064940">
        <ele>664.6</ele>
        <time>2022-08-29T08:24:27Z</time>
      </trkpt>
      <trkpt lat="42.4521580" lon="-3.0065570">
        <ele>664.8</ele>
        <time>2022-08-29T08:24:28Z</time>
      </trkpt>
      <trkpt lat="42.4521670" lon="-3.0066200">
        <ele>664.6</ele>
        <time>2022-08-29T08:24:29Z</time>
      </trkpt>
      <trkpt lat="42.4521740" lon="-3.0066810">
        <ele>664.6</ele>
        <time>2022-08-29T08:24:30Z</time>
      </trkpt>
      <trkpt lat="42.4521810" lon="-3.0067430">
        <ele>664.6</ele>
        <time>2022-08-29T08:24:31Z</time>
      </trkpt>
      <trkpt lat="42.4521870" lon="-3.0068070">
        <ele>664.6</ele>
        <time>2022-08-29T08:24:32Z</time>
      </trkpt>
      <trkpt lat="42.4521930" lon="-3.0068710">
        <ele>664.8</ele>
        <time>2022-08-29T08:24:33Z</time>
      </trkpt>
      <trkpt lat="42.4521990" lon="-3.0069340">
        <ele>664.8</ele>
        <time>2022-08-29T08:24:34Z</time>
      </trkpt>
      <trkpt lat="42.4522050" lon="-3.0069960">
        <ele>664.8</ele>
        <time>2022-08-29T08:24:35Z</time>
      </trkpt>
      <trkpt lat="42.4522130" lon="-3.0070550">
        <ele>664.8</ele>
        <time>2022-08-29T08:24:36Z</time>
      </trkpt>
      <trkpt lat="42.4522210" lon="-3.0071130">
        <ele>664.8</ele>
        <time>2022-08-29T08:24:37Z</time>
      </trkpt>
      <trkpt lat="42.4522270" lon="-3.0071710">
        <ele>664.8</ele>
        <time>2022-08-29T08:24:38Z</time>
      </trkpt>
      <trkpt lat="42.4522320" lon="-3.0072300">
        <ele>664.8</ele>
        <time>2022-08-29T08:24:39Z</time>
      </trkpt>
      <trkpt lat="42.4522380" lon="-3.0072890">
        <ele>664.8</ele>
        <time>2022-08-29T08:24:40Z</time>
      </trkpt>
      <trkpt lat="42.4522440" lon="-3.0073460">
        <ele>664.8</ele>
        <time>2022-08-29T08:24:41Z</time>
      </trkpt>
      <trkpt lat="42.4522510" lon="-3.0074000">
        <ele>665.2</ele>
        <time>2022-08-29T08:24:42Z</time>
      </trkpt>
      <trkpt lat="42.4522580" lon="-3.0074510">
        <ele>665.4</ele>
        <time>2022-08-29T08:24:43Z</time>
      </trkpt>
      <trkpt lat="42.4522650" lon="-3.0074990">
        <ele>665.4</ele>
        <time>2022-08-29T08:24:44Z</time>
      </trkpt>
      <trkpt lat="42.4522730" lon="-3.0075430">
        <ele>665.6</ele>
        <time>2022-08-29T08:24:45Z</time>
      </trkpt>
      <trkpt lat="42.4522800" lon="-3.0075850">
        <ele>665.6</ele>
        <time>2022-08-29T08:24:46Z</time>
      </trkpt>
      <trkpt lat="42.4522850" lon="-3.0076190">
        <ele>665.6</ele>
        <time>2022-08-29T08:24:47Z</time>
      </trkpt>
      <trkpt lat="42.4522870" lon="-3.0076400">
        <ele>665.8</ele>
        <time>2022-08-29T08:24:48Z</time>
      </trkpt>
      <trkpt lat="42.4522920" lon="-3.0076500">
        <ele>666.0</ele>
        <time>2022-08-29T08:24:49Z</time>
      </trkpt>
      <trkpt lat="42.4522960" lon="-3.0076600">
        <ele>666.2</ele>
        <time>2022-08-29T08:24:50Z</time>
      </trkpt>
      <trkpt lat="42.4522960" lon="-3.0076730">
        <ele>666.2</ele>
        <time>2022-08-29T08:24:51Z</time>
      </trkpt>
      <trkpt lat="42.4522940" lon="-3.0076920">
        <ele>666.4</ele>
        <time>2022-08-29T08:24:52Z</time>
      </trkpt>
      <trkpt lat="42.4522960" lon="-3.0077130">
        <ele>666.6</ele>
        <time>2022-08-29T08:24:53Z</time>
      </trkpt>
      <trkpt lat="42.4522990" lon="-3.0077380">
        <ele>666.8</ele>
        <time>2022-08-29T08:24:54Z</time>
      </trkpt>
      <trkpt lat="42.4523010" lon="-3.0077660">
        <ele>667.0</ele>
        <time>2022-08-29T08:24:55Z</time>
      </trkpt>
      <trkpt lat="42.4523050" lon="-3.0077990">
        <ele>667.4</ele>
        <time>2022-08-29T08:24:56Z</time>
      </trkpt>
      <trkpt lat="42.4523090" lon="-3.0078350">
        <ele>667.4</ele>
        <time>2022-08-29T08:24:57Z</time>
      </trkpt>
      <trkpt lat="42.4523140" lon="-3.0078730">
        <ele>667.6</ele>
        <time>2022-08-29T08:24:58Z</time>
      </trkpt>
      <trkpt lat="42.4523190" lon="-3.0079130">
        <ele>667.6</ele>
        <time>2022-08-29T08:24:59Z</time>
      </trkpt>
      <trkpt lat="42.4523220" lon="-3.0079570">
        <ele>667.8</ele>
        <time>2022-08-29T08:25:00Z</time>
      </trkpt>
      <trkpt lat="42.4523250" lon="-3.0080040">
        <ele>667.6</ele>
        <time>2022-08-29T08:25:01Z</time>
      </trkpt>
      <trkpt lat="42.4523290" lon="-3.0080520">
        <ele>667.8</ele>
        <time>2022-08-29T08:25:02Z</time>
      </trkpt>
      <trkpt lat="42.4523350" lon="-3.0081030">
        <ele>667.8</ele>
        <time>2022-08-29T08:25:03Z</time>
      </trkpt>
      <trkpt lat="42.4523410" lon="-3.0081550">
        <ele>668.0</ele>
        <time>2022-08-29T08:25:04Z</time>
      </trkpt>
      <trkpt lat="42.4523470" lon="-3.0082060">
        <ele>667.8</ele>
        <time>2022-08-29T08:25:05Z</time>
      </trkpt>
      <trkpt lat="42.4523540" lon="-3.0082560">
        <ele>668.0</ele>
        <time>2022-08-29T08:25:06Z</time>
      </trkpt>
      <trkpt lat="42.4523610" lon="-3.0083030">
        <ele>668.0</ele>
        <time>2022-08-29T08:25:07Z</time>
      </trkpt>
      <trkpt lat="42.4523690" lon="-3.0083500">
        <ele>668.2</ele>
        <time>2022-08-29T08:25:08Z</time>
      </trkpt>
      <trkpt lat="42.4523750" lon="-3.0083960">
        <ele>668.0</ele>
        <time>2022-08-29T08:25:09Z</time>
      </trkpt>
      <trkpt lat="42.4523810" lon="-3.0084410">
        <ele>668.2</ele>
        <time>2022-08-29T08:25:10Z</time>
      </trkpt>
      <trkpt lat="42.4523860" lon="-3.0084860">
        <ele>668.6</ele>
        <time>2022-08-29T08:25:11Z</time>
      </trkpt>
      <trkpt lat="42.4523900" lon="-3.0085330">
        <ele>668.6</ele>
        <time>2022-08-29T08:25:12Z</time>
      </trkpt>
      <trkpt lat="42.4523960" lon="-3.0085780">
        <ele>669.2</ele>
        <time>2022-08-29T08:25:13Z</time>
      </trkpt>
      <trkpt lat="42.4524020" lon="-3.0086230">
        <ele>669.2</ele>
        <time>2022-08-29T08:25:14Z</time>
      </trkpt>
      <trkpt lat="42.4524070" lon="-3.0086680">
        <ele>669.2</ele>
        <time>2022-08-29T08:25:15Z</time>
      </trkpt>
      <trkpt lat="42.4524130" lon="-3.0087110">
        <ele>669.4</ele>
        <time>2022-08-29T08:25:16Z</time>
      </trkpt>
      <trkpt lat="42.4524210" lon="-3.0087530">
        <ele>669.4</ele>
        <time>2022-08-29T08:25:17Z</time>
      </trkpt>
      <trkpt lat="42.4524270" lon="-3.0087940">
        <ele>669.8</ele>
        <time>2022-08-29T08:25:18Z</time>
      </trkpt>
      <trkpt lat="42.4524320" lon="-3.0088370">
        <ele>670.0</ele>
        <time>2022-08-29T08:25:19Z</time>
      </trkpt>
      <trkpt lat="42.4524340" lon="-3.0088820">
        <ele>670.0</ele>
        <time>2022-08-29T08:25:20Z</time>
      </trkpt>
      <trkpt lat="42.4524370" lon="-3.0089280">
        <ele>670.0</ele>
        <time>2022-08-29T08:25:21Z</time>
      </trkpt>
      <trkpt lat="42.4524400" lon="-3.0089730">
        <ele>670.2</ele>
        <time>2022-08-29T08:25:22Z</time>
      </trkpt>
      <trkpt lat="42.4524440" lon="-3.0090180">
        <ele>670.6</ele>
        <time>2022-08-29T08:25:23Z</time>
      </trkpt>
      <trkpt lat="42.4524490" lon="-3.0090630">
        <ele>670.6</ele>
        <time>2022-08-29T08:25:24Z</time>
      </trkpt>
      <trkpt lat="42.4524530" lon="-3.0091070">
        <ele>670.6</ele>
        <time>2022-08-29T08:25:25Z</time>
      </trkpt>
      <trkpt lat="42.4524600" lon="-3.0091520">
        <ele>670.6</ele>
        <time>2022-08-29T08:25:26Z</time>
      </trkpt>
      <trkpt lat="42.4524690" lon="-3.0091980">
        <ele>670.6</ele>
        <time>2022-08-29T08:25:27Z</time>
      </trkpt>
      <trkpt lat="42.4524800" lon="-3.0092430">
        <ele>670.8</ele>
        <time>2022-08-29T08:25:28Z</time>
      </trkpt>
      <trkpt lat="42.4524870" lon="-3.0092890">
        <ele>670.8</ele>
        <time>2022-08-29T08:25:29Z</time>
      </trkpt>
      <trkpt lat="42.4524950" lon="-3.0093380">
        <ele>670.8</ele>
        <time>2022-08-29T08:25:30Z</time>
      </trkpt>
      <trkpt lat="42.4525000" lon="-3.0093890">
        <ele>671.2</ele>
        <time>2022-08-29T08:25:31Z</time>
      </trkpt>
      <trkpt lat="42.4525030" lon="-3.0094380">
        <ele>672.0</ele>
        <time>2022-08-29T08:25:32Z</time>
      </trkpt>
      <trkpt lat="42.4525070" lon="-3.0094870">
        <ele>672.4</ele>
        <time>2022-08-29T08:25:33Z</time>
      </trkpt>
      <trkpt lat="42.4525130" lon="-3.0095370">
        <ele>672.6</ele>
        <time>2022-08-29T08:25:34Z</time>
      </trkpt>
      <trkpt lat="42.4525170" lon="-3.0095880">
        <ele>672.8</ele>
        <time>2022-08-29T08:25:35Z</time>
      </trkpt>
      <trkpt lat="42.4525210" lon="-3.0096380">
        <ele>673.0</ele>
        <time>2022-08-29T08:25:36Z</time>
      </trkpt>
      <trkpt lat="42.4525260" lon="-3.0096880">
        <ele>673.2</ele>
        <time>2022-08-29T08:25:37Z</time>
      </trkpt>
      <trkpt lat="42.4525310" lon="-3.0097380">
        <ele>673.2</ele>
        <time>2022-08-29T08:25:38Z</time>
      </trkpt>
      <trkpt lat="42.4525350" lon="-3.0097880">
        <ele>673.2</ele>
        <time>2022-08-29T08:25:39Z</time>
      </trkpt>
      <trkpt lat="42.4525410" lon="-3.0098390">
        <ele>673.6</ele>
        <time>2022-08-29T08:25:40Z</time>
      </trkpt>
      <trkpt lat="42.4525460" lon="-3.0098910">
        <ele>673.8</ele>
        <time>2022-08-29T08:25:41Z</time>
      </trkpt>
      <trkpt lat="42.4525500" lon="-3.0099450">
        <ele>674.0</ele>
        <time>2022-08-29T08:25:42Z</time>
      </trkpt>
      <trkpt lat="42.4525550" lon="-3.0099980">
        <ele>674.4</ele>
        <time>2022-08-29T08:25:43Z</time>
      </trkpt>
      <trkpt lat="42.4525590" lon="-3.0100520">
        <ele>674.4</ele>
        <time>2022-08-29T08:25:44Z</time>
      </trkpt>
      <trkpt lat="42.4525630" lon="-3.0101050">
        <ele>674.6</ele>
        <time>2022-08-29T08:25:45Z</time>
      </trkpt>
      <trkpt lat="42.4525670" lon="-3.0101570">
        <ele>674.4</ele>
        <time>2022-08-29T08:25:46Z</time>
      </trkpt>
      <trkpt lat="42.4525730" lon="-3.0102060">
        <ele>674.4</ele>
        <time>2022-08-29T08:25:47Z</time>
      </trkpt>
      <trkpt lat="42.4525800" lon="-3.0102540">
        <ele>674.6</ele>
        <time>2022-08-29T08:25:48Z</time>
      </trkpt>
      <trkpt lat="42.4525850" lon="-3.0103000">
        <ele>674.8</ele>
        <time>2022-08-29T08:25:49Z</time>
      </trkpt>
      <trkpt lat="42.4525880" lon="-3.0103430">
        <ele>675.0</ele>
        <time>2022-08-29T08:25:50Z</time>
      </trkpt>
      <trkpt lat="42.4525900" lon="-3.0103870">
        <ele>675.0</ele>
        <time>2022-08-29T08:25:51Z</time>
      </trkpt>
      <trkpt lat="42.4525930" lon="-3.0104290">
        <ele>675.2</ele>
        <time>2022-08-29T08:25:52Z</time>
      </trkpt>
      <trkpt lat="42.4525990" lon="-3.0104720">
        <ele>675.4</ele>
        <time>2022-08-29T08:25:53Z</time>
      </trkpt>
      <trkpt lat="42.4526050" lon="-3.0105130">
        <ele>675.6</ele>
        <time>2022-08-29T08:25:54Z</time>
      </trkpt>
      <trkpt lat="42.4526110" lon="-3.0105540">
        <ele>675.8</ele>
        <time>2022-08-29T08:25:55Z</time>
      </trkpt>
      <trkpt lat="42.4526180" lon="-3.0105940">
        <ele>675.8</ele>
        <time>2022-08-29T08:25:56Z</time>
      </trkpt>
      <trkpt lat="42.4526200" lon="-3.0106340">
        <ele>675.8</ele>
        <time>2022-08-29T08:25:57Z</time>
      </trkpt>
      <trkpt lat="42.4526200" lon="-3.0106750">
        <ele>675.8</ele>
        <time>2022-08-29T08:25:58Z</time>
      </trkpt>
      <trkpt lat="42.4526220" lon="-3.0107180">
        <ele>676.0</ele>
        <time>2022-08-29T08:25:59Z</time>
      </trkpt>
      <trkpt lat="42.4526260" lon="-3.0107600">
        <ele>676.0</ele>
        <time>2022-08-29T08:26:00Z</time>
      </trkpt>
      <trkpt lat="42.4526310" lon="-3.0108010">
        <ele>676.0</ele>
        <time>2022-08-29T08:26:01Z</time>
      </trkpt>
      <trkpt lat="42.4526350" lon="-3.0108440">
        <ele>676.2</ele>
        <time>2022-08-29T08:26:02Z</time>
      </trkpt>
      <trkpt lat="42.4526390" lon="-3.0108870">
        <ele>676.2</ele>
        <time>2022-08-29T08:26:03Z</time>
      </trkpt>
      <trkpt lat="42.4526440" lon="-3.0109300">
        <ele>676.4</ele>
        <time>2022-08-29T08:26:04Z</time>
      </trkpt>
      <trkpt lat="42.4526490" lon="-3.0109730">
        <ele>676.4</ele>
        <time>2022-08-29T08:26:05Z</time>
      </trkpt>
      <trkpt lat="42.4526520" lon="-3.0110170">
        <ele>676.8</ele>
        <time>2022-08-29T08:26:06Z</time>
      </trkpt>
      <trkpt lat="42.4526540" lon="-3.0110610">
        <ele>676.8</ele>
        <time>2022-08-29T08:26:07Z</time>
      </trkpt>
      <trkpt lat="42.4526580" lon="-3.0111060">
        <ele>676.8</ele>
        <time>2022-08-29T08:26:08Z</time>
      </trkpt>
      <trkpt lat="42.4526630" lon="-3.0111510">
        <ele>677.2</ele>
        <time>2022-08-29T08:26:09Z</time>
      </trkpt>
      <trkpt lat="42.4526680" lon="-3.0111970">
        <ele>677.4</ele>
        <time>2022-08-29T08:26:10Z</time>
      </trkpt>
      <trkpt lat="42.4526720" lon="-3.0112420">
        <ele>677.8</ele>
        <time>2022-08-29T08:26:11Z</time>
      </trkpt>
      <trkpt lat="42.4526750" lon="-3.0112860">
        <ele>677.8</ele>
        <time>2022-08-29T08:26:12Z</time>
      </trkpt>
      <trkpt lat="42.4526790" lon="-3.0113290">
        <ele>677.8</ele>
        <time>2022-08-29T08:26:13Z</time>
      </trkpt>
      <trkpt lat="42.4526850" lon="-3.0113700">
        <ele>677.8</ele>
        <time>2022-08-29T08:26:14Z</time>
      </trkpt>
      <trkpt lat="42.4526910" lon="-3.0114120">
        <ele>678.0</ele>
        <time>2022-08-29T08:26:15Z</time>
      </trkpt>
      <trkpt lat="42.4526940" lon="-3.0114550">
        <ele>678.0</ele>
        <time>2022-08-29T08:26:16Z</time>
      </trkpt>
      <trkpt lat="42.4526960" lon="-3.0115000">
        <ele>678.0</ele>
        <time>2022-08-29T08:26:17Z</time>
      </trkpt>
      <trkpt lat="42.4526990" lon="-3.0115460">
        <ele>678.2</ele>
        <time>2022-08-29T08:26:18Z</time>
      </trkpt>
      <trkpt lat="42.4527030" lon="-3.0115940">
        <ele>678.2</ele>
        <time>2022-08-29T08:26:19Z</time>
      </trkpt>
      <trkpt lat="42.4527090" lon="-3.0116440">
        <ele>678.4</ele>
        <time>2022-08-29T08:26:20Z</time>
      </trkpt>
      <trkpt lat="42.4527140" lon="-3.0116940">
        <ele>678.4</ele>
        <time>2022-08-29T08:26:21Z</time>
      </trkpt>
      <trkpt lat="42.4527190" lon="-3.0117440">
        <ele>678.4</ele>
        <time>2022-08-29T08:26:22Z</time>
      </trkpt>
      <trkpt lat="42.4527230" lon="-3.0117950">
        <ele>678.6</ele>
        <time>2022-08-29T08:26:23Z</time>
      </trkpt>
      <trkpt lat="42.4527270" lon="-3.0118450">
        <ele>678.6</ele>
        <time>2022-08-29T08:26:24Z</time>
      </trkpt>
      <trkpt lat="42.4527300" lon="-3.0118940">
        <ele>678.6</ele>
        <time>2022-08-29T08:26:25Z</time>
      </trkpt>
      <trkpt lat="42.4527340" lon="-3.0119440">
        <ele>678.8</ele>
        <time>2022-08-29T08:26:26Z</time>
      </trkpt>
      <trkpt lat="42.4527390" lon="-3.0119940">
        <ele>678.8</ele>
        <time>2022-08-29T08:26:27Z</time>
      </trkpt>
      <trkpt lat="42.4527450" lon="-3.0120430">
        <ele>678.8</ele>
        <time>2022-08-29T08:26:28Z</time>
      </trkpt>
      <trkpt lat="42.4527510" lon="-3.0120930">
        <ele>678.8</ele>
        <time>2022-08-29T08:26:29Z</time>
      </trkpt>
      <trkpt lat="42.4527570" lon="-3.0121450">
        <ele>678.8</ele>
        <time>2022-08-29T08:26:30Z</time>
      </trkpt>
      <trkpt lat="42.4527630" lon="-3.0121970">
        <ele>678.8</ele>
        <time>2022-08-29T08:26:31Z</time>
      </trkpt>
      <trkpt lat="42.4527690" lon="-3.0122490">
        <ele>679.0</ele>
        <time>2022-08-29T08:26:32Z</time>
      </trkpt>
      <trkpt lat="42.4527760" lon="-3.0123010">
        <ele>679.0</ele>
        <time>2022-08-29T08:26:33Z</time>
      </trkpt>
      <trkpt lat="42.4527810" lon="-3.0123540">
        <ele>679.0</ele>
        <time>2022-08-29T08:26:34Z</time>
      </trkpt>
      <trkpt lat="42.4527850" lon="-3.0124080">
        <ele>679.2</ele>
        <time>2022-08-29T08:26:35Z</time>
      </trkpt>
      <trkpt lat="42.4527880" lon="-3.0124620">
        <ele>679.4</ele>
        <time>2022-08-29T08:26:36Z</time>
      </trkpt>
      <trkpt lat="42.4527930" lon="-3.0125150">
        <ele>679.6</ele>
        <time>2022-08-29T08:26:37Z</time>
      </trkpt>
      <trkpt lat="42.4527990" lon="-3.0125690">
        <ele>679.6</ele>
        <time>2022-08-29T08:26:38Z</time>
      </trkpt>
      <trkpt lat="42.4528070" lon="-3.0126220">
        <ele>679.6</ele>
        <time>2022-08-29T08:26:39Z</time>
      </trkpt>
      <trkpt lat="42.4528150" lon="-3.0126750">
        <ele>679.6</ele>
        <time>2022-08-29T08:26:40Z</time>
      </trkpt>
      <trkpt lat="42.4528210" lon="-3.0127300">
        <ele>679.8</ele>
        <time>2022-08-29T08:26:41Z</time>
      </trkpt>
      <trkpt lat="42.4528260" lon="-3.0127850">
        <ele>680.0</ele>
        <time>2022-08-29T08:26:42Z</time>
      </trkpt>
      <trkpt lat="42.4528310" lon="-3.0128390">
        <ele>680.2</ele>
        <time>2022-08-29T08:26:43Z</time>
      </trkpt>
      <trkpt lat="42.4528370" lon="-3.0128950">
        <ele>680.2</ele>
        <time>2022-08-29T08:26:44Z</time>
      </trkpt>
      <trkpt lat="42.4528410" lon="-3.0129510">
        <ele>680.4</ele>
        <time>2022-08-29T08:26:45Z</time>
      </trkpt>
      <trkpt lat="42.4528450" lon="-3.0130090">
        <ele>680.2</ele>
        <time>2022-08-29T08:26:46Z</time>
      </trkpt>
      <trkpt lat="42.4528500" lon="-3.0130660">
        <ele>680.6</ele>
        <time>2022-08-29T08:26:47Z</time>
      </trkpt>
      <trkpt lat="42.4528550" lon="-3.0131240">
        <ele>680.6</ele>
        <time>2022-08-29T08:26:48Z</time>
      </trkpt>
      <trkpt lat="42.4528600" lon="-3.0131810">
        <ele>680.6</ele>
        <time>2022-08-29T08:26:49Z</time>
      </trkpt>
      <trkpt lat="42.4528660" lon="-3.0132370">
        <ele>680.6</ele>
        <time>2022-08-29T08:26:50Z</time>
      </trkpt>
      <trkpt lat="42.4528710" lon="-3.0132930">
        <ele>680.6</ele>
        <time>2022-08-29T08:26:51Z</time>
      </trkpt>
      <trkpt lat="42.4528750" lon="-3.0133490">
        <ele>680.6</ele>
        <time>2022-08-29T08:26:52Z</time>
      </trkpt>
      <trkpt lat="42.4528780" lon="-3.0134020">
        <ele>680.6</ele>
        <time>2022-08-29T08:26:53Z</time>
      </trkpt>
      <trkpt lat="42.4528820" lon="-3.0134560">
        <ele>680.8</ele>
        <time>2022-08-29T08:26:54Z</time>
      </trkpt>
      <trkpt lat="42.4528850" lon="-3.0135090">
        <ele>681.0</ele>
        <time>2022-08-29T08:26:55Z</time>
      </trkpt>
      <trkpt lat="42.4528900" lon="-3.0135620">
        <ele>681.0</ele>
        <time>2022-08-29T08:26:56Z</time>
      </trkpt>
      <trkpt lat="42.4528960" lon="-3.0136170">
        <ele>681.0</ele>
        <time>2022-08-29T08:26:57Z</time>
      </trkpt>
      <trkpt lat="42.4529000" lon="-3.0136730">
        <ele>681.2</ele>
        <time>2022-08-29T08:26:58Z</time>
      </trkpt>
      <trkpt lat="42.4529030" lon="-3.0137300">
        <ele>681.2</ele>
        <time>2022-08-29T08:26:59Z</time>
      </trkpt>
      <trkpt lat="42.4529050" lon="-3.0137850">
        <ele>681.2</ele>
        <time>2022-08-29T08:27:00Z</time>
      </trkpt>
      <trkpt lat="42.4529090" lon="-3.0138400">
        <ele>681.6</ele>
        <time>2022-08-29T08:27:01Z</time>
      </trkpt>
      <trkpt lat="42.4529130" lon="-3.0138940">
        <ele>681.6</ele>
        <time>2022-08-29T08:27:02Z</time>
      </trkpt>
      <trkpt lat="42.4529170" lon="-3.0139460">
        <ele>681.8</ele>
        <time>2022-08-29T08:27:03Z</time>
      </trkpt>
      <trkpt lat="42.4529190" lon="-3.0139990">
        <ele>681.8</ele>
        <time>2022-08-29T08:27:04Z</time>
      </trkpt>
      <trkpt lat="42.4529220" lon="-3.0140520">
        <ele>682.0</ele>
        <time>2022-08-29T08:27:05Z</time>
      </trkpt>
      <trkpt lat="42.4529270" lon="-3.0141040">
        <ele>682.0</ele>
        <time>2022-08-29T08:27:06Z</time>
      </trkpt>
      <trkpt lat="42.4529310" lon="-3.0141570">
        <ele>682.2</ele>
        <time>2022-08-29T08:27:07Z</time>
      </trkpt>
      <trkpt lat="42.4529370" lon="-3.0142090">
        <ele>682.4</ele>
        <time>2022-08-29T08:27:08Z</time>
      </trkpt>
      <trkpt lat="42.4529430" lon="-3.0142600">
        <ele>682.6</ele>
        <time>2022-08-29T08:27:09Z</time>
      </trkpt>
      <trkpt lat="42.4529480" lon="-3.0143120">
        <ele>682.6</ele>
        <time>2022-08-29T08:27:10Z</time>
      </trkpt>
      <trkpt lat="42.4529520" lon="-3.0143640">
        <ele>682.6</ele>
        <time>2022-08-29T08:27:11Z</time>
      </trkpt>
      <trkpt lat="42.4529560" lon="-3.0144170">
        <ele>682.6</ele>
        <time>2022-08-29T08:27:12Z</time>
      </trkpt>
      <trkpt lat="42.4529610" lon="-3.0144690">
        <ele>682.6</ele>
        <time>2022-08-29T08:27:13Z</time>
      </trkpt>
      <trkpt lat="42.4529660" lon="-3.0145210">
        <ele>682.8</ele>
        <time>2022-08-29T08:27:14Z</time>
      </trkpt>
      <trkpt lat="42.4529710" lon="-3.0145730">
        <ele>682.6</ele>
        <time>2022-08-29T08:27:15Z</time>
      </trkpt>
      <trkpt lat="42.4529770" lon="-3.0146250">
        <ele>682.8</ele>
        <time>2022-08-29T08:27:16Z</time>
      </trkpt>
      <trkpt lat="42.4529810" lon="-3.0146780">
        <ele>683.0</ele>
        <time>2022-08-29T08:27:17Z</time>
      </trkpt>
      <trkpt lat="42.4529850" lon="-3.0147310">
        <ele>682.8</ele>
        <time>2022-08-29T08:27:18Z</time>
      </trkpt>
      <trkpt lat="42.4529890" lon="-3.0147820">
        <ele>683.0</ele>
        <time>2022-08-29T08:27:19Z</time>
      </trkpt>
      <trkpt lat="42.4529920" lon="-3.0148330">
        <ele>683.0</ele>
        <time>2022-08-29T08:27:20Z</time>
      </trkpt>
      <trkpt lat="42.4529930" lon="-3.0148820">
        <ele>683.0</ele>
        <time>2022-08-29T08:27:21Z</time>
      </trkpt>
      <trkpt lat="42.4529940" lon="-3.0149310">
        <ele>683.2</ele>
        <time>2022-08-29T08:27:22Z</time>
      </trkpt>
      <trkpt lat="42.4529970" lon="-3.0149800">
        <ele>683.4</ele>
        <time>2022-08-29T08:27:23Z</time>
      </trkpt>
      <trkpt lat="42.4530010" lon="-3.0150290">
        <ele>683.6</ele>
        <time>2022-08-29T08:27:24Z</time>
      </trkpt>
      <trkpt lat="42.4530070" lon="-3.0150770">
        <ele>684.0</ele>
        <time>2022-08-29T08:27:25Z</time>
      </trkpt>
      <trkpt lat="42.4530140" lon="-3.0151260">
        <ele>683.8</ele>
        <time>2022-08-29T08:27:26Z</time>
      </trkpt>
      <trkpt lat="42.4530210" lon="-3.0151750">
        <ele>684.0</ele>
        <time>2022-08-29T08:27:27Z</time>
      </trkpt>
      <trkpt lat="42.4530260" lon="-3.0152240">
        <ele>684.0</ele>
        <time>2022-08-29T08:27:28Z</time>
      </trkpt>
      <trkpt lat="42.4530290" lon="-3.0152750">
        <ele>684.0</ele>
        <time>2022-08-29T08:27:29Z</time>
      </trkpt>
      <trkpt lat="42.4530320" lon="-3.0153250">
        <ele>684.4</ele>
        <time>2022-08-29T08:27:30Z</time>
      </trkpt>
      <trkpt lat="42.4530370" lon="-3.0153750">
        <ele>684.4</ele>
        <time>2022-08-29T08:27:31Z</time>
      </trkpt>
      <trkpt lat="42.4530430" lon="-3.0154270">
        <ele>684.4</ele>
        <time>2022-08-29T08:27:32Z</time>
      </trkpt>
      <trkpt lat="42.4530460" lon="-3.0154790">
        <ele>684.6</ele>
        <time>2022-08-29T08:27:33Z</time>
      </trkpt>
      <trkpt lat="42.4530480" lon="-3.0155310">
        <ele>684.6</ele>
        <time>2022-08-29T08:27:34Z</time>
      </trkpt>
      <trkpt lat="42.4530530" lon="-3.0155830">
        <ele>684.6</ele>
        <time>2022-08-29T08:27:35Z</time>
      </trkpt>
      <trkpt lat="42.4530570" lon="-3.0156340">
        <ele>684.8</ele>
        <time>2022-08-29T08:27:36Z</time>
      </trkpt>
      <trkpt lat="42.4530590" lon="-3.0156840">
        <ele>684.8</ele>
        <time>2022-08-29T08:27:37Z</time>
      </trkpt>
      <trkpt lat="42.4530630" lon="-3.0157320">
        <ele>685.0</ele>
        <time>2022-08-29T08:27:38Z</time>
      </trkpt>
      <trkpt lat="42.4530690" lon="-3.0157800">
        <ele>684.8</ele>
        <time>2022-08-29T08:27:39Z</time>
      </trkpt>
      <trkpt lat="42.4530750" lon="-3.0158250">
        <ele>685.0</ele>
        <time>2022-08-29T08:27:40Z</time>
      </trkpt>
      <trkpt lat="42.4530790" lon="-3.0158710">
        <ele>684.8</ele>
        <time>2022-08-29T08:27:41Z</time>
      </trkpt>
      <trkpt lat="42.4530810" lon="-3.0159140">
        <ele>685.0</ele>
        <time>2022-08-29T08:27:42Z</time>
      </trkpt>
      <trkpt lat="42.4530810" lon="-3.0159570">
        <ele>685.0</ele>
        <time>2022-08-29T08:27:43Z</time>
      </trkpt>
      <trkpt lat="42.4530820" lon="-3.0160010">
        <ele>685.4</ele>
        <time>2022-08-29T08:27:44Z</time>
      </trkpt>
      <trkpt lat="42.4530840" lon="-3.0160450">
        <ele>685.6</ele>
        <time>2022-08-29T08:27:45Z</time>
      </trkpt>
      <trkpt lat="42.4530870" lon="-3.0160870">
        <ele>685.6</ele>
        <time>2022-08-29T08:27:46Z</time>
      </trkpt>
      <trkpt lat="42.4530890" lon="-3.0161300">
        <ele>685.8</ele>
        <time>2022-08-29T08:27:47Z</time>
      </trkpt>
      <trkpt lat="42.4530890" lon="-3.0161720">
        <ele>685.8</ele>
        <time>2022-08-29T08:27:48Z</time>
      </trkpt>
      <trkpt lat="42.4530880" lon="-3.0162120">
        <ele>685.8</ele>
        <time>2022-08-29T08:27:49Z</time>
      </trkpt>
      <trkpt lat="42.4530870" lon="-3.0162500">
        <ele>686.0</ele>
        <time>2022-08-29T08:27:50Z</time>
      </trkpt>
      <trkpt lat="42.4530850" lon="-3.0162870">
        <ele>686.0</ele>
        <time>2022-08-29T08:27:51Z</time>
      </trkpt>
      <trkpt lat="42.4530820" lon="-3.0163250">
        <ele>686.0</ele>
        <time>2022-08-29T08:27:52Z</time>
      </trkpt>
      <trkpt lat="42.4530810" lon="-3.0163620">
        <ele>686.0</ele>
        <time>2022-08-29T08:27:53Z</time>
      </trkpt>
      <trkpt lat="42.4530800" lon="-3.0163990">
        <ele>686.0</ele>
        <time>2022-08-29T08:27:54Z</time>
      </trkpt>
      <trkpt lat="42.4530770" lon="-3.0164360">
        <ele>686.4</ele>
        <time>2022-08-29T08:27:55Z</time>
      </trkpt>
      <trkpt lat="42.4530740" lon="-3.0164700">
        <ele>686.6</ele>
        <time>2022-08-29T08:27:56Z</time>
      </trkpt>
      <trkpt lat="42.4530690" lon="-3.0165030">
        <ele>686.8</ele>
        <time>2022-08-29T08:27:57Z</time>
      </trkpt>
      <trkpt lat="42.4530640" lon="-3.0165350">
        <ele>687.4</ele>
        <time>2022-08-29T08:27:58Z</time>
      </trkpt>
      <trkpt lat="42.4530550" lon="-3.0165660">
        <ele>687.8</ele>
        <time>2022-08-29T08:27:59Z</time>
      </trkpt>
      <trkpt lat="42.4530470" lon="-3.0165970">
        <ele>688.0</ele>
        <time>2022-08-29T08:28:00Z</time>
      </trkpt>
      <trkpt lat="42.4530400" lon="-3.0166280">
        <ele>688.2</ele>
        <time>2022-08-29T08:28:01Z</time>
      </trkpt>
      <trkpt lat="42.4530350" lon="-3.0166590">
        <ele>688.4</ele>
        <time>2022-08-29T08:28:02Z</time>
      </trkpt>
      <trkpt lat="42.4530320" lon="-3.0166900">
        <ele>688.8</ele>
        <time>2022-08-29T08:28:03Z</time>
      </trkpt>
      <trkpt lat="42.4530320" lon="-3.0167220">
        <ele>689.0</ele>
        <time>2022-08-29T08:28:04Z</time>
      </trkpt>
      <trkpt lat="42.4530320" lon="-3.0167530">
        <ele>689.4</ele>
        <time>2022-08-29T08:28:05Z</time>
      </trkpt>
      <trkpt lat="42.4530280" lon="-3.0167830">
        <ele>689.8</ele>
        <time>2022-08-29T08:28:06Z</time>
      </trkpt>
      <trkpt lat="42.4530180" lon="-3.0168110">
        <ele>690.2</ele>
        <time>2022-08-29T08:28:07Z</time>
      </trkpt>
      <trkpt lat="42.4530080" lon="-3.0168390">
        <ele>690.4</ele>
        <time>2022-08-29T08:28:08Z</time>
      </trkpt>
      <trkpt lat="42.4530000" lon="-3.0168670">
        <ele>690.8</ele>
        <time>2022-08-29T08:28:09Z</time>
      </trkpt>
      <trkpt lat="42.4529940" lon="-3.0168980">
        <ele>690.8</ele>
        <time>2022-08-29T08:28:10Z</time>
      </trkpt>
      <trkpt lat="42.4529890" lon="-3.0169300">
        <ele>691.0</ele>
        <time>2022-08-29T08:28:11Z</time>
      </trkpt>
      <trkpt lat="42.4529870" lon="-3.0169600">
        <ele>691.4</ele>
        <time>2022-08-29T08:28:12Z</time>
      </trkpt>
      <trkpt lat="42.4529850" lon="-3.0169900">
        <ele>691.8</ele>
        <time>2022-08-29T08:28:13Z</time>
      </trkpt>
      <trkpt lat="42.4529860" lon="-3.0170190">
        <ele>692.0</ele>
        <time>2022-08-29T08:28:14Z</time>
      </trkpt>
      <trkpt lat="42.4529860" lon="-3.0170490">
        <ele>692.0</ele>
        <time>2022-08-29T08:28:15Z</time>
      </trkpt>
      <trkpt lat="42.4529870" lon="-3.0170780">
        <ele>692.2</ele>
        <time>2022-08-29T08:28:16Z</time>
      </trkpt>
      <trkpt lat="42.4529880" lon="-3.0171060">
        <ele>692.4</ele>
        <time>2022-08-29T08:28:17Z</time>
      </trkpt>
      <trkpt lat="42.4529890" lon="-3.0171340">
        <ele>692.6</ele>
        <time>2022-08-29T08:28:18Z</time>
      </trkpt>
      <trkpt lat="42.4529910" lon="-3.0171620">
        <ele>692.8</ele>
        <time>2022-08-29T08:28:19Z</time>
      </trkpt>
      <trkpt lat="42.4529920" lon="-3.0171860">
        <ele>693.0</ele>
        <time>2022-08-29T08:28:20Z</time>
      </trkpt>
      <trkpt lat="42.4529930" lon="-3.0172130">
        <ele>693.0</ele>
        <time>2022-08-29T08:28:21Z</time>
      </trkpt>
      <trkpt lat="42.4529920" lon="-3.0172390">
        <ele>693.2</ele>
        <time>2022-08-29T08:28:22Z</time>
      </trkpt>
      <trkpt lat="42.4529870" lon="-3.0172650">
        <ele>693.4</ele>
        <time>2022-08-29T08:28:23Z</time>
      </trkpt>
      <trkpt lat="42.4529760" lon="-3.0172930">
        <ele>693.6</ele>
        <time>2022-08-29T08:28:24Z</time>
      </trkpt>
      <trkpt lat="42.4529600" lon="-3.0173210">
        <ele>693.8</ele>
        <time>2022-08-29T08:28:25Z</time>
      </trkpt>
      <trkpt lat="42.4529400" lon="-3.0173480">
        <ele>694.0</ele>
        <time>2022-08-29T08:28:26Z</time>
      </trkpt>
      <trkpt lat="42.4529200" lon="-3.0173750">
        <ele>694.2</ele>
        <time>2022-08-29T08:28:27Z</time>
      </trkpt>
      <trkpt lat="42.4528980" lon="-3.0174040">
        <ele>694.4</ele>
        <time>2022-08-29T08:28:28Z</time>
      </trkpt>
      <trkpt lat="42.4528750" lon="-3.0174400">
        <ele>694.4</ele>
        <time>2022-08-29T08:28:29Z</time>
      </trkpt>
      <trkpt lat="42.4528510" lon="-3.0174800">
        <ele>694.6</ele>
        <time>2022-08-29T08:28:30Z</time>
      </trkpt>
      <trkpt lat="42.4528230" lon="-3.0175250">
        <ele>694.6</ele>
        <time>2022-08-29T08:28:31Z</time>
      </trkpt>
      <trkpt lat="42.4527910" lon="-3.0175780">
        <ele>694.6</ele>
        <time>2022-08-29T08:28:32Z</time>
      </trkpt>
      <trkpt lat="42.4527640" lon="-3.0176410">
        <ele>694.6</ele>
        <time>2022-08-29T08:28:33Z</time>
      </trkpt>
      <trkpt lat="42.4527350" lon="-3.0177130">
        <ele>694.6</ele>
        <time>2022-08-29T08:28:34Z</time>
      </trkpt>
      <trkpt lat="42.4527100" lon="-3.0177960">
        <ele>694.4</ele>
        <time>2022-08-29T08:28:35Z</time>
      </trkpt>
      <trkpt lat="42.4526920" lon="-3.0178870">
        <ele>694.6</ele>
        <time>2022-08-29T08:28:36Z</time>
      </trkpt>
      <trkpt lat="42.4526780" lon="-3.0179840">
        <ele>694.6</ele>
        <time>2022-08-29T08:28:37Z</time>
      </trkpt>
      <trkpt lat="42.4526620" lon="-3.0180870">
        <ele>694.6</ele>
        <time>2022-08-29T08:28:38Z</time>
      </trkpt>
      <trkpt lat="42.4526460" lon="-3.0181900">
        <ele>694.6</ele>
        <time>2022-08-29T08:28:39Z</time>
      </trkpt>
      <trkpt lat="42.4526290" lon="-3.0182900">
        <ele>694.2</ele>
        <time>2022-08-29T08:28:40Z</time>
      </trkpt>
      <trkpt lat="42.4526120" lon="-3.0183860">
        <ele>693.6</ele>
        <time>2022-08-29T08:28:41Z</time>
      </trkpt>
      <trkpt lat="42.4525970" lon="-3.0184790">
        <ele>693.2</ele>
        <time>2022-08-29T08:28:42Z</time>
      </trkpt>
      <trkpt lat="42.4525830" lon="-3.0185700">
        <ele>692.4</ele>
        <time>2022-08-29T08:28:43Z</time>
      </trkpt>
      <trkpt lat="42.4525710" lon="-3.0186580">
        <ele>691.6</ele>
        <time>2022-08-29T08:28:44Z</time>
      </trkpt>
      <trkpt lat="42.4525560" lon="-3.0187430">
        <ele>691.0</ele>
        <time>2022-08-29T08:28:45Z</time>
      </trkpt>
      <trkpt lat="42.4525410" lon="-3.0188240">
        <ele>690.8</ele>
        <time>2022-08-29T08:28:46Z</time>
      </trkpt>
      <trkpt lat="42.4525260" lon="-3.0189040">
        <ele>690.6</ele>
        <time>2022-08-29T08:28:47Z</time>
      </trkpt>
      <trkpt lat="42.4525120" lon="-3.0189820">
        <ele>690.4</ele>
        <time>2022-08-29T08:28:48Z</time>
      </trkpt>
      <trkpt lat="42.4524980" lon="-3.0190570">
        <ele>690.4</ele>
        <time>2022-08-29T08:28:49Z</time>
      </trkpt>
      <trkpt lat="42.4524840" lon="-3.0191290">
        <ele>690.4</ele>
        <time>2022-08-29T08:28:50Z</time>
      </trkpt>
      <trkpt lat="42.4524720" lon="-3.0192000">
        <ele>690.2</ele>
        <time>2022-08-29T08:28:51Z</time>
      </trkpt>
      <trkpt lat="42.4524580" lon="-3.0192680">
        <ele>690.4</ele>
        <time>2022-08-29T08:28:52Z</time>
      </trkpt>
      <trkpt lat="42.4524450" lon="-3.0193330">
        <ele>690.2</ele>
        <time>2022-08-29T08:28:53Z</time>
      </trkpt>
      <trkpt lat="42.4524310" lon="-3.0193970">
        <ele>690.4</ele>
        <time>2022-08-29T08:28:54Z</time>
      </trkpt>
      <trkpt lat="42.4524180" lon="-3.0194600">
        <ele>690.6</ele>
        <time>2022-08-29T08:28:55Z</time>
      </trkpt>
      <trkpt lat="42.4524050" lon="-3.0195210">
        <ele>690.6</ele>
        <time>2022-08-29T08:28:56Z</time>
      </trkpt>
      <trkpt lat="42.4523940" lon="-3.0195820">
        <ele>691.0</ele>
        <time>2022-08-29T08:28:57Z</time>
      </trkpt>
      <trkpt lat="42.4523840" lon="-3.0196400">
        <ele>691.2</ele>
        <time>2022-08-29T08:28:58Z</time>
      </trkpt>
      <trkpt lat="42.4523730" lon="-3.0196990">
        <ele>691.4</ele>
        <time>2022-08-29T08:28:59Z</time>
      </trkpt>
      <trkpt lat="42.4523640" lon="-3.0197570">
        <ele>691.8</ele>
        <time>2022-08-29T08:29:00Z</time>
      </trkpt>
      <trkpt lat="42.4523560" lon="-3.0198160">
        <ele>691.8</ele>
        <time>2022-08-29T08:29:01Z</time>
      </trkpt>
      <trkpt lat="42.4523510" lon="-3.0198740">
        <ele>692.0</ele>
        <time>2022-08-29T08:29:02Z</time>
      </trkpt>
      <trkpt lat="42.4523450" lon="-3.0199330">
        <ele>692.0</ele>
        <time>2022-08-29T08:29:03Z</time>
      </trkpt>
      <trkpt lat="42.4523380" lon="-3.0199910">
        <ele>692.0</ele>
        <time>2022-08-29T08:29:04Z</time>
      </trkpt>
      <trkpt lat="42.4523300" lon="-3.0200480">
        <ele>692.0</ele>
        <time>2022-08-29T08:29:05Z</time>
      </trkpt>
      <trkpt lat="42.4523210" lon="-3.0201050">
        <ele>692.2</ele>
        <time>2022-08-29T08:29:06Z</time>
      </trkpt>
      <trkpt lat="42.4523100" lon="-3.0201600">
        <ele>692.4</ele>
        <time>2022-08-29T08:29:07Z</time>
      </trkpt>
      <trkpt lat="42.4522980" lon="-3.0202140">
        <ele>692.6</ele>
        <time>2022-08-29T08:29:08Z</time>
      </trkpt>
      <trkpt lat="42.4522860" lon="-3.0202680">
        <ele>693.0</ele>
        <time>2022-08-29T08:29:09Z</time>
      </trkpt>
      <trkpt lat="42.4522750" lon="-3.0203220">
        <ele>693.2</ele>
        <time>2022-08-29T08:29:10Z</time>
      </trkpt>
      <trkpt lat="42.4522640" lon="-3.0203760">
        <ele>693.2</ele>
        <time>2022-08-29T08:29:11Z</time>
      </trkpt>
      <trkpt lat="42.4522550" lon="-3.0204300">
        <ele>693.4</ele>
        <time>2022-08-29T08:29:12Z</time>
      </trkpt>
      <trkpt lat="42.4522450" lon="-3.0204830">
        <ele>693.2</ele>
        <time>2022-08-29T08:29:13Z</time>
      </trkpt>
      <trkpt lat="42.4522360" lon="-3.0205360">
        <ele>693.4</ele>
        <time>2022-08-29T08:29:14Z</time>
      </trkpt>
      <trkpt lat="42.4522280" lon="-3.0205890">
        <ele>693.6</ele>
        <time>2022-08-29T08:29:15Z</time>
      </trkpt>
      <trkpt lat="42.4522220" lon="-3.0206420">
        <ele>693.6</ele>
        <time>2022-08-29T08:29:16Z</time>
      </trkpt>
      <trkpt lat="42.4522140" lon="-3.0206950">
        <ele>693.8</ele>
        <time>2022-08-29T08:29:17Z</time>
      </trkpt>
      <trkpt lat="42.4522040" lon="-3.0207460">
        <ele>693.8</ele>
        <time>2022-08-29T08:29:18Z</time>
      </trkpt>
      <trkpt lat="42.4521940" lon="-3.0207960">
        <ele>694.0</ele>
        <time>2022-08-29T08:29:19Z</time>
      </trkpt>
      <trkpt lat="42.4521850" lon="-3.0208460">
        <ele>694.4</ele>
        <time>2022-08-29T08:29:20Z</time>
      </trkpt>
      <trkpt lat="42.4521770" lon="-3.0208950">
        <ele>694.6</ele>
        <time>2022-08-29T08:29:21Z</time>
      </trkpt>
      <trkpt lat="42.4521670" lon="-3.0209440">
        <ele>694.8</ele>
        <time>2022-08-29T08:29:22Z</time>
      </trkpt>
      <trkpt lat="42.4521590" lon="-3.0209920">
        <ele>694.8</ele>
        <time>2022-08-29T08:29:23Z</time>
      </trkpt>
      <trkpt lat="42.4521520" lon="-3.0210400">
        <ele>695.0</ele>
        <time>2022-08-29T08:29:24Z</time>
      </trkpt>
      <trkpt lat="42.4521450" lon="-3.0210890">
        <ele>695.0</ele>
        <time>2022-08-29T08:29:25Z</time>
      </trkpt>
      <trkpt lat="42.4521370" lon="-3.0211370">
        <ele>695.0</ele>
        <time>2022-08-29T08:29:26Z</time>
      </trkpt>
      <trkpt lat="42.4521300" lon="-3.0211850">
        <ele>695.0</ele>
        <time>2022-08-29T08:29:27Z</time>
      </trkpt>
      <trkpt lat="42.4521230" lon="-3.0212320">
        <ele>695.2</ele>
        <time>2022-08-29T08:29:28Z</time>
      </trkpt>
      <trkpt lat="42.4521160" lon="-3.0212770">
        <ele>695.0</ele>
        <time>2022-08-29T08:29:29Z</time>
      </trkpt>
      <trkpt lat="42.4521080" lon="-3.0213200">
        <ele>695.4</ele>
        <time>2022-08-29T08:29:30Z</time>
      </trkpt>
      <trkpt lat="42.4520990" lon="-3.0213620">
        <ele>695.8</ele>
        <time>2022-08-29T08:29:31Z</time>
      </trkpt>
      <trkpt lat="42.4520910" lon="-3.0214030">
        <ele>695.8</ele>
        <time>2022-08-29T08:29:32Z</time>
      </trkpt>
      <trkpt lat="42.4520820" lon="-3.0214420">
        <ele>696.0</ele>
        <time>2022-08-29T08:29:33Z</time>
      </trkpt>
      <trkpt lat="42.4520730" lon="-3.0214800">
        <ele>696.2</ele>
        <time>2022-08-29T08:29:34Z</time>
      </trkpt>
      <trkpt lat="42.4520650" lon="-3.0215190">
        <ele>696.2</ele>
        <time>2022-08-29T08:29:35Z</time>
      </trkpt>
      <trkpt lat="42.4520570" lon="-3.0215580">
        <ele>696.4</ele>
        <time>2022-08-29T08:29:36Z</time>
      </trkpt>
      <trkpt lat="42.4520510" lon="-3.0215970">
        <ele>696.6</ele>
        <time>2022-08-29T08:29:37Z</time>
      </trkpt>
      <trkpt lat="42.4520470" lon="-3.0216380">
        <ele>696.6</ele>
        <time>2022-08-29T08:29:38Z</time>
      </trkpt>
      <trkpt lat="42.4520420" lon="-3.0216790">
        <ele>696.8</ele>
        <time>2022-08-29T08:29:39Z</time>
      </trkpt>
      <trkpt lat="42.4520360" lon="-3.0217210">
        <ele>697.0</ele>
        <time>2022-08-29T08:29:40Z</time>
      </trkpt>
      <trkpt lat="42.4520310" lon="-3.0217630">
        <ele>697.2</ele>
        <time>2022-08-29T08:29:41Z</time>
      </trkpt>
      <trkpt lat="42.4520250" lon="-3.0218060">
        <ele>697.6</ele>
        <time>2022-08-29T08:29:42Z</time>
      </trkpt>
      <trkpt lat="42.4520160" lon="-3.0218490">
        <ele>697.8</ele>
        <time>2022-08-29T08:29:43Z</time>
      </trkpt>
      <trkpt lat="42.4520060" lon="-3.0218910">
        <ele>697.8</ele>
        <time>2022-08-29T08:29:44Z</time>
      </trkpt>
      <trkpt lat="42.4519990" lon="-3.0219330">
        <ele>698.2</ele>
        <time>2022-08-29T08:29:45Z</time>
      </trkpt>
      <trkpt lat="42.4519910" lon="-3.0219740">
        <ele>698.2</ele>
        <time>2022-08-29T08:29:46Z</time>
      </trkpt>
      <trkpt lat="42.4519820" lon="-3.0220140">
        <ele>698.4</ele>
        <time>2022-08-29T08:29:47Z</time>
      </trkpt>
      <trkpt lat="42.4519740" lon="-3.0220540">
        <ele>698.6</ele>
        <time>2022-08-29T08:29:48Z</time>
      </trkpt>
      <trkpt lat="42.4519650" lon="-3.0220930">
        <ele>698.6</ele>
        <time>2022-08-29T08:29:49Z</time>
      </trkpt>
      <trkpt lat="42.4519580" lon="-3.0221330">
        <ele>698.6</ele>
        <time>2022-08-29T08:29:50Z</time>
      </trkpt>
      <trkpt lat="42.4519510" lon="-3.0221740">
        <ele>699.0</ele>
        <time>2022-08-29T08:29:51Z</time>
      </trkpt>
      <trkpt lat="42.4519450" lon="-3.0222140">
        <ele>699.0</ele>
        <time>2022-08-29T08:29:52Z</time>
      </trkpt>
      <trkpt lat="42.4519390" lon="-3.0222540">
        <ele>699.2</ele>
        <time>2022-08-29T08:29:53Z</time>
      </trkpt>
      <trkpt lat="42.4519330" lon="-3.0222930">
        <ele>699.4</ele>
        <time>2022-08-29T08:29:54Z</time>
      </trkpt>
      <trkpt lat="42.4519260" lon="-3.0223320">
        <ele>699.6</ele>
        <time>2022-08-29T08:29:55Z</time>
      </trkpt>
      <trkpt lat="42.4519190" lon="-3.0223700">
        <ele>699.6</ele>
        <time>2022-08-29T08:29:56Z</time>
      </trkpt>
      <trkpt lat="42.4519100" lon="-3.0224050">
        <ele>699.8</ele>
        <time>2022-08-29T08:29:57Z</time>
      </trkpt>
      <trkpt lat="42.4519000" lon="-3.0224380">
        <ele>700.2</ele>
        <time>2022-08-29T08:29:58Z</time>
      </trkpt>
      <trkpt lat="42.4518910" lon="-3.0224700">
        <ele>700.4</ele>
        <time>2022-08-29T08:29:59Z</time>
      </trkpt>
      <trkpt lat="42.4518860" lon="-3.0225040">
        <ele>700.6</ele>
        <time>2022-08-29T08:30:00Z</time>
      </trkpt>
      <trkpt lat="42.4518860" lon="-3.0225390">
        <ele>700.8</ele>
        <time>2022-08-29T08:30:01Z</time>
      </trkpt>
      <trkpt lat="42.4518840" lon="-3.0225740">
        <ele>700.8</ele>
        <time>2022-08-29T08:30:02Z</time>
      </trkpt>
      <trkpt lat="42.4518780" lon="-3.0226100">
        <ele>701.2</ele>
        <time>2022-08-29T08:30:03Z</time>
      </trkpt>
      <trkpt lat="42.4518720" lon="-3.0226460">
        <ele>701.4</ele>
        <time>2022-08-29T08:30:04Z</time>
      </trkpt>
      <trkpt lat="42.4518660" lon="-3.0226840">
        <ele>701.4</ele>
        <time>2022-08-29T08:30:05Z</time>
      </trkpt>
      <trkpt lat="42.4518600" lon="-3.0227200">
        <ele>701.6</ele>
        <time>2022-08-29T08:30:06Z</time>
      </trkpt>
      <trkpt lat="42.4518530" lon="-3.0227570">
        <ele>701.6</ele>
        <time>2022-08-29T08:30:07Z</time>
      </trkpt>
      <trkpt lat="42.4518470" lon="-3.0227930">
        <ele>702.0</ele>
        <time>2022-08-29T08:30:08Z</time>
      </trkpt>
      <trkpt lat="42.4518390" lon="-3.0228280">
        <ele>702.2</ele>
        <time>2022-08-29T08:30:09Z</time>
      </trkpt>
      <trkpt lat="42.4518310" lon="-3.0228630">
        <ele>702.4</ele>
        <time>2022-08-29T08:30:10Z</time>
      </trkpt>
      <trkpt lat="42.4518240" lon="-3.0228970">
        <ele>702.8</ele>
        <time>2022-08-29T08:30:11Z</time>
      </trkpt>
      <trkpt lat="42.4518190" lon="-3.0229310">
        <ele>702.8</ele>
        <time>2022-08-29T08:30:12Z</time>
      </trkpt>
      <trkpt lat="42.4518140" lon="-3.0229660">
        <ele>703.0</ele>
        <time>2022-08-29T08:30:13Z</time>
      </trkpt>
      <trkpt lat="42.4518090" lon="-3.0229980">
        <ele>703.0</ele>
        <time>2022-08-29T08:30:14Z</time>
      </trkpt>
      <trkpt lat="42.4518030" lon="-3.0230290">
        <ele>703.2</ele>
        <time>2022-08-29T08:30:15Z</time>
      </trkpt>
      <trkpt lat="42.4517970" lon="-3.0230600">
        <ele>703.4</ele>
        <time>2022-08-29T08:30:16Z</time>
      </trkpt>
      <trkpt lat="42.4517930" lon="-3.0230910">
        <ele>703.6</ele>
        <time>2022-08-29T08:30:17Z</time>
      </trkpt>
      <trkpt lat="42.4517890" lon="-3.0231200">
        <ele>703.6</ele>
        <time>2022-08-29T08:30:18Z</time>
      </trkpt>
      <trkpt lat="42.4517830" lon="-3.0231500">
        <ele>703.8</ele>
        <time>2022-08-29T08:30:19Z</time>
      </trkpt>
      <trkpt lat="42.4517770" lon="-3.0231780">
        <ele>704.0</ele>
        <time>2022-08-29T08:30:20Z</time>
      </trkpt>
      <trkpt lat="42.4517700" lon="-3.0232060">
        <ele>704.4</ele>
        <time>2022-08-29T08:30:21Z</time>
      </trkpt>
      <trkpt lat="42.4517640" lon="-3.0232330">
        <ele>704.4</ele>
        <time>2022-08-29T08:30:22Z</time>
      </trkpt>
      <trkpt lat="42.4517610" lon="-3.0232590">
        <ele>704.6</ele>
        <time>2022-08-29T08:30:23Z</time>
      </trkpt>
      <trkpt lat="42.4517580" lon="-3.0232850">
        <ele>704.8</ele>
        <time>2022-08-29T08:30:24Z</time>
      </trkpt>
      <trkpt lat="42.4517540" lon="-3.0233110">
        <ele>705.0</ele>
        <time>2022-08-29T08:30:25Z</time>
      </trkpt>
      <trkpt lat="42.4517500" lon="-3.0233370">
        <ele>705.4</ele>
        <time>2022-08-29T08:30:26Z</time>
      </trkpt>
      <trkpt lat="42.4517460" lon="-3.0233610">
        <ele>705.6</ele>
        <time>2022-08-29T08:30:27Z</time>
      </trkpt>
      <trkpt lat="42.4517420" lon="-3.0233860">
        <ele>705.8</ele>
        <time>2022-08-29T08:30:28Z</time>
      </trkpt>
      <trkpt lat="42.4517360" lon="-3.0234110">
        <ele>705.8</ele>
        <time>2022-08-29T08:30:29Z</time>
      </trkpt>
      <trkpt lat="42.4517310" lon="-3.0234370">
        <ele>706.2</ele>
        <time>2022-08-29T08:30:30Z</time>
      </trkpt>
      <trkpt lat="42.4517260" lon="-3.0234630">
        <ele>706.4</ele>
        <time>2022-08-29T08:30:31Z</time>
      </trkpt>
      <trkpt lat="42.4517210" lon="-3.0234890">
        <ele>706.6</ele>
        <time>2022-08-29T08:30:32Z</time>
      </trkpt>
      <trkpt lat="42.4517150" lon="-3.0235160">
        <ele>706.6</ele>
        <time>2022-08-29T08:30:33Z</time>
      </trkpt>
      <trkpt lat="42.4517110" lon="-3.0235420">
        <ele>706.8</ele>
        <time>2022-08-29T08:30:34Z</time>
      </trkpt>
      <trkpt lat="42.4517080" lon="-3.0235680">
        <ele>706.8</ele>
        <time>2022-08-29T08:30:35Z</time>
      </trkpt>
      <trkpt lat="42.4517040" lon="-3.0235940">
        <ele>707.2</ele>
        <time>2022-08-29T08:30:36Z</time>
      </trkpt>
      <trkpt lat="42.4517010" lon="-3.0236190">
        <ele>707.4</ele>
        <time>2022-08-29T08:30:37Z</time>
      </trkpt>
      <trkpt lat="42.4516950" lon="-3.0236430">
        <ele>707.6</ele>
        <time>2022-08-29T08:30:38Z</time>
      </trkpt>
      <trkpt lat="42.4516880" lon="-3.0236660">
        <ele>707.6</ele>
        <time>2022-08-29T08:30:39Z</time>
      </trkpt>
      <trkpt lat="42.4516830" lon="-3.0236910">
        <ele>707.6</ele>
        <time>2022-08-29T08:30:40Z</time>
      </trkpt>
      <trkpt lat="42.4516800" lon="-3.0237160">
        <ele>708.0</ele>
        <time>2022-08-29T08:30:41Z</time>
      </trkpt>
      <trkpt lat="42.4516780" lon="-3.0237410">
        <ele>708.4</ele>
        <time>2022-08-29T08:30:42Z</time>
      </trkpt>
      <trkpt lat="42.4516740" lon="-3.0237680">
        <ele>708.6</ele>
        <time>2022-08-29T08:30:43Z</time>
      </trkpt>
      <trkpt lat="42.4516690" lon="-3.0237930">
        <ele>708.8</ele>
        <time>2022-08-29T08:30:44Z</time>
      </trkpt>
      <trkpt lat="42.4516620" lon="-3.0238170">
        <ele>709.0</ele>
        <time>2022-08-29T08:30:45Z</time>
      </trkpt>
      <trkpt lat="42.4516560" lon="-3.0238420">
        <ele>709.0</ele>
        <time>2022-08-29T08:30:46Z</time>
      </trkpt>
      <trkpt lat="42.4516510" lon="-3.0238660">
        <ele>709.4</ele>
        <time>2022-08-29T08:30:47Z</time>
      </trkpt>
      <trkpt lat="42.4516460" lon="-3.0238910">
        <ele>709.6</ele>
        <time>2022-08-29T08:30:48Z</time>
      </trkpt>
      <trkpt lat="42.4516420" lon="-3.0239150">
        <ele>709.8</ele>
        <time>2022-08-29T08:30:49Z</time>
      </trkpt>
      <trkpt lat="42.4516370" lon="-3.0239400">
        <ele>710.0</ele>
        <time>2022-08-29T08:30:50Z</time>
      </trkpt>
      <trkpt lat="42.4516330" lon="-3.0239660">
        <ele>710.2</ele>
        <time>2022-08-29T08:30:51Z</time>
      </trkpt>
      <trkpt lat="42.4516280" lon="-3.0239910">
        <ele>710.2</ele>
        <time>2022-08-29T08:30:52Z</time>
      </trkpt>
      <trkpt lat="42.4516200" lon="-3.0240150">
        <ele>710.6</ele>
        <time>2022-08-29T08:30:53Z</time>
      </trkpt>
      <trkpt lat="42.4516140" lon="-3.0240410">
        <ele>710.6</ele>
        <time>2022-08-29T08:30:54Z</time>
      </trkpt>
      <trkpt lat="42.4516090" lon="-3.0240670">
        <ele>711.2</ele>
        <time>2022-08-29T08:30:55Z</time>
      </trkpt>
      <trkpt lat="42.4516050" lon="-3.0240930">
        <ele>711.2</ele>
        <time>2022-08-29T08:30:56Z</time>
      </trkpt>
      <trkpt lat="42.4516000" lon="-3.0241170">
        <ele>711.6</ele>
        <time>2022-08-29T08:30:57Z</time>
      </trkpt>
      <trkpt lat="42.4515940" lon="-3.0241410">
        <ele>711.6</ele>
        <time>2022-08-29T08:30:58Z</time>
      </trkpt>
      <trkpt lat="42.4515890" lon="-3.0241660">
        <ele>711.8</ele>
        <time>2022-08-29T08:30:59Z</time>
      </trkpt>
      <trkpt lat="42.4515870" lon="-3.0241910">
        <ele>712.0</ele>
        <time>2022-08-29T08:31:00Z</time>
      </trkpt>
      <trkpt lat="42.4515840" lon="-3.0242150">
        <ele>712.2</ele>
        <time>2022-08-29T08:31:01Z</time>
      </trkpt>
      <trkpt lat="42.4515790" lon="-3.0242390">
        <ele>712.2</ele>
        <time>2022-08-29T08:31:02Z</time>
      </trkpt>
      <trkpt lat="42.4515750" lon="-3.0242620">
        <ele>712.4</ele>
        <time>2022-08-29T08:31:03Z</time>
      </trkpt>
      <trkpt lat="42.4515720" lon="-3.0242850">
        <ele>712.6</ele>
        <time>2022-08-29T08:31:04Z</time>
      </trkpt>
      <trkpt lat="42.4515670" lon="-3.0243090">
        <ele>712.8</ele>
        <time>2022-08-29T08:31:05Z</time>
      </trkpt>
      <trkpt lat="42.4515630" lon="-3.0243330">
        <ele>712.8</ele>
        <time>2022-08-29T08:31:06Z</time>
      </trkpt>
      <trkpt lat="42.4515600" lon="-3.0243560">
        <ele>713.0</ele>
        <time>2022-08-29T08:31:07Z</time>
      </trkpt>
      <trkpt lat="42.4515580" lon="-3.0243800">
        <ele>713.2</ele>
        <time>2022-08-29T08:31:08Z</time>
      </trkpt>
      <trkpt lat="42.4515550" lon="-3.0244030">
        <ele>713.4</ele>
        <time>2022-08-29T08:31:09Z</time>
      </trkpt>
      <trkpt lat="42.4515520" lon="-3.0244260">
        <ele>713.6</ele>
        <time>2022-08-29T08:31:10Z</time>
      </trkpt>
      <trkpt lat="42.4515490" lon="-3.0244490">
        <ele>713.6</ele>
        <time>2022-08-29T08:31:11Z</time>
      </trkpt>
      <trkpt lat="42.4515450" lon="-3.0244710">
        <ele>713.6</ele>
        <time>2022-08-29T08:31:12Z</time>
      </trkpt>
      <trkpt lat="42.4515400" lon="-3.0244920">
        <ele>713.8</ele>
        <time>2022-08-29T08:31:13Z</time>
      </trkpt>
      <trkpt lat="42.4515350" lon="-3.0245140">
        <ele>714.2</ele>
        <time>2022-08-29T08:31:14Z</time>
      </trkpt>
      <trkpt lat="42.4515320" lon="-3.0245360">
        <ele>714.4</ele>
        <time>2022-08-29T08:31:15Z</time>
      </trkpt>
      <trkpt lat="42.4515280" lon="-3.0245580">
        <ele>714.6</ele>
        <time>2022-08-29T08:31:16Z</time>
      </trkpt>
      <trkpt lat="42.4515240" lon="-3.0245800">
        <ele>714.8</ele>
        <time>2022-08-29T08:31:17Z</time>
      </trkpt>
      <trkpt lat="42.4515220" lon="-3.0246020">
        <ele>715.0</ele>
        <time>2022-08-29T08:31:18Z</time>
      </trkpt>
      <trkpt lat="42.4515200" lon="-3.0246230">
        <ele>715.2</ele>
        <time>2022-08-29T08:31:19Z</time>
      </trkpt>
      <trkpt lat="42.4515180" lon="-3.0246430">
        <ele>715.4</ele>
        <time>2022-08-29T08:31:20Z</time>
      </trkpt>
      <trkpt lat="42.4515160" lon="-3.0246640">
        <ele>715.4</ele>
        <time>2022-08-29T08:31:21Z</time>
      </trkpt>
      <trkpt lat="42.4515140" lon="-3.0246840">
        <ele>715.6</ele>
        <time>2022-08-29T08:31:22Z</time>
      </trkpt>
      <trkpt lat="42.4515130" lon="-3.0247040">
        <ele>715.6</ele>
        <time>2022-08-29T08:31:23Z</time>
      </trkpt>
      <trkpt lat="42.4515160" lon="-3.0247230">
        <ele>715.6</ele>
        <time>2022-08-29T08:31:24Z</time>
      </trkpt>
      <trkpt lat="42.4515210" lon="-3.0247420">
        <ele>716.0</ele>
        <time>2022-08-29T08:31:25Z</time>
      </trkpt>
      <trkpt lat="42.4515270" lon="-3.0247600">
        <ele>716.0</ele>
        <time>2022-08-29T08:31:26Z</time>
      </trkpt>
      <trkpt lat="42.4515320" lon="-3.0247760">
        <ele>716.2</ele>
        <time>2022-08-29T08:31:27Z</time>
      </trkpt>
      <trkpt lat="42.4515350" lon="-3.0247920">
        <ele>716.4</ele>
        <time>2022-08-29T08:31:28Z</time>
      </trkpt>
      <trkpt lat="42.4515340" lon="-3.0248110">
        <ele>716.6</ele>
        <time>2022-08-29T08:31:29Z</time>
      </trkpt>
      <trkpt lat="42.4515310" lon="-3.0248260">
        <ele>716.6</ele>
        <time>2022-08-29T08:31:30Z</time>
      </trkpt>
      <trkpt lat="42.4515210" lon="-3.0248380">
        <ele>716.6</ele>
        <time>2022-08-29T08:31:31Z</time>
      </trkpt>
      <trkpt lat="42.4515070" lon="-3.0248400">
        <ele>716.8</ele>
        <time>2022-08-29T08:31:32Z</time>
      </trkpt>
      <trkpt lat="42.4514870" lon="-3.0248390">
        <ele>717.0</ele>
        <time>2022-08-29T08:31:33Z</time>
      </trkpt>
      <trkpt lat="42.4514670" lon="-3.0248380">
        <ele>717.2</ele>
        <time>2022-08-29T08:31:34Z</time>
      </trkpt>
      <trkpt lat="42.4514470" lon="-3.0248370">
        <ele>717.4</ele>
        <time>2022-08-29T08:31:35Z</time>
      </trkpt>
      <trkpt lat="42.4514300" lon="-3.0248350">
        <ele>717.4</ele>
        <time>2022-08-29T08:31:36Z</time>
      </trkpt>
      <trkpt lat="42.4514140" lon="-3.0248280">
        <ele>717.4</ele>
        <time>2022-08-29T08:31:37Z</time>
      </trkpt>
      <trkpt lat="42.4513970" lon="-3.0248200">
        <ele>717.4</ele>
        <time>2022-08-29T08:31:38Z</time>
      </trkpt>
      <trkpt lat="42.4513810" lon="-3.0248160">
        <ele>717.4</ele>
        <time>2022-08-29T08:31:39Z</time>
      </trkpt>
      <trkpt lat="42.4513780" lon="-3.0248250">
        <ele>717.6</ele>
        <time>2022-08-29T08:31:40Z</time>
      </trkpt>
      <trkpt lat="42.4513760" lon="-3.0248390">
        <ele>717.6</ele>
        <time>2022-08-29T08:31:41Z</time>
      </trkpt>
      <trkpt lat="42.4513760" lon="-3.0248520">
        <ele>717.6</ele>
        <time>2022-08-29T08:31:42Z</time>
      </trkpt>
      <trkpt lat="42.4513790" lon="-3.0248610">
        <ele>717.6</ele>
        <time>2022-08-29T08:31:43Z</time>
      </trkpt>
      <trkpt lat="42.4513830" lon="-3.0248660">
        <ele>717.6</ele>
        <time>2022-08-29T08:31:44Z</time>
      </trkpt>
      <trkpt lat="42.4513890" lon="-3.0248740">
        <ele>717.6</ele>
        <time>2022-08-29T08:31:45Z</time>
      </trkpt>
      <trkpt lat="42.4513990" lon="-3.0248810">
        <ele>717.6</ele>
        <time>2022-08-29T08:31:46Z</time>
      </trkpt>
      <trkpt lat="42.4514030" lon="-3.0248910">
        <ele>718.2</ele>
        <time>2022-08-29T08:31:47Z</time>
      </trkpt>
      <trkpt lat="42.4514000" lon="-3.0249090">
        <ele>718.2</ele>
        <time>2022-08-29T08:31:48Z</time>
      </trkpt>
      <trkpt lat="42.4513980" lon="-3.0249240">
        <ele>718.8</ele>
        <time>2022-08-29T08:31:49Z</time>
      </trkpt>
      <trkpt lat="42.4513920" lon="-3.0249370">
        <ele>719.0</ele>
        <time>2022-08-29T08:31:50Z</time>
      </trkpt>
      <trkpt lat="42.4513870" lon="-3.0249460">
        <ele>719.4</ele>
        <time>2022-08-29T08:31:51Z</time>
      </trkpt>
      <trkpt lat="42.4513790" lon="-3.0249560">
        <ele>719.6</ele>
        <time>2022-08-29T08:31:52Z</time>
      </trkpt>
      <trkpt lat="42.4513710" lon="-3.0249660">
        <ele>719.8</ele>
        <time>2022-08-29T08:31:53Z</time>
      </trkpt>
      <trkpt lat="42.4513620" lon="-3.0249720">
        <ele>720.2</ele>
        <time>2022-08-29T08:31:54Z</time>
      </trkpt>
      <trkpt lat="42.4513560" lon="-3.0249650">
        <ele>720.2</ele>
        <time>2022-08-29T08:31:55Z</time>
      </trkpt>
      <trkpt lat="42.4513540" lon="-3.0249590">
        <ele>720.2</ele>
        <time>2022-08-29T08:31:56Z</time>
      </trkpt>
      <trkpt lat="42.4513570" lon="-3.0249430">
        <ele>720.4</ele>
        <time>2022-08-29T08:31:57Z</time>
      </trkpt>
      <trkpt lat="42.4513580" lon="-3.0249300">
        <ele>720.4</ele>
        <time>2022-08-29T08:31:58Z</time>
      </trkpt>
      <trkpt lat="42.4513730" lon="-3.0249160">
        <ele>720.4</ele>
        <time>2022-08-29T08:31:59Z</time>
      </trkpt>
      <trkpt lat="42.4513930" lon="-3.0249140">
        <ele>720.4</ele>
        <time>2022-08-29T08:32:00Z</time>
      </trkpt>
      <trkpt lat="42.4514020" lon="-3.0249120">
        <ele>720.4</ele>
        <time>2022-08-29T08:32:01Z</time>
      </trkpt>
      <trkpt lat="42.4514080" lon="-3.0249140">
        <ele>720.4</ele>
        <time>2022-08-29T08:32:02Z</time>
      </trkpt>
      <trkpt lat="42.4514090" lon="-3.0249160">
        <ele>720.4</ele>
        <time>2022-08-29T08:32:03Z</time>
      </trkpt>
      <trkpt lat="42.4514080" lon="-3.0249170">
        <ele>720.4</ele>
        <time>2022-08-29T08:32:04Z</time>
      </trkpt>
      <trkpt lat="42.4514100" lon="-3.0249170">
        <ele>720.6</ele>
        <time>2022-08-29T08:32:05Z</time>
      </trkpt>
      <trkpt lat="42.4514110" lon="-3.0249160">
        <ele>720.6</ele>
        <time>2022-08-29T08:32:06Z</time>
      </trkpt>
      <trkpt lat="42.4514090" lon="-3.0249170">
        <ele>720.6</ele>
        <time>2022-08-29T08:32:07Z</time>
      </trkpt>
      <trkpt lat="42.4514080" lon="-3.0249180">
        <ele>720.6</ele>
        <time>2022-08-29T08:32:08Z</time>
      </trkpt>
      <trkpt lat="42.4514080" lon="-3.0249180">
        <ele>720.6</ele>
        <time>2022-08-29T08:32:09Z</time>
      </trkpt>
      <trkpt lat="42.4514080" lon="-3.0249180">
        <ele>720.6</ele>
        <time>2022-08-29T08:32:10Z</time>
      </trkpt>
      <trkpt lat="42.4514080" lon="-3.0249180">
        <ele>720.6</ele>
        <time>2022-08-29T08:32:11Z</time>
      </trkpt>
      <trkpt lat="42.4514080" lon="-3.0249170">
        <ele>720.6</ele>
        <time>2022-08-29T08:32:12Z</time>
      </trkpt>
      <trkpt lat="42.4514090" lon="-3.0249170">
        <ele>720.6</ele>
        <time>2022-08-29T08:32:13Z</time>
      </trkpt>
      <trkpt lat="42.4514090" lon="-3.0249180">
        <ele>720.6</ele>
        <time>2022-08-29T08:32:14Z</time>
      </trkpt>
      <trkpt lat="42.4514090" lon="-3.0249180">
        <ele>720.4</ele>
        <time>2022-08-29T08:32:15Z</time>
      </trkpt>
      <trkpt lat="42.4514090" lon="-3.0249180">
        <ele>720.6</ele>
        <time>2022-08-29T08:32:16Z</time>
      </trkpt>
      <trkpt lat="42.4514090" lon="-3.0249180">
        <ele>720.6</ele>
        <time>2022-08-29T08:32:17Z</time>
      </trkpt>
      <trkpt lat="42.4514090" lon="-3.0249170">
        <ele>720.6</ele>
        <time>2022-08-29T08:32:18Z</time>
      </trkpt>
      <trkpt lat="42.4514100" lon="-3.0249140">
        <ele>720.4</ele>
        <time>2022-08-29T08:32:19Z</time>
      </trkpt>
      <trkpt lat="42.4514100" lon="-3.0249100">
        <ele>720.6</ele>
        <time>2022-08-29T08:32:20Z</time>
      </trkpt>
      <trkpt lat="42.4514130" lon="-3.0249050">
        <ele>720.4</ele>
        <time>2022-08-29T08:32:21Z</time>
      </trkpt>
      <trkpt lat="42.4514190" lon="-3.0249010">
        <ele>720.6</ele>
        <time>2022-08-29T08:32:22Z</time>
      </trkpt>
      <trkpt lat="42.4514180" lon="-3.0249010">
        <ele>720.6</ele>
        <time>2022-08-29T08:32:23Z</time>
      </trkpt>
      <trkpt lat="42.4514200" lon="-3.0248980">
        <ele>720.6</ele>
        <time>2022-08-29T08:32:24Z</time>
      </trkpt>
      <trkpt lat="42.4514210" lon="-3.0248980">
        <ele>720.6</ele>
        <time>2022-08-29T08:32:25Z</time>
      </trkpt>
      <trkpt lat="42.4514180" lon="-3.0248990">
        <ele>720.4</ele>
        <time>2022-08-29T08:32:26Z</time>
      </trkpt>
      <trkpt lat="42.4514160" lon="-3.0249020">
        <ele>720.6</ele>
        <time>2022-08-29T08:32:27Z</time>
      </trkpt>
      <trkpt lat="42.4514170" lon="-3.0249030">
        <ele>720.6</ele>
        <time>2022-08-29T08:32:28Z</time>
      </trkpt>
      <trkpt lat="42.4514170" lon="-3.0249030">
        <ele>720.4</ele>
        <time>2022-08-29T08:32:29Z</time>
      </trkpt>
      <trkpt lat="42.4514180" lon="-3.0249040">
        <ele>720.4</ele>
        <time>2022-08-29T08:32:30Z</time>
      </trkpt>
      <trkpt lat="42.4514170" lon="-3.0249060">
        <ele>720.4</ele>
        <time>2022-08-29T08:32:31Z</time>
      </trkpt>
      <trkpt lat="42.4514170" lon="-3.0249060">
        <ele>720.4</ele>
        <time>2022-08-29T08:32:32Z</time>
      </trkpt>
      <trkpt lat="42.4514170" lon="-3.0249050">
        <ele>720.4</ele>
        <time>2022-08-29T08:32:33Z</time>
      </trkpt>
      <trkpt lat="42.4514150" lon="-3.0249050">
        <ele>720.4</ele>
        <time>2022-08-29T08:32:34Z</time>
      </trkpt>
      <trkpt lat="42.4514150" lon="-3.0249050">
        <ele>720.4</ele>
        <time>2022-08-29T08:32:35Z</time>
      </trkpt>
      <trkpt lat="42.4514150" lon="-3.0249050">
        <ele>720.4</ele>
        <time>2022-08-29T08:32:36Z</time>
      </trkpt>
      <trkpt lat="42.4514150" lon="-3.0249050">
        <ele>720.4</ele>
        <time>2022-08-29T08:32:37Z</time>
      </trkpt>
      <trkpt lat="42.4514160" lon="-3.0249060">
        <ele>720.4</ele>
        <time>2022-08-29T08:32:38Z</time>
      </trkpt>
      <trkpt lat="42.4514160" lon="-3.0249060">
        <ele>720.4</ele>
        <time>2022-08-29T08:32:39Z</time>
      </trkpt>
      <trkpt lat="42.4514160" lon="-3.0249060">
        <ele>720.4</ele>
        <time>2022-08-29T08:32:40Z</time>
      </trkpt>
      <trkpt lat="42.4514160" lon="-3.0249060">
        <ele>720.4</ele>
        <time>2022-08-29T08:32:41Z</time>
      </trkpt>
      <trkpt lat="42.4514170" lon="-3.0249060">
        <ele>720.4</ele>
        <time>2022-08-29T08:32:42Z</time>
      </trkpt>
      <trkpt lat="42.4514170" lon="-3.0249060">
        <ele>720.4</ele>
        <time>2022-08-29T08:32:43Z</time>
      </trkpt>
      <trkpt lat="42.4514170" lon="-3.0249070">
        <ele>720.4</ele>
        <time>2022-08-29T08:32:44Z</time>
      </trkpt>
      <trkpt lat="42.4514170" lon="-3.0249070">
        <ele>720.4</ele>
        <time>2022-08-29T08:32:45Z</time>
      </trkpt>
      <trkpt lat="42.4514170" lon="-3.0249070">
        <ele>720.4</ele>
        <time>2022-08-29T08:32:46Z</time>
      </trkpt>
      <trkpt lat="42.4514170" lon="-3.0249070">
        <ele>720.4</ele>
        <time>2022-08-29T08:32:47Z</time>
      </trkpt>
      <trkpt lat="42.4514170" lon="-3.0249070">
        <ele>720.4</ele>
        <time>2022-08-29T08:32:48Z</time>
      </trkpt>
      <trkpt lat="42.4514170" lon="-3.0249070">
        <ele>720.4</ele>
        <time>2022-08-29T08:32:49Z</time>
      </trkpt>
      <trkpt lat="42.4514170" lon="-3.0249070">
        <ele>720.4</ele>
        <time>2022-08-29T08:32:50Z</time>
      </trkpt>
      <trkpt lat="42.4514180" lon="-3.0249060">
        <ele>720.6</ele>
        <time>2022-08-29T08:32:51Z</time>
      </trkpt>
      <trkpt lat="42.4514170" lon="-3.0249060">
        <ele>720.6</ele>
        <time>2022-08-29T08:32:52Z</time>
      </trkpt>
      <trkpt lat="42.4514170" lon="-3.0249050">
        <ele>720.4</ele>
        <time>2022-08-29T08:32:53Z</time>
      </trkpt>
      <trkpt lat="42.4514170" lon="-3.0249050">
        <ele>720.4</ele>
        <time>2022-08-29T08:32:54Z</time>
      </trkpt>
      <trkpt lat="42.4514170" lon="-3.0249040">
        <ele>720.4</ele>
        <time>2022-08-29T08:32:55Z</time>
      </trkpt>
      <trkpt lat="42.4514170" lon="-3.0249040">
        <ele>720.4</ele>
        <time>2022-08-29T08:32:56Z</time>
      </trkpt>
      <trkpt lat="42.4514180" lon="-3.0249040">
        <ele>720.6</ele>
        <time>2022-08-29T08:32:57Z</time>
      </trkpt>
      <trkpt lat="42.4514180" lon="-3.0249040">
        <ele>720.4</ele>
        <time>2022-08-29T08:32:58Z</time>
      </trkpt>
      <trkpt lat="42.4514180" lon="-3.0249050">
        <ele>720.4</ele>
        <time>2022-08-29T08:32:59Z</time>
      </trkpt>
      <trkpt lat="42.4514180" lon="-3.0249050">
        <ele>720.4</ele>
        <time>2022-08-29T08:33:00Z</time>
      </trkpt>
      <trkpt lat="42.4514180" lon="-3.0249050">
        <ele>720.4</ele>
        <time>2022-08-29T08:33:01Z</time>
      </trkpt>
      <trkpt lat="42.4514180" lon="-3.0249050">
        <ele>720.6</ele>
        <time>2022-08-29T08:33:02Z</time>
      </trkpt>
      <trkpt lat="42.4514180" lon="-3.0249060">
        <ele>720.6</ele>
        <time>2022-08-29T08:33:03Z</time>
      </trkpt>
      <trkpt lat="42.4514180" lon="-3.0249060">
        <ele>720.6</ele>
        <time>2022-08-29T08:33:04Z</time>
      </trkpt>
      <trkpt lat="42.4514180" lon="-3.0249060">
        <ele>720.6</ele>
        <time>2022-08-29T08:33:05Z</time>
      </trkpt>
      <trkpt lat="42.4514180" lon="-3.0249060">
        <ele>720.4</ele>
        <time>2022-08-29T08:33:06Z</time>
      </trkpt>
      <trkpt lat="42.4514190" lon="-3.0249050">
        <ele>720.6</ele>
        <time>2022-08-29T08:33:07Z</time>
      </trkpt>
      <trkpt lat="42.4514190" lon="-3.0249050">
        <ele>720.4</ele>
        <time>2022-08-29T08:33:08Z</time>
      </trkpt>
      <trkpt lat="42.4514200" lon="-3.0249050">
        <ele>720.6</ele>
        <time>2022-08-29T08:33:09Z</time>
      </trkpt>
      <trkpt lat="42.4514200" lon="-3.0249050">
        <ele>720.6</ele>
        <time>2022-08-29T08:33:10Z</time>
      </trkpt>
      <trkpt lat="42.4514200" lon="-3.0249050">
        <ele>720.6</ele>
        <time>2022-08-29T08:33:11Z</time>
      </trkpt>
      <trkpt lat="42.4514200" lon="-3.0249040">
        <ele>720.6</ele>
        <time>2022-08-29T08:33:12Z</time>
      </trkpt>
      <trkpt lat="42.4514210" lon="-3.0249040">
        <ele>720.6</ele>
        <time>2022-08-29T08:33:13Z</time>
      </trkpt>
      <trkpt lat="42.4514210" lon="-3.0249040">
        <ele>720.6</ele>
        <time>2022-08-29T08:33:14Z</time>
      </trkpt>
      <trkpt lat="42.4514210" lon="-3.0249030">
        <ele>720.6</ele>
        <time>2022-08-29T08:33:15Z</time>
      </trkpt>
      <trkpt lat="42.4514210" lon="-3.0249030">
        <ele>720.8</ele>
        <time>2022-08-29T08:33:16Z</time>
      </trkpt>
      <trkpt lat="42.4514200" lon="-3.0249030">
        <ele>720.6</ele>
        <time>2022-08-29T08:33:17Z</time>
      </trkpt>
      <trkpt lat="42.4514210" lon="-3.0249030">
        <ele>720.6</ele>
        <time>2022-08-29T08:33:18Z</time>
      </trkpt>
      <trkpt lat="42.4514200" lon="-3.0249030">
        <ele>720.6</ele>
        <time>2022-08-29T08:33:19Z</time>
      </trkpt>
      <trkpt lat="42.4514200" lon="-3.0249030">
        <ele>720.6</ele>
        <time>2022-08-29T08:33:20Z</time>
      </trkpt>
      <trkpt lat="42.4514200" lon="-3.0249030">
        <ele>720.6</ele>
        <time>2022-08-29T08:33:21Z</time>
      </trkpt>
      <trkpt lat="42.4514200" lon="-3.0249030">
        <ele>720.8</ele>
        <time>2022-08-29T08:33:22Z</time>
      </trkpt>
      <trkpt lat="42.4514200" lon="-3.0249030">
        <ele>720.6</ele>
        <time>2022-08-29T08:33:23Z</time>
      </trkpt>
      <trkpt lat="42.4514200" lon="-3.0249030">
        <ele>720.6</ele>
        <time>2022-08-29T08:33:24Z</time>
      </trkpt>
      <trkpt lat="42.4514200" lon="-3.0249030">
        <ele>720.6</ele>
        <time>2022-08-29T08:33:25Z</time>
      </trkpt>
      <trkpt lat="42.4514190" lon="-3.0249030">
        <ele>720.6</ele>
        <time>2022-08-29T08:33:26Z</time>
      </trkpt>
      <trkpt lat="42.4514190" lon="-3.0249030">
        <ele>720.4</ele>
        <time>2022-08-29T08:33:27Z</time>
      </trkpt>
      <trkpt lat="42.4514190" lon="-3.0249030">
        <ele>720.2</ele>
        <time>2022-08-29T08:33:28Z</time>
      </trkpt>
      <trkpt lat="42.4514190" lon="-3.0249030">
        <ele>720.4</ele>
        <time>2022-08-29T08:33:29Z</time>
      </trkpt>
      <trkpt lat="42.4514190" lon="-3.0249030">
        <ele>720.4</ele>
        <time>2022-08-29T08:33:30Z</time>
      </trkpt>
      <trkpt lat="42.4514190" lon="-3.0249030">
        <ele>720.2</ele>
        <time>2022-08-29T08:33:31Z</time>
      </trkpt>
      <trkpt lat="42.4514200" lon="-3.0249030">
        <ele>720.4</ele>
        <time>2022-08-29T08:33:32Z</time>
      </trkpt>
      <trkpt lat="42.4514200" lon="-3.0249030">
        <ele>720.4</ele>
        <time>2022-08-29T08:33:33Z</time>
      </trkpt>
      <trkpt lat="42.4514200" lon="-3.0249030">
        <ele>720.2</ele>
        <time>2022-08-29T08:33:34Z</time>
      </trkpt>
      <trkpt lat="42.4514200" lon="-3.0249030">
        <ele>720.4</ele>
        <time>2022-08-29T08:33:35Z</time>
      </trkpt>
      <trkpt lat="42.4514200" lon="-3.0249030">
        <ele>720.4</ele>
        <time>2022-08-29T08:33:36Z</time>
      </trkpt>
      <trkpt lat="42.4514190" lon="-3.0249030">
        <ele>720.4</ele>
        <time>2022-08-29T08:33:37Z</time>
      </trkpt>
      <trkpt lat="42.4514200" lon="-3.0249030">
        <ele>720.4</ele>
        <time>2022-08-29T08:33:38Z</time>
      </trkpt>
      <trkpt lat="42.4514190" lon="-3.0249030">
        <ele>720.4</ele>
        <time>2022-08-29T08:33:39Z</time>
      </trkpt>
      <trkpt lat="42.4514190" lon="-3.0249040">
        <ele>720.4</ele>
        <time>2022-08-29T08:33:40Z</time>
      </trkpt>
      <trkpt lat="42.4514190" lon="-3.0249050">
        <ele>720.4</ele>
        <time>2022-08-29T08:33:41Z</time>
      </trkpt>
      <trkpt lat="42.4514190" lon="-3.0249050">
        <ele>720.4</ele>
        <time>2022-08-29T08:33:42Z</time>
      </trkpt>
      <trkpt lat="42.4514190" lon="-3.0249040">
        <ele>720.6</ele>
        <time>2022-08-29T08:33:43Z</time>
      </trkpt>
      <trkpt lat="42.4514180" lon="-3.0249040">
        <ele>720.4</ele>
        <time>2022-08-29T08:33:44Z</time>
      </trkpt>
      <trkpt lat="42.4514180" lon="-3.0249030">
        <ele>720.4</ele>
        <time>2022-08-29T08:33:45Z</time>
      </trkpt>
      <trkpt lat="42.4514180" lon="-3.0249030">
        <ele>720.4</ele>
        <time>2022-08-29T08:33:46Z</time>
      </trkpt>
      <trkpt lat="42.4514180" lon="-3.0249030">
        <ele>720.4</ele>
        <time>2022-08-29T08:33:47Z</time>
      </trkpt>
      <trkpt lat="42.4514180" lon="-3.0249030">
        <ele>720.4</ele>
        <time>2022-08-29T08:33:48Z</time>
      </trkpt>
      <trkpt lat="42.4514180" lon="-3.0249030">
        <ele>720.4</ele>
        <time>2022-08-29T08:33:49Z</time>
      </trkpt>
      <trkpt lat="42.4514190" lon="-3.0249000">
        <ele>720.4</ele>
        <time>2022-08-29T08:33:50Z</time>
      </trkpt>
      <trkpt lat="42.4514260" lon="-3.0248980">
        <ele>720.4</ele>
        <time>2022-08-29T08:33:51Z</time>
      </trkpt>
      <trkpt lat="42.4514290" lon="-3.0248960">
        <ele>720.4</ele>
        <time>2022-08-29T08:33:52Z</time>
      </trkpt>
      <trkpt lat="42.4514330" lon="-3.0248940">
        <ele>720.4</ele>
        <time>2022-08-29T08:33:53Z</time>
      </trkpt>
      <trkpt lat="42.4514320" lon="-3.0248930">
        <ele>720.4</ele>
        <time>2022-08-29T08:33:54Z</time>
      </trkpt>
      <trkpt lat="42.4514320" lon="-3.0248940">
        <ele>720.4</ele>
        <time>2022-08-29T08:33:55Z</time>
      </trkpt>
      <trkpt lat="42.4514330" lon="-3.0248930">
        <ele>720.4</ele>
        <time>2022-08-29T08:33:56Z</time>
      </trkpt>
      <trkpt lat="42.4514330" lon="-3.0248940">
        <ele>720.4</ele>
        <time>2022-08-29T08:33:57Z</time>
      </trkpt>
      <trkpt lat="42.4514330" lon="-3.0248940">
        <ele>720.4</ele>
        <time>2022-08-29T08:33:58Z</time>
      </trkpt>
      <trkpt lat="42.4514330" lon="-3.0248940">
        <ele>720.4</ele>
        <time>2022-08-29T08:33:59Z</time>
      </trkpt>
      <trkpt lat="42.4514330" lon="-3.0248940">
        <ele>720.4</ele>
        <time>2022-08-29T08:34:00Z</time>
      </trkpt>
      <trkpt lat="42.4514330" lon="-3.0248940">
        <ele>720.4</ele>
        <time>2022-08-29T08:34:01Z</time>
      </trkpt>
      <trkpt lat="42.4514330" lon="-3.0248940">
        <ele>720.4</ele>
        <time>2022-08-29T08:34:02Z</time>
      </trkpt>
      <trkpt lat="42.4514330" lon="-3.0248950">
        <ele>720.4</ele>
        <time>2022-08-29T08:34:03Z</time>
      </trkpt>
      <trkpt lat="42.4514330" lon="-3.0248950">
        <ele>720.4</ele>
        <time>2022-08-29T08:34:04Z</time>
      </trkpt>
      <trkpt lat="42.4514330" lon="-3.0248960">
        <ele>720.4</ele>
        <time>2022-08-29T08:34:05Z</time>
      </trkpt>
      <trkpt lat="42.4514330" lon="-3.0248970">
        <ele>720.6</ele>
        <time>2022-08-29T08:34:06Z</time>
      </trkpt>
      <trkpt lat="42.4514330" lon="-3.0248970">
        <ele>720.4</ele>
        <time>2022-08-29T08:34:07Z</time>
      </trkpt>
      <trkpt lat="42.4514330" lon="-3.0248970">
        <ele>720.6</ele>
        <time>2022-08-29T08:34:08Z</time>
      </trkpt>
      <trkpt lat="42.4514330" lon="-3.0248970">
        <ele>720.4</ele>
        <time>2022-08-29T08:34:09Z</time>
      </trkpt>
      <trkpt lat="42.4514340" lon="-3.0248970">
        <ele>720.4</ele>
        <time>2022-08-29T08:34:10Z</time>
      </trkpt>
      <trkpt lat="42.4514340" lon="-3.0248980">
        <ele>720.6</ele>
        <time>2022-08-29T08:34:11Z</time>
      </trkpt>
      <trkpt lat="42.4514340" lon="-3.0248980">
        <ele>720.6</ele>
        <time>2022-08-29T08:34:12Z</time>
      </trkpt>
      <trkpt lat="42.4514340" lon="-3.0248980">
        <ele>720.6</ele>
        <time>2022-08-29T08:34:13Z</time>
      </trkpt>
      <trkpt lat="42.4514340" lon="-3.0248980">
        <ele>720.6</ele>
        <time>2022-08-29T08:34:14Z</time>
      </trkpt>
      <trkpt lat="42.4514340" lon="-3.0248980">
        <ele>720.6</ele>
        <time>2022-08-29T08:34:15Z</time>
      </trkpt>
      <trkpt lat="42.4514330" lon="-3.0248980">
        <ele>720.4</ele>
        <time>2022-08-29T08:34:16Z</time>
      </trkpt>
      <trkpt lat="42.4514330" lon="-3.0248980">
        <ele>720.6</ele>
        <time>2022-08-29T08:34:17Z</time>
      </trkpt>
      <trkpt lat="42.4514330" lon="-3.0248980">
        <ele>720.4</ele>
        <time>2022-08-29T08:34:18Z</time>
      </trkpt>
      <trkpt lat="42.4514330" lon="-3.0248990">
        <ele>720.4</ele>
        <time>2022-08-29T08:34:19Z</time>
      </trkpt>
      <trkpt lat="42.4514330" lon="-3.0248990">
        <ele>720.4</ele>
        <time>2022-08-29T08:34:20Z</time>
      </trkpt>
      <trkpt lat="42.4514330" lon="-3.0248990">
        <ele>720.4</ele>
        <time>2022-08-29T08:34:21Z</time>
      </trkpt>
      <trkpt lat="42.4514330" lon="-3.0248990">
        <ele>720.6</ele>
        <time>2022-08-29T08:34:22Z</time>
      </trkpt>
      <trkpt lat="42.4514330" lon="-3.0248990">
        <ele>720.4</ele>
        <time>2022-08-29T08:34:23Z</time>
      </trkpt>
      <trkpt lat="42.4514330" lon="-3.0248990">
        <ele>720.6</ele>
        <time>2022-08-29T08:34:24Z</time>
      </trkpt>
      <trkpt lat="42.4514330" lon="-3.0248990">
        <ele>720.6</ele>
        <time>2022-08-29T08:34:25Z</time>
      </trkpt>
      <trkpt lat="42.4514340" lon="-3.0249010">
        <ele>720.6</ele>
        <time>2022-08-29T08:34:26Z</time>
      </trkpt>
      <trkpt lat="42.4514340" lon="-3.0249020">
        <ele>720.6</ele>
        <time>2022-08-29T08:34:27Z</time>
      </trkpt>
      <trkpt lat="42.4514340" lon="-3.0249020">
        <ele>720.6</ele>
        <time>2022-08-29T08:34:28Z</time>
      </trkpt>
      <trkpt lat="42.4514340" lon="-3.0249030">
        <ele>720.6</ele>
        <time>2022-08-29T08:34:29Z</time>
      </trkpt>
      <trkpt lat="42.4514350" lon="-3.0249030">
        <ele>720.8</ele>
        <time>2022-08-29T08:34:30Z</time>
      </trkpt>
      <trkpt lat="42.4514350" lon="-3.0249030">
        <ele>720.6</ele>
        <time>2022-08-29T08:34:31Z</time>
      </trkpt>
      <trkpt lat="42.4514360" lon="-3.0249040">
        <ele>720.6</ele>
        <time>2022-08-29T08:34:32Z</time>
      </trkpt>
      <trkpt lat="42.4514370" lon="-3.0249060">
        <ele>720.6</ele>
        <time>2022-08-29T08:34:33Z</time>
      </trkpt>
      <trkpt lat="42.4514350" lon="-3.0249130">
        <ele>720.6</ele>
        <time>2022-08-29T08:34:34Z</time>
      </trkpt>
      <trkpt lat="42.4514330" lon="-3.0249210">
        <ele>720.6</ele>
        <time>2022-08-29T08:34:35Z</time>
      </trkpt>
      <trkpt lat="42.4514270" lon="-3.0249270">
        <ele>720.6</ele>
        <time>2022-08-29T08:34:36Z</time>
      </trkpt>
      <trkpt lat="42.4514170" lon="-3.0249300">
        <ele>720.6</ele>
        <time>2022-08-29T08:34:37Z</time>
      </trkpt>
      <trkpt lat="42.4514050" lon="-3.0249380">
        <ele>720.8</ele>
        <time>2022-08-29T08:34:38Z</time>
      </trkpt>
      <trkpt lat="42.4513930" lon="-3.0249520">
        <ele>720.6</ele>
        <time>2022-08-29T08:34:39Z</time>
      </trkpt>
      <trkpt lat="42.4513800" lon="-3.0249680">
        <ele>720.6</ele>
        <time>2022-08-29T08:34:40Z</time>
      </trkpt>
      <trkpt lat="42.4513700" lon="-3.0249850">
        <ele>720.8</ele>
        <time>2022-08-29T08:34:41Z</time>
      </trkpt>
      <trkpt lat="42.4513600" lon="-3.0250040">
        <ele>720.6</ele>
        <time>2022-08-29T08:34:42Z</time>
      </trkpt>
      <trkpt lat="42.4513490" lon="-3.0250220">
        <ele>720.6</ele>
        <time>2022-08-29T08:34:43Z</time>
      </trkpt>
      <trkpt lat="42.4513350" lon="-3.0250420">
        <ele>720.6</ele>
        <time>2022-08-29T08:34:44Z</time>
      </trkpt>
      <trkpt lat="42.4513200" lon="-3.0250630">
        <ele>720.8</ele>
        <time>2022-08-29T08:34:45Z</time>
      </trkpt>
      <trkpt lat="42.4513090" lon="-3.0250890">
        <ele>720.8</ele>
        <time>2022-08-29T08:34:46Z</time>
      </trkpt>
      <trkpt lat="42.4512970" lon="-3.0251110">
        <ele>720.8</ele>
        <time>2022-08-29T08:34:47Z</time>
      </trkpt>
      <trkpt lat="42.4512880" lon="-3.0251350">
        <ele>721.0</ele>
        <time>2022-08-29T08:34:48Z</time>
      </trkpt>
      <trkpt lat="42.4512860" lon="-3.0251570">
        <ele>721.0</ele>
        <time>2022-08-29T08:34:49Z</time>
      </trkpt>
      <trkpt lat="42.4512870" lon="-3.0251800">
        <ele>721.2</ele>
        <time>2022-08-29T08:34:50Z</time>
      </trkpt>
      <trkpt lat="42.4512810" lon="-3.0252110">
        <ele>721.2</ele>
        <time>2022-08-29T08:34:51Z</time>
      </trkpt>
      <trkpt lat="42.4512700" lon="-3.0252430">
        <ele>721.4</ele>
        <time>2022-08-29T08:34:52Z</time>
      </trkpt>
      <trkpt lat="42.4512550" lon="-3.0252740">
        <ele>721.4</ele>
        <time>2022-08-29T08:34:53Z</time>
      </trkpt>
      <trkpt lat="42.4512400" lon="-3.0253030">
        <ele>721.4</ele>
        <time>2022-08-29T08:34:54Z</time>
      </trkpt>
      <trkpt lat="42.4512210" lon="-3.0253310">
        <ele>721.4</ele>
        <time>2022-08-29T08:34:55Z</time>
      </trkpt>
      <trkpt lat="42.4512020" lon="-3.0253600">
        <ele>721.6</ele>
        <time>2022-08-29T08:34:56Z</time>
      </trkpt>
      <trkpt lat="42.4511840" lon="-3.0253870">
        <ele>721.6</ele>
        <time>2022-08-29T08:34:57Z</time>
      </trkpt>
      <trkpt lat="42.4511700" lon="-3.0254160">
        <ele>721.6</ele>
        <time>2022-08-29T08:34:58Z</time>
      </trkpt>
      <trkpt lat="42.4511510" lon="-3.0254430">
        <ele>721.4</ele>
        <time>2022-08-29T08:34:59Z</time>
      </trkpt>
      <trkpt lat="42.4511370" lon="-3.0254730">
        <ele>721.6</ele>
        <time>2022-08-29T08:35:00Z</time>
      </trkpt>
      <trkpt lat="42.4511190" lon="-3.0255010">
        <ele>721.6</ele>
        <time>2022-08-29T08:35:01Z</time>
      </trkpt>
      <trkpt lat="42.4511040" lon="-3.0255310">
        <ele>721.6</ele>
        <time>2022-08-29T08:35:02Z</time>
      </trkpt>
      <trkpt lat="42.4510880" lon="-3.0255650">
        <ele>721.8</ele>
        <time>2022-08-29T08:35:03Z</time>
      </trkpt>
      <trkpt lat="42.4510780" lon="-3.0256020">
        <ele>722.0</ele>
        <time>2022-08-29T08:35:04Z</time>
      </trkpt>
      <trkpt lat="42.4510660" lon="-3.0256400">
        <ele>722.2</ele>
        <time>2022-08-29T08:35:05Z</time>
      </trkpt>
      <trkpt lat="42.4510530" lon="-3.0256780">
        <ele>722.2</ele>
        <time>2022-08-29T08:35:06Z</time>
      </trkpt>
      <trkpt lat="42.4510330" lon="-3.0257200">
        <ele>722.4</ele>
        <time>2022-08-29T08:35:07Z</time>
      </trkpt>
      <trkpt lat="42.4510060" lon="-3.0257580">
        <ele>722.2</ele>
        <time>2022-08-29T08:35:08Z</time>
      </trkpt>
      <trkpt lat="42.4509830" lon="-3.0257980">
        <ele>722.4</ele>
        <time>2022-08-29T08:35:09Z</time>
      </trkpt>
      <trkpt lat="42.4509550" lon="-3.0258360">
        <ele>722.2</ele>
        <time>2022-08-29T08:35:10Z</time>
      </trkpt>
      <trkpt lat="42.4509390" lon="-3.0258810">
        <ele>722.4</ele>
        <time>2022-08-29T08:35:11Z</time>
      </trkpt>
      <trkpt lat="42.4509160" lon="-3.0259230">
        <ele>722.2</ele>
        <time>2022-08-29T08:35:12Z</time>
      </trkpt>
      <trkpt lat="42.4508940" lon="-3.0259660">
        <ele>722.4</ele>
        <time>2022-08-29T08:35:13Z</time>
      </trkpt>
      <trkpt lat="42.4508740" lon="-3.0260100">
        <ele>722.2</ele>
        <time>2022-08-29T08:35:14Z</time>
      </trkpt>
      <trkpt lat="42.4508540" lon="-3.0260530">
        <ele>722.2</ele>
        <time>2022-08-29T08:35:15Z</time>
      </trkpt>
      <trkpt lat="42.4508290" lon="-3.0260900">
        <ele>722.2</ele>
        <time>2022-08-29T08:35:16Z</time>
      </trkpt>
      <trkpt lat="42.4508080" lon="-3.0261310">
        <ele>722.4</ele>
        <time>2022-08-29T08:35:17Z</time>
      </trkpt>
      <trkpt lat="42.4507980" lon="-3.0261950">
        <ele>722.2</ele>
        <time>2022-08-29T08:35:18Z</time>
      </trkpt>
      <trkpt lat="42.4507730" lon="-3.0262420">
        <ele>722.2</ele>
        <time>2022-08-29T08:35:19Z</time>
      </trkpt>
      <trkpt lat="42.4507500" lon="-3.0262960">
        <ele>722.2</ele>
        <time>2022-08-29T08:35:20Z</time>
      </trkpt>
      <trkpt lat="42.4507270" lon="-3.0263700">
        <ele>722.2</ele>
        <time>2022-08-29T08:35:21Z</time>
      </trkpt>
      <trkpt lat="42.4507090" lon="-3.0264290">
        <ele>722.0</ele>
        <time>2022-08-29T08:35:22Z</time>
      </trkpt>
      <trkpt lat="42.4506880" lon="-3.0264870">
        <ele>722.2</ele>
        <time>2022-08-29T08:35:23Z</time>
      </trkpt>
      <trkpt lat="42.4506850" lon="-3.0265600">
        <ele>722.2</ele>
        <time>2022-08-29T08:35:24Z</time>
      </trkpt>
      <trkpt lat="42.4506790" lon="-3.0266230">
        <ele>722.0</ele>
        <time>2022-08-29T08:35:25Z</time>
      </trkpt>
      <trkpt lat="42.4506690" lon="-3.0266780">
        <ele>722.0</ele>
        <time>2022-08-29T08:35:26Z</time>
      </trkpt>
      <trkpt lat="42.4506560" lon="-3.0267290">
        <ele>722.0</ele>
        <time>2022-08-29T08:35:27Z</time>
      </trkpt>
      <trkpt lat="42.4506430" lon="-3.0267710">
        <ele>722.0</ele>
        <time>2022-08-29T08:35:28Z</time>
      </trkpt>
      <trkpt lat="42.4506280" lon="-3.0268070">
        <ele>722.2</ele>
        <time>2022-08-29T08:35:29Z</time>
      </trkpt>
      <trkpt lat="42.4506120" lon="-3.0268430">
        <ele>722.0</ele>
        <time>2022-08-29T08:35:30Z</time>
      </trkpt>
      <trkpt lat="42.4506000" lon="-3.0268790">
        <ele>722.0</ele>
        <time>2022-08-29T08:35:31Z</time>
      </trkpt>
      <trkpt lat="42.4505830" lon="-3.0269140">
        <ele>722.2</ele>
        <time>2022-08-29T08:35:32Z</time>
      </trkpt>
      <trkpt lat="42.4505680" lon="-3.0269480">
        <ele>722.0</ele>
        <time>2022-08-29T08:35:33Z</time>
      </trkpt>
      <trkpt lat="42.4505510" lon="-3.0269890">
        <ele>722.4</ele>
        <time>2022-08-29T08:35:34Z</time>
      </trkpt>
      <trkpt lat="42.4505370" lon="-3.0270250">
        <ele>722.4</ele>
        <time>2022-08-29T08:35:35Z</time>
      </trkpt>
      <trkpt lat="42.4505220" lon="-3.0270570">
        <ele>722.6</ele>
        <time>2022-08-29T08:35:36Z</time>
      </trkpt>
      <trkpt lat="42.4505040" lon="-3.0270840">
        <ele>722.8</ele>
        <time>2022-08-29T08:35:37Z</time>
      </trkpt>
      <trkpt lat="42.4504830" lon="-3.0271130">
        <ele>722.8</ele>
        <time>2022-08-29T08:35:38Z</time>
      </trkpt>
      <trkpt lat="42.4504640" lon="-3.0271380">
        <ele>722.8</ele>
        <time>2022-08-29T08:35:39Z</time>
      </trkpt>
      <trkpt lat="42.4504390" lon="-3.0271590">
        <ele>723.0</ele>
        <time>2022-08-29T08:35:40Z</time>
      </trkpt>
      <trkpt lat="42.4504200" lon="-3.0271830">
        <ele>723.0</ele>
        <time>2022-08-29T08:35:41Z</time>
      </trkpt>
      <trkpt lat="42.4503980" lon="-3.0272120">
        <ele>723.2</ele>
        <time>2022-08-29T08:35:42Z</time>
      </trkpt>
      <trkpt lat="42.4503760" lon="-3.0272370">
        <ele>723.2</ele>
        <time>2022-08-29T08:35:43Z</time>
      </trkpt>
      <trkpt lat="42.4503600" lon="-3.0272670">
        <ele>723.4</ele>
        <time>2022-08-29T08:35:44Z</time>
      </trkpt>
      <trkpt lat="42.4503470" lon="-3.0272980">
        <ele>723.6</ele>
        <time>2022-08-29T08:35:45Z</time>
      </trkpt>
      <trkpt lat="42.4503290" lon="-3.0273270">
        <ele>723.6</ele>
        <time>2022-08-29T08:35:46Z</time>
      </trkpt>
      <trkpt lat="42.4503130" lon="-3.0273560">
        <ele>723.8</ele>
        <time>2022-08-29T08:35:47Z</time>
      </trkpt>
      <trkpt lat="42.4503040" lon="-3.0273900">
        <ele>723.8</ele>
        <time>2022-08-29T08:35:48Z</time>
      </trkpt>
      <trkpt lat="42.4502900" lon="-3.0274220">
        <ele>723.8</ele>
        <time>2022-08-29T08:35:49Z</time>
      </trkpt>
      <trkpt lat="42.4502780" lon="-3.0274520">
        <ele>724.0</ele>
        <time>2022-08-29T08:35:50Z</time>
      </trkpt>
      <trkpt lat="42.4502680" lon="-3.0274820">
        <ele>724.2</ele>
        <time>2022-08-29T08:35:51Z</time>
      </trkpt>
      <trkpt lat="42.4502550" lon="-3.0275100">
        <ele>724.4</ele>
        <time>2022-08-29T08:35:52Z</time>
      </trkpt>
      <trkpt lat="42.4502430" lon="-3.0275420">
        <ele>724.4</ele>
        <time>2022-08-29T08:35:53Z</time>
      </trkpt>
      <trkpt lat="42.4502310" lon="-3.0275770">
        <ele>724.6</ele>
        <time>2022-08-29T08:35:54Z</time>
      </trkpt>
      <trkpt lat="42.4502100" lon="-3.0276080">
        <ele>724.6</ele>
        <time>2022-08-29T08:35:55Z</time>
      </trkpt>
      <trkpt lat="42.4501850" lon="-3.0276320">
        <ele>724.6</ele>
        <time>2022-08-29T08:35:56Z</time>
      </trkpt>
      <trkpt lat="42.4501640" lon="-3.0276660">
        <ele>724.8</ele>
        <time>2022-08-29T08:35:57Z</time>
      </trkpt>
      <trkpt lat="42.4501510" lon="-3.0277030">
        <ele>724.8</ele>
        <time>2022-08-29T08:35:58Z</time>
      </trkpt>
      <trkpt lat="42.4501340" lon="-3.0277400">
        <ele>725.0</ele>
        <time>2022-08-29T08:35:59Z</time>
      </trkpt>
      <trkpt lat="42.4501250" lon="-3.0277820">
        <ele>725.0</ele>
        <time>2022-08-29T08:36:00Z</time>
      </trkpt>
      <trkpt lat="42.4501080" lon="-3.0278120">
        <ele>725.2</ele>
        <time>2022-08-29T08:36:01Z</time>
      </trkpt>
      <trkpt lat="42.4500910" lon="-3.0278440">
        <ele>725.4</ele>
        <time>2022-08-29T08:36:02Z</time>
      </trkpt>
      <trkpt lat="42.4500980" lon="-3.0278950">
        <ele>725.4</ele>
        <time>2022-08-29T08:36:03Z</time>
      </trkpt>
      <trkpt lat="42.4500890" lon="-3.0279320">
        <ele>725.6</ele>
        <time>2022-08-29T08:36:04Z</time>
      </trkpt>
      <trkpt lat="42.4500800" lon="-3.0279670">
        <ele>725.6</ele>
        <time>2022-08-29T08:36:05Z</time>
      </trkpt>
      <trkpt lat="42.4500730" lon="-3.0280020">
        <ele>725.8</ele>
        <time>2022-08-29T08:36:06Z</time>
      </trkpt>
      <trkpt lat="42.4500660" lon="-3.0280380">
        <ele>726.0</ele>
        <time>2022-08-29T08:36:07Z</time>
      </trkpt>
      <trkpt lat="42.4500590" lon="-3.0280840">
        <ele>726.0</ele>
        <time>2022-08-29T08:36:08Z</time>
      </trkpt>
      <trkpt lat="42.4500390" lon="-3.0281220">
        <ele>726.2</ele>
        <time>2022-08-29T08:36:09Z</time>
      </trkpt>
      <trkpt lat="42.4500300" lon="-3.0281680">
        <ele>726.4</ele>
        <time>2022-08-29T08:36:10Z</time>
      </trkpt>
      <trkpt lat="42.4500150" lon="-3.0282040">
        <ele>726.4</ele>
        <time>2022-08-29T08:36:11Z</time>
      </trkpt>
      <trkpt lat="42.4499940" lon="-3.0282320">
        <ele>727.0</ele>
        <time>2022-08-29T08:36:12Z</time>
      </trkpt>
      <trkpt lat="42.4499770" lon="-3.0282600">
        <ele>727.0</ele>
        <time>2022-08-29T08:36:13Z</time>
      </trkpt>
      <trkpt lat="42.4499610" lon="-3.0282910">
        <ele>727.2</ele>
        <time>2022-08-29T08:36:14Z</time>
      </trkpt>
      <trkpt lat="42.4499460" lon="-3.0283200">
        <ele>727.4</ele>
        <time>2022-08-29T08:36:15Z</time>
      </trkpt>
      <trkpt lat="42.4499330" lon="-3.0283500">
        <ele>727.6</ele>
        <time>2022-08-29T08:36:16Z</time>
      </trkpt>
      <trkpt lat="42.4499140" lon="-3.0283790">
        <ele>727.6</ele>
        <time>2022-08-29T08:36:17Z</time>
      </trkpt>
      <trkpt lat="42.4498970" lon="-3.0284050">
        <ele>727.8</ele>
        <time>2022-08-29T08:36:18Z</time>
      </trkpt>
      <trkpt lat="42.4498820" lon="-3.0284310">
        <ele>728.0</ele>
        <time>2022-08-29T08:36:19Z</time>
      </trkpt>
      <trkpt lat="42.4498640" lon="-3.0284540">
        <ele>728.2</ele>
        <time>2022-08-29T08:36:20Z</time>
      </trkpt>
      <trkpt lat="42.4498530" lon="-3.0284800">
        <ele>728.2</ele>
        <time>2022-08-29T08:36:21Z</time>
      </trkpt>
      <trkpt lat="42.4498430" lon="-3.0285110">
        <ele>728.4</ele>
        <time>2022-08-29T08:36:22Z</time>
      </trkpt>
      <trkpt lat="42.4498420" lon="-3.0285440">
        <ele>728.4</ele>
        <time>2022-08-29T08:36:23Z</time>
      </trkpt>
      <trkpt lat="42.4498360" lon="-3.0285770">
        <ele>728.6</ele>
        <time>2022-08-29T08:36:24Z</time>
      </trkpt>
      <trkpt lat="42.4498330" lon="-3.0286090">
        <ele>728.4</ele>
        <time>2022-08-29T08:36:25Z</time>
      </trkpt>
      <trkpt lat="42.4498280" lon="-3.0286360">
        <ele>728.8</ele>
        <time>2022-08-29T08:36:26Z</time>
      </trkpt>
      <trkpt lat="42.4498210" lon="-3.0286650">
        <ele>729.0</ele>
        <time>2022-08-29T08:36:27Z</time>
      </trkpt>
      <trkpt lat="42.4498100" lon="-3.0286930">
        <ele>729.0</ele>
        <time>2022-08-29T08:36:28Z</time>
      </trkpt>
      <trkpt lat="42.4497980" lon="-3.0287190">
        <ele>729.2</ele>
        <time>2022-08-29T08:36:29Z</time>
      </trkpt>
      <trkpt lat="42.4497830" lon="-3.0287410">
        <ele>729.2</ele>
        <time>2022-08-29T08:36:30Z</time>
      </trkpt>
      <trkpt lat="42.4497670" lon="-3.0287640">
        <ele>729.4</ele>
        <time>2022-08-29T08:36:31Z</time>
      </trkpt>
      <trkpt lat="42.4497540" lon="-3.0287890">
        <ele>729.6</ele>
        <time>2022-08-29T08:36:32Z</time>
      </trkpt>
      <trkpt lat="42.4497440" lon="-3.0288160">
        <ele>729.8</ele>
        <time>2022-08-29T08:36:33Z</time>
      </trkpt>
      <trkpt lat="42.4497360" lon="-3.0288430">
        <ele>729.6</ele>
        <time>2022-08-29T08:36:34Z</time>
      </trkpt>
      <trkpt lat="42.4497270" lon="-3.0288710">
        <ele>729.8</ele>
        <time>2022-08-29T08:36:35Z</time>
      </trkpt>
      <trkpt lat="42.4497100" lon="-3.0288960">
        <ele>730.0</ele>
        <time>2022-08-29T08:36:36Z</time>
      </trkpt>
      <trkpt lat="42.4496950" lon="-3.0289190">
        <ele>730.0</ele>
        <time>2022-08-29T08:36:37Z</time>
      </trkpt>
      <trkpt lat="42.4496800" lon="-3.0289410">
        <ele>730.0</ele>
        <time>2022-08-29T08:36:38Z</time>
      </trkpt>
      <trkpt lat="42.4496650" lon="-3.0289630">
        <ele>730.0</ele>
        <time>2022-08-29T08:36:39Z</time>
      </trkpt>
      <trkpt lat="42.4496480" lon="-3.0289880">
        <ele>730.2</ele>
        <time>2022-08-29T08:36:40Z</time>
      </trkpt>
      <trkpt lat="42.4496310" lon="-3.0290120">
        <ele>730.2</ele>
        <time>2022-08-29T08:36:41Z</time>
      </trkpt>
      <trkpt lat="42.4496160" lon="-3.0290380">
        <ele>730.4</ele>
        <time>2022-08-29T08:36:42Z</time>
      </trkpt>
      <trkpt lat="42.4496010" lon="-3.0290680">
        <ele>730.6</ele>
        <time>2022-08-29T08:36:43Z</time>
      </trkpt>
      <trkpt lat="42.4495840" lon="-3.0291000">
        <ele>730.6</ele>
        <time>2022-08-29T08:36:44Z</time>
      </trkpt>
      <trkpt lat="42.4495700" lon="-3.0291350">
        <ele>730.8</ele>
        <time>2022-08-29T08:36:45Z</time>
      </trkpt>
      <trkpt lat="42.4495610" lon="-3.0291720">
        <ele>731.0</ele>
        <time>2022-08-29T08:36:46Z</time>
      </trkpt>
      <trkpt lat="42.4495500" lon="-3.0292060">
        <ele>731.2</ele>
        <time>2022-08-29T08:36:47Z</time>
      </trkpt>
      <trkpt lat="42.4495460" lon="-3.0292430">
        <ele>731.2</ele>
        <time>2022-08-29T08:36:48Z</time>
      </trkpt>
      <trkpt lat="42.4495460" lon="-3.0292820">
        <ele>731.2</ele>
        <time>2022-08-29T08:36:49Z</time>
      </trkpt>
      <trkpt lat="42.4495430" lon="-3.0293190">
        <ele>731.2</ele>
        <time>2022-08-29T08:36:50Z</time>
      </trkpt>
      <trkpt lat="42.4495380" lon="-3.0293550">
        <ele>731.4</ele>
        <time>2022-08-29T08:36:51Z</time>
      </trkpt>
      <trkpt lat="42.4495270" lon="-3.0293850">
        <ele>731.4</ele>
        <time>2022-08-29T08:36:52Z</time>
      </trkpt>
      <trkpt lat="42.4495170" lon="-3.0294150">
        <ele>731.6</ele>
        <time>2022-08-29T08:36:53Z</time>
      </trkpt>
      <trkpt lat="42.4495060" lon="-3.0294460">
        <ele>731.6</ele>
        <time>2022-08-29T08:36:54Z</time>
      </trkpt>
      <trkpt lat="42.4494960" lon="-3.0294770">
        <ele>731.6</ele>
        <time>2022-08-29T08:36:55Z</time>
      </trkpt>
      <trkpt lat="42.4494830" lon="-3.0295040">
        <ele>731.6</ele>
        <time>2022-08-29T08:36:56Z</time>
      </trkpt>
      <trkpt lat="42.4494680" lon="-3.0295290">
        <ele>731.8</ele>
        <time>2022-08-29T08:36:57Z</time>
      </trkpt>
      <trkpt lat="42.4494550" lon="-3.0295540">
        <ele>732.0</ele>
        <time>2022-08-29T08:36:58Z</time>
      </trkpt>
      <trkpt lat="42.4494410" lon="-3.0295770">
        <ele>732.0</ele>
        <time>2022-08-29T08:36:59Z</time>
      </trkpt>
      <trkpt lat="42.4494230" lon="-3.0295970">
        <ele>732.2</ele>
        <time>2022-08-29T08:37:00Z</time>
      </trkpt>
      <trkpt lat="42.4494170" lon="-3.0296260">
        <ele>732.2</ele>
        <time>2022-08-29T08:37:01Z</time>
      </trkpt>
      <trkpt lat="42.4494080" lon="-3.0296510">
        <ele>732.2</ele>
        <time>2022-08-29T08:37:02Z</time>
      </trkpt>
      <trkpt lat="42.4494010" lon="-3.0296770">
        <ele>732.4</ele>
        <time>2022-08-29T08:37:03Z</time>
      </trkpt>
      <trkpt lat="42.4493860" lon="-3.0297070">
        <ele>732.4</ele>
        <time>2022-08-29T08:37:04Z</time>
      </trkpt>
      <trkpt lat="42.4493720" lon="-3.0297340">
        <ele>732.4</ele>
        <time>2022-08-29T08:37:05Z</time>
      </trkpt>
      <trkpt lat="42.4493560" lon="-3.0297590">
        <ele>732.6</ele>
        <time>2022-08-29T08:37:06Z</time>
      </trkpt>
      <trkpt lat="42.4493400" lon="-3.0297810">
        <ele>732.8</ele>
        <time>2022-08-29T08:37:07Z</time>
      </trkpt>
      <trkpt lat="42.4493210" lon="-3.0298020">
        <ele>732.8</ele>
        <time>2022-08-29T08:37:08Z</time>
      </trkpt>
      <trkpt lat="42.4492970" lon="-3.0298220">
        <ele>733.0</ele>
        <time>2022-08-29T08:37:09Z</time>
      </trkpt>
      <trkpt lat="42.4492790" lon="-3.0298450">
        <ele>733.0</ele>
        <time>2022-08-29T08:37:10Z</time>
      </trkpt>
      <trkpt lat="42.4492680" lon="-3.0298710">
        <ele>733.2</ele>
        <time>2022-08-29T08:37:11Z</time>
      </trkpt>
      <trkpt lat="42.4492590" lon="-3.0299000">
        <ele>733.2</ele>
        <time>2022-08-29T08:37:12Z</time>
      </trkpt>
      <trkpt lat="42.4492480" lon="-3.0299250">
        <ele>733.2</ele>
        <time>2022-08-29T08:37:13Z</time>
      </trkpt>
      <trkpt lat="42.4492370" lon="-3.0299510">
        <ele>733.6</ele>
        <time>2022-08-29T08:37:14Z</time>
      </trkpt>
      <trkpt lat="42.4492270" lon="-3.0299750">
        <ele>733.6</ele>
        <time>2022-08-29T08:37:15Z</time>
      </trkpt>
      <trkpt lat="42.4492130" lon="-3.0299980">
        <ele>733.6</ele>
        <time>2022-08-29T08:37:16Z</time>
      </trkpt>
      <trkpt lat="42.4491980" lon="-3.0300160">
        <ele>733.6</ele>
        <time>2022-08-29T08:37:17Z</time>
      </trkpt>
      <trkpt lat="42.4491840" lon="-3.0300370">
        <ele>734.0</ele>
        <time>2022-08-29T08:37:18Z</time>
      </trkpt>
      <trkpt lat="42.4491770" lon="-3.0300560">
        <ele>734.0</ele>
        <time>2022-08-29T08:37:19Z</time>
      </trkpt>
      <trkpt lat="42.4491740" lon="-3.0300750">
        <ele>734.0</ele>
        <time>2022-08-29T08:37:20Z</time>
      </trkpt>
      <trkpt lat="42.4491760" lon="-3.0300950">
        <ele>733.8</ele>
        <time>2022-08-29T08:37:21Z</time>
      </trkpt>
      <trkpt lat="42.4491730" lon="-3.0301120">
        <ele>734.0</ele>
        <time>2022-08-29T08:37:22Z</time>
      </trkpt>
      <trkpt lat="42.4491680" lon="-3.0301240">
        <ele>734.0</ele>
        <time>2022-08-29T08:37:23Z</time>
      </trkpt>
      <trkpt lat="42.4491630" lon="-3.0301360">
        <ele>734.0</ele>
        <time>2022-08-29T08:37:24Z</time>
      </trkpt>
      <trkpt lat="42.4491610" lon="-3.0301510">
        <ele>734.0</ele>
        <time>2022-08-29T08:37:25Z</time>
      </trkpt>
      <trkpt lat="42.4491570" lon="-3.0301670">
        <ele>734.0</ele>
        <time>2022-08-29T08:37:26Z</time>
      </trkpt>
      <trkpt lat="42.4491520" lon="-3.0301820">
        <ele>734.0</ele>
        <time>2022-08-29T08:37:27Z</time>
      </trkpt>
      <trkpt lat="42.4491460" lon="-3.0301970">
        <ele>733.8</ele>
        <time>2022-08-29T08:37:28Z</time>
      </trkpt>
      <trkpt lat="42.4491380" lon="-3.0302160">
        <ele>733.8</ele>
        <time>2022-08-29T08:37:29Z</time>
      </trkpt>
      <trkpt lat="42.4491340" lon="-3.0302370">
        <ele>733.8</ele>
        <time>2022-08-29T08:37:30Z</time>
      </trkpt>
      <trkpt lat="42.4491300" lon="-3.0302570">
        <ele>733.8</ele>
        <time>2022-08-29T08:37:31Z</time>
      </trkpt>
      <trkpt lat="42.4491270" lon="-3.0302720">
        <ele>733.8</ele>
        <time>2022-08-29T08:37:32Z</time>
      </trkpt>
      <trkpt lat="42.4491260" lon="-3.0302820">
        <ele>733.6</ele>
        <time>2022-08-29T08:37:33Z</time>
      </trkpt>
      <trkpt lat="42.4491260" lon="-3.0302840">
        <ele>733.4</ele>
        <time>2022-08-29T08:37:34Z</time>
      </trkpt>
      <trkpt lat="42.4491260" lon="-3.0302840">
        <ele>733.4</ele>
        <time>2022-08-29T08:37:35Z</time>
      </trkpt>
      <trkpt lat="42.4491270" lon="-3.0302840">
        <ele>733.4</ele>
        <time>2022-08-29T08:37:36Z</time>
      </trkpt>
      <trkpt lat="42.4491270" lon="-3.0302830">
        <ele>733.4</ele>
        <time>2022-08-29T08:37:37Z</time>
      </trkpt>
      <trkpt lat="42.4491270" lon="-3.0302830">
        <ele>733.4</ele>
        <time>2022-08-29T08:37:38Z</time>
      </trkpt>
      <trkpt lat="42.4491270" lon="-3.0302820">
        <ele>733.4</ele>
        <time>2022-08-29T08:37:39Z</time>
      </trkpt>
      <trkpt lat="42.4491280" lon="-3.0302820">
        <ele>733.2</ele>
        <time>2022-08-29T08:37:40Z</time>
      </trkpt>
      <trkpt lat="42.4491280" lon="-3.0302820">
        <ele>733.4</ele>
        <time>2022-08-29T08:37:41Z</time>
      </trkpt>
      <trkpt lat="42.4491280" lon="-3.0302820">
        <ele>733.4</ele>
        <time>2022-08-29T08:37:42Z</time>
      </trkpt>
      <trkpt lat="42.4491280" lon="-3.0302820">
        <ele>733.4</ele>
        <time>2022-08-29T08:37:43Z</time>
      </trkpt>
      <trkpt lat="42.4491300" lon="-3.0302820">
        <ele>733.2</ele>
        <time>2022-08-29T08:37:44Z</time>
      </trkpt>
      <trkpt lat="42.4491330" lon="-3.0302880">
        <ele>733.2</ele>
        <time>2022-08-29T08:37:45Z</time>
      </trkpt>
      <trkpt lat="42.4491330" lon="-3.0302940">
        <ele>733.2</ele>
        <time>2022-08-29T08:37:46Z</time>
      </trkpt>
      <trkpt lat="42.4491350" lon="-3.0302960">
        <ele>733.2</ele>
        <time>2022-08-29T08:37:47Z</time>
      </trkpt>
      <trkpt lat="42.4491340" lon="-3.0302980">
        <ele>733.2</ele>
        <time>2022-08-29T08:37:48Z</time>
      </trkpt>
      <trkpt lat="42.4491340" lon="-3.0302980">
        <ele>733.2</ele>
        <time>2022-08-29T08:37:49Z</time>
      </trkpt>
      <trkpt lat="42.4491340" lon="-3.0302980">
        <ele>733.2</ele>
        <time>2022-08-29T08:37:50Z</time>
      </trkpt>
      <trkpt lat="42.4491340" lon="-3.0302980">
        <ele>733.2</ele>
        <time>2022-08-29T08:37:51Z</time>
      </trkpt>
      <trkpt lat="42.4491340" lon="-3.0302980">
        <ele>733.2</ele>
        <time>2022-08-29T08:37:52Z</time>
      </trkpt>
      <trkpt lat="42.4491340" lon="-3.0302980">
        <ele>733.2</ele>
        <time>2022-08-29T08:37:53Z</time>
      </trkpt>
      <trkpt lat="42.4491340" lon="-3.0302980">
        <ele>733.2</ele>
        <time>2022-08-29T08:37:54Z</time>
      </trkpt>
      <trkpt lat="42.4491340" lon="-3.0302980">
        <ele>733.4</ele>
        <time>2022-08-29T08:37:55Z</time>
      </trkpt>
      <trkpt lat="42.4491340" lon="-3.0302980">
        <ele>733.2</ele>
        <time>2022-08-29T08:37:56Z</time>
      </trkpt>
      <trkpt lat="42.4491340" lon="-3.0302980">
        <ele>733.2</ele>
        <time>2022-08-29T08:37:57Z</time>
      </trkpt>
      <trkpt lat="42.4491340" lon="-3.0302980">
        <ele>733.2</ele>
        <time>2022-08-29T08:37:58Z</time>
      </trkpt>
      <trkpt lat="42.4491340" lon="-3.0302980">
        <ele>733.2</ele>
        <time>2022-08-29T08:37:59Z</time>
      </trkpt>
      <trkpt lat="42.4491340" lon="-3.0302980">
        <ele>733.2</ele>
        <time>2022-08-29T08:38:00Z</time>
      </trkpt>
      <trkpt lat="42.4491340" lon="-3.0302980">
        <ele>733.2</ele>
        <time>2022-08-29T08:38:01Z</time>
      </trkpt>
      <trkpt lat="42.4491340" lon="-3.0302980">
        <ele>733.2</ele>
        <time>2022-08-29T08:38:02Z</time>
      </trkpt>
      <trkpt lat="42.4491340" lon="-3.0302990">
        <ele>733.2</ele>
        <time>2022-08-29T08:38:03Z</time>
      </trkpt>
      <trkpt lat="42.4491340" lon="-3.0302990">
        <ele>733.2</ele>
        <time>2022-08-29T08:38:04Z</time>
      </trkpt>
      <trkpt lat="42.4491340" lon="-3.0302980">
        <ele>733.2</ele>
        <time>2022-08-29T08:38:05Z</time>
      </trkpt>
      <trkpt lat="42.4491330" lon="-3.0302980">
        <ele>733.2</ele>
        <time>2022-08-29T08:38:06Z</time>
      </trkpt>
      <trkpt lat="42.4491330" lon="-3.0302980">
        <ele>733.2</ele>
        <time>2022-08-29T08:38:07Z</time>
      </trkpt>
      <trkpt lat="42.4491330" lon="-3.0302980">
        <ele>733.2</ele>
        <time>2022-08-29T08:38:08Z</time>
      </trkpt>
      <trkpt lat="42.4491330" lon="-3.0302980">
        <ele>733.0</ele>
        <time>2022-08-29T08:38:09Z</time>
      </trkpt>
      <trkpt lat="42.4491330" lon="-3.0302980">
        <ele>733.2</ele>
        <time>2022-08-29T08:38:10Z</time>
      </trkpt>
      <trkpt lat="42.4491330" lon="-3.0302980">
        <ele>733.2</ele>
        <time>2022-08-29T08:38:11Z</time>
      </trkpt>
      <trkpt lat="42.4491330" lon="-3.0302980">
        <ele>733.2</ele>
        <time>2022-08-29T08:38:12Z</time>
      </trkpt>
      <trkpt lat="42.4491330" lon="-3.0302980">
        <ele>733.2</ele>
        <time>2022-08-29T08:38:13Z</time>
      </trkpt>
      <trkpt lat="42.4491330" lon="-3.0302980">
        <ele>733.2</ele>
        <time>2022-08-29T08:38:14Z</time>
      </trkpt>
      <trkpt lat="42.4491330" lon="-3.0302980">
        <ele>733.2</ele>
        <time>2022-08-29T08:38:15Z</time>
      </trkpt>
      <trkpt lat="42.4491330" lon="-3.0302990">
        <ele>733.2</ele>
        <time>2022-08-29T08:38:16Z</time>
      </trkpt>
      <trkpt lat="42.4491330" lon="-3.0302990">
        <ele>733.2</ele>
        <time>2022-08-29T08:38:17Z</time>
      </trkpt>
      <trkpt lat="42.4491350" lon="-3.0302990">
        <ele>733.2</ele>
        <time>2022-08-29T08:38:18Z</time>
      </trkpt>
      <trkpt lat="42.4491350" lon="-3.0303000">
        <ele>733.2</ele>
        <time>2022-08-29T08:38:19Z</time>
      </trkpt>
      <trkpt lat="42.4491350" lon="-3.0303000">
        <ele>733.2</ele>
        <time>2022-08-29T08:38:20Z</time>
      </trkpt>
      <trkpt lat="42.4491340" lon="-3.0303000">
        <ele>733.2</ele>
        <time>2022-08-29T08:38:21Z</time>
      </trkpt>
      <trkpt lat="42.4491340" lon="-3.0303000">
        <ele>733.4</ele>
        <time>2022-08-29T08:38:22Z</time>
      </trkpt>
      <trkpt lat="42.4491350" lon="-3.0303000">
        <ele>733.2</ele>
        <time>2022-08-29T08:38:23Z</time>
      </trkpt>
      <trkpt lat="42.4491350" lon="-3.0303000">
        <ele>733.2</ele>
        <time>2022-08-29T08:38:24Z</time>
      </trkpt>
      <trkpt lat="42.4491350" lon="-3.0303010">
        <ele>733.4</ele>
        <time>2022-08-29T08:38:25Z</time>
      </trkpt>
      <trkpt lat="42.4491350" lon="-3.0303010">
        <ele>733.2</ele>
        <time>2022-08-29T08:38:26Z</time>
      </trkpt>
      <trkpt lat="42.4491350" lon="-3.0303010">
        <ele>733.4</ele>
        <time>2022-08-29T08:38:27Z</time>
      </trkpt>
      <trkpt lat="42.4491350" lon="-3.0303010">
        <ele>733.2</ele>
        <time>2022-08-29T08:38:28Z</time>
      </trkpt>
      <trkpt lat="42.4491360" lon="-3.0303010">
        <ele>733.2</ele>
        <time>2022-08-29T08:38:29Z</time>
      </trkpt>
      <trkpt lat="42.4491360" lon="-3.0303010">
        <ele>733.4</ele>
        <time>2022-08-29T08:38:30Z</time>
      </trkpt>
      <trkpt lat="42.4491360" lon="-3.0303000">
        <ele>733.2</ele>
        <time>2022-08-29T08:38:31Z</time>
      </trkpt>
      <trkpt lat="42.4491360" lon="-3.0303010">
        <ele>733.4</ele>
        <time>2022-08-29T08:38:32Z</time>
      </trkpt>
      <trkpt lat="42.4491360" lon="-3.0303010">
        <ele>733.2</ele>
        <time>2022-08-29T08:38:33Z</time>
      </trkpt>
      <trkpt lat="42.4491360" lon="-3.0303010">
        <ele>733.4</ele>
        <time>2022-08-29T08:38:34Z</time>
      </trkpt>
      <trkpt lat="42.4491370" lon="-3.0303010">
        <ele>733.2</ele>
        <time>2022-08-29T08:38:35Z</time>
      </trkpt>
      <trkpt lat="42.4491370" lon="-3.0303020">
        <ele>733.2</ele>
        <time>2022-08-29T08:38:36Z</time>
      </trkpt>
      <trkpt lat="42.4491370" lon="-3.0303020">
        <ele>733.4</ele>
        <time>2022-08-29T08:38:37Z</time>
      </trkpt>
      <trkpt lat="42.4491370" lon="-3.0303020">
        <ele>733.2</ele>
        <time>2022-08-29T08:38:38Z</time>
      </trkpt>
      <trkpt lat="42.4491370" lon="-3.0303020">
        <ele>733.2</ele>
        <time>2022-08-29T08:38:39Z</time>
      </trkpt>
      <trkpt lat="42.4491370" lon="-3.0303020">
        <ele>733.4</ele>
        <time>2022-08-29T08:38:40Z</time>
      </trkpt>
      <trkpt lat="42.4491370" lon="-3.0303020">
        <ele>733.4</ele>
        <time>2022-08-29T08:38:41Z</time>
      </trkpt>
      <trkpt lat="42.4491370" lon="-3.0303020">
        <ele>733.4</ele>
        <time>2022-08-29T08:38:42Z</time>
      </trkpt>
      <trkpt lat="42.4491370" lon="-3.0303020">
        <ele>733.4</ele>
        <time>2022-08-29T08:38:43Z</time>
      </trkpt>
      <trkpt lat="42.4491370" lon="-3.0303020">
        <ele>733.6</ele>
        <time>2022-08-29T08:38:44Z</time>
      </trkpt>
      <trkpt lat="42.4491370" lon="-3.0303020">
        <ele>733.4</ele>
        <time>2022-08-29T08:38:45Z</time>
      </trkpt>
      <trkpt lat="42.4491370" lon="-3.0303020">
        <ele>733.6</ele>
        <time>2022-08-29T08:38:46Z</time>
      </trkpt>
      <trkpt lat="42.4491370" lon="-3.0303020">
        <ele>733.4</ele>
        <time>2022-08-29T08:38:47Z</time>
      </trkpt>
      <trkpt lat="42.4491370" lon="-3.0303010">
        <ele>733.4</ele>
        <time>2022-08-29T08:38:48Z</time>
      </trkpt>
      <trkpt lat="42.4491370" lon="-3.0303010">
        <ele>733.4</ele>
        <time>2022-08-29T08:38:49Z</time>
      </trkpt>
      <trkpt lat="42.4491370" lon="-3.0303010">
        <ele>733.4</ele>
        <time>2022-08-29T08:38:50Z</time>
      </trkpt>
      <trkpt lat="42.4491370" lon="-3.0303010">
        <ele>733.4</ele>
        <time>2022-08-29T08:38:51Z</time>
      </trkpt>
      <trkpt lat="42.4491370" lon="-3.0303010">
        <ele>733.4</ele>
        <time>2022-08-29T08:38:52Z</time>
      </trkpt>
      <trkpt lat="42.4491370" lon="-3.0303010">
        <ele>733.4</ele>
        <time>2022-08-29T08:38:53Z</time>
      </trkpt>
      <trkpt lat="42.4491370" lon="-3.0303010">
        <ele>733.4</ele>
        <time>2022-08-29T08:38:54Z</time>
      </trkpt>
      <trkpt lat="42.4491370" lon="-3.0303010">
        <ele>733.6</ele>
        <time>2022-08-29T08:38:55Z</time>
      </trkpt>
      <trkpt lat="42.4491370" lon="-3.0303010">
        <ele>733.4</ele>
        <time>2022-08-29T08:38:56Z</time>
      </trkpt>
      <trkpt lat="42.4491370" lon="-3.0303010">
        <ele>733.4</ele>
        <time>2022-08-29T08:38:57Z</time>
      </trkpt>
      <trkpt lat="42.4491370" lon="-3.0303010">
        <ele>733.4</ele>
        <time>2022-08-29T08:38:58Z</time>
      </trkpt>
      <trkpt lat="42.4491370" lon="-3.0303010">
        <ele>733.4</ele>
        <time>2022-08-29T08:38:59Z</time>
      </trkpt>
      <trkpt lat="42.4491370" lon="-3.0303010">
        <ele>733.4</ele>
        <time>2022-08-29T08:39:00Z</time>
      </trkpt>
      <trkpt lat="42.4491370" lon="-3.0303010">
        <ele>733.4</ele>
        <time>2022-08-29T08:39:01Z</time>
      </trkpt>
      <trkpt lat="42.4491370" lon="-3.0303010">
        <ele>733.4</ele>
        <time>2022-08-29T08:39:02Z</time>
      </trkpt>
      <trkpt lat="42.4491370" lon="-3.0303010">
        <ele>733.4</ele>
        <time>2022-08-29T08:39:03Z</time>
      </trkpt>
      <trkpt lat="42.4491370" lon="-3.0303010">
        <ele>733.4</ele>
        <time>2022-08-29T08:39:04Z</time>
      </trkpt>
      <trkpt lat="42.4491370" lon="-3.0303010">
        <ele>733.4</ele>
        <time>2022-08-29T08:39:05Z</time>
      </trkpt>
      <trkpt lat="42.4491370" lon="-3.0303010">
        <ele>733.4</ele>
        <time>2022-08-29T08:39:06Z</time>
      </trkpt>
      <trkpt lat="42.4491370" lon="-3.0303010">
        <ele>733.6</ele>
        <time>2022-08-29T08:39:07Z</time>
      </trkpt>
      <trkpt lat="42.4491370" lon="-3.0303010">
        <ele>733.6</ele>
        <time>2022-08-29T08:39:08Z</time>
      </trkpt>
      <trkpt lat="42.4491380" lon="-3.0303020">
        <ele>733.4</ele>
        <time>2022-08-29T08:39:09Z</time>
      </trkpt>
      <trkpt lat="42.4491380" lon="-3.0303020">
        <ele>733.6</ele>
        <time>2022-08-29T08:39:10Z</time>
      </trkpt>
      <trkpt lat="42.4491380" lon="-3.0303020">
        <ele>733.6</ele>
        <time>2022-08-29T08:39:11Z</time>
      </trkpt>
      <trkpt lat="42.4491380" lon="-3.0303020">
        <ele>733.6</ele>
        <time>2022-08-29T08:39:12Z</time>
      </trkpt>
      <trkpt lat="42.4491380" lon="-3.0303020">
        <ele>733.6</ele>
        <time>2022-08-29T08:39:13Z</time>
      </trkpt>
      <trkpt lat="42.4491380" lon="-3.0303020">
        <ele>733.6</ele>
        <time>2022-08-29T08:39:14Z</time>
      </trkpt>
      <trkpt lat="42.4491380" lon="-3.0303020">
        <ele>733.6</ele>
        <time>2022-08-29T08:39:15Z</time>
      </trkpt>
      <trkpt lat="42.4491380" lon="-3.0303020">
        <ele>733.6</ele>
        <time>2022-08-29T08:39:16Z</time>
      </trkpt>
      <trkpt lat="42.4491400" lon="-3.0303020">
        <ele>733.6</ele>
        <time>2022-08-29T08:39:17Z</time>
      </trkpt>
      <trkpt lat="42.4491410" lon="-3.0303020">
        <ele>733.8</ele>
        <time>2022-08-29T08:39:18Z</time>
      </trkpt>
      <trkpt lat="42.4491420" lon="-3.0303020">
        <ele>733.6</ele>
        <time>2022-08-29T08:39:19Z</time>
      </trkpt>
      <trkpt lat="42.4491420" lon="-3.0303010">
        <ele>733.6</ele>
        <time>2022-08-29T08:39:20Z</time>
      </trkpt>
      <trkpt lat="42.4491420" lon="-3.0303010">
        <ele>733.6</ele>
        <time>2022-08-29T08:39:21Z</time>
      </trkpt>
      <trkpt lat="42.4491420" lon="-3.0303010">
        <ele>733.6</ele>
        <time>2022-08-29T08:39:22Z</time>
      </trkpt>
      <trkpt lat="42.4491420" lon="-3.0303010">
        <ele>733.6</ele>
        <time>2022-08-29T08:39:23Z</time>
      </trkpt>
      <trkpt lat="42.4491420" lon="-3.0303010">
        <ele>733.8</ele>
        <time>2022-08-29T08:39:24Z</time>
      </trkpt>
      <trkpt lat="42.4491420" lon="-3.0303010">
        <ele>733.6</ele>
        <time>2022-08-29T08:39:25Z</time>
      </trkpt>
      <trkpt lat="42.4491430" lon="-3.0303010">
        <ele>733.8</ele>
        <time>2022-08-29T08:39:26Z</time>
      </trkpt>
      <trkpt lat="42.4491430" lon="-3.0303010">
        <ele>733.8</ele>
        <time>2022-08-29T08:39:27Z</time>
      </trkpt>
      <trkpt lat="42.4491430" lon="-3.0303000">
        <ele>733.8</ele>
        <time>2022-08-29T08:39:28Z</time>
      </trkpt>
      <trkpt lat="42.4491430" lon="-3.0303000">
        <ele>733.8</ele>
        <time>2022-08-29T08:39:29Z</time>
      </trkpt>
      <trkpt lat="42.4491440" lon="-3.0303000">
        <ele>733.8</ele>
        <time>2022-08-29T08:39:30Z</time>
      </trkpt>
      <trkpt lat="42.4491440" lon="-3.0303000">
        <ele>733.6</ele>
        <time>2022-08-29T08:39:31Z</time>
      </trkpt>
      <trkpt lat="42.4491440" lon="-3.0302990">
        <ele>733.6</ele>
        <time>2022-08-29T08:39:32Z</time>
      </trkpt>
      <trkpt lat="42.4491440" lon="-3.0302990">
        <ele>733.8</ele>
        <time>2022-08-29T08:39:33Z</time>
      </trkpt>
      <trkpt lat="42.4491450" lon="-3.0302990">
        <ele>733.6</ele>
        <time>2022-08-29T08:39:34Z</time>
      </trkpt>
      <trkpt lat="42.4491450" lon="-3.0302990">
        <ele>733.8</ele>
        <time>2022-08-29T08:39:35Z</time>
      </trkpt>
      <trkpt lat="42.4491450" lon="-3.0302990">
        <ele>733.8</ele>
        <time>2022-08-29T08:39:36Z</time>
      </trkpt>
      <trkpt lat="42.4491440" lon="-3.0302990">
        <ele>733.8</ele>
        <time>2022-08-29T08:39:37Z</time>
      </trkpt>
      <trkpt lat="42.4491450" lon="-3.0302990">
        <ele>733.8</ele>
        <time>2022-08-29T08:39:38Z</time>
      </trkpt>
      <trkpt lat="42.4491440" lon="-3.0302990">
        <ele>733.8</ele>
        <time>2022-08-29T08:39:39Z</time>
      </trkpt>
      <trkpt lat="42.4491440" lon="-3.0302990">
        <ele>733.6</ele>
        <time>2022-08-29T08:39:40Z</time>
      </trkpt>
      <trkpt lat="42.4491440" lon="-3.0302990">
        <ele>733.8</ele>
        <time>2022-08-29T08:39:41Z</time>
      </trkpt>
      <trkpt lat="42.4491450" lon="-3.0302970">
        <ele>733.6</ele>
        <time>2022-08-29T08:39:42Z</time>
      </trkpt>
      <trkpt lat="42.4491450" lon="-3.0302970">
        <ele>733.8</ele>
        <time>2022-08-29T08:39:43Z</time>
      </trkpt>
      <trkpt lat="42.4491480" lon="-3.0302960">
        <ele>733.6</ele>
        <time>2022-08-29T08:39:44Z</time>
      </trkpt>
      <trkpt lat="42.4491540" lon="-3.0302950">
        <ele>733.6</ele>
        <time>2022-08-29T08:39:45Z</time>
      </trkpt>
      <trkpt lat="42.4491580" lon="-3.0302930">
        <ele>733.6</ele>
        <time>2022-08-29T08:39:46Z</time>
      </trkpt>
      <trkpt lat="42.4491590" lon="-3.0302930">
        <ele>733.4</ele>
        <time>2022-08-29T08:39:47Z</time>
      </trkpt>
      <trkpt lat="42.4491590" lon="-3.0302930">
        <ele>733.6</ele>
        <time>2022-08-29T08:39:48Z</time>
      </trkpt>
      <trkpt lat="42.4491590" lon="-3.0302930">
        <ele>733.6</ele>
        <time>2022-08-29T08:39:49Z</time>
      </trkpt>
      <trkpt lat="42.4491620" lon="-3.0302860">
        <ele>733.6</ele>
        <time>2022-08-29T08:39:50Z</time>
      </trkpt>
      <trkpt lat="42.4491620" lon="-3.0302750">
        <ele>733.4</ele>
        <time>2022-08-29T08:39:51Z</time>
      </trkpt>
      <trkpt lat="42.4491580" lon="-3.0302610">
        <ele>733.4</ele>
        <time>2022-08-29T08:39:52Z</time>
      </trkpt>
      <trkpt lat="42.4491510" lon="-3.0302470">
        <ele>733.4</ele>
        <time>2022-08-29T08:39:53Z</time>
      </trkpt>
      <trkpt lat="42.4491510" lon="-3.0302330">
        <ele>733.6</ele>
        <time>2022-08-29T08:39:54Z</time>
      </trkpt>
      <trkpt lat="42.4491550" lon="-3.0302220">
        <ele>733.4</ele>
        <time>2022-08-29T08:39:55Z</time>
      </trkpt>
      <trkpt lat="42.4491630" lon="-3.0302160">
        <ele>733.4</ele>
        <time>2022-08-29T08:39:56Z</time>
      </trkpt>
      <trkpt lat="42.4491680" lon="-3.0302130">
        <ele>733.4</ele>
        <time>2022-08-29T08:39:57Z</time>
      </trkpt>
      <trkpt lat="42.4491700" lon="-3.0302120">
        <ele>733.4</ele>
        <time>2022-08-29T08:39:58Z</time>
      </trkpt>
      <trkpt lat="42.4491700" lon="-3.0302120">
        <ele>733.6</ele>
        <time>2022-08-29T08:39:59Z</time>
      </trkpt>
      <trkpt lat="42.4491700" lon="-3.0302130">
        <ele>733.4</ele>
        <time>2022-08-29T08:40:00Z</time>
      </trkpt>
      <trkpt lat="42.4491700" lon="-3.0302130">
        <ele>733.4</ele>
        <time>2022-08-29T08:40:01Z</time>
      </trkpt>
      <trkpt lat="42.4491700" lon="-3.0302130">
        <ele>733.4</ele>
        <time>2022-08-29T08:40:02Z</time>
      </trkpt>
      <trkpt lat="42.4491720" lon="-3.0302130">
        <ele>733.6</ele>
        <time>2022-08-29T08:40:03Z</time>
      </trkpt>
      <trkpt lat="42.4491730" lon="-3.0302120">
        <ele>733.4</ele>
        <time>2022-08-29T08:40:04Z</time>
      </trkpt>
      <trkpt lat="42.4491740" lon="-3.0302100">
        <ele>733.6</ele>
        <time>2022-08-29T08:40:05Z</time>
      </trkpt>
      <trkpt lat="42.4491750" lon="-3.0302090">
        <ele>733.4</ele>
        <time>2022-08-29T08:40:06Z</time>
      </trkpt>
      <trkpt lat="42.4491760" lon="-3.0302080">
        <ele>733.6</ele>
        <time>2022-08-29T08:40:07Z</time>
      </trkpt>
      <trkpt lat="42.4491800" lon="-3.0302050">
        <ele>733.8</ele>
        <time>2022-08-29T08:40:08Z</time>
      </trkpt>
      <trkpt lat="42.4491790" lon="-3.0302040">
        <ele>733.6</ele>
        <time>2022-08-29T08:40:09Z</time>
      </trkpt>
      <trkpt lat="42.4491790" lon="-3.0302020">
        <ele>733.6</ele>
        <time>2022-08-29T08:40:10Z</time>
      </trkpt>
      <trkpt lat="42.4491740" lon="-3.0302040">
        <ele>733.6</ele>
        <time>2022-08-29T08:40:11Z</time>
      </trkpt>
      <trkpt lat="42.4491700" lon="-3.0302050">
        <ele>733.8</ele>
        <time>2022-08-29T08:40:12Z</time>
      </trkpt>
      <trkpt lat="42.4491700" lon="-3.0302050">
        <ele>733.6</ele>
        <time>2022-08-29T08:40:13Z</time>
      </trkpt>
      <trkpt lat="42.4491700" lon="-3.0302050">
        <ele>733.8</ele>
        <time>2022-08-29T08:40:14Z</time>
      </trkpt>
      <trkpt lat="42.4491700" lon="-3.0302050">
        <ele>733.8</ele>
        <time>2022-08-29T08:40:15Z</time>
      </trkpt>
      <trkpt lat="42.4491700" lon="-3.0302050">
        <ele>733.8</ele>
        <time>2022-08-29T08:40:16Z</time>
      </trkpt>
      <trkpt lat="42.4491700" lon="-3.0302040">
        <ele>733.8</ele>
        <time>2022-08-29T08:40:17Z</time>
      </trkpt>
      <trkpt lat="42.4491690" lon="-3.0302040">
        <ele>733.8</ele>
        <time>2022-08-29T08:40:18Z</time>
      </trkpt>
      <trkpt lat="42.4491700" lon="-3.0302040">
        <ele>733.8</ele>
        <time>2022-08-29T08:40:19Z</time>
      </trkpt>
      <trkpt lat="42.4491690" lon="-3.0302030">
        <ele>733.8</ele>
        <time>2022-08-29T08:40:20Z</time>
      </trkpt>
      <trkpt lat="42.4491670" lon="-3.0302040">
        <ele>733.8</ele>
        <time>2022-08-29T08:40:21Z</time>
      </trkpt>
      <trkpt lat="42.4491690" lon="-3.0301940">
        <ele>733.8</ele>
        <time>2022-08-29T08:40:22Z</time>
      </trkpt>
      <trkpt lat="42.4491740" lon="-3.0301830">
        <ele>733.8</ele>
        <time>2022-08-29T08:40:23Z</time>
      </trkpt>
      <trkpt lat="42.4491740" lon="-3.0301720">
        <ele>733.8</ele>
        <time>2022-08-29T08:40:24Z</time>
      </trkpt>
      <trkpt lat="42.4491700" lon="-3.0301580">
        <ele>733.8</ele>
        <time>2022-08-29T08:40:25Z</time>
      </trkpt>
      <trkpt lat="42.4491590" lon="-3.0301480">
        <ele>733.8</ele>
        <time>2022-08-29T08:40:26Z</time>
      </trkpt>
      <trkpt lat="42.4491450" lon="-3.0301380">
        <ele>733.8</ele>
        <time>2022-08-29T08:40:27Z</time>
      </trkpt>
      <trkpt lat="42.4491330" lon="-3.0301250">
        <ele>733.8</ele>
        <time>2022-08-29T08:40:28Z</time>
      </trkpt>
      <trkpt lat="42.4491170" lon="-3.0301080">
        <ele>733.8</ele>
        <time>2022-08-29T08:40:29Z</time>
      </trkpt>
      <trkpt lat="42.4491010" lon="-3.0300870">
        <ele>733.8</ele>
        <time>2022-08-29T08:40:30Z</time>
      </trkpt>
      <trkpt lat="42.4490840" lon="-3.0300640">
        <ele>733.8</ele>
        <time>2022-08-29T08:40:31Z</time>
      </trkpt>
      <trkpt lat="42.4490660" lon="-3.0300400">
        <ele>733.8</ele>
        <time>2022-08-29T08:40:32Z</time>
      </trkpt>
      <trkpt lat="42.4490460" lon="-3.0300180">
        <ele>733.8</ele>
        <time>2022-08-29T08:40:33Z</time>
      </trkpt>
      <trkpt lat="42.4490260" lon="-3.0299960">
        <ele>733.8</ele>
        <time>2022-08-29T08:40:34Z</time>
      </trkpt>
      <trkpt lat="42.4490080" lon="-3.0299700">
        <ele>733.8</ele>
        <time>2022-08-29T08:40:35Z</time>
      </trkpt>
      <trkpt lat="42.4489900" lon="-3.0299420">
        <ele>733.8</ele>
        <time>2022-08-29T08:40:36Z</time>
      </trkpt>
      <trkpt lat="42.4489700" lon="-3.0299170">
        <ele>733.8</ele>
        <time>2022-08-29T08:40:37Z</time>
      </trkpt>
      <trkpt lat="42.4489480" lon="-3.0298950">
        <ele>733.8</ele>
        <time>2022-08-29T08:40:38Z</time>
      </trkpt>
      <trkpt lat="42.4489250" lon="-3.0298800">
        <ele>733.8</ele>
        <time>2022-08-29T08:40:39Z</time>
      </trkpt>
      <trkpt lat="42.4489030" lon="-3.0298760">
        <ele>733.8</ele>
        <time>2022-08-29T08:40:40Z</time>
      </trkpt>
      <trkpt lat="42.4488850" lon="-3.0298890">
        <ele>733.8</ele>
        <time>2022-08-29T08:40:41Z</time>
      </trkpt>
      <trkpt lat="42.4488720" lon="-3.0299140">
        <ele>733.8</ele>
        <time>2022-08-29T08:40:42Z</time>
      </trkpt>
      <trkpt lat="42.4488650" lon="-3.0299480">
        <ele>733.8</ele>
        <time>2022-08-29T08:40:43Z</time>
      </trkpt>
      <trkpt lat="42.4488690" lon="-3.0299890">
        <ele>734.0</ele>
        <time>2022-08-29T08:40:44Z</time>
      </trkpt>
      <trkpt lat="42.4488820" lon="-3.0300380">
        <ele>734.0</ele>
        <time>2022-08-29T08:40:45Z</time>
      </trkpt>
      <trkpt lat="42.4489050" lon="-3.0300960">
        <ele>733.8</ele>
        <time>2022-08-29T08:40:46Z</time>
      </trkpt>
      <trkpt lat="42.4489370" lon="-3.0301610">
        <ele>733.8</ele>
        <time>2022-08-29T08:40:47Z</time>
      </trkpt>
      <trkpt lat="42.4489760" lon="-3.0302360">
        <ele>733.8</ele>
        <time>2022-08-29T08:40:48Z</time>
      </trkpt>
      <trkpt lat="42.4490130" lon="-3.0303240">
        <ele>733.6</ele>
        <time>2022-08-29T08:40:49Z</time>
      </trkpt>
      <trkpt lat="42.4490300" lon="-3.0304290">
        <ele>733.6</ele>
        <time>2022-08-29T08:40:50Z</time>
      </trkpt>
      <trkpt lat="42.4490230" lon="-3.0305470">
        <ele>733.6</ele>
        <time>2022-08-29T08:40:51Z</time>
      </trkpt>
      <trkpt lat="42.4490030" lon="-3.0306740">
        <ele>733.6</ele>
        <time>2022-08-29T08:40:52Z</time>
      </trkpt>
      <trkpt lat="42.4489740" lon="-3.0308160">
        <ele>733.6</ele>
        <time>2022-08-29T08:40:53Z</time>
      </trkpt>
      <trkpt lat="42.4489410" lon="-3.0309650">
        <ele>733.4</ele>
        <time>2022-08-29T08:40:54Z</time>
      </trkpt>
      <trkpt lat="42.4489030" lon="-3.0311180">
        <ele>732.8</ele>
        <time>2022-08-29T08:40:55Z</time>
      </trkpt>
      <trkpt lat="42.4488580" lon="-3.0312760">
        <ele>731.8</ele>
        <time>2022-08-29T08:40:56Z</time>
      </trkpt>
      <trkpt lat="42.4488100" lon="-3.0314420">
        <ele>730.4</ele>
        <time>2022-08-29T08:40:57Z</time>
      </trkpt>
      <trkpt lat="42.4487660" lon="-3.0316140">
        <ele>730.4</ele>
        <time>2022-08-29T08:40:58Z</time>
      </trkpt>
      <trkpt lat="42.4487260" lon="-3.0317810">
        <ele>729.2</ele>
        <time>2022-08-29T08:40:59Z</time>
      </trkpt>
      <trkpt lat="42.4486910" lon="-3.0319340">
        <ele>727.8</ele>
        <time>2022-08-29T08:41:00Z</time>
      </trkpt>
      <trkpt lat="42.4486600" lon="-3.0320780">
        <ele>726.4</ele>
        <time>2022-08-29T08:41:01Z</time>
      </trkpt>
      <trkpt lat="42.4486340" lon="-3.0322270">
        <ele>724.8</ele>
        <time>2022-08-29T08:41:02Z</time>
      </trkpt>
      <trkpt lat="42.4486150" lon="-3.0323800">
        <ele>723.4</ele>
        <time>2022-08-29T08:41:03Z</time>
      </trkpt>
      <trkpt lat="42.4486040" lon="-3.0325270">
        <ele>721.4</ele>
        <time>2022-08-29T08:41:04Z</time>
      </trkpt>
      <trkpt lat="42.4485980" lon="-3.0326610">
        <ele>719.0</ele>
        <time>2022-08-29T08:41:05Z</time>
      </trkpt>
      <trkpt lat="42.4485960" lon="-3.0327810">
        <ele>716.4</ele>
        <time>2022-08-29T08:41:06Z</time>
      </trkpt>
      <trkpt lat="42.4485980" lon="-3.0328800">
        <ele>714.0</ele>
        <time>2022-08-29T08:41:07Z</time>
      </trkpt>
      <trkpt lat="42.4486070" lon="-3.0329540">
        <ele>712.6</ele>
        <time>2022-08-29T08:41:08Z</time>
      </trkpt>
      <trkpt lat="42.4486280" lon="-3.0330050">
        <ele>711.4</ele>
        <time>2022-08-29T08:41:09Z</time>
      </trkpt>
      <trkpt lat="42.4486590" lon="-3.0330440">
        <ele>709.4</ele>
        <time>2022-08-29T08:41:10Z</time>
      </trkpt>
      <trkpt lat="42.4487070" lon="-3.0330560">
        <ele>707.6</ele>
        <time>2022-08-29T08:41:11Z</time>
      </trkpt>
      <trkpt lat="42.4487600" lon="-3.0330440">
        <ele>705.4</ele>
        <time>2022-08-29T08:41:12Z</time>
      </trkpt>
      <trkpt lat="42.4488110" lon="-3.0330200">
        <ele>704.2</ele>
        <time>2022-08-29T08:41:13Z</time>
      </trkpt>
      <trkpt lat="42.4488580" lon="-3.0329960">
        <ele>703.4</ele>
        <time>2022-08-29T08:41:14Z</time>
      </trkpt>
      <trkpt lat="42.4489060" lon="-3.0329800">
        <ele>702.6</ele>
        <time>2022-08-29T08:41:15Z</time>
      </trkpt>
      <trkpt lat="42.4489550" lon="-3.0329790">
        <ele>702.0</ele>
        <time>2022-08-29T08:41:16Z</time>
      </trkpt>
      <trkpt lat="42.4490050" lon="-3.0330030">
        <ele>701.6</ele>
        <time>2022-08-29T08:41:17Z</time>
      </trkpt>
      <trkpt lat="42.4490450" lon="-3.0330600">
        <ele>701.6</ele>
        <time>2022-08-29T08:41:18Z</time>
      </trkpt>
      <trkpt lat="42.4490850" lon="-3.0331340">
        <ele>701.4</ele>
        <time>2022-08-29T08:41:19Z</time>
      </trkpt>
      <trkpt lat="42.4491280" lon="-3.0332190">
        <ele>701.0</ele>
        <time>2022-08-29T08:41:20Z</time>
      </trkpt>
      <trkpt lat="42.4491730" lon="-3.0333140">
        <ele>701.0</ele>
        <time>2022-08-29T08:41:21Z</time>
      </trkpt>
      <trkpt lat="42.4492190" lon="-3.0334120">
        <ele>700.2</ele>
        <time>2022-08-29T08:41:22Z</time>
      </trkpt>
      <trkpt lat="42.4492670" lon="-3.0335180">
        <ele>699.8</ele>
        <time>2022-08-29T08:41:23Z</time>
      </trkpt>
      <trkpt lat="42.4493170" lon="-3.0336280">
        <ele>699.0</ele>
        <time>2022-08-29T08:41:24Z</time>
      </trkpt>
      <trkpt lat="42.4493720" lon="-3.0337400">
        <ele>698.4</ele>
        <time>2022-08-29T08:41:25Z</time>
      </trkpt>
      <trkpt lat="42.4494300" lon="-3.0338560">
        <ele>697.8</ele>
        <time>2022-08-29T08:41:26Z</time>
      </trkpt>
      <trkpt lat="42.4494860" lon="-3.0339760">
        <ele>697.4</ele>
        <time>2022-08-29T08:41:27Z</time>
      </trkpt>
      <trkpt lat="42.4495450" lon="-3.0340980">
        <ele>697.2</ele>
        <time>2022-08-29T08:41:28Z</time>
      </trkpt>
      <trkpt lat="42.4496010" lon="-3.0342240">
        <ele>695.6</ele>
        <time>2022-08-29T08:41:29Z</time>
      </trkpt>
      <trkpt lat="42.4496570" lon="-3.0343490">
        <ele>694.6</ele>
        <time>2022-08-29T08:41:30Z</time>
      </trkpt>
      <trkpt lat="42.4497160" lon="-3.0344760">
        <ele>693.6</ele>
        <time>2022-08-29T08:41:31Z</time>
      </trkpt>
      <trkpt lat="42.4497750" lon="-3.0346010">
        <ele>692.4</ele>
        <time>2022-08-29T08:41:32Z</time>
      </trkpt>
      <trkpt lat="42.4498350" lon="-3.0347220">
        <ele>690.6</ele>
        <time>2022-08-29T08:41:33Z</time>
      </trkpt>
      <trkpt lat="42.4498920" lon="-3.0348370">
        <ele>689.4</ele>
        <time>2022-08-29T08:41:34Z</time>
      </trkpt>
      <trkpt lat="42.4499460" lon="-3.0349480">
        <ele>688.6</ele>
        <time>2022-08-29T08:41:35Z</time>
      </trkpt>
      <trkpt lat="42.4500010" lon="-3.0350540">
        <ele>687.6</ele>
        <time>2022-08-29T08:41:36Z</time>
      </trkpt>
      <trkpt lat="42.4500530" lon="-3.0351560">
        <ele>686.8</ele>
        <time>2022-08-29T08:41:37Z</time>
      </trkpt>
      <trkpt lat="42.4501030" lon="-3.0352560">
        <ele>686.4</ele>
        <time>2022-08-29T08:41:38Z</time>
      </trkpt>
      <trkpt lat="42.4501510" lon="-3.0353530">
        <ele>686.0</ele>
        <time>2022-08-29T08:41:39Z</time>
      </trkpt>
      <trkpt lat="42.4501980" lon="-3.0354470">
        <ele>685.6</ele>
        <time>2022-08-29T08:41:40Z</time>
      </trkpt>
      <trkpt lat="42.4502410" lon="-3.0355400">
        <ele>685.2</ele>
        <time>2022-08-29T08:41:41Z</time>
      </trkpt>
      <trkpt lat="42.4502810" lon="-3.0356290">
        <ele>685.2</ele>
        <time>2022-08-29T08:41:42Z</time>
      </trkpt>
      <trkpt lat="42.4503220" lon="-3.0357130">
        <ele>685.2</ele>
        <time>2022-08-29T08:41:43Z</time>
      </trkpt>
      <trkpt lat="42.4503600" lon="-3.0357920">
        <ele>685.2</ele>
        <time>2022-08-29T08:41:44Z</time>
      </trkpt>
      <trkpt lat="42.4503910" lon="-3.0358680">
        <ele>685.2</ele>
        <time>2022-08-29T08:41:45Z</time>
      </trkpt>
      <trkpt lat="42.4504240" lon="-3.0359420">
        <ele>685.2</ele>
        <time>2022-08-29T08:41:46Z</time>
      </trkpt>
      <trkpt lat="42.4504590" lon="-3.0360120">
        <ele>685.2</ele>
        <time>2022-08-29T08:41:47Z</time>
      </trkpt>
      <trkpt lat="42.4504910" lon="-3.0360810">
        <ele>685.0</ele>
        <time>2022-08-29T08:41:48Z</time>
      </trkpt>
      <trkpt lat="42.4505160" lon="-3.0361450">
        <ele>685.0</ele>
        <time>2022-08-29T08:41:49Z</time>
      </trkpt>
      <trkpt lat="42.4505420" lon="-3.0362060">
        <ele>685.2</ele>
        <time>2022-08-29T08:41:50Z</time>
      </trkpt>
      <trkpt lat="42.4505660" lon="-3.0362630">
        <ele>685.8</ele>
        <time>2022-08-29T08:41:51Z</time>
      </trkpt>
      <trkpt lat="42.4505880" lon="-3.0363170">
        <ele>686.0</ele>
        <time>2022-08-29T08:41:52Z</time>
      </trkpt>
      <trkpt lat="42.4506100" lon="-3.0363660">
        <ele>686.4</ele>
        <time>2022-08-29T08:41:53Z</time>
      </trkpt>
      <trkpt lat="42.4506310" lon="-3.0364110">
        <ele>687.0</ele>
        <time>2022-08-29T08:41:54Z</time>
      </trkpt>
      <trkpt lat="42.4506520" lon="-3.0364520">
        <ele>687.2</ele>
        <time>2022-08-29T08:41:55Z</time>
      </trkpt>
      <trkpt lat="42.4506710" lon="-3.0364900">
        <ele>687.2</ele>
        <time>2022-08-29T08:41:56Z</time>
      </trkpt>
      <trkpt lat="42.4506900" lon="-3.0365240">
        <ele>687.4</ele>
        <time>2022-08-29T08:41:57Z</time>
      </trkpt>
      <trkpt lat="42.4507080" lon="-3.0365580">
        <ele>687.4</ele>
        <time>2022-08-29T08:41:58Z</time>
      </trkpt>
      <trkpt lat="42.4507230" lon="-3.0365910">
        <ele>688.0</ele>
        <time>2022-08-29T08:41:59Z</time>
      </trkpt>
      <trkpt lat="42.4507350" lon="-3.0366230">
        <ele>688.4</ele>
        <time>2022-08-29T08:42:00Z</time>
      </trkpt>
      <trkpt lat="42.4507460" lon="-3.0366540">
        <ele>689.0</ele>
        <time>2022-08-29T08:42:01Z</time>
      </trkpt>
      <trkpt lat="42.4507580" lon="-3.0366830">
        <ele>689.6</ele>
        <time>2022-08-29T08:42:02Z</time>
      </trkpt>
      <trkpt lat="42.4507710" lon="-3.0367110">
        <ele>690.0</ele>
        <time>2022-08-29T08:42:03Z</time>
      </trkpt>
      <trkpt lat="42.4507870" lon="-3.0367360">
        <ele>690.4</ele>
        <time>2022-08-29T08:42:04Z</time>
      </trkpt>
      <trkpt lat="42.4508020" lon="-3.0367640">
        <ele>690.6</ele>
        <time>2022-08-29T08:42:05Z</time>
      </trkpt>
      <trkpt lat="42.4508160" lon="-3.0367940">
        <ele>690.8</ele>
        <time>2022-08-29T08:42:06Z</time>
      </trkpt>
      <trkpt lat="42.4508300" lon="-3.0368240">
        <ele>690.8</ele>
        <time>2022-08-29T08:42:07Z</time>
      </trkpt>
      <trkpt lat="42.4508460" lon="-3.0368540">
        <ele>691.0</ele>
        <time>2022-08-29T08:42:08Z</time>
      </trkpt>
      <trkpt lat="42.4508590" lon="-3.0368860">
        <ele>691.2</ele>
        <time>2022-08-29T08:42:09Z</time>
      </trkpt>
      <trkpt lat="42.4508710" lon="-3.0369180">
        <ele>691.2</ele>
        <time>2022-08-29T08:42:10Z</time>
      </trkpt>
      <trkpt lat="42.4508770" lon="-3.0369520">
        <ele>691.8</ele>
        <time>2022-08-29T08:42:11Z</time>
      </trkpt>
      <trkpt lat="42.4508770" lon="-3.0369880">
        <ele>692.0</ele>
        <time>2022-08-29T08:42:12Z</time>
      </trkpt>
      <trkpt lat="42.4508720" lon="-3.0370250">
        <ele>692.0</ele>
        <time>2022-08-29T08:42:13Z</time>
      </trkpt>
      <trkpt lat="42.4508620" lon="-3.0370620">
        <ele>692.2</ele>
        <time>2022-08-29T08:42:14Z</time>
      </trkpt>
      <trkpt lat="42.4508470" lon="-3.0370990">
        <ele>692.4</ele>
        <time>2022-08-29T08:42:15Z</time>
      </trkpt>
      <trkpt lat="42.4508260" lon="-3.0371340">
        <ele>692.4</ele>
        <time>2022-08-29T08:42:16Z</time>
      </trkpt>
      <trkpt lat="42.4508020" lon="-3.0371680">
        <ele>692.6</ele>
        <time>2022-08-29T08:42:17Z</time>
      </trkpt>
      <trkpt lat="42.4507750" lon="-3.0372040">
        <ele>692.6</ele>
        <time>2022-08-29T08:42:18Z</time>
      </trkpt>
      <trkpt lat="42.4507460" lon="-3.0372370">
        <ele>692.6</ele>
        <time>2022-08-29T08:42:19Z</time>
      </trkpt>
      <trkpt lat="42.4507140" lon="-3.0372680">
        <ele>692.8</ele>
        <time>2022-08-29T08:42:20Z</time>
      </trkpt>
      <trkpt lat="42.4506820" lon="-3.0373000">
        <ele>692.8</ele>
        <time>2022-08-29T08:42:21Z</time>
      </trkpt>
      <trkpt lat="42.4506500" lon="-3.0373310">
        <ele>693.0</ele>
        <time>2022-08-29T08:42:22Z</time>
      </trkpt>
      <trkpt lat="42.4506150" lon="-3.0373600">
        <ele>693.2</ele>
        <time>2022-08-29T08:42:23Z</time>
      </trkpt>
      <trkpt lat="42.4505800" lon="-3.0373900">
        <ele>693.2</ele>
        <time>2022-08-29T08:42:24Z</time>
      </trkpt>
      <trkpt lat="42.4505460" lon="-3.0374210">
        <ele>693.2</ele>
        <time>2022-08-29T08:42:25Z</time>
      </trkpt>
      <trkpt lat="42.4505120" lon="-3.0374530">
        <ele>693.4</ele>
        <time>2022-08-29T08:42:26Z</time>
      </trkpt>
      <trkpt lat="42.4504770" lon="-3.0374850">
        <ele>693.4</ele>
        <time>2022-08-29T08:42:27Z</time>
      </trkpt>
      <trkpt lat="42.4504440" lon="-3.0375170">
        <ele>693.6</ele>
        <time>2022-08-29T08:42:28Z</time>
      </trkpt>
      <trkpt lat="42.4504110" lon="-3.0375490">
        <ele>693.6</ele>
        <time>2022-08-29T08:42:29Z</time>
      </trkpt>
      <trkpt lat="42.4503780" lon="-3.0375820">
        <ele>693.6</ele>
        <time>2022-08-29T08:42:30Z</time>
      </trkpt>
      <trkpt lat="42.4503460" lon="-3.0376170">
        <ele>693.8</ele>
        <time>2022-08-29T08:42:31Z</time>
      </trkpt>
      <trkpt lat="42.4503130" lon="-3.0376490">
        <ele>693.8</ele>
        <time>2022-08-29T08:42:32Z</time>
      </trkpt>
      <trkpt lat="42.4502780" lon="-3.0376800">
        <ele>694.0</ele>
        <time>2022-08-29T08:42:33Z</time>
      </trkpt>
      <trkpt lat="42.4502430" lon="-3.0377120">
        <ele>694.0</ele>
        <time>2022-08-29T08:42:34Z</time>
      </trkpt>
      <trkpt lat="42.4502090" lon="-3.0377460">
        <ele>694.0</ele>
        <time>2022-08-29T08:42:35Z</time>
      </trkpt>
      <trkpt lat="42.4501760" lon="-3.0377800">
        <ele>694.0</ele>
        <time>2022-08-29T08:42:36Z</time>
      </trkpt>
      <trkpt lat="42.4501410" lon="-3.0378140">
        <ele>694.0</ele>
        <time>2022-08-29T08:42:37Z</time>
      </trkpt>
      <trkpt lat="42.4501060" lon="-3.0378470">
        <ele>694.0</ele>
        <time>2022-08-29T08:42:38Z</time>
      </trkpt>
      <trkpt lat="42.4500710" lon="-3.0378800">
        <ele>694.2</ele>
        <time>2022-08-29T08:42:39Z</time>
      </trkpt>
      <trkpt lat="42.4500350" lon="-3.0379130">
        <ele>694.2</ele>
        <time>2022-08-29T08:42:40Z</time>
      </trkpt>
      <trkpt lat="42.4500010" lon="-3.0379470">
        <ele>694.2</ele>
        <time>2022-08-29T08:42:41Z</time>
      </trkpt>
      <trkpt lat="42.4499660" lon="-3.0379790">
        <ele>694.2</ele>
        <time>2022-08-29T08:42:42Z</time>
      </trkpt>
      <trkpt lat="42.4499320" lon="-3.0380110">
        <ele>694.2</ele>
        <time>2022-08-29T08:42:43Z</time>
      </trkpt>
      <trkpt lat="42.4498970" lon="-3.0380430">
        <ele>694.2</ele>
        <time>2022-08-29T08:42:44Z</time>
      </trkpt>
      <trkpt lat="42.4498640" lon="-3.0380750">
        <ele>694.6</ele>
        <time>2022-08-29T08:42:45Z</time>
      </trkpt>
      <trkpt lat="42.4498320" lon="-3.0381080">
        <ele>694.6</ele>
        <time>2022-08-29T08:42:46Z</time>
      </trkpt>
      <trkpt lat="42.4497990" lon="-3.0381390">
        <ele>694.4</ele>
        <time>2022-08-29T08:42:47Z</time>
      </trkpt>
      <trkpt lat="42.4497670" lon="-3.0381700">
        <ele>694.8</ele>
        <time>2022-08-29T08:42:48Z</time>
      </trkpt>
      <trkpt lat="42.4497370" lon="-3.0382020">
        <ele>694.6</ele>
        <time>2022-08-29T08:42:49Z</time>
      </trkpt>
      <trkpt lat="42.4497070" lon="-3.0382330">
        <ele>695.0</ele>
        <time>2022-08-29T08:42:50Z</time>
      </trkpt>
      <trkpt lat="42.4496780" lon="-3.0382660">
        <ele>695.2</ele>
        <time>2022-08-29T08:42:51Z</time>
      </trkpt>
      <trkpt lat="42.4496500" lon="-3.0382980">
        <ele>695.4</ele>
        <time>2022-08-29T08:42:52Z</time>
      </trkpt>
      <trkpt lat="42.4496210" lon="-3.0383290">
        <ele>695.4</ele>
        <time>2022-08-29T08:42:53Z</time>
      </trkpt>
      <trkpt lat="42.4495930" lon="-3.0383590">
        <ele>695.4</ele>
        <time>2022-08-29T08:42:54Z</time>
      </trkpt>
      <trkpt lat="42.4495650" lon="-3.0383900">
        <ele>695.6</ele>
        <time>2022-08-29T08:42:55Z</time>
      </trkpt>
      <trkpt lat="42.4495370" lon="-3.0384210">
        <ele>695.8</ele>
        <time>2022-08-29T08:42:56Z</time>
      </trkpt>
      <trkpt lat="42.4495090" lon="-3.0384500">
        <ele>696.0</ele>
        <time>2022-08-29T08:42:57Z</time>
      </trkpt>
      <trkpt lat="42.4494800" lon="-3.0384780">
        <ele>696.0</ele>
        <time>2022-08-29T08:42:58Z</time>
      </trkpt>
      <trkpt lat="42.4494520" lon="-3.0385070">
        <ele>696.4</ele>
        <time>2022-08-29T08:42:59Z</time>
      </trkpt>
      <trkpt lat="42.4494230" lon="-3.0385350">
        <ele>696.4</ele>
        <time>2022-08-29T08:43:00Z</time>
      </trkpt>
      <trkpt lat="42.4493940" lon="-3.0385630">
        <ele>696.6</ele>
        <time>2022-08-29T08:43:01Z</time>
      </trkpt>
      <trkpt lat="42.4493640" lon="-3.0385870">
        <ele>696.8</ele>
        <time>2022-08-29T08:43:02Z</time>
      </trkpt>
      <trkpt lat="42.4493360" lon="-3.0386100">
        <ele>696.8</ele>
        <time>2022-08-29T08:43:03Z</time>
      </trkpt>
      <trkpt lat="42.4493070" lon="-3.0386330">
        <ele>697.0</ele>
        <time>2022-08-29T08:43:04Z</time>
      </trkpt>
      <trkpt lat="42.4492820" lon="-3.0386580">
        <ele>697.2</ele>
        <time>2022-08-29T08:43:05Z</time>
      </trkpt>
      <trkpt lat="42.4492600" lon="-3.0386840">
        <ele>697.2</ele>
        <time>2022-08-29T08:43:06Z</time>
      </trkpt>
      <trkpt lat="42.4492370" lon="-3.0387100">
        <ele>697.6</ele>
        <time>2022-08-29T08:43:07Z</time>
      </trkpt>
      <trkpt lat="42.4492140" lon="-3.0387330">
        <ele>697.6</ele>
        <time>2022-08-29T08:43:08Z</time>
      </trkpt>
      <trkpt lat="42.4491900" lon="-3.0387560">
        <ele>697.8</ele>
        <time>2022-08-29T08:43:09Z</time>
      </trkpt>
      <trkpt lat="42.4491670" lon="-3.0387770">
        <ele>697.8</ele>
        <time>2022-08-29T08:43:10Z</time>
      </trkpt>
      <trkpt lat="42.4491430" lon="-3.0387970">
        <ele>698.0</ele>
        <time>2022-08-29T08:43:11Z</time>
      </trkpt>
      <trkpt lat="42.4491200" lon="-3.0388180">
        <ele>698.2</ele>
        <time>2022-08-29T08:43:12Z</time>
      </trkpt>
      <trkpt lat="42.4490970" lon="-3.0388410">
        <ele>698.4</ele>
        <time>2022-08-29T08:43:13Z</time>
      </trkpt>
      <trkpt lat="42.4490750" lon="-3.0388650">
        <ele>698.6</ele>
        <time>2022-08-29T08:43:14Z</time>
      </trkpt>
      <trkpt lat="42.4490520" lon="-3.0388880">
        <ele>698.8</ele>
        <time>2022-08-29T08:43:15Z</time>
      </trkpt>
      <trkpt lat="42.4490290" lon="-3.0389090">
        <ele>698.8</ele>
        <time>2022-08-29T08:43:16Z</time>
      </trkpt>
      <trkpt lat="42.4490070" lon="-3.0389320">
        <ele>699.0</ele>
        <time>2022-08-29T08:43:17Z</time>
      </trkpt>
      <trkpt lat="42.4489860" lon="-3.0389540">
        <ele>699.0</ele>
        <time>2022-08-29T08:43:18Z</time>
      </trkpt>
      <trkpt lat="42.4489650" lon="-3.0389780">
        <ele>699.4</ele>
        <time>2022-08-29T08:43:19Z</time>
      </trkpt>
      <trkpt lat="42.4489430" lon="-3.0390010">
        <ele>699.6</ele>
        <time>2022-08-29T08:43:20Z</time>
      </trkpt>
      <trkpt lat="42.4489210" lon="-3.0390240">
        <ele>700.0</ele>
        <time>2022-08-29T08:43:21Z</time>
      </trkpt>
      <trkpt lat="42.4489000" lon="-3.0390450">
        <ele>700.2</ele>
        <time>2022-08-29T08:43:22Z</time>
      </trkpt>
      <trkpt lat="42.4488790" lon="-3.0390680">
        <ele>700.2</ele>
        <time>2022-08-29T08:43:23Z</time>
      </trkpt>
      <trkpt lat="42.4488590" lon="-3.0390930">
        <ele>700.2</ele>
        <time>2022-08-29T08:43:24Z</time>
      </trkpt>
      <trkpt lat="42.4488390" lon="-3.0391160">
        <ele>700.4</ele>
        <time>2022-08-29T08:43:25Z</time>
      </trkpt>
      <trkpt lat="42.4488190" lon="-3.0391400">
        <ele>700.6</ele>
        <time>2022-08-29T08:43:26Z</time>
      </trkpt>
      <trkpt lat="42.4488010" lon="-3.0391660">
        <ele>700.8</ele>
        <time>2022-08-29T08:43:27Z</time>
      </trkpt>
      <trkpt lat="42.4487800" lon="-3.0391890">
        <ele>701.0</ele>
        <time>2022-08-29T08:43:28Z</time>
      </trkpt>
      <trkpt lat="42.4487570" lon="-3.0392090">
        <ele>701.2</ele>
        <time>2022-08-29T08:43:29Z</time>
      </trkpt>
      <trkpt lat="42.4487380" lon="-3.0392320">
        <ele>701.2</ele>
        <time>2022-08-29T08:43:30Z</time>
      </trkpt>
      <trkpt lat="42.4487210" lon="-3.0392590">
        <ele>701.8</ele>
        <time>2022-08-29T08:43:31Z</time>
      </trkpt>
      <trkpt lat="42.4487070" lon="-3.0392880">
        <ele>701.8</ele>
        <time>2022-08-29T08:43:32Z</time>
      </trkpt>
      <trkpt lat="42.4486930" lon="-3.0393190">
        <ele>702.0</ele>
        <time>2022-08-29T08:43:33Z</time>
      </trkpt>
      <trkpt lat="42.4486820" lon="-3.0393510">
        <ele>702.2</ele>
        <time>2022-08-29T08:43:34Z</time>
      </trkpt>
      <trkpt lat="42.4486720" lon="-3.0393850">
        <ele>702.2</ele>
        <time>2022-08-29T08:43:35Z</time>
      </trkpt>
      <trkpt lat="42.4486650" lon="-3.0394180">
        <ele>702.4</ele>
        <time>2022-08-29T08:43:36Z</time>
      </trkpt>
      <trkpt lat="42.4486590" lon="-3.0394500">
        <ele>702.4</ele>
        <time>2022-08-29T08:43:37Z</time>
      </trkpt>
      <trkpt lat="42.4486540" lon="-3.0394810">
        <ele>702.8</ele>
        <time>2022-08-29T08:43:38Z</time>
      </trkpt>
      <trkpt lat="42.4486480" lon="-3.0395110">
        <ele>703.0</ele>
        <time>2022-08-29T08:43:39Z</time>
      </trkpt>
      <trkpt lat="42.4486430" lon="-3.0395400">
        <ele>703.2</ele>
        <time>2022-08-29T08:43:40Z</time>
      </trkpt>
      <trkpt lat="42.4486420" lon="-3.0395720">
        <ele>703.4</ele>
        <time>2022-08-29T08:43:41Z</time>
      </trkpt>
      <trkpt lat="42.4486400" lon="-3.0396050">
        <ele>703.2</ele>
        <time>2022-08-29T08:43:42Z</time>
      </trkpt>
      <trkpt lat="42.4486360" lon="-3.0396380">
        <ele>703.4</ele>
        <time>2022-08-29T08:43:43Z</time>
      </trkpt>
      <trkpt lat="42.4486320" lon="-3.0396700">
        <ele>703.6</ele>
        <time>2022-08-29T08:43:44Z</time>
      </trkpt>
      <trkpt lat="42.4486260" lon="-3.0397030">
        <ele>704.0</ele>
        <time>2022-08-29T08:43:45Z</time>
      </trkpt>
      <trkpt lat="42.4486170" lon="-3.0397340">
        <ele>704.0</ele>
        <time>2022-08-29T08:43:46Z</time>
      </trkpt>
      <trkpt lat="42.4486060" lon="-3.0397630">
        <ele>704.4</ele>
        <time>2022-08-29T08:43:47Z</time>
      </trkpt>
      <trkpt lat="42.4485960" lon="-3.0397920">
        <ele>704.4</ele>
        <time>2022-08-29T08:43:48Z</time>
      </trkpt>
      <trkpt lat="42.4485860" lon="-3.0398210">
        <ele>704.6</ele>
        <time>2022-08-29T08:43:49Z</time>
      </trkpt>
      <trkpt lat="42.4485770" lon="-3.0398490">
        <ele>705.0</ele>
        <time>2022-08-29T08:43:50Z</time>
      </trkpt>
      <trkpt lat="42.4485670" lon="-3.0398770">
        <ele>705.0</ele>
        <time>2022-08-29T08:43:51Z</time>
      </trkpt>
      <trkpt lat="42.4485560" lon="-3.0399040">
        <ele>705.4</ele>
        <time>2022-08-29T08:43:52Z</time>
      </trkpt>
      <trkpt lat="42.4485440" lon="-3.0399310">
        <ele>705.6</ele>
        <time>2022-08-29T08:43:53Z</time>
      </trkpt>
      <trkpt lat="42.4485320" lon="-3.0399580">
        <ele>705.8</ele>
        <time>2022-08-29T08:43:54Z</time>
      </trkpt>
      <trkpt lat="42.4485200" lon="-3.0399840">
        <ele>705.8</ele>
        <time>2022-08-29T08:43:55Z</time>
      </trkpt>
      <trkpt lat="42.4485050" lon="-3.0400100">
        <ele>706.0</ele>
        <time>2022-08-29T08:43:56Z</time>
      </trkpt>
      <trkpt lat="42.4484900" lon="-3.0400360">
        <ele>706.4</ele>
        <time>2022-08-29T08:43:57Z</time>
      </trkpt>
      <trkpt lat="42.4484770" lon="-3.0400630">
        <ele>706.4</ele>
        <time>2022-08-29T08:43:58Z</time>
      </trkpt>
      <trkpt lat="42.4484660" lon="-3.0400900">
        <ele>706.8</ele>
        <time>2022-08-29T08:43:59Z</time>
      </trkpt>
      <trkpt lat="42.4484540" lon="-3.0401170">
        <ele>706.8</ele>
        <time>2022-08-29T08:44:00Z</time>
      </trkpt>
      <trkpt lat="42.4484420" lon="-3.0401440">
        <ele>707.0</ele>
        <time>2022-08-29T08:44:01Z</time>
      </trkpt>
      <trkpt lat="42.4484290" lon="-3.0401730">
        <ele>707.2</ele>
        <time>2022-08-29T08:44:02Z</time>
      </trkpt>
      <trkpt lat="42.4484150" lon="-3.0402010">
        <ele>707.6</ele>
        <time>2022-08-29T08:44:03Z</time>
      </trkpt>
      <trkpt lat="42.4484020" lon="-3.0402290">
        <ele>707.6</ele>
        <time>2022-08-29T08:44:04Z</time>
      </trkpt>
      <trkpt lat="42.4483890" lon="-3.0402570">
        <ele>708.0</ele>
        <time>2022-08-29T08:44:05Z</time>
      </trkpt>
      <trkpt lat="42.4483760" lon="-3.0402860">
        <ele>707.8</ele>
        <time>2022-08-29T08:44:06Z</time>
      </trkpt>
      <trkpt lat="42.4483640" lon="-3.0403130">
        <ele>708.0</ele>
        <time>2022-08-29T08:44:07Z</time>
      </trkpt>
      <trkpt lat="42.4483500" lon="-3.0403390">
        <ele>708.2</ele>
        <time>2022-08-29T08:44:08Z</time>
      </trkpt>
      <trkpt lat="42.4483340" lon="-3.0403640">
        <ele>708.4</ele>
        <time>2022-08-29T08:44:09Z</time>
      </trkpt>
      <trkpt lat="42.4483180" lon="-3.0403890">
        <ele>708.4</ele>
        <time>2022-08-29T08:44:10Z</time>
      </trkpt>
      <trkpt lat="42.4483040" lon="-3.0404150">
        <ele>708.4</ele>
        <time>2022-08-29T08:44:11Z</time>
      </trkpt>
      <trkpt lat="42.4482910" lon="-3.0404420">
        <ele>708.6</ele>
        <time>2022-08-29T08:44:12Z</time>
      </trkpt>
      <trkpt lat="42.4482780" lon="-3.0404690">
        <ele>708.8</ele>
        <time>2022-08-29T08:44:13Z</time>
      </trkpt>
      <trkpt lat="42.4482660" lon="-3.0404970">
        <ele>709.0</ele>
        <time>2022-08-29T08:44:14Z</time>
      </trkpt>
      <trkpt lat="42.4482550" lon="-3.0405260">
        <ele>709.2</ele>
        <time>2022-08-29T08:44:15Z</time>
      </trkpt>
      <trkpt lat="42.4482430" lon="-3.0405540">
        <ele>709.2</ele>
        <time>2022-08-29T08:44:16Z</time>
      </trkpt>
      <trkpt lat="42.4482300" lon="-3.0405810">
        <ele>709.2</ele>
        <time>2022-08-29T08:44:17Z</time>
      </trkpt>
      <trkpt lat="42.4482170" lon="-3.0406070">
        <ele>709.6</ele>
        <time>2022-08-29T08:44:18Z</time>
      </trkpt>
      <trkpt lat="42.4482030" lon="-3.0406310">
        <ele>709.8</ele>
        <time>2022-08-29T08:44:19Z</time>
      </trkpt>
      <trkpt lat="42.4481870" lon="-3.0406550">
        <ele>710.0</ele>
        <time>2022-08-29T08:44:20Z</time>
      </trkpt>
      <trkpt lat="42.4481730" lon="-3.0406790">
        <ele>710.0</ele>
        <time>2022-08-29T08:44:21Z</time>
      </trkpt>
      <trkpt lat="42.4481610" lon="-3.0407050">
        <ele>710.2</ele>
        <time>2022-08-29T08:44:22Z</time>
      </trkpt>
      <trkpt lat="42.4481480" lon="-3.0407300">
        <ele>710.4</ele>
        <time>2022-08-29T08:44:23Z</time>
      </trkpt>
      <trkpt lat="42.4481330" lon="-3.0407570">
        <ele>710.4</ele>
        <time>2022-08-29T08:44:24Z</time>
      </trkpt>
      <trkpt lat="42.4481180" lon="-3.0407840">
        <ele>710.8</ele>
        <time>2022-08-29T08:44:25Z</time>
      </trkpt>
      <trkpt lat="42.4481030" lon="-3.0408110">
        <ele>710.8</ele>
        <time>2022-08-29T08:44:26Z</time>
      </trkpt>
      <trkpt lat="42.4480880" lon="-3.0408370">
        <ele>711.0</ele>
        <time>2022-08-29T08:44:27Z</time>
      </trkpt>
      <trkpt lat="42.4480740" lon="-3.0408650">
        <ele>711.2</ele>
        <time>2022-08-29T08:44:28Z</time>
      </trkpt>
      <trkpt lat="42.4480610" lon="-3.0408910">
        <ele>711.4</ele>
        <time>2022-08-29T08:44:29Z</time>
      </trkpt>
      <trkpt lat="42.4480460" lon="-3.0409170">
        <ele>711.4</ele>
        <time>2022-08-29T08:44:30Z</time>
      </trkpt>
      <trkpt lat="42.4480320" lon="-3.0409420">
        <ele>711.6</ele>
        <time>2022-08-29T08:44:31Z</time>
      </trkpt>
      <trkpt lat="42.4480190" lon="-3.0409670">
        <ele>711.6</ele>
        <time>2022-08-29T08:44:32Z</time>
      </trkpt>
      <trkpt lat="42.4480050" lon="-3.0409930">
        <ele>711.8</ele>
        <time>2022-08-29T08:44:33Z</time>
      </trkpt>
      <trkpt lat="42.4479910" lon="-3.0410190">
        <ele>711.8</ele>
        <time>2022-08-29T08:44:34Z</time>
      </trkpt>
      <trkpt lat="42.4479760" lon="-3.0410450">
        <ele>712.2</ele>
        <time>2022-08-29T08:44:35Z</time>
      </trkpt>
      <trkpt lat="42.4479650" lon="-3.0410690">
        <ele>712.2</ele>
        <time>2022-08-29T08:44:36Z</time>
      </trkpt>
      <trkpt lat="42.4479540" lon="-3.0410920">
        <ele>712.2</ele>
        <time>2022-08-29T08:44:37Z</time>
      </trkpt>
      <trkpt lat="42.4479420" lon="-3.0411140">
        <ele>712.4</ele>
        <time>2022-08-29T08:44:38Z</time>
      </trkpt>
      <trkpt lat="42.4479270" lon="-3.0411360">
        <ele>712.6</ele>
        <time>2022-08-29T08:44:39Z</time>
      </trkpt>
      <trkpt lat="42.4479130" lon="-3.0411600">
        <ele>712.8</ele>
        <time>2022-08-29T08:44:40Z</time>
      </trkpt>
      <trkpt lat="42.4478990" lon="-3.0411870">
        <ele>713.0</ele>
        <time>2022-08-29T08:44:41Z</time>
      </trkpt>
      <trkpt lat="42.4478840" lon="-3.0412130">
        <ele>713.2</ele>
        <time>2022-08-29T08:44:42Z</time>
      </trkpt>
      <trkpt lat="42.4478680" lon="-3.0412400">
        <ele>713.4</ele>
        <time>2022-08-29T08:44:43Z</time>
      </trkpt>
      <trkpt lat="42.4478530" lon="-3.0412660">
        <ele>713.6</ele>
        <time>2022-08-29T08:44:44Z</time>
      </trkpt>
      <trkpt lat="42.4478380" lon="-3.0412930">
        <ele>713.6</ele>
        <time>2022-08-29T08:44:45Z</time>
      </trkpt>
      <trkpt lat="42.4478230" lon="-3.0413180">
        <ele>713.8</ele>
        <time>2022-08-29T08:44:46Z</time>
      </trkpt>
      <trkpt lat="42.4478090" lon="-3.0413430">
        <ele>714.0</ele>
        <time>2022-08-29T08:44:47Z</time>
      </trkpt>
      <trkpt lat="42.4477950" lon="-3.0413670">
        <ele>714.0</ele>
        <time>2022-08-29T08:44:48Z</time>
      </trkpt>
      <trkpt lat="42.4477810" lon="-3.0413910">
        <ele>714.2</ele>
        <time>2022-08-29T08:44:49Z</time>
      </trkpt>
      <trkpt lat="42.4477690" lon="-3.0414150">
        <ele>714.2</ele>
        <time>2022-08-29T08:44:50Z</time>
      </trkpt>
      <trkpt lat="42.4477570" lon="-3.0414390">
        <ele>714.4</ele>
        <time>2022-08-29T08:44:51Z</time>
      </trkpt>
      <trkpt lat="42.4477450" lon="-3.0414620">
        <ele>714.6</ele>
        <time>2022-08-29T08:44:52Z</time>
      </trkpt>
      <trkpt lat="42.4477340" lon="-3.0414850">
        <ele>714.8</ele>
        <time>2022-08-29T08:44:53Z</time>
      </trkpt>
      <trkpt lat="42.4477220" lon="-3.0415070">
        <ele>715.0</ele>
        <time>2022-08-29T08:44:54Z</time>
      </trkpt>
      <trkpt lat="42.4477090" lon="-3.0415280">
        <ele>715.0</ele>
        <time>2022-08-29T08:44:55Z</time>
      </trkpt>
      <trkpt lat="42.4476970" lon="-3.0415500">
        <ele>715.2</ele>
        <time>2022-08-29T08:44:56Z</time>
      </trkpt>
      <trkpt lat="42.4476840" lon="-3.0415720">
        <ele>715.4</ele>
        <time>2022-08-29T08:44:57Z</time>
      </trkpt>
      <trkpt lat="42.4476710" lon="-3.0415950">
        <ele>715.4</ele>
        <time>2022-08-29T08:44:58Z</time>
      </trkpt>
      <trkpt lat="42.4476590" lon="-3.0416180">
        <ele>715.6</ele>
        <time>2022-08-29T08:44:59Z</time>
      </trkpt>
      <trkpt lat="42.4476480" lon="-3.0416400">
        <ele>715.6</ele>
        <time>2022-08-29T08:45:00Z</time>
      </trkpt>
      <trkpt lat="42.4476370" lon="-3.0416620">
        <ele>715.6</ele>
        <time>2022-08-29T08:45:01Z</time>
      </trkpt>
      <trkpt lat="42.4476230" lon="-3.0416870">
        <ele>715.8</ele>
        <time>2022-08-29T08:45:02Z</time>
      </trkpt>
      <trkpt lat="42.4476090" lon="-3.0417090">
        <ele>716.2</ele>
        <time>2022-08-29T08:45:03Z</time>
      </trkpt>
      <trkpt lat="42.4475950" lon="-3.0417330">
        <ele>716.2</ele>
        <time>2022-08-29T08:45:04Z</time>
      </trkpt>
      <trkpt lat="42.4475820" lon="-3.0417560">
        <ele>716.2</ele>
        <time>2022-08-29T08:45:05Z</time>
      </trkpt>
      <trkpt lat="42.4475670" lon="-3.0417780">
        <ele>716.6</ele>
        <time>2022-08-29T08:45:06Z</time>
      </trkpt>
      <trkpt lat="42.4475530" lon="-3.0418000">
        <ele>716.6</ele>
        <time>2022-08-29T08:45:07Z</time>
      </trkpt>
      <trkpt lat="42.4475400" lon="-3.0418220">
        <ele>716.8</ele>
        <time>2022-08-29T08:45:08Z</time>
      </trkpt>
      <trkpt lat="42.4475240" lon="-3.0418420">
        <ele>716.8</ele>
        <time>2022-08-29T08:45:09Z</time>
      </trkpt>
      <trkpt lat="42.4475070" lon="-3.0418630">
        <ele>716.8</ele>
        <time>2022-08-29T08:45:10Z</time>
      </trkpt>
      <trkpt lat="42.4474920" lon="-3.0418840">
        <ele>717.0</ele>
        <time>2022-08-29T08:45:11Z</time>
      </trkpt>
      <trkpt lat="42.4474790" lon="-3.0419070">
        <ele>717.4</ele>
        <time>2022-08-29T08:45:12Z</time>
      </trkpt>
      <trkpt lat="42.4474670" lon="-3.0419310">
        <ele>717.8</ele>
        <time>2022-08-29T08:45:13Z</time>
      </trkpt>
      <trkpt lat="42.4474540" lon="-3.0419550">
        <ele>717.8</ele>
        <time>2022-08-29T08:45:14Z</time>
      </trkpt>
      <trkpt lat="42.4474410" lon="-3.0419780">
        <ele>717.8</ele>
        <time>2022-08-29T08:45:15Z</time>
      </trkpt>
      <trkpt lat="42.4474280" lon="-3.0420010">
        <ele>718.0</ele>
        <time>2022-08-29T08:45:16Z</time>
      </trkpt>
      <trkpt lat="42.4474150" lon="-3.0420240">
        <ele>718.0</ele>
        <time>2022-08-29T08:45:17Z</time>
      </trkpt>
      <trkpt lat="42.4474020" lon="-3.0420460">
        <ele>718.2</ele>
        <time>2022-08-29T08:45:18Z</time>
      </trkpt>
      <trkpt lat="42.4473890" lon="-3.0420660">
        <ele>718.4</ele>
        <time>2022-08-29T08:45:19Z</time>
      </trkpt>
      <trkpt lat="42.4473780" lon="-3.0420860">
        <ele>718.6</ele>
        <time>2022-08-29T08:45:20Z</time>
      </trkpt>
      <trkpt lat="42.4473670" lon="-3.0421060">
        <ele>718.8</ele>
        <time>2022-08-29T08:45:21Z</time>
      </trkpt>
      <trkpt lat="42.4473570" lon="-3.0421260">
        <ele>718.8</ele>
        <time>2022-08-29T08:45:22Z</time>
      </trkpt>
      <trkpt lat="42.4473460" lon="-3.0421460">
        <ele>719.2</ele>
        <time>2022-08-29T08:45:23Z</time>
      </trkpt>
      <trkpt lat="42.4473350" lon="-3.0421640">
        <ele>719.6</ele>
        <time>2022-08-29T08:45:24Z</time>
      </trkpt>
      <trkpt lat="42.4473230" lon="-3.0421830">
        <ele>719.6</ele>
        <time>2022-08-29T08:45:25Z</time>
      </trkpt>
      <trkpt lat="42.4473120" lon="-3.0422020">
        <ele>719.6</ele>
        <time>2022-08-29T08:45:26Z</time>
      </trkpt>
      <trkpt lat="42.4473000" lon="-3.0422210">
        <ele>719.8</ele>
        <time>2022-08-29T08:45:27Z</time>
      </trkpt>
      <trkpt lat="42.4472880" lon="-3.0422420">
        <ele>719.8</ele>
        <time>2022-08-29T08:45:28Z</time>
      </trkpt>
      <trkpt lat="42.4472750" lon="-3.0422640">
        <ele>720.0</ele>
        <time>2022-08-29T08:45:29Z</time>
      </trkpt>
      <trkpt lat="42.4472630" lon="-3.0422860">
        <ele>720.0</ele>
        <time>2022-08-29T08:45:30Z</time>
      </trkpt>
      <trkpt lat="42.4472510" lon="-3.0423080">
        <ele>720.2</ele>
        <time>2022-08-29T08:45:31Z</time>
      </trkpt>
      <trkpt lat="42.4472390" lon="-3.0423310">
        <ele>720.2</ele>
        <time>2022-08-29T08:45:32Z</time>
      </trkpt>
      <trkpt lat="42.4472280" lon="-3.0423530">
        <ele>720.6</ele>
        <time>2022-08-29T08:45:33Z</time>
      </trkpt>
      <trkpt lat="42.4472160" lon="-3.0423750">
        <ele>720.6</ele>
        <time>2022-08-29T08:45:34Z</time>
      </trkpt>
      <trkpt lat="42.4472050" lon="-3.0423970">
        <ele>720.8</ele>
        <time>2022-08-29T08:45:35Z</time>
      </trkpt>
      <trkpt lat="42.4471930" lon="-3.0424200">
        <ele>721.0</ele>
        <time>2022-08-29T08:45:36Z</time>
      </trkpt>
      <trkpt lat="42.4471810" lon="-3.0424420">
        <ele>721.0</ele>
        <time>2022-08-29T08:45:37Z</time>
      </trkpt>
      <trkpt lat="42.4471680" lon="-3.0424640">
        <ele>721.0</ele>
        <time>2022-08-29T08:45:38Z</time>
      </trkpt>
      <trkpt lat="42.4471570" lon="-3.0424860">
        <ele>721.0</ele>
        <time>2022-08-29T08:45:39Z</time>
      </trkpt>
      <trkpt lat="42.4471440" lon="-3.0425070">
        <ele>721.2</ele>
        <time>2022-08-29T08:45:40Z</time>
      </trkpt>
      <trkpt lat="42.4471320" lon="-3.0425300">
        <ele>721.4</ele>
        <time>2022-08-29T08:45:41Z</time>
      </trkpt>
      <trkpt lat="42.4471210" lon="-3.0425530">
        <ele>721.6</ele>
        <time>2022-08-29T08:45:42Z</time>
      </trkpt>
      <trkpt lat="42.4471110" lon="-3.0425790">
        <ele>721.8</ele>
        <time>2022-08-29T08:45:43Z</time>
      </trkpt>
      <trkpt lat="42.4470990" lon="-3.0426030">
        <ele>721.8</ele>
        <time>2022-08-29T08:45:44Z</time>
      </trkpt>
      <trkpt lat="42.4470870" lon="-3.0426280">
        <ele>721.8</ele>
        <time>2022-08-29T08:45:45Z</time>
      </trkpt>
      <trkpt lat="42.4470760" lon="-3.0426530">
        <ele>722.0</ele>
        <time>2022-08-29T08:45:46Z</time>
      </trkpt>
      <trkpt lat="42.4470640" lon="-3.0426780">
        <ele>722.0</ele>
        <time>2022-08-29T08:45:47Z</time>
      </trkpt>
      <trkpt lat="42.4470510" lon="-3.0427020">
        <ele>722.2</ele>
        <time>2022-08-29T08:45:48Z</time>
      </trkpt>
      <trkpt lat="42.4470370" lon="-3.0427260">
        <ele>722.2</ele>
        <time>2022-08-29T08:45:49Z</time>
      </trkpt>
      <trkpt lat="42.4470230" lon="-3.0427500">
        <ele>722.4</ele>
        <time>2022-08-29T08:45:50Z</time>
      </trkpt>
      <trkpt lat="42.4470100" lon="-3.0427740">
        <ele>722.6</ele>
        <time>2022-08-29T08:45:51Z</time>
      </trkpt>
      <trkpt lat="42.4469980" lon="-3.0427980">
        <ele>722.8</ele>
        <time>2022-08-29T08:45:52Z</time>
      </trkpt>
      <trkpt lat="42.4469840" lon="-3.0428210">
        <ele>722.8</ele>
        <time>2022-08-29T08:45:53Z</time>
      </trkpt>
      <trkpt lat="42.4469700" lon="-3.0428450">
        <ele>723.0</ele>
        <time>2022-08-29T08:45:54Z</time>
      </trkpt>
      <trkpt lat="42.4469550" lon="-3.0428690">
        <ele>722.8</ele>
        <time>2022-08-29T08:45:55Z</time>
      </trkpt>
      <trkpt lat="42.4469400" lon="-3.0428940">
        <ele>723.0</ele>
        <time>2022-08-29T08:45:56Z</time>
      </trkpt>
      <trkpt lat="42.4469260" lon="-3.0429190">
        <ele>723.4</ele>
        <time>2022-08-29T08:45:57Z</time>
      </trkpt>
      <trkpt lat="42.4469100" lon="-3.0429430">
        <ele>723.6</ele>
        <time>2022-08-29T08:45:58Z</time>
      </trkpt>
      <trkpt lat="42.4468960" lon="-3.0429680">
        <ele>723.4</ele>
        <time>2022-08-29T08:45:59Z</time>
      </trkpt>
      <trkpt lat="42.4468810" lon="-3.0429940">
        <ele>723.8</ele>
        <time>2022-08-29T08:46:00Z</time>
      </trkpt>
      <trkpt lat="42.4468660" lon="-3.0430210">
        <ele>724.0</ele>
        <time>2022-08-29T08:46:01Z</time>
      </trkpt>
      <trkpt lat="42.4468520" lon="-3.0430470">
        <ele>724.4</ele>
        <time>2022-08-29T08:46:02Z</time>
      </trkpt>
      <trkpt lat="42.4468360" lon="-3.0430720">
        <ele>724.6</ele>
        <time>2022-08-29T08:46:03Z</time>
      </trkpt>
      <trkpt lat="42.4468210" lon="-3.0430970">
        <ele>724.8</ele>
        <time>2022-08-29T08:46:04Z</time>
      </trkpt>
      <trkpt lat="42.4468040" lon="-3.0431200">
        <ele>724.8</ele>
        <time>2022-08-29T08:46:05Z</time>
      </trkpt>
      <trkpt lat="42.4467880" lon="-3.0431430">
        <ele>725.0</ele>
        <time>2022-08-29T08:46:06Z</time>
      </trkpt>
      <trkpt lat="42.4467710" lon="-3.0431660">
        <ele>725.0</ele>
        <time>2022-08-29T08:46:07Z</time>
      </trkpt>
      <trkpt lat="42.4467530" lon="-3.0431860">
        <ele>725.4</ele>
        <time>2022-08-29T08:46:08Z</time>
      </trkpt>
      <trkpt lat="42.4467370" lon="-3.0432090">
        <ele>725.4</ele>
        <time>2022-08-29T08:46:09Z</time>
      </trkpt>
      <trkpt lat="42.4467230" lon="-3.0432360">
        <ele>725.4</ele>
        <time>2022-08-29T08:46:10Z</time>
      </trkpt>
      <trkpt lat="42.4467080" lon="-3.0432640">
        <ele>725.6</ele>
        <time>2022-08-29T08:46:11Z</time>
      </trkpt>
      <trkpt lat="42.4466920" lon="-3.0432910">
        <ele>725.6</ele>
        <time>2022-08-29T08:46:12Z</time>
      </trkpt>
      <trkpt lat="42.4466770" lon="-3.0433170">
        <ele>725.6</ele>
        <time>2022-08-29T08:46:13Z</time>
      </trkpt>
      <trkpt lat="42.4466620" lon="-3.0433420">
        <ele>726.0</ele>
        <time>2022-08-29T08:46:14Z</time>
      </trkpt>
      <trkpt lat="42.4466450" lon="-3.0433660">
        <ele>726.2</ele>
        <time>2022-08-29T08:46:15Z</time>
      </trkpt>
      <trkpt lat="42.4466280" lon="-3.0433870">
        <ele>726.2</ele>
        <time>2022-08-29T08:46:16Z</time>
      </trkpt>
      <trkpt lat="42.4466090" lon="-3.0434060">
        <ele>726.4</ele>
        <time>2022-08-29T08:46:17Z</time>
      </trkpt>
      <trkpt lat="42.4465900" lon="-3.0434250">
        <ele>726.6</ele>
        <time>2022-08-29T08:46:18Z</time>
      </trkpt>
      <trkpt lat="42.4465730" lon="-3.0434460">
        <ele>726.8</ele>
        <time>2022-08-29T08:46:19Z</time>
      </trkpt>
      <trkpt lat="42.4465560" lon="-3.0434690">
        <ele>727.0</ele>
        <time>2022-08-29T08:46:20Z</time>
      </trkpt>
      <trkpt lat="42.4465390" lon="-3.0434920">
        <ele>727.2</ele>
        <time>2022-08-29T08:46:21Z</time>
      </trkpt>
      <trkpt lat="42.4465220" lon="-3.0435150">
        <ele>727.4</ele>
        <time>2022-08-29T08:46:22Z</time>
      </trkpt>
      <trkpt lat="42.4465050" lon="-3.0435380">
        <ele>727.6</ele>
        <time>2022-08-29T08:46:23Z</time>
      </trkpt>
      <trkpt lat="42.4464860" lon="-3.0435630">
        <ele>727.8</ele>
        <time>2022-08-29T08:46:24Z</time>
      </trkpt>
      <trkpt lat="42.4464690" lon="-3.0435880">
        <ele>728.0</ele>
        <time>2022-08-29T08:46:25Z</time>
      </trkpt>
      <trkpt lat="42.4464530" lon="-3.0436130">
        <ele>728.2</ele>
        <time>2022-08-29T08:46:26Z</time>
      </trkpt>
      <trkpt lat="42.4464370" lon="-3.0436410">
        <ele>728.2</ele>
        <time>2022-08-29T08:46:27Z</time>
      </trkpt>
      <trkpt lat="42.4464210" lon="-3.0436680">
        <ele>728.6</ele>
        <time>2022-08-29T08:46:28Z</time>
      </trkpt>
      <trkpt lat="42.4464060" lon="-3.0436950">
        <ele>728.6</ele>
        <time>2022-08-29T08:46:29Z</time>
      </trkpt>
      <trkpt lat="42.4463900" lon="-3.0437220">
        <ele>728.6</ele>
        <time>2022-08-29T08:46:30Z</time>
      </trkpt>
      <trkpt lat="42.4463730" lon="-3.0437500">
        <ele>728.8</ele>
        <time>2022-08-29T08:46:31Z</time>
      </trkpt>
      <trkpt lat="42.4463540" lon="-3.0437790">
        <ele>729.0</ele>
        <time>2022-08-29T08:46:32Z</time>
      </trkpt>
      <trkpt lat="42.4463360" lon="-3.0438070">
        <ele>729.0</ele>
        <time>2022-08-29T08:46:33Z</time>
      </trkpt>
      <trkpt lat="42.4463170" lon="-3.0438350">
        <ele>729.4</ele>
        <time>2022-08-29T08:46:34Z</time>
      </trkpt>
      <trkpt lat="42.4462980" lon="-3.0438630">
        <ele>729.4</ele>
        <time>2022-08-29T08:46:35Z</time>
      </trkpt>
      <trkpt lat="42.4462790" lon="-3.0438920">
        <ele>729.6</ele>
        <time>2022-08-29T08:46:36Z</time>
      </trkpt>
      <trkpt lat="42.4462600" lon="-3.0439200">
        <ele>729.6</ele>
        <time>2022-08-29T08:46:37Z</time>
      </trkpt>
      <trkpt lat="42.4462400" lon="-3.0439480">
        <ele>729.8</ele>
        <time>2022-08-29T08:46:38Z</time>
      </trkpt>
      <trkpt lat="42.4462210" lon="-3.0439750">
        <ele>730.0</ele>
        <time>2022-08-29T08:46:39Z</time>
      </trkpt>
      <trkpt lat="42.4462010" lon="-3.0440020">
        <ele>730.0</ele>
        <time>2022-08-29T08:46:40Z</time>
      </trkpt>
      <trkpt lat="42.4461820" lon="-3.0440290">
        <ele>730.0</ele>
        <time>2022-08-29T08:46:41Z</time>
      </trkpt>
      <trkpt lat="42.4461630" lon="-3.0440560">
        <ele>730.2</ele>
        <time>2022-08-29T08:46:42Z</time>
      </trkpt>
      <trkpt lat="42.4461440" lon="-3.0440820">
        <ele>730.2</ele>
        <time>2022-08-29T08:46:43Z</time>
      </trkpt>
      <trkpt lat="42.4461250" lon="-3.0441090">
        <ele>730.4</ele>
        <time>2022-08-29T08:46:44Z</time>
      </trkpt>
      <trkpt lat="42.4461070" lon="-3.0441360">
        <ele>730.4</ele>
        <time>2022-08-29T08:46:45Z</time>
      </trkpt>
      <trkpt lat="42.4460890" lon="-3.0441640">
        <ele>730.6</ele>
        <time>2022-08-29T08:46:46Z</time>
      </trkpt>
      <trkpt lat="42.4460710" lon="-3.0441920">
        <ele>730.8</ele>
        <time>2022-08-29T08:46:47Z</time>
      </trkpt>
      <trkpt lat="42.4460520" lon="-3.0442200">
        <ele>730.8</ele>
        <time>2022-08-29T08:46:48Z</time>
      </trkpt>
      <trkpt lat="42.4460320" lon="-3.0442470">
        <ele>731.0</ele>
        <time>2022-08-29T08:46:49Z</time>
      </trkpt>
      <trkpt lat="42.4460120" lon="-3.0442740">
        <ele>731.0</ele>
        <time>2022-08-29T08:46:50Z</time>
      </trkpt>
      <trkpt lat="42.4459930" lon="-3.0443020">
        <ele>731.2</ele>
        <time>2022-08-29T08:46:51Z</time>
      </trkpt>
      <trkpt lat="42.4459730" lon="-3.0443330">
        <ele>731.2</ele>
        <time>2022-08-29T08:46:52Z</time>
      </trkpt>
      <trkpt lat="42.4459540" lon="-3.0443640">
        <ele>731.4</ele>
        <time>2022-08-29T08:46:53Z</time>
      </trkpt>
      <trkpt lat="42.4459360" lon="-3.0443950">
        <ele>731.4</ele>
        <time>2022-08-29T08:46:54Z</time>
      </trkpt>
      <trkpt lat="42.4459140" lon="-3.0444250">
        <ele>731.6</ele>
        <time>2022-08-29T08:46:55Z</time>
      </trkpt>
      <trkpt lat="42.4458930" lon="-3.0444560">
        <ele>731.8</ele>
        <time>2022-08-29T08:46:56Z</time>
      </trkpt>
      <trkpt lat="42.4458710" lon="-3.0444870">
        <ele>732.0</ele>
        <time>2022-08-29T08:46:57Z</time>
      </trkpt>
      <trkpt lat="42.4458490" lon="-3.0445200">
        <ele>732.0</ele>
        <time>2022-08-29T08:46:58Z</time>
      </trkpt>
      <trkpt lat="42.4458270" lon="-3.0445520">
        <ele>732.2</ele>
        <time>2022-08-29T08:46:59Z</time>
      </trkpt>
      <trkpt lat="42.4458060" lon="-3.0445850">
        <ele>732.0</ele>
        <time>2022-08-29T08:47:00Z</time>
      </trkpt>
      <trkpt lat="42.4457850" lon="-3.0446150">
        <ele>732.2</ele>
        <time>2022-08-29T08:47:01Z</time>
      </trkpt>
      <trkpt lat="42.4457620" lon="-3.0446460">
        <ele>732.2</ele>
        <time>2022-08-29T08:47:02Z</time>
      </trkpt>
      <trkpt lat="42.4457400" lon="-3.0446750">
        <ele>732.2</ele>
        <time>2022-08-29T08:47:03Z</time>
      </trkpt>
      <trkpt lat="42.4457170" lon="-3.0447040">
        <ele>732.2</ele>
        <time>2022-08-29T08:47:04Z</time>
      </trkpt>
      <trkpt lat="42.4456950" lon="-3.0447330">
        <ele>732.4</ele>
        <time>2022-08-29T08:47:05Z</time>
      </trkpt>
      <trkpt lat="42.4456730" lon="-3.0447660">
        <ele>732.6</ele>
        <time>2022-08-29T08:47:06Z</time>
      </trkpt>
      <trkpt lat="42.4456520" lon="-3.0447980">
        <ele>732.6</ele>
        <time>2022-08-29T08:47:07Z</time>
      </trkpt>
      <trkpt lat="42.4456300" lon="-3.0448290">
        <ele>732.6</ele>
        <time>2022-08-29T08:47:08Z</time>
      </trkpt>
      <trkpt lat="42.4456070" lon="-3.0448600">
        <ele>732.6</ele>
        <time>2022-08-29T08:47:09Z</time>
      </trkpt>
      <trkpt lat="42.4455860" lon="-3.0448910">
        <ele>732.8</ele>
        <time>2022-08-29T08:47:10Z</time>
      </trkpt>
      <trkpt lat="42.4455640" lon="-3.0449230">
        <ele>732.8</ele>
        <time>2022-08-29T08:47:11Z</time>
      </trkpt>
      <trkpt lat="42.4455430" lon="-3.0449560">
        <ele>733.0</ele>
        <time>2022-08-29T08:47:12Z</time>
      </trkpt>
      <trkpt lat="42.4455220" lon="-3.0449870">
        <ele>733.0</ele>
        <time>2022-08-29T08:47:13Z</time>
      </trkpt>
      <trkpt lat="42.4455010" lon="-3.0450190">
        <ele>733.0</ele>
        <time>2022-08-29T08:47:14Z</time>
      </trkpt>
      <trkpt lat="42.4454800" lon="-3.0450490">
        <ele>733.2</ele>
        <time>2022-08-29T08:47:15Z</time>
      </trkpt>
      <trkpt lat="42.4454600" lon="-3.0450780">
        <ele>733.2</ele>
        <time>2022-08-29T08:47:16Z</time>
      </trkpt>
      <trkpt lat="42.4454390" lon="-3.0451060">
        <ele>733.4</ele>
        <time>2022-08-29T08:47:17Z</time>
      </trkpt>
      <trkpt lat="42.4454180" lon="-3.0451330">
        <ele>733.4</ele>
        <time>2022-08-29T08:47:18Z</time>
      </trkpt>
      <trkpt lat="42.4453980" lon="-3.0451610">
        <ele>733.4</ele>
        <time>2022-08-29T08:47:19Z</time>
      </trkpt>
      <trkpt lat="42.4453770" lon="-3.0451890">
        <ele>733.6</ele>
        <time>2022-08-29T08:47:20Z</time>
      </trkpt>
      <trkpt lat="42.4453550" lon="-3.0452200">
        <ele>733.8</ele>
        <time>2022-08-29T08:47:21Z</time>
      </trkpt>
      <trkpt lat="42.4453350" lon="-3.0452510">
        <ele>734.2</ele>
        <time>2022-08-29T08:47:22Z</time>
      </trkpt>
      <trkpt lat="42.4453130" lon="-3.0452820">
        <ele>734.2</ele>
        <time>2022-08-29T08:47:23Z</time>
      </trkpt>
      <trkpt lat="42.4452920" lon="-3.0453130">
        <ele>734.2</ele>
        <time>2022-08-29T08:47:24Z</time>
      </trkpt>
      <trkpt lat="42.4452710" lon="-3.0453440">
        <ele>734.4</ele>
        <time>2022-08-29T08:47:25Z</time>
      </trkpt>
      <trkpt lat="42.4452500" lon="-3.0453740">
        <ele>734.4</ele>
        <time>2022-08-29T08:47:26Z</time>
      </trkpt>
      <trkpt lat="42.4452290" lon="-3.0454030">
        <ele>734.4</ele>
        <time>2022-08-29T08:47:27Z</time>
      </trkpt>
      <trkpt lat="42.4452070" lon="-3.0454330">
        <ele>734.4</ele>
        <time>2022-08-29T08:47:28Z</time>
      </trkpt>
      <trkpt lat="42.4451880" lon="-3.0454620">
        <ele>734.6</ele>
        <time>2022-08-29T08:47:29Z</time>
      </trkpt>
      <trkpt lat="42.4451700" lon="-3.0454910">
        <ele>734.6</ele>
        <time>2022-08-29T08:47:30Z</time>
      </trkpt>
      <trkpt lat="42.4451520" lon="-3.0455190">
        <ele>734.8</ele>
        <time>2022-08-29T08:47:31Z</time>
      </trkpt>
      <trkpt lat="42.4451360" lon="-3.0455460">
        <ele>735.0</ele>
        <time>2022-08-29T08:47:32Z</time>
      </trkpt>
      <trkpt lat="42.4451200" lon="-3.0455730">
        <ele>735.2</ele>
        <time>2022-08-29T08:47:33Z</time>
      </trkpt>
      <trkpt lat="42.4451050" lon="-3.0456010">
        <ele>735.4</ele>
        <time>2022-08-29T08:47:34Z</time>
      </trkpt>
      <trkpt lat="42.4450920" lon="-3.0456290">
        <ele>735.4</ele>
        <time>2022-08-29T08:47:35Z</time>
      </trkpt>
      <trkpt lat="42.4450810" lon="-3.0456530">
        <ele>735.6</ele>
        <time>2022-08-29T08:47:36Z</time>
      </trkpt>
      <trkpt lat="42.4450720" lon="-3.0456710">
        <ele>735.6</ele>
        <time>2022-08-29T08:47:37Z</time>
      </trkpt>
      <trkpt lat="42.4450670" lon="-3.0456870">
        <ele>736.0</ele>
        <time>2022-08-29T08:47:38Z</time>
      </trkpt>
      <trkpt lat="42.4450630" lon="-3.0457040">
        <ele>736.0</ele>
        <time>2022-08-29T08:47:39Z</time>
      </trkpt>
      <trkpt lat="42.4450590" lon="-3.0457220">
        <ele>736.2</ele>
        <time>2022-08-29T08:47:40Z</time>
      </trkpt>
      <trkpt lat="42.4450540" lon="-3.0457340">
        <ele>736.2</ele>
        <time>2022-08-29T08:47:41Z</time>
      </trkpt>
      <trkpt lat="42.4450490" lon="-3.0457430">
        <ele>736.6</ele>
        <time>2022-08-29T08:47:42Z</time>
      </trkpt>
      <trkpt lat="42.4450430" lon="-3.0457540">
        <ele>736.6</ele>
        <time>2022-08-29T08:47:43Z</time>
      </trkpt>
      <trkpt lat="42.4450370" lon="-3.0457650">
        <ele>736.8</ele>
        <time>2022-08-29T08:47:44Z</time>
      </trkpt>
      <trkpt lat="42.4450330" lon="-3.0457780">
        <ele>737.0</ele>
        <time>2022-08-29T08:47:45Z</time>
      </trkpt>
      <trkpt lat="42.4450320" lon="-3.0457930">
        <ele>737.2</ele>
        <time>2022-08-29T08:47:46Z</time>
      </trkpt>
      <trkpt lat="42.4450320" lon="-3.0458060">
        <ele>737.2</ele>
        <time>2022-08-29T08:47:47Z</time>
      </trkpt>
      <trkpt lat="42.4450300" lon="-3.0458090">
        <ele>737.2</ele>
        <time>2022-08-29T08:47:48Z</time>
      </trkpt>
      <trkpt lat="42.4450310" lon="-3.0458090">
        <ele>737.4</ele>
        <time>2022-08-29T08:47:49Z</time>
      </trkpt>
      <trkpt lat="42.4450320" lon="-3.0458090">
        <ele>737.4</ele>
        <time>2022-08-29T08:47:50Z</time>
      </trkpt>
      <trkpt lat="42.4450320" lon="-3.0458090">
        <ele>737.4</ele>
        <time>2022-08-29T08:47:51Z</time>
      </trkpt>
      <trkpt lat="42.4450320" lon="-3.0458090">
        <ele>737.4</ele>
        <time>2022-08-29T08:47:52Z</time>
      </trkpt>
      <trkpt lat="42.4450320" lon="-3.0458090">
        <ele>737.4</ele>
        <time>2022-08-29T08:47:53Z</time>
      </trkpt>
      <trkpt lat="42.4450320" lon="-3.0458090">
        <ele>737.4</ele>
        <time>2022-08-29T08:47:54Z</time>
      </trkpt>
      <trkpt lat="42.4450320" lon="-3.0458090">
        <ele>737.4</ele>
        <time>2022-08-29T08:47:55Z</time>
      </trkpt>
      <trkpt lat="42.4450320" lon="-3.0458090">
        <ele>737.4</ele>
        <time>2022-08-29T08:47:56Z</time>
      </trkpt>
      <trkpt lat="42.4450320" lon="-3.0458090">
        <ele>737.4</ele>
        <time>2022-08-29T08:47:57Z</time>
      </trkpt>
      <trkpt lat="42.4450320" lon="-3.0458090">
        <ele>737.6</ele>
        <time>2022-08-29T08:47:58Z</time>
      </trkpt>
      <trkpt lat="42.4450320" lon="-3.0458080">
        <ele>737.6</ele>
        <time>2022-08-29T08:47:59Z</time>
      </trkpt>
      <trkpt lat="42.4450330" lon="-3.0458080">
        <ele>737.4</ele>
        <time>2022-08-29T08:48:00Z</time>
      </trkpt>
      <trkpt lat="42.4450330" lon="-3.0458080">
        <ele>737.6</ele>
        <time>2022-08-29T08:48:01Z</time>
      </trkpt>
      <trkpt lat="42.4450320" lon="-3.0458080">
        <ele>737.4</ele>
        <time>2022-08-29T08:48:02Z</time>
      </trkpt>
      <trkpt lat="42.4450320" lon="-3.0458080">
        <ele>737.6</ele>
        <time>2022-08-29T08:48:03Z</time>
      </trkpt>
      <trkpt lat="42.4450320" lon="-3.0458080">
        <ele>737.6</ele>
        <time>2022-08-29T08:48:04Z</time>
      </trkpt>
      <trkpt lat="42.4450330" lon="-3.0458080">
        <ele>737.6</ele>
        <time>2022-08-29T08:48:05Z</time>
      </trkpt>
      <trkpt lat="42.4450330" lon="-3.0458080">
        <ele>737.4</ele>
        <time>2022-08-29T08:48:06Z</time>
      </trkpt>
      <trkpt lat="42.4450330" lon="-3.0458080">
        <ele>737.6</ele>
        <time>2022-08-29T08:48:07Z</time>
      </trkpt>
      <trkpt lat="42.4450330" lon="-3.0458080">
        <ele>737.4</ele>
        <time>2022-08-29T08:48:08Z</time>
      </trkpt>
      <trkpt lat="42.4450330" lon="-3.0458080">
        <ele>737.4</ele>
        <time>2022-08-29T08:48:09Z</time>
      </trkpt>
      <trkpt lat="42.4450340" lon="-3.0458090">
        <ele>737.6</ele>
        <time>2022-08-29T08:48:10Z</time>
      </trkpt>
      <trkpt lat="42.4450350" lon="-3.0458150">
        <ele>737.6</ele>
        <time>2022-08-29T08:48:11Z</time>
      </trkpt>
      <trkpt lat="42.4450400" lon="-3.0458250">
        <ele>737.4</ele>
        <time>2022-08-29T08:48:12Z</time>
      </trkpt>
      <trkpt lat="42.4450430" lon="-3.0458330">
        <ele>737.6</ele>
        <time>2022-08-29T08:48:13Z</time>
      </trkpt>
      <trkpt lat="42.4450440" lon="-3.0458350">
        <ele>737.6</ele>
        <time>2022-08-29T08:48:14Z</time>
      </trkpt>
      <trkpt lat="42.4450450" lon="-3.0458360">
        <ele>737.4</ele>
        <time>2022-08-29T08:48:15Z</time>
      </trkpt>
      <trkpt lat="42.4450450" lon="-3.0458370">
        <ele>737.6</ele>
        <time>2022-08-29T08:48:16Z</time>
      </trkpt>
      <trkpt lat="42.4450460" lon="-3.0458380">
        <ele>737.4</ele>
        <time>2022-08-29T08:48:17Z</time>
      </trkpt>
      <trkpt lat="42.4450460" lon="-3.0458390">
        <ele>737.4</ele>
        <time>2022-08-29T08:48:18Z</time>
      </trkpt>
      <trkpt lat="42.4450460" lon="-3.0458390">
        <ele>737.4</ele>
        <time>2022-08-29T08:48:19Z</time>
      </trkpt>
      <trkpt lat="42.4450460" lon="-3.0458390">
        <ele>737.4</ele>
        <time>2022-08-29T08:48:20Z</time>
      </trkpt>
      <trkpt lat="42.4450460" lon="-3.0458390">
        <ele>737.4</ele>
        <time>2022-08-29T08:48:21Z</time>
      </trkpt>
      <trkpt lat="42.4450460" lon="-3.0458390">
        <ele>737.4</ele>
        <time>2022-08-29T08:48:22Z</time>
      </trkpt>
      <trkpt lat="42.4450460" lon="-3.0458380">
        <ele>737.6</ele>
        <time>2022-08-29T08:48:23Z</time>
      </trkpt>
      <trkpt lat="42.4450460" lon="-3.0458380">
        <ele>737.6</ele>
        <time>2022-08-29T08:48:24Z</time>
      </trkpt>
      <trkpt lat="42.4450460" lon="-3.0458390">
        <ele>737.6</ele>
        <time>2022-08-29T08:48:25Z</time>
      </trkpt>
      <trkpt lat="42.4450460" lon="-3.0458400">
        <ele>737.6</ele>
        <time>2022-08-29T08:48:26Z</time>
      </trkpt>
      <trkpt lat="42.4450420" lon="-3.0458460">
        <ele>737.6</ele>
        <time>2022-08-29T08:48:27Z</time>
      </trkpt>
      <trkpt lat="42.4450390" lon="-3.0458530">
        <ele>737.6</ele>
        <time>2022-08-29T08:48:28Z</time>
      </trkpt>
      <trkpt lat="42.4450370" lon="-3.0458560">
        <ele>737.6</ele>
        <time>2022-08-29T08:48:29Z</time>
      </trkpt>
      <trkpt lat="42.4450350" lon="-3.0458570">
        <ele>737.6</ele>
        <time>2022-08-29T08:48:30Z</time>
      </trkpt>
      <trkpt lat="42.4450360" lon="-3.0458570">
        <ele>737.6</ele>
        <time>2022-08-29T08:48:31Z</time>
      </trkpt>
      <trkpt lat="42.4450360" lon="-3.0458570">
        <ele>737.6</ele>
        <time>2022-08-29T08:48:32Z</time>
      </trkpt>
      <trkpt lat="42.4450360" lon="-3.0458570">
        <ele>737.6</ele>
        <time>2022-08-29T08:48:33Z</time>
      </trkpt>
      <trkpt lat="42.4450370" lon="-3.0458560">
        <ele>737.6</ele>
        <time>2022-08-29T08:48:34Z</time>
      </trkpt>
      <trkpt lat="42.4450370" lon="-3.0458570">
        <ele>737.6</ele>
        <time>2022-08-29T08:48:35Z</time>
      </trkpt>
      <trkpt lat="42.4450380" lon="-3.0458560">
        <ele>737.6</ele>
        <time>2022-08-29T08:48:36Z</time>
      </trkpt>
      <trkpt lat="42.4450390" lon="-3.0458550">
        <ele>737.6</ele>
        <time>2022-08-29T08:48:37Z</time>
      </trkpt>
      <trkpt lat="42.4450380" lon="-3.0458550">
        <ele>737.6</ele>
        <time>2022-08-29T08:48:38Z</time>
      </trkpt>
      <trkpt lat="42.4450370" lon="-3.0458540">
        <ele>737.6</ele>
        <time>2022-08-29T08:48:39Z</time>
      </trkpt>
      <trkpt lat="42.4450370" lon="-3.0458540">
        <ele>737.6</ele>
        <time>2022-08-29T08:48:40Z</time>
      </trkpt>
      <trkpt lat="42.4450370" lon="-3.0458540">
        <ele>737.6</ele>
        <time>2022-08-29T08:48:41Z</time>
      </trkpt>
      <trkpt lat="42.4450370" lon="-3.0458530">
        <ele>737.4</ele>
        <time>2022-08-29T08:48:42Z</time>
      </trkpt>
      <trkpt lat="42.4450380" lon="-3.0458520">
        <ele>737.6</ele>
        <time>2022-08-29T08:48:43Z</time>
      </trkpt>
      <trkpt lat="42.4450410" lon="-3.0458610">
        <ele>737.4</ele>
        <time>2022-08-29T08:48:44Z</time>
      </trkpt>
      <trkpt lat="42.4450440" lon="-3.0458740">
        <ele>737.6</ele>
        <time>2022-08-29T08:48:45Z</time>
      </trkpt>
      <trkpt lat="42.4450470" lon="-3.0458890">
        <ele>737.6</ele>
        <time>2022-08-29T08:48:46Z</time>
      </trkpt>
      <trkpt lat="42.4450500" lon="-3.0459080">
        <ele>737.6</ele>
        <time>2022-08-29T08:48:47Z</time>
      </trkpt>
      <trkpt lat="42.4450500" lon="-3.0459260">
        <ele>737.6</ele>
        <time>2022-08-29T08:48:48Z</time>
      </trkpt>
      <trkpt lat="42.4450500" lon="-3.0459430">
        <ele>737.6</ele>
        <time>2022-08-29T08:48:49Z</time>
      </trkpt>
      <trkpt lat="42.4450470" lon="-3.0459620">
        <ele>737.6</ele>
        <time>2022-08-29T08:48:50Z</time>
      </trkpt>
      <trkpt lat="42.4450460" lon="-3.0459790">
        <ele>737.6</ele>
        <time>2022-08-29T08:48:51Z</time>
      </trkpt>
      <trkpt lat="42.4450480" lon="-3.0459930">
        <ele>737.6</ele>
        <time>2022-08-29T08:48:52Z</time>
      </trkpt>
      <trkpt lat="42.4450520" lon="-3.0460020">
        <ele>737.4</ele>
        <time>2022-08-29T08:48:53Z</time>
      </trkpt>
      <trkpt lat="42.4450550" lon="-3.0460050">
        <ele>737.6</ele>
        <time>2022-08-29T08:48:54Z</time>
      </trkpt>
      <trkpt lat="42.4450550" lon="-3.0460050">
        <ele>737.4</ele>
        <time>2022-08-29T08:48:55Z</time>
      </trkpt>
      <trkpt lat="42.4450560" lon="-3.0460050">
        <ele>737.4</ele>
        <time>2022-08-29T08:48:56Z</time>
      </trkpt>
      <trkpt lat="42.4450550" lon="-3.0460070">
        <ele>737.4</ele>
        <time>2022-08-29T08:48:57Z</time>
      </trkpt>
      <trkpt lat="42.4450540" lon="-3.0460080">
        <ele>737.4</ele>
        <time>2022-08-29T08:48:58Z</time>
      </trkpt>
      <trkpt lat="42.4450530" lon="-3.0460100">
        <ele>737.4</ele>
        <time>2022-08-29T08:48:59Z</time>
      </trkpt>
      <trkpt lat="42.4450530" lon="-3.0460110">
        <ele>737.2</ele>
        <time>2022-08-29T08:49:00Z</time>
      </trkpt>
      <trkpt lat="42.4450530" lon="-3.0460110">
        <ele>737.2</ele>
        <time>2022-08-29T08:49:01Z</time>
      </trkpt>
      <trkpt lat="42.4450530" lon="-3.0460110">
        <ele>737.2</ele>
        <time>2022-08-29T08:49:02Z</time>
      </trkpt>
      <trkpt lat="42.4450530" lon="-3.0460100">
        <ele>737.4</ele>
        <time>2022-08-29T08:49:03Z</time>
      </trkpt>
      <trkpt lat="42.4450530" lon="-3.0460100">
        <ele>737.2</ele>
        <time>2022-08-29T08:49:04Z</time>
      </trkpt>
      <trkpt lat="42.4450530" lon="-3.0460100">
        <ele>737.2</ele>
        <time>2022-08-29T08:49:05Z</time>
      </trkpt>
      <trkpt lat="42.4450530" lon="-3.0460090">
        <ele>737.0</ele>
        <time>2022-08-29T08:49:06Z</time>
      </trkpt>
      <trkpt lat="42.4450530" lon="-3.0460090">
        <ele>737.2</ele>
        <time>2022-08-29T08:49:07Z</time>
      </trkpt>
      <trkpt lat="42.4450540" lon="-3.0460100">
        <ele>737.2</ele>
        <time>2022-08-29T08:49:08Z</time>
      </trkpt>
      <trkpt lat="42.4450550" lon="-3.0460090">
        <ele>737.2</ele>
        <time>2022-08-29T08:49:09Z</time>
      </trkpt>
      <trkpt lat="42.4450560" lon="-3.0460090">
        <ele>737.2</ele>
        <time>2022-08-29T08:49:10Z</time>
      </trkpt>
      <trkpt lat="42.4450570" lon="-3.0460100">
        <ele>737.2</ele>
        <time>2022-08-29T08:49:11Z</time>
      </trkpt>
      <trkpt lat="42.4450570" lon="-3.0460100">
        <ele>737.0</ele>
        <time>2022-08-29T08:49:12Z</time>
      </trkpt>
      <trkpt lat="42.4450570" lon="-3.0460100">
        <ele>737.2</ele>
        <time>2022-08-29T08:49:13Z</time>
      </trkpt>
      <trkpt lat="42.4450580" lon="-3.0460100">
        <ele>737.2</ele>
        <time>2022-08-29T08:49:14Z</time>
      </trkpt>
      <trkpt lat="42.4450580" lon="-3.0460100">
        <ele>737.0</ele>
        <time>2022-08-29T08:49:15Z</time>
      </trkpt>
      <trkpt lat="42.4450580" lon="-3.0460100">
        <ele>737.2</ele>
        <time>2022-08-29T08:49:16Z</time>
      </trkpt>
      <trkpt lat="42.4450590" lon="-3.0460100">
        <ele>737.2</ele>
        <time>2022-08-29T08:49:17Z</time>
      </trkpt>
      <trkpt lat="42.4450600" lon="-3.0460100">
        <ele>737.2</ele>
        <time>2022-08-29T08:49:18Z</time>
      </trkpt>
      <trkpt lat="42.4450610" lon="-3.0460100">
        <ele>737.2</ele>
        <time>2022-08-29T08:49:19Z</time>
      </trkpt>
      <trkpt lat="42.4450610" lon="-3.0460100">
        <ele>737.2</ele>
        <time>2022-08-29T08:49:20Z</time>
      </trkpt>
      <trkpt lat="42.4450600" lon="-3.0460100">
        <ele>737.2</ele>
        <time>2022-08-29T08:49:21Z</time>
      </trkpt>
      <trkpt lat="42.4450600" lon="-3.0460100">
        <ele>737.0</ele>
        <time>2022-08-29T08:49:22Z</time>
      </trkpt>
      <trkpt lat="42.4450610" lon="-3.0460110">
        <ele>737.2</ele>
        <time>2022-08-29T08:49:23Z</time>
      </trkpt>
      <trkpt lat="42.4450600" lon="-3.0460110">
        <ele>737.2</ele>
        <time>2022-08-29T08:49:24Z</time>
      </trkpt>
      <trkpt lat="42.4450600" lon="-3.0460110">
        <ele>737.2</ele>
        <time>2022-08-29T08:49:25Z</time>
      </trkpt>
      <trkpt lat="42.4450610" lon="-3.0460110">
        <ele>737.2</ele>
        <time>2022-08-29T08:49:26Z</time>
      </trkpt>
      <trkpt lat="42.4450610" lon="-3.0460110">
        <ele>737.2</ele>
        <time>2022-08-29T08:49:27Z</time>
      </trkpt>
      <trkpt lat="42.4450610" lon="-3.0460110">
        <ele>737.2</ele>
        <time>2022-08-29T08:49:28Z</time>
      </trkpt>
      <trkpt lat="42.4450610" lon="-3.0460110">
        <ele>737.2</ele>
        <time>2022-08-29T08:49:29Z</time>
      </trkpt>
      <trkpt lat="42.4450610" lon="-3.0460110">
        <ele>737.2</ele>
        <time>2022-08-29T08:49:30Z</time>
      </trkpt>
      <trkpt lat="42.4450610" lon="-3.0460110">
        <ele>737.0</ele>
        <time>2022-08-29T08:49:31Z</time>
      </trkpt>
      <trkpt lat="42.4450610" lon="-3.0460100">
        <ele>737.2</ele>
        <time>2022-08-29T08:49:32Z</time>
      </trkpt>
      <trkpt lat="42.4450610" lon="-3.0460090">
        <ele>737.2</ele>
        <time>2022-08-29T08:49:33Z</time>
      </trkpt>
      <trkpt lat="42.4450610" lon="-3.0460090">
        <ele>737.2</ele>
        <time>2022-08-29T08:49:34Z</time>
      </trkpt>
      <trkpt lat="42.4450610" lon="-3.0460090">
        <ele>737.4</ele>
        <time>2022-08-29T08:49:35Z</time>
      </trkpt>
      <trkpt lat="42.4450610" lon="-3.0460090">
        <ele>737.2</ele>
        <time>2022-08-29T08:49:36Z</time>
      </trkpt>
      <trkpt lat="42.4450610" lon="-3.0460090">
        <ele>737.4</ele>
        <time>2022-08-29T08:49:37Z</time>
      </trkpt>
      <trkpt lat="42.4450610" lon="-3.0460080">
        <ele>737.2</ele>
        <time>2022-08-29T08:49:38Z</time>
      </trkpt>
      <trkpt lat="42.4450610" lon="-3.0460080">
        <ele>737.4</ele>
        <time>2022-08-29T08:49:39Z</time>
      </trkpt>
      <trkpt lat="42.4450610" lon="-3.0460090">
        <ele>737.4</ele>
        <time>2022-08-29T08:49:40Z</time>
      </trkpt>
      <trkpt lat="42.4450610" lon="-3.0460090">
        <ele>737.4</ele>
        <time>2022-08-29T08:49:41Z</time>
      </trkpt>
      <trkpt lat="42.4450610" lon="-3.0460090">
        <ele>737.2</ele>
        <time>2022-08-29T08:49:42Z</time>
      </trkpt>
      <trkpt lat="42.4450620" lon="-3.0460090">
        <ele>737.4</ele>
        <time>2022-08-29T08:49:43Z</time>
      </trkpt>
      <trkpt lat="42.4450610" lon="-3.0460080">
        <ele>737.4</ele>
        <time>2022-08-29T08:49:44Z</time>
      </trkpt>
      <trkpt lat="42.4450610" lon="-3.0460090">
        <ele>737.2</ele>
        <time>2022-08-29T08:49:45Z</time>
      </trkpt>
      <trkpt lat="42.4450610" lon="-3.0460080">
        <ele>737.4</ele>
        <time>2022-08-29T08:49:46Z</time>
      </trkpt>
      <trkpt lat="42.4450610" lon="-3.0460080">
        <ele>737.4</ele>
        <time>2022-08-29T08:49:47Z</time>
      </trkpt>
      <trkpt lat="42.4450610" lon="-3.0460090">
        <ele>737.4</ele>
        <time>2022-08-29T08:49:48Z</time>
      </trkpt>
      <trkpt lat="42.4450610" lon="-3.0460090">
        <ele>737.4</ele>
        <time>2022-08-29T08:49:49Z</time>
      </trkpt>
      <trkpt lat="42.4450600" lon="-3.0460090">
        <ele>737.4</ele>
        <time>2022-08-29T08:49:50Z</time>
      </trkpt>
      <trkpt lat="42.4450600" lon="-3.0460080">
        <ele>737.2</ele>
        <time>2022-08-29T08:49:51Z</time>
      </trkpt>
      <trkpt lat="42.4450600" lon="-3.0460090">
        <ele>737.4</ele>
        <time>2022-08-29T08:49:52Z</time>
      </trkpt>
      <trkpt lat="42.4450600" lon="-3.0460090">
        <ele>737.2</ele>
        <time>2022-08-29T08:49:53Z</time>
      </trkpt>
      <trkpt lat="42.4450600" lon="-3.0460090">
        <ele>737.2</ele>
        <time>2022-08-29T08:49:54Z</time>
      </trkpt>
      <trkpt lat="42.4450600" lon="-3.0460090">
        <ele>737.2</ele>
        <time>2022-08-29T08:49:55Z</time>
      </trkpt>
      <trkpt lat="42.4450600" lon="-3.0460090">
        <ele>737.2</ele>
        <time>2022-08-29T08:49:56Z</time>
      </trkpt>
      <trkpt lat="42.4450600" lon="-3.0460090">
        <ele>737.2</ele>
        <time>2022-08-29T08:49:57Z</time>
      </trkpt>
      <trkpt lat="42.4450600" lon="-3.0460090">
        <ele>737.4</ele>
        <time>2022-08-29T08:49:58Z</time>
      </trkpt>
      <trkpt lat="42.4450600" lon="-3.0460090">
        <ele>737.2</ele>
        <time>2022-08-29T08:49:59Z</time>
      </trkpt>
      <trkpt lat="42.4450600" lon="-3.0460090">
        <ele>737.2</ele>
        <time>2022-08-29T08:50:00Z</time>
      </trkpt>
      <trkpt lat="42.4450590" lon="-3.0460100">
        <ele>737.2</ele>
        <time>2022-08-29T08:50:01Z</time>
      </trkpt>
      <trkpt lat="42.4450590" lon="-3.0460140">
        <ele>737.2</ele>
        <time>2022-08-29T08:50:02Z</time>
      </trkpt>
      <trkpt lat="42.4450590" lon="-3.0460240">
        <ele>737.2</ele>
        <time>2022-08-29T08:50:03Z</time>
      </trkpt>
      <trkpt lat="42.4450550" lon="-3.0460400">
        <ele>737.2</ele>
        <time>2022-08-29T08:50:04Z</time>
      </trkpt>
      <trkpt lat="42.4450460" lon="-3.0460620">
        <ele>737.2</ele>
        <time>2022-08-29T08:50:05Z</time>
      </trkpt>
      <trkpt lat="42.4450330" lon="-3.0460890">
        <ele>737.2</ele>
        <time>2022-08-29T08:50:06Z</time>
      </trkpt>
      <trkpt lat="42.4450190" lon="-3.0461230">
        <ele>737.0</ele>
        <time>2022-08-29T08:50:07Z</time>
      </trkpt>
      <trkpt lat="42.4450050" lon="-3.0461650">
        <ele>737.2</ele>
        <time>2022-08-29T08:50:08Z</time>
      </trkpt>
      <trkpt lat="42.4449900" lon="-3.0462140">
        <ele>737.2</ele>
        <time>2022-08-29T08:50:09Z</time>
      </trkpt>
      <trkpt lat="42.4449760" lon="-3.0462730">
        <ele>737.2</ele>
        <time>2022-08-29T08:50:10Z</time>
      </trkpt>
      <trkpt lat="42.4449600" lon="-3.0463420">
        <ele>737.2</ele>
        <time>2022-08-29T08:50:11Z</time>
      </trkpt>
      <trkpt lat="42.4449350" lon="-3.0464240">
        <ele>737.0</ele>
        <time>2022-08-29T08:50:12Z</time>
      </trkpt>
      <trkpt lat="42.4449080" lon="-3.0465140">
        <ele>737.0</ele>
        <time>2022-08-29T08:50:13Z</time>
      </trkpt>
      <trkpt lat="42.4448810" lon="-3.0466070">
        <ele>737.0</ele>
        <time>2022-08-29T08:50:14Z</time>
      </trkpt>
      <trkpt lat="42.4448530" lon="-3.0467090">
        <ele>736.8</ele>
        <time>2022-08-29T08:50:15Z</time>
      </trkpt>
      <trkpt lat="42.4448240" lon="-3.0468170">
        <ele>736.6</ele>
        <time>2022-08-29T08:50:16Z</time>
      </trkpt>
      <trkpt lat="42.4447950" lon="-3.0469290">
        <ele>736.6</ele>
        <time>2022-08-29T08:50:17Z</time>
      </trkpt>
      <trkpt lat="42.4447650" lon="-3.0470440">
        <ele>736.2</ele>
        <time>2022-08-29T08:50:18Z</time>
      </trkpt>
      <trkpt lat="42.4447340" lon="-3.0471610">
        <ele>735.6</ele>
        <time>2022-08-29T08:50:19Z</time>
      </trkpt>
      <trkpt lat="42.4447010" lon="-3.0472840">
        <ele>734.8</ele>
        <time>2022-08-29T08:50:20Z</time>
      </trkpt>
      <trkpt lat="42.4446690" lon="-3.0474060">
        <ele>733.4</ele>
        <time>2022-08-29T08:50:21Z</time>
      </trkpt>
      <trkpt lat="42.4446390" lon="-3.0475290">
        <ele>732.8</ele>
        <time>2022-08-29T08:50:22Z</time>
      </trkpt>
      <trkpt lat="42.4446090" lon="-3.0476500">
        <ele>731.8</ele>
        <time>2022-08-29T08:50:23Z</time>
      </trkpt>
      <trkpt lat="42.4445790" lon="-3.0477680">
        <ele>730.8</ele>
        <time>2022-08-29T08:50:24Z</time>
      </trkpt>
      <trkpt lat="42.4445500" lon="-3.0478820">
        <ele>730.0</ele>
        <time>2022-08-29T08:50:25Z</time>
      </trkpt>
      <trkpt lat="42.4445230" lon="-3.0479940">
        <ele>729.2</ele>
        <time>2022-08-29T08:50:26Z</time>
      </trkpt>
      <trkpt lat="42.4444950" lon="-3.0481010">
        <ele>728.0</ele>
        <time>2022-08-29T08:50:27Z</time>
      </trkpt>
      <trkpt lat="42.4444670" lon="-3.0482030">
        <ele>727.0</ele>
        <time>2022-08-29T08:50:28Z</time>
      </trkpt>
      <trkpt lat="42.4444400" lon="-3.0483000">
        <ele>726.6</ele>
        <time>2022-08-29T08:50:29Z</time>
      </trkpt>
      <trkpt lat="42.4444150" lon="-3.0483920">
        <ele>726.6</ele>
        <time>2022-08-29T08:50:30Z</time>
      </trkpt>
      <trkpt lat="42.4443880" lon="-3.0484800">
        <ele>726.4</ele>
        <time>2022-08-29T08:50:31Z</time>
      </trkpt>
      <trkpt lat="42.4443620" lon="-3.0485630">
        <ele>726.4</ele>
        <time>2022-08-29T08:50:32Z</time>
      </trkpt>
      <trkpt lat="42.4443380" lon="-3.0486420">
        <ele>726.4</ele>
        <time>2022-08-29T08:50:33Z</time>
      </trkpt>
      <trkpt lat="42.4443170" lon="-3.0487170">
        <ele>726.4</ele>
        <time>2022-08-29T08:50:34Z</time>
      </trkpt>
      <trkpt lat="42.4443000" lon="-3.0487870">
        <ele>726.4</ele>
        <time>2022-08-29T08:50:35Z</time>
      </trkpt>
      <trkpt lat="42.4442850" lon="-3.0488550">
        <ele>726.2</ele>
        <time>2022-08-29T08:50:36Z</time>
      </trkpt>
      <trkpt lat="42.4442660" lon="-3.0489230">
        <ele>726.2</ele>
        <time>2022-08-29T08:50:37Z</time>
      </trkpt>
      <trkpt lat="42.4442490" lon="-3.0489880">
        <ele>726.6</ele>
        <time>2022-08-29T08:50:38Z</time>
      </trkpt>
      <trkpt lat="42.4442320" lon="-3.0490510">
        <ele>726.8</ele>
        <time>2022-08-29T08:50:39Z</time>
      </trkpt>
      <trkpt lat="42.4442150" lon="-3.0491120">
        <ele>727.0</ele>
        <time>2022-08-29T08:50:40Z</time>
      </trkpt>
      <trkpt lat="42.4441980" lon="-3.0491700">
        <ele>727.4</ele>
        <time>2022-08-29T08:50:41Z</time>
      </trkpt>
      <trkpt lat="42.4441830" lon="-3.0492270">
        <ele>727.8</ele>
        <time>2022-08-29T08:50:42Z</time>
      </trkpt>
      <trkpt lat="42.4441680" lon="-3.0492830">
        <ele>728.0</ele>
        <time>2022-08-29T08:50:43Z</time>
      </trkpt>
      <trkpt lat="42.4441540" lon="-3.0493370">
        <ele>728.2</ele>
        <time>2022-08-29T08:50:44Z</time>
      </trkpt>
      <trkpt lat="42.4441400" lon="-3.0493900">
        <ele>728.4</ele>
        <time>2022-08-29T08:50:45Z</time>
      </trkpt>
      <trkpt lat="42.4441250" lon="-3.0494420">
        <ele>728.8</ele>
        <time>2022-08-29T08:50:46Z</time>
      </trkpt>
      <trkpt lat="42.4441090" lon="-3.0494940">
        <ele>729.2</ele>
        <time>2022-08-29T08:50:47Z</time>
      </trkpt>
      <trkpt lat="42.4440930" lon="-3.0495450">
        <ele>729.4</ele>
        <time>2022-08-29T08:50:48Z</time>
      </trkpt>
      <trkpt lat="42.4440770" lon="-3.0495950">
        <ele>729.8</ele>
        <time>2022-08-29T08:50:49Z</time>
      </trkpt>
      <trkpt lat="42.4440610" lon="-3.0496430">
        <ele>730.2</ele>
        <time>2022-08-29T08:50:50Z</time>
      </trkpt>
      <trkpt lat="42.4440440" lon="-3.0496870">
        <ele>730.4</ele>
        <time>2022-08-29T08:50:51Z</time>
      </trkpt>
      <trkpt lat="42.4440270" lon="-3.0497280">
        <ele>730.6</ele>
        <time>2022-08-29T08:50:52Z</time>
      </trkpt>
      <trkpt lat="42.4440100" lon="-3.0497710">
        <ele>730.8</ele>
        <time>2022-08-29T08:50:53Z</time>
      </trkpt>
      <trkpt lat="42.4439940" lon="-3.0498150">
        <ele>730.8</ele>
        <time>2022-08-29T08:50:54Z</time>
      </trkpt>
      <trkpt lat="42.4439770" lon="-3.0498600">
        <ele>731.2</ele>
        <time>2022-08-29T08:50:55Z</time>
      </trkpt>
      <trkpt lat="42.4439600" lon="-3.0499060">
        <ele>731.2</ele>
        <time>2022-08-29T08:50:56Z</time>
      </trkpt>
      <trkpt lat="42.4439430" lon="-3.0499520">
        <ele>731.2</ele>
        <time>2022-08-29T08:50:57Z</time>
      </trkpt>
      <trkpt lat="42.4439270" lon="-3.0499980">
        <ele>731.4</ele>
        <time>2022-08-29T08:50:58Z</time>
      </trkpt>
      <trkpt lat="42.4439110" lon="-3.0500430">
        <ele>731.8</ele>
        <time>2022-08-29T08:50:59Z</time>
      </trkpt>
      <trkpt lat="42.4438950" lon="-3.0500870">
        <ele>732.0</ele>
        <time>2022-08-29T08:51:00Z</time>
      </trkpt>
      <trkpt lat="42.4438800" lon="-3.0501300">
        <ele>732.0</ele>
        <time>2022-08-29T08:51:01Z</time>
      </trkpt>
      <trkpt lat="42.4438670" lon="-3.0501720">
        <ele>732.0</ele>
        <time>2022-08-29T08:51:02Z</time>
      </trkpt>
      <trkpt lat="42.4438530" lon="-3.0502150">
        <ele>732.2</ele>
        <time>2022-08-29T08:51:03Z</time>
      </trkpt>
      <trkpt lat="42.4438390" lon="-3.0502570">
        <ele>732.4</ele>
        <time>2022-08-29T08:51:04Z</time>
      </trkpt>
      <trkpt lat="42.4438230" lon="-3.0503000">
        <ele>732.4</ele>
        <time>2022-08-29T08:51:05Z</time>
      </trkpt>
      <trkpt lat="42.4438050" lon="-3.0503470">
        <ele>732.4</ele>
        <time>2022-08-29T08:51:06Z</time>
      </trkpt>
      <trkpt lat="42.4437870" lon="-3.0503930">
        <ele>732.6</ele>
        <time>2022-08-29T08:51:07Z</time>
      </trkpt>
      <trkpt lat="42.4437690" lon="-3.0504440">
        <ele>732.6</ele>
        <time>2022-08-29T08:51:08Z</time>
      </trkpt>
      <trkpt lat="42.4437490" lon="-3.0504980">
        <ele>732.6</ele>
        <time>2022-08-29T08:51:09Z</time>
      </trkpt>
      <trkpt lat="42.4437270" lon="-3.0505580">
        <ele>732.6</ele>
        <time>2022-08-29T08:51:10Z</time>
      </trkpt>
      <trkpt lat="42.4437050" lon="-3.0506220">
        <ele>732.8</ele>
        <time>2022-08-29T08:51:11Z</time>
      </trkpt>
      <trkpt lat="42.4436800" lon="-3.0506910">
        <ele>732.6</ele>
        <time>2022-08-29T08:51:12Z</time>
      </trkpt>
      <trkpt lat="42.4436540" lon="-3.0507640">
        <ele>732.8</ele>
        <time>2022-08-29T08:51:13Z</time>
      </trkpt>
      <trkpt lat="42.4436250" lon="-3.0508440">
        <ele>732.6</ele>
        <time>2022-08-29T08:51:14Z</time>
      </trkpt>
      <trkpt lat="42.4435940" lon="-3.0509310">
        <ele>732.6</ele>
        <time>2022-08-29T08:51:15Z</time>
      </trkpt>
      <trkpt lat="42.4435620" lon="-3.0510220">
        <ele>732.6</ele>
        <time>2022-08-29T08:51:16Z</time>
      </trkpt>
      <trkpt lat="42.4435290" lon="-3.0511200">
        <ele>732.6</ele>
        <time>2022-08-29T08:51:17Z</time>
      </trkpt>
      <trkpt lat="42.4434950" lon="-3.0512250">
        <ele>732.6</ele>
        <time>2022-08-29T08:51:18Z</time>
      </trkpt>
      <trkpt lat="42.4434630" lon="-3.0513300">
        <ele>732.2</ele>
        <time>2022-08-29T08:51:19Z</time>
      </trkpt>
      <trkpt lat="42.4434310" lon="-3.0514370">
        <ele>731.4</ele>
        <time>2022-08-29T08:51:20Z</time>
      </trkpt>
      <trkpt lat="42.4433990" lon="-3.0515440">
        <ele>731.2</ele>
        <time>2022-08-29T08:51:21Z</time>
      </trkpt>
      <trkpt lat="42.4433660" lon="-3.0516530">
        <ele>730.6</ele>
        <time>2022-08-29T08:51:22Z</time>
      </trkpt>
      <trkpt lat="42.4433320" lon="-3.0517630">
        <ele>729.8</ele>
        <time>2022-08-29T08:51:23Z</time>
      </trkpt>
      <trkpt lat="42.4432980" lon="-3.0518730">
        <ele>728.8</ele>
        <time>2022-08-29T08:51:24Z</time>
      </trkpt>
      <trkpt lat="42.4432650" lon="-3.0519850">
        <ele>727.8</ele>
        <time>2022-08-29T08:51:25Z</time>
      </trkpt>
      <trkpt lat="42.4432230" lon="-3.0520970">
        <ele>727.8</ele>
        <time>2022-08-29T08:51:26Z</time>
      </trkpt>
      <trkpt lat="42.4431780" lon="-3.0522070">
        <ele>727.2</ele>
        <time>2022-08-29T08:51:27Z</time>
      </trkpt>
      <trkpt lat="42.4431290" lon="-3.0523150">
        <ele>726.4</ele>
        <time>2022-08-29T08:51:28Z</time>
      </trkpt>
      <trkpt lat="42.4430730" lon="-3.0524210">
        <ele>725.8</ele>
        <time>2022-08-29T08:51:29Z</time>
      </trkpt>
      <trkpt lat="42.4430130" lon="-3.0525270">
        <ele>725.4</ele>
        <time>2022-08-29T08:51:30Z</time>
      </trkpt>
      <trkpt lat="42.4429550" lon="-3.0526330">
        <ele>725.0</ele>
        <time>2022-08-29T08:51:31Z</time>
      </trkpt>
      <trkpt lat="42.4429000" lon="-3.0527410">
        <ele>724.6</ele>
        <time>2022-08-29T08:51:32Z</time>
      </trkpt>
      <trkpt lat="42.4428440" lon="-3.0528500">
        <ele>724.2</ele>
        <time>2022-08-29T08:51:33Z</time>
      </trkpt>
      <trkpt lat="42.4427890" lon="-3.0529580">
        <ele>723.6</ele>
        <time>2022-08-29T08:51:34Z</time>
      </trkpt>
      <trkpt lat="42.4427340" lon="-3.0530630">
        <ele>722.6</ele>
        <time>2022-08-29T08:51:35Z</time>
      </trkpt>
      <trkpt lat="42.4426820" lon="-3.0531660">
        <ele>722.0</ele>
        <time>2022-08-29T08:51:36Z</time>
      </trkpt>
      <trkpt lat="42.4426280" lon="-3.0532660">
        <ele>721.4</ele>
        <time>2022-08-29T08:51:37Z</time>
      </trkpt>
      <trkpt lat="42.4425740" lon="-3.0533630">
        <ele>721.0</ele>
        <time>2022-08-29T08:51:38Z</time>
      </trkpt>
      <trkpt lat="42.4425160" lon="-3.0534530">
        <ele>720.0</ele>
        <time>2022-08-29T08:51:39Z</time>
      </trkpt>
      <trkpt lat="42.4424560" lon="-3.0535380">
        <ele>719.2</ele>
        <time>2022-08-29T08:51:40Z</time>
      </trkpt>
      <trkpt lat="42.4423980" lon="-3.0536180">
        <ele>718.8</ele>
        <time>2022-08-29T08:51:41Z</time>
      </trkpt>
      <trkpt lat="42.4423420" lon="-3.0536990">
        <ele>718.4</ele>
        <time>2022-08-29T08:51:42Z</time>
      </trkpt>
      <trkpt lat="42.4422890" lon="-3.0537780">
        <ele>718.2</ele>
        <time>2022-08-29T08:51:43Z</time>
      </trkpt>
      <trkpt lat="42.4422380" lon="-3.0538560">
        <ele>717.8</ele>
        <time>2022-08-29T08:51:44Z</time>
      </trkpt>
      <trkpt lat="42.4421870" lon="-3.0539350">
        <ele>717.8</ele>
        <time>2022-08-29T08:51:45Z</time>
      </trkpt>
      <trkpt lat="42.4421330" lon="-3.0540090">
        <ele>717.8</ele>
        <time>2022-08-29T08:51:46Z</time>
      </trkpt>
      <trkpt lat="42.4420820" lon="-3.0540820">
        <ele>717.8</ele>
        <time>2022-08-29T08:51:47Z</time>
      </trkpt>
      <trkpt lat="42.4420290" lon="-3.0541510">
        <ele>717.8</ele>
        <time>2022-08-29T08:51:48Z</time>
      </trkpt>
      <trkpt lat="42.4419770" lon="-3.0542190">
        <ele>717.8</ele>
        <time>2022-08-29T08:51:49Z</time>
      </trkpt>
      <trkpt lat="42.4419260" lon="-3.0542880">
        <ele>717.8</ele>
        <time>2022-08-29T08:51:50Z</time>
      </trkpt>
      <trkpt lat="42.4418760" lon="-3.0543580">
        <ele>717.8</ele>
        <time>2022-08-29T08:51:51Z</time>
      </trkpt>
      <trkpt lat="42.4418280" lon="-3.0544280">
        <ele>717.8</ele>
        <time>2022-08-29T08:51:52Z</time>
      </trkpt>
      <trkpt lat="42.4417830" lon="-3.0545000">
        <ele>717.8</ele>
        <time>2022-08-29T08:51:53Z</time>
      </trkpt>
      <trkpt lat="42.4417410" lon="-3.0545710">
        <ele>717.8</ele>
        <time>2022-08-29T08:51:54Z</time>
      </trkpt>
      <trkpt lat="42.4417000" lon="-3.0546410">
        <ele>718.0</ele>
        <time>2022-08-29T08:51:55Z</time>
      </trkpt>
      <trkpt lat="42.4416620" lon="-3.0547090">
        <ele>718.0</ele>
        <time>2022-08-29T08:51:56Z</time>
      </trkpt>
      <trkpt lat="42.4416270" lon="-3.0547740">
        <ele>718.0</ele>
        <time>2022-08-29T08:51:57Z</time>
      </trkpt>
      <trkpt lat="42.4415950" lon="-3.0548380">
        <ele>718.2</ele>
        <time>2022-08-29T08:51:58Z</time>
      </trkpt>
      <trkpt lat="42.4415640" lon="-3.0549000">
        <ele>718.2</ele>
        <time>2022-08-29T08:51:59Z</time>
      </trkpt>
      <trkpt lat="42.4415360" lon="-3.0549580">
        <ele>718.4</ele>
        <time>2022-08-29T08:52:00Z</time>
      </trkpt>
      <trkpt lat="42.4415120" lon="-3.0550130">
        <ele>718.4</ele>
        <time>2022-08-29T08:52:01Z</time>
      </trkpt>
      <trkpt lat="42.4414890" lon="-3.0550650">
        <ele>718.6</ele>
        <time>2022-08-29T08:52:02Z</time>
      </trkpt>
      <trkpt lat="42.4414660" lon="-3.0551120">
        <ele>718.8</ele>
        <time>2022-08-29T08:52:03Z</time>
      </trkpt>
      <trkpt lat="42.4414410" lon="-3.0551570">
        <ele>718.8</ele>
        <time>2022-08-29T08:52:04Z</time>
      </trkpt>
      <trkpt lat="42.4414170" lon="-3.0552020">
        <ele>719.0</ele>
        <time>2022-08-29T08:52:05Z</time>
      </trkpt>
      <trkpt lat="42.4413930" lon="-3.0552450">
        <ele>719.2</ele>
        <time>2022-08-29T08:52:06Z</time>
      </trkpt>
      <trkpt lat="42.4413680" lon="-3.0552890">
        <ele>719.4</ele>
        <time>2022-08-29T08:52:07Z</time>
      </trkpt>
      <trkpt lat="42.4413440" lon="-3.0553350">
        <ele>719.6</ele>
        <time>2022-08-29T08:52:08Z</time>
      </trkpt>
      <trkpt lat="42.4413200" lon="-3.0553840">
        <ele>719.8</ele>
        <time>2022-08-29T08:52:09Z</time>
      </trkpt>
      <trkpt lat="42.4412940" lon="-3.0554340">
        <ele>720.4</ele>
        <time>2022-08-29T08:52:10Z</time>
      </trkpt>
      <trkpt lat="42.4412680" lon="-3.0554810">
        <ele>720.6</ele>
        <time>2022-08-29T08:52:11Z</time>
      </trkpt>
      <trkpt lat="42.4412400" lon="-3.0555300">
        <ele>721.0</ele>
        <time>2022-08-29T08:52:12Z</time>
      </trkpt>
      <trkpt lat="42.4412110" lon="-3.0555800">
        <ele>721.0</ele>
        <time>2022-08-29T08:52:13Z</time>
      </trkpt>
      <trkpt lat="42.4411820" lon="-3.0556320">
        <ele>721.2</ele>
        <time>2022-08-29T08:52:14Z</time>
      </trkpt>
      <trkpt lat="42.4411520" lon="-3.0556850">
        <ele>721.4</ele>
        <time>2022-08-29T08:52:15Z</time>
      </trkpt>
      <trkpt lat="42.4411220" lon="-3.0557390">
        <ele>721.4</ele>
        <time>2022-08-29T08:52:16Z</time>
      </trkpt>
      <trkpt lat="42.4410920" lon="-3.0557920">
        <ele>721.6</ele>
        <time>2022-08-29T08:52:17Z</time>
      </trkpt>
      <trkpt lat="42.4410610" lon="-3.0558470">
        <ele>721.6</ele>
        <time>2022-08-29T08:52:18Z</time>
      </trkpt>
      <trkpt lat="42.4410320" lon="-3.0559020">
        <ele>721.6</ele>
        <time>2022-08-29T08:52:19Z</time>
      </trkpt>
      <trkpt lat="42.4410020" lon="-3.0559590">
        <ele>721.8</ele>
        <time>2022-08-29T08:52:20Z</time>
      </trkpt>
      <trkpt lat="42.4409720" lon="-3.0560170">
        <ele>721.8</ele>
        <time>2022-08-29T08:52:21Z</time>
      </trkpt>
      <trkpt lat="42.4409420" lon="-3.0560750">
        <ele>721.8</ele>
        <time>2022-08-29T08:52:22Z</time>
      </trkpt>
      <trkpt lat="42.4409120" lon="-3.0561340">
        <ele>721.8</ele>
        <time>2022-08-29T08:52:23Z</time>
      </trkpt>
      <trkpt lat="42.4408820" lon="-3.0561920">
        <ele>721.8</ele>
        <time>2022-08-29T08:52:24Z</time>
      </trkpt>
      <trkpt lat="42.4408520" lon="-3.0562480">
        <ele>721.8</ele>
        <time>2022-08-29T08:52:25Z</time>
      </trkpt>
      <trkpt lat="42.4408200" lon="-3.0563020">
        <ele>721.8</ele>
        <time>2022-08-29T08:52:26Z</time>
      </trkpt>
      <trkpt lat="42.4407890" lon="-3.0563550">
        <ele>722.0</ele>
        <time>2022-08-29T08:52:27Z</time>
      </trkpt>
      <trkpt lat="42.4407600" lon="-3.0564070">
        <ele>721.8</ele>
        <time>2022-08-29T08:52:28Z</time>
      </trkpt>
      <trkpt lat="42.4407310" lon="-3.0564590">
        <ele>722.0</ele>
        <time>2022-08-29T08:52:29Z</time>
      </trkpt>
      <trkpt lat="42.4407040" lon="-3.0565110">
        <ele>722.0</ele>
        <time>2022-08-29T08:52:30Z</time>
      </trkpt>
      <trkpt lat="42.4406750" lon="-3.0565630">
        <ele>722.0</ele>
        <time>2022-08-29T08:52:31Z</time>
      </trkpt>
      <trkpt lat="42.4406460" lon="-3.0566140">
        <ele>722.0</ele>
        <time>2022-08-29T08:52:32Z</time>
      </trkpt>
      <trkpt lat="42.4406160" lon="-3.0566630">
        <ele>722.0</ele>
        <time>2022-08-29T08:52:33Z</time>
      </trkpt>
      <trkpt lat="42.4405890" lon="-3.0567130">
        <ele>722.2</ele>
        <time>2022-08-29T08:52:34Z</time>
      </trkpt>
      <trkpt lat="42.4405630" lon="-3.0567640">
        <ele>722.2</ele>
        <time>2022-08-29T08:52:35Z</time>
      </trkpt>
      <trkpt lat="42.4405360" lon="-3.0568140">
        <ele>722.2</ele>
        <time>2022-08-29T08:52:36Z</time>
      </trkpt>
      <trkpt lat="42.4405080" lon="-3.0568640">
        <ele>722.2</ele>
        <time>2022-08-29T08:52:37Z</time>
      </trkpt>
      <trkpt lat="42.4404810" lon="-3.0569140">
        <ele>722.6</ele>
        <time>2022-08-29T08:52:38Z</time>
      </trkpt>
      <trkpt lat="42.4404540" lon="-3.0569640">
        <ele>722.6</ele>
        <time>2022-08-29T08:52:39Z</time>
      </trkpt>
      <trkpt lat="42.4404270" lon="-3.0570150">
        <ele>722.8</ele>
        <time>2022-08-29T08:52:40Z</time>
      </trkpt>
      <trkpt lat="42.4404000" lon="-3.0570660">
        <ele>722.8</ele>
        <time>2022-08-29T08:52:41Z</time>
      </trkpt>
      <trkpt lat="42.4403730" lon="-3.0571150">
        <ele>723.0</ele>
        <time>2022-08-29T08:52:42Z</time>
      </trkpt>
      <trkpt lat="42.4403460" lon="-3.0571660">
        <ele>722.8</ele>
        <time>2022-08-29T08:52:43Z</time>
      </trkpt>
      <trkpt lat="42.4403190" lon="-3.0572160">
        <ele>723.4</ele>
        <time>2022-08-29T08:52:44Z</time>
      </trkpt>
      <trkpt lat="42.4402890" lon="-3.0572660">
        <ele>723.4</ele>
        <time>2022-08-29T08:52:45Z</time>
      </trkpt>
      <trkpt lat="42.4402590" lon="-3.0573150">
        <ele>723.4</ele>
        <time>2022-08-29T08:52:46Z</time>
      </trkpt>
      <trkpt lat="42.4402290" lon="-3.0573650">
        <ele>723.6</ele>
        <time>2022-08-29T08:52:47Z</time>
      </trkpt>
      <trkpt lat="42.4402000" lon="-3.0574160">
        <ele>723.8</ele>
        <time>2022-08-29T08:52:48Z</time>
      </trkpt>
      <trkpt lat="42.4401710" lon="-3.0574660">
        <ele>723.8</ele>
        <time>2022-08-29T08:52:49Z</time>
      </trkpt>
      <trkpt lat="42.4401430" lon="-3.0575160">
        <ele>724.0</ele>
        <time>2022-08-29T08:52:50Z</time>
      </trkpt>
      <trkpt lat="42.4401140" lon="-3.0575680">
        <ele>724.0</ele>
        <time>2022-08-29T08:52:51Z</time>
      </trkpt>
      <trkpt lat="42.4400860" lon="-3.0576210">
        <ele>724.0</ele>
        <time>2022-08-29T08:52:52Z</time>
      </trkpt>
      <trkpt lat="42.4400570" lon="-3.0576740">
        <ele>724.0</ele>
        <time>2022-08-29T08:52:53Z</time>
      </trkpt>
      <trkpt lat="42.4400260" lon="-3.0577260">
        <ele>724.0</ele>
        <time>2022-08-29T08:52:54Z</time>
      </trkpt>
      <trkpt lat="42.4399940" lon="-3.0577780">
        <ele>724.2</ele>
        <time>2022-08-29T08:52:55Z</time>
      </trkpt>
      <trkpt lat="42.4399640" lon="-3.0578300">
        <ele>724.2</ele>
        <time>2022-08-29T08:52:56Z</time>
      </trkpt>
      <trkpt lat="42.4399340" lon="-3.0578790">
        <ele>724.4</ele>
        <time>2022-08-29T08:52:57Z</time>
      </trkpt>
      <trkpt lat="42.4399070" lon="-3.0579250">
        <ele>724.4</ele>
        <time>2022-08-29T08:52:58Z</time>
      </trkpt>
      <trkpt lat="42.4398830" lon="-3.0579710">
        <ele>724.4</ele>
        <time>2022-08-29T08:52:59Z</time>
      </trkpt>
      <trkpt lat="42.4398640" lon="-3.0580170">
        <ele>724.4</ele>
        <time>2022-08-29T08:53:00Z</time>
      </trkpt>
      <trkpt lat="42.4398470" lon="-3.0580640">
        <ele>724.4</ele>
        <time>2022-08-29T08:53:01Z</time>
      </trkpt>
      <trkpt lat="42.4398310" lon="-3.0581110">
        <ele>724.6</ele>
        <time>2022-08-29T08:53:02Z</time>
      </trkpt>
      <trkpt lat="42.4398130" lon="-3.0581580">
        <ele>724.4</ele>
        <time>2022-08-29T08:53:03Z</time>
      </trkpt>
      <trkpt lat="42.4397950" lon="-3.0582060">
        <ele>724.6</ele>
        <time>2022-08-29T08:53:04Z</time>
      </trkpt>
      <trkpt lat="42.4397770" lon="-3.0582540">
        <ele>724.6</ele>
        <time>2022-08-29T08:53:05Z</time>
      </trkpt>
      <trkpt lat="42.4397580" lon="-3.0583030">
        <ele>724.8</ele>
        <time>2022-08-29T08:53:06Z</time>
      </trkpt>
      <trkpt lat="42.4397370" lon="-3.0583520">
        <ele>725.0</ele>
        <time>2022-08-29T08:53:07Z</time>
      </trkpt>
      <trkpt lat="42.4397150" lon="-3.0584020">
        <ele>725.4</ele>
        <time>2022-08-29T08:53:08Z</time>
      </trkpt>
      <trkpt lat="42.4396920" lon="-3.0584510">
        <ele>725.8</ele>
        <time>2022-08-29T08:53:09Z</time>
      </trkpt>
      <trkpt lat="42.4396690" lon="-3.0585000">
        <ele>725.8</ele>
        <time>2022-08-29T08:53:10Z</time>
      </trkpt>
      <trkpt lat="42.4396450" lon="-3.0585490">
        <ele>726.2</ele>
        <time>2022-08-29T08:53:11Z</time>
      </trkpt>
      <trkpt lat="42.4396210" lon="-3.0585980">
        <ele>726.2</ele>
        <time>2022-08-29T08:53:12Z</time>
      </trkpt>
      <trkpt lat="42.4395970" lon="-3.0586480">
        <ele>726.4</ele>
        <time>2022-08-29T08:53:13Z</time>
      </trkpt>
      <trkpt lat="42.4395720" lon="-3.0586970">
        <ele>726.4</ele>
        <time>2022-08-29T08:53:14Z</time>
      </trkpt>
      <trkpt lat="42.4395490" lon="-3.0587470">
        <ele>726.6</ele>
        <time>2022-08-29T08:53:15Z</time>
      </trkpt>
      <trkpt lat="42.4395260" lon="-3.0587970">
        <ele>726.6</ele>
        <time>2022-08-29T08:53:16Z</time>
      </trkpt>
      <trkpt lat="42.4395010" lon="-3.0588460">
        <ele>726.6</ele>
        <time>2022-08-29T08:53:17Z</time>
      </trkpt>
      <trkpt lat="42.4394760" lon="-3.0588940">
        <ele>726.8</ele>
        <time>2022-08-29T08:53:18Z</time>
      </trkpt>
      <trkpt lat="42.4394490" lon="-3.0589400">
        <ele>726.8</ele>
        <time>2022-08-29T08:53:19Z</time>
      </trkpt>
      <trkpt lat="42.4394230" lon="-3.0589850">
        <ele>726.8</ele>
        <time>2022-08-29T08:53:20Z</time>
      </trkpt>
      <trkpt lat="42.4393980" lon="-3.0590300">
        <ele>727.0</ele>
        <time>2022-08-29T08:53:21Z</time>
      </trkpt>
      <trkpt lat="42.4393740" lon="-3.0590740">
        <ele>727.0</ele>
        <time>2022-08-29T08:53:22Z</time>
      </trkpt>
      <trkpt lat="42.4393520" lon="-3.0591190">
        <ele>727.4</ele>
        <time>2022-08-29T08:53:23Z</time>
      </trkpt>
      <trkpt lat="42.4393330" lon="-3.0591660">
        <ele>727.4</ele>
        <time>2022-08-29T08:53:24Z</time>
      </trkpt>
      <trkpt lat="42.4393140" lon="-3.0592140">
        <ele>727.4</ele>
        <time>2022-08-29T08:53:25Z</time>
      </trkpt>
      <trkpt lat="42.4392940" lon="-3.0592630">
        <ele>727.4</ele>
        <time>2022-08-29T08:53:26Z</time>
      </trkpt>
      <trkpt lat="42.4392740" lon="-3.0593120">
        <ele>727.6</ele>
        <time>2022-08-29T08:53:27Z</time>
      </trkpt>
      <trkpt lat="42.4392540" lon="-3.0593610">
        <ele>727.6</ele>
        <time>2022-08-29T08:53:28Z</time>
      </trkpt>
      <trkpt lat="42.4392350" lon="-3.0594110">
        <ele>727.6</ele>
        <time>2022-08-29T08:53:29Z</time>
      </trkpt>
      <trkpt lat="42.4392150" lon="-3.0594610">
        <ele>727.8</ele>
        <time>2022-08-29T08:53:30Z</time>
      </trkpt>
      <trkpt lat="42.4391950" lon="-3.0595090">
        <ele>728.0</ele>
        <time>2022-08-29T08:53:31Z</time>
      </trkpt>
      <trkpt lat="42.4391720" lon="-3.0595580">
        <ele>728.2</ele>
        <time>2022-08-29T08:53:32Z</time>
      </trkpt>
      <trkpt lat="42.4391490" lon="-3.0596050">
        <ele>728.2</ele>
        <time>2022-08-29T08:53:33Z</time>
      </trkpt>
      <trkpt lat="42.4391280" lon="-3.0596530">
        <ele>728.2</ele>
        <time>2022-08-29T08:53:34Z</time>
      </trkpt>
      <trkpt lat="42.4391070" lon="-3.0597020">
        <ele>728.4</ele>
        <time>2022-08-29T08:53:35Z</time>
      </trkpt>
      <trkpt lat="42.4390860" lon="-3.0597520">
        <ele>728.6</ele>
        <time>2022-08-29T08:53:36Z</time>
      </trkpt>
      <trkpt lat="42.4390630" lon="-3.0598010">
        <ele>728.6</ele>
        <time>2022-08-29T08:53:37Z</time>
      </trkpt>
      <trkpt lat="42.4390390" lon="-3.0598470">
        <ele>728.8</ele>
        <time>2022-08-29T08:53:38Z</time>
      </trkpt>
      <trkpt lat="42.4390140" lon="-3.0598950">
        <ele>728.8</ele>
        <time>2022-08-29T08:53:39Z</time>
      </trkpt>
      <trkpt lat="42.4389900" lon="-3.0599430">
        <ele>728.8</ele>
        <time>2022-08-29T08:53:40Z</time>
      </trkpt>
      <trkpt lat="42.4389660" lon="-3.0599920">
        <ele>728.8</ele>
        <time>2022-08-29T08:53:41Z</time>
      </trkpt>
      <trkpt lat="42.4389440" lon="-3.0600420">
        <ele>729.0</ele>
        <time>2022-08-29T08:53:42Z</time>
      </trkpt>
      <trkpt lat="42.4389220" lon="-3.0600920">
        <ele>729.0</ele>
        <time>2022-08-29T08:53:43Z</time>
      </trkpt>
      <trkpt lat="42.4389000" lon="-3.0601410">
        <ele>729.2</ele>
        <time>2022-08-29T08:53:44Z</time>
      </trkpt>
      <trkpt lat="42.4388770" lon="-3.0601900">
        <ele>729.2</ele>
        <time>2022-08-29T08:53:45Z</time>
      </trkpt>
      <trkpt lat="42.4388540" lon="-3.0602380">
        <ele>729.4</ele>
        <time>2022-08-29T08:53:46Z</time>
      </trkpt>
      <trkpt lat="42.4388300" lon="-3.0602860">
        <ele>729.4</ele>
        <time>2022-08-29T08:53:47Z</time>
      </trkpt>
      <trkpt lat="42.4388070" lon="-3.0603350">
        <ele>729.8</ele>
        <time>2022-08-29T08:53:48Z</time>
      </trkpt>
      <trkpt lat="42.4387850" lon="-3.0603850">
        <ele>729.8</ele>
        <time>2022-08-29T08:53:49Z</time>
      </trkpt>
      <trkpt lat="42.4387630" lon="-3.0604360">
        <ele>729.8</ele>
        <time>2022-08-29T08:53:50Z</time>
      </trkpt>
      <trkpt lat="42.4387410" lon="-3.0604850">
        <ele>729.8</ele>
        <time>2022-08-29T08:53:51Z</time>
      </trkpt>
      <trkpt lat="42.4387190" lon="-3.0605350">
        <ele>730.0</ele>
        <time>2022-08-29T08:53:52Z</time>
      </trkpt>
      <trkpt lat="42.4386960" lon="-3.0605860">
        <ele>730.0</ele>
        <time>2022-08-29T08:53:53Z</time>
      </trkpt>
      <trkpt lat="42.4386740" lon="-3.0606380">
        <ele>730.4</ele>
        <time>2022-08-29T08:53:54Z</time>
      </trkpt>
      <trkpt lat="42.4386510" lon="-3.0606890">
        <ele>730.2</ele>
        <time>2022-08-29T08:53:55Z</time>
      </trkpt>
      <trkpt lat="42.4386290" lon="-3.0607390">
        <ele>730.2</ele>
        <time>2022-08-29T08:53:56Z</time>
      </trkpt>
      <trkpt lat="42.4386090" lon="-3.0607900">
        <ele>730.4</ele>
        <time>2022-08-29T08:53:57Z</time>
      </trkpt>
      <trkpt lat="42.4385890" lon="-3.0608420">
        <ele>730.4</ele>
        <time>2022-08-29T08:53:58Z</time>
      </trkpt>
      <trkpt lat="42.4385700" lon="-3.0608960">
        <ele>730.6</ele>
        <time>2022-08-29T08:53:59Z</time>
      </trkpt>
      <trkpt lat="42.4385520" lon="-3.0609490">
        <ele>730.6</ele>
        <time>2022-08-29T08:54:00Z</time>
      </trkpt>
      <trkpt lat="42.4385340" lon="-3.0610020">
        <ele>730.6</ele>
        <time>2022-08-29T08:54:01Z</time>
      </trkpt>
      <trkpt lat="42.4385160" lon="-3.0610540">
        <ele>730.8</ele>
        <time>2022-08-29T08:54:02Z</time>
      </trkpt>
      <trkpt lat="42.4384980" lon="-3.0611060">
        <ele>731.0</ele>
        <time>2022-08-29T08:54:03Z</time>
      </trkpt>
      <trkpt lat="42.4384800" lon="-3.0611590">
        <ele>731.2</ele>
        <time>2022-08-29T08:54:04Z</time>
      </trkpt>
      <trkpt lat="42.4384610" lon="-3.0612110">
        <ele>731.2</ele>
        <time>2022-08-29T08:54:05Z</time>
      </trkpt>
      <trkpt lat="42.4384420" lon="-3.0612610">
        <ele>731.2</ele>
        <time>2022-08-29T08:54:06Z</time>
      </trkpt>
      <trkpt lat="42.4384220" lon="-3.0613110">
        <ele>731.4</ele>
        <time>2022-08-29T08:54:07Z</time>
      </trkpt>
      <trkpt lat="42.4384000" lon="-3.0613620">
        <ele>731.6</ele>
        <time>2022-08-29T08:54:08Z</time>
      </trkpt>
      <trkpt lat="42.4383800" lon="-3.0614130">
        <ele>731.8</ele>
        <time>2022-08-29T08:54:09Z</time>
      </trkpt>
      <trkpt lat="42.4383600" lon="-3.0614630">
        <ele>731.8</ele>
        <time>2022-08-29T08:54:10Z</time>
      </trkpt>
      <trkpt lat="42.4383400" lon="-3.0615110">
        <ele>731.8</ele>
        <time>2022-08-29T08:54:11Z</time>
      </trkpt>
      <trkpt lat="42.4383180" lon="-3.0615590">
        <ele>731.8</ele>
        <time>2022-08-29T08:54:12Z</time>
      </trkpt>
      <trkpt lat="42.4382980" lon="-3.0616060">
        <ele>731.8</ele>
        <time>2022-08-29T08:54:13Z</time>
      </trkpt>
      <trkpt lat="42.4382790" lon="-3.0616540">
        <ele>731.8</ele>
        <time>2022-08-29T08:54:14Z</time>
      </trkpt>
      <trkpt lat="42.4382610" lon="-3.0617040">
        <ele>732.0</ele>
        <time>2022-08-29T08:54:15Z</time>
      </trkpt>
      <trkpt lat="42.4382430" lon="-3.0617520">
        <ele>732.0</ele>
        <time>2022-08-29T08:54:16Z</time>
      </trkpt>
      <trkpt lat="42.4382250" lon="-3.0617980">
        <ele>732.0</ele>
        <time>2022-08-29T08:54:17Z</time>
      </trkpt>
      <trkpt lat="42.4382050" lon="-3.0618450">
        <ele>732.2</ele>
        <time>2022-08-29T08:54:18Z</time>
      </trkpt>
      <trkpt lat="42.4381860" lon="-3.0618910">
        <ele>732.2</ele>
        <time>2022-08-29T08:54:19Z</time>
      </trkpt>
      <trkpt lat="42.4381690" lon="-3.0619390">
        <ele>732.4</ele>
        <time>2022-08-29T08:54:20Z</time>
      </trkpt>
      <trkpt lat="42.4381530" lon="-3.0619870">
        <ele>732.6</ele>
        <time>2022-08-29T08:54:21Z</time>
      </trkpt>
      <trkpt lat="42.4381390" lon="-3.0620360">
        <ele>732.4</ele>
        <time>2022-08-29T08:54:22Z</time>
      </trkpt>
      <trkpt lat="42.4381260" lon="-3.0620860">
        <ele>732.6</ele>
        <time>2022-08-29T08:54:23Z</time>
      </trkpt>
      <trkpt lat="42.4381160" lon="-3.0621370">
        <ele>732.8</ele>
        <time>2022-08-29T08:54:24Z</time>
      </trkpt>
      <trkpt lat="42.4381140" lon="-3.0621880">
        <ele>733.0</ele>
        <time>2022-08-29T08:54:25Z</time>
      </trkpt>
      <trkpt lat="42.4381250" lon="-3.0622340">
        <ele>733.2</ele>
        <time>2022-08-29T08:54:26Z</time>
      </trkpt>
      <trkpt lat="42.4381490" lon="-3.0622710">
        <ele>733.4</ele>
        <time>2022-08-29T08:54:27Z</time>
      </trkpt>
      <trkpt lat="42.4381790" lon="-3.0623000">
        <ele>733.6</ele>
        <time>2022-08-29T08:54:28Z</time>
      </trkpt>
      <trkpt lat="42.4382120" lon="-3.0623280">
        <ele>733.4</ele>
        <time>2022-08-29T08:54:29Z</time>
      </trkpt>
      <trkpt lat="42.4382460" lon="-3.0623570">
        <ele>733.8</ele>
        <time>2022-08-29T08:54:30Z</time>
      </trkpt>
      <trkpt lat="42.4382790" lon="-3.0623870">
        <ele>733.8</ele>
        <time>2022-08-29T08:54:31Z</time>
      </trkpt>
      <trkpt lat="42.4383160" lon="-3.0624170">
        <ele>733.8</ele>
        <time>2022-08-29T08:54:32Z</time>
      </trkpt>
      <trkpt lat="42.4383530" lon="-3.0624470">
        <ele>733.8</ele>
        <time>2022-08-29T08:54:33Z</time>
      </trkpt>
      <trkpt lat="42.4383900" lon="-3.0624800">
        <ele>733.8</ele>
        <time>2022-08-29T08:54:34Z</time>
      </trkpt>
      <trkpt lat="42.4384270" lon="-3.0625140">
        <ele>733.8</ele>
        <time>2022-08-29T08:54:35Z</time>
      </trkpt>
      <trkpt lat="42.4384630" lon="-3.0625500">
        <ele>734.0</ele>
        <time>2022-08-29T08:54:36Z</time>
      </trkpt>
      <trkpt lat="42.4385000" lon="-3.0625880">
        <ele>734.0</ele>
        <time>2022-08-29T08:54:37Z</time>
      </trkpt>
      <trkpt lat="42.4385350" lon="-3.0626230">
        <ele>733.8</ele>
        <time>2022-08-29T08:54:38Z</time>
      </trkpt>
      <trkpt lat="42.4385680" lon="-3.0626520">
        <ele>733.8</ele>
        <time>2022-08-29T08:54:39Z</time>
      </trkpt>
      <trkpt lat="42.4385970" lon="-3.0626780">
        <ele>733.8</ele>
        <time>2022-08-29T08:54:40Z</time>
      </trkpt>
      <trkpt lat="42.4386260" lon="-3.0627040">
        <ele>733.8</ele>
        <time>2022-08-29T08:54:41Z</time>
      </trkpt>
      <trkpt lat="42.4386500" lon="-3.0627230">
        <ele>733.8</ele>
        <time>2022-08-29T08:54:42Z</time>
      </trkpt>
      <trkpt lat="42.4386720" lon="-3.0627380">
        <ele>733.8</ele>
        <time>2022-08-29T08:54:43Z</time>
      </trkpt>
      <trkpt lat="42.4386890" lon="-3.0627520">
        <ele>733.8</ele>
        <time>2022-08-29T08:54:44Z</time>
      </trkpt>
      <trkpt lat="42.4387030" lon="-3.0627600">
        <ele>733.8</ele>
        <time>2022-08-29T08:54:45Z</time>
      </trkpt>
      <trkpt lat="42.4387130" lon="-3.0627630">
        <ele>733.6</ele>
        <time>2022-08-29T08:54:46Z</time>
      </trkpt>
      <trkpt lat="42.4387190" lon="-3.0627680">
        <ele>733.6</ele>
        <time>2022-08-29T08:54:47Z</time>
      </trkpt>
      <trkpt lat="42.4387200" lon="-3.0627710">
        <ele>733.6</ele>
        <time>2022-08-29T08:54:48Z</time>
      </trkpt>
      <trkpt lat="42.4387210" lon="-3.0627710">
        <ele>733.4</ele>
        <time>2022-08-29T08:54:49Z</time>
      </trkpt>
      <trkpt lat="42.4387210" lon="-3.0627700">
        <ele>733.6</ele>
        <time>2022-08-29T08:54:50Z</time>
      </trkpt>
      <trkpt lat="42.4387210" lon="-3.0627700">
        <ele>733.6</ele>
        <time>2022-08-29T08:54:51Z</time>
      </trkpt>
      <trkpt lat="42.4387200" lon="-3.0627710">
        <ele>733.4</ele>
        <time>2022-08-29T08:54:52Z</time>
      </trkpt>
      <trkpt lat="42.4387190" lon="-3.0627720">
        <ele>733.4</ele>
        <time>2022-08-29T08:54:53Z</time>
      </trkpt>
      <trkpt lat="42.4387190" lon="-3.0627720">
        <ele>733.4</ele>
        <time>2022-08-29T08:54:54Z</time>
      </trkpt>
      <trkpt lat="42.4387190" lon="-3.0627720">
        <ele>733.4</ele>
        <time>2022-08-29T08:54:55Z</time>
      </trkpt>
      <trkpt lat="42.4387180" lon="-3.0627730">
        <ele>733.6</ele>
        <time>2022-08-29T08:54:56Z</time>
      </trkpt>
      <trkpt lat="42.4387180" lon="-3.0627730">
        <ele>733.6</ele>
        <time>2022-08-29T08:54:57Z</time>
      </trkpt>
      <trkpt lat="42.4387180" lon="-3.0627720">
        <ele>733.6</ele>
        <time>2022-08-29T08:54:58Z</time>
      </trkpt>
      <trkpt lat="42.4387180" lon="-3.0627720">
        <ele>733.6</ele>
        <time>2022-08-29T08:54:59Z</time>
      </trkpt>
      <trkpt lat="42.4387180" lon="-3.0627720">
        <ele>733.6</ele>
        <time>2022-08-29T08:55:00Z</time>
      </trkpt>
      <trkpt lat="42.4387190" lon="-3.0627720">
        <ele>733.6</ele>
        <time>2022-08-29T08:55:01Z</time>
      </trkpt>
      <trkpt lat="42.4387250" lon="-3.0627720">
        <ele>733.6</ele>
        <time>2022-08-29T08:55:02Z</time>
      </trkpt>
      <trkpt lat="42.4387360" lon="-3.0627840">
        <ele>733.6</ele>
        <time>2022-08-29T08:55:03Z</time>
      </trkpt>
      <trkpt lat="42.4387460" lon="-3.0627990">
        <ele>733.6</ele>
        <time>2022-08-29T08:55:04Z</time>
      </trkpt>
      <trkpt lat="42.4387590" lon="-3.0628150">
        <ele>733.6</ele>
        <time>2022-08-29T08:55:05Z</time>
      </trkpt>
      <trkpt lat="42.4387710" lon="-3.0628370">
        <ele>733.6</ele>
        <time>2022-08-29T08:55:06Z</time>
      </trkpt>
      <trkpt lat="42.4387820" lon="-3.0628630">
        <ele>733.6</ele>
        <time>2022-08-29T08:55:07Z</time>
      </trkpt>
      <trkpt lat="42.4387920" lon="-3.0628900">
        <ele>733.6</ele>
        <time>2022-08-29T08:55:08Z</time>
      </trkpt>
      <trkpt lat="42.4388010" lon="-3.0629180">
        <ele>733.6</ele>
        <time>2022-08-29T08:55:09Z</time>
      </trkpt>
      <trkpt lat="42.4388100" lon="-3.0629470">
        <ele>733.6</ele>
        <time>2022-08-29T08:55:10Z</time>
      </trkpt>
      <trkpt lat="42.4388210" lon="-3.0629730">
        <ele>733.6</ele>
        <time>2022-08-29T08:55:11Z</time>
      </trkpt>
      <trkpt lat="42.4388320" lon="-3.0630030">
        <ele>733.4</ele>
        <time>2022-08-29T08:55:12Z</time>
      </trkpt>
      <trkpt lat="42.4388410" lon="-3.0630400">
        <ele>733.4</ele>
        <time>2022-08-29T08:55:13Z</time>
      </trkpt>
      <trkpt lat="42.4388420" lon="-3.0630760">
        <ele>733.4</ele>
        <time>2022-08-29T08:55:14Z</time>
      </trkpt>
      <trkpt lat="42.4388350" lon="-3.0631070">
        <ele>733.4</ele>
        <time>2022-08-29T08:55:15Z</time>
      </trkpt>
      <trkpt lat="42.4388220" lon="-3.0631350">
        <ele>733.4</ele>
        <time>2022-08-29T08:55:16Z</time>
      </trkpt>
      <trkpt lat="42.4388090" lon="-3.0631620">
        <ele>733.2</ele>
        <time>2022-08-29T08:55:17Z</time>
      </trkpt>
      <trkpt lat="42.4387990" lon="-3.0631870">
        <ele>733.4</ele>
        <time>2022-08-29T08:55:18Z</time>
      </trkpt>
      <trkpt lat="42.4387880" lon="-3.0632060">
        <ele>733.2</ele>
        <time>2022-08-29T08:55:19Z</time>
      </trkpt>
      <trkpt lat="42.4387790" lon="-3.0632150">
        <ele>733.2</ele>
        <time>2022-08-29T08:55:20Z</time>
      </trkpt>
      <trkpt lat="42.4387720" lon="-3.0632170">
        <ele>733.4</ele>
        <time>2022-08-29T08:55:21Z</time>
      </trkpt>
      <trkpt lat="42.4387700" lon="-3.0632170">
        <ele>733.4</ele>
        <time>2022-08-29T08:55:22Z</time>
      </trkpt>
      <trkpt lat="42.4387690" lon="-3.0632150">
        <ele>733.4</ele>
        <time>2022-08-29T08:55:23Z</time>
      </trkpt>
      <trkpt lat="42.4387700" lon="-3.0632130">
        <ele>733.4</ele>
        <time>2022-08-29T08:55:24Z</time>
      </trkpt>
      <trkpt lat="42.4387690" lon="-3.0632120">
        <ele>733.4</ele>
        <time>2022-08-29T08:55:25Z</time>
      </trkpt>
      <trkpt lat="42.4387690" lon="-3.0632120">
        <ele>733.4</ele>
        <time>2022-08-29T08:55:26Z</time>
      </trkpt>
      <trkpt lat="42.4387680" lon="-3.0632110">
        <ele>733.4</ele>
        <time>2022-08-29T08:55:27Z</time>
      </trkpt>
      <trkpt lat="42.4387680" lon="-3.0632110">
        <ele>733.4</ele>
        <time>2022-08-29T08:55:28Z</time>
      </trkpt>
      <trkpt lat="42.4387680" lon="-3.0632110">
        <ele>733.4</ele>
        <time>2022-08-29T08:55:29Z</time>
      </trkpt>
      <trkpt lat="42.4387680" lon="-3.0632110">
        <ele>733.6</ele>
        <time>2022-08-29T08:55:30Z</time>
      </trkpt>
      <trkpt lat="42.4387690" lon="-3.0632110">
        <ele>733.8</ele>
        <time>2022-08-29T08:55:31Z</time>
      </trkpt>
      <trkpt lat="42.4387690" lon="-3.0632100">
        <ele>733.6</ele>
        <time>2022-08-29T08:55:32Z</time>
      </trkpt>
      <trkpt lat="42.4387690" lon="-3.0632100">
        <ele>733.6</ele>
        <time>2022-08-29T08:55:33Z</time>
      </trkpt>
      <trkpt lat="42.4387690" lon="-3.0632090">
        <ele>733.6</ele>
        <time>2022-08-29T08:55:34Z</time>
      </trkpt>
      <trkpt lat="42.4387680" lon="-3.0632090">
        <ele>733.6</ele>
        <time>2022-08-29T08:55:35Z</time>
      </trkpt>
      <trkpt lat="42.4387690" lon="-3.0632090">
        <ele>733.6</ele>
        <time>2022-08-29T08:55:36Z</time>
      </trkpt>
      <trkpt lat="42.4387690" lon="-3.0632080">
        <ele>733.6</ele>
        <time>2022-08-29T08:55:37Z</time>
      </trkpt>
      <trkpt lat="42.4387670" lon="-3.0632080">
        <ele>733.8</ele>
        <time>2022-08-29T08:55:38Z</time>
      </trkpt>
      <trkpt lat="42.4387640" lon="-3.0632070">
        <ele>733.8</ele>
        <time>2022-08-29T08:55:39Z</time>
      </trkpt>
      <trkpt lat="42.4387610" lon="-3.0632070">
        <ele>733.8</ele>
        <time>2022-08-29T08:55:40Z</time>
      </trkpt>
      <trkpt lat="42.4387600" lon="-3.0632060">
        <ele>733.8</ele>
        <time>2022-08-29T08:55:41Z</time>
      </trkpt>
      <trkpt lat="42.4387630" lon="-3.0632040">
        <ele>733.8</ele>
        <time>2022-08-29T08:55:42Z</time>
      </trkpt>
      <trkpt lat="42.4387640" lon="-3.0632030">
        <ele>733.8</ele>
        <time>2022-08-29T08:55:43Z</time>
      </trkpt>
      <trkpt lat="42.4387650" lon="-3.0632030">
        <ele>733.8</ele>
        <time>2022-08-29T08:55:44Z</time>
      </trkpt>
      <trkpt lat="42.4387650" lon="-3.0632030">
        <ele>733.8</ele>
        <time>2022-08-29T08:55:45Z</time>
      </trkpt>
      <trkpt lat="42.4387670" lon="-3.0632040">
        <ele>733.8</ele>
        <time>2022-08-29T08:55:46Z</time>
      </trkpt>
      <trkpt lat="42.4387680" lon="-3.0632020">
        <ele>733.8</ele>
        <time>2022-08-29T08:55:47Z</time>
      </trkpt>
      <trkpt lat="42.4387690" lon="-3.0632010">
        <ele>733.8</ele>
        <time>2022-08-29T08:55:48Z</time>
      </trkpt>
      <trkpt lat="42.4387700" lon="-3.0632000">
        <ele>733.8</ele>
        <time>2022-08-29T08:55:49Z</time>
      </trkpt>
      <trkpt lat="42.4387700" lon="-3.0632020">
        <ele>733.8</ele>
        <time>2022-08-29T08:55:50Z</time>
      </trkpt>
      <trkpt lat="42.4387700" lon="-3.0632040">
        <ele>733.8</ele>
        <time>2022-08-29T08:55:51Z</time>
      </trkpt>
      <trkpt lat="42.4387700" lon="-3.0632040">
        <ele>733.8</ele>
        <time>2022-08-29T08:55:52Z</time>
      </trkpt>
      <trkpt lat="42.4387700" lon="-3.0632030">
        <ele>733.8</ele>
        <time>2022-08-29T08:55:53Z</time>
      </trkpt>
      <trkpt lat="42.4387700" lon="-3.0632030">
        <ele>733.8</ele>
        <time>2022-08-29T08:55:54Z</time>
      </trkpt>
      <trkpt lat="42.4387700" lon="-3.0632030">
        <ele>733.8</ele>
        <time>2022-08-29T08:55:55Z</time>
      </trkpt>
      <trkpt lat="42.4387700" lon="-3.0632030">
        <ele>733.8</ele>
        <time>2022-08-29T08:55:56Z</time>
      </trkpt>
      <trkpt lat="42.4387690" lon="-3.0632040">
        <ele>733.8</ele>
        <time>2022-08-29T08:55:57Z</time>
      </trkpt>
      <trkpt lat="42.4387710" lon="-3.0632040">
        <ele>733.8</ele>
        <time>2022-08-29T08:55:58Z</time>
      </trkpt>
      <trkpt lat="42.4387720" lon="-3.0632040">
        <ele>733.8</ele>
        <time>2022-08-29T08:55:59Z</time>
      </trkpt>
      <trkpt lat="42.4387740" lon="-3.0632010">
        <ele>733.6</ele>
        <time>2022-08-29T08:56:00Z</time>
      </trkpt>
      <trkpt lat="42.4387740" lon="-3.0632020">
        <ele>733.6</ele>
        <time>2022-08-29T08:56:01Z</time>
      </trkpt>
      <trkpt lat="42.4387740" lon="-3.0632110">
        <ele>733.6</ele>
        <time>2022-08-29T08:56:02Z</time>
      </trkpt>
      <trkpt lat="42.4387750" lon="-3.0632280">
        <ele>733.6</ele>
        <time>2022-08-29T08:56:03Z</time>
      </trkpt>
      <trkpt lat="42.4387710" lon="-3.0632480">
        <ele>733.6</ele>
        <time>2022-08-29T08:56:04Z</time>
      </trkpt>
      <trkpt lat="42.4387720" lon="-3.0632690">
        <ele>733.8</ele>
        <time>2022-08-29T08:56:05Z</time>
      </trkpt>
      <trkpt lat="42.4387770" lon="-3.0632950">
        <ele>733.6</ele>
        <time>2022-08-29T08:56:06Z</time>
      </trkpt>
      <trkpt lat="42.4387820" lon="-3.0633260">
        <ele>733.6</ele>
        <time>2022-08-29T08:56:07Z</time>
      </trkpt>
      <trkpt lat="42.4387840" lon="-3.0633590">
        <ele>733.4</ele>
        <time>2022-08-29T08:56:08Z</time>
      </trkpt>
      <trkpt lat="42.4387860" lon="-3.0633930">
        <ele>733.6</ele>
        <time>2022-08-29T08:56:09Z</time>
      </trkpt>
      <trkpt lat="42.4387790" lon="-3.0634320">
        <ele>733.6</ele>
        <time>2022-08-29T08:56:10Z</time>
      </trkpt>
      <trkpt lat="42.4387640" lon="-3.0634810">
        <ele>733.6</ele>
        <time>2022-08-29T08:56:11Z</time>
      </trkpt>
      <trkpt lat="42.4387460" lon="-3.0635350">
        <ele>733.4</ele>
        <time>2022-08-29T08:56:12Z</time>
      </trkpt>
      <trkpt lat="42.4387320" lon="-3.0635890">
        <ele>733.6</ele>
        <time>2022-08-29T08:56:13Z</time>
      </trkpt>
      <trkpt lat="42.4387110" lon="-3.0636460">
        <ele>733.6</ele>
        <time>2022-08-29T08:56:14Z</time>
      </trkpt>
      <trkpt lat="42.4386920" lon="-3.0637010">
        <ele>733.6</ele>
        <time>2022-08-29T08:56:15Z</time>
      </trkpt>
      <trkpt lat="42.4386840" lon="-3.0637630">
        <ele>733.6</ele>
        <time>2022-08-29T08:56:16Z</time>
      </trkpt>
      <trkpt lat="42.4386640" lon="-3.0638170">
        <ele>733.4</ele>
        <time>2022-08-29T08:56:17Z</time>
      </trkpt>
      <trkpt lat="42.4386340" lon="-3.0638810">
        <ele>733.4</ele>
        <time>2022-08-29T08:56:18Z</time>
      </trkpt>
      <trkpt lat="42.4386120" lon="-3.0639350">
        <ele>733.6</ele>
        <time>2022-08-29T08:56:19Z</time>
      </trkpt>
      <trkpt lat="42.4385950" lon="-3.0639910">
        <ele>733.6</ele>
        <time>2022-08-29T08:56:20Z</time>
      </trkpt>
      <trkpt lat="42.4385750" lon="-3.0640530">
        <ele>733.6</ele>
        <time>2022-08-29T08:56:21Z</time>
      </trkpt>
      <trkpt lat="42.4385560" lon="-3.0641140">
        <ele>733.8</ele>
        <time>2022-08-29T08:56:22Z</time>
      </trkpt>
      <trkpt lat="42.4385350" lon="-3.0641740">
        <ele>733.8</ele>
        <time>2022-08-29T08:56:23Z</time>
      </trkpt>
      <trkpt lat="42.4385170" lon="-3.0642310">
        <ele>734.0</ele>
        <time>2022-08-29T08:56:24Z</time>
      </trkpt>
      <trkpt lat="42.4385020" lon="-3.0642850">
        <ele>733.8</ele>
        <time>2022-08-29T08:56:25Z</time>
      </trkpt>
      <trkpt lat="42.4384870" lon="-3.0643400">
        <ele>733.8</ele>
        <time>2022-08-29T08:56:26Z</time>
      </trkpt>
      <trkpt lat="42.4384760" lon="-3.0643910">
        <ele>733.8</ele>
        <time>2022-08-29T08:56:27Z</time>
      </trkpt>
      <trkpt lat="42.4384600" lon="-3.0644420">
        <ele>734.0</ele>
        <time>2022-08-29T08:56:28Z</time>
      </trkpt>
      <trkpt lat="42.4384460" lon="-3.0644910">
        <ele>734.2</ele>
        <time>2022-08-29T08:56:29Z</time>
      </trkpt>
      <trkpt lat="42.4384290" lon="-3.0645320">
        <ele>734.4</ele>
        <time>2022-08-29T08:56:30Z</time>
      </trkpt>
      <trkpt lat="42.4384140" lon="-3.0645770">
        <ele>734.4</ele>
        <time>2022-08-29T08:56:31Z</time>
      </trkpt>
      <trkpt lat="42.4384010" lon="-3.0646150">
        <ele>734.4</ele>
        <time>2022-08-29T08:56:32Z</time>
      </trkpt>
      <trkpt lat="42.4383830" lon="-3.0646480">
        <ele>734.4</ele>
        <time>2022-08-29T08:56:33Z</time>
      </trkpt>
      <trkpt lat="42.4383640" lon="-3.0646850">
        <ele>734.6</ele>
        <time>2022-08-29T08:56:34Z</time>
      </trkpt>
      <trkpt lat="42.4383470" lon="-3.0647260">
        <ele>734.8</ele>
        <time>2022-08-29T08:56:35Z</time>
      </trkpt>
      <trkpt lat="42.4383310" lon="-3.0647700">
        <ele>734.6</ele>
        <time>2022-08-29T08:56:36Z</time>
      </trkpt>
      <trkpt lat="42.4383140" lon="-3.0648140">
        <ele>734.6</ele>
        <time>2022-08-29T08:56:37Z</time>
      </trkpt>
      <trkpt lat="42.4383000" lon="-3.0648620">
        <ele>734.8</ele>
        <time>2022-08-29T08:56:38Z</time>
      </trkpt>
      <trkpt lat="42.4382840" lon="-3.0649080">
        <ele>735.0</ele>
        <time>2022-08-29T08:56:39Z</time>
      </trkpt>
      <trkpt lat="42.4382690" lon="-3.0649560">
        <ele>735.2</ele>
        <time>2022-08-29T08:56:40Z</time>
      </trkpt>
      <trkpt lat="42.4382560" lon="-3.0650050">
        <ele>735.2</ele>
        <time>2022-08-29T08:56:41Z</time>
      </trkpt>
      <trkpt lat="42.4382400" lon="-3.0650560">
        <ele>735.2</ele>
        <time>2022-08-29T08:56:42Z</time>
      </trkpt>
      <trkpt lat="42.4382210" lon="-3.0651060">
        <ele>735.4</ele>
        <time>2022-08-29T08:56:43Z</time>
      </trkpt>
      <trkpt lat="42.4382040" lon="-3.0651520">
        <ele>735.8</ele>
        <time>2022-08-29T08:56:44Z</time>
      </trkpt>
      <trkpt lat="42.4381840" lon="-3.0651950">
        <ele>736.0</ele>
        <time>2022-08-29T08:56:45Z</time>
      </trkpt>
      <trkpt lat="42.4381660" lon="-3.0652380">
        <ele>736.2</ele>
        <time>2022-08-29T08:56:46Z</time>
      </trkpt>
      <trkpt lat="42.4381480" lon="-3.0652840">
        <ele>736.2</ele>
        <time>2022-08-29T08:56:47Z</time>
      </trkpt>
      <trkpt lat="42.4381300" lon="-3.0653250">
        <ele>736.4</ele>
        <time>2022-08-29T08:56:48Z</time>
      </trkpt>
      <trkpt lat="42.4381150" lon="-3.0653670">
        <ele>736.4</ele>
        <time>2022-08-29T08:56:49Z</time>
      </trkpt>
      <trkpt lat="42.4380960" lon="-3.0654150">
        <ele>736.4</ele>
        <time>2022-08-29T08:56:50Z</time>
      </trkpt>
      <trkpt lat="42.4380800" lon="-3.0654660">
        <ele>736.6</ele>
        <time>2022-08-29T08:56:51Z</time>
      </trkpt>
      <trkpt lat="42.4380570" lon="-3.0655110">
        <ele>736.8</ele>
        <time>2022-08-29T08:56:52Z</time>
      </trkpt>
      <trkpt lat="42.4380380" lon="-3.0655620">
        <ele>736.6</ele>
        <time>2022-08-29T08:56:53Z</time>
      </trkpt>
      <trkpt lat="42.4380280" lon="-3.0656200">
        <ele>736.8</ele>
        <time>2022-08-29T08:56:54Z</time>
      </trkpt>
      <trkpt lat="42.4380090" lon="-3.0656830">
        <ele>737.0</ele>
        <time>2022-08-29T08:56:55Z</time>
      </trkpt>
      <trkpt lat="42.4379920" lon="-3.0657380">
        <ele>737.0</ele>
        <time>2022-08-29T08:56:56Z</time>
      </trkpt>
      <trkpt lat="42.4379770" lon="-3.0657990">
        <ele>737.0</ele>
        <time>2022-08-29T08:56:57Z</time>
      </trkpt>
      <trkpt lat="42.4379610" lon="-3.0658550">
        <ele>737.0</ele>
        <time>2022-08-29T08:56:58Z</time>
      </trkpt>
      <trkpt lat="42.4379460" lon="-3.0659070">
        <ele>737.2</ele>
        <time>2022-08-29T08:56:59Z</time>
      </trkpt>
      <trkpt lat="42.4379280" lon="-3.0659610">
        <ele>737.2</ele>
        <time>2022-08-29T08:57:00Z</time>
      </trkpt>
      <trkpt lat="42.4379120" lon="-3.0660140">
        <ele>737.2</ele>
        <time>2022-08-29T08:57:01Z</time>
      </trkpt>
      <trkpt lat="42.4378960" lon="-3.0660630">
        <ele>737.4</ele>
        <time>2022-08-29T08:57:02Z</time>
      </trkpt>
      <trkpt lat="42.4378810" lon="-3.0661110">
        <ele>737.6</ele>
        <time>2022-08-29T08:57:03Z</time>
      </trkpt>
      <trkpt lat="42.4378700" lon="-3.0661620">
        <ele>737.6</ele>
        <time>2022-08-29T08:57:04Z</time>
      </trkpt>
      <trkpt lat="42.4378590" lon="-3.0662120">
        <ele>737.6</ele>
        <time>2022-08-29T08:57:05Z</time>
      </trkpt>
      <trkpt lat="42.4378460" lon="-3.0662620">
        <ele>737.6</ele>
        <time>2022-08-29T08:57:06Z</time>
      </trkpt>
      <trkpt lat="42.4378310" lon="-3.0663150">
        <ele>737.8</ele>
        <time>2022-08-29T08:57:07Z</time>
      </trkpt>
      <trkpt lat="42.4378160" lon="-3.0663650">
        <ele>737.8</ele>
        <time>2022-08-29T08:57:08Z</time>
      </trkpt>
      <trkpt lat="42.4378010" lon="-3.0664170">
        <ele>737.8</ele>
        <time>2022-08-29T08:57:09Z</time>
      </trkpt>
      <trkpt lat="42.4377990" lon="-3.0664790">
        <ele>737.8</ele>
        <time>2022-08-29T08:57:10Z</time>
      </trkpt>
      <trkpt lat="42.4377900" lon="-3.0665320">
        <ele>738.0</ele>
        <time>2022-08-29T08:57:11Z</time>
      </trkpt>
      <trkpt lat="42.4377780" lon="-3.0665850">
        <ele>738.0</ele>
        <time>2022-08-29T08:57:12Z</time>
      </trkpt>
      <trkpt lat="42.4377610" lon="-3.0666370">
        <ele>738.0</ele>
        <time>2022-08-29T08:57:13Z</time>
      </trkpt>
      <trkpt lat="42.4377420" lon="-3.0666860">
        <ele>738.0</ele>
        <time>2022-08-29T08:57:14Z</time>
      </trkpt>
      <trkpt lat="42.4377250" lon="-3.0667330">
        <ele>738.0</ele>
        <time>2022-08-29T08:57:15Z</time>
      </trkpt>
      <trkpt lat="42.4377070" lon="-3.0667810">
        <ele>738.2</ele>
        <time>2022-08-29T08:57:16Z</time>
      </trkpt>
      <trkpt lat="42.4376900" lon="-3.0668290">
        <ele>738.4</ele>
        <time>2022-08-29T08:57:17Z</time>
      </trkpt>
      <trkpt lat="42.4376740" lon="-3.0668790">
        <ele>738.2</ele>
        <time>2022-08-29T08:57:18Z</time>
      </trkpt>
      <trkpt lat="42.4376580" lon="-3.0669300">
        <ele>738.2</ele>
        <time>2022-08-29T08:57:19Z</time>
      </trkpt>
      <trkpt lat="42.4376430" lon="-3.0669820">
        <ele>738.4</ele>
        <time>2022-08-29T08:57:20Z</time>
      </trkpt>
      <trkpt lat="42.4376280" lon="-3.0670330">
        <ele>738.4</ele>
        <time>2022-08-29T08:57:21Z</time>
      </trkpt>
      <trkpt lat="42.4376180" lon="-3.0670890">
        <ele>738.6</ele>
        <time>2022-08-29T08:57:22Z</time>
      </trkpt>
      <trkpt lat="42.4376110" lon="-3.0671450">
        <ele>738.8</ele>
        <time>2022-08-29T08:57:23Z</time>
      </trkpt>
      <trkpt lat="42.4376050" lon="-3.0672030">
        <ele>739.0</ele>
        <time>2022-08-29T08:57:24Z</time>
      </trkpt>
      <trkpt lat="42.4375990" lon="-3.0672620">
        <ele>739.0</ele>
        <time>2022-08-29T08:57:25Z</time>
      </trkpt>
      <trkpt lat="42.4375920" lon="-3.0673220">
        <ele>739.0</ele>
        <time>2022-08-29T08:57:26Z</time>
      </trkpt>
      <trkpt lat="42.4375860" lon="-3.0673850">
        <ele>738.8</ele>
        <time>2022-08-29T08:57:27Z</time>
      </trkpt>
      <trkpt lat="42.4375810" lon="-3.0674490">
        <ele>738.8</ele>
        <time>2022-08-29T08:57:28Z</time>
      </trkpt>
      <trkpt lat="42.4375690" lon="-3.0675150">
        <ele>739.0</ele>
        <time>2022-08-29T08:57:29Z</time>
      </trkpt>
      <trkpt lat="42.4375540" lon="-3.0675810">
        <ele>739.0</ele>
        <time>2022-08-29T08:57:30Z</time>
      </trkpt>
      <trkpt lat="42.4375330" lon="-3.0676460">
        <ele>739.0</ele>
        <time>2022-08-29T08:57:31Z</time>
      </trkpt>
      <trkpt lat="42.4375120" lon="-3.0677110">
        <ele>738.8</ele>
        <time>2022-08-29T08:57:32Z</time>
      </trkpt>
      <trkpt lat="42.4374900" lon="-3.0677740">
        <ele>739.0</ele>
        <time>2022-08-29T08:57:33Z</time>
      </trkpt>
      <trkpt lat="42.4374680" lon="-3.0678350">
        <ele>739.0</ele>
        <time>2022-08-29T08:57:34Z</time>
      </trkpt>
      <trkpt lat="42.4374480" lon="-3.0678940">
        <ele>739.0</ele>
        <time>2022-08-29T08:57:35Z</time>
      </trkpt>
      <trkpt lat="42.4374330" lon="-3.0679510">
        <ele>739.0</ele>
        <time>2022-08-29T08:57:36Z</time>
      </trkpt>
      <trkpt lat="42.4374170" lon="-3.0680050">
        <ele>739.0</ele>
        <time>2022-08-29T08:57:37Z</time>
      </trkpt>
      <trkpt lat="42.4374020" lon="-3.0680580">
        <ele>738.8</ele>
        <time>2022-08-29T08:57:38Z</time>
      </trkpt>
      <trkpt lat="42.4373890" lon="-3.0681100">
        <ele>739.0</ele>
        <time>2022-08-29T08:57:39Z</time>
      </trkpt>
      <trkpt lat="42.4373750" lon="-3.0681590">
        <ele>739.0</ele>
        <time>2022-08-29T08:57:40Z</time>
      </trkpt>
      <trkpt lat="42.4373600" lon="-3.0682050">
        <ele>739.0</ele>
        <time>2022-08-29T08:57:41Z</time>
      </trkpt>
      <trkpt lat="42.4373460" lon="-3.0682490">
        <ele>739.0</ele>
        <time>2022-08-29T08:57:42Z</time>
      </trkpt>
      <trkpt lat="42.4373320" lon="-3.0682910">
        <ele>739.0</ele>
        <time>2022-08-29T08:57:43Z</time>
      </trkpt>
      <trkpt lat="42.4373180" lon="-3.0683330">
        <ele>739.0</ele>
        <time>2022-08-29T08:57:44Z</time>
      </trkpt>
      <trkpt lat="42.4373090" lon="-3.0683750">
        <ele>739.2</ele>
        <time>2022-08-29T08:57:45Z</time>
      </trkpt>
      <trkpt lat="42.4373050" lon="-3.0684170">
        <ele>739.6</ele>
        <time>2022-08-29T08:57:46Z</time>
      </trkpt>
      <trkpt lat="42.4373030" lon="-3.0684600">
        <ele>739.8</ele>
        <time>2022-08-29T08:57:47Z</time>
      </trkpt>
      <trkpt lat="42.4373030" lon="-3.0685010">
        <ele>739.8</ele>
        <time>2022-08-29T08:57:48Z</time>
      </trkpt>
      <trkpt lat="42.4373030" lon="-3.0685460">
        <ele>739.8</ele>
        <time>2022-08-29T08:57:49Z</time>
      </trkpt>
      <trkpt lat="42.4373010" lon="-3.0685910">
        <ele>740.0</ele>
        <time>2022-08-29T08:57:50Z</time>
      </trkpt>
      <trkpt lat="42.4372980" lon="-3.0686340">
        <ele>740.4</ele>
        <time>2022-08-29T08:57:51Z</time>
      </trkpt>
      <trkpt lat="42.4372940" lon="-3.0686720">
        <ele>740.6</ele>
        <time>2022-08-29T08:57:52Z</time>
      </trkpt>
      <trkpt lat="42.4372880" lon="-3.0687030">
        <ele>740.8</ele>
        <time>2022-08-29T08:57:53Z</time>
      </trkpt>
      <trkpt lat="42.4372730" lon="-3.0687300">
        <ele>740.8</ele>
        <time>2022-08-29T08:57:54Z</time>
      </trkpt>
      <trkpt lat="42.4372550" lon="-3.0687580">
        <ele>741.0</ele>
        <time>2022-08-29T08:57:55Z</time>
      </trkpt>
      <trkpt lat="42.4372400" lon="-3.0687900">
        <ele>741.0</ele>
        <time>2022-08-29T08:57:56Z</time>
      </trkpt>
      <trkpt lat="42.4372300" lon="-3.0688260">
        <ele>741.2</ele>
        <time>2022-08-29T08:57:57Z</time>
      </trkpt>
      <trkpt lat="42.4372250" lon="-3.0688580">
        <ele>741.4</ele>
        <time>2022-08-29T08:57:58Z</time>
      </trkpt>
      <trkpt lat="42.4372200" lon="-3.0688930">
        <ele>741.4</ele>
        <time>2022-08-29T08:57:59Z</time>
      </trkpt>
      <trkpt lat="42.4372140" lon="-3.0689310">
        <ele>741.4</ele>
        <time>2022-08-29T08:58:00Z</time>
      </trkpt>
      <trkpt lat="42.4372050" lon="-3.0689720">
        <ele>741.4</ele>
        <time>2022-08-29T08:58:01Z</time>
      </trkpt>
      <trkpt lat="42.4371950" lon="-3.0690150">
        <ele>741.4</ele>
        <time>2022-08-29T08:58:02Z</time>
      </trkpt>
      <trkpt lat="42.4371870" lon="-3.0690630">
        <ele>741.4</ele>
        <time>2022-08-29T08:58:03Z</time>
      </trkpt>
      <trkpt lat="42.4371820" lon="-3.0691160">
        <ele>741.4</ele>
        <time>2022-08-29T08:58:04Z</time>
      </trkpt>
      <trkpt lat="42.4371780" lon="-3.0691760">
        <ele>741.4</ele>
        <time>2022-08-29T08:58:05Z</time>
      </trkpt>
      <trkpt lat="42.4371740" lon="-3.0692410">
        <ele>741.6</ele>
        <time>2022-08-29T08:58:06Z</time>
      </trkpt>
      <trkpt lat="42.4371670" lon="-3.0693070">
        <ele>741.4</ele>
        <time>2022-08-29T08:58:07Z</time>
      </trkpt>
      <trkpt lat="42.4371600" lon="-3.0693760">
        <ele>741.4</ele>
        <time>2022-08-29T08:58:08Z</time>
      </trkpt>
      <trkpt lat="42.4371530" lon="-3.0694510">
        <ele>741.4</ele>
        <time>2022-08-29T08:58:09Z</time>
      </trkpt>
      <trkpt lat="42.4371500" lon="-3.0695290">
        <ele>741.2</ele>
        <time>2022-08-29T08:58:10Z</time>
      </trkpt>
      <trkpt lat="42.4371480" lon="-3.0696120">
        <ele>741.4</ele>
        <time>2022-08-29T08:58:11Z</time>
      </trkpt>
      <trkpt lat="42.4371550" lon="-3.0696940">
        <ele>741.4</ele>
        <time>2022-08-29T08:58:12Z</time>
      </trkpt>
      <trkpt lat="42.4371630" lon="-3.0697700">
        <ele>741.4</ele>
        <time>2022-08-29T08:58:13Z</time>
      </trkpt>
      <trkpt lat="42.4371720" lon="-3.0698340">
        <ele>741.4</ele>
        <time>2022-08-29T08:58:14Z</time>
      </trkpt>
      <trkpt lat="42.4371770" lon="-3.0698890">
        <ele>741.2</ele>
        <time>2022-08-29T08:58:15Z</time>
      </trkpt>
      <trkpt lat="42.4371780" lon="-3.0699370">
        <ele>741.4</ele>
        <time>2022-08-29T08:58:16Z</time>
      </trkpt>
      <trkpt lat="42.4371810" lon="-3.0699810">
        <ele>741.4</ele>
        <time>2022-08-29T08:58:17Z</time>
      </trkpt>
      <trkpt lat="42.4371850" lon="-3.0700250">
        <ele>741.2</ele>
        <time>2022-08-29T08:58:18Z</time>
      </trkpt>
      <trkpt lat="42.4371860" lon="-3.0700690">
        <ele>741.4</ele>
        <time>2022-08-29T08:58:19Z</time>
      </trkpt>
      <trkpt lat="42.4371870" lon="-3.0701140">
        <ele>741.2</ele>
        <time>2022-08-29T08:58:20Z</time>
      </trkpt>
      <trkpt lat="42.4371860" lon="-3.0701580">
        <ele>741.4</ele>
        <time>2022-08-29T08:58:21Z</time>
      </trkpt>
      <trkpt lat="42.4371850" lon="-3.0702020">
        <ele>741.2</ele>
        <time>2022-08-29T08:58:22Z</time>
      </trkpt>
      <trkpt lat="42.4371850" lon="-3.0702430">
        <ele>741.2</ele>
        <time>2022-08-29T08:58:23Z</time>
      </trkpt>
      <trkpt lat="42.4371850" lon="-3.0702820">
        <ele>741.8</ele>
        <time>2022-08-29T08:58:24Z</time>
      </trkpt>
      <trkpt lat="42.4371870" lon="-3.0703220">
        <ele>742.2</ele>
        <time>2022-08-29T08:58:25Z</time>
      </trkpt>
      <trkpt lat="42.4371870" lon="-3.0703620">
        <ele>742.8</ele>
        <time>2022-08-29T08:58:26Z</time>
      </trkpt>
      <trkpt lat="42.4371870" lon="-3.0704020">
        <ele>743.4</ele>
        <time>2022-08-29T08:58:27Z</time>
      </trkpt>
      <trkpt lat="42.4371870" lon="-3.0704420">
        <ele>743.6</ele>
        <time>2022-08-29T08:58:28Z</time>
      </trkpt>
      <trkpt lat="42.4371870" lon="-3.0704830">
        <ele>743.8</ele>
        <time>2022-08-29T08:58:29Z</time>
      </trkpt>
      <trkpt lat="42.4371860" lon="-3.0705230">
        <ele>744.0</ele>
        <time>2022-08-29T08:58:30Z</time>
      </trkpt>
      <trkpt lat="42.4371840" lon="-3.0705640">
        <ele>744.2</ele>
        <time>2022-08-29T08:58:31Z</time>
      </trkpt>
      <trkpt lat="42.4371820" lon="-3.0706070">
        <ele>744.2</ele>
        <time>2022-08-29T08:58:32Z</time>
      </trkpt>
      <trkpt lat="42.4371830" lon="-3.0706490">
        <ele>744.2</ele>
        <time>2022-08-29T08:58:33Z</time>
      </trkpt>
      <trkpt lat="42.4371850" lon="-3.0706920">
        <ele>744.4</ele>
        <time>2022-08-29T08:58:34Z</time>
      </trkpt>
      <trkpt lat="42.4371870" lon="-3.0707340">
        <ele>744.8</ele>
        <time>2022-08-29T08:58:35Z</time>
      </trkpt>
      <trkpt lat="42.4371870" lon="-3.0707750">
        <ele>745.0</ele>
        <time>2022-08-29T08:58:36Z</time>
      </trkpt>
      <trkpt lat="42.4371860" lon="-3.0708170">
        <ele>745.0</ele>
        <time>2022-08-29T08:58:37Z</time>
      </trkpt>
      <trkpt lat="42.4371850" lon="-3.0708590">
        <ele>745.2</ele>
        <time>2022-08-29T08:58:38Z</time>
      </trkpt>
      <trkpt lat="42.4371860" lon="-3.0709020">
        <ele>745.2</ele>
        <time>2022-08-29T08:58:39Z</time>
      </trkpt>
      <trkpt lat="42.4371850" lon="-3.0709470">
        <ele>745.4</ele>
        <time>2022-08-29T08:58:40Z</time>
      </trkpt>
      <trkpt lat="42.4371830" lon="-3.0709930">
        <ele>745.4</ele>
        <time>2022-08-29T08:58:41Z</time>
      </trkpt>
      <trkpt lat="42.4371820" lon="-3.0710400">
        <ele>745.4</ele>
        <time>2022-08-29T08:58:42Z</time>
      </trkpt>
      <trkpt lat="42.4371820" lon="-3.0710860">
        <ele>745.6</ele>
        <time>2022-08-29T08:58:43Z</time>
      </trkpt>
      <trkpt lat="42.4371830" lon="-3.0711320">
        <ele>745.6</ele>
        <time>2022-08-29T08:58:44Z</time>
      </trkpt>
      <trkpt lat="42.4371860" lon="-3.0711770">
        <ele>745.6</ele>
        <time>2022-08-29T08:58:45Z</time>
      </trkpt>
      <trkpt lat="42.4371880" lon="-3.0712210">
        <ele>745.8</ele>
        <time>2022-08-29T08:58:46Z</time>
      </trkpt>
      <trkpt lat="42.4371890" lon="-3.0712650">
        <ele>746.0</ele>
        <time>2022-08-29T08:58:47Z</time>
      </trkpt>
      <trkpt lat="42.4371910" lon="-3.0713080">
        <ele>746.0</ele>
        <time>2022-08-29T08:58:48Z</time>
      </trkpt>
      <trkpt lat="42.4371930" lon="-3.0713520">
        <ele>746.2</ele>
        <time>2022-08-29T08:58:49Z</time>
      </trkpt>
      <trkpt lat="42.4371950" lon="-3.0713960">
        <ele>746.2</ele>
        <time>2022-08-29T08:58:50Z</time>
      </trkpt>
      <trkpt lat="42.4371960" lon="-3.0714380">
        <ele>746.4</ele>
        <time>2022-08-29T08:58:51Z</time>
      </trkpt>
      <trkpt lat="42.4371970" lon="-3.0714790">
        <ele>746.6</ele>
        <time>2022-08-29T08:58:52Z</time>
      </trkpt>
      <trkpt lat="42.4371980" lon="-3.0715200">
        <ele>746.6</ele>
        <time>2022-08-29T08:58:53Z</time>
      </trkpt>
      <trkpt lat="42.4371990" lon="-3.0715610">
        <ele>746.6</ele>
        <time>2022-08-29T08:58:54Z</time>
      </trkpt>
      <trkpt lat="42.4372010" lon="-3.0716050">
        <ele>746.8</ele>
        <time>2022-08-29T08:58:55Z</time>
      </trkpt>
      <trkpt lat="42.4372020" lon="-3.0716470">
        <ele>747.0</ele>
        <time>2022-08-29T08:58:56Z</time>
      </trkpt>
      <trkpt lat="42.4372040" lon="-3.0716890">
        <ele>747.2</ele>
        <time>2022-08-29T08:58:57Z</time>
      </trkpt>
      <trkpt lat="42.4372060" lon="-3.0717320">
        <ele>747.4</ele>
        <time>2022-08-29T08:58:58Z</time>
      </trkpt>
      <trkpt lat="42.4372080" lon="-3.0717740">
        <ele>747.4</ele>
        <time>2022-08-29T08:58:59Z</time>
      </trkpt>
      <trkpt lat="42.4372090" lon="-3.0718160">
        <ele>747.4</ele>
        <time>2022-08-29T08:59:00Z</time>
      </trkpt>
      <trkpt lat="42.4372100" lon="-3.0718580">
        <ele>747.6</ele>
        <time>2022-08-29T08:59:01Z</time>
      </trkpt>
      <trkpt lat="42.4372110" lon="-3.0719010">
        <ele>747.8</ele>
        <time>2022-08-29T08:59:02Z</time>
      </trkpt>
      <trkpt lat="42.4372130" lon="-3.0719450">
        <ele>747.8</ele>
        <time>2022-08-29T08:59:03Z</time>
      </trkpt>
      <trkpt lat="42.4372140" lon="-3.0719890">
        <ele>748.0</ele>
        <time>2022-08-29T08:59:04Z</time>
      </trkpt>
      <trkpt lat="42.4372160" lon="-3.0720340">
        <ele>748.2</ele>
        <time>2022-08-29T08:59:05Z</time>
      </trkpt>
      <trkpt lat="42.4372190" lon="-3.0720790">
        <ele>748.2</ele>
        <time>2022-08-29T08:59:06Z</time>
      </trkpt>
      <trkpt lat="42.4372190" lon="-3.0721250">
        <ele>748.4</ele>
        <time>2022-08-29T08:59:07Z</time>
      </trkpt>
      <trkpt lat="42.4372150" lon="-3.0721700">
        <ele>748.6</ele>
        <time>2022-08-29T08:59:08Z</time>
      </trkpt>
      <trkpt lat="42.4372100" lon="-3.0722130">
        <ele>748.6</ele>
        <time>2022-08-29T08:59:09Z</time>
      </trkpt>
      <trkpt lat="42.4372070" lon="-3.0722550">
        <ele>748.8</ele>
        <time>2022-08-29T08:59:10Z</time>
      </trkpt>
      <trkpt lat="42.4372070" lon="-3.0722960">
        <ele>748.8</ele>
        <time>2022-08-29T08:59:11Z</time>
      </trkpt>
      <trkpt lat="42.4372080" lon="-3.0723370">
        <ele>748.8</ele>
        <time>2022-08-29T08:59:12Z</time>
      </trkpt>
      <trkpt lat="42.4372110" lon="-3.0723790">
        <ele>748.8</ele>
        <time>2022-08-29T08:59:13Z</time>
      </trkpt>
      <trkpt lat="42.4372140" lon="-3.0724230">
        <ele>749.0</ele>
        <time>2022-08-29T08:59:14Z</time>
      </trkpt>
      <trkpt lat="42.4372180" lon="-3.0724670">
        <ele>749.2</ele>
        <time>2022-08-29T08:59:15Z</time>
      </trkpt>
      <trkpt lat="42.4372210" lon="-3.0725100">
        <ele>749.2</ele>
        <time>2022-08-29T08:59:16Z</time>
      </trkpt>
      <trkpt lat="42.4372240" lon="-3.0725540">
        <ele>749.4</ele>
        <time>2022-08-29T08:59:17Z</time>
      </trkpt>
      <trkpt lat="42.4372270" lon="-3.0725970">
        <ele>749.6</ele>
        <time>2022-08-29T08:59:18Z</time>
      </trkpt>
      <trkpt lat="42.4372320" lon="-3.0726420">
        <ele>749.8</ele>
        <time>2022-08-29T08:59:19Z</time>
      </trkpt>
      <trkpt lat="42.4372360" lon="-3.0726880">
        <ele>749.8</ele>
        <time>2022-08-29T08:59:20Z</time>
      </trkpt>
      <trkpt lat="42.4372390" lon="-3.0727340">
        <ele>750.0</ele>
        <time>2022-08-29T08:59:21Z</time>
      </trkpt>
      <trkpt lat="42.4372410" lon="-3.0727800">
        <ele>750.2</ele>
        <time>2022-08-29T08:59:22Z</time>
      </trkpt>
      <trkpt lat="42.4372410" lon="-3.0728260">
        <ele>750.2</ele>
        <time>2022-08-29T08:59:23Z</time>
      </trkpt>
      <trkpt lat="42.4372400" lon="-3.0728730">
        <ele>750.2</ele>
        <time>2022-08-29T08:59:24Z</time>
      </trkpt>
      <trkpt lat="42.4372400" lon="-3.0729220">
        <ele>750.4</ele>
        <time>2022-08-29T08:59:25Z</time>
      </trkpt>
      <trkpt lat="42.4372410" lon="-3.0729710">
        <ele>750.6</ele>
        <time>2022-08-29T08:59:26Z</time>
      </trkpt>
      <trkpt lat="42.4372450" lon="-3.0730220">
        <ele>750.6</ele>
        <time>2022-08-29T08:59:27Z</time>
      </trkpt>
      <trkpt lat="42.4372490" lon="-3.0730730">
        <ele>750.6</ele>
        <time>2022-08-29T08:59:28Z</time>
      </trkpt>
      <trkpt lat="42.4372530" lon="-3.0731240">
        <ele>750.8</ele>
        <time>2022-08-29T08:59:29Z</time>
      </trkpt>
      <trkpt lat="42.4372550" lon="-3.0731760">
        <ele>750.8</ele>
        <time>2022-08-29T08:59:30Z</time>
      </trkpt>
      <trkpt lat="42.4372540" lon="-3.0732270">
        <ele>751.0</ele>
        <time>2022-08-29T08:59:31Z</time>
      </trkpt>
      <trkpt lat="42.4372540" lon="-3.0732780">
        <ele>751.0</ele>
        <time>2022-08-29T08:59:32Z</time>
      </trkpt>
      <trkpt lat="42.4372550" lon="-3.0733300">
        <ele>751.2</ele>
        <time>2022-08-29T08:59:33Z</time>
      </trkpt>
      <trkpt lat="42.4372570" lon="-3.0733830">
        <ele>751.4</ele>
        <time>2022-08-29T08:59:34Z</time>
      </trkpt>
      <trkpt lat="42.4372600" lon="-3.0734360">
        <ele>751.6</ele>
        <time>2022-08-29T08:59:35Z</time>
      </trkpt>
      <trkpt lat="42.4372640" lon="-3.0734900">
        <ele>751.6</ele>
        <time>2022-08-29T08:59:36Z</time>
      </trkpt>
      <trkpt lat="42.4372680" lon="-3.0735440">
        <ele>751.6</ele>
        <time>2022-08-29T08:59:37Z</time>
      </trkpt>
      <trkpt lat="42.4372690" lon="-3.0735990">
        <ele>751.8</ele>
        <time>2022-08-29T08:59:38Z</time>
      </trkpt>
      <trkpt lat="42.4372710" lon="-3.0736530">
        <ele>751.6</ele>
        <time>2022-08-29T08:59:39Z</time>
      </trkpt>
      <trkpt lat="42.4372730" lon="-3.0737050">
        <ele>752.0</ele>
        <time>2022-08-29T08:59:40Z</time>
      </trkpt>
      <trkpt lat="42.4372750" lon="-3.0737580">
        <ele>752.2</ele>
        <time>2022-08-29T08:59:41Z</time>
      </trkpt>
      <trkpt lat="42.4372760" lon="-3.0738110">
        <ele>752.2</ele>
        <time>2022-08-29T08:59:42Z</time>
      </trkpt>
      <trkpt lat="42.4372770" lon="-3.0738630">
        <ele>752.4</ele>
        <time>2022-08-29T08:59:43Z</time>
      </trkpt>
      <trkpt lat="42.4372780" lon="-3.0739140">
        <ele>752.4</ele>
        <time>2022-08-29T08:59:44Z</time>
      </trkpt>
      <trkpt lat="42.4372830" lon="-3.0739660">
        <ele>752.4</ele>
        <time>2022-08-29T08:59:45Z</time>
      </trkpt>
      <trkpt lat="42.4372890" lon="-3.0740170">
        <ele>752.4</ele>
        <time>2022-08-29T08:59:46Z</time>
      </trkpt>
      <trkpt lat="42.4372930" lon="-3.0740690">
        <ele>752.4</ele>
        <time>2022-08-29T08:59:47Z</time>
      </trkpt>
      <trkpt lat="42.4372970" lon="-3.0741200">
        <ele>752.6</ele>
        <time>2022-08-29T08:59:48Z</time>
      </trkpt>
      <trkpt lat="42.4373000" lon="-3.0741690">
        <ele>752.4</ele>
        <time>2022-08-29T08:59:49Z</time>
      </trkpt>
      <trkpt lat="42.4373040" lon="-3.0742150">
        <ele>752.6</ele>
        <time>2022-08-29T08:59:50Z</time>
      </trkpt>
      <trkpt lat="42.4373090" lon="-3.0742600">
        <ele>752.8</ele>
        <time>2022-08-29T08:59:51Z</time>
      </trkpt>
      <trkpt lat="42.4373150" lon="-3.0743020">
        <ele>752.6</ele>
        <time>2022-08-29T08:59:52Z</time>
      </trkpt>
      <trkpt lat="42.4373200" lon="-3.0743440">
        <ele>752.8</ele>
        <time>2022-08-29T08:59:53Z</time>
      </trkpt>
      <trkpt lat="42.4373270" lon="-3.0743870">
        <ele>752.8</ele>
        <time>2022-08-29T08:59:54Z</time>
      </trkpt>
      <trkpt lat="42.4373310" lon="-3.0744300">
        <ele>752.8</ele>
        <time>2022-08-29T08:59:55Z</time>
      </trkpt>
      <trkpt lat="42.4373330" lon="-3.0744730">
        <ele>753.0</ele>
        <time>2022-08-29T08:59:56Z</time>
      </trkpt>
      <trkpt lat="42.4373330" lon="-3.0745160">
        <ele>753.0</ele>
        <time>2022-08-29T08:59:57Z</time>
      </trkpt>
      <trkpt lat="42.4373330" lon="-3.0745590">
        <ele>753.0</ele>
        <time>2022-08-29T08:59:58Z</time>
      </trkpt>
      <trkpt lat="42.4373340" lon="-3.0746040">
        <ele>753.2</ele>
        <time>2022-08-29T08:59:59Z</time>
      </trkpt>
      <trkpt lat="42.4373350" lon="-3.0746530">
        <ele>753.2</ele>
        <time>2022-08-29T09:00:00Z</time>
      </trkpt>
      <trkpt lat="42.4373340" lon="-3.0747090">
        <ele>753.2</ele>
        <time>2022-08-29T09:00:01Z</time>
      </trkpt>
      <trkpt lat="42.4373350" lon="-3.0747710">
        <ele>753.0</ele>
        <time>2022-08-29T09:00:02Z</time>
      </trkpt>
      <trkpt lat="42.4373350" lon="-3.0748390">
        <ele>753.2</ele>
        <time>2022-08-29T09:00:03Z</time>
      </trkpt>
      <trkpt lat="42.4373380" lon="-3.0749100">
        <ele>753.2</ele>
        <time>2022-08-29T09:00:04Z</time>
      </trkpt>
      <trkpt lat="42.4373440" lon="-3.0749790">
        <ele>753.0</ele>
        <time>2022-08-29T09:00:05Z</time>
      </trkpt>
      <trkpt lat="42.4373500" lon="-3.0750490">
        <ele>753.0</ele>
        <time>2022-08-29T09:00:06Z</time>
      </trkpt>
      <trkpt lat="42.4373550" lon="-3.0751200">
        <ele>753.2</ele>
        <time>2022-08-29T09:00:07Z</time>
      </trkpt>
      <trkpt lat="42.4373590" lon="-3.0751920">
        <ele>753.0</ele>
        <time>2022-08-29T09:00:08Z</time>
      </trkpt>
      <trkpt lat="42.4373620" lon="-3.0752660">
        <ele>753.0</ele>
        <time>2022-08-29T09:00:09Z</time>
      </trkpt>
      <trkpt lat="42.4373670" lon="-3.0753400">
        <ele>753.0</ele>
        <time>2022-08-29T09:00:10Z</time>
      </trkpt>
      <trkpt lat="42.4373710" lon="-3.0754140">
        <ele>752.6</ele>
        <time>2022-08-29T09:00:11Z</time>
      </trkpt>
      <trkpt lat="42.4373750" lon="-3.0754870">
        <ele>752.2</ele>
        <time>2022-08-29T09:00:12Z</time>
      </trkpt>
      <trkpt lat="42.4373800" lon="-3.0755600">
        <ele>751.8</ele>
        <time>2022-08-29T09:00:13Z</time>
      </trkpt>
      <trkpt lat="42.4373860" lon="-3.0756330">
        <ele>751.6</ele>
        <time>2022-08-29T09:00:14Z</time>
      </trkpt>
      <trkpt lat="42.4373900" lon="-3.0757060">
        <ele>751.4</ele>
        <time>2022-08-29T09:00:15Z</time>
      </trkpt>
      <trkpt lat="42.4373940" lon="-3.0757800">
        <ele>751.0</ele>
        <time>2022-08-29T09:00:16Z</time>
      </trkpt>
      <trkpt lat="42.4373980" lon="-3.0758550">
        <ele>751.0</ele>
        <time>2022-08-29T09:00:17Z</time>
      </trkpt>
      <trkpt lat="42.4374030" lon="-3.0759310">
        <ele>750.8</ele>
        <time>2022-08-29T09:00:18Z</time>
      </trkpt>
      <trkpt lat="42.4374090" lon="-3.0760070">
        <ele>750.6</ele>
        <time>2022-08-29T09:00:19Z</time>
      </trkpt>
      <trkpt lat="42.4374140" lon="-3.0760840">
        <ele>750.6</ele>
        <time>2022-08-29T09:00:20Z</time>
      </trkpt>
      <trkpt lat="42.4374170" lon="-3.0761600">
        <ele>750.6</ele>
        <time>2022-08-29T09:00:21Z</time>
      </trkpt>
      <trkpt lat="42.4374200" lon="-3.0762370">
        <ele>750.4</ele>
        <time>2022-08-29T09:00:22Z</time>
      </trkpt>
      <trkpt lat="42.4374230" lon="-3.0763140">
        <ele>750.4</ele>
        <time>2022-08-29T09:00:23Z</time>
      </trkpt>
      <trkpt lat="42.4374270" lon="-3.0763900">
        <ele>750.4</ele>
        <time>2022-08-29T09:00:24Z</time>
      </trkpt>
      <trkpt lat="42.4374310" lon="-3.0764650">
        <ele>750.2</ele>
        <time>2022-08-29T09:00:25Z</time>
      </trkpt>
      <trkpt lat="42.4374350" lon="-3.0765380">
        <ele>750.2</ele>
        <time>2022-08-29T09:00:26Z</time>
      </trkpt>
      <trkpt lat="42.4374390" lon="-3.0766110">
        <ele>750.2</ele>
        <time>2022-08-29T09:00:27Z</time>
      </trkpt>
      <trkpt lat="42.4374430" lon="-3.0766840">
        <ele>750.2</ele>
        <time>2022-08-29T09:00:28Z</time>
      </trkpt>
      <trkpt lat="42.4374490" lon="-3.0767550">
        <ele>750.0</ele>
        <time>2022-08-29T09:00:29Z</time>
      </trkpt>
      <trkpt lat="42.4374570" lon="-3.0768250">
        <ele>750.0</ele>
        <time>2022-08-29T09:00:30Z</time>
      </trkpt>
      <trkpt lat="42.4374650" lon="-3.0768940">
        <ele>749.8</ele>
        <time>2022-08-29T09:00:31Z</time>
      </trkpt>
      <trkpt lat="42.4374700" lon="-3.0769650">
        <ele>749.8</ele>
        <time>2022-08-29T09:00:32Z</time>
      </trkpt>
      <trkpt lat="42.4374740" lon="-3.0770350">
        <ele>749.8</ele>
        <time>2022-08-29T09:00:33Z</time>
      </trkpt>
      <trkpt lat="42.4374760" lon="-3.0771070">
        <ele>749.6</ele>
        <time>2022-08-29T09:00:34Z</time>
      </trkpt>
      <trkpt lat="42.4374760" lon="-3.0771790">
        <ele>749.6</ele>
        <time>2022-08-29T09:00:35Z</time>
      </trkpt>
      <trkpt lat="42.4374770" lon="-3.0772530">
        <ele>749.6</ele>
        <time>2022-08-29T09:00:36Z</time>
      </trkpt>
      <trkpt lat="42.4374790" lon="-3.0773270">
        <ele>749.6</ele>
        <time>2022-08-29T09:00:37Z</time>
      </trkpt>
      <trkpt lat="42.4374830" lon="-3.0774010">
        <ele>749.4</ele>
        <time>2022-08-29T09:00:38Z</time>
      </trkpt>
      <trkpt lat="42.4374870" lon="-3.0774760">
        <ele>749.4</ele>
        <time>2022-08-29T09:00:39Z</time>
      </trkpt>
      <trkpt lat="42.4374900" lon="-3.0775510">
        <ele>749.2</ele>
        <time>2022-08-29T09:00:40Z</time>
      </trkpt>
      <trkpt lat="42.4374930" lon="-3.0776260">
        <ele>749.2</ele>
        <time>2022-08-29T09:00:41Z</time>
      </trkpt>
      <trkpt lat="42.4374960" lon="-3.0776990">
        <ele>749.2</ele>
        <time>2022-08-29T09:00:42Z</time>
      </trkpt>
      <trkpt lat="42.4374990" lon="-3.0777720">
        <ele>749.2</ele>
        <time>2022-08-29T09:00:43Z</time>
      </trkpt>
      <trkpt lat="42.4375030" lon="-3.0778430">
        <ele>749.2</ele>
        <time>2022-08-29T09:00:44Z</time>
      </trkpt>
      <trkpt lat="42.4375090" lon="-3.0779130">
        <ele>749.0</ele>
        <time>2022-08-29T09:00:45Z</time>
      </trkpt>
      <trkpt lat="42.4375180" lon="-3.0779780">
        <ele>749.0</ele>
        <time>2022-08-29T09:00:46Z</time>
      </trkpt>
      <trkpt lat="42.4375240" lon="-3.0780400">
        <ele>749.2</ele>
        <time>2022-08-29T09:00:47Z</time>
      </trkpt>
      <trkpt lat="42.4375270" lon="-3.0781000">
        <ele>749.2</ele>
        <time>2022-08-29T09:00:48Z</time>
      </trkpt>
      <trkpt lat="42.4375290" lon="-3.0781560">
        <ele>749.0</ele>
        <time>2022-08-29T09:00:49Z</time>
      </trkpt>
      <trkpt lat="42.4375320" lon="-3.0782120">
        <ele>749.0</ele>
        <time>2022-08-29T09:00:50Z</time>
      </trkpt>
      <trkpt lat="42.4375360" lon="-3.0782700">
        <ele>749.0</ele>
        <time>2022-08-29T09:00:51Z</time>
      </trkpt>
      <trkpt lat="42.4375430" lon="-3.0783240">
        <ele>749.0</ele>
        <time>2022-08-29T09:00:52Z</time>
      </trkpt>
      <trkpt lat="42.4375510" lon="-3.0783750">
        <ele>749.0</ele>
        <time>2022-08-29T09:00:53Z</time>
      </trkpt>
      <trkpt lat="42.4375590" lon="-3.0784250">
        <ele>749.0</ele>
        <time>2022-08-29T09:00:54Z</time>
      </trkpt>
      <trkpt lat="42.4375620" lon="-3.0784780">
        <ele>749.0</ele>
        <time>2022-08-29T09:00:55Z</time>
      </trkpt>
      <trkpt lat="42.4375640" lon="-3.0785320">
        <ele>749.0</ele>
        <time>2022-08-29T09:00:56Z</time>
      </trkpt>
      <trkpt lat="42.4375680" lon="-3.0785870">
        <ele>749.0</ele>
        <time>2022-08-29T09:00:57Z</time>
      </trkpt>
      <trkpt lat="42.4375720" lon="-3.0786430">
        <ele>749.0</ele>
        <time>2022-08-29T09:00:58Z</time>
      </trkpt>
      <trkpt lat="42.4375770" lon="-3.0787000">
        <ele>749.2</ele>
        <time>2022-08-29T09:00:59Z</time>
      </trkpt>
      <trkpt lat="42.4375820" lon="-3.0787580">
        <ele>749.4</ele>
        <time>2022-08-29T09:01:00Z</time>
      </trkpt>
      <trkpt lat="42.4375860" lon="-3.0788130">
        <ele>749.4</ele>
        <time>2022-08-29T09:01:01Z</time>
      </trkpt>
      <trkpt lat="42.4375900" lon="-3.0788650">
        <ele>749.6</ele>
        <time>2022-08-29T09:01:02Z</time>
      </trkpt>
      <trkpt lat="42.4375950" lon="-3.0789180">
        <ele>749.6</ele>
        <time>2022-08-29T09:01:03Z</time>
      </trkpt>
      <trkpt lat="42.4375990" lon="-3.0789710">
        <ele>749.8</ele>
        <time>2022-08-29T09:01:04Z</time>
      </trkpt>
      <trkpt lat="42.4376050" lon="-3.0790240">
        <ele>749.8</ele>
        <time>2022-08-29T09:01:05Z</time>
      </trkpt>
      <trkpt lat="42.4376090" lon="-3.0790760">
        <ele>750.0</ele>
        <time>2022-08-29T09:01:06Z</time>
      </trkpt>
      <trkpt lat="42.4376110" lon="-3.0791290">
        <ele>750.0</ele>
        <time>2022-08-29T09:01:07Z</time>
      </trkpt>
      <trkpt lat="42.4376120" lon="-3.0791820">
        <ele>750.0</ele>
        <time>2022-08-29T09:01:08Z</time>
      </trkpt>
      <trkpt lat="42.4376150" lon="-3.0792340">
        <ele>750.0</ele>
        <time>2022-08-29T09:01:09Z</time>
      </trkpt>
      <trkpt lat="42.4376180" lon="-3.0792840">
        <ele>750.2</ele>
        <time>2022-08-29T09:01:10Z</time>
      </trkpt>
      <trkpt lat="42.4376230" lon="-3.0793320">
        <ele>750.2</ele>
        <time>2022-08-29T09:01:11Z</time>
      </trkpt>
      <trkpt lat="42.4376280" lon="-3.0793770">
        <ele>750.2</ele>
        <time>2022-08-29T09:01:12Z</time>
      </trkpt>
      <trkpt lat="42.4376300" lon="-3.0794230">
        <ele>750.6</ele>
        <time>2022-08-29T09:01:13Z</time>
      </trkpt>
      <trkpt lat="42.4376300" lon="-3.0794690">
        <ele>750.6</ele>
        <time>2022-08-29T09:01:14Z</time>
      </trkpt>
      <trkpt lat="42.4376240" lon="-3.0795140">
        <ele>750.6</ele>
        <time>2022-08-29T09:01:15Z</time>
      </trkpt>
      <trkpt lat="42.4376190" lon="-3.0795560">
        <ele>750.8</ele>
        <time>2022-08-29T09:01:16Z</time>
      </trkpt>
      <trkpt lat="42.4376120" lon="-3.0795960">
        <ele>751.2</ele>
        <time>2022-08-29T09:01:17Z</time>
      </trkpt>
      <trkpt lat="42.4375990" lon="-3.0796320">
        <ele>751.4</ele>
        <time>2022-08-29T09:01:18Z</time>
      </trkpt>
      <trkpt lat="42.4375830" lon="-3.0796650">
        <ele>751.4</ele>
        <time>2022-08-29T09:01:19Z</time>
      </trkpt>
      <trkpt lat="42.4375650" lon="-3.0796970">
        <ele>751.6</ele>
        <time>2022-08-29T09:01:20Z</time>
      </trkpt>
      <trkpt lat="42.4375440" lon="-3.0797270">
        <ele>751.8</ele>
        <time>2022-08-29T09:01:21Z</time>
      </trkpt>
      <trkpt lat="42.4375210" lon="-3.0797550">
        <ele>751.8</ele>
        <time>2022-08-29T09:01:22Z</time>
      </trkpt>
      <trkpt lat="42.4374960" lon="-3.0797790">
        <ele>751.8</ele>
        <time>2022-08-29T09:01:23Z</time>
      </trkpt>
      <trkpt lat="42.4374640" lon="-3.0797980">
        <ele>752.2</ele>
        <time>2022-08-29T09:01:24Z</time>
      </trkpt>
      <trkpt lat="42.4374330" lon="-3.0798180">
        <ele>752.4</ele>
        <time>2022-08-29T09:01:25Z</time>
      </trkpt>
      <trkpt lat="42.4374010" lon="-3.0798360">
        <ele>752.4</ele>
        <time>2022-08-29T09:01:26Z</time>
      </trkpt>
      <trkpt lat="42.4373670" lon="-3.0798540">
        <ele>752.6</ele>
        <time>2022-08-29T09:01:27Z</time>
      </trkpt>
      <trkpt lat="42.4373350" lon="-3.0798700">
        <ele>753.0</ele>
        <time>2022-08-29T09:01:28Z</time>
      </trkpt>
      <trkpt lat="42.4373050" lon="-3.0798860">
        <ele>753.2</ele>
        <time>2022-08-29T09:01:29Z</time>
      </trkpt>
      <trkpt lat="42.4372750" lon="-3.0799040">
        <ele>753.2</ele>
        <time>2022-08-29T09:01:30Z</time>
      </trkpt>
      <trkpt lat="42.4372450" lon="-3.0799220">
        <ele>753.4</ele>
        <time>2022-08-29T09:01:31Z</time>
      </trkpt>
      <trkpt lat="42.4372160" lon="-3.0799390">
        <ele>753.4</ele>
        <time>2022-08-29T09:01:32Z</time>
      </trkpt>
      <trkpt lat="42.4371870" lon="-3.0799570">
        <ele>753.6</ele>
        <time>2022-08-29T09:01:33Z</time>
      </trkpt>
      <trkpt lat="42.4371570" lon="-3.0799720">
        <ele>753.8</ele>
        <time>2022-08-29T09:01:34Z</time>
      </trkpt>
      <trkpt lat="42.4371290" lon="-3.0799870">
        <ele>753.6</ele>
        <time>2022-08-29T09:01:35Z</time>
      </trkpt>
      <trkpt lat="42.4371040" lon="-3.0800060">
        <ele>753.8</ele>
        <time>2022-08-29T09:01:36Z</time>
      </trkpt>
      <trkpt lat="42.4370800" lon="-3.0800280">
        <ele>753.8</ele>
        <time>2022-08-29T09:01:37Z</time>
      </trkpt>
      <trkpt lat="42.4370580" lon="-3.0800500">
        <ele>754.0</ele>
        <time>2022-08-29T09:01:38Z</time>
      </trkpt>
      <trkpt lat="42.4370380" lon="-3.0800730">
        <ele>754.0</ele>
        <time>2022-08-29T09:01:39Z</time>
      </trkpt>
      <trkpt lat="42.4370210" lon="-3.0801000">
        <ele>754.2</ele>
        <time>2022-08-29T09:01:40Z</time>
      </trkpt>
      <trkpt lat="42.4370070" lon="-3.0801300">
        <ele>754.2</ele>
        <time>2022-08-29T09:01:41Z</time>
      </trkpt>
      <trkpt lat="42.4370000" lon="-3.0801630">
        <ele>754.4</ele>
        <time>2022-08-29T09:01:42Z</time>
      </trkpt>
      <trkpt lat="42.4369960" lon="-3.0801990">
        <ele>754.6</ele>
        <time>2022-08-29T09:01:43Z</time>
      </trkpt>
      <trkpt lat="42.4369940" lon="-3.0802360">
        <ele>754.6</ele>
        <time>2022-08-29T09:01:44Z</time>
      </trkpt>
      <trkpt lat="42.4369930" lon="-3.0802750">
        <ele>754.8</ele>
        <time>2022-08-29T09:01:45Z</time>
      </trkpt>
      <trkpt lat="42.4369930" lon="-3.0803120">
        <ele>754.8</ele>
        <time>2022-08-29T09:01:46Z</time>
      </trkpt>
      <trkpt lat="42.4369940" lon="-3.0803500">
        <ele>754.8</ele>
        <time>2022-08-29T09:01:47Z</time>
      </trkpt>
      <trkpt lat="42.4369970" lon="-3.0803880">
        <ele>755.0</ele>
        <time>2022-08-29T09:01:48Z</time>
      </trkpt>
      <trkpt lat="42.4370010" lon="-3.0804250">
        <ele>755.2</ele>
        <time>2022-08-29T09:01:49Z</time>
      </trkpt>
      <trkpt lat="42.4370050" lon="-3.0804610">
        <ele>755.4</ele>
        <time>2022-08-29T09:01:50Z</time>
      </trkpt>
      <trkpt lat="42.4370090" lon="-3.0804960">
        <ele>755.4</ele>
        <time>2022-08-29T09:01:51Z</time>
      </trkpt>
      <trkpt lat="42.4370120" lon="-3.0805310">
        <ele>755.6</ele>
        <time>2022-08-29T09:01:52Z</time>
      </trkpt>
      <trkpt lat="42.4370150" lon="-3.0805660">
        <ele>755.8</ele>
        <time>2022-08-29T09:01:53Z</time>
      </trkpt>
      <trkpt lat="42.4370190" lon="-3.0806010">
        <ele>756.0</ele>
        <time>2022-08-29T09:01:54Z</time>
      </trkpt>
      <trkpt lat="42.4370230" lon="-3.0806360">
        <ele>756.4</ele>
        <time>2022-08-29T09:01:55Z</time>
      </trkpt>
      <trkpt lat="42.4370270" lon="-3.0806710">
        <ele>756.6</ele>
        <time>2022-08-29T09:01:56Z</time>
      </trkpt>
      <trkpt lat="42.4370300" lon="-3.0807040">
        <ele>756.6</ele>
        <time>2022-08-29T09:01:57Z</time>
      </trkpt>
      <trkpt lat="42.4370330" lon="-3.0807340">
        <ele>756.8</ele>
        <time>2022-08-29T09:01:58Z</time>
      </trkpt>
      <trkpt lat="42.4370340" lon="-3.0807640">
        <ele>757.0</ele>
        <time>2022-08-29T09:01:59Z</time>
      </trkpt>
      <trkpt lat="42.4370370" lon="-3.0807930">
        <ele>757.2</ele>
        <time>2022-08-29T09:02:00Z</time>
      </trkpt>
      <trkpt lat="42.4370400" lon="-3.0808220">
        <ele>757.2</ele>
        <time>2022-08-29T09:02:01Z</time>
      </trkpt>
      <trkpt lat="42.4370440" lon="-3.0808500">
        <ele>757.4</ele>
        <time>2022-08-29T09:02:02Z</time>
      </trkpt>
      <trkpt lat="42.4370470" lon="-3.0808790">
        <ele>757.8</ele>
        <time>2022-08-29T09:02:03Z</time>
      </trkpt>
      <trkpt lat="42.4370480" lon="-3.0809090">
        <ele>757.8</ele>
        <time>2022-08-29T09:02:04Z</time>
      </trkpt>
      <trkpt lat="42.4370490" lon="-3.0809380">
        <ele>758.2</ele>
        <time>2022-08-29T09:02:05Z</time>
      </trkpt>
      <trkpt lat="42.4370520" lon="-3.0809640">
        <ele>758.4</ele>
        <time>2022-08-29T09:02:06Z</time>
      </trkpt>
      <trkpt lat="42.4370520" lon="-3.0809930">
        <ele>758.6</ele>
        <time>2022-08-29T09:02:07Z</time>
      </trkpt>
      <trkpt lat="42.4370530" lon="-3.0810200">
        <ele>758.8</ele>
        <time>2022-08-29T09:02:08Z</time>
      </trkpt>
      <trkpt lat="42.4370550" lon="-3.0810460">
        <ele>758.8</ele>
        <time>2022-08-29T09:02:09Z</time>
      </trkpt>
      <trkpt lat="42.4370560" lon="-3.0810720">
        <ele>759.0</ele>
        <time>2022-08-29T09:02:10Z</time>
      </trkpt>
      <trkpt lat="42.4370580" lon="-3.0810980">
        <ele>759.0</ele>
        <time>2022-08-29T09:02:11Z</time>
      </trkpt>
      <trkpt lat="42.4370600" lon="-3.0811200">
        <ele>759.0</ele>
        <time>2022-08-29T09:02:12Z</time>
      </trkpt>
      <trkpt lat="42.4370620" lon="-3.0811440">
        <ele>759.4</ele>
        <time>2022-08-29T09:02:13Z</time>
      </trkpt>
      <trkpt lat="42.4370640" lon="-3.0811680">
        <ele>759.8</ele>
        <time>2022-08-29T09:02:14Z</time>
      </trkpt>
      <trkpt lat="42.4370680" lon="-3.0811930">
        <ele>760.0</ele>
        <time>2022-08-29T09:02:15Z</time>
      </trkpt>
      <trkpt lat="42.4370730" lon="-3.0812180">
        <ele>760.2</ele>
        <time>2022-08-29T09:02:16Z</time>
      </trkpt>
      <trkpt lat="42.4370780" lon="-3.0812430">
        <ele>760.6</ele>
        <time>2022-08-29T09:02:17Z</time>
      </trkpt>
      <trkpt lat="42.4370840" lon="-3.0812690">
        <ele>760.8</ele>
        <time>2022-08-29T09:02:18Z</time>
      </trkpt>
      <trkpt lat="42.4370920" lon="-3.0812950">
        <ele>761.0</ele>
        <time>2022-08-29T09:02:19Z</time>
      </trkpt>
      <trkpt lat="42.4371000" lon="-3.0813200">
        <ele>761.2</ele>
        <time>2022-08-29T09:02:20Z</time>
      </trkpt>
      <trkpt lat="42.4371040" lon="-3.0813430">
        <ele>761.6</ele>
        <time>2022-08-29T09:02:21Z</time>
      </trkpt>
      <trkpt lat="42.4371070" lon="-3.0813680">
        <ele>761.6</ele>
        <time>2022-08-29T09:02:22Z</time>
      </trkpt>
      <trkpt lat="42.4371100" lon="-3.0813940">
        <ele>762.0</ele>
        <time>2022-08-29T09:02:23Z</time>
      </trkpt>
      <trkpt lat="42.4371140" lon="-3.0814210">
        <ele>762.0</ele>
        <time>2022-08-29T09:02:24Z</time>
      </trkpt>
      <trkpt lat="42.4371170" lon="-3.0814490">
        <ele>762.0</ele>
        <time>2022-08-29T09:02:25Z</time>
      </trkpt>
      <trkpt lat="42.4371210" lon="-3.0814800">
        <ele>762.2</ele>
        <time>2022-08-29T09:02:26Z</time>
      </trkpt>
      <trkpt lat="42.4371230" lon="-3.0815130">
        <ele>762.2</ele>
        <time>2022-08-29T09:02:27Z</time>
      </trkpt>
      <trkpt lat="42.4371250" lon="-3.0815470">
        <ele>762.4</ele>
        <time>2022-08-29T09:02:28Z</time>
      </trkpt>
      <trkpt lat="42.4371240" lon="-3.0815820">
        <ele>762.6</ele>
        <time>2022-08-29T09:02:29Z</time>
      </trkpt>
      <trkpt lat="42.4371220" lon="-3.0816190">
        <ele>762.8</ele>
        <time>2022-08-29T09:02:30Z</time>
      </trkpt>
      <trkpt lat="42.4371190" lon="-3.0816570">
        <ele>762.8</ele>
        <time>2022-08-29T09:02:31Z</time>
      </trkpt>
      <trkpt lat="42.4371170" lon="-3.0816970">
        <ele>762.8</ele>
        <time>2022-08-29T09:02:32Z</time>
      </trkpt>
      <trkpt lat="42.4371130" lon="-3.0817360">
        <ele>763.0</ele>
        <time>2022-08-29T09:02:33Z</time>
      </trkpt>
      <trkpt lat="42.4371090" lon="-3.0817730">
        <ele>763.2</ele>
        <time>2022-08-29T09:02:34Z</time>
      </trkpt>
      <trkpt lat="42.4371030" lon="-3.0818100">
        <ele>763.2</ele>
        <time>2022-08-29T09:02:35Z</time>
      </trkpt>
      <trkpt lat="42.4370950" lon="-3.0818480">
        <ele>763.2</ele>
        <time>2022-08-29T09:02:36Z</time>
      </trkpt>
      <trkpt lat="42.4370890" lon="-3.0818860">
        <ele>763.2</ele>
        <time>2022-08-29T09:02:37Z</time>
      </trkpt>
      <trkpt lat="42.4370850" lon="-3.0819260">
        <ele>763.0</ele>
        <time>2022-08-29T09:02:38Z</time>
      </trkpt>
      <trkpt lat="42.4370800" lon="-3.0819660">
        <ele>763.2</ele>
        <time>2022-08-29T09:02:39Z</time>
      </trkpt>
      <trkpt lat="42.4370750" lon="-3.0820060">
        <ele>763.2</ele>
        <time>2022-08-29T09:02:40Z</time>
      </trkpt>
      <trkpt lat="42.4370680" lon="-3.0820470">
        <ele>763.2</ele>
        <time>2022-08-29T09:02:41Z</time>
      </trkpt>
      <trkpt lat="42.4370610" lon="-3.0820870">
        <ele>763.2</ele>
        <time>2022-08-29T09:02:42Z</time>
      </trkpt>
      <trkpt lat="42.4370530" lon="-3.0821270">
        <ele>763.2</ele>
        <time>2022-08-29T09:02:43Z</time>
      </trkpt>
      <trkpt lat="42.4370450" lon="-3.0821670">
        <ele>763.2</ele>
        <time>2022-08-29T09:02:44Z</time>
      </trkpt>
      <trkpt lat="42.4370380" lon="-3.0822060">
        <ele>763.4</ele>
        <time>2022-08-29T09:02:45Z</time>
      </trkpt>
      <trkpt lat="42.4370320" lon="-3.0822450">
        <ele>763.4</ele>
        <time>2022-08-29T09:02:46Z</time>
      </trkpt>
      <trkpt lat="42.4370240" lon="-3.0822840">
        <ele>763.4</ele>
        <time>2022-08-29T09:02:47Z</time>
      </trkpt>
      <trkpt lat="42.4370180" lon="-3.0823240">
        <ele>763.2</ele>
        <time>2022-08-29T09:02:48Z</time>
      </trkpt>
      <trkpt lat="42.4370110" lon="-3.0823640">
        <ele>763.4</ele>
        <time>2022-08-29T09:02:49Z</time>
      </trkpt>
      <trkpt lat="42.4370060" lon="-3.0824050">
        <ele>763.4</ele>
        <time>2022-08-29T09:02:50Z</time>
      </trkpt>
      <trkpt lat="42.4369980" lon="-3.0824450">
        <ele>763.6</ele>
        <time>2022-08-29T09:02:51Z</time>
      </trkpt>
      <trkpt lat="42.4369900" lon="-3.0824850">
        <ele>763.6</ele>
        <time>2022-08-29T09:02:52Z</time>
      </trkpt>
      <trkpt lat="42.4369830" lon="-3.0825250">
        <ele>763.6</ele>
        <time>2022-08-29T09:02:53Z</time>
      </trkpt>
      <trkpt lat="42.4369780" lon="-3.0825670">
        <ele>763.6</ele>
        <time>2022-08-29T09:02:54Z</time>
      </trkpt>
      <trkpt lat="42.4369710" lon="-3.0826080">
        <ele>763.8</ele>
        <time>2022-08-29T09:02:55Z</time>
      </trkpt>
      <trkpt lat="42.4369630" lon="-3.0826480">
        <ele>764.0</ele>
        <time>2022-08-29T09:02:56Z</time>
      </trkpt>
      <trkpt lat="42.4369520" lon="-3.0826870">
        <ele>764.0</ele>
        <time>2022-08-29T09:02:57Z</time>
      </trkpt>
      <trkpt lat="42.4369410" lon="-3.0827250">
        <ele>764.2</ele>
        <time>2022-08-29T09:02:58Z</time>
      </trkpt>
      <trkpt lat="42.4369320" lon="-3.0827640">
        <ele>764.2</ele>
        <time>2022-08-29T09:02:59Z</time>
      </trkpt>
      <trkpt lat="42.4369260" lon="-3.0828040">
        <ele>764.4</ele>
        <time>2022-08-29T09:03:00Z</time>
      </trkpt>
      <trkpt lat="42.4369200" lon="-3.0828440">
        <ele>764.4</ele>
        <time>2022-08-29T09:03:01Z</time>
      </trkpt>
      <trkpt lat="42.4369140" lon="-3.0828830">
        <ele>764.4</ele>
        <time>2022-08-29T09:03:02Z</time>
      </trkpt>
      <trkpt lat="42.4369070" lon="-3.0829250">
        <ele>764.6</ele>
        <time>2022-08-29T09:03:03Z</time>
      </trkpt>
      <trkpt lat="42.4369000" lon="-3.0829680">
        <ele>764.4</ele>
        <time>2022-08-29T09:03:04Z</time>
      </trkpt>
      <trkpt lat="42.4368950" lon="-3.0830110">
        <ele>764.4</ele>
        <time>2022-08-29T09:03:05Z</time>
      </trkpt>
      <trkpt lat="42.4368900" lon="-3.0830550">
        <ele>764.6</ele>
        <time>2022-08-29T09:03:06Z</time>
      </trkpt>
      <trkpt lat="42.4368860" lon="-3.0830960">
        <ele>764.6</ele>
        <time>2022-08-29T09:03:07Z</time>
      </trkpt>
      <trkpt lat="42.4368800" lon="-3.0831340">
        <ele>764.6</ele>
        <time>2022-08-29T09:03:08Z</time>
      </trkpt>
      <trkpt lat="42.4368750" lon="-3.0831670">
        <ele>764.6</ele>
        <time>2022-08-29T09:03:09Z</time>
      </trkpt>
      <trkpt lat="42.4368700" lon="-3.0831980">
        <ele>764.6</ele>
        <time>2022-08-29T09:03:10Z</time>
      </trkpt>
      <trkpt lat="42.4368610" lon="-3.0832310">
        <ele>764.6</ele>
        <time>2022-08-29T09:03:11Z</time>
      </trkpt>
      <trkpt lat="42.4368510" lon="-3.0832660">
        <ele>764.6</ele>
        <time>2022-08-29T09:03:12Z</time>
      </trkpt>
      <trkpt lat="42.4368430" lon="-3.0833050">
        <ele>764.6</ele>
        <time>2022-08-29T09:03:13Z</time>
      </trkpt>
      <trkpt lat="42.4368360" lon="-3.0833470">
        <ele>764.8</ele>
        <time>2022-08-29T09:03:14Z</time>
      </trkpt>
      <trkpt lat="42.4368300" lon="-3.0833900">
        <ele>764.6</ele>
        <time>2022-08-29T09:03:15Z</time>
      </trkpt>
      <trkpt lat="42.4368250" lon="-3.0834330">
        <ele>764.8</ele>
        <time>2022-08-29T09:03:16Z</time>
      </trkpt>
      <trkpt lat="42.4368200" lon="-3.0834770">
        <ele>764.8</ele>
        <time>2022-08-29T09:03:17Z</time>
      </trkpt>
      <trkpt lat="42.4368120" lon="-3.0835210">
        <ele>765.0</ele>
        <time>2022-08-29T09:03:18Z</time>
      </trkpt>
      <trkpt lat="42.4368020" lon="-3.0835680">
        <ele>765.0</ele>
        <time>2022-08-29T09:03:19Z</time>
      </trkpt>
      <trkpt lat="42.4367930" lon="-3.0836130">
        <ele>765.2</ele>
        <time>2022-08-29T09:03:20Z</time>
      </trkpt>
      <trkpt lat="42.4367840" lon="-3.0836570">
        <ele>765.0</ele>
        <time>2022-08-29T09:03:21Z</time>
      </trkpt>
      <trkpt lat="42.4367730" lon="-3.0837000">
        <ele>765.0</ele>
        <time>2022-08-29T09:03:22Z</time>
      </trkpt>
      <trkpt lat="42.4367630" lon="-3.0837430">
        <ele>765.2</ele>
        <time>2022-08-29T09:03:23Z</time>
      </trkpt>
      <trkpt lat="42.4367530" lon="-3.0837880">
        <ele>765.2</ele>
        <time>2022-08-29T09:03:24Z</time>
      </trkpt>
      <trkpt lat="42.4367410" lon="-3.0838290">
        <ele>765.2</ele>
        <time>2022-08-29T09:03:25Z</time>
      </trkpt>
      <trkpt lat="42.4367280" lon="-3.0838690">
        <ele>765.2</ele>
        <time>2022-08-29T09:03:26Z</time>
      </trkpt>
      <trkpt lat="42.4367130" lon="-3.0839090">
        <ele>765.2</ele>
        <time>2022-08-29T09:03:27Z</time>
      </trkpt>
      <trkpt lat="42.4366980" lon="-3.0839500">
        <ele>765.2</ele>
        <time>2022-08-29T09:03:28Z</time>
      </trkpt>
      <trkpt lat="42.4366830" lon="-3.0839950">
        <ele>765.2</ele>
        <time>2022-08-29T09:03:29Z</time>
      </trkpt>
      <trkpt lat="42.4366710" lon="-3.0840420">
        <ele>765.2</ele>
        <time>2022-08-29T09:03:30Z</time>
      </trkpt>
      <trkpt lat="42.4366560" lon="-3.0840930">
        <ele>765.2</ele>
        <time>2022-08-29T09:03:31Z</time>
      </trkpt>
      <trkpt lat="42.4366410" lon="-3.0841500">
        <ele>765.2</ele>
        <time>2022-08-29T09:03:32Z</time>
      </trkpt>
      <trkpt lat="42.4366300" lon="-3.0842120">
        <ele>765.2</ele>
        <time>2022-08-29T09:03:33Z</time>
      </trkpt>
      <trkpt lat="42.4366180" lon="-3.0842790">
        <ele>765.0</ele>
        <time>2022-08-29T09:03:34Z</time>
      </trkpt>
      <trkpt lat="42.4366080" lon="-3.0843460">
        <ele>765.2</ele>
        <time>2022-08-29T09:03:35Z</time>
      </trkpt>
      <trkpt lat="42.4365960" lon="-3.0844130">
        <ele>764.8</ele>
        <time>2022-08-29T09:03:36Z</time>
      </trkpt>
      <trkpt lat="42.4365900" lon="-3.0844800">
        <ele>764.8</ele>
        <time>2022-08-29T09:03:37Z</time>
      </trkpt>
      <trkpt lat="42.4365790" lon="-3.0845440">
        <ele>764.6</ele>
        <time>2022-08-29T09:03:38Z</time>
      </trkpt>
      <trkpt lat="42.4365710" lon="-3.0846070">
        <ele>764.2</ele>
        <time>2022-08-29T09:03:39Z</time>
      </trkpt>
      <trkpt lat="42.4365620" lon="-3.0846630">
        <ele>764.0</ele>
        <time>2022-08-29T09:03:40Z</time>
      </trkpt>
      <trkpt lat="42.4365590" lon="-3.0847140">
        <ele>763.8</ele>
        <time>2022-08-29T09:03:41Z</time>
      </trkpt>
      <trkpt lat="42.4365550" lon="-3.0847620">
        <ele>763.6</ele>
        <time>2022-08-29T09:03:42Z</time>
      </trkpt>
      <trkpt lat="42.4365520" lon="-3.0848100">
        <ele>763.4</ele>
        <time>2022-08-29T09:03:43Z</time>
      </trkpt>
      <trkpt lat="42.4365470" lon="-3.0848580">
        <ele>763.4</ele>
        <time>2022-08-29T09:03:44Z</time>
      </trkpt>
      <trkpt lat="42.4365450" lon="-3.0849040">
        <ele>763.2</ele>
        <time>2022-08-29T09:03:45Z</time>
      </trkpt>
      <trkpt lat="42.4365420" lon="-3.0849480">
        <ele>763.2</ele>
        <time>2022-08-29T09:03:46Z</time>
      </trkpt>
      <trkpt lat="42.4365410" lon="-3.0849900">
        <ele>763.4</ele>
        <time>2022-08-29T09:03:47Z</time>
      </trkpt>
      <trkpt lat="42.4365370" lon="-3.0850330">
        <ele>763.4</ele>
        <time>2022-08-29T09:03:48Z</time>
      </trkpt>
      <trkpt lat="42.4365320" lon="-3.0850750">
        <ele>763.4</ele>
        <time>2022-08-29T09:03:49Z</time>
      </trkpt>
      <trkpt lat="42.4365240" lon="-3.0851170">
        <ele>763.4</ele>
        <time>2022-08-29T09:03:50Z</time>
      </trkpt>
      <trkpt lat="42.4365160" lon="-3.0851550">
        <ele>763.4</ele>
        <time>2022-08-29T09:03:51Z</time>
      </trkpt>
      <trkpt lat="42.4365100" lon="-3.0851880">
        <ele>763.4</ele>
        <time>2022-08-29T09:03:52Z</time>
      </trkpt>
      <trkpt lat="42.4365060" lon="-3.0852170">
        <ele>763.6</ele>
        <time>2022-08-29T09:03:53Z</time>
      </trkpt>
      <trkpt lat="42.4365100" lon="-3.0852310">
        <ele>763.8</ele>
        <time>2022-08-29T09:03:54Z</time>
      </trkpt>
      <trkpt lat="42.4365140" lon="-3.0852320">
        <ele>763.8</ele>
        <time>2022-08-29T09:03:55Z</time>
      </trkpt>
      <trkpt lat="42.4365130" lon="-3.0852340">
        <ele>764.0</ele>
        <time>2022-08-29T09:03:56Z</time>
      </trkpt>
      <trkpt lat="42.4365060" lon="-3.0852420">
        <ele>764.4</ele>
        <time>2022-08-29T09:03:57Z</time>
      </trkpt>
      <trkpt lat="42.4364960" lon="-3.0852510">
        <ele>764.6</ele>
        <time>2022-08-29T09:03:58Z</time>
      </trkpt>
      <trkpt lat="42.4364920" lon="-3.0852580">
        <ele>764.6</ele>
        <time>2022-08-29T09:03:59Z</time>
      </trkpt>
      <trkpt lat="42.4364880" lon="-3.0852670">
        <ele>764.8</ele>
        <time>2022-08-29T09:04:00Z</time>
      </trkpt>
      <trkpt lat="42.4364830" lon="-3.0852830">
        <ele>765.0</ele>
        <time>2022-08-29T09:04:01Z</time>
      </trkpt>
      <trkpt lat="42.4364760" lon="-3.0853010">
        <ele>765.0</ele>
        <time>2022-08-29T09:04:02Z</time>
      </trkpt>
      <trkpt lat="42.4364690" lon="-3.0853200">
        <ele>765.0</ele>
        <time>2022-08-29T09:04:03Z</time>
      </trkpt>
      <trkpt lat="42.4364600" lon="-3.0853450">
        <ele>765.0</ele>
        <time>2022-08-29T09:04:04Z</time>
      </trkpt>
      <trkpt lat="42.4364510" lon="-3.0853800">
        <ele>765.0</ele>
        <time>2022-08-29T09:04:05Z</time>
      </trkpt>
      <trkpt lat="42.4364480" lon="-3.0854100">
        <ele>765.0</ele>
        <time>2022-08-29T09:04:06Z</time>
      </trkpt>
      <trkpt lat="42.4364450" lon="-3.0854350">
        <ele>765.0</ele>
        <time>2022-08-29T09:04:07Z</time>
      </trkpt>
      <trkpt lat="42.4364440" lon="-3.0854620">
        <ele>765.0</ele>
        <time>2022-08-29T09:04:08Z</time>
      </trkpt>
      <trkpt lat="42.4364420" lon="-3.0854920">
        <ele>765.0</ele>
        <time>2022-08-29T09:04:09Z</time>
      </trkpt>
      <trkpt lat="42.4364370" lon="-3.0855300">
        <ele>765.0</ele>
        <time>2022-08-29T09:04:10Z</time>
      </trkpt>
      <trkpt lat="42.4364350" lon="-3.0855680">
        <ele>765.0</ele>
        <time>2022-08-29T09:04:11Z</time>
      </trkpt>
      <trkpt lat="42.4364370" lon="-3.0856100">
        <ele>765.0</ele>
        <time>2022-08-29T09:04:12Z</time>
      </trkpt>
      <trkpt lat="42.4364430" lon="-3.0856510">
        <ele>765.2</ele>
        <time>2022-08-29T09:04:13Z</time>
      </trkpt>
      <trkpt lat="42.4364440" lon="-3.0856870">
        <ele>765.2</ele>
        <time>2022-08-29T09:04:14Z</time>
      </trkpt>
      <trkpt lat="42.4364440" lon="-3.0857290">
        <ele>765.2</ele>
        <time>2022-08-29T09:04:15Z</time>
      </trkpt>
      <trkpt lat="42.4364420" lon="-3.0857700">
        <ele>765.0</ele>
        <time>2022-08-29T09:04:16Z</time>
      </trkpt>
      <trkpt lat="42.4364440" lon="-3.0858090">
        <ele>765.0</ele>
        <time>2022-08-29T09:04:17Z</time>
      </trkpt>
      <trkpt lat="42.4364410" lon="-3.0858560">
        <ele>765.2</ele>
        <time>2022-08-29T09:04:18Z</time>
      </trkpt>
      <trkpt lat="42.4364370" lon="-3.0859030">
        <ele>765.0</ele>
        <time>2022-08-29T09:04:19Z</time>
      </trkpt>
      <trkpt lat="42.4364240" lon="-3.0859630">
        <ele>765.0</ele>
        <time>2022-08-29T09:04:20Z</time>
      </trkpt>
      <trkpt lat="42.4364180" lon="-3.0860190">
        <ele>765.0</ele>
        <time>2022-08-29T09:04:21Z</time>
      </trkpt>
      <trkpt lat="42.4364140" lon="-3.0860650">
        <ele>765.0</ele>
        <time>2022-08-29T09:04:22Z</time>
      </trkpt>
      <trkpt lat="42.4364080" lon="-3.0861100">
        <ele>765.2</ele>
        <time>2022-08-29T09:04:23Z</time>
      </trkpt>
      <trkpt lat="42.4364040" lon="-3.0861520">
        <ele>765.0</ele>
        <time>2022-08-29T09:04:24Z</time>
      </trkpt>
      <trkpt lat="42.4363930" lon="-3.0862060">
        <ele>765.0</ele>
        <time>2022-08-29T09:04:25Z</time>
      </trkpt>
      <trkpt lat="42.4363880" lon="-3.0862670">
        <ele>765.0</ele>
        <time>2022-08-29T09:04:26Z</time>
      </trkpt>
      <trkpt lat="42.4363870" lon="-3.0863300">
        <ele>765.0</ele>
        <time>2022-08-29T09:04:27Z</time>
      </trkpt>
      <trkpt lat="42.4363970" lon="-3.0863920">
        <ele>765.0</ele>
        <time>2022-08-29T09:04:28Z</time>
      </trkpt>
      <trkpt lat="42.4364160" lon="-3.0864440">
        <ele>764.8</ele>
        <time>2022-08-29T09:04:29Z</time>
      </trkpt>
      <trkpt lat="42.4364470" lon="-3.0864810">
        <ele>764.8</ele>
        <time>2022-08-29T09:04:30Z</time>
      </trkpt>
      <trkpt lat="42.4364880" lon="-3.0865020">
        <ele>764.8</ele>
        <time>2022-08-29T09:04:31Z</time>
      </trkpt>
      <trkpt lat="42.4365380" lon="-3.0865140">
        <ele>764.6</ele>
        <time>2022-08-29T09:04:32Z</time>
      </trkpt>
      <trkpt lat="42.4365830" lon="-3.0865360">
        <ele>764.4</ele>
        <time>2022-08-29T09:04:33Z</time>
      </trkpt>
      <trkpt lat="42.4366190" lon="-3.0865680">
        <ele>764.4</ele>
        <time>2022-08-29T09:04:34Z</time>
      </trkpt>
      <trkpt lat="42.4366340" lon="-3.0866160">
        <ele>763.8</ele>
        <time>2022-08-29T09:04:35Z</time>
      </trkpt>
      <trkpt lat="42.4366360" lon="-3.0866640">
        <ele>763.0</ele>
        <time>2022-08-29T09:04:36Z</time>
      </trkpt>
      <trkpt lat="42.4366140" lon="-3.0867140">
        <ele>762.4</ele>
        <time>2022-08-29T09:04:37Z</time>
      </trkpt>
      <trkpt lat="42.4365730" lon="-3.0867710">
        <ele>762.4</ele>
        <time>2022-08-29T09:04:38Z</time>
      </trkpt>
      <trkpt lat="42.4365100" lon="-3.0868370">
        <ele>761.6</ele>
        <time>2022-08-29T09:04:39Z</time>
      </trkpt>
      <trkpt lat="42.4364470" lon="-3.0869080">
        <ele>761.2</ele>
        <time>2022-08-29T09:04:40Z</time>
      </trkpt>
      <trkpt lat="42.4363790" lon="-3.0869850">
        <ele>759.8</ele>
        <time>2022-08-29T09:04:41Z</time>
      </trkpt>
      <trkpt lat="42.4363110" lon="-3.0870600">
        <ele>758.8</ele>
        <time>2022-08-29T09:04:42Z</time>
      </trkpt>
      <trkpt lat="42.4362450" lon="-3.0871290">
        <ele>758.4</ele>
        <time>2022-08-29T09:04:43Z</time>
      </trkpt>
      <trkpt lat="42.4361790" lon="-3.0871940">
        <ele>758.0</ele>
        <time>2022-08-29T09:04:44Z</time>
      </trkpt>
      <trkpt lat="42.4361190" lon="-3.0872570">
        <ele>757.6</ele>
        <time>2022-08-29T09:04:45Z</time>
      </trkpt>
      <trkpt lat="42.4360670" lon="-3.0873200">
        <ele>756.4</ele>
        <time>2022-08-29T09:04:46Z</time>
      </trkpt>
      <trkpt lat="42.4360190" lon="-3.0873800">
        <ele>755.6</ele>
        <time>2022-08-29T09:04:47Z</time>
      </trkpt>
      <trkpt lat="42.4359750" lon="-3.0874340">
        <ele>754.4</ele>
        <time>2022-08-29T09:04:48Z</time>
      </trkpt>
      <trkpt lat="42.4359310" lon="-3.0874870">
        <ele>753.6</ele>
        <time>2022-08-29T09:04:49Z</time>
      </trkpt>
      <trkpt lat="42.4358890" lon="-3.0875380">
        <ele>752.4</ele>
        <time>2022-08-29T09:04:50Z</time>
      </trkpt>
      <trkpt lat="42.4358510" lon="-3.0875860">
        <ele>751.6</ele>
        <time>2022-08-29T09:04:51Z</time>
      </trkpt>
      <trkpt lat="42.4358120" lon="-3.0876330">
        <ele>751.2</ele>
        <time>2022-08-29T09:04:52Z</time>
      </trkpt>
      <trkpt lat="42.4357800" lon="-3.0876800">
        <ele>750.8</ele>
        <time>2022-08-29T09:04:53Z</time>
      </trkpt>
      <trkpt lat="42.4357510" lon="-3.0877290">
        <ele>750.6</ele>
        <time>2022-08-29T09:04:54Z</time>
      </trkpt>
      <trkpt lat="42.4357250" lon="-3.0877820">
        <ele>750.6</ele>
        <time>2022-08-29T09:04:55Z</time>
      </trkpt>
      <trkpt lat="42.4356980" lon="-3.0878370">
        <ele>750.4</ele>
        <time>2022-08-29T09:04:56Z</time>
      </trkpt>
      <trkpt lat="42.4356690" lon="-3.0878900">
        <ele>750.6</ele>
        <time>2022-08-29T09:04:57Z</time>
      </trkpt>
      <trkpt lat="42.4356360" lon="-3.0879410">
        <ele>750.4</ele>
        <time>2022-08-29T09:04:58Z</time>
      </trkpt>
      <trkpt lat="42.4356010" lon="-3.0879960">
        <ele>750.6</ele>
        <time>2022-08-29T09:04:59Z</time>
      </trkpt>
      <trkpt lat="42.4355670" lon="-3.0880480">
        <ele>750.6</ele>
        <time>2022-08-29T09:05:00Z</time>
      </trkpt>
      <trkpt lat="42.4355330" lon="-3.0881000">
        <ele>750.4</ele>
        <time>2022-08-29T09:05:01Z</time>
      </trkpt>
      <trkpt lat="42.4355010" lon="-3.0881520">
        <ele>750.4</ele>
        <time>2022-08-29T09:05:02Z</time>
      </trkpt>
      <trkpt lat="42.4354700" lon="-3.0882080">
        <ele>750.4</ele>
        <time>2022-08-29T09:05:03Z</time>
      </trkpt>
      <trkpt lat="42.4354410" lon="-3.0882630">
        <ele>750.4</ele>
        <time>2022-08-29T09:05:04Z</time>
      </trkpt>
      <trkpt lat="42.4354110" lon="-3.0883160">
        <ele>750.4</ele>
        <time>2022-08-29T09:05:05Z</time>
      </trkpt>
      <trkpt lat="42.4353830" lon="-3.0883700">
        <ele>750.4</ele>
        <time>2022-08-29T09:05:06Z</time>
      </trkpt>
      <trkpt lat="42.4353560" lon="-3.0884240">
        <ele>750.4</ele>
        <time>2022-08-29T09:05:07Z</time>
      </trkpt>
      <trkpt lat="42.4353280" lon="-3.0884780">
        <ele>750.6</ele>
        <time>2022-08-29T09:05:08Z</time>
      </trkpt>
      <trkpt lat="42.4352990" lon="-3.0885330">
        <ele>750.4</ele>
        <time>2022-08-29T09:05:09Z</time>
      </trkpt>
      <trkpt lat="42.4352750" lon="-3.0885890">
        <ele>750.4</ele>
        <time>2022-08-29T09:05:10Z</time>
      </trkpt>
      <trkpt lat="42.4352550" lon="-3.0886480">
        <ele>750.4</ele>
        <time>2022-08-29T09:05:11Z</time>
      </trkpt>
      <trkpt lat="42.4352400" lon="-3.0887100">
        <ele>750.6</ele>
        <time>2022-08-29T09:05:12Z</time>
      </trkpt>
      <trkpt lat="42.4352290" lon="-3.0887710">
        <ele>750.4</ele>
        <time>2022-08-29T09:05:13Z</time>
      </trkpt>
      <trkpt lat="42.4352200" lon="-3.0888340">
        <ele>750.4</ele>
        <time>2022-08-29T09:05:14Z</time>
      </trkpt>
      <trkpt lat="42.4352110" lon="-3.0888960">
        <ele>750.4</ele>
        <time>2022-08-29T09:05:15Z</time>
      </trkpt>
      <trkpt lat="42.4352010" lon="-3.0889590">
        <ele>750.2</ele>
        <time>2022-08-29T09:05:16Z</time>
      </trkpt>
      <trkpt lat="42.4351930" lon="-3.0890230">
        <ele>750.2</ele>
        <time>2022-08-29T09:05:17Z</time>
      </trkpt>
      <trkpt lat="42.4351830" lon="-3.0890860">
        <ele>750.2</ele>
        <time>2022-08-29T09:05:18Z</time>
      </trkpt>
      <trkpt lat="42.4351710" lon="-3.0891460">
        <ele>750.2</ele>
        <time>2022-08-29T09:05:19Z</time>
      </trkpt>
      <trkpt lat="42.4351580" lon="-3.0892040">
        <ele>750.0</ele>
        <time>2022-08-29T09:05:20Z</time>
      </trkpt>
      <trkpt lat="42.4351440" lon="-3.0892600">
        <ele>750.0</ele>
        <time>2022-08-29T09:05:21Z</time>
      </trkpt>
      <trkpt lat="42.4351270" lon="-3.0893120">
        <ele>750.0</ele>
        <time>2022-08-29T09:05:22Z</time>
      </trkpt>
      <trkpt lat="42.4351100" lon="-3.0893640">
        <ele>750.2</ele>
        <time>2022-08-29T09:05:23Z</time>
      </trkpt>
      <trkpt lat="42.4350930" lon="-3.0894190">
        <ele>750.0</ele>
        <time>2022-08-29T09:05:24Z</time>
      </trkpt>
      <trkpt lat="42.4350760" lon="-3.0894790">
        <ele>750.0</ele>
        <time>2022-08-29T09:05:25Z</time>
      </trkpt>
      <trkpt lat="42.4350600" lon="-3.0895410">
        <ele>750.0</ele>
        <time>2022-08-29T09:05:26Z</time>
      </trkpt>
      <trkpt lat="42.4350460" lon="-3.0896030">
        <ele>750.0</ele>
        <time>2022-08-29T09:05:27Z</time>
      </trkpt>
      <trkpt lat="42.4350320" lon="-3.0896640">
        <ele>750.0</ele>
        <time>2022-08-29T09:05:28Z</time>
      </trkpt>
      <trkpt lat="42.4350140" lon="-3.0897210">
        <ele>750.2</ele>
        <time>2022-08-29T09:05:29Z</time>
      </trkpt>
      <trkpt lat="42.4349950" lon="-3.0897760">
        <ele>750.0</ele>
        <time>2022-08-29T09:05:30Z</time>
      </trkpt>
      <trkpt lat="42.4349760" lon="-3.0898280">
        <ele>750.0</ele>
        <time>2022-08-29T09:05:31Z</time>
      </trkpt>
      <trkpt lat="42.4349550" lon="-3.0898780">
        <ele>750.0</ele>
        <time>2022-08-29T09:05:32Z</time>
      </trkpt>
      <trkpt lat="42.4349390" lon="-3.0899290">
        <ele>750.2</ele>
        <time>2022-08-29T09:05:33Z</time>
      </trkpt>
      <trkpt lat="42.4349230" lon="-3.0899850">
        <ele>750.2</ele>
        <time>2022-08-29T09:05:34Z</time>
      </trkpt>
      <trkpt lat="42.4349080" lon="-3.0900430">
        <ele>750.2</ele>
        <time>2022-08-29T09:05:35Z</time>
      </trkpt>
      <trkpt lat="42.4348930" lon="-3.0901050">
        <ele>750.2</ele>
        <time>2022-08-29T09:05:36Z</time>
      </trkpt>
      <trkpt lat="42.4348770" lon="-3.0901680">
        <ele>750.0</ele>
        <time>2022-08-29T09:05:37Z</time>
      </trkpt>
      <trkpt lat="42.4348610" lon="-3.0902280">
        <ele>750.2</ele>
        <time>2022-08-29T09:05:38Z</time>
      </trkpt>
      <trkpt lat="42.4348450" lon="-3.0902850">
        <ele>750.0</ele>
        <time>2022-08-29T09:05:39Z</time>
      </trkpt>
      <trkpt lat="42.4348300" lon="-3.0903420">
        <ele>750.0</ele>
        <time>2022-08-29T09:05:40Z</time>
      </trkpt>
      <trkpt lat="42.4348140" lon="-3.0903980">
        <ele>749.8</ele>
        <time>2022-08-29T09:05:41Z</time>
      </trkpt>
      <trkpt lat="42.4348000" lon="-3.0904540">
        <ele>749.8</ele>
        <time>2022-08-29T09:05:42Z</time>
      </trkpt>
      <trkpt lat="42.4347850" lon="-3.0905080">
        <ele>749.8</ele>
        <time>2022-08-29T09:05:43Z</time>
      </trkpt>
      <trkpt lat="42.4347710" lon="-3.0905600">
        <ele>749.8</ele>
        <time>2022-08-29T09:05:44Z</time>
      </trkpt>
      <trkpt lat="42.4347580" lon="-3.0906110">
        <ele>749.8</ele>
        <time>2022-08-29T09:05:45Z</time>
      </trkpt>
      <trkpt lat="42.4347450" lon="-3.0906580">
        <ele>749.8</ele>
        <time>2022-08-29T09:05:46Z</time>
      </trkpt>
      <trkpt lat="42.4347320" lon="-3.0907040">
        <ele>749.8</ele>
        <time>2022-08-29T09:05:47Z</time>
      </trkpt>
      <trkpt lat="42.4347190" lon="-3.0907490">
        <ele>749.8</ele>
        <time>2022-08-29T09:05:48Z</time>
      </trkpt>
      <trkpt lat="42.4347050" lon="-3.0907950">
        <ele>750.0</ele>
        <time>2022-08-29T09:05:49Z</time>
      </trkpt>
      <trkpt lat="42.4346920" lon="-3.0908400">
        <ele>750.0</ele>
        <time>2022-08-29T09:05:50Z</time>
      </trkpt>
      <trkpt lat="42.4346800" lon="-3.0908860">
        <ele>749.8</ele>
        <time>2022-08-29T09:05:51Z</time>
      </trkpt>
      <trkpt lat="42.4346680" lon="-3.0909320">
        <ele>750.0</ele>
        <time>2022-08-29T09:05:52Z</time>
      </trkpt>
      <trkpt lat="42.4346530" lon="-3.0909760">
        <ele>750.0</ele>
        <time>2022-08-29T09:05:53Z</time>
      </trkpt>
      <trkpt lat="42.4346390" lon="-3.0910210">
        <ele>750.2</ele>
        <time>2022-08-29T09:05:54Z</time>
      </trkpt>
      <trkpt lat="42.4346240" lon="-3.0910660">
        <ele>750.2</ele>
        <time>2022-08-29T09:05:55Z</time>
      </trkpt>
      <trkpt lat="42.4346110" lon="-3.0911120">
        <ele>750.4</ele>
        <time>2022-08-29T09:05:56Z</time>
      </trkpt>
      <trkpt lat="42.4345980" lon="-3.0911590">
        <ele>750.6</ele>
        <time>2022-08-29T09:05:57Z</time>
      </trkpt>
      <trkpt lat="42.4345840" lon="-3.0912070">
        <ele>750.6</ele>
        <time>2022-08-29T09:05:58Z</time>
      </trkpt>
      <trkpt lat="42.4345710" lon="-3.0912540">
        <ele>750.8</ele>
        <time>2022-08-29T09:05:59Z</time>
      </trkpt>
      <trkpt lat="42.4345580" lon="-3.0913020">
        <ele>751.0</ele>
        <time>2022-08-29T09:06:00Z</time>
      </trkpt>
      <trkpt lat="42.4345450" lon="-3.0913500">
        <ele>750.8</ele>
        <time>2022-08-29T09:06:01Z</time>
      </trkpt>
      <trkpt lat="42.4345320" lon="-3.0913970">
        <ele>751.0</ele>
        <time>2022-08-29T09:06:02Z</time>
      </trkpt>
      <trkpt lat="42.4345200" lon="-3.0914440">
        <ele>751.2</ele>
        <time>2022-08-29T09:06:03Z</time>
      </trkpt>
      <trkpt lat="42.4345080" lon="-3.0914910">
        <ele>751.2</ele>
        <time>2022-08-29T09:06:04Z</time>
      </trkpt>
      <trkpt lat="42.4344960" lon="-3.0915370">
        <ele>751.4</ele>
        <time>2022-08-29T09:06:05Z</time>
      </trkpt>
      <trkpt lat="42.4344830" lon="-3.0915840">
        <ele>751.4</ele>
        <time>2022-08-29T09:06:06Z</time>
      </trkpt>
      <trkpt lat="42.4344700" lon="-3.0916300">
        <ele>751.2</ele>
        <time>2022-08-29T09:06:07Z</time>
      </trkpt>
      <trkpt lat="42.4344570" lon="-3.0916740">
        <ele>751.4</ele>
        <time>2022-08-29T09:06:08Z</time>
      </trkpt>
      <trkpt lat="42.4344450" lon="-3.0917190">
        <ele>751.4</ele>
        <time>2022-08-29T09:06:09Z</time>
      </trkpt>
      <trkpt lat="42.4344320" lon="-3.0917620">
        <ele>751.6</ele>
        <time>2022-08-29T09:06:10Z</time>
      </trkpt>
      <trkpt lat="42.4344180" lon="-3.0918050">
        <ele>751.6</ele>
        <time>2022-08-29T09:06:11Z</time>
      </trkpt>
      <trkpt lat="42.4344070" lon="-3.0918460">
        <ele>751.6</ele>
        <time>2022-08-29T09:06:12Z</time>
      </trkpt>
      <trkpt lat="42.4343980" lon="-3.0918880">
        <ele>751.8</ele>
        <time>2022-08-29T09:06:13Z</time>
      </trkpt>
      <trkpt lat="42.4343890" lon="-3.0919300">
        <ele>751.6</ele>
        <time>2022-08-29T09:06:14Z</time>
      </trkpt>
      <trkpt lat="42.4343790" lon="-3.0919710">
        <ele>752.0</ele>
        <time>2022-08-29T09:06:15Z</time>
      </trkpt>
      <trkpt lat="42.4343710" lon="-3.0920090">
        <ele>752.0</ele>
        <time>2022-08-29T09:06:16Z</time>
      </trkpt>
      <trkpt lat="42.4343600" lon="-3.0920480">
        <ele>752.2</ele>
        <time>2022-08-29T09:06:17Z</time>
      </trkpt>
      <trkpt lat="42.4343480" lon="-3.0920870">
        <ele>752.4</ele>
        <time>2022-08-29T09:06:18Z</time>
      </trkpt>
      <trkpt lat="42.4343380" lon="-3.0921250">
        <ele>752.6</ele>
        <time>2022-08-29T09:06:19Z</time>
      </trkpt>
      <trkpt lat="42.4343280" lon="-3.0921650">
        <ele>752.6</ele>
        <time>2022-08-29T09:06:20Z</time>
      </trkpt>
      <trkpt lat="42.4343180" lon="-3.0922030">
        <ele>752.8</ele>
        <time>2022-08-29T09:06:21Z</time>
      </trkpt>
      <trkpt lat="42.4343070" lon="-3.0922420">
        <ele>752.8</ele>
        <time>2022-08-29T09:06:22Z</time>
      </trkpt>
      <trkpt lat="42.4342980" lon="-3.0922800">
        <ele>753.0</ele>
        <time>2022-08-29T09:06:23Z</time>
      </trkpt>
      <trkpt lat="42.4342890" lon="-3.0923160">
        <ele>753.0</ele>
        <time>2022-08-29T09:06:24Z</time>
      </trkpt>
      <trkpt lat="42.4342800" lon="-3.0923510">
        <ele>753.2</ele>
        <time>2022-08-29T09:06:25Z</time>
      </trkpt>
      <trkpt lat="42.4342720" lon="-3.0923840">
        <ele>753.4</ele>
        <time>2022-08-29T09:06:26Z</time>
      </trkpt>
      <trkpt lat="42.4342640" lon="-3.0924170">
        <ele>753.6</ele>
        <time>2022-08-29T09:06:27Z</time>
      </trkpt>
      <trkpt lat="42.4342550" lon="-3.0924480">
        <ele>753.6</ele>
        <time>2022-08-29T09:06:28Z</time>
      </trkpt>
      <trkpt lat="42.4342470" lon="-3.0924770">
        <ele>753.8</ele>
        <time>2022-08-29T09:06:29Z</time>
      </trkpt>
      <trkpt lat="42.4342400" lon="-3.0925030">
        <ele>754.2</ele>
        <time>2022-08-29T09:06:30Z</time>
      </trkpt>
      <trkpt lat="42.4342330" lon="-3.0925280">
        <ele>754.4</ele>
        <time>2022-08-29T09:06:31Z</time>
      </trkpt>
      <trkpt lat="42.4342250" lon="-3.0925510">
        <ele>754.6</ele>
        <time>2022-08-29T09:06:32Z</time>
      </trkpt>
      <trkpt lat="42.4342190" lon="-3.0925750">
        <ele>754.8</ele>
        <time>2022-08-29T09:06:33Z</time>
      </trkpt>
      <trkpt lat="42.4342130" lon="-3.0926000">
        <ele>755.0</ele>
        <time>2022-08-29T09:06:34Z</time>
      </trkpt>
      <trkpt lat="42.4342080" lon="-3.0926250">
        <ele>755.4</ele>
        <time>2022-08-29T09:06:35Z</time>
      </trkpt>
      <trkpt lat="42.4342010" lon="-3.0926490">
        <ele>755.6</ele>
        <time>2022-08-29T09:06:36Z</time>
      </trkpt>
      <trkpt lat="42.4341940" lon="-3.0926720">
        <ele>755.6</ele>
        <time>2022-08-29T09:06:37Z</time>
      </trkpt>
      <trkpt lat="42.4341880" lon="-3.0926960">
        <ele>755.6</ele>
        <time>2022-08-29T09:06:38Z</time>
      </trkpt>
      <trkpt lat="42.4341830" lon="-3.0927190">
        <ele>756.0</ele>
        <time>2022-08-29T09:06:39Z</time>
      </trkpt>
      <trkpt lat="42.4341780" lon="-3.0927420">
        <ele>756.2</ele>
        <time>2022-08-29T09:06:40Z</time>
      </trkpt>
      <trkpt lat="42.4341730" lon="-3.0927640">
        <ele>756.2</ele>
        <time>2022-08-29T09:06:41Z</time>
      </trkpt>
      <trkpt lat="42.4341680" lon="-3.0927860">
        <ele>756.4</ele>
        <time>2022-08-29T09:06:42Z</time>
      </trkpt>
      <trkpt lat="42.4341630" lon="-3.0928080">
        <ele>756.6</ele>
        <time>2022-08-29T09:06:43Z</time>
      </trkpt>
      <trkpt lat="42.4341570" lon="-3.0928310">
        <ele>756.6</ele>
        <time>2022-08-29T09:06:44Z</time>
      </trkpt>
      <trkpt lat="42.4341530" lon="-3.0928530">
        <ele>757.0</ele>
        <time>2022-08-29T09:06:45Z</time>
      </trkpt>
      <trkpt lat="42.4341500" lon="-3.0928730">
        <ele>757.2</ele>
        <time>2022-08-29T09:06:46Z</time>
      </trkpt>
      <trkpt lat="42.4341460" lon="-3.0928900">
        <ele>757.4</ele>
        <time>2022-08-29T09:06:47Z</time>
      </trkpt>
      <trkpt lat="42.4341400" lon="-3.0929080">
        <ele>757.6</ele>
        <time>2022-08-29T09:06:48Z</time>
      </trkpt>
      <trkpt lat="42.4341340" lon="-3.0929250">
        <ele>757.8</ele>
        <time>2022-08-29T09:06:49Z</time>
      </trkpt>
      <trkpt lat="42.4341280" lon="-3.0929450">
        <ele>758.0</ele>
        <time>2022-08-29T09:06:50Z</time>
      </trkpt>
      <trkpt lat="42.4341230" lon="-3.0929650">
        <ele>758.0</ele>
        <time>2022-08-29T09:06:51Z</time>
      </trkpt>
      <trkpt lat="42.4341210" lon="-3.0929880">
        <ele>758.4</ele>
        <time>2022-08-29T09:06:52Z</time>
      </trkpt>
      <trkpt lat="42.4341180" lon="-3.0930100">
        <ele>758.6</ele>
        <time>2022-08-29T09:06:53Z</time>
      </trkpt>
      <trkpt lat="42.4341140" lon="-3.0930310">
        <ele>758.6</ele>
        <time>2022-08-29T09:06:54Z</time>
      </trkpt>
      <trkpt lat="42.4341090" lon="-3.0930520">
        <ele>758.8</ele>
        <time>2022-08-29T09:06:55Z</time>
      </trkpt>
      <trkpt lat="42.4341010" lon="-3.0930720">
        <ele>759.0</ele>
        <time>2022-08-29T09:06:56Z</time>
      </trkpt>
      <trkpt lat="42.4340910" lon="-3.0930900">
        <ele>759.2</ele>
        <time>2022-08-29T09:06:57Z</time>
      </trkpt>
      <trkpt lat="42.4340810" lon="-3.0931070">
        <ele>759.4</ele>
        <time>2022-08-29T09:06:58Z</time>
      </trkpt>
      <trkpt lat="42.4340720" lon="-3.0931260">
        <ele>759.6</ele>
        <time>2022-08-29T09:06:59Z</time>
      </trkpt>
      <trkpt lat="42.4340630" lon="-3.0931440">
        <ele>759.8</ele>
        <time>2022-08-29T09:07:00Z</time>
      </trkpt>
      <trkpt lat="42.4340540" lon="-3.0931620">
        <ele>760.0</ele>
        <time>2022-08-29T09:07:01Z</time>
      </trkpt>
      <trkpt lat="42.4340430" lon="-3.0931800">
        <ele>760.0</ele>
        <time>2022-08-29T09:07:02Z</time>
      </trkpt>
      <trkpt lat="42.4340320" lon="-3.0931980">
        <ele>760.2</ele>
        <time>2022-08-29T09:07:03Z</time>
      </trkpt>
      <trkpt lat="42.4340200" lon="-3.0932160">
        <ele>760.2</ele>
        <time>2022-08-29T09:07:04Z</time>
      </trkpt>
      <trkpt lat="42.4340090" lon="-3.0932360">
        <ele>760.6</ele>
        <time>2022-08-29T09:07:05Z</time>
      </trkpt>
      <trkpt lat="42.4339970" lon="-3.0932560">
        <ele>760.6</ele>
        <time>2022-08-29T09:07:06Z</time>
      </trkpt>
      <trkpt lat="42.4339840" lon="-3.0932740">
        <ele>760.6</ele>
        <time>2022-08-29T09:07:07Z</time>
      </trkpt>
      <trkpt lat="42.4339710" lon="-3.0932920">
        <ele>761.0</ele>
        <time>2022-08-29T09:07:08Z</time>
      </trkpt>
      <trkpt lat="42.4339580" lon="-3.0933110">
        <ele>761.2</ele>
        <time>2022-08-29T09:07:09Z</time>
      </trkpt>
      <trkpt lat="42.4339460" lon="-3.0933310">
        <ele>761.2</ele>
        <time>2022-08-29T09:07:10Z</time>
      </trkpt>
      <trkpt lat="42.4339350" lon="-3.0933510">
        <ele>761.4</ele>
        <time>2022-08-29T09:07:11Z</time>
      </trkpt>
      <trkpt lat="42.4339240" lon="-3.0933710">
        <ele>761.6</ele>
        <time>2022-08-29T09:07:12Z</time>
      </trkpt>
      <trkpt lat="42.4339140" lon="-3.0933910">
        <ele>761.6</ele>
        <time>2022-08-29T09:07:13Z</time>
      </trkpt>
      <trkpt lat="42.4339030" lon="-3.0934100">
        <ele>761.6</ele>
        <time>2022-08-29T09:07:14Z</time>
      </trkpt>
      <trkpt lat="42.4338920" lon="-3.0934280">
        <ele>761.6</ele>
        <time>2022-08-29T09:07:15Z</time>
      </trkpt>
      <trkpt lat="42.4338790" lon="-3.0934460">
        <ele>762.0</ele>
        <time>2022-08-29T09:07:16Z</time>
      </trkpt>
      <trkpt lat="42.4338660" lon="-3.0934640">
        <ele>762.0</ele>
        <time>2022-08-29T09:07:17Z</time>
      </trkpt>
      <trkpt lat="42.4338520" lon="-3.0934840">
        <ele>762.0</ele>
        <time>2022-08-29T09:07:18Z</time>
      </trkpt>
      <trkpt lat="42.4338400" lon="-3.0935040">
        <ele>762.2</ele>
        <time>2022-08-29T09:07:19Z</time>
      </trkpt>
      <trkpt lat="42.4338280" lon="-3.0935240">
        <ele>762.4</ele>
        <time>2022-08-29T09:07:20Z</time>
      </trkpt>
      <trkpt lat="42.4338170" lon="-3.0935450">
        <ele>762.6</ele>
        <time>2022-08-29T09:07:21Z</time>
      </trkpt>
      <trkpt lat="42.4338030" lon="-3.0935660">
        <ele>762.6</ele>
        <time>2022-08-29T09:07:22Z</time>
      </trkpt>
      <trkpt lat="42.4337890" lon="-3.0935860">
        <ele>762.8</ele>
        <time>2022-08-29T09:07:23Z</time>
      </trkpt>
      <trkpt lat="42.4337740" lon="-3.0936070">
        <ele>763.0</ele>
        <time>2022-08-29T09:07:24Z</time>
      </trkpt>
      <trkpt lat="42.4337590" lon="-3.0936280">
        <ele>763.0</ele>
        <time>2022-08-29T09:07:25Z</time>
      </trkpt>
      <trkpt lat="42.4337450" lon="-3.0936500">
        <ele>763.0</ele>
        <time>2022-08-29T09:07:26Z</time>
      </trkpt>
      <trkpt lat="42.4337300" lon="-3.0936730">
        <ele>763.2</ele>
        <time>2022-08-29T09:07:27Z</time>
      </trkpt>
      <trkpt lat="42.4337160" lon="-3.0936970">
        <ele>763.4</ele>
        <time>2022-08-29T09:07:28Z</time>
      </trkpt>
      <trkpt lat="42.4337030" lon="-3.0937210">
        <ele>763.4</ele>
        <time>2022-08-29T09:07:29Z</time>
      </trkpt>
      <trkpt lat="42.4336900" lon="-3.0937450">
        <ele>763.6</ele>
        <time>2022-08-29T09:07:30Z</time>
      </trkpt>
      <trkpt lat="42.4336770" lon="-3.0937700">
        <ele>763.6</ele>
        <time>2022-08-29T09:07:31Z</time>
      </trkpt>
      <trkpt lat="42.4336660" lon="-3.0937950">
        <ele>763.6</ele>
        <time>2022-08-29T09:07:32Z</time>
      </trkpt>
      <trkpt lat="42.4336550" lon="-3.0938200">
        <ele>763.8</ele>
        <time>2022-08-29T09:07:33Z</time>
      </trkpt>
      <trkpt lat="42.4336410" lon="-3.0938450">
        <ele>763.8</ele>
        <time>2022-08-29T09:07:34Z</time>
      </trkpt>
      <trkpt lat="42.4336280" lon="-3.0938690">
        <ele>764.0</ele>
        <time>2022-08-29T09:07:35Z</time>
      </trkpt>
      <trkpt lat="42.4336150" lon="-3.0938930">
        <ele>764.0</ele>
        <time>2022-08-29T09:07:36Z</time>
      </trkpt>
      <trkpt lat="42.4336020" lon="-3.0939170">
        <ele>764.2</ele>
        <time>2022-08-29T09:07:37Z</time>
      </trkpt>
      <trkpt lat="42.4335870" lon="-3.0939410">
        <ele>764.4</ele>
        <time>2022-08-29T09:07:38Z</time>
      </trkpt>
      <trkpt lat="42.4335750" lon="-3.0939630">
        <ele>764.4</ele>
        <time>2022-08-29T09:07:39Z</time>
      </trkpt>
      <trkpt lat="42.4335630" lon="-3.0939880">
        <ele>764.6</ele>
        <time>2022-08-29T09:07:40Z</time>
      </trkpt>
      <trkpt lat="42.4335520" lon="-3.0940140">
        <ele>764.8</ele>
        <time>2022-08-29T09:07:41Z</time>
      </trkpt>
      <trkpt lat="42.4335420" lon="-3.0940410">
        <ele>765.0</ele>
        <time>2022-08-29T09:07:42Z</time>
      </trkpt>
      <trkpt lat="42.4335310" lon="-3.0940680">
        <ele>765.0</ele>
        <time>2022-08-29T09:07:43Z</time>
      </trkpt>
      <trkpt lat="42.4335220" lon="-3.0940950">
        <ele>765.2</ele>
        <time>2022-08-29T09:07:44Z</time>
      </trkpt>
      <trkpt lat="42.4335140" lon="-3.0941220">
        <ele>765.2</ele>
        <time>2022-08-29T09:07:45Z</time>
      </trkpt>
      <trkpt lat="42.4335050" lon="-3.0941490">
        <ele>765.2</ele>
        <time>2022-08-29T09:07:46Z</time>
      </trkpt>
      <trkpt lat="42.4334950" lon="-3.0941750">
        <ele>765.4</ele>
        <time>2022-08-29T09:07:47Z</time>
      </trkpt>
      <trkpt lat="42.4334820" lon="-3.0941980">
        <ele>765.4</ele>
        <time>2022-08-29T09:07:48Z</time>
      </trkpt>
      <trkpt lat="42.4334670" lon="-3.0942180">
        <ele>765.4</ele>
        <time>2022-08-29T09:07:49Z</time>
      </trkpt>
      <trkpt lat="42.4334500" lon="-3.0942360">
        <ele>765.4</ele>
        <time>2022-08-29T09:07:50Z</time>
      </trkpt>
      <trkpt lat="42.4334330" lon="-3.0942540">
        <ele>765.4</ele>
        <time>2022-08-29T09:07:51Z</time>
      </trkpt>
      <trkpt lat="42.4334140" lon="-3.0942720">
        <ele>765.6</ele>
        <time>2022-08-29T09:07:52Z</time>
      </trkpt>
      <trkpt lat="42.4333950" lon="-3.0942900">
        <ele>765.6</ele>
        <time>2022-08-29T09:07:53Z</time>
      </trkpt>
      <trkpt lat="42.4333760" lon="-3.0943060">
        <ele>765.8</ele>
        <time>2022-08-29T09:07:54Z</time>
      </trkpt>
      <trkpt lat="42.4333560" lon="-3.0943220">
        <ele>766.0</ele>
        <time>2022-08-29T09:07:55Z</time>
      </trkpt>
      <trkpt lat="42.4333360" lon="-3.0943380">
        <ele>766.0</ele>
        <time>2022-08-29T09:07:56Z</time>
      </trkpt>
      <trkpt lat="42.4333160" lon="-3.0943560">
        <ele>766.2</ele>
        <time>2022-08-29T09:07:57Z</time>
      </trkpt>
      <trkpt lat="42.4332990" lon="-3.0943770">
        <ele>766.2</ele>
        <time>2022-08-29T09:07:58Z</time>
      </trkpt>
      <trkpt lat="42.4332830" lon="-3.0944010">
        <ele>766.2</ele>
        <time>2022-08-29T09:07:59Z</time>
      </trkpt>
      <trkpt lat="42.4332650" lon="-3.0944250">
        <ele>766.2</ele>
        <time>2022-08-29T09:08:00Z</time>
      </trkpt>
      <trkpt lat="42.4332440" lon="-3.0944460">
        <ele>766.4</ele>
        <time>2022-08-29T09:08:01Z</time>
      </trkpt>
      <trkpt lat="42.4332210" lon="-3.0944620">
        <ele>766.4</ele>
        <time>2022-08-29T09:08:02Z</time>
      </trkpt>
      <trkpt lat="42.4331990" lon="-3.0944780">
        <ele>766.6</ele>
        <time>2022-08-29T09:08:03Z</time>
      </trkpt>
      <trkpt lat="42.4331780" lon="-3.0944960">
        <ele>766.8</ele>
        <time>2022-08-29T09:08:04Z</time>
      </trkpt>
      <trkpt lat="42.4331570" lon="-3.0945140">
        <ele>766.8</ele>
        <time>2022-08-29T09:08:05Z</time>
      </trkpt>
      <trkpt lat="42.4331370" lon="-3.0945330">
        <ele>766.6</ele>
        <time>2022-08-29T09:08:06Z</time>
      </trkpt>
      <trkpt lat="42.4331170" lon="-3.0945500">
        <ele>766.8</ele>
        <time>2022-08-29T09:08:07Z</time>
      </trkpt>
      <trkpt lat="42.4330960" lon="-3.0945670">
        <ele>766.8</ele>
        <time>2022-08-29T09:08:08Z</time>
      </trkpt>
      <trkpt lat="42.4330740" lon="-3.0945850">
        <ele>767.0</ele>
        <time>2022-08-29T09:08:09Z</time>
      </trkpt>
      <trkpt lat="42.4330530" lon="-3.0946030">
        <ele>767.0</ele>
        <time>2022-08-29T09:08:10Z</time>
      </trkpt>
      <trkpt lat="42.4330330" lon="-3.0946240">
        <ele>767.0</ele>
        <time>2022-08-29T09:08:11Z</time>
      </trkpt>
      <trkpt lat="42.4330110" lon="-3.0946460">
        <ele>767.4</ele>
        <time>2022-08-29T09:08:12Z</time>
      </trkpt>
      <trkpt lat="42.4329890" lon="-3.0946660">
        <ele>767.4</ele>
        <time>2022-08-29T09:08:13Z</time>
      </trkpt>
      <trkpt lat="42.4329660" lon="-3.0946870">
        <ele>767.4</ele>
        <time>2022-08-29T09:08:14Z</time>
      </trkpt>
      <trkpt lat="42.4329430" lon="-3.0947100">
        <ele>767.4</ele>
        <time>2022-08-29T09:08:15Z</time>
      </trkpt>
      <trkpt lat="42.4329190" lon="-3.0947320">
        <ele>767.6</ele>
        <time>2022-08-29T09:08:16Z</time>
      </trkpt>
      <trkpt lat="42.4328930" lon="-3.0947540">
        <ele>767.8</ele>
        <time>2022-08-29T09:08:17Z</time>
      </trkpt>
      <trkpt lat="42.4328660" lon="-3.0947770">
        <ele>768.0</ele>
        <time>2022-08-29T09:08:18Z</time>
      </trkpt>
      <trkpt lat="42.4328380" lon="-3.0948010">
        <ele>768.0</ele>
        <time>2022-08-29T09:08:19Z</time>
      </trkpt>
      <trkpt lat="42.4328110" lon="-3.0948270">
        <ele>768.2</ele>
        <time>2022-08-29T09:08:20Z</time>
      </trkpt>
      <trkpt lat="42.4327830" lon="-3.0948510">
        <ele>768.2</ele>
        <time>2022-08-29T09:08:21Z</time>
      </trkpt>
      <trkpt lat="42.4327550" lon="-3.0948740">
        <ele>768.6</ele>
        <time>2022-08-29T09:08:22Z</time>
      </trkpt>
      <trkpt lat="42.4327260" lon="-3.0948980">
        <ele>768.6</ele>
        <time>2022-08-29T09:08:23Z</time>
      </trkpt>
      <trkpt lat="42.4326980" lon="-3.0949240">
        <ele>768.8</ele>
        <time>2022-08-29T09:08:24Z</time>
      </trkpt>
      <trkpt lat="42.4326700" lon="-3.0949490">
        <ele>769.0</ele>
        <time>2022-08-29T09:08:25Z</time>
      </trkpt>
      <trkpt lat="42.4326420" lon="-3.0949740">
        <ele>769.0</ele>
        <time>2022-08-29T09:08:26Z</time>
      </trkpt>
      <trkpt lat="42.4326140" lon="-3.0949990">
        <ele>769.0</ele>
        <time>2022-08-29T09:08:27Z</time>
      </trkpt>
      <trkpt lat="42.4325870" lon="-3.0950240">
        <ele>769.0</ele>
        <time>2022-08-29T09:08:28Z</time>
      </trkpt>
      <trkpt lat="42.4325590" lon="-3.0950500">
        <ele>769.0</ele>
        <time>2022-08-29T09:08:29Z</time>
      </trkpt>
      <trkpt lat="42.4325310" lon="-3.0950740">
        <ele>769.2</ele>
        <time>2022-08-29T09:08:30Z</time>
      </trkpt>
      <trkpt lat="42.4325030" lon="-3.0950990">
        <ele>769.4</ele>
        <time>2022-08-29T09:08:31Z</time>
      </trkpt>
      <trkpt lat="42.4324740" lon="-3.0951250">
        <ele>769.4</ele>
        <time>2022-08-29T09:08:32Z</time>
      </trkpt>
      <trkpt lat="42.4324460" lon="-3.0951520">
        <ele>769.6</ele>
        <time>2022-08-29T09:08:33Z</time>
      </trkpt>
      <trkpt lat="42.4324180" lon="-3.0951780">
        <ele>769.6</ele>
        <time>2022-08-29T09:08:34Z</time>
      </trkpt>
      <trkpt lat="42.4323880" lon="-3.0952010">
        <ele>769.8</ele>
        <time>2022-08-29T09:08:35Z</time>
      </trkpt>
      <trkpt lat="42.4323590" lon="-3.0952240">
        <ele>769.8</ele>
        <time>2022-08-29T09:08:36Z</time>
      </trkpt>
      <trkpt lat="42.4323330" lon="-3.0952490">
        <ele>769.8</ele>
        <time>2022-08-29T09:08:37Z</time>
      </trkpt>
      <trkpt lat="42.4323060" lon="-3.0952720">
        <ele>769.8</ele>
        <time>2022-08-29T09:08:38Z</time>
      </trkpt>
      <trkpt lat="42.4322790" lon="-3.0952930">
        <ele>770.0</ele>
        <time>2022-08-29T09:08:39Z</time>
      </trkpt>
      <trkpt lat="42.4322540" lon="-3.0953160">
        <ele>770.2</ele>
        <time>2022-08-29T09:08:40Z</time>
      </trkpt>
      <trkpt lat="42.4322280" lon="-3.0953410">
        <ele>770.2</ele>
        <time>2022-08-29T09:08:41Z</time>
      </trkpt>
      <trkpt lat="42.4322030" lon="-3.0953640">
        <ele>770.4</ele>
        <time>2022-08-29T09:08:42Z</time>
      </trkpt>
      <trkpt lat="42.4321760" lon="-3.0953870">
        <ele>770.6</ele>
        <time>2022-08-29T09:08:43Z</time>
      </trkpt>
      <trkpt lat="42.4321510" lon="-3.0954120">
        <ele>770.6</ele>
        <time>2022-08-29T09:08:44Z</time>
      </trkpt>
      <trkpt lat="42.4321240" lon="-3.0954360">
        <ele>771.0</ele>
        <time>2022-08-29T09:08:45Z</time>
      </trkpt>
      <trkpt lat="42.4320980" lon="-3.0954590">
        <ele>771.2</ele>
        <time>2022-08-29T09:08:46Z</time>
      </trkpt>
      <trkpt lat="42.4320720" lon="-3.0954840">
        <ele>771.2</ele>
        <time>2022-08-29T09:08:47Z</time>
      </trkpt>
      <trkpt lat="42.4320460" lon="-3.0955090">
        <ele>771.4</ele>
        <time>2022-08-29T09:08:48Z</time>
      </trkpt>
      <trkpt lat="42.4320180" lon="-3.0955330">
        <ele>771.8</ele>
        <time>2022-08-29T09:08:49Z</time>
      </trkpt>
      <trkpt lat="42.4319920" lon="-3.0955540">
        <ele>771.8</ele>
        <time>2022-08-29T09:08:50Z</time>
      </trkpt>
      <trkpt lat="42.4319670" lon="-3.0955750">
        <ele>772.0</ele>
        <time>2022-08-29T09:08:51Z</time>
      </trkpt>
      <trkpt lat="42.4319440" lon="-3.0955960">
        <ele>772.2</ele>
        <time>2022-08-29T09:08:52Z</time>
      </trkpt>
      <trkpt lat="42.4319210" lon="-3.0956180">
        <ele>772.2</ele>
        <time>2022-08-29T09:08:53Z</time>
      </trkpt>
      <trkpt lat="42.4318990" lon="-3.0956400">
        <ele>772.2</ele>
        <time>2022-08-29T09:08:54Z</time>
      </trkpt>
      <trkpt lat="42.4318760" lon="-3.0956610">
        <ele>772.4</ele>
        <time>2022-08-29T09:08:55Z</time>
      </trkpt>
      <trkpt lat="42.4318530" lon="-3.0956810">
        <ele>772.6</ele>
        <time>2022-08-29T09:08:56Z</time>
      </trkpt>
      <trkpt lat="42.4318300" lon="-3.0957010">
        <ele>772.6</ele>
        <time>2022-08-29T09:08:57Z</time>
      </trkpt>
      <trkpt lat="42.4318060" lon="-3.0957230">
        <ele>773.0</ele>
        <time>2022-08-29T09:08:58Z</time>
      </trkpt>
      <trkpt lat="42.4317820" lon="-3.0957470">
        <ele>773.2</ele>
        <time>2022-08-29T09:08:59Z</time>
      </trkpt>
      <trkpt lat="42.4317560" lon="-3.0957720">
        <ele>773.4</ele>
        <time>2022-08-29T09:09:00Z</time>
      </trkpt>
      <trkpt lat="42.4317280" lon="-3.0957990">
        <ele>773.6</ele>
        <time>2022-08-29T09:09:01Z</time>
      </trkpt>
      <trkpt lat="42.4317020" lon="-3.0958240">
        <ele>773.8</ele>
        <time>2022-08-29T09:09:02Z</time>
      </trkpt>
      <trkpt lat="42.4316790" lon="-3.0958500">
        <ele>773.8</ele>
        <time>2022-08-29T09:09:03Z</time>
      </trkpt>
      <trkpt lat="42.4316560" lon="-3.0958770">
        <ele>774.0</ele>
        <time>2022-08-29T09:09:04Z</time>
      </trkpt>
      <trkpt lat="42.4316340" lon="-3.0959040">
        <ele>774.2</ele>
        <time>2022-08-29T09:09:05Z</time>
      </trkpt>
      <trkpt lat="42.4316120" lon="-3.0959330">
        <ele>774.2</ele>
        <time>2022-08-29T09:09:06Z</time>
      </trkpt>
      <trkpt lat="42.4315900" lon="-3.0959610">
        <ele>774.4</ele>
        <time>2022-08-29T09:09:07Z</time>
      </trkpt>
      <trkpt lat="42.4315670" lon="-3.0959900">
        <ele>774.4</ele>
        <time>2022-08-29T09:09:08Z</time>
      </trkpt>
      <trkpt lat="42.4315460" lon="-3.0960190">
        <ele>774.8</ele>
        <time>2022-08-29T09:09:09Z</time>
      </trkpt>
      <trkpt lat="42.4315240" lon="-3.0960470">
        <ele>775.0</ele>
        <time>2022-08-29T09:09:10Z</time>
      </trkpt>
      <trkpt lat="42.4315020" lon="-3.0960740">
        <ele>775.0</ele>
        <time>2022-08-29T09:09:11Z</time>
      </trkpt>
      <trkpt lat="42.4314800" lon="-3.0961030">
        <ele>775.2</ele>
        <time>2022-08-29T09:09:12Z</time>
      </trkpt>
      <trkpt lat="42.4314590" lon="-3.0961330">
        <ele>775.6</ele>
        <time>2022-08-29T09:09:13Z</time>
      </trkpt>
      <trkpt lat="42.4314390" lon="-3.0961640">
        <ele>775.8</ele>
        <time>2022-08-29T09:09:14Z</time>
      </trkpt>
      <trkpt lat="42.4314180" lon="-3.0961950">
        <ele>775.8</ele>
        <time>2022-08-29T09:09:15Z</time>
      </trkpt>
      <trkpt lat="42.4313980" lon="-3.0962260">
        <ele>776.0</ele>
        <time>2022-08-29T09:09:16Z</time>
      </trkpt>
      <trkpt lat="42.4313780" lon="-3.0962580">
        <ele>776.2</ele>
        <time>2022-08-29T09:09:17Z</time>
      </trkpt>
      <trkpt lat="42.4313580" lon="-3.0962910">
        <ele>776.6</ele>
        <time>2022-08-29T09:09:18Z</time>
      </trkpt>
      <trkpt lat="42.4313360" lon="-3.0963220">
        <ele>776.8</ele>
        <time>2022-08-29T09:09:19Z</time>
      </trkpt>
      <trkpt lat="42.4313160" lon="-3.0963540">
        <ele>776.8</ele>
        <time>2022-08-29T09:09:20Z</time>
      </trkpt>
      <trkpt lat="42.4312970" lon="-3.0963880">
        <ele>777.0</ele>
        <time>2022-08-29T09:09:21Z</time>
      </trkpt>
      <trkpt lat="42.4312770" lon="-3.0964210">
        <ele>777.0</ele>
        <time>2022-08-29T09:09:22Z</time>
      </trkpt>
      <trkpt lat="42.4312570" lon="-3.0964540">
        <ele>777.0</ele>
        <time>2022-08-29T09:09:23Z</time>
      </trkpt>
      <trkpt lat="42.4312370" lon="-3.0964860">
        <ele>777.2</ele>
        <time>2022-08-29T09:09:24Z</time>
      </trkpt>
      <trkpt lat="42.4312170" lon="-3.0965190">
        <ele>777.2</ele>
        <time>2022-08-29T09:09:25Z</time>
      </trkpt>
      <trkpt lat="42.4311970" lon="-3.0965510">
        <ele>777.2</ele>
        <time>2022-08-29T09:09:26Z</time>
      </trkpt>
      <trkpt lat="42.4311780" lon="-3.0965840">
        <ele>777.2</ele>
        <time>2022-08-29T09:09:27Z</time>
      </trkpt>
      <trkpt lat="42.4311580" lon="-3.0966160">
        <ele>777.4</ele>
        <time>2022-08-29T09:09:28Z</time>
      </trkpt>
      <trkpt lat="42.4311410" lon="-3.0966480">
        <ele>777.6</ele>
        <time>2022-08-29T09:09:29Z</time>
      </trkpt>
      <trkpt lat="42.4311220" lon="-3.0966790">
        <ele>777.6</ele>
        <time>2022-08-29T09:09:30Z</time>
      </trkpt>
      <trkpt lat="42.4311020" lon="-3.0967100">
        <ele>777.8</ele>
        <time>2022-08-29T09:09:31Z</time>
      </trkpt>
      <trkpt lat="42.4310820" lon="-3.0967410">
        <ele>777.8</ele>
        <time>2022-08-29T09:09:32Z</time>
      </trkpt>
      <trkpt lat="42.4310610" lon="-3.0967710">
        <ele>777.8</ele>
        <time>2022-08-29T09:09:33Z</time>
      </trkpt>
      <trkpt lat="42.4310410" lon="-3.0968010">
        <ele>777.8</ele>
        <time>2022-08-29T09:09:34Z</time>
      </trkpt>
      <trkpt lat="42.4310230" lon="-3.0968330">
        <ele>778.0</ele>
        <time>2022-08-29T09:09:35Z</time>
      </trkpt>
      <trkpt lat="42.4310030" lon="-3.0968650">
        <ele>778.0</ele>
        <time>2022-08-29T09:09:36Z</time>
      </trkpt>
      <trkpt lat="42.4309820" lon="-3.0968980">
        <ele>778.2</ele>
        <time>2022-08-29T09:09:37Z</time>
      </trkpt>
      <trkpt lat="42.4309610" lon="-3.0969310">
        <ele>778.2</ele>
        <time>2022-08-29T09:09:38Z</time>
      </trkpt>
      <trkpt lat="42.4309390" lon="-3.0969620">
        <ele>778.4</ele>
        <time>2022-08-29T09:09:39Z</time>
      </trkpt>
      <trkpt lat="42.4309170" lon="-3.0969940">
        <ele>778.2</ele>
        <time>2022-08-29T09:09:40Z</time>
      </trkpt>
      <trkpt lat="42.4308970" lon="-3.0970280">
        <ele>778.4</ele>
        <time>2022-08-29T09:09:41Z</time>
      </trkpt>
      <trkpt lat="42.4308770" lon="-3.0970610">
        <ele>778.6</ele>
        <time>2022-08-29T09:09:42Z</time>
      </trkpt>
      <trkpt lat="42.4308570" lon="-3.0970940">
        <ele>778.8</ele>
        <time>2022-08-29T09:09:43Z</time>
      </trkpt>
      <trkpt lat="42.4308360" lon="-3.0971250">
        <ele>778.6</ele>
        <time>2022-08-29T09:09:44Z</time>
      </trkpt>
      <trkpt lat="42.4308140" lon="-3.0971550">
        <ele>778.6</ele>
        <time>2022-08-29T09:09:45Z</time>
      </trkpt>
      <trkpt lat="42.4307930" lon="-3.0971850">
        <ele>778.8</ele>
        <time>2022-08-29T09:09:46Z</time>
      </trkpt>
      <trkpt lat="42.4307720" lon="-3.0972140">
        <ele>778.8</ele>
        <time>2022-08-29T09:09:47Z</time>
      </trkpt>
      <trkpt lat="42.4307500" lon="-3.0972420">
        <ele>779.0</ele>
        <time>2022-08-29T09:09:48Z</time>
      </trkpt>
      <trkpt lat="42.4307290" lon="-3.0972720">
        <ele>779.0</ele>
        <time>2022-08-29T09:09:49Z</time>
      </trkpt>
      <trkpt lat="42.4307090" lon="-3.0973030">
        <ele>779.2</ele>
        <time>2022-08-29T09:09:50Z</time>
      </trkpt>
      <trkpt lat="42.4306900" lon="-3.0973350">
        <ele>779.2</ele>
        <time>2022-08-29T09:09:51Z</time>
      </trkpt>
      <trkpt lat="42.4306690" lon="-3.0973670">
        <ele>779.2</ele>
        <time>2022-08-29T09:09:52Z</time>
      </trkpt>
      <trkpt lat="42.4306470" lon="-3.0973970">
        <ele>779.2</ele>
        <time>2022-08-29T09:09:53Z</time>
      </trkpt>
      <trkpt lat="42.4306240" lon="-3.0974260">
        <ele>779.4</ele>
        <time>2022-08-29T09:09:54Z</time>
      </trkpt>
      <trkpt lat="42.4306000" lon="-3.0974550">
        <ele>779.4</ele>
        <time>2022-08-29T09:09:55Z</time>
      </trkpt>
      <trkpt lat="42.4305770" lon="-3.0974840">
        <ele>779.6</ele>
        <time>2022-08-29T09:09:56Z</time>
      </trkpt>
      <trkpt lat="42.4305530" lon="-3.0975130">
        <ele>779.6</ele>
        <time>2022-08-29T09:09:57Z</time>
      </trkpt>
      <trkpt lat="42.4305300" lon="-3.0975410">
        <ele>779.6</ele>
        <time>2022-08-29T09:09:58Z</time>
      </trkpt>
      <trkpt lat="42.4305080" lon="-3.0975720">
        <ele>779.6</ele>
        <time>2022-08-29T09:09:59Z</time>
      </trkpt>
      <trkpt lat="42.4304860" lon="-3.0976040">
        <ele>779.8</ele>
        <time>2022-08-29T09:10:00Z</time>
      </trkpt>
      <trkpt lat="42.4304630" lon="-3.0976340">
        <ele>779.8</ele>
        <time>2022-08-29T09:10:01Z</time>
      </trkpt>
      <trkpt lat="42.4304380" lon="-3.0976620">
        <ele>779.8</ele>
        <time>2022-08-29T09:10:02Z</time>
      </trkpt>
      <trkpt lat="42.4304120" lon="-3.0976900">
        <ele>780.0</ele>
        <time>2022-08-29T09:10:03Z</time>
      </trkpt>
      <trkpt lat="42.4303860" lon="-3.0977180">
        <ele>780.0</ele>
        <time>2022-08-29T09:10:04Z</time>
      </trkpt>
      <trkpt lat="42.4303600" lon="-3.0977470">
        <ele>780.0</ele>
        <time>2022-08-29T09:10:05Z</time>
      </trkpt>
      <trkpt lat="42.4303350" lon="-3.0977770">
        <ele>780.2</ele>
        <time>2022-08-29T09:10:06Z</time>
      </trkpt>
      <trkpt lat="42.4303110" lon="-3.0978050">
        <ele>780.4</ele>
        <time>2022-08-29T09:10:07Z</time>
      </trkpt>
      <trkpt lat="42.4302870" lon="-3.0978340">
        <ele>780.4</ele>
        <time>2022-08-29T09:10:08Z</time>
      </trkpt>
      <trkpt lat="42.4302630" lon="-3.0978630">
        <ele>780.4</ele>
        <time>2022-08-29T09:10:09Z</time>
      </trkpt>
      <trkpt lat="42.4302390" lon="-3.0978930">
        <ele>780.4</ele>
        <time>2022-08-29T09:10:10Z</time>
      </trkpt>
      <trkpt lat="42.4302150" lon="-3.0979220">
        <ele>780.4</ele>
        <time>2022-08-29T09:10:11Z</time>
      </trkpt>
      <trkpt lat="42.4301900" lon="-3.0979510">
        <ele>780.6</ele>
        <time>2022-08-29T09:10:12Z</time>
      </trkpt>
      <trkpt lat="42.4301650" lon="-3.0979790">
        <ele>780.6</ele>
        <time>2022-08-29T09:10:13Z</time>
      </trkpt>
      <trkpt lat="42.4301410" lon="-3.0980060">
        <ele>780.8</ele>
        <time>2022-08-29T09:10:14Z</time>
      </trkpt>
      <trkpt lat="42.4301160" lon="-3.0980300">
        <ele>780.8</ele>
        <time>2022-08-29T09:10:15Z</time>
      </trkpt>
      <trkpt lat="42.4300910" lon="-3.0980560">
        <ele>780.8</ele>
        <time>2022-08-29T09:10:16Z</time>
      </trkpt>
      <trkpt lat="42.4300670" lon="-3.0980810">
        <ele>780.8</ele>
        <time>2022-08-29T09:10:17Z</time>
      </trkpt>
      <trkpt lat="42.4300420" lon="-3.0981050">
        <ele>781.2</ele>
        <time>2022-08-29T09:10:18Z</time>
      </trkpt>
      <trkpt lat="42.4300160" lon="-3.0981290">
        <ele>781.0</ele>
        <time>2022-08-29T09:10:19Z</time>
      </trkpt>
      <trkpt lat="42.4299880" lon="-3.0981500">
        <ele>781.2</ele>
        <time>2022-08-29T09:10:20Z</time>
      </trkpt>
      <trkpt lat="42.4299600" lon="-3.0981700">
        <ele>781.0</ele>
        <time>2022-08-29T09:10:21Z</time>
      </trkpt>
      <trkpt lat="42.4299310" lon="-3.0981890">
        <ele>781.0</ele>
        <time>2022-08-29T09:10:22Z</time>
      </trkpt>
      <trkpt lat="42.4299010" lon="-3.0982060">
        <ele>781.2</ele>
        <time>2022-08-29T09:10:23Z</time>
      </trkpt>
      <trkpt lat="42.4298690" lon="-3.0982190">
        <ele>781.2</ele>
        <time>2022-08-29T09:10:24Z</time>
      </trkpt>
      <trkpt lat="42.4298370" lon="-3.0982290">
        <ele>781.2</ele>
        <time>2022-08-29T09:10:25Z</time>
      </trkpt>
      <trkpt lat="42.4298050" lon="-3.0982380">
        <ele>781.4</ele>
        <time>2022-08-29T09:10:26Z</time>
      </trkpt>
      <trkpt lat="42.4297740" lon="-3.0982480">
        <ele>781.6</ele>
        <time>2022-08-29T09:10:27Z</time>
      </trkpt>
      <trkpt lat="42.4297430" lon="-3.0982600">
        <ele>781.8</ele>
        <time>2022-08-29T09:10:28Z</time>
      </trkpt>
      <trkpt lat="42.4297130" lon="-3.0982720">
        <ele>781.8</ele>
        <time>2022-08-29T09:10:29Z</time>
      </trkpt>
      <trkpt lat="42.4296820" lon="-3.0982830">
        <ele>781.8</ele>
        <time>2022-08-29T09:10:30Z</time>
      </trkpt>
      <trkpt lat="42.4296510" lon="-3.0982930">
        <ele>782.0</ele>
        <time>2022-08-29T09:10:31Z</time>
      </trkpt>
      <trkpt lat="42.4296200" lon="-3.0983030">
        <ele>782.0</ele>
        <time>2022-08-29T09:10:32Z</time>
      </trkpt>
      <trkpt lat="42.4295890" lon="-3.0983130">
        <ele>782.0</ele>
        <time>2022-08-29T09:10:33Z</time>
      </trkpt>
      <trkpt lat="42.4295580" lon="-3.0983210">
        <ele>782.0</ele>
        <time>2022-08-29T09:10:34Z</time>
      </trkpt>
      <trkpt lat="42.4295260" lon="-3.0983290">
        <ele>782.0</ele>
        <time>2022-08-29T09:10:35Z</time>
      </trkpt>
      <trkpt lat="42.4294950" lon="-3.0983350">
        <ele>782.2</ele>
        <time>2022-08-29T09:10:36Z</time>
      </trkpt>
      <trkpt lat="42.4294640" lon="-3.0983440">
        <ele>782.4</ele>
        <time>2022-08-29T09:10:37Z</time>
      </trkpt>
      <trkpt lat="42.4294330" lon="-3.0983540">
        <ele>782.6</ele>
        <time>2022-08-29T09:10:38Z</time>
      </trkpt>
      <trkpt lat="42.4294020" lon="-3.0983630">
        <ele>782.6</ele>
        <time>2022-08-29T09:10:39Z</time>
      </trkpt>
      <trkpt lat="42.4293700" lon="-3.0983700">
        <ele>782.8</ele>
        <time>2022-08-29T09:10:40Z</time>
      </trkpt>
      <trkpt lat="42.4293370" lon="-3.0983770">
        <ele>782.8</ele>
        <time>2022-08-29T09:10:41Z</time>
      </trkpt>
      <trkpt lat="42.4293040" lon="-3.0983850">
        <ele>783.0</ele>
        <time>2022-08-29T09:10:42Z</time>
      </trkpt>
      <trkpt lat="42.4292710" lon="-3.0983950">
        <ele>783.0</ele>
        <time>2022-08-29T09:10:43Z</time>
      </trkpt>
      <trkpt lat="42.4292380" lon="-3.0984040">
        <ele>783.0</ele>
        <time>2022-08-29T09:10:44Z</time>
      </trkpt>
      <trkpt lat="42.4292060" lon="-3.0984130">
        <ele>783.2</ele>
        <time>2022-08-29T09:10:45Z</time>
      </trkpt>
      <trkpt lat="42.4291730" lon="-3.0984210">
        <ele>783.2</ele>
        <time>2022-08-29T09:10:46Z</time>
      </trkpt>
      <trkpt lat="42.4291400" lon="-3.0984290">
        <ele>783.2</ele>
        <time>2022-08-29T09:10:47Z</time>
      </trkpt>
      <trkpt lat="42.4291070" lon="-3.0984370">
        <ele>783.2</ele>
        <time>2022-08-29T09:10:48Z</time>
      </trkpt>
      <trkpt lat="42.4290720" lon="-3.0984450">
        <ele>783.4</ele>
        <time>2022-08-29T09:10:49Z</time>
      </trkpt>
      <trkpt lat="42.4290380" lon="-3.0984530">
        <ele>783.4</ele>
        <time>2022-08-29T09:10:50Z</time>
      </trkpt>
      <trkpt lat="42.4290040" lon="-3.0984640">
        <ele>783.6</ele>
        <time>2022-08-29T09:10:51Z</time>
      </trkpt>
      <trkpt lat="42.4289690" lon="-3.0984740">
        <ele>783.4</ele>
        <time>2022-08-29T09:10:52Z</time>
      </trkpt>
      <trkpt lat="42.4289340" lon="-3.0984820">
        <ele>783.6</ele>
        <time>2022-08-29T09:10:53Z</time>
      </trkpt>
      <trkpt lat="42.4288990" lon="-3.0984910">
        <ele>783.4</ele>
        <time>2022-08-29T09:10:54Z</time>
      </trkpt>
      <trkpt lat="42.4288630" lon="-3.0985000">
        <ele>783.6</ele>
        <time>2022-08-29T09:10:55Z</time>
      </trkpt>
      <trkpt lat="42.4288280" lon="-3.0985070">
        <ele>783.6</ele>
        <time>2022-08-29T09:10:56Z</time>
      </trkpt>
      <trkpt lat="42.4287920" lon="-3.0985150">
        <ele>783.8</ele>
        <time>2022-08-29T09:10:57Z</time>
      </trkpt>
      <trkpt lat="42.4287560" lon="-3.0985220">
        <ele>783.8</ele>
        <time>2022-08-29T09:10:58Z</time>
      </trkpt>
      <trkpt lat="42.4287230" lon="-3.0985310">
        <ele>783.8</ele>
        <time>2022-08-29T09:10:59Z</time>
      </trkpt>
      <trkpt lat="42.4286910" lon="-3.0985410">
        <ele>783.8</ele>
        <time>2022-08-29T09:11:00Z</time>
      </trkpt>
      <trkpt lat="42.4286590" lon="-3.0985490">
        <ele>784.0</ele>
        <time>2022-08-29T09:11:01Z</time>
      </trkpt>
      <trkpt lat="42.4286270" lon="-3.0985550">
        <ele>784.0</ele>
        <time>2022-08-29T09:11:02Z</time>
      </trkpt>
      <trkpt lat="42.4285920" lon="-3.0985620">
        <ele>784.2</ele>
        <time>2022-08-29T09:11:03Z</time>
      </trkpt>
      <trkpt lat="42.4285570" lon="-3.0985710">
        <ele>784.2</ele>
        <time>2022-08-29T09:11:04Z</time>
      </trkpt>
      <trkpt lat="42.4285200" lon="-3.0985830">
        <ele>784.0</ele>
        <time>2022-08-29T09:11:05Z</time>
      </trkpt>
      <trkpt lat="42.4284820" lon="-3.0985930">
        <ele>784.0</ele>
        <time>2022-08-29T09:11:06Z</time>
      </trkpt>
      <trkpt lat="42.4284430" lon="-3.0986010">
        <ele>784.2</ele>
        <time>2022-08-29T09:11:07Z</time>
      </trkpt>
      <trkpt lat="42.4284030" lon="-3.0986100">
        <ele>784.2</ele>
        <time>2022-08-29T09:11:08Z</time>
      </trkpt>
      <trkpt lat="42.4283630" lon="-3.0986190">
        <ele>784.2</ele>
        <time>2022-08-29T09:11:09Z</time>
      </trkpt>
      <trkpt lat="42.4283230" lon="-3.0986270">
        <ele>784.2</ele>
        <time>2022-08-29T09:11:10Z</time>
      </trkpt>
      <trkpt lat="42.4282820" lon="-3.0986330">
        <ele>784.4</ele>
        <time>2022-08-29T09:11:11Z</time>
      </trkpt>
      <trkpt lat="42.4282410" lon="-3.0986360">
        <ele>784.2</ele>
        <time>2022-08-29T09:11:12Z</time>
      </trkpt>
      <trkpt lat="42.4282030" lon="-3.0986430">
        <ele>784.4</ele>
        <time>2022-08-29T09:11:13Z</time>
      </trkpt>
      <trkpt lat="42.4281650" lon="-3.0986550">
        <ele>784.2</ele>
        <time>2022-08-29T09:11:14Z</time>
      </trkpt>
      <trkpt lat="42.4281270" lon="-3.0986670">
        <ele>784.4</ele>
        <time>2022-08-29T09:11:15Z</time>
      </trkpt>
      <trkpt lat="42.4280860" lon="-3.0986820">
        <ele>784.4</ele>
        <time>2022-08-29T09:11:16Z</time>
      </trkpt>
      <trkpt lat="42.4280460" lon="-3.0987000">
        <ele>784.4</ele>
        <time>2022-08-29T09:11:17Z</time>
      </trkpt>
      <trkpt lat="42.4280060" lon="-3.0987200">
        <ele>784.4</ele>
        <time>2022-08-29T09:11:18Z</time>
      </trkpt>
      <trkpt lat="42.4279660" lon="-3.0987430">
        <ele>784.6</ele>
        <time>2022-08-29T09:11:19Z</time>
      </trkpt>
      <trkpt lat="42.4279280" lon="-3.0987670">
        <ele>784.4</ele>
        <time>2022-08-29T09:11:20Z</time>
      </trkpt>
      <trkpt lat="42.4278920" lon="-3.0987910">
        <ele>784.4</ele>
        <time>2022-08-29T09:11:21Z</time>
      </trkpt>
      <trkpt lat="42.4278580" lon="-3.0988190">
        <ele>784.4</ele>
        <time>2022-08-29T09:11:22Z</time>
      </trkpt>
      <trkpt lat="42.4278230" lon="-3.0988460">
        <ele>784.4</ele>
        <time>2022-08-29T09:11:23Z</time>
      </trkpt>
      <trkpt lat="42.4277870" lon="-3.0988740">
        <ele>784.4</ele>
        <time>2022-08-29T09:11:24Z</time>
      </trkpt>
      <trkpt lat="42.4277510" lon="-3.0989020">
        <ele>784.4</ele>
        <time>2022-08-29T09:11:25Z</time>
      </trkpt>
      <trkpt lat="42.4277140" lon="-3.0989320">
        <ele>784.4</ele>
        <time>2022-08-29T09:11:26Z</time>
      </trkpt>
      <trkpt lat="42.4276770" lon="-3.0989630">
        <ele>784.4</ele>
        <time>2022-08-29T09:11:27Z</time>
      </trkpt>
      <trkpt lat="42.4276410" lon="-3.0989930">
        <ele>784.4</ele>
        <time>2022-08-29T09:11:28Z</time>
      </trkpt>
      <trkpt lat="42.4276040" lon="-3.0990230">
        <ele>784.4</ele>
        <time>2022-08-29T09:11:29Z</time>
      </trkpt>
      <trkpt lat="42.4275670" lon="-3.0990530">
        <ele>784.4</ele>
        <time>2022-08-29T09:11:30Z</time>
      </trkpt>
      <trkpt lat="42.4275310" lon="-3.0990830">
        <ele>784.6</ele>
        <time>2022-08-29T09:11:31Z</time>
      </trkpt>
      <trkpt lat="42.4274960" lon="-3.0991120">
        <ele>784.4</ele>
        <time>2022-08-29T09:11:32Z</time>
      </trkpt>
      <trkpt lat="42.4274640" lon="-3.0991420">
        <ele>784.6</ele>
        <time>2022-08-29T09:11:33Z</time>
      </trkpt>
      <trkpt lat="42.4274340" lon="-3.0991730">
        <ele>784.6</ele>
        <time>2022-08-29T09:11:34Z</time>
      </trkpt>
      <trkpt lat="42.4274050" lon="-3.0992030">
        <ele>784.6</ele>
        <time>2022-08-29T09:11:35Z</time>
      </trkpt>
      <trkpt lat="42.4273770" lon="-3.0992310">
        <ele>784.6</ele>
        <time>2022-08-29T09:11:36Z</time>
      </trkpt>
      <trkpt lat="42.4273510" lon="-3.0992590">
        <ele>784.6</ele>
        <time>2022-08-29T09:11:37Z</time>
      </trkpt>
      <trkpt lat="42.4273280" lon="-3.0992880">
        <ele>784.8</ele>
        <time>2022-08-29T09:11:38Z</time>
      </trkpt>
      <trkpt lat="42.4273050" lon="-3.0993160">
        <ele>784.6</ele>
        <time>2022-08-29T09:11:39Z</time>
      </trkpt>
      <trkpt lat="42.4272810" lon="-3.0993440">
        <ele>784.8</ele>
        <time>2022-08-29T09:11:40Z</time>
      </trkpt>
      <trkpt lat="42.4272580" lon="-3.0993700">
        <ele>784.8</ele>
        <time>2022-08-29T09:11:41Z</time>
      </trkpt>
      <trkpt lat="42.4272360" lon="-3.0993970">
        <ele>784.8</ele>
        <time>2022-08-29T09:11:42Z</time>
      </trkpt>
      <trkpt lat="42.4272130" lon="-3.0994250">
        <ele>785.4</ele>
        <time>2022-08-29T09:11:43Z</time>
      </trkpt>
      <trkpt lat="42.4271900" lon="-3.0994550">
        <ele>785.6</ele>
        <time>2022-08-29T09:11:44Z</time>
      </trkpt>
      <trkpt lat="42.4271690" lon="-3.0994870">
        <ele>785.6</ele>
        <time>2022-08-29T09:11:45Z</time>
      </trkpt>
      <trkpt lat="42.4271530" lon="-3.0995230">
        <ele>785.8</ele>
        <time>2022-08-29T09:11:46Z</time>
      </trkpt>
      <trkpt lat="42.4271350" lon="-3.0995610">
        <ele>786.0</ele>
        <time>2022-08-29T09:11:47Z</time>
      </trkpt>
      <trkpt lat="42.4271160" lon="-3.0995990">
        <ele>786.4</ele>
        <time>2022-08-29T09:11:48Z</time>
      </trkpt>
      <trkpt lat="42.4270940" lon="-3.0996350">
        <ele>786.6</ele>
        <time>2022-08-29T09:11:49Z</time>
      </trkpt>
      <trkpt lat="42.4270730" lon="-3.0996670">
        <ele>786.8</ele>
        <time>2022-08-29T09:11:50Z</time>
      </trkpt>
      <trkpt lat="42.4270550" lon="-3.0996970">
        <ele>786.8</ele>
        <time>2022-08-29T09:11:51Z</time>
      </trkpt>
      <trkpt lat="42.4270400" lon="-3.0997270">
        <ele>787.0</ele>
        <time>2022-08-29T09:11:52Z</time>
      </trkpt>
      <trkpt lat="42.4270310" lon="-3.0997590">
        <ele>787.2</ele>
        <time>2022-08-29T09:11:53Z</time>
      </trkpt>
      <trkpt lat="42.4270250" lon="-3.0997970">
        <ele>787.4</ele>
        <time>2022-08-29T09:11:54Z</time>
      </trkpt>
      <trkpt lat="42.4270170" lon="-3.0998390">
        <ele>787.4</ele>
        <time>2022-08-29T09:11:55Z</time>
      </trkpt>
      <trkpt lat="42.4270080" lon="-3.0998820">
        <ele>787.4</ele>
        <time>2022-08-29T09:11:56Z</time>
      </trkpt>
      <trkpt lat="42.4269970" lon="-3.0999230">
        <ele>787.6</ele>
        <time>2022-08-29T09:11:57Z</time>
      </trkpt>
      <trkpt lat="42.4269830" lon="-3.0999650">
        <ele>787.4</ele>
        <time>2022-08-29T09:11:58Z</time>
      </trkpt>
      <trkpt lat="42.4269650" lon="-3.1000050">
        <ele>787.6</ele>
        <time>2022-08-29T09:11:59Z</time>
      </trkpt>
      <trkpt lat="42.4269460" lon="-3.1000420">
        <ele>788.0</ele>
        <time>2022-08-29T09:12:00Z</time>
      </trkpt>
      <trkpt lat="42.4269250" lon="-3.1000770">
        <ele>788.0</ele>
        <time>2022-08-29T09:12:01Z</time>
      </trkpt>
      <trkpt lat="42.4269040" lon="-3.1001120">
        <ele>788.2</ele>
        <time>2022-08-29T09:12:02Z</time>
      </trkpt>
      <trkpt lat="42.4268830" lon="-3.1001470">
        <ele>788.4</ele>
        <time>2022-08-29T09:12:03Z</time>
      </trkpt>
      <trkpt lat="42.4268600" lon="-3.1001840">
        <ele>788.4</ele>
        <time>2022-08-29T09:12:04Z</time>
      </trkpt>
      <trkpt lat="42.4268370" lon="-3.1002220">
        <ele>788.4</ele>
        <time>2022-08-29T09:12:05Z</time>
      </trkpt>
      <trkpt lat="42.4268130" lon="-3.1002620">
        <ele>788.4</ele>
        <time>2022-08-29T09:12:06Z</time>
      </trkpt>
      <trkpt lat="42.4267890" lon="-3.1003020">
        <ele>788.4</ele>
        <time>2022-08-29T09:12:07Z</time>
      </trkpt>
      <trkpt lat="42.4267640" lon="-3.1003420">
        <ele>788.4</ele>
        <time>2022-08-29T09:12:08Z</time>
      </trkpt>
      <trkpt lat="42.4267400" lon="-3.1003820">
        <ele>788.6</ele>
        <time>2022-08-29T09:12:09Z</time>
      </trkpt>
      <trkpt lat="42.4267160" lon="-3.1004220">
        <ele>788.8</ele>
        <time>2022-08-29T09:12:10Z</time>
      </trkpt>
      <trkpt lat="42.4266910" lon="-3.1004630">
        <ele>788.6</ele>
        <time>2022-08-29T09:12:11Z</time>
      </trkpt>
      <trkpt lat="42.4266660" lon="-3.1005030">
        <ele>788.8</ele>
        <time>2022-08-29T09:12:12Z</time>
      </trkpt>
      <trkpt lat="42.4266400" lon="-3.1005420">
        <ele>789.0</ele>
        <time>2022-08-29T09:12:13Z</time>
      </trkpt>
      <trkpt lat="42.4266140" lon="-3.1005790">
        <ele>789.0</ele>
        <time>2022-08-29T09:12:14Z</time>
      </trkpt>
      <trkpt lat="42.4265860" lon="-3.1006130">
        <ele>789.2</ele>
        <time>2022-08-29T09:12:15Z</time>
      </trkpt>
      <trkpt lat="42.4265580" lon="-3.1006450">
        <ele>789.2</ele>
        <time>2022-08-29T09:12:16Z</time>
      </trkpt>
      <trkpt lat="42.4265340" lon="-3.1006800">
        <ele>789.0</ele>
        <time>2022-08-29T09:12:17Z</time>
      </trkpt>
      <trkpt lat="42.4265090" lon="-3.1007140">
        <ele>789.2</ele>
        <time>2022-08-29T09:12:18Z</time>
      </trkpt>
      <trkpt lat="42.4264840" lon="-3.1007460">
        <ele>789.0</ele>
        <time>2022-08-29T09:12:19Z</time>
      </trkpt>
      <trkpt lat="42.4264590" lon="-3.1007770">
        <ele>789.0</ele>
        <time>2022-08-29T09:12:20Z</time>
      </trkpt>
      <trkpt lat="42.4264350" lon="-3.1008050">
        <ele>789.2</ele>
        <time>2022-08-29T09:12:21Z</time>
      </trkpt>
      <trkpt lat="42.4264130" lon="-3.1008330">
        <ele>789.4</ele>
        <time>2022-08-29T09:12:22Z</time>
      </trkpt>
      <trkpt lat="42.4263910" lon="-3.1008630">
        <ele>789.2</ele>
        <time>2022-08-29T09:12:23Z</time>
      </trkpt>
      <trkpt lat="42.4263700" lon="-3.1008910">
        <ele>789.2</ele>
        <time>2022-08-29T09:12:24Z</time>
      </trkpt>
      <trkpt lat="42.4263500" lon="-3.1009170">
        <ele>789.4</ele>
        <time>2022-08-29T09:12:25Z</time>
      </trkpt>
      <trkpt lat="42.4263310" lon="-3.1009460">
        <ele>789.6</ele>
        <time>2022-08-29T09:12:26Z</time>
      </trkpt>
      <trkpt lat="42.4263140" lon="-3.1009760">
        <ele>789.8</ele>
        <time>2022-08-29T09:12:27Z</time>
      </trkpt>
      <trkpt lat="42.4262980" lon="-3.1010060">
        <ele>790.2</ele>
        <time>2022-08-29T09:12:28Z</time>
      </trkpt>
      <trkpt lat="42.4262820" lon="-3.1010350">
        <ele>790.2</ele>
        <time>2022-08-29T09:12:29Z</time>
      </trkpt>
      <trkpt lat="42.4262670" lon="-3.1010640">
        <ele>790.4</ele>
        <time>2022-08-29T09:12:30Z</time>
      </trkpt>
      <trkpt lat="42.4262520" lon="-3.1010940">
        <ele>790.4</ele>
        <time>2022-08-29T09:12:31Z</time>
      </trkpt>
      <trkpt lat="42.4262370" lon="-3.1011230">
        <ele>790.8</ele>
        <time>2022-08-29T09:12:32Z</time>
      </trkpt>
      <trkpt lat="42.4262180" lon="-3.1011520">
        <ele>791.2</ele>
        <time>2022-08-29T09:12:33Z</time>
      </trkpt>
      <trkpt lat="42.4261990" lon="-3.1011830">
        <ele>791.4</ele>
        <time>2022-08-29T09:12:34Z</time>
      </trkpt>
      <trkpt lat="42.4261800" lon="-3.1012160">
        <ele>791.6</ele>
        <time>2022-08-29T09:12:35Z</time>
      </trkpt>
      <trkpt lat="42.4261620" lon="-3.1012510">
        <ele>791.8</ele>
        <time>2022-08-29T09:12:36Z</time>
      </trkpt>
      <trkpt lat="42.4261470" lon="-3.1012820">
        <ele>791.8</ele>
        <time>2022-08-29T09:12:37Z</time>
      </trkpt>
      <trkpt lat="42.4261350" lon="-3.1013130">
        <ele>792.2</ele>
        <time>2022-08-29T09:12:38Z</time>
      </trkpt>
      <trkpt lat="42.4261250" lon="-3.1013420">
        <ele>792.2</ele>
        <time>2022-08-29T09:12:39Z</time>
      </trkpt>
      <trkpt lat="42.4261160" lon="-3.1013640">
        <ele>792.4</ele>
        <time>2022-08-29T09:12:40Z</time>
      </trkpt>
      <trkpt lat="42.4261070" lon="-3.1013790">
        <ele>792.4</ele>
        <time>2022-08-29T09:12:41Z</time>
      </trkpt>
      <trkpt lat="42.4260990" lon="-3.1013880">
        <ele>792.4</ele>
        <time>2022-08-29T09:12:42Z</time>
      </trkpt>
      <trkpt lat="42.4260940" lon="-3.1013920">
        <ele>792.4</ele>
        <time>2022-08-29T09:12:43Z</time>
      </trkpt>
      <trkpt lat="42.4260870" lon="-3.1014000">
        <ele>792.4</ele>
        <time>2022-08-29T09:12:44Z</time>
      </trkpt>
      <trkpt lat="42.4260820" lon="-3.1014120">
        <ele>792.8</ele>
        <time>2022-08-29T09:12:45Z</time>
      </trkpt>
      <trkpt lat="42.4260770" lon="-3.1014260">
        <ele>792.8</ele>
        <time>2022-08-29T09:12:46Z</time>
      </trkpt>
      <trkpt lat="42.4260750" lon="-3.1014440">
        <ele>793.0</ele>
        <time>2022-08-29T09:12:47Z</time>
      </trkpt>
      <trkpt lat="42.4260770" lon="-3.1014620">
        <ele>793.4</ele>
        <time>2022-08-29T09:12:48Z</time>
      </trkpt>
      <trkpt lat="42.4260820" lon="-3.1014800">
        <ele>793.4</ele>
        <time>2022-08-29T09:12:49Z</time>
      </trkpt>
      <trkpt lat="42.4260870" lon="-3.1014990">
        <ele>793.6</ele>
        <time>2022-08-29T09:12:50Z</time>
      </trkpt>
      <trkpt lat="42.4260870" lon="-3.1015220">
        <ele>793.8</ele>
        <time>2022-08-29T09:12:51Z</time>
      </trkpt>
      <trkpt lat="42.4260830" lon="-3.1015470">
        <ele>793.6</ele>
        <time>2022-08-29T09:12:52Z</time>
      </trkpt>
      <trkpt lat="42.4260750" lon="-3.1015710">
        <ele>793.8</ele>
        <time>2022-08-29T09:12:53Z</time>
      </trkpt>
      <trkpt lat="42.4260660" lon="-3.1015940">
        <ele>794.0</ele>
        <time>2022-08-29T09:12:54Z</time>
      </trkpt>
      <trkpt lat="42.4260570" lon="-3.1016140">
        <ele>794.0</ele>
        <time>2022-08-29T09:12:55Z</time>
      </trkpt>
      <trkpt lat="42.4260440" lon="-3.1016320">
        <ele>794.0</ele>
        <time>2022-08-29T09:12:56Z</time>
      </trkpt>
      <trkpt lat="42.4260320" lon="-3.1016470">
        <ele>794.2</ele>
        <time>2022-08-29T09:12:57Z</time>
      </trkpt>
      <trkpt lat="42.4260190" lon="-3.1016640">
        <ele>794.2</ele>
        <time>2022-08-29T09:12:58Z</time>
      </trkpt>
      <trkpt lat="42.4260080" lon="-3.1016820">
        <ele>794.2</ele>
        <time>2022-08-29T09:12:59Z</time>
      </trkpt>
      <trkpt lat="42.4259970" lon="-3.1017010">
        <ele>794.2</ele>
        <time>2022-08-29T09:13:00Z</time>
      </trkpt>
      <trkpt lat="42.4259860" lon="-3.1017200">
        <ele>794.4</ele>
        <time>2022-08-29T09:13:01Z</time>
      </trkpt>
      <trkpt lat="42.4259750" lon="-3.1017380">
        <ele>794.4</ele>
        <time>2022-08-29T09:13:02Z</time>
      </trkpt>
      <trkpt lat="42.4259660" lon="-3.1017570">
        <ele>794.4</ele>
        <time>2022-08-29T09:13:03Z</time>
      </trkpt>
      <trkpt lat="42.4259590" lon="-3.1017780">
        <ele>794.4</ele>
        <time>2022-08-29T09:13:04Z</time>
      </trkpt>
      <trkpt lat="42.4259530" lon="-3.1018000">
        <ele>794.6</ele>
        <time>2022-08-29T09:13:05Z</time>
      </trkpt>
      <trkpt lat="42.4259460" lon="-3.1018230">
        <ele>794.6</ele>
        <time>2022-08-29T09:13:06Z</time>
      </trkpt>
      <trkpt lat="42.4259380" lon="-3.1018480">
        <ele>794.8</ele>
        <time>2022-08-29T09:13:07Z</time>
      </trkpt>
      <trkpt lat="42.4259320" lon="-3.1018750">
        <ele>794.8</ele>
        <time>2022-08-29T09:13:08Z</time>
      </trkpt>
      <trkpt lat="42.4259270" lon="-3.1019020">
        <ele>794.8</ele>
        <time>2022-08-29T09:13:09Z</time>
      </trkpt>
      <trkpt lat="42.4259240" lon="-3.1019310">
        <ele>794.8</ele>
        <time>2022-08-29T09:13:10Z</time>
      </trkpt>
      <trkpt lat="42.4259230" lon="-3.1019570">
        <ele>795.0</ele>
        <time>2022-08-29T09:13:11Z</time>
      </trkpt>
      <trkpt lat="42.4259260" lon="-3.1019810">
        <ele>795.0</ele>
        <time>2022-08-29T09:13:12Z</time>
      </trkpt>
      <trkpt lat="42.4259300" lon="-3.1020020">
        <ele>795.0</ele>
        <time>2022-08-29T09:13:13Z</time>
      </trkpt>
      <trkpt lat="42.4259260" lon="-3.1020260">
        <ele>795.0</ele>
        <time>2022-08-29T09:13:14Z</time>
      </trkpt>
      <trkpt lat="42.4259210" lon="-3.1020450">
        <ele>795.0</ele>
        <time>2022-08-29T09:13:15Z</time>
      </trkpt>
      <trkpt lat="42.4259170" lon="-3.1020630">
        <ele>795.2</ele>
        <time>2022-08-29T09:13:16Z</time>
      </trkpt>
      <trkpt lat="42.4259130" lon="-3.1020790">
        <ele>795.0</ele>
        <time>2022-08-29T09:13:17Z</time>
      </trkpt>
      <trkpt lat="42.4259080" lon="-3.1021000">
        <ele>795.0</ele>
        <time>2022-08-29T09:13:18Z</time>
      </trkpt>
      <trkpt lat="42.4259000" lon="-3.1021140">
        <ele>795.2</ele>
        <time>2022-08-29T09:13:19Z</time>
      </trkpt>
      <trkpt lat="42.4258950" lon="-3.1021290">
        <ele>795.0</ele>
        <time>2022-08-29T09:13:20Z</time>
      </trkpt>
      <trkpt lat="42.4258920" lon="-3.1021480">
        <ele>795.2</ele>
        <time>2022-08-29T09:13:21Z</time>
      </trkpt>
      <trkpt lat="42.4258900" lon="-3.1021700">
        <ele>795.2</ele>
        <time>2022-08-29T09:13:22Z</time>
      </trkpt>
      <trkpt lat="42.4258920" lon="-3.1021920">
        <ele>795.4</ele>
        <time>2022-08-29T09:13:23Z</time>
      </trkpt>
      <trkpt lat="42.4258950" lon="-3.1022120">
        <ele>795.4</ele>
        <time>2022-08-29T09:13:24Z</time>
      </trkpt>
      <trkpt lat="42.4259010" lon="-3.1022320">
        <ele>795.4</ele>
        <time>2022-08-29T09:13:25Z</time>
      </trkpt>
      <trkpt lat="42.4259080" lon="-3.1022510">
        <ele>795.4</ele>
        <time>2022-08-29T09:13:26Z</time>
      </trkpt>
      <trkpt lat="42.4259190" lon="-3.1022680">
        <ele>795.4</ele>
        <time>2022-08-29T09:13:27Z</time>
      </trkpt>
      <trkpt lat="42.4259240" lon="-3.1022880">
        <ele>795.6</ele>
        <time>2022-08-29T09:13:28Z</time>
      </trkpt>
      <trkpt lat="42.4259290" lon="-3.1023100">
        <ele>795.8</ele>
        <time>2022-08-29T09:13:29Z</time>
      </trkpt>
      <trkpt lat="42.4259370" lon="-3.1023320">
        <ele>795.6</ele>
        <time>2022-08-29T09:13:30Z</time>
      </trkpt>
      <trkpt lat="42.4259440" lon="-3.1023600">
        <ele>795.8</ele>
        <time>2022-08-29T09:13:31Z</time>
      </trkpt>
      <trkpt lat="42.4259550" lon="-3.1023870">
        <ele>795.8</ele>
        <time>2022-08-29T09:13:32Z</time>
      </trkpt>
      <trkpt lat="42.4259680" lon="-3.1024100">
        <ele>795.8</ele>
        <time>2022-08-29T09:13:33Z</time>
      </trkpt>
      <trkpt lat="42.4259790" lon="-3.1024330">
        <ele>795.8</ele>
        <time>2022-08-29T09:13:34Z</time>
      </trkpt>
      <trkpt lat="42.4259860" lon="-3.1024600">
        <ele>795.8</ele>
        <time>2022-08-29T09:13:35Z</time>
      </trkpt>
      <trkpt lat="42.4259850" lon="-3.1024960">
        <ele>796.0</ele>
        <time>2022-08-29T09:13:36Z</time>
      </trkpt>
      <trkpt lat="42.4259890" lon="-3.1025270">
        <ele>796.0</ele>
        <time>2022-08-29T09:13:37Z</time>
      </trkpt>
      <trkpt lat="42.4259950" lon="-3.1025580">
        <ele>796.0</ele>
        <time>2022-08-29T09:13:38Z</time>
      </trkpt>
      <trkpt lat="42.4260020" lon="-3.1025910">
        <ele>796.0</ele>
        <time>2022-08-29T09:13:39Z</time>
      </trkpt>
      <trkpt lat="42.4260100" lon="-3.1026240">
        <ele>796.0</ele>
        <time>2022-08-29T09:13:40Z</time>
      </trkpt>
      <trkpt lat="42.4260170" lon="-3.1026620">
        <ele>796.0</ele>
        <time>2022-08-29T09:13:41Z</time>
      </trkpt>
      <trkpt lat="42.4260240" lon="-3.1027010">
        <ele>796.0</ele>
        <time>2022-08-29T09:13:42Z</time>
      </trkpt>
      <trkpt lat="42.4260320" lon="-3.1027380">
        <ele>796.0</ele>
        <time>2022-08-29T09:13:43Z</time>
      </trkpt>
      <trkpt lat="42.4260390" lon="-3.1027770">
        <ele>796.0</ele>
        <time>2022-08-29T09:13:44Z</time>
      </trkpt>
      <trkpt lat="42.4260460" lon="-3.1028140">
        <ele>796.2</ele>
        <time>2022-08-29T09:13:45Z</time>
      </trkpt>
      <trkpt lat="42.4260560" lon="-3.1028480">
        <ele>796.2</ele>
        <time>2022-08-29T09:13:46Z</time>
      </trkpt>
      <trkpt lat="42.4260650" lon="-3.1028820">
        <ele>796.2</ele>
        <time>2022-08-29T09:13:47Z</time>
      </trkpt>
      <trkpt lat="42.4260740" lon="-3.1029170">
        <ele>796.2</ele>
        <time>2022-08-29T09:13:48Z</time>
      </trkpt>
      <trkpt lat="42.4260830" lon="-3.1029510">
        <ele>796.4</ele>
        <time>2022-08-29T09:13:49Z</time>
      </trkpt>
      <trkpt lat="42.4260930" lon="-3.1029860">
        <ele>796.4</ele>
        <time>2022-08-29T09:13:50Z</time>
      </trkpt>
      <trkpt lat="42.4261020" lon="-3.1030210">
        <ele>796.4</ele>
        <time>2022-08-29T09:13:51Z</time>
      </trkpt>
      <trkpt lat="42.4261110" lon="-3.1030550">
        <ele>796.6</ele>
        <time>2022-08-29T09:13:52Z</time>
      </trkpt>
      <trkpt lat="42.4261210" lon="-3.1030900">
        <ele>796.8</ele>
        <time>2022-08-29T09:13:53Z</time>
      </trkpt>
      <trkpt lat="42.4261310" lon="-3.1031260">
        <ele>796.8</ele>
        <time>2022-08-29T09:13:54Z</time>
      </trkpt>
      <trkpt lat="42.4261410" lon="-3.1031610">
        <ele>796.8</ele>
        <time>2022-08-29T09:13:55Z</time>
      </trkpt>
      <trkpt lat="42.4261500" lon="-3.1031930">
        <ele>796.8</ele>
        <time>2022-08-29T09:13:56Z</time>
      </trkpt>
      <trkpt lat="42.4261580" lon="-3.1032230">
        <ele>797.0</ele>
        <time>2022-08-29T09:13:57Z</time>
      </trkpt>
      <trkpt lat="42.4261650" lon="-3.1032520">
        <ele>797.2</ele>
        <time>2022-08-29T09:13:58Z</time>
      </trkpt>
      <trkpt lat="42.4261720" lon="-3.1032800">
        <ele>797.2</ele>
        <time>2022-08-29T09:13:59Z</time>
      </trkpt>
      <trkpt lat="42.4261790" lon="-3.1033070">
        <ele>797.4</ele>
        <time>2022-08-29T09:14:00Z</time>
      </trkpt>
      <trkpt lat="42.4261860" lon="-3.1033350">
        <ele>797.8</ele>
        <time>2022-08-29T09:14:01Z</time>
      </trkpt>
      <trkpt lat="42.4261950" lon="-3.1033650">
        <ele>797.8</ele>
        <time>2022-08-29T09:14:02Z</time>
      </trkpt>
      <trkpt lat="42.4262050" lon="-3.1034000">
        <ele>797.8</ele>
        <time>2022-08-29T09:14:03Z</time>
      </trkpt>
      <trkpt lat="42.4262160" lon="-3.1034400">
        <ele>798.0</ele>
        <time>2022-08-29T09:14:04Z</time>
      </trkpt>
      <trkpt lat="42.4262320" lon="-3.1034850">
        <ele>798.0</ele>
        <time>2022-08-29T09:14:05Z</time>
      </trkpt>
      <trkpt lat="42.4262520" lon="-3.1035340">
        <ele>798.0</ele>
        <time>2022-08-29T09:14:06Z</time>
      </trkpt>
      <trkpt lat="42.4262760" lon="-3.1035850">
        <ele>798.0</ele>
        <time>2022-08-29T09:14:07Z</time>
      </trkpt>
      <trkpt lat="42.4263050" lon="-3.1036390">
        <ele>798.0</ele>
        <time>2022-08-29T09:14:08Z</time>
      </trkpt>
      <trkpt lat="42.4263370" lon="-3.1036970">
        <ele>798.2</ele>
        <time>2022-08-29T09:14:09Z</time>
      </trkpt>
      <trkpt lat="42.4263730" lon="-3.1037600">
        <ele>798.0</ele>
        <time>2022-08-29T09:14:10Z</time>
      </trkpt>
      <trkpt lat="42.4264140" lon="-3.1038220">
        <ele>798.0</ele>
        <time>2022-08-29T09:14:11Z</time>
      </trkpt>
      <trkpt lat="42.4264600" lon="-3.1038850">
        <ele>798.0</ele>
        <time>2022-08-29T09:14:12Z</time>
      </trkpt>
      <trkpt lat="42.4265070" lon="-3.1039470">
        <ele>798.0</ele>
        <time>2022-08-29T09:14:13Z</time>
      </trkpt>
      <trkpt lat="42.4265520" lon="-3.1040060">
        <ele>797.8</ele>
        <time>2022-08-29T09:14:14Z</time>
      </trkpt>
      <trkpt lat="42.4265980" lon="-3.1040660">
        <ele>797.4</ele>
        <time>2022-08-29T09:14:15Z</time>
      </trkpt>
      <trkpt lat="42.4266430" lon="-3.1041280">
        <ele>797.4</ele>
        <time>2022-08-29T09:14:16Z</time>
      </trkpt>
      <trkpt lat="42.4266900" lon="-3.1041890">
        <ele>796.8</ele>
        <time>2022-08-29T09:14:17Z</time>
      </trkpt>
      <trkpt lat="42.4267370" lon="-3.1042510">
        <ele>796.4</ele>
        <time>2022-08-29T09:14:18Z</time>
      </trkpt>
      <trkpt lat="42.4267850" lon="-3.1043150">
        <ele>795.6</ele>
        <time>2022-08-29T09:14:19Z</time>
      </trkpt>
      <trkpt lat="42.4268330" lon="-3.1043840">
        <ele>795.0</ele>
        <time>2022-08-29T09:14:20Z</time>
      </trkpt>
      <trkpt lat="42.4268790" lon="-3.1044630">
        <ele>794.6</ele>
        <time>2022-08-29T09:14:21Z</time>
      </trkpt>
      <trkpt lat="42.4269220" lon="-3.1045480">
        <ele>793.8</ele>
        <time>2022-08-29T09:14:22Z</time>
      </trkpt>
      <trkpt lat="42.4269640" lon="-3.1046370">
        <ele>793.4</ele>
        <time>2022-08-29T09:14:23Z</time>
      </trkpt>
      <trkpt lat="42.4270000" lon="-3.1047320">
        <ele>792.8</ele>
        <time>2022-08-29T09:14:24Z</time>
      </trkpt>
      <trkpt lat="42.4270290" lon="-3.1048330">
        <ele>792.4</ele>
        <time>2022-08-29T09:14:25Z</time>
      </trkpt>
      <trkpt lat="42.4270540" lon="-3.1049380">
        <ele>791.8</ele>
        <time>2022-08-29T09:14:26Z</time>
      </trkpt>
      <trkpt lat="42.4270780" lon="-3.1050440">
        <ele>791.4</ele>
        <time>2022-08-29T09:14:27Z</time>
      </trkpt>
      <trkpt lat="42.4271030" lon="-3.1051510">
        <ele>791.0</ele>
        <time>2022-08-29T09:14:28Z</time>
      </trkpt>
      <trkpt lat="42.4271300" lon="-3.1052590">
        <ele>790.4</ele>
        <time>2022-08-29T09:14:29Z</time>
      </trkpt>
      <trkpt lat="42.4271580" lon="-3.1053680">
        <ele>789.8</ele>
        <time>2022-08-29T09:14:30Z</time>
      </trkpt>
      <trkpt lat="42.4271920" lon="-3.1054740">
        <ele>789.2</ele>
        <time>2022-08-29T09:14:31Z</time>
      </trkpt>
      <trkpt lat="42.4272270" lon="-3.1055810">
        <ele>788.6</ele>
        <time>2022-08-29T09:14:32Z</time>
      </trkpt>
      <trkpt lat="42.4272590" lon="-3.1056920">
        <ele>788.2</ele>
        <time>2022-08-29T09:14:33Z</time>
      </trkpt>
      <trkpt lat="42.4272830" lon="-3.1058090">
        <ele>787.8</ele>
        <time>2022-08-29T09:14:34Z</time>
      </trkpt>
      <trkpt lat="42.4273010" lon="-3.1059310">
        <ele>787.2</ele>
        <time>2022-08-29T09:14:35Z</time>
      </trkpt>
      <trkpt lat="42.4273160" lon="-3.1060570">
        <ele>786.8</ele>
        <time>2022-08-29T09:14:36Z</time>
      </trkpt>
      <trkpt lat="42.4273270" lon="-3.1061880">
        <ele>786.6</ele>
        <time>2022-08-29T09:14:37Z</time>
      </trkpt>
      <trkpt lat="42.4273270" lon="-3.1063220">
        <ele>786.0</ele>
        <time>2022-08-29T09:14:38Z</time>
      </trkpt>
      <trkpt lat="42.4273170" lon="-3.1064580">
        <ele>785.6</ele>
        <time>2022-08-29T09:14:39Z</time>
      </trkpt>
      <trkpt lat="42.4273000" lon="-3.1065920">
        <ele>785.6</ele>
        <time>2022-08-29T09:14:40Z</time>
      </trkpt>
      <trkpt lat="42.4272820" lon="-3.1067240">
        <ele>785.0</ele>
        <time>2022-08-29T09:14:41Z</time>
      </trkpt>
      <trkpt lat="42.4272630" lon="-3.1068570">
        <ele>784.4</ele>
        <time>2022-08-29T09:14:42Z</time>
      </trkpt>
      <trkpt lat="42.4272420" lon="-3.1069890">
        <ele>784.0</ele>
        <time>2022-08-29T09:14:43Z</time>
      </trkpt>
      <trkpt lat="42.4272230" lon="-3.1071170">
        <ele>783.6</ele>
        <time>2022-08-29T09:14:44Z</time>
      </trkpt>
      <trkpt lat="42.4272020" lon="-3.1072450">
        <ele>782.6</ele>
        <time>2022-08-29T09:14:45Z</time>
      </trkpt>
      <trkpt lat="42.4271800" lon="-3.1073770">
        <ele>781.8</ele>
        <time>2022-08-29T09:14:46Z</time>
      </trkpt>
      <trkpt lat="42.4271580" lon="-3.1075080">
        <ele>780.8</ele>
        <time>2022-08-29T09:14:47Z</time>
      </trkpt>
      <trkpt lat="42.4271370" lon="-3.1076350">
        <ele>779.8</ele>
        <time>2022-08-29T09:14:48Z</time>
      </trkpt>
      <trkpt lat="42.4271180" lon="-3.1077570">
        <ele>778.8</ele>
        <time>2022-08-29T09:14:49Z</time>
      </trkpt>
      <trkpt lat="42.4271010" lon="-3.1078750">
        <ele>778.0</ele>
        <time>2022-08-29T09:14:50Z</time>
      </trkpt>
      <trkpt lat="42.4270850" lon="-3.1079920">
        <ele>777.2</ele>
        <time>2022-08-29T09:14:51Z</time>
      </trkpt>
      <trkpt lat="42.4270680" lon="-3.1081120">
        <ele>776.4</ele>
        <time>2022-08-29T09:14:52Z</time>
      </trkpt>
      <trkpt lat="42.4270490" lon="-3.1082360">
        <ele>775.8</ele>
        <time>2022-08-29T09:14:53Z</time>
      </trkpt>
      <trkpt lat="42.4270260" lon="-3.1083620">
        <ele>775.0</ele>
        <time>2022-08-29T09:14:54Z</time>
      </trkpt>
      <trkpt lat="42.4270020" lon="-3.1084900">
        <ele>774.2</ele>
        <time>2022-08-29T09:14:55Z</time>
      </trkpt>
      <trkpt lat="42.4269830" lon="-3.1086180">
        <ele>773.0</ele>
        <time>2022-08-29T09:14:56Z</time>
      </trkpt>
      <trkpt lat="42.4269770" lon="-3.1087500">
        <ele>772.4</ele>
        <time>2022-08-29T09:14:57Z</time>
      </trkpt>
      <trkpt lat="42.4269860" lon="-3.1088830">
        <ele>771.8</ele>
        <time>2022-08-29T09:14:58Z</time>
      </trkpt>
      <trkpt lat="42.4270150" lon="-3.1090130">
        <ele>771.6</ele>
        <time>2022-08-29T09:14:59Z</time>
      </trkpt>
      <trkpt lat="42.4270590" lon="-3.1091370">
        <ele>771.2</ele>
        <time>2022-08-29T09:15:00Z</time>
      </trkpt>
      <trkpt lat="42.4271160" lon="-3.1092520">
        <ele>770.4</ele>
        <time>2022-08-29T09:15:01Z</time>
      </trkpt>
      <trkpt lat="42.4271790" lon="-3.1093650">
        <ele>769.8</ele>
        <time>2022-08-29T09:15:02Z</time>
      </trkpt>
      <trkpt lat="42.4272450" lon="-3.1094790">
        <ele>769.2</ele>
        <time>2022-08-29T09:15:03Z</time>
      </trkpt>
      <trkpt lat="42.4273100" lon="-3.1095970">
        <ele>768.4</ele>
        <time>2022-08-29T09:15:04Z</time>
      </trkpt>
      <trkpt lat="42.4273750" lon="-3.1097150">
        <ele>768.4</ele>
        <time>2022-08-29T09:15:05Z</time>
      </trkpt>
      <trkpt lat="42.4274400" lon="-3.1098330">
        <ele>767.2</ele>
        <time>2022-08-29T09:15:06Z</time>
      </trkpt>
      <trkpt lat="42.4275090" lon="-3.1099500">
        <ele>766.4</ele>
        <time>2022-08-29T09:15:07Z</time>
      </trkpt>
      <trkpt lat="42.4275780" lon="-3.1100680">
        <ele>765.8</ele>
        <time>2022-08-29T09:15:08Z</time>
      </trkpt>
      <trkpt lat="42.4276500" lon="-3.1101820">
        <ele>765.2</ele>
        <time>2022-08-29T09:15:09Z</time>
      </trkpt>
      <trkpt lat="42.4277290" lon="-3.1102920">
        <ele>764.4</ele>
        <time>2022-08-29T09:15:10Z</time>
      </trkpt>
      <trkpt lat="42.4278110" lon="-3.1103970">
        <ele>763.8</ele>
        <time>2022-08-29T09:15:11Z</time>
      </trkpt>
      <trkpt lat="42.4278970" lon="-3.1104980">
        <ele>762.8</ele>
        <time>2022-08-29T09:15:12Z</time>
      </trkpt>
      <trkpt lat="42.4279890" lon="-3.1105910">
        <ele>762.0</ele>
        <time>2022-08-29T09:15:13Z</time>
      </trkpt>
      <trkpt lat="42.4280850" lon="-3.1106760">
        <ele>761.2</ele>
        <time>2022-08-29T09:15:14Z</time>
      </trkpt>
      <trkpt lat="42.4281820" lon="-3.1107540">
        <ele>760.2</ele>
        <time>2022-08-29T09:15:15Z</time>
      </trkpt>
      <trkpt lat="42.4282830" lon="-3.1108270">
        <ele>759.4</ele>
        <time>2022-08-29T09:15:16Z</time>
      </trkpt>
      <trkpt lat="42.4283820" lon="-3.1108960">
        <ele>758.4</ele>
        <time>2022-08-29T09:15:17Z</time>
      </trkpt>
      <trkpt lat="42.4284800" lon="-3.1109650">
        <ele>757.4</ele>
        <time>2022-08-29T09:15:18Z</time>
      </trkpt>
      <trkpt lat="42.4285750" lon="-3.1110360">
        <ele>756.8</ele>
        <time>2022-08-29T09:15:19Z</time>
      </trkpt>
      <trkpt lat="42.4286700" lon="-3.1111060">
        <ele>756.0</ele>
        <time>2022-08-29T09:15:20Z</time>
      </trkpt>
      <trkpt lat="42.4287670" lon="-3.1111710">
        <ele>755.4</ele>
        <time>2022-08-29T09:15:21Z</time>
      </trkpt>
      <trkpt lat="42.4288650" lon="-3.1112310">
        <ele>754.8</ele>
        <time>2022-08-29T09:15:22Z</time>
      </trkpt>
      <trkpt lat="42.4289630" lon="-3.1112890">
        <ele>754.0</ele>
        <time>2022-08-29T09:15:23Z</time>
      </trkpt>
      <trkpt lat="42.4290620" lon="-3.1113460">
        <ele>753.6</ele>
        <time>2022-08-29T09:15:24Z</time>
      </trkpt>
      <trkpt lat="42.4291580" lon="-3.1114050">
        <ele>753.2</ele>
        <time>2022-08-29T09:15:25Z</time>
      </trkpt>
      <trkpt lat="42.4292530" lon="-3.1114660">
        <ele>752.8</ele>
        <time>2022-08-29T09:15:26Z</time>
      </trkpt>
      <trkpt lat="42.4293500" lon="-3.1115250">
        <ele>752.6</ele>
        <time>2022-08-29T09:15:27Z</time>
      </trkpt>
      <trkpt lat="42.4294470" lon="-3.1115840">
        <ele>752.6</ele>
        <time>2022-08-29T09:15:28Z</time>
      </trkpt>
      <trkpt lat="42.4295420" lon="-3.1116450">
        <ele>752.4</ele>
        <time>2022-08-29T09:15:29Z</time>
      </trkpt>
      <trkpt lat="42.4296370" lon="-3.1117030">
        <ele>752.0</ele>
        <time>2022-08-29T09:15:30Z</time>
      </trkpt>
      <trkpt lat="42.4297310" lon="-3.1117610">
        <ele>751.8</ele>
        <time>2022-08-29T09:15:31Z</time>
      </trkpt>
      <trkpt lat="42.4298230" lon="-3.1118240">
        <ele>751.6</ele>
        <time>2022-08-29T09:15:32Z</time>
      </trkpt>
      <trkpt lat="42.4299080" lon="-3.1118940">
        <ele>751.2</ele>
        <time>2022-08-29T09:15:33Z</time>
      </trkpt>
      <trkpt lat="42.4299870" lon="-3.1119720">
        <ele>750.8</ele>
        <time>2022-08-29T09:15:34Z</time>
      </trkpt>
      <trkpt lat="42.4300620" lon="-3.1120530">
        <ele>750.4</ele>
        <time>2022-08-29T09:15:35Z</time>
      </trkpt>
      <trkpt lat="42.4301360" lon="-3.1121340">
        <ele>750.0</ele>
        <time>2022-08-29T09:15:36Z</time>
      </trkpt>
      <trkpt lat="42.4302060" lon="-3.1122140">
        <ele>749.8</ele>
        <time>2022-08-29T09:15:37Z</time>
      </trkpt>
      <trkpt lat="42.4302740" lon="-3.1122920">
        <ele>749.4</ele>
        <time>2022-08-29T09:15:38Z</time>
      </trkpt>
      <trkpt lat="42.4303380" lon="-3.1123680">
        <ele>749.2</ele>
        <time>2022-08-29T09:15:39Z</time>
      </trkpt>
      <trkpt lat="42.4303980" lon="-3.1124390">
        <ele>749.0</ele>
        <time>2022-08-29T09:15:40Z</time>
      </trkpt>
      <trkpt lat="42.4304530" lon="-3.1125050">
        <ele>748.8</ele>
        <time>2022-08-29T09:15:41Z</time>
      </trkpt>
      <trkpt lat="42.4305020" lon="-3.1125670">
        <ele>748.8</ele>
        <time>2022-08-29T09:15:42Z</time>
      </trkpt>
      <trkpt lat="42.4305440" lon="-3.1126220">
        <ele>748.6</ele>
        <time>2022-08-29T09:15:43Z</time>
      </trkpt>
      <trkpt lat="42.4305850" lon="-3.1126700">
        <ele>748.6</ele>
        <time>2022-08-29T09:15:44Z</time>
      </trkpt>
      <trkpt lat="42.4306230" lon="-3.1127130">
        <ele>748.6</ele>
        <time>2022-08-29T09:15:45Z</time>
      </trkpt>
      <trkpt lat="42.4306590" lon="-3.1127500">
        <ele>748.8</ele>
        <time>2022-08-29T09:15:46Z</time>
      </trkpt>
      <trkpt lat="42.4306900" lon="-3.1127870">
        <ele>748.6</ele>
        <time>2022-08-29T09:15:47Z</time>
      </trkpt>
      <trkpt lat="42.4307210" lon="-3.1128220">
        <ele>748.8</ele>
        <time>2022-08-29T09:15:48Z</time>
      </trkpt>
      <trkpt lat="42.4307510" lon="-3.1128560">
        <ele>749.2</ele>
        <time>2022-08-29T09:15:49Z</time>
      </trkpt>
      <trkpt lat="42.4307810" lon="-3.1128890">
        <ele>749.6</ele>
        <time>2022-08-29T09:15:50Z</time>
      </trkpt>
      <trkpt lat="42.4308090" lon="-3.1129240">
        <ele>750.4</ele>
        <time>2022-08-29T09:15:51Z</time>
      </trkpt>
      <trkpt lat="42.4308340" lon="-3.1129590">
        <ele>750.4</ele>
        <time>2022-08-29T09:15:52Z</time>
      </trkpt>
      <trkpt lat="42.4308590" lon="-3.1129940">
        <ele>750.8</ele>
        <time>2022-08-29T09:15:53Z</time>
      </trkpt>
      <trkpt lat="42.4308850" lon="-3.1130260">
        <ele>751.4</ele>
        <time>2022-08-29T09:15:54Z</time>
      </trkpt>
      <trkpt lat="42.4309130" lon="-3.1130580">
        <ele>752.0</ele>
        <time>2022-08-29T09:15:55Z</time>
      </trkpt>
      <trkpt lat="42.4309410" lon="-3.1130890">
        <ele>752.6</ele>
        <time>2022-08-29T09:15:56Z</time>
      </trkpt>
      <trkpt lat="42.4309680" lon="-3.1131200">
        <ele>753.0</ele>
        <time>2022-08-29T09:15:57Z</time>
      </trkpt>
      <trkpt lat="42.4309940" lon="-3.1131510">
        <ele>753.2</ele>
        <time>2022-08-29T09:15:58Z</time>
      </trkpt>
      <trkpt lat="42.4310190" lon="-3.1131810">
        <ele>753.6</ele>
        <time>2022-08-29T09:15:59Z</time>
      </trkpt>
      <trkpt lat="42.4310420" lon="-3.1132110">
        <ele>753.8</ele>
        <time>2022-08-29T09:16:00Z</time>
      </trkpt>
      <trkpt lat="42.4310630" lon="-3.1132430">
        <ele>754.0</ele>
        <time>2022-08-29T09:16:01Z</time>
      </trkpt>
      <trkpt lat="42.4310830" lon="-3.1132760">
        <ele>754.4</ele>
        <time>2022-08-29T09:16:02Z</time>
      </trkpt>
      <trkpt lat="42.4311020" lon="-3.1133110">
        <ele>754.6</ele>
        <time>2022-08-29T09:16:03Z</time>
      </trkpt>
      <trkpt lat="42.4311210" lon="-3.1133470">
        <ele>755.0</ele>
        <time>2022-08-29T09:16:04Z</time>
      </trkpt>
      <trkpt lat="42.4311400" lon="-3.1133830">
        <ele>755.2</ele>
        <time>2022-08-29T09:16:05Z</time>
      </trkpt>
      <trkpt lat="42.4311600" lon="-3.1134220">
        <ele>755.2</ele>
        <time>2022-08-29T09:16:06Z</time>
      </trkpt>
      <trkpt lat="42.4311780" lon="-3.1134630">
        <ele>755.6</ele>
        <time>2022-08-29T09:16:07Z</time>
      </trkpt>
      <trkpt lat="42.4311900" lon="-3.1135080">
        <ele>755.8</ele>
        <time>2022-08-29T09:16:08Z</time>
      </trkpt>
      <trkpt lat="42.4312020" lon="-3.1135540">
        <ele>755.8</ele>
        <time>2022-08-29T09:16:09Z</time>
      </trkpt>
      <trkpt lat="42.4312080" lon="-3.1136010">
        <ele>756.0</ele>
        <time>2022-08-29T09:16:10Z</time>
      </trkpt>
      <trkpt lat="42.4312040" lon="-3.1136510">
        <ele>756.2</ele>
        <time>2022-08-29T09:16:11Z</time>
      </trkpt>
      <trkpt lat="42.4311940" lon="-3.1136980">
        <ele>756.4</ele>
        <time>2022-08-29T09:16:12Z</time>
      </trkpt>
      <trkpt lat="42.4311840" lon="-3.1137480">
        <ele>756.4</ele>
        <time>2022-08-29T09:16:13Z</time>
      </trkpt>
      <trkpt lat="42.4311780" lon="-3.1138010">
        <ele>756.4</ele>
        <time>2022-08-29T09:16:14Z</time>
      </trkpt>
      <trkpt lat="42.4311770" lon="-3.1138530">
        <ele>756.6</ele>
        <time>2022-08-29T09:16:15Z</time>
      </trkpt>
      <trkpt lat="42.4311770" lon="-3.1139030">
        <ele>756.4</ele>
        <time>2022-08-29T09:16:16Z</time>
      </trkpt>
      <trkpt lat="42.4311780" lon="-3.1139530">
        <ele>756.4</ele>
        <time>2022-08-29T09:16:17Z</time>
      </trkpt>
      <trkpt lat="42.4311750" lon="-3.1140040">
        <ele>756.6</ele>
        <time>2022-08-29T09:16:18Z</time>
      </trkpt>
      <trkpt lat="42.4311710" lon="-3.1140520">
        <ele>756.6</ele>
        <time>2022-08-29T09:16:19Z</time>
      </trkpt>
      <trkpt lat="42.4311670" lon="-3.1141000">
        <ele>756.6</ele>
        <time>2022-08-29T09:16:20Z</time>
      </trkpt>
      <trkpt lat="42.4311620" lon="-3.1141460">
        <ele>756.8</ele>
        <time>2022-08-29T09:16:21Z</time>
      </trkpt>
      <trkpt lat="42.4311570" lon="-3.1141910">
        <ele>756.8</ele>
        <time>2022-08-29T09:16:22Z</time>
      </trkpt>
      <trkpt lat="42.4311510" lon="-3.1142360">
        <ele>757.0</ele>
        <time>2022-08-29T09:16:23Z</time>
      </trkpt>
      <trkpt lat="42.4311470" lon="-3.1142810">
        <ele>757.2</ele>
        <time>2022-08-29T09:16:24Z</time>
      </trkpt>
      <trkpt lat="42.4311420" lon="-3.1143260">
        <ele>757.4</ele>
        <time>2022-08-29T09:16:25Z</time>
      </trkpt>
      <trkpt lat="42.4311380" lon="-3.1143700">
        <ele>757.6</ele>
        <time>2022-08-29T09:16:26Z</time>
      </trkpt>
      <trkpt lat="42.4311330" lon="-3.1144130">
        <ele>758.0</ele>
        <time>2022-08-29T09:16:27Z</time>
      </trkpt>
      <trkpt lat="42.4311290" lon="-3.1144560">
        <ele>758.0</ele>
        <time>2022-08-29T09:16:28Z</time>
      </trkpt>
      <trkpt lat="42.4311250" lon="-3.1144990">
        <ele>758.2</ele>
        <time>2022-08-29T09:16:29Z</time>
      </trkpt>
      <trkpt lat="42.4311220" lon="-3.1145420">
        <ele>758.4</ele>
        <time>2022-08-29T09:16:30Z</time>
      </trkpt>
      <trkpt lat="42.4311190" lon="-3.1145830">
        <ele>758.4</ele>
        <time>2022-08-29T09:16:31Z</time>
      </trkpt>
      <trkpt lat="42.4311150" lon="-3.1146250">
        <ele>758.6</ele>
        <time>2022-08-29T09:16:32Z</time>
      </trkpt>
      <trkpt lat="42.4311110" lon="-3.1146670">
        <ele>758.8</ele>
        <time>2022-08-29T09:16:33Z</time>
      </trkpt>
      <trkpt lat="42.4311060" lon="-3.1147100">
        <ele>759.0</ele>
        <time>2022-08-29T09:16:34Z</time>
      </trkpt>
      <trkpt lat="42.4311000" lon="-3.1147520">
        <ele>759.0</ele>
        <time>2022-08-29T09:16:35Z</time>
      </trkpt>
      <trkpt lat="42.4310950" lon="-3.1147950">
        <ele>759.2</ele>
        <time>2022-08-29T09:16:36Z</time>
      </trkpt>
      <trkpt lat="42.4310910" lon="-3.1148380">
        <ele>759.4</ele>
        <time>2022-08-29T09:16:37Z</time>
      </trkpt>
      <trkpt lat="42.4310870" lon="-3.1148820">
        <ele>759.6</ele>
        <time>2022-08-29T09:16:38Z</time>
      </trkpt>
      <trkpt lat="42.4310830" lon="-3.1149250">
        <ele>759.6</ele>
        <time>2022-08-29T09:16:39Z</time>
      </trkpt>
      <trkpt lat="42.4310790" lon="-3.1149690">
        <ele>759.6</ele>
        <time>2022-08-29T09:16:40Z</time>
      </trkpt>
      <trkpt lat="42.4310730" lon="-3.1150140">
        <ele>759.8</ele>
        <time>2022-08-29T09:16:41Z</time>
      </trkpt>
      <trkpt lat="42.4310690" lon="-3.1150580">
        <ele>759.8</ele>
        <time>2022-08-29T09:16:42Z</time>
      </trkpt>
      <trkpt lat="42.4310650" lon="-3.1151030">
        <ele>760.0</ele>
        <time>2022-08-29T09:16:43Z</time>
      </trkpt>
      <trkpt lat="42.4310600" lon="-3.1151460">
        <ele>760.2</ele>
        <time>2022-08-29T09:16:44Z</time>
      </trkpt>
      <trkpt lat="42.4310560" lon="-3.1151890">
        <ele>760.4</ele>
        <time>2022-08-29T09:16:45Z</time>
      </trkpt>
      <trkpt lat="42.4310530" lon="-3.1152290">
        <ele>760.4</ele>
        <time>2022-08-29T09:16:46Z</time>
      </trkpt>
      <trkpt lat="42.4310500" lon="-3.1152710">
        <ele>760.8</ele>
        <time>2022-08-29T09:16:47Z</time>
      </trkpt>
      <trkpt lat="42.4310470" lon="-3.1153130">
        <ele>761.0</ele>
        <time>2022-08-29T09:16:48Z</time>
      </trkpt>
      <trkpt lat="42.4310430" lon="-3.1153540">
        <ele>761.2</ele>
        <time>2022-08-29T09:16:49Z</time>
      </trkpt>
      <trkpt lat="42.4310370" lon="-3.1153960">
        <ele>761.4</ele>
        <time>2022-08-29T09:16:50Z</time>
      </trkpt>
      <trkpt lat="42.4310320" lon="-3.1154370">
        <ele>761.4</ele>
        <time>2022-08-29T09:16:51Z</time>
      </trkpt>
      <trkpt lat="42.4310300" lon="-3.1154780">
        <ele>761.6</ele>
        <time>2022-08-29T09:16:52Z</time>
      </trkpt>
      <trkpt lat="42.4310280" lon="-3.1155180">
        <ele>761.6</ele>
        <time>2022-08-29T09:16:53Z</time>
      </trkpt>
      <trkpt lat="42.4310240" lon="-3.1155580">
        <ele>761.8</ele>
        <time>2022-08-29T09:16:54Z</time>
      </trkpt>
      <trkpt lat="42.4310210" lon="-3.1155990">
        <ele>762.0</ele>
        <time>2022-08-29T09:16:55Z</time>
      </trkpt>
      <trkpt lat="42.4310170" lon="-3.1156410">
        <ele>761.8</ele>
        <time>2022-08-29T09:16:56Z</time>
      </trkpt>
      <trkpt lat="42.4310130" lon="-3.1156850">
        <ele>762.0</ele>
        <time>2022-08-29T09:16:57Z</time>
      </trkpt>
      <trkpt lat="42.4310090" lon="-3.1157280">
        <ele>762.2</ele>
        <time>2022-08-29T09:16:58Z</time>
      </trkpt>
      <trkpt lat="42.4310030" lon="-3.1157720">
        <ele>762.2</ele>
        <time>2022-08-29T09:16:59Z</time>
      </trkpt>
      <trkpt lat="42.4309980" lon="-3.1158160">
        <ele>762.4</ele>
        <time>2022-08-29T09:17:00Z</time>
      </trkpt>
      <trkpt lat="42.4309950" lon="-3.1158610">
        <ele>762.4</ele>
        <time>2022-08-29T09:17:01Z</time>
      </trkpt>
      <trkpt lat="42.4309910" lon="-3.1159050">
        <ele>762.6</ele>
        <time>2022-08-29T09:17:02Z</time>
      </trkpt>
      <trkpt lat="42.4309870" lon="-3.1159500">
        <ele>762.6</ele>
        <time>2022-08-29T09:17:03Z</time>
      </trkpt>
      <trkpt lat="42.4309840" lon="-3.1159960">
        <ele>762.6</ele>
        <time>2022-08-29T09:17:04Z</time>
      </trkpt>
      <trkpt lat="42.4309800" lon="-3.1160420">
        <ele>762.6</ele>
        <time>2022-08-29T09:17:05Z</time>
      </trkpt>
      <trkpt lat="42.4309770" lon="-3.1160870">
        <ele>762.8</ele>
        <time>2022-08-29T09:17:06Z</time>
      </trkpt>
      <trkpt lat="42.4309720" lon="-3.1161320">
        <ele>762.6</ele>
        <time>2022-08-29T09:17:07Z</time>
      </trkpt>
      <trkpt lat="42.4309680" lon="-3.1161780">
        <ele>762.8</ele>
        <time>2022-08-29T09:17:08Z</time>
      </trkpt>
      <trkpt lat="42.4309650" lon="-3.1162230">
        <ele>762.8</ele>
        <time>2022-08-29T09:17:09Z</time>
      </trkpt>
      <trkpt lat="42.4309610" lon="-3.1162690">
        <ele>763.0</ele>
        <time>2022-08-29T09:17:10Z</time>
      </trkpt>
      <trkpt lat="42.4309570" lon="-3.1163160">
        <ele>763.2</ele>
        <time>2022-08-29T09:17:11Z</time>
      </trkpt>
      <trkpt lat="42.4309530" lon="-3.1163620">
        <ele>763.2</ele>
        <time>2022-08-29T09:17:12Z</time>
      </trkpt>
      <trkpt lat="42.4309490" lon="-3.1164090">
        <ele>763.4</ele>
        <time>2022-08-29T09:17:13Z</time>
      </trkpt>
      <trkpt lat="42.4309450" lon="-3.1164550">
        <ele>763.6</ele>
        <time>2022-08-29T09:17:14Z</time>
      </trkpt>
      <trkpt lat="42.4309410" lon="-3.1165030">
        <ele>763.8</ele>
        <time>2022-08-29T09:17:15Z</time>
      </trkpt>
      <trkpt lat="42.4309360" lon="-3.1165530">
        <ele>763.8</ele>
        <time>2022-08-29T09:17:16Z</time>
      </trkpt>
      <trkpt lat="42.4309330" lon="-3.1166040">
        <ele>764.0</ele>
        <time>2022-08-29T09:17:17Z</time>
      </trkpt>
      <trkpt lat="42.4309280" lon="-3.1166550">
        <ele>764.0</ele>
        <time>2022-08-29T09:17:18Z</time>
      </trkpt>
      <trkpt lat="42.4309220" lon="-3.1167070">
        <ele>764.0</ele>
        <time>2022-08-29T09:17:19Z</time>
      </trkpt>
      <trkpt lat="42.4309170" lon="-3.1167570">
        <ele>764.0</ele>
        <time>2022-08-29T09:17:20Z</time>
      </trkpt>
      <trkpt lat="42.4309130" lon="-3.1168080">
        <ele>764.2</ele>
        <time>2022-08-29T09:17:21Z</time>
      </trkpt>
      <trkpt lat="42.4309100" lon="-3.1168600">
        <ele>764.4</ele>
        <time>2022-08-29T09:17:22Z</time>
      </trkpt>
      <trkpt lat="42.4309060" lon="-3.1169120">
        <ele>764.6</ele>
        <time>2022-08-29T09:17:23Z</time>
      </trkpt>
      <trkpt lat="42.4309020" lon="-3.1169650">
        <ele>764.8</ele>
        <time>2022-08-29T09:17:24Z</time>
      </trkpt>
      <trkpt lat="42.4308970" lon="-3.1170180">
        <ele>764.8</ele>
        <time>2022-08-29T09:17:25Z</time>
      </trkpt>
      <trkpt lat="42.4308920" lon="-3.1170700">
        <ele>764.8</ele>
        <time>2022-08-29T09:17:26Z</time>
      </trkpt>
      <trkpt lat="42.4308880" lon="-3.1171220">
        <ele>764.8</ele>
        <time>2022-08-29T09:17:27Z</time>
      </trkpt>
      <trkpt lat="42.4308830" lon="-3.1171730">
        <ele>765.0</ele>
        <time>2022-08-29T09:17:28Z</time>
      </trkpt>
      <trkpt lat="42.4308790" lon="-3.1172240">
        <ele>765.0</ele>
        <time>2022-08-29T09:17:29Z</time>
      </trkpt>
      <trkpt lat="42.4308750" lon="-3.1172740">
        <ele>765.0</ele>
        <time>2022-08-29T09:17:30Z</time>
      </trkpt>
      <trkpt lat="42.4308690" lon="-3.1173250">
        <ele>765.0</ele>
        <time>2022-08-29T09:17:31Z</time>
      </trkpt>
      <trkpt lat="42.4308650" lon="-3.1173760">
        <ele>765.4</ele>
        <time>2022-08-29T09:17:32Z</time>
      </trkpt>
      <trkpt lat="42.4308610" lon="-3.1174260">
        <ele>765.2</ele>
        <time>2022-08-29T09:17:33Z</time>
      </trkpt>
      <trkpt lat="42.4308560" lon="-3.1174750">
        <ele>765.6</ele>
        <time>2022-08-29T09:17:34Z</time>
      </trkpt>
      <trkpt lat="42.4308510" lon="-3.1175250">
        <ele>765.6</ele>
        <time>2022-08-29T09:17:35Z</time>
      </trkpt>
      <trkpt lat="42.4308470" lon="-3.1175730">
        <ele>766.0</ele>
        <time>2022-08-29T09:17:36Z</time>
      </trkpt>
      <trkpt lat="42.4308420" lon="-3.1176230">
        <ele>766.0</ele>
        <time>2022-08-29T09:17:37Z</time>
      </trkpt>
      <trkpt lat="42.4308390" lon="-3.1176730">
        <ele>766.4</ele>
        <time>2022-08-29T09:17:38Z</time>
      </trkpt>
      <trkpt lat="42.4308350" lon="-3.1177230">
        <ele>766.4</ele>
        <time>2022-08-29T09:17:39Z</time>
      </trkpt>
      <trkpt lat="42.4308310" lon="-3.1177730">
        <ele>766.4</ele>
        <time>2022-08-29T09:17:40Z</time>
      </trkpt>
      <trkpt lat="42.4308260" lon="-3.1178230">
        <ele>766.6</ele>
        <time>2022-08-29T09:17:41Z</time>
      </trkpt>
      <trkpt lat="42.4308210" lon="-3.1178740">
        <ele>766.8</ele>
        <time>2022-08-29T09:17:42Z</time>
      </trkpt>
      <trkpt lat="42.4308170" lon="-3.1179230">
        <ele>766.8</ele>
        <time>2022-08-29T09:17:43Z</time>
      </trkpt>
      <trkpt lat="42.4308140" lon="-3.1179720">
        <ele>767.2</ele>
        <time>2022-08-29T09:17:44Z</time>
      </trkpt>
      <trkpt lat="42.4308110" lon="-3.1180200">
        <ele>767.2</ele>
        <time>2022-08-29T09:17:45Z</time>
      </trkpt>
      <trkpt lat="42.4308070" lon="-3.1180670">
        <ele>767.2</ele>
        <time>2022-08-29T09:17:46Z</time>
      </trkpt>
      <trkpt lat="42.4308020" lon="-3.1181140">
        <ele>767.4</ele>
        <time>2022-08-29T09:17:47Z</time>
      </trkpt>
      <trkpt lat="42.4307970" lon="-3.1181590">
        <ele>767.6</ele>
        <time>2022-08-29T09:17:48Z</time>
      </trkpt>
      <trkpt lat="42.4307920" lon="-3.1182020">
        <ele>767.8</ele>
        <time>2022-08-29T09:17:49Z</time>
      </trkpt>
      <trkpt lat="42.4307880" lon="-3.1182430">
        <ele>767.8</ele>
        <time>2022-08-29T09:17:50Z</time>
      </trkpt>
      <trkpt lat="42.4307850" lon="-3.1182810">
        <ele>768.0</ele>
        <time>2022-08-29T09:17:51Z</time>
      </trkpt>
      <trkpt lat="42.4307810" lon="-3.1183170">
        <ele>768.2</ele>
        <time>2022-08-29T09:17:52Z</time>
      </trkpt>
      <trkpt lat="42.4307770" lon="-3.1183530">
        <ele>768.2</ele>
        <time>2022-08-29T09:17:53Z</time>
      </trkpt>
      <trkpt lat="42.4307740" lon="-3.1183910">
        <ele>768.4</ele>
        <time>2022-08-29T09:17:54Z</time>
      </trkpt>
      <trkpt lat="42.4307690" lon="-3.1184340">
        <ele>768.4</ele>
        <time>2022-08-29T09:17:55Z</time>
      </trkpt>
      <trkpt lat="42.4307660" lon="-3.1184770">
        <ele>768.8</ele>
        <time>2022-08-29T09:17:56Z</time>
      </trkpt>
      <trkpt lat="42.4307640" lon="-3.1185200">
        <ele>769.0</ele>
        <time>2022-08-29T09:17:57Z</time>
      </trkpt>
      <trkpt lat="42.4307600" lon="-3.1185600">
        <ele>769.2</ele>
        <time>2022-08-29T09:17:58Z</time>
      </trkpt>
      <trkpt lat="42.4307580" lon="-3.1185980">
        <ele>769.4</ele>
        <time>2022-08-29T09:17:59Z</time>
      </trkpt>
      <trkpt lat="42.4307560" lon="-3.1186360">
        <ele>769.6</ele>
        <time>2022-08-29T09:18:00Z</time>
      </trkpt>
      <trkpt lat="42.4307540" lon="-3.1186730">
        <ele>769.8</ele>
        <time>2022-08-29T09:18:01Z</time>
      </trkpt>
      <trkpt lat="42.4307490" lon="-3.1187110">
        <ele>770.0</ele>
        <time>2022-08-29T09:18:02Z</time>
      </trkpt>
      <trkpt lat="42.4307450" lon="-3.1187490">
        <ele>770.0</ele>
        <time>2022-08-29T09:18:03Z</time>
      </trkpt>
      <trkpt lat="42.4307420" lon="-3.1187870">
        <ele>770.0</ele>
        <time>2022-08-29T09:18:04Z</time>
      </trkpt>
      <trkpt lat="42.4307400" lon="-3.1188240">
        <ele>770.2</ele>
        <time>2022-08-29T09:18:05Z</time>
      </trkpt>
      <trkpt lat="42.4307370" lon="-3.1188630">
        <ele>770.4</ele>
        <time>2022-08-29T09:18:06Z</time>
      </trkpt>
      <trkpt lat="42.4307330" lon="-3.1189010">
        <ele>770.6</ele>
        <time>2022-08-29T09:18:07Z</time>
      </trkpt>
      <trkpt lat="42.4307280" lon="-3.1189380">
        <ele>771.0</ele>
        <time>2022-08-29T09:18:08Z</time>
      </trkpt>
      <trkpt lat="42.4307250" lon="-3.1189760">
        <ele>771.0</ele>
        <time>2022-08-29T09:18:09Z</time>
      </trkpt>
      <trkpt lat="42.4307230" lon="-3.1190140">
        <ele>771.2</ele>
        <time>2022-08-29T09:18:10Z</time>
      </trkpt>
      <trkpt lat="42.4307200" lon="-3.1190530">
        <ele>771.6</ele>
        <time>2022-08-29T09:18:11Z</time>
      </trkpt>
      <trkpt lat="42.4307170" lon="-3.1190910">
        <ele>771.4</ele>
        <time>2022-08-29T09:18:12Z</time>
      </trkpt>
      <trkpt lat="42.4307140" lon="-3.1191290">
        <ele>771.6</ele>
        <time>2022-08-29T09:18:13Z</time>
      </trkpt>
      <trkpt lat="42.4307110" lon="-3.1191680">
        <ele>771.6</ele>
        <time>2022-08-29T09:18:14Z</time>
      </trkpt>
      <trkpt lat="42.4307080" lon="-3.1192060">
        <ele>771.8</ele>
        <time>2022-08-29T09:18:15Z</time>
      </trkpt>
      <trkpt lat="42.4307050" lon="-3.1192460">
        <ele>772.2</ele>
        <time>2022-08-29T09:18:16Z</time>
      </trkpt>
      <trkpt lat="42.4307020" lon="-3.1192860">
        <ele>772.2</ele>
        <time>2022-08-29T09:18:17Z</time>
      </trkpt>
      <trkpt lat="42.4306990" lon="-3.1193240">
        <ele>772.4</ele>
        <time>2022-08-29T09:18:18Z</time>
      </trkpt>
      <trkpt lat="42.4306960" lon="-3.1193610">
        <ele>772.4</ele>
        <time>2022-08-29T09:18:19Z</time>
      </trkpt>
      <trkpt lat="42.4306930" lon="-3.1193960">
        <ele>772.6</ele>
        <time>2022-08-29T09:18:20Z</time>
      </trkpt>
      <trkpt lat="42.4306910" lon="-3.1194300">
        <ele>772.6</ele>
        <time>2022-08-29T09:18:21Z</time>
      </trkpt>
      <trkpt lat="42.4306880" lon="-3.1194650">
        <ele>772.8</ele>
        <time>2022-08-29T09:18:22Z</time>
      </trkpt>
      <trkpt lat="42.4306810" lon="-3.1194980">
        <ele>773.2</ele>
        <time>2022-08-29T09:18:23Z</time>
      </trkpt>
      <trkpt lat="42.4306760" lon="-3.1195310">
        <ele>773.2</ele>
        <time>2022-08-29T09:18:24Z</time>
      </trkpt>
      <trkpt lat="42.4306740" lon="-3.1195660">
        <ele>773.4</ele>
        <time>2022-08-29T09:18:25Z</time>
      </trkpt>
      <trkpt lat="42.4306750" lon="-3.1196020">
        <ele>773.4</ele>
        <time>2022-08-29T09:18:26Z</time>
      </trkpt>
      <trkpt lat="42.4306740" lon="-3.1196390">
        <ele>773.6</ele>
        <time>2022-08-29T09:18:27Z</time>
      </trkpt>
      <trkpt lat="42.4306690" lon="-3.1196760">
        <ele>773.8</ele>
        <time>2022-08-29T09:18:28Z</time>
      </trkpt>
      <trkpt lat="42.4306610" lon="-3.1197120">
        <ele>774.0</ele>
        <time>2022-08-29T09:18:29Z</time>
      </trkpt>
      <trkpt lat="42.4306560" lon="-3.1197490">
        <ele>774.0</ele>
        <time>2022-08-29T09:18:30Z</time>
      </trkpt>
      <trkpt lat="42.4306530" lon="-3.1197860">
        <ele>774.2</ele>
        <time>2022-08-29T09:18:31Z</time>
      </trkpt>
      <trkpt lat="42.4306490" lon="-3.1198240">
        <ele>774.2</ele>
        <time>2022-08-29T09:18:32Z</time>
      </trkpt>
      <trkpt lat="42.4306460" lon="-3.1198620">
        <ele>774.4</ele>
        <time>2022-08-29T09:18:33Z</time>
      </trkpt>
      <trkpt lat="42.4306430" lon="-3.1199010">
        <ele>774.6</ele>
        <time>2022-08-29T09:18:34Z</time>
      </trkpt>
      <trkpt lat="42.4306420" lon="-3.1199380">
        <ele>774.6</ele>
        <time>2022-08-29T09:18:35Z</time>
      </trkpt>
      <trkpt lat="42.4306420" lon="-3.1199750">
        <ele>774.8</ele>
        <time>2022-08-29T09:18:36Z</time>
      </trkpt>
      <trkpt lat="42.4306430" lon="-3.1200120">
        <ele>774.8</ele>
        <time>2022-08-29T09:18:37Z</time>
      </trkpt>
      <trkpt lat="42.4306440" lon="-3.1200500">
        <ele>775.0</ele>
        <time>2022-08-29T09:18:38Z</time>
      </trkpt>
      <trkpt lat="42.4306410" lon="-3.1200870">
        <ele>775.0</ele>
        <time>2022-08-29T09:18:39Z</time>
      </trkpt>
      <trkpt lat="42.4306360" lon="-3.1201230">
        <ele>775.0</ele>
        <time>2022-08-29T09:18:40Z</time>
      </trkpt>
      <trkpt lat="42.4306300" lon="-3.1201590">
        <ele>775.2</ele>
        <time>2022-08-29T09:18:41Z</time>
      </trkpt>
      <trkpt lat="42.4306260" lon="-3.1201950">
        <ele>775.2</ele>
        <time>2022-08-29T09:18:42Z</time>
      </trkpt>
      <trkpt lat="42.4306230" lon="-3.1202330">
        <ele>775.4</ele>
        <time>2022-08-29T09:18:43Z</time>
      </trkpt>
      <trkpt lat="42.4306200" lon="-3.1202710">
        <ele>775.6</ele>
        <time>2022-08-29T09:18:44Z</time>
      </trkpt>
      <trkpt lat="42.4306170" lon="-3.1203080">
        <ele>775.8</ele>
        <time>2022-08-29T09:18:45Z</time>
      </trkpt>
      <trkpt lat="42.4306140" lon="-3.1203450">
        <ele>776.0</ele>
        <time>2022-08-29T09:18:46Z</time>
      </trkpt>
      <trkpt lat="42.4306110" lon="-3.1203790">
        <ele>776.2</ele>
        <time>2022-08-29T09:18:47Z</time>
      </trkpt>
      <trkpt lat="42.4306080" lon="-3.1204130">
        <ele>776.4</ele>
        <time>2022-08-29T09:18:48Z</time>
      </trkpt>
      <trkpt lat="42.4306060" lon="-3.1204500">
        <ele>776.6</ele>
        <time>2022-08-29T09:18:49Z</time>
      </trkpt>
      <trkpt lat="42.4306040" lon="-3.1204870">
        <ele>776.8</ele>
        <time>2022-08-29T09:18:50Z</time>
      </trkpt>
      <trkpt lat="42.4306010" lon="-3.1205230">
        <ele>777.0</ele>
        <time>2022-08-29T09:18:51Z</time>
      </trkpt>
      <trkpt lat="42.4305950" lon="-3.1205580">
        <ele>776.8</ele>
        <time>2022-08-29T09:18:52Z</time>
      </trkpt>
      <trkpt lat="42.4305890" lon="-3.1205940">
        <ele>777.0</ele>
        <time>2022-08-29T09:18:53Z</time>
      </trkpt>
      <trkpt lat="42.4305850" lon="-3.1206290">
        <ele>777.0</ele>
        <time>2022-08-29T09:18:54Z</time>
      </trkpt>
      <trkpt lat="42.4305810" lon="-3.1206650">
        <ele>777.4</ele>
        <time>2022-08-29T09:18:55Z</time>
      </trkpt>
      <trkpt lat="42.4305770" lon="-3.1207030">
        <ele>777.4</ele>
        <time>2022-08-29T09:18:56Z</time>
      </trkpt>
      <trkpt lat="42.4305740" lon="-3.1207390">
        <ele>777.8</ele>
        <time>2022-08-29T09:18:57Z</time>
      </trkpt>
      <trkpt lat="42.4305700" lon="-3.1207770">
        <ele>778.2</ele>
        <time>2022-08-29T09:18:58Z</time>
      </trkpt>
      <trkpt lat="42.4305660" lon="-3.1208150">
        <ele>778.4</ele>
        <time>2022-08-29T09:18:59Z</time>
      </trkpt>
      <trkpt lat="42.4305630" lon="-3.1208540">
        <ele>778.6</ele>
        <time>2022-08-29T09:19:00Z</time>
      </trkpt>
      <trkpt lat="42.4305590" lon="-3.1208930">
        <ele>778.8</ele>
        <time>2022-08-29T09:19:01Z</time>
      </trkpt>
      <trkpt lat="42.4305550" lon="-3.1209340">
        <ele>779.0</ele>
        <time>2022-08-29T09:19:02Z</time>
      </trkpt>
      <trkpt lat="42.4305520" lon="-3.1209740">
        <ele>779.0</ele>
        <time>2022-08-29T09:19:03Z</time>
      </trkpt>
      <trkpt lat="42.4305480" lon="-3.1210160">
        <ele>779.0</ele>
        <time>2022-08-29T09:19:04Z</time>
      </trkpt>
      <trkpt lat="42.4305430" lon="-3.1210590">
        <ele>779.2</ele>
        <time>2022-08-29T09:19:05Z</time>
      </trkpt>
      <trkpt lat="42.4305390" lon="-3.1211020">
        <ele>779.2</ele>
        <time>2022-08-29T09:19:06Z</time>
      </trkpt>
      <trkpt lat="42.4305350" lon="-3.1211480">
        <ele>779.4</ele>
        <time>2022-08-29T09:19:07Z</time>
      </trkpt>
      <trkpt lat="42.4305310" lon="-3.1211950">
        <ele>779.4</ele>
        <time>2022-08-29T09:19:08Z</time>
      </trkpt>
      <trkpt lat="42.4305280" lon="-3.1212430">
        <ele>779.4</ele>
        <time>2022-08-29T09:19:09Z</time>
      </trkpt>
      <trkpt lat="42.4305250" lon="-3.1212920">
        <ele>779.6</ele>
        <time>2022-08-29T09:19:10Z</time>
      </trkpt>
      <trkpt lat="42.4305210" lon="-3.1213410">
        <ele>779.6</ele>
        <time>2022-08-29T09:19:11Z</time>
      </trkpt>
      <trkpt lat="42.4305160" lon="-3.1213880">
        <ele>779.8</ele>
        <time>2022-08-29T09:19:12Z</time>
      </trkpt>
      <trkpt lat="42.4305090" lon="-3.1214330">
        <ele>779.8</ele>
        <time>2022-08-29T09:19:13Z</time>
      </trkpt>
      <trkpt lat="42.4305040" lon="-3.1214760">
        <ele>779.8</ele>
        <time>2022-08-29T09:19:14Z</time>
      </trkpt>
      <trkpt lat="42.4305020" lon="-3.1215180">
        <ele>780.0</ele>
        <time>2022-08-29T09:19:15Z</time>
      </trkpt>
      <trkpt lat="42.4305000" lon="-3.1215590">
        <ele>780.0</ele>
        <time>2022-08-29T09:19:16Z</time>
      </trkpt>
      <trkpt lat="42.4304960" lon="-3.1216020">
        <ele>780.0</ele>
        <time>2022-08-29T09:19:17Z</time>
      </trkpt>
      <trkpt lat="42.4304930" lon="-3.1216480">
        <ele>780.0</ele>
        <time>2022-08-29T09:19:18Z</time>
      </trkpt>
      <trkpt lat="42.4304920" lon="-3.1216970">
        <ele>780.0</ele>
        <time>2022-08-29T09:19:19Z</time>
      </trkpt>
      <trkpt lat="42.4304910" lon="-3.1217470">
        <ele>780.0</ele>
        <time>2022-08-29T09:19:20Z</time>
      </trkpt>
      <trkpt lat="42.4304900" lon="-3.1217970">
        <ele>779.8</ele>
        <time>2022-08-29T09:19:21Z</time>
      </trkpt>
      <trkpt lat="42.4304860" lon="-3.1218470">
        <ele>780.0</ele>
        <time>2022-08-29T09:19:22Z</time>
      </trkpt>
      <trkpt lat="42.4304820" lon="-3.1218980">
        <ele>780.0</ele>
        <time>2022-08-29T09:19:23Z</time>
      </trkpt>
      <trkpt lat="42.4304770" lon="-3.1219480">
        <ele>780.0</ele>
        <time>2022-08-29T09:19:24Z</time>
      </trkpt>
      <trkpt lat="42.4304730" lon="-3.1219990">
        <ele>780.0</ele>
        <time>2022-08-29T09:19:25Z</time>
      </trkpt>
      <trkpt lat="42.4304700" lon="-3.1220500">
        <ele>780.0</ele>
        <time>2022-08-29T09:19:26Z</time>
      </trkpt>
      <trkpt lat="42.4304680" lon="-3.1221030">
        <ele>780.0</ele>
        <time>2022-08-29T09:19:27Z</time>
      </trkpt>
      <trkpt lat="42.4304640" lon="-3.1221530">
        <ele>780.0</ele>
        <time>2022-08-29T09:19:28Z</time>
      </trkpt>
      <trkpt lat="42.4304590" lon="-3.1222040">
        <ele>780.0</ele>
        <time>2022-08-29T09:19:29Z</time>
      </trkpt>
      <trkpt lat="42.4304540" lon="-3.1222560">
        <ele>780.0</ele>
        <time>2022-08-29T09:19:30Z</time>
      </trkpt>
      <trkpt lat="42.4304500" lon="-3.1223100">
        <ele>780.0</ele>
        <time>2022-08-29T09:19:31Z</time>
      </trkpt>
      <trkpt lat="42.4304450" lon="-3.1223640">
        <ele>779.8</ele>
        <time>2022-08-29T09:19:32Z</time>
      </trkpt>
      <trkpt lat="42.4304410" lon="-3.1224180">
        <ele>780.0</ele>
        <time>2022-08-29T09:19:33Z</time>
      </trkpt>
      <trkpt lat="42.4304320" lon="-3.1224720">
        <ele>780.0</ele>
        <time>2022-08-29T09:19:34Z</time>
      </trkpt>
      <trkpt lat="42.4304240" lon="-3.1225260">
        <ele>780.0</ele>
        <time>2022-08-29T09:19:35Z</time>
      </trkpt>
      <trkpt lat="42.4304180" lon="-3.1225790">
        <ele>780.0</ele>
        <time>2022-08-29T09:19:36Z</time>
      </trkpt>
      <trkpt lat="42.4304180" lon="-3.1226320">
        <ele>780.0</ele>
        <time>2022-08-29T09:19:37Z</time>
      </trkpt>
      <trkpt lat="42.4304190" lon="-3.1226860">
        <ele>780.0</ele>
        <time>2022-08-29T09:19:38Z</time>
      </trkpt>
      <trkpt lat="42.4304200" lon="-3.1227410">
        <ele>780.2</ele>
        <time>2022-08-29T09:19:39Z</time>
      </trkpt>
      <trkpt lat="42.4304210" lon="-3.1227990">
        <ele>780.2</ele>
        <time>2022-08-29T09:19:40Z</time>
      </trkpt>
      <trkpt lat="42.4304220" lon="-3.1228570">
        <ele>780.2</ele>
        <time>2022-08-29T09:19:41Z</time>
      </trkpt>
      <trkpt lat="42.4304240" lon="-3.1229160">
        <ele>780.2</ele>
        <time>2022-08-29T09:19:42Z</time>
      </trkpt>
      <trkpt lat="42.4304270" lon="-3.1229760">
        <ele>780.2</ele>
        <time>2022-08-29T09:19:43Z</time>
      </trkpt>
      <trkpt lat="42.4304360" lon="-3.1230380">
        <ele>780.2</ele>
        <time>2022-08-29T09:19:44Z</time>
      </trkpt>
      <trkpt lat="42.4304460" lon="-3.1231010">
        <ele>780.4</ele>
        <time>2022-08-29T09:19:45Z</time>
      </trkpt>
      <trkpt lat="42.4304580" lon="-3.1231660">
        <ele>780.4</ele>
        <time>2022-08-29T09:19:46Z</time>
      </trkpt>
      <trkpt lat="42.4304680" lon="-3.1232300">
        <ele>780.4</ele>
        <time>2022-08-29T09:19:47Z</time>
      </trkpt>
      <trkpt lat="42.4304750" lon="-3.1232920">
        <ele>780.2</ele>
        <time>2022-08-29T09:19:48Z</time>
      </trkpt>
      <trkpt lat="42.4304800" lon="-3.1233520">
        <ele>780.4</ele>
        <time>2022-08-29T09:19:49Z</time>
      </trkpt>
      <trkpt lat="42.4304850" lon="-3.1234120">
        <ele>780.2</ele>
        <time>2022-08-29T09:19:50Z</time>
      </trkpt>
      <trkpt lat="42.4304910" lon="-3.1234720">
        <ele>780.4</ele>
        <time>2022-08-29T09:19:51Z</time>
      </trkpt>
      <trkpt lat="42.4304970" lon="-3.1235320">
        <ele>780.2</ele>
        <time>2022-08-29T09:19:52Z</time>
      </trkpt>
      <trkpt lat="42.4305050" lon="-3.1235920">
        <ele>780.2</ele>
        <time>2022-08-29T09:19:53Z</time>
      </trkpt>
      <trkpt lat="42.4305140" lon="-3.1236530">
        <ele>780.2</ele>
        <time>2022-08-29T09:19:54Z</time>
      </trkpt>
      <trkpt lat="42.4305200" lon="-3.1237160">
        <ele>780.0</ele>
        <time>2022-08-29T09:19:55Z</time>
      </trkpt>
      <trkpt lat="42.4305220" lon="-3.1237800">
        <ele>779.8</ele>
        <time>2022-08-29T09:19:56Z</time>
      </trkpt>
      <trkpt lat="42.4305250" lon="-3.1238450">
        <ele>779.8</ele>
        <time>2022-08-29T09:19:57Z</time>
      </trkpt>
      <trkpt lat="42.4305320" lon="-3.1239120">
        <ele>779.8</ele>
        <time>2022-08-29T09:19:58Z</time>
      </trkpt>
      <trkpt lat="42.4305400" lon="-3.1239850">
        <ele>779.6</ele>
        <time>2022-08-29T09:19:59Z</time>
      </trkpt>
      <trkpt lat="42.4305480" lon="-3.1240620">
        <ele>779.8</ele>
        <time>2022-08-29T09:20:00Z</time>
      </trkpt>
      <trkpt lat="42.4305600" lon="-3.1241450">
        <ele>779.8</ele>
        <time>2022-08-29T09:20:01Z</time>
      </trkpt>
      <trkpt lat="42.4305710" lon="-3.1242320">
        <ele>779.6</ele>
        <time>2022-08-29T09:20:02Z</time>
      </trkpt>
      <trkpt lat="42.4305840" lon="-3.1243290">
        <ele>779.6</ele>
        <time>2022-08-29T09:20:03Z</time>
      </trkpt>
      <trkpt lat="42.4305980" lon="-3.1244300">
        <ele>779.6</ele>
        <time>2022-08-29T09:20:04Z</time>
      </trkpt>
      <trkpt lat="42.4306140" lon="-3.1245320">
        <ele>779.2</ele>
        <time>2022-08-29T09:20:05Z</time>
      </trkpt>
      <trkpt lat="42.4306330" lon="-3.1246380">
        <ele>778.6</ele>
        <time>2022-08-29T09:20:06Z</time>
      </trkpt>
      <trkpt lat="42.4306510" lon="-3.1247450">
        <ele>778.4</ele>
        <time>2022-08-29T09:20:07Z</time>
      </trkpt>
      <trkpt lat="42.4306640" lon="-3.1248550">
        <ele>778.2</ele>
        <time>2022-08-29T09:20:08Z</time>
      </trkpt>
      <trkpt lat="42.4306790" lon="-3.1249650">
        <ele>778.0</ele>
        <time>2022-08-29T09:20:09Z</time>
      </trkpt>
      <trkpt lat="42.4306920" lon="-3.1250770">
        <ele>777.2</ele>
        <time>2022-08-29T09:20:10Z</time>
      </trkpt>
      <trkpt lat="42.4307040" lon="-3.1251900">
        <ele>776.8</ele>
        <time>2022-08-29T09:20:11Z</time>
      </trkpt>
      <trkpt lat="42.4307160" lon="-3.1253010">
        <ele>776.2</ele>
        <time>2022-08-29T09:20:12Z</time>
      </trkpt>
      <trkpt lat="42.4307290" lon="-3.1254160">
        <ele>775.0</ele>
        <time>2022-08-29T09:20:13Z</time>
      </trkpt>
      <trkpt lat="42.4307420" lon="-3.1255270">
        <ele>774.6</ele>
        <time>2022-08-29T09:20:14Z</time>
      </trkpt>
      <trkpt lat="42.4307540" lon="-3.1256330">
        <ele>774.2</ele>
        <time>2022-08-29T09:20:15Z</time>
      </trkpt>
      <trkpt lat="42.4307680" lon="-3.1257370">
        <ele>773.2</ele>
        <time>2022-08-29T09:20:16Z</time>
      </trkpt>
      <trkpt lat="42.4307820" lon="-3.1258380">
        <ele>772.6</ele>
        <time>2022-08-29T09:20:17Z</time>
      </trkpt>
      <trkpt lat="42.4307970" lon="-3.1259370">
        <ele>772.6</ele>
        <time>2022-08-29T09:20:18Z</time>
      </trkpt>
      <trkpt lat="42.4308100" lon="-3.1260340">
        <ele>772.4</ele>
        <time>2022-08-29T09:20:19Z</time>
      </trkpt>
      <trkpt lat="42.4308240" lon="-3.1261280">
        <ele>771.6</ele>
        <time>2022-08-29T09:20:20Z</time>
      </trkpt>
      <trkpt lat="42.4308390" lon="-3.1262200">
        <ele>771.6</ele>
        <time>2022-08-29T09:20:21Z</time>
      </trkpt>
      <trkpt lat="42.4308540" lon="-3.1263100">
        <ele>771.4</ele>
        <time>2022-08-29T09:20:22Z</time>
      </trkpt>
      <trkpt lat="42.4308700" lon="-3.1263970">
        <ele>771.2</ele>
        <time>2022-08-29T09:20:23Z</time>
      </trkpt>
      <trkpt lat="42.4308860" lon="-3.1264800">
        <ele>771.2</ele>
        <time>2022-08-29T09:20:24Z</time>
      </trkpt>
      <trkpt lat="42.4309000" lon="-3.1265580">
        <ele>771.2</ele>
        <time>2022-08-29T09:20:25Z</time>
      </trkpt>
      <trkpt lat="42.4309130" lon="-3.1266320">
        <ele>771.2</ele>
        <time>2022-08-29T09:20:26Z</time>
      </trkpt>
      <trkpt lat="42.4309220" lon="-3.1266980">
        <ele>771.4</ele>
        <time>2022-08-29T09:20:27Z</time>
      </trkpt>
      <trkpt lat="42.4309320" lon="-3.1267620">
        <ele>771.2</ele>
        <time>2022-08-29T09:20:28Z</time>
      </trkpt>
      <trkpt lat="42.4309390" lon="-3.1268220">
        <ele>771.2</ele>
        <time>2022-08-29T09:20:29Z</time>
      </trkpt>
      <trkpt lat="42.4309470" lon="-3.1268800">
        <ele>771.2</ele>
        <time>2022-08-29T09:20:30Z</time>
      </trkpt>
      <trkpt lat="42.4309540" lon="-3.1269350">
        <ele>771.2</ele>
        <time>2022-08-29T09:20:31Z</time>
      </trkpt>
      <trkpt lat="42.4309600" lon="-3.1269910">
        <ele>771.6</ele>
        <time>2022-08-29T09:20:32Z</time>
      </trkpt>
      <trkpt lat="42.4309660" lon="-3.1270460">
        <ele>771.8</ele>
        <time>2022-08-29T09:20:33Z</time>
      </trkpt>
      <trkpt lat="42.4309730" lon="-3.1271030">
        <ele>772.0</ele>
        <time>2022-08-29T09:20:34Z</time>
      </trkpt>
      <trkpt lat="42.4309790" lon="-3.1271600">
        <ele>772.2</ele>
        <time>2022-08-29T09:20:35Z</time>
      </trkpt>
      <trkpt lat="42.4309850" lon="-3.1272180">
        <ele>772.4</ele>
        <time>2022-08-29T09:20:36Z</time>
      </trkpt>
      <trkpt lat="42.4309900" lon="-3.1272740">
        <ele>772.8</ele>
        <time>2022-08-29T09:20:37Z</time>
      </trkpt>
      <trkpt lat="42.4309970" lon="-3.1273280">
        <ele>773.0</ele>
        <time>2022-08-29T09:20:38Z</time>
      </trkpt>
      <trkpt lat="42.4310030" lon="-3.1273790">
        <ele>773.4</ele>
        <time>2022-08-29T09:20:39Z</time>
      </trkpt>
      <trkpt lat="42.4310120" lon="-3.1274290">
        <ele>773.6</ele>
        <time>2022-08-29T09:20:40Z</time>
      </trkpt>
      <trkpt lat="42.4310220" lon="-3.1274760">
        <ele>773.6</ele>
        <time>2022-08-29T09:20:41Z</time>
      </trkpt>
      <trkpt lat="42.4310310" lon="-3.1275220">
        <ele>773.6</ele>
        <time>2022-08-29T09:20:42Z</time>
      </trkpt>
      <trkpt lat="42.4310380" lon="-3.1275640">
        <ele>774.0</ele>
        <time>2022-08-29T09:20:43Z</time>
      </trkpt>
      <trkpt lat="42.4310440" lon="-3.1276040">
        <ele>774.0</ele>
        <time>2022-08-29T09:20:44Z</time>
      </trkpt>
      <trkpt lat="42.4310480" lon="-3.1276410">
        <ele>774.0</ele>
        <time>2022-08-29T09:20:45Z</time>
      </trkpt>
      <trkpt lat="42.4310520" lon="-3.1276750">
        <ele>774.2</ele>
        <time>2022-08-29T09:20:46Z</time>
      </trkpt>
      <trkpt lat="42.4310560" lon="-3.1277050">
        <ele>774.4</ele>
        <time>2022-08-29T09:20:47Z</time>
      </trkpt>
      <trkpt lat="42.4310610" lon="-3.1277300">
        <ele>774.6</ele>
        <time>2022-08-29T09:20:48Z</time>
      </trkpt>
      <trkpt lat="42.4310640" lon="-3.1277530">
        <ele>774.8</ele>
        <time>2022-08-29T09:20:49Z</time>
      </trkpt>
      <trkpt lat="42.4310680" lon="-3.1277750">
        <ele>775.0</ele>
        <time>2022-08-29T09:20:50Z</time>
      </trkpt>
      <trkpt lat="42.4310710" lon="-3.1277990">
        <ele>775.4</ele>
        <time>2022-08-29T09:20:51Z</time>
      </trkpt>
      <trkpt lat="42.4310730" lon="-3.1278250">
        <ele>775.4</ele>
        <time>2022-08-29T09:20:52Z</time>
      </trkpt>
      <trkpt lat="42.4310750" lon="-3.1278510">
        <ele>775.6</ele>
        <time>2022-08-29T09:20:53Z</time>
      </trkpt>
      <trkpt lat="42.4310780" lon="-3.1278770">
        <ele>776.0</ele>
        <time>2022-08-29T09:20:54Z</time>
      </trkpt>
      <trkpt lat="42.4310810" lon="-3.1279030">
        <ele>776.2</ele>
        <time>2022-08-29T09:20:55Z</time>
      </trkpt>
      <trkpt lat="42.4310840" lon="-3.1279290">
        <ele>776.6</ele>
        <time>2022-08-29T09:20:56Z</time>
      </trkpt>
      <trkpt lat="42.4310870" lon="-3.1279570">
        <ele>776.8</ele>
        <time>2022-08-29T09:20:57Z</time>
      </trkpt>
      <trkpt lat="42.4310910" lon="-3.1279840">
        <ele>776.8</ele>
        <time>2022-08-29T09:20:58Z</time>
      </trkpt>
      <trkpt lat="42.4310940" lon="-3.1280120">
        <ele>777.0</ele>
        <time>2022-08-29T09:20:59Z</time>
      </trkpt>
      <trkpt lat="42.4310970" lon="-3.1280390">
        <ele>777.2</ele>
        <time>2022-08-29T09:21:00Z</time>
      </trkpt>
      <trkpt lat="42.4311010" lon="-3.1280670">
        <ele>777.4</ele>
        <time>2022-08-29T09:21:01Z</time>
      </trkpt>
      <trkpt lat="42.4311060" lon="-3.1280960">
        <ele>778.0</ele>
        <time>2022-08-29T09:21:02Z</time>
      </trkpt>
      <trkpt lat="42.4311090" lon="-3.1281230">
        <ele>778.0</ele>
        <time>2022-08-29T09:21:03Z</time>
      </trkpt>
      <trkpt lat="42.4311120" lon="-3.1281490">
        <ele>778.2</ele>
        <time>2022-08-29T09:21:04Z</time>
      </trkpt>
      <trkpt lat="42.4311130" lon="-3.1281760">
        <ele>778.4</ele>
        <time>2022-08-29T09:21:05Z</time>
      </trkpt>
      <trkpt lat="42.4311160" lon="-3.1282020">
        <ele>778.4</ele>
        <time>2022-08-29T09:21:06Z</time>
      </trkpt>
      <trkpt lat="42.4311170" lon="-3.1282260">
        <ele>778.6</ele>
        <time>2022-08-29T09:21:07Z</time>
      </trkpt>
      <trkpt lat="42.4311190" lon="-3.1282470">
        <ele>778.6</ele>
        <time>2022-08-29T09:21:08Z</time>
      </trkpt>
      <trkpt lat="42.4311200" lon="-3.1282640">
        <ele>778.8</ele>
        <time>2022-08-29T09:21:09Z</time>
      </trkpt>
      <trkpt lat="42.4311210" lon="-3.1282800">
        <ele>779.0</ele>
        <time>2022-08-29T09:21:10Z</time>
      </trkpt>
      <trkpt lat="42.4311210" lon="-3.1282960">
        <ele>779.4</ele>
        <time>2022-08-29T09:21:11Z</time>
      </trkpt>
      <trkpt lat="42.4311200" lon="-3.1283140">
        <ele>779.8</ele>
        <time>2022-08-29T09:21:12Z</time>
      </trkpt>
      <trkpt lat="42.4311200" lon="-3.1283310">
        <ele>780.0</ele>
        <time>2022-08-29T09:21:13Z</time>
      </trkpt>
      <trkpt lat="42.4311190" lon="-3.1283470">
        <ele>780.4</ele>
        <time>2022-08-29T09:21:14Z</time>
      </trkpt>
      <trkpt lat="42.4311210" lon="-3.1283630">
        <ele>780.6</ele>
        <time>2022-08-29T09:21:15Z</time>
      </trkpt>
      <trkpt lat="42.4311220" lon="-3.1283800">
        <ele>781.0</ele>
        <time>2022-08-29T09:21:16Z</time>
      </trkpt>
      <trkpt lat="42.4311200" lon="-3.1283980">
        <ele>781.2</ele>
        <time>2022-08-29T09:21:17Z</time>
      </trkpt>
      <trkpt lat="42.4311160" lon="-3.1284180">
        <ele>781.2</ele>
        <time>2022-08-29T09:21:18Z</time>
      </trkpt>
      <trkpt lat="42.4311120" lon="-3.1284390">
        <ele>781.4</ele>
        <time>2022-08-29T09:21:19Z</time>
      </trkpt>
      <trkpt lat="42.4311080" lon="-3.1284610">
        <ele>781.6</ele>
        <time>2022-08-29T09:21:20Z</time>
      </trkpt>
      <trkpt lat="42.4311050" lon="-3.1284840">
        <ele>781.8</ele>
        <time>2022-08-29T09:21:21Z</time>
      </trkpt>
      <trkpt lat="42.4311030" lon="-3.1285080">
        <ele>782.0</ele>
        <time>2022-08-29T09:21:22Z</time>
      </trkpt>
      <trkpt lat="42.4311020" lon="-3.1285340">
        <ele>782.2</ele>
        <time>2022-08-29T09:21:23Z</time>
      </trkpt>
      <trkpt lat="42.4311000" lon="-3.1285600">
        <ele>782.4</ele>
        <time>2022-08-29T09:21:24Z</time>
      </trkpt>
      <trkpt lat="42.4310960" lon="-3.1285850">
        <ele>782.6</ele>
        <time>2022-08-29T09:21:25Z</time>
      </trkpt>
      <trkpt lat="42.4310910" lon="-3.1286100">
        <ele>782.6</ele>
        <time>2022-08-29T09:21:26Z</time>
      </trkpt>
      <trkpt lat="42.4310880" lon="-3.1286340">
        <ele>782.8</ele>
        <time>2022-08-29T09:21:27Z</time>
      </trkpt>
      <trkpt lat="42.4310890" lon="-3.1286560">
        <ele>782.8</ele>
        <time>2022-08-29T09:21:28Z</time>
      </trkpt>
      <trkpt lat="42.4310890" lon="-3.1286760">
        <ele>783.0</ele>
        <time>2022-08-29T09:21:29Z</time>
      </trkpt>
      <trkpt lat="42.4310880" lon="-3.1286960">
        <ele>783.0</ele>
        <time>2022-08-29T09:21:30Z</time>
      </trkpt>
      <trkpt lat="42.4310840" lon="-3.1287140">
        <ele>783.4</ele>
        <time>2022-08-29T09:21:31Z</time>
      </trkpt>
      <trkpt lat="42.4310790" lon="-3.1287310">
        <ele>783.4</ele>
        <time>2022-08-29T09:21:32Z</time>
      </trkpt>
      <trkpt lat="42.4310740" lon="-3.1287500">
        <ele>783.6</ele>
        <time>2022-08-29T09:21:33Z</time>
      </trkpt>
      <trkpt lat="42.4310720" lon="-3.1287710">
        <ele>783.8</ele>
        <time>2022-08-29T09:21:34Z</time>
      </trkpt>
      <trkpt lat="42.4310710" lon="-3.1287930">
        <ele>784.0</ele>
        <time>2022-08-29T09:21:35Z</time>
      </trkpt>
      <trkpt lat="42.4310730" lon="-3.1288120">
        <ele>784.2</ele>
        <time>2022-08-29T09:21:36Z</time>
      </trkpt>
      <trkpt lat="42.4310730" lon="-3.1288310">
        <ele>784.4</ele>
        <time>2022-08-29T09:21:37Z</time>
      </trkpt>
      <trkpt lat="42.4310720" lon="-3.1288510">
        <ele>784.6</ele>
        <time>2022-08-29T09:21:38Z</time>
      </trkpt>
      <trkpt lat="42.4310730" lon="-3.1288710">
        <ele>784.6</ele>
        <time>2022-08-29T09:21:39Z</time>
      </trkpt>
      <trkpt lat="42.4310730" lon="-3.1288930">
        <ele>784.8</ele>
        <time>2022-08-29T09:21:40Z</time>
      </trkpt>
      <trkpt lat="42.4310730" lon="-3.1289170">
        <ele>785.0</ele>
        <time>2022-08-29T09:21:41Z</time>
      </trkpt>
      <trkpt lat="42.4310720" lon="-3.1289410">
        <ele>785.2</ele>
        <time>2022-08-29T09:21:42Z</time>
      </trkpt>
      <trkpt lat="42.4310700" lon="-3.1289680">
        <ele>785.4</ele>
        <time>2022-08-29T09:21:43Z</time>
      </trkpt>
      <trkpt lat="42.4310680" lon="-3.1289950">
        <ele>785.4</ele>
        <time>2022-08-29T09:21:44Z</time>
      </trkpt>
      <trkpt lat="42.4310660" lon="-3.1290230">
        <ele>785.6</ele>
        <time>2022-08-29T09:21:45Z</time>
      </trkpt>
      <trkpt lat="42.4310650" lon="-3.1290510">
        <ele>785.8</ele>
        <time>2022-08-29T09:21:46Z</time>
      </trkpt>
      <trkpt lat="42.4310620" lon="-3.1290840">
        <ele>786.0</ele>
        <time>2022-08-29T09:21:47Z</time>
      </trkpt>
      <trkpt lat="42.4310610" lon="-3.1291190">
        <ele>786.0</ele>
        <time>2022-08-29T09:21:48Z</time>
      </trkpt>
      <trkpt lat="42.4310570" lon="-3.1291610">
        <ele>786.0</ele>
        <time>2022-08-29T09:21:49Z</time>
      </trkpt>
      <trkpt lat="42.4310510" lon="-3.1292130">
        <ele>786.0</ele>
        <time>2022-08-29T09:21:50Z</time>
      </trkpt>
      <trkpt lat="42.4310410" lon="-3.1292720">
        <ele>786.0</ele>
        <time>2022-08-29T09:21:51Z</time>
      </trkpt>
      <trkpt lat="42.4310310" lon="-3.1293340">
        <ele>785.8</ele>
        <time>2022-08-29T09:21:52Z</time>
      </trkpt>
      <trkpt lat="42.4310230" lon="-3.1293930">
        <ele>785.8</ele>
        <time>2022-08-29T09:21:53Z</time>
      </trkpt>
      <trkpt lat="42.4310120" lon="-3.1294500">
        <ele>786.0</ele>
        <time>2022-08-29T09:21:54Z</time>
      </trkpt>
      <trkpt lat="42.4310020" lon="-3.1295020">
        <ele>786.0</ele>
        <time>2022-08-29T09:21:55Z</time>
      </trkpt>
      <trkpt lat="42.4309950" lon="-3.1295440">
        <ele>786.0</ele>
        <time>2022-08-29T09:21:56Z</time>
      </trkpt>
      <trkpt lat="42.4309870" lon="-3.1295820">
        <ele>786.0</ele>
        <time>2022-08-29T09:21:57Z</time>
      </trkpt>
      <trkpt lat="42.4309800" lon="-3.1296210">
        <ele>786.0</ele>
        <time>2022-08-29T09:21:58Z</time>
      </trkpt>
      <trkpt lat="42.4309720" lon="-3.1296640">
        <ele>785.8</ele>
        <time>2022-08-29T09:21:59Z</time>
      </trkpt>
      <trkpt lat="42.4309630" lon="-3.1297080">
        <ele>785.8</ele>
        <time>2022-08-29T09:22:00Z</time>
      </trkpt>
      <trkpt lat="42.4309540" lon="-3.1297520">
        <ele>785.4</ele>
        <time>2022-08-29T09:22:01Z</time>
      </trkpt>
      <trkpt lat="42.4309430" lon="-3.1297980">
        <ele>785.2</ele>
        <time>2022-08-29T09:22:02Z</time>
      </trkpt>
      <trkpt lat="42.4309300" lon="-3.1298470">
        <ele>785.2</ele>
        <time>2022-08-29T09:22:03Z</time>
      </trkpt>
      <trkpt lat="42.4309150" lon="-3.1298970">
        <ele>785.0</ele>
        <time>2022-08-29T09:22:04Z</time>
      </trkpt>
      <trkpt lat="42.4309010" lon="-3.1299510">
        <ele>785.2</ele>
        <time>2022-08-29T09:22:05Z</time>
      </trkpt>
      <trkpt lat="42.4308870" lon="-3.1300060">
        <ele>785.0</ele>
        <time>2022-08-29T09:22:06Z</time>
      </trkpt>
      <trkpt lat="42.4308690" lon="-3.1300610">
        <ele>785.0</ele>
        <time>2022-08-29T09:22:07Z</time>
      </trkpt>
      <trkpt lat="42.4308500" lon="-3.1301170">
        <ele>785.0</ele>
        <time>2022-08-29T09:22:08Z</time>
      </trkpt>
      <trkpt lat="42.4308320" lon="-3.1301740">
        <ele>784.8</ele>
        <time>2022-08-29T09:22:09Z</time>
      </trkpt>
      <trkpt lat="42.4308150" lon="-3.1302320">
        <ele>784.6</ele>
        <time>2022-08-29T09:22:10Z</time>
      </trkpt>
      <trkpt lat="42.4307980" lon="-3.1302880">
        <ele>784.8</ele>
        <time>2022-08-29T09:22:11Z</time>
      </trkpt>
      <trkpt lat="42.4307800" lon="-3.1303430">
        <ele>784.6</ele>
        <time>2022-08-29T09:22:12Z</time>
      </trkpt>
      <trkpt lat="42.4307590" lon="-3.1303950">
        <ele>784.6</ele>
        <time>2022-08-29T09:22:13Z</time>
      </trkpt>
      <trkpt lat="42.4307380" lon="-3.1304460">
        <ele>784.6</ele>
        <time>2022-08-29T09:22:14Z</time>
      </trkpt>
      <trkpt lat="42.4307170" lon="-3.1304970">
        <ele>784.4</ele>
        <time>2022-08-29T09:22:15Z</time>
      </trkpt>
      <trkpt lat="42.4306960" lon="-3.1305480">
        <ele>784.4</ele>
        <time>2022-08-29T09:22:16Z</time>
      </trkpt>
      <trkpt lat="42.4306730" lon="-3.1305990">
        <ele>784.4</ele>
        <time>2022-08-29T09:22:17Z</time>
      </trkpt>
      <trkpt lat="42.4306510" lon="-3.1306510">
        <ele>784.4</ele>
        <time>2022-08-29T09:22:18Z</time>
      </trkpt>
      <trkpt lat="42.4306280" lon="-3.1307020">
        <ele>784.2</ele>
        <time>2022-08-29T09:22:19Z</time>
      </trkpt>
      <trkpt lat="42.4306060" lon="-3.1307510">
        <ele>784.4</ele>
        <time>2022-08-29T09:22:20Z</time>
      </trkpt>
      <trkpt lat="42.4305820" lon="-3.1308000">
        <ele>784.2</ele>
        <time>2022-08-29T09:22:21Z</time>
      </trkpt>
      <trkpt lat="42.4305580" lon="-3.1308500">
        <ele>784.2</ele>
        <time>2022-08-29T09:22:22Z</time>
      </trkpt>
      <trkpt lat="42.4305330" lon="-3.1308990">
        <ele>784.4</ele>
        <time>2022-08-29T09:22:23Z</time>
      </trkpt>
      <trkpt lat="42.4305070" lon="-3.1309450">
        <ele>784.2</ele>
        <time>2022-08-29T09:22:24Z</time>
      </trkpt>
      <trkpt lat="42.4304800" lon="-3.1309890">
        <ele>784.2</ele>
        <time>2022-08-29T09:22:25Z</time>
      </trkpt>
      <trkpt lat="42.4304530" lon="-3.1310330">
        <ele>784.2</ele>
        <time>2022-08-29T09:22:26Z</time>
      </trkpt>
      <trkpt lat="42.4304260" lon="-3.1310760">
        <ele>784.2</ele>
        <time>2022-08-29T09:22:27Z</time>
      </trkpt>
      <trkpt lat="42.4303980" lon="-3.1311200">
        <ele>784.2</ele>
        <time>2022-08-29T09:22:28Z</time>
      </trkpt>
      <trkpt lat="42.4303690" lon="-3.1311610">
        <ele>784.2</ele>
        <time>2022-08-29T09:22:29Z</time>
      </trkpt>
      <trkpt lat="42.4303420" lon="-3.1311990">
        <ele>784.4</ele>
        <time>2022-08-29T09:22:30Z</time>
      </trkpt>
      <trkpt lat="42.4303170" lon="-3.1312340">
        <ele>784.2</ele>
        <time>2022-08-29T09:22:31Z</time>
      </trkpt>
      <trkpt lat="42.4302940" lon="-3.1312670">
        <ele>784.4</ele>
        <time>2022-08-29T09:22:32Z</time>
      </trkpt>
      <trkpt lat="42.4302760" lon="-3.1312980">
        <ele>784.6</ele>
        <time>2022-08-29T09:22:33Z</time>
      </trkpt>
      <trkpt lat="42.4302580" lon="-3.1313270">
        <ele>784.6</ele>
        <time>2022-08-29T09:22:34Z</time>
      </trkpt>
      <trkpt lat="42.4302400" lon="-3.1313550">
        <ele>784.8</ele>
        <time>2022-08-29T09:22:35Z</time>
      </trkpt>
      <trkpt lat="42.4302210" lon="-3.1313810">
        <ele>784.8</ele>
        <time>2022-08-29T09:22:36Z</time>
      </trkpt>
      <trkpt lat="42.4302020" lon="-3.1314090">
        <ele>785.0</ele>
        <time>2022-08-29T09:22:37Z</time>
      </trkpt>
      <trkpt lat="42.4301820" lon="-3.1314370">
        <ele>785.2</ele>
        <time>2022-08-29T09:22:38Z</time>
      </trkpt>
      <trkpt lat="42.4301600" lon="-3.1314670">
        <ele>785.2</ele>
        <time>2022-08-29T09:22:39Z</time>
      </trkpt>
      <trkpt lat="42.4301370" lon="-3.1314990">
        <ele>785.2</ele>
        <time>2022-08-29T09:22:40Z</time>
      </trkpt>
      <trkpt lat="42.4301100" lon="-3.1315330">
        <ele>785.2</ele>
        <time>2022-08-29T09:22:41Z</time>
      </trkpt>
      <trkpt lat="42.4300830" lon="-3.1315700">
        <ele>785.2</ele>
        <time>2022-08-29T09:22:42Z</time>
      </trkpt>
      <trkpt lat="42.4300550" lon="-3.1316110">
        <ele>785.2</ele>
        <time>2022-08-29T09:22:43Z</time>
      </trkpt>
      <trkpt lat="42.4300240" lon="-3.1316560">
        <ele>785.4</ele>
        <time>2022-08-29T09:22:44Z</time>
      </trkpt>
      <trkpt lat="42.4299900" lon="-3.1317030">
        <ele>785.2</ele>
        <time>2022-08-29T09:22:45Z</time>
      </trkpt>
      <trkpt lat="42.4299530" lon="-3.1317540">
        <ele>785.2</ele>
        <time>2022-08-29T09:22:46Z</time>
      </trkpt>
      <trkpt lat="42.4299130" lon="-3.1318070">
        <ele>785.4</ele>
        <time>2022-08-29T09:22:47Z</time>
      </trkpt>
      <trkpt lat="42.4298720" lon="-3.1318610">
        <ele>785.2</ele>
        <time>2022-08-29T09:22:48Z</time>
      </trkpt>
      <trkpt lat="42.4298310" lon="-3.1319180">
        <ele>785.4</ele>
        <time>2022-08-29T09:22:49Z</time>
      </trkpt>
      <trkpt lat="42.4297900" lon="-3.1319770">
        <ele>785.2</ele>
        <time>2022-08-29T09:22:50Z</time>
      </trkpt>
      <trkpt lat="42.4297490" lon="-3.1320340">
        <ele>785.0</ele>
        <time>2022-08-29T09:22:51Z</time>
      </trkpt>
      <trkpt lat="42.4297070" lon="-3.1320910">
        <ele>784.8</ele>
        <time>2022-08-29T09:22:52Z</time>
      </trkpt>
      <trkpt lat="42.4296650" lon="-3.1321500">
        <ele>784.4</ele>
        <time>2022-08-29T09:22:53Z</time>
      </trkpt>
      <trkpt lat="42.4296220" lon="-3.1322100">
        <ele>784.0</ele>
        <time>2022-08-29T09:22:54Z</time>
      </trkpt>
      <trkpt lat="42.4295780" lon="-3.1322710">
        <ele>783.4</ele>
        <time>2022-08-29T09:22:55Z</time>
      </trkpt>
      <trkpt lat="42.4295310" lon="-3.1323300">
        <ele>783.2</ele>
        <time>2022-08-29T09:22:56Z</time>
      </trkpt>
      <trkpt lat="42.4294800" lon="-3.1323910">
        <ele>783.0</ele>
        <time>2022-08-29T09:22:57Z</time>
      </trkpt>
      <trkpt lat="42.4294280" lon="-3.1324580">
        <ele>782.4</ele>
        <time>2022-08-29T09:22:58Z</time>
      </trkpt>
      <trkpt lat="42.4293740" lon="-3.1325280">
        <ele>781.8</ele>
        <time>2022-08-29T09:22:59Z</time>
      </trkpt>
      <trkpt lat="42.4293170" lon="-3.1325970">
        <ele>781.4</ele>
        <time>2022-08-29T09:23:00Z</time>
      </trkpt>
      <trkpt lat="42.4292560" lon="-3.1326630">
        <ele>781.2</ele>
        <time>2022-08-29T09:23:01Z</time>
      </trkpt>
      <trkpt lat="42.4291940" lon="-3.1327250">
        <ele>780.8</ele>
        <time>2022-08-29T09:23:02Z</time>
      </trkpt>
      <trkpt lat="42.4291300" lon="-3.1327880">
        <ele>780.2</ele>
        <time>2022-08-29T09:23:03Z</time>
      </trkpt>
      <trkpt lat="42.4290670" lon="-3.1328520">
        <ele>779.6</ele>
        <time>2022-08-29T09:23:04Z</time>
      </trkpt>
      <trkpt lat="42.4290060" lon="-3.1329220">
        <ele>779.6</ele>
        <time>2022-08-29T09:23:05Z</time>
      </trkpt>
      <trkpt lat="42.4289520" lon="-3.1329980">
        <ele>779.0</ele>
        <time>2022-08-29T09:23:06Z</time>
      </trkpt>
      <trkpt lat="42.4289080" lon="-3.1330840">
        <ele>778.4</ele>
        <time>2022-08-29T09:23:07Z</time>
      </trkpt>
      <trkpt lat="42.4288800" lon="-3.1331800">
        <ele>777.6</ele>
        <time>2022-08-29T09:23:08Z</time>
      </trkpt>
      <trkpt lat="42.4288610" lon="-3.1332820">
        <ele>777.4</ele>
        <time>2022-08-29T09:23:09Z</time>
      </trkpt>
      <trkpt lat="42.4288480" lon="-3.1333860">
        <ele>776.8</ele>
        <time>2022-08-29T09:23:10Z</time>
      </trkpt>
      <trkpt lat="42.4288410" lon="-3.1334860">
        <ele>776.2</ele>
        <time>2022-08-29T09:23:11Z</time>
      </trkpt>
      <trkpt lat="42.4288290" lon="-3.1335850">
        <ele>775.6</ele>
        <time>2022-08-29T09:23:12Z</time>
      </trkpt>
      <trkpt lat="42.4288100" lon="-3.1336770">
        <ele>775.4</ele>
        <time>2022-08-29T09:23:13Z</time>
      </trkpt>
      <trkpt lat="42.4287830" lon="-3.1337660">
        <ele>774.8</ele>
        <time>2022-08-29T09:23:14Z</time>
      </trkpt>
      <trkpt lat="42.4287580" lon="-3.1338560">
        <ele>774.4</ele>
        <time>2022-08-29T09:23:15Z</time>
      </trkpt>
      <trkpt lat="42.4287320" lon="-3.1339470">
        <ele>774.0</ele>
        <time>2022-08-29T09:23:16Z</time>
      </trkpt>
      <trkpt lat="42.4287030" lon="-3.1340330">
        <ele>774.0</ele>
        <time>2022-08-29T09:23:17Z</time>
      </trkpt>
      <trkpt lat="42.4286720" lon="-3.1341170">
        <ele>773.8</ele>
        <time>2022-08-29T09:23:18Z</time>
      </trkpt>
      <trkpt lat="42.4286420" lon="-3.1341980">
        <ele>773.6</ele>
        <time>2022-08-29T09:23:19Z</time>
      </trkpt>
      <trkpt lat="42.4286160" lon="-3.1342750">
        <ele>773.6</ele>
        <time>2022-08-29T09:23:20Z</time>
      </trkpt>
      <trkpt lat="42.4285900" lon="-3.1343470">
        <ele>773.6</ele>
        <time>2022-08-29T09:23:21Z</time>
      </trkpt>
      <trkpt lat="42.4285660" lon="-3.1344150">
        <ele>773.4</ele>
        <time>2022-08-29T09:23:22Z</time>
      </trkpt>
      <trkpt lat="42.4285430" lon="-3.1344780">
        <ele>773.2</ele>
        <time>2022-08-29T09:23:23Z</time>
      </trkpt>
      <trkpt lat="42.4285240" lon="-3.1345360">
        <ele>773.4</ele>
        <time>2022-08-29T09:23:24Z</time>
      </trkpt>
      <trkpt lat="42.4285080" lon="-3.1345910">
        <ele>773.4</ele>
        <time>2022-08-29T09:23:25Z</time>
      </trkpt>
      <trkpt lat="42.4284950" lon="-3.1346440">
        <ele>773.4</ele>
        <time>2022-08-29T09:23:26Z</time>
      </trkpt>
      <trkpt lat="42.4284840" lon="-3.1346980">
        <ele>773.4</ele>
        <time>2022-08-29T09:23:27Z</time>
      </trkpt>
      <trkpt lat="42.4284720" lon="-3.1347500">
        <ele>773.6</ele>
        <time>2022-08-29T09:23:28Z</time>
      </trkpt>
      <trkpt lat="42.4284580" lon="-3.1347990">
        <ele>773.6</ele>
        <time>2022-08-29T09:23:29Z</time>
      </trkpt>
      <trkpt lat="42.4284430" lon="-3.1348490">
        <ele>773.6</ele>
        <time>2022-08-29T09:23:30Z</time>
      </trkpt>
      <trkpt lat="42.4284260" lon="-3.1349000">
        <ele>773.8</ele>
        <time>2022-08-29T09:23:31Z</time>
      </trkpt>
      <trkpt lat="42.4284090" lon="-3.1349520">
        <ele>773.6</ele>
        <time>2022-08-29T09:23:32Z</time>
      </trkpt>
      <trkpt lat="42.4283940" lon="-3.1350060">
        <ele>773.8</ele>
        <time>2022-08-29T09:23:33Z</time>
      </trkpt>
      <trkpt lat="42.4283770" lon="-3.1350600">
        <ele>773.8</ele>
        <time>2022-08-29T09:23:34Z</time>
      </trkpt>
      <trkpt lat="42.4283610" lon="-3.1351140">
        <ele>774.2</ele>
        <time>2022-08-29T09:23:35Z</time>
      </trkpt>
      <trkpt lat="42.4283440" lon="-3.1351680">
        <ele>774.4</ele>
        <time>2022-08-29T09:23:36Z</time>
      </trkpt>
      <trkpt lat="42.4283270" lon="-3.1352240">
        <ele>774.4</ele>
        <time>2022-08-29T09:23:37Z</time>
      </trkpt>
      <trkpt lat="42.4283110" lon="-3.1352800">
        <ele>774.6</ele>
        <time>2022-08-29T09:23:38Z</time>
      </trkpt>
      <trkpt lat="42.4282960" lon="-3.1353360">
        <ele>774.6</ele>
        <time>2022-08-29T09:23:39Z</time>
      </trkpt>
      <trkpt lat="42.4282810" lon="-3.1353880">
        <ele>774.8</ele>
        <time>2022-08-29T09:23:40Z</time>
      </trkpt>
      <trkpt lat="42.4282660" lon="-3.1354420">
        <ele>775.0</ele>
        <time>2022-08-29T09:23:41Z</time>
      </trkpt>
      <trkpt lat="42.4282510" lon="-3.1354940">
        <ele>775.0</ele>
        <time>2022-08-29T09:23:42Z</time>
      </trkpt>
      <trkpt lat="42.4282360" lon="-3.1355450">
        <ele>775.0</ele>
        <time>2022-08-29T09:23:43Z</time>
      </trkpt>
      <trkpt lat="42.4282170" lon="-3.1355950">
        <ele>775.0</ele>
        <time>2022-08-29T09:23:44Z</time>
      </trkpt>
      <trkpt lat="42.4281980" lon="-3.1356420">
        <ele>775.2</ele>
        <time>2022-08-29T09:23:45Z</time>
      </trkpt>
      <trkpt lat="42.4281750" lon="-3.1356860">
        <ele>775.2</ele>
        <time>2022-08-29T09:23:46Z</time>
      </trkpt>
      <trkpt lat="42.4281490" lon="-3.1357220">
        <ele>775.4</ele>
        <time>2022-08-29T09:23:47Z</time>
      </trkpt>
      <trkpt lat="42.4281200" lon="-3.1357490">
        <ele>775.4</ele>
        <time>2022-08-29T09:23:48Z</time>
      </trkpt>
      <trkpt lat="42.4280900" lon="-3.1357650">
        <ele>775.6</ele>
        <time>2022-08-29T09:23:49Z</time>
      </trkpt>
      <trkpt lat="42.4280600" lon="-3.1357760">
        <ele>775.6</ele>
        <time>2022-08-29T09:23:50Z</time>
      </trkpt>
      <trkpt lat="42.4280300" lon="-3.1357830">
        <ele>775.6</ele>
        <time>2022-08-29T09:23:51Z</time>
      </trkpt>
      <trkpt lat="42.4280050" lon="-3.1357880">
        <ele>775.6</ele>
        <time>2022-08-29T09:23:52Z</time>
      </trkpt>
      <trkpt lat="42.4279820" lon="-3.1357960">
        <ele>775.6</ele>
        <time>2022-08-29T09:23:53Z</time>
      </trkpt>
      <trkpt lat="42.4279610" lon="-3.1358000">
        <ele>775.8</ele>
        <time>2022-08-29T09:23:54Z</time>
      </trkpt>
      <trkpt lat="42.4279420" lon="-3.1358020">
        <ele>776.0</ele>
        <time>2022-08-29T09:23:55Z</time>
      </trkpt>
      <trkpt lat="42.4279220" lon="-3.1358050">
        <ele>776.2</ele>
        <time>2022-08-29T09:23:56Z</time>
      </trkpt>
      <trkpt lat="42.4279050" lon="-3.1358080">
        <ele>776.4</ele>
        <time>2022-08-29T09:23:57Z</time>
      </trkpt>
      <trkpt lat="42.4278910" lon="-3.1358090">
        <ele>776.6</ele>
        <time>2022-08-29T09:23:58Z</time>
      </trkpt>
      <trkpt lat="42.4278800" lon="-3.1358070">
        <ele>776.8</ele>
        <time>2022-08-29T09:23:59Z</time>
      </trkpt>
      <trkpt lat="42.4278690" lon="-3.1358050">
        <ele>777.0</ele>
        <time>2022-08-29T09:24:00Z</time>
      </trkpt>
      <trkpt lat="42.4278580" lon="-3.1358040">
        <ele>777.2</ele>
        <time>2022-08-29T09:24:01Z</time>
      </trkpt>
      <trkpt lat="42.4278460" lon="-3.1358050">
        <ele>777.4</ele>
        <time>2022-08-29T09:24:02Z</time>
      </trkpt>
      <trkpt lat="42.4278310" lon="-3.1358040">
        <ele>777.6</ele>
        <time>2022-08-29T09:24:03Z</time>
      </trkpt>
      <trkpt lat="42.4278110" lon="-3.1358060">
        <ele>777.8</ele>
        <time>2022-08-29T09:24:04Z</time>
      </trkpt>
      <trkpt lat="42.4277890" lon="-3.1358120">
        <ele>778.2</ele>
        <time>2022-08-29T09:24:05Z</time>
      </trkpt>
      <trkpt lat="42.4277640" lon="-3.1358210">
        <ele>778.4</ele>
        <time>2022-08-29T09:24:06Z</time>
      </trkpt>
      <trkpt lat="42.4277390" lon="-3.1358330">
        <ele>778.6</ele>
        <time>2022-08-29T09:24:07Z</time>
      </trkpt>
      <trkpt lat="42.4277160" lon="-3.1358480">
        <ele>778.6</ele>
        <time>2022-08-29T09:24:08Z</time>
      </trkpt>
      <trkpt lat="42.4276950" lon="-3.1358670">
        <ele>778.6</ele>
        <time>2022-08-29T09:24:09Z</time>
      </trkpt>
      <trkpt lat="42.4276750" lon="-3.1358890">
        <ele>778.8</ele>
        <time>2022-08-29T09:24:10Z</time>
      </trkpt>
      <trkpt lat="42.4276560" lon="-3.1359130">
        <ele>778.8</ele>
        <time>2022-08-29T09:24:11Z</time>
      </trkpt>
      <trkpt lat="42.4276350" lon="-3.1359360">
        <ele>778.8</ele>
        <time>2022-08-29T09:24:12Z</time>
      </trkpt>
      <trkpt lat="42.4276130" lon="-3.1359580">
        <ele>778.8</ele>
        <time>2022-08-29T09:24:13Z</time>
      </trkpt>
      <trkpt lat="42.4275920" lon="-3.1359800">
        <ele>778.8</ele>
        <time>2022-08-29T09:24:14Z</time>
      </trkpt>
      <trkpt lat="42.4275730" lon="-3.1360030">
        <ele>778.8</ele>
        <time>2022-08-29T09:24:15Z</time>
      </trkpt>
      <trkpt lat="42.4275540" lon="-3.1360270">
        <ele>778.8</ele>
        <time>2022-08-29T09:24:16Z</time>
      </trkpt>
      <trkpt lat="42.4275320" lon="-3.1360430">
        <ele>779.0</ele>
        <time>2022-08-29T09:24:17Z</time>
      </trkpt>
      <trkpt lat="42.4275100" lon="-3.1360520">
        <ele>779.0</ele>
        <time>2022-08-29T09:24:18Z</time>
      </trkpt>
      <trkpt lat="42.4274890" lon="-3.1360560">
        <ele>779.0</ele>
        <time>2022-08-29T09:24:19Z</time>
      </trkpt>
      <trkpt lat="42.4274690" lon="-3.1360510">
        <ele>779.0</ele>
        <time>2022-08-29T09:24:20Z</time>
      </trkpt>
      <trkpt lat="42.4274510" lon="-3.1360460">
        <ele>779.0</ele>
        <time>2022-08-29T09:24:21Z</time>
      </trkpt>
      <trkpt lat="42.4274340" lon="-3.1360370">
        <ele>779.2</ele>
        <time>2022-08-29T09:24:22Z</time>
      </trkpt>
      <trkpt lat="42.4274170" lon="-3.1360300">
        <ele>779.4</ele>
        <time>2022-08-29T09:24:23Z</time>
      </trkpt>
      <trkpt lat="42.4274000" lon="-3.1360340">
        <ele>779.6</ele>
        <time>2022-08-29T09:24:24Z</time>
      </trkpt>
      <trkpt lat="42.4273820" lon="-3.1360410">
        <ele>779.8</ele>
        <time>2022-08-29T09:24:25Z</time>
      </trkpt>
      <trkpt lat="42.4273630" lon="-3.1360440">
        <ele>779.8</ele>
        <time>2022-08-29T09:24:26Z</time>
      </trkpt>
      <trkpt lat="42.4273480" lon="-3.1360420">
        <ele>780.0</ele>
        <time>2022-08-29T09:24:27Z</time>
      </trkpt>
      <trkpt lat="42.4273380" lon="-3.1360410">
        <ele>780.0</ele>
        <time>2022-08-29T09:24:28Z</time>
      </trkpt>
      <trkpt lat="42.4273340" lon="-3.1360450">
        <ele>780.0</ele>
        <time>2022-08-29T09:24:29Z</time>
      </trkpt>
      <trkpt lat="42.4273330" lon="-3.1360470">
        <ele>780.0</ele>
        <time>2022-08-29T09:24:30Z</time>
      </trkpt>
      <trkpt lat="42.4273330" lon="-3.1360480">
        <ele>780.2</ele>
        <time>2022-08-29T09:24:31Z</time>
      </trkpt>
      <trkpt lat="42.4273310" lon="-3.1360490">
        <ele>780.2</ele>
        <time>2022-08-29T09:24:32Z</time>
      </trkpt>
      <trkpt lat="42.4273310" lon="-3.1360490">
        <ele>780.2</ele>
        <time>2022-08-29T09:24:33Z</time>
      </trkpt>
      <trkpt lat="42.4273310" lon="-3.1360500">
        <ele>780.2</ele>
        <time>2022-08-29T09:24:34Z</time>
      </trkpt>
      <trkpt lat="42.4273300" lon="-3.1360500">
        <ele>780.4</ele>
        <time>2022-08-29T09:24:35Z</time>
      </trkpt>
      <trkpt lat="42.4273300" lon="-3.1360510">
        <ele>780.4</ele>
        <time>2022-08-29T09:24:36Z</time>
      </trkpt>
      <trkpt lat="42.4273290" lon="-3.1360520">
        <ele>780.4</ele>
        <time>2022-08-29T09:24:37Z</time>
      </trkpt>
      <trkpt lat="42.4273270" lon="-3.1360550">
        <ele>780.4</ele>
        <time>2022-08-29T09:24:38Z</time>
      </trkpt>
      <trkpt lat="42.4273260" lon="-3.1360570">
        <ele>780.4</ele>
        <time>2022-08-29T09:24:39Z</time>
      </trkpt>
      <trkpt lat="42.4273250" lon="-3.1360580">
        <ele>780.4</ele>
        <time>2022-08-29T09:24:40Z</time>
      </trkpt>
      <trkpt lat="42.4273250" lon="-3.1360580">
        <ele>780.4</ele>
        <time>2022-08-29T09:24:41Z</time>
      </trkpt>
      <trkpt lat="42.4273260" lon="-3.1360580">
        <ele>780.4</ele>
        <time>2022-08-29T09:24:42Z</time>
      </trkpt>
      <trkpt lat="42.4273260" lon="-3.1360580">
        <ele>780.4</ele>
        <time>2022-08-29T09:24:43Z</time>
      </trkpt>
      <trkpt lat="42.4273260" lon="-3.1360590">
        <ele>780.4</ele>
        <time>2022-08-29T09:24:44Z</time>
      </trkpt>
      <trkpt lat="42.4273260" lon="-3.1360590">
        <ele>780.6</ele>
        <time>2022-08-29T09:24:45Z</time>
      </trkpt>
      <trkpt lat="42.4273260" lon="-3.1360590">
        <ele>780.4</ele>
        <time>2022-08-29T09:24:46Z</time>
      </trkpt>
      <trkpt lat="42.4273260" lon="-3.1360600">
        <ele>780.4</ele>
        <time>2022-08-29T09:24:47Z</time>
      </trkpt>
      <trkpt lat="42.4273260" lon="-3.1360600">
        <ele>780.4</ele>
        <time>2022-08-29T09:24:48Z</time>
      </trkpt>
      <trkpt lat="42.4273260" lon="-3.1360600">
        <ele>780.6</ele>
        <time>2022-08-29T09:24:49Z</time>
      </trkpt>
      <trkpt lat="42.4273270" lon="-3.1360600">
        <ele>780.4</ele>
        <time>2022-08-29T09:24:50Z</time>
      </trkpt>
      <trkpt lat="42.4273270" lon="-3.1360600">
        <ele>780.6</ele>
        <time>2022-08-29T09:24:51Z</time>
      </trkpt>
      <trkpt lat="42.4273270" lon="-3.1360590">
        <ele>780.6</ele>
        <time>2022-08-29T09:24:52Z</time>
      </trkpt>
      <trkpt lat="42.4273260" lon="-3.1360590">
        <ele>780.6</ele>
        <time>2022-08-29T09:24:53Z</time>
      </trkpt>
      <trkpt lat="42.4273260" lon="-3.1360600">
        <ele>780.6</ele>
        <time>2022-08-29T09:24:54Z</time>
      </trkpt>
      <trkpt lat="42.4273260" lon="-3.1360600">
        <ele>780.6</ele>
        <time>2022-08-29T09:24:55Z</time>
      </trkpt>
      <trkpt lat="42.4273260" lon="-3.1360610">
        <ele>780.6</ele>
        <time>2022-08-29T09:24:56Z</time>
      </trkpt>
      <trkpt lat="42.4273260" lon="-3.1360610">
        <ele>780.6</ele>
        <time>2022-08-29T09:24:57Z</time>
      </trkpt>
      <trkpt lat="42.4273250" lon="-3.1360620">
        <ele>780.6</ele>
        <time>2022-08-29T09:24:58Z</time>
      </trkpt>
      <trkpt lat="42.4273250" lon="-3.1360620">
        <ele>780.6</ele>
        <time>2022-08-29T09:24:59Z</time>
      </trkpt>
      <trkpt lat="42.4273250" lon="-3.1360630">
        <ele>780.6</ele>
        <time>2022-08-29T09:25:00Z</time>
      </trkpt>
      <trkpt lat="42.4273250" lon="-3.1360640">
        <ele>780.6</ele>
        <time>2022-08-29T09:25:01Z</time>
      </trkpt>
      <trkpt lat="42.4273250" lon="-3.1360640">
        <ele>780.6</ele>
        <time>2022-08-29T09:25:02Z</time>
      </trkpt>
      <trkpt lat="42.4273240" lon="-3.1360650">
        <ele>780.6</ele>
        <time>2022-08-29T09:25:03Z</time>
      </trkpt>
      <trkpt lat="42.4273240" lon="-3.1360650">
        <ele>780.6</ele>
        <time>2022-08-29T09:25:04Z</time>
      </trkpt>
      <trkpt lat="42.4273220" lon="-3.1360590">
        <ele>780.6</ele>
        <time>2022-08-29T09:25:05Z</time>
      </trkpt>
      <trkpt lat="42.4273200" lon="-3.1360530">
        <ele>780.6</ele>
        <time>2022-08-29T09:25:06Z</time>
      </trkpt>
      <trkpt lat="42.4273240" lon="-3.1360410">
        <ele>780.6</ele>
        <time>2022-08-29T09:25:07Z</time>
      </trkpt>
      <trkpt lat="42.4273260" lon="-3.1360310">
        <ele>780.6</ele>
        <time>2022-08-29T09:25:08Z</time>
      </trkpt>
      <trkpt lat="42.4273270" lon="-3.1360260">
        <ele>780.6</ele>
        <time>2022-08-29T09:25:09Z</time>
      </trkpt>
      <trkpt lat="42.4273300" lon="-3.1360250">
        <ele>780.8</ele>
        <time>2022-08-29T09:25:10Z</time>
      </trkpt>
      <trkpt lat="42.4273350" lon="-3.1360310">
        <ele>780.6</ele>
        <time>2022-08-29T09:25:11Z</time>
      </trkpt>
      <trkpt lat="42.4273410" lon="-3.1360510">
        <ele>780.6</ele>
        <time>2022-08-29T09:25:12Z</time>
      </trkpt>
      <trkpt lat="42.4273490" lon="-3.1360690">
        <ele>780.6</ele>
        <time>2022-08-29T09:25:13Z</time>
      </trkpt>
      <trkpt lat="42.4273530" lon="-3.1360850">
        <ele>780.6</ele>
        <time>2022-08-29T09:25:14Z</time>
      </trkpt>
      <trkpt lat="42.4273550" lon="-3.1361010">
        <ele>780.6</ele>
        <time>2022-08-29T09:25:15Z</time>
      </trkpt>
      <trkpt lat="42.4273540" lon="-3.1361190">
        <ele>780.4</ele>
        <time>2022-08-29T09:25:16Z</time>
      </trkpt>
      <trkpt lat="42.4273530" lon="-3.1361370">
        <ele>780.4</ele>
        <time>2022-08-29T09:25:17Z</time>
      </trkpt>
      <trkpt lat="42.4273500" lon="-3.1361610">
        <ele>780.4</ele>
        <time>2022-08-29T09:25:18Z</time>
      </trkpt>
      <trkpt lat="42.4273460" lon="-3.1361870">
        <ele>780.2</ele>
        <time>2022-08-29T09:25:19Z</time>
      </trkpt>
      <trkpt lat="42.4273430" lon="-3.1362120">
        <ele>780.2</ele>
        <time>2022-08-29T09:25:20Z</time>
      </trkpt>
      <trkpt lat="42.4273390" lon="-3.1362340">
        <ele>780.2</ele>
        <time>2022-08-29T09:25:21Z</time>
      </trkpt>
      <trkpt lat="42.4273320" lon="-3.1362610">
        <ele>780.2</ele>
        <time>2022-08-29T09:25:22Z</time>
      </trkpt>
      <trkpt lat="42.4273280" lon="-3.1362870">
        <ele>780.2</ele>
        <time>2022-08-29T09:25:23Z</time>
      </trkpt>
      <trkpt lat="42.4273250" lon="-3.1363130">
        <ele>780.2</ele>
        <time>2022-08-29T09:25:24Z</time>
      </trkpt>
      <trkpt lat="42.4273240" lon="-3.1363390">
        <ele>780.2</ele>
        <time>2022-08-29T09:25:25Z</time>
      </trkpt>
      <trkpt lat="42.4273250" lon="-3.1363650">
        <ele>780.2</ele>
        <time>2022-08-29T09:25:26Z</time>
      </trkpt>
      <trkpt lat="42.4273240" lon="-3.1363910">
        <ele>780.2</ele>
        <time>2022-08-29T09:25:27Z</time>
      </trkpt>
      <trkpt lat="42.4273240" lon="-3.1364130">
        <ele>780.4</ele>
        <time>2022-08-29T09:25:28Z</time>
      </trkpt>
      <trkpt lat="42.4273210" lon="-3.1364450">
        <ele>780.2</ele>
        <time>2022-08-29T09:25:29Z</time>
      </trkpt>
      <trkpt lat="42.4273220" lon="-3.1364730">
        <ele>780.2</ele>
        <time>2022-08-29T09:25:30Z</time>
      </trkpt>
      <trkpt lat="42.4273290" lon="-3.1364930">
        <ele>780.4</ele>
        <time>2022-08-29T09:25:31Z</time>
      </trkpt>
      <trkpt lat="42.4273410" lon="-3.1365130">
        <ele>780.4</ele>
        <time>2022-08-29T09:25:32Z</time>
      </trkpt>
      <trkpt lat="42.4273500" lon="-3.1365360">
        <ele>780.6</ele>
        <time>2022-08-29T09:25:33Z</time>
      </trkpt>
      <trkpt lat="42.4273580" lon="-3.1365650">
        <ele>781.0</ele>
        <time>2022-08-29T09:25:34Z</time>
      </trkpt>
      <trkpt lat="42.4273620" lon="-3.1365970">
        <ele>781.2</ele>
        <time>2022-08-29T09:25:35Z</time>
      </trkpt>
      <trkpt lat="42.4273600" lon="-3.1366350">
        <ele>781.4</ele>
        <time>2022-08-29T09:25:36Z</time>
      </trkpt>
      <trkpt lat="42.4273540" lon="-3.1366720">
        <ele>781.4</ele>
        <time>2022-08-29T09:25:37Z</time>
      </trkpt>
      <trkpt lat="42.4273500" lon="-3.1367050">
        <ele>781.4</ele>
        <time>2022-08-29T09:25:38Z</time>
      </trkpt>
      <trkpt lat="42.4273440" lon="-3.1367380">
        <ele>781.6</ele>
        <time>2022-08-29T09:25:39Z</time>
      </trkpt>
      <trkpt lat="42.4273400" lon="-3.1367740">
        <ele>781.8</ele>
        <time>2022-08-29T09:25:40Z</time>
      </trkpt>
      <trkpt lat="42.4273370" lon="-3.1368070">
        <ele>781.8</ele>
        <time>2022-08-29T09:25:41Z</time>
      </trkpt>
      <trkpt lat="42.4273300" lon="-3.1368410">
        <ele>781.8</ele>
        <time>2022-08-29T09:25:42Z</time>
      </trkpt>
      <trkpt lat="42.4273220" lon="-3.1368730">
        <ele>781.8</ele>
        <time>2022-08-29T09:25:43Z</time>
      </trkpt>
      <trkpt lat="42.4273110" lon="-3.1369060">
        <ele>782.0</ele>
        <time>2022-08-29T09:25:44Z</time>
      </trkpt>
      <trkpt lat="42.4273020" lon="-3.1369390">
        <ele>781.8</ele>
        <time>2022-08-29T09:25:45Z</time>
      </trkpt>
      <trkpt lat="42.4272930" lon="-3.1369730">
        <ele>782.0</ele>
        <time>2022-08-29T09:25:46Z</time>
      </trkpt>
      <trkpt lat="42.4272850" lon="-3.1370060">
        <ele>782.0</ele>
        <time>2022-08-29T09:25:47Z</time>
      </trkpt>
      <trkpt lat="42.4272770" lon="-3.1370390">
        <ele>782.0</ele>
        <time>2022-08-29T09:25:48Z</time>
      </trkpt>
      <trkpt lat="42.4272720" lon="-3.1370690">
        <ele>782.2</ele>
        <time>2022-08-29T09:25:49Z</time>
      </trkpt>
      <trkpt lat="42.4272680" lon="-3.1370970">
        <ele>782.0</ele>
        <time>2022-08-29T09:25:50Z</time>
      </trkpt>
      <trkpt lat="42.4272630" lon="-3.1371260">
        <ele>782.2</ele>
        <time>2022-08-29T09:25:51Z</time>
      </trkpt>
      <trkpt lat="42.4272580" lon="-3.1371570">
        <ele>782.2</ele>
        <time>2022-08-29T09:25:52Z</time>
      </trkpt>
      <trkpt lat="42.4272540" lon="-3.1371900">
        <ele>782.2</ele>
        <time>2022-08-29T09:25:53Z</time>
      </trkpt>
      <trkpt lat="42.4272500" lon="-3.1372260">
        <ele>782.0</ele>
        <time>2022-08-29T09:25:54Z</time>
      </trkpt>
      <trkpt lat="42.4272460" lon="-3.1372610">
        <ele>782.2</ele>
        <time>2022-08-29T09:25:55Z</time>
      </trkpt>
      <trkpt lat="42.4272420" lon="-3.1372960">
        <ele>782.2</ele>
        <time>2022-08-29T09:25:56Z</time>
      </trkpt>
      <trkpt lat="42.4272370" lon="-3.1373330">
        <ele>782.4</ele>
        <time>2022-08-29T09:25:57Z</time>
      </trkpt>
      <trkpt lat="42.4272330" lon="-3.1373700">
        <ele>782.4</ele>
        <time>2022-08-29T09:25:58Z</time>
      </trkpt>
      <trkpt lat="42.4272300" lon="-3.1374070">
        <ele>782.6</ele>
        <time>2022-08-29T09:25:59Z</time>
      </trkpt>
      <trkpt lat="42.4272260" lon="-3.1374440">
        <ele>782.8</ele>
        <time>2022-08-29T09:26:00Z</time>
      </trkpt>
      <trkpt lat="42.4272210" lon="-3.1374840">
        <ele>782.6</ele>
        <time>2022-08-29T09:26:01Z</time>
      </trkpt>
      <trkpt lat="42.4272160" lon="-3.1375260">
        <ele>782.6</ele>
        <time>2022-08-29T09:26:02Z</time>
      </trkpt>
      <trkpt lat="42.4272140" lon="-3.1375700">
        <ele>782.6</ele>
        <time>2022-08-29T09:26:03Z</time>
      </trkpt>
      <trkpt lat="42.4272120" lon="-3.1376160">
        <ele>782.8</ele>
        <time>2022-08-29T09:26:04Z</time>
      </trkpt>
      <trkpt lat="42.4272130" lon="-3.1376660">
        <ele>782.8</ele>
        <time>2022-08-29T09:26:05Z</time>
      </trkpt>
      <trkpt lat="42.4272150" lon="-3.1377190">
        <ele>782.8</ele>
        <time>2022-08-29T09:26:06Z</time>
      </trkpt>
      <trkpt lat="42.4272170" lon="-3.1377750">
        <ele>782.6</ele>
        <time>2022-08-29T09:26:07Z</time>
      </trkpt>
      <trkpt lat="42.4272170" lon="-3.1378330">
        <ele>782.8</ele>
        <time>2022-08-29T09:26:08Z</time>
      </trkpt>
      <trkpt lat="42.4272160" lon="-3.1378930">
        <ele>782.6</ele>
        <time>2022-08-29T09:26:09Z</time>
      </trkpt>
      <trkpt lat="42.4272160" lon="-3.1379510">
        <ele>782.4</ele>
        <time>2022-08-29T09:26:10Z</time>
      </trkpt>
      <trkpt lat="42.4272170" lon="-3.1380100">
        <ele>782.4</ele>
        <time>2022-08-29T09:26:11Z</time>
      </trkpt>
      <trkpt lat="42.4272180" lon="-3.1380690">
        <ele>782.0</ele>
        <time>2022-08-29T09:26:12Z</time>
      </trkpt>
      <trkpt lat="42.4272180" lon="-3.1381280">
        <ele>782.0</ele>
        <time>2022-08-29T09:26:13Z</time>
      </trkpt>
      <trkpt lat="42.4272190" lon="-3.1381860">
        <ele>781.6</ele>
        <time>2022-08-29T09:26:14Z</time>
      </trkpt>
      <trkpt lat="42.4272180" lon="-3.1382430">
        <ele>781.6</ele>
        <time>2022-08-29T09:26:15Z</time>
      </trkpt>
      <trkpt lat="42.4272150" lon="-3.1383070">
        <ele>781.6</ele>
        <time>2022-08-29T09:26:16Z</time>
      </trkpt>
      <trkpt lat="42.4272100" lon="-3.1383680">
        <ele>781.4</ele>
        <time>2022-08-29T09:26:17Z</time>
      </trkpt>
      <trkpt lat="42.4272030" lon="-3.1384290">
        <ele>781.4</ele>
        <time>2022-08-29T09:26:18Z</time>
      </trkpt>
      <trkpt lat="42.4271940" lon="-3.1384890">
        <ele>781.2</ele>
        <time>2022-08-29T09:26:19Z</time>
      </trkpt>
      <trkpt lat="42.4271820" lon="-3.1385470">
        <ele>781.2</ele>
        <time>2022-08-29T09:26:20Z</time>
      </trkpt>
      <trkpt lat="42.4271690" lon="-3.1386050">
        <ele>781.2</ele>
        <time>2022-08-29T09:26:21Z</time>
      </trkpt>
      <trkpt lat="42.4271510" lon="-3.1386640">
        <ele>781.0</ele>
        <time>2022-08-29T09:26:22Z</time>
      </trkpt>
      <trkpt lat="42.4271340" lon="-3.1387220">
        <ele>780.8</ele>
        <time>2022-08-29T09:26:23Z</time>
      </trkpt>
      <trkpt lat="42.4271210" lon="-3.1387730">
        <ele>780.8</ele>
        <time>2022-08-29T09:26:24Z</time>
      </trkpt>
      <trkpt lat="42.4271070" lon="-3.1388220">
        <ele>780.8</ele>
        <time>2022-08-29T09:26:25Z</time>
      </trkpt>
      <trkpt lat="42.4270940" lon="-3.1388670">
        <ele>780.6</ele>
        <time>2022-08-29T09:26:26Z</time>
      </trkpt>
      <trkpt lat="42.4270790" lon="-3.1389060">
        <ele>780.8</ele>
        <time>2022-08-29T09:26:27Z</time>
      </trkpt>
      <trkpt lat="42.4270670" lon="-3.1389410">
        <ele>780.6</ele>
        <time>2022-08-29T09:26:28Z</time>
      </trkpt>
      <trkpt lat="42.4270530" lon="-3.1389730">
        <ele>780.6</ele>
        <time>2022-08-29T09:26:29Z</time>
      </trkpt>
      <trkpt lat="42.4270390" lon="-3.1390070">
        <ele>780.6</ele>
        <time>2022-08-29T09:26:30Z</time>
      </trkpt>
      <trkpt lat="42.4270260" lon="-3.1390480">
        <ele>780.6</ele>
        <time>2022-08-29T09:26:31Z</time>
      </trkpt>
      <trkpt lat="42.4270130" lon="-3.1390930">
        <ele>780.6</ele>
        <time>2022-08-29T09:26:32Z</time>
      </trkpt>
      <trkpt lat="42.4270010" lon="-3.1391410">
        <ele>780.6</ele>
        <time>2022-08-29T09:26:33Z</time>
      </trkpt>
      <trkpt lat="42.4269860" lon="-3.1391910">
        <ele>780.6</ele>
        <time>2022-08-29T09:26:34Z</time>
      </trkpt>
      <trkpt lat="42.4269680" lon="-3.1392440">
        <ele>780.8</ele>
        <time>2022-08-29T09:26:35Z</time>
      </trkpt>
      <trkpt lat="42.4269470" lon="-3.1392990">
        <ele>781.0</ele>
        <time>2022-08-29T09:26:36Z</time>
      </trkpt>
      <trkpt lat="42.4269250" lon="-3.1393550">
        <ele>781.0</ele>
        <time>2022-08-29T09:26:37Z</time>
      </trkpt>
      <trkpt lat="42.4269050" lon="-3.1394090">
        <ele>781.2</ele>
        <time>2022-08-29T09:26:38Z</time>
      </trkpt>
      <trkpt lat="42.4268860" lon="-3.1394640">
        <ele>781.2</ele>
        <time>2022-08-29T09:26:39Z</time>
      </trkpt>
      <trkpt lat="42.4268660" lon="-3.1395180">
        <ele>781.2</ele>
        <time>2022-08-29T09:26:40Z</time>
      </trkpt>
      <trkpt lat="42.4268460" lon="-3.1395730">
        <ele>781.2</ele>
        <time>2022-08-29T09:26:41Z</time>
      </trkpt>
      <trkpt lat="42.4268260" lon="-3.1396260">
        <ele>781.2</ele>
        <time>2022-08-29T09:26:42Z</time>
      </trkpt>
      <trkpt lat="42.4268070" lon="-3.1396790">
        <ele>781.2</ele>
        <time>2022-08-29T09:26:43Z</time>
      </trkpt>
      <trkpt lat="42.4267880" lon="-3.1397350">
        <ele>781.2</ele>
        <time>2022-08-29T09:26:44Z</time>
      </trkpt>
      <trkpt lat="42.4267680" lon="-3.1397940">
        <ele>781.2</ele>
        <time>2022-08-29T09:26:45Z</time>
      </trkpt>
      <trkpt lat="42.4267460" lon="-3.1398560">
        <ele>781.0</ele>
        <time>2022-08-29T09:26:46Z</time>
      </trkpt>
      <trkpt lat="42.4267220" lon="-3.1399180">
        <ele>781.0</ele>
        <time>2022-08-29T09:26:47Z</time>
      </trkpt>
      <trkpt lat="42.4267000" lon="-3.1399810">
        <ele>781.0</ele>
        <time>2022-08-29T09:26:48Z</time>
      </trkpt>
      <trkpt lat="42.4266790" lon="-3.1400440">
        <ele>781.0</ele>
        <time>2022-08-29T09:26:49Z</time>
      </trkpt>
      <trkpt lat="42.4266560" lon="-3.1401120">
        <ele>780.8</ele>
        <time>2022-08-29T09:26:50Z</time>
      </trkpt>
      <trkpt lat="42.4266340" lon="-3.1401790">
        <ele>780.8</ele>
        <time>2022-08-29T09:26:51Z</time>
      </trkpt>
      <trkpt lat="42.4266120" lon="-3.1402480">
        <ele>780.8</ele>
        <time>2022-08-29T09:26:52Z</time>
      </trkpt>
      <trkpt lat="42.4265900" lon="-3.1403160">
        <ele>780.8</ele>
        <time>2022-08-29T09:26:53Z</time>
      </trkpt>
      <trkpt lat="42.4265690" lon="-3.1403860">
        <ele>780.6</ele>
        <time>2022-08-29T09:26:54Z</time>
      </trkpt>
      <trkpt lat="42.4265490" lon="-3.1404560">
        <ele>780.4</ele>
        <time>2022-08-29T09:26:55Z</time>
      </trkpt>
      <trkpt lat="42.4265280" lon="-3.1405240">
        <ele>780.0</ele>
        <time>2022-08-29T09:26:56Z</time>
      </trkpt>
      <trkpt lat="42.4265050" lon="-3.1405900">
        <ele>780.0</ele>
        <time>2022-08-29T09:26:57Z</time>
      </trkpt>
      <trkpt lat="42.4264830" lon="-3.1406540">
        <ele>779.8</ele>
        <time>2022-08-29T09:26:58Z</time>
      </trkpt>
      <trkpt lat="42.4264640" lon="-3.1407140">
        <ele>779.8</ele>
        <time>2022-08-29T09:26:59Z</time>
      </trkpt>
      <trkpt lat="42.4264440" lon="-3.1407720">
        <ele>779.8</ele>
        <time>2022-08-29T09:27:00Z</time>
      </trkpt>
      <trkpt lat="42.4264260" lon="-3.1408290">
        <ele>779.8</ele>
        <time>2022-08-29T09:27:01Z</time>
      </trkpt>
      <trkpt lat="42.4264080" lon="-3.1408830">
        <ele>779.6</ele>
        <time>2022-08-29T09:27:02Z</time>
      </trkpt>
      <trkpt lat="42.4263910" lon="-3.1409360">
        <ele>779.8</ele>
        <time>2022-08-29T09:27:03Z</time>
      </trkpt>
      <trkpt lat="42.4263750" lon="-3.1409880">
        <ele>779.8</ele>
        <time>2022-08-29T09:27:04Z</time>
      </trkpt>
      <trkpt lat="42.4263580" lon="-3.1410390">
        <ele>779.6</ele>
        <time>2022-08-29T09:27:05Z</time>
      </trkpt>
      <trkpt lat="42.4263400" lon="-3.1410900">
        <ele>779.8</ele>
        <time>2022-08-29T09:27:06Z</time>
      </trkpt>
      <trkpt lat="42.4263240" lon="-3.1411420">
        <ele>779.8</ele>
        <time>2022-08-29T09:27:07Z</time>
      </trkpt>
      <trkpt lat="42.4263070" lon="-3.1411940">
        <ele>780.0</ele>
        <time>2022-08-29T09:27:08Z</time>
      </trkpt>
      <trkpt lat="42.4262900" lon="-3.1412480">
        <ele>779.8</ele>
        <time>2022-08-29T09:27:09Z</time>
      </trkpt>
      <trkpt lat="42.4262740" lon="-3.1413020">
        <ele>780.0</ele>
        <time>2022-08-29T09:27:10Z</time>
      </trkpt>
      <trkpt lat="42.4262590" lon="-3.1413580">
        <ele>780.2</ele>
        <time>2022-08-29T09:27:11Z</time>
      </trkpt>
      <trkpt lat="42.4262440" lon="-3.1414130">
        <ele>780.0</ele>
        <time>2022-08-29T09:27:12Z</time>
      </trkpt>
      <trkpt lat="42.4262270" lon="-3.1414680">
        <ele>780.2</ele>
        <time>2022-08-29T09:27:13Z</time>
      </trkpt>
      <trkpt lat="42.4262090" lon="-3.1415220">
        <ele>780.2</ele>
        <time>2022-08-29T09:27:14Z</time>
      </trkpt>
      <trkpt lat="42.4261920" lon="-3.1415760">
        <ele>780.2</ele>
        <time>2022-08-29T09:27:15Z</time>
      </trkpt>
      <trkpt lat="42.4261730" lon="-3.1416320">
        <ele>780.2</ele>
        <time>2022-08-29T09:27:16Z</time>
      </trkpt>
      <trkpt lat="42.4261540" lon="-3.1416870">
        <ele>780.4</ele>
        <time>2022-08-29T09:27:17Z</time>
      </trkpt>
      <trkpt lat="42.4261360" lon="-3.1417410">
        <ele>780.2</ele>
        <time>2022-08-29T09:27:18Z</time>
      </trkpt>
      <trkpt lat="42.4261180" lon="-3.1417950">
        <ele>780.4</ele>
        <time>2022-08-29T09:27:19Z</time>
      </trkpt>
      <trkpt lat="42.4260990" lon="-3.1418470">
        <ele>780.4</ele>
        <time>2022-08-29T09:27:20Z</time>
      </trkpt>
      <trkpt lat="42.4260810" lon="-3.1418990">
        <ele>780.6</ele>
        <time>2022-08-29T09:27:21Z</time>
      </trkpt>
      <trkpt lat="42.4260660" lon="-3.1419520">
        <ele>780.6</ele>
        <time>2022-08-29T09:27:22Z</time>
      </trkpt>
      <trkpt lat="42.4260490" lon="-3.1420040">
        <ele>780.6</ele>
        <time>2022-08-29T09:27:23Z</time>
      </trkpt>
      <trkpt lat="42.4260340" lon="-3.1420560">
        <ele>780.6</ele>
        <time>2022-08-29T09:27:24Z</time>
      </trkpt>
      <trkpt lat="42.4260180" lon="-3.1421080">
        <ele>780.8</ele>
        <time>2022-08-29T09:27:25Z</time>
      </trkpt>
      <trkpt lat="42.4260040" lon="-3.1421590">
        <ele>780.8</ele>
        <time>2022-08-29T09:27:26Z</time>
      </trkpt>
      <trkpt lat="42.4259880" lon="-3.1422090">
        <ele>781.0</ele>
        <time>2022-08-29T09:27:27Z</time>
      </trkpt>
      <trkpt lat="42.4259720" lon="-3.1422590">
        <ele>781.0</ele>
        <time>2022-08-29T09:27:28Z</time>
      </trkpt>
      <trkpt lat="42.4259570" lon="-3.1423070">
        <ele>781.0</ele>
        <time>2022-08-29T09:27:29Z</time>
      </trkpt>
      <trkpt lat="42.4259400" lon="-3.1423530">
        <ele>781.2</ele>
        <time>2022-08-29T09:27:30Z</time>
      </trkpt>
      <trkpt lat="42.4259230" lon="-3.1423990">
        <ele>781.2</ele>
        <time>2022-08-29T09:27:31Z</time>
      </trkpt>
      <trkpt lat="42.4259070" lon="-3.1424500">
        <ele>781.4</ele>
        <time>2022-08-29T09:27:32Z</time>
      </trkpt>
      <trkpt lat="42.4258910" lon="-3.1425030">
        <ele>781.4</ele>
        <time>2022-08-29T09:27:33Z</time>
      </trkpt>
      <trkpt lat="42.4258770" lon="-3.1425560">
        <ele>781.4</ele>
        <time>2022-08-29T09:27:34Z</time>
      </trkpt>
      <trkpt lat="42.4258620" lon="-3.1426080">
        <ele>781.4</ele>
        <time>2022-08-29T09:27:35Z</time>
      </trkpt>
      <trkpt lat="42.4258460" lon="-3.1426590">
        <ele>781.6</ele>
        <time>2022-08-29T09:27:36Z</time>
      </trkpt>
      <trkpt lat="42.4258270" lon="-3.1427100">
        <ele>781.6</ele>
        <time>2022-08-29T09:27:37Z</time>
      </trkpt>
      <trkpt lat="42.4258070" lon="-3.1427600">
        <ele>781.8</ele>
        <time>2022-08-29T09:27:38Z</time>
      </trkpt>
      <trkpt lat="42.4257900" lon="-3.1428100">
        <ele>781.8</ele>
        <time>2022-08-29T09:27:39Z</time>
      </trkpt>
      <trkpt lat="42.4257750" lon="-3.1428610">
        <ele>782.0</ele>
        <time>2022-08-29T09:27:40Z</time>
      </trkpt>
      <trkpt lat="42.4257590" lon="-3.1429110">
        <ele>782.0</ele>
        <time>2022-08-29T09:27:41Z</time>
      </trkpt>
      <trkpt lat="42.4257430" lon="-3.1429650">
        <ele>782.2</ele>
        <time>2022-08-29T09:27:42Z</time>
      </trkpt>
      <trkpt lat="42.4257270" lon="-3.1430180">
        <ele>782.2</ele>
        <time>2022-08-29T09:27:43Z</time>
      </trkpt>
      <trkpt lat="42.4257110" lon="-3.1430690">
        <ele>782.4</ele>
        <time>2022-08-29T09:27:44Z</time>
      </trkpt>
      <trkpt lat="42.4256950" lon="-3.1431210">
        <ele>782.4</ele>
        <time>2022-08-29T09:27:45Z</time>
      </trkpt>
      <trkpt lat="42.4256770" lon="-3.1431700">
        <ele>782.4</ele>
        <time>2022-08-29T09:27:46Z</time>
      </trkpt>
      <trkpt lat="42.4256590" lon="-3.1432190">
        <ele>782.4</ele>
        <time>2022-08-29T09:27:47Z</time>
      </trkpt>
      <trkpt lat="42.4256410" lon="-3.1432660">
        <ele>782.6</ele>
        <time>2022-08-29T09:27:48Z</time>
      </trkpt>
      <trkpt lat="42.4256260" lon="-3.1433130">
        <ele>782.6</ele>
        <time>2022-08-29T09:27:49Z</time>
      </trkpt>
      <trkpt lat="42.4256120" lon="-3.1433610">
        <ele>782.8</ele>
        <time>2022-08-29T09:27:50Z</time>
      </trkpt>
      <trkpt lat="42.4255970" lon="-3.1434090">
        <ele>782.8</ele>
        <time>2022-08-29T09:27:51Z</time>
      </trkpt>
      <trkpt lat="42.4255820" lon="-3.1434560">
        <ele>782.6</ele>
        <time>2022-08-29T09:27:52Z</time>
      </trkpt>
      <trkpt lat="42.4255660" lon="-3.1435020">
        <ele>783.0</ele>
        <time>2022-08-29T09:27:53Z</time>
      </trkpt>
      <trkpt lat="42.4255510" lon="-3.1435490">
        <ele>783.0</ele>
        <time>2022-08-29T09:27:54Z</time>
      </trkpt>
      <trkpt lat="42.4255370" lon="-3.1435960">
        <ele>783.2</ele>
        <time>2022-08-29T09:27:55Z</time>
      </trkpt>
      <trkpt lat="42.4255220" lon="-3.1436420">
        <ele>783.2</ele>
        <time>2022-08-29T09:27:56Z</time>
      </trkpt>
      <trkpt lat="42.4255080" lon="-3.1436870">
        <ele>783.4</ele>
        <time>2022-08-29T09:27:57Z</time>
      </trkpt>
      <trkpt lat="42.4254940" lon="-3.1437330">
        <ele>783.6</ele>
        <time>2022-08-29T09:27:58Z</time>
      </trkpt>
      <trkpt lat="42.4254800" lon="-3.1437770">
        <ele>783.6</ele>
        <time>2022-08-29T09:27:59Z</time>
      </trkpt>
      <trkpt lat="42.4254640" lon="-3.1438210">
        <ele>783.8</ele>
        <time>2022-08-29T09:28:00Z</time>
      </trkpt>
      <trkpt lat="42.4254490" lon="-3.1438640">
        <ele>784.0</ele>
        <time>2022-08-29T09:28:01Z</time>
      </trkpt>
      <trkpt lat="42.4254330" lon="-3.1439040">
        <ele>784.2</ele>
        <time>2022-08-29T09:28:02Z</time>
      </trkpt>
      <trkpt lat="42.4254190" lon="-3.1439420">
        <ele>784.2</ele>
        <time>2022-08-29T09:28:03Z</time>
      </trkpt>
      <trkpt lat="42.4254050" lon="-3.1439800">
        <ele>784.4</ele>
        <time>2022-08-29T09:28:04Z</time>
      </trkpt>
      <trkpt lat="42.4253950" lon="-3.1440190">
        <ele>784.6</ele>
        <time>2022-08-29T09:28:05Z</time>
      </trkpt>
      <trkpt lat="42.4253850" lon="-3.1440620">
        <ele>784.8</ele>
        <time>2022-08-29T09:28:06Z</time>
      </trkpt>
      <trkpt lat="42.4253750" lon="-3.1441050">
        <ele>785.0</ele>
        <time>2022-08-29T09:28:07Z</time>
      </trkpt>
      <trkpt lat="42.4253620" lon="-3.1441510">
        <ele>785.2</ele>
        <time>2022-08-29T09:28:08Z</time>
      </trkpt>
      <trkpt lat="42.4253480" lon="-3.1441960">
        <ele>785.2</ele>
        <time>2022-08-29T09:28:09Z</time>
      </trkpt>
      <trkpt lat="42.4253320" lon="-3.1442400">
        <ele>785.4</ele>
        <time>2022-08-29T09:28:10Z</time>
      </trkpt>
      <trkpt lat="42.4253160" lon="-3.1442840">
        <ele>785.4</ele>
        <time>2022-08-29T09:28:11Z</time>
      </trkpt>
      <trkpt lat="42.4253020" lon="-3.1443310">
        <ele>785.6</ele>
        <time>2022-08-29T09:28:12Z</time>
      </trkpt>
      <trkpt lat="42.4252860" lon="-3.1443780">
        <ele>785.6</ele>
        <time>2022-08-29T09:28:13Z</time>
      </trkpt>
      <trkpt lat="42.4252700" lon="-3.1444240">
        <ele>785.8</ele>
        <time>2022-08-29T09:28:14Z</time>
      </trkpt>
      <trkpt lat="42.4252550" lon="-3.1444700">
        <ele>785.8</ele>
        <time>2022-08-29T09:28:15Z</time>
      </trkpt>
      <trkpt lat="42.4252390" lon="-3.1445150">
        <ele>785.8</ele>
        <time>2022-08-29T09:28:16Z</time>
      </trkpt>
      <trkpt lat="42.4252230" lon="-3.1445600">
        <ele>786.0</ele>
        <time>2022-08-29T09:28:17Z</time>
      </trkpt>
      <trkpt lat="42.4252080" lon="-3.1446080">
        <ele>786.2</ele>
        <time>2022-08-29T09:28:18Z</time>
      </trkpt>
      <trkpt lat="42.4251920" lon="-3.1446560">
        <ele>786.4</ele>
        <time>2022-08-29T09:28:19Z</time>
      </trkpt>
      <trkpt lat="42.4251770" lon="-3.1447020">
        <ele>786.4</ele>
        <time>2022-08-29T09:28:20Z</time>
      </trkpt>
      <trkpt lat="42.4251610" lon="-3.1447480">
        <ele>786.6</ele>
        <time>2022-08-29T09:28:21Z</time>
      </trkpt>
      <trkpt lat="42.4251450" lon="-3.1447950">
        <ele>786.8</ele>
        <time>2022-08-29T09:28:22Z</time>
      </trkpt>
      <trkpt lat="42.4251310" lon="-3.1448410">
        <ele>786.8</ele>
        <time>2022-08-29T09:28:23Z</time>
      </trkpt>
      <trkpt lat="42.4251160" lon="-3.1448860">
        <ele>787.0</ele>
        <time>2022-08-29T09:28:24Z</time>
      </trkpt>
      <trkpt lat="42.4251010" lon="-3.1449300">
        <ele>787.2</ele>
        <time>2022-08-29T09:28:25Z</time>
      </trkpt>
      <trkpt lat="42.4250870" lon="-3.1449740">
        <ele>787.4</ele>
        <time>2022-08-29T09:28:26Z</time>
      </trkpt>
      <trkpt lat="42.4250720" lon="-3.1450170">
        <ele>787.6</ele>
        <time>2022-08-29T09:28:27Z</time>
      </trkpt>
      <trkpt lat="42.4250570" lon="-3.1450590">
        <ele>787.8</ele>
        <time>2022-08-29T09:28:28Z</time>
      </trkpt>
      <trkpt lat="42.4250410" lon="-3.1451000">
        <ele>788.0</ele>
        <time>2022-08-29T09:28:29Z</time>
      </trkpt>
      <trkpt lat="42.4250220" lon="-3.1451370">
        <ele>788.0</ele>
        <time>2022-08-29T09:28:30Z</time>
      </trkpt>
      <trkpt lat="42.4250020" lon="-3.1451750">
        <ele>788.0</ele>
        <time>2022-08-29T09:28:31Z</time>
      </trkpt>
      <trkpt lat="42.4249850" lon="-3.1452160">
        <ele>788.2</ele>
        <time>2022-08-29T09:28:32Z</time>
      </trkpt>
      <trkpt lat="42.4249700" lon="-3.1452610">
        <ele>788.2</ele>
        <time>2022-08-29T09:28:33Z</time>
      </trkpt>
      <trkpt lat="42.4249570" lon="-3.1453080">
        <ele>788.2</ele>
        <time>2022-08-29T09:28:34Z</time>
      </trkpt>
      <trkpt lat="42.4249450" lon="-3.1453530">
        <ele>788.4</ele>
        <time>2022-08-29T09:28:35Z</time>
      </trkpt>
      <trkpt lat="42.4249300" lon="-3.1453990">
        <ele>788.6</ele>
        <time>2022-08-29T09:28:36Z</time>
      </trkpt>
      <trkpt lat="42.4249150" lon="-3.1454460">
        <ele>788.6</ele>
        <time>2022-08-29T09:28:37Z</time>
      </trkpt>
      <trkpt lat="42.4249010" lon="-3.1454940">
        <ele>788.8</ele>
        <time>2022-08-29T09:28:38Z</time>
      </trkpt>
      <trkpt lat="42.4248840" lon="-3.1455380">
        <ele>788.6</ele>
        <time>2022-08-29T09:28:39Z</time>
      </trkpt>
      <trkpt lat="42.4248710" lon="-3.1455830">
        <ele>788.6</ele>
        <time>2022-08-29T09:28:40Z</time>
      </trkpt>
      <trkpt lat="42.4248540" lon="-3.1456270">
        <ele>788.6</ele>
        <time>2022-08-29T09:28:41Z</time>
      </trkpt>
      <trkpt lat="42.4248380" lon="-3.1456700">
        <ele>788.6</ele>
        <time>2022-08-29T09:28:42Z</time>
      </trkpt>
      <trkpt lat="42.4248220" lon="-3.1457130">
        <ele>788.8</ele>
        <time>2022-08-29T09:28:43Z</time>
      </trkpt>
      <trkpt lat="42.4248070" lon="-3.1457560">
        <ele>789.0</ele>
        <time>2022-08-29T09:28:44Z</time>
      </trkpt>
      <trkpt lat="42.4247940" lon="-3.1458010">
        <ele>789.0</ele>
        <time>2022-08-29T09:28:45Z</time>
      </trkpt>
      <trkpt lat="42.4247820" lon="-3.1458450">
        <ele>789.0</ele>
        <time>2022-08-29T09:28:46Z</time>
      </trkpt>
      <trkpt lat="42.4247680" lon="-3.1458890">
        <ele>789.0</ele>
        <time>2022-08-29T09:28:47Z</time>
      </trkpt>
      <trkpt lat="42.4247530" lon="-3.1459320">
        <ele>789.2</ele>
        <time>2022-08-29T09:28:48Z</time>
      </trkpt>
      <trkpt lat="42.4247400" lon="-3.1459760">
        <ele>789.0</ele>
        <time>2022-08-29T09:28:49Z</time>
      </trkpt>
      <trkpt lat="42.4247260" lon="-3.1460210">
        <ele>789.2</ele>
        <time>2022-08-29T09:28:50Z</time>
      </trkpt>
      <trkpt lat="42.4247110" lon="-3.1460670">
        <ele>789.4</ele>
        <time>2022-08-29T09:28:51Z</time>
      </trkpt>
      <trkpt lat="42.4246960" lon="-3.1461150">
        <ele>789.2</ele>
        <time>2022-08-29T09:28:52Z</time>
      </trkpt>
      <trkpt lat="42.4246800" lon="-3.1461630">
        <ele>789.2</ele>
        <time>2022-08-29T09:28:53Z</time>
      </trkpt>
      <trkpt lat="42.4246640" lon="-3.1462110">
        <ele>789.4</ele>
        <time>2022-08-29T09:28:54Z</time>
      </trkpt>
      <trkpt lat="42.4246480" lon="-3.1462600">
        <ele>789.4</ele>
        <time>2022-08-29T09:28:55Z</time>
      </trkpt>
      <trkpt lat="42.4246310" lon="-3.1463080">
        <ele>789.4</ele>
        <time>2022-08-29T09:28:56Z</time>
      </trkpt>
      <trkpt lat="42.4246160" lon="-3.1463570">
        <ele>789.6</ele>
        <time>2022-08-29T09:28:57Z</time>
      </trkpt>
      <trkpt lat="42.4246010" lon="-3.1464070">
        <ele>789.6</ele>
        <time>2022-08-29T09:28:58Z</time>
      </trkpt>
      <trkpt lat="42.4245850" lon="-3.1464570">
        <ele>789.8</ele>
        <time>2022-08-29T09:28:59Z</time>
      </trkpt>
      <trkpt lat="42.4245690" lon="-3.1465070">
        <ele>789.8</ele>
        <time>2022-08-29T09:29:00Z</time>
      </trkpt>
      <trkpt lat="42.4245530" lon="-3.1465570">
        <ele>789.8</ele>
        <time>2022-08-29T09:29:01Z</time>
      </trkpt>
      <trkpt lat="42.4245360" lon="-3.1466060">
        <ele>789.8</ele>
        <time>2022-08-29T09:29:02Z</time>
      </trkpt>
      <trkpt lat="42.4245170" lon="-3.1466570">
        <ele>790.0</ele>
        <time>2022-08-29T09:29:03Z</time>
      </trkpt>
      <trkpt lat="42.4244980" lon="-3.1467090">
        <ele>790.0</ele>
        <time>2022-08-29T09:29:04Z</time>
      </trkpt>
      <trkpt lat="42.4244790" lon="-3.1467620">
        <ele>790.0</ele>
        <time>2022-08-29T09:29:05Z</time>
      </trkpt>
      <trkpt lat="42.4244620" lon="-3.1468150">
        <ele>790.2</ele>
        <time>2022-08-29T09:29:06Z</time>
      </trkpt>
      <trkpt lat="42.4244460" lon="-3.1468670">
        <ele>790.2</ele>
        <time>2022-08-29T09:29:07Z</time>
      </trkpt>
      <trkpt lat="42.4244290" lon="-3.1469200">
        <ele>790.2</ele>
        <time>2022-08-29T09:29:08Z</time>
      </trkpt>
      <trkpt lat="42.4244120" lon="-3.1469710">
        <ele>790.4</ele>
        <time>2022-08-29T09:29:09Z</time>
      </trkpt>
      <trkpt lat="42.4243940" lon="-3.1470230">
        <ele>790.4</ele>
        <time>2022-08-29T09:29:10Z</time>
      </trkpt>
      <trkpt lat="42.4243760" lon="-3.1470740">
        <ele>790.6</ele>
        <time>2022-08-29T09:29:11Z</time>
      </trkpt>
      <trkpt lat="42.4243580" lon="-3.1471250">
        <ele>790.6</ele>
        <time>2022-08-29T09:29:12Z</time>
      </trkpt>
      <trkpt lat="42.4243410" lon="-3.1471760">
        <ele>790.6</ele>
        <time>2022-08-29T09:29:13Z</time>
      </trkpt>
      <trkpt lat="42.4243250" lon="-3.1472260">
        <ele>790.8</ele>
        <time>2022-08-29T09:29:14Z</time>
      </trkpt>
      <trkpt lat="42.4243090" lon="-3.1472770">
        <ele>790.6</ele>
        <time>2022-08-29T09:29:15Z</time>
      </trkpt>
      <trkpt lat="42.4242930" lon="-3.1473260">
        <ele>790.6</ele>
        <time>2022-08-29T09:29:16Z</time>
      </trkpt>
      <trkpt lat="42.4242780" lon="-3.1473740">
        <ele>790.8</ele>
        <time>2022-08-29T09:29:17Z</time>
      </trkpt>
      <trkpt lat="42.4242640" lon="-3.1474200">
        <ele>790.8</ele>
        <time>2022-08-29T09:29:18Z</time>
      </trkpt>
      <trkpt lat="42.4242490" lon="-3.1474680">
        <ele>790.8</ele>
        <time>2022-08-29T09:29:19Z</time>
      </trkpt>
      <trkpt lat="42.4242330" lon="-3.1475190">
        <ele>790.8</ele>
        <time>2022-08-29T09:29:20Z</time>
      </trkpt>
      <trkpt lat="42.4242150" lon="-3.1475720">
        <ele>791.0</ele>
        <time>2022-08-29T09:29:21Z</time>
      </trkpt>
      <trkpt lat="42.4241980" lon="-3.1476230">
        <ele>790.8</ele>
        <time>2022-08-29T09:29:22Z</time>
      </trkpt>
      <trkpt lat="42.4241800" lon="-3.1476760">
        <ele>791.0</ele>
        <time>2022-08-29T09:29:23Z</time>
      </trkpt>
      <trkpt lat="42.4241650" lon="-3.1477270">
        <ele>791.2</ele>
        <time>2022-08-29T09:29:24Z</time>
      </trkpt>
      <trkpt lat="42.4241500" lon="-3.1477780">
        <ele>791.2</ele>
        <time>2022-08-29T09:29:25Z</time>
      </trkpt>
      <trkpt lat="42.4241340" lon="-3.1478280">
        <ele>791.4</ele>
        <time>2022-08-29T09:29:26Z</time>
      </trkpt>
      <trkpt lat="42.4241190" lon="-3.1478760">
        <ele>791.4</ele>
        <time>2022-08-29T09:29:27Z</time>
      </trkpt>
      <trkpt lat="42.4241040" lon="-3.1479230">
        <ele>791.6</ele>
        <time>2022-08-29T09:29:28Z</time>
      </trkpt>
      <trkpt lat="42.4240900" lon="-3.1479720">
        <ele>791.6</ele>
        <time>2022-08-29T09:29:29Z</time>
      </trkpt>
      <trkpt lat="42.4240740" lon="-3.1480220">
        <ele>791.8</ele>
        <time>2022-08-29T09:29:30Z</time>
      </trkpt>
      <trkpt lat="42.4240580" lon="-3.1480720">
        <ele>791.8</ele>
        <time>2022-08-29T09:29:31Z</time>
      </trkpt>
      <trkpt lat="42.4240390" lon="-3.1481190">
        <ele>791.8</ele>
        <time>2022-08-29T09:29:32Z</time>
      </trkpt>
      <trkpt lat="42.4240210" lon="-3.1481690">
        <ele>791.8</ele>
        <time>2022-08-29T09:29:33Z</time>
      </trkpt>
      <trkpt lat="42.4240070" lon="-3.1482210">
        <ele>792.0</ele>
        <time>2022-08-29T09:29:34Z</time>
      </trkpt>
      <trkpt lat="42.4239940" lon="-3.1482720">
        <ele>792.2</ele>
        <time>2022-08-29T09:29:35Z</time>
      </trkpt>
      <trkpt lat="42.4239790" lon="-3.1483220">
        <ele>792.4</ele>
        <time>2022-08-29T09:29:36Z</time>
      </trkpt>
      <trkpt lat="42.4239640" lon="-3.1483700">
        <ele>792.4</ele>
        <time>2022-08-29T09:29:37Z</time>
      </trkpt>
      <trkpt lat="42.4239460" lon="-3.1484180">
        <ele>792.6</ele>
        <time>2022-08-29T09:29:38Z</time>
      </trkpt>
      <trkpt lat="42.4239280" lon="-3.1484670">
        <ele>792.8</ele>
        <time>2022-08-29T09:29:39Z</time>
      </trkpt>
      <trkpt lat="42.4239100" lon="-3.1485160">
        <ele>793.0</ele>
        <time>2022-08-29T09:29:40Z</time>
      </trkpt>
      <trkpt lat="42.4238920" lon="-3.1485650">
        <ele>793.2</ele>
        <time>2022-08-29T09:29:41Z</time>
      </trkpt>
      <trkpt lat="42.4238750" lon="-3.1486160">
        <ele>793.2</ele>
        <time>2022-08-29T09:29:42Z</time>
      </trkpt>
      <trkpt lat="42.4238590" lon="-3.1486670">
        <ele>793.2</ele>
        <time>2022-08-29T09:29:43Z</time>
      </trkpt>
      <trkpt lat="42.4238420" lon="-3.1487170">
        <ele>793.2</ele>
        <time>2022-08-29T09:29:44Z</time>
      </trkpt>
      <trkpt lat="42.4238250" lon="-3.1487660">
        <ele>793.4</ele>
        <time>2022-08-29T09:29:45Z</time>
      </trkpt>
      <trkpt lat="42.4238090" lon="-3.1488150">
        <ele>793.4</ele>
        <time>2022-08-29T09:29:46Z</time>
      </trkpt>
      <trkpt lat="42.4237910" lon="-3.1488650">
        <ele>793.4</ele>
        <time>2022-08-29T09:29:47Z</time>
      </trkpt>
      <trkpt lat="42.4237730" lon="-3.1489140">
        <ele>793.6</ele>
        <time>2022-08-29T09:29:48Z</time>
      </trkpt>
      <trkpt lat="42.4237560" lon="-3.1489630">
        <ele>793.6</ele>
        <time>2022-08-29T09:29:49Z</time>
      </trkpt>
      <trkpt lat="42.4237410" lon="-3.1490120">
        <ele>793.4</ele>
        <time>2022-08-29T09:29:50Z</time>
      </trkpt>
      <trkpt lat="42.4237260" lon="-3.1490600">
        <ele>793.6</ele>
        <time>2022-08-29T09:29:51Z</time>
      </trkpt>
      <trkpt lat="42.4237100" lon="-3.1491080">
        <ele>793.8</ele>
        <time>2022-08-29T09:29:52Z</time>
      </trkpt>
      <trkpt lat="42.4236940" lon="-3.1491540">
        <ele>793.8</ele>
        <time>2022-08-29T09:29:53Z</time>
      </trkpt>
      <trkpt lat="42.4236780" lon="-3.1492010">
        <ele>793.8</ele>
        <time>2022-08-29T09:29:54Z</time>
      </trkpt>
      <trkpt lat="42.4236620" lon="-3.1492470">
        <ele>794.2</ele>
        <time>2022-08-29T09:29:55Z</time>
      </trkpt>
      <trkpt lat="42.4236460" lon="-3.1492920">
        <ele>794.2</ele>
        <time>2022-08-29T09:29:56Z</time>
      </trkpt>
      <trkpt lat="42.4236300" lon="-3.1493390">
        <ele>794.2</ele>
        <time>2022-08-29T09:29:57Z</time>
      </trkpt>
      <trkpt lat="42.4236150" lon="-3.1493860">
        <ele>794.6</ele>
        <time>2022-08-29T09:29:58Z</time>
      </trkpt>
      <trkpt lat="42.4236010" lon="-3.1494320">
        <ele>794.6</ele>
        <time>2022-08-29T09:29:59Z</time>
      </trkpt>
      <trkpt lat="42.4235850" lon="-3.1494780">
        <ele>794.8</ele>
        <time>2022-08-29T09:30:00Z</time>
      </trkpt>
      <trkpt lat="42.4235700" lon="-3.1495250">
        <ele>794.8</ele>
        <time>2022-08-29T09:30:01Z</time>
      </trkpt>
      <trkpt lat="42.4235550" lon="-3.1495720">
        <ele>795.0</ele>
        <time>2022-08-29T09:30:02Z</time>
      </trkpt>
      <trkpt lat="42.4235390" lon="-3.1496200">
        <ele>795.0</ele>
        <time>2022-08-29T09:30:03Z</time>
      </trkpt>
      <trkpt lat="42.4235230" lon="-3.1496670">
        <ele>795.0</ele>
        <time>2022-08-29T09:30:04Z</time>
      </trkpt>
      <trkpt lat="42.4235050" lon="-3.1497150">
        <ele>795.2</ele>
        <time>2022-08-29T09:30:05Z</time>
      </trkpt>
      <trkpt lat="42.4234850" lon="-3.1497600">
        <ele>795.4</ele>
        <time>2022-08-29T09:30:06Z</time>
      </trkpt>
      <trkpt lat="42.4234650" lon="-3.1498060">
        <ele>795.4</ele>
        <time>2022-08-29T09:30:07Z</time>
      </trkpt>
      <trkpt lat="42.4234470" lon="-3.1498520">
        <ele>795.4</ele>
        <time>2022-08-29T09:30:08Z</time>
      </trkpt>
      <trkpt lat="42.4234310" lon="-3.1499000">
        <ele>795.4</ele>
        <time>2022-08-29T09:30:09Z</time>
      </trkpt>
      <trkpt lat="42.4234140" lon="-3.1499470">
        <ele>795.4</ele>
        <time>2022-08-29T09:30:10Z</time>
      </trkpt>
      <trkpt lat="42.4233970" lon="-3.1499940">
        <ele>795.6</ele>
        <time>2022-08-29T09:30:11Z</time>
      </trkpt>
      <trkpt lat="42.4233800" lon="-3.1500410">
        <ele>795.8</ele>
        <time>2022-08-29T09:30:12Z</time>
      </trkpt>
      <trkpt lat="42.4233640" lon="-3.1500870">
        <ele>795.8</ele>
        <time>2022-08-29T09:30:13Z</time>
      </trkpt>
      <trkpt lat="42.4233480" lon="-3.1501350">
        <ele>796.0</ele>
        <time>2022-08-29T09:30:14Z</time>
      </trkpt>
      <trkpt lat="42.4233330" lon="-3.1501820">
        <ele>796.0</ele>
        <time>2022-08-29T09:30:15Z</time>
      </trkpt>
      <trkpt lat="42.4233170" lon="-3.1502310">
        <ele>796.0</ele>
        <time>2022-08-29T09:30:16Z</time>
      </trkpt>
      <trkpt lat="42.4233020" lon="-3.1502780">
        <ele>796.0</ele>
        <time>2022-08-29T09:30:17Z</time>
      </trkpt>
      <trkpt lat="42.4232860" lon="-3.1503260">
        <ele>796.2</ele>
        <time>2022-08-29T09:30:18Z</time>
      </trkpt>
      <trkpt lat="42.4232690" lon="-3.1503740">
        <ele>796.0</ele>
        <time>2022-08-29T09:30:19Z</time>
      </trkpt>
      <trkpt lat="42.4232520" lon="-3.1504220">
        <ele>796.2</ele>
        <time>2022-08-29T09:30:20Z</time>
      </trkpt>
      <trkpt lat="42.4232350" lon="-3.1504710">
        <ele>796.4</ele>
        <time>2022-08-29T09:30:21Z</time>
      </trkpt>
      <trkpt lat="42.4232180" lon="-3.1505210">
        <ele>796.4</ele>
        <time>2022-08-29T09:30:22Z</time>
      </trkpt>
      <trkpt lat="42.4232010" lon="-3.1505710">
        <ele>796.6</ele>
        <time>2022-08-29T09:30:23Z</time>
      </trkpt>
      <trkpt lat="42.4231830" lon="-3.1506230">
        <ele>796.8</ele>
        <time>2022-08-29T09:30:24Z</time>
      </trkpt>
      <trkpt lat="42.4231670" lon="-3.1506750">
        <ele>796.6</ele>
        <time>2022-08-29T09:30:25Z</time>
      </trkpt>
      <trkpt lat="42.4231500" lon="-3.1507280">
        <ele>796.8</ele>
        <time>2022-08-29T09:30:26Z</time>
      </trkpt>
      <trkpt lat="42.4231340" lon="-3.1507800">
        <ele>796.8</ele>
        <time>2022-08-29T09:30:27Z</time>
      </trkpt>
      <trkpt lat="42.4231190" lon="-3.1508320">
        <ele>797.0</ele>
        <time>2022-08-29T09:30:28Z</time>
      </trkpt>
      <trkpt lat="42.4231030" lon="-3.1508830">
        <ele>797.0</ele>
        <time>2022-08-29T09:30:29Z</time>
      </trkpt>
      <trkpt lat="42.4230890" lon="-3.1509320">
        <ele>797.0</ele>
        <time>2022-08-29T09:30:30Z</time>
      </trkpt>
      <trkpt lat="42.4230740" lon="-3.1509800">
        <ele>797.0</ele>
        <time>2022-08-29T09:30:31Z</time>
      </trkpt>
      <trkpt lat="42.4230580" lon="-3.1510260">
        <ele>797.2</ele>
        <time>2022-08-29T09:30:32Z</time>
      </trkpt>
      <trkpt lat="42.4230410" lon="-3.1510700">
        <ele>797.4</ele>
        <time>2022-08-29T09:30:33Z</time>
      </trkpt>
      <trkpt lat="42.4230240" lon="-3.1511130">
        <ele>797.4</ele>
        <time>2022-08-29T09:30:34Z</time>
      </trkpt>
      <trkpt lat="42.4230090" lon="-3.1511560">
        <ele>797.4</ele>
        <time>2022-08-29T09:30:35Z</time>
      </trkpt>
      <trkpt lat="42.4229930" lon="-3.1512010">
        <ele>797.4</ele>
        <time>2022-08-29T09:30:36Z</time>
      </trkpt>
      <trkpt lat="42.4229770" lon="-3.1512460">
        <ele>797.4</ele>
        <time>2022-08-29T09:30:37Z</time>
      </trkpt>
      <trkpt lat="42.4229600" lon="-3.1512930">
        <ele>797.6</ele>
        <time>2022-08-29T09:30:38Z</time>
      </trkpt>
      <trkpt lat="42.4229440" lon="-3.1513410">
        <ele>797.6</ele>
        <time>2022-08-29T09:30:39Z</time>
      </trkpt>
      <trkpt lat="42.4229290" lon="-3.1513890">
        <ele>797.6</ele>
        <time>2022-08-29T09:30:40Z</time>
      </trkpt>
      <trkpt lat="42.4229140" lon="-3.1514350">
        <ele>797.6</ele>
        <time>2022-08-29T09:30:41Z</time>
      </trkpt>
      <trkpt lat="42.4228970" lon="-3.1514800">
        <ele>797.8</ele>
        <time>2022-08-29T09:30:42Z</time>
      </trkpt>
      <trkpt lat="42.4228810" lon="-3.1515260">
        <ele>797.8</ele>
        <time>2022-08-29T09:30:43Z</time>
      </trkpt>
      <trkpt lat="42.4228640" lon="-3.1515710">
        <ele>797.8</ele>
        <time>2022-08-29T09:30:44Z</time>
      </trkpt>
      <trkpt lat="42.4228480" lon="-3.1516160">
        <ele>798.2</ele>
        <time>2022-08-29T09:30:45Z</time>
      </trkpt>
      <trkpt lat="42.4228320" lon="-3.1516610">
        <ele>798.4</ele>
        <time>2022-08-29T09:30:46Z</time>
      </trkpt>
      <trkpt lat="42.4228180" lon="-3.1517060">
        <ele>798.4</ele>
        <time>2022-08-29T09:30:47Z</time>
      </trkpt>
      <trkpt lat="42.4228060" lon="-3.1517520">
        <ele>798.2</ele>
        <time>2022-08-29T09:30:48Z</time>
      </trkpt>
      <trkpt lat="42.4227950" lon="-3.1517970">
        <ele>798.2</ele>
        <time>2022-08-29T09:30:49Z</time>
      </trkpt>
      <trkpt lat="42.4227820" lon="-3.1518410">
        <ele>798.6</ele>
        <time>2022-08-29T09:30:50Z</time>
      </trkpt>
      <trkpt lat="42.4227670" lon="-3.1518830">
        <ele>798.6</ele>
        <time>2022-08-29T09:30:51Z</time>
      </trkpt>
      <trkpt lat="42.4227520" lon="-3.1519230">
        <ele>798.8</ele>
        <time>2022-08-29T09:30:52Z</time>
      </trkpt>
      <trkpt lat="42.4227380" lon="-3.1519590">
        <ele>798.6</ele>
        <time>2022-08-29T09:30:53Z</time>
      </trkpt>
      <trkpt lat="42.4227250" lon="-3.1519910">
        <ele>799.0</ele>
        <time>2022-08-29T09:30:54Z</time>
      </trkpt>
      <trkpt lat="42.4227140" lon="-3.1520220">
        <ele>799.2</ele>
        <time>2022-08-29T09:30:55Z</time>
      </trkpt>
      <trkpt lat="42.4227040" lon="-3.1520490">
        <ele>799.2</ele>
        <time>2022-08-29T09:30:56Z</time>
      </trkpt>
      <trkpt lat="42.4226940" lon="-3.1520750">
        <ele>799.4</ele>
        <time>2022-08-29T09:30:57Z</time>
      </trkpt>
      <trkpt lat="42.4226830" lon="-3.1520970">
        <ele>799.4</ele>
        <time>2022-08-29T09:30:58Z</time>
      </trkpt>
      <trkpt lat="42.4226730" lon="-3.1521200">
        <ele>799.8</ele>
        <time>2022-08-29T09:30:59Z</time>
      </trkpt>
      <trkpt lat="42.4226650" lon="-3.1521420">
        <ele>799.8</ele>
        <time>2022-08-29T09:31:00Z</time>
      </trkpt>
      <trkpt lat="42.4226570" lon="-3.1521660">
        <ele>799.8</ele>
        <time>2022-08-29T09:31:01Z</time>
      </trkpt>
      <trkpt lat="42.4226500" lon="-3.1521930">
        <ele>800.2</ele>
        <time>2022-08-29T09:31:02Z</time>
      </trkpt>
      <trkpt lat="42.4226430" lon="-3.1522260">
        <ele>800.6</ele>
        <time>2022-08-29T09:31:03Z</time>
      </trkpt>
      <trkpt lat="42.4226380" lon="-3.1522620">
        <ele>800.8</ele>
        <time>2022-08-29T09:31:04Z</time>
      </trkpt>
      <trkpt lat="42.4226360" lon="-3.1522960">
        <ele>801.0</ele>
        <time>2022-08-29T09:31:05Z</time>
      </trkpt>
      <trkpt lat="42.4226320" lon="-3.1523280">
        <ele>801.2</ele>
        <time>2022-08-29T09:31:06Z</time>
      </trkpt>
      <trkpt lat="42.4226250" lon="-3.1523600">
        <ele>801.4</ele>
        <time>2022-08-29T09:31:07Z</time>
      </trkpt>
      <trkpt lat="42.4226190" lon="-3.1523920">
        <ele>801.4</ele>
        <time>2022-08-29T09:31:08Z</time>
      </trkpt>
      <trkpt lat="42.4226120" lon="-3.1524270">
        <ele>801.6</ele>
        <time>2022-08-29T09:31:09Z</time>
      </trkpt>
      <trkpt lat="42.4225990" lon="-3.1524640">
        <ele>801.6</ele>
        <time>2022-08-29T09:31:10Z</time>
      </trkpt>
      <trkpt lat="42.4225850" lon="-3.1525060">
        <ele>801.6</ele>
        <time>2022-08-29T09:31:11Z</time>
      </trkpt>
      <trkpt lat="42.4225710" lon="-3.1525520">
        <ele>801.8</ele>
        <time>2022-08-29T09:31:12Z</time>
      </trkpt>
      <trkpt lat="42.4225590" lon="-3.1526000">
        <ele>801.6</ele>
        <time>2022-08-29T09:31:13Z</time>
      </trkpt>
      <trkpt lat="42.4225480" lon="-3.1526490">
        <ele>801.8</ele>
        <time>2022-08-29T09:31:14Z</time>
      </trkpt>
      <trkpt lat="42.4225370" lon="-3.1526980">
        <ele>801.8</ele>
        <time>2022-08-29T09:31:15Z</time>
      </trkpt>
      <trkpt lat="42.4225250" lon="-3.1527480">
        <ele>801.8</ele>
        <time>2022-08-29T09:31:16Z</time>
      </trkpt>
      <trkpt lat="42.4225120" lon="-3.1527960">
        <ele>801.8</ele>
        <time>2022-08-29T09:31:17Z</time>
      </trkpt>
      <trkpt lat="42.4224970" lon="-3.1528430">
        <ele>801.8</ele>
        <time>2022-08-29T09:31:18Z</time>
      </trkpt>
      <trkpt lat="42.4224820" lon="-3.1528910">
        <ele>801.8</ele>
        <time>2022-08-29T09:31:19Z</time>
      </trkpt>
      <trkpt lat="42.4224660" lon="-3.1529390">
        <ele>801.8</ele>
        <time>2022-08-29T09:31:20Z</time>
      </trkpt>
      <trkpt lat="42.4224480" lon="-3.1529850">
        <ele>801.8</ele>
        <time>2022-08-29T09:31:21Z</time>
      </trkpt>
      <trkpt lat="42.4224290" lon="-3.1530310">
        <ele>801.8</ele>
        <time>2022-08-29T09:31:22Z</time>
      </trkpt>
      <trkpt lat="42.4224110" lon="-3.1530780">
        <ele>801.8</ele>
        <time>2022-08-29T09:31:23Z</time>
      </trkpt>
      <trkpt lat="42.4223950" lon="-3.1531260">
        <ele>801.8</ele>
        <time>2022-08-29T09:31:24Z</time>
      </trkpt>
      <trkpt lat="42.4223790" lon="-3.1531760">
        <ele>801.8</ele>
        <time>2022-08-29T09:31:25Z</time>
      </trkpt>
      <trkpt lat="42.4223640" lon="-3.1532250">
        <ele>802.0</ele>
        <time>2022-08-29T09:31:26Z</time>
      </trkpt>
      <trkpt lat="42.4223510" lon="-3.1532740">
        <ele>801.8</ele>
        <time>2022-08-29T09:31:27Z</time>
      </trkpt>
      <trkpt lat="42.4223350" lon="-3.1533220">
        <ele>801.8</ele>
        <time>2022-08-29T09:31:28Z</time>
      </trkpt>
      <trkpt lat="42.4223200" lon="-3.1533700">
        <ele>801.8</ele>
        <time>2022-08-29T09:31:29Z</time>
      </trkpt>
      <trkpt lat="42.4223030" lon="-3.1534180">
        <ele>802.0</ele>
        <time>2022-08-29T09:31:30Z</time>
      </trkpt>
      <trkpt lat="42.4222860" lon="-3.1534660">
        <ele>802.0</ele>
        <time>2022-08-29T09:31:31Z</time>
      </trkpt>
      <trkpt lat="42.4222690" lon="-3.1535140">
        <ele>802.0</ele>
        <time>2022-08-29T09:31:32Z</time>
      </trkpt>
      <trkpt lat="42.4222520" lon="-3.1535610">
        <ele>802.2</ele>
        <time>2022-08-29T09:31:33Z</time>
      </trkpt>
      <trkpt lat="42.4222360" lon="-3.1536100">
        <ele>802.2</ele>
        <time>2022-08-29T09:31:34Z</time>
      </trkpt>
      <trkpt lat="42.4222200" lon="-3.1536590">
        <ele>802.2</ele>
        <time>2022-08-29T09:31:35Z</time>
      </trkpt>
      <trkpt lat="42.4222040" lon="-3.1537090">
        <ele>802.2</ele>
        <time>2022-08-29T09:31:36Z</time>
      </trkpt>
      <trkpt lat="42.4221900" lon="-3.1537590">
        <ele>802.2</ele>
        <time>2022-08-29T09:31:37Z</time>
      </trkpt>
      <trkpt lat="42.4221750" lon="-3.1538090">
        <ele>802.2</ele>
        <time>2022-08-29T09:31:38Z</time>
      </trkpt>
      <trkpt lat="42.4221590" lon="-3.1538590">
        <ele>802.2</ele>
        <time>2022-08-29T09:31:39Z</time>
      </trkpt>
      <trkpt lat="42.4221430" lon="-3.1539080">
        <ele>802.2</ele>
        <time>2022-08-29T09:31:40Z</time>
      </trkpt>
      <trkpt lat="42.4221270" lon="-3.1539570">
        <ele>802.2</ele>
        <time>2022-08-29T09:31:41Z</time>
      </trkpt>
      <trkpt lat="42.4221110" lon="-3.1540040">
        <ele>802.6</ele>
        <time>2022-08-29T09:31:42Z</time>
      </trkpt>
      <trkpt lat="42.4220960" lon="-3.1540520">
        <ele>802.6</ele>
        <time>2022-08-29T09:31:43Z</time>
      </trkpt>
      <trkpt lat="42.4220820" lon="-3.1540980">
        <ele>802.6</ele>
        <time>2022-08-29T09:31:44Z</time>
      </trkpt>
      <trkpt lat="42.4220670" lon="-3.1541430">
        <ele>802.8</ele>
        <time>2022-08-29T09:31:45Z</time>
      </trkpt>
      <trkpt lat="42.4220520" lon="-3.1541890">
        <ele>802.8</ele>
        <time>2022-08-29T09:31:46Z</time>
      </trkpt>
      <trkpt lat="42.4220370" lon="-3.1542350">
        <ele>802.8</ele>
        <time>2022-08-29T09:31:47Z</time>
      </trkpt>
      <trkpt lat="42.4220210" lon="-3.1542820">
        <ele>802.8</ele>
        <time>2022-08-29T09:31:48Z</time>
      </trkpt>
      <trkpt lat="42.4220060" lon="-3.1543300">
        <ele>802.8</ele>
        <time>2022-08-29T09:31:49Z</time>
      </trkpt>
      <trkpt lat="42.4219910" lon="-3.1543770">
        <ele>803.0</ele>
        <time>2022-08-29T09:31:50Z</time>
      </trkpt>
      <trkpt lat="42.4219770" lon="-3.1544230">
        <ele>803.0</ele>
        <time>2022-08-29T09:31:51Z</time>
      </trkpt>
      <trkpt lat="42.4219630" lon="-3.1544690">
        <ele>803.4</ele>
        <time>2022-08-29T09:31:52Z</time>
      </trkpt>
      <trkpt lat="42.4219470" lon="-3.1545130">
        <ele>803.2</ele>
        <time>2022-08-29T09:31:53Z</time>
      </trkpt>
      <trkpt lat="42.4219320" lon="-3.1545560">
        <ele>803.4</ele>
        <time>2022-08-29T09:31:54Z</time>
      </trkpt>
      <trkpt lat="42.4219180" lon="-3.1546000">
        <ele>803.6</ele>
        <time>2022-08-29T09:31:55Z</time>
      </trkpt>
      <trkpt lat="42.4219030" lon="-3.1546430">
        <ele>803.6</ele>
        <time>2022-08-29T09:31:56Z</time>
      </trkpt>
      <trkpt lat="42.4218880" lon="-3.1546860">
        <ele>804.0</ele>
        <time>2022-08-29T09:31:57Z</time>
      </trkpt>
      <trkpt lat="42.4218720" lon="-3.1547280">
        <ele>804.0</ele>
        <time>2022-08-29T09:31:58Z</time>
      </trkpt>
      <trkpt lat="42.4218550" lon="-3.1547710">
        <ele>804.0</ele>
        <time>2022-08-29T09:31:59Z</time>
      </trkpt>
      <trkpt lat="42.4218390" lon="-3.1548150">
        <ele>804.2</ele>
        <time>2022-08-29T09:32:00Z</time>
      </trkpt>
      <trkpt lat="42.4218220" lon="-3.1548620">
        <ele>804.4</ele>
        <time>2022-08-29T09:32:01Z</time>
      </trkpt>
      <trkpt lat="42.4218060" lon="-3.1549100">
        <ele>804.4</ele>
        <time>2022-08-29T09:32:02Z</time>
      </trkpt>
      <trkpt lat="42.4217920" lon="-3.1549590">
        <ele>804.6</ele>
        <time>2022-08-29T09:32:03Z</time>
      </trkpt>
      <trkpt lat="42.4217760" lon="-3.1550090">
        <ele>804.8</ele>
        <time>2022-08-29T09:32:04Z</time>
      </trkpt>
      <trkpt lat="42.4217610" lon="-3.1550600">
        <ele>804.8</ele>
        <time>2022-08-29T09:32:05Z</time>
      </trkpt>
      <trkpt lat="42.4217470" lon="-3.1551100">
        <ele>805.0</ele>
        <time>2022-08-29T09:32:06Z</time>
      </trkpt>
      <trkpt lat="42.4217320" lon="-3.1551610">
        <ele>805.2</ele>
        <time>2022-08-29T09:32:07Z</time>
      </trkpt>
      <trkpt lat="42.4217160" lon="-3.1552120">
        <ele>805.0</ele>
        <time>2022-08-29T09:32:08Z</time>
      </trkpt>
      <trkpt lat="42.4217010" lon="-3.1552630">
        <ele>805.2</ele>
        <time>2022-08-29T09:32:09Z</time>
      </trkpt>
      <trkpt lat="42.4216840" lon="-3.1553140">
        <ele>805.4</ele>
        <time>2022-08-29T09:32:10Z</time>
      </trkpt>
      <trkpt lat="42.4216670" lon="-3.1553660">
        <ele>805.4</ele>
        <time>2022-08-29T09:32:11Z</time>
      </trkpt>
      <trkpt lat="42.4216490" lon="-3.1554180">
        <ele>805.4</ele>
        <time>2022-08-29T09:32:12Z</time>
      </trkpt>
      <trkpt lat="42.4216330" lon="-3.1554710">
        <ele>805.4</ele>
        <time>2022-08-29T09:32:13Z</time>
      </trkpt>
      <trkpt lat="42.4216160" lon="-3.1555240">
        <ele>805.4</ele>
        <time>2022-08-29T09:32:14Z</time>
      </trkpt>
      <trkpt lat="42.4215980" lon="-3.1555770">
        <ele>805.6</ele>
        <time>2022-08-29T09:32:15Z</time>
      </trkpt>
      <trkpt lat="42.4215810" lon="-3.1556310">
        <ele>805.4</ele>
        <time>2022-08-29T09:32:16Z</time>
      </trkpt>
      <trkpt lat="42.4215640" lon="-3.1556850">
        <ele>805.4</ele>
        <time>2022-08-29T09:32:17Z</time>
      </trkpt>
      <trkpt lat="42.4215470" lon="-3.1557380">
        <ele>805.6</ele>
        <time>2022-08-29T09:32:18Z</time>
      </trkpt>
      <trkpt lat="42.4215290" lon="-3.1557900">
        <ele>805.6</ele>
        <time>2022-08-29T09:32:19Z</time>
      </trkpt>
      <trkpt lat="42.4215120" lon="-3.1558430">
        <ele>805.8</ele>
        <time>2022-08-29T09:32:20Z</time>
      </trkpt>
      <trkpt lat="42.4214950" lon="-3.1558950">
        <ele>805.8</ele>
        <time>2022-08-29T09:32:21Z</time>
      </trkpt>
      <trkpt lat="42.4214770" lon="-3.1559470">
        <ele>805.8</ele>
        <time>2022-08-29T09:32:22Z</time>
      </trkpt>
      <trkpt lat="42.4214600" lon="-3.1560000">
        <ele>806.0</ele>
        <time>2022-08-29T09:32:23Z</time>
      </trkpt>
      <trkpt lat="42.4214430" lon="-3.1560500">
        <ele>806.0</ele>
        <time>2022-08-29T09:32:24Z</time>
      </trkpt>
      <trkpt lat="42.4214260" lon="-3.1560980">
        <ele>806.2</ele>
        <time>2022-08-29T09:32:25Z</time>
      </trkpt>
      <trkpt lat="42.4214120" lon="-3.1561440">
        <ele>806.2</ele>
        <time>2022-08-29T09:32:26Z</time>
      </trkpt>
      <trkpt lat="42.4213980" lon="-3.1561860">
        <ele>806.2</ele>
        <time>2022-08-29T09:32:27Z</time>
      </trkpt>
      <trkpt lat="42.4213850" lon="-3.1562270">
        <ele>806.2</ele>
        <time>2022-08-29T09:32:28Z</time>
      </trkpt>
      <trkpt lat="42.4213730" lon="-3.1562670">
        <ele>806.4</ele>
        <time>2022-08-29T09:32:29Z</time>
      </trkpt>
      <trkpt lat="42.4213610" lon="-3.1563080">
        <ele>806.4</ele>
        <time>2022-08-29T09:32:30Z</time>
      </trkpt>
      <trkpt lat="42.4213490" lon="-3.1563480">
        <ele>806.4</ele>
        <time>2022-08-29T09:32:31Z</time>
      </trkpt>
      <trkpt lat="42.4213370" lon="-3.1563880">
        <ele>806.8</ele>
        <time>2022-08-29T09:32:32Z</time>
      </trkpt>
      <trkpt lat="42.4213260" lon="-3.1564260">
        <ele>806.6</ele>
        <time>2022-08-29T09:32:33Z</time>
      </trkpt>
      <trkpt lat="42.4213160" lon="-3.1564640">
        <ele>807.0</ele>
        <time>2022-08-29T09:32:34Z</time>
      </trkpt>
      <trkpt lat="42.4213090" lon="-3.1565040">
        <ele>807.0</ele>
        <time>2022-08-29T09:32:35Z</time>
      </trkpt>
      <trkpt lat="42.4213020" lon="-3.1565450">
        <ele>807.2</ele>
        <time>2022-08-29T09:32:36Z</time>
      </trkpt>
      <trkpt lat="42.4212900" lon="-3.1565850">
        <ele>807.2</ele>
        <time>2022-08-29T09:32:37Z</time>
      </trkpt>
      <trkpt lat="42.4212720" lon="-3.1566260">
        <ele>807.2</ele>
        <time>2022-08-29T09:32:38Z</time>
      </trkpt>
      <trkpt lat="42.4212520" lon="-3.1566680">
        <ele>807.6</ele>
        <time>2022-08-29T09:32:39Z</time>
      </trkpt>
      <trkpt lat="42.4212340" lon="-3.1567120">
        <ele>807.6</ele>
        <time>2022-08-29T09:32:40Z</time>
      </trkpt>
      <trkpt lat="42.4212160" lon="-3.1567590">
        <ele>807.8</ele>
        <time>2022-08-29T09:32:41Z</time>
      </trkpt>
      <trkpt lat="42.4211990" lon="-3.1568080">
        <ele>807.8</ele>
        <time>2022-08-29T09:32:42Z</time>
      </trkpt>
      <trkpt lat="42.4211820" lon="-3.1568580">
        <ele>808.0</ele>
        <time>2022-08-29T09:32:43Z</time>
      </trkpt>
      <trkpt lat="42.4211670" lon="-3.1569100">
        <ele>808.0</ele>
        <time>2022-08-29T09:32:44Z</time>
      </trkpt>
      <trkpt lat="42.4211500" lon="-3.1569610">
        <ele>808.0</ele>
        <time>2022-08-29T09:32:45Z</time>
      </trkpt>
      <trkpt lat="42.4211320" lon="-3.1570130">
        <ele>808.0</ele>
        <time>2022-08-29T09:32:46Z</time>
      </trkpt>
      <trkpt lat="42.4211130" lon="-3.1570640">
        <ele>808.0</ele>
        <time>2022-08-29T09:32:47Z</time>
      </trkpt>
      <trkpt lat="42.4210970" lon="-3.1571160">
        <ele>808.0</ele>
        <time>2022-08-29T09:32:48Z</time>
      </trkpt>
      <trkpt lat="42.4210810" lon="-3.1571680">
        <ele>808.0</ele>
        <time>2022-08-29T09:32:49Z</time>
      </trkpt>
      <trkpt lat="42.4210650" lon="-3.1572210">
        <ele>808.2</ele>
        <time>2022-08-29T09:32:50Z</time>
      </trkpt>
      <trkpt lat="42.4210480" lon="-3.1572720">
        <ele>808.0</ele>
        <time>2022-08-29T09:32:51Z</time>
      </trkpt>
      <trkpt lat="42.4210320" lon="-3.1573250">
        <ele>808.2</ele>
        <time>2022-08-29T09:32:52Z</time>
      </trkpt>
      <trkpt lat="42.4210150" lon="-3.1573770">
        <ele>808.2</ele>
        <time>2022-08-29T09:32:53Z</time>
      </trkpt>
      <trkpt lat="42.4209980" lon="-3.1574300">
        <ele>808.2</ele>
        <time>2022-08-29T09:32:54Z</time>
      </trkpt>
      <trkpt lat="42.4209800" lon="-3.1574840">
        <ele>808.2</ele>
        <time>2022-08-29T09:32:55Z</time>
      </trkpt>
      <trkpt lat="42.4209620" lon="-3.1575370">
        <ele>808.2</ele>
        <time>2022-08-29T09:32:56Z</time>
      </trkpt>
      <trkpt lat="42.4209450" lon="-3.1575910">
        <ele>808.4</ele>
        <time>2022-08-29T09:32:57Z</time>
      </trkpt>
      <trkpt lat="42.4209280" lon="-3.1576420">
        <ele>808.4</ele>
        <time>2022-08-29T09:32:58Z</time>
      </trkpt>
      <trkpt lat="42.4209100" lon="-3.1576930">
        <ele>808.4</ele>
        <time>2022-08-29T09:32:59Z</time>
      </trkpt>
      <trkpt lat="42.4208930" lon="-3.1577420">
        <ele>808.4</ele>
        <time>2022-08-29T09:33:00Z</time>
      </trkpt>
      <trkpt lat="42.4208750" lon="-3.1577900">
        <ele>808.2</ele>
        <time>2022-08-29T09:33:01Z</time>
      </trkpt>
      <trkpt lat="42.4208590" lon="-3.1578360">
        <ele>808.4</ele>
        <time>2022-08-29T09:33:02Z</time>
      </trkpt>
      <trkpt lat="42.4208440" lon="-3.1578800">
        <ele>808.4</ele>
        <time>2022-08-29T09:33:03Z</time>
      </trkpt>
      <trkpt lat="42.4208270" lon="-3.1579230">
        <ele>808.6</ele>
        <time>2022-08-29T09:33:04Z</time>
      </trkpt>
      <trkpt lat="42.4208100" lon="-3.1579660">
        <ele>808.6</ele>
        <time>2022-08-29T09:33:05Z</time>
      </trkpt>
      <trkpt lat="42.4207940" lon="-3.1580100">
        <ele>808.8</ele>
        <time>2022-08-29T09:33:06Z</time>
      </trkpt>
      <trkpt lat="42.4207770" lon="-3.1580550">
        <ele>808.6</ele>
        <time>2022-08-29T09:33:07Z</time>
      </trkpt>
      <trkpt lat="42.4207620" lon="-3.1581020">
        <ele>808.8</ele>
        <time>2022-08-29T09:33:08Z</time>
      </trkpt>
      <trkpt lat="42.4207470" lon="-3.1581520">
        <ele>808.8</ele>
        <time>2022-08-29T09:33:09Z</time>
      </trkpt>
      <trkpt lat="42.4207330" lon="-3.1582040">
        <ele>808.8</ele>
        <time>2022-08-29T09:33:10Z</time>
      </trkpt>
      <trkpt lat="42.4207180" lon="-3.1582560">
        <ele>809.0</ele>
        <time>2022-08-29T09:33:11Z</time>
      </trkpt>
      <trkpt lat="42.4207020" lon="-3.1583120">
        <ele>809.0</ele>
        <time>2022-08-29T09:33:12Z</time>
      </trkpt>
      <trkpt lat="42.4206830" lon="-3.1583710">
        <ele>809.2</ele>
        <time>2022-08-29T09:33:13Z</time>
      </trkpt>
      <trkpt lat="42.4206640" lon="-3.1584290">
        <ele>809.4</ele>
        <time>2022-08-29T09:33:14Z</time>
      </trkpt>
      <trkpt lat="42.4206420" lon="-3.1584870">
        <ele>809.2</ele>
        <time>2022-08-29T09:33:15Z</time>
      </trkpt>
      <trkpt lat="42.4206210" lon="-3.1585490">
        <ele>809.2</ele>
        <time>2022-08-29T09:33:16Z</time>
      </trkpt>
      <trkpt lat="42.4206050" lon="-3.1586130">
        <ele>809.2</ele>
        <time>2022-08-29T09:33:17Z</time>
      </trkpt>
      <trkpt lat="42.4205880" lon="-3.1586760">
        <ele>809.2</ele>
        <time>2022-08-29T09:33:18Z</time>
      </trkpt>
      <trkpt lat="42.4205700" lon="-3.1587380">
        <ele>809.4</ele>
        <time>2022-08-29T09:33:19Z</time>
      </trkpt>
      <trkpt lat="42.4205520" lon="-3.1588000">
        <ele>809.2</ele>
        <time>2022-08-29T09:33:20Z</time>
      </trkpt>
      <trkpt lat="42.4205350" lon="-3.1588630">
        <ele>809.2</ele>
        <time>2022-08-29T09:33:21Z</time>
      </trkpt>
      <trkpt lat="42.4205180" lon="-3.1589260">
        <ele>809.2</ele>
        <time>2022-08-29T09:33:22Z</time>
      </trkpt>
      <trkpt lat="42.4205000" lon="-3.1589880">
        <ele>809.4</ele>
        <time>2022-08-29T09:33:23Z</time>
      </trkpt>
      <trkpt lat="42.4204840" lon="-3.1590510">
        <ele>809.2</ele>
        <time>2022-08-29T09:33:24Z</time>
      </trkpt>
      <trkpt lat="42.4204680" lon="-3.1591140">
        <ele>809.2</ele>
        <time>2022-08-29T09:33:25Z</time>
      </trkpt>
      <trkpt lat="42.4204510" lon="-3.1591750">
        <ele>809.2</ele>
        <time>2022-08-29T09:33:26Z</time>
      </trkpt>
      <trkpt lat="42.4204340" lon="-3.1592350">
        <ele>809.2</ele>
        <time>2022-08-29T09:33:27Z</time>
      </trkpt>
      <trkpt lat="42.4204200" lon="-3.1592960">
        <ele>809.2</ele>
        <time>2022-08-29T09:33:28Z</time>
      </trkpt>
      <trkpt lat="42.4204050" lon="-3.1593580">
        <ele>809.2</ele>
        <time>2022-08-29T09:33:29Z</time>
      </trkpt>
      <trkpt lat="42.4203900" lon="-3.1594180">
        <ele>809.2</ele>
        <time>2022-08-29T09:33:30Z</time>
      </trkpt>
      <trkpt lat="42.4203740" lon="-3.1594770">
        <ele>809.2</ele>
        <time>2022-08-29T09:33:31Z</time>
      </trkpt>
      <trkpt lat="42.4203590" lon="-3.1595370">
        <ele>809.0</ele>
        <time>2022-08-29T09:33:32Z</time>
      </trkpt>
      <trkpt lat="42.4203440" lon="-3.1595960">
        <ele>809.2</ele>
        <time>2022-08-29T09:33:33Z</time>
      </trkpt>
      <trkpt lat="42.4203300" lon="-3.1596550">
        <ele>809.2</ele>
        <time>2022-08-29T09:33:34Z</time>
      </trkpt>
      <trkpt lat="42.4203160" lon="-3.1597150">
        <ele>809.2</ele>
        <time>2022-08-29T09:33:35Z</time>
      </trkpt>
      <trkpt lat="42.4203010" lon="-3.1597740">
        <ele>809.4</ele>
        <time>2022-08-29T09:33:36Z</time>
      </trkpt>
      <trkpt lat="42.4202850" lon="-3.1598320">
        <ele>809.2</ele>
        <time>2022-08-29T09:33:37Z</time>
      </trkpt>
      <trkpt lat="42.4202700" lon="-3.1598900">
        <ele>809.2</ele>
        <time>2022-08-29T09:33:38Z</time>
      </trkpt>
      <trkpt lat="42.4202560" lon="-3.1599500">
        <ele>809.4</ele>
        <time>2022-08-29T09:33:39Z</time>
      </trkpt>
      <trkpt lat="42.4202420" lon="-3.1600100">
        <ele>809.4</ele>
        <time>2022-08-29T09:33:40Z</time>
      </trkpt>
      <trkpt lat="42.4202270" lon="-3.1600710">
        <ele>809.6</ele>
        <time>2022-08-29T09:33:41Z</time>
      </trkpt>
      <trkpt lat="42.4202100" lon="-3.1601330">
        <ele>809.6</ele>
        <time>2022-08-29T09:33:42Z</time>
      </trkpt>
      <trkpt lat="42.4201930" lon="-3.1601960">
        <ele>809.6</ele>
        <time>2022-08-29T09:33:43Z</time>
      </trkpt>
      <trkpt lat="42.4201760" lon="-3.1602590">
        <ele>809.6</ele>
        <time>2022-08-29T09:33:44Z</time>
      </trkpt>
      <trkpt lat="42.4201590" lon="-3.1603210">
        <ele>809.6</ele>
        <time>2022-08-29T09:33:45Z</time>
      </trkpt>
      <trkpt lat="42.4201420" lon="-3.1603840">
        <ele>809.6</ele>
        <time>2022-08-29T09:33:46Z</time>
      </trkpt>
      <trkpt lat="42.4201250" lon="-3.1604470">
        <ele>809.6</ele>
        <time>2022-08-29T09:33:47Z</time>
      </trkpt>
      <trkpt lat="42.4201100" lon="-3.1605100">
        <ele>809.6</ele>
        <time>2022-08-29T09:33:48Z</time>
      </trkpt>
      <trkpt lat="42.4200960" lon="-3.1605730">
        <ele>809.8</ele>
        <time>2022-08-29T09:33:49Z</time>
      </trkpt>
      <trkpt lat="42.4200810" lon="-3.1606370">
        <ele>809.8</ele>
        <time>2022-08-29T09:33:50Z</time>
      </trkpt>
      <trkpt lat="42.4200640" lon="-3.1606990">
        <ele>809.6</ele>
        <time>2022-08-29T09:33:51Z</time>
      </trkpt>
      <trkpt lat="42.4200480" lon="-3.1607620">
        <ele>809.8</ele>
        <time>2022-08-29T09:33:52Z</time>
      </trkpt>
      <trkpt lat="42.4200310" lon="-3.1608250">
        <ele>809.8</ele>
        <time>2022-08-29T09:33:53Z</time>
      </trkpt>
      <trkpt lat="42.4200140" lon="-3.1608890">
        <ele>809.8</ele>
        <time>2022-08-29T09:33:54Z</time>
      </trkpt>
      <trkpt lat="42.4199960" lon="-3.1609540">
        <ele>809.8</ele>
        <time>2022-08-29T09:33:55Z</time>
      </trkpt>
      <trkpt lat="42.4199810" lon="-3.1610160">
        <ele>809.8</ele>
        <time>2022-08-29T09:33:56Z</time>
      </trkpt>
      <trkpt lat="42.4199670" lon="-3.1610810">
        <ele>809.8</ele>
        <time>2022-08-29T09:33:57Z</time>
      </trkpt>
      <trkpt lat="42.4199550" lon="-3.1611440">
        <ele>809.8</ele>
        <time>2022-08-29T09:33:58Z</time>
      </trkpt>
      <trkpt lat="42.4199410" lon="-3.1612050">
        <ele>809.8</ele>
        <time>2022-08-29T09:33:59Z</time>
      </trkpt>
      <trkpt lat="42.4199260" lon="-3.1612670">
        <ele>810.0</ele>
        <time>2022-08-29T09:34:00Z</time>
      </trkpt>
      <trkpt lat="42.4199120" lon="-3.1613280">
        <ele>809.8</ele>
        <time>2022-08-29T09:34:01Z</time>
      </trkpt>
      <trkpt lat="42.4198990" lon="-3.1613900">
        <ele>809.8</ele>
        <time>2022-08-29T09:34:02Z</time>
      </trkpt>
      <trkpt lat="42.4198840" lon="-3.1614520">
        <ele>809.8</ele>
        <time>2022-08-29T09:34:03Z</time>
      </trkpt>
      <trkpt lat="42.4198680" lon="-3.1615120">
        <ele>810.0</ele>
        <time>2022-08-29T09:34:04Z</time>
      </trkpt>
      <trkpt lat="42.4198510" lon="-3.1615730">
        <ele>810.2</ele>
        <time>2022-08-29T09:34:05Z</time>
      </trkpt>
      <trkpt lat="42.4198350" lon="-3.1616320">
        <ele>810.2</ele>
        <time>2022-08-29T09:34:06Z</time>
      </trkpt>
      <trkpt lat="42.4198210" lon="-3.1616910">
        <ele>810.2</ele>
        <time>2022-08-29T09:34:07Z</time>
      </trkpt>
      <trkpt lat="42.4198080" lon="-3.1617490">
        <ele>810.2</ele>
        <time>2022-08-29T09:34:08Z</time>
      </trkpt>
      <trkpt lat="42.4197940" lon="-3.1618070">
        <ele>810.4</ele>
        <time>2022-08-29T09:34:09Z</time>
      </trkpt>
      <trkpt lat="42.4197810" lon="-3.1618640">
        <ele>810.4</ele>
        <time>2022-08-29T09:34:10Z</time>
      </trkpt>
      <trkpt lat="42.4197670" lon="-3.1619210">
        <ele>810.6</ele>
        <time>2022-08-29T09:34:11Z</time>
      </trkpt>
      <trkpt lat="42.4197550" lon="-3.1619760">
        <ele>810.4</ele>
        <time>2022-08-29T09:34:12Z</time>
      </trkpt>
      <trkpt lat="42.4197420" lon="-3.1620300">
        <ele>810.6</ele>
        <time>2022-08-29T09:34:13Z</time>
      </trkpt>
      <trkpt lat="42.4197280" lon="-3.1620830">
        <ele>810.6</ele>
        <time>2022-08-29T09:34:14Z</time>
      </trkpt>
      <trkpt lat="42.4197150" lon="-3.1621370">
        <ele>810.6</ele>
        <time>2022-08-29T09:34:15Z</time>
      </trkpt>
      <trkpt lat="42.4197010" lon="-3.1621890">
        <ele>810.8</ele>
        <time>2022-08-29T09:34:16Z</time>
      </trkpt>
      <trkpt lat="42.4196890" lon="-3.1622410">
        <ele>810.8</ele>
        <time>2022-08-29T09:34:17Z</time>
      </trkpt>
      <trkpt lat="42.4196770" lon="-3.1622910">
        <ele>811.0</ele>
        <time>2022-08-29T09:34:18Z</time>
      </trkpt>
      <trkpt lat="42.4196660" lon="-3.1623430">
        <ele>811.0</ele>
        <time>2022-08-29T09:34:19Z</time>
      </trkpt>
      <trkpt lat="42.4196540" lon="-3.1623950">
        <ele>811.2</ele>
        <time>2022-08-29T09:34:20Z</time>
      </trkpt>
      <trkpt lat="42.4196420" lon="-3.1624470">
        <ele>811.0</ele>
        <time>2022-08-29T09:34:21Z</time>
      </trkpt>
      <trkpt lat="42.4196280" lon="-3.1624970">
        <ele>811.2</ele>
        <time>2022-08-29T09:34:22Z</time>
      </trkpt>
      <trkpt lat="42.4196110" lon="-3.1625460">
        <ele>811.4</ele>
        <time>2022-08-29T09:34:23Z</time>
      </trkpt>
      <trkpt lat="42.4195950" lon="-3.1625970">
        <ele>811.4</ele>
        <time>2022-08-29T09:34:24Z</time>
      </trkpt>
      <trkpt lat="42.4195830" lon="-3.1626480">
        <ele>811.4</ele>
        <time>2022-08-29T09:34:25Z</time>
      </trkpt>
      <trkpt lat="42.4195710" lon="-3.1627000">
        <ele>811.4</ele>
        <time>2022-08-29T09:34:26Z</time>
      </trkpt>
      <trkpt lat="42.4195600" lon="-3.1627500">
        <ele>811.4</ele>
        <time>2022-08-29T09:34:27Z</time>
      </trkpt>
      <trkpt lat="42.4195480" lon="-3.1627980">
        <ele>811.4</ele>
        <time>2022-08-29T09:34:28Z</time>
      </trkpt>
      <trkpt lat="42.4195340" lon="-3.1628450">
        <ele>811.4</ele>
        <time>2022-08-29T09:34:29Z</time>
      </trkpt>
      <trkpt lat="42.4195220" lon="-3.1628930">
        <ele>811.4</ele>
        <time>2022-08-29T09:34:30Z</time>
      </trkpt>
      <trkpt lat="42.4195100" lon="-3.1629400">
        <ele>811.4</ele>
        <time>2022-08-29T09:34:31Z</time>
      </trkpt>
      <trkpt lat="42.4194990" lon="-3.1629860">
        <ele>811.6</ele>
        <time>2022-08-29T09:34:32Z</time>
      </trkpt>
      <trkpt lat="42.4194880" lon="-3.1630330">
        <ele>811.6</ele>
        <time>2022-08-29T09:34:33Z</time>
      </trkpt>
      <trkpt lat="42.4194750" lon="-3.1630800">
        <ele>811.6</ele>
        <time>2022-08-29T09:34:34Z</time>
      </trkpt>
      <trkpt lat="42.4194620" lon="-3.1631260">
        <ele>811.6</ele>
        <time>2022-08-29T09:34:35Z</time>
      </trkpt>
      <trkpt lat="42.4194510" lon="-3.1631750">
        <ele>811.6</ele>
        <time>2022-08-29T09:34:36Z</time>
      </trkpt>
      <trkpt lat="42.4194420" lon="-3.1632230">
        <ele>811.4</ele>
        <time>2022-08-29T09:34:37Z</time>
      </trkpt>
      <trkpt lat="42.4194280" lon="-3.1632720">
        <ele>811.4</ele>
        <time>2022-08-29T09:34:38Z</time>
      </trkpt>
      <trkpt lat="42.4194120" lon="-3.1633230">
        <ele>811.6</ele>
        <time>2022-08-29T09:34:39Z</time>
      </trkpt>
      <trkpt lat="42.4193940" lon="-3.1633760">
        <ele>811.8</ele>
        <time>2022-08-29T09:34:40Z</time>
      </trkpt>
      <trkpt lat="42.4193800" lon="-3.1634280">
        <ele>811.8</ele>
        <time>2022-08-29T09:34:41Z</time>
      </trkpt>
      <trkpt lat="42.4193690" lon="-3.1634820">
        <ele>811.8</ele>
        <time>2022-08-29T09:34:42Z</time>
      </trkpt>
      <trkpt lat="42.4193600" lon="-3.1635330">
        <ele>812.0</ele>
        <time>2022-08-29T09:34:43Z</time>
      </trkpt>
      <trkpt lat="42.4193520" lon="-3.1635780">
        <ele>811.8</ele>
        <time>2022-08-29T09:34:44Z</time>
      </trkpt>
      <trkpt lat="42.4193450" lon="-3.1636190">
        <ele>812.0</ele>
        <time>2022-08-29T09:34:45Z</time>
      </trkpt>
      <trkpt lat="42.4193410" lon="-3.1636580">
        <ele>812.0</ele>
        <time>2022-08-29T09:34:46Z</time>
      </trkpt>
      <trkpt lat="42.4193340" lon="-3.1636960">
        <ele>812.0</ele>
        <time>2022-08-29T09:34:47Z</time>
      </trkpt>
      <trkpt lat="42.4193260" lon="-3.1637350">
        <ele>812.2</ele>
        <time>2022-08-29T09:34:48Z</time>
      </trkpt>
      <trkpt lat="42.4193150" lon="-3.1637740">
        <ele>812.2</ele>
        <time>2022-08-29T09:34:49Z</time>
      </trkpt>
      <trkpt lat="42.4193000" lon="-3.1638130">
        <ele>812.2</ele>
        <time>2022-08-29T09:34:50Z</time>
      </trkpt>
      <trkpt lat="42.4192850" lon="-3.1638530">
        <ele>812.2</ele>
        <time>2022-08-29T09:34:51Z</time>
      </trkpt>
      <trkpt lat="42.4192720" lon="-3.1638920">
        <ele>812.2</ele>
        <time>2022-08-29T09:34:52Z</time>
      </trkpt>
      <trkpt lat="42.4192640" lon="-3.1639330">
        <ele>812.4</ele>
        <time>2022-08-29T09:34:53Z</time>
      </trkpt>
      <trkpt lat="42.4192570" lon="-3.1639740">
        <ele>812.2</ele>
        <time>2022-08-29T09:34:54Z</time>
      </trkpt>
      <trkpt lat="42.4192480" lon="-3.1640150">
        <ele>812.2</ele>
        <time>2022-08-29T09:34:55Z</time>
      </trkpt>
      <trkpt lat="42.4192380" lon="-3.1640600">
        <ele>812.0</ele>
        <time>2022-08-29T09:34:56Z</time>
      </trkpt>
      <trkpt lat="42.4192260" lon="-3.1641070">
        <ele>812.0</ele>
        <time>2022-08-29T09:34:57Z</time>
      </trkpt>
      <trkpt lat="42.4192140" lon="-3.1641550">
        <ele>812.0</ele>
        <time>2022-08-29T09:34:58Z</time>
      </trkpt>
      <trkpt lat="42.4192000" lon="-3.1642050">
        <ele>812.0</ele>
        <time>2022-08-29T09:34:59Z</time>
      </trkpt>
      <trkpt lat="42.4191860" lon="-3.1642560">
        <ele>812.0</ele>
        <time>2022-08-29T09:35:00Z</time>
      </trkpt>
      <trkpt lat="42.4191710" lon="-3.1643090">
        <ele>812.0</ele>
        <time>2022-08-29T09:35:01Z</time>
      </trkpt>
      <trkpt lat="42.4191540" lon="-3.1643640">
        <ele>811.8</ele>
        <time>2022-08-29T09:35:02Z</time>
      </trkpt>
      <trkpt lat="42.4191380" lon="-3.1644200">
        <ele>811.8</ele>
        <time>2022-08-29T09:35:03Z</time>
      </trkpt>
      <trkpt lat="42.4191240" lon="-3.1644770">
        <ele>811.8</ele>
        <time>2022-08-29T09:35:04Z</time>
      </trkpt>
      <trkpt lat="42.4191110" lon="-3.1645350">
        <ele>811.6</ele>
        <time>2022-08-29T09:35:05Z</time>
      </trkpt>
      <trkpt lat="42.4190960" lon="-3.1645950">
        <ele>811.4</ele>
        <time>2022-08-29T09:35:06Z</time>
      </trkpt>
      <trkpt lat="42.4190800" lon="-3.1646570">
        <ele>811.4</ele>
        <time>2022-08-29T09:35:07Z</time>
      </trkpt>
      <trkpt lat="42.4190640" lon="-3.1647190">
        <ele>811.2</ele>
        <time>2022-08-29T09:35:08Z</time>
      </trkpt>
      <trkpt lat="42.4190480" lon="-3.1647820">
        <ele>811.2</ele>
        <time>2022-08-29T09:35:09Z</time>
      </trkpt>
      <trkpt lat="42.4190330" lon="-3.1648460">
        <ele>811.0</ele>
        <time>2022-08-29T09:35:10Z</time>
      </trkpt>
      <trkpt lat="42.4190180" lon="-3.1649090">
        <ele>810.8</ele>
        <time>2022-08-29T09:35:11Z</time>
      </trkpt>
      <trkpt lat="42.4190030" lon="-3.1649720">
        <ele>810.8</ele>
        <time>2022-08-29T09:35:12Z</time>
      </trkpt>
      <trkpt lat="42.4189880" lon="-3.1650340">
        <ele>810.8</ele>
        <time>2022-08-29T09:35:13Z</time>
      </trkpt>
      <trkpt lat="42.4189750" lon="-3.1650950">
        <ele>810.6</ele>
        <time>2022-08-29T09:35:14Z</time>
      </trkpt>
      <trkpt lat="42.4189620" lon="-3.1651570">
        <ele>810.6</ele>
        <time>2022-08-29T09:35:15Z</time>
      </trkpt>
      <trkpt lat="42.4189480" lon="-3.1652170">
        <ele>810.2</ele>
        <time>2022-08-29T09:35:16Z</time>
      </trkpt>
      <trkpt lat="42.4189340" lon="-3.1652770">
        <ele>810.4</ele>
        <time>2022-08-29T09:35:17Z</time>
      </trkpt>
      <trkpt lat="42.4189220" lon="-3.1653350">
        <ele>810.0</ele>
        <time>2022-08-29T09:35:18Z</time>
      </trkpt>
      <trkpt lat="42.4189100" lon="-3.1653930">
        <ele>810.2</ele>
        <time>2022-08-29T09:35:19Z</time>
      </trkpt>
      <trkpt lat="42.4188980" lon="-3.1654500">
        <ele>810.0</ele>
        <time>2022-08-29T09:35:20Z</time>
      </trkpt>
      <trkpt lat="42.4188830" lon="-3.1655070">
        <ele>809.8</ele>
        <time>2022-08-29T09:35:21Z</time>
      </trkpt>
      <trkpt lat="42.4188650" lon="-3.1655640">
        <ele>809.8</ele>
        <time>2022-08-29T09:35:22Z</time>
      </trkpt>
      <trkpt lat="42.4188460" lon="-3.1656190">
        <ele>809.8</ele>
        <time>2022-08-29T09:35:23Z</time>
      </trkpt>
      <trkpt lat="42.4188260" lon="-3.1656730">
        <ele>809.6</ele>
        <time>2022-08-29T09:35:24Z</time>
      </trkpt>
      <trkpt lat="42.4188060" lon="-3.1657250">
        <ele>809.4</ele>
        <time>2022-08-29T09:35:25Z</time>
      </trkpt>
      <trkpt lat="42.4187860" lon="-3.1657760">
        <ele>809.2</ele>
        <time>2022-08-29T09:35:26Z</time>
      </trkpt>
      <trkpt lat="42.4187630" lon="-3.1658300">
        <ele>809.2</ele>
        <time>2022-08-29T09:35:27Z</time>
      </trkpt>
      <trkpt lat="42.4187430" lon="-3.1658890">
        <ele>809.0</ele>
        <time>2022-08-29T09:35:28Z</time>
      </trkpt>
      <trkpt lat="42.4187270" lon="-3.1659510">
        <ele>809.0</ele>
        <time>2022-08-29T09:35:29Z</time>
      </trkpt>
      <trkpt lat="42.4187140" lon="-3.1660150">
        <ele>809.0</ele>
        <time>2022-08-29T09:35:30Z</time>
      </trkpt>
      <trkpt lat="42.4187020" lon="-3.1660800">
        <ele>808.8</ele>
        <time>2022-08-29T09:35:31Z</time>
      </trkpt>
      <trkpt lat="42.4186890" lon="-3.1661460">
        <ele>808.8</ele>
        <time>2022-08-29T09:35:32Z</time>
      </trkpt>
      <trkpt lat="42.4186750" lon="-3.1662140">
        <ele>808.6</ele>
        <time>2022-08-29T09:35:33Z</time>
      </trkpt>
      <trkpt lat="42.4186590" lon="-3.1662830">
        <ele>808.4</ele>
        <time>2022-08-29T09:35:34Z</time>
      </trkpt>
      <trkpt lat="42.4186410" lon="-3.1663540">
        <ele>808.0</ele>
        <time>2022-08-29T09:35:35Z</time>
      </trkpt>
      <trkpt lat="42.4186220" lon="-3.1664240">
        <ele>808.0</ele>
        <time>2022-08-29T09:35:36Z</time>
      </trkpt>
      <trkpt lat="42.4186020" lon="-3.1664950">
        <ele>808.0</ele>
        <time>2022-08-29T09:35:37Z</time>
      </trkpt>
      <trkpt lat="42.4185830" lon="-3.1665670">
        <ele>808.0</ele>
        <time>2022-08-29T09:35:38Z</time>
      </trkpt>
      <trkpt lat="42.4185640" lon="-3.1666390">
        <ele>807.6</ele>
        <time>2022-08-29T09:35:39Z</time>
      </trkpt>
      <trkpt lat="42.4185450" lon="-3.1667130">
        <ele>807.6</ele>
        <time>2022-08-29T09:35:40Z</time>
      </trkpt>
      <trkpt lat="42.4185270" lon="-3.1667870">
        <ele>807.4</ele>
        <time>2022-08-29T09:35:41Z</time>
      </trkpt>
      <trkpt lat="42.4185090" lon="-3.1668620">
        <ele>807.2</ele>
        <time>2022-08-29T09:35:42Z</time>
      </trkpt>
      <trkpt lat="42.4184910" lon="-3.1669380">
        <ele>807.4</ele>
        <time>2022-08-29T09:35:43Z</time>
      </trkpt>
      <trkpt lat="42.4184710" lon="-3.1670130">
        <ele>807.2</ele>
        <time>2022-08-29T09:35:44Z</time>
      </trkpt>
      <trkpt lat="42.4184520" lon="-3.1670890">
        <ele>807.2</ele>
        <time>2022-08-29T09:35:45Z</time>
      </trkpt>
      <trkpt lat="42.4184320" lon="-3.1671650">
        <ele>807.2</ele>
        <time>2022-08-29T09:35:46Z</time>
      </trkpt>
      <trkpt lat="42.4184120" lon="-3.1672420">
        <ele>807.2</ele>
        <time>2022-08-29T09:35:47Z</time>
      </trkpt>
      <trkpt lat="42.4183920" lon="-3.1673200">
        <ele>806.8</ele>
        <time>2022-08-29T09:35:48Z</time>
      </trkpt>
      <trkpt lat="42.4183720" lon="-3.1673990">
        <ele>806.6</ele>
        <time>2022-08-29T09:35:49Z</time>
      </trkpt>
      <trkpt lat="42.4183520" lon="-3.1674770">
        <ele>806.4</ele>
        <time>2022-08-29T09:35:50Z</time>
      </trkpt>
      <trkpt lat="42.4183340" lon="-3.1675560">
        <ele>806.6</ele>
        <time>2022-08-29T09:35:51Z</time>
      </trkpt>
      <trkpt lat="42.4183150" lon="-3.1676350">
        <ele>806.4</ele>
        <time>2022-08-29T09:35:52Z</time>
      </trkpt>
      <trkpt lat="42.4182950" lon="-3.1677140">
        <ele>806.0</ele>
        <time>2022-08-29T09:35:53Z</time>
      </trkpt>
      <trkpt lat="42.4182750" lon="-3.1677940">
        <ele>806.0</ele>
        <time>2022-08-29T09:35:54Z</time>
      </trkpt>
      <trkpt lat="42.4182560" lon="-3.1678740">
        <ele>805.8</ele>
        <time>2022-08-29T09:35:55Z</time>
      </trkpt>
      <trkpt lat="42.4182360" lon="-3.1679540">
        <ele>806.0</ele>
        <time>2022-08-29T09:35:56Z</time>
      </trkpt>
      <trkpt lat="42.4182160" lon="-3.1680340">
        <ele>805.8</ele>
        <time>2022-08-29T09:35:57Z</time>
      </trkpt>
      <trkpt lat="42.4181950" lon="-3.1681150">
        <ele>805.8</ele>
        <time>2022-08-29T09:35:58Z</time>
      </trkpt>
      <trkpt lat="42.4181730" lon="-3.1681960">
        <ele>805.6</ele>
        <time>2022-08-29T09:35:59Z</time>
      </trkpt>
      <trkpt lat="42.4181520" lon="-3.1682780">
        <ele>805.8</ele>
        <time>2022-08-29T09:36:00Z</time>
      </trkpt>
      <trkpt lat="42.4181320" lon="-3.1683610">
        <ele>805.6</ele>
        <time>2022-08-29T09:36:01Z</time>
      </trkpt>
      <trkpt lat="42.4181120" lon="-3.1684430">
        <ele>805.4</ele>
        <time>2022-08-29T09:36:02Z</time>
      </trkpt>
      <trkpt lat="42.4180930" lon="-3.1685230">
        <ele>805.4</ele>
        <time>2022-08-29T09:36:03Z</time>
      </trkpt>
      <trkpt lat="42.4180730" lon="-3.1686020">
        <ele>805.2</ele>
        <time>2022-08-29T09:36:04Z</time>
      </trkpt>
      <trkpt lat="42.4180510" lon="-3.1686800">
        <ele>805.0</ele>
        <time>2022-08-29T09:36:05Z</time>
      </trkpt>
      <trkpt lat="42.4180310" lon="-3.1687560">
        <ele>805.0</ele>
        <time>2022-08-29T09:36:06Z</time>
      </trkpt>
      <trkpt lat="42.4180120" lon="-3.1688330">
        <ele>805.0</ele>
        <time>2022-08-29T09:36:07Z</time>
      </trkpt>
      <trkpt lat="42.4179940" lon="-3.1689110">
        <ele>804.8</ele>
        <time>2022-08-29T09:36:08Z</time>
      </trkpt>
      <trkpt lat="42.4179760" lon="-3.1689880">
        <ele>804.8</ele>
        <time>2022-08-29T09:36:09Z</time>
      </trkpt>
      <trkpt lat="42.4179560" lon="-3.1690650">
        <ele>805.0</ele>
        <time>2022-08-29T09:36:10Z</time>
      </trkpt>
      <trkpt lat="42.4179360" lon="-3.1691420">
        <ele>805.0</ele>
        <time>2022-08-29T09:36:11Z</time>
      </trkpt>
      <trkpt lat="42.4179150" lon="-3.1692190">
        <ele>804.8</ele>
        <time>2022-08-29T09:36:12Z</time>
      </trkpt>
      <trkpt lat="42.4178940" lon="-3.1692940">
        <ele>804.8</ele>
        <time>2022-08-29T09:36:13Z</time>
      </trkpt>
      <trkpt lat="42.4178750" lon="-3.1693720">
        <ele>804.8</ele>
        <time>2022-08-29T09:36:14Z</time>
      </trkpt>
      <trkpt lat="42.4178550" lon="-3.1694510">
        <ele>804.6</ele>
        <time>2022-08-29T09:36:15Z</time>
      </trkpt>
      <trkpt lat="42.4178350" lon="-3.1695310">
        <ele>804.4</ele>
        <time>2022-08-29T09:36:16Z</time>
      </trkpt>
      <trkpt lat="42.4178140" lon="-3.1696110">
        <ele>804.4</ele>
        <time>2022-08-29T09:36:17Z</time>
      </trkpt>
      <trkpt lat="42.4177970" lon="-3.1696910">
        <ele>804.0</ele>
        <time>2022-08-29T09:36:18Z</time>
      </trkpt>
      <trkpt lat="42.4177790" lon="-3.1697710">
        <ele>803.6</ele>
        <time>2022-08-29T09:36:19Z</time>
      </trkpt>
      <trkpt lat="42.4177590" lon="-3.1698500">
        <ele>803.2</ele>
        <time>2022-08-29T09:36:20Z</time>
      </trkpt>
      <trkpt lat="42.4177360" lon="-3.1699280">
        <ele>803.2</ele>
        <time>2022-08-29T09:36:21Z</time>
      </trkpt>
      <trkpt lat="42.4177130" lon="-3.1700050">
        <ele>803.2</ele>
        <time>2022-08-29T09:36:22Z</time>
      </trkpt>
      <trkpt lat="42.4176890" lon="-3.1700810">
        <ele>803.0</ele>
        <time>2022-08-29T09:36:23Z</time>
      </trkpt>
      <trkpt lat="42.4176660" lon="-3.1701560">
        <ele>802.8</ele>
        <time>2022-08-29T09:36:24Z</time>
      </trkpt>
      <trkpt lat="42.4176460" lon="-3.1702310">
        <ele>802.8</ele>
        <time>2022-08-29T09:36:25Z</time>
      </trkpt>
      <trkpt lat="42.4176270" lon="-3.1703060">
        <ele>802.8</ele>
        <time>2022-08-29T09:36:26Z</time>
      </trkpt>
      <trkpt lat="42.4176110" lon="-3.1703810">
        <ele>802.6</ele>
        <time>2022-08-29T09:36:27Z</time>
      </trkpt>
      <trkpt lat="42.4175950" lon="-3.1704550">
        <ele>802.6</ele>
        <time>2022-08-29T09:36:28Z</time>
      </trkpt>
      <trkpt lat="42.4175790" lon="-3.1705300">
        <ele>802.4</ele>
        <time>2022-08-29T09:36:29Z</time>
      </trkpt>
      <trkpt lat="42.4175630" lon="-3.1706040">
        <ele>802.2</ele>
        <time>2022-08-29T09:36:30Z</time>
      </trkpt>
      <trkpt lat="42.4175460" lon="-3.1706770">
        <ele>802.0</ele>
        <time>2022-08-29T09:36:31Z</time>
      </trkpt>
      <trkpt lat="42.4175290" lon="-3.1707490">
        <ele>802.0</ele>
        <time>2022-08-29T09:36:32Z</time>
      </trkpt>
      <trkpt lat="42.4175130" lon="-3.1708210">
        <ele>801.6</ele>
        <time>2022-08-29T09:36:33Z</time>
      </trkpt>
      <trkpt lat="42.4174970" lon="-3.1708930">
        <ele>801.4</ele>
        <time>2022-08-29T09:36:34Z</time>
      </trkpt>
      <trkpt lat="42.4174760" lon="-3.1709620">
        <ele>801.4</ele>
        <time>2022-08-29T09:36:35Z</time>
      </trkpt>
      <trkpt lat="42.4174550" lon="-3.1710310">
        <ele>801.2</ele>
        <time>2022-08-29T09:36:36Z</time>
      </trkpt>
      <trkpt lat="42.4174350" lon="-3.1711000">
        <ele>801.4</ele>
        <time>2022-08-29T09:36:37Z</time>
      </trkpt>
      <trkpt lat="42.4174180" lon="-3.1711700">
        <ele>801.2</ele>
        <time>2022-08-29T09:36:38Z</time>
      </trkpt>
      <trkpt lat="42.4174020" lon="-3.1712410">
        <ele>801.2</ele>
        <time>2022-08-29T09:36:39Z</time>
      </trkpt>
      <trkpt lat="42.4173850" lon="-3.1713130">
        <ele>801.2</ele>
        <time>2022-08-29T09:36:40Z</time>
      </trkpt>
      <trkpt lat="42.4173670" lon="-3.1713840">
        <ele>801.2</ele>
        <time>2022-08-29T09:36:41Z</time>
      </trkpt>
      <trkpt lat="42.4173470" lon="-3.1714550">
        <ele>801.2</ele>
        <time>2022-08-29T09:36:42Z</time>
      </trkpt>
      <trkpt lat="42.4173270" lon="-3.1715290">
        <ele>801.0</ele>
        <time>2022-08-29T09:36:43Z</time>
      </trkpt>
      <trkpt lat="42.4173070" lon="-3.1716040">
        <ele>801.0</ele>
        <time>2022-08-29T09:36:44Z</time>
      </trkpt>
      <trkpt lat="42.4172870" lon="-3.1716820">
        <ele>801.0</ele>
        <time>2022-08-29T09:36:45Z</time>
      </trkpt>
      <trkpt lat="42.4172670" lon="-3.1717590">
        <ele>801.0</ele>
        <time>2022-08-29T09:36:46Z</time>
      </trkpt>
      <trkpt lat="42.4172480" lon="-3.1718350">
        <ele>801.0</ele>
        <time>2022-08-29T09:36:47Z</time>
      </trkpt>
      <trkpt lat="42.4172290" lon="-3.1719100">
        <ele>801.2</ele>
        <time>2022-08-29T09:36:48Z</time>
      </trkpt>
      <trkpt lat="42.4172090" lon="-3.1719840">
        <ele>801.0</ele>
        <time>2022-08-29T09:36:49Z</time>
      </trkpt>
      <trkpt lat="42.4171890" lon="-3.1720540">
        <ele>801.0</ele>
        <time>2022-08-29T09:36:50Z</time>
      </trkpt>
      <trkpt lat="42.4171690" lon="-3.1721240">
        <ele>801.0</ele>
        <time>2022-08-29T09:36:51Z</time>
      </trkpt>
      <trkpt lat="42.4171500" lon="-3.1721940">
        <ele>800.8</ele>
        <time>2022-08-29T09:36:52Z</time>
      </trkpt>
      <trkpt lat="42.4171310" lon="-3.1722610">
        <ele>800.8</ele>
        <time>2022-08-29T09:36:53Z</time>
      </trkpt>
      <trkpt lat="42.4171140" lon="-3.1723260">
        <ele>800.8</ele>
        <time>2022-08-29T09:36:54Z</time>
      </trkpt>
      <trkpt lat="42.4170970" lon="-3.1723900">
        <ele>800.8</ele>
        <time>2022-08-29T09:36:55Z</time>
      </trkpt>
      <trkpt lat="42.4170790" lon="-3.1724500">
        <ele>800.6</ele>
        <time>2022-08-29T09:36:56Z</time>
      </trkpt>
      <trkpt lat="42.4170620" lon="-3.1725090">
        <ele>800.6</ele>
        <time>2022-08-29T09:36:57Z</time>
      </trkpt>
      <trkpt lat="42.4170460" lon="-3.1725660">
        <ele>800.6</ele>
        <time>2022-08-29T09:36:58Z</time>
      </trkpt>
      <trkpt lat="42.4170330" lon="-3.1726210">
        <ele>800.6</ele>
        <time>2022-08-29T09:36:59Z</time>
      </trkpt>
      <trkpt lat="42.4170190" lon="-3.1726730">
        <ele>800.6</ele>
        <time>2022-08-29T09:37:00Z</time>
      </trkpt>
      <trkpt lat="42.4170070" lon="-3.1727250">
        <ele>800.6</ele>
        <time>2022-08-29T09:37:01Z</time>
      </trkpt>
      <trkpt lat="42.4169940" lon="-3.1727750">
        <ele>800.6</ele>
        <time>2022-08-29T09:37:02Z</time>
      </trkpt>
      <trkpt lat="42.4169810" lon="-3.1728230">
        <ele>800.6</ele>
        <time>2022-08-29T09:37:03Z</time>
      </trkpt>
      <trkpt lat="42.4169670" lon="-3.1728730">
        <ele>800.6</ele>
        <time>2022-08-29T09:37:04Z</time>
      </trkpt>
      <trkpt lat="42.4169520" lon="-3.1729250">
        <ele>800.4</ele>
        <time>2022-08-29T09:37:05Z</time>
      </trkpt>
      <trkpt lat="42.4169290" lon="-3.1729830">
        <ele>800.6</ele>
        <time>2022-08-29T09:37:06Z</time>
      </trkpt>
      <trkpt lat="42.4169030" lon="-3.1730520">
        <ele>800.4</ele>
        <time>2022-08-29T09:37:07Z</time>
      </trkpt>
      <trkpt lat="42.4168780" lon="-3.1731370">
        <ele>800.4</ele>
        <time>2022-08-29T09:37:08Z</time>
      </trkpt>
      <trkpt lat="42.4168520" lon="-3.1732370">
        <ele>800.2</ele>
        <time>2022-08-29T09:37:09Z</time>
      </trkpt>
      <trkpt lat="42.4168220" lon="-3.1733450">
        <ele>800.2</ele>
        <time>2022-08-29T09:37:10Z</time>
      </trkpt>
      <trkpt lat="42.4167920" lon="-3.1734570">
        <ele>800.2</ele>
        <time>2022-08-29T09:37:11Z</time>
      </trkpt>
      <trkpt lat="42.4167620" lon="-3.1735700">
        <ele>800.2</ele>
        <time>2022-08-29T09:37:12Z</time>
      </trkpt>
      <trkpt lat="42.4167340" lon="-3.1736820">
        <ele>800.2</ele>
        <time>2022-08-29T09:37:13Z</time>
      </trkpt>
      <trkpt lat="42.4167080" lon="-3.1737930">
        <ele>799.8</ele>
        <time>2022-08-29T09:37:14Z</time>
      </trkpt>
      <trkpt lat="42.4166810" lon="-3.1739000">
        <ele>799.6</ele>
        <time>2022-08-29T09:37:15Z</time>
      </trkpt>
      <trkpt lat="42.4166550" lon="-3.1740030">
        <ele>798.8</ele>
        <time>2022-08-29T09:37:16Z</time>
      </trkpt>
      <trkpt lat="42.4166300" lon="-3.1741010">
        <ele>797.0</ele>
        <time>2022-08-29T09:37:17Z</time>
      </trkpt>
      <trkpt lat="42.4166050" lon="-3.1741950">
        <ele>795.4</ele>
        <time>2022-08-29T09:37:18Z</time>
      </trkpt>
      <trkpt lat="42.4165790" lon="-3.1742850">
        <ele>794.2</ele>
        <time>2022-08-29T09:37:19Z</time>
      </trkpt>
      <trkpt lat="42.4165550" lon="-3.1743730">
        <ele>793.6</ele>
        <time>2022-08-29T09:37:20Z</time>
      </trkpt>
      <trkpt lat="42.4165320" lon="-3.1744540">
        <ele>793.2</ele>
        <time>2022-08-29T09:37:21Z</time>
      </trkpt>
      <trkpt lat="42.4165120" lon="-3.1745320">
        <ele>793.2</ele>
        <time>2022-08-29T09:37:22Z</time>
      </trkpt>
      <trkpt lat="42.4164930" lon="-3.1746100">
        <ele>793.0</ele>
        <time>2022-08-29T09:37:23Z</time>
      </trkpt>
      <trkpt lat="42.4164800" lon="-3.1746900">
        <ele>793.0</ele>
        <time>2022-08-29T09:37:24Z</time>
      </trkpt>
      <trkpt lat="42.4164710" lon="-3.1747710">
        <ele>793.0</ele>
        <time>2022-08-29T09:37:25Z</time>
      </trkpt>
      <trkpt lat="42.4164580" lon="-3.1748510">
        <ele>792.8</ele>
        <time>2022-08-29T09:37:26Z</time>
      </trkpt>
      <trkpt lat="42.4164410" lon="-3.1749320">
        <ele>792.6</ele>
        <time>2022-08-29T09:37:27Z</time>
      </trkpt>
      <trkpt lat="42.4164220" lon="-3.1750130">
        <ele>792.6</ele>
        <time>2022-08-29T09:37:28Z</time>
      </trkpt>
      <trkpt lat="42.4164020" lon="-3.1750950">
        <ele>792.4</ele>
        <time>2022-08-29T09:37:29Z</time>
      </trkpt>
      <trkpt lat="42.4163810" lon="-3.1751780">
        <ele>792.2</ele>
        <time>2022-08-29T09:37:30Z</time>
      </trkpt>
      <trkpt lat="42.4163630" lon="-3.1752630">
        <ele>792.0</ele>
        <time>2022-08-29T09:37:31Z</time>
      </trkpt>
      <trkpt lat="42.4163450" lon="-3.1753460">
        <ele>792.0</ele>
        <time>2022-08-29T09:37:32Z</time>
      </trkpt>
      <trkpt lat="42.4163240" lon="-3.1754290">
        <ele>792.2</ele>
        <time>2022-08-29T09:37:33Z</time>
      </trkpt>
      <trkpt lat="42.4163020" lon="-3.1755100">
        <ele>792.0</ele>
        <time>2022-08-29T09:37:34Z</time>
      </trkpt>
      <trkpt lat="42.4162810" lon="-3.1755910">
        <ele>792.0</ele>
        <time>2022-08-29T09:37:35Z</time>
      </trkpt>
      <trkpt lat="42.4162620" lon="-3.1756700">
        <ele>791.8</ele>
        <time>2022-08-29T09:37:36Z</time>
      </trkpt>
      <trkpt lat="42.4162420" lon="-3.1757470">
        <ele>791.2</ele>
        <time>2022-08-29T09:37:37Z</time>
      </trkpt>
      <trkpt lat="42.4162240" lon="-3.1758230">
        <ele>790.6</ele>
        <time>2022-08-29T09:37:38Z</time>
      </trkpt>
      <trkpt lat="42.4162090" lon="-3.1758990">
        <ele>790.4</ele>
        <time>2022-08-29T09:37:39Z</time>
      </trkpt>
      <trkpt lat="42.4161930" lon="-3.1759740">
        <ele>790.2</ele>
        <time>2022-08-29T09:37:40Z</time>
      </trkpt>
      <trkpt lat="42.4161760" lon="-3.1760450">
        <ele>790.0</ele>
        <time>2022-08-29T09:37:41Z</time>
      </trkpt>
      <trkpt lat="42.4161580" lon="-3.1761170">
        <ele>789.8</ele>
        <time>2022-08-29T09:37:42Z</time>
      </trkpt>
      <trkpt lat="42.4161410" lon="-3.1761890">
        <ele>789.6</ele>
        <time>2022-08-29T09:37:43Z</time>
      </trkpt>
      <trkpt lat="42.4161240" lon="-3.1762630">
        <ele>789.6</ele>
        <time>2022-08-29T09:37:44Z</time>
      </trkpt>
      <trkpt lat="42.4161030" lon="-3.1763380">
        <ele>789.6</ele>
        <time>2022-08-29T09:37:45Z</time>
      </trkpt>
      <trkpt lat="42.4160790" lon="-3.1764130">
        <ele>789.4</ele>
        <time>2022-08-29T09:37:46Z</time>
      </trkpt>
      <trkpt lat="42.4160580" lon="-3.1764880">
        <ele>789.2</ele>
        <time>2022-08-29T09:37:47Z</time>
      </trkpt>
      <trkpt lat="42.4160380" lon="-3.1765640">
        <ele>789.2</ele>
        <time>2022-08-29T09:37:48Z</time>
      </trkpt>
      <trkpt lat="42.4160160" lon="-3.1766390">
        <ele>789.0</ele>
        <time>2022-08-29T09:37:49Z</time>
      </trkpt>
      <trkpt lat="42.4159970" lon="-3.1767130">
        <ele>789.0</ele>
        <time>2022-08-29T09:37:50Z</time>
      </trkpt>
      <trkpt lat="42.4159790" lon="-3.1767890">
        <ele>788.8</ele>
        <time>2022-08-29T09:37:51Z</time>
      </trkpt>
      <trkpt lat="42.4159630" lon="-3.1768660">
        <ele>788.8</ele>
        <time>2022-08-29T09:37:52Z</time>
      </trkpt>
      <trkpt lat="42.4159470" lon="-3.1769430">
        <ele>788.8</ele>
        <time>2022-08-29T09:37:53Z</time>
      </trkpt>
      <trkpt lat="42.4159300" lon="-3.1770210">
        <ele>788.2</ele>
        <time>2022-08-29T09:37:54Z</time>
      </trkpt>
      <trkpt lat="42.4159140" lon="-3.1770990">
        <ele>788.0</ele>
        <time>2022-08-29T09:37:55Z</time>
      </trkpt>
      <trkpt lat="42.4159000" lon="-3.1771780">
        <ele>787.6</ele>
        <time>2022-08-29T09:37:56Z</time>
      </trkpt>
      <trkpt lat="42.4158850" lon="-3.1772580">
        <ele>787.6</ele>
        <time>2022-08-29T09:37:57Z</time>
      </trkpt>
      <trkpt lat="42.4158730" lon="-3.1773390">
        <ele>787.6</ele>
        <time>2022-08-29T09:37:58Z</time>
      </trkpt>
      <trkpt lat="42.4158630" lon="-3.1774200">
        <ele>787.4</ele>
        <time>2022-08-29T09:37:59Z</time>
      </trkpt>
      <trkpt lat="42.4158540" lon="-3.1775030">
        <ele>787.0</ele>
        <time>2022-08-29T09:38:00Z</time>
      </trkpt>
      <trkpt lat="42.4158440" lon="-3.1775870">
        <ele>787.0</ele>
        <time>2022-08-29T09:38:01Z</time>
      </trkpt>
      <trkpt lat="42.4158340" lon="-3.1776710">
        <ele>786.6</ele>
        <time>2022-08-29T09:38:02Z</time>
      </trkpt>
      <trkpt lat="42.4158260" lon="-3.1777570">
        <ele>786.6</ele>
        <time>2022-08-29T09:38:03Z</time>
      </trkpt>
      <trkpt lat="42.4158190" lon="-3.1778410">
        <ele>786.2</ele>
        <time>2022-08-29T09:38:04Z</time>
      </trkpt>
      <trkpt lat="42.4158120" lon="-3.1779250">
        <ele>786.0</ele>
        <time>2022-08-29T09:38:05Z</time>
      </trkpt>
      <trkpt lat="42.4158060" lon="-3.1780070">
        <ele>785.6</ele>
        <time>2022-08-29T09:38:06Z</time>
      </trkpt>
      <trkpt lat="42.4158010" lon="-3.1780900">
        <ele>785.8</ele>
        <time>2022-08-29T09:38:07Z</time>
      </trkpt>
      <trkpt lat="42.4157980" lon="-3.1781720">
        <ele>785.4</ele>
        <time>2022-08-29T09:38:08Z</time>
      </trkpt>
      <trkpt lat="42.4157950" lon="-3.1782530">
        <ele>785.4</ele>
        <time>2022-08-29T09:38:09Z</time>
      </trkpt>
      <trkpt lat="42.4157930" lon="-3.1783340">
        <ele>785.0</ele>
        <time>2022-08-29T09:38:10Z</time>
      </trkpt>
      <trkpt lat="42.4157920" lon="-3.1784150">
        <ele>785.0</ele>
        <time>2022-08-29T09:38:11Z</time>
      </trkpt>
      <trkpt lat="42.4157930" lon="-3.1784970">
        <ele>784.6</ele>
        <time>2022-08-29T09:38:12Z</time>
      </trkpt>
      <trkpt lat="42.4157950" lon="-3.1785780">
        <ele>784.6</ele>
        <time>2022-08-29T09:38:13Z</time>
      </trkpt>
      <trkpt lat="42.4157990" lon="-3.1786600">
        <ele>784.6</ele>
        <time>2022-08-29T09:38:14Z</time>
      </trkpt>
      <trkpt lat="42.4158020" lon="-3.1787420">
        <ele>784.4</ele>
        <time>2022-08-29T09:38:15Z</time>
      </trkpt>
      <trkpt lat="42.4158030" lon="-3.1788220">
        <ele>784.4</ele>
        <time>2022-08-29T09:38:16Z</time>
      </trkpt>
      <trkpt lat="42.4158070" lon="-3.1789020">
        <ele>784.0</ele>
        <time>2022-08-29T09:38:17Z</time>
      </trkpt>
      <trkpt lat="42.4158120" lon="-3.1789810">
        <ele>784.0</ele>
        <time>2022-08-29T09:38:18Z</time>
      </trkpt>
      <trkpt lat="42.4158170" lon="-3.1790580">
        <ele>784.0</ele>
        <time>2022-08-29T09:38:19Z</time>
      </trkpt>
      <trkpt lat="42.4158250" lon="-3.1791340">
        <ele>783.8</ele>
        <time>2022-08-29T09:38:20Z</time>
      </trkpt>
      <trkpt lat="42.4158350" lon="-3.1792100">
        <ele>783.8</ele>
        <time>2022-08-29T09:38:21Z</time>
      </trkpt>
      <trkpt lat="42.4158440" lon="-3.1792820">
        <ele>783.8</ele>
        <time>2022-08-29T09:38:22Z</time>
      </trkpt>
      <trkpt lat="42.4158550" lon="-3.1793520">
        <ele>783.4</ele>
        <time>2022-08-29T09:38:23Z</time>
      </trkpt>
      <trkpt lat="42.4158640" lon="-3.1794180">
        <ele>783.2</ele>
        <time>2022-08-29T09:38:24Z</time>
      </trkpt>
      <trkpt lat="42.4158720" lon="-3.1794820">
        <ele>783.0</ele>
        <time>2022-08-29T09:38:25Z</time>
      </trkpt>
      <trkpt lat="42.4158820" lon="-3.1795430">
        <ele>782.8</ele>
        <time>2022-08-29T09:38:26Z</time>
      </trkpt>
      <trkpt lat="42.4158950" lon="-3.1796000">
        <ele>782.6</ele>
        <time>2022-08-29T09:38:27Z</time>
      </trkpt>
      <trkpt lat="42.4159110" lon="-3.1796540">
        <ele>782.2</ele>
        <time>2022-08-29T09:38:28Z</time>
      </trkpt>
      <trkpt lat="42.4159310" lon="-3.1797000">
        <ele>782.2</ele>
        <time>2022-08-29T09:38:29Z</time>
      </trkpt>
      <trkpt lat="42.4159580" lon="-3.1797330">
        <ele>782.2</ele>
        <time>2022-08-29T09:38:30Z</time>
      </trkpt>
      <trkpt lat="42.4159850" lon="-3.1797570">
        <ele>782.0</ele>
        <time>2022-08-29T09:38:31Z</time>
      </trkpt>
      <trkpt lat="42.4160120" lon="-3.1797760">
        <ele>782.2</ele>
        <time>2022-08-29T09:38:32Z</time>
      </trkpt>
      <trkpt lat="42.4160400" lon="-3.1797970">
        <ele>782.2</ele>
        <time>2022-08-29T09:38:33Z</time>
      </trkpt>
      <trkpt lat="42.4160780" lon="-3.1798250">
        <ele>782.2</ele>
        <time>2022-08-29T09:38:34Z</time>
      </trkpt>
      <trkpt lat="42.4161080" lon="-3.1798530">
        <ele>782.2</ele>
        <time>2022-08-29T09:38:35Z</time>
      </trkpt>
      <trkpt lat="42.4161430" lon="-3.1798730">
        <ele>782.0</ele>
        <time>2022-08-29T09:38:36Z</time>
      </trkpt>
      <trkpt lat="42.4161890" lon="-3.1798900">
        <ele>782.2</ele>
        <time>2022-08-29T09:38:37Z</time>
      </trkpt>
      <trkpt lat="42.4162320" lon="-3.1799010">
        <ele>782.0</ele>
        <time>2022-08-29T09:38:38Z</time>
      </trkpt>
      <trkpt lat="42.4162740" lon="-3.1799140">
        <ele>782.0</ele>
        <time>2022-08-29T09:38:39Z</time>
      </trkpt>
      <trkpt lat="42.4163150" lon="-3.1799350">
        <ele>782.0</ele>
        <time>2022-08-29T09:38:40Z</time>
      </trkpt>
      <trkpt lat="42.4163590" lon="-3.1799650">
        <ele>781.8</ele>
        <time>2022-08-29T09:38:41Z</time>
      </trkpt>
      <trkpt lat="42.4163990" lon="-3.1799990">
        <ele>782.0</ele>
        <time>2022-08-29T09:38:42Z</time>
      </trkpt>
      <trkpt lat="42.4164380" lon="-3.1800410">
        <ele>782.0</ele>
        <time>2022-08-29T09:38:43Z</time>
      </trkpt>
      <trkpt lat="42.4164740" lon="-3.1800860">
        <ele>781.8</ele>
        <time>2022-08-29T09:38:44Z</time>
      </trkpt>
      <trkpt lat="42.4165070" lon="-3.1801290">
        <ele>781.8</ele>
        <time>2022-08-29T09:38:45Z</time>
      </trkpt>
      <trkpt lat="42.4165430" lon="-3.1801690">
        <ele>781.8</ele>
        <time>2022-08-29T09:38:46Z</time>
      </trkpt>
      <trkpt lat="42.4165860" lon="-3.1802100">
        <ele>781.8</ele>
        <time>2022-08-29T09:38:47Z</time>
      </trkpt>
      <trkpt lat="42.4166260" lon="-3.1802550">
        <ele>781.8</ele>
        <time>2022-08-29T09:38:48Z</time>
      </trkpt>
      <trkpt lat="42.4166630" lon="-3.1803050">
        <ele>781.6</ele>
        <time>2022-08-29T09:38:49Z</time>
      </trkpt>
      <trkpt lat="42.4166950" lon="-3.1803540">
        <ele>781.6</ele>
        <time>2022-08-29T09:38:50Z</time>
      </trkpt>
      <trkpt lat="42.4167270" lon="-3.1804030">
        <ele>781.2</ele>
        <time>2022-08-29T09:38:51Z</time>
      </trkpt>
      <trkpt lat="42.4167600" lon="-3.1804530">
        <ele>781.2</ele>
        <time>2022-08-29T09:38:52Z</time>
      </trkpt>
      <trkpt lat="42.4167960" lon="-3.1805030">
        <ele>780.8</ele>
        <time>2022-08-29T09:38:53Z</time>
      </trkpt>
      <trkpt lat="42.4168370" lon="-3.1805450">
        <ele>780.8</ele>
        <time>2022-08-29T09:38:54Z</time>
      </trkpt>
      <trkpt lat="42.4168830" lon="-3.1805860">
        <ele>780.8</ele>
        <time>2022-08-29T09:38:55Z</time>
      </trkpt>
      <trkpt lat="42.4169260" lon="-3.1806270">
        <ele>780.6</ele>
        <time>2022-08-29T09:38:56Z</time>
      </trkpt>
      <trkpt lat="42.4169700" lon="-3.1806670">
        <ele>780.4</ele>
        <time>2022-08-29T09:38:57Z</time>
      </trkpt>
      <trkpt lat="42.4170200" lon="-3.1807050">
        <ele>780.4</ele>
        <time>2022-08-29T09:38:58Z</time>
      </trkpt>
      <trkpt lat="42.4170690" lon="-3.1807430">
        <ele>780.4</ele>
        <time>2022-08-29T09:38:59Z</time>
      </trkpt>
      <trkpt lat="42.4171120" lon="-3.1807830">
        <ele>780.4</ele>
        <time>2022-08-29T09:39:00Z</time>
      </trkpt>
      <trkpt lat="42.4171570" lon="-3.1808230">
        <ele>780.2</ele>
        <time>2022-08-29T09:39:01Z</time>
      </trkpt>
      <trkpt lat="42.4171950" lon="-3.1808670">
        <ele>780.2</ele>
        <time>2022-08-29T09:39:02Z</time>
      </trkpt>
      <trkpt lat="42.4172290" lon="-3.1809160">
        <ele>780.2</ele>
        <time>2022-08-29T09:39:03Z</time>
      </trkpt>
      <trkpt lat="42.4172580" lon="-3.1809650">
        <ele>780.0</ele>
        <time>2022-08-29T09:39:04Z</time>
      </trkpt>
      <trkpt lat="42.4172930" lon="-3.1810100">
        <ele>780.2</ele>
        <time>2022-08-29T09:39:05Z</time>
      </trkpt>
      <trkpt lat="42.4173270" lon="-3.1810570">
        <ele>780.2</ele>
        <time>2022-08-29T09:39:06Z</time>
      </trkpt>
      <trkpt lat="42.4173570" lon="-3.1811080">
        <ele>780.0</ele>
        <time>2022-08-29T09:39:07Z</time>
      </trkpt>
      <trkpt lat="42.4173860" lon="-3.1811590">
        <ele>779.8</ele>
        <time>2022-08-29T09:39:08Z</time>
      </trkpt>
      <trkpt lat="42.4174200" lon="-3.1812090">
        <ele>780.0</ele>
        <time>2022-08-29T09:39:09Z</time>
      </trkpt>
      <trkpt lat="42.4174540" lon="-3.1812600">
        <ele>779.8</ele>
        <time>2022-08-29T09:39:10Z</time>
      </trkpt>
      <trkpt lat="42.4174890" lon="-3.1813120">
        <ele>779.8</ele>
        <time>2022-08-29T09:39:11Z</time>
      </trkpt>
      <trkpt lat="42.4175250" lon="-3.1813650">
        <ele>779.8</ele>
        <time>2022-08-29T09:39:12Z</time>
      </trkpt>
      <trkpt lat="42.4175530" lon="-3.1814230">
        <ele>779.6</ele>
        <time>2022-08-29T09:39:13Z</time>
      </trkpt>
      <trkpt lat="42.4175840" lon="-3.1814810">
        <ele>779.8</ele>
        <time>2022-08-29T09:39:14Z</time>
      </trkpt>
      <trkpt lat="42.4176140" lon="-3.1815420">
        <ele>779.6</ele>
        <time>2022-08-29T09:39:15Z</time>
      </trkpt>
      <trkpt lat="42.4176440" lon="-3.1816060">
        <ele>779.6</ele>
        <time>2022-08-29T09:39:16Z</time>
      </trkpt>
      <trkpt lat="42.4176730" lon="-3.1816700">
        <ele>779.4</ele>
        <time>2022-08-29T09:39:17Z</time>
      </trkpt>
      <trkpt lat="42.4176990" lon="-3.1817380">
        <ele>779.4</ele>
        <time>2022-08-29T09:39:18Z</time>
      </trkpt>
      <trkpt lat="42.4177260" lon="-3.1818070">
        <ele>779.0</ele>
        <time>2022-08-29T09:39:19Z</time>
      </trkpt>
      <trkpt lat="42.4177490" lon="-3.1818810">
        <ele>778.8</ele>
        <time>2022-08-29T09:39:20Z</time>
      </trkpt>
      <trkpt lat="42.4177720" lon="-3.1819580">
        <ele>778.6</ele>
        <time>2022-08-29T09:39:21Z</time>
      </trkpt>
      <trkpt lat="42.4177960" lon="-3.1820380">
        <ele>778.6</ele>
        <time>2022-08-29T09:39:22Z</time>
      </trkpt>
      <trkpt lat="42.4178240" lon="-3.1821190">
        <ele>778.6</ele>
        <time>2022-08-29T09:39:23Z</time>
      </trkpt>
      <trkpt lat="42.4178470" lon="-3.1822050">
        <ele>778.4</ele>
        <time>2022-08-29T09:39:24Z</time>
      </trkpt>
      <trkpt lat="42.4178710" lon="-3.1822910">
        <ele>778.0</ele>
        <time>2022-08-29T09:39:25Z</time>
      </trkpt>
      <trkpt lat="42.4178940" lon="-3.1823790">
        <ele>777.6</ele>
        <time>2022-08-29T09:39:26Z</time>
      </trkpt>
      <trkpt lat="42.4179170" lon="-3.1824680">
        <ele>777.6</ele>
        <time>2022-08-29T09:39:27Z</time>
      </trkpt>
      <trkpt lat="42.4179360" lon="-3.1825580">
        <ele>777.0</ele>
        <time>2022-08-29T09:39:28Z</time>
      </trkpt>
      <trkpt lat="42.4179520" lon="-3.1826510">
        <ele>776.6</ele>
        <time>2022-08-29T09:39:29Z</time>
      </trkpt>
      <trkpt lat="42.4179690" lon="-3.1827460">
        <ele>776.2</ele>
        <time>2022-08-29T09:39:30Z</time>
      </trkpt>
      <trkpt lat="42.4179880" lon="-3.1828420">
        <ele>776.0</ele>
        <time>2022-08-29T09:39:31Z</time>
      </trkpt>
      <trkpt lat="42.4180040" lon="-3.1829400">
        <ele>775.6</ele>
        <time>2022-08-29T09:39:32Z</time>
      </trkpt>
      <trkpt lat="42.4180190" lon="-3.1830400">
        <ele>775.2</ele>
        <time>2022-08-29T09:39:33Z</time>
      </trkpt>
      <trkpt lat="42.4180340" lon="-3.1831410">
        <ele>774.8</ele>
        <time>2022-08-29T09:39:34Z</time>
      </trkpt>
      <trkpt lat="42.4180460" lon="-3.1832420">
        <ele>774.2</ele>
        <time>2022-08-29T09:39:35Z</time>
      </trkpt>
      <trkpt lat="42.4180560" lon="-3.1833430">
        <ele>773.6</ele>
        <time>2022-08-29T09:39:36Z</time>
      </trkpt>
      <trkpt lat="42.4180680" lon="-3.1834480">
        <ele>773.0</ele>
        <time>2022-08-29T09:39:37Z</time>
      </trkpt>
      <trkpt lat="42.4180880" lon="-3.1835460">
        <ele>772.6</ele>
        <time>2022-08-29T09:39:38Z</time>
      </trkpt>
      <trkpt lat="42.4181120" lon="-3.1836430">
        <ele>772.4</ele>
        <time>2022-08-29T09:39:39Z</time>
      </trkpt>
      <trkpt lat="42.4181360" lon="-3.1837400">
        <ele>772.2</ele>
        <time>2022-08-29T09:39:40Z</time>
      </trkpt>
      <trkpt lat="42.4181640" lon="-3.1838320">
        <ele>771.8</ele>
        <time>2022-08-29T09:39:41Z</time>
      </trkpt>
      <trkpt lat="42.4181940" lon="-3.1839220">
        <ele>771.4</ele>
        <time>2022-08-29T09:39:42Z</time>
      </trkpt>
      <trkpt lat="42.4182260" lon="-3.1840050">
        <ele>771.0</ele>
        <time>2022-08-29T09:39:43Z</time>
      </trkpt>
      <trkpt lat="42.4182580" lon="-3.1840860">
        <ele>770.4</ele>
        <time>2022-08-29T09:39:44Z</time>
      </trkpt>
      <trkpt lat="42.4182880" lon="-3.1841660">
        <ele>770.0</ele>
        <time>2022-08-29T09:39:45Z</time>
      </trkpt>
      <trkpt lat="42.4183150" lon="-3.1842460">
        <ele>770.0</ele>
        <time>2022-08-29T09:39:46Z</time>
      </trkpt>
      <trkpt lat="42.4183410" lon="-3.1843270">
        <ele>770.0</ele>
        <time>2022-08-29T09:39:47Z</time>
      </trkpt>
      <trkpt lat="42.4183670" lon="-3.1844080">
        <ele>769.6</ele>
        <time>2022-08-29T09:39:48Z</time>
      </trkpt>
      <trkpt lat="42.4183880" lon="-3.1844890">
        <ele>769.4</ele>
        <time>2022-08-29T09:39:49Z</time>
      </trkpt>
      <trkpt lat="42.4184120" lon="-3.1845630">
        <ele>769.4</ele>
        <time>2022-08-29T09:39:50Z</time>
      </trkpt>
      <trkpt lat="42.4184230" lon="-3.1846500">
        <ele>769.2</ele>
        <time>2022-08-29T09:39:51Z</time>
      </trkpt>
      <trkpt lat="42.4184330" lon="-3.1847340">
        <ele>769.0</ele>
        <time>2022-08-29T09:39:52Z</time>
      </trkpt>
      <trkpt lat="42.4184420" lon="-3.1848160">
        <ele>768.8</ele>
        <time>2022-08-29T09:39:53Z</time>
      </trkpt>
      <trkpt lat="42.4184490" lon="-3.1848980">
        <ele>768.8</ele>
        <time>2022-08-29T09:39:54Z</time>
      </trkpt>
      <trkpt lat="42.4184480" lon="-3.1849890">
        <ele>768.8</ele>
        <time>2022-08-29T09:39:55Z</time>
      </trkpt>
      <trkpt lat="42.4184510" lon="-3.1850690">
        <ele>768.8</ele>
        <time>2022-08-29T09:39:56Z</time>
      </trkpt>
      <trkpt lat="42.4184540" lon="-3.1851490">
        <ele>768.6</ele>
        <time>2022-08-29T09:39:57Z</time>
      </trkpt>
      <trkpt lat="42.4184640" lon="-3.1852250">
        <ele>768.2</ele>
        <time>2022-08-29T09:39:58Z</time>
      </trkpt>
      <trkpt lat="42.4184730" lon="-3.1853050">
        <ele>768.2</ele>
        <time>2022-08-29T09:39:59Z</time>
      </trkpt>
      <trkpt lat="42.4184820" lon="-3.1853850">
        <ele>767.8</ele>
        <time>2022-08-29T09:40:00Z</time>
      </trkpt>
      <trkpt lat="42.4184910" lon="-3.1854680">
        <ele>767.6</ele>
        <time>2022-08-29T09:40:01Z</time>
      </trkpt>
      <trkpt lat="42.4185090" lon="-3.1855480">
        <ele>767.6</ele>
        <time>2022-08-29T09:40:02Z</time>
      </trkpt>
      <trkpt lat="42.4185170" lon="-3.1856280">
        <ele>767.6</ele>
        <time>2022-08-29T09:40:03Z</time>
      </trkpt>
      <trkpt lat="42.4185170" lon="-3.1857080">
        <ele>767.4</ele>
        <time>2022-08-29T09:40:04Z</time>
      </trkpt>
      <trkpt lat="42.4185140" lon="-3.1857860">
        <ele>767.2</ele>
        <time>2022-08-29T09:40:05Z</time>
      </trkpt>
      <trkpt lat="42.4185170" lon="-3.1858630">
        <ele>767.2</ele>
        <time>2022-08-29T09:40:06Z</time>
      </trkpt>
      <trkpt lat="42.4185400" lon="-3.1859360">
        <ele>767.0</ele>
        <time>2022-08-29T09:40:07Z</time>
      </trkpt>
      <trkpt lat="42.4185710" lon="-3.1860060">
        <ele>766.2</ele>
        <time>2022-08-29T09:40:08Z</time>
      </trkpt>
      <trkpt lat="42.4186080" lon="-3.1860730">
        <ele>765.8</ele>
        <time>2022-08-29T09:40:09Z</time>
      </trkpt>
      <trkpt lat="42.4186450" lon="-3.1861390">
        <ele>765.6</ele>
        <time>2022-08-29T09:40:10Z</time>
      </trkpt>
      <trkpt lat="42.4186850" lon="-3.1862060">
        <ele>765.6</ele>
        <time>2022-08-29T09:40:11Z</time>
      </trkpt>
      <trkpt lat="42.4187260" lon="-3.1862710">
        <ele>765.4</ele>
        <time>2022-08-29T09:40:12Z</time>
      </trkpt>
      <trkpt lat="42.4187700" lon="-3.1863330">
        <ele>765.2</ele>
        <time>2022-08-29T09:40:13Z</time>
      </trkpt>
      <trkpt lat="42.4188130" lon="-3.1863960">
        <ele>765.0</ele>
        <time>2022-08-29T09:40:14Z</time>
      </trkpt>
      <trkpt lat="42.4188590" lon="-3.1864640">
        <ele>765.0</ele>
        <time>2022-08-29T09:40:15Z</time>
      </trkpt>
      <trkpt lat="42.4189030" lon="-3.1865360">
        <ele>764.8</ele>
        <time>2022-08-29T09:40:16Z</time>
      </trkpt>
      <trkpt lat="42.4189480" lon="-3.1866080">
        <ele>764.4</ele>
        <time>2022-08-29T09:40:17Z</time>
      </trkpt>
      <trkpt lat="42.4189910" lon="-3.1866800">
        <ele>764.0</ele>
        <time>2022-08-29T09:40:18Z</time>
      </trkpt>
      <trkpt lat="42.4190390" lon="-3.1867470">
        <ele>763.8</ele>
        <time>2022-08-29T09:40:19Z</time>
      </trkpt>
      <trkpt lat="42.4190860" lon="-3.1868140">
        <ele>763.4</ele>
        <time>2022-08-29T09:40:20Z</time>
      </trkpt>
      <trkpt lat="42.4191400" lon="-3.1868800">
        <ele>763.4</ele>
        <time>2022-08-29T09:40:21Z</time>
      </trkpt>
      <trkpt lat="42.4191960" lon="-3.1869460">
        <ele>763.2</ele>
        <time>2022-08-29T09:40:22Z</time>
      </trkpt>
      <trkpt lat="42.4192510" lon="-3.1870150">
        <ele>762.8</ele>
        <time>2022-08-29T09:40:23Z</time>
      </trkpt>
      <trkpt lat="42.4193000" lon="-3.1870850">
        <ele>762.6</ele>
        <time>2022-08-29T09:40:24Z</time>
      </trkpt>
      <trkpt lat="42.4193470" lon="-3.1871630">
        <ele>762.2</ele>
        <time>2022-08-29T09:40:25Z</time>
      </trkpt>
      <trkpt lat="42.4193890" lon="-3.1872450">
        <ele>761.8</ele>
        <time>2022-08-29T09:40:26Z</time>
      </trkpt>
      <trkpt lat="42.4194260" lon="-3.1873310">
        <ele>761.6</ele>
        <time>2022-08-29T09:40:27Z</time>
      </trkpt>
      <trkpt lat="42.4194600" lon="-3.1874170">
        <ele>761.2</ele>
        <time>2022-08-29T09:40:28Z</time>
      </trkpt>
      <trkpt lat="42.4194950" lon="-3.1875070">
        <ele>760.8</ele>
        <time>2022-08-29T09:40:29Z</time>
      </trkpt>
      <trkpt lat="42.4195300" lon="-3.1875920">
        <ele>760.4</ele>
        <time>2022-08-29T09:40:30Z</time>
      </trkpt>
      <trkpt lat="42.4195670" lon="-3.1876680">
        <ele>759.8</ele>
        <time>2022-08-29T09:40:31Z</time>
      </trkpt>
      <trkpt lat="42.4196020" lon="-3.1877440">
        <ele>759.4</ele>
        <time>2022-08-29T09:40:32Z</time>
      </trkpt>
      <trkpt lat="42.4196470" lon="-3.1878110">
        <ele>759.2</ele>
        <time>2022-08-29T09:40:33Z</time>
      </trkpt>
      <trkpt lat="42.4196950" lon="-3.1878660">
        <ele>759.2</ele>
        <time>2022-08-29T09:40:34Z</time>
      </trkpt>
      <trkpt lat="42.4197450" lon="-3.1879250">
        <ele>758.8</ele>
        <time>2022-08-29T09:40:35Z</time>
      </trkpt>
      <trkpt lat="42.4197950" lon="-3.1879740">
        <ele>758.8</ele>
        <time>2022-08-29T09:40:36Z</time>
      </trkpt>
      <trkpt lat="42.4198390" lon="-3.1880060">
        <ele>758.6</ele>
        <time>2022-08-29T09:40:37Z</time>
      </trkpt>
      <trkpt lat="42.4198710" lon="-3.1880300">
        <ele>758.6</ele>
        <time>2022-08-29T09:40:38Z</time>
      </trkpt>
      <trkpt lat="42.4198950" lon="-3.1880410">
        <ele>758.6</ele>
        <time>2022-08-29T09:40:39Z</time>
      </trkpt>
      <trkpt lat="42.4199000" lon="-3.1880480">
        <ele>758.6</ele>
        <time>2022-08-29T09:40:40Z</time>
      </trkpt>
      <trkpt lat="42.4198900" lon="-3.1880520">
        <ele>758.6</ele>
        <time>2022-08-29T09:40:41Z</time>
      </trkpt>
      <trkpt lat="42.4198870" lon="-3.1880480">
        <ele>758.6</ele>
        <time>2022-08-29T09:40:42Z</time>
      </trkpt>
      <trkpt lat="42.4198830" lon="-3.1880460">
        <ele>758.6</ele>
        <time>2022-08-29T09:40:43Z</time>
      </trkpt>
      <trkpt lat="42.4198800" lon="-3.1880430">
        <ele>758.4</ele>
        <time>2022-08-29T09:40:44Z</time>
      </trkpt>
      <trkpt lat="42.4198760" lon="-3.1880420">
        <ele>758.4</ele>
        <time>2022-08-29T09:40:45Z</time>
      </trkpt>
      <trkpt lat="42.4198760" lon="-3.1880410">
        <ele>758.6</ele>
        <time>2022-08-29T09:40:46Z</time>
      </trkpt>
      <trkpt lat="42.4198760" lon="-3.1880420">
        <ele>758.4</ele>
        <time>2022-08-29T09:40:47Z</time>
      </trkpt>
      <trkpt lat="42.4198750" lon="-3.1880420">
        <ele>758.6</ele>
        <time>2022-08-29T09:40:48Z</time>
      </trkpt>
      <trkpt lat="42.4198750" lon="-3.1880420">
        <ele>758.6</ele>
        <time>2022-08-29T09:40:49Z</time>
      </trkpt>
      <trkpt lat="42.4198750" lon="-3.1880400">
        <ele>758.6</ele>
        <time>2022-08-29T09:40:50Z</time>
      </trkpt>
      <trkpt lat="42.4198750" lon="-3.1880390">
        <ele>758.8</ele>
        <time>2022-08-29T09:40:51Z</time>
      </trkpt>
      <trkpt lat="42.4198740" lon="-3.1880390">
        <ele>758.6</ele>
        <time>2022-08-29T09:40:52Z</time>
      </trkpt>
      <trkpt lat="42.4198740" lon="-3.1880390">
        <ele>758.8</ele>
        <time>2022-08-29T09:40:53Z</time>
      </trkpt>
      <trkpt lat="42.4198740" lon="-3.1880380">
        <ele>758.8</ele>
        <time>2022-08-29T09:40:54Z</time>
      </trkpt>
      <trkpt lat="42.4198730" lon="-3.1880380">
        <ele>758.8</ele>
        <time>2022-08-29T09:40:55Z</time>
      </trkpt>
      <trkpt lat="42.4198730" lon="-3.1880380">
        <ele>758.8</ele>
        <time>2022-08-29T09:40:56Z</time>
      </trkpt>
      <trkpt lat="42.4198730" lon="-3.1880370">
        <ele>758.8</ele>
        <time>2022-08-29T09:40:57Z</time>
      </trkpt>
      <trkpt lat="42.4198730" lon="-3.1880380">
        <ele>758.8</ele>
        <time>2022-08-29T09:40:58Z</time>
      </trkpt>
      <trkpt lat="42.4198730" lon="-3.1880380">
        <ele>758.8</ele>
        <time>2022-08-29T09:40:59Z</time>
      </trkpt>
      <trkpt lat="42.4198720" lon="-3.1880390">
        <ele>758.6</ele>
        <time>2022-08-29T09:41:00Z</time>
      </trkpt>
      <trkpt lat="42.4198720" lon="-3.1880390">
        <ele>758.8</ele>
        <time>2022-08-29T09:41:01Z</time>
      </trkpt>
      <trkpt lat="42.4198720" lon="-3.1880390">
        <ele>758.8</ele>
        <time>2022-08-29T09:41:02Z</time>
      </trkpt>
      <trkpt lat="42.4198710" lon="-3.1880390">
        <ele>758.8</ele>
        <time>2022-08-29T09:41:03Z</time>
      </trkpt>
      <trkpt lat="42.4198710" lon="-3.1880410">
        <ele>758.8</ele>
        <time>2022-08-29T09:41:04Z</time>
      </trkpt>
      <trkpt lat="42.4198740" lon="-3.1880450">
        <ele>758.8</ele>
        <time>2022-08-29T09:41:05Z</time>
      </trkpt>
      <trkpt lat="42.4198750" lon="-3.1880450">
        <ele>758.8</ele>
        <time>2022-08-29T09:41:06Z</time>
      </trkpt>
      <trkpt lat="42.4198750" lon="-3.1880450">
        <ele>758.8</ele>
        <time>2022-08-29T09:41:07Z</time>
      </trkpt>
      <trkpt lat="42.4198750" lon="-3.1880460">
        <ele>758.8</ele>
        <time>2022-08-29T09:41:08Z</time>
      </trkpt>
      <trkpt lat="42.4198740" lon="-3.1880480">
        <ele>758.6</ele>
        <time>2022-08-29T09:41:09Z</time>
      </trkpt>
      <trkpt lat="42.4198730" lon="-3.1880490">
        <ele>758.8</ele>
        <time>2022-08-29T09:41:10Z</time>
      </trkpt>
      <trkpt lat="42.4198710" lon="-3.1880480">
        <ele>758.8</ele>
        <time>2022-08-29T09:41:11Z</time>
      </trkpt>
      <trkpt lat="42.4198710" lon="-3.1880480">
        <ele>758.6</ele>
        <time>2022-08-29T09:41:12Z</time>
      </trkpt>
      <trkpt lat="42.4198710" lon="-3.1880470">
        <ele>758.8</ele>
        <time>2022-08-29T09:41:13Z</time>
      </trkpt>
      <trkpt lat="42.4198710" lon="-3.1880470">
        <ele>758.8</ele>
        <time>2022-08-29T09:41:14Z</time>
      </trkpt>
      <trkpt lat="42.4198700" lon="-3.1880470">
        <ele>758.8</ele>
        <time>2022-08-29T09:41:15Z</time>
      </trkpt>
      <trkpt lat="42.4198700" lon="-3.1880470">
        <ele>758.8</ele>
        <time>2022-08-29T09:41:16Z</time>
      </trkpt>
      <trkpt lat="42.4198700" lon="-3.1880480">
        <ele>758.8</ele>
        <time>2022-08-29T09:41:17Z</time>
      </trkpt>
      <trkpt lat="42.4198700" lon="-3.1880480">
        <ele>758.6</ele>
        <time>2022-08-29T09:41:18Z</time>
      </trkpt>
      <trkpt lat="42.4198700" lon="-3.1880480">
        <ele>758.8</ele>
        <time>2022-08-29T09:41:19Z</time>
      </trkpt>
      <trkpt lat="42.4198700" lon="-3.1880480">
        <ele>759.0</ele>
        <time>2022-08-29T09:41:20Z</time>
      </trkpt>
      <trkpt lat="42.4198730" lon="-3.1880480">
        <ele>758.8</ele>
        <time>2022-08-29T09:41:21Z</time>
      </trkpt>
      <trkpt lat="42.4198770" lon="-3.1880550">
        <ele>758.8</ele>
        <time>2022-08-29T09:41:22Z</time>
      </trkpt>
      <trkpt lat="42.4198830" lon="-3.1880630">
        <ele>758.8</ele>
        <time>2022-08-29T09:41:23Z</time>
      </trkpt>
      <trkpt lat="42.4198890" lon="-3.1880710">
        <ele>758.8</ele>
        <time>2022-08-29T09:41:24Z</time>
      </trkpt>
      <trkpt lat="42.4198980" lon="-3.1880820">
        <ele>759.0</ele>
        <time>2022-08-29T09:41:25Z</time>
      </trkpt>
      <trkpt lat="42.4199090" lon="-3.1880950">
        <ele>758.8</ele>
        <time>2022-08-29T09:41:26Z</time>
      </trkpt>
      <trkpt lat="42.4199210" lon="-3.1881110">
        <ele>758.8</ele>
        <time>2022-08-29T09:41:27Z</time>
      </trkpt>
      <trkpt lat="42.4199400" lon="-3.1881320">
        <ele>758.8</ele>
        <time>2022-08-29T09:41:28Z</time>
      </trkpt>
      <trkpt lat="42.4199730" lon="-3.1881520">
        <ele>758.8</ele>
        <time>2022-08-29T09:41:29Z</time>
      </trkpt>
      <trkpt lat="42.4200090" lon="-3.1881730">
        <ele>758.8</ele>
        <time>2022-08-29T09:41:30Z</time>
      </trkpt>
      <trkpt lat="42.4200460" lon="-3.1881990">
        <ele>758.8</ele>
        <time>2022-08-29T09:41:31Z</time>
      </trkpt>
      <trkpt lat="42.4200810" lon="-3.1882240">
        <ele>758.8</ele>
        <time>2022-08-29T09:41:32Z</time>
      </trkpt>
      <trkpt lat="42.4201260" lon="-3.1882570">
        <ele>758.6</ele>
        <time>2022-08-29T09:41:33Z</time>
      </trkpt>
      <trkpt lat="42.4201510" lon="-3.1882960">
        <ele>758.6</ele>
        <time>2022-08-29T09:41:34Z</time>
      </trkpt>
      <trkpt lat="42.4201780" lon="-3.1883320">
        <ele>758.2</ele>
        <time>2022-08-29T09:41:35Z</time>
      </trkpt>
      <trkpt lat="42.4202030" lon="-3.1883710">
        <ele>757.6</ele>
        <time>2022-08-29T09:41:36Z</time>
      </trkpt>
      <trkpt lat="42.4202310" lon="-3.1884070">
        <ele>757.4</ele>
        <time>2022-08-29T09:41:37Z</time>
      </trkpt>
      <trkpt lat="42.4202790" lon="-3.1884370">
        <ele>757.2</ele>
        <time>2022-08-29T09:41:38Z</time>
      </trkpt>
      <trkpt lat="42.4203310" lon="-3.1884560">
        <ele>756.8</ele>
        <time>2022-08-29T09:41:39Z</time>
      </trkpt>
      <trkpt lat="42.4203710" lon="-3.1884750">
        <ele>756.4</ele>
        <time>2022-08-29T09:41:40Z</time>
      </trkpt>
      <trkpt lat="42.4204090" lon="-3.1884880">
        <ele>756.2</ele>
        <time>2022-08-29T09:41:41Z</time>
      </trkpt>
      <trkpt lat="42.4204320" lon="-3.1885150">
        <ele>756.2</ele>
        <time>2022-08-29T09:41:42Z</time>
      </trkpt>
      <trkpt lat="42.4204740" lon="-3.1885320">
        <ele>756.0</ele>
        <time>2022-08-29T09:41:43Z</time>
      </trkpt>
      <trkpt lat="42.4205020" lon="-3.1885440">
        <ele>756.0</ele>
        <time>2022-08-29T09:41:44Z</time>
      </trkpt>
      <trkpt lat="42.4205400" lon="-3.1885580">
        <ele>755.8</ele>
        <time>2022-08-29T09:41:45Z</time>
      </trkpt>
      <trkpt lat="42.4205700" lon="-3.1885730">
        <ele>755.8</ele>
        <time>2022-08-29T09:41:46Z</time>
      </trkpt>
      <trkpt lat="42.4206060" lon="-3.1885850">
        <ele>755.8</ele>
        <time>2022-08-29T09:41:47Z</time>
      </trkpt>
      <trkpt lat="42.4206210" lon="-3.1886040">
        <ele>755.6</ele>
        <time>2022-08-29T09:41:48Z</time>
      </trkpt>
      <trkpt lat="42.4206270" lon="-3.1886280">
        <ele>755.6</ele>
        <time>2022-08-29T09:41:49Z</time>
      </trkpt>
      <trkpt lat="42.4206260" lon="-3.1886450">
        <ele>755.6</ele>
        <time>2022-08-29T09:41:50Z</time>
      </trkpt>
      <trkpt lat="42.4206270" lon="-3.1886540">
        <ele>755.8</ele>
        <time>2022-08-29T09:41:51Z</time>
      </trkpt>
      <trkpt lat="42.4206260" lon="-3.1886580">
        <ele>755.6</ele>
        <time>2022-08-29T09:41:52Z</time>
      </trkpt>
      <trkpt lat="42.4206230" lon="-3.1886630">
        <ele>755.8</ele>
        <time>2022-08-29T09:41:53Z</time>
      </trkpt>
      <trkpt lat="42.4206200" lon="-3.1886690">
        <ele>755.6</ele>
        <time>2022-08-29T09:41:54Z</time>
      </trkpt>
      <trkpt lat="42.4206210" lon="-3.1886690">
        <ele>755.6</ele>
        <time>2022-08-29T09:41:55Z</time>
      </trkpt>
      <trkpt lat="42.4206210" lon="-3.1886690">
        <ele>755.6</ele>
        <time>2022-08-29T09:41:56Z</time>
      </trkpt>
      <trkpt lat="42.4206210" lon="-3.1886690">
        <ele>755.8</ele>
        <time>2022-08-29T09:41:57Z</time>
      </trkpt>
      <trkpt lat="42.4206200" lon="-3.1886680">
        <ele>755.6</ele>
        <time>2022-08-29T09:41:58Z</time>
      </trkpt>
      <trkpt lat="42.4206240" lon="-3.1886650">
        <ele>755.8</ele>
        <time>2022-08-29T09:41:59Z</time>
      </trkpt>
      <trkpt lat="42.4206280" lon="-3.1886600">
        <ele>755.8</ele>
        <time>2022-08-29T09:42:00Z</time>
      </trkpt>
      <trkpt lat="42.4206320" lon="-3.1886560">
        <ele>755.8</ele>
        <time>2022-08-29T09:42:01Z</time>
      </trkpt>
      <trkpt lat="42.4206300" lon="-3.1886500">
        <ele>755.8</ele>
        <time>2022-08-29T09:42:02Z</time>
      </trkpt>
      <trkpt lat="42.4206280" lon="-3.1886440">
        <ele>755.8</ele>
        <time>2022-08-29T09:42:03Z</time>
      </trkpt>
      <trkpt lat="42.4206240" lon="-3.1886370">
        <ele>755.8</ele>
        <time>2022-08-29T09:42:04Z</time>
      </trkpt>
      <trkpt lat="42.4206190" lon="-3.1886310">
        <ele>755.8</ele>
        <time>2022-08-29T09:42:05Z</time>
      </trkpt>
      <trkpt lat="42.4206140" lon="-3.1886210">
        <ele>755.8</ele>
        <time>2022-08-29T09:42:06Z</time>
      </trkpt>
      <trkpt lat="42.4206090" lon="-3.1886140">
        <ele>755.8</ele>
        <time>2022-08-29T09:42:07Z</time>
      </trkpt>
      <trkpt lat="42.4206020" lon="-3.1886050">
        <ele>755.8</ele>
        <time>2022-08-29T09:42:08Z</time>
      </trkpt>
      <trkpt lat="42.4205940" lon="-3.1885960">
        <ele>755.8</ele>
        <time>2022-08-29T09:42:09Z</time>
      </trkpt>
      <trkpt lat="42.4205820" lon="-3.1885930">
        <ele>756.0</ele>
        <time>2022-08-29T09:42:10Z</time>
      </trkpt>
      <trkpt lat="42.4205740" lon="-3.1885880">
        <ele>755.8</ele>
        <time>2022-08-29T09:42:11Z</time>
      </trkpt>
      <trkpt lat="42.4205710" lon="-3.1885860">
        <ele>755.8</ele>
        <time>2022-08-29T09:42:12Z</time>
      </trkpt>
      <trkpt lat="42.4205700" lon="-3.1885820">
        <ele>756.0</ele>
        <time>2022-08-29T09:42:13Z</time>
      </trkpt>
      <trkpt lat="42.4205760" lon="-3.1885810">
        <ele>755.8</ele>
        <time>2022-08-29T09:42:14Z</time>
      </trkpt>
      <trkpt lat="42.4205810" lon="-3.1885790">
        <ele>755.8</ele>
        <time>2022-08-29T09:42:15Z</time>
      </trkpt>
      <trkpt lat="42.4205850" lon="-3.1885770">
        <ele>756.0</ele>
        <time>2022-08-29T09:42:16Z</time>
      </trkpt>
      <trkpt lat="42.4205870" lon="-3.1885750">
        <ele>756.0</ele>
        <time>2022-08-29T09:42:17Z</time>
      </trkpt>
      <trkpt lat="42.4205910" lon="-3.1885730">
        <ele>756.0</ele>
        <time>2022-08-29T09:42:18Z</time>
      </trkpt>
      <trkpt lat="42.4205910" lon="-3.1885710">
        <ele>756.2</ele>
        <time>2022-08-29T09:42:19Z</time>
      </trkpt>
      <trkpt lat="42.4205860" lon="-3.1885720">
        <ele>756.0</ele>
        <time>2022-08-29T09:42:20Z</time>
      </trkpt>
      <trkpt lat="42.4205850" lon="-3.1885720">
        <ele>756.0</ele>
        <time>2022-08-29T09:42:21Z</time>
      </trkpt>
      <trkpt lat="42.4205850" lon="-3.1885720">
        <ele>756.0</ele>
        <time>2022-08-29T09:42:22Z</time>
      </trkpt>
      <trkpt lat="42.4205850" lon="-3.1885720">
        <ele>756.2</ele>
        <time>2022-08-29T09:42:23Z</time>
      </trkpt>
      <trkpt lat="42.4205850" lon="-3.1885720">
        <ele>756.0</ele>
        <time>2022-08-29T09:42:24Z</time>
      </trkpt>
      <trkpt lat="42.4205850" lon="-3.1885710">
        <ele>756.0</ele>
        <time>2022-08-29T09:42:25Z</time>
      </trkpt>
      <trkpt lat="42.4205850" lon="-3.1885710">
        <ele>756.2</ele>
        <time>2022-08-29T09:42:26Z</time>
      </trkpt>
      <trkpt lat="42.4205850" lon="-3.1885710">
        <ele>756.2</ele>
        <time>2022-08-29T09:42:27Z</time>
      </trkpt>
      <trkpt lat="42.4205850" lon="-3.1885720">
        <ele>756.2</ele>
        <time>2022-08-29T09:42:28Z</time>
      </trkpt>
      <trkpt lat="42.4205850" lon="-3.1885720">
        <ele>756.2</ele>
        <time>2022-08-29T09:42:29Z</time>
      </trkpt>
      <trkpt lat="42.4205850" lon="-3.1885720">
        <ele>756.2</ele>
        <time>2022-08-29T09:42:30Z</time>
      </trkpt>
      <trkpt lat="42.4205850" lon="-3.1885730">
        <ele>756.2</ele>
        <time>2022-08-29T09:42:31Z</time>
      </trkpt>
      <trkpt lat="42.4205850" lon="-3.1885730">
        <ele>756.2</ele>
        <time>2022-08-29T09:42:32Z</time>
      </trkpt>
      <trkpt lat="42.4205850" lon="-3.1885730">
        <ele>756.2</ele>
        <time>2022-08-29T09:42:33Z</time>
      </trkpt>
      <trkpt lat="42.4205850" lon="-3.1885730">
        <ele>756.2</ele>
        <time>2022-08-29T09:42:34Z</time>
      </trkpt>
      <trkpt lat="42.4205850" lon="-3.1885730">
        <ele>756.2</ele>
        <time>2022-08-29T09:42:35Z</time>
      </trkpt>
      <trkpt lat="42.4205850" lon="-3.1885740">
        <ele>756.2</ele>
        <time>2022-08-29T09:42:36Z</time>
      </trkpt>
      <trkpt lat="42.4205860" lon="-3.1885740">
        <ele>756.2</ele>
        <time>2022-08-29T09:42:37Z</time>
      </trkpt>
      <trkpt lat="42.4205860" lon="-3.1885740">
        <ele>756.2</ele>
        <time>2022-08-29T09:42:38Z</time>
      </trkpt>
      <trkpt lat="42.4205860" lon="-3.1885730">
        <ele>756.2</ele>
        <time>2022-08-29T09:42:39Z</time>
      </trkpt>
      <trkpt lat="42.4205860" lon="-3.1885730">
        <ele>756.2</ele>
        <time>2022-08-29T09:42:40Z</time>
      </trkpt>
      <trkpt lat="42.4205860" lon="-3.1885730">
        <ele>756.2</ele>
        <time>2022-08-29T09:42:41Z</time>
      </trkpt>
      <trkpt lat="42.4205860" lon="-3.1885730">
        <ele>756.2</ele>
        <time>2022-08-29T09:42:42Z</time>
      </trkpt>
      <trkpt lat="42.4205860" lon="-3.1885730">
        <ele>756.4</ele>
        <time>2022-08-29T09:42:43Z</time>
      </trkpt>
      <trkpt lat="42.4205860" lon="-3.1885730">
        <ele>756.2</ele>
        <time>2022-08-29T09:42:44Z</time>
      </trkpt>
      <trkpt lat="42.4205870" lon="-3.1885720">
        <ele>756.2</ele>
        <time>2022-08-29T09:42:45Z</time>
      </trkpt>
      <trkpt lat="42.4205870" lon="-3.1885720">
        <ele>756.2</ele>
        <time>2022-08-29T09:42:46Z</time>
      </trkpt>
      <trkpt lat="42.4205870" lon="-3.1885720">
        <ele>756.2</ele>
        <time>2022-08-29T09:42:47Z</time>
      </trkpt>
      <trkpt lat="42.4205870" lon="-3.1885720">
        <ele>756.2</ele>
        <time>2022-08-29T09:42:48Z</time>
      </trkpt>
      <trkpt lat="42.4205870" lon="-3.1885720">
        <ele>756.2</ele>
        <time>2022-08-29T09:42:49Z</time>
      </trkpt>
      <trkpt lat="42.4205870" lon="-3.1885720">
        <ele>756.2</ele>
        <time>2022-08-29T09:42:50Z</time>
      </trkpt>
      <trkpt lat="42.4205870" lon="-3.1885720">
        <ele>756.0</ele>
        <time>2022-08-29T09:42:51Z</time>
      </trkpt>
      <trkpt lat="42.4205860" lon="-3.1885720">
        <ele>756.2</ele>
        <time>2022-08-29T09:42:52Z</time>
      </trkpt>
      <trkpt lat="42.4205860" lon="-3.1885720">
        <ele>756.0</ele>
        <time>2022-08-29T09:42:53Z</time>
      </trkpt>
      <trkpt lat="42.4205860" lon="-3.1885720">
        <ele>756.0</ele>
        <time>2022-08-29T09:42:54Z</time>
      </trkpt>
      <trkpt lat="42.4205810" lon="-3.1885760">
        <ele>756.2</ele>
        <time>2022-08-29T09:42:55Z</time>
      </trkpt>
      <trkpt lat="42.4205770" lon="-3.1885830">
        <ele>756.2</ele>
        <time>2022-08-29T09:42:56Z</time>
      </trkpt>
      <trkpt lat="42.4205730" lon="-3.1885890">
        <ele>756.2</ele>
        <time>2022-08-29T09:42:57Z</time>
      </trkpt>
      <trkpt lat="42.4205710" lon="-3.1885930">
        <ele>756.0</ele>
        <time>2022-08-29T09:42:58Z</time>
      </trkpt>
      <trkpt lat="42.4205710" lon="-3.1885950">
        <ele>756.2</ele>
        <time>2022-08-29T09:42:59Z</time>
      </trkpt>
      <trkpt lat="42.4205700" lon="-3.1885980">
        <ele>756.0</ele>
        <time>2022-08-29T09:43:00Z</time>
      </trkpt>
      <trkpt lat="42.4205710" lon="-3.1885980">
        <ele>756.0</ele>
        <time>2022-08-29T09:43:01Z</time>
      </trkpt>
      <trkpt lat="42.4205710" lon="-3.1886000">
        <ele>756.2</ele>
        <time>2022-08-29T09:43:02Z</time>
      </trkpt>
      <trkpt lat="42.4205710" lon="-3.1886020">
        <ele>756.0</ele>
        <time>2022-08-29T09:43:03Z</time>
      </trkpt>
      <trkpt lat="42.4205710" lon="-3.1886040">
        <ele>756.2</ele>
        <time>2022-08-29T09:43:04Z</time>
      </trkpt>
      <trkpt lat="42.4205710" lon="-3.1886040">
        <ele>756.2</ele>
        <time>2022-08-29T09:43:05Z</time>
      </trkpt>
      <trkpt lat="42.4205710" lon="-3.1886040">
        <ele>756.0</ele>
        <time>2022-08-29T09:43:06Z</time>
      </trkpt>
      <trkpt lat="42.4205710" lon="-3.1886050">
        <ele>756.0</ele>
        <time>2022-08-29T09:43:07Z</time>
      </trkpt>
      <trkpt lat="42.4205710" lon="-3.1886050">
        <ele>756.0</ele>
        <time>2022-08-29T09:43:08Z</time>
      </trkpt>
      <trkpt lat="42.4205710" lon="-3.1886040">
        <ele>756.2</ele>
        <time>2022-08-29T09:43:09Z</time>
      </trkpt>
      <trkpt lat="42.4205700" lon="-3.1886040">
        <ele>756.0</ele>
        <time>2022-08-29T09:43:10Z</time>
      </trkpt>
      <trkpt lat="42.4205700" lon="-3.1886040">
        <ele>756.2</ele>
        <time>2022-08-29T09:43:11Z</time>
      </trkpt>
      <trkpt lat="42.4205700" lon="-3.1886040">
        <ele>756.0</ele>
        <time>2022-08-29T09:43:12Z</time>
      </trkpt>
      <trkpt lat="42.4205700" lon="-3.1886030">
        <ele>756.0</ele>
        <time>2022-08-29T09:43:13Z</time>
      </trkpt>
      <trkpt lat="42.4205700" lon="-3.1886030">
        <ele>756.0</ele>
        <time>2022-08-29T09:43:14Z</time>
      </trkpt>
      <trkpt lat="42.4205710" lon="-3.1886030">
        <ele>756.2</ele>
        <time>2022-08-29T09:43:15Z</time>
      </trkpt>
      <trkpt lat="42.4205710" lon="-3.1886030">
        <ele>756.0</ele>
        <time>2022-08-29T09:43:16Z</time>
      </trkpt>
      <trkpt lat="42.4205720" lon="-3.1886030">
        <ele>756.2</ele>
        <time>2022-08-29T09:43:17Z</time>
      </trkpt>
      <trkpt lat="42.4205780" lon="-3.1886070">
        <ele>756.0</ele>
        <time>2022-08-29T09:43:18Z</time>
      </trkpt>
      <trkpt lat="42.4205840" lon="-3.1886090">
        <ele>756.2</ele>
        <time>2022-08-29T09:43:19Z</time>
      </trkpt>
      <trkpt lat="42.4205900" lon="-3.1886070">
        <ele>756.2</ele>
        <time>2022-08-29T09:43:20Z</time>
      </trkpt>
      <trkpt lat="42.4205940" lon="-3.1886020">
        <ele>756.2</ele>
        <time>2022-08-29T09:43:21Z</time>
      </trkpt>
      <trkpt lat="42.4206040" lon="-3.1885910">
        <ele>756.0</ele>
        <time>2022-08-29T09:43:22Z</time>
      </trkpt>
      <trkpt lat="42.4206130" lon="-3.1885820">
        <ele>756.2</ele>
        <time>2022-08-29T09:43:23Z</time>
      </trkpt>
      <trkpt lat="42.4206240" lon="-3.1885750">
        <ele>756.0</ele>
        <time>2022-08-29T09:43:24Z</time>
      </trkpt>
      <trkpt lat="42.4206320" lon="-3.1885710">
        <ele>756.2</ele>
        <time>2022-08-29T09:43:25Z</time>
      </trkpt>
      <trkpt lat="42.4206420" lon="-3.1885680">
        <ele>756.0</ele>
        <time>2022-08-29T09:43:26Z</time>
      </trkpt>
      <trkpt lat="42.4206540" lon="-3.1885660">
        <ele>756.0</ele>
        <time>2022-08-29T09:43:27Z</time>
      </trkpt>
      <trkpt lat="42.4206730" lon="-3.1885650">
        <ele>756.0</ele>
        <time>2022-08-29T09:43:28Z</time>
      </trkpt>
      <trkpt lat="42.4206910" lon="-3.1885610">
        <ele>756.0</ele>
        <time>2022-08-29T09:43:29Z</time>
      </trkpt>
      <trkpt lat="42.4207120" lon="-3.1885590">
        <ele>756.0</ele>
        <time>2022-08-29T09:43:30Z</time>
      </trkpt>
      <trkpt lat="42.4207300" lon="-3.1885570">
        <ele>756.0</ele>
        <time>2022-08-29T09:43:31Z</time>
      </trkpt>
      <trkpt lat="42.4207480" lon="-3.1885550">
        <ele>755.8</ele>
        <time>2022-08-29T09:43:32Z</time>
      </trkpt>
      <trkpt lat="42.4207630" lon="-3.1885580">
        <ele>756.0</ele>
        <time>2022-08-29T09:43:33Z</time>
      </trkpt>
      <trkpt lat="42.4207770" lon="-3.1885650">
        <ele>756.0</ele>
        <time>2022-08-29T09:43:34Z</time>
      </trkpt>
      <trkpt lat="42.4207890" lon="-3.1885790">
        <ele>756.0</ele>
        <time>2022-08-29T09:43:35Z</time>
      </trkpt>
      <trkpt lat="42.4207970" lon="-3.1886010">
        <ele>756.0</ele>
        <time>2022-08-29T09:43:36Z</time>
      </trkpt>
      <trkpt lat="42.4208010" lon="-3.1886270">
        <ele>755.8</ele>
        <time>2022-08-29T09:43:37Z</time>
      </trkpt>
      <trkpt lat="42.4208080" lon="-3.1886510">
        <ele>755.8</ele>
        <time>2022-08-29T09:43:38Z</time>
      </trkpt>
      <trkpt lat="42.4208080" lon="-3.1886800">
        <ele>755.8</ele>
        <time>2022-08-29T09:43:39Z</time>
      </trkpt>
      <trkpt lat="42.4208050" lon="-3.1887080">
        <ele>755.8</ele>
        <time>2022-08-29T09:43:40Z</time>
      </trkpt>
      <trkpt lat="42.4208020" lon="-3.1887340">
        <ele>756.0</ele>
        <time>2022-08-29T09:43:41Z</time>
      </trkpt>
      <trkpt lat="42.4207930" lon="-3.1887710">
        <ele>756.0</ele>
        <time>2022-08-29T09:43:42Z</time>
      </trkpt>
      <trkpt lat="42.4207890" lon="-3.1888020">
        <ele>756.0</ele>
        <time>2022-08-29T09:43:43Z</time>
      </trkpt>
      <trkpt lat="42.4207870" lon="-3.1888300">
        <ele>755.8</ele>
        <time>2022-08-29T09:43:44Z</time>
      </trkpt>
      <trkpt lat="42.4207860" lon="-3.1888550">
        <ele>755.8</ele>
        <time>2022-08-29T09:43:45Z</time>
      </trkpt>
      <trkpt lat="42.4207820" lon="-3.1888800">
        <ele>756.0</ele>
        <time>2022-08-29T09:43:46Z</time>
      </trkpt>
      <trkpt lat="42.4207780" lon="-3.1889050">
        <ele>755.8</ele>
        <time>2022-08-29T09:43:47Z</time>
      </trkpt>
      <trkpt lat="42.4207760" lon="-3.1889300">
        <ele>756.0</ele>
        <time>2022-08-29T09:43:48Z</time>
      </trkpt>
      <trkpt lat="42.4207780" lon="-3.1889520">
        <ele>756.0</ele>
        <time>2022-08-29T09:43:49Z</time>
      </trkpt>
      <trkpt lat="42.4207780" lon="-3.1889730">
        <ele>756.0</ele>
        <time>2022-08-29T09:43:50Z</time>
      </trkpt>
      <trkpt lat="42.4207760" lon="-3.1889930">
        <ele>756.0</ele>
        <time>2022-08-29T09:43:51Z</time>
      </trkpt>
      <trkpt lat="42.4207710" lon="-3.1890140">
        <ele>756.2</ele>
        <time>2022-08-29T09:43:52Z</time>
      </trkpt>
      <trkpt lat="42.4207680" lon="-3.1890350">
        <ele>756.0</ele>
        <time>2022-08-29T09:43:53Z</time>
      </trkpt>
      <trkpt lat="42.4207660" lon="-3.1890550">
        <ele>756.2</ele>
        <time>2022-08-29T09:43:54Z</time>
      </trkpt>
      <trkpt lat="42.4207640" lon="-3.1890750">
        <ele>756.4</ele>
        <time>2022-08-29T09:43:55Z</time>
      </trkpt>
      <trkpt lat="42.4207660" lon="-3.1890920">
        <ele>756.2</ele>
        <time>2022-08-29T09:43:56Z</time>
      </trkpt>
      <trkpt lat="42.4207670" lon="-3.1891080">
        <ele>756.4</ele>
        <time>2022-08-29T09:43:57Z</time>
      </trkpt>
      <trkpt lat="42.4207700" lon="-3.1891240">
        <ele>756.6</ele>
        <time>2022-08-29T09:43:58Z</time>
      </trkpt>
      <trkpt lat="42.4207780" lon="-3.1891410">
        <ele>756.4</ele>
        <time>2022-08-29T09:43:59Z</time>
      </trkpt>
      <trkpt lat="42.4207880" lon="-3.1891550">
        <ele>756.6</ele>
        <time>2022-08-29T09:44:00Z</time>
      </trkpt>
      <trkpt lat="42.4207980" lon="-3.1891620">
        <ele>756.4</ele>
        <time>2022-08-29T09:44:01Z</time>
      </trkpt>
      <trkpt lat="42.4208120" lon="-3.1891670">
        <ele>756.6</ele>
        <time>2022-08-29T09:44:02Z</time>
      </trkpt>
      <trkpt lat="42.4208290" lon="-3.1891680">
        <ele>756.4</ele>
        <time>2022-08-29T09:44:03Z</time>
      </trkpt>
      <trkpt lat="42.4208500" lon="-3.1891640">
        <ele>756.6</ele>
        <time>2022-08-29T09:44:04Z</time>
      </trkpt>
      <trkpt lat="42.4208690" lon="-3.1891560">
        <ele>756.4</ele>
        <time>2022-08-29T09:44:05Z</time>
      </trkpt>
      <trkpt lat="42.4208820" lon="-3.1891500">
        <ele>756.4</ele>
        <time>2022-08-29T09:44:06Z</time>
      </trkpt>
      <trkpt lat="42.4208940" lon="-3.1891480">
        <ele>756.6</ele>
        <time>2022-08-29T09:44:07Z</time>
      </trkpt>
      <trkpt lat="42.4208960" lon="-3.1891500">
        <ele>756.4</ele>
        <time>2022-08-29T09:44:08Z</time>
      </trkpt>
      <trkpt lat="42.4208910" lon="-3.1891500">
        <ele>756.4</ele>
        <time>2022-08-29T09:44:09Z</time>
      </trkpt>
      <trkpt lat="42.4208810" lon="-3.1891480">
        <ele>756.4</ele>
        <time>2022-08-29T09:44:10Z</time>
      </trkpt>
      <trkpt lat="42.4208660" lon="-3.1891500">
        <ele>756.6</ele>
        <time>2022-08-29T09:44:11Z</time>
      </trkpt>
      <trkpt lat="42.4208500" lon="-3.1891500">
        <ele>756.4</ele>
        <time>2022-08-29T09:44:12Z</time>
      </trkpt>
      <trkpt lat="42.4208310" lon="-3.1891550">
        <ele>756.4</ele>
        <time>2022-08-29T09:44:13Z</time>
      </trkpt>
      <trkpt lat="42.4208160" lon="-3.1891570">
        <ele>756.4</ele>
        <time>2022-08-29T09:44:14Z</time>
      </trkpt>
      <trkpt lat="42.4208010" lon="-3.1891610">
        <ele>756.4</ele>
        <time>2022-08-29T09:44:15Z</time>
      </trkpt>
      <trkpt lat="42.4207880" lon="-3.1891670">
        <ele>756.4</ele>
        <time>2022-08-29T09:44:16Z</time>
      </trkpt>
      <trkpt lat="42.4207790" lon="-3.1891620">
        <ele>756.4</ele>
        <time>2022-08-29T09:44:17Z</time>
      </trkpt>
      <trkpt lat="42.4207740" lon="-3.1891570">
        <ele>756.4</ele>
        <time>2022-08-29T09:44:18Z</time>
      </trkpt>
      <trkpt lat="42.4207680" lon="-3.1891550">
        <ele>756.4</ele>
        <time>2022-08-29T09:44:19Z</time>
      </trkpt>
      <trkpt lat="42.4207670" lon="-3.1891520">
        <ele>756.6</ele>
        <time>2022-08-29T09:44:20Z</time>
      </trkpt>
      <trkpt lat="42.4207680" lon="-3.1891510">
        <ele>756.6</ele>
        <time>2022-08-29T09:44:21Z</time>
      </trkpt>
      <trkpt lat="42.4207690" lon="-3.1891510">
        <ele>756.4</ele>
        <time>2022-08-29T09:44:22Z</time>
      </trkpt>
      <trkpt lat="42.4207710" lon="-3.1891510">
        <ele>756.6</ele>
        <time>2022-08-29T09:44:23Z</time>
      </trkpt>
      <trkpt lat="42.4207750" lon="-3.1891510">
        <ele>756.6</ele>
        <time>2022-08-29T09:44:24Z</time>
      </trkpt>
      <trkpt lat="42.4207780" lon="-3.1891500">
        <ele>756.8</ele>
        <time>2022-08-29T09:44:25Z</time>
      </trkpt>
      <trkpt lat="42.4207830" lon="-3.1891510">
        <ele>756.6</ele>
        <time>2022-08-29T09:44:26Z</time>
      </trkpt>
      <trkpt lat="42.4207880" lon="-3.1891510">
        <ele>756.8</ele>
        <time>2022-08-29T09:44:27Z</time>
      </trkpt>
      <trkpt lat="42.4207890" lon="-3.1891510">
        <ele>756.6</ele>
        <time>2022-08-29T09:44:28Z</time>
      </trkpt>
      <trkpt lat="42.4207890" lon="-3.1891510">
        <ele>756.8</ele>
        <time>2022-08-29T09:44:29Z</time>
      </trkpt>
      <trkpt lat="42.4207890" lon="-3.1891520">
        <ele>756.6</ele>
        <time>2022-08-29T09:44:30Z</time>
      </trkpt>
      <trkpt lat="42.4207910" lon="-3.1891520">
        <ele>756.8</ele>
        <time>2022-08-29T09:44:31Z</time>
      </trkpt>
      <trkpt lat="42.4207920" lon="-3.1891520">
        <ele>756.6</ele>
        <time>2022-08-29T09:44:32Z</time>
      </trkpt>
      <trkpt lat="42.4207930" lon="-3.1891530">
        <ele>756.6</ele>
        <time>2022-08-29T09:44:33Z</time>
      </trkpt>
      <trkpt lat="42.4207940" lon="-3.1891540">
        <ele>756.8</ele>
        <time>2022-08-29T09:44:34Z</time>
      </trkpt>
      <trkpt lat="42.4207940" lon="-3.1891540">
        <ele>756.8</ele>
        <time>2022-08-29T09:44:35Z</time>
      </trkpt>
      <trkpt lat="42.4207940" lon="-3.1891540">
        <ele>756.8</ele>
        <time>2022-08-29T09:44:36Z</time>
      </trkpt>
      <trkpt lat="42.4207930" lon="-3.1891510">
        <ele>756.8</ele>
        <time>2022-08-29T09:44:37Z</time>
      </trkpt>
      <trkpt lat="42.4207910" lon="-3.1891490">
        <ele>756.8</ele>
        <time>2022-08-29T09:44:38Z</time>
      </trkpt>
      <trkpt lat="42.4207890" lon="-3.1891470">
        <ele>756.8</ele>
        <time>2022-08-29T09:44:39Z</time>
      </trkpt>
      <trkpt lat="42.4207860" lon="-3.1891450">
        <ele>756.8</ele>
        <time>2022-08-29T09:44:40Z</time>
      </trkpt>
      <trkpt lat="42.4207830" lon="-3.1891430">
        <ele>756.8</ele>
        <time>2022-08-29T09:44:41Z</time>
      </trkpt>
      <trkpt lat="42.4207810" lon="-3.1891360">
        <ele>756.8</ele>
        <time>2022-08-29T09:44:42Z</time>
      </trkpt>
      <trkpt lat="42.4207770" lon="-3.1891270">
        <ele>757.0</ele>
        <time>2022-08-29T09:44:43Z</time>
      </trkpt>
      <trkpt lat="42.4207710" lon="-3.1891150">
        <ele>757.0</ele>
        <time>2022-08-29T09:44:44Z</time>
      </trkpt>
      <trkpt lat="42.4207660" lon="-3.1891030">
        <ele>757.0</ele>
        <time>2022-08-29T09:44:45Z</time>
      </trkpt>
      <trkpt lat="42.4207610" lon="-3.1890910">
        <ele>757.0</ele>
        <time>2022-08-29T09:44:46Z</time>
      </trkpt>
      <trkpt lat="42.4207600" lon="-3.1890840">
        <ele>756.8</ele>
        <time>2022-08-29T09:44:47Z</time>
      </trkpt>
      <trkpt lat="42.4207630" lon="-3.1890850">
        <ele>757.0</ele>
        <time>2022-08-29T09:44:48Z</time>
      </trkpt>
      <trkpt lat="42.4207670" lon="-3.1890860">
        <ele>757.0</ele>
        <time>2022-08-29T09:44:49Z</time>
      </trkpt>
      <trkpt lat="42.4207680" lon="-3.1890870">
        <ele>757.0</ele>
        <time>2022-08-29T09:44:50Z</time>
      </trkpt>
      <trkpt lat="42.4207690" lon="-3.1890850">
        <ele>756.8</ele>
        <time>2022-08-29T09:44:51Z</time>
      </trkpt>
      <trkpt lat="42.4207670" lon="-3.1890840">
        <ele>757.0</ele>
        <time>2022-08-29T09:44:52Z</time>
      </trkpt>
      <trkpt lat="42.4207720" lon="-3.1890810">
        <ele>757.0</ele>
        <time>2022-08-29T09:44:53Z</time>
      </trkpt>
      <trkpt lat="42.4207890" lon="-3.1890840">
        <ele>756.8</ele>
        <time>2022-08-29T09:44:54Z</time>
      </trkpt>
      <trkpt lat="42.4207910" lon="-3.1890840">
        <ele>756.8</ele>
        <time>2022-08-29T09:44:55Z</time>
      </trkpt>
      <trkpt lat="42.4207920" lon="-3.1890850">
        <ele>756.8</ele>
        <time>2022-08-29T09:44:56Z</time>
      </trkpt>
      <trkpt lat="42.4207930" lon="-3.1890850">
        <ele>756.8</ele>
        <time>2022-08-29T09:44:57Z</time>
      </trkpt>
      <trkpt lat="42.4207940" lon="-3.1890850">
        <ele>756.8</ele>
        <time>2022-08-29T09:44:58Z</time>
      </trkpt>
      <trkpt lat="42.4207950" lon="-3.1890850">
        <ele>757.0</ele>
        <time>2022-08-29T09:44:59Z</time>
      </trkpt>
      <trkpt lat="42.4207950" lon="-3.1890850">
        <ele>756.8</ele>
        <time>2022-08-29T09:45:00Z</time>
      </trkpt>
      <trkpt lat="42.4207950" lon="-3.1890850">
        <ele>757.0</ele>
        <time>2022-08-29T09:45:01Z</time>
      </trkpt>
      <trkpt lat="42.4207950" lon="-3.1890850">
        <ele>757.0</ele>
        <time>2022-08-29T09:45:02Z</time>
      </trkpt>
      <trkpt lat="42.4207950" lon="-3.1890860">
        <ele>756.8</ele>
        <time>2022-08-29T09:45:03Z</time>
      </trkpt>
      <trkpt lat="42.4207950" lon="-3.1890860">
        <ele>757.0</ele>
        <time>2022-08-29T09:45:04Z</time>
      </trkpt>
      <trkpt lat="42.4207960" lon="-3.1890860">
        <ele>757.0</ele>
        <time>2022-08-29T09:45:05Z</time>
      </trkpt>
      <trkpt lat="42.4207970" lon="-3.1890860">
        <ele>757.0</ele>
        <time>2022-08-29T09:45:06Z</time>
      </trkpt>
      <trkpt lat="42.4207980" lon="-3.1890860">
        <ele>756.8</ele>
        <time>2022-08-29T09:45:07Z</time>
      </trkpt>
      <trkpt lat="42.4207980" lon="-3.1890860">
        <ele>757.0</ele>
        <time>2022-08-29T09:45:08Z</time>
      </trkpt>
      <trkpt lat="42.4208000" lon="-3.1890850">
        <ele>756.8</ele>
        <time>2022-08-29T09:45:09Z</time>
      </trkpt>
      <trkpt lat="42.4208010" lon="-3.1890850">
        <ele>757.0</ele>
        <time>2022-08-29T09:45:10Z</time>
      </trkpt>
      <trkpt lat="42.4208010" lon="-3.1890850">
        <ele>757.0</ele>
        <time>2022-08-29T09:45:11Z</time>
      </trkpt>
      <trkpt lat="42.4208060" lon="-3.1890850">
        <ele>757.0</ele>
        <time>2022-08-29T09:45:12Z</time>
      </trkpt>
      <trkpt lat="42.4208120" lon="-3.1890870">
        <ele>757.0</ele>
        <time>2022-08-29T09:45:13Z</time>
      </trkpt>
      <trkpt lat="42.4208130" lon="-3.1890870">
        <ele>757.0</ele>
        <time>2022-08-29T09:45:14Z</time>
      </trkpt>
      <trkpt lat="42.4208080" lon="-3.1890890">
        <ele>757.0</ele>
        <time>2022-08-29T09:45:15Z</time>
      </trkpt>
      <trkpt lat="42.4208100" lon="-3.1890890">
        <ele>757.0</ele>
        <time>2022-08-29T09:45:16Z</time>
      </trkpt>
      <trkpt lat="42.4208110" lon="-3.1890900">
        <ele>757.2</ele>
        <time>2022-08-29T09:45:17Z</time>
      </trkpt>
      <trkpt lat="42.4208130" lon="-3.1890930">
        <ele>757.0</ele>
        <time>2022-08-29T09:45:18Z</time>
      </trkpt>
      <trkpt lat="42.4208170" lon="-3.1891020">
        <ele>757.2</ele>
        <time>2022-08-29T09:45:19Z</time>
      </trkpt>
      <trkpt lat="42.4208210" lon="-3.1891140">
        <ele>757.0</ele>
        <time>2022-08-29T09:45:20Z</time>
      </trkpt>
      <trkpt lat="42.4208200" lon="-3.1891290">
        <ele>757.0</ele>
        <time>2022-08-29T09:45:21Z</time>
      </trkpt>
      <trkpt lat="42.4208160" lon="-3.1891410">
        <ele>757.0</ele>
        <time>2022-08-29T09:45:22Z</time>
      </trkpt>
      <trkpt lat="42.4208090" lon="-3.1891460">
        <ele>757.2</ele>
        <time>2022-08-29T09:45:23Z</time>
      </trkpt>
      <trkpt lat="42.4208040" lon="-3.1891490">
        <ele>757.2</ele>
        <time>2022-08-29T09:45:24Z</time>
      </trkpt>
      <trkpt lat="42.4207940" lon="-3.1891500">
        <ele>757.2</ele>
        <time>2022-08-29T09:45:25Z</time>
      </trkpt>
      <trkpt lat="42.4207880" lon="-3.1891490">
        <ele>757.0</ele>
        <time>2022-08-29T09:45:26Z</time>
      </trkpt>
      <trkpt lat="42.4207830" lon="-3.1891500">
        <ele>757.2</ele>
        <time>2022-08-29T09:45:27Z</time>
      </trkpt>
      <trkpt lat="42.4207770" lon="-3.1891530">
        <ele>757.0</ele>
        <time>2022-08-29T09:45:28Z</time>
      </trkpt>
      <trkpt lat="42.4207740" lon="-3.1891560">
        <ele>757.2</ele>
        <time>2022-08-29T09:45:29Z</time>
      </trkpt>
      <trkpt lat="42.4207760" lon="-3.1891580">
        <ele>757.2</ele>
        <time>2022-08-29T09:45:30Z</time>
      </trkpt>
      <trkpt lat="42.4207720" lon="-3.1891610">
        <ele>757.2</ele>
        <time>2022-08-29T09:45:31Z</time>
      </trkpt>
      <trkpt lat="42.4207680" lon="-3.1891640">
        <ele>757.2</ele>
        <time>2022-08-29T09:45:32Z</time>
      </trkpt>
      <trkpt lat="42.4207660" lon="-3.1891660">
        <ele>757.2</ele>
        <time>2022-08-29T09:45:33Z</time>
      </trkpt>
      <trkpt lat="42.4207630" lon="-3.1891680">
        <ele>757.2</ele>
        <time>2022-08-29T09:45:34Z</time>
      </trkpt>
      <trkpt lat="42.4207590" lon="-3.1891680">
        <ele>757.2</ele>
        <time>2022-08-29T09:45:35Z</time>
      </trkpt>
      <trkpt lat="42.4207550" lon="-3.1891680">
        <ele>757.2</ele>
        <time>2022-08-29T09:45:36Z</time>
      </trkpt>
      <trkpt lat="42.4207520" lon="-3.1891680">
        <ele>757.2</ele>
        <time>2022-08-29T09:45:37Z</time>
      </trkpt>
      <trkpt lat="42.4207520" lon="-3.1891680">
        <ele>757.4</ele>
        <time>2022-08-29T09:45:38Z</time>
      </trkpt>
      <trkpt lat="42.4207520" lon="-3.1891680">
        <ele>757.4</ele>
        <time>2022-08-29T09:45:39Z</time>
      </trkpt>
      <trkpt lat="42.4207520" lon="-3.1891680">
        <ele>757.4</ele>
        <time>2022-08-29T09:45:40Z</time>
      </trkpt>
      <trkpt lat="42.4207520" lon="-3.1891690">
        <ele>757.4</ele>
        <time>2022-08-29T09:45:41Z</time>
      </trkpt>
      <trkpt lat="42.4207520" lon="-3.1891690">
        <ele>757.4</ele>
        <time>2022-08-29T09:45:42Z</time>
      </trkpt>
      <trkpt lat="42.4207530" lon="-3.1891690">
        <ele>757.4</ele>
        <time>2022-08-29T09:45:43Z</time>
      </trkpt>
      <trkpt lat="42.4207530" lon="-3.1891690">
        <ele>757.4</ele>
        <time>2022-08-29T09:45:44Z</time>
      </trkpt>
      <trkpt lat="42.4207520" lon="-3.1891690">
        <ele>757.4</ele>
        <time>2022-08-29T09:45:45Z</time>
      </trkpt>
      <trkpt lat="42.4207530" lon="-3.1891690">
        <ele>757.4</ele>
        <time>2022-08-29T09:45:46Z</time>
      </trkpt>
      <trkpt lat="42.4207520" lon="-3.1891660">
        <ele>757.4</ele>
        <time>2022-08-29T09:45:47Z</time>
      </trkpt>
      <trkpt lat="42.4207510" lon="-3.1891650">
        <ele>757.4</ele>
        <time>2022-08-29T09:45:48Z</time>
      </trkpt>
      <trkpt lat="42.4207500" lon="-3.1891660">
        <ele>757.4</ele>
        <time>2022-08-29T09:45:49Z</time>
      </trkpt>
      <trkpt lat="42.4207460" lon="-3.1891650">
        <ele>757.6</ele>
        <time>2022-08-29T09:45:50Z</time>
      </trkpt>
      <trkpt lat="42.4207430" lon="-3.1891660">
        <ele>757.4</ele>
        <time>2022-08-29T09:45:51Z</time>
      </trkpt>
      <trkpt lat="42.4207370" lon="-3.1891650">
        <ele>757.4</ele>
        <time>2022-08-29T09:45:52Z</time>
      </trkpt>
      <trkpt lat="42.4207320" lon="-3.1891650">
        <ele>757.4</ele>
        <time>2022-08-29T09:45:53Z</time>
      </trkpt>
      <trkpt lat="42.4207230" lon="-3.1891640">
        <ele>757.6</ele>
        <time>2022-08-29T09:45:54Z</time>
      </trkpt>
      <trkpt lat="42.4207070" lon="-3.1891600">
        <ele>757.4</ele>
        <time>2022-08-29T09:45:55Z</time>
      </trkpt>
      <trkpt lat="42.4206840" lon="-3.1891550">
        <ele>757.4</ele>
        <time>2022-08-29T09:45:56Z</time>
      </trkpt>
      <trkpt lat="42.4206650" lon="-3.1891530">
        <ele>757.4</ele>
        <time>2022-08-29T09:45:57Z</time>
      </trkpt>
      <trkpt lat="42.4206470" lon="-3.1891460">
        <ele>757.6</ele>
        <time>2022-08-29T09:45:58Z</time>
      </trkpt>
      <trkpt lat="42.4206300" lon="-3.1891320">
        <ele>757.6</ele>
        <time>2022-08-29T09:45:59Z</time>
      </trkpt>
      <trkpt lat="42.4206140" lon="-3.1891170">
        <ele>757.4</ele>
        <time>2022-08-29T09:46:00Z</time>
      </trkpt>
      <trkpt lat="42.4206020" lon="-3.1891090">
        <ele>757.4</ele>
        <time>2022-08-29T09:46:01Z</time>
      </trkpt>
      <trkpt lat="42.4205900" lon="-3.1890990">
        <ele>757.6</ele>
        <time>2022-08-29T09:46:02Z</time>
      </trkpt>
      <trkpt lat="42.4205920" lon="-3.1890830">
        <ele>757.6</ele>
        <time>2022-08-29T09:46:03Z</time>
      </trkpt>
      <trkpt lat="42.4205970" lon="-3.1890810">
        <ele>757.6</ele>
        <time>2022-08-29T09:46:04Z</time>
      </trkpt>
      <trkpt lat="42.4206010" lon="-3.1890840">
        <ele>757.8</ele>
        <time>2022-08-29T09:46:05Z</time>
      </trkpt>
      <trkpt lat="42.4206040" lon="-3.1890890">
        <ele>757.6</ele>
        <time>2022-08-29T09:46:06Z</time>
      </trkpt>
      <trkpt lat="42.4206040" lon="-3.1890910">
        <ele>757.6</ele>
        <time>2022-08-29T09:46:07Z</time>
      </trkpt>
      <trkpt lat="42.4206020" lon="-3.1890910">
        <ele>757.6</ele>
        <time>2022-08-29T09:46:08Z</time>
      </trkpt>
      <trkpt lat="42.4206010" lon="-3.1890890">
        <ele>757.8</ele>
        <time>2022-08-29T09:46:09Z</time>
      </trkpt>
      <trkpt lat="42.4205990" lon="-3.1890890">
        <ele>757.8</ele>
        <time>2022-08-29T09:46:10Z</time>
      </trkpt>
      <trkpt lat="42.4205960" lon="-3.1890880">
        <ele>757.8</ele>
        <time>2022-08-29T09:46:11Z</time>
      </trkpt>
      <trkpt lat="42.4205950" lon="-3.1890860">
        <ele>757.6</ele>
        <time>2022-08-29T09:46:12Z</time>
      </trkpt>
      <trkpt lat="42.4205910" lon="-3.1890910">
        <ele>757.8</ele>
        <time>2022-08-29T09:46:13Z</time>
      </trkpt>
      <trkpt lat="42.4205900" lon="-3.1890920">
        <ele>757.8</ele>
        <time>2022-08-29T09:46:14Z</time>
      </trkpt>
      <trkpt lat="42.4205880" lon="-3.1890950">
        <ele>757.8</ele>
        <time>2022-08-29T09:46:15Z</time>
      </trkpt>
      <trkpt lat="42.4205890" lon="-3.1890940">
        <ele>757.8</ele>
        <time>2022-08-29T09:46:16Z</time>
      </trkpt>
      <trkpt lat="42.4205840" lon="-3.1890970">
        <ele>757.8</ele>
        <time>2022-08-29T09:46:17Z</time>
      </trkpt>
      <trkpt lat="42.4205810" lon="-3.1890970">
        <ele>757.8</ele>
        <time>2022-08-29T09:46:18Z</time>
      </trkpt>
      <trkpt lat="42.4205780" lon="-3.1891010">
        <ele>757.8</ele>
        <time>2022-08-29T09:46:19Z</time>
      </trkpt>
      <trkpt lat="42.4205780" lon="-3.1891010">
        <ele>757.8</ele>
        <time>2022-08-29T09:46:20Z</time>
      </trkpt>
      <trkpt lat="42.4205790" lon="-3.1890980">
        <ele>757.8</ele>
        <time>2022-08-29T09:46:21Z</time>
      </trkpt>
      <trkpt lat="42.4205800" lon="-3.1890980">
        <ele>757.8</ele>
        <time>2022-08-29T09:46:22Z</time>
      </trkpt>
      <trkpt lat="42.4205730" lon="-3.1890940">
        <ele>758.0</ele>
        <time>2022-08-29T09:46:23Z</time>
      </trkpt>
      <trkpt lat="42.4205630" lon="-3.1890870">
        <ele>757.8</ele>
        <time>2022-08-29T09:46:24Z</time>
      </trkpt>
      <trkpt lat="42.4205520" lon="-3.1890800">
        <ele>758.0</ele>
        <time>2022-08-29T09:46:25Z</time>
      </trkpt>
      <trkpt lat="42.4205390" lon="-3.1890760">
        <ele>758.0</ele>
        <time>2022-08-29T09:46:26Z</time>
      </trkpt>
      <trkpt lat="42.4205360" lon="-3.1890710">
        <ele>758.0</ele>
        <time>2022-08-29T09:46:27Z</time>
      </trkpt>
      <trkpt lat="42.4205280" lon="-3.1890780">
        <ele>758.0</ele>
        <time>2022-08-29T09:46:28Z</time>
      </trkpt>
      <trkpt lat="42.4205260" lon="-3.1890810">
        <ele>757.8</ele>
        <time>2022-08-29T09:46:29Z</time>
      </trkpt>
      <trkpt lat="42.4205330" lon="-3.1890810">
        <ele>758.0</ele>
        <time>2022-08-29T09:46:30Z</time>
      </trkpt>
      <trkpt lat="42.4205400" lon="-3.1890920">
        <ele>758.0</ele>
        <time>2022-08-29T09:46:31Z</time>
      </trkpt>
      <trkpt lat="42.4205550" lon="-3.1890970">
        <ele>757.8</ele>
        <time>2022-08-29T09:46:32Z</time>
      </trkpt>
      <trkpt lat="42.4205740" lon="-3.1890950">
        <ele>758.0</ele>
        <time>2022-08-29T09:46:33Z</time>
      </trkpt>
      <trkpt lat="42.4205940" lon="-3.1890900">
        <ele>758.0</ele>
        <time>2022-08-29T09:46:34Z</time>
      </trkpt>
      <trkpt lat="42.4206130" lon="-3.1890870">
        <ele>758.0</ele>
        <time>2022-08-29T09:46:35Z</time>
      </trkpt>
      <trkpt lat="42.4206290" lon="-3.1890920">
        <ele>757.8</ele>
        <time>2022-08-29T09:46:36Z</time>
      </trkpt>
      <trkpt lat="42.4206310" lon="-3.1891170">
        <ele>757.8</ele>
        <time>2022-08-29T09:46:37Z</time>
      </trkpt>
      <trkpt lat="42.4206430" lon="-3.1891380">
        <ele>757.8</ele>
        <time>2022-08-29T09:46:38Z</time>
      </trkpt>
      <trkpt lat="42.4206650" lon="-3.1891260">
        <ele>757.8</ele>
        <time>2022-08-29T09:46:39Z</time>
      </trkpt>
      <trkpt lat="42.4206870" lon="-3.1891300">
        <ele>757.8</ele>
        <time>2022-08-29T09:46:40Z</time>
      </trkpt>
      <trkpt lat="42.4206890" lon="-3.1891480">
        <ele>757.8</ele>
        <time>2022-08-29T09:46:41Z</time>
      </trkpt>
      <trkpt lat="42.4206690" lon="-3.1891530">
        <ele>757.8</ele>
        <time>2022-08-29T09:46:42Z</time>
      </trkpt>
      <trkpt lat="42.4206520" lon="-3.1891510">
        <ele>757.6</ele>
        <time>2022-08-29T09:46:43Z</time>
      </trkpt>
      <trkpt lat="42.4206400" lon="-3.1891540">
        <ele>757.6</ele>
        <time>2022-08-29T09:46:44Z</time>
      </trkpt>
      <trkpt lat="42.4206130" lon="-3.1891620">
        <ele>757.6</ele>
        <time>2022-08-29T09:46:45Z</time>
      </trkpt>
      <trkpt lat="42.4205840" lon="-3.1891690">
        <ele>757.6</ele>
        <time>2022-08-29T09:46:46Z</time>
      </trkpt>
      <trkpt lat="42.4205530" lon="-3.1891670">
        <ele>757.6</ele>
        <time>2022-08-29T09:46:47Z</time>
      </trkpt>
      <trkpt lat="42.4205310" lon="-3.1891670">
        <ele>757.6</ele>
        <time>2022-08-29T09:46:48Z</time>
      </trkpt>
      <trkpt lat="42.4205160" lon="-3.1891710">
        <ele>757.6</ele>
        <time>2022-08-29T09:46:49Z</time>
      </trkpt>
      <trkpt lat="42.4205060" lon="-3.1891780">
        <ele>757.6</ele>
        <time>2022-08-29T09:46:50Z</time>
      </trkpt>
      <trkpt lat="42.4205000" lon="-3.1891920">
        <ele>757.6</ele>
        <time>2022-08-29T09:46:51Z</time>
      </trkpt>
      <trkpt lat="42.4204960" lon="-3.1892160">
        <ele>757.6</ele>
        <time>2022-08-29T09:46:52Z</time>
      </trkpt>
      <trkpt lat="42.4204890" lon="-3.1892450">
        <ele>757.6</ele>
        <time>2022-08-29T09:46:53Z</time>
      </trkpt>
      <trkpt lat="42.4204870" lon="-3.1892740">
        <ele>757.6</ele>
        <time>2022-08-29T09:46:54Z</time>
      </trkpt>
      <trkpt lat="42.4204920" lon="-3.1893030">
        <ele>757.6</ele>
        <time>2022-08-29T09:46:55Z</time>
      </trkpt>
      <trkpt lat="42.4204880" lon="-3.1893340">
        <ele>757.8</ele>
        <time>2022-08-29T09:46:56Z</time>
      </trkpt>
      <trkpt lat="42.4204920" lon="-3.1893590">
        <ele>757.8</ele>
        <time>2022-08-29T09:46:57Z</time>
      </trkpt>
      <trkpt lat="42.4204850" lon="-3.1893830">
        <ele>757.8</ele>
        <time>2022-08-29T09:46:58Z</time>
      </trkpt>
      <trkpt lat="42.4204800" lon="-3.1894120">
        <ele>757.8</ele>
        <time>2022-08-29T09:46:59Z</time>
      </trkpt>
      <trkpt lat="42.4204800" lon="-3.1894440">
        <ele>757.8</ele>
        <time>2022-08-29T09:47:00Z</time>
      </trkpt>
      <trkpt lat="42.4204810" lon="-3.1894780">
        <ele>757.8</ele>
        <time>2022-08-29T09:47:01Z</time>
      </trkpt>
      <trkpt lat="42.4204820" lon="-3.1895110">
        <ele>757.8</ele>
        <time>2022-08-29T09:47:02Z</time>
      </trkpt>
      <trkpt lat="42.4204750" lon="-3.1895480">
        <ele>757.8</ele>
        <time>2022-08-29T09:47:03Z</time>
      </trkpt>
      <trkpt lat="42.4204710" lon="-3.1895850">
        <ele>758.0</ele>
        <time>2022-08-29T09:47:04Z</time>
      </trkpt>
      <trkpt lat="42.4204730" lon="-3.1896290">
        <ele>758.0</ele>
        <time>2022-08-29T09:47:05Z</time>
      </trkpt>
      <trkpt lat="42.4204620" lon="-3.1896690">
        <ele>758.0</ele>
        <time>2022-08-29T09:47:06Z</time>
      </trkpt>
      <trkpt lat="42.4204700" lon="-3.1897130">
        <ele>758.0</ele>
        <time>2022-08-29T09:47:07Z</time>
      </trkpt>
      <trkpt lat="42.4204720" lon="-3.1897480">
        <ele>757.8</ele>
        <time>2022-08-29T09:47:08Z</time>
      </trkpt>
      <trkpt lat="42.4204830" lon="-3.1897790">
        <ele>757.6</ele>
        <time>2022-08-29T09:47:09Z</time>
      </trkpt>
      <trkpt lat="42.4205230" lon="-3.1898140">
        <ele>757.6</ele>
        <time>2022-08-29T09:47:10Z</time>
      </trkpt>
      <trkpt lat="42.4205380" lon="-3.1898450">
        <ele>757.6</ele>
        <time>2022-08-29T09:47:11Z</time>
      </trkpt>
      <trkpt lat="42.4205400" lon="-3.1898750">
        <ele>757.6</ele>
        <time>2022-08-29T09:47:12Z</time>
      </trkpt>
      <trkpt lat="42.4205520" lon="-3.1899030">
        <ele>757.4</ele>
        <time>2022-08-29T09:47:13Z</time>
      </trkpt>
      <trkpt lat="42.4205690" lon="-3.1899300">
        <ele>757.4</ele>
        <time>2022-08-29T09:47:14Z</time>
      </trkpt>
      <trkpt lat="42.4205760" lon="-3.1899300">
        <ele>757.2</ele>
        <time>2022-08-29T09:47:15Z</time>
      </trkpt>
      <trkpt lat="42.4205820" lon="-3.1899190">
        <ele>757.2</ele>
        <time>2022-08-29T09:47:16Z</time>
      </trkpt>
      <trkpt lat="42.4206080" lon="-3.1899090">
        <ele>756.8</ele>
        <time>2022-08-29T09:47:17Z</time>
      </trkpt>
      <trkpt lat="42.4206130" lon="-3.1899130">
        <ele>757.0</ele>
        <time>2022-08-29T09:47:18Z</time>
      </trkpt>
      <trkpt lat="42.4206200" lon="-3.1899170">
        <ele>756.6</ele>
        <time>2022-08-29T09:47:19Z</time>
      </trkpt>
      <trkpt lat="42.4206150" lon="-3.1899190">
        <ele>756.6</ele>
        <time>2022-08-29T09:47:20Z</time>
      </trkpt>
      <trkpt lat="42.4206110" lon="-3.1899180">
        <ele>756.6</ele>
        <time>2022-08-29T09:47:21Z</time>
      </trkpt>
      <trkpt lat="42.4206070" lon="-3.1899200">
        <ele>756.6</ele>
        <time>2022-08-29T09:47:22Z</time>
      </trkpt>
      <trkpt lat="42.4206070" lon="-3.1899200">
        <ele>756.4</ele>
        <time>2022-08-29T09:47:23Z</time>
      </trkpt>
      <trkpt lat="42.4206070" lon="-3.1899200">
        <ele>756.4</ele>
        <time>2022-08-29T09:47:24Z</time>
      </trkpt>
      <trkpt lat="42.4206070" lon="-3.1899210">
        <ele>756.2</ele>
        <time>2022-08-29T09:47:25Z</time>
      </trkpt>
      <trkpt lat="42.4206070" lon="-3.1899210">
        <ele>756.4</ele>
        <time>2022-08-29T09:47:26Z</time>
      </trkpt>
      <trkpt lat="42.4206070" lon="-3.1899210">
        <ele>756.2</ele>
        <time>2022-08-29T09:47:27Z</time>
      </trkpt>
      <trkpt lat="42.4206070" lon="-3.1899210">
        <ele>756.4</ele>
        <time>2022-08-29T09:47:28Z</time>
      </trkpt>
      <trkpt lat="42.4206070" lon="-3.1899210">
        <ele>756.2</ele>
        <time>2022-08-29T09:47:29Z</time>
      </trkpt>
      <trkpt lat="42.4206060" lon="-3.1899220">
        <ele>756.4</ele>
        <time>2022-08-29T09:47:30Z</time>
      </trkpt>
      <trkpt lat="42.4206060" lon="-3.1899220">
        <ele>756.4</ele>
        <time>2022-08-29T09:47:31Z</time>
      </trkpt>
      <trkpt lat="42.4206060" lon="-3.1899230">
        <ele>756.4</ele>
        <time>2022-08-29T09:47:32Z</time>
      </trkpt>
      <trkpt lat="42.4206060" lon="-3.1899230">
        <ele>756.4</ele>
        <time>2022-08-29T09:47:33Z</time>
      </trkpt>
      <trkpt lat="42.4206060" lon="-3.1899230">
        <ele>756.4</ele>
        <time>2022-08-29T09:47:34Z</time>
      </trkpt>
      <trkpt lat="42.4206060" lon="-3.1899230">
        <ele>756.4</ele>
        <time>2022-08-29T09:47:35Z</time>
      </trkpt>
      <trkpt lat="42.4206060" lon="-3.1899240">
        <ele>756.4</ele>
        <time>2022-08-29T09:47:36Z</time>
      </trkpt>
      <trkpt lat="42.4206060" lon="-3.1899240">
        <ele>756.4</ele>
        <time>2022-08-29T09:47:37Z</time>
      </trkpt>
      <trkpt lat="42.4206060" lon="-3.1899240">
        <ele>756.4</ele>
        <time>2022-08-29T09:47:38Z</time>
      </trkpt>
      <trkpt lat="42.4206060" lon="-3.1899240">
        <ele>756.4</ele>
        <time>2022-08-29T09:47:39Z</time>
      </trkpt>
      <trkpt lat="42.4206060" lon="-3.1899240">
        <ele>756.4</ele>
        <time>2022-08-29T09:47:40Z</time>
      </trkpt>
      <trkpt lat="42.4206060" lon="-3.1899240">
        <ele>756.4</ele>
        <time>2022-08-29T09:47:41Z</time>
      </trkpt>
      <trkpt lat="42.4206060" lon="-3.1899250">
        <ele>756.4</ele>
        <time>2022-08-29T09:47:42Z</time>
      </trkpt>
      <trkpt lat="42.4206060" lon="-3.1899250">
        <ele>756.4</ele>
        <time>2022-08-29T09:47:43Z</time>
      </trkpt>
      <trkpt lat="42.4206050" lon="-3.1899250">
        <ele>756.4</ele>
        <time>2022-08-29T09:47:44Z</time>
      </trkpt>
      <trkpt lat="42.4206050" lon="-3.1899240">
        <ele>756.4</ele>
        <time>2022-08-29T09:47:45Z</time>
      </trkpt>
      <trkpt lat="42.4206050" lon="-3.1899240">
        <ele>756.4</ele>
        <time>2022-08-29T09:47:46Z</time>
      </trkpt>
      <trkpt lat="42.4206050" lon="-3.1899240">
        <ele>756.4</ele>
        <time>2022-08-29T09:47:47Z</time>
      </trkpt>
      <trkpt lat="42.4206050" lon="-3.1899240">
        <ele>756.4</ele>
        <time>2022-08-29T09:47:48Z</time>
      </trkpt>
      <trkpt lat="42.4206050" lon="-3.1899240">
        <ele>756.6</ele>
        <time>2022-08-29T09:47:49Z</time>
      </trkpt>
      <trkpt lat="42.4206050" lon="-3.1899250">
        <ele>756.4</ele>
        <time>2022-08-29T09:47:50Z</time>
      </trkpt>
      <trkpt lat="42.4206050" lon="-3.1899260">
        <ele>756.4</ele>
        <time>2022-08-29T09:47:51Z</time>
      </trkpt>
      <trkpt lat="42.4205980" lon="-3.1899360">
        <ele>756.4</ele>
        <time>2022-08-29T09:47:52Z</time>
      </trkpt>
      <trkpt lat="42.4205900" lon="-3.1899480">
        <ele>756.6</ele>
        <time>2022-08-29T09:47:53Z</time>
      </trkpt>
      <trkpt lat="42.4205800" lon="-3.1899590">
        <ele>756.4</ele>
        <time>2022-08-29T09:47:54Z</time>
      </trkpt>
      <trkpt lat="42.4205690" lon="-3.1899690">
        <ele>756.4</ele>
        <time>2022-08-29T09:47:55Z</time>
      </trkpt>
      <trkpt lat="42.4205590" lon="-3.1899790">
        <ele>756.6</ele>
        <time>2022-08-29T09:47:56Z</time>
      </trkpt>
      <trkpt lat="42.4205490" lon="-3.1899880">
        <ele>756.4</ele>
        <time>2022-08-29T09:47:57Z</time>
      </trkpt>
      <trkpt lat="42.4205400" lon="-3.1899950">
        <ele>756.4</ele>
        <time>2022-08-29T09:47:58Z</time>
      </trkpt>
      <trkpt lat="42.4205330" lon="-3.1899990">
        <ele>756.4</ele>
        <time>2022-08-29T09:47:59Z</time>
      </trkpt>
      <trkpt lat="42.4205310" lon="-3.1900020">
        <ele>756.4</ele>
        <time>2022-08-29T09:48:00Z</time>
      </trkpt>
      <trkpt lat="42.4205280" lon="-3.1900030">
        <ele>756.4</ele>
        <time>2022-08-29T09:48:01Z</time>
      </trkpt>
      <trkpt lat="42.4205270" lon="-3.1900040">
        <ele>756.4</ele>
        <time>2022-08-29T09:48:02Z</time>
      </trkpt>
      <trkpt lat="42.4205260" lon="-3.1900060">
        <ele>756.4</ele>
        <time>2022-08-29T09:48:03Z</time>
      </trkpt>
      <trkpt lat="42.4205230" lon="-3.1900060">
        <ele>756.4</ele>
        <time>2022-08-29T09:48:04Z</time>
      </trkpt>
      <trkpt lat="42.4205230" lon="-3.1900060">
        <ele>756.4</ele>
        <time>2022-08-29T09:48:05Z</time>
      </trkpt>
      <trkpt lat="42.4205230" lon="-3.1900060">
        <ele>756.4</ele>
        <time>2022-08-29T09:48:06Z</time>
      </trkpt>
      <trkpt lat="42.4205220" lon="-3.1900070">
        <ele>756.4</ele>
        <time>2022-08-29T09:48:07Z</time>
      </trkpt>
      <trkpt lat="42.4205220" lon="-3.1900070">
        <ele>756.4</ele>
        <time>2022-08-29T09:48:08Z</time>
      </trkpt>
      <trkpt lat="42.4205220" lon="-3.1900080">
        <ele>756.4</ele>
        <time>2022-08-29T09:48:09Z</time>
      </trkpt>
      <trkpt lat="42.4205210" lon="-3.1900080">
        <ele>756.4</ele>
        <time>2022-08-29T09:48:10Z</time>
      </trkpt>
      <trkpt lat="42.4205210" lon="-3.1900080">
        <ele>756.6</ele>
        <time>2022-08-29T09:48:11Z</time>
      </trkpt>
      <trkpt lat="42.4205210" lon="-3.1900080">
        <ele>756.4</ele>
        <time>2022-08-29T09:48:12Z</time>
      </trkpt>
      <trkpt lat="42.4205200" lon="-3.1900090">
        <ele>756.6</ele>
        <time>2022-08-29T09:48:13Z</time>
      </trkpt>
      <trkpt lat="42.4205200" lon="-3.1900090">
        <ele>756.4</ele>
        <time>2022-08-29T09:48:14Z</time>
      </trkpt>
      <trkpt lat="42.4205190" lon="-3.1900110">
        <ele>756.6</ele>
        <time>2022-08-29T09:48:15Z</time>
      </trkpt>
      <trkpt lat="42.4205190" lon="-3.1900120">
        <ele>756.6</ele>
        <time>2022-08-29T09:48:16Z</time>
      </trkpt>
      <trkpt lat="42.4205190" lon="-3.1900120">
        <ele>756.6</ele>
        <time>2022-08-29T09:48:17Z</time>
      </trkpt>
      <trkpt lat="42.4205180" lon="-3.1900130">
        <ele>756.4</ele>
        <time>2022-08-29T09:48:18Z</time>
      </trkpt>
      <trkpt lat="42.4205170" lon="-3.1900130">
        <ele>756.4</ele>
        <time>2022-08-29T09:48:19Z</time>
      </trkpt>
      <trkpt lat="42.4205160" lon="-3.1900140">
        <ele>756.6</ele>
        <time>2022-08-29T09:48:20Z</time>
      </trkpt>
      <trkpt lat="42.4205140" lon="-3.1900150">
        <ele>756.4</ele>
        <time>2022-08-29T09:48:21Z</time>
      </trkpt>
      <trkpt lat="42.4205140" lon="-3.1900150">
        <ele>756.4</ele>
        <time>2022-08-29T09:48:22Z</time>
      </trkpt>
      <trkpt lat="42.4205130" lon="-3.1900150">
        <ele>756.6</ele>
        <time>2022-08-29T09:48:23Z</time>
      </trkpt>
      <trkpt lat="42.4205120" lon="-3.1900160">
        <ele>756.6</ele>
        <time>2022-08-29T09:48:24Z</time>
      </trkpt>
      <trkpt lat="42.4205110" lon="-3.1900170">
        <ele>756.4</ele>
        <time>2022-08-29T09:48:25Z</time>
      </trkpt>
      <trkpt lat="42.4205100" lon="-3.1900180">
        <ele>756.6</ele>
        <time>2022-08-29T09:48:26Z</time>
      </trkpt>
      <trkpt lat="42.4205090" lon="-3.1900210">
        <ele>756.6</ele>
        <time>2022-08-29T09:48:27Z</time>
      </trkpt>
      <trkpt lat="42.4205090" lon="-3.1900210">
        <ele>756.4</ele>
        <time>2022-08-29T09:48:28Z</time>
      </trkpt>
      <trkpt lat="42.4205080" lon="-3.1900210">
        <ele>756.4</ele>
        <time>2022-08-29T09:48:29Z</time>
      </trkpt>
      <trkpt lat="42.4205080" lon="-3.1900220">
        <ele>756.6</ele>
        <time>2022-08-29T09:48:30Z</time>
      </trkpt>
      <trkpt lat="42.4205070" lon="-3.1900230">
        <ele>756.4</ele>
        <time>2022-08-29T09:48:31Z</time>
      </trkpt>
      <trkpt lat="42.4205060" lon="-3.1900240">
        <ele>756.6</ele>
        <time>2022-08-29T09:48:32Z</time>
      </trkpt>
      <trkpt lat="42.4204990" lon="-3.1900250">
        <ele>756.6</ele>
        <time>2022-08-29T09:48:33Z</time>
      </trkpt>
      <trkpt lat="42.4204930" lon="-3.1900210">
        <ele>756.4</ele>
        <time>2022-08-29T09:48:34Z</time>
      </trkpt>
      <trkpt lat="42.4204920" lon="-3.1900120">
        <ele>756.6</ele>
        <time>2022-08-29T09:48:35Z</time>
      </trkpt>
      <trkpt lat="42.4204980" lon="-3.1900070">
        <ele>756.4</ele>
        <time>2022-08-29T09:48:36Z</time>
      </trkpt>
      <trkpt lat="42.4205040" lon="-3.1900030">
        <ele>756.4</ele>
        <time>2022-08-29T09:48:37Z</time>
      </trkpt>
      <trkpt lat="42.4205070" lon="-3.1900010">
        <ele>756.4</ele>
        <time>2022-08-29T09:48:38Z</time>
      </trkpt>
      <trkpt lat="42.4205080" lon="-3.1899980">
        <ele>756.4</ele>
        <time>2022-08-29T09:48:39Z</time>
      </trkpt>
      <trkpt lat="42.4205080" lon="-3.1899990">
        <ele>756.4</ele>
        <time>2022-08-29T09:48:40Z</time>
      </trkpt>
      <trkpt lat="42.4205070" lon="-3.1900000">
        <ele>756.4</ele>
        <time>2022-08-29T09:48:41Z</time>
      </trkpt>
      <trkpt lat="42.4205060" lon="-3.1899980">
        <ele>756.6</ele>
        <time>2022-08-29T09:48:42Z</time>
      </trkpt>
      <trkpt lat="42.4205040" lon="-3.1899960">
        <ele>756.4</ele>
        <time>2022-08-29T09:48:43Z</time>
      </trkpt>
      <trkpt lat="42.4205040" lon="-3.1899940">
        <ele>756.6</ele>
        <time>2022-08-29T09:48:44Z</time>
      </trkpt>
      <trkpt lat="42.4205040" lon="-3.1899920">
        <ele>756.4</ele>
        <time>2022-08-29T09:48:45Z</time>
      </trkpt>
      <trkpt lat="42.4205030" lon="-3.1899900">
        <ele>756.4</ele>
        <time>2022-08-29T09:48:46Z</time>
      </trkpt>
      <trkpt lat="42.4205030" lon="-3.1899890">
        <ele>756.6</ele>
        <time>2022-08-29T09:48:47Z</time>
      </trkpt>
      <trkpt lat="42.4205010" lon="-3.1899870">
        <ele>756.6</ele>
        <time>2022-08-29T09:48:48Z</time>
      </trkpt>
      <trkpt lat="42.4204990" lon="-3.1899870">
        <ele>756.6</ele>
        <time>2022-08-29T09:48:49Z</time>
      </trkpt>
      <trkpt lat="42.4204990" lon="-3.1899870">
        <ele>756.6</ele>
        <time>2022-08-29T09:48:50Z</time>
      </trkpt>
      <trkpt lat="42.4204990" lon="-3.1899870">
        <ele>756.6</ele>
        <time>2022-08-29T09:48:51Z</time>
      </trkpt>
      <trkpt lat="42.4204990" lon="-3.1899880">
        <ele>756.4</ele>
        <time>2022-08-29T09:48:52Z</time>
      </trkpt>
      <trkpt lat="42.4204990" lon="-3.1899880">
        <ele>756.6</ele>
        <time>2022-08-29T09:48:53Z</time>
      </trkpt>
      <trkpt lat="42.4204990" lon="-3.1899880">
        <ele>756.6</ele>
        <time>2022-08-29T09:48:54Z</time>
      </trkpt>
      <trkpt lat="42.4204990" lon="-3.1899880">
        <ele>756.6</ele>
        <time>2022-08-29T09:48:55Z</time>
      </trkpt>
      <trkpt lat="42.4204990" lon="-3.1899880">
        <ele>756.6</ele>
        <time>2022-08-29T09:48:56Z</time>
      </trkpt>
      <trkpt lat="42.4204980" lon="-3.1899890">
        <ele>756.8</ele>
        <time>2022-08-29T09:48:57Z</time>
      </trkpt>
      <trkpt lat="42.4204980" lon="-3.1899880">
        <ele>756.8</ele>
        <time>2022-08-29T09:48:58Z</time>
      </trkpt>
      <trkpt lat="42.4204990" lon="-3.1899870">
        <ele>756.6</ele>
        <time>2022-08-29T09:48:59Z</time>
      </trkpt>
      <trkpt lat="42.4204990" lon="-3.1899870">
        <ele>756.6</ele>
        <time>2022-08-29T09:49:00Z</time>
      </trkpt>
      <trkpt lat="42.4204990" lon="-3.1899870">
        <ele>756.8</ele>
        <time>2022-08-29T09:49:01Z</time>
      </trkpt>
      <trkpt lat="42.4204980" lon="-3.1899870">
        <ele>756.8</ele>
        <time>2022-08-29T09:49:02Z</time>
      </trkpt>
      <trkpt lat="42.4204980" lon="-3.1899870">
        <ele>756.8</ele>
        <time>2022-08-29T09:49:03Z</time>
      </trkpt>
      <trkpt lat="42.4204980" lon="-3.1899870">
        <ele>756.8</ele>
        <time>2022-08-29T09:49:04Z</time>
      </trkpt>
      <trkpt lat="42.4204980" lon="-3.1899860">
        <ele>756.8</ele>
        <time>2022-08-29T09:49:05Z</time>
      </trkpt>
      <trkpt lat="42.4204980" lon="-3.1899860">
        <ele>756.8</ele>
        <time>2022-08-29T09:49:06Z</time>
      </trkpt>
      <trkpt lat="42.4204980" lon="-3.1899860">
        <ele>757.0</ele>
        <time>2022-08-29T09:49:07Z</time>
      </trkpt>
      <trkpt lat="42.4204980" lon="-3.1899860">
        <ele>756.8</ele>
        <time>2022-08-29T09:49:08Z</time>
      </trkpt>
      <trkpt lat="42.4204980" lon="-3.1899860">
        <ele>756.8</ele>
        <time>2022-08-29T09:49:09Z</time>
      </trkpt>
      <trkpt lat="42.4204980" lon="-3.1899860">
        <ele>757.0</ele>
        <time>2022-08-29T09:49:10Z</time>
      </trkpt>
      <trkpt lat="42.4204980" lon="-3.1899850">
        <ele>756.8</ele>
        <time>2022-08-29T09:49:11Z</time>
      </trkpt>
      <trkpt lat="42.4204990" lon="-3.1899850">
        <ele>756.8</ele>
        <time>2022-08-29T09:49:12Z</time>
      </trkpt>
      <trkpt lat="42.4204990" lon="-3.1899850">
        <ele>756.8</ele>
        <time>2022-08-29T09:49:13Z</time>
      </trkpt>
      <trkpt lat="42.4204980" lon="-3.1899850">
        <ele>756.8</ele>
        <time>2022-08-29T09:49:14Z</time>
      </trkpt>
      <trkpt lat="42.4204980" lon="-3.1899850">
        <ele>756.8</ele>
        <time>2022-08-29T09:49:15Z</time>
      </trkpt>
      <trkpt lat="42.4204980" lon="-3.1899850">
        <ele>757.0</ele>
        <time>2022-08-29T09:49:16Z</time>
      </trkpt>
      <trkpt lat="42.4204980" lon="-3.1899850">
        <ele>756.8</ele>
        <time>2022-08-29T09:49:17Z</time>
      </trkpt>
      <trkpt lat="42.4204990" lon="-3.1899840">
        <ele>756.8</ele>
        <time>2022-08-29T09:49:18Z</time>
      </trkpt>
      <trkpt lat="42.4205020" lon="-3.1899830">
        <ele>757.0</ele>
        <time>2022-08-29T09:49:19Z</time>
      </trkpt>
      <trkpt lat="42.4205060" lon="-3.1899820">
        <ele>757.0</ele>
        <time>2022-08-29T09:49:20Z</time>
      </trkpt>
      <trkpt lat="42.4205080" lon="-3.1899800">
        <ele>756.8</ele>
        <time>2022-08-29T09:49:21Z</time>
      </trkpt>
      <trkpt lat="42.4205140" lon="-3.1899760">
        <ele>756.8</ele>
        <time>2022-08-29T09:49:22Z</time>
      </trkpt>
      <trkpt lat="42.4205280" lon="-3.1899690">
        <ele>756.8</ele>
        <time>2022-08-29T09:49:23Z</time>
      </trkpt>
      <trkpt lat="42.4205390" lon="-3.1899700">
        <ele>756.8</ele>
        <time>2022-08-29T09:49:24Z</time>
      </trkpt>
      <trkpt lat="42.4205510" lon="-3.1899720">
        <ele>756.8</ele>
        <time>2022-08-29T09:49:25Z</time>
      </trkpt>
      <trkpt lat="42.4205640" lon="-3.1899740">
        <ele>757.0</ele>
        <time>2022-08-29T09:49:26Z</time>
      </trkpt>
      <trkpt lat="42.4205820" lon="-3.1899740">
        <ele>756.8</ele>
        <time>2022-08-29T09:49:27Z</time>
      </trkpt>
      <trkpt lat="42.4205990" lon="-3.1899750">
        <ele>757.0</ele>
        <time>2022-08-29T09:49:28Z</time>
      </trkpt>
      <trkpt lat="42.4206150" lon="-3.1899740">
        <ele>757.0</ele>
        <time>2022-08-29T09:49:29Z</time>
      </trkpt>
      <trkpt lat="42.4206290" lon="-3.1899700">
        <ele>756.8</ele>
        <time>2022-08-29T09:49:30Z</time>
      </trkpt>
      <trkpt lat="42.4206430" lon="-3.1899690">
        <ele>757.0</ele>
        <time>2022-08-29T09:49:31Z</time>
      </trkpt>
      <trkpt lat="42.4206560" lon="-3.1899730">
        <ele>756.8</ele>
        <time>2022-08-29T09:49:32Z</time>
      </trkpt>
      <trkpt lat="42.4206680" lon="-3.1899810">
        <ele>756.8</ele>
        <time>2022-08-29T09:49:33Z</time>
      </trkpt>
      <trkpt lat="42.4206800" lon="-3.1899910">
        <ele>757.0</ele>
        <time>2022-08-29T09:49:34Z</time>
      </trkpt>
      <trkpt lat="42.4206930" lon="-3.1900030">
        <ele>756.8</ele>
        <time>2022-08-29T09:49:35Z</time>
      </trkpt>
      <trkpt lat="42.4207050" lon="-3.1900140">
        <ele>756.8</ele>
        <time>2022-08-29T09:49:36Z</time>
      </trkpt>
      <trkpt lat="42.4207170" lon="-3.1900280">
        <ele>756.8</ele>
        <time>2022-08-29T09:49:37Z</time>
      </trkpt>
      <trkpt lat="42.4207290" lon="-3.1900420">
        <ele>756.8</ele>
        <time>2022-08-29T09:49:38Z</time>
      </trkpt>
      <trkpt lat="42.4207410" lon="-3.1900530">
        <ele>756.8</ele>
        <time>2022-08-29T09:49:39Z</time>
      </trkpt>
      <trkpt lat="42.4207560" lon="-3.1900610">
        <ele>756.6</ele>
        <time>2022-08-29T09:49:40Z</time>
      </trkpt>
      <trkpt lat="42.4207720" lon="-3.1900640">
        <ele>756.8</ele>
        <time>2022-08-29T09:49:41Z</time>
      </trkpt>
      <trkpt lat="42.4207870" lon="-3.1900650">
        <ele>756.8</ele>
        <time>2022-08-29T09:49:42Z</time>
      </trkpt>
      <trkpt lat="42.4208010" lon="-3.1900660">
        <ele>756.6</ele>
        <time>2022-08-29T09:49:43Z</time>
      </trkpt>
      <trkpt lat="42.4208110" lon="-3.1900670">
        <ele>756.6</ele>
        <time>2022-08-29T09:49:44Z</time>
      </trkpt>
      <trkpt lat="42.4208220" lon="-3.1900670">
        <ele>756.6</ele>
        <time>2022-08-29T09:49:45Z</time>
      </trkpt>
      <trkpt lat="42.4208330" lon="-3.1900660">
        <ele>756.6</ele>
        <time>2022-08-29T09:49:46Z</time>
      </trkpt>
      <trkpt lat="42.4208430" lon="-3.1900600">
        <ele>756.6</ele>
        <time>2022-08-29T09:49:47Z</time>
      </trkpt>
      <trkpt lat="42.4208550" lon="-3.1900540">
        <ele>756.8</ele>
        <time>2022-08-29T09:49:48Z</time>
      </trkpt>
      <trkpt lat="42.4208670" lon="-3.1900540">
        <ele>756.6</ele>
        <time>2022-08-29T09:49:49Z</time>
      </trkpt>
      <trkpt lat="42.4208670" lon="-3.1900620">
        <ele>756.6</ele>
        <time>2022-08-29T09:49:50Z</time>
      </trkpt>
      <trkpt lat="42.4208570" lon="-3.1900670">
        <ele>756.6</ele>
        <time>2022-08-29T09:49:51Z</time>
      </trkpt>
      <trkpt lat="42.4208450" lon="-3.1900640">
        <ele>756.6</ele>
        <time>2022-08-29T09:49:52Z</time>
      </trkpt>
      <trkpt lat="42.4208300" lon="-3.1900610">
        <ele>756.6</ele>
        <time>2022-08-29T09:49:53Z</time>
      </trkpt>
      <trkpt lat="42.4208150" lon="-3.1900610">
        <ele>756.6</ele>
        <time>2022-08-29T09:49:54Z</time>
      </trkpt>
      <trkpt lat="42.4208010" lon="-3.1900660">
        <ele>756.6</ele>
        <time>2022-08-29T09:49:55Z</time>
      </trkpt>
      <trkpt lat="42.4207840" lon="-3.1900660">
        <ele>756.4</ele>
        <time>2022-08-29T09:49:56Z</time>
      </trkpt>
      <trkpt lat="42.4207670" lon="-3.1900650">
        <ele>756.4</ele>
        <time>2022-08-29T09:49:57Z</time>
      </trkpt>
      <trkpt lat="42.4207510" lon="-3.1900660">
        <ele>756.6</ele>
        <time>2022-08-29T09:49:58Z</time>
      </trkpt>
      <trkpt lat="42.4207390" lon="-3.1900740">
        <ele>756.6</ele>
        <time>2022-08-29T09:49:59Z</time>
      </trkpt>
      <trkpt lat="42.4207350" lon="-3.1900890">
        <ele>756.6</ele>
        <time>2022-08-29T09:50:00Z</time>
      </trkpt>
      <trkpt lat="42.4207360" lon="-3.1901060">
        <ele>756.6</ele>
        <time>2022-08-29T09:50:01Z</time>
      </trkpt>
      <trkpt lat="42.4207360" lon="-3.1901200">
        <ele>756.6</ele>
        <time>2022-08-29T09:50:02Z</time>
      </trkpt>
      <trkpt lat="42.4207380" lon="-3.1901340">
        <ele>756.6</ele>
        <time>2022-08-29T09:50:03Z</time>
      </trkpt>
      <trkpt lat="42.4207400" lon="-3.1901450">
        <ele>756.4</ele>
        <time>2022-08-29T09:50:04Z</time>
      </trkpt>
      <trkpt lat="42.4207440" lon="-3.1901550">
        <ele>756.4</ele>
        <time>2022-08-29T09:50:05Z</time>
      </trkpt>
      <trkpt lat="42.4207500" lon="-3.1901650">
        <ele>756.6</ele>
        <time>2022-08-29T09:50:06Z</time>
      </trkpt>
      <trkpt lat="42.4207530" lon="-3.1901770">
        <ele>756.4</ele>
        <time>2022-08-29T09:50:07Z</time>
      </trkpt>
      <trkpt lat="42.4207530" lon="-3.1901910">
        <ele>756.4</ele>
        <time>2022-08-29T09:50:08Z</time>
      </trkpt>
      <trkpt lat="42.4207520" lon="-3.1902030">
        <ele>756.6</ele>
        <time>2022-08-29T09:50:09Z</time>
      </trkpt>
      <trkpt lat="42.4207460" lon="-3.1902190">
        <ele>756.6</ele>
        <time>2022-08-29T09:50:10Z</time>
      </trkpt>
      <trkpt lat="42.4207390" lon="-3.1902310">
        <ele>756.6</ele>
        <time>2022-08-29T09:50:11Z</time>
      </trkpt>
      <trkpt lat="42.4207330" lon="-3.1902540">
        <ele>756.4</ele>
        <time>2022-08-29T09:50:12Z</time>
      </trkpt>
      <trkpt lat="42.4207330" lon="-3.1902810">
        <ele>756.4</ele>
        <time>2022-08-29T09:50:13Z</time>
      </trkpt>
      <trkpt lat="42.4207380" lon="-3.1903120">
        <ele>756.4</ele>
        <time>2022-08-29T09:50:14Z</time>
      </trkpt>
      <trkpt lat="42.4207440" lon="-3.1903470">
        <ele>756.4</ele>
        <time>2022-08-29T09:50:15Z</time>
      </trkpt>
      <trkpt lat="42.4207480" lon="-3.1903840">
        <ele>756.2</ele>
        <time>2022-08-29T09:50:16Z</time>
      </trkpt>
      <trkpt lat="42.4207470" lon="-3.1904210">
        <ele>756.4</ele>
        <time>2022-08-29T09:50:17Z</time>
      </trkpt>
      <trkpt lat="42.4207390" lon="-3.1904570">
        <ele>756.2</ele>
        <time>2022-08-29T09:50:18Z</time>
      </trkpt>
      <trkpt lat="42.4207290" lon="-3.1904890">
        <ele>756.2</ele>
        <time>2022-08-29T09:50:19Z</time>
      </trkpt>
      <trkpt lat="42.4207220" lon="-3.1905160">
        <ele>756.2</ele>
        <time>2022-08-29T09:50:20Z</time>
      </trkpt>
      <trkpt lat="42.4207170" lon="-3.1905410">
        <ele>756.0</ele>
        <time>2022-08-29T09:50:21Z</time>
      </trkpt>
      <trkpt lat="42.4207160" lon="-3.1905650">
        <ele>756.2</ele>
        <time>2022-08-29T09:50:22Z</time>
      </trkpt>
      <trkpt lat="42.4207140" lon="-3.1905870">
        <ele>756.0</ele>
        <time>2022-08-29T09:50:23Z</time>
      </trkpt>
      <trkpt lat="42.4207090" lon="-3.1906070">
        <ele>756.0</ele>
        <time>2022-08-29T09:50:24Z</time>
      </trkpt>
      <trkpt lat="42.4207040" lon="-3.1906280">
        <ele>755.4</ele>
        <time>2022-08-29T09:50:25Z</time>
      </trkpt>
      <trkpt lat="42.4206980" lon="-3.1906470">
        <ele>755.4</ele>
        <time>2022-08-29T09:50:26Z</time>
      </trkpt>
      <trkpt lat="42.4206920" lon="-3.1906640">
        <ele>755.2</ele>
        <time>2022-08-29T09:50:27Z</time>
      </trkpt>
      <trkpt lat="42.4206850" lon="-3.1906790">
        <ele>755.4</ele>
        <time>2022-08-29T09:50:28Z</time>
      </trkpt>
      <trkpt lat="42.4206780" lon="-3.1906920">
        <ele>755.2</ele>
        <time>2022-08-29T09:50:29Z</time>
      </trkpt>
      <trkpt lat="42.4206720" lon="-3.1907040">
        <ele>755.0</ele>
        <time>2022-08-29T09:50:30Z</time>
      </trkpt>
      <trkpt lat="42.4206700" lon="-3.1907140">
        <ele>755.2</ele>
        <time>2022-08-29T09:50:31Z</time>
      </trkpt>
      <trkpt lat="42.4206710" lon="-3.1907170">
        <ele>755.2</ele>
        <time>2022-08-29T09:50:32Z</time>
      </trkpt>
      <trkpt lat="42.4206740" lon="-3.1907180">
        <ele>755.2</ele>
        <time>2022-08-29T09:50:33Z</time>
      </trkpt>
      <trkpt lat="42.4206750" lon="-3.1907160">
        <ele>755.2</ele>
        <time>2022-08-29T09:50:34Z</time>
      </trkpt>
      <trkpt lat="42.4206770" lon="-3.1907170">
        <ele>755.2</ele>
        <time>2022-08-29T09:50:35Z</time>
      </trkpt>
      <trkpt lat="42.4206780" lon="-3.1907190">
        <ele>755.0</ele>
        <time>2022-08-29T09:50:36Z</time>
      </trkpt>
      <trkpt lat="42.4206790" lon="-3.1907250">
        <ele>755.0</ele>
        <time>2022-08-29T09:50:37Z</time>
      </trkpt>
      <trkpt lat="42.4206810" lon="-3.1907340">
        <ele>755.0</ele>
        <time>2022-08-29T09:50:38Z</time>
      </trkpt>
      <trkpt lat="42.4206820" lon="-3.1907490">
        <ele>755.0</ele>
        <time>2022-08-29T09:50:39Z</time>
      </trkpt>
      <trkpt lat="42.4206840" lon="-3.1907610">
        <ele>755.0</ele>
        <time>2022-08-29T09:50:40Z</time>
      </trkpt>
      <trkpt lat="42.4206850" lon="-3.1907760">
        <ele>755.0</ele>
        <time>2022-08-29T09:50:41Z</time>
      </trkpt>
      <trkpt lat="42.4206880" lon="-3.1907920">
        <ele>755.0</ele>
        <time>2022-08-29T09:50:42Z</time>
      </trkpt>
      <trkpt lat="42.4206890" lon="-3.1908110">
        <ele>754.8</ele>
        <time>2022-08-29T09:50:43Z</time>
      </trkpt>
      <trkpt lat="42.4206900" lon="-3.1908310">
        <ele>755.0</ele>
        <time>2022-08-29T09:50:44Z</time>
      </trkpt>
      <trkpt lat="42.4206920" lon="-3.1908520">
        <ele>754.8</ele>
        <time>2022-08-29T09:50:45Z</time>
      </trkpt>
      <trkpt lat="42.4206940" lon="-3.1908750">
        <ele>754.8</ele>
        <time>2022-08-29T09:50:46Z</time>
      </trkpt>
      <trkpt lat="42.4206990" lon="-3.1908960">
        <ele>755.0</ele>
        <time>2022-08-29T09:50:47Z</time>
      </trkpt>
      <trkpt lat="42.4207040" lon="-3.1909160">
        <ele>754.8</ele>
        <time>2022-08-29T09:50:48Z</time>
      </trkpt>
      <trkpt lat="42.4207110" lon="-3.1909360">
        <ele>754.8</ele>
        <time>2022-08-29T09:50:49Z</time>
      </trkpt>
      <trkpt lat="42.4207180" lon="-3.1909590">
        <ele>754.8</ele>
        <time>2022-08-29T09:50:50Z</time>
      </trkpt>
      <trkpt lat="42.4207310" lon="-3.1909860">
        <ele>754.8</ele>
        <time>2022-08-29T09:50:51Z</time>
      </trkpt>
      <trkpt lat="42.4207470" lon="-3.1910100">
        <ele>754.6</ele>
        <time>2022-08-29T09:50:52Z</time>
      </trkpt>
      <trkpt lat="42.4207660" lon="-3.1910320">
        <ele>754.6</ele>
        <time>2022-08-29T09:50:53Z</time>
      </trkpt>
      <trkpt lat="42.4207870" lon="-3.1910510">
        <ele>754.6</ele>
        <time>2022-08-29T09:50:54Z</time>
      </trkpt>
      <trkpt lat="42.4208140" lon="-3.1910700">
        <ele>754.4</ele>
        <time>2022-08-29T09:50:55Z</time>
      </trkpt>
      <trkpt lat="42.4208400" lon="-3.1910900">
        <ele>754.6</ele>
        <time>2022-08-29T09:50:56Z</time>
      </trkpt>
      <trkpt lat="42.4208620" lon="-3.1911110">
        <ele>754.6</ele>
        <time>2022-08-29T09:50:57Z</time>
      </trkpt>
      <trkpt lat="42.4208830" lon="-3.1911320">
        <ele>754.4</ele>
        <time>2022-08-29T09:50:58Z</time>
      </trkpt>
      <trkpt lat="42.4209020" lon="-3.1911490">
        <ele>754.2</ele>
        <time>2022-08-29T09:50:59Z</time>
      </trkpt>
      <trkpt lat="42.4209180" lon="-3.1911660">
        <ele>754.0</ele>
        <time>2022-08-29T09:51:00Z</time>
      </trkpt>
      <trkpt lat="42.4209290" lon="-3.1911830">
        <ele>754.0</ele>
        <time>2022-08-29T09:51:01Z</time>
      </trkpt>
      <trkpt lat="42.4209380" lon="-3.1911990">
        <ele>753.8</ele>
        <time>2022-08-29T09:51:02Z</time>
      </trkpt>
      <trkpt lat="42.4209390" lon="-3.1912290">
        <ele>753.6</ele>
        <time>2022-08-29T09:51:03Z</time>
      </trkpt>
      <trkpt lat="42.4209360" lon="-3.1912530">
        <ele>753.6</ele>
        <time>2022-08-29T09:51:04Z</time>
      </trkpt>
      <trkpt lat="42.4209320" lon="-3.1912800">
        <ele>753.6</ele>
        <time>2022-08-29T09:51:05Z</time>
      </trkpt>
      <trkpt lat="42.4209260" lon="-3.1913050">
        <ele>753.6</ele>
        <time>2022-08-29T09:51:06Z</time>
      </trkpt>
      <trkpt lat="42.4209180" lon="-3.1913310">
        <ele>753.6</ele>
        <time>2022-08-29T09:51:07Z</time>
      </trkpt>
      <trkpt lat="42.4209050" lon="-3.1913530">
        <ele>753.6</ele>
        <time>2022-08-29T09:51:08Z</time>
      </trkpt>
      <trkpt lat="42.4208950" lon="-3.1913760">
        <ele>753.6</ele>
        <time>2022-08-29T09:51:09Z</time>
      </trkpt>
      <trkpt lat="42.4208850" lon="-3.1914020">
        <ele>753.4</ele>
        <time>2022-08-29T09:51:10Z</time>
      </trkpt>
      <trkpt lat="42.4208760" lon="-3.1914270">
        <ele>753.4</ele>
        <time>2022-08-29T09:51:11Z</time>
      </trkpt>
      <trkpt lat="42.4208680" lon="-3.1914520">
        <ele>753.6</ele>
        <time>2022-08-29T09:51:12Z</time>
      </trkpt>
      <trkpt lat="42.4208620" lon="-3.1914790">
        <ele>753.4</ele>
        <time>2022-08-29T09:51:13Z</time>
      </trkpt>
      <trkpt lat="42.4208500" lon="-3.1915050">
        <ele>753.4</ele>
        <time>2022-08-29T09:51:14Z</time>
      </trkpt>
      <trkpt lat="42.4208390" lon="-3.1915350">
        <ele>753.2</ele>
        <time>2022-08-29T09:51:15Z</time>
      </trkpt>
      <trkpt lat="42.4208290" lon="-3.1915660">
        <ele>753.2</ele>
        <time>2022-08-29T09:51:16Z</time>
      </trkpt>
      <trkpt lat="42.4208250" lon="-3.1916050">
        <ele>753.2</ele>
        <time>2022-08-29T09:51:17Z</time>
      </trkpt>
      <trkpt lat="42.4208220" lon="-3.1916540">
        <ele>753.2</ele>
        <time>2022-08-29T09:51:18Z</time>
      </trkpt>
      <trkpt lat="42.4208130" lon="-3.1916960">
        <ele>753.2</ele>
        <time>2022-08-29T09:51:19Z</time>
      </trkpt>
      <trkpt lat="42.4208010" lon="-3.1917320">
        <ele>753.2</ele>
        <time>2022-08-29T09:51:20Z</time>
      </trkpt>
      <trkpt lat="42.4207840" lon="-3.1917690">
        <ele>753.0</ele>
        <time>2022-08-29T09:51:21Z</time>
      </trkpt>
      <trkpt lat="42.4207660" lon="-3.1918050">
        <ele>753.0</ele>
        <time>2022-08-29T09:51:22Z</time>
      </trkpt>
      <trkpt lat="42.4207500" lon="-3.1918390">
        <ele>753.0</ele>
        <time>2022-08-29T09:51:23Z</time>
      </trkpt>
      <trkpt lat="42.4207340" lon="-3.1918710">
        <ele>753.0</ele>
        <time>2022-08-29T09:51:24Z</time>
      </trkpt>
      <trkpt lat="42.4207180" lon="-3.1919080">
        <ele>753.0</ele>
        <time>2022-08-29T09:51:25Z</time>
      </trkpt>
      <trkpt lat="42.4206970" lon="-3.1919440">
        <ele>752.8</ele>
        <time>2022-08-29T09:51:26Z</time>
      </trkpt>
      <trkpt lat="42.4206810" lon="-3.1919840">
        <ele>753.0</ele>
        <time>2022-08-29T09:51:27Z</time>
      </trkpt>
      <trkpt lat="42.4206640" lon="-3.1920230">
        <ele>752.8</ele>
        <time>2022-08-29T09:51:28Z</time>
      </trkpt>
      <trkpt lat="42.4206470" lon="-3.1920630">
        <ele>753.0</ele>
        <time>2022-08-29T09:51:29Z</time>
      </trkpt>
      <trkpt lat="42.4206360" lon="-3.1921090">
        <ele>752.8</ele>
        <time>2022-08-29T09:51:30Z</time>
      </trkpt>
      <trkpt lat="42.4206220" lon="-3.1921520">
        <ele>752.8</ele>
        <time>2022-08-29T09:51:31Z</time>
      </trkpt>
      <trkpt lat="42.4206080" lon="-3.1921950">
        <ele>752.8</ele>
        <time>2022-08-29T09:51:32Z</time>
      </trkpt>
      <trkpt lat="42.4206050" lon="-3.1922440">
        <ele>752.6</ele>
        <time>2022-08-29T09:51:33Z</time>
      </trkpt>
      <trkpt lat="42.4205960" lon="-3.1922780">
        <ele>752.6</ele>
        <time>2022-08-29T09:51:34Z</time>
      </trkpt>
      <trkpt lat="42.4205960" lon="-3.1923150">
        <ele>752.6</ele>
        <time>2022-08-29T09:51:35Z</time>
      </trkpt>
      <trkpt lat="42.4205900" lon="-3.1923490">
        <ele>752.6</ele>
        <time>2022-08-29T09:51:36Z</time>
      </trkpt>
      <trkpt lat="42.4205750" lon="-3.1923810">
        <ele>752.6</ele>
        <time>2022-08-29T09:51:37Z</time>
      </trkpt>
      <trkpt lat="42.4205560" lon="-3.1924140">
        <ele>752.8</ele>
        <time>2022-08-29T09:51:38Z</time>
      </trkpt>
      <trkpt lat="42.4205380" lon="-3.1924440">
        <ele>752.8</ele>
        <time>2022-08-29T09:51:39Z</time>
      </trkpt>
      <trkpt lat="42.4205220" lon="-3.1924780">
        <ele>752.6</ele>
        <time>2022-08-29T09:51:40Z</time>
      </trkpt>
      <trkpt lat="42.4205070" lon="-3.1925100">
        <ele>752.8</ele>
        <time>2022-08-29T09:51:41Z</time>
      </trkpt>
      <trkpt lat="42.4204890" lon="-3.1925410">
        <ele>753.0</ele>
        <time>2022-08-29T09:51:42Z</time>
      </trkpt>
      <trkpt lat="42.4204760" lon="-3.1925780">
        <ele>752.8</ele>
        <time>2022-08-29T09:51:43Z</time>
      </trkpt>
      <trkpt lat="42.4204600" lon="-3.1926170">
        <ele>752.8</ele>
        <time>2022-08-29T09:51:44Z</time>
      </trkpt>
      <trkpt lat="42.4204430" lon="-3.1926570">
        <ele>753.0</ele>
        <time>2022-08-29T09:51:45Z</time>
      </trkpt>
      <trkpt lat="42.4204230" lon="-3.1926960">
        <ele>753.0</ele>
        <time>2022-08-29T09:51:46Z</time>
      </trkpt>
      <trkpt lat="42.4204100" lon="-3.1927390">
        <ele>753.2</ele>
        <time>2022-08-29T09:51:47Z</time>
      </trkpt>
      <trkpt lat="42.4203970" lon="-3.1927830">
        <ele>753.2</ele>
        <time>2022-08-29T09:51:48Z</time>
      </trkpt>
      <trkpt lat="42.4203780" lon="-3.1928210">
        <ele>753.2</ele>
        <time>2022-08-29T09:51:49Z</time>
      </trkpt>
      <trkpt lat="42.4203600" lon="-3.1928620">
        <ele>753.4</ele>
        <time>2022-08-29T09:51:50Z</time>
      </trkpt>
      <trkpt lat="42.4203420" lon="-3.1929030">
        <ele>753.4</ele>
        <time>2022-08-29T09:51:51Z</time>
      </trkpt>
      <trkpt lat="42.4203230" lon="-3.1929470">
        <ele>753.4</ele>
        <time>2022-08-29T09:51:52Z</time>
      </trkpt>
      <trkpt lat="42.4203050" lon="-3.1929960">
        <ele>753.4</ele>
        <time>2022-08-29T09:51:53Z</time>
      </trkpt>
      <trkpt lat="42.4202890" lon="-3.1930460">
        <ele>753.6</ele>
        <time>2022-08-29T09:51:54Z</time>
      </trkpt>
      <trkpt lat="42.4202720" lon="-3.1930960">
        <ele>753.4</ele>
        <time>2022-08-29T09:51:55Z</time>
      </trkpt>
      <trkpt lat="42.4202550" lon="-3.1931450">
        <ele>753.6</ele>
        <time>2022-08-29T09:51:56Z</time>
      </trkpt>
      <trkpt lat="42.4202330" lon="-3.1931960">
        <ele>753.6</ele>
        <time>2022-08-29T09:51:57Z</time>
      </trkpt>
      <trkpt lat="42.4202120" lon="-3.1932450">
        <ele>753.6</ele>
        <time>2022-08-29T09:51:58Z</time>
      </trkpt>
      <trkpt lat="42.4201890" lon="-3.1932980">
        <ele>753.6</ele>
        <time>2022-08-29T09:51:59Z</time>
      </trkpt>
      <trkpt lat="42.4201690" lon="-3.1933470">
        <ele>753.8</ele>
        <time>2022-08-29T09:52:00Z</time>
      </trkpt>
      <trkpt lat="42.4201490" lon="-3.1934010">
        <ele>753.8</ele>
        <time>2022-08-29T09:52:01Z</time>
      </trkpt>
      <trkpt lat="42.4201280" lon="-3.1934510">
        <ele>753.6</ele>
        <time>2022-08-29T09:52:02Z</time>
      </trkpt>
      <trkpt lat="42.4201090" lon="-3.1935010">
        <ele>753.8</ele>
        <time>2022-08-29T09:52:03Z</time>
      </trkpt>
      <trkpt lat="42.4200930" lon="-3.1935530">
        <ele>753.8</ele>
        <time>2022-08-29T09:52:04Z</time>
      </trkpt>
      <trkpt lat="42.4200780" lon="-3.1936050">
        <ele>753.8</ele>
        <time>2022-08-29T09:52:05Z</time>
      </trkpt>
      <trkpt lat="42.4200580" lon="-3.1936550">
        <ele>753.8</ele>
        <time>2022-08-29T09:52:06Z</time>
      </trkpt>
      <trkpt lat="42.4200330" lon="-3.1937050">
        <ele>753.8</ele>
        <time>2022-08-29T09:52:07Z</time>
      </trkpt>
      <trkpt lat="42.4200080" lon="-3.1937530">
        <ele>753.6</ele>
        <time>2022-08-29T09:52:08Z</time>
      </trkpt>
      <trkpt lat="42.4199780" lon="-3.1938020">
        <ele>753.6</ele>
        <time>2022-08-29T09:52:09Z</time>
      </trkpt>
      <trkpt lat="42.4199560" lon="-3.1938550">
        <ele>753.8</ele>
        <time>2022-08-29T09:52:10Z</time>
      </trkpt>
      <trkpt lat="42.4199280" lon="-3.1939040">
        <ele>753.6</ele>
        <time>2022-08-29T09:52:11Z</time>
      </trkpt>
      <trkpt lat="42.4198970" lon="-3.1939480">
        <ele>753.6</ele>
        <time>2022-08-29T09:52:12Z</time>
      </trkpt>
      <trkpt lat="42.4198670" lon="-3.1939920">
        <ele>753.8</ele>
        <time>2022-08-29T09:52:13Z</time>
      </trkpt>
      <trkpt lat="42.4198400" lon="-3.1940340">
        <ele>753.6</ele>
        <time>2022-08-29T09:52:14Z</time>
      </trkpt>
      <trkpt lat="42.4198290" lon="-3.1940890">
        <ele>753.8</ele>
        <time>2022-08-29T09:52:15Z</time>
      </trkpt>
      <trkpt lat="42.4198060" lon="-3.1941380">
        <ele>753.8</ele>
        <time>2022-08-29T09:52:16Z</time>
      </trkpt>
      <trkpt lat="42.4197830" lon="-3.1941860">
        <ele>753.6</ele>
        <time>2022-08-29T09:52:17Z</time>
      </trkpt>
      <trkpt lat="42.4197590" lon="-3.1942330">
        <ele>753.8</ele>
        <time>2022-08-29T09:52:18Z</time>
      </trkpt>
      <trkpt lat="42.4197430" lon="-3.1942870">
        <ele>753.8</ele>
        <time>2022-08-29T09:52:19Z</time>
      </trkpt>
      <trkpt lat="42.4197190" lon="-3.1943360">
        <ele>753.6</ele>
        <time>2022-08-29T09:52:20Z</time>
      </trkpt>
      <trkpt lat="42.4197000" lon="-3.1943880">
        <ele>753.8</ele>
        <time>2022-08-29T09:52:21Z</time>
      </trkpt>
      <trkpt lat="42.4196770" lon="-3.1944370">
        <ele>753.8</ele>
        <time>2022-08-29T09:52:22Z</time>
      </trkpt>
      <trkpt lat="42.4196520" lon="-3.1944860">
        <ele>753.8</ele>
        <time>2022-08-29T09:52:23Z</time>
      </trkpt>
      <trkpt lat="42.4196240" lon="-3.1945310">
        <ele>753.8</ele>
        <time>2022-08-29T09:52:24Z</time>
      </trkpt>
      <trkpt lat="42.4195940" lon="-3.1945760">
        <ele>753.8</ele>
        <time>2022-08-29T09:52:25Z</time>
      </trkpt>
      <trkpt lat="42.4195650" lon="-3.1946210">
        <ele>753.8</ele>
        <time>2022-08-29T09:52:26Z</time>
      </trkpt>
      <trkpt lat="42.4195410" lon="-3.1946670">
        <ele>753.8</ele>
        <time>2022-08-29T09:52:27Z</time>
      </trkpt>
      <trkpt lat="42.4195140" lon="-3.1947110">
        <ele>753.8</ele>
        <time>2022-08-29T09:52:28Z</time>
      </trkpt>
      <trkpt lat="42.4194880" lon="-3.1947550">
        <ele>753.8</ele>
        <time>2022-08-29T09:52:29Z</time>
      </trkpt>
      <trkpt lat="42.4194600" lon="-3.1948000">
        <ele>754.0</ele>
        <time>2022-08-29T09:52:30Z</time>
      </trkpt>
      <trkpt lat="42.4194310" lon="-3.1948420">
        <ele>753.8</ele>
        <time>2022-08-29T09:52:31Z</time>
      </trkpt>
      <trkpt lat="42.4194040" lon="-3.1948840">
        <ele>753.8</ele>
        <time>2022-08-29T09:52:32Z</time>
      </trkpt>
      <trkpt lat="42.4193810" lon="-3.1949270">
        <ele>754.0</ele>
        <time>2022-08-29T09:52:33Z</time>
      </trkpt>
      <trkpt lat="42.4193520" lon="-3.1949710">
        <ele>754.0</ele>
        <time>2022-08-29T09:52:34Z</time>
      </trkpt>
      <trkpt lat="42.4193310" lon="-3.1950170">
        <ele>754.0</ele>
        <time>2022-08-29T09:52:35Z</time>
      </trkpt>
      <trkpt lat="42.4193040" lon="-3.1950560">
        <ele>754.0</ele>
        <time>2022-08-29T09:52:36Z</time>
      </trkpt>
      <trkpt lat="42.4192850" lon="-3.1950900">
        <ele>754.0</ele>
        <time>2022-08-29T09:52:37Z</time>
      </trkpt>
      <trkpt lat="42.4192660" lon="-3.1951210">
        <ele>754.2</ele>
        <time>2022-08-29T09:52:38Z</time>
      </trkpt>
      <trkpt lat="42.4192500" lon="-3.1951490">
        <ele>754.2</ele>
        <time>2022-08-29T09:52:39Z</time>
      </trkpt>
      <trkpt lat="42.4192330" lon="-3.1951780">
        <ele>754.2</ele>
        <time>2022-08-29T09:52:40Z</time>
      </trkpt>
      <trkpt lat="42.4192150" lon="-3.1952050">
        <ele>754.2</ele>
        <time>2022-08-29T09:52:41Z</time>
      </trkpt>
      <trkpt lat="42.4192020" lon="-3.1952280">
        <ele>754.2</ele>
        <time>2022-08-29T09:52:42Z</time>
      </trkpt>
      <trkpt lat="42.4191870" lon="-3.1952450">
        <ele>754.0</ele>
        <time>2022-08-29T09:52:43Z</time>
      </trkpt>
      <trkpt lat="42.4191700" lon="-3.1952560">
        <ele>754.2</ele>
        <time>2022-08-29T09:52:44Z</time>
      </trkpt>
      <trkpt lat="42.4191580" lon="-3.1952530">
        <ele>754.2</ele>
        <time>2022-08-29T09:52:45Z</time>
      </trkpt>
      <trkpt lat="42.4191540" lon="-3.1952390">
        <ele>754.2</ele>
        <time>2022-08-29T09:52:46Z</time>
      </trkpt>
      <trkpt lat="42.4191670" lon="-3.1952230">
        <ele>754.2</ele>
        <time>2022-08-29T09:52:47Z</time>
      </trkpt>
      <trkpt lat="42.4191820" lon="-3.1952070">
        <ele>754.2</ele>
        <time>2022-08-29T09:52:48Z</time>
      </trkpt>
      <trkpt lat="42.4191990" lon="-3.1951900">
        <ele>754.2</ele>
        <time>2022-08-29T09:52:49Z</time>
      </trkpt>
      <trkpt lat="42.4192140" lon="-3.1951750">
        <ele>754.2</ele>
        <time>2022-08-29T09:52:50Z</time>
      </trkpt>
      <trkpt lat="42.4192280" lon="-3.1951630">
        <ele>754.2</ele>
        <time>2022-08-29T09:52:51Z</time>
      </trkpt>
      <trkpt lat="42.4192420" lon="-3.1951510">
        <ele>754.2</ele>
        <time>2022-08-29T09:52:52Z</time>
      </trkpt>
      <trkpt lat="42.4192540" lon="-3.1951380">
        <ele>754.2</ele>
        <time>2022-08-29T09:52:53Z</time>
      </trkpt>
      <trkpt lat="42.4192630" lon="-3.1951220">
        <ele>754.4</ele>
        <time>2022-08-29T09:52:54Z</time>
      </trkpt>
      <trkpt lat="42.4192680" lon="-3.1951060">
        <ele>754.4</ele>
        <time>2022-08-29T09:52:55Z</time>
      </trkpt>
      <trkpt lat="42.4192700" lon="-3.1950940">
        <ele>754.2</ele>
        <time>2022-08-29T09:52:56Z</time>
      </trkpt>
      <trkpt lat="42.4192730" lon="-3.1950880">
        <ele>754.4</ele>
        <time>2022-08-29T09:52:57Z</time>
      </trkpt>
      <trkpt lat="42.4192740" lon="-3.1950850">
        <ele>754.4</ele>
        <time>2022-08-29T09:52:58Z</time>
      </trkpt>
      <trkpt lat="42.4192770" lon="-3.1950810">
        <ele>754.4</ele>
        <time>2022-08-29T09:52:59Z</time>
      </trkpt>
      <trkpt lat="42.4192780" lon="-3.1950760">
        <ele>754.2</ele>
        <time>2022-08-29T09:53:00Z</time>
      </trkpt>
      <trkpt lat="42.4192780" lon="-3.1950760">
        <ele>754.2</ele>
        <time>2022-08-29T09:53:01Z</time>
      </trkpt>
      <trkpt lat="42.4192770" lon="-3.1950730">
        <ele>754.2</ele>
        <time>2022-08-29T09:53:02Z</time>
      </trkpt>
      <trkpt lat="42.4192780" lon="-3.1950710">
        <ele>754.2</ele>
        <time>2022-08-29T09:53:03Z</time>
      </trkpt>
      <trkpt lat="42.4192760" lon="-3.1950660">
        <ele>754.2</ele>
        <time>2022-08-29T09:53:04Z</time>
      </trkpt>
      <trkpt lat="42.4192710" lon="-3.1950540">
        <ele>754.4</ele>
        <time>2022-08-29T09:53:05Z</time>
      </trkpt>
      <trkpt lat="42.4192700" lon="-3.1950450">
        <ele>754.2</ele>
        <time>2022-08-29T09:53:06Z</time>
      </trkpt>
      <trkpt lat="42.4192700" lon="-3.1950330">
        <ele>754.2</ele>
        <time>2022-08-29T09:53:07Z</time>
      </trkpt>
      <trkpt lat="42.4192720" lon="-3.1950160">
        <ele>754.2</ele>
        <time>2022-08-29T09:53:08Z</time>
      </trkpt>
      <trkpt lat="42.4192820" lon="-3.1950090">
        <ele>754.2</ele>
        <time>2022-08-29T09:53:09Z</time>
      </trkpt>
      <trkpt lat="42.4192940" lon="-3.1950030">
        <ele>754.2</ele>
        <time>2022-08-29T09:53:10Z</time>
      </trkpt>
      <trkpt lat="42.4192960" lon="-3.1949950">
        <ele>754.2</ele>
        <time>2022-08-29T09:53:11Z</time>
      </trkpt>
      <trkpt lat="42.4193020" lon="-3.1949850">
        <ele>754.0</ele>
        <time>2022-08-29T09:53:12Z</time>
      </trkpt>
      <trkpt lat="42.4193110" lon="-3.1949770">
        <ele>754.2</ele>
        <time>2022-08-29T09:53:13Z</time>
      </trkpt>
      <trkpt lat="42.4193220" lon="-3.1949790">
        <ele>754.0</ele>
        <time>2022-08-29T09:53:14Z</time>
      </trkpt>
      <trkpt lat="42.4193380" lon="-3.1949800">
        <ele>754.2</ele>
        <time>2022-08-29T09:53:15Z</time>
      </trkpt>
      <trkpt lat="42.4193330" lon="-3.1950010">
        <ele>754.0</ele>
        <time>2022-08-29T09:53:16Z</time>
      </trkpt>
      <trkpt lat="42.4193240" lon="-3.1950070">
        <ele>754.0</ele>
        <time>2022-08-29T09:53:17Z</time>
      </trkpt>
      <trkpt lat="42.4193190" lon="-3.1950210">
        <ele>754.0</ele>
        <time>2022-08-29T09:53:18Z</time>
      </trkpt>
      <trkpt lat="42.4193150" lon="-3.1950360">
        <ele>754.0</ele>
        <time>2022-08-29T09:53:19Z</time>
      </trkpt>
      <trkpt lat="42.4193080" lon="-3.1950500">
        <ele>754.0</ele>
        <time>2022-08-29T09:53:20Z</time>
      </trkpt>
      <trkpt lat="42.4192970" lon="-3.1950650">
        <ele>754.0</ele>
        <time>2022-08-29T09:53:21Z</time>
      </trkpt>
      <trkpt lat="42.4192900" lon="-3.1950790">
        <ele>754.0</ele>
        <time>2022-08-29T09:53:22Z</time>
      </trkpt>
      <trkpt lat="42.4192810" lon="-3.1950940">
        <ele>754.0</ele>
        <time>2022-08-29T09:53:23Z</time>
      </trkpt>
      <trkpt lat="42.4192740" lon="-3.1951100">
        <ele>753.8</ele>
        <time>2022-08-29T09:53:24Z</time>
      </trkpt>
      <trkpt lat="42.4192760" lon="-3.1951300">
        <ele>753.6</ele>
        <time>2022-08-29T09:53:25Z</time>
      </trkpt>
      <trkpt lat="42.4192650" lon="-3.1951470">
        <ele>753.6</ele>
        <time>2022-08-29T09:53:26Z</time>
      </trkpt>
      <trkpt lat="42.4192500" lon="-3.1951600">
        <ele>753.4</ele>
        <time>2022-08-29T09:53:27Z</time>
      </trkpt>
      <trkpt lat="42.4192340" lon="-3.1951680">
        <ele>753.4</ele>
        <time>2022-08-29T09:53:28Z</time>
      </trkpt>
      <trkpt lat="42.4192220" lon="-3.1951780">
        <ele>753.2</ele>
        <time>2022-08-29T09:53:29Z</time>
      </trkpt>
      <trkpt lat="42.4192140" lon="-3.1951880">
        <ele>753.4</ele>
        <time>2022-08-29T09:53:30Z</time>
      </trkpt>
      <trkpt lat="42.4192020" lon="-3.1952020">
        <ele>753.2</ele>
        <time>2022-08-29T09:53:31Z</time>
      </trkpt>
      <trkpt lat="42.4191910" lon="-3.1952160">
        <ele>753.2</ele>
        <time>2022-08-29T09:53:32Z</time>
      </trkpt>
      <trkpt lat="42.4191800" lon="-3.1952290">
        <ele>753.2</ele>
        <time>2022-08-29T09:53:33Z</time>
      </trkpt>
      <trkpt lat="42.4191650" lon="-3.1952460">
        <ele>753.2</ele>
        <time>2022-08-29T09:53:34Z</time>
      </trkpt>
      <trkpt lat="42.4191480" lon="-3.1952660">
        <ele>753.2</ele>
        <time>2022-08-29T09:53:35Z</time>
      </trkpt>
      <trkpt lat="42.4191340" lon="-3.1952910">
        <ele>753.2</ele>
        <time>2022-08-29T09:53:36Z</time>
      </trkpt>
      <trkpt lat="42.4191210" lon="-3.1953130">
        <ele>753.0</ele>
        <time>2022-08-29T09:53:37Z</time>
      </trkpt>
      <trkpt lat="42.4191080" lon="-3.1953310">
        <ele>753.0</ele>
        <time>2022-08-29T09:53:38Z</time>
      </trkpt>
      <trkpt lat="42.4190930" lon="-3.1953500">
        <ele>753.0</ele>
        <time>2022-08-29T09:53:39Z</time>
      </trkpt>
      <trkpt lat="42.4190780" lon="-3.1953720">
        <ele>753.0</ele>
        <time>2022-08-29T09:53:40Z</time>
      </trkpt>
      <trkpt lat="42.4190590" lon="-3.1953980">
        <ele>753.2</ele>
        <time>2022-08-29T09:53:41Z</time>
      </trkpt>
      <trkpt lat="42.4190410" lon="-3.1954240">
        <ele>753.2</ele>
        <time>2022-08-29T09:53:42Z</time>
      </trkpt>
      <trkpt lat="42.4190260" lon="-3.1954470">
        <ele>753.2</ele>
        <time>2022-08-29T09:53:43Z</time>
      </trkpt>
      <trkpt lat="42.4190120" lon="-3.1954700">
        <ele>753.0</ele>
        <time>2022-08-29T09:53:44Z</time>
      </trkpt>
      <trkpt lat="42.4190020" lon="-3.1954920">
        <ele>753.2</ele>
        <time>2022-08-29T09:53:45Z</time>
      </trkpt>
      <trkpt lat="42.4189940" lon="-3.1955140">
        <ele>753.2</ele>
        <time>2022-08-29T09:53:46Z</time>
      </trkpt>
      <trkpt lat="42.4189880" lon="-3.1955350">
        <ele>753.2</ele>
        <time>2022-08-29T09:53:47Z</time>
      </trkpt>
      <trkpt lat="42.4189840" lon="-3.1955560">
        <ele>753.0</ele>
        <time>2022-08-29T09:53:48Z</time>
      </trkpt>
      <trkpt lat="42.4189790" lon="-3.1955760">
        <ele>753.2</ele>
        <time>2022-08-29T09:53:49Z</time>
      </trkpt>
      <trkpt lat="42.4189720" lon="-3.1955960">
        <ele>753.2</ele>
        <time>2022-08-29T09:53:50Z</time>
      </trkpt>
      <trkpt lat="42.4189650" lon="-3.1956120">
        <ele>753.2</ele>
        <time>2022-08-29T09:53:51Z</time>
      </trkpt>
      <trkpt lat="42.4189540" lon="-3.1956270">
        <ele>753.4</ele>
        <time>2022-08-29T09:53:52Z</time>
      </trkpt>
      <trkpt lat="42.4189430" lon="-3.1956390">
        <ele>753.2</ele>
        <time>2022-08-29T09:53:53Z</time>
      </trkpt>
      <trkpt lat="42.4189360" lon="-3.1956500">
        <ele>753.2</ele>
        <time>2022-08-29T09:53:54Z</time>
      </trkpt>
      <trkpt lat="42.4189290" lon="-3.1956620">
        <ele>753.2</ele>
        <time>2022-08-29T09:53:55Z</time>
      </trkpt>
      <trkpt lat="42.4189220" lon="-3.1956780">
        <ele>753.4</ele>
        <time>2022-08-29T09:53:56Z</time>
      </trkpt>
      <trkpt lat="42.4189150" lon="-3.1956950">
        <ele>753.4</ele>
        <time>2022-08-29T09:53:57Z</time>
      </trkpt>
      <trkpt lat="42.4189100" lon="-3.1957160">
        <ele>753.2</ele>
        <time>2022-08-29T09:53:58Z</time>
      </trkpt>
      <trkpt lat="42.4189040" lon="-3.1957420">
        <ele>753.4</ele>
        <time>2022-08-29T09:53:59Z</time>
      </trkpt>
      <trkpt lat="42.4189130" lon="-3.1957660">
        <ele>753.4</ele>
        <time>2022-08-29T09:54:00Z</time>
      </trkpt>
      <trkpt lat="42.4189170" lon="-3.1957940">
        <ele>753.4</ele>
        <time>2022-08-29T09:54:01Z</time>
      </trkpt>
      <trkpt lat="42.4189220" lon="-3.1958220">
        <ele>753.4</ele>
        <time>2022-08-29T09:54:02Z</time>
      </trkpt>
      <trkpt lat="42.4189190" lon="-3.1958450">
        <ele>753.6</ele>
        <time>2022-08-29T09:54:03Z</time>
      </trkpt>
      <trkpt lat="42.4189130" lon="-3.1958650">
        <ele>753.6</ele>
        <time>2022-08-29T09:54:04Z</time>
      </trkpt>
      <trkpt lat="42.4189070" lon="-3.1958880">
        <ele>753.4</ele>
        <time>2022-08-29T09:54:05Z</time>
      </trkpt>
      <trkpt lat="42.4189010" lon="-3.1959130">
        <ele>753.4</ele>
        <time>2022-08-29T09:54:06Z</time>
      </trkpt>
      <trkpt lat="42.4188960" lon="-3.1959420">
        <ele>753.6</ele>
        <time>2022-08-29T09:54:07Z</time>
      </trkpt>
      <trkpt lat="42.4188930" lon="-3.1959700">
        <ele>753.4</ele>
        <time>2022-08-29T09:54:08Z</time>
      </trkpt>
      <trkpt lat="42.4188890" lon="-3.1960000">
        <ele>753.6</ele>
        <time>2022-08-29T09:54:09Z</time>
      </trkpt>
      <trkpt lat="42.4188970" lon="-3.1960360">
        <ele>753.4</ele>
        <time>2022-08-29T09:54:10Z</time>
      </trkpt>
      <trkpt lat="42.4189030" lon="-3.1960740">
        <ele>753.4</ele>
        <time>2022-08-29T09:54:11Z</time>
      </trkpt>
      <trkpt lat="42.4189060" lon="-3.1961180">
        <ele>753.4</ele>
        <time>2022-08-29T09:54:12Z</time>
      </trkpt>
      <trkpt lat="42.4189060" lon="-3.1961620">
        <ele>753.4</ele>
        <time>2022-08-29T09:54:13Z</time>
      </trkpt>
      <trkpt lat="42.4189010" lon="-3.1962050">
        <ele>753.2</ele>
        <time>2022-08-29T09:54:14Z</time>
      </trkpt>
      <trkpt lat="42.4188910" lon="-3.1962470">
        <ele>753.2</ele>
        <time>2022-08-29T09:54:15Z</time>
      </trkpt>
      <trkpt lat="42.4188810" lon="-3.1962810">
        <ele>753.0</ele>
        <time>2022-08-29T09:54:16Z</time>
      </trkpt>
      <trkpt lat="42.4188730" lon="-3.1963110">
        <ele>753.0</ele>
        <time>2022-08-29T09:54:17Z</time>
      </trkpt>
      <trkpt lat="42.4188680" lon="-3.1963420">
        <ele>752.8</ele>
        <time>2022-08-29T09:54:18Z</time>
      </trkpt>
      <trkpt lat="42.4188650" lon="-3.1963730">
        <ele>752.6</ele>
        <time>2022-08-29T09:54:19Z</time>
      </trkpt>
      <trkpt lat="42.4188600" lon="-3.1964060">
        <ele>752.6</ele>
        <time>2022-08-29T09:54:20Z</time>
      </trkpt>
      <trkpt lat="42.4188590" lon="-3.1964410">
        <ele>752.4</ele>
        <time>2022-08-29T09:54:21Z</time>
      </trkpt>
      <trkpt lat="42.4188580" lon="-3.1964790">
        <ele>752.4</ele>
        <time>2022-08-29T09:54:22Z</time>
      </trkpt>
      <trkpt lat="42.4188570" lon="-3.1965170">
        <ele>752.4</ele>
        <time>2022-08-29T09:54:23Z</time>
      </trkpt>
      <trkpt lat="42.4188520" lon="-3.1965520">
        <ele>752.4</ele>
        <time>2022-08-29T09:54:24Z</time>
      </trkpt>
      <trkpt lat="42.4188470" lon="-3.1965850">
        <ele>752.4</ele>
        <time>2022-08-29T09:54:25Z</time>
      </trkpt>
      <trkpt lat="42.4188400" lon="-3.1966190">
        <ele>752.2</ele>
        <time>2022-08-29T09:54:26Z</time>
      </trkpt>
      <trkpt lat="42.4188330" lon="-3.1966560">
        <ele>752.4</ele>
        <time>2022-08-29T09:54:27Z</time>
      </trkpt>
      <trkpt lat="42.4188240" lon="-3.1966900">
        <ele>752.2</ele>
        <time>2022-08-29T09:54:28Z</time>
      </trkpt>
      <trkpt lat="42.4188140" lon="-3.1967250">
        <ele>752.2</ele>
        <time>2022-08-29T09:54:29Z</time>
      </trkpt>
      <trkpt lat="42.4188050" lon="-3.1967580">
        <ele>752.2</ele>
        <time>2022-08-29T09:54:30Z</time>
      </trkpt>
      <trkpt lat="42.4187940" lon="-3.1967920">
        <ele>752.2</ele>
        <time>2022-08-29T09:54:31Z</time>
      </trkpt>
      <trkpt lat="42.4187830" lon="-3.1968250">
        <ele>752.2</ele>
        <time>2022-08-29T09:54:32Z</time>
      </trkpt>
      <trkpt lat="42.4187680" lon="-3.1968570">
        <ele>752.0</ele>
        <time>2022-08-29T09:54:33Z</time>
      </trkpt>
      <trkpt lat="42.4187530" lon="-3.1968880">
        <ele>752.2</ele>
        <time>2022-08-29T09:54:34Z</time>
      </trkpt>
      <trkpt lat="42.4187390" lon="-3.1969220">
        <ele>752.0</ele>
        <time>2022-08-29T09:54:35Z</time>
      </trkpt>
      <trkpt lat="42.4187260" lon="-3.1969610">
        <ele>752.0</ele>
        <time>2022-08-29T09:54:36Z</time>
      </trkpt>
      <trkpt lat="42.4187130" lon="-3.1970000">
        <ele>752.0</ele>
        <time>2022-08-29T09:54:37Z</time>
      </trkpt>
      <trkpt lat="42.4187030" lon="-3.1970370">
        <ele>752.0</ele>
        <time>2022-08-29T09:54:38Z</time>
      </trkpt>
      <trkpt lat="42.4186920" lon="-3.1970760">
        <ele>751.8</ele>
        <time>2022-08-29T09:54:39Z</time>
      </trkpt>
      <trkpt lat="42.4186750" lon="-3.1971210">
        <ele>751.8</ele>
        <time>2022-08-29T09:54:40Z</time>
      </trkpt>
      <trkpt lat="42.4186570" lon="-3.1971610">
        <ele>751.8</ele>
        <time>2022-08-29T09:54:41Z</time>
      </trkpt>
      <trkpt lat="42.4186390" lon="-3.1972010">
        <ele>751.8</ele>
        <time>2022-08-29T09:54:42Z</time>
      </trkpt>
      <trkpt lat="42.4186170" lon="-3.1972420">
        <ele>751.6</ele>
        <time>2022-08-29T09:54:43Z</time>
      </trkpt>
      <trkpt lat="42.4185970" lon="-3.1972820">
        <ele>751.4</ele>
        <time>2022-08-29T09:54:44Z</time>
      </trkpt>
      <trkpt lat="42.4185780" lon="-3.1973250">
        <ele>751.6</ele>
        <time>2022-08-29T09:54:45Z</time>
      </trkpt>
      <trkpt lat="42.4185610" lon="-3.1973710">
        <ele>751.4</ele>
        <time>2022-08-29T09:54:46Z</time>
      </trkpt>
      <trkpt lat="42.4185460" lon="-3.1974180">
        <ele>751.4</ele>
        <time>2022-08-29T09:54:47Z</time>
      </trkpt>
      <trkpt lat="42.4185300" lon="-3.1974680">
        <ele>751.2</ele>
        <time>2022-08-29T09:54:48Z</time>
      </trkpt>
      <trkpt lat="42.4185150" lon="-3.1975190">
        <ele>751.0</ele>
        <time>2022-08-29T09:54:49Z</time>
      </trkpt>
      <trkpt lat="42.4185020" lon="-3.1975690">
        <ele>751.0</ele>
        <time>2022-08-29T09:54:50Z</time>
      </trkpt>
      <trkpt lat="42.4184910" lon="-3.1976140">
        <ele>750.8</ele>
        <time>2022-08-29T09:54:51Z</time>
      </trkpt>
      <trkpt lat="42.4184860" lon="-3.1976530">
        <ele>750.8</ele>
        <time>2022-08-29T09:54:52Z</time>
      </trkpt>
      <trkpt lat="42.4184760" lon="-3.1976900">
        <ele>750.8</ele>
        <time>2022-08-29T09:54:53Z</time>
      </trkpt>
      <trkpt lat="42.4184680" lon="-3.1977260">
        <ele>750.8</ele>
        <time>2022-08-29T09:54:54Z</time>
      </trkpt>
      <trkpt lat="42.4184610" lon="-3.1977600">
        <ele>750.8</ele>
        <time>2022-08-29T09:54:55Z</time>
      </trkpt>
      <trkpt lat="42.4184550" lon="-3.1977920">
        <ele>750.8</ele>
        <time>2022-08-29T09:54:56Z</time>
      </trkpt>
      <trkpt lat="42.4184480" lon="-3.1978240">
        <ele>751.0</ele>
        <time>2022-08-29T09:54:57Z</time>
      </trkpt>
      <trkpt lat="42.4184420" lon="-3.1978550">
        <ele>750.8</ele>
        <time>2022-08-29T09:54:58Z</time>
      </trkpt>
      <trkpt lat="42.4184350" lon="-3.1978850">
        <ele>750.8</ele>
        <time>2022-08-29T09:54:59Z</time>
      </trkpt>
      <trkpt lat="42.4184270" lon="-3.1979150">
        <ele>751.0</ele>
        <time>2022-08-29T09:55:00Z</time>
      </trkpt>
      <trkpt lat="42.4184320" lon="-3.1979410">
        <ele>750.8</ele>
        <time>2022-08-29T09:55:01Z</time>
      </trkpt>
      <trkpt lat="42.4184280" lon="-3.1979770">
        <ele>750.8</ele>
        <time>2022-08-29T09:55:02Z</time>
      </trkpt>
      <trkpt lat="42.4184230" lon="-3.1980100">
        <ele>751.0</ele>
        <time>2022-08-29T09:55:03Z</time>
      </trkpt>
      <trkpt lat="42.4184160" lon="-3.1980370">
        <ele>751.2</ele>
        <time>2022-08-29T09:55:04Z</time>
      </trkpt>
      <trkpt lat="42.4184080" lon="-3.1980600">
        <ele>751.0</ele>
        <time>2022-08-29T09:55:05Z</time>
      </trkpt>
      <trkpt lat="42.4184000" lon="-3.1980820">
        <ele>751.0</ele>
        <time>2022-08-29T09:55:06Z</time>
      </trkpt>
      <trkpt lat="42.4183940" lon="-3.1981060">
        <ele>751.2</ele>
        <time>2022-08-29T09:55:07Z</time>
      </trkpt>
      <trkpt lat="42.4183870" lon="-3.1981400">
        <ele>751.2</ele>
        <time>2022-08-29T09:55:08Z</time>
      </trkpt>
      <trkpt lat="42.4183770" lon="-3.1981780">
        <ele>751.2</ele>
        <time>2022-08-29T09:55:09Z</time>
      </trkpt>
      <trkpt lat="42.4183700" lon="-3.1982150">
        <ele>751.2</ele>
        <time>2022-08-29T09:55:10Z</time>
      </trkpt>
      <trkpt lat="42.4183610" lon="-3.1982510">
        <ele>751.4</ele>
        <time>2022-08-29T09:55:11Z</time>
      </trkpt>
      <trkpt lat="42.4183510" lon="-3.1982920">
        <ele>751.4</ele>
        <time>2022-08-29T09:55:12Z</time>
      </trkpt>
      <trkpt lat="42.4183380" lon="-3.1983350">
        <ele>751.4</ele>
        <time>2022-08-29T09:55:13Z</time>
      </trkpt>
      <trkpt lat="42.4183230" lon="-3.1983800">
        <ele>751.4</ele>
        <time>2022-08-29T09:55:14Z</time>
      </trkpt>
      <trkpt lat="42.4183090" lon="-3.1984220">
        <ele>751.4</ele>
        <time>2022-08-29T09:55:15Z</time>
      </trkpt>
      <trkpt lat="42.4182980" lon="-3.1984660">
        <ele>751.4</ele>
        <time>2022-08-29T09:55:16Z</time>
      </trkpt>
      <trkpt lat="42.4182900" lon="-3.1985090">
        <ele>751.4</ele>
        <time>2022-08-29T09:55:17Z</time>
      </trkpt>
      <trkpt lat="42.4182830" lon="-3.1985500">
        <ele>751.4</ele>
        <time>2022-08-29T09:55:18Z</time>
      </trkpt>
      <trkpt lat="42.4182770" lon="-3.1985930">
        <ele>751.4</ele>
        <time>2022-08-29T09:55:19Z</time>
      </trkpt>
      <trkpt lat="42.4182720" lon="-3.1986390">
        <ele>751.4</ele>
        <time>2022-08-29T09:55:20Z</time>
      </trkpt>
      <trkpt lat="42.4182670" lon="-3.1986850">
        <ele>751.4</ele>
        <time>2022-08-29T09:55:21Z</time>
      </trkpt>
      <trkpt lat="42.4182590" lon="-3.1987370">
        <ele>751.4</ele>
        <time>2022-08-29T09:55:22Z</time>
      </trkpt>
      <trkpt lat="42.4182570" lon="-3.1987880">
        <ele>751.6</ele>
        <time>2022-08-29T09:55:23Z</time>
      </trkpt>
      <trkpt lat="42.4182540" lon="-3.1988420">
        <ele>751.6</ele>
        <time>2022-08-29T09:55:24Z</time>
      </trkpt>
      <trkpt lat="42.4182500" lon="-3.1988960">
        <ele>751.6</ele>
        <time>2022-08-29T09:55:25Z</time>
      </trkpt>
      <trkpt lat="42.4182420" lon="-3.1989510">
        <ele>751.6</ele>
        <time>2022-08-29T09:55:26Z</time>
      </trkpt>
      <trkpt lat="42.4182350" lon="-3.1990070">
        <ele>751.4</ele>
        <time>2022-08-29T09:55:27Z</time>
      </trkpt>
      <trkpt lat="42.4182290" lon="-3.1990630">
        <ele>751.6</ele>
        <time>2022-08-29T09:55:28Z</time>
      </trkpt>
      <trkpt lat="42.4182210" lon="-3.1991200">
        <ele>751.6</ele>
        <time>2022-08-29T09:55:29Z</time>
      </trkpt>
      <trkpt lat="42.4182150" lon="-3.1991760">
        <ele>751.6</ele>
        <time>2022-08-29T09:55:30Z</time>
      </trkpt>
      <trkpt lat="42.4182090" lon="-3.1992310">
        <ele>751.6</ele>
        <time>2022-08-29T09:55:31Z</time>
      </trkpt>
      <trkpt lat="42.4182040" lon="-3.1992840">
        <ele>751.6</ele>
        <time>2022-08-29T09:55:32Z</time>
      </trkpt>
      <trkpt lat="42.4182040" lon="-3.1993370">
        <ele>751.6</ele>
        <time>2022-08-29T09:55:33Z</time>
      </trkpt>
      <trkpt lat="42.4181960" lon="-3.1993880">
        <ele>751.8</ele>
        <time>2022-08-29T09:55:34Z</time>
      </trkpt>
      <trkpt lat="42.4181830" lon="-3.1994390">
        <ele>751.8</ele>
        <time>2022-08-29T09:55:35Z</time>
      </trkpt>
      <trkpt lat="42.4181710" lon="-3.1994890">
        <ele>751.8</ele>
        <time>2022-08-29T09:55:36Z</time>
      </trkpt>
      <trkpt lat="42.4181600" lon="-3.1995380">
        <ele>751.8</ele>
        <time>2022-08-29T09:55:37Z</time>
      </trkpt>
      <trkpt lat="42.4181490" lon="-3.1995860">
        <ele>752.0</ele>
        <time>2022-08-29T09:55:38Z</time>
      </trkpt>
      <trkpt lat="42.4181390" lon="-3.1996330">
        <ele>752.0</ele>
        <time>2022-08-29T09:55:39Z</time>
      </trkpt>
      <trkpt lat="42.4181290" lon="-3.1996770">
        <ele>752.0</ele>
        <time>2022-08-29T09:55:40Z</time>
      </trkpt>
      <trkpt lat="42.4181190" lon="-3.1997180">
        <ele>752.0</ele>
        <time>2022-08-29T09:55:41Z</time>
      </trkpt>
      <trkpt lat="42.4181080" lon="-3.1997580">
        <ele>752.2</ele>
        <time>2022-08-29T09:55:42Z</time>
      </trkpt>
      <trkpt lat="42.4180980" lon="-3.1997990">
        <ele>752.2</ele>
        <time>2022-08-29T09:55:43Z</time>
      </trkpt>
      <trkpt lat="42.4180940" lon="-3.1998400">
        <ele>752.2</ele>
        <time>2022-08-29T09:55:44Z</time>
      </trkpt>
      <trkpt lat="42.4180870" lon="-3.1998810">
        <ele>752.2</ele>
        <time>2022-08-29T09:55:45Z</time>
      </trkpt>
      <trkpt lat="42.4180790" lon="-3.1999230">
        <ele>752.2</ele>
        <time>2022-08-29T09:55:46Z</time>
      </trkpt>
      <trkpt lat="42.4180700" lon="-3.1999680">
        <ele>752.4</ele>
        <time>2022-08-29T09:55:47Z</time>
      </trkpt>
      <trkpt lat="42.4180620" lon="-3.2000140">
        <ele>752.4</ele>
        <time>2022-08-29T09:55:48Z</time>
      </trkpt>
      <trkpt lat="42.4180550" lon="-3.2000620">
        <ele>752.6</ele>
        <time>2022-08-29T09:55:49Z</time>
      </trkpt>
      <trkpt lat="42.4180460" lon="-3.2001110">
        <ele>752.6</ele>
        <time>2022-08-29T09:55:50Z</time>
      </trkpt>
      <trkpt lat="42.4180410" lon="-3.2001620">
        <ele>752.8</ele>
        <time>2022-08-29T09:55:51Z</time>
      </trkpt>
      <trkpt lat="42.4180290" lon="-3.2002110">
        <ele>752.8</ele>
        <time>2022-08-29T09:55:52Z</time>
      </trkpt>
      <trkpt lat="42.4180160" lon="-3.2002590">
        <ele>752.8</ele>
        <time>2022-08-29T09:55:53Z</time>
      </trkpt>
      <trkpt lat="42.4180000" lon="-3.2003070">
        <ele>753.0</ele>
        <time>2022-08-29T09:55:54Z</time>
      </trkpt>
      <trkpt lat="42.4179840" lon="-3.2003550">
        <ele>752.8</ele>
        <time>2022-08-29T09:55:55Z</time>
      </trkpt>
      <trkpt lat="42.4179700" lon="-3.2004030">
        <ele>753.0</ele>
        <time>2022-08-29T09:55:56Z</time>
      </trkpt>
      <trkpt lat="42.4179560" lon="-3.2004540">
        <ele>753.0</ele>
        <time>2022-08-29T09:55:57Z</time>
      </trkpt>
      <trkpt lat="42.4179430" lon="-3.2005060">
        <ele>753.0</ele>
        <time>2022-08-29T09:55:58Z</time>
      </trkpt>
      <trkpt lat="42.4179280" lon="-3.2005570">
        <ele>753.2</ele>
        <time>2022-08-29T09:55:59Z</time>
      </trkpt>
      <trkpt lat="42.4179130" lon="-3.2006090">
        <ele>753.2</ele>
        <time>2022-08-29T09:56:00Z</time>
      </trkpt>
      <trkpt lat="42.4178950" lon="-3.2006610">
        <ele>753.2</ele>
        <time>2022-08-29T09:56:01Z</time>
      </trkpt>
      <trkpt lat="42.4178720" lon="-3.2007110">
        <ele>753.2</ele>
        <time>2022-08-29T09:56:02Z</time>
      </trkpt>
      <trkpt lat="42.4178460" lon="-3.2007580">
        <ele>753.2</ele>
        <time>2022-08-29T09:56:03Z</time>
      </trkpt>
      <trkpt lat="42.4178210" lon="-3.2008040">
        <ele>753.2</ele>
        <time>2022-08-29T09:56:04Z</time>
      </trkpt>
      <trkpt lat="42.4177970" lon="-3.2008510">
        <ele>753.2</ele>
        <time>2022-08-29T09:56:05Z</time>
      </trkpt>
      <trkpt lat="42.4177770" lon="-3.2008990">
        <ele>753.2</ele>
        <time>2022-08-29T09:56:06Z</time>
      </trkpt>
      <trkpt lat="42.4177600" lon="-3.2009450">
        <ele>753.2</ele>
        <time>2022-08-29T09:56:07Z</time>
      </trkpt>
      <trkpt lat="42.4177450" lon="-3.2009840">
        <ele>753.2</ele>
        <time>2022-08-29T09:56:08Z</time>
      </trkpt>
      <trkpt lat="42.4177360" lon="-3.2010110">
        <ele>753.2</ele>
        <time>2022-08-29T09:56:09Z</time>
      </trkpt>
      <trkpt lat="42.4177310" lon="-3.2010310">
        <ele>753.2</ele>
        <time>2022-08-29T09:56:10Z</time>
      </trkpt>
      <trkpt lat="42.4177300" lon="-3.2010440">
        <ele>753.4</ele>
        <time>2022-08-29T09:56:11Z</time>
      </trkpt>
      <trkpt lat="42.4177270" lon="-3.2010530">
        <ele>753.4</ele>
        <time>2022-08-29T09:56:12Z</time>
      </trkpt>
      <trkpt lat="42.4177250" lon="-3.2010590">
        <ele>753.4</ele>
        <time>2022-08-29T09:56:13Z</time>
      </trkpt>
      <trkpt lat="42.4177320" lon="-3.2010580">
        <ele>753.4</ele>
        <time>2022-08-29T09:56:14Z</time>
      </trkpt>
      <trkpt lat="42.4177330" lon="-3.2010570">
        <ele>753.6</ele>
        <time>2022-08-29T09:56:15Z</time>
      </trkpt>
      <trkpt lat="42.4177320" lon="-3.2010580">
        <ele>754.0</ele>
        <time>2022-08-29T09:56:16Z</time>
      </trkpt>
      <trkpt lat="42.4177320" lon="-3.2010590">
        <ele>754.4</ele>
        <time>2022-08-29T09:56:17Z</time>
      </trkpt>
      <trkpt lat="42.4177340" lon="-3.2010590">
        <ele>754.8</ele>
        <time>2022-08-29T09:56:18Z</time>
      </trkpt>
      <trkpt lat="42.4177310" lon="-3.2010630">
        <ele>754.8</ele>
        <time>2022-08-29T09:56:19Z</time>
      </trkpt>
      <trkpt lat="42.4177310" lon="-3.2010720">
        <ele>755.0</ele>
        <time>2022-08-29T09:56:20Z</time>
      </trkpt>
      <trkpt lat="42.4177280" lon="-3.2010890">
        <ele>755.2</ele>
        <time>2022-08-29T09:56:21Z</time>
      </trkpt>
      <trkpt lat="42.4177250" lon="-3.2011100">
        <ele>755.4</ele>
        <time>2022-08-29T09:56:22Z</time>
      </trkpt>
      <trkpt lat="42.4177270" lon="-3.2011360">
        <ele>755.4</ele>
        <time>2022-08-29T09:56:23Z</time>
      </trkpt>
      <trkpt lat="42.4177220" lon="-3.2011650">
        <ele>755.4</ele>
        <time>2022-08-29T09:56:24Z</time>
      </trkpt>
      <trkpt lat="42.4177140" lon="-3.2011970">
        <ele>755.6</ele>
        <time>2022-08-29T09:56:25Z</time>
      </trkpt>
      <trkpt lat="42.4177050" lon="-3.2012300">
        <ele>755.6</ele>
        <time>2022-08-29T09:56:26Z</time>
      </trkpt>
      <trkpt lat="42.4177020" lon="-3.2012670">
        <ele>755.6</ele>
        <time>2022-08-29T09:56:27Z</time>
      </trkpt>
      <trkpt lat="42.4177010" lon="-3.2013060">
        <ele>755.6</ele>
        <time>2022-08-29T09:56:28Z</time>
      </trkpt>
      <trkpt lat="42.4176960" lon="-3.2013480">
        <ele>755.6</ele>
        <time>2022-08-29T09:56:29Z</time>
      </trkpt>
      <trkpt lat="42.4176940" lon="-3.2013910">
        <ele>755.6</ele>
        <time>2022-08-29T09:56:30Z</time>
      </trkpt>
      <trkpt lat="42.4176950" lon="-3.2014340">
        <ele>755.6</ele>
        <time>2022-08-29T09:56:31Z</time>
      </trkpt>
      <trkpt lat="42.4177000" lon="-3.2014770">
        <ele>755.6</ele>
        <time>2022-08-29T09:56:32Z</time>
      </trkpt>
      <trkpt lat="42.4177090" lon="-3.2015190">
        <ele>755.6</ele>
        <time>2022-08-29T09:56:33Z</time>
      </trkpt>
      <trkpt lat="42.4177230" lon="-3.2015650">
        <ele>755.4</ele>
        <time>2022-08-29T09:56:34Z</time>
      </trkpt>
      <trkpt lat="42.4177440" lon="-3.2016140">
        <ele>755.4</ele>
        <time>2022-08-29T09:56:35Z</time>
      </trkpt>
      <trkpt lat="42.4177680" lon="-3.2016640">
        <ele>755.4</ele>
        <time>2022-08-29T09:56:36Z</time>
      </trkpt>
      <trkpt lat="42.4178020" lon="-3.2017160">
        <ele>755.4</ele>
        <time>2022-08-29T09:56:37Z</time>
      </trkpt>
      <trkpt lat="42.4178300" lon="-3.2017590">
        <ele>755.4</ele>
        <time>2022-08-29T09:56:38Z</time>
      </trkpt>
      <trkpt lat="42.4178630" lon="-3.2018040">
        <ele>755.4</ele>
        <time>2022-08-29T09:56:39Z</time>
      </trkpt>
      <trkpt lat="42.4178880" lon="-3.2018460">
        <ele>755.4</ele>
        <time>2022-08-29T09:56:40Z</time>
      </trkpt>
      <trkpt lat="42.4179130" lon="-3.2018980">
        <ele>755.2</ele>
        <time>2022-08-29T09:56:41Z</time>
      </trkpt>
      <trkpt lat="42.4179400" lon="-3.2019470">
        <ele>755.2</ele>
        <time>2022-08-29T09:56:42Z</time>
      </trkpt>
      <trkpt lat="42.4179630" lon="-3.2019960">
        <ele>755.0</ele>
        <time>2022-08-29T09:56:43Z</time>
      </trkpt>
      <trkpt lat="42.4179840" lon="-3.2020420">
        <ele>754.8</ele>
        <time>2022-08-29T09:56:44Z</time>
      </trkpt>
      <trkpt lat="42.4180000" lon="-3.2020860">
        <ele>754.6</ele>
        <time>2022-08-29T09:56:45Z</time>
      </trkpt>
      <trkpt lat="42.4180230" lon="-3.2021310">
        <ele>754.8</ele>
        <time>2022-08-29T09:56:46Z</time>
      </trkpt>
      <trkpt lat="42.4180470" lon="-3.2021790">
        <ele>754.6</ele>
        <time>2022-08-29T09:56:47Z</time>
      </trkpt>
      <trkpt lat="42.4180690" lon="-3.2022270">
        <ele>754.6</ele>
        <time>2022-08-29T09:56:48Z</time>
      </trkpt>
      <trkpt lat="42.4180930" lon="-3.2022740">
        <ele>754.4</ele>
        <time>2022-08-29T09:56:49Z</time>
      </trkpt>
      <trkpt lat="42.4181140" lon="-3.2023200">
        <ele>754.4</ele>
        <time>2022-08-29T09:56:50Z</time>
      </trkpt>
      <trkpt lat="42.4181350" lon="-3.2023630">
        <ele>754.4</ele>
        <time>2022-08-29T09:56:51Z</time>
      </trkpt>
      <trkpt lat="42.4181530" lon="-3.2024050">
        <ele>754.4</ele>
        <time>2022-08-29T09:56:52Z</time>
      </trkpt>
      <trkpt lat="42.4181720" lon="-3.2024470">
        <ele>754.4</ele>
        <time>2022-08-29T09:56:53Z</time>
      </trkpt>
      <trkpt lat="42.4181920" lon="-3.2024880">
        <ele>754.4</ele>
        <time>2022-08-29T09:56:54Z</time>
      </trkpt>
      <trkpt lat="42.4182110" lon="-3.2025330">
        <ele>754.6</ele>
        <time>2022-08-29T09:56:55Z</time>
      </trkpt>
      <trkpt lat="42.4182300" lon="-3.2025800">
        <ele>754.4</ele>
        <time>2022-08-29T09:56:56Z</time>
      </trkpt>
      <trkpt lat="42.4182510" lon="-3.2026300">
        <ele>754.6</ele>
        <time>2022-08-29T09:56:57Z</time>
      </trkpt>
      <trkpt lat="42.4182690" lon="-3.2026760">
        <ele>754.6</ele>
        <time>2022-08-29T09:56:58Z</time>
      </trkpt>
      <trkpt lat="42.4182880" lon="-3.2027240">
        <ele>754.6</ele>
        <time>2022-08-29T09:56:59Z</time>
      </trkpt>
      <trkpt lat="42.4183120" lon="-3.2027710">
        <ele>754.6</ele>
        <time>2022-08-29T09:57:00Z</time>
      </trkpt>
      <trkpt lat="42.4183390" lon="-3.2028200">
        <ele>754.4</ele>
        <time>2022-08-29T09:57:01Z</time>
      </trkpt>
      <trkpt lat="42.4183650" lon="-3.2028670">
        <ele>754.4</ele>
        <time>2022-08-29T09:57:02Z</time>
      </trkpt>
      <trkpt lat="42.4183900" lon="-3.2029200">
        <ele>754.6</ele>
        <time>2022-08-29T09:57:03Z</time>
      </trkpt>
      <trkpt lat="42.4184150" lon="-3.2029770">
        <ele>754.6</ele>
        <time>2022-08-29T09:57:04Z</time>
      </trkpt>
      <trkpt lat="42.4184410" lon="-3.2030350">
        <ele>754.6</ele>
        <time>2022-08-29T09:57:05Z</time>
      </trkpt>
      <trkpt lat="42.4184690" lon="-3.2030910">
        <ele>754.4</ele>
        <time>2022-08-29T09:57:06Z</time>
      </trkpt>
      <trkpt lat="42.4184970" lon="-3.2031460">
        <ele>754.4</ele>
        <time>2022-08-29T09:57:07Z</time>
      </trkpt>
      <trkpt lat="42.4185230" lon="-3.2032000">
        <ele>754.4</ele>
        <time>2022-08-29T09:57:08Z</time>
      </trkpt>
      <trkpt lat="42.4185420" lon="-3.2032500">
        <ele>754.4</ele>
        <time>2022-08-29T09:57:09Z</time>
      </trkpt>
      <trkpt lat="42.4185590" lon="-3.2033020">
        <ele>754.4</ele>
        <time>2022-08-29T09:57:10Z</time>
      </trkpt>
      <trkpt lat="42.4185710" lon="-3.2033500">
        <ele>754.4</ele>
        <time>2022-08-29T09:57:11Z</time>
      </trkpt>
      <trkpt lat="42.4185880" lon="-3.2033980">
        <ele>754.4</ele>
        <time>2022-08-29T09:57:12Z</time>
      </trkpt>
      <trkpt lat="42.4186030" lon="-3.2034470">
        <ele>754.4</ele>
        <time>2022-08-29T09:57:13Z</time>
      </trkpt>
      <trkpt lat="42.4186170" lon="-3.2035050">
        <ele>754.4</ele>
        <time>2022-08-29T09:57:14Z</time>
      </trkpt>
      <trkpt lat="42.4186280" lon="-3.2035710">
        <ele>754.4</ele>
        <time>2022-08-29T09:57:15Z</time>
      </trkpt>
      <trkpt lat="42.4186390" lon="-3.2036380">
        <ele>754.4</ele>
        <time>2022-08-29T09:57:16Z</time>
      </trkpt>
      <trkpt lat="42.4186470" lon="-3.2037050">
        <ele>754.4</ele>
        <time>2022-08-29T09:57:17Z</time>
      </trkpt>
      <trkpt lat="42.4186550" lon="-3.2037720">
        <ele>754.4</ele>
        <time>2022-08-29T09:57:18Z</time>
      </trkpt>
      <trkpt lat="42.4186610" lon="-3.2038360">
        <ele>754.2</ele>
        <time>2022-08-29T09:57:19Z</time>
      </trkpt>
      <trkpt lat="42.4186670" lon="-3.2039010">
        <ele>754.0</ele>
        <time>2022-08-29T09:57:20Z</time>
      </trkpt>
      <trkpt lat="42.4186680" lon="-3.2039640">
        <ele>754.0</ele>
        <time>2022-08-29T09:57:21Z</time>
      </trkpt>
      <trkpt lat="42.4186640" lon="-3.2040230">
        <ele>754.0</ele>
        <time>2022-08-29T09:57:22Z</time>
      </trkpt>
      <trkpt lat="42.4186570" lon="-3.2040830">
        <ele>754.2</ele>
        <time>2022-08-29T09:57:23Z</time>
      </trkpt>
      <trkpt lat="42.4186420" lon="-3.2041410">
        <ele>754.2</ele>
        <time>2022-08-29T09:57:24Z</time>
      </trkpt>
      <trkpt lat="42.4186280" lon="-3.2042000">
        <ele>754.4</ele>
        <time>2022-08-29T09:57:25Z</time>
      </trkpt>
      <trkpt lat="42.4186090" lon="-3.2042570">
        <ele>754.4</ele>
        <time>2022-08-29T09:57:26Z</time>
      </trkpt>
      <trkpt lat="42.4185870" lon="-3.2043110">
        <ele>754.6</ele>
        <time>2022-08-29T09:57:27Z</time>
      </trkpt>
      <trkpt lat="42.4185630" lon="-3.2043620">
        <ele>754.8</ele>
        <time>2022-08-29T09:57:28Z</time>
      </trkpt>
      <trkpt lat="42.4185390" lon="-3.2044160">
        <ele>755.0</ele>
        <time>2022-08-29T09:57:29Z</time>
      </trkpt>
      <trkpt lat="42.4185160" lon="-3.2044690">
        <ele>755.2</ele>
        <time>2022-08-29T09:57:30Z</time>
      </trkpt>
      <trkpt lat="42.4184890" lon="-3.2045240">
        <ele>755.2</ele>
        <time>2022-08-29T09:57:31Z</time>
      </trkpt>
      <trkpt lat="42.4184590" lon="-3.2045780">
        <ele>755.4</ele>
        <time>2022-08-29T09:57:32Z</time>
      </trkpt>
      <trkpt lat="42.4184270" lon="-3.2046320">
        <ele>755.4</ele>
        <time>2022-08-29T09:57:33Z</time>
      </trkpt>
      <trkpt lat="42.4183970" lon="-3.2046870">
        <ele>755.6</ele>
        <time>2022-08-29T09:57:34Z</time>
      </trkpt>
      <trkpt lat="42.4183640" lon="-3.2047430">
        <ele>755.8</ele>
        <time>2022-08-29T09:57:35Z</time>
      </trkpt>
      <trkpt lat="42.4183330" lon="-3.2048010">
        <ele>756.0</ele>
        <time>2022-08-29T09:57:36Z</time>
      </trkpt>
      <trkpt lat="42.4183020" lon="-3.2048610">
        <ele>756.2</ele>
        <time>2022-08-29T09:57:37Z</time>
      </trkpt>
      <trkpt lat="42.4182760" lon="-3.2049240">
        <ele>756.2</ele>
        <time>2022-08-29T09:57:38Z</time>
      </trkpt>
      <trkpt lat="42.4182510" lon="-3.2049840">
        <ele>756.2</ele>
        <time>2022-08-29T09:57:39Z</time>
      </trkpt>
      <trkpt lat="42.4182270" lon="-3.2050430">
        <ele>756.4</ele>
        <time>2022-08-29T09:57:40Z</time>
      </trkpt>
      <trkpt lat="42.4182050" lon="-3.2051000">
        <ele>756.4</ele>
        <time>2022-08-29T09:57:41Z</time>
      </trkpt>
      <trkpt lat="42.4181860" lon="-3.2051520">
        <ele>756.6</ele>
        <time>2022-08-29T09:57:42Z</time>
      </trkpt>
      <trkpt lat="42.4181700" lon="-3.2052000">
        <ele>756.6</ele>
        <time>2022-08-29T09:57:43Z</time>
      </trkpt>
      <trkpt lat="42.4181560" lon="-3.2052430">
        <ele>756.6</ele>
        <time>2022-08-29T09:57:44Z</time>
      </trkpt>
      <trkpt lat="42.4181450" lon="-3.2052790">
        <ele>756.6</ele>
        <time>2022-08-29T09:57:45Z</time>
      </trkpt>
      <trkpt lat="42.4181330" lon="-3.2053070">
        <ele>756.6</ele>
        <time>2022-08-29T09:57:46Z</time>
      </trkpt>
      <trkpt lat="42.4181230" lon="-3.2053350">
        <ele>757.0</ele>
        <time>2022-08-29T09:57:47Z</time>
      </trkpt>
      <trkpt lat="42.4181120" lon="-3.2053610">
        <ele>757.0</ele>
        <time>2022-08-29T09:57:48Z</time>
      </trkpt>
      <trkpt lat="42.4180990" lon="-3.2053850">
        <ele>757.2</ele>
        <time>2022-08-29T09:57:49Z</time>
      </trkpt>
      <trkpt lat="42.4180860" lon="-3.2054090">
        <ele>757.4</ele>
        <time>2022-08-29T09:57:50Z</time>
      </trkpt>
      <trkpt lat="42.4180660" lon="-3.2054340">
        <ele>757.8</ele>
        <time>2022-08-29T09:57:51Z</time>
      </trkpt>
      <trkpt lat="42.4180440" lon="-3.2054640">
        <ele>758.2</ele>
        <time>2022-08-29T09:57:52Z</time>
      </trkpt>
      <trkpt lat="42.4180280" lon="-3.2054970">
        <ele>758.8</ele>
        <time>2022-08-29T09:57:53Z</time>
      </trkpt>
      <trkpt lat="42.4180040" lon="-3.2055280">
        <ele>759.4</ele>
        <time>2022-08-29T09:57:54Z</time>
      </trkpt>
      <trkpt lat="42.4179810" lon="-3.2055590">
        <ele>759.6</ele>
        <time>2022-08-29T09:57:55Z</time>
      </trkpt>
      <trkpt lat="42.4179580" lon="-3.2055910">
        <ele>760.0</ele>
        <time>2022-08-29T09:57:56Z</time>
      </trkpt>
      <trkpt lat="42.4179360" lon="-3.2056220">
        <ele>760.0</ele>
        <time>2022-08-29T09:57:57Z</time>
      </trkpt>
      <trkpt lat="42.4179190" lon="-3.2056530">
        <ele>760.2</ele>
        <time>2022-08-29T09:57:58Z</time>
      </trkpt>
      <trkpt lat="42.4178960" lon="-3.2056820">
        <ele>760.2</ele>
        <time>2022-08-29T09:57:59Z</time>
      </trkpt>
      <trkpt lat="42.4178700" lon="-3.2057100">
        <ele>760.4</ele>
        <time>2022-08-29T09:58:00Z</time>
      </trkpt>
      <trkpt lat="42.4178420" lon="-3.2057380">
        <ele>760.4</ele>
        <time>2022-08-29T09:58:01Z</time>
      </trkpt>
      <trkpt lat="42.4178140" lon="-3.2057630">
        <ele>760.6</ele>
        <time>2022-08-29T09:58:02Z</time>
      </trkpt>
      <trkpt lat="42.4177850" lon="-3.2057870">
        <ele>760.8</ele>
        <time>2022-08-29T09:58:03Z</time>
      </trkpt>
      <trkpt lat="42.4177550" lon="-3.2058090">
        <ele>760.8</ele>
        <time>2022-08-29T09:58:04Z</time>
      </trkpt>
      <trkpt lat="42.4177260" lon="-3.2058290">
        <ele>760.8</ele>
        <time>2022-08-29T09:58:05Z</time>
      </trkpt>
      <trkpt lat="42.4177010" lon="-3.2058500">
        <ele>761.0</ele>
        <time>2022-08-29T09:58:06Z</time>
      </trkpt>
      <trkpt lat="42.4176710" lon="-3.2058710">
        <ele>761.0</ele>
        <time>2022-08-29T09:58:07Z</time>
      </trkpt>
      <trkpt lat="42.4176430" lon="-3.2058970">
        <ele>761.2</ele>
        <time>2022-08-29T09:58:08Z</time>
      </trkpt>
      <trkpt lat="42.4176170" lon="-3.2059230">
        <ele>761.2</ele>
        <time>2022-08-29T09:58:09Z</time>
      </trkpt>
      <trkpt lat="42.4175930" lon="-3.2059490">
        <ele>761.4</ele>
        <time>2022-08-29T09:58:10Z</time>
      </trkpt>
      <trkpt lat="42.4175750" lon="-3.2059790">
        <ele>761.6</ele>
        <time>2022-08-29T09:58:11Z</time>
      </trkpt>
      <trkpt lat="42.4175590" lon="-3.2060120">
        <ele>761.6</ele>
        <time>2022-08-29T09:58:12Z</time>
      </trkpt>
      <trkpt lat="42.4175370" lon="-3.2060430">
        <ele>762.0</ele>
        <time>2022-08-29T09:58:13Z</time>
      </trkpt>
      <trkpt lat="42.4175140" lon="-3.2060750">
        <ele>762.0</ele>
        <time>2022-08-29T09:58:14Z</time>
      </trkpt>
      <trkpt lat="42.4174900" lon="-3.2061060">
        <ele>762.2</ele>
        <time>2022-08-29T09:58:15Z</time>
      </trkpt>
      <trkpt lat="42.4174670" lon="-3.2061380">
        <ele>762.2</ele>
        <time>2022-08-29T09:58:16Z</time>
      </trkpt>
      <trkpt lat="42.4174440" lon="-3.2061710">
        <ele>762.2</ele>
        <time>2022-08-29T09:58:17Z</time>
      </trkpt>
      <trkpt lat="42.4174210" lon="-3.2062030">
        <ele>762.4</ele>
        <time>2022-08-29T09:58:18Z</time>
      </trkpt>
      <trkpt lat="42.4173950" lon="-3.2062370">
        <ele>762.4</ele>
        <time>2022-08-29T09:58:19Z</time>
      </trkpt>
      <trkpt lat="42.4173690" lon="-3.2062700">
        <ele>762.6</ele>
        <time>2022-08-29T09:58:20Z</time>
      </trkpt>
      <trkpt lat="42.4173470" lon="-3.2063060">
        <ele>762.8</ele>
        <time>2022-08-29T09:58:21Z</time>
      </trkpt>
      <trkpt lat="42.4173260" lon="-3.2063420">
        <ele>763.0</ele>
        <time>2022-08-29T09:58:22Z</time>
      </trkpt>
      <trkpt lat="42.4173060" lon="-3.2063770">
        <ele>763.2</ele>
        <time>2022-08-29T09:58:23Z</time>
      </trkpt>
      <trkpt lat="42.4172860" lon="-3.2064140">
        <ele>763.2</ele>
        <time>2022-08-29T09:58:24Z</time>
      </trkpt>
      <trkpt lat="42.4172650" lon="-3.2064510">
        <ele>763.4</ele>
        <time>2022-08-29T09:58:25Z</time>
      </trkpt>
      <trkpt lat="42.4172430" lon="-3.2064860">
        <ele>763.2</ele>
        <time>2022-08-29T09:58:26Z</time>
      </trkpt>
      <trkpt lat="42.4172200" lon="-3.2065210">
        <ele>763.2</ele>
        <time>2022-08-29T09:58:27Z</time>
      </trkpt>
      <trkpt lat="42.4171980" lon="-3.2065580">
        <ele>763.4</ele>
        <time>2022-08-29T09:58:28Z</time>
      </trkpt>
      <trkpt lat="42.4171780" lon="-3.2065930">
        <ele>763.6</ele>
        <time>2022-08-29T09:58:29Z</time>
      </trkpt>
      <trkpt lat="42.4171580" lon="-3.2066290">
        <ele>763.6</ele>
        <time>2022-08-29T09:58:30Z</time>
      </trkpt>
      <trkpt lat="42.4171380" lon="-3.2066670">
        <ele>763.6</ele>
        <time>2022-08-29T09:58:31Z</time>
      </trkpt>
      <trkpt lat="42.4171180" lon="-3.2067050">
        <ele>763.6</ele>
        <time>2022-08-29T09:58:32Z</time>
      </trkpt>
      <trkpt lat="42.4170940" lon="-3.2067440">
        <ele>763.6</ele>
        <time>2022-08-29T09:58:33Z</time>
      </trkpt>
      <trkpt lat="42.4170700" lon="-3.2067820">
        <ele>763.6</ele>
        <time>2022-08-29T09:58:34Z</time>
      </trkpt>
      <trkpt lat="42.4170440" lon="-3.2068210">
        <ele>763.6</ele>
        <time>2022-08-29T09:58:35Z</time>
      </trkpt>
      <trkpt lat="42.4170190" lon="-3.2068590">
        <ele>763.8</ele>
        <time>2022-08-29T09:58:36Z</time>
      </trkpt>
      <trkpt lat="42.4169930" lon="-3.2068990">
        <ele>763.8</ele>
        <time>2022-08-29T09:58:37Z</time>
      </trkpt>
      <trkpt lat="42.4169710" lon="-3.2069420">
        <ele>763.8</ele>
        <time>2022-08-29T09:58:38Z</time>
      </trkpt>
      <trkpt lat="42.4169510" lon="-3.2069880">
        <ele>763.8</ele>
        <time>2022-08-29T09:58:39Z</time>
      </trkpt>
      <trkpt lat="42.4169320" lon="-3.2070360">
        <ele>763.8</ele>
        <time>2022-08-29T09:58:40Z</time>
      </trkpt>
      <trkpt lat="42.4169140" lon="-3.2070830">
        <ele>763.8</ele>
        <time>2022-08-29T09:58:41Z</time>
      </trkpt>
      <trkpt lat="42.4168950" lon="-3.2071300">
        <ele>763.8</ele>
        <time>2022-08-29T09:58:42Z</time>
      </trkpt>
      <trkpt lat="42.4168760" lon="-3.2071790">
        <ele>763.8</ele>
        <time>2022-08-29T09:58:43Z</time>
      </trkpt>
      <trkpt lat="42.4168590" lon="-3.2072290">
        <ele>763.8</ele>
        <time>2022-08-29T09:58:44Z</time>
      </trkpt>
      <trkpt lat="42.4168410" lon="-3.2072790">
        <ele>764.0</ele>
        <time>2022-08-29T09:58:45Z</time>
      </trkpt>
      <trkpt lat="42.4168220" lon="-3.2073290">
        <ele>764.0</ele>
        <time>2022-08-29T09:58:46Z</time>
      </trkpt>
      <trkpt lat="42.4168040" lon="-3.2073790">
        <ele>764.0</ele>
        <time>2022-08-29T09:58:47Z</time>
      </trkpt>
      <trkpt lat="42.4167870" lon="-3.2074280">
        <ele>764.0</ele>
        <time>2022-08-29T09:58:48Z</time>
      </trkpt>
      <trkpt lat="42.4167710" lon="-3.2074750">
        <ele>764.0</ele>
        <time>2022-08-29T09:58:49Z</time>
      </trkpt>
      <trkpt lat="42.4167540" lon="-3.2075200">
        <ele>764.0</ele>
        <time>2022-08-29T09:58:50Z</time>
      </trkpt>
      <trkpt lat="42.4167380" lon="-3.2075640">
        <ele>764.2</ele>
        <time>2022-08-29T09:58:51Z</time>
      </trkpt>
      <trkpt lat="42.4167220" lon="-3.2076090">
        <ele>764.0</ele>
        <time>2022-08-29T09:58:52Z</time>
      </trkpt>
      <trkpt lat="42.4167070" lon="-3.2076550">
        <ele>764.2</ele>
        <time>2022-08-29T09:58:53Z</time>
      </trkpt>
      <trkpt lat="42.4166930" lon="-3.2077000">
        <ele>764.2</ele>
        <time>2022-08-29T09:58:54Z</time>
      </trkpt>
      <trkpt lat="42.4166780" lon="-3.2077440">
        <ele>764.2</ele>
        <time>2022-08-29T09:58:55Z</time>
      </trkpt>
      <trkpt lat="42.4166630" lon="-3.2077870">
        <ele>764.2</ele>
        <time>2022-08-29T09:58:56Z</time>
      </trkpt>
      <trkpt lat="42.4166500" lon="-3.2078320">
        <ele>764.4</ele>
        <time>2022-08-29T09:58:57Z</time>
      </trkpt>
      <trkpt lat="42.4166360" lon="-3.2078740">
        <ele>764.4</ele>
        <time>2022-08-29T09:58:58Z</time>
      </trkpt>
      <trkpt lat="42.4166200" lon="-3.2079140">
        <ele>764.6</ele>
        <time>2022-08-29T09:58:59Z</time>
      </trkpt>
      <trkpt lat="42.4166030" lon="-3.2079550">
        <ele>764.8</ele>
        <time>2022-08-29T09:59:00Z</time>
      </trkpt>
      <trkpt lat="42.4165860" lon="-3.2079950">
        <ele>765.0</ele>
        <time>2022-08-29T09:59:01Z</time>
      </trkpt>
      <trkpt lat="42.4165690" lon="-3.2080360">
        <ele>765.0</ele>
        <time>2022-08-29T09:59:02Z</time>
      </trkpt>
      <trkpt lat="42.4165520" lon="-3.2080780">
        <ele>765.0</ele>
        <time>2022-08-29T09:59:03Z</time>
      </trkpt>
      <trkpt lat="42.4165340" lon="-3.2081200">
        <ele>765.2</ele>
        <time>2022-08-29T09:59:04Z</time>
      </trkpt>
      <trkpt lat="42.4165170" lon="-3.2081600">
        <ele>765.4</ele>
        <time>2022-08-29T09:59:05Z</time>
      </trkpt>
      <trkpt lat="42.4164990" lon="-3.2082030">
        <ele>765.4</ele>
        <time>2022-08-29T09:59:06Z</time>
      </trkpt>
      <trkpt lat="42.4164790" lon="-3.2082460">
        <ele>765.6</ele>
        <time>2022-08-29T09:59:07Z</time>
      </trkpt>
      <trkpt lat="42.4164580" lon="-3.2082880">
        <ele>765.6</ele>
        <time>2022-08-29T09:59:08Z</time>
      </trkpt>
      <trkpt lat="42.4164410" lon="-3.2083310">
        <ele>765.6</ele>
        <time>2022-08-29T09:59:09Z</time>
      </trkpt>
      <trkpt lat="42.4164270" lon="-3.2083710">
        <ele>765.6</ele>
        <time>2022-08-29T09:59:10Z</time>
      </trkpt>
      <trkpt lat="42.4164230" lon="-3.2084120">
        <ele>765.8</ele>
        <time>2022-08-29T09:59:11Z</time>
      </trkpt>
      <trkpt lat="42.4164090" lon="-3.2084580">
        <ele>765.6</ele>
        <time>2022-08-29T09:59:12Z</time>
      </trkpt>
      <trkpt lat="42.4163930" lon="-3.2085100">
        <ele>765.8</ele>
        <time>2022-08-29T09:59:13Z</time>
      </trkpt>
      <trkpt lat="42.4163780" lon="-3.2085690">
        <ele>765.8</ele>
        <time>2022-08-29T09:59:14Z</time>
      </trkpt>
      <trkpt lat="42.4163710" lon="-3.2086310">
        <ele>766.0</ele>
        <time>2022-08-29T09:59:15Z</time>
      </trkpt>
      <trkpt lat="42.4163720" lon="-3.2086860">
        <ele>766.0</ele>
        <time>2022-08-29T09:59:16Z</time>
      </trkpt>
      <trkpt lat="42.4163710" lon="-3.2087320">
        <ele>766.2</ele>
        <time>2022-08-29T09:59:17Z</time>
      </trkpt>
      <trkpt lat="42.4163680" lon="-3.2087720">
        <ele>766.2</ele>
        <time>2022-08-29T09:59:18Z</time>
      </trkpt>
      <trkpt lat="42.4163740" lon="-3.2088110">
        <ele>766.2</ele>
        <time>2022-08-29T09:59:19Z</time>
      </trkpt>
      <trkpt lat="42.4163760" lon="-3.2088470">
        <ele>766.2</ele>
        <time>2022-08-29T09:59:20Z</time>
      </trkpt>
      <trkpt lat="42.4163710" lon="-3.2088800">
        <ele>766.0</ele>
        <time>2022-08-29T09:59:21Z</time>
      </trkpt>
      <trkpt lat="42.4163600" lon="-3.2089110">
        <ele>766.2</ele>
        <time>2022-08-29T09:59:22Z</time>
      </trkpt>
      <trkpt lat="42.4163430" lon="-3.2089400">
        <ele>766.4</ele>
        <time>2022-08-29T09:59:23Z</time>
      </trkpt>
      <trkpt lat="42.4163260" lon="-3.2089720">
        <ele>766.2</ele>
        <time>2022-08-29T09:59:24Z</time>
      </trkpt>
      <trkpt lat="42.4163080" lon="-3.2090060">
        <ele>766.6</ele>
        <time>2022-08-29T09:59:25Z</time>
      </trkpt>
      <trkpt lat="42.4162870" lon="-3.2090380">
        <ele>767.0</ele>
        <time>2022-08-29T09:59:26Z</time>
      </trkpt>
      <trkpt lat="42.4162660" lon="-3.2090660">
        <ele>767.2</ele>
        <time>2022-08-29T09:59:27Z</time>
      </trkpt>
      <trkpt lat="42.4162500" lon="-3.2090990">
        <ele>767.2</ele>
        <time>2022-08-29T09:59:28Z</time>
      </trkpt>
      <trkpt lat="42.4162490" lon="-3.2091370">
        <ele>767.4</ele>
        <time>2022-08-29T09:59:29Z</time>
      </trkpt>
      <trkpt lat="42.4162440" lon="-3.2091730">
        <ele>767.4</ele>
        <time>2022-08-29T09:59:30Z</time>
      </trkpt>
      <trkpt lat="42.4162390" lon="-3.2092090">
        <ele>767.6</ele>
        <time>2022-08-29T09:59:31Z</time>
      </trkpt>
      <trkpt lat="42.4162320" lon="-3.2092470">
        <ele>767.6</ele>
        <time>2022-08-29T09:59:32Z</time>
      </trkpt>
      <trkpt lat="42.4162220" lon="-3.2092870">
        <ele>767.6</ele>
        <time>2022-08-29T09:59:33Z</time>
      </trkpt>
      <trkpt lat="42.4162120" lon="-3.2093290">
        <ele>767.4</ele>
        <time>2022-08-29T09:59:34Z</time>
      </trkpt>
      <trkpt lat="42.4162020" lon="-3.2093730">
        <ele>767.6</ele>
        <time>2022-08-29T09:59:35Z</time>
      </trkpt>
      <trkpt lat="42.4161910" lon="-3.2094170">
        <ele>767.6</ele>
        <time>2022-08-29T09:59:36Z</time>
      </trkpt>
      <trkpt lat="42.4161780" lon="-3.2094610">
        <ele>767.6</ele>
        <time>2022-08-29T09:59:37Z</time>
      </trkpt>
      <trkpt lat="42.4161630" lon="-3.2095060">
        <ele>767.6</ele>
        <time>2022-08-29T09:59:38Z</time>
      </trkpt>
      <trkpt lat="42.4161470" lon="-3.2095500">
        <ele>767.4</ele>
        <time>2022-08-29T09:59:39Z</time>
      </trkpt>
      <trkpt lat="42.4161330" lon="-3.2095950">
        <ele>767.4</ele>
        <time>2022-08-29T09:59:40Z</time>
      </trkpt>
      <trkpt lat="42.4161200" lon="-3.2096420">
        <ele>767.6</ele>
        <time>2022-08-29T09:59:41Z</time>
      </trkpt>
      <trkpt lat="42.4161100" lon="-3.2096920">
        <ele>767.6</ele>
        <time>2022-08-29T09:59:42Z</time>
      </trkpt>
      <trkpt lat="42.4161000" lon="-3.2097400">
        <ele>767.6</ele>
        <time>2022-08-29T09:59:43Z</time>
      </trkpt>
      <trkpt lat="42.4160880" lon="-3.2097870">
        <ele>767.6</ele>
        <time>2022-08-29T09:59:44Z</time>
      </trkpt>
      <trkpt lat="42.4160740" lon="-3.2098320">
        <ele>767.6</ele>
        <time>2022-08-29T09:59:45Z</time>
      </trkpt>
      <trkpt lat="42.4160610" lon="-3.2098740">
        <ele>767.8</ele>
        <time>2022-08-29T09:59:46Z</time>
      </trkpt>
      <trkpt lat="42.4160490" lon="-3.2099170">
        <ele>767.8</ele>
        <time>2022-08-29T09:59:47Z</time>
      </trkpt>
      <trkpt lat="42.4160380" lon="-3.2099580">
        <ele>768.0</ele>
        <time>2022-08-29T09:59:48Z</time>
      </trkpt>
      <trkpt lat="42.4160280" lon="-3.2099990">
        <ele>768.0</ele>
        <time>2022-08-29T09:59:49Z</time>
      </trkpt>
      <trkpt lat="42.4160280" lon="-3.2100460">
        <ele>768.2</ele>
        <time>2022-08-29T09:59:50Z</time>
      </trkpt>
      <trkpt lat="42.4160180" lon="-3.2100880">
        <ele>768.2</ele>
        <time>2022-08-29T09:59:51Z</time>
      </trkpt>
      <trkpt lat="42.4160060" lon="-3.2101280">
        <ele>768.2</ele>
        <time>2022-08-29T09:59:52Z</time>
      </trkpt>
      <trkpt lat="42.4159870" lon="-3.2101670">
        <ele>768.2</ele>
        <time>2022-08-29T09:59:53Z</time>
      </trkpt>
      <trkpt lat="42.4159670" lon="-3.2102040">
        <ele>768.2</ele>
        <time>2022-08-29T09:59:54Z</time>
      </trkpt>
      <trkpt lat="42.4159460" lon="-3.2102410">
        <ele>768.8</ele>
        <time>2022-08-29T09:59:55Z</time>
      </trkpt>
      <trkpt lat="42.4159260" lon="-3.2102790">
        <ele>768.8</ele>
        <time>2022-08-29T09:59:56Z</time>
      </trkpt>
      <trkpt lat="42.4159030" lon="-3.2103170">
        <ele>769.0</ele>
        <time>2022-08-29T09:59:57Z</time>
      </trkpt>
      <trkpt lat="42.4158800" lon="-3.2103550">
        <ele>769.4</ele>
        <time>2022-08-29T09:59:58Z</time>
      </trkpt>
      <trkpt lat="42.4158560" lon="-3.2103960">
        <ele>769.6</ele>
        <time>2022-08-29T09:59:59Z</time>
      </trkpt>
      <trkpt lat="42.4158360" lon="-3.2104360">
        <ele>769.8</ele>
        <time>2022-08-29T10:00:00Z</time>
      </trkpt>
      <trkpt lat="42.4158140" lon="-3.2104760">
        <ele>770.0</ele>
        <time>2022-08-29T10:00:01Z</time>
      </trkpt>
      <trkpt lat="42.4157910" lon="-3.2105170">
        <ele>770.0</ele>
        <time>2022-08-29T10:00:02Z</time>
      </trkpt>
      <trkpt lat="42.4157660" lon="-3.2105570">
        <ele>770.2</ele>
        <time>2022-08-29T10:00:03Z</time>
      </trkpt>
      <trkpt lat="42.4157380" lon="-3.2105970">
        <ele>770.2</ele>
        <time>2022-08-29T10:00:04Z</time>
      </trkpt>
      <trkpt lat="42.4157120" lon="-3.2106380">
        <ele>770.2</ele>
        <time>2022-08-29T10:00:05Z</time>
      </trkpt>
      <trkpt lat="42.4156860" lon="-3.2106830">
        <ele>770.2</ele>
        <time>2022-08-29T10:00:06Z</time>
      </trkpt>
      <trkpt lat="42.4156610" lon="-3.2107280">
        <ele>770.2</ele>
        <time>2022-08-29T10:00:07Z</time>
      </trkpt>
      <trkpt lat="42.4156370" lon="-3.2107740">
        <ele>770.4</ele>
        <time>2022-08-29T10:00:08Z</time>
      </trkpt>
      <trkpt lat="42.4156130" lon="-3.2108210">
        <ele>770.4</ele>
        <time>2022-08-29T10:00:09Z</time>
      </trkpt>
      <trkpt lat="42.4155890" lon="-3.2108660">
        <ele>770.6</ele>
        <time>2022-08-29T10:00:10Z</time>
      </trkpt>
      <trkpt lat="42.4155630" lon="-3.2109130">
        <ele>770.6</ele>
        <time>2022-08-29T10:00:11Z</time>
      </trkpt>
      <trkpt lat="42.4155360" lon="-3.2109590">
        <ele>770.6</ele>
        <time>2022-08-29T10:00:12Z</time>
      </trkpt>
      <trkpt lat="42.4155110" lon="-3.2110040">
        <ele>770.6</ele>
        <time>2022-08-29T10:00:13Z</time>
      </trkpt>
      <trkpt lat="42.4154850" lon="-3.2110490">
        <ele>770.8</ele>
        <time>2022-08-29T10:00:14Z</time>
      </trkpt>
      <trkpt lat="42.4154590" lon="-3.2110900">
        <ele>770.6</ele>
        <time>2022-08-29T10:00:15Z</time>
      </trkpt>
      <trkpt lat="42.4154330" lon="-3.2111290">
        <ele>770.6</ele>
        <time>2022-08-29T10:00:16Z</time>
      </trkpt>
      <trkpt lat="42.4154080" lon="-3.2111650">
        <ele>771.0</ele>
        <time>2022-08-29T10:00:17Z</time>
      </trkpt>
      <trkpt lat="42.4153840" lon="-3.2112000">
        <ele>771.0</ele>
        <time>2022-08-29T10:00:18Z</time>
      </trkpt>
      <trkpt lat="42.4153620" lon="-3.2112340">
        <ele>770.8</ele>
        <time>2022-08-29T10:00:19Z</time>
      </trkpt>
      <trkpt lat="42.4153400" lon="-3.2112700">
        <ele>771.0</ele>
        <time>2022-08-29T10:00:20Z</time>
      </trkpt>
      <trkpt lat="42.4153170" lon="-3.2113050">
        <ele>771.0</ele>
        <time>2022-08-29T10:00:21Z</time>
      </trkpt>
      <trkpt lat="42.4152940" lon="-3.2113400">
        <ele>771.0</ele>
        <time>2022-08-29T10:00:22Z</time>
      </trkpt>
      <trkpt lat="42.4152710" lon="-3.2113770">
        <ele>771.2</ele>
        <time>2022-08-29T10:00:23Z</time>
      </trkpt>
      <trkpt lat="42.4152470" lon="-3.2114180">
        <ele>771.6</ele>
        <time>2022-08-29T10:00:24Z</time>
      </trkpt>
      <trkpt lat="42.4152240" lon="-3.2114620">
        <ele>771.6</ele>
        <time>2022-08-29T10:00:25Z</time>
      </trkpt>
      <trkpt lat="42.4152000" lon="-3.2115060">
        <ele>772.0</ele>
        <time>2022-08-29T10:00:26Z</time>
      </trkpt>
      <trkpt lat="42.4151760" lon="-3.2115510">
        <ele>772.4</ele>
        <time>2022-08-29T10:00:27Z</time>
      </trkpt>
      <trkpt lat="42.4151530" lon="-3.2115960">
        <ele>772.6</ele>
        <time>2022-08-29T10:00:28Z</time>
      </trkpt>
      <trkpt lat="42.4151330" lon="-3.2116420">
        <ele>772.8</ele>
        <time>2022-08-29T10:00:29Z</time>
      </trkpt>
      <trkpt lat="42.4151150" lon="-3.2116880">
        <ele>772.8</ele>
        <time>2022-08-29T10:00:30Z</time>
      </trkpt>
      <trkpt lat="42.4150980" lon="-3.2117350">
        <ele>772.8</ele>
        <time>2022-08-29T10:00:31Z</time>
      </trkpt>
      <trkpt lat="42.4150800" lon="-3.2117810">
        <ele>773.0</ele>
        <time>2022-08-29T10:00:32Z</time>
      </trkpt>
      <trkpt lat="42.4150630" lon="-3.2118270">
        <ele>773.0</ele>
        <time>2022-08-29T10:00:33Z</time>
      </trkpt>
      <trkpt lat="42.4150490" lon="-3.2118780">
        <ele>773.0</ele>
        <time>2022-08-29T10:00:34Z</time>
      </trkpt>
      <trkpt lat="42.4150330" lon="-3.2119280">
        <ele>773.2</ele>
        <time>2022-08-29T10:00:35Z</time>
      </trkpt>
      <trkpt lat="42.4150150" lon="-3.2119800">
        <ele>773.2</ele>
        <time>2022-08-29T10:00:36Z</time>
      </trkpt>
      <trkpt lat="42.4149970" lon="-3.2120360">
        <ele>773.2</ele>
        <time>2022-08-29T10:00:37Z</time>
      </trkpt>
      <trkpt lat="42.4149800" lon="-3.2120940">
        <ele>773.2</ele>
        <time>2022-08-29T10:00:38Z</time>
      </trkpt>
      <trkpt lat="42.4149650" lon="-3.2121520">
        <ele>773.4</ele>
        <time>2022-08-29T10:00:39Z</time>
      </trkpt>
      <trkpt lat="42.4149490" lon="-3.2122060">
        <ele>773.6</ele>
        <time>2022-08-29T10:00:40Z</time>
      </trkpt>
      <trkpt lat="42.4149410" lon="-3.2122620">
        <ele>773.8</ele>
        <time>2022-08-29T10:00:41Z</time>
      </trkpt>
      <trkpt lat="42.4149300" lon="-3.2123170">
        <ele>773.8</ele>
        <time>2022-08-29T10:00:42Z</time>
      </trkpt>
      <trkpt lat="42.4149180" lon="-3.2123680">
        <ele>773.8</ele>
        <time>2022-08-29T10:00:43Z</time>
      </trkpt>
      <trkpt lat="42.4149080" lon="-3.2124190">
        <ele>773.8</ele>
        <time>2022-08-29T10:00:44Z</time>
      </trkpt>
      <trkpt lat="42.4148980" lon="-3.2124660">
        <ele>774.2</ele>
        <time>2022-08-29T10:00:45Z</time>
      </trkpt>
      <trkpt lat="42.4148880" lon="-3.2125130">
        <ele>774.2</ele>
        <time>2022-08-29T10:00:46Z</time>
      </trkpt>
      <trkpt lat="42.4148770" lon="-3.2125590">
        <ele>774.0</ele>
        <time>2022-08-29T10:00:47Z</time>
      </trkpt>
      <trkpt lat="42.4148660" lon="-3.2126050">
        <ele>774.2</ele>
        <time>2022-08-29T10:00:48Z</time>
      </trkpt>
      <trkpt lat="42.4148530" lon="-3.2126510">
        <ele>774.4</ele>
        <time>2022-08-29T10:00:49Z</time>
      </trkpt>
      <trkpt lat="42.4148390" lon="-3.2126980">
        <ele>774.4</ele>
        <time>2022-08-29T10:00:50Z</time>
      </trkpt>
      <trkpt lat="42.4148260" lon="-3.2127440">
        <ele>774.6</ele>
        <time>2022-08-29T10:00:51Z</time>
      </trkpt>
      <trkpt lat="42.4148110" lon="-3.2127910">
        <ele>775.0</ele>
        <time>2022-08-29T10:00:52Z</time>
      </trkpt>
      <trkpt lat="42.4148030" lon="-3.2128420">
        <ele>775.2</ele>
        <time>2022-08-29T10:00:53Z</time>
      </trkpt>
      <trkpt lat="42.4147900" lon="-3.2128900">
        <ele>775.6</ele>
        <time>2022-08-29T10:00:54Z</time>
      </trkpt>
      <trkpt lat="42.4147760" lon="-3.2129400">
        <ele>775.8</ele>
        <time>2022-08-29T10:00:55Z</time>
      </trkpt>
      <trkpt lat="42.4147620" lon="-3.2129910">
        <ele>775.8</ele>
        <time>2022-08-29T10:00:56Z</time>
      </trkpt>
      <trkpt lat="42.4147550" lon="-3.2130440">
        <ele>776.2</ele>
        <time>2022-08-29T10:00:57Z</time>
      </trkpt>
      <trkpt lat="42.4147490" lon="-3.2130980">
        <ele>776.4</ele>
        <time>2022-08-29T10:00:58Z</time>
      </trkpt>
      <trkpt lat="42.4147390" lon="-3.2131480">
        <ele>776.2</ele>
        <time>2022-08-29T10:00:59Z</time>
      </trkpt>
      <trkpt lat="42.4147280" lon="-3.2131970">
        <ele>776.2</ele>
        <time>2022-08-29T10:01:00Z</time>
      </trkpt>
      <trkpt lat="42.4147180" lon="-3.2132430">
        <ele>776.4</ele>
        <time>2022-08-29T10:01:01Z</time>
      </trkpt>
      <trkpt lat="42.4147110" lon="-3.2132840">
        <ele>776.4</ele>
        <time>2022-08-29T10:01:02Z</time>
      </trkpt>
      <trkpt lat="42.4147110" lon="-3.2133250">
        <ele>776.4</ele>
        <time>2022-08-29T10:01:03Z</time>
      </trkpt>
      <trkpt lat="42.4147120" lon="-3.2133640">
        <ele>776.6</ele>
        <time>2022-08-29T10:01:04Z</time>
      </trkpt>
      <trkpt lat="42.4147090" lon="-3.2134030">
        <ele>776.6</ele>
        <time>2022-08-29T10:01:05Z</time>
      </trkpt>
      <trkpt lat="42.4147010" lon="-3.2134440">
        <ele>777.0</ele>
        <time>2022-08-29T10:01:06Z</time>
      </trkpt>
      <trkpt lat="42.4146970" lon="-3.2134940">
        <ele>777.0</ele>
        <time>2022-08-29T10:01:07Z</time>
      </trkpt>
      <trkpt lat="42.4146950" lon="-3.2135530">
        <ele>777.0</ele>
        <time>2022-08-29T10:01:08Z</time>
      </trkpt>
      <trkpt lat="42.4146940" lon="-3.2136150">
        <ele>777.4</ele>
        <time>2022-08-29T10:01:09Z</time>
      </trkpt>
      <trkpt lat="42.4146860" lon="-3.2136730">
        <ele>777.4</ele>
        <time>2022-08-29T10:01:10Z</time>
      </trkpt>
      <trkpt lat="42.4146710" lon="-3.2137280">
        <ele>777.4</ele>
        <time>2022-08-29T10:01:11Z</time>
      </trkpt>
      <trkpt lat="42.4146490" lon="-3.2137800">
        <ele>777.4</ele>
        <time>2022-08-29T10:01:12Z</time>
      </trkpt>
      <trkpt lat="42.4146250" lon="-3.2138310">
        <ele>777.4</ele>
        <time>2022-08-29T10:01:13Z</time>
      </trkpt>
      <trkpt lat="42.4146000" lon="-3.2138840">
        <ele>777.4</ele>
        <time>2022-08-29T10:01:14Z</time>
      </trkpt>
      <trkpt lat="42.4145780" lon="-3.2139360">
        <ele>777.4</ele>
        <time>2022-08-29T10:01:15Z</time>
      </trkpt>
      <trkpt lat="42.4145570" lon="-3.2139880">
        <ele>777.4</ele>
        <time>2022-08-29T10:01:16Z</time>
      </trkpt>
      <trkpt lat="42.4145350" lon="-3.2140420">
        <ele>777.6</ele>
        <time>2022-08-29T10:01:17Z</time>
      </trkpt>
      <trkpt lat="42.4145140" lon="-3.2140950">
        <ele>777.4</ele>
        <time>2022-08-29T10:01:18Z</time>
      </trkpt>
      <trkpt lat="42.4144940" lon="-3.2141500">
        <ele>777.4</ele>
        <time>2022-08-29T10:01:19Z</time>
      </trkpt>
      <trkpt lat="42.4144760" lon="-3.2142050">
        <ele>777.4</ele>
        <time>2022-08-29T10:01:20Z</time>
      </trkpt>
      <trkpt lat="42.4144580" lon="-3.2142610">
        <ele>777.4</ele>
        <time>2022-08-29T10:01:21Z</time>
      </trkpt>
      <trkpt lat="42.4144420" lon="-3.2143190">
        <ele>777.4</ele>
        <time>2022-08-29T10:01:22Z</time>
      </trkpt>
      <trkpt lat="42.4144260" lon="-3.2143760">
        <ele>777.4</ele>
        <time>2022-08-29T10:01:23Z</time>
      </trkpt>
      <trkpt lat="42.4144080" lon="-3.2144350">
        <ele>777.6</ele>
        <time>2022-08-29T10:01:24Z</time>
      </trkpt>
      <trkpt lat="42.4143940" lon="-3.2144960">
        <ele>777.4</ele>
        <time>2022-08-29T10:01:25Z</time>
      </trkpt>
      <trkpt lat="42.4143780" lon="-3.2145550">
        <ele>777.4</ele>
        <time>2022-08-29T10:01:26Z</time>
      </trkpt>
      <trkpt lat="42.4143650" lon="-3.2146150">
        <ele>777.4</ele>
        <time>2022-08-29T10:01:27Z</time>
      </trkpt>
      <trkpt lat="42.4143530" lon="-3.2146740">
        <ele>777.2</ele>
        <time>2022-08-29T10:01:28Z</time>
      </trkpt>
      <trkpt lat="42.4143430" lon="-3.2147360">
        <ele>777.4</ele>
        <time>2022-08-29T10:01:29Z</time>
      </trkpt>
      <trkpt lat="42.4143290" lon="-3.2147970">
        <ele>777.4</ele>
        <time>2022-08-29T10:01:30Z</time>
      </trkpt>
      <trkpt lat="42.4143100" lon="-3.2148570">
        <ele>777.2</ele>
        <time>2022-08-29T10:01:31Z</time>
      </trkpt>
      <trkpt lat="42.4142850" lon="-3.2149130">
        <ele>777.2</ele>
        <time>2022-08-29T10:01:32Z</time>
      </trkpt>
      <trkpt lat="42.4142580" lon="-3.2149700">
        <ele>777.2</ele>
        <time>2022-08-29T10:01:33Z</time>
      </trkpt>
      <trkpt lat="42.4142280" lon="-3.2150260">
        <ele>777.4</ele>
        <time>2022-08-29T10:01:34Z</time>
      </trkpt>
      <trkpt lat="42.4142010" lon="-3.2150860">
        <ele>777.2</ele>
        <time>2022-08-29T10:01:35Z</time>
      </trkpt>
      <trkpt lat="42.4141760" lon="-3.2151490">
        <ele>777.2</ele>
        <time>2022-08-29T10:01:36Z</time>
      </trkpt>
      <trkpt lat="42.4141520" lon="-3.2152130">
        <ele>777.0</ele>
        <time>2022-08-29T10:01:37Z</time>
      </trkpt>
      <trkpt lat="42.4141260" lon="-3.2152740">
        <ele>777.2</ele>
        <time>2022-08-29T10:01:38Z</time>
      </trkpt>
      <trkpt lat="42.4140960" lon="-3.2153360">
        <ele>776.6</ele>
        <time>2022-08-29T10:01:39Z</time>
      </trkpt>
      <trkpt lat="42.4140660" lon="-3.2153970">
        <ele>776.6</ele>
        <time>2022-08-29T10:01:40Z</time>
      </trkpt>
      <trkpt lat="42.4140370" lon="-3.2154600">
        <ele>776.4</ele>
        <time>2022-08-29T10:01:41Z</time>
      </trkpt>
      <trkpt lat="42.4140110" lon="-3.2155270">
        <ele>776.4</ele>
        <time>2022-08-29T10:01:42Z</time>
      </trkpt>
      <trkpt lat="42.4139880" lon="-3.2155950">
        <ele>776.4</ele>
        <time>2022-08-29T10:01:43Z</time>
      </trkpt>
      <trkpt lat="42.4139660" lon="-3.2156570">
        <ele>776.4</ele>
        <time>2022-08-29T10:01:44Z</time>
      </trkpt>
      <trkpt lat="42.4139460" lon="-3.2157180">
        <ele>776.6</ele>
        <time>2022-08-29T10:01:45Z</time>
      </trkpt>
      <trkpt lat="42.4139260" lon="-3.2157770">
        <ele>776.4</ele>
        <time>2022-08-29T10:01:46Z</time>
      </trkpt>
      <trkpt lat="42.4139120" lon="-3.2158350">
        <ele>776.4</ele>
        <time>2022-08-29T10:01:47Z</time>
      </trkpt>
      <trkpt lat="42.4138950" lon="-3.2158910">
        <ele>776.4</ele>
        <time>2022-08-29T10:01:48Z</time>
      </trkpt>
      <trkpt lat="42.4138700" lon="-3.2159430">
        <ele>776.4</ele>
        <time>2022-08-29T10:01:49Z</time>
      </trkpt>
      <trkpt lat="42.4138460" lon="-3.2159970">
        <ele>776.4</ele>
        <time>2022-08-29T10:01:50Z</time>
      </trkpt>
      <trkpt lat="42.4138230" lon="-3.2160500">
        <ele>776.4</ele>
        <time>2022-08-29T10:01:51Z</time>
      </trkpt>
      <trkpt lat="42.4138020" lon="-3.2161000">
        <ele>776.4</ele>
        <time>2022-08-29T10:01:52Z</time>
      </trkpt>
      <trkpt lat="42.4137800" lon="-3.2161460">
        <ele>776.6</ele>
        <time>2022-08-29T10:01:53Z</time>
      </trkpt>
      <trkpt lat="42.4137600" lon="-3.2161890">
        <ele>776.6</ele>
        <time>2022-08-29T10:01:54Z</time>
      </trkpt>
      <trkpt lat="42.4137390" lon="-3.2162300">
        <ele>776.8</ele>
        <time>2022-08-29T10:01:55Z</time>
      </trkpt>
      <trkpt lat="42.4137190" lon="-3.2162690">
        <ele>777.0</ele>
        <time>2022-08-29T10:01:56Z</time>
      </trkpt>
      <trkpt lat="42.4136970" lon="-3.2163070">
        <ele>777.0</ele>
        <time>2022-08-29T10:01:57Z</time>
      </trkpt>
      <trkpt lat="42.4136710" lon="-3.2163480">
        <ele>777.2</ele>
        <time>2022-08-29T10:01:58Z</time>
      </trkpt>
      <trkpt lat="42.4136450" lon="-3.2163840">
        <ele>777.2</ele>
        <time>2022-08-29T10:01:59Z</time>
      </trkpt>
      <trkpt lat="42.4136260" lon="-3.2164200">
        <ele>777.4</ele>
        <time>2022-08-29T10:02:00Z</time>
      </trkpt>
      <trkpt lat="42.4136090" lon="-3.2164560">
        <ele>777.6</ele>
        <time>2022-08-29T10:02:01Z</time>
      </trkpt>
      <trkpt lat="42.4135950" lon="-3.2164950">
        <ele>777.8</ele>
        <time>2022-08-29T10:02:02Z</time>
      </trkpt>
      <trkpt lat="42.4135810" lon="-3.2165380">
        <ele>777.8</ele>
        <time>2022-08-29T10:02:03Z</time>
      </trkpt>
      <trkpt lat="42.4135650" lon="-3.2165820">
        <ele>778.2</ele>
        <time>2022-08-29T10:02:04Z</time>
      </trkpt>
      <trkpt lat="42.4135470" lon="-3.2166280">
        <ele>778.0</ele>
        <time>2022-08-29T10:02:05Z</time>
      </trkpt>
      <trkpt lat="42.4135340" lon="-3.2166710">
        <ele>778.2</ele>
        <time>2022-08-29T10:02:06Z</time>
      </trkpt>
      <trkpt lat="42.4135200" lon="-3.2167100">
        <ele>778.2</ele>
        <time>2022-08-29T10:02:07Z</time>
      </trkpt>
      <trkpt lat="42.4135040" lon="-3.2167510">
        <ele>778.2</ele>
        <time>2022-08-29T10:02:08Z</time>
      </trkpt>
      <trkpt lat="42.4134890" lon="-3.2167900">
        <ele>778.4</ele>
        <time>2022-08-29T10:02:09Z</time>
      </trkpt>
      <trkpt lat="42.4134740" lon="-3.2168310">
        <ele>778.4</ele>
        <time>2022-08-29T10:02:10Z</time>
      </trkpt>
      <trkpt lat="42.4134590" lon="-3.2168730">
        <ele>778.6</ele>
        <time>2022-08-29T10:02:11Z</time>
      </trkpt>
      <trkpt lat="42.4134460" lon="-3.2169180">
        <ele>778.8</ele>
        <time>2022-08-29T10:02:12Z</time>
      </trkpt>
      <trkpt lat="42.4134310" lon="-3.2169610">
        <ele>778.8</ele>
        <time>2022-08-29T10:02:13Z</time>
      </trkpt>
      <trkpt lat="42.4134200" lon="-3.2170080">
        <ele>779.0</ele>
        <time>2022-08-29T10:02:14Z</time>
      </trkpt>
      <trkpt lat="42.4134040" lon="-3.2170530">
        <ele>779.2</ele>
        <time>2022-08-29T10:02:15Z</time>
      </trkpt>
      <trkpt lat="42.4133920" lon="-3.2171010">
        <ele>779.4</ele>
        <time>2022-08-29T10:02:16Z</time>
      </trkpt>
      <trkpt lat="42.4133750" lon="-3.2171510">
        <ele>779.6</ele>
        <time>2022-08-29T10:02:17Z</time>
      </trkpt>
      <trkpt lat="42.4133590" lon="-3.2172030">
        <ele>779.6</ele>
        <time>2022-08-29T10:02:18Z</time>
      </trkpt>
      <trkpt lat="42.4133420" lon="-3.2172550">
        <ele>779.8</ele>
        <time>2022-08-29T10:02:19Z</time>
      </trkpt>
      <trkpt lat="42.4133240" lon="-3.2173060">
        <ele>779.8</ele>
        <time>2022-08-29T10:02:20Z</time>
      </trkpt>
      <trkpt lat="42.4133060" lon="-3.2173560">
        <ele>779.8</ele>
        <time>2022-08-29T10:02:21Z</time>
      </trkpt>
      <trkpt lat="42.4132880" lon="-3.2174050">
        <ele>779.8</ele>
        <time>2022-08-29T10:02:22Z</time>
      </trkpt>
      <trkpt lat="42.4132700" lon="-3.2174540">
        <ele>779.8</ele>
        <time>2022-08-29T10:02:23Z</time>
      </trkpt>
      <trkpt lat="42.4132510" lon="-3.2175050">
        <ele>779.8</ele>
        <time>2022-08-29T10:02:24Z</time>
      </trkpt>
      <trkpt lat="42.4132320" lon="-3.2175520">
        <ele>780.0</ele>
        <time>2022-08-29T10:02:25Z</time>
      </trkpt>
      <trkpt lat="42.4132130" lon="-3.2176000">
        <ele>780.0</ele>
        <time>2022-08-29T10:02:26Z</time>
      </trkpt>
      <trkpt lat="42.4131950" lon="-3.2176460">
        <ele>780.0</ele>
        <time>2022-08-29T10:02:27Z</time>
      </trkpt>
      <trkpt lat="42.4131770" lon="-3.2176930">
        <ele>780.0</ele>
        <time>2022-08-29T10:02:28Z</time>
      </trkpt>
      <trkpt lat="42.4131590" lon="-3.2177390">
        <ele>780.0</ele>
        <time>2022-08-29T10:02:29Z</time>
      </trkpt>
      <trkpt lat="42.4131420" lon="-3.2177880">
        <ele>780.0</ele>
        <time>2022-08-29T10:02:30Z</time>
      </trkpt>
      <trkpt lat="42.4131250" lon="-3.2178390">
        <ele>780.0</ele>
        <time>2022-08-29T10:02:31Z</time>
      </trkpt>
      <trkpt lat="42.4131070" lon="-3.2178900">
        <ele>780.2</ele>
        <time>2022-08-29T10:02:32Z</time>
      </trkpt>
      <trkpt lat="42.4130890" lon="-3.2179420">
        <ele>780.2</ele>
        <time>2022-08-29T10:02:33Z</time>
      </trkpt>
      <trkpt lat="42.4130710" lon="-3.2179940">
        <ele>780.2</ele>
        <time>2022-08-29T10:02:34Z</time>
      </trkpt>
      <trkpt lat="42.4130540" lon="-3.2180490">
        <ele>780.6</ele>
        <time>2022-08-29T10:02:35Z</time>
      </trkpt>
      <trkpt lat="42.4130370" lon="-3.2181040">
        <ele>780.6</ele>
        <time>2022-08-29T10:02:36Z</time>
      </trkpt>
      <trkpt lat="42.4130210" lon="-3.2181610">
        <ele>780.6</ele>
        <time>2022-08-29T10:02:37Z</time>
      </trkpt>
      <trkpt lat="42.4130040" lon="-3.2182170">
        <ele>780.8</ele>
        <time>2022-08-29T10:02:38Z</time>
      </trkpt>
      <trkpt lat="42.4129880" lon="-3.2182750">
        <ele>780.8</ele>
        <time>2022-08-29T10:02:39Z</time>
      </trkpt>
      <trkpt lat="42.4129740" lon="-3.2183340">
        <ele>781.0</ele>
        <time>2022-08-29T10:02:40Z</time>
      </trkpt>
      <trkpt lat="42.4129620" lon="-3.2183990">
        <ele>781.0</ele>
        <time>2022-08-29T10:02:41Z</time>
      </trkpt>
      <trkpt lat="42.4129490" lon="-3.2184670">
        <ele>780.8</ele>
        <time>2022-08-29T10:02:42Z</time>
      </trkpt>
      <trkpt lat="42.4129350" lon="-3.2185360">
        <ele>780.8</ele>
        <time>2022-08-29T10:02:43Z</time>
      </trkpt>
      <trkpt lat="42.4129180" lon="-3.2186080">
        <ele>780.8</ele>
        <time>2022-08-29T10:02:44Z</time>
      </trkpt>
      <trkpt lat="42.4129010" lon="-3.2186820">
        <ele>781.0</ele>
        <time>2022-08-29T10:02:45Z</time>
      </trkpt>
      <trkpt lat="42.4128880" lon="-3.2187600">
        <ele>781.0</ele>
        <time>2022-08-29T10:02:46Z</time>
      </trkpt>
      <trkpt lat="42.4128760" lon="-3.2188400">
        <ele>780.8</ele>
        <time>2022-08-29T10:02:47Z</time>
      </trkpt>
      <trkpt lat="42.4128640" lon="-3.2189180">
        <ele>780.8</ele>
        <time>2022-08-29T10:02:48Z</time>
      </trkpt>
      <trkpt lat="42.4128550" lon="-3.2189980">
        <ele>780.8</ele>
        <time>2022-08-29T10:02:49Z</time>
      </trkpt>
      <trkpt lat="42.4128470" lon="-3.2190760">
        <ele>780.8</ele>
        <time>2022-08-29T10:02:50Z</time>
      </trkpt>
      <trkpt lat="42.4128400" lon="-3.2191520">
        <ele>780.6</ele>
        <time>2022-08-29T10:02:51Z</time>
      </trkpt>
      <trkpt lat="42.4128330" lon="-3.2192260">
        <ele>780.2</ele>
        <time>2022-08-29T10:02:52Z</time>
      </trkpt>
      <trkpt lat="42.4128250" lon="-3.2192960">
        <ele>780.2</ele>
        <time>2022-08-29T10:02:53Z</time>
      </trkpt>
      <trkpt lat="42.4128150" lon="-3.2193630">
        <ele>780.0</ele>
        <time>2022-08-29T10:02:54Z</time>
      </trkpt>
      <trkpt lat="42.4128050" lon="-3.2194260">
        <ele>780.0</ele>
        <time>2022-08-29T10:02:55Z</time>
      </trkpt>
      <trkpt lat="42.4127970" lon="-3.2194860">
        <ele>780.0</ele>
        <time>2022-08-29T10:02:56Z</time>
      </trkpt>
      <trkpt lat="42.4127880" lon="-3.2195430">
        <ele>780.0</ele>
        <time>2022-08-29T10:02:57Z</time>
      </trkpt>
      <trkpt lat="42.4127790" lon="-3.2195980">
        <ele>780.0</ele>
        <time>2022-08-29T10:02:58Z</time>
      </trkpt>
      <trkpt lat="42.4127700" lon="-3.2196530">
        <ele>779.8</ele>
        <time>2022-08-29T10:02:59Z</time>
      </trkpt>
      <trkpt lat="42.4127610" lon="-3.2197090">
        <ele>780.0</ele>
        <time>2022-08-29T10:03:00Z</time>
      </trkpt>
      <trkpt lat="42.4127550" lon="-3.2197640">
        <ele>780.0</ele>
        <time>2022-08-29T10:03:01Z</time>
      </trkpt>
      <trkpt lat="42.4127490" lon="-3.2198190">
        <ele>780.0</ele>
        <time>2022-08-29T10:03:02Z</time>
      </trkpt>
      <trkpt lat="42.4127430" lon="-3.2198760">
        <ele>779.8</ele>
        <time>2022-08-29T10:03:03Z</time>
      </trkpt>
      <trkpt lat="42.4127360" lon="-3.2199340">
        <ele>780.0</ele>
        <time>2022-08-29T10:03:04Z</time>
      </trkpt>
      <trkpt lat="42.4127280" lon="-3.2199940">
        <ele>780.2</ele>
        <time>2022-08-29T10:03:05Z</time>
      </trkpt>
      <trkpt lat="42.4127220" lon="-3.2200540">
        <ele>780.4</ele>
        <time>2022-08-29T10:03:06Z</time>
      </trkpt>
      <trkpt lat="42.4127180" lon="-3.2201160">
        <ele>780.6</ele>
        <time>2022-08-29T10:03:07Z</time>
      </trkpt>
      <trkpt lat="42.4127140" lon="-3.2201790">
        <ele>780.8</ele>
        <time>2022-08-29T10:03:08Z</time>
      </trkpt>
      <trkpt lat="42.4127130" lon="-3.2202420">
        <ele>780.8</ele>
        <time>2022-08-29T10:03:09Z</time>
      </trkpt>
      <trkpt lat="42.4127140" lon="-3.2203060">
        <ele>781.0</ele>
        <time>2022-08-29T10:03:10Z</time>
      </trkpt>
      <trkpt lat="42.4127120" lon="-3.2203690">
        <ele>780.8</ele>
        <time>2022-08-29T10:03:11Z</time>
      </trkpt>
      <trkpt lat="42.4127130" lon="-3.2204350">
        <ele>781.0</ele>
        <time>2022-08-29T10:03:12Z</time>
      </trkpt>
      <trkpt lat="42.4127140" lon="-3.2205010">
        <ele>781.2</ele>
        <time>2022-08-29T10:03:13Z</time>
      </trkpt>
      <trkpt lat="42.4127120" lon="-3.2205690">
        <ele>781.2</ele>
        <time>2022-08-29T10:03:14Z</time>
      </trkpt>
      <trkpt lat="42.4127100" lon="-3.2206350">
        <ele>781.0</ele>
        <time>2022-08-29T10:03:15Z</time>
      </trkpt>
      <trkpt lat="42.4127080" lon="-3.2207010">
        <ele>781.2</ele>
        <time>2022-08-29T10:03:16Z</time>
      </trkpt>
      <trkpt lat="42.4127040" lon="-3.2207680">
        <ele>781.4</ele>
        <time>2022-08-29T10:03:17Z</time>
      </trkpt>
      <trkpt lat="42.4126980" lon="-3.2208300">
        <ele>781.2</ele>
        <time>2022-08-29T10:03:18Z</time>
      </trkpt>
      <trkpt lat="42.4126910" lon="-3.2208920">
        <ele>781.2</ele>
        <time>2022-08-29T10:03:19Z</time>
      </trkpt>
      <trkpt lat="42.4126920" lon="-3.2209580">
        <ele>781.4</ele>
        <time>2022-08-29T10:03:20Z</time>
      </trkpt>
      <trkpt lat="42.4126920" lon="-3.2210240">
        <ele>781.2</ele>
        <time>2022-08-29T10:03:21Z</time>
      </trkpt>
      <trkpt lat="42.4126920" lon="-3.2210930">
        <ele>781.4</ele>
        <time>2022-08-29T10:03:22Z</time>
      </trkpt>
      <trkpt lat="42.4126880" lon="-3.2211570">
        <ele>781.4</ele>
        <time>2022-08-29T10:03:23Z</time>
      </trkpt>
      <trkpt lat="42.4126920" lon="-3.2212240">
        <ele>781.4</ele>
        <time>2022-08-29T10:03:24Z</time>
      </trkpt>
      <trkpt lat="42.4126940" lon="-3.2212910">
        <ele>781.6</ele>
        <time>2022-08-29T10:03:25Z</time>
      </trkpt>
      <trkpt lat="42.4126880" lon="-3.2213520">
        <ele>781.6</ele>
        <time>2022-08-29T10:03:26Z</time>
      </trkpt>
      <trkpt lat="42.4126770" lon="-3.2214140">
        <ele>781.6</ele>
        <time>2022-08-29T10:03:27Z</time>
      </trkpt>
      <trkpt lat="42.4126640" lon="-3.2214760">
        <ele>781.8</ele>
        <time>2022-08-29T10:03:28Z</time>
      </trkpt>
      <trkpt lat="42.4126500" lon="-3.2215390">
        <ele>781.8</ele>
        <time>2022-08-29T10:03:29Z</time>
      </trkpt>
      <trkpt lat="42.4126390" lon="-3.2216010">
        <ele>781.6</ele>
        <time>2022-08-29T10:03:30Z</time>
      </trkpt>
      <trkpt lat="42.4126340" lon="-3.2216640">
        <ele>781.8</ele>
        <time>2022-08-29T10:03:31Z</time>
      </trkpt>
      <trkpt lat="42.4126230" lon="-3.2217230">
        <ele>781.8</ele>
        <time>2022-08-29T10:03:32Z</time>
      </trkpt>
      <trkpt lat="42.4126080" lon="-3.2217800">
        <ele>781.8</ele>
        <time>2022-08-29T10:03:33Z</time>
      </trkpt>
      <trkpt lat="42.4125910" lon="-3.2218350">
        <ele>781.8</ele>
        <time>2022-08-29T10:03:34Z</time>
      </trkpt>
      <trkpt lat="42.4125710" lon="-3.2218890">
        <ele>781.8</ele>
        <time>2022-08-29T10:03:35Z</time>
      </trkpt>
      <trkpt lat="42.4125520" lon="-3.2219440">
        <ele>781.6</ele>
        <time>2022-08-29T10:03:36Z</time>
      </trkpt>
      <trkpt lat="42.4125350" lon="-3.2220000">
        <ele>781.8</ele>
        <time>2022-08-29T10:03:37Z</time>
      </trkpt>
      <trkpt lat="42.4125270" lon="-3.2220590">
        <ele>782.0</ele>
        <time>2022-08-29T10:03:38Z</time>
      </trkpt>
      <trkpt lat="42.4125150" lon="-3.2221130">
        <ele>782.0</ele>
        <time>2022-08-29T10:03:39Z</time>
      </trkpt>
      <trkpt lat="42.4125110" lon="-3.2221720">
        <ele>782.2</ele>
        <time>2022-08-29T10:03:40Z</time>
      </trkpt>
      <trkpt lat="42.4125120" lon="-3.2222310">
        <ele>782.4</ele>
        <time>2022-08-29T10:03:41Z</time>
      </trkpt>
      <trkpt lat="42.4125130" lon="-3.2222920">
        <ele>782.4</ele>
        <time>2022-08-29T10:03:42Z</time>
      </trkpt>
      <trkpt lat="42.4125130" lon="-3.2223530">
        <ele>782.4</ele>
        <time>2022-08-29T10:03:43Z</time>
      </trkpt>
      <trkpt lat="42.4125130" lon="-3.2224150">
        <ele>782.6</ele>
        <time>2022-08-29T10:03:44Z</time>
      </trkpt>
      <trkpt lat="42.4125120" lon="-3.2224770">
        <ele>782.6</ele>
        <time>2022-08-29T10:03:45Z</time>
      </trkpt>
      <trkpt lat="42.4125100" lon="-3.2225380">
        <ele>782.8</ele>
        <time>2022-08-29T10:03:46Z</time>
      </trkpt>
      <trkpt lat="42.4125090" lon="-3.2226020">
        <ele>782.6</ele>
        <time>2022-08-29T10:03:47Z</time>
      </trkpt>
      <trkpt lat="42.4125100" lon="-3.2226650">
        <ele>782.8</ele>
        <time>2022-08-29T10:03:48Z</time>
      </trkpt>
      <trkpt lat="42.4125090" lon="-3.2227300">
        <ele>783.0</ele>
        <time>2022-08-29T10:03:49Z</time>
      </trkpt>
      <trkpt lat="42.4125050" lon="-3.2227910">
        <ele>783.0</ele>
        <time>2022-08-29T10:03:50Z</time>
      </trkpt>
      <trkpt lat="42.4125020" lon="-3.2228520">
        <ele>783.2</ele>
        <time>2022-08-29T10:03:51Z</time>
      </trkpt>
      <trkpt lat="42.4124950" lon="-3.2229100">
        <ele>783.0</ele>
        <time>2022-08-29T10:03:52Z</time>
      </trkpt>
      <trkpt lat="42.4124920" lon="-3.2229680">
        <ele>783.2</ele>
        <time>2022-08-29T10:03:53Z</time>
      </trkpt>
      <trkpt lat="42.4124890" lon="-3.2230290">
        <ele>783.2</ele>
        <time>2022-08-29T10:03:54Z</time>
      </trkpt>
      <trkpt lat="42.4124850" lon="-3.2230870">
        <ele>783.4</ele>
        <time>2022-08-29T10:03:55Z</time>
      </trkpt>
      <trkpt lat="42.4124820" lon="-3.2231460">
        <ele>783.4</ele>
        <time>2022-08-29T10:03:56Z</time>
      </trkpt>
      <trkpt lat="42.4124760" lon="-3.2232020">
        <ele>783.4</ele>
        <time>2022-08-29T10:03:57Z</time>
      </trkpt>
      <trkpt lat="42.4124640" lon="-3.2232560">
        <ele>783.6</ele>
        <time>2022-08-29T10:03:58Z</time>
      </trkpt>
      <trkpt lat="42.4124550" lon="-3.2233110">
        <ele>783.6</ele>
        <time>2022-08-29T10:03:59Z</time>
      </trkpt>
      <trkpt lat="42.4124470" lon="-3.2233640">
        <ele>783.8</ele>
        <time>2022-08-29T10:04:00Z</time>
      </trkpt>
      <trkpt lat="42.4124450" lon="-3.2234190">
        <ele>784.0</ele>
        <time>2022-08-29T10:04:01Z</time>
      </trkpt>
      <trkpt lat="42.4124380" lon="-3.2234710">
        <ele>784.0</ele>
        <time>2022-08-29T10:04:02Z</time>
      </trkpt>
      <trkpt lat="42.4124320" lon="-3.2235200">
        <ele>784.0</ele>
        <time>2022-08-29T10:04:03Z</time>
      </trkpt>
      <trkpt lat="42.4124310" lon="-3.2235690">
        <ele>784.0</ele>
        <time>2022-08-29T10:04:04Z</time>
      </trkpt>
      <trkpt lat="42.4124280" lon="-3.2236180">
        <ele>784.4</ele>
        <time>2022-08-29T10:04:05Z</time>
      </trkpt>
      <trkpt lat="42.4124240" lon="-3.2236670">
        <ele>784.6</ele>
        <time>2022-08-29T10:04:06Z</time>
      </trkpt>
      <trkpt lat="42.4124220" lon="-3.2237160">
        <ele>784.6</ele>
        <time>2022-08-29T10:04:07Z</time>
      </trkpt>
      <trkpt lat="42.4124200" lon="-3.2237660">
        <ele>784.8</ele>
        <time>2022-08-29T10:04:08Z</time>
      </trkpt>
      <trkpt lat="42.4124150" lon="-3.2238160">
        <ele>784.8</ele>
        <time>2022-08-29T10:04:09Z</time>
      </trkpt>
      <trkpt lat="42.4124100" lon="-3.2238660">
        <ele>785.0</ele>
        <time>2022-08-29T10:04:10Z</time>
      </trkpt>
      <trkpt lat="42.4124050" lon="-3.2239180">
        <ele>785.2</ele>
        <time>2022-08-29T10:04:11Z</time>
      </trkpt>
      <trkpt lat="42.4124020" lon="-3.2239710">
        <ele>785.0</ele>
        <time>2022-08-29T10:04:12Z</time>
      </trkpt>
      <trkpt lat="42.4123990" lon="-3.2240240">
        <ele>785.2</ele>
        <time>2022-08-29T10:04:13Z</time>
      </trkpt>
      <trkpt lat="42.4123940" lon="-3.2240750">
        <ele>785.2</ele>
        <time>2022-08-29T10:04:14Z</time>
      </trkpt>
      <trkpt lat="42.4123890" lon="-3.2241270">
        <ele>785.6</ele>
        <time>2022-08-29T10:04:15Z</time>
      </trkpt>
      <trkpt lat="42.4123800" lon="-3.2241790">
        <ele>785.6</ele>
        <time>2022-08-29T10:04:16Z</time>
      </trkpt>
      <trkpt lat="42.4123690" lon="-3.2242310">
        <ele>785.8</ele>
        <time>2022-08-29T10:04:17Z</time>
      </trkpt>
      <trkpt lat="42.4123550" lon="-3.2242840">
        <ele>786.0</ele>
        <time>2022-08-29T10:04:18Z</time>
      </trkpt>
      <trkpt lat="42.4123410" lon="-3.2243380">
        <ele>786.2</ele>
        <time>2022-08-29T10:04:19Z</time>
      </trkpt>
      <trkpt lat="42.4123280" lon="-3.2243930">
        <ele>786.4</ele>
        <time>2022-08-29T10:04:20Z</time>
      </trkpt>
      <trkpt lat="42.4123150" lon="-3.2244490">
        <ele>786.4</ele>
        <time>2022-08-29T10:04:21Z</time>
      </trkpt>
      <trkpt lat="42.4123040" lon="-3.2245070">
        <ele>786.6</ele>
        <time>2022-08-29T10:04:22Z</time>
      </trkpt>
      <trkpt lat="42.4122980" lon="-3.2245680">
        <ele>786.6</ele>
        <time>2022-08-29T10:04:23Z</time>
      </trkpt>
      <trkpt lat="42.4122890" lon="-3.2246270">
        <ele>786.6</ele>
        <time>2022-08-29T10:04:24Z</time>
      </trkpt>
      <trkpt lat="42.4122770" lon="-3.2246860">
        <ele>786.6</ele>
        <time>2022-08-29T10:04:25Z</time>
      </trkpt>
      <trkpt lat="42.4122650" lon="-3.2247430">
        <ele>786.8</ele>
        <time>2022-08-29T10:04:26Z</time>
      </trkpt>
      <trkpt lat="42.4122490" lon="-3.2247940">
        <ele>786.8</ele>
        <time>2022-08-29T10:04:27Z</time>
      </trkpt>
      <trkpt lat="42.4122400" lon="-3.2248450">
        <ele>786.8</ele>
        <time>2022-08-29T10:04:28Z</time>
      </trkpt>
      <trkpt lat="42.4122320" lon="-3.2248920">
        <ele>786.8</ele>
        <time>2022-08-29T10:04:29Z</time>
      </trkpt>
      <trkpt lat="42.4122230" lon="-3.2249390">
        <ele>786.8</ele>
        <time>2022-08-29T10:04:30Z</time>
      </trkpt>
      <trkpt lat="42.4122090" lon="-3.2249860">
        <ele>786.8</ele>
        <time>2022-08-29T10:04:31Z</time>
      </trkpt>
      <trkpt lat="42.4121930" lon="-3.2250340">
        <ele>786.8</ele>
        <time>2022-08-29T10:04:32Z</time>
      </trkpt>
      <trkpt lat="42.4121760" lon="-3.2250820">
        <ele>786.8</ele>
        <time>2022-08-29T10:04:33Z</time>
      </trkpt>
      <trkpt lat="42.4121600" lon="-3.2251330">
        <ele>787.0</ele>
        <time>2022-08-29T10:04:34Z</time>
      </trkpt>
      <trkpt lat="42.4121490" lon="-3.2251890">
        <ele>787.0</ele>
        <time>2022-08-29T10:04:35Z</time>
      </trkpt>
      <trkpt lat="42.4121390" lon="-3.2252430">
        <ele>787.0</ele>
        <time>2022-08-29T10:04:36Z</time>
      </trkpt>
      <trkpt lat="42.4121260" lon="-3.2252930">
        <ele>786.8</ele>
        <time>2022-08-29T10:04:37Z</time>
      </trkpt>
      <trkpt lat="42.4121110" lon="-3.2253400">
        <ele>786.8</ele>
        <time>2022-08-29T10:04:38Z</time>
      </trkpt>
      <trkpt lat="42.4120950" lon="-3.2253850">
        <ele>787.0</ele>
        <time>2022-08-29T10:04:39Z</time>
      </trkpt>
      <trkpt lat="42.4120780" lon="-3.2254320">
        <ele>787.0</ele>
        <time>2022-08-29T10:04:40Z</time>
      </trkpt>
      <trkpt lat="42.4120620" lon="-3.2254820">
        <ele>787.0</ele>
        <time>2022-08-29T10:04:41Z</time>
      </trkpt>
      <trkpt lat="42.4120450" lon="-3.2255350">
        <ele>787.0</ele>
        <time>2022-08-29T10:04:42Z</time>
      </trkpt>
      <trkpt lat="42.4120290" lon="-3.2255900">
        <ele>787.2</ele>
        <time>2022-08-29T10:04:43Z</time>
      </trkpt>
      <trkpt lat="42.4120110" lon="-3.2256460">
        <ele>787.0</ele>
        <time>2022-08-29T10:04:44Z</time>
      </trkpt>
      <trkpt lat="42.4119930" lon="-3.2257040">
        <ele>787.2</ele>
        <time>2022-08-29T10:04:45Z</time>
      </trkpt>
      <trkpt lat="42.4119800" lon="-3.2257650">
        <ele>787.0</ele>
        <time>2022-08-29T10:04:46Z</time>
      </trkpt>
      <trkpt lat="42.4119650" lon="-3.2258270">
        <ele>787.0</ele>
        <time>2022-08-29T10:04:47Z</time>
      </trkpt>
      <trkpt lat="42.4119500" lon="-3.2258900">
        <ele>787.0</ele>
        <time>2022-08-29T10:04:48Z</time>
      </trkpt>
      <trkpt lat="42.4119310" lon="-3.2259520">
        <ele>787.2</ele>
        <time>2022-08-29T10:04:49Z</time>
      </trkpt>
      <trkpt lat="42.4119120" lon="-3.2260150">
        <ele>787.0</ele>
        <time>2022-08-29T10:04:50Z</time>
      </trkpt>
      <trkpt lat="42.4119010" lon="-3.2260830">
        <ele>787.2</ele>
        <time>2022-08-29T10:04:51Z</time>
      </trkpt>
      <trkpt lat="42.4118870" lon="-3.2261510">
        <ele>787.0</ele>
        <time>2022-08-29T10:04:52Z</time>
      </trkpt>
      <trkpt lat="42.4118720" lon="-3.2262180">
        <ele>787.0</ele>
        <time>2022-08-29T10:04:53Z</time>
      </trkpt>
      <trkpt lat="42.4118610" lon="-3.2262880">
        <ele>787.0</ele>
        <time>2022-08-29T10:04:54Z</time>
      </trkpt>
      <trkpt lat="42.4118510" lon="-3.2263570">
        <ele>787.0</ele>
        <time>2022-08-29T10:04:55Z</time>
      </trkpt>
      <trkpt lat="42.4118400" lon="-3.2264220">
        <ele>787.0</ele>
        <time>2022-08-29T10:04:56Z</time>
      </trkpt>
      <trkpt lat="42.4118270" lon="-3.2264880">
        <ele>787.0</ele>
        <time>2022-08-29T10:04:57Z</time>
      </trkpt>
      <trkpt lat="42.4118140" lon="-3.2265560">
        <ele>787.2</ele>
        <time>2022-08-29T10:04:58Z</time>
      </trkpt>
      <trkpt lat="42.4118020" lon="-3.2266240">
        <ele>787.0</ele>
        <time>2022-08-29T10:04:59Z</time>
      </trkpt>
      <trkpt lat="42.4117900" lon="-3.2266910">
        <ele>787.0</ele>
        <time>2022-08-29T10:05:00Z</time>
      </trkpt>
      <trkpt lat="42.4117760" lon="-3.2267570">
        <ele>787.0</ele>
        <time>2022-08-29T10:05:01Z</time>
      </trkpt>
      <trkpt lat="42.4117630" lon="-3.2268210">
        <ele>787.0</ele>
        <time>2022-08-29T10:05:02Z</time>
      </trkpt>
      <trkpt lat="42.4117490" lon="-3.2268840">
        <ele>787.0</ele>
        <time>2022-08-29T10:05:03Z</time>
      </trkpt>
      <trkpt lat="42.4117340" lon="-3.2269470">
        <ele>787.0</ele>
        <time>2022-08-29T10:05:04Z</time>
      </trkpt>
      <trkpt lat="42.4117260" lon="-3.2270110">
        <ele>787.2</ele>
        <time>2022-08-29T10:05:05Z</time>
      </trkpt>
      <trkpt lat="42.4117110" lon="-3.2270730">
        <ele>787.2</ele>
        <time>2022-08-29T10:05:06Z</time>
      </trkpt>
      <trkpt lat="42.4117020" lon="-3.2271360">
        <ele>787.4</ele>
        <time>2022-08-29T10:05:07Z</time>
      </trkpt>
      <trkpt lat="42.4116910" lon="-3.2271970">
        <ele>787.4</ele>
        <time>2022-08-29T10:05:08Z</time>
      </trkpt>
      <trkpt lat="42.4116790" lon="-3.2272580">
        <ele>787.4</ele>
        <time>2022-08-29T10:05:09Z</time>
      </trkpt>
      <trkpt lat="42.4116640" lon="-3.2273150">
        <ele>787.6</ele>
        <time>2022-08-29T10:05:10Z</time>
      </trkpt>
      <trkpt lat="42.4116480" lon="-3.2273730">
        <ele>787.6</ele>
        <time>2022-08-29T10:05:11Z</time>
      </trkpt>
      <trkpt lat="42.4116330" lon="-3.2274310">
        <ele>787.8</ele>
        <time>2022-08-29T10:05:12Z</time>
      </trkpt>
      <trkpt lat="42.4116200" lon="-3.2274910">
        <ele>787.8</ele>
        <time>2022-08-29T10:05:13Z</time>
      </trkpt>
      <trkpt lat="42.4116030" lon="-3.2275500">
        <ele>787.8</ele>
        <time>2022-08-29T10:05:14Z</time>
      </trkpt>
      <trkpt lat="42.4115870" lon="-3.2276080">
        <ele>788.0</ele>
        <time>2022-08-29T10:05:15Z</time>
      </trkpt>
      <trkpt lat="42.4115720" lon="-3.2276660">
        <ele>788.0</ele>
        <time>2022-08-29T10:05:16Z</time>
      </trkpt>
      <trkpt lat="42.4115550" lon="-3.2277220">
        <ele>788.2</ele>
        <time>2022-08-29T10:05:17Z</time>
      </trkpt>
      <trkpt lat="42.4115390" lon="-3.2277760">
        <ele>788.2</ele>
        <time>2022-08-29T10:05:18Z</time>
      </trkpt>
      <trkpt lat="42.4115280" lon="-3.2278330">
        <ele>788.6</ele>
        <time>2022-08-29T10:05:19Z</time>
      </trkpt>
      <trkpt lat="42.4115180" lon="-3.2278910">
        <ele>788.8</ele>
        <time>2022-08-29T10:05:20Z</time>
      </trkpt>
      <trkpt lat="42.4115110" lon="-3.2279480">
        <ele>788.8</ele>
        <time>2022-08-29T10:05:21Z</time>
      </trkpt>
      <trkpt lat="42.4115030" lon="-3.2280010">
        <ele>788.8</ele>
        <time>2022-08-29T10:05:22Z</time>
      </trkpt>
      <trkpt lat="42.4114980" lon="-3.2280580">
        <ele>789.0</ele>
        <time>2022-08-29T10:05:23Z</time>
      </trkpt>
      <trkpt lat="42.4114960" lon="-3.2281150">
        <ele>789.0</ele>
        <time>2022-08-29T10:05:24Z</time>
      </trkpt>
      <trkpt lat="42.4114940" lon="-3.2281740">
        <ele>789.2</ele>
        <time>2022-08-29T10:05:25Z</time>
      </trkpt>
      <trkpt lat="42.4114940" lon="-3.2282350">
        <ele>789.0</ele>
        <time>2022-08-29T10:05:26Z</time>
      </trkpt>
      <trkpt lat="42.4114920" lon="-3.2282960">
        <ele>789.2</ele>
        <time>2022-08-29T10:05:27Z</time>
      </trkpt>
      <trkpt lat="42.4114870" lon="-3.2283570">
        <ele>789.4</ele>
        <time>2022-08-29T10:05:28Z</time>
      </trkpt>
      <trkpt lat="42.4114800" lon="-3.2284170">
        <ele>789.6</ele>
        <time>2022-08-29T10:05:29Z</time>
      </trkpt>
      <trkpt lat="42.4114700" lon="-3.2284750">
        <ele>789.8</ele>
        <time>2022-08-29T10:05:30Z</time>
      </trkpt>
      <trkpt lat="42.4114580" lon="-3.2285330">
        <ele>790.0</ele>
        <time>2022-08-29T10:05:31Z</time>
      </trkpt>
      <trkpt lat="42.4114460" lon="-3.2285930">
        <ele>790.0</ele>
        <time>2022-08-29T10:05:32Z</time>
      </trkpt>
      <trkpt lat="42.4114390" lon="-3.2286550">
        <ele>790.2</ele>
        <time>2022-08-29T10:05:33Z</time>
      </trkpt>
      <trkpt lat="42.4114330" lon="-3.2287170">
        <ele>790.4</ele>
        <time>2022-08-29T10:05:34Z</time>
      </trkpt>
      <trkpt lat="42.4114250" lon="-3.2287780">
        <ele>790.6</ele>
        <time>2022-08-29T10:05:35Z</time>
      </trkpt>
      <trkpt lat="42.4114160" lon="-3.2288400">
        <ele>790.6</ele>
        <time>2022-08-29T10:05:36Z</time>
      </trkpt>
      <trkpt lat="42.4114110" lon="-3.2289040">
        <ele>790.6</ele>
        <time>2022-08-29T10:05:37Z</time>
      </trkpt>
      <trkpt lat="42.4114070" lon="-3.2289680">
        <ele>790.6</ele>
        <time>2022-08-29T10:05:38Z</time>
      </trkpt>
      <trkpt lat="42.4114050" lon="-3.2290330">
        <ele>790.8</ele>
        <time>2022-08-29T10:05:39Z</time>
      </trkpt>
      <trkpt lat="42.4114070" lon="-3.2290980">
        <ele>790.8</ele>
        <time>2022-08-29T10:05:40Z</time>
      </trkpt>
      <trkpt lat="42.4114120" lon="-3.2291630">
        <ele>791.0</ele>
        <time>2022-08-29T10:05:41Z</time>
      </trkpt>
      <trkpt lat="42.4114140" lon="-3.2292280">
        <ele>791.0</ele>
        <time>2022-08-29T10:05:42Z</time>
      </trkpt>
      <trkpt lat="42.4114210" lon="-3.2292920">
        <ele>791.0</ele>
        <time>2022-08-29T10:05:43Z</time>
      </trkpt>
      <trkpt lat="42.4114280" lon="-3.2293560">
        <ele>791.2</ele>
        <time>2022-08-29T10:05:44Z</time>
      </trkpt>
      <trkpt lat="42.4114330" lon="-3.2294210">
        <ele>791.2</ele>
        <time>2022-08-29T10:05:45Z</time>
      </trkpt>
      <trkpt lat="42.4114330" lon="-3.2294830">
        <ele>791.2</ele>
        <time>2022-08-29T10:05:46Z</time>
      </trkpt>
      <trkpt lat="42.4114300" lon="-3.2295480">
        <ele>791.2</ele>
        <time>2022-08-29T10:05:47Z</time>
      </trkpt>
      <trkpt lat="42.4114280" lon="-3.2296150">
        <ele>791.4</ele>
        <time>2022-08-29T10:05:48Z</time>
      </trkpt>
      <trkpt lat="42.4114280" lon="-3.2296810">
        <ele>791.4</ele>
        <time>2022-08-29T10:05:49Z</time>
      </trkpt>
      <trkpt lat="42.4114270" lon="-3.2297470">
        <ele>791.4</ele>
        <time>2022-08-29T10:05:50Z</time>
      </trkpt>
      <trkpt lat="42.4114240" lon="-3.2298110">
        <ele>791.8</ele>
        <time>2022-08-29T10:05:51Z</time>
      </trkpt>
      <trkpt lat="42.4114180" lon="-3.2298740">
        <ele>791.8</ele>
        <time>2022-08-29T10:05:52Z</time>
      </trkpt>
      <trkpt lat="42.4114120" lon="-3.2299370">
        <ele>791.8</ele>
        <time>2022-08-29T10:05:53Z</time>
      </trkpt>
      <trkpt lat="42.4114060" lon="-3.2300010">
        <ele>791.8</ele>
        <time>2022-08-29T10:05:54Z</time>
      </trkpt>
      <trkpt lat="42.4114010" lon="-3.2300640">
        <ele>791.8</ele>
        <time>2022-08-29T10:05:55Z</time>
      </trkpt>
      <trkpt lat="42.4113950" lon="-3.2301290">
        <ele>792.0</ele>
        <time>2022-08-29T10:05:56Z</time>
      </trkpt>
      <trkpt lat="42.4113890" lon="-3.2301930">
        <ele>792.0</ele>
        <time>2022-08-29T10:05:57Z</time>
      </trkpt>
      <trkpt lat="42.4113820" lon="-3.2302570">
        <ele>792.0</ele>
        <time>2022-08-29T10:05:58Z</time>
      </trkpt>
      <trkpt lat="42.4113750" lon="-3.2303220">
        <ele>792.2</ele>
        <time>2022-08-29T10:05:59Z</time>
      </trkpt>
      <trkpt lat="42.4113680" lon="-3.2303890">
        <ele>792.2</ele>
        <time>2022-08-29T10:06:00Z</time>
      </trkpt>
      <trkpt lat="42.4113670" lon="-3.2304570">
        <ele>792.4</ele>
        <time>2022-08-29T10:06:01Z</time>
      </trkpt>
      <trkpt lat="42.4113690" lon="-3.2305260">
        <ele>792.4</ele>
        <time>2022-08-29T10:06:02Z</time>
      </trkpt>
      <trkpt lat="42.4113690" lon="-3.2305920">
        <ele>792.6</ele>
        <time>2022-08-29T10:06:03Z</time>
      </trkpt>
      <trkpt lat="42.4113680" lon="-3.2306590">
        <ele>792.6</ele>
        <time>2022-08-29T10:06:04Z</time>
      </trkpt>
      <trkpt lat="42.4113720" lon="-3.2307270">
        <ele>792.6</ele>
        <time>2022-08-29T10:06:05Z</time>
      </trkpt>
      <trkpt lat="42.4113780" lon="-3.2307950">
        <ele>792.8</ele>
        <time>2022-08-29T10:06:06Z</time>
      </trkpt>
      <trkpt lat="42.4113860" lon="-3.2308620">
        <ele>793.0</ele>
        <time>2022-08-29T10:06:07Z</time>
      </trkpt>
      <trkpt lat="42.4113920" lon="-3.2309270">
        <ele>793.0</ele>
        <time>2022-08-29T10:06:08Z</time>
      </trkpt>
      <trkpt lat="42.4113980" lon="-3.2309910">
        <ele>793.0</ele>
        <time>2022-08-29T10:06:09Z</time>
      </trkpt>
      <trkpt lat="42.4114000" lon="-3.2310540">
        <ele>793.0</ele>
        <time>2022-08-29T10:06:10Z</time>
      </trkpt>
      <trkpt lat="42.4114030" lon="-3.2311190">
        <ele>793.2</ele>
        <time>2022-08-29T10:06:11Z</time>
      </trkpt>
      <trkpt lat="42.4114060" lon="-3.2311840">
        <ele>793.2</ele>
        <time>2022-08-29T10:06:12Z</time>
      </trkpt>
      <trkpt lat="42.4114080" lon="-3.2312460">
        <ele>793.2</ele>
        <time>2022-08-29T10:06:13Z</time>
      </trkpt>
      <trkpt lat="42.4114110" lon="-3.2313070">
        <ele>793.2</ele>
        <time>2022-08-29T10:06:14Z</time>
      </trkpt>
      <trkpt lat="42.4114140" lon="-3.2313650">
        <ele>793.4</ele>
        <time>2022-08-29T10:06:15Z</time>
      </trkpt>
      <trkpt lat="42.4114180" lon="-3.2314220">
        <ele>793.8</ele>
        <time>2022-08-29T10:06:16Z</time>
      </trkpt>
      <trkpt lat="42.4114200" lon="-3.2314790">
        <ele>793.8</ele>
        <time>2022-08-29T10:06:17Z</time>
      </trkpt>
      <trkpt lat="42.4114240" lon="-3.2315290">
        <ele>793.8</ele>
        <time>2022-08-29T10:06:18Z</time>
      </trkpt>
      <trkpt lat="42.4114280" lon="-3.2315790">
        <ele>793.8</ele>
        <time>2022-08-29T10:06:19Z</time>
      </trkpt>
      <trkpt lat="42.4114310" lon="-3.2316290">
        <ele>794.0</ele>
        <time>2022-08-29T10:06:20Z</time>
      </trkpt>
      <trkpt lat="42.4114360" lon="-3.2316810">
        <ele>794.2</ele>
        <time>2022-08-29T10:06:21Z</time>
      </trkpt>
      <trkpt lat="42.4114410" lon="-3.2317310">
        <ele>794.6</ele>
        <time>2022-08-29T10:06:22Z</time>
      </trkpt>
      <trkpt lat="42.4114440" lon="-3.2317830">
        <ele>795.0</ele>
        <time>2022-08-29T10:06:23Z</time>
      </trkpt>
      <trkpt lat="42.4114490" lon="-3.2318370">
        <ele>795.2</ele>
        <time>2022-08-29T10:06:24Z</time>
      </trkpt>
      <trkpt lat="42.4114580" lon="-3.2318910">
        <ele>795.6</ele>
        <time>2022-08-29T10:06:25Z</time>
      </trkpt>
      <trkpt lat="42.4114640" lon="-3.2319470">
        <ele>795.6</ele>
        <time>2022-08-29T10:06:26Z</time>
      </trkpt>
      <trkpt lat="42.4114680" lon="-3.2320040">
        <ele>795.8</ele>
        <time>2022-08-29T10:06:27Z</time>
      </trkpt>
      <trkpt lat="42.4114730" lon="-3.2320620">
        <ele>796.0</ele>
        <time>2022-08-29T10:06:28Z</time>
      </trkpt>
      <trkpt lat="42.4114790" lon="-3.2321210">
        <ele>796.2</ele>
        <time>2022-08-29T10:06:29Z</time>
      </trkpt>
      <trkpt lat="42.4114790" lon="-3.2321790">
        <ele>796.4</ele>
        <time>2022-08-29T10:06:30Z</time>
      </trkpt>
      <trkpt lat="42.4114790" lon="-3.2322390">
        <ele>796.4</ele>
        <time>2022-08-29T10:06:31Z</time>
      </trkpt>
      <trkpt lat="42.4114880" lon="-3.2323010">
        <ele>796.6</ele>
        <time>2022-08-29T10:06:32Z</time>
      </trkpt>
      <trkpt lat="42.4114970" lon="-3.2323640">
        <ele>796.6</ele>
        <time>2022-08-29T10:06:33Z</time>
      </trkpt>
      <trkpt lat="42.4115050" lon="-3.2324260">
        <ele>796.6</ele>
        <time>2022-08-29T10:06:34Z</time>
      </trkpt>
      <trkpt lat="42.4115100" lon="-3.2324880">
        <ele>796.6</ele>
        <time>2022-08-29T10:06:35Z</time>
      </trkpt>
      <trkpt lat="42.4115130" lon="-3.2325470">
        <ele>796.6</ele>
        <time>2022-08-29T10:06:36Z</time>
      </trkpt>
      <trkpt lat="42.4115130" lon="-3.2326040">
        <ele>796.8</ele>
        <time>2022-08-29T10:06:37Z</time>
      </trkpt>
      <trkpt lat="42.4115170" lon="-3.2326650">
        <ele>796.6</ele>
        <time>2022-08-29T10:06:38Z</time>
      </trkpt>
      <trkpt lat="42.4115230" lon="-3.2327260">
        <ele>796.8</ele>
        <time>2022-08-29T10:06:39Z</time>
      </trkpt>
      <trkpt lat="42.4115280" lon="-3.2327850">
        <ele>796.8</ele>
        <time>2022-08-29T10:06:40Z</time>
      </trkpt>
      <trkpt lat="42.4115330" lon="-3.2328430">
        <ele>797.0</ele>
        <time>2022-08-29T10:06:41Z</time>
      </trkpt>
      <trkpt lat="42.4115350" lon="-3.2329000">
        <ele>796.8</ele>
        <time>2022-08-29T10:06:42Z</time>
      </trkpt>
      <trkpt lat="42.4115360" lon="-3.2329540">
        <ele>796.8</ele>
        <time>2022-08-29T10:06:43Z</time>
      </trkpt>
      <trkpt lat="42.4115360" lon="-3.2330080">
        <ele>797.2</ele>
        <time>2022-08-29T10:06:44Z</time>
      </trkpt>
      <trkpt lat="42.4115370" lon="-3.2330620">
        <ele>797.2</ele>
        <time>2022-08-29T10:06:45Z</time>
      </trkpt>
      <trkpt lat="42.4115400" lon="-3.2331170">
        <ele>797.2</ele>
        <time>2022-08-29T10:06:46Z</time>
      </trkpt>
      <trkpt lat="42.4115430" lon="-3.2331700">
        <ele>797.2</ele>
        <time>2022-08-29T10:06:47Z</time>
      </trkpt>
      <trkpt lat="42.4115450" lon="-3.2332250">
        <ele>797.2</ele>
        <time>2022-08-29T10:06:48Z</time>
      </trkpt>
      <trkpt lat="42.4115470" lon="-3.2332800">
        <ele>797.4</ele>
        <time>2022-08-29T10:06:49Z</time>
      </trkpt>
      <trkpt lat="42.4115480" lon="-3.2333350">
        <ele>797.6</ele>
        <time>2022-08-29T10:06:50Z</time>
      </trkpt>
      <trkpt lat="42.4115510" lon="-3.2333940">
        <ele>797.6</ele>
        <time>2022-08-29T10:06:51Z</time>
      </trkpt>
      <trkpt lat="42.4115550" lon="-3.2334580">
        <ele>797.6</ele>
        <time>2022-08-29T10:06:52Z</time>
      </trkpt>
      <trkpt lat="42.4115610" lon="-3.2335240">
        <ele>797.8</ele>
        <time>2022-08-29T10:06:53Z</time>
      </trkpt>
      <trkpt lat="42.4115720" lon="-3.2335870">
        <ele>797.8</ele>
        <time>2022-08-29T10:06:54Z</time>
      </trkpt>
      <trkpt lat="42.4115860" lon="-3.2336480">
        <ele>797.8</ele>
        <time>2022-08-29T10:06:55Z</time>
      </trkpt>
      <trkpt lat="42.4116020" lon="-3.2337040">
        <ele>798.0</ele>
        <time>2022-08-29T10:06:56Z</time>
      </trkpt>
      <trkpt lat="42.4116200" lon="-3.2337590">
        <ele>798.0</ele>
        <time>2022-08-29T10:06:57Z</time>
      </trkpt>
      <trkpt lat="42.4116410" lon="-3.2338110">
        <ele>798.0</ele>
        <time>2022-08-29T10:06:58Z</time>
      </trkpt>
      <trkpt lat="42.4116610" lon="-3.2338620">
        <ele>798.2</ele>
        <time>2022-08-29T10:06:59Z</time>
      </trkpt>
      <trkpt lat="42.4116740" lon="-3.2339110">
        <ele>798.2</ele>
        <time>2022-08-29T10:07:00Z</time>
      </trkpt>
      <trkpt lat="42.4116850" lon="-3.2339620">
        <ele>798.2</ele>
        <time>2022-08-29T10:07:01Z</time>
      </trkpt>
      <trkpt lat="42.4116980" lon="-3.2340140">
        <ele>798.0</ele>
        <time>2022-08-29T10:07:02Z</time>
      </trkpt>
      <trkpt lat="42.4117150" lon="-3.2340670">
        <ele>798.0</ele>
        <time>2022-08-29T10:07:03Z</time>
      </trkpt>
      <trkpt lat="42.4117320" lon="-3.2341210">
        <ele>798.2</ele>
        <time>2022-08-29T10:07:04Z</time>
      </trkpt>
      <trkpt lat="42.4117510" lon="-3.2341720">
        <ele>798.2</ele>
        <time>2022-08-29T10:07:05Z</time>
      </trkpt>
      <trkpt lat="42.4117650" lon="-3.2342210">
        <ele>798.2</ele>
        <time>2022-08-29T10:07:06Z</time>
      </trkpt>
      <trkpt lat="42.4117760" lon="-3.2342690">
        <ele>798.2</ele>
        <time>2022-08-29T10:07:07Z</time>
      </trkpt>
      <trkpt lat="42.4117870" lon="-3.2343140">
        <ele>798.2</ele>
        <time>2022-08-29T10:07:08Z</time>
      </trkpt>
      <trkpt lat="42.4118010" lon="-3.2343560">
        <ele>798.2</ele>
        <time>2022-08-29T10:07:09Z</time>
      </trkpt>
      <trkpt lat="42.4118200" lon="-3.2343970">
        <ele>798.2</ele>
        <time>2022-08-29T10:07:10Z</time>
      </trkpt>
      <trkpt lat="42.4118350" lon="-3.2344410">
        <ele>798.0</ele>
        <time>2022-08-29T10:07:11Z</time>
      </trkpt>
      <trkpt lat="42.4118490" lon="-3.2344880">
        <ele>798.2</ele>
        <time>2022-08-29T10:07:12Z</time>
      </trkpt>
      <trkpt lat="42.4118610" lon="-3.2345370">
        <ele>798.4</ele>
        <time>2022-08-29T10:07:13Z</time>
      </trkpt>
      <trkpt lat="42.4118770" lon="-3.2345880">
        <ele>798.6</ele>
        <time>2022-08-29T10:07:14Z</time>
      </trkpt>
      <trkpt lat="42.4118980" lon="-3.2346390">
        <ele>798.4</ele>
        <time>2022-08-29T10:07:15Z</time>
      </trkpt>
      <trkpt lat="42.4119160" lon="-3.2346910">
        <ele>798.6</ele>
        <time>2022-08-29T10:07:16Z</time>
      </trkpt>
      <trkpt lat="42.4119360" lon="-3.2347450">
        <ele>798.6</ele>
        <time>2022-08-29T10:07:17Z</time>
      </trkpt>
      <trkpt lat="42.4119560" lon="-3.2348030">
        <ele>798.6</ele>
        <time>2022-08-29T10:07:18Z</time>
      </trkpt>
      <trkpt lat="42.4119760" lon="-3.2348600">
        <ele>798.6</ele>
        <time>2022-08-29T10:07:19Z</time>
      </trkpt>
      <trkpt lat="42.4119960" lon="-3.2349180">
        <ele>798.8</ele>
        <time>2022-08-29T10:07:20Z</time>
      </trkpt>
      <trkpt lat="42.4120150" lon="-3.2349750">
        <ele>798.8</ele>
        <time>2022-08-29T10:07:21Z</time>
      </trkpt>
      <trkpt lat="42.4120340" lon="-3.2350330">
        <ele>798.8</ele>
        <time>2022-08-29T10:07:22Z</time>
      </trkpt>
      <trkpt lat="42.4120530" lon="-3.2350920">
        <ele>798.8</ele>
        <time>2022-08-29T10:07:23Z</time>
      </trkpt>
      <trkpt lat="42.4120690" lon="-3.2351500">
        <ele>799.0</ele>
        <time>2022-08-29T10:07:24Z</time>
      </trkpt>
      <trkpt lat="42.4120860" lon="-3.2352070">
        <ele>799.0</ele>
        <time>2022-08-29T10:07:25Z</time>
      </trkpt>
      <trkpt lat="42.4121020" lon="-3.2352650">
        <ele>799.0</ele>
        <time>2022-08-29T10:07:26Z</time>
      </trkpt>
      <trkpt lat="42.4121160" lon="-3.2353210">
        <ele>799.0</ele>
        <time>2022-08-29T10:07:27Z</time>
      </trkpt>
      <trkpt lat="42.4121300" lon="-3.2353760">
        <ele>799.0</ele>
        <time>2022-08-29T10:07:28Z</time>
      </trkpt>
      <trkpt lat="42.4121450" lon="-3.2354310">
        <ele>799.0</ele>
        <time>2022-08-29T10:07:29Z</time>
      </trkpt>
      <trkpt lat="42.4121570" lon="-3.2354860">
        <ele>799.2</ele>
        <time>2022-08-29T10:07:30Z</time>
      </trkpt>
      <trkpt lat="42.4121680" lon="-3.2355430">
        <ele>799.2</ele>
        <time>2022-08-29T10:07:31Z</time>
      </trkpt>
      <trkpt lat="42.4121810" lon="-3.2356000">
        <ele>799.2</ele>
        <time>2022-08-29T10:07:32Z</time>
      </trkpt>
      <trkpt lat="42.4121950" lon="-3.2356580">
        <ele>799.4</ele>
        <time>2022-08-29T10:07:33Z</time>
      </trkpt>
      <trkpt lat="42.4122080" lon="-3.2357150">
        <ele>799.4</ele>
        <time>2022-08-29T10:07:34Z</time>
      </trkpt>
      <trkpt lat="42.4122210" lon="-3.2357710">
        <ele>799.4</ele>
        <time>2022-08-29T10:07:35Z</time>
      </trkpt>
      <trkpt lat="42.4122320" lon="-3.2358280">
        <ele>799.6</ele>
        <time>2022-08-29T10:07:36Z</time>
      </trkpt>
      <trkpt lat="42.4122420" lon="-3.2358850">
        <ele>799.6</ele>
        <time>2022-08-29T10:07:37Z</time>
      </trkpt>
      <trkpt lat="42.4122520" lon="-3.2359440">
        <ele>799.6</ele>
        <time>2022-08-29T10:07:38Z</time>
      </trkpt>
      <trkpt lat="42.4122590" lon="-3.2360020">
        <ele>799.8</ele>
        <time>2022-08-29T10:07:39Z</time>
      </trkpt>
      <trkpt lat="42.4122660" lon="-3.2360600">
        <ele>799.8</ele>
        <time>2022-08-29T10:07:40Z</time>
      </trkpt>
      <trkpt lat="42.4122750" lon="-3.2361190">
        <ele>799.8</ele>
        <time>2022-08-29T10:07:41Z</time>
      </trkpt>
      <trkpt lat="42.4122830" lon="-3.2361780">
        <ele>799.8</ele>
        <time>2022-08-29T10:07:42Z</time>
      </trkpt>
      <trkpt lat="42.4122940" lon="-3.2362380">
        <ele>799.8</ele>
        <time>2022-08-29T10:07:43Z</time>
      </trkpt>
      <trkpt lat="42.4123050" lon="-3.2362980">
        <ele>800.0</ele>
        <time>2022-08-29T10:07:44Z</time>
      </trkpt>
      <trkpt lat="42.4123150" lon="-3.2363580">
        <ele>800.0</ele>
        <time>2022-08-29T10:07:45Z</time>
      </trkpt>
      <trkpt lat="42.4123210" lon="-3.2364200">
        <ele>800.0</ele>
        <time>2022-08-29T10:07:46Z</time>
      </trkpt>
      <trkpt lat="42.4123290" lon="-3.2364830">
        <ele>800.0</ele>
        <time>2022-08-29T10:07:47Z</time>
      </trkpt>
      <trkpt lat="42.4123350" lon="-3.2365450">
        <ele>800.0</ele>
        <time>2022-08-29T10:07:48Z</time>
      </trkpt>
      <trkpt lat="42.4123390" lon="-3.2366090">
        <ele>800.2</ele>
        <time>2022-08-29T10:07:49Z</time>
      </trkpt>
      <trkpt lat="42.4123440" lon="-3.2366720">
        <ele>800.4</ele>
        <time>2022-08-29T10:07:50Z</time>
      </trkpt>
      <trkpt lat="42.4123500" lon="-3.2367330">
        <ele>800.6</ele>
        <time>2022-08-29T10:07:51Z</time>
      </trkpt>
      <trkpt lat="42.4123570" lon="-3.2367950">
        <ele>800.8</ele>
        <time>2022-08-29T10:07:52Z</time>
      </trkpt>
      <trkpt lat="42.4123620" lon="-3.2368550">
        <ele>800.6</ele>
        <time>2022-08-29T10:07:53Z</time>
      </trkpt>
      <trkpt lat="42.4123660" lon="-3.2369150">
        <ele>800.6</ele>
        <time>2022-08-29T10:07:54Z</time>
      </trkpt>
      <trkpt lat="42.4123710" lon="-3.2369740">
        <ele>800.8</ele>
        <time>2022-08-29T10:07:55Z</time>
      </trkpt>
      <trkpt lat="42.4123780" lon="-3.2370340">
        <ele>800.8</ele>
        <time>2022-08-29T10:07:56Z</time>
      </trkpt>
      <trkpt lat="42.4123890" lon="-3.2370920">
        <ele>801.0</ele>
        <time>2022-08-29T10:07:57Z</time>
      </trkpt>
      <trkpt lat="42.4123990" lon="-3.2371520">
        <ele>801.0</ele>
        <time>2022-08-29T10:07:58Z</time>
      </trkpt>
      <trkpt lat="42.4124040" lon="-3.2372150">
        <ele>801.2</ele>
        <time>2022-08-29T10:07:59Z</time>
      </trkpt>
      <trkpt lat="42.4124100" lon="-3.2372790">
        <ele>801.2</ele>
        <time>2022-08-29T10:08:00Z</time>
      </trkpt>
      <trkpt lat="42.4124180" lon="-3.2373420">
        <ele>801.2</ele>
        <time>2022-08-29T10:08:01Z</time>
      </trkpt>
      <trkpt lat="42.4124230" lon="-3.2374060">
        <ele>801.2</ele>
        <time>2022-08-29T10:08:02Z</time>
      </trkpt>
      <trkpt lat="42.4124310" lon="-3.2374690">
        <ele>801.4</ele>
        <time>2022-08-29T10:08:03Z</time>
      </trkpt>
      <trkpt lat="42.4124380" lon="-3.2375370">
        <ele>801.8</ele>
        <time>2022-08-29T10:08:04Z</time>
      </trkpt>
      <trkpt lat="42.4124450" lon="-3.2376060">
        <ele>801.8</ele>
        <time>2022-08-29T10:08:05Z</time>
      </trkpt>
      <trkpt lat="42.4124510" lon="-3.2376730">
        <ele>801.8</ele>
        <time>2022-08-29T10:08:06Z</time>
      </trkpt>
      <trkpt lat="42.4124580" lon="-3.2377380">
        <ele>801.8</ele>
        <time>2022-08-29T10:08:07Z</time>
      </trkpt>
      <trkpt lat="42.4124630" lon="-3.2378030">
        <ele>802.0</ele>
        <time>2022-08-29T10:08:08Z</time>
      </trkpt>
      <trkpt lat="42.4124680" lon="-3.2378670">
        <ele>802.0</ele>
        <time>2022-08-29T10:08:09Z</time>
      </trkpt>
      <trkpt lat="42.4124760" lon="-3.2379290">
        <ele>802.0</ele>
        <time>2022-08-29T10:08:10Z</time>
      </trkpt>
      <trkpt lat="42.4124830" lon="-3.2379910">
        <ele>802.0</ele>
        <time>2022-08-29T10:08:11Z</time>
      </trkpt>
      <trkpt lat="42.4124900" lon="-3.2380520">
        <ele>802.0</ele>
        <time>2022-08-29T10:08:12Z</time>
      </trkpt>
      <trkpt lat="42.4124980" lon="-3.2381100">
        <ele>802.0</ele>
        <time>2022-08-29T10:08:13Z</time>
      </trkpt>
      <trkpt lat="42.4125040" lon="-3.2381690">
        <ele>802.0</ele>
        <time>2022-08-29T10:08:14Z</time>
      </trkpt>
      <trkpt lat="42.4125110" lon="-3.2382260">
        <ele>802.0</ele>
        <time>2022-08-29T10:08:15Z</time>
      </trkpt>
      <trkpt lat="42.4125180" lon="-3.2382830">
        <ele>802.2</ele>
        <time>2022-08-29T10:08:16Z</time>
      </trkpt>
      <trkpt lat="42.4125260" lon="-3.2383390">
        <ele>802.4</ele>
        <time>2022-08-29T10:08:17Z</time>
      </trkpt>
      <trkpt lat="42.4125330" lon="-3.2383950">
        <ele>802.4</ele>
        <time>2022-08-29T10:08:18Z</time>
      </trkpt>
      <trkpt lat="42.4125410" lon="-3.2384530">
        <ele>802.2</ele>
        <time>2022-08-29T10:08:19Z</time>
      </trkpt>
      <trkpt lat="42.4125490" lon="-3.2385110">
        <ele>802.4</ele>
        <time>2022-08-29T10:08:20Z</time>
      </trkpt>
      <trkpt lat="42.4125570" lon="-3.2385690">
        <ele>802.4</ele>
        <time>2022-08-29T10:08:21Z</time>
      </trkpt>
      <trkpt lat="42.4125650" lon="-3.2386280">
        <ele>802.8</ele>
        <time>2022-08-29T10:08:22Z</time>
      </trkpt>
      <trkpt lat="42.4125730" lon="-3.2386880">
        <ele>803.0</ele>
        <time>2022-08-29T10:08:23Z</time>
      </trkpt>
      <trkpt lat="42.4125800" lon="-3.2387470">
        <ele>803.4</ele>
        <time>2022-08-29T10:08:24Z</time>
      </trkpt>
      <trkpt lat="42.4125840" lon="-3.2388080">
        <ele>803.2</ele>
        <time>2022-08-29T10:08:25Z</time>
      </trkpt>
      <trkpt lat="42.4125890" lon="-3.2388680">
        <ele>803.2</ele>
        <time>2022-08-29T10:08:26Z</time>
      </trkpt>
      <trkpt lat="42.4125930" lon="-3.2389270">
        <ele>803.2</ele>
        <time>2022-08-29T10:08:27Z</time>
      </trkpt>
      <trkpt lat="42.4125980" lon="-3.2389860">
        <ele>803.4</ele>
        <time>2022-08-29T10:08:28Z</time>
      </trkpt>
      <trkpt lat="42.4126030" lon="-3.2390440">
        <ele>803.6</ele>
        <time>2022-08-29T10:08:29Z</time>
      </trkpt>
      <trkpt lat="42.4126090" lon="-3.2391010">
        <ele>803.6</ele>
        <time>2022-08-29T10:08:30Z</time>
      </trkpt>
      <trkpt lat="42.4126150" lon="-3.2391570">
        <ele>803.8</ele>
        <time>2022-08-29T10:08:31Z</time>
      </trkpt>
      <trkpt lat="42.4126190" lon="-3.2392150">
        <ele>804.0</ele>
        <time>2022-08-29T10:08:32Z</time>
      </trkpt>
      <trkpt lat="42.4126230" lon="-3.2392730">
        <ele>804.0</ele>
        <time>2022-08-29T10:08:33Z</time>
      </trkpt>
      <trkpt lat="42.4126300" lon="-3.2393310">
        <ele>804.0</ele>
        <time>2022-08-29T10:08:34Z</time>
      </trkpt>
      <trkpt lat="42.4126400" lon="-3.2393870">
        <ele>804.4</ele>
        <time>2022-08-29T10:08:35Z</time>
      </trkpt>
      <trkpt lat="42.4126500" lon="-3.2394440">
        <ele>804.4</ele>
        <time>2022-08-29T10:08:36Z</time>
      </trkpt>
      <trkpt lat="42.4126600" lon="-3.2395010">
        <ele>804.4</ele>
        <time>2022-08-29T10:08:37Z</time>
      </trkpt>
      <trkpt lat="42.4126680" lon="-3.2395610">
        <ele>804.6</ele>
        <time>2022-08-29T10:08:38Z</time>
      </trkpt>
      <trkpt lat="42.4126750" lon="-3.2396190">
        <ele>804.6</ele>
        <time>2022-08-29T10:08:39Z</time>
      </trkpt>
      <trkpt lat="42.4126820" lon="-3.2396790">
        <ele>804.8</ele>
        <time>2022-08-29T10:08:40Z</time>
      </trkpt>
      <trkpt lat="42.4126890" lon="-3.2397400">
        <ele>805.0</ele>
        <time>2022-08-29T10:08:41Z</time>
      </trkpt>
      <trkpt lat="42.4126950" lon="-3.2398020">
        <ele>805.0</ele>
        <time>2022-08-29T10:08:42Z</time>
      </trkpt>
      <trkpt lat="42.4127020" lon="-3.2398640">
        <ele>805.2</ele>
        <time>2022-08-29T10:08:43Z</time>
      </trkpt>
      <trkpt lat="42.4127100" lon="-3.2399250">
        <ele>805.2</ele>
        <time>2022-08-29T10:08:44Z</time>
      </trkpt>
      <trkpt lat="42.4127170" lon="-3.2399840">
        <ele>805.2</ele>
        <time>2022-08-29T10:08:45Z</time>
      </trkpt>
      <trkpt lat="42.4127230" lon="-3.2400420">
        <ele>805.2</ele>
        <time>2022-08-29T10:08:46Z</time>
      </trkpt>
      <trkpt lat="42.4127290" lon="-3.2401010">
        <ele>805.4</ele>
        <time>2022-08-29T10:08:47Z</time>
      </trkpt>
      <trkpt lat="42.4127350" lon="-3.2401580">
        <ele>805.4</ele>
        <time>2022-08-29T10:08:48Z</time>
      </trkpt>
      <trkpt lat="42.4127430" lon="-3.2402130">
        <ele>805.4</ele>
        <time>2022-08-29T10:08:49Z</time>
      </trkpt>
      <trkpt lat="42.4127480" lon="-3.2402700">
        <ele>805.6</ele>
        <time>2022-08-29T10:08:50Z</time>
      </trkpt>
      <trkpt lat="42.4127510" lon="-3.2403230">
        <ele>805.6</ele>
        <time>2022-08-29T10:08:51Z</time>
      </trkpt>
      <trkpt lat="42.4127520" lon="-3.2403770">
        <ele>805.6</ele>
        <time>2022-08-29T10:08:52Z</time>
      </trkpt>
      <trkpt lat="42.4127540" lon="-3.2404280">
        <ele>805.8</ele>
        <time>2022-08-29T10:08:53Z</time>
      </trkpt>
      <trkpt lat="42.4127570" lon="-3.2404770">
        <ele>805.8</ele>
        <time>2022-08-29T10:08:54Z</time>
      </trkpt>
      <trkpt lat="42.4127630" lon="-3.2405230">
        <ele>805.8</ele>
        <time>2022-08-29T10:08:55Z</time>
      </trkpt>
      <trkpt lat="42.4127720" lon="-3.2405670">
        <ele>805.8</ele>
        <time>2022-08-29T10:08:56Z</time>
      </trkpt>
      <trkpt lat="42.4127750" lon="-3.2406070">
        <ele>806.0</ele>
        <time>2022-08-29T10:08:57Z</time>
      </trkpt>
      <trkpt lat="42.4127770" lon="-3.2406460">
        <ele>806.0</ele>
        <time>2022-08-29T10:08:58Z</time>
      </trkpt>
      <trkpt lat="42.4127770" lon="-3.2406810">
        <ele>806.2</ele>
        <time>2022-08-29T10:08:59Z</time>
      </trkpt>
      <trkpt lat="42.4127820" lon="-3.2407130">
        <ele>806.4</ele>
        <time>2022-08-29T10:09:00Z</time>
      </trkpt>
      <trkpt lat="42.4127860" lon="-3.2407410">
        <ele>806.4</ele>
        <time>2022-08-29T10:09:01Z</time>
      </trkpt>
      <trkpt lat="42.4127870" lon="-3.2407710">
        <ele>806.6</ele>
        <time>2022-08-29T10:09:02Z</time>
      </trkpt>
      <trkpt lat="42.4127900" lon="-3.2408030">
        <ele>806.6</ele>
        <time>2022-08-29T10:09:03Z</time>
      </trkpt>
      <trkpt lat="42.4127920" lon="-3.2408350">
        <ele>807.4</ele>
        <time>2022-08-29T10:09:04Z</time>
      </trkpt>
      <trkpt lat="42.4127950" lon="-3.2408700">
        <ele>808.0</ele>
        <time>2022-08-29T10:09:05Z</time>
      </trkpt>
      <trkpt lat="42.4127990" lon="-3.2409050">
        <ele>808.4</ele>
        <time>2022-08-29T10:09:06Z</time>
      </trkpt>
      <trkpt lat="42.4128090" lon="-3.2409420">
        <ele>808.6</ele>
        <time>2022-08-29T10:09:07Z</time>
      </trkpt>
      <trkpt lat="42.4128200" lon="-3.2409790">
        <ele>808.8</ele>
        <time>2022-08-29T10:09:08Z</time>
      </trkpt>
      <trkpt lat="42.4128270" lon="-3.2410190">
        <ele>809.0</ele>
        <time>2022-08-29T10:09:09Z</time>
      </trkpt>
      <trkpt lat="42.4128320" lon="-3.2410600">
        <ele>809.0</ele>
        <time>2022-08-29T10:09:10Z</time>
      </trkpt>
      <trkpt lat="42.4128380" lon="-3.2410980">
        <ele>809.2</ele>
        <time>2022-08-29T10:09:11Z</time>
      </trkpt>
      <trkpt lat="42.4128460" lon="-3.2411340">
        <ele>809.4</ele>
        <time>2022-08-29T10:09:12Z</time>
      </trkpt>
      <trkpt lat="42.4128540" lon="-3.2411690">
        <ele>809.6</ele>
        <time>2022-08-29T10:09:13Z</time>
      </trkpt>
      <trkpt lat="42.4128600" lon="-3.2412050">
        <ele>809.6</ele>
        <time>2022-08-29T10:09:14Z</time>
      </trkpt>
      <trkpt lat="42.4128670" lon="-3.2412420">
        <ele>809.6</ele>
        <time>2022-08-29T10:09:15Z</time>
      </trkpt>
      <trkpt lat="42.4128720" lon="-3.2412790">
        <ele>809.6</ele>
        <time>2022-08-29T10:09:16Z</time>
      </trkpt>
      <trkpt lat="42.4128790" lon="-3.2413150">
        <ele>809.8</ele>
        <time>2022-08-29T10:09:17Z</time>
      </trkpt>
      <trkpt lat="42.4128860" lon="-3.2413520">
        <ele>809.8</ele>
        <time>2022-08-29T10:09:18Z</time>
      </trkpt>
      <trkpt lat="42.4128920" lon="-3.2413890">
        <ele>810.2</ele>
        <time>2022-08-29T10:09:19Z</time>
      </trkpt>
      <trkpt lat="42.4129000" lon="-3.2414270">
        <ele>810.4</ele>
        <time>2022-08-29T10:09:20Z</time>
      </trkpt>
      <trkpt lat="42.4129060" lon="-3.2414630">
        <ele>810.4</ele>
        <time>2022-08-29T10:09:21Z</time>
      </trkpt>
      <trkpt lat="42.4129130" lon="-3.2414950">
        <ele>810.6</ele>
        <time>2022-08-29T10:09:22Z</time>
      </trkpt>
      <trkpt lat="42.4129220" lon="-3.2415240">
        <ele>810.6</ele>
        <time>2022-08-29T10:09:23Z</time>
      </trkpt>
      <trkpt lat="42.4129310" lon="-3.2415520">
        <ele>811.0</ele>
        <time>2022-08-29T10:09:24Z</time>
      </trkpt>
      <trkpt lat="42.4129420" lon="-3.2415800">
        <ele>811.0</ele>
        <time>2022-08-29T10:09:25Z</time>
      </trkpt>
      <trkpt lat="42.4129510" lon="-3.2416050">
        <ele>811.2</ele>
        <time>2022-08-29T10:09:26Z</time>
      </trkpt>
      <trkpt lat="42.4129600" lon="-3.2416280">
        <ele>811.4</ele>
        <time>2022-08-29T10:09:27Z</time>
      </trkpt>
      <trkpt lat="42.4129690" lon="-3.2416530">
        <ele>811.6</ele>
        <time>2022-08-29T10:09:28Z</time>
      </trkpt>
      <trkpt lat="42.4129760" lon="-3.2416810">
        <ele>811.8</ele>
        <time>2022-08-29T10:09:29Z</time>
      </trkpt>
      <trkpt lat="42.4129810" lon="-3.2417110">
        <ele>811.8</ele>
        <time>2022-08-29T10:09:30Z</time>
      </trkpt>
      <trkpt lat="42.4129850" lon="-3.2417420">
        <ele>811.8</ele>
        <time>2022-08-29T10:09:31Z</time>
      </trkpt>
      <trkpt lat="42.4129880" lon="-3.2417740">
        <ele>811.8</ele>
        <time>2022-08-29T10:09:32Z</time>
      </trkpt>
      <trkpt lat="42.4129910" lon="-3.2418070">
        <ele>812.0</ele>
        <time>2022-08-29T10:09:33Z</time>
      </trkpt>
      <trkpt lat="42.4129940" lon="-3.2418380">
        <ele>811.8</ele>
        <time>2022-08-29T10:09:34Z</time>
      </trkpt>
      <trkpt lat="42.4129980" lon="-3.2418680">
        <ele>811.8</ele>
        <time>2022-08-29T10:09:35Z</time>
      </trkpt>
      <trkpt lat="42.4130010" lon="-3.2418980">
        <ele>811.8</ele>
        <time>2022-08-29T10:09:36Z</time>
      </trkpt>
      <trkpt lat="42.4130050" lon="-3.2419300">
        <ele>811.8</ele>
        <time>2022-08-29T10:09:37Z</time>
      </trkpt>
      <trkpt lat="42.4130080" lon="-3.2419650">
        <ele>812.0</ele>
        <time>2022-08-29T10:09:38Z</time>
      </trkpt>
      <trkpt lat="42.4130090" lon="-3.2420040">
        <ele>812.0</ele>
        <time>2022-08-29T10:09:39Z</time>
      </trkpt>
      <trkpt lat="42.4130070" lon="-3.2420480">
        <ele>811.8</ele>
        <time>2022-08-29T10:09:40Z</time>
      </trkpt>
      <trkpt lat="42.4130030" lon="-3.2420950">
        <ele>811.8</ele>
        <time>2022-08-29T10:09:41Z</time>
      </trkpt>
      <trkpt lat="42.4130000" lon="-3.2421430">
        <ele>811.8</ele>
        <time>2022-08-29T10:09:42Z</time>
      </trkpt>
      <trkpt lat="42.4129980" lon="-3.2421940">
        <ele>811.8</ele>
        <time>2022-08-29T10:09:43Z</time>
      </trkpt>
      <trkpt lat="42.4129980" lon="-3.2422450">
        <ele>811.6</ele>
        <time>2022-08-29T10:09:44Z</time>
      </trkpt>
      <trkpt lat="42.4129990" lon="-3.2422980">
        <ele>811.6</ele>
        <time>2022-08-29T10:09:45Z</time>
      </trkpt>
      <trkpt lat="42.4130050" lon="-3.2423500">
        <ele>811.4</ele>
        <time>2022-08-29T10:09:46Z</time>
      </trkpt>
      <trkpt lat="42.4130170" lon="-3.2423980">
        <ele>811.6</ele>
        <time>2022-08-29T10:09:47Z</time>
      </trkpt>
      <trkpt lat="42.4130340" lon="-3.2424450">
        <ele>811.4</ele>
        <time>2022-08-29T10:09:48Z</time>
      </trkpt>
      <trkpt lat="42.4130490" lon="-3.2424910">
        <ele>811.4</ele>
        <time>2022-08-29T10:09:49Z</time>
      </trkpt>
      <trkpt lat="42.4130630" lon="-3.2425370">
        <ele>811.0</ele>
        <time>2022-08-29T10:09:50Z</time>
      </trkpt>
      <trkpt lat="42.4130720" lon="-3.2425880">
        <ele>811.0</ele>
        <time>2022-08-29T10:09:51Z</time>
      </trkpt>
      <trkpt lat="42.4130770" lon="-3.2426390">
        <ele>810.8</ele>
        <time>2022-08-29T10:09:52Z</time>
      </trkpt>
      <trkpt lat="42.4130840" lon="-3.2426890">
        <ele>810.6</ele>
        <time>2022-08-29T10:09:53Z</time>
      </trkpt>
      <trkpt lat="42.4130940" lon="-3.2427370">
        <ele>810.4</ele>
        <time>2022-08-29T10:09:54Z</time>
      </trkpt>
      <trkpt lat="42.4131020" lon="-3.2427880">
        <ele>810.4</ele>
        <time>2022-08-29T10:09:55Z</time>
      </trkpt>
      <trkpt lat="42.4131080" lon="-3.2428410">
        <ele>810.4</ele>
        <time>2022-08-29T10:09:56Z</time>
      </trkpt>
      <trkpt lat="42.4131170" lon="-3.2428890">
        <ele>810.4</ele>
        <time>2022-08-29T10:09:57Z</time>
      </trkpt>
      <trkpt lat="42.4131240" lon="-3.2429340">
        <ele>810.4</ele>
        <time>2022-08-29T10:09:58Z</time>
      </trkpt>
      <trkpt lat="42.4131340" lon="-3.2429770">
        <ele>810.4</ele>
        <time>2022-08-29T10:09:59Z</time>
      </trkpt>
      <trkpt lat="42.4131420" lon="-3.2430190">
        <ele>810.2</ele>
        <time>2022-08-29T10:10:00Z</time>
      </trkpt>
      <trkpt lat="42.4131450" lon="-3.2430660">
        <ele>810.4</ele>
        <time>2022-08-29T10:10:01Z</time>
      </trkpt>
      <trkpt lat="42.4131460" lon="-3.2431160">
        <ele>810.4</ele>
        <time>2022-08-29T10:10:02Z</time>
      </trkpt>
      <trkpt lat="42.4131650" lon="-3.2431690">
        <ele>810.4</ele>
        <time>2022-08-29T10:10:03Z</time>
      </trkpt>
      <trkpt lat="42.4131770" lon="-3.2432170">
        <ele>810.4</ele>
        <time>2022-08-29T10:10:04Z</time>
      </trkpt>
      <trkpt lat="42.4131870" lon="-3.2432640">
        <ele>810.4</ele>
        <time>2022-08-29T10:10:05Z</time>
      </trkpt>
      <trkpt lat="42.4131910" lon="-3.2433120">
        <ele>810.4</ele>
        <time>2022-08-29T10:10:06Z</time>
      </trkpt>
      <trkpt lat="42.4131960" lon="-3.2433610">
        <ele>810.4</ele>
        <time>2022-08-29T10:10:07Z</time>
      </trkpt>
      <trkpt lat="42.4132030" lon="-3.2434130">
        <ele>810.4</ele>
        <time>2022-08-29T10:10:08Z</time>
      </trkpt>
      <trkpt lat="42.4132090" lon="-3.2434640">
        <ele>810.4</ele>
        <time>2022-08-29T10:10:09Z</time>
      </trkpt>
      <trkpt lat="42.4132160" lon="-3.2435160">
        <ele>810.6</ele>
        <time>2022-08-29T10:10:10Z</time>
      </trkpt>
      <trkpt lat="42.4132190" lon="-3.2435700">
        <ele>810.6</ele>
        <time>2022-08-29T10:10:11Z</time>
      </trkpt>
      <trkpt lat="42.4132240" lon="-3.2436240">
        <ele>810.8</ele>
        <time>2022-08-29T10:10:12Z</time>
      </trkpt>
      <trkpt lat="42.4132260" lon="-3.2436770">
        <ele>810.8</ele>
        <time>2022-08-29T10:10:13Z</time>
      </trkpt>
      <trkpt lat="42.4132270" lon="-3.2437290">
        <ele>811.0</ele>
        <time>2022-08-29T10:10:14Z</time>
      </trkpt>
      <trkpt lat="42.4132310" lon="-3.2437770">
        <ele>811.0</ele>
        <time>2022-08-29T10:10:15Z</time>
      </trkpt>
      <trkpt lat="42.4132310" lon="-3.2438270">
        <ele>811.2</ele>
        <time>2022-08-29T10:10:16Z</time>
      </trkpt>
      <trkpt lat="42.4132260" lon="-3.2438750">
        <ele>811.2</ele>
        <time>2022-08-29T10:10:17Z</time>
      </trkpt>
      <trkpt lat="42.4132140" lon="-3.2439170">
        <ele>811.4</ele>
        <time>2022-08-29T10:10:18Z</time>
      </trkpt>
      <trkpt lat="42.4131950" lon="-3.2439530">
        <ele>811.4</ele>
        <time>2022-08-29T10:10:19Z</time>
      </trkpt>
      <trkpt lat="42.4131710" lon="-3.2439850">
        <ele>811.2</ele>
        <time>2022-08-29T10:10:20Z</time>
      </trkpt>
      <trkpt lat="42.4131480" lon="-3.2440110">
        <ele>811.4</ele>
        <time>2022-08-29T10:10:21Z</time>
      </trkpt>
      <trkpt lat="42.4131240" lon="-3.2440330">
        <ele>811.4</ele>
        <time>2022-08-29T10:10:22Z</time>
      </trkpt>
      <trkpt lat="42.4130990" lon="-3.2440570">
        <ele>811.4</ele>
        <time>2022-08-29T10:10:23Z</time>
      </trkpt>
      <trkpt lat="42.4130780" lon="-3.2440780">
        <ele>811.6</ele>
        <time>2022-08-29T10:10:24Z</time>
      </trkpt>
      <trkpt lat="42.4130550" lon="-3.2441010">
        <ele>811.4</ele>
        <time>2022-08-29T10:10:25Z</time>
      </trkpt>
      <trkpt lat="42.4130350" lon="-3.2441250">
        <ele>811.4</ele>
        <time>2022-08-29T10:10:26Z</time>
      </trkpt>
      <trkpt lat="42.4130120" lon="-3.2441520">
        <ele>811.6</ele>
        <time>2022-08-29T10:10:27Z</time>
      </trkpt>
      <trkpt lat="42.4129920" lon="-3.2441770">
        <ele>811.8</ele>
        <time>2022-08-29T10:10:28Z</time>
      </trkpt>
      <trkpt lat="42.4129750" lon="-3.2442050">
        <ele>812.0</ele>
        <time>2022-08-29T10:10:29Z</time>
      </trkpt>
      <trkpt lat="42.4129560" lon="-3.2442310">
        <ele>812.0</ele>
        <time>2022-08-29T10:10:30Z</time>
      </trkpt>
      <trkpt lat="42.4129320" lon="-3.2442520">
        <ele>812.4</ele>
        <time>2022-08-29T10:10:31Z</time>
      </trkpt>
      <trkpt lat="42.4129090" lon="-3.2442810">
        <ele>812.6</ele>
        <time>2022-08-29T10:10:32Z</time>
      </trkpt>
      <trkpt lat="42.4128860" lon="-3.2443100">
        <ele>812.6</ele>
        <time>2022-08-29T10:10:33Z</time>
      </trkpt>
      <trkpt lat="42.4128620" lon="-3.2443390">
        <ele>812.6</ele>
        <time>2022-08-29T10:10:34Z</time>
      </trkpt>
      <trkpt lat="42.4128330" lon="-3.2443680">
        <ele>813.0</ele>
        <time>2022-08-29T10:10:35Z</time>
      </trkpt>
      <trkpt lat="42.4128110" lon="-3.2443970">
        <ele>813.2</ele>
        <time>2022-08-29T10:10:36Z</time>
      </trkpt>
      <trkpt lat="42.4127830" lon="-3.2444220">
        <ele>813.4</ele>
        <time>2022-08-29T10:10:37Z</time>
      </trkpt>
      <trkpt lat="42.4127570" lon="-3.2444430">
        <ele>813.6</ele>
        <time>2022-08-29T10:10:38Z</time>
      </trkpt>
      <trkpt lat="42.4127320" lon="-3.2444660">
        <ele>813.8</ele>
        <time>2022-08-29T10:10:39Z</time>
      </trkpt>
      <trkpt lat="42.4127100" lon="-3.2444910">
        <ele>813.8</ele>
        <time>2022-08-29T10:10:40Z</time>
      </trkpt>
      <trkpt lat="42.4126890" lon="-3.2445180">
        <ele>814.0</ele>
        <time>2022-08-29T10:10:41Z</time>
      </trkpt>
      <trkpt lat="42.4126700" lon="-3.2445430">
        <ele>814.0</ele>
        <time>2022-08-29T10:10:42Z</time>
      </trkpt>
      <trkpt lat="42.4126500" lon="-3.2445650">
        <ele>814.2</ele>
        <time>2022-08-29T10:10:43Z</time>
      </trkpt>
      <trkpt lat="42.4126300" lon="-3.2445860">
        <ele>814.4</ele>
        <time>2022-08-29T10:10:44Z</time>
      </trkpt>
      <trkpt lat="42.4126100" lon="-3.2446070">
        <ele>814.6</ele>
        <time>2022-08-29T10:10:45Z</time>
      </trkpt>
      <trkpt lat="42.4125950" lon="-3.2446280">
        <ele>814.6</ele>
        <time>2022-08-29T10:10:46Z</time>
      </trkpt>
      <trkpt lat="42.4125820" lon="-3.2446460">
        <ele>814.6</ele>
        <time>2022-08-29T10:10:47Z</time>
      </trkpt>
      <trkpt lat="42.4125680" lon="-3.2446640">
        <ele>814.6</ele>
        <time>2022-08-29T10:10:48Z</time>
      </trkpt>
      <trkpt lat="42.4125540" lon="-3.2446840">
        <ele>814.6</ele>
        <time>2022-08-29T10:10:49Z</time>
      </trkpt>
      <trkpt lat="42.4125410" lon="-3.2447060">
        <ele>815.2</ele>
        <time>2022-08-29T10:10:50Z</time>
      </trkpt>
      <trkpt lat="42.4125290" lon="-3.2447280">
        <ele>815.2</ele>
        <time>2022-08-29T10:10:51Z</time>
      </trkpt>
      <trkpt lat="42.4125160" lon="-3.2447480">
        <ele>815.2</ele>
        <time>2022-08-29T10:10:52Z</time>
      </trkpt>
      <trkpt lat="42.4125040" lon="-3.2447670">
        <ele>815.6</ele>
        <time>2022-08-29T10:10:53Z</time>
      </trkpt>
      <trkpt lat="42.4124940" lon="-3.2447880">
        <ele>815.6</ele>
        <time>2022-08-29T10:10:54Z</time>
      </trkpt>
      <trkpt lat="42.4124860" lon="-3.2448120">
        <ele>815.6</ele>
        <time>2022-08-29T10:10:55Z</time>
      </trkpt>
      <trkpt lat="42.4124790" lon="-3.2448350">
        <ele>815.8</ele>
        <time>2022-08-29T10:10:56Z</time>
      </trkpt>
      <trkpt lat="42.4124700" lon="-3.2448560">
        <ele>816.2</ele>
        <time>2022-08-29T10:10:57Z</time>
      </trkpt>
      <trkpt lat="42.4124640" lon="-3.2448750">
        <ele>816.2</ele>
        <time>2022-08-29T10:10:58Z</time>
      </trkpt>
      <trkpt lat="42.4124560" lon="-3.2448990">
        <ele>816.6</ele>
        <time>2022-08-29T10:10:59Z</time>
      </trkpt>
      <trkpt lat="42.4124460" lon="-3.2449220">
        <ele>816.8</ele>
        <time>2022-08-29T10:11:00Z</time>
      </trkpt>
      <trkpt lat="42.4124350" lon="-3.2449440">
        <ele>817.0</ele>
        <time>2022-08-29T10:11:01Z</time>
      </trkpt>
      <trkpt lat="42.4124240" lon="-3.2449670">
        <ele>817.0</ele>
        <time>2022-08-29T10:11:02Z</time>
      </trkpt>
      <trkpt lat="42.4124120" lon="-3.2449920">
        <ele>817.2</ele>
        <time>2022-08-29T10:11:03Z</time>
      </trkpt>
      <trkpt lat="42.4123980" lon="-3.2450130">
        <ele>817.2</ele>
        <time>2022-08-29T10:11:04Z</time>
      </trkpt>
      <trkpt lat="42.4123870" lon="-3.2450340">
        <ele>817.4</ele>
        <time>2022-08-29T10:11:05Z</time>
      </trkpt>
      <trkpt lat="42.4123770" lon="-3.2450560">
        <ele>817.4</ele>
        <time>2022-08-29T10:11:06Z</time>
      </trkpt>
      <trkpt lat="42.4123680" lon="-3.2450780">
        <ele>817.6</ele>
        <time>2022-08-29T10:11:07Z</time>
      </trkpt>
      <trkpt lat="42.4123620" lon="-3.2451020">
        <ele>817.8</ele>
        <time>2022-08-29T10:11:08Z</time>
      </trkpt>
      <trkpt lat="42.4123570" lon="-3.2451250">
        <ele>818.0</ele>
        <time>2022-08-29T10:11:09Z</time>
      </trkpt>
      <trkpt lat="42.4123490" lon="-3.2451460">
        <ele>818.2</ele>
        <time>2022-08-29T10:11:10Z</time>
      </trkpt>
      <trkpt lat="42.4123380" lon="-3.2451650">
        <ele>818.4</ele>
        <time>2022-08-29T10:11:11Z</time>
      </trkpt>
      <trkpt lat="42.4123260" lon="-3.2451880">
        <ele>818.6</ele>
        <time>2022-08-29T10:11:12Z</time>
      </trkpt>
      <trkpt lat="42.4123130" lon="-3.2452120">
        <ele>818.8</ele>
        <time>2022-08-29T10:11:13Z</time>
      </trkpt>
      <trkpt lat="42.4123020" lon="-3.2452350">
        <ele>818.8</ele>
        <time>2022-08-29T10:11:14Z</time>
      </trkpt>
      <trkpt lat="42.4122910" lon="-3.2452580">
        <ele>818.8</ele>
        <time>2022-08-29T10:11:15Z</time>
      </trkpt>
      <trkpt lat="42.4122810" lon="-3.2452810">
        <ele>819.0</ele>
        <time>2022-08-29T10:11:16Z</time>
      </trkpt>
      <trkpt lat="42.4122800" lon="-3.2453040">
        <ele>819.0</ele>
        <time>2022-08-29T10:11:17Z</time>
      </trkpt>
      <trkpt lat="42.4122770" lon="-3.2453270">
        <ele>819.4</ele>
        <time>2022-08-29T10:11:18Z</time>
      </trkpt>
      <trkpt lat="42.4122680" lon="-3.2453460">
        <ele>819.6</ele>
        <time>2022-08-29T10:11:19Z</time>
      </trkpt>
      <trkpt lat="42.4122580" lon="-3.2453660">
        <ele>819.6</ele>
        <time>2022-08-29T10:11:20Z</time>
      </trkpt>
      <trkpt lat="42.4122460" lon="-3.2453860">
        <ele>820.0</ele>
        <time>2022-08-29T10:11:21Z</time>
      </trkpt>
      <trkpt lat="42.4122340" lon="-3.2454080">
        <ele>820.4</ele>
        <time>2022-08-29T10:11:22Z</time>
      </trkpt>
      <trkpt lat="42.4122220" lon="-3.2454300">
        <ele>820.6</ele>
        <time>2022-08-29T10:11:23Z</time>
      </trkpt>
      <trkpt lat="42.4122100" lon="-3.2454510">
        <ele>820.6</ele>
        <time>2022-08-29T10:11:24Z</time>
      </trkpt>
      <trkpt lat="42.4121970" lon="-3.2454710">
        <ele>821.0</ele>
        <time>2022-08-29T10:11:25Z</time>
      </trkpt>
      <trkpt lat="42.4121840" lon="-3.2454930">
        <ele>821.0</ele>
        <time>2022-08-29T10:11:26Z</time>
      </trkpt>
      <trkpt lat="42.4121700" lon="-3.2455140">
        <ele>821.2</ele>
        <time>2022-08-29T10:11:27Z</time>
      </trkpt>
      <trkpt lat="42.4121560" lon="-3.2455340">
        <ele>821.6</ele>
        <time>2022-08-29T10:11:28Z</time>
      </trkpt>
      <trkpt lat="42.4121410" lon="-3.2455550">
        <ele>821.6</ele>
        <time>2022-08-29T10:11:29Z</time>
      </trkpt>
      <trkpt lat="42.4121270" lon="-3.2455770">
        <ele>822.0</ele>
        <time>2022-08-29T10:11:30Z</time>
      </trkpt>
      <trkpt lat="42.4121100" lon="-3.2456020">
        <ele>822.2</ele>
        <time>2022-08-29T10:11:31Z</time>
      </trkpt>
      <trkpt lat="42.4120930" lon="-3.2456240">
        <ele>822.2</ele>
        <time>2022-08-29T10:11:32Z</time>
      </trkpt>
      <trkpt lat="42.4120740" lon="-3.2456430">
        <ele>822.2</ele>
        <time>2022-08-29T10:11:33Z</time>
      </trkpt>
      <trkpt lat="42.4120570" lon="-3.2456620">
        <ele>822.6</ele>
        <time>2022-08-29T10:11:34Z</time>
      </trkpt>
      <trkpt lat="42.4120400" lon="-3.2456840">
        <ele>822.8</ele>
        <time>2022-08-29T10:11:35Z</time>
      </trkpt>
      <trkpt lat="42.4120240" lon="-3.2457070">
        <ele>822.8</ele>
        <time>2022-08-29T10:11:36Z</time>
      </trkpt>
      <trkpt lat="42.4120080" lon="-3.2457320">
        <ele>822.8</ele>
        <time>2022-08-29T10:11:37Z</time>
      </trkpt>
      <trkpt lat="42.4119920" lon="-3.2457560">
        <ele>822.8</ele>
        <time>2022-08-29T10:11:38Z</time>
      </trkpt>
      <trkpt lat="42.4119790" lon="-3.2457820">
        <ele>823.0</ele>
        <time>2022-08-29T10:11:39Z</time>
      </trkpt>
      <trkpt lat="42.4119650" lon="-3.2458060">
        <ele>823.0</ele>
        <time>2022-08-29T10:11:40Z</time>
      </trkpt>
      <trkpt lat="42.4119520" lon="-3.2458280">
        <ele>823.2</ele>
        <time>2022-08-29T10:11:41Z</time>
      </trkpt>
      <trkpt lat="42.4119360" lon="-3.2458470">
        <ele>823.6</ele>
        <time>2022-08-29T10:11:42Z</time>
      </trkpt>
      <trkpt lat="42.4119190" lon="-3.2458660">
        <ele>824.0</ele>
        <time>2022-08-29T10:11:43Z</time>
      </trkpt>
      <trkpt lat="42.4119040" lon="-3.2458880">
        <ele>824.0</ele>
        <time>2022-08-29T10:11:44Z</time>
      </trkpt>
      <trkpt lat="42.4118890" lon="-3.2459130">
        <ele>824.2</ele>
        <time>2022-08-29T10:11:45Z</time>
      </trkpt>
      <trkpt lat="42.4118750" lon="-3.2459390">
        <ele>824.4</ele>
        <time>2022-08-29T10:11:46Z</time>
      </trkpt>
      <trkpt lat="42.4118610" lon="-3.2459650">
        <ele>824.4</ele>
        <time>2022-08-29T10:11:47Z</time>
      </trkpt>
      <trkpt lat="42.4118460" lon="-3.2459890">
        <ele>824.6</ele>
        <time>2022-08-29T10:11:48Z</time>
      </trkpt>
      <trkpt lat="42.4118320" lon="-3.2460150">
        <ele>824.8</ele>
        <time>2022-08-29T10:11:49Z</time>
      </trkpt>
      <trkpt lat="42.4118190" lon="-3.2460420">
        <ele>824.8</ele>
        <time>2022-08-29T10:11:50Z</time>
      </trkpt>
      <trkpt lat="42.4118130" lon="-3.2460700">
        <ele>825.0</ele>
        <time>2022-08-29T10:11:51Z</time>
      </trkpt>
      <trkpt lat="42.4118010" lon="-3.2460970">
        <ele>825.2</ele>
        <time>2022-08-29T10:11:52Z</time>
      </trkpt>
      <trkpt lat="42.4117880" lon="-3.2461210">
        <ele>825.4</ele>
        <time>2022-08-29T10:11:53Z</time>
      </trkpt>
      <trkpt lat="42.4117770" lon="-3.2461460">
        <ele>825.4</ele>
        <time>2022-08-29T10:11:54Z</time>
      </trkpt>
      <trkpt lat="42.4117720" lon="-3.2461720">
        <ele>825.6</ele>
        <time>2022-08-29T10:11:55Z</time>
      </trkpt>
      <trkpt lat="42.4117680" lon="-3.2462000">
        <ele>825.8</ele>
        <time>2022-08-29T10:11:56Z</time>
      </trkpt>
      <trkpt lat="42.4117610" lon="-3.2462270">
        <ele>825.8</ele>
        <time>2022-08-29T10:11:57Z</time>
      </trkpt>
      <trkpt lat="42.4117620" lon="-3.2462570">
        <ele>826.0</ele>
        <time>2022-08-29T10:11:58Z</time>
      </trkpt>
      <trkpt lat="42.4117620" lon="-3.2462850">
        <ele>826.4</ele>
        <time>2022-08-29T10:11:59Z</time>
      </trkpt>
      <trkpt lat="42.4117620" lon="-3.2463140">
        <ele>826.6</ele>
        <time>2022-08-29T10:12:00Z</time>
      </trkpt>
      <trkpt lat="42.4117580" lon="-3.2463390">
        <ele>826.6</ele>
        <time>2022-08-29T10:12:01Z</time>
      </trkpt>
      <trkpt lat="42.4117510" lon="-3.2463620">
        <ele>826.6</ele>
        <time>2022-08-29T10:12:02Z</time>
      </trkpt>
      <trkpt lat="42.4117400" lon="-3.2463840">
        <ele>827.0</ele>
        <time>2022-08-29T10:12:03Z</time>
      </trkpt>
      <trkpt lat="42.4117290" lon="-3.2464050">
        <ele>827.2</ele>
        <time>2022-08-29T10:12:04Z</time>
      </trkpt>
      <trkpt lat="42.4117180" lon="-3.2464280">
        <ele>827.4</ele>
        <time>2022-08-29T10:12:05Z</time>
      </trkpt>
      <trkpt lat="42.4117090" lon="-3.2464520">
        <ele>827.6</ele>
        <time>2022-08-29T10:12:06Z</time>
      </trkpt>
      <trkpt lat="42.4117000" lon="-3.2464770">
        <ele>827.6</ele>
        <time>2022-08-29T10:12:07Z</time>
      </trkpt>
      <trkpt lat="42.4116900" lon="-3.2465030">
        <ele>827.8</ele>
        <time>2022-08-29T10:12:08Z</time>
      </trkpt>
      <trkpt lat="42.4116780" lon="-3.2465270">
        <ele>827.8</ele>
        <time>2022-08-29T10:12:09Z</time>
      </trkpt>
      <trkpt lat="42.4116660" lon="-3.2465520">
        <ele>828.0</ele>
        <time>2022-08-29T10:12:10Z</time>
      </trkpt>
      <trkpt lat="42.4116540" lon="-3.2465770">
        <ele>828.2</ele>
        <time>2022-08-29T10:12:11Z</time>
      </trkpt>
      <trkpt lat="42.4116410" lon="-3.2466010">
        <ele>828.4</ele>
        <time>2022-08-29T10:12:12Z</time>
      </trkpt>
      <trkpt lat="42.4116310" lon="-3.2466280">
        <ele>828.6</ele>
        <time>2022-08-29T10:12:13Z</time>
      </trkpt>
      <trkpt lat="42.4116190" lon="-3.2466560">
        <ele>829.0</ele>
        <time>2022-08-29T10:12:14Z</time>
      </trkpt>
      <trkpt lat="42.4116100" lon="-3.2466850">
        <ele>829.2</ele>
        <time>2022-08-29T10:12:15Z</time>
      </trkpt>
      <trkpt lat="42.4116030" lon="-3.2467160">
        <ele>829.4</ele>
        <time>2022-08-29T10:12:16Z</time>
      </trkpt>
      <trkpt lat="42.4115930" lon="-3.2467460">
        <ele>829.6</ele>
        <time>2022-08-29T10:12:17Z</time>
      </trkpt>
      <trkpt lat="42.4115830" lon="-3.2467770">
        <ele>829.6</ele>
        <time>2022-08-29T10:12:18Z</time>
      </trkpt>
      <trkpt lat="42.4115660" lon="-3.2468090">
        <ele>829.8</ele>
        <time>2022-08-29T10:12:19Z</time>
      </trkpt>
      <trkpt lat="42.4115520" lon="-3.2468410">
        <ele>829.8</ele>
        <time>2022-08-29T10:12:20Z</time>
      </trkpt>
      <trkpt lat="42.4115320" lon="-3.2468710">
        <ele>829.8</ele>
        <time>2022-08-29T10:12:21Z</time>
      </trkpt>
      <trkpt lat="42.4115110" lon="-3.2468990">
        <ele>829.8</ele>
        <time>2022-08-29T10:12:22Z</time>
      </trkpt>
      <trkpt lat="42.4114910" lon="-3.2469270">
        <ele>830.0</ele>
        <time>2022-08-29T10:12:23Z</time>
      </trkpt>
      <trkpt lat="42.4114710" lon="-3.2469560">
        <ele>830.0</ele>
        <time>2022-08-29T10:12:24Z</time>
      </trkpt>
      <trkpt lat="42.4114510" lon="-3.2469860">
        <ele>830.0</ele>
        <time>2022-08-29T10:12:25Z</time>
      </trkpt>
      <trkpt lat="42.4114290" lon="-3.2470160">
        <ele>830.0</ele>
        <time>2022-08-29T10:12:26Z</time>
      </trkpt>
      <trkpt lat="42.4114090" lon="-3.2470460">
        <ele>830.0</ele>
        <time>2022-08-29T10:12:27Z</time>
      </trkpt>
      <trkpt lat="42.4113890" lon="-3.2470790">
        <ele>830.2</ele>
        <time>2022-08-29T10:12:28Z</time>
      </trkpt>
      <trkpt lat="42.4113700" lon="-3.2471140">
        <ele>830.2</ele>
        <time>2022-08-29T10:12:29Z</time>
      </trkpt>
      <trkpt lat="42.4113490" lon="-3.2471460">
        <ele>830.2</ele>
        <time>2022-08-29T10:12:30Z</time>
      </trkpt>
      <trkpt lat="42.4113330" lon="-3.2471770">
        <ele>830.4</ele>
        <time>2022-08-29T10:12:31Z</time>
      </trkpt>
      <trkpt lat="42.4113150" lon="-3.2472090">
        <ele>830.4</ele>
        <time>2022-08-29T10:12:32Z</time>
      </trkpt>
      <trkpt lat="42.4112950" lon="-3.2472440">
        <ele>830.4</ele>
        <time>2022-08-29T10:12:33Z</time>
      </trkpt>
      <trkpt lat="42.4112760" lon="-3.2472820">
        <ele>830.4</ele>
        <time>2022-08-29T10:12:34Z</time>
      </trkpt>
      <trkpt lat="42.4112540" lon="-3.2473180">
        <ele>830.4</ele>
        <time>2022-08-29T10:12:35Z</time>
      </trkpt>
      <trkpt lat="42.4112320" lon="-3.2473570">
        <ele>830.4</ele>
        <time>2022-08-29T10:12:36Z</time>
      </trkpt>
      <trkpt lat="42.4112100" lon="-3.2473940">
        <ele>830.6</ele>
        <time>2022-08-29T10:12:37Z</time>
      </trkpt>
      <trkpt lat="42.4111870" lon="-3.2474290">
        <ele>830.6</ele>
        <time>2022-08-29T10:12:38Z</time>
      </trkpt>
      <trkpt lat="42.4111660" lon="-3.2474650">
        <ele>830.6</ele>
        <time>2022-08-29T10:12:39Z</time>
      </trkpt>
      <trkpt lat="42.4111450" lon="-3.2474990">
        <ele>830.6</ele>
        <time>2022-08-29T10:12:40Z</time>
      </trkpt>
      <trkpt lat="42.4111230" lon="-3.2475330">
        <ele>830.6</ele>
        <time>2022-08-29T10:12:41Z</time>
      </trkpt>
      <trkpt lat="42.4111040" lon="-3.2475680">
        <ele>830.6</ele>
        <time>2022-08-29T10:12:42Z</time>
      </trkpt>
      <trkpt lat="42.4110820" lon="-3.2476020">
        <ele>831.0</ele>
        <time>2022-08-29T10:12:43Z</time>
      </trkpt>
      <trkpt lat="42.4110600" lon="-3.2476350">
        <ele>831.0</ele>
        <time>2022-08-29T10:12:44Z</time>
      </trkpt>
      <trkpt lat="42.4110370" lon="-3.2476700">
        <ele>831.2</ele>
        <time>2022-08-29T10:12:45Z</time>
      </trkpt>
      <trkpt lat="42.4110150" lon="-3.2477050">
        <ele>831.4</ele>
        <time>2022-08-29T10:12:46Z</time>
      </trkpt>
      <trkpt lat="42.4109980" lon="-3.2477430">
        <ele>831.4</ele>
        <time>2022-08-29T10:12:47Z</time>
      </trkpt>
      <trkpt lat="42.4109770" lon="-3.2477790">
        <ele>831.6</ele>
        <time>2022-08-29T10:12:48Z</time>
      </trkpt>
      <trkpt lat="42.4109570" lon="-3.2478150">
        <ele>831.6</ele>
        <time>2022-08-29T10:12:49Z</time>
      </trkpt>
      <trkpt lat="42.4109370" lon="-3.2478530">
        <ele>831.6</ele>
        <time>2022-08-29T10:12:50Z</time>
      </trkpt>
      <trkpt lat="42.4109190" lon="-3.2478950">
        <ele>831.8</ele>
        <time>2022-08-29T10:12:51Z</time>
      </trkpt>
      <trkpt lat="42.4108990" lon="-3.2479390">
        <ele>831.8</ele>
        <time>2022-08-29T10:12:52Z</time>
      </trkpt>
      <trkpt lat="42.4108760" lon="-3.2479790">
        <ele>831.8</ele>
        <time>2022-08-29T10:12:53Z</time>
      </trkpt>
      <trkpt lat="42.4108540" lon="-3.2480180">
        <ele>831.8</ele>
        <time>2022-08-29T10:12:54Z</time>
      </trkpt>
      <trkpt lat="42.4108330" lon="-3.2480570">
        <ele>831.8</ele>
        <time>2022-08-29T10:12:55Z</time>
      </trkpt>
      <trkpt lat="42.4108100" lon="-3.2480950">
        <ele>832.0</ele>
        <time>2022-08-29T10:12:56Z</time>
      </trkpt>
      <trkpt lat="42.4107920" lon="-3.2481350">
        <ele>832.0</ele>
        <time>2022-08-29T10:12:57Z</time>
      </trkpt>
      <trkpt lat="42.4107710" lon="-3.2481730">
        <ele>832.0</ele>
        <time>2022-08-29T10:12:58Z</time>
      </trkpt>
      <trkpt lat="42.4107460" lon="-3.2482090">
        <ele>832.0</ele>
        <time>2022-08-29T10:12:59Z</time>
      </trkpt>
      <trkpt lat="42.4107220" lon="-3.2482440">
        <ele>832.2</ele>
        <time>2022-08-29T10:13:00Z</time>
      </trkpt>
      <trkpt lat="42.4106960" lon="-3.2482800">
        <ele>832.4</ele>
        <time>2022-08-29T10:13:01Z</time>
      </trkpt>
      <trkpt lat="42.4106700" lon="-3.2483160">
        <ele>832.2</ele>
        <time>2022-08-29T10:13:02Z</time>
      </trkpt>
      <trkpt lat="42.4106460" lon="-3.2483550">
        <ele>832.2</ele>
        <time>2022-08-29T10:13:03Z</time>
      </trkpt>
      <trkpt lat="42.4106200" lon="-3.2483940">
        <ele>832.4</ele>
        <time>2022-08-29T10:13:04Z</time>
      </trkpt>
      <trkpt lat="42.4105950" lon="-3.2484350">
        <ele>832.6</ele>
        <time>2022-08-29T10:13:05Z</time>
      </trkpt>
      <trkpt lat="42.4105700" lon="-3.2484760">
        <ele>832.8</ele>
        <time>2022-08-29T10:13:06Z</time>
      </trkpt>
      <trkpt lat="42.4105440" lon="-3.2485180">
        <ele>832.8</ele>
        <time>2022-08-29T10:13:07Z</time>
      </trkpt>
      <trkpt lat="42.4105190" lon="-3.2485600">
        <ele>833.0</ele>
        <time>2022-08-29T10:13:08Z</time>
      </trkpt>
      <trkpt lat="42.4104940" lon="-3.2486010">
        <ele>833.0</ele>
        <time>2022-08-29T10:13:09Z</time>
      </trkpt>
      <trkpt lat="42.4104690" lon="-3.2486420">
        <ele>833.2</ele>
        <time>2022-08-29T10:13:10Z</time>
      </trkpt>
      <trkpt lat="42.4104450" lon="-3.2486850">
        <ele>833.4</ele>
        <time>2022-08-29T10:13:11Z</time>
      </trkpt>
      <trkpt lat="42.4104190" lon="-3.2487280">
        <ele>833.4</ele>
        <time>2022-08-29T10:13:12Z</time>
      </trkpt>
      <trkpt lat="42.4103910" lon="-3.2487700">
        <ele>833.8</ele>
        <time>2022-08-29T10:13:13Z</time>
      </trkpt>
      <trkpt lat="42.4103640" lon="-3.2488100">
        <ele>833.8</ele>
        <time>2022-08-29T10:13:14Z</time>
      </trkpt>
      <trkpt lat="42.4103380" lon="-3.2488500">
        <ele>833.6</ele>
        <time>2022-08-29T10:13:15Z</time>
      </trkpt>
      <trkpt lat="42.4103120" lon="-3.2488910">
        <ele>833.6</ele>
        <time>2022-08-29T10:13:16Z</time>
      </trkpt>
      <trkpt lat="42.4102870" lon="-3.2489350">
        <ele>833.8</ele>
        <time>2022-08-29T10:13:17Z</time>
      </trkpt>
      <trkpt lat="42.4102610" lon="-3.2489780">
        <ele>834.0</ele>
        <time>2022-08-29T10:13:18Z</time>
      </trkpt>
      <trkpt lat="42.4102350" lon="-3.2490230">
        <ele>833.8</ele>
        <time>2022-08-29T10:13:19Z</time>
      </trkpt>
      <trkpt lat="42.4102080" lon="-3.2490680">
        <ele>834.0</ele>
        <time>2022-08-29T10:13:20Z</time>
      </trkpt>
      <trkpt lat="42.4101810" lon="-3.2491130">
        <ele>834.0</ele>
        <time>2022-08-29T10:13:21Z</time>
      </trkpt>
      <trkpt lat="42.4101520" lon="-3.2491560">
        <ele>834.0</ele>
        <time>2022-08-29T10:13:22Z</time>
      </trkpt>
      <trkpt lat="42.4101220" lon="-3.2492000">
        <ele>834.0</ele>
        <time>2022-08-29T10:13:23Z</time>
      </trkpt>
      <trkpt lat="42.4100930" lon="-3.2492440">
        <ele>834.0</ele>
        <time>2022-08-29T10:13:24Z</time>
      </trkpt>
      <trkpt lat="42.4100650" lon="-3.2492880">
        <ele>834.0</ele>
        <time>2022-08-29T10:13:25Z</time>
      </trkpt>
      <trkpt lat="42.4100370" lon="-3.2493310">
        <ele>834.2</ele>
        <time>2022-08-29T10:13:26Z</time>
      </trkpt>
      <trkpt lat="42.4100080" lon="-3.2493750">
        <ele>834.2</ele>
        <time>2022-08-29T10:13:27Z</time>
      </trkpt>
      <trkpt lat="42.4099820" lon="-3.2494210">
        <ele>834.2</ele>
        <time>2022-08-29T10:13:28Z</time>
      </trkpt>
      <trkpt lat="42.4099580" lon="-3.2494660">
        <ele>834.2</ele>
        <time>2022-08-29T10:13:29Z</time>
      </trkpt>
      <trkpt lat="42.4099330" lon="-3.2495060">
        <ele>834.4</ele>
        <time>2022-08-29T10:13:30Z</time>
      </trkpt>
      <trkpt lat="42.4099080" lon="-3.2495420">
        <ele>834.4</ele>
        <time>2022-08-29T10:13:31Z</time>
      </trkpt>
      <trkpt lat="42.4098840" lon="-3.2495800">
        <ele>834.4</ele>
        <time>2022-08-29T10:13:32Z</time>
      </trkpt>
      <trkpt lat="42.4098610" lon="-3.2496200">
        <ele>834.4</ele>
        <time>2022-08-29T10:13:33Z</time>
      </trkpt>
      <trkpt lat="42.4098360" lon="-3.2496610">
        <ele>834.4</ele>
        <time>2022-08-29T10:13:34Z</time>
      </trkpt>
      <trkpt lat="42.4098120" lon="-3.2497040">
        <ele>834.6</ele>
        <time>2022-08-29T10:13:35Z</time>
      </trkpt>
      <trkpt lat="42.4097870" lon="-3.2497450">
        <ele>834.6</ele>
        <time>2022-08-29T10:13:36Z</time>
      </trkpt>
      <trkpt lat="42.4097620" lon="-3.2497880">
        <ele>834.6</ele>
        <time>2022-08-29T10:13:37Z</time>
      </trkpt>
      <trkpt lat="42.4097360" lon="-3.2498300">
        <ele>834.6</ele>
        <time>2022-08-29T10:13:38Z</time>
      </trkpt>
      <trkpt lat="42.4097110" lon="-3.2498720">
        <ele>834.8</ele>
        <time>2022-08-29T10:13:39Z</time>
      </trkpt>
      <trkpt lat="42.4096860" lon="-3.2499150">
        <ele>834.8</ele>
        <time>2022-08-29T10:13:40Z</time>
      </trkpt>
      <trkpt lat="42.4096610" lon="-3.2499570">
        <ele>834.6</ele>
        <time>2022-08-29T10:13:41Z</time>
      </trkpt>
      <trkpt lat="42.4096360" lon="-3.2499970">
        <ele>834.6</ele>
        <time>2022-08-29T10:13:42Z</time>
      </trkpt>
      <trkpt lat="42.4096110" lon="-3.2500390">
        <ele>834.8</ele>
        <time>2022-08-29T10:13:43Z</time>
      </trkpt>
      <trkpt lat="42.4095840" lon="-3.2500790">
        <ele>834.8</ele>
        <time>2022-08-29T10:13:44Z</time>
      </trkpt>
      <trkpt lat="42.4095570" lon="-3.2501190">
        <ele>834.8</ele>
        <time>2022-08-29T10:13:45Z</time>
      </trkpt>
      <trkpt lat="42.4095330" lon="-3.2501590">
        <ele>835.0</ele>
        <time>2022-08-29T10:13:46Z</time>
      </trkpt>
      <trkpt lat="42.4095070" lon="-3.2502000">
        <ele>835.0</ele>
        <time>2022-08-29T10:13:47Z</time>
      </trkpt>
      <trkpt lat="42.4094820" lon="-3.2502410">
        <ele>835.0</ele>
        <time>2022-08-29T10:13:48Z</time>
      </trkpt>
      <trkpt lat="42.4094610" lon="-3.2502850">
        <ele>835.0</ele>
        <time>2022-08-29T10:13:49Z</time>
      </trkpt>
      <trkpt lat="42.4094370" lon="-3.2503280">
        <ele>835.2</ele>
        <time>2022-08-29T10:13:50Z</time>
      </trkpt>
      <trkpt lat="42.4094120" lon="-3.2503710">
        <ele>835.2</ele>
        <time>2022-08-29T10:13:51Z</time>
      </trkpt>
      <trkpt lat="42.4093920" lon="-3.2504150">
        <ele>835.4</ele>
        <time>2022-08-29T10:13:52Z</time>
      </trkpt>
      <trkpt lat="42.4093670" lon="-3.2504570">
        <ele>835.6</ele>
        <time>2022-08-29T10:13:53Z</time>
      </trkpt>
      <trkpt lat="42.4093420" lon="-3.2505000">
        <ele>835.6</ele>
        <time>2022-08-29T10:13:54Z</time>
      </trkpt>
      <trkpt lat="42.4093170" lon="-3.2505430">
        <ele>835.6</ele>
        <time>2022-08-29T10:13:55Z</time>
      </trkpt>
      <trkpt lat="42.4092920" lon="-3.2505860">
        <ele>836.0</ele>
        <time>2022-08-29T10:13:56Z</time>
      </trkpt>
      <trkpt lat="42.4092710" lon="-3.2506330">
        <ele>835.8</ele>
        <time>2022-08-29T10:13:57Z</time>
      </trkpt>
      <trkpt lat="42.4092450" lon="-3.2506770">
        <ele>836.0</ele>
        <time>2022-08-29T10:13:58Z</time>
      </trkpt>
      <trkpt lat="42.4092190" lon="-3.2507210">
        <ele>836.0</ele>
        <time>2022-08-29T10:13:59Z</time>
      </trkpt>
      <trkpt lat="42.4091920" lon="-3.2507640">
        <ele>836.2</ele>
        <time>2022-08-29T10:14:00Z</time>
      </trkpt>
      <trkpt lat="42.4091640" lon="-3.2508080">
        <ele>836.0</ele>
        <time>2022-08-29T10:14:01Z</time>
      </trkpt>
      <trkpt lat="42.4091380" lon="-3.2508530">
        <ele>836.2</ele>
        <time>2022-08-29T10:14:02Z</time>
      </trkpt>
      <trkpt lat="42.4091120" lon="-3.2508980">
        <ele>836.2</ele>
        <time>2022-08-29T10:14:03Z</time>
      </trkpt>
      <trkpt lat="42.4090850" lon="-3.2509430">
        <ele>836.2</ele>
        <time>2022-08-29T10:14:04Z</time>
      </trkpt>
      <trkpt lat="42.4090570" lon="-3.2509900">
        <ele>836.2</ele>
        <time>2022-08-29T10:14:05Z</time>
      </trkpt>
      <trkpt lat="42.4090290" lon="-3.2510380">
        <ele>836.4</ele>
        <time>2022-08-29T10:14:06Z</time>
      </trkpt>
      <trkpt lat="42.4090010" lon="-3.2510880">
        <ele>836.4</ele>
        <time>2022-08-29T10:14:07Z</time>
      </trkpt>
      <trkpt lat="42.4089710" lon="-3.2511370">
        <ele>836.4</ele>
        <time>2022-08-29T10:14:08Z</time>
      </trkpt>
      <trkpt lat="42.4089420" lon="-3.2511880">
        <ele>836.4</ele>
        <time>2022-08-29T10:14:09Z</time>
      </trkpt>
      <trkpt lat="42.4089130" lon="-3.2512390">
        <ele>836.4</ele>
        <time>2022-08-29T10:14:10Z</time>
      </trkpt>
      <trkpt lat="42.4088830" lon="-3.2512900">
        <ele>836.4</ele>
        <time>2022-08-29T10:14:11Z</time>
      </trkpt>
      <trkpt lat="42.4088530" lon="-3.2513410">
        <ele>836.2</ele>
        <time>2022-08-29T10:14:12Z</time>
      </trkpt>
      <trkpt lat="42.4088220" lon="-3.2513920">
        <ele>836.2</ele>
        <time>2022-08-29T10:14:13Z</time>
      </trkpt>
      <trkpt lat="42.4087910" lon="-3.2514420">
        <ele>836.2</ele>
        <time>2022-08-29T10:14:14Z</time>
      </trkpt>
      <trkpt lat="42.4087600" lon="-3.2514900">
        <ele>836.4</ele>
        <time>2022-08-29T10:14:15Z</time>
      </trkpt>
      <trkpt lat="42.4087290" lon="-3.2515390">
        <ele>836.4</ele>
        <time>2022-08-29T10:14:16Z</time>
      </trkpt>
      <trkpt lat="42.4086980" lon="-3.2515890">
        <ele>836.4</ele>
        <time>2022-08-29T10:14:17Z</time>
      </trkpt>
      <trkpt lat="42.4086680" lon="-3.2516400">
        <ele>836.4</ele>
        <time>2022-08-29T10:14:18Z</time>
      </trkpt>
      <trkpt lat="42.4086370" lon="-3.2516900">
        <ele>836.6</ele>
        <time>2022-08-29T10:14:19Z</time>
      </trkpt>
      <trkpt lat="42.4086020" lon="-3.2517380">
        <ele>836.4</ele>
        <time>2022-08-29T10:14:20Z</time>
      </trkpt>
      <trkpt lat="42.4085660" lon="-3.2517860">
        <ele>836.4</ele>
        <time>2022-08-29T10:14:21Z</time>
      </trkpt>
      <trkpt lat="42.4085290" lon="-3.2518350">
        <ele>836.4</ele>
        <time>2022-08-29T10:14:22Z</time>
      </trkpt>
      <trkpt lat="42.4084910" lon="-3.2518820">
        <ele>836.4</ele>
        <time>2022-08-29T10:14:23Z</time>
      </trkpt>
      <trkpt lat="42.4084490" lon="-3.2519290">
        <ele>836.2</ele>
        <time>2022-08-29T10:14:24Z</time>
      </trkpt>
      <trkpt lat="42.4084070" lon="-3.2519790">
        <ele>836.2</ele>
        <time>2022-08-29T10:14:25Z</time>
      </trkpt>
      <trkpt lat="42.4083710" lon="-3.2520330">
        <ele>836.4</ele>
        <time>2022-08-29T10:14:26Z</time>
      </trkpt>
      <trkpt lat="42.4083290" lon="-3.2520900">
        <ele>836.4</ele>
        <time>2022-08-29T10:14:27Z</time>
      </trkpt>
      <trkpt lat="42.4082890" lon="-3.2521450">
        <ele>836.4</ele>
        <time>2022-08-29T10:14:28Z</time>
      </trkpt>
      <trkpt lat="42.4082470" lon="-3.2522000">
        <ele>836.2</ele>
        <time>2022-08-29T10:14:29Z</time>
      </trkpt>
      <trkpt lat="42.4081990" lon="-3.2522490">
        <ele>836.2</ele>
        <time>2022-08-29T10:14:30Z</time>
      </trkpt>
      <trkpt lat="42.4081510" lon="-3.2522970">
        <ele>836.4</ele>
        <time>2022-08-29T10:14:31Z</time>
      </trkpt>
      <trkpt lat="42.4081040" lon="-3.2523450">
        <ele>836.4</ele>
        <time>2022-08-29T10:14:32Z</time>
      </trkpt>
      <trkpt lat="42.4080550" lon="-3.2523910">
        <ele>836.2</ele>
        <time>2022-08-29T10:14:33Z</time>
      </trkpt>
      <trkpt lat="42.4080070" lon="-3.2524410">
        <ele>836.4</ele>
        <time>2022-08-29T10:14:34Z</time>
      </trkpt>
      <trkpt lat="42.4079600" lon="-3.2524920">
        <ele>836.0</ele>
        <time>2022-08-29T10:14:35Z</time>
      </trkpt>
      <trkpt lat="42.4079150" lon="-3.2525450">
        <ele>836.0</ele>
        <time>2022-08-29T10:14:36Z</time>
      </trkpt>
      <trkpt lat="42.4078680" lon="-3.2525980">
        <ele>835.8</ele>
        <time>2022-08-29T10:14:37Z</time>
      </trkpt>
      <trkpt lat="42.4078230" lon="-3.2526550">
        <ele>835.4</ele>
        <time>2022-08-29T10:14:38Z</time>
      </trkpt>
      <trkpt lat="42.4077790" lon="-3.2527140">
        <ele>835.4</ele>
        <time>2022-08-29T10:14:39Z</time>
      </trkpt>
      <trkpt lat="42.4077340" lon="-3.2527730">
        <ele>835.4</ele>
        <time>2022-08-29T10:14:40Z</time>
      </trkpt>
      <trkpt lat="42.4076810" lon="-3.2528290">
        <ele>835.2</ele>
        <time>2022-08-29T10:14:41Z</time>
      </trkpt>
      <trkpt lat="42.4076290" lon="-3.2528880">
        <ele>835.0</ele>
        <time>2022-08-29T10:14:42Z</time>
      </trkpt>
      <trkpt lat="42.4075820" lon="-3.2529520">
        <ele>835.0</ele>
        <time>2022-08-29T10:14:43Z</time>
      </trkpt>
      <trkpt lat="42.4075300" lon="-3.2530130">
        <ele>835.2</ele>
        <time>2022-08-29T10:14:44Z</time>
      </trkpt>
      <trkpt lat="42.4074790" lon="-3.2530740">
        <ele>835.0</ele>
        <time>2022-08-29T10:14:45Z</time>
      </trkpt>
      <trkpt lat="42.4074270" lon="-3.2531320">
        <ele>835.2</ele>
        <time>2022-08-29T10:14:46Z</time>
      </trkpt>
      <trkpt lat="42.4073790" lon="-3.2531910">
        <ele>835.0</ele>
        <time>2022-08-29T10:14:47Z</time>
      </trkpt>
      <trkpt lat="42.4073330" lon="-3.2532490">
        <ele>835.0</ele>
        <time>2022-08-29T10:14:48Z</time>
      </trkpt>
      <trkpt lat="42.4072830" lon="-3.2533030">
        <ele>834.8</ele>
        <time>2022-08-29T10:14:49Z</time>
      </trkpt>
      <trkpt lat="42.4072330" lon="-3.2533560">
        <ele>834.8</ele>
        <time>2022-08-29T10:14:50Z</time>
      </trkpt>
      <trkpt lat="42.4071900" lon="-3.2534110">
        <ele>834.8</ele>
        <time>2022-08-29T10:14:51Z</time>
      </trkpt>
      <trkpt lat="42.4071440" lon="-3.2534620">
        <ele>834.4</ele>
        <time>2022-08-29T10:14:52Z</time>
      </trkpt>
      <trkpt lat="42.4070960" lon="-3.2535120">
        <ele>834.4</ele>
        <time>2022-08-29T10:14:53Z</time>
      </trkpt>
      <trkpt lat="42.4070510" lon="-3.2535610">
        <ele>834.4</ele>
        <time>2022-08-29T10:14:54Z</time>
      </trkpt>
      <trkpt lat="42.4070110" lon="-3.2536130">
        <ele>834.2</ele>
        <time>2022-08-29T10:14:55Z</time>
      </trkpt>
      <trkpt lat="42.4069650" lon="-3.2536550">
        <ele>834.2</ele>
        <time>2022-08-29T10:14:56Z</time>
      </trkpt>
      <trkpt lat="42.4069200" lon="-3.2536930">
        <ele>834.2</ele>
        <time>2022-08-29T10:14:57Z</time>
      </trkpt>
      <trkpt lat="42.4068790" lon="-3.2537360">
        <ele>834.2</ele>
        <time>2022-08-29T10:14:58Z</time>
      </trkpt>
      <trkpt lat="42.4068410" lon="-3.2537820">
        <ele>834.2</ele>
        <time>2022-08-29T10:14:59Z</time>
      </trkpt>
      <trkpt lat="42.4068030" lon="-3.2538290">
        <ele>834.2</ele>
        <time>2022-08-29T10:15:00Z</time>
      </trkpt>
      <trkpt lat="42.4067640" lon="-3.2538710">
        <ele>834.4</ele>
        <time>2022-08-29T10:15:01Z</time>
      </trkpt>
      <trkpt lat="42.4067270" lon="-3.2539110">
        <ele>834.4</ele>
        <time>2022-08-29T10:15:02Z</time>
      </trkpt>
      <trkpt lat="42.4066900" lon="-3.2539500">
        <ele>834.6</ele>
        <time>2022-08-29T10:15:03Z</time>
      </trkpt>
      <trkpt lat="42.4066530" lon="-3.2539920">
        <ele>834.8</ele>
        <time>2022-08-29T10:15:04Z</time>
      </trkpt>
      <trkpt lat="42.4066210" lon="-3.2540360">
        <ele>835.2</ele>
        <time>2022-08-29T10:15:05Z</time>
      </trkpt>
      <trkpt lat="42.4065910" lon="-3.2540810">
        <ele>835.4</ele>
        <time>2022-08-29T10:15:06Z</time>
      </trkpt>
      <trkpt lat="42.4065630" lon="-3.2541270">
        <ele>835.6</ele>
        <time>2022-08-29T10:15:07Z</time>
      </trkpt>
      <trkpt lat="42.4065370" lon="-3.2541740">
        <ele>835.8</ele>
        <time>2022-08-29T10:15:08Z</time>
      </trkpt>
      <trkpt lat="42.4065110" lon="-3.2542220">
        <ele>836.0</ele>
        <time>2022-08-29T10:15:09Z</time>
      </trkpt>
      <trkpt lat="42.4064860" lon="-3.2542700">
        <ele>836.0</ele>
        <time>2022-08-29T10:15:10Z</time>
      </trkpt>
      <trkpt lat="42.4064650" lon="-3.2543180">
        <ele>836.2</ele>
        <time>2022-08-29T10:15:11Z</time>
      </trkpt>
      <trkpt lat="42.4064430" lon="-3.2543680">
        <ele>836.4</ele>
        <time>2022-08-29T10:15:12Z</time>
      </trkpt>
      <trkpt lat="42.4064220" lon="-3.2544200">
        <ele>836.4</ele>
        <time>2022-08-29T10:15:13Z</time>
      </trkpt>
      <trkpt lat="42.4064020" lon="-3.2544720">
        <ele>836.6</ele>
        <time>2022-08-29T10:15:14Z</time>
      </trkpt>
      <trkpt lat="42.4063820" lon="-3.2545240">
        <ele>836.6</ele>
        <time>2022-08-29T10:15:15Z</time>
      </trkpt>
      <trkpt lat="42.4063620" lon="-3.2545760">
        <ele>836.6</ele>
        <time>2022-08-29T10:15:16Z</time>
      </trkpt>
      <trkpt lat="42.4063430" lon="-3.2546280">
        <ele>837.0</ele>
        <time>2022-08-29T10:15:17Z</time>
      </trkpt>
      <trkpt lat="42.4063240" lon="-3.2546800">
        <ele>837.2</ele>
        <time>2022-08-29T10:15:18Z</time>
      </trkpt>
      <trkpt lat="42.4063050" lon="-3.2547330">
        <ele>837.2</ele>
        <time>2022-08-29T10:15:19Z</time>
      </trkpt>
      <trkpt lat="42.4062860" lon="-3.2547830">
        <ele>837.4</ele>
        <time>2022-08-29T10:15:20Z</time>
      </trkpt>
      <trkpt lat="42.4062680" lon="-3.2548330">
        <ele>837.8</ele>
        <time>2022-08-29T10:15:21Z</time>
      </trkpt>
      <trkpt lat="42.4062500" lon="-3.2548830">
        <ele>837.8</ele>
        <time>2022-08-29T10:15:22Z</time>
      </trkpt>
      <trkpt lat="42.4062330" lon="-3.2549330">
        <ele>838.0</ele>
        <time>2022-08-29T10:15:23Z</time>
      </trkpt>
      <trkpt lat="42.4062150" lon="-3.2549820">
        <ele>838.2</ele>
        <time>2022-08-29T10:15:24Z</time>
      </trkpt>
      <trkpt lat="42.4061980" lon="-3.2550300">
        <ele>838.4</ele>
        <time>2022-08-29T10:15:25Z</time>
      </trkpt>
      <trkpt lat="42.4061800" lon="-3.2550780">
        <ele>838.6</ele>
        <time>2022-08-29T10:15:26Z</time>
      </trkpt>
      <trkpt lat="42.4061620" lon="-3.2551280">
        <ele>838.8</ele>
        <time>2022-08-29T10:15:27Z</time>
      </trkpt>
      <trkpt lat="42.4061440" lon="-3.2551770">
        <ele>839.2</ele>
        <time>2022-08-29T10:15:28Z</time>
      </trkpt>
      <trkpt lat="42.4061250" lon="-3.2552270">
        <ele>839.2</ele>
        <time>2022-08-29T10:15:29Z</time>
      </trkpt>
      <trkpt lat="42.4061060" lon="-3.2552750">
        <ele>839.4</ele>
        <time>2022-08-29T10:15:30Z</time>
      </trkpt>
      <trkpt lat="42.4060880" lon="-3.2553230">
        <ele>839.8</ele>
        <time>2022-08-29T10:15:31Z</time>
      </trkpt>
      <trkpt lat="42.4060710" lon="-3.2553700">
        <ele>839.8</ele>
        <time>2022-08-29T10:15:32Z</time>
      </trkpt>
      <trkpt lat="42.4060540" lon="-3.2554180">
        <ele>840.0</ele>
        <time>2022-08-29T10:15:33Z</time>
      </trkpt>
      <trkpt lat="42.4060380" lon="-3.2554670">
        <ele>840.2</ele>
        <time>2022-08-29T10:15:34Z</time>
      </trkpt>
      <trkpt lat="42.4060270" lon="-3.2555200">
        <ele>840.6</ele>
        <time>2022-08-29T10:15:35Z</time>
      </trkpt>
      <trkpt lat="42.4060100" lon="-3.2555700">
        <ele>840.6</ele>
        <time>2022-08-29T10:15:36Z</time>
      </trkpt>
      <trkpt lat="42.4059940" lon="-3.2556190">
        <ele>840.8</ele>
        <time>2022-08-29T10:15:37Z</time>
      </trkpt>
      <trkpt lat="42.4059730" lon="-3.2556690">
        <ele>840.8</ele>
        <time>2022-08-29T10:15:38Z</time>
      </trkpt>
      <trkpt lat="42.4059510" lon="-3.2557190">
        <ele>841.0</ele>
        <time>2022-08-29T10:15:39Z</time>
      </trkpt>
      <trkpt lat="42.4059310" lon="-3.2557690">
        <ele>841.0</ele>
        <time>2022-08-29T10:15:40Z</time>
      </trkpt>
      <trkpt lat="42.4059140" lon="-3.2558180">
        <ele>841.0</ele>
        <time>2022-08-29T10:15:41Z</time>
      </trkpt>
      <trkpt lat="42.4058950" lon="-3.2558690">
        <ele>841.2</ele>
        <time>2022-08-29T10:15:42Z</time>
      </trkpt>
      <trkpt lat="42.4058740" lon="-3.2559190">
        <ele>841.2</ele>
        <time>2022-08-29T10:15:43Z</time>
      </trkpt>
      <trkpt lat="42.4058530" lon="-3.2559680">
        <ele>841.6</ele>
        <time>2022-08-29T10:15:44Z</time>
      </trkpt>
      <trkpt lat="42.4058340" lon="-3.2560170">
        <ele>841.6</ele>
        <time>2022-08-29T10:15:45Z</time>
      </trkpt>
      <trkpt lat="42.4058170" lon="-3.2560650">
        <ele>841.8</ele>
        <time>2022-08-29T10:15:46Z</time>
      </trkpt>
      <trkpt lat="42.4058000" lon="-3.2561140">
        <ele>842.0</ele>
        <time>2022-08-29T10:15:47Z</time>
      </trkpt>
      <trkpt lat="42.4057820" lon="-3.2561620">
        <ele>842.0</ele>
        <time>2022-08-29T10:15:48Z</time>
      </trkpt>
      <trkpt lat="42.4057640" lon="-3.2562100">
        <ele>842.2</ele>
        <time>2022-08-29T10:15:49Z</time>
      </trkpt>
      <trkpt lat="42.4057460" lon="-3.2562580">
        <ele>842.4</ele>
        <time>2022-08-29T10:15:50Z</time>
      </trkpt>
      <trkpt lat="42.4057270" lon="-3.2563060">
        <ele>842.4</ele>
        <time>2022-08-29T10:15:51Z</time>
      </trkpt>
      <trkpt lat="42.4057090" lon="-3.2563530">
        <ele>842.4</ele>
        <time>2022-08-29T10:15:52Z</time>
      </trkpt>
      <trkpt lat="42.4056920" lon="-3.2564010">
        <ele>842.4</ele>
        <time>2022-08-29T10:15:53Z</time>
      </trkpt>
      <trkpt lat="42.4056750" lon="-3.2564490">
        <ele>842.8</ele>
        <time>2022-08-29T10:15:54Z</time>
      </trkpt>
      <trkpt lat="42.4056580" lon="-3.2564960">
        <ele>843.0</ele>
        <time>2022-08-29T10:15:55Z</time>
      </trkpt>
      <trkpt lat="42.4056420" lon="-3.2565460">
        <ele>843.2</ele>
        <time>2022-08-29T10:15:56Z</time>
      </trkpt>
      <trkpt lat="42.4056230" lon="-3.2565940">
        <ele>843.2</ele>
        <time>2022-08-29T10:15:57Z</time>
      </trkpt>
      <trkpt lat="42.4056050" lon="-3.2566410">
        <ele>843.8</ele>
        <time>2022-08-29T10:15:58Z</time>
      </trkpt>
      <trkpt lat="42.4055870" lon="-3.2566870">
        <ele>843.8</ele>
        <time>2022-08-29T10:15:59Z</time>
      </trkpt>
      <trkpt lat="42.4055680" lon="-3.2567310">
        <ele>844.0</ele>
        <time>2022-08-29T10:16:00Z</time>
      </trkpt>
      <trkpt lat="42.4055480" lon="-3.2567750">
        <ele>844.2</ele>
        <time>2022-08-29T10:16:01Z</time>
      </trkpt>
      <trkpt lat="42.4055290" lon="-3.2568190">
        <ele>844.0</ele>
        <time>2022-08-29T10:16:02Z</time>
      </trkpt>
      <trkpt lat="42.4055120" lon="-3.2568640">
        <ele>844.2</ele>
        <time>2022-08-29T10:16:03Z</time>
      </trkpt>
      <trkpt lat="42.4054960" lon="-3.2569080">
        <ele>844.4</ele>
        <time>2022-08-29T10:16:04Z</time>
      </trkpt>
      <trkpt lat="42.4054820" lon="-3.2569510">
        <ele>844.4</ele>
        <time>2022-08-29T10:16:05Z</time>
      </trkpt>
      <trkpt lat="42.4054660" lon="-3.2569930">
        <ele>844.8</ele>
        <time>2022-08-29T10:16:06Z</time>
      </trkpt>
      <trkpt lat="42.4054510" lon="-3.2570360">
        <ele>844.8</ele>
        <time>2022-08-29T10:16:07Z</time>
      </trkpt>
      <trkpt lat="42.4054370" lon="-3.2570800">
        <ele>845.0</ele>
        <time>2022-08-29T10:16:08Z</time>
      </trkpt>
      <trkpt lat="42.4054220" lon="-3.2571240">
        <ele>845.2</ele>
        <time>2022-08-29T10:16:09Z</time>
      </trkpt>
      <trkpt lat="42.4054060" lon="-3.2571670">
        <ele>845.4</ele>
        <time>2022-08-29T10:16:10Z</time>
      </trkpt>
      <trkpt lat="42.4053910" lon="-3.2572110">
        <ele>845.6</ele>
        <time>2022-08-29T10:16:11Z</time>
      </trkpt>
      <trkpt lat="42.4053770" lon="-3.2572540">
        <ele>845.8</ele>
        <time>2022-08-29T10:16:12Z</time>
      </trkpt>
      <trkpt lat="42.4053630" lon="-3.2572980">
        <ele>846.0</ele>
        <time>2022-08-29T10:16:13Z</time>
      </trkpt>
      <trkpt lat="42.4053470" lon="-3.2573410">
        <ele>846.0</ele>
        <time>2022-08-29T10:16:14Z</time>
      </trkpt>
      <trkpt lat="42.4053310" lon="-3.2573850">
        <ele>846.2</ele>
        <time>2022-08-29T10:16:15Z</time>
      </trkpt>
      <trkpt lat="42.4053130" lon="-3.2574290">
        <ele>846.4</ele>
        <time>2022-08-29T10:16:16Z</time>
      </trkpt>
      <trkpt lat="42.4052960" lon="-3.2574730">
        <ele>846.6</ele>
        <time>2022-08-29T10:16:17Z</time>
      </trkpt>
      <trkpt lat="42.4052790" lon="-3.2575190">
        <ele>846.6</ele>
        <time>2022-08-29T10:16:18Z</time>
      </trkpt>
      <trkpt lat="42.4052620" lon="-3.2575650">
        <ele>847.0</ele>
        <time>2022-08-29T10:16:19Z</time>
      </trkpt>
      <trkpt lat="42.4052460" lon="-3.2576110">
        <ele>847.0</ele>
        <time>2022-08-29T10:16:20Z</time>
      </trkpt>
      <trkpt lat="42.4052290" lon="-3.2576570">
        <ele>847.2</ele>
        <time>2022-08-29T10:16:21Z</time>
      </trkpt>
      <trkpt lat="42.4052110" lon="-3.2577040">
        <ele>847.4</ele>
        <time>2022-08-29T10:16:22Z</time>
      </trkpt>
      <trkpt lat="42.4051930" lon="-3.2577490">
        <ele>847.6</ele>
        <time>2022-08-29T10:16:23Z</time>
      </trkpt>
      <trkpt lat="42.4051760" lon="-3.2577940">
        <ele>847.6</ele>
        <time>2022-08-29T10:16:24Z</time>
      </trkpt>
      <trkpt lat="42.4051600" lon="-3.2578390">
        <ele>847.8</ele>
        <time>2022-08-29T10:16:25Z</time>
      </trkpt>
      <trkpt lat="42.4051440" lon="-3.2578830">
        <ele>848.0</ele>
        <time>2022-08-29T10:16:26Z</time>
      </trkpt>
      <trkpt lat="42.4051290" lon="-3.2579260">
        <ele>848.2</ele>
        <time>2022-08-29T10:16:27Z</time>
      </trkpt>
      <trkpt lat="42.4051130" lon="-3.2579690">
        <ele>848.2</ele>
        <time>2022-08-29T10:16:28Z</time>
      </trkpt>
      <trkpt lat="42.4050970" lon="-3.2580120">
        <ele>848.2</ele>
        <time>2022-08-29T10:16:29Z</time>
      </trkpt>
      <trkpt lat="42.4050820" lon="-3.2580550">
        <ele>848.2</ele>
        <time>2022-08-29T10:16:30Z</time>
      </trkpt>
      <trkpt lat="42.4050660" lon="-3.2580960">
        <ele>848.6</ele>
        <time>2022-08-29T10:16:31Z</time>
      </trkpt>
      <trkpt lat="42.4050500" lon="-3.2581360">
        <ele>848.6</ele>
        <time>2022-08-29T10:16:32Z</time>
      </trkpt>
      <trkpt lat="42.4050350" lon="-3.2581770">
        <ele>848.8</ele>
        <time>2022-08-29T10:16:33Z</time>
      </trkpt>
      <trkpt lat="42.4050200" lon="-3.2582180">
        <ele>849.0</ele>
        <time>2022-08-29T10:16:34Z</time>
      </trkpt>
      <trkpt lat="42.4050050" lon="-3.2582580">
        <ele>849.2</ele>
        <time>2022-08-29T10:16:35Z</time>
      </trkpt>
      <trkpt lat="42.4049900" lon="-3.2582990">
        <ele>849.2</ele>
        <time>2022-08-29T10:16:36Z</time>
      </trkpt>
      <trkpt lat="42.4049760" lon="-3.2583410">
        <ele>849.6</ele>
        <time>2022-08-29T10:16:37Z</time>
      </trkpt>
      <trkpt lat="42.4049620" lon="-3.2583840">
        <ele>849.8</ele>
        <time>2022-08-29T10:16:38Z</time>
      </trkpt>
      <trkpt lat="42.4049460" lon="-3.2584260">
        <ele>849.8</ele>
        <time>2022-08-29T10:16:39Z</time>
      </trkpt>
      <trkpt lat="42.4049310" lon="-3.2584680">
        <ele>850.0</ele>
        <time>2022-08-29T10:16:40Z</time>
      </trkpt>
      <trkpt lat="42.4049150" lon="-3.2585120">
        <ele>850.0</ele>
        <time>2022-08-29T10:16:41Z</time>
      </trkpt>
      <trkpt lat="42.4048990" lon="-3.2585550">
        <ele>850.2</ele>
        <time>2022-08-29T10:16:42Z</time>
      </trkpt>
      <trkpt lat="42.4048860" lon="-3.2586000">
        <ele>850.6</ele>
        <time>2022-08-29T10:16:43Z</time>
      </trkpt>
      <trkpt lat="42.4048710" lon="-3.2586440">
        <ele>850.8</ele>
        <time>2022-08-29T10:16:44Z</time>
      </trkpt>
      <trkpt lat="42.4048570" lon="-3.2586880">
        <ele>850.8</ele>
        <time>2022-08-29T10:16:45Z</time>
      </trkpt>
      <trkpt lat="42.4048430" lon="-3.2587320">
        <ele>851.0</ele>
        <time>2022-08-29T10:16:46Z</time>
      </trkpt>
      <trkpt lat="42.4048280" lon="-3.2587760">
        <ele>851.0</ele>
        <time>2022-08-29T10:16:47Z</time>
      </trkpt>
      <trkpt lat="42.4048120" lon="-3.2588210">
        <ele>851.0</ele>
        <time>2022-08-29T10:16:48Z</time>
      </trkpt>
      <trkpt lat="42.4047970" lon="-3.2588650">
        <ele>851.4</ele>
        <time>2022-08-29T10:16:49Z</time>
      </trkpt>
      <trkpt lat="42.4047820" lon="-3.2589090">
        <ele>851.6</ele>
        <time>2022-08-29T10:16:50Z</time>
      </trkpt>
      <trkpt lat="42.4047730" lon="-3.2589550">
        <ele>851.6</ele>
        <time>2022-08-29T10:16:51Z</time>
      </trkpt>
      <trkpt lat="42.4047650" lon="-3.2590050">
        <ele>851.8</ele>
        <time>2022-08-29T10:16:52Z</time>
      </trkpt>
      <trkpt lat="42.4047620" lon="-3.2590570">
        <ele>851.8</ele>
        <time>2022-08-29T10:16:53Z</time>
      </trkpt>
      <trkpt lat="42.4047630" lon="-3.2591100">
        <ele>851.8</ele>
        <time>2022-08-29T10:16:54Z</time>
      </trkpt>
      <trkpt lat="42.4047660" lon="-3.2591640">
        <ele>851.8</ele>
        <time>2022-08-29T10:16:55Z</time>
      </trkpt>
      <trkpt lat="42.4047710" lon="-3.2592160">
        <ele>852.0</ele>
        <time>2022-08-29T10:16:56Z</time>
      </trkpt>
      <trkpt lat="42.4047840" lon="-3.2592710">
        <ele>852.0</ele>
        <time>2022-08-29T10:16:57Z</time>
      </trkpt>
      <trkpt lat="42.4047960" lon="-3.2593260">
        <ele>852.2</ele>
        <time>2022-08-29T10:16:58Z</time>
      </trkpt>
      <trkpt lat="42.4048100" lon="-3.2593850">
        <ele>852.2</ele>
        <time>2022-08-29T10:16:59Z</time>
      </trkpt>
      <trkpt lat="42.4048200" lon="-3.2594450">
        <ele>852.4</ele>
        <time>2022-08-29T10:17:00Z</time>
      </trkpt>
      <trkpt lat="42.4048250" lon="-3.2595030">
        <ele>852.4</ele>
        <time>2022-08-29T10:17:01Z</time>
      </trkpt>
      <trkpt lat="42.4048270" lon="-3.2595610">
        <ele>852.4</ele>
        <time>2022-08-29T10:17:02Z</time>
      </trkpt>
      <trkpt lat="42.4048260" lon="-3.2596170">
        <ele>852.6</ele>
        <time>2022-08-29T10:17:03Z</time>
      </trkpt>
      <trkpt lat="42.4048220" lon="-3.2596730">
        <ele>852.6</ele>
        <time>2022-08-29T10:17:04Z</time>
      </trkpt>
      <trkpt lat="42.4048190" lon="-3.2597280">
        <ele>852.6</ele>
        <time>2022-08-29T10:17:05Z</time>
      </trkpt>
      <trkpt lat="42.4048150" lon="-3.2597820">
        <ele>852.6</ele>
        <time>2022-08-29T10:17:06Z</time>
      </trkpt>
      <trkpt lat="42.4048080" lon="-3.2598350">
        <ele>852.6</ele>
        <time>2022-08-29T10:17:07Z</time>
      </trkpt>
      <trkpt lat="42.4048000" lon="-3.2598850">
        <ele>852.6</ele>
        <time>2022-08-29T10:17:08Z</time>
      </trkpt>
      <trkpt lat="42.4047940" lon="-3.2599330">
        <ele>852.8</ele>
        <time>2022-08-29T10:17:09Z</time>
      </trkpt>
      <trkpt lat="42.4047880" lon="-3.2599820">
        <ele>853.0</ele>
        <time>2022-08-29T10:17:10Z</time>
      </trkpt>
      <trkpt lat="42.4047810" lon="-3.2600300">
        <ele>853.0</ele>
        <time>2022-08-29T10:17:11Z</time>
      </trkpt>
      <trkpt lat="42.4047730" lon="-3.2600760">
        <ele>853.0</ele>
        <time>2022-08-29T10:17:12Z</time>
      </trkpt>
      <trkpt lat="42.4047650" lon="-3.2601220">
        <ele>853.2</ele>
        <time>2022-08-29T10:17:13Z</time>
      </trkpt>
      <trkpt lat="42.4047620" lon="-3.2601720">
        <ele>853.2</ele>
        <time>2022-08-29T10:17:14Z</time>
      </trkpt>
      <trkpt lat="42.4047540" lon="-3.2602170">
        <ele>853.2</ele>
        <time>2022-08-29T10:17:15Z</time>
      </trkpt>
      <trkpt lat="42.4047460" lon="-3.2602600">
        <ele>853.2</ele>
        <time>2022-08-29T10:17:16Z</time>
      </trkpt>
      <trkpt lat="42.4047390" lon="-3.2603030">
        <ele>853.4</ele>
        <time>2022-08-29T10:17:17Z</time>
      </trkpt>
      <trkpt lat="42.4047300" lon="-3.2603410">
        <ele>853.4</ele>
        <time>2022-08-29T10:17:18Z</time>
      </trkpt>
      <trkpt lat="42.4047220" lon="-3.2603770">
        <ele>853.6</ele>
        <time>2022-08-29T10:17:19Z</time>
      </trkpt>
      <trkpt lat="42.4047160" lon="-3.2604090">
        <ele>853.8</ele>
        <time>2022-08-29T10:17:20Z</time>
      </trkpt>
      <trkpt lat="42.4047110" lon="-3.2604430">
        <ele>853.8</ele>
        <time>2022-08-29T10:17:21Z</time>
      </trkpt>
      <trkpt lat="42.4047080" lon="-3.2604770">
        <ele>854.0</ele>
        <time>2022-08-29T10:17:22Z</time>
      </trkpt>
      <trkpt lat="42.4047040" lon="-3.2605120">
        <ele>854.4</ele>
        <time>2022-08-29T10:17:23Z</time>
      </trkpt>
      <trkpt lat="42.4047000" lon="-3.2605500">
        <ele>854.4</ele>
        <time>2022-08-29T10:17:24Z</time>
      </trkpt>
      <trkpt lat="42.4046930" lon="-3.2605890">
        <ele>854.6</ele>
        <time>2022-08-29T10:17:25Z</time>
      </trkpt>
      <trkpt lat="42.4046880" lon="-3.2606280">
        <ele>854.6</ele>
        <time>2022-08-29T10:17:26Z</time>
      </trkpt>
      <trkpt lat="42.4046840" lon="-3.2606670">
        <ele>854.8</ele>
        <time>2022-08-29T10:17:27Z</time>
      </trkpt>
      <trkpt lat="42.4046820" lon="-3.2607050">
        <ele>854.8</ele>
        <time>2022-08-29T10:17:28Z</time>
      </trkpt>
      <trkpt lat="42.4046790" lon="-3.2607440">
        <ele>854.8</ele>
        <time>2022-08-29T10:17:29Z</time>
      </trkpt>
      <trkpt lat="42.4046750" lon="-3.2607810">
        <ele>854.6</ele>
        <time>2022-08-29T10:17:30Z</time>
      </trkpt>
      <trkpt lat="42.4046720" lon="-3.2608190">
        <ele>854.8</ele>
        <time>2022-08-29T10:17:31Z</time>
      </trkpt>
      <trkpt lat="42.4046710" lon="-3.2608550">
        <ele>854.8</ele>
        <time>2022-08-29T10:17:32Z</time>
      </trkpt>
      <trkpt lat="42.4046700" lon="-3.2608900">
        <ele>854.8</ele>
        <time>2022-08-29T10:17:33Z</time>
      </trkpt>
      <trkpt lat="42.4046690" lon="-3.2609300">
        <ele>854.8</ele>
        <time>2022-08-29T10:17:34Z</time>
      </trkpt>
      <trkpt lat="42.4046700" lon="-3.2609730">
        <ele>854.8</ele>
        <time>2022-08-29T10:17:35Z</time>
      </trkpt>
      <trkpt lat="42.4046690" lon="-3.2610170">
        <ele>855.0</ele>
        <time>2022-08-29T10:17:36Z</time>
      </trkpt>
      <trkpt lat="42.4046710" lon="-3.2610630">
        <ele>854.8</ele>
        <time>2022-08-29T10:17:37Z</time>
      </trkpt>
      <trkpt lat="42.4046750" lon="-3.2611100">
        <ele>854.8</ele>
        <time>2022-08-29T10:17:38Z</time>
      </trkpt>
      <trkpt lat="42.4046790" lon="-3.2611600">
        <ele>854.8</ele>
        <time>2022-08-29T10:17:39Z</time>
      </trkpt>
      <trkpt lat="42.4046790" lon="-3.2612130">
        <ele>854.8</ele>
        <time>2022-08-29T10:17:40Z</time>
      </trkpt>
      <trkpt lat="42.4046690" lon="-3.2612760">
        <ele>854.8</ele>
        <time>2022-08-29T10:17:41Z</time>
      </trkpt>
      <trkpt lat="42.4046520" lon="-3.2613460">
        <ele>855.0</ele>
        <time>2022-08-29T10:17:42Z</time>
      </trkpt>
      <trkpt lat="42.4046290" lon="-3.2614200">
        <ele>855.0</ele>
        <time>2022-08-29T10:17:43Z</time>
      </trkpt>
      <trkpt lat="42.4046010" lon="-3.2614930">
        <ele>854.8</ele>
        <time>2022-08-29T10:17:44Z</time>
      </trkpt>
      <trkpt lat="42.4045680" lon="-3.2615640">
        <ele>854.6</ele>
        <time>2022-08-29T10:17:45Z</time>
      </trkpt>
      <trkpt lat="42.4045340" lon="-3.2616300">
        <ele>854.6</ele>
        <time>2022-08-29T10:17:46Z</time>
      </trkpt>
      <trkpt lat="42.4045030" lon="-3.2616890">
        <ele>854.4</ele>
        <time>2022-08-29T10:17:47Z</time>
      </trkpt>
      <trkpt lat="42.4044720" lon="-3.2617440">
        <ele>854.2</ele>
        <time>2022-08-29T10:17:48Z</time>
      </trkpt>
      <trkpt lat="42.4044460" lon="-3.2617950">
        <ele>854.2</ele>
        <time>2022-08-29T10:17:49Z</time>
      </trkpt>
      <trkpt lat="42.4044280" lon="-3.2618400">
        <ele>853.4</ele>
        <time>2022-08-29T10:17:50Z</time>
      </trkpt>
      <trkpt lat="42.4044240" lon="-3.2618860">
        <ele>852.6</ele>
        <time>2022-08-29T10:17:51Z</time>
      </trkpt>
      <trkpt lat="42.4044320" lon="-3.2619250">
        <ele>851.8</ele>
        <time>2022-08-29T10:17:52Z</time>
      </trkpt>
      <trkpt lat="42.4044410" lon="-3.2619570">
        <ele>851.0</ele>
        <time>2022-08-29T10:17:53Z</time>
      </trkpt>
      <trkpt lat="42.4044540" lon="-3.2619830">
        <ele>850.4</ele>
        <time>2022-08-29T10:17:54Z</time>
      </trkpt>
      <trkpt lat="42.4044640" lon="-3.2620030">
        <ele>850.2</ele>
        <time>2022-08-29T10:17:55Z</time>
      </trkpt>
      <trkpt lat="42.4044760" lon="-3.2620160">
        <ele>850.0</ele>
        <time>2022-08-29T10:17:56Z</time>
      </trkpt>
      <trkpt lat="42.4044900" lon="-3.2620270">
        <ele>850.0</ele>
        <time>2022-08-29T10:17:57Z</time>
      </trkpt>
      <trkpt lat="42.4045050" lon="-3.2620390">
        <ele>850.0</ele>
        <time>2022-08-29T10:17:58Z</time>
      </trkpt>
      <trkpt lat="42.4045130" lon="-3.2620550">
        <ele>850.0</ele>
        <time>2022-08-29T10:17:59Z</time>
      </trkpt>
      <trkpt lat="42.4045100" lon="-3.2620740">
        <ele>850.0</ele>
        <time>2022-08-29T10:18:00Z</time>
      </trkpt>
      <trkpt lat="42.4045020" lon="-3.2620800">
        <ele>850.0</ele>
        <time>2022-08-29T10:18:01Z</time>
      </trkpt>
      <trkpt lat="42.4044940" lon="-3.2620810">
        <ele>850.0</ele>
        <time>2022-08-29T10:18:02Z</time>
      </trkpt>
      <trkpt lat="42.4044880" lon="-3.2620820">
        <ele>850.0</ele>
        <time>2022-08-29T10:18:03Z</time>
      </trkpt>
      <trkpt lat="42.4044860" lon="-3.2620830">
        <ele>850.0</ele>
        <time>2022-08-29T10:18:04Z</time>
      </trkpt>
      <trkpt lat="42.4044830" lon="-3.2620830">
        <ele>850.2</ele>
        <time>2022-08-29T10:18:05Z</time>
      </trkpt>
      <trkpt lat="42.4044810" lon="-3.2620830">
        <ele>850.0</ele>
        <time>2022-08-29T10:18:06Z</time>
      </trkpt>
      <trkpt lat="42.4044800" lon="-3.2620790">
        <ele>850.0</ele>
        <time>2022-08-29T10:18:07Z</time>
      </trkpt>
      <trkpt lat="42.4044800" lon="-3.2620760">
        <ele>850.2</ele>
        <time>2022-08-29T10:18:08Z</time>
      </trkpt>
      <trkpt lat="42.4044810" lon="-3.2620730">
        <ele>850.2</ele>
        <time>2022-08-29T10:18:09Z</time>
      </trkpt>
      <trkpt lat="42.4044810" lon="-3.2620720">
        <ele>850.2</ele>
        <time>2022-08-29T10:18:10Z</time>
      </trkpt>
      <trkpt lat="42.4044820" lon="-3.2620710">
        <ele>850.4</ele>
        <time>2022-08-29T10:18:11Z</time>
      </trkpt>
      <trkpt lat="42.4044830" lon="-3.2620710">
        <ele>850.2</ele>
        <time>2022-08-29T10:18:12Z</time>
      </trkpt>
      <trkpt lat="42.4044830" lon="-3.2620700">
        <ele>850.4</ele>
        <time>2022-08-29T10:18:13Z</time>
      </trkpt>
      <trkpt lat="42.4044830" lon="-3.2620700">
        <ele>850.4</ele>
        <time>2022-08-29T10:18:14Z</time>
      </trkpt>
      <trkpt lat="42.4044820" lon="-3.2620700">
        <ele>850.6</ele>
        <time>2022-08-29T10:18:15Z</time>
      </trkpt>
      <trkpt lat="42.4044820" lon="-3.2620710">
        <ele>850.6</ele>
        <time>2022-08-29T10:18:16Z</time>
      </trkpt>
      <trkpt lat="42.4044820" lon="-3.2620710">
        <ele>850.6</ele>
        <time>2022-08-29T10:18:17Z</time>
      </trkpt>
      <trkpt lat="42.4044820" lon="-3.2620720">
        <ele>850.6</ele>
        <time>2022-08-29T10:18:18Z</time>
      </trkpt>
      <trkpt lat="42.4044820" lon="-3.2620720">
        <ele>850.6</ele>
        <time>2022-08-29T10:18:19Z</time>
      </trkpt>
      <trkpt lat="42.4044820" lon="-3.2620730">
        <ele>850.6</ele>
        <time>2022-08-29T10:18:20Z</time>
      </trkpt>
      <trkpt lat="42.4044830" lon="-3.2620730">
        <ele>850.8</ele>
        <time>2022-08-29T10:18:21Z</time>
      </trkpt>
      <trkpt lat="42.4044830" lon="-3.2620740">
        <ele>850.6</ele>
        <time>2022-08-29T10:18:22Z</time>
      </trkpt>
      <trkpt lat="42.4044830" lon="-3.2620750">
        <ele>850.8</ele>
        <time>2022-08-29T10:18:23Z</time>
      </trkpt>
      <trkpt lat="42.4044850" lon="-3.2620750">
        <ele>850.8</ele>
        <time>2022-08-29T10:18:24Z</time>
      </trkpt>
      <trkpt lat="42.4044850" lon="-3.2620750">
        <ele>850.8</ele>
        <time>2022-08-29T10:18:25Z</time>
      </trkpt>
      <trkpt lat="42.4044850" lon="-3.2620750">
        <ele>850.8</ele>
        <time>2022-08-29T10:18:26Z</time>
      </trkpt>
      <trkpt lat="42.4044850" lon="-3.2620750">
        <ele>850.8</ele>
        <time>2022-08-29T10:18:27Z</time>
      </trkpt>
      <trkpt lat="42.4044860" lon="-3.2620750">
        <ele>850.8</ele>
        <time>2022-08-29T10:18:28Z</time>
      </trkpt>
      <trkpt lat="42.4044860" lon="-3.2620750">
        <ele>850.8</ele>
        <time>2022-08-29T10:18:29Z</time>
      </trkpt>
      <trkpt lat="42.4044860" lon="-3.2620760">
        <ele>850.8</ele>
        <time>2022-08-29T10:18:30Z</time>
      </trkpt>
      <trkpt lat="42.4044860" lon="-3.2620760">
        <ele>850.8</ele>
        <time>2022-08-29T10:18:31Z</time>
      </trkpt>
      <trkpt lat="42.4044850" lon="-3.2620760">
        <ele>850.8</ele>
        <time>2022-08-29T10:18:32Z</time>
      </trkpt>
      <trkpt lat="42.4044850" lon="-3.2620770">
        <ele>850.8</ele>
        <time>2022-08-29T10:18:33Z</time>
      </trkpt>
      <trkpt lat="42.4044850" lon="-3.2620770">
        <ele>851.0</ele>
        <time>2022-08-29T10:18:34Z</time>
      </trkpt>
      <trkpt lat="42.4044850" lon="-3.2620780">
        <ele>851.0</ele>
        <time>2022-08-29T10:18:35Z</time>
      </trkpt>
      <trkpt lat="42.4044850" lon="-3.2620780">
        <ele>851.0</ele>
        <time>2022-08-29T10:18:36Z</time>
      </trkpt>
      <trkpt lat="42.4044850" lon="-3.2620780">
        <ele>851.0</ele>
        <time>2022-08-29T10:18:37Z</time>
      </trkpt>
      <trkpt lat="42.4044840" lon="-3.2620790">
        <ele>851.0</ele>
        <time>2022-08-29T10:18:38Z</time>
      </trkpt>
      <trkpt lat="42.4044840" lon="-3.2620800">
        <ele>851.0</ele>
        <time>2022-08-29T10:18:39Z</time>
      </trkpt>
      <trkpt lat="42.4044840" lon="-3.2620800">
        <ele>851.0</ele>
        <time>2022-08-29T10:18:40Z</time>
      </trkpt>
      <trkpt lat="42.4044830" lon="-3.2620810">
        <ele>851.0</ele>
        <time>2022-08-29T10:18:41Z</time>
      </trkpt>
      <trkpt lat="42.4044830" lon="-3.2620810">
        <ele>851.0</ele>
        <time>2022-08-29T10:18:42Z</time>
      </trkpt>
      <trkpt lat="42.4044830" lon="-3.2620820">
        <ele>851.0</ele>
        <time>2022-08-29T10:18:43Z</time>
      </trkpt>
      <trkpt lat="42.4044830" lon="-3.2620830">
        <ele>851.2</ele>
        <time>2022-08-29T10:18:44Z</time>
      </trkpt>
      <trkpt lat="42.4044820" lon="-3.2620840">
        <ele>851.0</ele>
        <time>2022-08-29T10:18:45Z</time>
      </trkpt>
      <trkpt lat="42.4044820" lon="-3.2620830">
        <ele>851.0</ele>
        <time>2022-08-29T10:18:46Z</time>
      </trkpt>
      <trkpt lat="42.4044820" lon="-3.2620830">
        <ele>851.0</ele>
        <time>2022-08-29T10:18:47Z</time>
      </trkpt>
      <trkpt lat="42.4044820" lon="-3.2620840">
        <ele>851.0</ele>
        <time>2022-08-29T10:18:48Z</time>
      </trkpt>
      <trkpt lat="42.4044830" lon="-3.2620840">
        <ele>851.0</ele>
        <time>2022-08-29T10:18:49Z</time>
      </trkpt>
      <trkpt lat="42.4044830" lon="-3.2620840">
        <ele>851.0</ele>
        <time>2022-08-29T10:18:50Z</time>
      </trkpt>
      <trkpt lat="42.4044830" lon="-3.2620840">
        <ele>851.0</ele>
        <time>2022-08-29T10:18:51Z</time>
      </trkpt>
      <trkpt lat="42.4044830" lon="-3.2620840">
        <ele>851.0</ele>
        <time>2022-08-29T10:18:52Z</time>
      </trkpt>
      <trkpt lat="42.4044830" lon="-3.2620840">
        <ele>851.0</ele>
        <time>2022-08-29T10:18:53Z</time>
      </trkpt>
      <trkpt lat="42.4044830" lon="-3.2620840">
        <ele>851.0</ele>
        <time>2022-08-29T10:18:54Z</time>
      </trkpt>
      <trkpt lat="42.4044830" lon="-3.2620840">
        <ele>851.0</ele>
        <time>2022-08-29T10:18:55Z</time>
      </trkpt>
      <trkpt lat="42.4044830" lon="-3.2620850">
        <ele>851.0</ele>
        <time>2022-08-29T10:18:56Z</time>
      </trkpt>
      <trkpt lat="42.4044830" lon="-3.2620850">
        <ele>851.0</ele>
        <time>2022-08-29T10:18:57Z</time>
      </trkpt>
      <trkpt lat="42.4044830" lon="-3.2620850">
        <ele>850.8</ele>
        <time>2022-08-29T10:18:58Z</time>
      </trkpt>
      <trkpt lat="42.4044830" lon="-3.2620850">
        <ele>851.0</ele>
        <time>2022-08-29T10:18:59Z</time>
      </trkpt>
      <trkpt lat="42.4044830" lon="-3.2620850">
        <ele>850.8</ele>
        <time>2022-08-29T10:19:00Z</time>
      </trkpt>
      <trkpt lat="42.4044840" lon="-3.2620850">
        <ele>850.8</ele>
        <time>2022-08-29T10:19:01Z</time>
      </trkpt>
      <trkpt lat="42.4044840" lon="-3.2620850">
        <ele>850.8</ele>
        <time>2022-08-29T10:19:02Z</time>
      </trkpt>
      <trkpt lat="42.4044840" lon="-3.2620850">
        <ele>850.8</ele>
        <time>2022-08-29T10:19:03Z</time>
      </trkpt>
      <trkpt lat="42.4044840" lon="-3.2620850">
        <ele>850.8</ele>
        <time>2022-08-29T10:19:04Z</time>
      </trkpt>
      <trkpt lat="42.4044840" lon="-3.2620850">
        <ele>850.8</ele>
        <time>2022-08-29T10:19:05Z</time>
      </trkpt>
      <trkpt lat="42.4044840" lon="-3.2620850">
        <ele>850.8</ele>
        <time>2022-08-29T10:19:06Z</time>
      </trkpt>
      <trkpt lat="42.4044840" lon="-3.2620850">
        <ele>850.8</ele>
        <time>2022-08-29T10:19:07Z</time>
      </trkpt>
      <trkpt lat="42.4044840" lon="-3.2620850">
        <ele>850.8</ele>
        <time>2022-08-29T10:19:08Z</time>
      </trkpt>
      <trkpt lat="42.4044840" lon="-3.2620850">
        <ele>851.0</ele>
        <time>2022-08-29T10:19:09Z</time>
      </trkpt>
      <trkpt lat="42.4044840" lon="-3.2620850">
        <ele>851.0</ele>
        <time>2022-08-29T10:19:10Z</time>
      </trkpt>
      <trkpt lat="42.4044840" lon="-3.2620860">
        <ele>851.0</ele>
        <time>2022-08-29T10:19:11Z</time>
      </trkpt>
      <trkpt lat="42.4044840" lon="-3.2620860">
        <ele>851.0</ele>
        <time>2022-08-29T10:19:12Z</time>
      </trkpt>
      <trkpt lat="42.4044840" lon="-3.2620860">
        <ele>851.0</ele>
        <time>2022-08-29T10:19:13Z</time>
      </trkpt>
      <trkpt lat="42.4044840" lon="-3.2620860">
        <ele>851.0</ele>
        <time>2022-08-29T10:19:14Z</time>
      </trkpt>
      <trkpt lat="42.4044840" lon="-3.2620860">
        <ele>851.0</ele>
        <time>2022-08-29T10:19:15Z</time>
      </trkpt>
      <trkpt lat="42.4044840" lon="-3.2620860">
        <ele>851.0</ele>
        <time>2022-08-29T10:19:16Z</time>
      </trkpt>
      <trkpt lat="42.4044840" lon="-3.2620860">
        <ele>851.0</ele>
        <time>2022-08-29T10:19:17Z</time>
      </trkpt>
      <trkpt lat="42.4044840" lon="-3.2620860">
        <ele>851.0</ele>
        <time>2022-08-29T10:19:18Z</time>
      </trkpt>
      <trkpt lat="42.4044840" lon="-3.2620860">
        <ele>851.0</ele>
        <time>2022-08-29T10:19:19Z</time>
      </trkpt>
      <trkpt lat="42.4044840" lon="-3.2620860">
        <ele>851.0</ele>
        <time>2022-08-29T10:19:20Z</time>
      </trkpt>
      <trkpt lat="42.4044840" lon="-3.2620860">
        <ele>851.2</ele>
        <time>2022-08-29T10:19:21Z</time>
      </trkpt>
      <trkpt lat="42.4044850" lon="-3.2620870">
        <ele>851.2</ele>
        <time>2022-08-29T10:19:22Z</time>
      </trkpt>
      <trkpt lat="42.4044850" lon="-3.2620870">
        <ele>851.2</ele>
        <time>2022-08-29T10:19:23Z</time>
      </trkpt>
      <trkpt lat="42.4044850" lon="-3.2620870">
        <ele>851.2</ele>
        <time>2022-08-29T10:19:24Z</time>
      </trkpt>
      <trkpt lat="42.4044850" lon="-3.2620870">
        <ele>851.2</ele>
        <time>2022-08-29T10:19:25Z</time>
      </trkpt>
      <trkpt lat="42.4044850" lon="-3.2620880">
        <ele>851.2</ele>
        <time>2022-08-29T10:19:26Z</time>
      </trkpt>
      <trkpt lat="42.4044850" lon="-3.2620870">
        <ele>851.4</ele>
        <time>2022-08-29T10:19:27Z</time>
      </trkpt>
      <trkpt lat="42.4044850" lon="-3.2620870">
        <ele>851.4</ele>
        <time>2022-08-29T10:19:28Z</time>
      </trkpt>
      <trkpt lat="42.4044850" lon="-3.2620870">
        <ele>851.4</ele>
        <time>2022-08-29T10:19:29Z</time>
      </trkpt>
      <trkpt lat="42.4044850" lon="-3.2620870">
        <ele>851.2</ele>
        <time>2022-08-29T10:19:30Z</time>
      </trkpt>
      <trkpt lat="42.4044850" lon="-3.2620880">
        <ele>851.4</ele>
        <time>2022-08-29T10:19:31Z</time>
      </trkpt>
      <trkpt lat="42.4044850" lon="-3.2620880">
        <ele>851.2</ele>
        <time>2022-08-29T10:19:32Z</time>
      </trkpt>
      <trkpt lat="42.4044850" lon="-3.2620870">
        <ele>851.2</ele>
        <time>2022-08-29T10:19:33Z</time>
      </trkpt>
      <trkpt lat="42.4044850" lon="-3.2620870">
        <ele>851.4</ele>
        <time>2022-08-29T10:19:34Z</time>
      </trkpt>
      <trkpt lat="42.4044850" lon="-3.2620870">
        <ele>851.4</ele>
        <time>2022-08-29T10:19:35Z</time>
      </trkpt>
      <trkpt lat="42.4044850" lon="-3.2620870">
        <ele>851.4</ele>
        <time>2022-08-29T10:19:36Z</time>
      </trkpt>
      <trkpt lat="42.4044850" lon="-3.2620870">
        <ele>851.4</ele>
        <time>2022-08-29T10:19:37Z</time>
      </trkpt>
      <trkpt lat="42.4044850" lon="-3.2620870">
        <ele>851.4</ele>
        <time>2022-08-29T10:19:38Z</time>
      </trkpt>
      <trkpt lat="42.4044850" lon="-3.2620870">
        <ele>851.4</ele>
        <time>2022-08-29T10:19:39Z</time>
      </trkpt>
      <trkpt lat="42.4044850" lon="-3.2620870">
        <ele>851.4</ele>
        <time>2022-08-29T10:19:40Z</time>
      </trkpt>
      <trkpt lat="42.4044850" lon="-3.2620870">
        <ele>851.4</ele>
        <time>2022-08-29T10:19:41Z</time>
      </trkpt>
      <trkpt lat="42.4044840" lon="-3.2620870">
        <ele>851.4</ele>
        <time>2022-08-29T10:19:42Z</time>
      </trkpt>
      <trkpt lat="42.4044840" lon="-3.2620870">
        <ele>851.6</ele>
        <time>2022-08-29T10:19:43Z</time>
      </trkpt>
      <trkpt lat="42.4044840" lon="-3.2620870">
        <ele>851.6</ele>
        <time>2022-08-29T10:19:44Z</time>
      </trkpt>
      <trkpt lat="42.4044840" lon="-3.2620870">
        <ele>851.6</ele>
        <time>2022-08-29T10:19:45Z</time>
      </trkpt>
      <trkpt lat="42.4044840" lon="-3.2620870">
        <ele>851.6</ele>
        <time>2022-08-29T10:19:46Z</time>
      </trkpt>
      <trkpt lat="42.4044840" lon="-3.2620870">
        <ele>851.4</ele>
        <time>2022-08-29T10:19:47Z</time>
      </trkpt>
      <trkpt lat="42.4044840" lon="-3.2620870">
        <ele>851.6</ele>
        <time>2022-08-29T10:19:48Z</time>
      </trkpt>
      <trkpt lat="42.4044840" lon="-3.2620870">
        <ele>851.4</ele>
        <time>2022-08-29T10:19:49Z</time>
      </trkpt>
      <trkpt lat="42.4044840" lon="-3.2620870">
        <ele>851.4</ele>
        <time>2022-08-29T10:19:50Z</time>
      </trkpt>
      <trkpt lat="42.4044840" lon="-3.2620870">
        <ele>851.6</ele>
        <time>2022-08-29T10:19:51Z</time>
      </trkpt>
      <trkpt lat="42.4044840" lon="-3.2620860">
        <ele>851.6</ele>
        <time>2022-08-29T10:19:52Z</time>
      </trkpt>
      <trkpt lat="42.4044840" lon="-3.2620870">
        <ele>851.4</ele>
        <time>2022-08-29T10:19:53Z</time>
      </trkpt>
      <trkpt lat="42.4044840" lon="-3.2620870">
        <ele>851.6</ele>
        <time>2022-08-29T10:19:54Z</time>
      </trkpt>
      <trkpt lat="42.4044840" lon="-3.2620870">
        <ele>851.4</ele>
        <time>2022-08-29T10:19:55Z</time>
      </trkpt>
      <trkpt lat="42.4044830" lon="-3.2620880">
        <ele>851.6</ele>
        <time>2022-08-29T10:19:56Z</time>
      </trkpt>
      <trkpt lat="42.4044840" lon="-3.2620900">
        <ele>851.4</ele>
        <time>2022-08-29T10:19:57Z</time>
      </trkpt>
      <trkpt lat="42.4044840" lon="-3.2620900">
        <ele>851.4</ele>
        <time>2022-08-29T10:19:58Z</time>
      </trkpt>
      <trkpt lat="42.4044840" lon="-3.2620900">
        <ele>851.6</ele>
        <time>2022-08-29T10:19:59Z</time>
      </trkpt>
      <trkpt lat="42.4044840" lon="-3.2620890">
        <ele>851.4</ele>
        <time>2022-08-29T10:20:00Z</time>
      </trkpt>
      <trkpt lat="42.4044830" lon="-3.2620890">
        <ele>851.4</ele>
        <time>2022-08-29T10:20:01Z</time>
      </trkpt>
      <trkpt lat="42.4044820" lon="-3.2620900">
        <ele>851.4</ele>
        <time>2022-08-29T10:20:02Z</time>
      </trkpt>
      <trkpt lat="42.4044820" lon="-3.2620940">
        <ele>851.4</ele>
        <time>2022-08-29T10:20:03Z</time>
      </trkpt>
      <trkpt lat="42.4044800" lon="-3.2621080">
        <ele>851.4</ele>
        <time>2022-08-29T10:20:04Z</time>
      </trkpt>
      <trkpt lat="42.4044800" lon="-3.2621260">
        <ele>851.4</ele>
        <time>2022-08-29T10:20:05Z</time>
      </trkpt>
      <trkpt lat="42.4044830" lon="-3.2621490">
        <ele>851.2</ele>
        <time>2022-08-29T10:20:06Z</time>
      </trkpt>
      <trkpt lat="42.4044910" lon="-3.2621720">
        <ele>851.2</ele>
        <time>2022-08-29T10:20:07Z</time>
      </trkpt>
      <trkpt lat="42.4044990" lon="-3.2621970">
        <ele>851.2</ele>
        <time>2022-08-29T10:20:08Z</time>
      </trkpt>
      <trkpt lat="42.4045080" lon="-3.2622230">
        <ele>851.0</ele>
        <time>2022-08-29T10:20:09Z</time>
      </trkpt>
      <trkpt lat="42.4045180" lon="-3.2622470">
        <ele>851.2</ele>
        <time>2022-08-29T10:20:10Z</time>
      </trkpt>
      <trkpt lat="42.4045260" lon="-3.2622720">
        <ele>851.2</ele>
        <time>2022-08-29T10:20:11Z</time>
      </trkpt>
      <trkpt lat="42.4045420" lon="-3.2623010">
        <ele>851.2</ele>
        <time>2022-08-29T10:20:12Z</time>
      </trkpt>
      <trkpt lat="42.4045560" lon="-3.2623310">
        <ele>851.0</ele>
        <time>2022-08-29T10:20:13Z</time>
      </trkpt>
      <trkpt lat="42.4045680" lon="-3.2623610">
        <ele>851.0</ele>
        <time>2022-08-29T10:20:14Z</time>
      </trkpt>
      <trkpt lat="42.4045790" lon="-3.2623900">
        <ele>851.0</ele>
        <time>2022-08-29T10:20:15Z</time>
      </trkpt>
      <trkpt lat="42.4045960" lon="-3.2624240">
        <ele>851.0</ele>
        <time>2022-08-29T10:20:16Z</time>
      </trkpt>
      <trkpt lat="42.4046110" lon="-3.2624560">
        <ele>850.8</ele>
        <time>2022-08-29T10:20:17Z</time>
      </trkpt>
      <trkpt lat="42.4046300" lon="-3.2624890">
        <ele>850.8</ele>
        <time>2022-08-29T10:20:18Z</time>
      </trkpt>
      <trkpt lat="42.4046520" lon="-3.2625250">
        <ele>850.6</ele>
        <time>2022-08-29T10:20:19Z</time>
      </trkpt>
      <trkpt lat="42.4046710" lon="-3.2625640">
        <ele>850.6</ele>
        <time>2022-08-29T10:20:20Z</time>
      </trkpt>
      <trkpt lat="42.4046900" lon="-3.2626130">
        <ele>850.6</ele>
        <time>2022-08-29T10:20:21Z</time>
      </trkpt>
      <trkpt lat="42.4047040" lon="-3.2626650">
        <ele>850.6</ele>
        <time>2022-08-29T10:20:22Z</time>
      </trkpt>
      <trkpt lat="42.4047140" lon="-3.2627080">
        <ele>850.6</ele>
        <time>2022-08-29T10:20:23Z</time>
      </trkpt>
      <trkpt lat="42.4047210" lon="-3.2627550">
        <ele>850.4</ele>
        <time>2022-08-29T10:20:24Z</time>
      </trkpt>
      <trkpt lat="42.4047280" lon="-3.2627990">
        <ele>850.4</ele>
        <time>2022-08-29T10:20:25Z</time>
      </trkpt>
      <trkpt lat="42.4047390" lon="-3.2628450">
        <ele>850.6</ele>
        <time>2022-08-29T10:20:26Z</time>
      </trkpt>
      <trkpt lat="42.4047510" lon="-3.2628910">
        <ele>850.4</ele>
        <time>2022-08-29T10:20:27Z</time>
      </trkpt>
      <trkpt lat="42.4047620" lon="-3.2629370">
        <ele>850.4</ele>
        <time>2022-08-29T10:20:28Z</time>
      </trkpt>
      <trkpt lat="42.4047710" lon="-3.2629850">
        <ele>850.4</ele>
        <time>2022-08-29T10:20:29Z</time>
      </trkpt>
      <trkpt lat="42.4047770" lon="-3.2630240">
        <ele>850.4</ele>
        <time>2022-08-29T10:20:30Z</time>
      </trkpt>
      <trkpt lat="42.4047840" lon="-3.2630600">
        <ele>850.2</ele>
        <time>2022-08-29T10:20:31Z</time>
      </trkpt>
      <trkpt lat="42.4047920" lon="-3.2630920">
        <ele>850.0</ele>
        <time>2022-08-29T10:20:32Z</time>
      </trkpt>
      <trkpt lat="42.4047950" lon="-3.2631270">
        <ele>850.0</ele>
        <time>2022-08-29T10:20:33Z</time>
      </trkpt>
      <trkpt lat="42.4047960" lon="-3.2631620">
        <ele>849.8</ele>
        <time>2022-08-29T10:20:34Z</time>
      </trkpt>
      <trkpt lat="42.4048020" lon="-3.2631940">
        <ele>849.6</ele>
        <time>2022-08-29T10:20:35Z</time>
      </trkpt>
      <trkpt lat="42.4048050" lon="-3.2632280">
        <ele>849.2</ele>
        <time>2022-08-29T10:20:36Z</time>
      </trkpt>
      <trkpt lat="42.4048070" lon="-3.2632640">
        <ele>849.2</ele>
        <time>2022-08-29T10:20:37Z</time>
      </trkpt>
      <trkpt lat="42.4048110" lon="-3.2633050">
        <ele>849.0</ele>
        <time>2022-08-29T10:20:38Z</time>
      </trkpt>
      <trkpt lat="42.4048200" lon="-3.2633440">
        <ele>848.8</ele>
        <time>2022-08-29T10:20:39Z</time>
      </trkpt>
      <trkpt lat="42.4048260" lon="-3.2633780">
        <ele>849.0</ele>
        <time>2022-08-29T10:20:40Z</time>
      </trkpt>
      <trkpt lat="42.4048310" lon="-3.2634150">
        <ele>848.6</ele>
        <time>2022-08-29T10:20:41Z</time>
      </trkpt>
      <trkpt lat="42.4048330" lon="-3.2634510">
        <ele>848.6</ele>
        <time>2022-08-29T10:20:42Z</time>
      </trkpt>
      <trkpt lat="42.4048320" lon="-3.2634850">
        <ele>848.6</ele>
        <time>2022-08-29T10:20:43Z</time>
      </trkpt>
      <trkpt lat="42.4048290" lon="-3.2635170">
        <ele>848.4</ele>
        <time>2022-08-29T10:20:44Z</time>
      </trkpt>
      <trkpt lat="42.4048230" lon="-3.2635500">
        <ele>848.4</ele>
        <time>2022-08-29T10:20:45Z</time>
      </trkpt>
      <trkpt lat="42.4048120" lon="-3.2635800">
        <ele>848.4</ele>
        <time>2022-08-29T10:20:46Z</time>
      </trkpt>
      <trkpt lat="42.4048040" lon="-3.2636170">
        <ele>848.2</ele>
        <time>2022-08-29T10:20:47Z</time>
      </trkpt>
      <trkpt lat="42.4047970" lon="-3.2636560">
        <ele>848.4</ele>
        <time>2022-08-29T10:20:48Z</time>
      </trkpt>
      <trkpt lat="42.4047850" lon="-3.2636960">
        <ele>848.4</ele>
        <time>2022-08-29T10:20:49Z</time>
      </trkpt>
      <trkpt lat="42.4047710" lon="-3.2637350">
        <ele>848.2</ele>
        <time>2022-08-29T10:20:50Z</time>
      </trkpt>
      <trkpt lat="42.4047560" lon="-3.2637740">
        <ele>848.4</ele>
        <time>2022-08-29T10:20:51Z</time>
      </trkpt>
      <trkpt lat="42.4047400" lon="-3.2638110">
        <ele>848.4</ele>
        <time>2022-08-29T10:20:52Z</time>
      </trkpt>
      <trkpt lat="42.4047240" lon="-3.2638460">
        <ele>848.4</ele>
        <time>2022-08-29T10:20:53Z</time>
      </trkpt>
      <trkpt lat="42.4047040" lon="-3.2638770">
        <ele>848.4</ele>
        <time>2022-08-29T10:20:54Z</time>
      </trkpt>
      <trkpt lat="42.4046850" lon="-3.2639070">
        <ele>848.4</ele>
        <time>2022-08-29T10:20:55Z</time>
      </trkpt>
      <trkpt lat="42.4046690" lon="-3.2639370">
        <ele>848.2</ele>
        <time>2022-08-29T10:20:56Z</time>
      </trkpt>
      <trkpt lat="42.4046530" lon="-3.2639670">
        <ele>848.4</ele>
        <time>2022-08-29T10:20:57Z</time>
      </trkpt>
      <trkpt lat="42.4046370" lon="-3.2639970">
        <ele>848.6</ele>
        <time>2022-08-29T10:20:58Z</time>
      </trkpt>
      <trkpt lat="42.4046200" lon="-3.2640260">
        <ele>848.6</ele>
        <time>2022-08-29T10:20:59Z</time>
      </trkpt>
      <trkpt lat="42.4046050" lon="-3.2640570">
        <ele>848.8</ele>
        <time>2022-08-29T10:21:00Z</time>
      </trkpt>
      <trkpt lat="42.4045890" lon="-3.2640890">
        <ele>848.8</ele>
        <time>2022-08-29T10:21:01Z</time>
      </trkpt>
      <trkpt lat="42.4045740" lon="-3.2641200">
        <ele>849.0</ele>
        <time>2022-08-29T10:21:02Z</time>
      </trkpt>
      <trkpt lat="42.4045580" lon="-3.2641500">
        <ele>849.0</ele>
        <time>2022-08-29T10:21:03Z</time>
      </trkpt>
      <trkpt lat="42.4045360" lon="-3.2641760">
        <ele>849.2</ele>
        <time>2022-08-29T10:21:04Z</time>
      </trkpt>
      <trkpt lat="42.4045190" lon="-3.2642050">
        <ele>849.6</ele>
        <time>2022-08-29T10:21:05Z</time>
      </trkpt>
      <trkpt lat="42.4045030" lon="-3.2642350">
        <ele>849.6</ele>
        <time>2022-08-29T10:21:06Z</time>
      </trkpt>
      <trkpt lat="42.4044860" lon="-3.2642640">
        <ele>849.6</ele>
        <time>2022-08-29T10:21:07Z</time>
      </trkpt>
      <trkpt lat="42.4044720" lon="-3.2642970">
        <ele>849.8</ele>
        <time>2022-08-29T10:21:08Z</time>
      </trkpt>
      <trkpt lat="42.4044700" lon="-3.2643370">
        <ele>850.0</ele>
        <time>2022-08-29T10:21:09Z</time>
      </trkpt>
      <trkpt lat="42.4044630" lon="-3.2643750">
        <ele>850.2</ele>
        <time>2022-08-29T10:21:10Z</time>
      </trkpt>
      <trkpt lat="42.4044640" lon="-3.2644180">
        <ele>850.4</ele>
        <time>2022-08-29T10:21:11Z</time>
      </trkpt>
      <trkpt lat="42.4044720" lon="-3.2644640">
        <ele>850.4</ele>
        <time>2022-08-29T10:21:12Z</time>
      </trkpt>
      <trkpt lat="42.4044840" lon="-3.2645070">
        <ele>850.4</ele>
        <time>2022-08-29T10:21:13Z</time>
      </trkpt>
      <trkpt lat="42.4044970" lon="-3.2645490">
        <ele>850.8</ele>
        <time>2022-08-29T10:21:14Z</time>
      </trkpt>
      <trkpt lat="42.4045050" lon="-3.2645880">
        <ele>850.8</ele>
        <time>2022-08-29T10:21:15Z</time>
      </trkpt>
      <trkpt lat="42.4045190" lon="-3.2646260">
        <ele>850.8</ele>
        <time>2022-08-29T10:21:16Z</time>
      </trkpt>
      <trkpt lat="42.4045320" lon="-3.2646630">
        <ele>850.8</ele>
        <time>2022-08-29T10:21:17Z</time>
      </trkpt>
      <trkpt lat="42.4045440" lon="-3.2647010">
        <ele>850.8</ele>
        <time>2022-08-29T10:21:18Z</time>
      </trkpt>
      <trkpt lat="42.4045560" lon="-3.2647410">
        <ele>850.8</ele>
        <time>2022-08-29T10:21:19Z</time>
      </trkpt>
      <trkpt lat="42.4045680" lon="-3.2647800">
        <ele>851.0</ele>
        <time>2022-08-29T10:21:20Z</time>
      </trkpt>
      <trkpt lat="42.4045780" lon="-3.2648200">
        <ele>851.0</ele>
        <time>2022-08-29T10:21:21Z</time>
      </trkpt>
      <trkpt lat="42.4045880" lon="-3.2648590">
        <ele>851.0</ele>
        <time>2022-08-29T10:21:22Z</time>
      </trkpt>
      <trkpt lat="42.4045970" lon="-3.2649010">
        <ele>851.2</ele>
        <time>2022-08-29T10:21:23Z</time>
      </trkpt>
      <trkpt lat="42.4046050" lon="-3.2649420">
        <ele>851.2</ele>
        <time>2022-08-29T10:21:24Z</time>
      </trkpt>
      <trkpt lat="42.4046150" lon="-3.2649830">
        <ele>851.4</ele>
        <time>2022-08-29T10:21:25Z</time>
      </trkpt>
      <trkpt lat="42.4046240" lon="-3.2650240">
        <ele>851.4</ele>
        <time>2022-08-29T10:21:26Z</time>
      </trkpt>
      <trkpt lat="42.4046300" lon="-3.2650660">
        <ele>851.6</ele>
        <time>2022-08-29T10:21:27Z</time>
      </trkpt>
      <trkpt lat="42.4046340" lon="-3.2651100">
        <ele>851.6</ele>
        <time>2022-08-29T10:21:28Z</time>
      </trkpt>
      <trkpt lat="42.4046380" lon="-3.2651550">
        <ele>851.8</ele>
        <time>2022-08-29T10:21:29Z</time>
      </trkpt>
      <trkpt lat="42.4046410" lon="-3.2652000">
        <ele>851.8</ele>
        <time>2022-08-29T10:21:30Z</time>
      </trkpt>
      <trkpt lat="42.4046450" lon="-3.2652470">
        <ele>851.8</ele>
        <time>2022-08-29T10:21:31Z</time>
      </trkpt>
      <trkpt lat="42.4046450" lon="-3.2652920">
        <ele>852.0</ele>
        <time>2022-08-29T10:21:32Z</time>
      </trkpt>
      <trkpt lat="42.4046470" lon="-3.2653380">
        <ele>852.2</ele>
        <time>2022-08-29T10:21:33Z</time>
      </trkpt>
      <trkpt lat="42.4046490" lon="-3.2653830">
        <ele>852.2</ele>
        <time>2022-08-29T10:21:34Z</time>
      </trkpt>
      <trkpt lat="42.4046530" lon="-3.2654310">
        <ele>852.2</ele>
        <time>2022-08-29T10:21:35Z</time>
      </trkpt>
      <trkpt lat="42.4046560" lon="-3.2654780">
        <ele>852.4</ele>
        <time>2022-08-29T10:21:36Z</time>
      </trkpt>
      <trkpt lat="42.4046570" lon="-3.2655250">
        <ele>852.4</ele>
        <time>2022-08-29T10:21:37Z</time>
      </trkpt>
      <trkpt lat="42.4046600" lon="-3.2655730">
        <ele>852.8</ele>
        <time>2022-08-29T10:21:38Z</time>
      </trkpt>
      <trkpt lat="42.4046620" lon="-3.2656210">
        <ele>852.8</ele>
        <time>2022-08-29T10:21:39Z</time>
      </trkpt>
      <trkpt lat="42.4046660" lon="-3.2656680">
        <ele>853.0</ele>
        <time>2022-08-29T10:21:40Z</time>
      </trkpt>
      <trkpt lat="42.4046680" lon="-3.2657160">
        <ele>853.2</ele>
        <time>2022-08-29T10:21:41Z</time>
      </trkpt>
      <trkpt lat="42.4046700" lon="-3.2657630">
        <ele>853.2</ele>
        <time>2022-08-29T10:21:42Z</time>
      </trkpt>
      <trkpt lat="42.4046730" lon="-3.2658110">
        <ele>853.4</ele>
        <time>2022-08-29T10:21:43Z</time>
      </trkpt>
      <trkpt lat="42.4046740" lon="-3.2658580">
        <ele>853.4</ele>
        <time>2022-08-29T10:21:44Z</time>
      </trkpt>
      <trkpt lat="42.4046720" lon="-3.2659060">
        <ele>853.4</ele>
        <time>2022-08-29T10:21:45Z</time>
      </trkpt>
      <trkpt lat="42.4046700" lon="-3.2659540">
        <ele>853.4</ele>
        <time>2022-08-29T10:21:46Z</time>
      </trkpt>
      <trkpt lat="42.4046710" lon="-3.2660010">
        <ele>853.4</ele>
        <time>2022-08-29T10:21:47Z</time>
      </trkpt>
      <trkpt lat="42.4046740" lon="-3.2660450">
        <ele>853.4</ele>
        <time>2022-08-29T10:21:48Z</time>
      </trkpt>
      <trkpt lat="42.4046760" lon="-3.2660890">
        <ele>853.6</ele>
        <time>2022-08-29T10:21:49Z</time>
      </trkpt>
      <trkpt lat="42.4046760" lon="-3.2661330">
        <ele>853.4</ele>
        <time>2022-08-29T10:21:50Z</time>
      </trkpt>
      <trkpt lat="42.4046760" lon="-3.2661780">
        <ele>853.8</ele>
        <time>2022-08-29T10:21:51Z</time>
      </trkpt>
      <trkpt lat="42.4046730" lon="-3.2662220">
        <ele>854.0</ele>
        <time>2022-08-29T10:21:52Z</time>
      </trkpt>
      <trkpt lat="42.4046660" lon="-3.2662640">
        <ele>854.0</ele>
        <time>2022-08-29T10:21:53Z</time>
      </trkpt>
      <trkpt lat="42.4046630" lon="-3.2663090">
        <ele>854.0</ele>
        <time>2022-08-29T10:21:54Z</time>
      </trkpt>
      <trkpt lat="42.4046630" lon="-3.2663530">
        <ele>854.2</ele>
        <time>2022-08-29T10:21:55Z</time>
      </trkpt>
      <trkpt lat="42.4046610" lon="-3.2663950">
        <ele>854.2</ele>
        <time>2022-08-29T10:21:56Z</time>
      </trkpt>
      <trkpt lat="42.4046590" lon="-3.2664390">
        <ele>854.6</ele>
        <time>2022-08-29T10:21:57Z</time>
      </trkpt>
      <trkpt lat="42.4046570" lon="-3.2664820">
        <ele>854.6</ele>
        <time>2022-08-29T10:21:58Z</time>
      </trkpt>
      <trkpt lat="42.4046570" lon="-3.2665250">
        <ele>854.8</ele>
        <time>2022-08-29T10:21:59Z</time>
      </trkpt>
      <trkpt lat="42.4046570" lon="-3.2665660">
        <ele>854.8</ele>
        <time>2022-08-29T10:22:00Z</time>
      </trkpt>
      <trkpt lat="42.4046550" lon="-3.2666070">
        <ele>855.0</ele>
        <time>2022-08-29T10:22:01Z</time>
      </trkpt>
      <trkpt lat="42.4046550" lon="-3.2666450">
        <ele>855.2</ele>
        <time>2022-08-29T10:22:02Z</time>
      </trkpt>
      <trkpt lat="42.4046530" lon="-3.2666810">
        <ele>855.2</ele>
        <time>2022-08-29T10:22:03Z</time>
      </trkpt>
      <trkpt lat="42.4046460" lon="-3.2667160">
        <ele>855.4</ele>
        <time>2022-08-29T10:22:04Z</time>
      </trkpt>
      <trkpt lat="42.4046450" lon="-3.2667560">
        <ele>855.6</ele>
        <time>2022-08-29T10:22:05Z</time>
      </trkpt>
      <trkpt lat="42.4046460" lon="-3.2667960">
        <ele>855.6</ele>
        <time>2022-08-29T10:22:06Z</time>
      </trkpt>
      <trkpt lat="42.4046490" lon="-3.2668330">
        <ele>855.8</ele>
        <time>2022-08-29T10:22:07Z</time>
      </trkpt>
      <trkpt lat="42.4046510" lon="-3.2668710">
        <ele>855.8</ele>
        <time>2022-08-29T10:22:08Z</time>
      </trkpt>
      <trkpt lat="42.4046530" lon="-3.2669080">
        <ele>856.0</ele>
        <time>2022-08-29T10:22:09Z</time>
      </trkpt>
      <trkpt lat="42.4046530" lon="-3.2669440">
        <ele>856.0</ele>
        <time>2022-08-29T10:22:10Z</time>
      </trkpt>
      <trkpt lat="42.4046530" lon="-3.2669800">
        <ele>856.0</ele>
        <time>2022-08-29T10:22:11Z</time>
      </trkpt>
      <trkpt lat="42.4046540" lon="-3.2670180">
        <ele>856.2</ele>
        <time>2022-08-29T10:22:12Z</time>
      </trkpt>
      <trkpt lat="42.4046540" lon="-3.2670560">
        <ele>856.0</ele>
        <time>2022-08-29T10:22:13Z</time>
      </trkpt>
      <trkpt lat="42.4046550" lon="-3.2670930">
        <ele>856.4</ele>
        <time>2022-08-29T10:22:14Z</time>
      </trkpt>
      <trkpt lat="42.4046570" lon="-3.2671280">
        <ele>856.4</ele>
        <time>2022-08-29T10:22:15Z</time>
      </trkpt>
      <trkpt lat="42.4046590" lon="-3.2671640">
        <ele>856.6</ele>
        <time>2022-08-29T10:22:16Z</time>
      </trkpt>
      <trkpt lat="42.4046610" lon="-3.2672010">
        <ele>856.6</ele>
        <time>2022-08-29T10:22:17Z</time>
      </trkpt>
      <trkpt lat="42.4046620" lon="-3.2672410">
        <ele>857.0</ele>
        <time>2022-08-29T10:22:18Z</time>
      </trkpt>
      <trkpt lat="42.4046630" lon="-3.2672790">
        <ele>857.0</ele>
        <time>2022-08-29T10:22:19Z</time>
      </trkpt>
      <trkpt lat="42.4046630" lon="-3.2673180">
        <ele>857.2</ele>
        <time>2022-08-29T10:22:20Z</time>
      </trkpt>
      <trkpt lat="42.4046630" lon="-3.2673570">
        <ele>857.4</ele>
        <time>2022-08-29T10:22:21Z</time>
      </trkpt>
      <trkpt lat="42.4046640" lon="-3.2673960">
        <ele>857.6</ele>
        <time>2022-08-29T10:22:22Z</time>
      </trkpt>
      <trkpt lat="42.4046620" lon="-3.2674360">
        <ele>857.6</ele>
        <time>2022-08-29T10:22:23Z</time>
      </trkpt>
      <trkpt lat="42.4046610" lon="-3.2674760">
        <ele>857.6</ele>
        <time>2022-08-29T10:22:24Z</time>
      </trkpt>
      <trkpt lat="42.4046610" lon="-3.2675180">
        <ele>857.4</ele>
        <time>2022-08-29T10:22:25Z</time>
      </trkpt>
      <trkpt lat="42.4046610" lon="-3.2675590">
        <ele>857.6</ele>
        <time>2022-08-29T10:22:26Z</time>
      </trkpt>
      <trkpt lat="42.4046590" lon="-3.2676000">
        <ele>857.6</ele>
        <time>2022-08-29T10:22:27Z</time>
      </trkpt>
      <trkpt lat="42.4046580" lon="-3.2676420">
        <ele>857.8</ele>
        <time>2022-08-29T10:22:28Z</time>
      </trkpt>
      <trkpt lat="42.4046580" lon="-3.2676850">
        <ele>857.8</ele>
        <time>2022-08-29T10:22:29Z</time>
      </trkpt>
      <trkpt lat="42.4046570" lon="-3.2677290">
        <ele>858.0</ele>
        <time>2022-08-29T10:22:30Z</time>
      </trkpt>
      <trkpt lat="42.4046580" lon="-3.2677720">
        <ele>858.0</ele>
        <time>2022-08-29T10:22:31Z</time>
      </trkpt>
      <trkpt lat="42.4046560" lon="-3.2678150">
        <ele>858.0</ele>
        <time>2022-08-29T10:22:32Z</time>
      </trkpt>
      <trkpt lat="42.4046560" lon="-3.2678610">
        <ele>858.0</ele>
        <time>2022-08-29T10:22:33Z</time>
      </trkpt>
      <trkpt lat="42.4046560" lon="-3.2679070">
        <ele>858.0</ele>
        <time>2022-08-29T10:22:34Z</time>
      </trkpt>
      <trkpt lat="42.4046550" lon="-3.2679510">
        <ele>858.0</ele>
        <time>2022-08-29T10:22:35Z</time>
      </trkpt>
      <trkpt lat="42.4046540" lon="-3.2679940">
        <ele>858.2</ele>
        <time>2022-08-29T10:22:36Z</time>
      </trkpt>
      <trkpt lat="42.4046530" lon="-3.2680380">
        <ele>858.0</ele>
        <time>2022-08-29T10:22:37Z</time>
      </trkpt>
      <trkpt lat="42.4046560" lon="-3.2680840">
        <ele>858.2</ele>
        <time>2022-08-29T10:22:38Z</time>
      </trkpt>
      <trkpt lat="42.4046580" lon="-3.2681290">
        <ele>858.2</ele>
        <time>2022-08-29T10:22:39Z</time>
      </trkpt>
      <trkpt lat="42.4046590" lon="-3.2681730">
        <ele>858.2</ele>
        <time>2022-08-29T10:22:40Z</time>
      </trkpt>
      <trkpt lat="42.4046610" lon="-3.2682190">
        <ele>858.2</ele>
        <time>2022-08-29T10:22:41Z</time>
      </trkpt>
      <trkpt lat="42.4046620" lon="-3.2682640">
        <ele>858.4</ele>
        <time>2022-08-29T10:22:42Z</time>
      </trkpt>
      <trkpt lat="42.4046630" lon="-3.2683090">
        <ele>858.2</ele>
        <time>2022-08-29T10:22:43Z</time>
      </trkpt>
      <trkpt lat="42.4046670" lon="-3.2683530">
        <ele>858.2</ele>
        <time>2022-08-29T10:22:44Z</time>
      </trkpt>
      <trkpt lat="42.4046680" lon="-3.2683990">
        <ele>858.2</ele>
        <time>2022-08-29T10:22:45Z</time>
      </trkpt>
      <trkpt lat="42.4046680" lon="-3.2684440">
        <ele>858.2</ele>
        <time>2022-08-29T10:22:46Z</time>
      </trkpt>
      <trkpt lat="42.4046670" lon="-3.2684880">
        <ele>858.2</ele>
        <time>2022-08-29T10:22:47Z</time>
      </trkpt>
      <trkpt lat="42.4046680" lon="-3.2685310">
        <ele>858.2</ele>
        <time>2022-08-29T10:22:48Z</time>
      </trkpt>
      <trkpt lat="42.4046690" lon="-3.2685760">
        <ele>858.4</ele>
        <time>2022-08-29T10:22:49Z</time>
      </trkpt>
      <trkpt lat="42.4046700" lon="-3.2686200">
        <ele>858.6</ele>
        <time>2022-08-29T10:22:50Z</time>
      </trkpt>
      <trkpt lat="42.4046700" lon="-3.2686650">
        <ele>858.8</ele>
        <time>2022-08-29T10:22:51Z</time>
      </trkpt>
      <trkpt lat="42.4046720" lon="-3.2687100">
        <ele>858.8</ele>
        <time>2022-08-29T10:22:52Z</time>
      </trkpt>
      <trkpt lat="42.4046720" lon="-3.2687540">
        <ele>859.0</ele>
        <time>2022-08-29T10:22:53Z</time>
      </trkpt>
      <trkpt lat="42.4046730" lon="-3.2687990">
        <ele>859.0</ele>
        <time>2022-08-29T10:22:54Z</time>
      </trkpt>
      <trkpt lat="42.4046730" lon="-3.2688440">
        <ele>859.0</ele>
        <time>2022-08-29T10:22:55Z</time>
      </trkpt>
      <trkpt lat="42.4046740" lon="-3.2688890">
        <ele>859.0</ele>
        <time>2022-08-29T10:22:56Z</time>
      </trkpt>
      <trkpt lat="42.4046740" lon="-3.2689340">
        <ele>859.2</ele>
        <time>2022-08-29T10:22:57Z</time>
      </trkpt>
      <trkpt lat="42.4046730" lon="-3.2689800">
        <ele>859.2</ele>
        <time>2022-08-29T10:22:58Z</time>
      </trkpt>
      <trkpt lat="42.4046740" lon="-3.2690260">
        <ele>859.2</ele>
        <time>2022-08-29T10:22:59Z</time>
      </trkpt>
      <trkpt lat="42.4046750" lon="-3.2690720">
        <ele>859.2</ele>
        <time>2022-08-29T10:23:00Z</time>
      </trkpt>
      <trkpt lat="42.4046750" lon="-3.2691180">
        <ele>859.2</ele>
        <time>2022-08-29T10:23:01Z</time>
      </trkpt>
      <trkpt lat="42.4046760" lon="-3.2691640">
        <ele>859.2</ele>
        <time>2022-08-29T10:23:02Z</time>
      </trkpt>
      <trkpt lat="42.4046770" lon="-3.2692100">
        <ele>859.2</ele>
        <time>2022-08-29T10:23:03Z</time>
      </trkpt>
      <trkpt lat="42.4046770" lon="-3.2692560">
        <ele>859.2</ele>
        <time>2022-08-29T10:23:04Z</time>
      </trkpt>
      <trkpt lat="42.4046770" lon="-3.2693030">
        <ele>859.2</ele>
        <time>2022-08-29T10:23:05Z</time>
      </trkpt>
      <trkpt lat="42.4046770" lon="-3.2693490">
        <ele>859.4</ele>
        <time>2022-08-29T10:23:06Z</time>
      </trkpt>
      <trkpt lat="42.4046770" lon="-3.2693940">
        <ele>859.2</ele>
        <time>2022-08-29T10:23:07Z</time>
      </trkpt>
      <trkpt lat="42.4046770" lon="-3.2694390">
        <ele>859.2</ele>
        <time>2022-08-29T10:23:08Z</time>
      </trkpt>
      <trkpt lat="42.4046770" lon="-3.2694840">
        <ele>859.4</ele>
        <time>2022-08-29T10:23:09Z</time>
      </trkpt>
      <trkpt lat="42.4046780" lon="-3.2695280">
        <ele>859.2</ele>
        <time>2022-08-29T10:23:10Z</time>
      </trkpt>
      <trkpt lat="42.4046780" lon="-3.2695710">
        <ele>859.2</ele>
        <time>2022-08-29T10:23:11Z</time>
      </trkpt>
      <trkpt lat="42.4046770" lon="-3.2696130">
        <ele>859.4</ele>
        <time>2022-08-29T10:23:12Z</time>
      </trkpt>
      <trkpt lat="42.4046760" lon="-3.2696540">
        <ele>859.2</ele>
        <time>2022-08-29T10:23:13Z</time>
      </trkpt>
      <trkpt lat="42.4046770" lon="-3.2696950">
        <ele>859.4</ele>
        <time>2022-08-29T10:23:14Z</time>
      </trkpt>
      <trkpt lat="42.4046790" lon="-3.2697350">
        <ele>859.2</ele>
        <time>2022-08-29T10:23:15Z</time>
      </trkpt>
      <trkpt lat="42.4046810" lon="-3.2697760">
        <ele>859.4</ele>
        <time>2022-08-29T10:23:16Z</time>
      </trkpt>
      <trkpt lat="42.4046820" lon="-3.2698180">
        <ele>859.4</ele>
        <time>2022-08-29T10:23:17Z</time>
      </trkpt>
      <trkpt lat="42.4046820" lon="-3.2698600">
        <ele>859.4</ele>
        <time>2022-08-29T10:23:18Z</time>
      </trkpt>
      <trkpt lat="42.4046830" lon="-3.2699020">
        <ele>859.6</ele>
        <time>2022-08-29T10:23:19Z</time>
      </trkpt>
      <trkpt lat="42.4046850" lon="-3.2699440">
        <ele>859.6</ele>
        <time>2022-08-29T10:23:20Z</time>
      </trkpt>
      <trkpt lat="42.4046850" lon="-3.2699860">
        <ele>859.6</ele>
        <time>2022-08-29T10:23:21Z</time>
      </trkpt>
      <trkpt lat="42.4046850" lon="-3.2700270">
        <ele>859.8</ele>
        <time>2022-08-29T10:23:22Z</time>
      </trkpt>
      <trkpt lat="42.4046860" lon="-3.2700670">
        <ele>859.8</ele>
        <time>2022-08-29T10:23:23Z</time>
      </trkpt>
      <trkpt lat="42.4046850" lon="-3.2701050">
        <ele>859.8</ele>
        <time>2022-08-29T10:23:24Z</time>
      </trkpt>
      <trkpt lat="42.4046850" lon="-3.2701420">
        <ele>860.0</ele>
        <time>2022-08-29T10:23:25Z</time>
      </trkpt>
      <trkpt lat="42.4046850" lon="-3.2701790">
        <ele>860.2</ele>
        <time>2022-08-29T10:23:26Z</time>
      </trkpt>
      <trkpt lat="42.4046860" lon="-3.2702140">
        <ele>860.4</ele>
        <time>2022-08-29T10:23:27Z</time>
      </trkpt>
      <trkpt lat="42.4046870" lon="-3.2702460">
        <ele>860.4</ele>
        <time>2022-08-29T10:23:28Z</time>
      </trkpt>
      <trkpt lat="42.4046860" lon="-3.2702750">
        <ele>860.6</ele>
        <time>2022-08-29T10:23:29Z</time>
      </trkpt>
      <trkpt lat="42.4046830" lon="-3.2703040">
        <ele>860.6</ele>
        <time>2022-08-29T10:23:30Z</time>
      </trkpt>
      <trkpt lat="42.4046790" lon="-3.2703350">
        <ele>860.6</ele>
        <time>2022-08-29T10:23:31Z</time>
      </trkpt>
      <trkpt lat="42.4046750" lon="-3.2703690">
        <ele>861.0</ele>
        <time>2022-08-29T10:23:32Z</time>
      </trkpt>
      <trkpt lat="42.4046750" lon="-3.2704030">
        <ele>861.0</ele>
        <time>2022-08-29T10:23:33Z</time>
      </trkpt>
      <trkpt lat="42.4046770" lon="-3.2704350">
        <ele>861.2</ele>
        <time>2022-08-29T10:23:34Z</time>
      </trkpt>
      <trkpt lat="42.4046780" lon="-3.2704650">
        <ele>861.4</ele>
        <time>2022-08-29T10:23:35Z</time>
      </trkpt>
      <trkpt lat="42.4046780" lon="-3.2704950">
        <ele>861.4</ele>
        <time>2022-08-29T10:23:36Z</time>
      </trkpt>
      <trkpt lat="42.4046790" lon="-3.2705260">
        <ele>861.6</ele>
        <time>2022-08-29T10:23:37Z</time>
      </trkpt>
      <trkpt lat="42.4046810" lon="-3.2705570">
        <ele>862.0</ele>
        <time>2022-08-29T10:23:38Z</time>
      </trkpt>
      <trkpt lat="42.4046820" lon="-3.2705880">
        <ele>862.0</ele>
        <time>2022-08-29T10:23:39Z</time>
      </trkpt>
      <trkpt lat="42.4046800" lon="-3.2706200">
        <ele>862.2</ele>
        <time>2022-08-29T10:23:40Z</time>
      </trkpt>
      <trkpt lat="42.4046770" lon="-3.2706530">
        <ele>862.2</ele>
        <time>2022-08-29T10:23:41Z</time>
      </trkpt>
      <trkpt lat="42.4046780" lon="-3.2706860">
        <ele>862.6</ele>
        <time>2022-08-29T10:23:42Z</time>
      </trkpt>
      <trkpt lat="42.4046810" lon="-3.2707190">
        <ele>862.6</ele>
        <time>2022-08-29T10:23:43Z</time>
      </trkpt>
      <trkpt lat="42.4046820" lon="-3.2707540">
        <ele>862.8</ele>
        <time>2022-08-29T10:23:44Z</time>
      </trkpt>
      <trkpt lat="42.4046830" lon="-3.2707870">
        <ele>862.8</ele>
        <time>2022-08-29T10:23:45Z</time>
      </trkpt>
      <trkpt lat="42.4046830" lon="-3.2708190">
        <ele>863.0</ele>
        <time>2022-08-29T10:23:46Z</time>
      </trkpt>
      <trkpt lat="42.4046850" lon="-3.2708500">
        <ele>863.0</ele>
        <time>2022-08-29T10:23:47Z</time>
      </trkpt>
      <trkpt lat="42.4046860" lon="-3.2708820">
        <ele>863.2</ele>
        <time>2022-08-29T10:23:48Z</time>
      </trkpt>
      <trkpt lat="42.4046890" lon="-3.2709130">
        <ele>863.6</ele>
        <time>2022-08-29T10:23:49Z</time>
      </trkpt>
      <trkpt lat="42.4046920" lon="-3.2709450">
        <ele>863.6</ele>
        <time>2022-08-29T10:23:50Z</time>
      </trkpt>
      <trkpt lat="42.4046940" lon="-3.2709760">
        <ele>863.8</ele>
        <time>2022-08-29T10:23:51Z</time>
      </trkpt>
      <trkpt lat="42.4046950" lon="-3.2710090">
        <ele>863.8</ele>
        <time>2022-08-29T10:23:52Z</time>
      </trkpt>
      <trkpt lat="42.4046980" lon="-3.2710420">
        <ele>864.0</ele>
        <time>2022-08-29T10:23:53Z</time>
      </trkpt>
      <trkpt lat="42.4047010" lon="-3.2710740">
        <ele>863.8</ele>
        <time>2022-08-29T10:23:54Z</time>
      </trkpt>
      <trkpt lat="42.4047040" lon="-3.2711070">
        <ele>864.0</ele>
        <time>2022-08-29T10:23:55Z</time>
      </trkpt>
      <trkpt lat="42.4047070" lon="-3.2711420">
        <ele>864.0</ele>
        <time>2022-08-29T10:23:56Z</time>
      </trkpt>
      <trkpt lat="42.4047100" lon="-3.2711760">
        <ele>864.0</ele>
        <time>2022-08-29T10:23:57Z</time>
      </trkpt>
      <trkpt lat="42.4047120" lon="-3.2712110">
        <ele>864.0</ele>
        <time>2022-08-29T10:23:58Z</time>
      </trkpt>
      <trkpt lat="42.4047140" lon="-3.2712440">
        <ele>864.0</ele>
        <time>2022-08-29T10:23:59Z</time>
      </trkpt>
      <trkpt lat="42.4047170" lon="-3.2712780">
        <ele>864.2</ele>
        <time>2022-08-29T10:24:00Z</time>
      </trkpt>
      <trkpt lat="42.4047200" lon="-3.2713120">
        <ele>864.2</ele>
        <time>2022-08-29T10:24:01Z</time>
      </trkpt>
      <trkpt lat="42.4047230" lon="-3.2713480">
        <ele>864.2</ele>
        <time>2022-08-29T10:24:02Z</time>
      </trkpt>
      <trkpt lat="42.4047250" lon="-3.2713830">
        <ele>864.4</ele>
        <time>2022-08-29T10:24:03Z</time>
      </trkpt>
      <trkpt lat="42.4047250" lon="-3.2714180">
        <ele>864.4</ele>
        <time>2022-08-29T10:24:04Z</time>
      </trkpt>
      <trkpt lat="42.4047270" lon="-3.2714520">
        <ele>864.4</ele>
        <time>2022-08-29T10:24:05Z</time>
      </trkpt>
      <trkpt lat="42.4047300" lon="-3.2714860">
        <ele>864.8</ele>
        <time>2022-08-29T10:24:06Z</time>
      </trkpt>
      <trkpt lat="42.4047330" lon="-3.2715210">
        <ele>864.8</ele>
        <time>2022-08-29T10:24:07Z</time>
      </trkpt>
      <trkpt lat="42.4047360" lon="-3.2715560">
        <ele>864.8</ele>
        <time>2022-08-29T10:24:08Z</time>
      </trkpt>
      <trkpt lat="42.4047400" lon="-3.2715930">
        <ele>864.8</ele>
        <time>2022-08-29T10:24:09Z</time>
      </trkpt>
      <trkpt lat="42.4047440" lon="-3.2716290">
        <ele>865.0</ele>
        <time>2022-08-29T10:24:10Z</time>
      </trkpt>
      <trkpt lat="42.4047480" lon="-3.2716660">
        <ele>865.0</ele>
        <time>2022-08-29T10:24:11Z</time>
      </trkpt>
      <trkpt lat="42.4047520" lon="-3.2717030">
        <ele>865.2</ele>
        <time>2022-08-29T10:24:12Z</time>
      </trkpt>
      <trkpt lat="42.4047540" lon="-3.2717400">
        <ele>865.2</ele>
        <time>2022-08-29T10:24:13Z</time>
      </trkpt>
      <trkpt lat="42.4047590" lon="-3.2717750">
        <ele>865.4</ele>
        <time>2022-08-29T10:24:14Z</time>
      </trkpt>
      <trkpt lat="42.4047640" lon="-3.2718110">
        <ele>865.6</ele>
        <time>2022-08-29T10:24:15Z</time>
      </trkpt>
      <trkpt lat="42.4047690" lon="-3.2718490">
        <ele>865.4</ele>
        <time>2022-08-29T10:24:16Z</time>
      </trkpt>
      <trkpt lat="42.4047730" lon="-3.2718880">
        <ele>865.8</ele>
        <time>2022-08-29T10:24:17Z</time>
      </trkpt>
      <trkpt lat="42.4047740" lon="-3.2719280">
        <ele>865.8</ele>
        <time>2022-08-29T10:24:18Z</time>
      </trkpt>
      <trkpt lat="42.4047770" lon="-3.2719700">
        <ele>866.0</ele>
        <time>2022-08-29T10:24:19Z</time>
      </trkpt>
      <trkpt lat="42.4047790" lon="-3.2720130">
        <ele>866.0</ele>
        <time>2022-08-29T10:24:20Z</time>
      </trkpt>
      <trkpt lat="42.4047800" lon="-3.2720590">
        <ele>866.2</ele>
        <time>2022-08-29T10:24:21Z</time>
      </trkpt>
      <trkpt lat="42.4047800" lon="-3.2721080">
        <ele>866.0</ele>
        <time>2022-08-29T10:24:22Z</time>
      </trkpt>
      <trkpt lat="42.4047780" lon="-3.2721600">
        <ele>866.0</ele>
        <time>2022-08-29T10:24:23Z</time>
      </trkpt>
      <trkpt lat="42.4047770" lon="-3.2722190">
        <ele>866.2</ele>
        <time>2022-08-29T10:24:24Z</time>
      </trkpt>
      <trkpt lat="42.4047730" lon="-3.2722830">
        <ele>866.0</ele>
        <time>2022-08-29T10:24:25Z</time>
      </trkpt>
      <trkpt lat="42.4047700" lon="-3.2723520">
        <ele>866.2</ele>
        <time>2022-08-29T10:24:26Z</time>
      </trkpt>
      <trkpt lat="42.4047680" lon="-3.2724230">
        <ele>866.0</ele>
        <time>2022-08-29T10:24:27Z</time>
      </trkpt>
      <trkpt lat="42.4047660" lon="-3.2724950">
        <ele>866.0</ele>
        <time>2022-08-29T10:24:28Z</time>
      </trkpt>
      <trkpt lat="42.4047630" lon="-3.2725690">
        <ele>866.0</ele>
        <time>2022-08-29T10:24:29Z</time>
      </trkpt>
      <trkpt lat="42.4047660" lon="-3.2726430">
        <ele>866.0</ele>
        <time>2022-08-29T10:24:30Z</time>
      </trkpt>
      <trkpt lat="42.4047720" lon="-3.2727180">
        <ele>866.0</ele>
        <time>2022-08-29T10:24:31Z</time>
      </trkpt>
      <trkpt lat="42.4047810" lon="-3.2727950">
        <ele>865.8</ele>
        <time>2022-08-29T10:24:32Z</time>
      </trkpt>
      <trkpt lat="42.4047940" lon="-3.2728710">
        <ele>865.6</ele>
        <time>2022-08-29T10:24:33Z</time>
      </trkpt>
      <trkpt lat="42.4048090" lon="-3.2729480">
        <ele>865.6</ele>
        <time>2022-08-29T10:24:34Z</time>
      </trkpt>
      <trkpt lat="42.4048270" lon="-3.2730240">
        <ele>865.4</ele>
        <time>2022-08-29T10:24:35Z</time>
      </trkpt>
      <trkpt lat="42.4048460" lon="-3.2731010">
        <ele>865.4</ele>
        <time>2022-08-29T10:24:36Z</time>
      </trkpt>
      <trkpt lat="42.4048660" lon="-3.2731760">
        <ele>865.0</ele>
        <time>2022-08-29T10:24:37Z</time>
      </trkpt>
      <trkpt lat="42.4048880" lon="-3.2732480">
        <ele>864.6</ele>
        <time>2022-08-29T10:24:38Z</time>
      </trkpt>
      <trkpt lat="42.4049050" lon="-3.2733250">
        <ele>864.4</ele>
        <time>2022-08-29T10:24:39Z</time>
      </trkpt>
      <trkpt lat="42.4049210" lon="-3.2733980">
        <ele>863.8</ele>
        <time>2022-08-29T10:24:40Z</time>
      </trkpt>
      <trkpt lat="42.4049370" lon="-3.2734690">
        <ele>863.4</ele>
        <time>2022-08-29T10:24:41Z</time>
      </trkpt>
      <trkpt lat="42.4049540" lon="-3.2735400">
        <ele>863.2</ele>
        <time>2022-08-29T10:24:42Z</time>
      </trkpt>
      <trkpt lat="42.4049710" lon="-3.2736080">
        <ele>863.0</ele>
        <time>2022-08-29T10:24:43Z</time>
      </trkpt>
      <trkpt lat="42.4049900" lon="-3.2736770">
        <ele>863.0</ele>
        <time>2022-08-29T10:24:44Z</time>
      </trkpt>
      <trkpt lat="42.4050080" lon="-3.2737460">
        <ele>862.8</ele>
        <time>2022-08-29T10:24:45Z</time>
      </trkpt>
      <trkpt lat="42.4050260" lon="-3.2738160">
        <ele>862.6</ele>
        <time>2022-08-29T10:24:46Z</time>
      </trkpt>
      <trkpt lat="42.4050450" lon="-3.2738820">
        <ele>862.6</ele>
        <time>2022-08-29T10:24:47Z</time>
      </trkpt>
      <trkpt lat="42.4050620" lon="-3.2739480">
        <ele>862.4</ele>
        <time>2022-08-29T10:24:48Z</time>
      </trkpt>
      <trkpt lat="42.4050750" lon="-3.2740080">
        <ele>862.2</ele>
        <time>2022-08-29T10:24:49Z</time>
      </trkpt>
      <trkpt lat="42.4050850" lon="-3.2740660">
        <ele>862.0</ele>
        <time>2022-08-29T10:24:50Z</time>
      </trkpt>
      <trkpt lat="42.4050890" lon="-3.2741220">
        <ele>862.2</ele>
        <time>2022-08-29T10:24:51Z</time>
      </trkpt>
      <trkpt lat="42.4050880" lon="-3.2741800">
        <ele>862.2</ele>
        <time>2022-08-29T10:24:52Z</time>
      </trkpt>
      <trkpt lat="42.4050830" lon="-3.2742360">
        <ele>862.0</ele>
        <time>2022-08-29T10:24:53Z</time>
      </trkpt>
      <trkpt lat="42.4050800" lon="-3.2742940">
        <ele>862.2</ele>
        <time>2022-08-29T10:24:54Z</time>
      </trkpt>
      <trkpt lat="42.4050750" lon="-3.2743550">
        <ele>862.2</ele>
        <time>2022-08-29T10:24:55Z</time>
      </trkpt>
      <trkpt lat="42.4050680" lon="-3.2744150">
        <ele>862.2</ele>
        <time>2022-08-29T10:24:56Z</time>
      </trkpt>
      <trkpt lat="42.4050580" lon="-3.2744730">
        <ele>862.0</ele>
        <time>2022-08-29T10:24:57Z</time>
      </trkpt>
      <trkpt lat="42.4050460" lon="-3.2745270">
        <ele>862.0</ele>
        <time>2022-08-29T10:24:58Z</time>
      </trkpt>
      <trkpt lat="42.4050330" lon="-3.2745780">
        <ele>862.0</ele>
        <time>2022-08-29T10:24:59Z</time>
      </trkpt>
      <trkpt lat="42.4050210" lon="-3.2746280">
        <ele>862.0</ele>
        <time>2022-08-29T10:25:00Z</time>
      </trkpt>
      <trkpt lat="42.4050120" lon="-3.2746790">
        <ele>862.0</ele>
        <time>2022-08-29T10:25:01Z</time>
      </trkpt>
      <trkpt lat="42.4050130" lon="-3.2747330">
        <ele>862.2</ele>
        <time>2022-08-29T10:25:02Z</time>
      </trkpt>
      <trkpt lat="42.4050160" lon="-3.2747930">
        <ele>862.2</ele>
        <time>2022-08-29T10:25:03Z</time>
      </trkpt>
      <trkpt lat="42.4050150" lon="-3.2748490">
        <ele>862.0</ele>
        <time>2022-08-29T10:25:04Z</time>
      </trkpt>
      <trkpt lat="42.4050230" lon="-3.2749090">
        <ele>862.2</ele>
        <time>2022-08-29T10:25:05Z</time>
      </trkpt>
      <trkpt lat="42.4050320" lon="-3.2749700">
        <ele>862.2</ele>
        <time>2022-08-29T10:25:06Z</time>
      </trkpt>
      <trkpt lat="42.4050420" lon="-3.2750300">
        <ele>862.2</ele>
        <time>2022-08-29T10:25:07Z</time>
      </trkpt>
      <trkpt lat="42.4050460" lon="-3.2750870">
        <ele>862.2</ele>
        <time>2022-08-29T10:25:08Z</time>
      </trkpt>
      <trkpt lat="42.4050470" lon="-3.2751500">
        <ele>862.4</ele>
        <time>2022-08-29T10:25:09Z</time>
      </trkpt>
      <trkpt lat="42.4050490" lon="-3.2752060">
        <ele>862.4</ele>
        <time>2022-08-29T10:25:10Z</time>
      </trkpt>
      <trkpt lat="42.4050520" lon="-3.2752600">
        <ele>862.2</ele>
        <time>2022-08-29T10:25:11Z</time>
      </trkpt>
      <trkpt lat="42.4050550" lon="-3.2753120">
        <ele>862.4</ele>
        <time>2022-08-29T10:25:12Z</time>
      </trkpt>
      <trkpt lat="42.4050590" lon="-3.2753600">
        <ele>862.4</ele>
        <time>2022-08-29T10:25:13Z</time>
      </trkpt>
      <trkpt lat="42.4050640" lon="-3.2754060">
        <ele>862.6</ele>
        <time>2022-08-29T10:25:14Z</time>
      </trkpt>
      <trkpt lat="42.4050710" lon="-3.2754500">
        <ele>862.4</ele>
        <time>2022-08-29T10:25:15Z</time>
      </trkpt>
      <trkpt lat="42.4050740" lon="-3.2754910">
        <ele>862.6</ele>
        <time>2022-08-29T10:25:16Z</time>
      </trkpt>
      <trkpt lat="42.4050760" lon="-3.2755300">
        <ele>862.6</ele>
        <time>2022-08-29T10:25:17Z</time>
      </trkpt>
      <trkpt lat="42.4050760" lon="-3.2755690">
        <ele>862.8</ele>
        <time>2022-08-29T10:25:18Z</time>
      </trkpt>
      <trkpt lat="42.4050780" lon="-3.2756070">
        <ele>862.8</ele>
        <time>2022-08-29T10:25:19Z</time>
      </trkpt>
      <trkpt lat="42.4050810" lon="-3.2756450">
        <ele>862.8</ele>
        <time>2022-08-29T10:25:20Z</time>
      </trkpt>
      <trkpt lat="42.4050830" lon="-3.2756840">
        <ele>863.0</ele>
        <time>2022-08-29T10:25:21Z</time>
      </trkpt>
      <trkpt lat="42.4050870" lon="-3.2757220">
        <ele>863.4</ele>
        <time>2022-08-29T10:25:22Z</time>
      </trkpt>
      <trkpt lat="42.4050930" lon="-3.2757580">
        <ele>863.8</ele>
        <time>2022-08-29T10:25:23Z</time>
      </trkpt>
      <trkpt lat="42.4050980" lon="-3.2757910">
        <ele>864.0</ele>
        <time>2022-08-29T10:25:24Z</time>
      </trkpt>
      <trkpt lat="42.4050980" lon="-3.2758260">
        <ele>864.4</ele>
        <time>2022-08-29T10:25:25Z</time>
      </trkpt>
      <trkpt lat="42.4050970" lon="-3.2758590">
        <ele>864.8</ele>
        <time>2022-08-29T10:25:26Z</time>
      </trkpt>
      <trkpt lat="42.4050960" lon="-3.2758920">
        <ele>865.0</ele>
        <time>2022-08-29T10:25:27Z</time>
      </trkpt>
      <trkpt lat="42.4050960" lon="-3.2759250">
        <ele>865.2</ele>
        <time>2022-08-29T10:25:28Z</time>
      </trkpt>
      <trkpt lat="42.4051000" lon="-3.2759540">
        <ele>865.4</ele>
        <time>2022-08-29T10:25:29Z</time>
      </trkpt>
      <trkpt lat="42.4051050" lon="-3.2759820">
        <ele>865.4</ele>
        <time>2022-08-29T10:25:30Z</time>
      </trkpt>
      <trkpt lat="42.4051090" lon="-3.2760100">
        <ele>865.6</ele>
        <time>2022-08-29T10:25:31Z</time>
      </trkpt>
      <trkpt lat="42.4051130" lon="-3.2760390">
        <ele>865.8</ele>
        <time>2022-08-29T10:25:32Z</time>
      </trkpt>
      <trkpt lat="42.4051180" lon="-3.2760690">
        <ele>866.0</ele>
        <time>2022-08-29T10:25:33Z</time>
      </trkpt>
      <trkpt lat="42.4051230" lon="-3.2760980">
        <ele>866.2</ele>
        <time>2022-08-29T10:25:34Z</time>
      </trkpt>
      <trkpt lat="42.4051290" lon="-3.2761270">
        <ele>866.4</ele>
        <time>2022-08-29T10:25:35Z</time>
      </trkpt>
      <trkpt lat="42.4051360" lon="-3.2761530">
        <ele>866.4</ele>
        <time>2022-08-29T10:25:36Z</time>
      </trkpt>
      <trkpt lat="42.4051420" lon="-3.2761800">
        <ele>866.8</ele>
        <time>2022-08-29T10:25:37Z</time>
      </trkpt>
      <trkpt lat="42.4051520" lon="-3.2762070">
        <ele>866.8</ele>
        <time>2022-08-29T10:25:38Z</time>
      </trkpt>
      <trkpt lat="42.4051610" lon="-3.2762340">
        <ele>866.8</ele>
        <time>2022-08-29T10:25:39Z</time>
      </trkpt>
      <trkpt lat="42.4051700" lon="-3.2762620">
        <ele>867.0</ele>
        <time>2022-08-29T10:25:40Z</time>
      </trkpt>
      <trkpt lat="42.4051770" lon="-3.2762920">
        <ele>867.2</ele>
        <time>2022-08-29T10:25:41Z</time>
      </trkpt>
      <trkpt lat="42.4051850" lon="-3.2763200">
        <ele>867.4</ele>
        <time>2022-08-29T10:25:42Z</time>
      </trkpt>
      <trkpt lat="42.4051940" lon="-3.2763490">
        <ele>867.4</ele>
        <time>2022-08-29T10:25:43Z</time>
      </trkpt>
      <trkpt lat="42.4052040" lon="-3.2763760">
        <ele>867.4</ele>
        <time>2022-08-29T10:25:44Z</time>
      </trkpt>
      <trkpt lat="42.4052100" lon="-3.2764020">
        <ele>867.8</ele>
        <time>2022-08-29T10:25:45Z</time>
      </trkpt>
      <trkpt lat="42.4052170" lon="-3.2764250">
        <ele>868.0</ele>
        <time>2022-08-29T10:25:46Z</time>
      </trkpt>
      <trkpt lat="42.4052270" lon="-3.2764500">
        <ele>868.0</ele>
        <time>2022-08-29T10:25:47Z</time>
      </trkpt>
      <trkpt lat="42.4052320" lon="-3.2764760">
        <ele>868.2</ele>
        <time>2022-08-29T10:25:48Z</time>
      </trkpt>
      <trkpt lat="42.4052430" lon="-3.2765020">
        <ele>868.2</ele>
        <time>2022-08-29T10:25:49Z</time>
      </trkpt>
      <trkpt lat="42.4052540" lon="-3.2765300">
        <ele>868.4</ele>
        <time>2022-08-29T10:25:50Z</time>
      </trkpt>
      <trkpt lat="42.4052640" lon="-3.2765580">
        <ele>868.6</ele>
        <time>2022-08-29T10:25:51Z</time>
      </trkpt>
      <trkpt lat="42.4052750" lon="-3.2765860">
        <ele>868.8</ele>
        <time>2022-08-29T10:25:52Z</time>
      </trkpt>
      <trkpt lat="42.4052830" lon="-3.2766150">
        <ele>869.0</ele>
        <time>2022-08-29T10:25:53Z</time>
      </trkpt>
      <trkpt lat="42.4052880" lon="-3.2766460">
        <ele>869.0</ele>
        <time>2022-08-29T10:25:54Z</time>
      </trkpt>
      <trkpt lat="42.4052900" lon="-3.2766770">
        <ele>869.2</ele>
        <time>2022-08-29T10:25:55Z</time>
      </trkpt>
      <trkpt lat="42.4052940" lon="-3.2767060">
        <ele>869.4</ele>
        <time>2022-08-29T10:25:56Z</time>
      </trkpt>
      <trkpt lat="42.4052930" lon="-3.2767380">
        <ele>869.6</ele>
        <time>2022-08-29T10:25:57Z</time>
      </trkpt>
      <trkpt lat="42.4052890" lon="-3.2767710">
        <ele>869.6</ele>
        <time>2022-08-29T10:25:58Z</time>
      </trkpt>
      <trkpt lat="42.4052840" lon="-3.2768040">
        <ele>869.8</ele>
        <time>2022-08-29T10:25:59Z</time>
      </trkpt>
      <trkpt lat="42.4052790" lon="-3.2768350">
        <ele>870.2</ele>
        <time>2022-08-29T10:26:00Z</time>
      </trkpt>
      <trkpt lat="42.4052760" lon="-3.2768630">
        <ele>870.4</ele>
        <time>2022-08-29T10:26:01Z</time>
      </trkpt>
      <trkpt lat="42.4052740" lon="-3.2768930">
        <ele>870.6</ele>
        <time>2022-08-29T10:26:02Z</time>
      </trkpt>
      <trkpt lat="42.4052710" lon="-3.2769220">
        <ele>870.8</ele>
        <time>2022-08-29T10:26:03Z</time>
      </trkpt>
      <trkpt lat="42.4052690" lon="-3.2769510">
        <ele>870.8</ele>
        <time>2022-08-29T10:26:04Z</time>
      </trkpt>
      <trkpt lat="42.4052640" lon="-3.2769810">
        <ele>870.8</ele>
        <time>2022-08-29T10:26:05Z</time>
      </trkpt>
      <trkpt lat="42.4052580" lon="-3.2770110">
        <ele>870.8</ele>
        <time>2022-08-29T10:26:06Z</time>
      </trkpt>
      <trkpt lat="42.4052500" lon="-3.2770420">
        <ele>871.0</ele>
        <time>2022-08-29T10:26:07Z</time>
      </trkpt>
      <trkpt lat="42.4052410" lon="-3.2770730">
        <ele>871.2</ele>
        <time>2022-08-29T10:26:08Z</time>
      </trkpt>
      <trkpt lat="42.4052330" lon="-3.2771070">
        <ele>871.4</ele>
        <time>2022-08-29T10:26:09Z</time>
      </trkpt>
      <trkpt lat="42.4052220" lon="-3.2771410">
        <ele>871.4</ele>
        <time>2022-08-29T10:26:10Z</time>
      </trkpt>
      <trkpt lat="42.4052140" lon="-3.2771750">
        <ele>871.6</ele>
        <time>2022-08-29T10:26:11Z</time>
      </trkpt>
      <trkpt lat="42.4052070" lon="-3.2772090">
        <ele>871.8</ele>
        <time>2022-08-29T10:26:12Z</time>
      </trkpt>
      <trkpt lat="42.4051970" lon="-3.2772450">
        <ele>871.8</ele>
        <time>2022-08-29T10:26:13Z</time>
      </trkpt>
      <trkpt lat="42.4051940" lon="-3.2772800">
        <ele>871.8</ele>
        <time>2022-08-29T10:26:14Z</time>
      </trkpt>
      <trkpt lat="42.4052000" lon="-3.2773200">
        <ele>872.0</ele>
        <time>2022-08-29T10:26:15Z</time>
      </trkpt>
      <trkpt lat="42.4052070" lon="-3.2773580">
        <ele>872.0</ele>
        <time>2022-08-29T10:26:16Z</time>
      </trkpt>
      <trkpt lat="42.4052100" lon="-3.2773930">
        <ele>872.0</ele>
        <time>2022-08-29T10:26:17Z</time>
      </trkpt>
      <trkpt lat="42.4052140" lon="-3.2774280">
        <ele>872.0</ele>
        <time>2022-08-29T10:26:18Z</time>
      </trkpt>
      <trkpt lat="42.4052160" lon="-3.2774640">
        <ele>872.2</ele>
        <time>2022-08-29T10:26:19Z</time>
      </trkpt>
      <trkpt lat="42.4052180" lon="-3.2774960">
        <ele>872.2</ele>
        <time>2022-08-29T10:26:20Z</time>
      </trkpt>
      <trkpt lat="42.4052200" lon="-3.2775170">
        <ele>872.4</ele>
        <time>2022-08-29T10:26:21Z</time>
      </trkpt>
      <trkpt lat="42.4052210" lon="-3.2775310">
        <ele>872.2</ele>
        <time>2022-08-29T10:26:22Z</time>
      </trkpt>
      <trkpt lat="42.4052210" lon="-3.2775410">
        <ele>872.4</ele>
        <time>2022-08-29T10:26:23Z</time>
      </trkpt>
      <trkpt lat="42.4052190" lon="-3.2775410">
        <ele>872.4</ele>
        <time>2022-08-29T10:26:24Z</time>
      </trkpt>
      <trkpt lat="42.4052250" lon="-3.2775440">
        <ele>872.6</ele>
        <time>2022-08-29T10:26:25Z</time>
      </trkpt>
      <trkpt lat="42.4052290" lon="-3.2775470">
        <ele>872.4</ele>
        <time>2022-08-29T10:26:26Z</time>
      </trkpt>
      <trkpt lat="42.4052340" lon="-3.2775490">
        <ele>872.6</ele>
        <time>2022-08-29T10:26:27Z</time>
      </trkpt>
      <trkpt lat="42.4052350" lon="-3.2775490">
        <ele>872.8</ele>
        <time>2022-08-29T10:26:28Z</time>
      </trkpt>
      <trkpt lat="42.4052350" lon="-3.2775490">
        <ele>872.6</ele>
        <time>2022-08-29T10:26:29Z</time>
      </trkpt>
      <trkpt lat="42.4052360" lon="-3.2775500">
        <ele>872.6</ele>
        <time>2022-08-29T10:26:30Z</time>
      </trkpt>
      <trkpt lat="42.4052360" lon="-3.2775500">
        <ele>872.8</ele>
        <time>2022-08-29T10:26:31Z</time>
      </trkpt>
      <trkpt lat="42.4052360" lon="-3.2775500">
        <ele>872.8</ele>
        <time>2022-08-29T10:26:32Z</time>
      </trkpt>
      <trkpt lat="42.4052360" lon="-3.2775500">
        <ele>872.6</ele>
        <time>2022-08-29T10:26:33Z</time>
      </trkpt>
      <trkpt lat="42.4052360" lon="-3.2775500">
        <ele>872.8</ele>
        <time>2022-08-29T10:26:34Z</time>
      </trkpt>
      <trkpt lat="42.4052360" lon="-3.2775510">
        <ele>872.6</ele>
        <time>2022-08-29T10:26:35Z</time>
      </trkpt>
      <trkpt lat="42.4052360" lon="-3.2775520">
        <ele>872.6</ele>
        <time>2022-08-29T10:26:36Z</time>
      </trkpt>
      <trkpt lat="42.4052360" lon="-3.2775520">
        <ele>872.8</ele>
        <time>2022-08-29T10:26:37Z</time>
      </trkpt>
      <trkpt lat="42.4052360" lon="-3.2775530">
        <ele>872.8</ele>
        <time>2022-08-29T10:26:38Z</time>
      </trkpt>
      <trkpt lat="42.4052360" lon="-3.2775530">
        <ele>872.8</ele>
        <time>2022-08-29T10:26:39Z</time>
      </trkpt>
      <trkpt lat="42.4052360" lon="-3.2775530">
        <ele>872.8</ele>
        <time>2022-08-29T10:26:40Z</time>
      </trkpt>
      <trkpt lat="42.4052360" lon="-3.2775540">
        <ele>872.6</ele>
        <time>2022-08-29T10:26:41Z</time>
      </trkpt>
      <trkpt lat="42.4052360" lon="-3.2775540">
        <ele>872.8</ele>
        <time>2022-08-29T10:26:42Z</time>
      </trkpt>
      <trkpt lat="42.4052370" lon="-3.2775540">
        <ele>872.8</ele>
        <time>2022-08-29T10:26:43Z</time>
      </trkpt>
      <trkpt lat="42.4052370" lon="-3.2775540">
        <ele>872.6</ele>
        <time>2022-08-29T10:26:44Z</time>
      </trkpt>
      <trkpt lat="42.4052370" lon="-3.2775550">
        <ele>872.8</ele>
        <time>2022-08-29T10:26:45Z</time>
      </trkpt>
      <trkpt lat="42.4052370" lon="-3.2775550">
        <ele>872.6</ele>
        <time>2022-08-29T10:26:46Z</time>
      </trkpt>
      <trkpt lat="42.4052370" lon="-3.2775550">
        <ele>872.6</ele>
        <time>2022-08-29T10:26:47Z</time>
      </trkpt>
      <trkpt lat="42.4052370" lon="-3.2775550">
        <ele>872.6</ele>
        <time>2022-08-29T10:26:48Z</time>
      </trkpt>
      <trkpt lat="42.4052370" lon="-3.2775550">
        <ele>872.6</ele>
        <time>2022-08-29T10:26:49Z</time>
      </trkpt>
      <trkpt lat="42.4052370" lon="-3.2775550">
        <ele>872.8</ele>
        <time>2022-08-29T10:26:50Z</time>
      </trkpt>
      <trkpt lat="42.4052380" lon="-3.2775560">
        <ele>872.6</ele>
        <time>2022-08-29T10:26:51Z</time>
      </trkpt>
      <trkpt lat="42.4052380" lon="-3.2775560">
        <ele>872.6</ele>
        <time>2022-08-29T10:26:52Z</time>
      </trkpt>
      <trkpt lat="42.4052380" lon="-3.2775560">
        <ele>872.6</ele>
        <time>2022-08-29T10:26:53Z</time>
      </trkpt>
      <trkpt lat="42.4052380" lon="-3.2775570">
        <ele>872.6</ele>
        <time>2022-08-29T10:26:54Z</time>
      </trkpt>
      <trkpt lat="42.4052380" lon="-3.2775570">
        <ele>872.6</ele>
        <time>2022-08-29T10:26:55Z</time>
      </trkpt>
      <trkpt lat="42.4052380" lon="-3.2775580">
        <ele>872.6</ele>
        <time>2022-08-29T10:26:56Z</time>
      </trkpt>
      <trkpt lat="42.4052380" lon="-3.2775580">
        <ele>872.4</ele>
        <time>2022-08-29T10:26:57Z</time>
      </trkpt>
      <trkpt lat="42.4052380" lon="-3.2775590">
        <ele>872.6</ele>
        <time>2022-08-29T10:26:58Z</time>
      </trkpt>
      <trkpt lat="42.4052380" lon="-3.2775590">
        <ele>872.4</ele>
        <time>2022-08-29T10:26:59Z</time>
      </trkpt>
      <trkpt lat="42.4052390" lon="-3.2775590">
        <ele>872.4</ele>
        <time>2022-08-29T10:27:00Z</time>
      </trkpt>
      <trkpt lat="42.4052390" lon="-3.2775590">
        <ele>872.6</ele>
        <time>2022-08-29T10:27:01Z</time>
      </trkpt>
      <trkpt lat="42.4052390" lon="-3.2775590">
        <ele>872.4</ele>
        <time>2022-08-29T10:27:02Z</time>
      </trkpt>
      <trkpt lat="42.4052390" lon="-3.2775590">
        <ele>872.6</ele>
        <time>2022-08-29T10:27:03Z</time>
      </trkpt>
      <trkpt lat="42.4052390" lon="-3.2775590">
        <ele>872.6</ele>
        <time>2022-08-29T10:27:04Z</time>
      </trkpt>
      <trkpt lat="42.4052390" lon="-3.2775590">
        <ele>872.4</ele>
        <time>2022-08-29T10:27:05Z</time>
      </trkpt>
      <trkpt lat="42.4052390" lon="-3.2775590">
        <ele>872.4</ele>
        <time>2022-08-29T10:27:06Z</time>
      </trkpt>
      <trkpt lat="42.4052390" lon="-3.2775590">
        <ele>872.2</ele>
        <time>2022-08-29T10:27:07Z</time>
      </trkpt>
      <trkpt lat="42.4052350" lon="-3.2775620">
        <ele>872.2</ele>
        <time>2022-08-29T10:27:08Z</time>
      </trkpt>
      <trkpt lat="42.4052330" lon="-3.2775680">
        <ele>872.0</ele>
        <time>2022-08-29T10:27:09Z</time>
      </trkpt>
      <trkpt lat="42.4052280" lon="-3.2775720">
        <ele>872.0</ele>
        <time>2022-08-29T10:27:10Z</time>
      </trkpt>
      <trkpt lat="42.4052280" lon="-3.2775720">
        <ele>872.0</ele>
        <time>2022-08-29T10:27:11Z</time>
      </trkpt>
      <trkpt lat="42.4052270" lon="-3.2775720">
        <ele>872.0</ele>
        <time>2022-08-29T10:27:12Z</time>
      </trkpt>
      <trkpt lat="42.4052270" lon="-3.2775720">
        <ele>871.8</ele>
        <time>2022-08-29T10:27:13Z</time>
      </trkpt>
      <trkpt lat="42.4052260" lon="-3.2775720">
        <ele>871.8</ele>
        <time>2022-08-29T10:27:14Z</time>
      </trkpt>
      <trkpt lat="42.4052260" lon="-3.2775720">
        <ele>872.0</ele>
        <time>2022-08-29T10:27:15Z</time>
      </trkpt>
      <trkpt lat="42.4052250" lon="-3.2775730">
        <ele>872.0</ele>
        <time>2022-08-29T10:27:16Z</time>
      </trkpt>
      <trkpt lat="42.4052240" lon="-3.2775730">
        <ele>872.0</ele>
        <time>2022-08-29T10:27:17Z</time>
      </trkpt>
      <trkpt lat="42.4052230" lon="-3.2775740">
        <ele>871.8</ele>
        <time>2022-08-29T10:27:18Z</time>
      </trkpt>
      <trkpt lat="42.4052230" lon="-3.2775750">
        <ele>871.8</ele>
        <time>2022-08-29T10:27:19Z</time>
      </trkpt>
      <trkpt lat="42.4052230" lon="-3.2775740">
        <ele>871.8</ele>
        <time>2022-08-29T10:27:20Z</time>
      </trkpt>
      <trkpt lat="42.4052220" lon="-3.2775750">
        <ele>871.6</ele>
        <time>2022-08-29T10:27:21Z</time>
      </trkpt>
      <trkpt lat="42.4052220" lon="-3.2775770">
        <ele>871.8</ele>
        <time>2022-08-29T10:27:22Z</time>
      </trkpt>
      <trkpt lat="42.4052230" lon="-3.2775780">
        <ele>871.8</ele>
        <time>2022-08-29T10:27:23Z</time>
      </trkpt>
      <trkpt lat="42.4052220" lon="-3.2775790">
        <ele>871.6</ele>
        <time>2022-08-29T10:27:24Z</time>
      </trkpt>
      <trkpt lat="42.4052230" lon="-3.2775790">
        <ele>871.8</ele>
        <time>2022-08-29T10:27:25Z</time>
      </trkpt>
      <trkpt lat="42.4052220" lon="-3.2775790">
        <ele>871.6</ele>
        <time>2022-08-29T10:27:26Z</time>
      </trkpt>
      <trkpt lat="42.4052220" lon="-3.2775800">
        <ele>871.6</ele>
        <time>2022-08-29T10:27:27Z</time>
      </trkpt>
      <trkpt lat="42.4052210" lon="-3.2775790">
        <ele>871.6</ele>
        <time>2022-08-29T10:27:28Z</time>
      </trkpt>
      <trkpt lat="42.4052220" lon="-3.2775800">
        <ele>871.6</ele>
        <time>2022-08-29T10:27:29Z</time>
      </trkpt>
      <trkpt lat="42.4052220" lon="-3.2775800">
        <ele>871.6</ele>
        <time>2022-08-29T10:27:30Z</time>
      </trkpt>
      <trkpt lat="42.4052220" lon="-3.2775800">
        <ele>871.4</ele>
        <time>2022-08-29T10:27:31Z</time>
      </trkpt>
      <trkpt lat="42.4052220" lon="-3.2775800">
        <ele>871.4</ele>
        <time>2022-08-29T10:27:32Z</time>
      </trkpt>
      <trkpt lat="42.4052230" lon="-3.2775800">
        <ele>871.4</ele>
        <time>2022-08-29T10:27:33Z</time>
      </trkpt>
      <trkpt lat="42.4052230" lon="-3.2775800">
        <ele>871.4</ele>
        <time>2022-08-29T10:27:34Z</time>
      </trkpt>
      <trkpt lat="42.4052230" lon="-3.2775800">
        <ele>871.2</ele>
        <time>2022-08-29T10:27:35Z</time>
      </trkpt>
      <trkpt lat="42.4052230" lon="-3.2775800">
        <ele>871.2</ele>
        <time>2022-08-29T10:27:36Z</time>
      </trkpt>
      <trkpt lat="42.4052230" lon="-3.2775800">
        <ele>871.2</ele>
        <time>2022-08-29T10:27:37Z</time>
      </trkpt>
      <trkpt lat="42.4052230" lon="-3.2775800">
        <ele>871.2</ele>
        <time>2022-08-29T10:27:38Z</time>
      </trkpt>
      <trkpt lat="42.4052230" lon="-3.2775800">
        <ele>871.2</ele>
        <time>2022-08-29T10:27:39Z</time>
      </trkpt>
      <trkpt lat="42.4052230" lon="-3.2775810">
        <ele>871.2</ele>
        <time>2022-08-29T10:27:40Z</time>
      </trkpt>
      <trkpt lat="42.4052230" lon="-3.2775820">
        <ele>871.2</ele>
        <time>2022-08-29T10:27:41Z</time>
      </trkpt>
      <trkpt lat="42.4052240" lon="-3.2775830">
        <ele>871.2</ele>
        <time>2022-08-29T10:27:42Z</time>
      </trkpt>
      <trkpt lat="42.4052230" lon="-3.2775840">
        <ele>871.4</ele>
        <time>2022-08-29T10:27:43Z</time>
      </trkpt>
      <trkpt lat="42.4052230" lon="-3.2775880">
        <ele>871.2</ele>
        <time>2022-08-29T10:27:44Z</time>
      </trkpt>
      <trkpt lat="42.4052190" lon="-3.2776010">
        <ele>871.2</ele>
        <time>2022-08-29T10:27:45Z</time>
      </trkpt>
      <trkpt lat="42.4052180" lon="-3.2776220">
        <ele>871.2</ele>
        <time>2022-08-29T10:27:46Z</time>
      </trkpt>
      <trkpt lat="42.4052160" lon="-3.2776450">
        <ele>871.2</ele>
        <time>2022-08-29T10:27:47Z</time>
      </trkpt>
      <trkpt lat="42.4052160" lon="-3.2776740">
        <ele>871.2</ele>
        <time>2022-08-29T10:27:48Z</time>
      </trkpt>
      <trkpt lat="42.4052140" lon="-3.2777080">
        <ele>871.2</ele>
        <time>2022-08-29T10:27:49Z</time>
      </trkpt>
      <trkpt lat="42.4052120" lon="-3.2777430">
        <ele>871.0</ele>
        <time>2022-08-29T10:27:50Z</time>
      </trkpt>
      <trkpt lat="42.4052120" lon="-3.2777820">
        <ele>871.2</ele>
        <time>2022-08-29T10:27:51Z</time>
      </trkpt>
      <trkpt lat="42.4052100" lon="-3.2778210">
        <ele>871.0</ele>
        <time>2022-08-29T10:27:52Z</time>
      </trkpt>
      <trkpt lat="42.4052090" lon="-3.2778590">
        <ele>871.0</ele>
        <time>2022-08-29T10:27:53Z</time>
      </trkpt>
      <trkpt lat="42.4052070" lon="-3.2778980">
        <ele>871.2</ele>
        <time>2022-08-29T10:27:54Z</time>
      </trkpt>
      <trkpt lat="42.4052050" lon="-3.2779360">
        <ele>871.0</ele>
        <time>2022-08-29T10:27:55Z</time>
      </trkpt>
      <trkpt lat="42.4052000" lon="-3.2779740">
        <ele>870.8</ele>
        <time>2022-08-29T10:27:56Z</time>
      </trkpt>
      <trkpt lat="42.4051950" lon="-3.2780120">
        <ele>871.0</ele>
        <time>2022-08-29T10:27:57Z</time>
      </trkpt>
      <trkpt lat="42.4051920" lon="-3.2780490">
        <ele>871.0</ele>
        <time>2022-08-29T10:27:58Z</time>
      </trkpt>
      <trkpt lat="42.4051920" lon="-3.2780850">
        <ele>870.8</ele>
        <time>2022-08-29T10:27:59Z</time>
      </trkpt>
      <trkpt lat="42.4051940" lon="-3.2781220">
        <ele>870.8</ele>
        <time>2022-08-29T10:28:00Z</time>
      </trkpt>
      <trkpt lat="42.4051960" lon="-3.2781600">
        <ele>870.8</ele>
        <time>2022-08-29T10:28:01Z</time>
      </trkpt>
      <trkpt lat="42.4052000" lon="-3.2781970">
        <ele>870.8</ele>
        <time>2022-08-29T10:28:02Z</time>
      </trkpt>
      <trkpt lat="42.4052040" lon="-3.2782360">
        <ele>870.8</ele>
        <time>2022-08-29T10:28:03Z</time>
      </trkpt>
      <trkpt lat="42.4052100" lon="-3.2782740">
        <ele>870.8</ele>
        <time>2022-08-29T10:28:04Z</time>
      </trkpt>
      <trkpt lat="42.4052170" lon="-3.2783120">
        <ele>870.8</ele>
        <time>2022-08-29T10:28:05Z</time>
      </trkpt>
      <trkpt lat="42.4052260" lon="-3.2783470">
        <ele>871.0</ele>
        <time>2022-08-29T10:28:06Z</time>
      </trkpt>
      <trkpt lat="42.4052390" lon="-3.2783770">
        <ele>871.2</ele>
        <time>2022-08-29T10:28:07Z</time>
      </trkpt>
      <trkpt lat="42.4052510" lon="-3.2784050">
        <ele>871.4</ele>
        <time>2022-08-29T10:28:08Z</time>
      </trkpt>
      <trkpt lat="42.4052620" lon="-3.2784270">
        <ele>871.4</ele>
        <time>2022-08-29T10:28:09Z</time>
      </trkpt>
      <trkpt lat="42.4052720" lon="-3.2784460">
        <ele>871.4</ele>
        <time>2022-08-29T10:28:10Z</time>
      </trkpt>
      <trkpt lat="42.4052830" lon="-3.2784630">
        <ele>871.4</ele>
        <time>2022-08-29T10:28:11Z</time>
      </trkpt>
      <trkpt lat="42.4052950" lon="-3.2784810">
        <ele>871.6</ele>
        <time>2022-08-29T10:28:12Z</time>
      </trkpt>
      <trkpt lat="42.4053050" lon="-3.2784980">
        <ele>871.6</ele>
        <time>2022-08-29T10:28:13Z</time>
      </trkpt>
      <trkpt lat="42.4053160" lon="-3.2785140">
        <ele>871.6</ele>
        <time>2022-08-29T10:28:14Z</time>
      </trkpt>
      <trkpt lat="42.4053270" lon="-3.2785270">
        <ele>871.8</ele>
        <time>2022-08-29T10:28:15Z</time>
      </trkpt>
      <trkpt lat="42.4053390" lon="-3.2785430">
        <ele>872.0</ele>
        <time>2022-08-29T10:28:16Z</time>
      </trkpt>
      <trkpt lat="42.4053490" lon="-3.2785620">
        <ele>872.0</ele>
        <time>2022-08-29T10:28:17Z</time>
      </trkpt>
      <trkpt lat="42.4053600" lon="-3.2785830">
        <ele>872.0</ele>
        <time>2022-08-29T10:28:18Z</time>
      </trkpt>
      <trkpt lat="42.4053690" lon="-3.2786060">
        <ele>872.2</ele>
        <time>2022-08-29T10:28:19Z</time>
      </trkpt>
      <trkpt lat="42.4053760" lon="-3.2786290">
        <ele>872.4</ele>
        <time>2022-08-29T10:28:20Z</time>
      </trkpt>
      <trkpt lat="42.4053820" lon="-3.2786530">
        <ele>872.6</ele>
        <time>2022-08-29T10:28:21Z</time>
      </trkpt>
      <trkpt lat="42.4053900" lon="-3.2786770">
        <ele>872.6</ele>
        <time>2022-08-29T10:28:22Z</time>
      </trkpt>
      <trkpt lat="42.4053980" lon="-3.2786990">
        <ele>872.6</ele>
        <time>2022-08-29T10:28:23Z</time>
      </trkpt>
      <trkpt lat="42.4054040" lon="-3.2787200">
        <ele>872.6</ele>
        <time>2022-08-29T10:28:24Z</time>
      </trkpt>
      <trkpt lat="42.4054070" lon="-3.2787420">
        <ele>872.8</ele>
        <time>2022-08-29T10:28:25Z</time>
      </trkpt>
      <trkpt lat="42.4054090" lon="-3.2787660">
        <ele>873.0</ele>
        <time>2022-08-29T10:28:26Z</time>
      </trkpt>
      <trkpt lat="42.4054110" lon="-3.2787880">
        <ele>873.0</ele>
        <time>2022-08-29T10:28:27Z</time>
      </trkpt>
      <trkpt lat="42.4054140" lon="-3.2788090">
        <ele>873.4</ele>
        <time>2022-08-29T10:28:28Z</time>
      </trkpt>
      <trkpt lat="42.4054150" lon="-3.2788310">
        <ele>873.4</ele>
        <time>2022-08-29T10:28:29Z</time>
      </trkpt>
      <trkpt lat="42.4054160" lon="-3.2788540">
        <ele>873.4</ele>
        <time>2022-08-29T10:28:30Z</time>
      </trkpt>
      <trkpt lat="42.4054160" lon="-3.2788780">
        <ele>873.4</ele>
        <time>2022-08-29T10:28:31Z</time>
      </trkpt>
      <trkpt lat="42.4054160" lon="-3.2789030">
        <ele>873.6</ele>
        <time>2022-08-29T10:28:32Z</time>
      </trkpt>
      <trkpt lat="42.4054170" lon="-3.2789250">
        <ele>873.8</ele>
        <time>2022-08-29T10:28:33Z</time>
      </trkpt>
      <trkpt lat="42.4054160" lon="-3.2789470">
        <ele>873.8</ele>
        <time>2022-08-29T10:28:34Z</time>
      </trkpt>
      <trkpt lat="42.4054150" lon="-3.2789700">
        <ele>873.8</ele>
        <time>2022-08-29T10:28:35Z</time>
      </trkpt>
      <trkpt lat="42.4054130" lon="-3.2789910">
        <ele>874.0</ele>
        <time>2022-08-29T10:28:36Z</time>
      </trkpt>
      <trkpt lat="42.4054140" lon="-3.2790150">
        <ele>874.2</ele>
        <time>2022-08-29T10:28:37Z</time>
      </trkpt>
      <trkpt lat="42.4054140" lon="-3.2790370">
        <ele>874.2</ele>
        <time>2022-08-29T10:28:38Z</time>
      </trkpt>
      <trkpt lat="42.4054140" lon="-3.2790590">
        <ele>874.4</ele>
        <time>2022-08-29T10:28:39Z</time>
      </trkpt>
      <trkpt lat="42.4054150" lon="-3.2790820">
        <ele>874.4</ele>
        <time>2022-08-29T10:28:40Z</time>
      </trkpt>
      <trkpt lat="42.4054170" lon="-3.2791050">
        <ele>874.6</ele>
        <time>2022-08-29T10:28:41Z</time>
      </trkpt>
      <trkpt lat="42.4054170" lon="-3.2791290">
        <ele>874.6</ele>
        <time>2022-08-29T10:28:42Z</time>
      </trkpt>
      <trkpt lat="42.4054180" lon="-3.2791530">
        <ele>874.6</ele>
        <time>2022-08-29T10:28:43Z</time>
      </trkpt>
      <trkpt lat="42.4054220" lon="-3.2791760">
        <ele>874.6</ele>
        <time>2022-08-29T10:28:44Z</time>
      </trkpt>
      <trkpt lat="42.4054270" lon="-3.2791980">
        <ele>874.6</ele>
        <time>2022-08-29T10:28:45Z</time>
      </trkpt>
      <trkpt lat="42.4054340" lon="-3.2792190">
        <ele>874.6</ele>
        <time>2022-08-29T10:28:46Z</time>
      </trkpt>
      <trkpt lat="42.4054410" lon="-3.2792400">
        <ele>875.0</ele>
        <time>2022-08-29T10:28:47Z</time>
      </trkpt>
      <trkpt lat="42.4054470" lon="-3.2792610">
        <ele>875.0</ele>
        <time>2022-08-29T10:28:48Z</time>
      </trkpt>
      <trkpt lat="42.4054530" lon="-3.2792820">
        <ele>875.0</ele>
        <time>2022-08-29T10:28:49Z</time>
      </trkpt>
      <trkpt lat="42.4054580" lon="-3.2793020">
        <ele>875.2</ele>
        <time>2022-08-29T10:28:50Z</time>
      </trkpt>
      <trkpt lat="42.4054620" lon="-3.2793220">
        <ele>875.2</ele>
        <time>2022-08-29T10:28:51Z</time>
      </trkpt>
      <trkpt lat="42.4054650" lon="-3.2793410">
        <ele>875.2</ele>
        <time>2022-08-29T10:28:52Z</time>
      </trkpt>
      <trkpt lat="42.4054690" lon="-3.2793600">
        <ele>875.4</ele>
        <time>2022-08-29T10:28:53Z</time>
      </trkpt>
      <trkpt lat="42.4054760" lon="-3.2793820">
        <ele>875.4</ele>
        <time>2022-08-29T10:28:54Z</time>
      </trkpt>
      <trkpt lat="42.4054820" lon="-3.2794030">
        <ele>875.6</ele>
        <time>2022-08-29T10:28:55Z</time>
      </trkpt>
      <trkpt lat="42.4054890" lon="-3.2794240">
        <ele>875.6</ele>
        <time>2022-08-29T10:28:56Z</time>
      </trkpt>
      <trkpt lat="42.4054980" lon="-3.2794460">
        <ele>875.6</ele>
        <time>2022-08-29T10:28:57Z</time>
      </trkpt>
      <trkpt lat="42.4055090" lon="-3.2794670">
        <ele>875.8</ele>
        <time>2022-08-29T10:28:58Z</time>
      </trkpt>
      <trkpt lat="42.4055190" lon="-3.2794890">
        <ele>875.8</ele>
        <time>2022-08-29T10:28:59Z</time>
      </trkpt>
      <trkpt lat="42.4055280" lon="-3.2795130">
        <ele>875.8</ele>
        <time>2022-08-29T10:29:00Z</time>
      </trkpt>
      <trkpt lat="42.4055380" lon="-3.2795350">
        <ele>876.0</ele>
        <time>2022-08-29T10:29:01Z</time>
      </trkpt>
      <trkpt lat="42.4055470" lon="-3.2795590">
        <ele>875.8</ele>
        <time>2022-08-29T10:29:02Z</time>
      </trkpt>
      <trkpt lat="42.4055520" lon="-3.2795830">
        <ele>876.0</ele>
        <time>2022-08-29T10:29:03Z</time>
      </trkpt>
      <trkpt lat="42.4055510" lon="-3.2796070">
        <ele>876.0</ele>
        <time>2022-08-29T10:29:04Z</time>
      </trkpt>
      <trkpt lat="42.4055440" lon="-3.2796280">
        <ele>875.8</ele>
        <time>2022-08-29T10:29:05Z</time>
      </trkpt>
      <trkpt lat="42.4055330" lon="-3.2796420">
        <ele>876.0</ele>
        <time>2022-08-29T10:29:06Z</time>
      </trkpt>
      <trkpt lat="42.4055180" lon="-3.2796540">
        <ele>876.0</ele>
        <time>2022-08-29T10:29:07Z</time>
      </trkpt>
      <trkpt lat="42.4055000" lon="-3.2796670">
        <ele>876.0</ele>
        <time>2022-08-29T10:29:08Z</time>
      </trkpt>
      <trkpt lat="42.4054780" lon="-3.2796810">
        <ele>876.0</ele>
        <time>2022-08-29T10:29:09Z</time>
      </trkpt>
      <trkpt lat="42.4054590" lon="-3.2796930">
        <ele>876.0</ele>
        <time>2022-08-29T10:29:10Z</time>
      </trkpt>
      <trkpt lat="42.4054480" lon="-3.2797050">
        <ele>876.0</ele>
        <time>2022-08-29T10:29:11Z</time>
      </trkpt>
      <trkpt lat="42.4054380" lon="-3.2797070">
        <ele>876.0</ele>
        <time>2022-08-29T10:29:12Z</time>
      </trkpt>
      <trkpt lat="42.4054260" lon="-3.2797090">
        <ele>876.2</ele>
        <time>2022-08-29T10:29:13Z</time>
      </trkpt>
      <trkpt lat="42.4054110" lon="-3.2797090">
        <ele>876.2</ele>
        <time>2022-08-29T10:29:14Z</time>
      </trkpt>
      <trkpt lat="42.4053950" lon="-3.2797140">
        <ele>876.4</ele>
        <time>2022-08-29T10:29:15Z</time>
      </trkpt>
      <trkpt lat="42.4053800" lon="-3.2797220">
        <ele>876.4</ele>
        <time>2022-08-29T10:29:16Z</time>
      </trkpt>
      <trkpt lat="42.4053680" lon="-3.2797290">
        <ele>876.4</ele>
        <time>2022-08-29T10:29:17Z</time>
      </trkpt>
      <trkpt lat="42.4053600" lon="-3.2797420">
        <ele>876.6</ele>
        <time>2022-08-29T10:29:18Z</time>
      </trkpt>
      <trkpt lat="42.4053550" lon="-3.2797560">
        <ele>876.8</ele>
        <time>2022-08-29T10:29:19Z</time>
      </trkpt>
      <trkpt lat="42.4053550" lon="-3.2797670">
        <ele>876.8</ele>
        <time>2022-08-29T10:29:20Z</time>
      </trkpt>
      <trkpt lat="42.4053540" lon="-3.2797770">
        <ele>877.0</ele>
        <time>2022-08-29T10:29:21Z</time>
      </trkpt>
      <trkpt lat="42.4053510" lon="-3.2797880">
        <ele>877.0</ele>
        <time>2022-08-29T10:29:22Z</time>
      </trkpt>
      <trkpt lat="42.4053440" lon="-3.2798020">
        <ele>877.2</ele>
        <time>2022-08-29T10:29:23Z</time>
      </trkpt>
      <trkpt lat="42.4053370" lon="-3.2798130">
        <ele>877.2</ele>
        <time>2022-08-29T10:29:24Z</time>
      </trkpt>
      <trkpt lat="42.4053260" lon="-3.2798140">
        <ele>877.2</ele>
        <time>2022-08-29T10:29:25Z</time>
      </trkpt>
      <trkpt lat="42.4053170" lon="-3.2798070">
        <ele>877.2</ele>
        <time>2022-08-29T10:29:26Z</time>
      </trkpt>
      <trkpt lat="42.4053130" lon="-3.2797930">
        <ele>877.4</ele>
        <time>2022-08-29T10:29:27Z</time>
      </trkpt>
      <trkpt lat="42.4053140" lon="-3.2797840">
        <ele>877.2</ele>
        <time>2022-08-29T10:29:28Z</time>
      </trkpt>
      <trkpt lat="42.4053160" lon="-3.2797800">
        <ele>877.4</ele>
        <time>2022-08-29T10:29:29Z</time>
      </trkpt>
      <trkpt lat="42.4053220" lon="-3.2797690">
        <ele>877.2</ele>
        <time>2022-08-29T10:29:30Z</time>
      </trkpt>
      <trkpt lat="42.4053270" lon="-3.2797550">
        <ele>877.4</ele>
        <time>2022-08-29T10:29:31Z</time>
      </trkpt>
      <trkpt lat="42.4053330" lon="-3.2797400">
        <ele>877.4</ele>
        <time>2022-08-29T10:29:32Z</time>
      </trkpt>
      <trkpt lat="42.4053400" lon="-3.2797270">
        <ele>877.4</ele>
        <time>2022-08-29T10:29:33Z</time>
      </trkpt>
      <trkpt lat="42.4053490" lon="-3.2797200">
        <ele>877.4</ele>
        <time>2022-08-29T10:29:34Z</time>
      </trkpt>
      <trkpt lat="42.4053580" lon="-3.2797160">
        <ele>877.2</ele>
        <time>2022-08-29T10:29:35Z</time>
      </trkpt>
      <trkpt lat="42.4053670" lon="-3.2797080">
        <ele>877.4</ele>
        <time>2022-08-29T10:29:36Z</time>
      </trkpt>
      <trkpt lat="42.4053750" lon="-3.2796960">
        <ele>877.2</ele>
        <time>2022-08-29T10:29:37Z</time>
      </trkpt>
      <trkpt lat="42.4053810" lon="-3.2796830">
        <ele>877.2</ele>
        <time>2022-08-29T10:29:38Z</time>
      </trkpt>
      <trkpt lat="42.4053860" lon="-3.2796700">
        <ele>877.2</ele>
        <time>2022-08-29T10:29:39Z</time>
      </trkpt>
      <trkpt lat="42.4053940" lon="-3.2796590">
        <ele>877.2</ele>
        <time>2022-08-29T10:29:40Z</time>
      </trkpt>
      <trkpt lat="42.4054040" lon="-3.2796530">
        <ele>877.2</ele>
        <time>2022-08-29T10:29:41Z</time>
      </trkpt>
      <trkpt lat="42.4054130" lon="-3.2796520">
        <ele>877.0</ele>
        <time>2022-08-29T10:29:42Z</time>
      </trkpt>
      <trkpt lat="42.4054180" lon="-3.2796560">
        <ele>877.0</ele>
        <time>2022-08-29T10:29:43Z</time>
      </trkpt>
      <trkpt lat="42.4054260" lon="-3.2796570">
        <ele>877.0</ele>
        <time>2022-08-29T10:29:44Z</time>
      </trkpt>
      <trkpt lat="42.4054360" lon="-3.2796520">
        <ele>877.0</ele>
        <time>2022-08-29T10:29:45Z</time>
      </trkpt>
      <trkpt lat="42.4054490" lon="-3.2796460">
        <ele>876.8</ele>
        <time>2022-08-29T10:29:46Z</time>
      </trkpt>
      <trkpt lat="42.4054640" lon="-3.2796400">
        <ele>876.8</ele>
        <time>2022-08-29T10:29:47Z</time>
      </trkpt>
      <trkpt lat="42.4054790" lon="-3.2796320">
        <ele>876.8</ele>
        <time>2022-08-29T10:29:48Z</time>
      </trkpt>
      <trkpt lat="42.4054950" lon="-3.2796200">
        <ele>876.8</ele>
        <time>2022-08-29T10:29:49Z</time>
      </trkpt>
      <trkpt lat="42.4055110" lon="-3.2796140">
        <ele>876.6</ele>
        <time>2022-08-29T10:29:50Z</time>
      </trkpt>
      <trkpt lat="42.4055270" lon="-3.2796190">
        <ele>876.4</ele>
        <time>2022-08-29T10:29:51Z</time>
      </trkpt>
      <trkpt lat="42.4055410" lon="-3.2796370">
        <ele>876.4</ele>
        <time>2022-08-29T10:29:52Z</time>
      </trkpt>
      <trkpt lat="42.4055450" lon="-3.2796640">
        <ele>876.4</ele>
        <time>2022-08-29T10:29:53Z</time>
      </trkpt>
      <trkpt lat="42.4055460" lon="-3.2796890">
        <ele>876.2</ele>
        <time>2022-08-29T10:29:54Z</time>
      </trkpt>
      <trkpt lat="42.4055420" lon="-3.2797070">
        <ele>876.2</ele>
        <time>2022-08-29T10:29:55Z</time>
      </trkpt>
      <trkpt lat="42.4055420" lon="-3.2797240">
        <ele>876.0</ele>
        <time>2022-08-29T10:29:56Z</time>
      </trkpt>
      <trkpt lat="42.4055460" lon="-3.2797390">
        <ele>876.0</ele>
        <time>2022-08-29T10:29:57Z</time>
      </trkpt>
      <trkpt lat="42.4055510" lon="-3.2797560">
        <ele>875.8</ele>
        <time>2022-08-29T10:29:58Z</time>
      </trkpt>
      <trkpt lat="42.4055560" lon="-3.2797770">
        <ele>875.8</ele>
        <time>2022-08-29T10:29:59Z</time>
      </trkpt>
      <trkpt lat="42.4055550" lon="-3.2797960">
        <ele>875.4</ele>
        <time>2022-08-29T10:30:00Z</time>
      </trkpt>
      <trkpt lat="42.4055630" lon="-3.2798220">
        <ele>875.2</ele>
        <time>2022-08-29T10:30:01Z</time>
      </trkpt>
      <trkpt lat="42.4055780" lon="-3.2798520">
        <ele>875.2</ele>
        <time>2022-08-29T10:30:02Z</time>
      </trkpt>
      <trkpt lat="42.4055800" lon="-3.2798760">
        <ele>875.2</ele>
        <time>2022-08-29T10:30:03Z</time>
      </trkpt>
      <trkpt lat="42.4055820" lon="-3.2798990">
        <ele>875.2</ele>
        <time>2022-08-29T10:30:04Z</time>
      </trkpt>
      <trkpt lat="42.4055840" lon="-3.2799190">
        <ele>875.2</ele>
        <time>2022-08-29T10:30:05Z</time>
      </trkpt>
      <trkpt lat="42.4055870" lon="-3.2799380">
        <ele>875.2</ele>
        <time>2022-08-29T10:30:06Z</time>
      </trkpt>
      <trkpt lat="42.4055870" lon="-3.2799530">
        <ele>875.0</ele>
        <time>2022-08-29T10:30:07Z</time>
      </trkpt>
      <trkpt lat="42.4055800" lon="-3.2799630">
        <ele>875.2</ele>
        <time>2022-08-29T10:30:08Z</time>
      </trkpt>
      <trkpt lat="42.4055670" lon="-3.2799690">
        <ele>875.0</ele>
        <time>2022-08-29T10:30:09Z</time>
      </trkpt>
      <trkpt lat="42.4055540" lon="-3.2799630">
        <ele>875.0</ele>
        <time>2022-08-29T10:30:10Z</time>
      </trkpt>
      <trkpt lat="42.4055440" lon="-3.2799480">
        <ele>875.0</ele>
        <time>2022-08-29T10:30:11Z</time>
      </trkpt>
      <trkpt lat="42.4055450" lon="-3.2799340">
        <ele>875.2</ele>
        <time>2022-08-29T10:30:12Z</time>
      </trkpt>
      <trkpt lat="42.4055500" lon="-3.2799180">
        <ele>875.0</ele>
        <time>2022-08-29T10:30:13Z</time>
      </trkpt>
      <trkpt lat="42.4055540" lon="-3.2798960">
        <ele>875.2</ele>
        <time>2022-08-29T10:30:14Z</time>
      </trkpt>
      <trkpt lat="42.4055550" lon="-3.2798700">
        <ele>875.2</ele>
        <time>2022-08-29T10:30:15Z</time>
      </trkpt>
      <trkpt lat="42.4055540" lon="-3.2798400">
        <ele>875.2</ele>
        <time>2022-08-29T10:30:16Z</time>
      </trkpt>
      <trkpt lat="42.4055540" lon="-3.2798120">
        <ele>875.0</ele>
        <time>2022-08-29T10:30:17Z</time>
      </trkpt>
      <trkpt lat="42.4055590" lon="-3.2797820">
        <ele>875.0</ele>
        <time>2022-08-29T10:30:18Z</time>
      </trkpt>
      <trkpt lat="42.4055590" lon="-3.2797420">
        <ele>875.0</ele>
        <time>2022-08-29T10:30:19Z</time>
      </trkpt>
      <trkpt lat="42.4055540" lon="-3.2797010">
        <ele>875.0</ele>
        <time>2022-08-29T10:30:20Z</time>
      </trkpt>
      <trkpt lat="42.4055400" lon="-3.2796690">
        <ele>875.0</ele>
        <time>2022-08-29T10:30:21Z</time>
      </trkpt>
      <trkpt lat="42.4055190" lon="-3.2796480">
        <ele>875.0</ele>
        <time>2022-08-29T10:30:22Z</time>
      </trkpt>
      <trkpt lat="42.4054950" lon="-3.2796420">
        <ele>874.8</ele>
        <time>2022-08-29T10:30:23Z</time>
      </trkpt>
      <trkpt lat="42.4054720" lon="-3.2796450">
        <ele>875.0</ele>
        <time>2022-08-29T10:30:24Z</time>
      </trkpt>
      <trkpt lat="42.4054540" lon="-3.2796500">
        <ele>874.8</ele>
        <time>2022-08-29T10:30:25Z</time>
      </trkpt>
      <trkpt lat="42.4054380" lon="-3.2796540">
        <ele>874.8</ele>
        <time>2022-08-29T10:30:26Z</time>
      </trkpt>
      <trkpt lat="42.4054270" lon="-3.2796610">
        <ele>874.6</ele>
        <time>2022-08-29T10:30:27Z</time>
      </trkpt>
      <trkpt lat="42.4054150" lon="-3.2796700">
        <ele>874.6</ele>
        <time>2022-08-29T10:30:28Z</time>
      </trkpt>
      <trkpt lat="42.4054060" lon="-3.2796780">
        <ele>874.8</ele>
        <time>2022-08-29T10:30:29Z</time>
      </trkpt>
      <trkpt lat="42.4054000" lon="-3.2796850">
        <ele>874.6</ele>
        <time>2022-08-29T10:30:30Z</time>
      </trkpt>
      <trkpt lat="42.4053970" lon="-3.2796880">
        <ele>874.8</ele>
        <time>2022-08-29T10:30:31Z</time>
      </trkpt>
      <trkpt lat="42.4054000" lon="-3.2796830">
        <ele>874.6</ele>
        <time>2022-08-29T10:30:32Z</time>
      </trkpt>
      <trkpt lat="42.4054030" lon="-3.2796750">
        <ele>874.6</ele>
        <time>2022-08-29T10:30:33Z</time>
      </trkpt>
      <trkpt lat="42.4054040" lon="-3.2796700">
        <ele>874.6</ele>
        <time>2022-08-29T10:30:34Z</time>
      </trkpt>
      <trkpt lat="42.4054040" lon="-3.2796680">
        <ele>874.6</ele>
        <time>2022-08-29T10:30:35Z</time>
      </trkpt>
      <trkpt lat="42.4054040" lon="-3.2796650">
        <ele>874.6</ele>
        <time>2022-08-29T10:30:36Z</time>
      </trkpt>
      <trkpt lat="42.4054040" lon="-3.2796650">
        <ele>874.6</ele>
        <time>2022-08-29T10:30:37Z</time>
      </trkpt>
      <trkpt lat="42.4054040" lon="-3.2796650">
        <ele>874.6</ele>
        <time>2022-08-29T10:30:38Z</time>
      </trkpt>
      <trkpt lat="42.4054050" lon="-3.2796650">
        <ele>874.6</ele>
        <time>2022-08-29T10:30:39Z</time>
      </trkpt>
      <trkpt lat="42.4054050" lon="-3.2796650">
        <ele>874.6</ele>
        <time>2022-08-29T10:30:40Z</time>
      </trkpt>
      <trkpt lat="42.4054050" lon="-3.2796640">
        <ele>874.6</ele>
        <time>2022-08-29T10:30:41Z</time>
      </trkpt>
      <trkpt lat="42.4054060" lon="-3.2796640">
        <ele>874.6</ele>
        <time>2022-08-29T10:30:42Z</time>
      </trkpt>
      <trkpt lat="42.4054060" lon="-3.2796650">
        <ele>874.6</ele>
        <time>2022-08-29T10:30:43Z</time>
      </trkpt>
      <trkpt lat="42.4054060" lon="-3.2796650">
        <ele>874.6</ele>
        <time>2022-08-29T10:30:44Z</time>
      </trkpt>
      <trkpt lat="42.4054070" lon="-3.2796650">
        <ele>874.6</ele>
        <time>2022-08-29T10:30:45Z</time>
      </trkpt>
      <trkpt lat="42.4054070" lon="-3.2796650">
        <ele>874.4</ele>
        <time>2022-08-29T10:30:46Z</time>
      </trkpt>
      <trkpt lat="42.4054070" lon="-3.2796650">
        <ele>874.6</ele>
        <time>2022-08-29T10:30:47Z</time>
      </trkpt>
      <trkpt lat="42.4054070" lon="-3.2796660">
        <ele>874.4</ele>
        <time>2022-08-29T10:30:48Z</time>
      </trkpt>
      <trkpt lat="42.4054070" lon="-3.2796650">
        <ele>874.4</ele>
        <time>2022-08-29T10:30:49Z</time>
      </trkpt>
      <trkpt lat="42.4054070" lon="-3.2796650">
        <ele>874.4</ele>
        <time>2022-08-29T10:30:50Z</time>
      </trkpt>
      <trkpt lat="42.4054070" lon="-3.2796650">
        <ele>874.4</ele>
        <time>2022-08-29T10:30:51Z</time>
      </trkpt>
      <trkpt lat="42.4054070" lon="-3.2796650">
        <ele>874.4</ele>
        <time>2022-08-29T10:30:52Z</time>
      </trkpt>
      <trkpt lat="42.4054070" lon="-3.2796650">
        <ele>874.2</ele>
        <time>2022-08-29T10:30:53Z</time>
      </trkpt>
      <trkpt lat="42.4054070" lon="-3.2796650">
        <ele>874.2</ele>
        <time>2022-08-29T10:30:54Z</time>
      </trkpt>
      <trkpt lat="42.4054070" lon="-3.2796650">
        <ele>874.2</ele>
        <time>2022-08-29T10:30:55Z</time>
      </trkpt>
      <trkpt lat="42.4054070" lon="-3.2796650">
        <ele>874.2</ele>
        <time>2022-08-29T10:30:56Z</time>
      </trkpt>
      <trkpt lat="42.4054070" lon="-3.2796650">
        <ele>874.4</ele>
        <time>2022-08-29T10:30:57Z</time>
      </trkpt>
      <trkpt lat="42.4054070" lon="-3.2796650">
        <ele>874.2</ele>
        <time>2022-08-29T10:30:58Z</time>
      </trkpt>
      <trkpt lat="42.4054070" lon="-3.2796650">
        <ele>874.2</ele>
        <time>2022-08-29T10:30:59Z</time>
      </trkpt>
      <trkpt lat="42.4054070" lon="-3.2796640">
        <ele>874.2</ele>
        <time>2022-08-29T10:31:00Z</time>
      </trkpt>
      <trkpt lat="42.4054070" lon="-3.2796640">
        <ele>874.0</ele>
        <time>2022-08-29T10:31:01Z</time>
      </trkpt>
      <trkpt lat="42.4054070" lon="-3.2796640">
        <ele>874.0</ele>
        <time>2022-08-29T10:31:02Z</time>
      </trkpt>
      <trkpt lat="42.4054070" lon="-3.2796640">
        <ele>873.8</ele>
        <time>2022-08-29T10:31:03Z</time>
      </trkpt>
      <trkpt lat="42.4054070" lon="-3.2796640">
        <ele>873.8</ele>
        <time>2022-08-29T10:31:04Z</time>
      </trkpt>
      <trkpt lat="42.4054060" lon="-3.2796640">
        <ele>874.0</ele>
        <time>2022-08-29T10:31:05Z</time>
      </trkpt>
      <trkpt lat="42.4054060" lon="-3.2796640">
        <ele>873.8</ele>
        <time>2022-08-29T10:31:06Z</time>
      </trkpt>
      <trkpt lat="42.4054060" lon="-3.2796640">
        <ele>873.8</ele>
        <time>2022-08-29T10:31:07Z</time>
      </trkpt>
      <trkpt lat="42.4054060" lon="-3.2796640">
        <ele>873.8</ele>
        <time>2022-08-29T10:31:08Z</time>
      </trkpt>
      <trkpt lat="42.4054060" lon="-3.2796640">
        <ele>873.8</ele>
        <time>2022-08-29T10:31:09Z</time>
      </trkpt>
      <trkpt lat="42.4054060" lon="-3.2796640">
        <ele>873.8</ele>
        <time>2022-08-29T10:31:10Z</time>
      </trkpt>
      <trkpt lat="42.4054070" lon="-3.2796640">
        <ele>873.6</ele>
        <time>2022-08-29T10:31:11Z</time>
      </trkpt>
      <trkpt lat="42.4054070" lon="-3.2796630">
        <ele>873.8</ele>
        <time>2022-08-29T10:31:12Z</time>
      </trkpt>
      <trkpt lat="42.4054070" lon="-3.2796630">
        <ele>873.6</ele>
        <time>2022-08-29T10:31:13Z</time>
      </trkpt>
      <trkpt lat="42.4054070" lon="-3.2796630">
        <ele>873.6</ele>
        <time>2022-08-29T10:31:14Z</time>
      </trkpt>
      <trkpt lat="42.4054070" lon="-3.2796630">
        <ele>873.6</ele>
        <time>2022-08-29T10:31:15Z</time>
      </trkpt>
      <trkpt lat="42.4054070" lon="-3.2796630">
        <ele>873.6</ele>
        <time>2022-08-29T10:31:16Z</time>
      </trkpt>
      <trkpt lat="42.4054080" lon="-3.2796630">
        <ele>873.6</ele>
        <time>2022-08-29T10:31:17Z</time>
      </trkpt>
      <trkpt lat="42.4054080" lon="-3.2796640">
        <ele>873.4</ele>
        <time>2022-08-29T10:31:18Z</time>
      </trkpt>
      <trkpt lat="42.4054090" lon="-3.2796650">
        <ele>873.6</ele>
        <time>2022-08-29T10:31:19Z</time>
      </trkpt>
      <trkpt lat="42.4054090" lon="-3.2796650">
        <ele>873.4</ele>
        <time>2022-08-29T10:31:20Z</time>
      </trkpt>
      <trkpt lat="42.4054090" lon="-3.2796650">
        <ele>873.4</ele>
        <time>2022-08-29T10:31:21Z</time>
      </trkpt>
      <trkpt lat="42.4054090" lon="-3.2796650">
        <ele>873.4</ele>
        <time>2022-08-29T10:31:22Z</time>
      </trkpt>
      <trkpt lat="42.4054090" lon="-3.2796660">
        <ele>873.6</ele>
        <time>2022-08-29T10:31:23Z</time>
      </trkpt>
      <trkpt lat="42.4054090" lon="-3.2796660">
        <ele>873.4</ele>
        <time>2022-08-29T10:31:24Z</time>
      </trkpt>
      <trkpt lat="42.4054090" lon="-3.2796660">
        <ele>873.4</ele>
        <time>2022-08-29T10:31:25Z</time>
      </trkpt>
      <trkpt lat="42.4054090" lon="-3.2796660">
        <ele>873.4</ele>
        <time>2022-08-29T10:31:26Z</time>
      </trkpt>
      <trkpt lat="42.4054090" lon="-3.2796660">
        <ele>873.2</ele>
        <time>2022-08-29T10:31:27Z</time>
      </trkpt>
      <trkpt lat="42.4054090" lon="-3.2796660">
        <ele>873.2</ele>
        <time>2022-08-29T10:31:28Z</time>
      </trkpt>
      <trkpt lat="42.4054090" lon="-3.2796660">
        <ele>873.4</ele>
        <time>2022-08-29T10:31:29Z</time>
      </trkpt>
      <trkpt lat="42.4054090" lon="-3.2796650">
        <ele>873.4</ele>
        <time>2022-08-29T10:31:30Z</time>
      </trkpt>
      <trkpt lat="42.4054090" lon="-3.2796650">
        <ele>873.2</ele>
        <time>2022-08-29T10:31:31Z</time>
      </trkpt>
      <trkpt lat="42.4054090" lon="-3.2796650">
        <ele>873.2</ele>
        <time>2022-08-29T10:31:32Z</time>
      </trkpt>
      <trkpt lat="42.4054090" lon="-3.2796650">
        <ele>873.2</ele>
        <time>2022-08-29T10:31:33Z</time>
      </trkpt>
      <trkpt lat="42.4054090" lon="-3.2796650">
        <ele>873.2</ele>
        <time>2022-08-29T10:31:34Z</time>
      </trkpt>
      <trkpt lat="42.4054090" lon="-3.2796650">
        <ele>873.2</ele>
        <time>2022-08-29T10:31:35Z</time>
      </trkpt>
      <trkpt lat="42.4054080" lon="-3.2796650">
        <ele>873.2</ele>
        <time>2022-08-29T10:31:36Z</time>
      </trkpt>
      <trkpt lat="42.4054090" lon="-3.2796650">
        <ele>873.2</ele>
        <time>2022-08-29T10:31:37Z</time>
      </trkpt>
      <trkpt lat="42.4054080" lon="-3.2796650">
        <ele>873.0</ele>
        <time>2022-08-29T10:31:38Z</time>
      </trkpt>
      <trkpt lat="42.4054080" lon="-3.2796650">
        <ele>873.2</ele>
        <time>2022-08-29T10:31:39Z</time>
      </trkpt>
      <trkpt lat="42.4054090" lon="-3.2796650">
        <ele>873.2</ele>
        <time>2022-08-29T10:31:40Z</time>
      </trkpt>
      <trkpt lat="42.4054080" lon="-3.2796650">
        <ele>873.2</ele>
        <time>2022-08-29T10:31:41Z</time>
      </trkpt>
      <trkpt lat="42.4054090" lon="-3.2796650">
        <ele>873.0</ele>
        <time>2022-08-29T10:31:42Z</time>
      </trkpt>
      <trkpt lat="42.4054090" lon="-3.2796650">
        <ele>873.0</ele>
        <time>2022-08-29T10:31:43Z</time>
      </trkpt>
      <trkpt lat="42.4054090" lon="-3.2796660">
        <ele>873.0</ele>
        <time>2022-08-29T10:31:44Z</time>
      </trkpt>
      <trkpt lat="42.4054090" lon="-3.2796660">
        <ele>873.0</ele>
        <time>2022-08-29T10:31:45Z</time>
      </trkpt>
      <trkpt lat="42.4054090" lon="-3.2796650">
        <ele>872.8</ele>
        <time>2022-08-29T10:31:46Z</time>
      </trkpt>
      <trkpt lat="42.4054090" lon="-3.2796650">
        <ele>873.0</ele>
        <time>2022-08-29T10:31:47Z</time>
      </trkpt>
      <trkpt lat="42.4054090" lon="-3.2796650">
        <ele>872.8</ele>
        <time>2022-08-29T10:31:48Z</time>
      </trkpt>
      <trkpt lat="42.4054090" lon="-3.2796650">
        <ele>873.0</ele>
        <time>2022-08-29T10:31:49Z</time>
      </trkpt>
      <trkpt lat="42.4054090" lon="-3.2796650">
        <ele>872.8</ele>
        <time>2022-08-29T10:31:50Z</time>
      </trkpt>
      <trkpt lat="42.4054090" lon="-3.2796650">
        <ele>873.0</ele>
        <time>2022-08-29T10:31:51Z</time>
      </trkpt>
      <trkpt lat="42.4054090" lon="-3.2796650">
        <ele>872.8</ele>
        <time>2022-08-29T10:31:52Z</time>
      </trkpt>
      <trkpt lat="42.4054090" lon="-3.2796650">
        <ele>872.8</ele>
        <time>2022-08-29T10:31:53Z</time>
      </trkpt>
      <trkpt lat="42.4054090" lon="-3.2796650">
        <ele>873.0</ele>
        <time>2022-08-29T10:31:54Z</time>
      </trkpt>
      <trkpt lat="42.4054090" lon="-3.2796650">
        <ele>873.0</ele>
        <time>2022-08-29T10:31:55Z</time>
      </trkpt>
      <trkpt lat="42.4054090" lon="-3.2796650">
        <ele>872.8</ele>
        <time>2022-08-29T10:31:56Z</time>
      </trkpt>
      <trkpt lat="42.4054090" lon="-3.2796650">
        <ele>872.8</ele>
        <time>2022-08-29T10:31:57Z</time>
      </trkpt>
      <trkpt lat="42.4054080" lon="-3.2796650">
        <ele>872.8</ele>
        <time>2022-08-29T10:31:58Z</time>
      </trkpt>
      <trkpt lat="42.4054080" lon="-3.2796650">
        <ele>873.0</ele>
        <time>2022-08-29T10:31:59Z</time>
      </trkpt>
      <trkpt lat="42.4054080" lon="-3.2796650">
        <ele>872.8</ele>
        <time>2022-08-29T10:32:00Z</time>
      </trkpt>
      <trkpt lat="42.4054080" lon="-3.2796660">
        <ele>872.8</ele>
        <time>2022-08-29T10:32:01Z</time>
      </trkpt>
      <trkpt lat="42.4054080" lon="-3.2796650">
        <ele>872.8</ele>
        <time>2022-08-29T10:32:02Z</time>
      </trkpt>
      <trkpt lat="42.4054080" lon="-3.2796650">
        <ele>872.8</ele>
        <time>2022-08-29T10:32:03Z</time>
      </trkpt>
      <trkpt lat="42.4054080" lon="-3.2796650">
        <ele>872.8</ele>
        <time>2022-08-29T10:32:04Z</time>
      </trkpt>
      <trkpt lat="42.4054080" lon="-3.2796650">
        <ele>873.0</ele>
        <time>2022-08-29T10:32:05Z</time>
      </trkpt>
      <trkpt lat="42.4054090" lon="-3.2796650">
        <ele>873.0</ele>
        <time>2022-08-29T10:32:06Z</time>
      </trkpt>
      <trkpt lat="42.4054090" lon="-3.2796650">
        <ele>872.8</ele>
        <time>2022-08-29T10:32:07Z</time>
      </trkpt>
      <trkpt lat="42.4054090" lon="-3.2796650">
        <ele>872.8</ele>
        <time>2022-08-29T10:32:08Z</time>
      </trkpt>
      <trkpt lat="42.4054090" lon="-3.2796650">
        <ele>872.8</ele>
        <time>2022-08-29T10:32:09Z</time>
      </trkpt>
      <trkpt lat="42.4054090" lon="-3.2796650">
        <ele>872.8</ele>
        <time>2022-08-29T10:32:10Z</time>
      </trkpt>
      <trkpt lat="42.4054090" lon="-3.2796650">
        <ele>873.0</ele>
        <time>2022-08-29T10:32:11Z</time>
      </trkpt>
      <trkpt lat="42.4054090" lon="-3.2796650">
        <ele>872.8</ele>
        <time>2022-08-29T10:32:12Z</time>
      </trkpt>
      <trkpt lat="42.4054080" lon="-3.2796650">
        <ele>872.8</ele>
        <time>2022-08-29T10:32:13Z</time>
      </trkpt>
      <trkpt lat="42.4054080" lon="-3.2796650">
        <ele>872.8</ele>
        <time>2022-08-29T10:32:14Z</time>
      </trkpt>
      <trkpt lat="42.4054080" lon="-3.2796650">
        <ele>872.8</ele>
        <time>2022-08-29T10:32:15Z</time>
      </trkpt>
      <trkpt lat="42.4054090" lon="-3.2796650">
        <ele>872.8</ele>
        <time>2022-08-29T10:32:16Z</time>
      </trkpt>
      <trkpt lat="42.4054080" lon="-3.2796650">
        <ele>872.8</ele>
        <time>2022-08-29T10:32:17Z</time>
      </trkpt>
      <trkpt lat="42.4054080" lon="-3.2796650">
        <ele>872.8</ele>
        <time>2022-08-29T10:32:18Z</time>
      </trkpt>
      <trkpt lat="42.4054080" lon="-3.2796650">
        <ele>873.0</ele>
        <time>2022-08-29T10:32:19Z</time>
      </trkpt>
      <trkpt lat="42.4054080" lon="-3.2796650">
        <ele>872.8</ele>
        <time>2022-08-29T10:32:20Z</time>
      </trkpt>
      <trkpt lat="42.4054080" lon="-3.2796650">
        <ele>872.8</ele>
        <time>2022-08-29T10:32:21Z</time>
      </trkpt>
      <trkpt lat="42.4054080" lon="-3.2796650">
        <ele>872.8</ele>
        <time>2022-08-29T10:32:22Z</time>
      </trkpt>
      <trkpt lat="42.4054080" lon="-3.2796650">
        <ele>872.8</ele>
        <time>2022-08-29T10:32:23Z</time>
      </trkpt>
      <trkpt lat="42.4054080" lon="-3.2796650">
        <ele>872.8</ele>
        <time>2022-08-29T10:32:24Z</time>
      </trkpt>
      <trkpt lat="42.4054090" lon="-3.2796650">
        <ele>872.8</ele>
        <time>2022-08-29T10:32:25Z</time>
      </trkpt>
      <trkpt lat="42.4054090" lon="-3.2796650">
        <ele>872.6</ele>
        <time>2022-08-29T10:32:26Z</time>
      </trkpt>
      <trkpt lat="42.4054090" lon="-3.2796650">
        <ele>872.6</ele>
        <time>2022-08-29T10:32:27Z</time>
      </trkpt>
      <trkpt lat="42.4054090" lon="-3.2796650">
        <ele>872.6</ele>
        <time>2022-08-29T10:32:28Z</time>
      </trkpt>
      <trkpt lat="42.4054090" lon="-3.2796650">
        <ele>872.6</ele>
        <time>2022-08-29T10:32:29Z</time>
      </trkpt>
      <trkpt lat="42.4054090" lon="-3.2796650">
        <ele>872.6</ele>
        <time>2022-08-29T10:32:30Z</time>
      </trkpt>
      <trkpt lat="42.4054090" lon="-3.2796650">
        <ele>872.6</ele>
        <time>2022-08-29T10:32:31Z</time>
      </trkpt>
      <trkpt lat="42.4054090" lon="-3.2796650">
        <ele>872.6</ele>
        <time>2022-08-29T10:32:32Z</time>
      </trkpt>
      <trkpt lat="42.4054090" lon="-3.2796650">
        <ele>872.6</ele>
        <time>2022-08-29T10:32:33Z</time>
      </trkpt>
      <trkpt lat="42.4054090" lon="-3.2796650">
        <ele>872.6</ele>
        <time>2022-08-29T10:32:34Z</time>
      </trkpt>
      <trkpt lat="42.4054090" lon="-3.2796650">
        <ele>872.6</ele>
        <time>2022-08-29T10:32:35Z</time>
      </trkpt>
      <trkpt lat="42.4054090" lon="-3.2796650">
        <ele>872.6</ele>
        <time>2022-08-29T10:32:36Z</time>
      </trkpt>
      <trkpt lat="42.4054090" lon="-3.2796640">
        <ele>872.4</ele>
        <time>2022-08-29T10:32:37Z</time>
      </trkpt>
      <trkpt lat="42.4054090" lon="-3.2796640">
        <ele>872.4</ele>
        <time>2022-08-29T10:32:38Z</time>
      </trkpt>
      <trkpt lat="42.4054090" lon="-3.2796640">
        <ele>872.6</ele>
        <time>2022-08-29T10:32:39Z</time>
      </trkpt>
      <trkpt lat="42.4054090" lon="-3.2796640">
        <ele>872.4</ele>
        <time>2022-08-29T10:32:40Z</time>
      </trkpt>
      <trkpt lat="42.4054090" lon="-3.2796630">
        <ele>872.4</ele>
        <time>2022-08-29T10:32:41Z</time>
      </trkpt>
      <trkpt lat="42.4054090" lon="-3.2796630">
        <ele>872.4</ele>
        <time>2022-08-29T10:32:42Z</time>
      </trkpt>
      <trkpt lat="42.4054090" lon="-3.2796630">
        <ele>872.4</ele>
        <time>2022-08-29T10:32:43Z</time>
      </trkpt>
      <trkpt lat="42.4054090" lon="-3.2796630">
        <ele>872.4</ele>
        <time>2022-08-29T10:32:44Z</time>
      </trkpt>
      <trkpt lat="42.4054090" lon="-3.2796630">
        <ele>872.4</ele>
        <time>2022-08-29T10:32:45Z</time>
      </trkpt>
      <trkpt lat="42.4054090" lon="-3.2796630">
        <ele>872.2</ele>
        <time>2022-08-29T10:32:46Z</time>
      </trkpt>
      <trkpt lat="42.4054090" lon="-3.2796630">
        <ele>872.2</ele>
        <time>2022-08-29T10:32:47Z</time>
      </trkpt>
      <trkpt lat="42.4054090" lon="-3.2796630">
        <ele>872.2</ele>
        <time>2022-08-29T10:32:48Z</time>
      </trkpt>
      <trkpt lat="42.4054090" lon="-3.2796630">
        <ele>872.2</ele>
        <time>2022-08-29T10:32:49Z</time>
      </trkpt>
      <trkpt lat="42.4054090" lon="-3.2796630">
        <ele>872.2</ele>
        <time>2022-08-29T10:32:50Z</time>
      </trkpt>
      <trkpt lat="42.4054090" lon="-3.2796630">
        <ele>872.2</ele>
        <time>2022-08-29T10:32:51Z</time>
      </trkpt>
      <trkpt lat="42.4054090" lon="-3.2796630">
        <ele>872.2</ele>
        <time>2022-08-29T10:32:52Z</time>
      </trkpt>
      <trkpt lat="42.4054140" lon="-3.2796690">
        <ele>872.0</ele>
        <time>2022-08-29T10:32:53Z</time>
      </trkpt>
      <trkpt lat="42.4054160" lon="-3.2796750">
        <ele>872.0</ele>
        <time>2022-08-29T10:32:54Z</time>
      </trkpt>
      <trkpt lat="42.4054170" lon="-3.2796780">
        <ele>872.0</ele>
        <time>2022-08-29T10:32:55Z</time>
      </trkpt>
      <trkpt lat="42.4054190" lon="-3.2796780">
        <ele>872.0</ele>
        <time>2022-08-29T10:32:56Z</time>
      </trkpt>
      <trkpt lat="42.4054180" lon="-3.2796750">
        <ele>872.2</ele>
        <time>2022-08-29T10:32:57Z</time>
      </trkpt>
      <trkpt lat="42.4054170" lon="-3.2796720">
        <ele>872.0</ele>
        <time>2022-08-29T10:32:58Z</time>
      </trkpt>
      <trkpt lat="42.4054170" lon="-3.2796710">
        <ele>872.0</ele>
        <time>2022-08-29T10:32:59Z</time>
      </trkpt>
      <trkpt lat="42.4054170" lon="-3.2796710">
        <ele>872.0</ele>
        <time>2022-08-29T10:33:00Z</time>
      </trkpt>
      <trkpt lat="42.4054170" lon="-3.2796700">
        <ele>872.0</ele>
        <time>2022-08-29T10:33:01Z</time>
      </trkpt>
      <trkpt lat="42.4054160" lon="-3.2796700">
        <ele>872.0</ele>
        <time>2022-08-29T10:33:02Z</time>
      </trkpt>
      <trkpt lat="42.4054160" lon="-3.2796700">
        <ele>872.0</ele>
        <time>2022-08-29T10:33:03Z</time>
      </trkpt>
      <trkpt lat="42.4054170" lon="-3.2796700">
        <ele>871.8</ele>
        <time>2022-08-29T10:33:04Z</time>
      </trkpt>
      <trkpt lat="42.4054170" lon="-3.2796710">
        <ele>872.0</ele>
        <time>2022-08-29T10:33:05Z</time>
      </trkpt>
      <trkpt lat="42.4054170" lon="-3.2796700">
        <ele>871.8</ele>
        <time>2022-08-29T10:33:06Z</time>
      </trkpt>
      <trkpt lat="42.4054170" lon="-3.2796700">
        <ele>871.8</ele>
        <time>2022-08-29T10:33:07Z</time>
      </trkpt>
      <trkpt lat="42.4054170" lon="-3.2796700">
        <ele>871.6</ele>
        <time>2022-08-29T10:33:08Z</time>
      </trkpt>
      <trkpt lat="42.4054160" lon="-3.2796700">
        <ele>871.6</ele>
        <time>2022-08-29T10:33:09Z</time>
      </trkpt>
      <trkpt lat="42.4054160" lon="-3.2796700">
        <ele>871.4</ele>
        <time>2022-08-29T10:33:10Z</time>
      </trkpt>
      <trkpt lat="42.4054160" lon="-3.2796700">
        <ele>871.4</ele>
        <time>2022-08-29T10:33:11Z</time>
      </trkpt>
      <trkpt lat="42.4054160" lon="-3.2796700">
        <ele>871.4</ele>
        <time>2022-08-29T10:33:12Z</time>
      </trkpt>
      <trkpt lat="42.4054160" lon="-3.2796700">
        <ele>871.4</ele>
        <time>2022-08-29T10:33:13Z</time>
      </trkpt>
      <trkpt lat="42.4054160" lon="-3.2796690">
        <ele>871.4</ele>
        <time>2022-08-29T10:33:14Z</time>
      </trkpt>
      <trkpt lat="42.4054160" lon="-3.2796690">
        <ele>871.4</ele>
        <time>2022-08-29T10:33:15Z</time>
      </trkpt>
      <trkpt lat="42.4054160" lon="-3.2796690">
        <ele>871.2</ele>
        <time>2022-08-29T10:33:16Z</time>
      </trkpt>
      <trkpt lat="42.4054160" lon="-3.2796690">
        <ele>871.2</ele>
        <time>2022-08-29T10:33:17Z</time>
      </trkpt>
      <trkpt lat="42.4054160" lon="-3.2796690">
        <ele>871.4</ele>
        <time>2022-08-29T10:33:18Z</time>
      </trkpt>
      <trkpt lat="42.4054160" lon="-3.2796690">
        <ele>871.2</ele>
        <time>2022-08-29T10:33:19Z</time>
      </trkpt>
      <trkpt lat="42.4054160" lon="-3.2796690">
        <ele>871.2</ele>
        <time>2022-08-29T10:33:20Z</time>
      </trkpt>
      <trkpt lat="42.4054160" lon="-3.2796690">
        <ele>871.2</ele>
        <time>2022-08-29T10:33:21Z</time>
      </trkpt>
      <trkpt lat="42.4054160" lon="-3.2796690">
        <ele>871.2</ele>
        <time>2022-08-29T10:33:22Z</time>
      </trkpt>
      <trkpt lat="42.4054160" lon="-3.2796690">
        <ele>871.2</ele>
        <time>2022-08-29T10:33:23Z</time>
      </trkpt>
      <trkpt lat="42.4054160" lon="-3.2796690">
        <ele>871.0</ele>
        <time>2022-08-29T10:33:24Z</time>
      </trkpt>
      <trkpt lat="42.4054160" lon="-3.2796690">
        <ele>871.0</ele>
        <time>2022-08-29T10:33:25Z</time>
      </trkpt>
      <trkpt lat="42.4054160" lon="-3.2796690">
        <ele>871.0</ele>
        <time>2022-08-29T10:33:26Z</time>
      </trkpt>
      <trkpt lat="42.4054160" lon="-3.2796690">
        <ele>871.0</ele>
        <time>2022-08-29T10:33:27Z</time>
      </trkpt>
      <trkpt lat="42.4054160" lon="-3.2796690">
        <ele>871.0</ele>
        <time>2022-08-29T10:33:28Z</time>
      </trkpt>
      <trkpt lat="42.4054160" lon="-3.2796690">
        <ele>870.8</ele>
        <time>2022-08-29T10:33:29Z</time>
      </trkpt>
      <trkpt lat="42.4054150" lon="-3.2796690">
        <ele>870.8</ele>
        <time>2022-08-29T10:33:30Z</time>
      </trkpt>
      <trkpt lat="42.4054150" lon="-3.2796690">
        <ele>870.6</ele>
        <time>2022-08-29T10:33:31Z</time>
      </trkpt>
      <trkpt lat="42.4054150" lon="-3.2796690">
        <ele>870.8</ele>
        <time>2022-08-29T10:33:32Z</time>
      </trkpt>
      <trkpt lat="42.4054150" lon="-3.2796690">
        <ele>870.8</ele>
        <time>2022-08-29T10:33:33Z</time>
      </trkpt>
      <trkpt lat="42.4054160" lon="-3.2796680">
        <ele>870.6</ele>
        <time>2022-08-29T10:33:34Z</time>
      </trkpt>
      <trkpt lat="42.4054160" lon="-3.2796670">
        <ele>870.6</ele>
        <time>2022-08-29T10:33:35Z</time>
      </trkpt>
      <trkpt lat="42.4054170" lon="-3.2796670">
        <ele>870.6</ele>
        <time>2022-08-29T10:33:36Z</time>
      </trkpt>
      <trkpt lat="42.4054180" lon="-3.2796670">
        <ele>870.6</ele>
        <time>2022-08-29T10:33:37Z</time>
      </trkpt>
      <trkpt lat="42.4054180" lon="-3.2796670">
        <ele>870.4</ele>
        <time>2022-08-29T10:33:38Z</time>
      </trkpt>
      <trkpt lat="42.4054180" lon="-3.2796680">
        <ele>870.4</ele>
        <time>2022-08-29T10:33:39Z</time>
      </trkpt>
      <trkpt lat="42.4054190" lon="-3.2796680">
        <ele>870.4</ele>
        <time>2022-08-29T10:33:40Z</time>
      </trkpt>
      <trkpt lat="42.4054190" lon="-3.2796680">
        <ele>870.4</ele>
        <time>2022-08-29T10:33:41Z</time>
      </trkpt>
      <trkpt lat="42.4054190" lon="-3.2796680">
        <ele>870.4</ele>
        <time>2022-08-29T10:33:42Z</time>
      </trkpt>
      <trkpt lat="42.4054200" lon="-3.2796680">
        <ele>870.2</ele>
        <time>2022-08-29T10:33:43Z</time>
      </trkpt>
      <trkpt lat="42.4054200" lon="-3.2796690">
        <ele>870.0</ele>
        <time>2022-08-29T10:33:44Z</time>
      </trkpt>
      <trkpt lat="42.4054200" lon="-3.2796690">
        <ele>870.0</ele>
        <time>2022-08-29T10:33:45Z</time>
      </trkpt>
      <trkpt lat="42.4054210" lon="-3.2796690">
        <ele>870.0</ele>
        <time>2022-08-29T10:33:46Z</time>
      </trkpt>
      <trkpt lat="42.4054210" lon="-3.2796690">
        <ele>870.0</ele>
        <time>2022-08-29T10:33:47Z</time>
      </trkpt>
      <trkpt lat="42.4054220" lon="-3.2796690">
        <ele>870.0</ele>
        <time>2022-08-29T10:33:48Z</time>
      </trkpt>
      <trkpt lat="42.4054220" lon="-3.2796690">
        <ele>869.8</ele>
        <time>2022-08-29T10:33:49Z</time>
      </trkpt>
      <trkpt lat="42.4054220" lon="-3.2796700">
        <ele>869.8</ele>
        <time>2022-08-29T10:33:50Z</time>
      </trkpt>
      <trkpt lat="42.4054230" lon="-3.2796700">
        <ele>869.8</ele>
        <time>2022-08-29T10:33:51Z</time>
      </trkpt>
      <trkpt lat="42.4054220" lon="-3.2796700">
        <ele>869.8</ele>
        <time>2022-08-29T10:33:52Z</time>
      </trkpt>
      <trkpt lat="42.4054220" lon="-3.2796700">
        <ele>869.8</ele>
        <time>2022-08-29T10:33:53Z</time>
      </trkpt>
      <trkpt lat="42.4054220" lon="-3.2796700">
        <ele>869.8</ele>
        <time>2022-08-29T10:33:54Z</time>
      </trkpt>
      <trkpt lat="42.4054220" lon="-3.2796700">
        <ele>869.6</ele>
        <time>2022-08-29T10:33:55Z</time>
      </trkpt>
      <trkpt lat="42.4054220" lon="-3.2796700">
        <ele>869.6</ele>
        <time>2022-08-29T10:33:56Z</time>
      </trkpt>
      <trkpt lat="42.4054220" lon="-3.2796700">
        <ele>869.6</ele>
        <time>2022-08-29T10:33:57Z</time>
      </trkpt>
      <trkpt lat="42.4054220" lon="-3.2796700">
        <ele>869.6</ele>
        <time>2022-08-29T10:33:58Z</time>
      </trkpt>
      <trkpt lat="42.4054220" lon="-3.2796700">
        <ele>869.6</ele>
        <time>2022-08-29T10:33:59Z</time>
      </trkpt>
      <trkpt lat="42.4054220" lon="-3.2796700">
        <ele>869.6</ele>
        <time>2022-08-29T10:34:00Z</time>
      </trkpt>
      <trkpt lat="42.4054220" lon="-3.2796700">
        <ele>869.4</ele>
        <time>2022-08-29T10:34:01Z</time>
      </trkpt>
      <trkpt lat="42.4054220" lon="-3.2796700">
        <ele>869.6</ele>
        <time>2022-08-29T10:34:02Z</time>
      </trkpt>
      <trkpt lat="42.4054220" lon="-3.2796700">
        <ele>869.6</ele>
        <time>2022-08-29T10:34:03Z</time>
      </trkpt>
      <trkpt lat="42.4054220" lon="-3.2796700">
        <ele>869.4</ele>
        <time>2022-08-29T10:34:04Z</time>
      </trkpt>
      <trkpt lat="42.4054220" lon="-3.2796700">
        <ele>869.4</ele>
        <time>2022-08-29T10:34:05Z</time>
      </trkpt>
      <trkpt lat="42.4054220" lon="-3.2796690">
        <ele>869.4</ele>
        <time>2022-08-29T10:34:06Z</time>
      </trkpt>
      <trkpt lat="42.4054230" lon="-3.2796690">
        <ele>869.2</ele>
        <time>2022-08-29T10:34:07Z</time>
      </trkpt>
      <trkpt lat="42.4054230" lon="-3.2796690">
        <ele>869.2</ele>
        <time>2022-08-29T10:34:08Z</time>
      </trkpt>
      <trkpt lat="42.4054230" lon="-3.2796690">
        <ele>869.2</ele>
        <time>2022-08-29T10:34:09Z</time>
      </trkpt>
      <trkpt lat="42.4054230" lon="-3.2796680">
        <ele>869.2</ele>
        <time>2022-08-29T10:34:10Z</time>
      </trkpt>
      <trkpt lat="42.4054240" lon="-3.2796680">
        <ele>869.0</ele>
        <time>2022-08-29T10:34:11Z</time>
      </trkpt>
      <trkpt lat="42.4054240" lon="-3.2796680">
        <ele>869.0</ele>
        <time>2022-08-29T10:34:12Z</time>
      </trkpt>
      <trkpt lat="42.4054240" lon="-3.2796680">
        <ele>869.0</ele>
        <time>2022-08-29T10:34:13Z</time>
      </trkpt>
      <trkpt lat="42.4054240" lon="-3.2796680">
        <ele>869.0</ele>
        <time>2022-08-29T10:34:14Z</time>
      </trkpt>
      <trkpt lat="42.4054240" lon="-3.2796680">
        <ele>869.0</ele>
        <time>2022-08-29T10:34:15Z</time>
      </trkpt>
      <trkpt lat="42.4054240" lon="-3.2796680">
        <ele>869.0</ele>
        <time>2022-08-29T10:34:16Z</time>
      </trkpt>
      <trkpt lat="42.4054240" lon="-3.2796680">
        <ele>869.0</ele>
        <time>2022-08-29T10:34:17Z</time>
      </trkpt>
      <trkpt lat="42.4054250" lon="-3.2796680">
        <ele>869.0</ele>
        <time>2022-08-29T10:34:18Z</time>
      </trkpt>
      <trkpt lat="42.4054250" lon="-3.2796680">
        <ele>869.0</ele>
        <time>2022-08-29T10:34:19Z</time>
      </trkpt>
      <trkpt lat="42.4054250" lon="-3.2796680">
        <ele>868.8</ele>
        <time>2022-08-29T10:34:20Z</time>
      </trkpt>
      <trkpt lat="42.4054250" lon="-3.2796680">
        <ele>869.0</ele>
        <time>2022-08-29T10:34:21Z</time>
      </trkpt>
      <trkpt lat="42.4054250" lon="-3.2796680">
        <ele>869.0</ele>
        <time>2022-08-29T10:34:22Z</time>
      </trkpt>
      <trkpt lat="42.4054250" lon="-3.2796680">
        <ele>868.8</ele>
        <time>2022-08-29T10:34:23Z</time>
      </trkpt>
      <trkpt lat="42.4054250" lon="-3.2796680">
        <ele>868.8</ele>
        <time>2022-08-29T10:34:24Z</time>
      </trkpt>
      <trkpt lat="42.4054250" lon="-3.2796680">
        <ele>869.0</ele>
        <time>2022-08-29T10:34:25Z</time>
      </trkpt>
      <trkpt lat="42.4054250" lon="-3.2796680">
        <ele>868.8</ele>
        <time>2022-08-29T10:34:26Z</time>
      </trkpt>
      <trkpt lat="42.4054250" lon="-3.2796680">
        <ele>868.8</ele>
        <time>2022-08-29T10:34:27Z</time>
      </trkpt>
      <trkpt lat="42.4054250" lon="-3.2796680">
        <ele>868.8</ele>
        <time>2022-08-29T10:34:28Z</time>
      </trkpt>
      <trkpt lat="42.4054250" lon="-3.2796680">
        <ele>868.8</ele>
        <time>2022-08-29T10:34:29Z</time>
      </trkpt>
      <trkpt lat="42.4054250" lon="-3.2796680">
        <ele>868.8</ele>
        <time>2022-08-29T10:34:30Z</time>
      </trkpt>
      <trkpt lat="42.4054250" lon="-3.2796680">
        <ele>869.0</ele>
        <time>2022-08-29T10:34:31Z</time>
      </trkpt>
      <trkpt lat="42.4054250" lon="-3.2796680">
        <ele>868.8</ele>
        <time>2022-08-29T10:34:32Z</time>
      </trkpt>
      <trkpt lat="42.4054250" lon="-3.2796680">
        <ele>868.8</ele>
        <time>2022-08-29T10:34:33Z</time>
      </trkpt>
      <trkpt lat="42.4054250" lon="-3.2796680">
        <ele>868.8</ele>
        <time>2022-08-29T10:34:34Z</time>
      </trkpt>
      <trkpt lat="42.4054250" lon="-3.2796680">
        <ele>868.8</ele>
        <time>2022-08-29T10:34:35Z</time>
      </trkpt>
      <trkpt lat="42.4054250" lon="-3.2796680">
        <ele>868.6</ele>
        <time>2022-08-29T10:34:36Z</time>
      </trkpt>
      <trkpt lat="42.4054250" lon="-3.2796680">
        <ele>868.8</ele>
        <time>2022-08-29T10:34:37Z</time>
      </trkpt>
      <trkpt lat="42.4054250" lon="-3.2796680">
        <ele>868.8</ele>
        <time>2022-08-29T10:34:38Z</time>
      </trkpt>
      <trkpt lat="42.4054250" lon="-3.2796680">
        <ele>868.8</ele>
        <time>2022-08-29T10:34:39Z</time>
      </trkpt>
      <trkpt lat="42.4054250" lon="-3.2796680">
        <ele>868.8</ele>
        <time>2022-08-29T10:34:40Z</time>
      </trkpt>
      <trkpt lat="42.4054250" lon="-3.2796680">
        <ele>868.8</ele>
        <time>2022-08-29T10:34:41Z</time>
      </trkpt>
      <trkpt lat="42.4054250" lon="-3.2796680">
        <ele>869.0</ele>
        <time>2022-08-29T10:34:42Z</time>
      </trkpt>
      <trkpt lat="42.4054250" lon="-3.2796680">
        <ele>868.8</ele>
        <time>2022-08-29T10:34:43Z</time>
      </trkpt>
      <trkpt lat="42.4054250" lon="-3.2796680">
        <ele>868.8</ele>
        <time>2022-08-29T10:34:44Z</time>
      </trkpt>
      <trkpt lat="42.4054250" lon="-3.2796680">
        <ele>869.0</ele>
        <time>2022-08-29T10:34:45Z</time>
      </trkpt>
      <trkpt lat="42.4054260" lon="-3.2796670">
        <ele>868.8</ele>
        <time>2022-08-29T10:34:46Z</time>
      </trkpt>
      <trkpt lat="42.4054260" lon="-3.2796670">
        <ele>869.0</ele>
        <time>2022-08-29T10:34:47Z</time>
      </trkpt>
      <trkpt lat="42.4054260" lon="-3.2796670">
        <ele>869.0</ele>
        <time>2022-08-29T10:34:48Z</time>
      </trkpt>
      <trkpt lat="42.4054260" lon="-3.2796670">
        <ele>869.0</ele>
        <time>2022-08-29T10:34:49Z</time>
      </trkpt>
      <trkpt lat="42.4054260" lon="-3.2796670">
        <ele>869.0</ele>
        <time>2022-08-29T10:34:50Z</time>
      </trkpt>
      <trkpt lat="42.4054260" lon="-3.2796670">
        <ele>869.0</ele>
        <time>2022-08-29T10:34:51Z</time>
      </trkpt>
      <trkpt lat="42.4054260" lon="-3.2796670">
        <ele>869.0</ele>
        <time>2022-08-29T10:34:52Z</time>
      </trkpt>
      <trkpt lat="42.4054260" lon="-3.2796670">
        <ele>869.0</ele>
        <time>2022-08-29T10:34:53Z</time>
      </trkpt>
      <trkpt lat="42.4054260" lon="-3.2796670">
        <ele>869.0</ele>
        <time>2022-08-29T10:34:54Z</time>
      </trkpt>
      <trkpt lat="42.4054260" lon="-3.2796680">
        <ele>869.0</ele>
        <time>2022-08-29T10:34:55Z</time>
      </trkpt>
      <trkpt lat="42.4054260" lon="-3.2796680">
        <ele>869.0</ele>
        <time>2022-08-29T10:34:56Z</time>
      </trkpt>
      <trkpt lat="42.4054260" lon="-3.2796680">
        <ele>869.0</ele>
        <time>2022-08-29T10:34:57Z</time>
      </trkpt>
      <trkpt lat="42.4054260" lon="-3.2796670">
        <ele>869.0</ele>
        <time>2022-08-29T10:34:58Z</time>
      </trkpt>
      <trkpt lat="42.4054260" lon="-3.2796670">
        <ele>869.0</ele>
        <time>2022-08-29T10:34:59Z</time>
      </trkpt>
      <trkpt lat="42.4054260" lon="-3.2796670">
        <ele>869.0</ele>
        <time>2022-08-29T10:35:00Z</time>
      </trkpt>
      <trkpt lat="42.4054260" lon="-3.2796680">
        <ele>869.0</ele>
        <time>2022-08-29T10:35:01Z</time>
      </trkpt>
      <trkpt lat="42.4054260" lon="-3.2796680">
        <ele>869.0</ele>
        <time>2022-08-29T10:35:02Z</time>
      </trkpt>
      <trkpt lat="42.4054260" lon="-3.2796680">
        <ele>869.2</ele>
        <time>2022-08-29T10:35:03Z</time>
      </trkpt>
      <trkpt lat="42.4054260" lon="-3.2796680">
        <ele>869.2</ele>
        <time>2022-08-29T10:35:04Z</time>
      </trkpt>
      <trkpt lat="42.4054260" lon="-3.2796680">
        <ele>869.0</ele>
        <time>2022-08-29T10:35:05Z</time>
      </trkpt>
      <trkpt lat="42.4054260" lon="-3.2796680">
        <ele>869.2</ele>
        <time>2022-08-29T10:35:06Z</time>
      </trkpt>
      <trkpt lat="42.4054270" lon="-3.2796680">
        <ele>869.0</ele>
        <time>2022-08-29T10:35:07Z</time>
      </trkpt>
      <trkpt lat="42.4054270" lon="-3.2796680">
        <ele>869.2</ele>
        <time>2022-08-29T10:35:08Z</time>
      </trkpt>
      <trkpt lat="42.4054270" lon="-3.2796680">
        <ele>869.0</ele>
        <time>2022-08-29T10:35:09Z</time>
      </trkpt>
      <trkpt lat="42.4054270" lon="-3.2796680">
        <ele>869.0</ele>
        <time>2022-08-29T10:35:10Z</time>
      </trkpt>
      <trkpt lat="42.4054270" lon="-3.2796680">
        <ele>869.0</ele>
        <time>2022-08-29T10:35:11Z</time>
      </trkpt>
      <trkpt lat="42.4054270" lon="-3.2796680">
        <ele>869.0</ele>
        <time>2022-08-29T10:35:12Z</time>
      </trkpt>
      <trkpt lat="42.4054270" lon="-3.2796680">
        <ele>869.0</ele>
        <time>2022-08-29T10:35:13Z</time>
      </trkpt>
      <trkpt lat="42.4054270" lon="-3.2796680">
        <ele>869.0</ele>
        <time>2022-08-29T10:35:14Z</time>
      </trkpt>
      <trkpt lat="42.4054270" lon="-3.2796690">
        <ele>869.0</ele>
        <time>2022-08-29T10:35:15Z</time>
      </trkpt>
      <trkpt lat="42.4054270" lon="-3.2796690">
        <ele>869.0</ele>
        <time>2022-08-29T10:35:16Z</time>
      </trkpt>
      <trkpt lat="42.4054270" lon="-3.2796690">
        <ele>868.8</ele>
        <time>2022-08-29T10:35:17Z</time>
      </trkpt>
      <trkpt lat="42.4054280" lon="-3.2796690">
        <ele>868.8</ele>
        <time>2022-08-29T10:35:18Z</time>
      </trkpt>
      <trkpt lat="42.4054280" lon="-3.2796690">
        <ele>868.8</ele>
        <time>2022-08-29T10:35:19Z</time>
      </trkpt>
      <trkpt lat="42.4054280" lon="-3.2796690">
        <ele>868.8</ele>
        <time>2022-08-29T10:35:20Z</time>
      </trkpt>
      <trkpt lat="42.4054280" lon="-3.2796690">
        <ele>868.6</ele>
        <time>2022-08-29T10:35:21Z</time>
      </trkpt>
      <trkpt lat="42.4054280" lon="-3.2796690">
        <ele>868.6</ele>
        <time>2022-08-29T10:35:22Z</time>
      </trkpt>
      <trkpt lat="42.4054280" lon="-3.2796690">
        <ele>868.4</ele>
        <time>2022-08-29T10:35:23Z</time>
      </trkpt>
      <trkpt lat="42.4054280" lon="-3.2796690">
        <ele>868.4</ele>
        <time>2022-08-29T10:35:24Z</time>
      </trkpt>
      <trkpt lat="42.4054280" lon="-3.2796690">
        <ele>868.4</ele>
        <time>2022-08-29T10:35:25Z</time>
      </trkpt>
      <trkpt lat="42.4054280" lon="-3.2796690">
        <ele>868.6</ele>
        <time>2022-08-29T10:35:26Z</time>
      </trkpt>
      <trkpt lat="42.4054280" lon="-3.2796690">
        <ele>868.4</ele>
        <time>2022-08-29T10:35:27Z</time>
      </trkpt>
      <trkpt lat="42.4054280" lon="-3.2796690">
        <ele>868.4</ele>
        <time>2022-08-29T10:35:28Z</time>
      </trkpt>
      <trkpt lat="42.4054280" lon="-3.2796690">
        <ele>868.4</ele>
        <time>2022-08-29T10:35:29Z</time>
      </trkpt>
      <trkpt lat="42.4054270" lon="-3.2796690">
        <ele>868.4</ele>
        <time>2022-08-29T10:35:30Z</time>
      </trkpt>
      <trkpt lat="42.4054280" lon="-3.2796690">
        <ele>868.4</ele>
        <time>2022-08-29T10:35:31Z</time>
      </trkpt>
      <trkpt lat="42.4054280" lon="-3.2796700">
        <ele>868.6</ele>
        <time>2022-08-29T10:35:32Z</time>
      </trkpt>
      <trkpt lat="42.4054280" lon="-3.2796700">
        <ele>868.4</ele>
        <time>2022-08-29T10:35:33Z</time>
      </trkpt>
      <trkpt lat="42.4054280" lon="-3.2796710">
        <ele>868.6</ele>
        <time>2022-08-29T10:35:34Z</time>
      </trkpt>
      <trkpt lat="42.4054280" lon="-3.2796710">
        <ele>868.4</ele>
        <time>2022-08-29T10:35:35Z</time>
      </trkpt>
      <trkpt lat="42.4054280" lon="-3.2796720">
        <ele>868.4</ele>
        <time>2022-08-29T10:35:36Z</time>
      </trkpt>
      <trkpt lat="42.4054280" lon="-3.2796720">
        <ele>868.6</ele>
        <time>2022-08-29T10:35:37Z</time>
      </trkpt>
      <trkpt lat="42.4054280" lon="-3.2796710">
        <ele>868.6</ele>
        <time>2022-08-29T10:35:38Z</time>
      </trkpt>
      <trkpt lat="42.4054280" lon="-3.2796720">
        <ele>868.6</ele>
        <time>2022-08-29T10:35:39Z</time>
      </trkpt>
      <trkpt lat="42.4054280" lon="-3.2796720">
        <ele>868.6</ele>
        <time>2022-08-29T10:35:40Z</time>
      </trkpt>
      <trkpt lat="42.4054280" lon="-3.2796720">
        <ele>868.6</ele>
        <time>2022-08-29T10:35:41Z</time>
      </trkpt>
      <trkpt lat="42.4054280" lon="-3.2796720">
        <ele>868.8</ele>
        <time>2022-08-29T10:35:42Z</time>
      </trkpt>
      <trkpt lat="42.4054280" lon="-3.2796720">
        <ele>868.8</ele>
        <time>2022-08-29T10:35:43Z</time>
      </trkpt>
      <trkpt lat="42.4054280" lon="-3.2796720">
        <ele>868.8</ele>
        <time>2022-08-29T10:35:44Z</time>
      </trkpt>
      <trkpt lat="42.4054280" lon="-3.2796730">
        <ele>868.6</ele>
        <time>2022-08-29T10:35:45Z</time>
      </trkpt>
      <trkpt lat="42.4054280" lon="-3.2796730">
        <ele>868.8</ele>
        <time>2022-08-29T10:35:46Z</time>
      </trkpt>
      <trkpt lat="42.4054280" lon="-3.2796730">
        <ele>868.6</ele>
        <time>2022-08-29T10:35:47Z</time>
      </trkpt>
      <trkpt lat="42.4054280" lon="-3.2796730">
        <ele>868.8</ele>
        <time>2022-08-29T10:35:48Z</time>
      </trkpt>
      <trkpt lat="42.4054280" lon="-3.2796740">
        <ele>868.6</ele>
        <time>2022-08-29T10:35:49Z</time>
      </trkpt>
      <trkpt lat="42.4054280" lon="-3.2796740">
        <ele>868.6</ele>
        <time>2022-08-29T10:35:50Z</time>
      </trkpt>
      <trkpt lat="42.4054280" lon="-3.2796740">
        <ele>868.6</ele>
        <time>2022-08-29T10:35:51Z</time>
      </trkpt>
      <trkpt lat="42.4054280" lon="-3.2796740">
        <ele>868.6</ele>
        <time>2022-08-29T10:35:52Z</time>
      </trkpt>
      <trkpt lat="42.4054270" lon="-3.2796740">
        <ele>868.6</ele>
        <time>2022-08-29T10:35:53Z</time>
      </trkpt>
      <trkpt lat="42.4054270" lon="-3.2796740">
        <ele>868.6</ele>
        <time>2022-08-29T10:35:54Z</time>
      </trkpt>
      <trkpt lat="42.4054270" lon="-3.2796740">
        <ele>868.6</ele>
        <time>2022-08-29T10:35:55Z</time>
      </trkpt>
      <trkpt lat="42.4054260" lon="-3.2796740">
        <ele>868.4</ele>
        <time>2022-08-29T10:35:56Z</time>
      </trkpt>
      <trkpt lat="42.4054260" lon="-3.2796740">
        <ele>868.4</ele>
        <time>2022-08-29T10:35:57Z</time>
      </trkpt>
      <trkpt lat="42.4054260" lon="-3.2796740">
        <ele>868.4</ele>
        <time>2022-08-29T10:35:58Z</time>
      </trkpt>
      <trkpt lat="42.4054260" lon="-3.2796730">
        <ele>868.4</ele>
        <time>2022-08-29T10:35:59Z</time>
      </trkpt>
      <trkpt lat="42.4054270" lon="-3.2796730">
        <ele>868.0</ele>
        <time>2022-08-29T10:36:00Z</time>
      </trkpt>
      <trkpt lat="42.4054270" lon="-3.2796730">
        <ele>868.0</ele>
        <time>2022-08-29T10:36:01Z</time>
      </trkpt>
      <trkpt lat="42.4054260" lon="-3.2796730">
        <ele>868.0</ele>
        <time>2022-08-29T10:36:02Z</time>
      </trkpt>
      <trkpt lat="42.4054260" lon="-3.2796730">
        <ele>868.0</ele>
        <time>2022-08-29T10:36:03Z</time>
      </trkpt>
      <trkpt lat="42.4054260" lon="-3.2796730">
        <ele>867.8</ele>
        <time>2022-08-29T10:36:04Z</time>
      </trkpt>
      <trkpt lat="42.4054260" lon="-3.2796730">
        <ele>868.0</ele>
        <time>2022-08-29T10:36:05Z</time>
      </trkpt>
      <trkpt lat="42.4054270" lon="-3.2796720">
        <ele>867.8</ele>
        <time>2022-08-29T10:36:06Z</time>
      </trkpt>
      <trkpt lat="42.4054270" lon="-3.2796720">
        <ele>867.8</ele>
        <time>2022-08-29T10:36:07Z</time>
      </trkpt>
      <trkpt lat="42.4054270" lon="-3.2796720">
        <ele>867.8</ele>
        <time>2022-08-29T10:36:08Z</time>
      </trkpt>
      <trkpt lat="42.4054270" lon="-3.2796720">
        <ele>867.6</ele>
        <time>2022-08-29T10:36:09Z</time>
      </trkpt>
      <trkpt lat="42.4054270" lon="-3.2796720">
        <ele>867.8</ele>
        <time>2022-08-29T10:36:10Z</time>
      </trkpt>
      <trkpt lat="42.4054270" lon="-3.2796720">
        <ele>867.8</ele>
        <time>2022-08-29T10:36:11Z</time>
      </trkpt>
      <trkpt lat="42.4054280" lon="-3.2796720">
        <ele>867.6</ele>
        <time>2022-08-29T10:36:12Z</time>
      </trkpt>
      <trkpt lat="42.4054280" lon="-3.2796730">
        <ele>867.6</ele>
        <time>2022-08-29T10:36:13Z</time>
      </trkpt>
      <trkpt lat="42.4054280" lon="-3.2796720">
        <ele>867.6</ele>
        <time>2022-08-29T10:36:14Z</time>
      </trkpt>
      <trkpt lat="42.4054280" lon="-3.2796720">
        <ele>867.6</ele>
        <time>2022-08-29T10:36:15Z</time>
      </trkpt>
      <trkpt lat="42.4054280" lon="-3.2796720">
        <ele>867.6</ele>
        <time>2022-08-29T10:36:16Z</time>
      </trkpt>
      <trkpt lat="42.4054280" lon="-3.2796720">
        <ele>867.6</ele>
        <time>2022-08-29T10:36:17Z</time>
      </trkpt>
      <trkpt lat="42.4054280" lon="-3.2796720">
        <ele>867.6</ele>
        <time>2022-08-29T10:36:18Z</time>
      </trkpt>
      <trkpt lat="42.4054280" lon="-3.2796720">
        <ele>867.6</ele>
        <time>2022-08-29T10:36:19Z</time>
      </trkpt>
      <trkpt lat="42.4054280" lon="-3.2796720">
        <ele>867.6</ele>
        <time>2022-08-29T10:36:20Z</time>
      </trkpt>
      <trkpt lat="42.4054280" lon="-3.2796730">
        <ele>867.6</ele>
        <time>2022-08-29T10:36:21Z</time>
      </trkpt>
      <trkpt lat="42.4054280" lon="-3.2796730">
        <ele>867.6</ele>
        <time>2022-08-29T10:36:22Z</time>
      </trkpt>
      <trkpt lat="42.4054280" lon="-3.2796730">
        <ele>867.6</ele>
        <time>2022-08-29T10:36:23Z</time>
      </trkpt>
      <trkpt lat="42.4054280" lon="-3.2796730">
        <ele>867.6</ele>
        <time>2022-08-29T10:36:24Z</time>
      </trkpt>
      <trkpt lat="42.4054280" lon="-3.2796720">
        <ele>867.4</ele>
        <time>2022-08-29T10:36:25Z</time>
      </trkpt>
      <trkpt lat="42.4054280" lon="-3.2796720">
        <ele>867.6</ele>
        <time>2022-08-29T10:36:26Z</time>
      </trkpt>
      <trkpt lat="42.4054280" lon="-3.2796720">
        <ele>867.6</ele>
        <time>2022-08-29T10:36:27Z</time>
      </trkpt>
      <trkpt lat="42.4054270" lon="-3.2796720">
        <ele>867.6</ele>
        <time>2022-08-29T10:36:28Z</time>
      </trkpt>
      <trkpt lat="42.4054270" lon="-3.2796720">
        <ele>867.6</ele>
        <time>2022-08-29T10:36:29Z</time>
      </trkpt>
      <trkpt lat="42.4054270" lon="-3.2796730">
        <ele>867.4</ele>
        <time>2022-08-29T10:36:30Z</time>
      </trkpt>
      <trkpt lat="42.4054270" lon="-3.2796730">
        <ele>867.6</ele>
        <time>2022-08-29T10:36:31Z</time>
      </trkpt>
      <trkpt lat="42.4054270" lon="-3.2796730">
        <ele>867.4</ele>
        <time>2022-08-29T10:36:32Z</time>
      </trkpt>
      <trkpt lat="42.4054270" lon="-3.2796740">
        <ele>867.6</ele>
        <time>2022-08-29T10:36:33Z</time>
      </trkpt>
      <trkpt lat="42.4054270" lon="-3.2796740">
        <ele>867.4</ele>
        <time>2022-08-29T10:36:34Z</time>
      </trkpt>
      <trkpt lat="42.4054270" lon="-3.2796740">
        <ele>867.6</ele>
        <time>2022-08-29T10:36:35Z</time>
      </trkpt>
      <trkpt lat="42.4054270" lon="-3.2796740">
        <ele>867.4</ele>
        <time>2022-08-29T10:36:36Z</time>
      </trkpt>
      <trkpt lat="42.4054270" lon="-3.2796740">
        <ele>867.4</ele>
        <time>2022-08-29T10:36:37Z</time>
      </trkpt>
      <trkpt lat="42.4054270" lon="-3.2796740">
        <ele>867.4</ele>
        <time>2022-08-29T10:36:38Z</time>
      </trkpt>
      <trkpt lat="42.4054270" lon="-3.2796740">
        <ele>867.4</ele>
        <time>2022-08-29T10:36:39Z</time>
      </trkpt>
      <trkpt lat="42.4054270" lon="-3.2796740">
        <ele>867.2</ele>
        <time>2022-08-29T10:36:40Z</time>
      </trkpt>
      <trkpt lat="42.4054270" lon="-3.2796740">
        <ele>867.4</ele>
        <time>2022-08-29T10:36:41Z</time>
      </trkpt>
      <trkpt lat="42.4054270" lon="-3.2796740">
        <ele>867.4</ele>
        <time>2022-08-29T10:36:42Z</time>
      </trkpt>
      <trkpt lat="42.4054270" lon="-3.2796740">
        <ele>867.4</ele>
        <time>2022-08-29T10:36:43Z</time>
      </trkpt>
      <trkpt lat="42.4054280" lon="-3.2796740">
        <ele>867.4</ele>
        <time>2022-08-29T10:36:44Z</time>
      </trkpt>
      <trkpt lat="42.4054280" lon="-3.2796750">
        <ele>867.4</ele>
        <time>2022-08-29T10:36:45Z</time>
      </trkpt>
      <trkpt lat="42.4054280" lon="-3.2796750">
        <ele>867.4</ele>
        <time>2022-08-29T10:36:46Z</time>
      </trkpt>
      <trkpt lat="42.4054280" lon="-3.2796750">
        <ele>867.4</ele>
        <time>2022-08-29T10:36:47Z</time>
      </trkpt>
      <trkpt lat="42.4054260" lon="-3.2796740">
        <ele>867.4</ele>
        <time>2022-08-29T10:36:48Z</time>
      </trkpt>
      <trkpt lat="42.4054260" lon="-3.2796740">
        <ele>867.4</ele>
        <time>2022-08-29T10:36:49Z</time>
      </trkpt>
      <trkpt lat="42.4054260" lon="-3.2796740">
        <ele>867.4</ele>
        <time>2022-08-29T10:36:50Z</time>
      </trkpt>
      <trkpt lat="42.4054260" lon="-3.2796730">
        <ele>867.2</ele>
        <time>2022-08-29T10:36:51Z</time>
      </trkpt>
      <trkpt lat="42.4054260" lon="-3.2796740">
        <ele>867.2</ele>
        <time>2022-08-29T10:36:52Z</time>
      </trkpt>
      <trkpt lat="42.4054270" lon="-3.2796750">
        <ele>867.4</ele>
        <time>2022-08-29T10:36:53Z</time>
      </trkpt>
      <trkpt lat="42.4054270" lon="-3.2796750">
        <ele>867.4</ele>
        <time>2022-08-29T10:36:54Z</time>
      </trkpt>
      <trkpt lat="42.4054280" lon="-3.2796760">
        <ele>867.4</ele>
        <time>2022-08-29T10:36:55Z</time>
      </trkpt>
      <trkpt lat="42.4054270" lon="-3.2796760">
        <ele>867.2</ele>
        <time>2022-08-29T10:36:56Z</time>
      </trkpt>
      <trkpt lat="42.4054270" lon="-3.2796760">
        <ele>867.4</ele>
        <time>2022-08-29T10:36:57Z</time>
      </trkpt>
      <trkpt lat="42.4054270" lon="-3.2796760">
        <ele>867.4</ele>
        <time>2022-08-29T10:36:58Z</time>
      </trkpt>
      <trkpt lat="42.4054280" lon="-3.2796770">
        <ele>867.4</ele>
        <time>2022-08-29T10:36:59Z</time>
      </trkpt>
      <trkpt lat="42.4054280" lon="-3.2796770">
        <ele>867.4</ele>
        <time>2022-08-29T10:37:00Z</time>
      </trkpt>
      <trkpt lat="42.4054280" lon="-3.2796770">
        <ele>867.4</ele>
        <time>2022-08-29T10:37:01Z</time>
      </trkpt>
      <trkpt lat="42.4054280" lon="-3.2796770">
        <ele>867.6</ele>
        <time>2022-08-29T10:37:02Z</time>
      </trkpt>
      <trkpt lat="42.4054280" lon="-3.2796770">
        <ele>867.4</ele>
        <time>2022-08-29T10:37:03Z</time>
      </trkpt>
      <trkpt lat="42.4054280" lon="-3.2796780">
        <ele>867.4</ele>
        <time>2022-08-29T10:37:04Z</time>
      </trkpt>
      <trkpt lat="42.4054280" lon="-3.2796780">
        <ele>867.4</ele>
        <time>2022-08-29T10:37:05Z</time>
      </trkpt>
      <trkpt lat="42.4054280" lon="-3.2796790">
        <ele>867.4</ele>
        <time>2022-08-29T10:37:06Z</time>
      </trkpt>
      <trkpt lat="42.4054290" lon="-3.2796790">
        <ele>867.4</ele>
        <time>2022-08-29T10:37:07Z</time>
      </trkpt>
      <trkpt lat="42.4054280" lon="-3.2796790">
        <ele>867.4</ele>
        <time>2022-08-29T10:37:08Z</time>
      </trkpt>
      <trkpt lat="42.4054280" lon="-3.2796780">
        <ele>867.6</ele>
        <time>2022-08-29T10:37:09Z</time>
      </trkpt>
      <trkpt lat="42.4054290" lon="-3.2796790">
        <ele>867.4</ele>
        <time>2022-08-29T10:37:10Z</time>
      </trkpt>
      <trkpt lat="42.4054290" lon="-3.2796790">
        <ele>867.4</ele>
        <time>2022-08-29T10:37:11Z</time>
      </trkpt>
      <trkpt lat="42.4054290" lon="-3.2796780">
        <ele>867.4</ele>
        <time>2022-08-29T10:37:12Z</time>
      </trkpt>
      <trkpt lat="42.4054290" lon="-3.2796780">
        <ele>867.6</ele>
        <time>2022-08-29T10:37:13Z</time>
      </trkpt>
      <trkpt lat="42.4054290" lon="-3.2796780">
        <ele>867.6</ele>
        <time>2022-08-29T10:37:14Z</time>
      </trkpt>
      <trkpt lat="42.4054290" lon="-3.2796780">
        <ele>867.4</ele>
        <time>2022-08-29T10:37:15Z</time>
      </trkpt>
      <trkpt lat="42.4054290" lon="-3.2796780">
        <ele>867.4</ele>
        <time>2022-08-29T10:37:16Z</time>
      </trkpt>
      <trkpt lat="42.4054290" lon="-3.2796780">
        <ele>867.4</ele>
        <time>2022-08-29T10:37:17Z</time>
      </trkpt>
      <trkpt lat="42.4054290" lon="-3.2796780">
        <ele>867.6</ele>
        <time>2022-08-29T10:37:18Z</time>
      </trkpt>
      <trkpt lat="42.4054300" lon="-3.2796790">
        <ele>867.4</ele>
        <time>2022-08-29T10:37:19Z</time>
      </trkpt>
      <trkpt lat="42.4054310" lon="-3.2796800">
        <ele>867.6</ele>
        <time>2022-08-29T10:37:20Z</time>
      </trkpt>
      <trkpt lat="42.4054300" lon="-3.2796770">
        <ele>867.4</ele>
        <time>2022-08-29T10:37:21Z</time>
      </trkpt>
      <trkpt lat="42.4054290" lon="-3.2796780">
        <ele>867.4</ele>
        <time>2022-08-29T10:37:22Z</time>
      </trkpt>
      <trkpt lat="42.4054290" lon="-3.2796780">
        <ele>867.4</ele>
        <time>2022-08-29T10:37:23Z</time>
      </trkpt>
      <trkpt lat="42.4054290" lon="-3.2796780">
        <ele>867.4</ele>
        <time>2022-08-29T10:37:24Z</time>
      </trkpt>
      <trkpt lat="42.4054290" lon="-3.2796780">
        <ele>867.4</ele>
        <time>2022-08-29T10:37:25Z</time>
      </trkpt>
      <trkpt lat="42.4054290" lon="-3.2796770">
        <ele>867.6</ele>
        <time>2022-08-29T10:37:26Z</time>
      </trkpt>
      <trkpt lat="42.4054290" lon="-3.2796770">
        <ele>867.4</ele>
        <time>2022-08-29T10:37:27Z</time>
      </trkpt>
      <trkpt lat="42.4054290" lon="-3.2796770">
        <ele>867.4</ele>
        <time>2022-08-29T10:37:28Z</time>
      </trkpt>
      <trkpt lat="42.4054290" lon="-3.2796770">
        <ele>867.4</ele>
        <time>2022-08-29T10:37:29Z</time>
      </trkpt>
      <trkpt lat="42.4054280" lon="-3.2796770">
        <ele>867.2</ele>
        <time>2022-08-29T10:37:30Z</time>
      </trkpt>
      <trkpt lat="42.4054280" lon="-3.2796770">
        <ele>867.4</ele>
        <time>2022-08-29T10:37:31Z</time>
      </trkpt>
      <trkpt lat="42.4054280" lon="-3.2796770">
        <ele>867.4</ele>
        <time>2022-08-29T10:37:32Z</time>
      </trkpt>
      <trkpt lat="42.4054280" lon="-3.2796770">
        <ele>867.4</ele>
        <time>2022-08-29T10:37:33Z</time>
      </trkpt>
      <trkpt lat="42.4054280" lon="-3.2796770">
        <ele>867.4</ele>
        <time>2022-08-29T10:37:34Z</time>
      </trkpt>
      <trkpt lat="42.4054280" lon="-3.2796770">
        <ele>867.4</ele>
        <time>2022-08-29T10:37:35Z</time>
      </trkpt>
      <trkpt lat="42.4054280" lon="-3.2796770">
        <ele>867.4</ele>
        <time>2022-08-29T10:37:36Z</time>
      </trkpt>
      <trkpt lat="42.4054280" lon="-3.2796770">
        <ele>867.4</ele>
        <time>2022-08-29T10:37:37Z</time>
      </trkpt>
      <trkpt lat="42.4054280" lon="-3.2796770">
        <ele>867.4</ele>
        <time>2022-08-29T10:37:38Z</time>
      </trkpt>
      <trkpt lat="42.4054280" lon="-3.2796770">
        <ele>867.4</ele>
        <time>2022-08-29T10:37:39Z</time>
      </trkpt>
      <trkpt lat="42.4054280" lon="-3.2796770">
        <ele>867.4</ele>
        <time>2022-08-29T10:37:40Z</time>
      </trkpt>
      <trkpt lat="42.4054280" lon="-3.2796770">
        <ele>867.2</ele>
        <time>2022-08-29T10:37:41Z</time>
      </trkpt>
      <trkpt lat="42.4054280" lon="-3.2796770">
        <ele>867.4</ele>
        <time>2022-08-29T10:37:42Z</time>
      </trkpt>
      <trkpt lat="42.4054280" lon="-3.2796770">
        <ele>867.4</ele>
        <time>2022-08-29T10:37:43Z</time>
      </trkpt>
      <trkpt lat="42.4054280" lon="-3.2796770">
        <ele>867.2</ele>
        <time>2022-08-29T10:37:44Z</time>
      </trkpt>
      <trkpt lat="42.4054280" lon="-3.2796770">
        <ele>867.4</ele>
        <time>2022-08-29T10:37:45Z</time>
      </trkpt>
      <trkpt lat="42.4054280" lon="-3.2796770">
        <ele>867.4</ele>
        <time>2022-08-29T10:37:46Z</time>
      </trkpt>
      <trkpt lat="42.4054280" lon="-3.2796770">
        <ele>867.4</ele>
        <time>2022-08-29T10:37:47Z</time>
      </trkpt>
      <trkpt lat="42.4054280" lon="-3.2796770">
        <ele>867.4</ele>
        <time>2022-08-29T10:37:48Z</time>
      </trkpt>
      <trkpt lat="42.4054280" lon="-3.2796770">
        <ele>867.2</ele>
        <time>2022-08-29T10:37:49Z</time>
      </trkpt>
      <trkpt lat="42.4054280" lon="-3.2796770">
        <ele>867.4</ele>
        <time>2022-08-29T10:37:50Z</time>
      </trkpt>
      <trkpt lat="42.4054280" lon="-3.2796770">
        <ele>867.4</ele>
        <time>2022-08-29T10:37:51Z</time>
      </trkpt>
      <trkpt lat="42.4054280" lon="-3.2796770">
        <ele>867.4</ele>
        <time>2022-08-29T10:37:52Z</time>
      </trkpt>
      <trkpt lat="42.4054280" lon="-3.2796770">
        <ele>867.2</ele>
        <time>2022-08-29T10:37:53Z</time>
      </trkpt>
      <trkpt lat="42.4054280" lon="-3.2796770">
        <ele>867.2</ele>
        <time>2022-08-29T10:37:54Z</time>
      </trkpt>
      <trkpt lat="42.4054280" lon="-3.2796770">
        <ele>867.4</ele>
        <time>2022-08-29T10:37:55Z</time>
      </trkpt>
      <trkpt lat="42.4054280" lon="-3.2796770">
        <ele>867.4</ele>
        <time>2022-08-29T10:37:56Z</time>
      </trkpt>
      <trkpt lat="42.4054280" lon="-3.2796770">
        <ele>867.4</ele>
        <time>2022-08-29T10:37:57Z</time>
      </trkpt>
      <trkpt lat="42.4054280" lon="-3.2796770">
        <ele>867.4</ele>
        <time>2022-08-29T10:37:58Z</time>
      </trkpt>
      <trkpt lat="42.4054280" lon="-3.2796770">
        <ele>867.4</ele>
        <time>2022-08-29T10:37:59Z</time>
      </trkpt>
      <trkpt lat="42.4054280" lon="-3.2796770">
        <ele>867.4</ele>
        <time>2022-08-29T10:38:00Z</time>
      </trkpt>
      <trkpt lat="42.4054280" lon="-3.2796770">
        <ele>867.2</ele>
        <time>2022-08-29T10:38:01Z</time>
      </trkpt>
      <trkpt lat="42.4054270" lon="-3.2796770">
        <ele>867.4</ele>
        <time>2022-08-29T10:38:02Z</time>
      </trkpt>
      <trkpt lat="42.4054270" lon="-3.2796770">
        <ele>867.2</ele>
        <time>2022-08-29T10:38:03Z</time>
      </trkpt>
      <trkpt lat="42.4054270" lon="-3.2796770">
        <ele>867.2</ele>
        <time>2022-08-29T10:38:04Z</time>
      </trkpt>
      <trkpt lat="42.4054270" lon="-3.2796780">
        <ele>867.2</ele>
        <time>2022-08-29T10:38:05Z</time>
      </trkpt>
      <trkpt lat="42.4054280" lon="-3.2796780">
        <ele>867.4</ele>
        <time>2022-08-29T10:38:06Z</time>
      </trkpt>
      <trkpt lat="42.4054270" lon="-3.2796780">
        <ele>867.2</ele>
        <time>2022-08-29T10:38:07Z</time>
      </trkpt>
      <trkpt lat="42.4054280" lon="-3.2796780">
        <ele>867.2</ele>
        <time>2022-08-29T10:38:08Z</time>
      </trkpt>
      <trkpt lat="42.4054270" lon="-3.2796780">
        <ele>867.2</ele>
        <time>2022-08-29T10:38:09Z</time>
      </trkpt>
      <trkpt lat="42.4054270" lon="-3.2796780">
        <ele>867.2</ele>
        <time>2022-08-29T10:38:10Z</time>
      </trkpt>
      <trkpt lat="42.4054270" lon="-3.2796780">
        <ele>867.2</ele>
        <time>2022-08-29T10:38:11Z</time>
      </trkpt>
      <trkpt lat="42.4054270" lon="-3.2796780">
        <ele>867.0</ele>
        <time>2022-08-29T10:38:12Z</time>
      </trkpt>
      <trkpt lat="42.4054270" lon="-3.2796780">
        <ele>867.0</ele>
        <time>2022-08-29T10:38:13Z</time>
      </trkpt>
      <trkpt lat="42.4054270" lon="-3.2796780">
        <ele>867.0</ele>
        <time>2022-08-29T10:38:14Z</time>
      </trkpt>
      <trkpt lat="42.4054270" lon="-3.2796770">
        <ele>867.2</ele>
        <time>2022-08-29T10:38:15Z</time>
      </trkpt>
      <trkpt lat="42.4054270" lon="-3.2796780">
        <ele>867.0</ele>
        <time>2022-08-29T10:38:16Z</time>
      </trkpt>
      <trkpt lat="42.4054270" lon="-3.2796780">
        <ele>867.0</ele>
        <time>2022-08-29T10:38:17Z</time>
      </trkpt>
      <trkpt lat="42.4054270" lon="-3.2796780">
        <ele>867.0</ele>
        <time>2022-08-29T10:38:18Z</time>
      </trkpt>
      <trkpt lat="42.4054270" lon="-3.2796780">
        <ele>866.8</ele>
        <time>2022-08-29T10:38:19Z</time>
      </trkpt>
      <trkpt lat="42.4054270" lon="-3.2796780">
        <ele>867.0</ele>
        <time>2022-08-29T10:38:20Z</time>
      </trkpt>
      <trkpt lat="42.4054270" lon="-3.2796780">
        <ele>867.0</ele>
        <time>2022-08-29T10:38:21Z</time>
      </trkpt>
      <trkpt lat="42.4054270" lon="-3.2796780">
        <ele>867.0</ele>
        <time>2022-08-29T10:38:22Z</time>
      </trkpt>
      <trkpt lat="42.4054270" lon="-3.2796780">
        <ele>866.8</ele>
        <time>2022-08-29T10:38:23Z</time>
      </trkpt>
      <trkpt lat="42.4054270" lon="-3.2796770">
        <ele>866.8</ele>
        <time>2022-08-29T10:38:24Z</time>
      </trkpt>
      <trkpt lat="42.4054270" lon="-3.2796770">
        <ele>866.8</ele>
        <time>2022-08-29T10:38:25Z</time>
      </trkpt>
      <trkpt lat="42.4054270" lon="-3.2796760">
        <ele>866.8</ele>
        <time>2022-08-29T10:38:26Z</time>
      </trkpt>
      <trkpt lat="42.4054270" lon="-3.2796760">
        <ele>867.0</ele>
        <time>2022-08-29T10:38:27Z</time>
      </trkpt>
      <trkpt lat="42.4054280" lon="-3.2796760">
        <ele>867.0</ele>
        <time>2022-08-29T10:38:28Z</time>
      </trkpt>
      <trkpt lat="42.4054280" lon="-3.2796760">
        <ele>867.0</ele>
        <time>2022-08-29T10:38:29Z</time>
      </trkpt>
      <trkpt lat="42.4054270" lon="-3.2796760">
        <ele>867.0</ele>
        <time>2022-08-29T10:38:30Z</time>
      </trkpt>
      <trkpt lat="42.4054270" lon="-3.2796760">
        <ele>867.0</ele>
        <time>2022-08-29T10:38:31Z</time>
      </trkpt>
      <trkpt lat="42.4054270" lon="-3.2796760">
        <ele>867.0</ele>
        <time>2022-08-29T10:38:32Z</time>
      </trkpt>
      <trkpt lat="42.4054270" lon="-3.2796760">
        <ele>867.0</ele>
        <time>2022-08-29T10:38:33Z</time>
      </trkpt>
      <trkpt lat="42.4054270" lon="-3.2796760">
        <ele>867.0</ele>
        <time>2022-08-29T10:38:34Z</time>
      </trkpt>
      <trkpt lat="42.4054270" lon="-3.2796760">
        <ele>867.0</ele>
        <time>2022-08-29T10:38:35Z</time>
      </trkpt>
      <trkpt lat="42.4054270" lon="-3.2796760">
        <ele>867.0</ele>
        <time>2022-08-29T10:38:36Z</time>
      </trkpt>
      <trkpt lat="42.4054270" lon="-3.2796760">
        <ele>867.0</ele>
        <time>2022-08-29T10:38:37Z</time>
      </trkpt>
      <trkpt lat="42.4054270" lon="-3.2796770">
        <ele>867.0</ele>
        <time>2022-08-29T10:38:38Z</time>
      </trkpt>
      <trkpt lat="42.4054270" lon="-3.2796770">
        <ele>867.2</ele>
        <time>2022-08-29T10:38:39Z</time>
      </trkpt>
      <trkpt lat="42.4054270" lon="-3.2796760">
        <ele>867.0</ele>
        <time>2022-08-29T10:38:40Z</time>
      </trkpt>
      <trkpt lat="42.4054270" lon="-3.2796760">
        <ele>867.0</ele>
        <time>2022-08-29T10:38:41Z</time>
      </trkpt>
      <trkpt lat="42.4054270" lon="-3.2796770">
        <ele>867.0</ele>
        <time>2022-08-29T10:38:42Z</time>
      </trkpt>
      <trkpt lat="42.4054270" lon="-3.2796770">
        <ele>867.2</ele>
        <time>2022-08-29T10:38:43Z</time>
      </trkpt>
      <trkpt lat="42.4054270" lon="-3.2796770">
        <ele>867.0</ele>
        <time>2022-08-29T10:38:44Z</time>
      </trkpt>
      <trkpt lat="42.4054270" lon="-3.2796770">
        <ele>867.2</ele>
        <time>2022-08-29T10:38:45Z</time>
      </trkpt>
      <trkpt lat="42.4054270" lon="-3.2796760">
        <ele>867.2</ele>
        <time>2022-08-29T10:38:46Z</time>
      </trkpt>
      <trkpt lat="42.4054270" lon="-3.2796760">
        <ele>867.0</ele>
        <time>2022-08-29T10:38:47Z</time>
      </trkpt>
      <trkpt lat="42.4054270" lon="-3.2796760">
        <ele>867.0</ele>
        <time>2022-08-29T10:38:48Z</time>
      </trkpt>
      <trkpt lat="42.4054270" lon="-3.2796760">
        <ele>867.0</ele>
        <time>2022-08-29T10:38:49Z</time>
      </trkpt>
      <trkpt lat="42.4054270" lon="-3.2796760">
        <ele>867.2</ele>
        <time>2022-08-29T10:38:50Z</time>
      </trkpt>
      <trkpt lat="42.4054260" lon="-3.2796760">
        <ele>867.2</ele>
        <time>2022-08-29T10:38:51Z</time>
      </trkpt>
      <trkpt lat="42.4054260" lon="-3.2796770">
        <ele>867.2</ele>
        <time>2022-08-29T10:38:52Z</time>
      </trkpt>
      <trkpt lat="42.4054260" lon="-3.2796770">
        <ele>867.2</ele>
        <time>2022-08-29T10:38:53Z</time>
      </trkpt>
      <trkpt lat="42.4054260" lon="-3.2796770">
        <ele>867.0</ele>
        <time>2022-08-29T10:38:54Z</time>
      </trkpt>
      <trkpt lat="42.4054260" lon="-3.2796770">
        <ele>867.0</ele>
        <time>2022-08-29T10:38:55Z</time>
      </trkpt>
      <trkpt lat="42.4054260" lon="-3.2796770">
        <ele>867.0</ele>
        <time>2022-08-29T10:38:56Z</time>
      </trkpt>
      <trkpt lat="42.4054250" lon="-3.2796770">
        <ele>867.2</ele>
        <time>2022-08-29T10:38:57Z</time>
      </trkpt>
      <trkpt lat="42.4054250" lon="-3.2796770">
        <ele>867.0</ele>
        <time>2022-08-29T10:38:58Z</time>
      </trkpt>
      <trkpt lat="42.4054250" lon="-3.2796770">
        <ele>867.2</ele>
        <time>2022-08-29T10:38:59Z</time>
      </trkpt>
      <trkpt lat="42.4054250" lon="-3.2796760">
        <ele>867.2</ele>
        <time>2022-08-29T10:39:00Z</time>
      </trkpt>
      <trkpt lat="42.4054250" lon="-3.2796750">
        <ele>867.0</ele>
        <time>2022-08-29T10:39:01Z</time>
      </trkpt>
      <trkpt lat="42.4054250" lon="-3.2796750">
        <ele>867.0</ele>
        <time>2022-08-29T10:39:02Z</time>
      </trkpt>
      <trkpt lat="42.4054250" lon="-3.2796750">
        <ele>867.2</ele>
        <time>2022-08-29T10:39:03Z</time>
      </trkpt>
      <trkpt lat="42.4054250" lon="-3.2796750">
        <ele>867.2</ele>
        <time>2022-08-29T10:39:04Z</time>
      </trkpt>
      <trkpt lat="42.4054250" lon="-3.2796750">
        <ele>867.2</ele>
        <time>2022-08-29T10:39:05Z</time>
      </trkpt>
      <trkpt lat="42.4054250" lon="-3.2796740">
        <ele>867.2</ele>
        <time>2022-08-29T10:39:06Z</time>
      </trkpt>
      <trkpt lat="42.4054250" lon="-3.2796750">
        <ele>867.2</ele>
        <time>2022-08-29T10:39:07Z</time>
      </trkpt>
      <trkpt lat="42.4054250" lon="-3.2796740">
        <ele>867.2</ele>
        <time>2022-08-29T10:39:08Z</time>
      </trkpt>
      <trkpt lat="42.4054250" lon="-3.2796740">
        <ele>867.2</ele>
        <time>2022-08-29T10:39:09Z</time>
      </trkpt>
      <trkpt lat="42.4054240" lon="-3.2796750">
        <ele>867.2</ele>
        <time>2022-08-29T10:39:10Z</time>
      </trkpt>
      <trkpt lat="42.4054250" lon="-3.2796750">
        <ele>867.2</ele>
        <time>2022-08-29T10:39:11Z</time>
      </trkpt>
      <trkpt lat="42.4054270" lon="-3.2796740">
        <ele>867.4</ele>
        <time>2022-08-29T10:39:12Z</time>
      </trkpt>
      <trkpt lat="42.4054280" lon="-3.2796740">
        <ele>867.2</ele>
        <time>2022-08-29T10:39:13Z</time>
      </trkpt>
      <trkpt lat="42.4054280" lon="-3.2796760">
        <ele>867.2</ele>
        <time>2022-08-29T10:39:14Z</time>
      </trkpt>
      <trkpt lat="42.4054280" lon="-3.2796780">
        <ele>867.2</ele>
        <time>2022-08-29T10:39:15Z</time>
      </trkpt>
      <trkpt lat="42.4054290" lon="-3.2796790">
        <ele>867.2</ele>
        <time>2022-08-29T10:39:16Z</time>
      </trkpt>
      <trkpt lat="42.4054290" lon="-3.2796800">
        <ele>867.2</ele>
        <time>2022-08-29T10:39:17Z</time>
      </trkpt>
      <trkpt lat="42.4054290" lon="-3.2796790">
        <ele>867.2</ele>
        <time>2022-08-29T10:39:18Z</time>
      </trkpt>
      <trkpt lat="42.4054290" lon="-3.2796790">
        <ele>867.2</ele>
        <time>2022-08-29T10:39:19Z</time>
      </trkpt>
      <trkpt lat="42.4054310" lon="-3.2796810">
        <ele>867.2</ele>
        <time>2022-08-29T10:39:20Z</time>
      </trkpt>
      <trkpt lat="42.4054310" lon="-3.2796790">
        <ele>867.2</ele>
        <time>2022-08-29T10:39:21Z</time>
      </trkpt>
      <trkpt lat="42.4054310" lon="-3.2796750">
        <ele>867.2</ele>
        <time>2022-08-29T10:39:22Z</time>
      </trkpt>
      <trkpt lat="42.4054300" lon="-3.2796700">
        <ele>867.2</ele>
        <time>2022-08-29T10:39:23Z</time>
      </trkpt>
      <trkpt lat="42.4054270" lon="-3.2796700">
        <ele>867.0</ele>
        <time>2022-08-29T10:39:24Z</time>
      </trkpt>
      <trkpt lat="42.4054270" lon="-3.2796700">
        <ele>867.0</ele>
        <time>2022-08-29T10:39:25Z</time>
      </trkpt>
      <trkpt lat="42.4054240" lon="-3.2796700">
        <ele>867.0</ele>
        <time>2022-08-29T10:39:26Z</time>
      </trkpt>
      <trkpt lat="42.4054220" lon="-3.2796700">
        <ele>867.0</ele>
        <time>2022-08-29T10:39:27Z</time>
      </trkpt>
      <trkpt lat="42.4054220" lon="-3.2796690">
        <ele>867.0</ele>
        <time>2022-08-29T10:39:28Z</time>
      </trkpt>
      <trkpt lat="42.4054220" lon="-3.2796680">
        <ele>867.2</ele>
        <time>2022-08-29T10:39:29Z</time>
      </trkpt>
      <trkpt lat="42.4054220" lon="-3.2796680">
        <ele>867.0</ele>
        <time>2022-08-29T10:39:30Z</time>
      </trkpt>
      <trkpt lat="42.4054220" lon="-3.2796680">
        <ele>867.0</ele>
        <time>2022-08-29T10:39:31Z</time>
      </trkpt>
      <trkpt lat="42.4054220" lon="-3.2796680">
        <ele>867.0</ele>
        <time>2022-08-29T10:39:32Z</time>
      </trkpt>
      <trkpt lat="42.4054220" lon="-3.2796680">
        <ele>867.0</ele>
        <time>2022-08-29T10:39:33Z</time>
      </trkpt>
      <trkpt lat="42.4054220" lon="-3.2796680">
        <ele>867.2</ele>
        <time>2022-08-29T10:39:34Z</time>
      </trkpt>
      <trkpt lat="42.4054220" lon="-3.2796680">
        <ele>867.2</ele>
        <time>2022-08-29T10:39:35Z</time>
      </trkpt>
      <trkpt lat="42.4054220" lon="-3.2796690">
        <ele>867.2</ele>
        <time>2022-08-29T10:39:36Z</time>
      </trkpt>
      <trkpt lat="42.4054220" lon="-3.2796690">
        <ele>867.2</ele>
        <time>2022-08-29T10:39:37Z</time>
      </trkpt>
      <trkpt lat="42.4054220" lon="-3.2796700">
        <ele>867.0</ele>
        <time>2022-08-29T10:39:38Z</time>
      </trkpt>
      <trkpt lat="42.4054220" lon="-3.2796700">
        <ele>867.0</ele>
        <time>2022-08-29T10:39:39Z</time>
      </trkpt>
      <trkpt lat="42.4054220" lon="-3.2796700">
        <ele>867.0</ele>
        <time>2022-08-29T10:39:40Z</time>
      </trkpt>
      <trkpt lat="42.4054220" lon="-3.2796700">
        <ele>867.2</ele>
        <time>2022-08-29T10:39:41Z</time>
      </trkpt>
      <trkpt lat="42.4054220" lon="-3.2796700">
        <ele>867.2</ele>
        <time>2022-08-29T10:39:42Z</time>
      </trkpt>
      <trkpt lat="42.4054220" lon="-3.2796700">
        <ele>867.2</ele>
        <time>2022-08-29T10:39:43Z</time>
      </trkpt>
      <trkpt lat="42.4054210" lon="-3.2796700">
        <ele>867.4</ele>
        <time>2022-08-29T10:39:44Z</time>
      </trkpt>
      <trkpt lat="42.4054210" lon="-3.2796690">
        <ele>867.4</ele>
        <time>2022-08-29T10:39:45Z</time>
      </trkpt>
      <trkpt lat="42.4054210" lon="-3.2796690">
        <ele>867.4</ele>
        <time>2022-08-29T10:39:46Z</time>
      </trkpt>
      <trkpt lat="42.4054210" lon="-3.2796690">
        <ele>867.4</ele>
        <time>2022-08-29T10:39:47Z</time>
      </trkpt>
      <trkpt lat="42.4054210" lon="-3.2796690">
        <ele>867.6</ele>
        <time>2022-08-29T10:39:48Z</time>
      </trkpt>
      <trkpt lat="42.4054210" lon="-3.2796690">
        <ele>867.4</ele>
        <time>2022-08-29T10:39:49Z</time>
      </trkpt>
      <trkpt lat="42.4054210" lon="-3.2796690">
        <ele>867.6</ele>
        <time>2022-08-29T10:39:50Z</time>
      </trkpt>
      <trkpt lat="42.4054210" lon="-3.2796690">
        <ele>867.4</ele>
        <time>2022-08-29T10:39:51Z</time>
      </trkpt>
      <trkpt lat="42.4054210" lon="-3.2796690">
        <ele>867.6</ele>
        <time>2022-08-29T10:39:52Z</time>
      </trkpt>
      <trkpt lat="42.4054210" lon="-3.2796690">
        <ele>867.6</ele>
        <time>2022-08-29T10:39:53Z</time>
      </trkpt>
      <trkpt lat="42.4054210" lon="-3.2796690">
        <ele>867.6</ele>
        <time>2022-08-29T10:39:54Z</time>
      </trkpt>
      <trkpt lat="42.4054210" lon="-3.2796690">
        <ele>867.6</ele>
        <time>2022-08-29T10:39:55Z</time>
      </trkpt>
      <trkpt lat="42.4054210" lon="-3.2796690">
        <ele>867.6</ele>
        <time>2022-08-29T10:39:56Z</time>
      </trkpt>
      <trkpt lat="42.4054210" lon="-3.2796690">
        <ele>867.6</ele>
        <time>2022-08-29T10:39:57Z</time>
      </trkpt>
      <trkpt lat="42.4054210" lon="-3.2796690">
        <ele>867.6</ele>
        <time>2022-08-29T10:39:58Z</time>
      </trkpt>
      <trkpt lat="42.4054210" lon="-3.2796690">
        <ele>867.6</ele>
        <time>2022-08-29T10:39:59Z</time>
      </trkpt>
      <trkpt lat="42.4054210" lon="-3.2796690">
        <ele>867.6</ele>
        <time>2022-08-29T10:40:00Z</time>
      </trkpt>
      <trkpt lat="42.4054210" lon="-3.2796690">
        <ele>867.6</ele>
        <time>2022-08-29T10:40:01Z</time>
      </trkpt>
      <trkpt lat="42.4054210" lon="-3.2796690">
        <ele>867.6</ele>
        <time>2022-08-29T10:40:02Z</time>
      </trkpt>
      <trkpt lat="42.4054210" lon="-3.2796690">
        <ele>867.6</ele>
        <time>2022-08-29T10:40:03Z</time>
      </trkpt>
      <trkpt lat="42.4054210" lon="-3.2796690">
        <ele>867.4</ele>
        <time>2022-08-29T10:40:04Z</time>
      </trkpt>
      <trkpt lat="42.4054210" lon="-3.2796690">
        <ele>867.6</ele>
        <time>2022-08-29T10:40:05Z</time>
      </trkpt>
      <trkpt lat="42.4054210" lon="-3.2796700">
        <ele>867.6</ele>
        <time>2022-08-29T10:40:06Z</time>
      </trkpt>
      <trkpt lat="42.4054210" lon="-3.2796690">
        <ele>867.6</ele>
        <time>2022-08-29T10:40:07Z</time>
      </trkpt>
      <trkpt lat="42.4054210" lon="-3.2796690">
        <ele>867.6</ele>
        <time>2022-08-29T10:40:08Z</time>
      </trkpt>
      <trkpt lat="42.4054220" lon="-3.2796690">
        <ele>867.6</ele>
        <time>2022-08-29T10:40:09Z</time>
      </trkpt>
      <trkpt lat="42.4054220" lon="-3.2796700">
        <ele>867.8</ele>
        <time>2022-08-29T10:40:10Z</time>
      </trkpt>
      <trkpt lat="42.4054220" lon="-3.2796690">
        <ele>867.8</ele>
        <time>2022-08-29T10:40:11Z</time>
      </trkpt>
      <trkpt lat="42.4054220" lon="-3.2796690">
        <ele>867.8</ele>
        <time>2022-08-29T10:40:12Z</time>
      </trkpt>
      <trkpt lat="42.4054220" lon="-3.2796690">
        <ele>867.8</ele>
        <time>2022-08-29T10:40:13Z</time>
      </trkpt>
      <trkpt lat="42.4054220" lon="-3.2796690">
        <ele>867.8</ele>
        <time>2022-08-29T10:40:14Z</time>
      </trkpt>
      <trkpt lat="42.4054210" lon="-3.2796690">
        <ele>867.8</ele>
        <time>2022-08-29T10:40:15Z</time>
      </trkpt>
      <trkpt lat="42.4054210" lon="-3.2796690">
        <ele>867.8</ele>
        <time>2022-08-29T10:40:16Z</time>
      </trkpt>
      <trkpt lat="42.4054210" lon="-3.2796690">
        <ele>867.8</ele>
        <time>2022-08-29T10:40:17Z</time>
      </trkpt>
      <trkpt lat="42.4054210" lon="-3.2796690">
        <ele>867.8</ele>
        <time>2022-08-29T10:40:18Z</time>
      </trkpt>
      <trkpt lat="42.4054210" lon="-3.2796690">
        <ele>867.8</ele>
        <time>2022-08-29T10:40:19Z</time>
      </trkpt>
      <trkpt lat="42.4054210" lon="-3.2796690">
        <ele>868.0</ele>
        <time>2022-08-29T10:40:20Z</time>
      </trkpt>
      <trkpt lat="42.4054210" lon="-3.2796690">
        <ele>868.0</ele>
        <time>2022-08-29T10:40:21Z</time>
      </trkpt>
      <trkpt lat="42.4054210" lon="-3.2796690">
        <ele>867.8</ele>
        <time>2022-08-29T10:40:22Z</time>
      </trkpt>
      <trkpt lat="42.4054210" lon="-3.2796690">
        <ele>867.8</ele>
        <time>2022-08-29T10:40:23Z</time>
      </trkpt>
      <trkpt lat="42.4054210" lon="-3.2796690">
        <ele>867.8</ele>
        <time>2022-08-29T10:40:24Z</time>
      </trkpt>
      <trkpt lat="42.4054210" lon="-3.2796690">
        <ele>868.0</ele>
        <time>2022-08-29T10:40:25Z</time>
      </trkpt>
      <trkpt lat="42.4054210" lon="-3.2796690">
        <ele>868.0</ele>
        <time>2022-08-29T10:40:26Z</time>
      </trkpt>
      <trkpt lat="42.4054210" lon="-3.2796690">
        <ele>868.0</ele>
        <time>2022-08-29T10:40:27Z</time>
      </trkpt>
      <trkpt lat="42.4054210" lon="-3.2796690">
        <ele>868.0</ele>
        <time>2022-08-29T10:40:28Z</time>
      </trkpt>
      <trkpt lat="42.4054210" lon="-3.2796690">
        <ele>868.0</ele>
        <time>2022-08-29T10:40:29Z</time>
      </trkpt>
      <trkpt lat="42.4054210" lon="-3.2796690">
        <ele>868.0</ele>
        <time>2022-08-29T10:40:30Z</time>
      </trkpt>
      <trkpt lat="42.4054210" lon="-3.2796690">
        <ele>868.0</ele>
        <time>2022-08-29T10:40:31Z</time>
      </trkpt>
      <trkpt lat="42.4054210" lon="-3.2796690">
        <ele>868.0</ele>
        <time>2022-08-29T10:40:32Z</time>
      </trkpt>
      <trkpt lat="42.4054210" lon="-3.2796690">
        <ele>868.0</ele>
        <time>2022-08-29T10:40:33Z</time>
      </trkpt>
      <trkpt lat="42.4054210" lon="-3.2796700">
        <ele>868.0</ele>
        <time>2022-08-29T10:40:34Z</time>
      </trkpt>
      <trkpt lat="42.4054210" lon="-3.2796690">
        <ele>868.0</ele>
        <time>2022-08-29T10:40:35Z</time>
      </trkpt>
      <trkpt lat="42.4054210" lon="-3.2796690">
        <ele>868.0</ele>
        <time>2022-08-29T10:40:36Z</time>
      </trkpt>
      <trkpt lat="42.4054210" lon="-3.2796690">
        <ele>868.0</ele>
        <time>2022-08-29T10:40:37Z</time>
      </trkpt>
      <trkpt lat="42.4054210" lon="-3.2796690">
        <ele>867.8</ele>
        <time>2022-08-29T10:40:38Z</time>
      </trkpt>
      <trkpt lat="42.4054200" lon="-3.2796690">
        <ele>868.2</ele>
        <time>2022-08-29T10:40:39Z</time>
      </trkpt>
      <trkpt lat="42.4054200" lon="-3.2796690">
        <ele>868.0</ele>
        <time>2022-08-29T10:40:40Z</time>
      </trkpt>
      <trkpt lat="42.4054200" lon="-3.2796690">
        <ele>868.0</ele>
        <time>2022-08-29T10:40:41Z</time>
      </trkpt>
      <trkpt lat="42.4054200" lon="-3.2796690">
        <ele>868.2</ele>
        <time>2022-08-29T10:40:42Z</time>
      </trkpt>
      <trkpt lat="42.4054200" lon="-3.2796690">
        <ele>868.0</ele>
        <time>2022-08-29T10:40:43Z</time>
      </trkpt>
      <trkpt lat="42.4054210" lon="-3.2796690">
        <ele>868.0</ele>
        <time>2022-08-29T10:40:44Z</time>
      </trkpt>
      <trkpt lat="42.4054220" lon="-3.2796690">
        <ele>868.0</ele>
        <time>2022-08-29T10:40:45Z</time>
      </trkpt>
      <trkpt lat="42.4054220" lon="-3.2796690">
        <ele>868.0</ele>
        <time>2022-08-29T10:40:46Z</time>
      </trkpt>
      <trkpt lat="42.4054230" lon="-3.2796700">
        <ele>868.2</ele>
        <time>2022-08-29T10:40:47Z</time>
      </trkpt>
      <trkpt lat="42.4054230" lon="-3.2796700">
        <ele>868.2</ele>
        <time>2022-08-29T10:40:48Z</time>
      </trkpt>
      <trkpt lat="42.4054230" lon="-3.2796700">
        <ele>868.4</ele>
        <time>2022-08-29T10:40:49Z</time>
      </trkpt>
      <trkpt lat="42.4054230" lon="-3.2796710">
        <ele>868.4</ele>
        <time>2022-08-29T10:40:50Z</time>
      </trkpt>
      <trkpt lat="42.4054230" lon="-3.2796710">
        <ele>868.2</ele>
        <time>2022-08-29T10:40:51Z</time>
      </trkpt>
      <trkpt lat="42.4054240" lon="-3.2796710">
        <ele>868.2</ele>
        <time>2022-08-29T10:40:52Z</time>
      </trkpt>
      <trkpt lat="42.4054240" lon="-3.2796720">
        <ele>868.4</ele>
        <time>2022-08-29T10:40:53Z</time>
      </trkpt>
      <trkpt lat="42.4054230" lon="-3.2796720">
        <ele>868.4</ele>
        <time>2022-08-29T10:40:54Z</time>
      </trkpt>
      <trkpt lat="42.4054230" lon="-3.2796720">
        <ele>868.4</ele>
        <time>2022-08-29T10:40:55Z</time>
      </trkpt>
      <trkpt lat="42.4054230" lon="-3.2796720">
        <ele>868.4</ele>
        <time>2022-08-29T10:40:56Z</time>
      </trkpt>
      <trkpt lat="42.4054240" lon="-3.2796720">
        <ele>868.4</ele>
        <time>2022-08-29T10:40:57Z</time>
      </trkpt>
      <trkpt lat="42.4054250" lon="-3.2796710">
        <ele>868.4</ele>
        <time>2022-08-29T10:40:58Z</time>
      </trkpt>
      <trkpt lat="42.4054260" lon="-3.2796720">
        <ele>868.4</ele>
        <time>2022-08-29T10:40:59Z</time>
      </trkpt>
      <trkpt lat="42.4054280" lon="-3.2796720">
        <ele>868.4</ele>
        <time>2022-08-29T10:41:00Z</time>
      </trkpt>
      <trkpt lat="42.4054280" lon="-3.2796720">
        <ele>868.6</ele>
        <time>2022-08-29T10:41:01Z</time>
      </trkpt>
      <trkpt lat="42.4054280" lon="-3.2796720">
        <ele>868.4</ele>
        <time>2022-08-29T10:41:02Z</time>
      </trkpt>
      <trkpt lat="42.4054280" lon="-3.2796730">
        <ele>868.6</ele>
        <time>2022-08-29T10:41:03Z</time>
      </trkpt>
      <trkpt lat="42.4054270" lon="-3.2796740">
        <ele>868.6</ele>
        <time>2022-08-29T10:41:04Z</time>
      </trkpt>
      <trkpt lat="42.4054270" lon="-3.2796730">
        <ele>868.8</ele>
        <time>2022-08-29T10:41:05Z</time>
      </trkpt>
      <trkpt lat="42.4054270" lon="-3.2796730">
        <ele>868.8</ele>
        <time>2022-08-29T10:41:06Z</time>
      </trkpt>
      <trkpt lat="42.4054270" lon="-3.2796730">
        <ele>868.6</ele>
        <time>2022-08-29T10:41:07Z</time>
      </trkpt>
      <trkpt lat="42.4054270" lon="-3.2796730">
        <ele>868.8</ele>
        <time>2022-08-29T10:41:08Z</time>
      </trkpt>
      <trkpt lat="42.4054280" lon="-3.2796720">
        <ele>868.8</ele>
        <time>2022-08-29T10:41:09Z</time>
      </trkpt>
      <trkpt lat="42.4054280" lon="-3.2796730">
        <ele>868.8</ele>
        <time>2022-08-29T10:41:10Z</time>
      </trkpt>
      <trkpt lat="42.4054280" lon="-3.2796730">
        <ele>868.8</ele>
        <time>2022-08-29T10:41:11Z</time>
      </trkpt>
      <trkpt lat="42.4054280" lon="-3.2796730">
        <ele>868.8</ele>
        <time>2022-08-29T10:41:12Z</time>
      </trkpt>
      <trkpt lat="42.4054280" lon="-3.2796730">
        <ele>868.8</ele>
        <time>2022-08-29T10:41:13Z</time>
      </trkpt>
      <trkpt lat="42.4054280" lon="-3.2796730">
        <ele>868.8</ele>
        <time>2022-08-29T10:41:14Z</time>
      </trkpt>
      <trkpt lat="42.4054280" lon="-3.2796740">
        <ele>868.6</ele>
        <time>2022-08-29T10:41:15Z</time>
      </trkpt>
      <trkpt lat="42.4054280" lon="-3.2796730">
        <ele>868.6</ele>
        <time>2022-08-29T10:41:16Z</time>
      </trkpt>
      <trkpt lat="42.4054270" lon="-3.2796730">
        <ele>868.8</ele>
        <time>2022-08-29T10:41:17Z</time>
      </trkpt>
      <trkpt lat="42.4054270" lon="-3.2796730">
        <ele>869.0</ele>
        <time>2022-08-29T10:41:18Z</time>
      </trkpt>
      <trkpt lat="42.4054270" lon="-3.2796730">
        <ele>868.8</ele>
        <time>2022-08-29T10:41:19Z</time>
      </trkpt>
      <trkpt lat="42.4054290" lon="-3.2796730">
        <ele>869.0</ele>
        <time>2022-08-29T10:41:20Z</time>
      </trkpt>
      <trkpt lat="42.4054300" lon="-3.2796720">
        <ele>868.8</ele>
        <time>2022-08-29T10:41:21Z</time>
      </trkpt>
      <trkpt lat="42.4054310" lon="-3.2796710">
        <ele>868.8</ele>
        <time>2022-08-29T10:41:22Z</time>
      </trkpt>
      <trkpt lat="42.4054320" lon="-3.2796700">
        <ele>869.0</ele>
        <time>2022-08-29T10:41:23Z</time>
      </trkpt>
      <trkpt lat="42.4054370" lon="-3.2796660">
        <ele>869.0</ele>
        <time>2022-08-29T10:41:24Z</time>
      </trkpt>
      <trkpt lat="42.4054410" lon="-3.2796630">
        <ele>869.2</ele>
        <time>2022-08-29T10:41:25Z</time>
      </trkpt>
      <trkpt lat="42.4054440" lon="-3.2796600">
        <ele>869.0</ele>
        <time>2022-08-29T10:41:26Z</time>
      </trkpt>
      <trkpt lat="42.4054460" lon="-3.2796570">
        <ele>869.2</ele>
        <time>2022-08-29T10:41:27Z</time>
      </trkpt>
      <trkpt lat="42.4054560" lon="-3.2796480">
        <ele>869.2</ele>
        <time>2022-08-29T10:41:28Z</time>
      </trkpt>
      <trkpt lat="42.4054710" lon="-3.2796400">
        <ele>869.4</ele>
        <time>2022-08-29T10:41:29Z</time>
      </trkpt>
      <trkpt lat="42.4054880" lon="-3.2796310">
        <ele>869.2</ele>
        <time>2022-08-29T10:41:30Z</time>
      </trkpt>
      <trkpt lat="42.4055090" lon="-3.2796240">
        <ele>869.2</ele>
        <time>2022-08-29T10:41:31Z</time>
      </trkpt>
      <trkpt lat="42.4055300" lon="-3.2796340">
        <ele>869.2</ele>
        <time>2022-08-29T10:41:32Z</time>
      </trkpt>
      <trkpt lat="42.4055480" lon="-3.2796540">
        <ele>869.4</ele>
        <time>2022-08-29T10:41:33Z</time>
      </trkpt>
      <trkpt lat="42.4055580" lon="-3.2796860">
        <ele>869.2</ele>
        <time>2022-08-29T10:41:34Z</time>
      </trkpt>
      <trkpt lat="42.4055600" lon="-3.2797170">
        <ele>869.2</ele>
        <time>2022-08-29T10:41:35Z</time>
      </trkpt>
      <trkpt lat="42.4055590" lon="-3.2797500">
        <ele>869.2</ele>
        <time>2022-08-29T10:41:36Z</time>
      </trkpt>
      <trkpt lat="42.4055640" lon="-3.2797890">
        <ele>869.0</ele>
        <time>2022-08-29T10:41:37Z</time>
      </trkpt>
      <trkpt lat="42.4055670" lon="-3.2798220">
        <ele>869.0</ele>
        <time>2022-08-29T10:41:38Z</time>
      </trkpt>
      <trkpt lat="42.4055720" lon="-3.2798560">
        <ele>869.0</ele>
        <time>2022-08-29T10:41:39Z</time>
      </trkpt>
      <trkpt lat="42.4055790" lon="-3.2798920">
        <ele>868.8</ele>
        <time>2022-08-29T10:41:40Z</time>
      </trkpt>
      <trkpt lat="42.4055870" lon="-3.2799320">
        <ele>868.8</ele>
        <time>2022-08-29T10:41:41Z</time>
      </trkpt>
      <trkpt lat="42.4055940" lon="-3.2799730">
        <ele>868.6</ele>
        <time>2022-08-29T10:41:42Z</time>
      </trkpt>
      <trkpt lat="42.4056020" lon="-3.2800130">
        <ele>868.6</ele>
        <time>2022-08-29T10:41:43Z</time>
      </trkpt>
      <trkpt lat="42.4056080" lon="-3.2800520">
        <ele>868.2</ele>
        <time>2022-08-29T10:41:44Z</time>
      </trkpt>
      <trkpt lat="42.4056130" lon="-3.2800920">
        <ele>868.2</ele>
        <time>2022-08-29T10:41:45Z</time>
      </trkpt>
      <trkpt lat="42.4056180" lon="-3.2801310">
        <ele>868.2</ele>
        <time>2022-08-29T10:41:46Z</time>
      </trkpt>
      <trkpt lat="42.4056230" lon="-3.2801720">
        <ele>868.2</ele>
        <time>2022-08-29T10:41:47Z</time>
      </trkpt>
      <trkpt lat="42.4056290" lon="-3.2802150">
        <ele>868.2</ele>
        <time>2022-08-29T10:41:48Z</time>
      </trkpt>
      <trkpt lat="42.4056310" lon="-3.2802570">
        <ele>868.0</ele>
        <time>2022-08-29T10:41:49Z</time>
      </trkpt>
      <trkpt lat="42.4056350" lon="-3.2803010">
        <ele>867.8</ele>
        <time>2022-08-29T10:41:50Z</time>
      </trkpt>
      <trkpt lat="42.4056380" lon="-3.2803490">
        <ele>868.0</ele>
        <time>2022-08-29T10:41:51Z</time>
      </trkpt>
      <trkpt lat="42.4056470" lon="-3.2803920">
        <ele>868.0</ele>
        <time>2022-08-29T10:41:52Z</time>
      </trkpt>
      <trkpt lat="42.4056600" lon="-3.2804310">
        <ele>868.0</ele>
        <time>2022-08-29T10:41:53Z</time>
      </trkpt>
      <trkpt lat="42.4056760" lon="-3.2804700">
        <ele>868.2</ele>
        <time>2022-08-29T10:41:54Z</time>
      </trkpt>
      <trkpt lat="42.4056910" lon="-3.2805060">
        <ele>868.2</ele>
        <time>2022-08-29T10:41:55Z</time>
      </trkpt>
      <trkpt lat="42.4057090" lon="-3.2805470">
        <ele>868.4</ele>
        <time>2022-08-29T10:41:56Z</time>
      </trkpt>
      <trkpt lat="42.4057270" lon="-3.2805910">
        <ele>868.2</ele>
        <time>2022-08-29T10:41:57Z</time>
      </trkpt>
      <trkpt lat="42.4057420" lon="-3.2806400">
        <ele>868.2</ele>
        <time>2022-08-29T10:41:58Z</time>
      </trkpt>
      <trkpt lat="42.4057620" lon="-3.2806820">
        <ele>868.2</ele>
        <time>2022-08-29T10:41:59Z</time>
      </trkpt>
      <trkpt lat="42.4057720" lon="-3.2807250">
        <ele>868.4</ele>
        <time>2022-08-29T10:42:00Z</time>
      </trkpt>
      <trkpt lat="42.4057800" lon="-3.2807660">
        <ele>868.4</ele>
        <time>2022-08-29T10:42:01Z</time>
      </trkpt>
      <trkpt lat="42.4057940" lon="-3.2807990">
        <ele>868.2</ele>
        <time>2022-08-29T10:42:02Z</time>
      </trkpt>
      <trkpt lat="42.4058030" lon="-3.2808400">
        <ele>868.4</ele>
        <time>2022-08-29T10:42:03Z</time>
      </trkpt>
      <trkpt lat="42.4058100" lon="-3.2808800">
        <ele>868.2</ele>
        <time>2022-08-29T10:42:04Z</time>
      </trkpt>
      <trkpt lat="42.4058110" lon="-3.2809220">
        <ele>868.4</ele>
        <time>2022-08-29T10:42:05Z</time>
      </trkpt>
      <trkpt lat="42.4058140" lon="-3.2809640">
        <ele>868.2</ele>
        <time>2022-08-29T10:42:06Z</time>
      </trkpt>
      <trkpt lat="42.4058170" lon="-3.2810080">
        <ele>868.2</ele>
        <time>2022-08-29T10:42:07Z</time>
      </trkpt>
      <trkpt lat="42.4058200" lon="-3.2810540">
        <ele>868.2</ele>
        <time>2022-08-29T10:42:08Z</time>
      </trkpt>
      <trkpt lat="42.4058270" lon="-3.2810980">
        <ele>868.2</ele>
        <time>2022-08-29T10:42:09Z</time>
      </trkpt>
      <trkpt lat="42.4058400" lon="-3.2811350">
        <ele>868.2</ele>
        <time>2022-08-29T10:42:10Z</time>
      </trkpt>
      <trkpt lat="42.4058520" lon="-3.2811730">
        <ele>868.2</ele>
        <time>2022-08-29T10:42:11Z</time>
      </trkpt>
      <trkpt lat="42.4058600" lon="-3.2812100">
        <ele>868.2</ele>
        <time>2022-08-29T10:42:12Z</time>
      </trkpt>
      <trkpt lat="42.4058630" lon="-3.2812340">
        <ele>868.2</ele>
        <time>2022-08-29T10:42:13Z</time>
      </trkpt>
      <trkpt lat="42.4058590" lon="-3.2812420">
        <ele>868.2</ele>
        <time>2022-08-29T10:42:14Z</time>
      </trkpt>
      <trkpt lat="42.4058530" lon="-3.2812360">
        <ele>868.2</ele>
        <time>2022-08-29T10:42:15Z</time>
      </trkpt>
      <trkpt lat="42.4058540" lon="-3.2812300">
        <ele>868.4</ele>
        <time>2022-08-29T10:42:16Z</time>
      </trkpt>
      <trkpt lat="42.4058540" lon="-3.2812270">
        <ele>868.2</ele>
        <time>2022-08-29T10:42:17Z</time>
      </trkpt>
      <trkpt lat="42.4058510" lon="-3.2812230">
        <ele>868.2</ele>
        <time>2022-08-29T10:42:18Z</time>
      </trkpt>
      <trkpt lat="42.4058500" lon="-3.2812220">
        <ele>868.2</ele>
        <time>2022-08-29T10:42:19Z</time>
      </trkpt>
      <trkpt lat="42.4058510" lon="-3.2812220">
        <ele>868.4</ele>
        <time>2022-08-29T10:42:20Z</time>
      </trkpt>
      <trkpt lat="42.4058510" lon="-3.2812220">
        <ele>868.4</ele>
        <time>2022-08-29T10:42:21Z</time>
      </trkpt>
      <trkpt lat="42.4058510" lon="-3.2812220">
        <ele>868.4</ele>
        <time>2022-08-29T10:42:22Z</time>
      </trkpt>
      <trkpt lat="42.4058510" lon="-3.2812220">
        <ele>868.8</ele>
        <time>2022-08-29T10:42:23Z</time>
      </trkpt>
      <trkpt lat="42.4058510" lon="-3.2812230">
        <ele>868.8</ele>
        <time>2022-08-29T10:42:24Z</time>
      </trkpt>
      <trkpt lat="42.4058520" lon="-3.2812230">
        <ele>868.6</ele>
        <time>2022-08-29T10:42:25Z</time>
      </trkpt>
      <trkpt lat="42.4058510" lon="-3.2812240">
        <ele>868.8</ele>
        <time>2022-08-29T10:42:26Z</time>
      </trkpt>
      <trkpt lat="42.4058500" lon="-3.2812220">
        <ele>868.8</ele>
        <time>2022-08-29T10:42:27Z</time>
      </trkpt>
      <trkpt lat="42.4058520" lon="-3.2812220">
        <ele>868.8</ele>
        <time>2022-08-29T10:42:28Z</time>
      </trkpt>
      <trkpt lat="42.4058520" lon="-3.2812210">
        <ele>868.8</ele>
        <time>2022-08-29T10:42:29Z</time>
      </trkpt>
      <trkpt lat="42.4058520" lon="-3.2812210">
        <ele>868.8</ele>
        <time>2022-08-29T10:42:30Z</time>
      </trkpt>
      <trkpt lat="42.4058530" lon="-3.2812200">
        <ele>869.0</ele>
        <time>2022-08-29T10:42:31Z</time>
      </trkpt>
      <trkpt lat="42.4058530" lon="-3.2812200">
        <ele>869.0</ele>
        <time>2022-08-29T10:42:32Z</time>
      </trkpt>
      <trkpt lat="42.4058530" lon="-3.2812200">
        <ele>869.2</ele>
        <time>2022-08-29T10:42:33Z</time>
      </trkpt>
      <trkpt lat="42.4058530" lon="-3.2812200">
        <ele>869.4</ele>
        <time>2022-08-29T10:42:34Z</time>
      </trkpt>
      <trkpt lat="42.4058540" lon="-3.2812200">
        <ele>869.4</ele>
        <time>2022-08-29T10:42:35Z</time>
      </trkpt>
      <trkpt lat="42.4058540" lon="-3.2812200">
        <ele>869.6</ele>
        <time>2022-08-29T10:42:36Z</time>
      </trkpt>
      <trkpt lat="42.4058540" lon="-3.2812190">
        <ele>869.6</ele>
        <time>2022-08-29T10:42:37Z</time>
      </trkpt>
      <trkpt lat="42.4058550" lon="-3.2812190">
        <ele>869.6</ele>
        <time>2022-08-29T10:42:38Z</time>
      </trkpt>
      <trkpt lat="42.4058550" lon="-3.2812190">
        <ele>869.8</ele>
        <time>2022-08-29T10:42:39Z</time>
      </trkpt>
      <trkpt lat="42.4058550" lon="-3.2812180">
        <ele>869.6</ele>
        <time>2022-08-29T10:42:40Z</time>
      </trkpt>
      <trkpt lat="42.4058560" lon="-3.2812180">
        <ele>869.6</ele>
        <time>2022-08-29T10:42:41Z</time>
      </trkpt>
      <trkpt lat="42.4058560" lon="-3.2812170">
        <ele>869.6</ele>
        <time>2022-08-29T10:42:42Z</time>
      </trkpt>
      <trkpt lat="42.4058560" lon="-3.2812150">
        <ele>869.8</ele>
        <time>2022-08-29T10:42:43Z</time>
      </trkpt>
      <trkpt lat="42.4058560" lon="-3.2812140">
        <ele>869.6</ele>
        <time>2022-08-29T10:42:44Z</time>
      </trkpt>
      <trkpt lat="42.4058550" lon="-3.2812130">
        <ele>869.8</ele>
        <time>2022-08-29T10:42:45Z</time>
      </trkpt>
      <trkpt lat="42.4058550" lon="-3.2812130">
        <ele>869.8</ele>
        <time>2022-08-29T10:42:46Z</time>
      </trkpt>
      <trkpt lat="42.4058550" lon="-3.2812130">
        <ele>869.6</ele>
        <time>2022-08-29T10:42:47Z</time>
      </trkpt>
      <trkpt lat="42.4058550" lon="-3.2812130">
        <ele>869.6</ele>
        <time>2022-08-29T10:42:48Z</time>
      </trkpt>
      <trkpt lat="42.4058550" lon="-3.2812130">
        <ele>869.6</ele>
        <time>2022-08-29T10:42:49Z</time>
      </trkpt>
      <trkpt lat="42.4058550" lon="-3.2812120">
        <ele>869.8</ele>
        <time>2022-08-29T10:42:50Z</time>
      </trkpt>
      <trkpt lat="42.4058550" lon="-3.2812110">
        <ele>869.6</ele>
        <time>2022-08-29T10:42:51Z</time>
      </trkpt>
      <trkpt lat="42.4058530" lon="-3.2812110">
        <ele>869.8</ele>
        <time>2022-08-29T10:42:52Z</time>
      </trkpt>
      <trkpt lat="42.4058520" lon="-3.2812110">
        <ele>869.8</ele>
        <time>2022-08-29T10:42:53Z</time>
      </trkpt>
      <trkpt lat="42.4058520" lon="-3.2812110">
        <ele>869.6</ele>
        <time>2022-08-29T10:42:54Z</time>
      </trkpt>
      <trkpt lat="42.4058520" lon="-3.2812110">
        <ele>869.6</ele>
        <time>2022-08-29T10:42:55Z</time>
      </trkpt>
      <trkpt lat="42.4058520" lon="-3.2812110">
        <ele>869.6</ele>
        <time>2022-08-29T10:42:56Z</time>
      </trkpt>
      <trkpt lat="42.4058520" lon="-3.2812080">
        <ele>869.6</ele>
        <time>2022-08-29T10:42:57Z</time>
      </trkpt>
      <trkpt lat="42.4058510" lon="-3.2812070">
        <ele>869.8</ele>
        <time>2022-08-29T10:42:58Z</time>
      </trkpt>
      <trkpt lat="42.4058470" lon="-3.2812170">
        <ele>869.6</ele>
        <time>2022-08-29T10:42:59Z</time>
      </trkpt>
      <trkpt lat="42.4058430" lon="-3.2812250">
        <ele>869.6</ele>
        <time>2022-08-29T10:43:00Z</time>
      </trkpt>
      <trkpt lat="42.4058340" lon="-3.2812370">
        <ele>869.4</ele>
        <time>2022-08-29T10:43:01Z</time>
      </trkpt>
      <trkpt lat="42.4058260" lon="-3.2812550">
        <ele>869.6</ele>
        <time>2022-08-29T10:43:02Z</time>
      </trkpt>
      <trkpt lat="42.4058140" lon="-3.2812810">
        <ele>869.6</ele>
        <time>2022-08-29T10:43:03Z</time>
      </trkpt>
      <trkpt lat="42.4058020" lon="-3.2813130">
        <ele>869.4</ele>
        <time>2022-08-29T10:43:04Z</time>
      </trkpt>
      <trkpt lat="42.4057940" lon="-3.2813500">
        <ele>869.4</ele>
        <time>2022-08-29T10:43:05Z</time>
      </trkpt>
      <trkpt lat="42.4057880" lon="-3.2813850">
        <ele>869.4</ele>
        <time>2022-08-29T10:43:06Z</time>
      </trkpt>
      <trkpt lat="42.4057850" lon="-3.2814120">
        <ele>869.4</ele>
        <time>2022-08-29T10:43:07Z</time>
      </trkpt>
      <trkpt lat="42.4057840" lon="-3.2814350">
        <ele>869.4</ele>
        <time>2022-08-29T10:43:08Z</time>
      </trkpt>
      <trkpt lat="42.4057830" lon="-3.2814530">
        <ele>869.6</ele>
        <time>2022-08-29T10:43:09Z</time>
      </trkpt>
      <trkpt lat="42.4057810" lon="-3.2814670">
        <ele>869.4</ele>
        <time>2022-08-29T10:43:10Z</time>
      </trkpt>
      <trkpt lat="42.4057860" lon="-3.2814920">
        <ele>869.4</ele>
        <time>2022-08-29T10:43:11Z</time>
      </trkpt>
      <trkpt lat="42.4057910" lon="-3.2815100">
        <ele>869.4</ele>
        <time>2022-08-29T10:43:12Z</time>
      </trkpt>
      <trkpt lat="42.4058000" lon="-3.2815270">
        <ele>869.6</ele>
        <time>2022-08-29T10:43:13Z</time>
      </trkpt>
      <trkpt lat="42.4058100" lon="-3.2815420">
        <ele>869.6</ele>
        <time>2022-08-29T10:43:14Z</time>
      </trkpt>
      <trkpt lat="42.4058210" lon="-3.2815560">
        <ele>869.8</ele>
        <time>2022-08-29T10:43:15Z</time>
      </trkpt>
      <trkpt lat="42.4058330" lon="-3.2815710">
        <ele>869.8</ele>
        <time>2022-08-29T10:43:16Z</time>
      </trkpt>
      <trkpt lat="42.4058470" lon="-3.2815960">
        <ele>869.6</ele>
        <time>2022-08-29T10:43:17Z</time>
      </trkpt>
      <trkpt lat="42.4058610" lon="-3.2816190">
        <ele>869.8</ele>
        <time>2022-08-29T10:43:18Z</time>
      </trkpt>
      <trkpt lat="42.4058780" lon="-3.2816440">
        <ele>869.8</ele>
        <time>2022-08-29T10:43:19Z</time>
      </trkpt>
      <trkpt lat="42.4058960" lon="-3.2816710">
        <ele>869.8</ele>
        <time>2022-08-29T10:43:20Z</time>
      </trkpt>
      <trkpt lat="42.4059220" lon="-3.2816980">
        <ele>869.8</ele>
        <time>2022-08-29T10:43:21Z</time>
      </trkpt>
      <trkpt lat="42.4059490" lon="-3.2817240">
        <ele>869.8</ele>
        <time>2022-08-29T10:43:22Z</time>
      </trkpt>
      <trkpt lat="42.4059760" lon="-3.2817510">
        <ele>869.8</ele>
        <time>2022-08-29T10:43:23Z</time>
      </trkpt>
      <trkpt lat="42.4060020" lon="-3.2817790">
        <ele>870.0</ele>
        <time>2022-08-29T10:43:24Z</time>
      </trkpt>
      <trkpt lat="42.4060240" lon="-3.2818080">
        <ele>870.0</ele>
        <time>2022-08-29T10:43:25Z</time>
      </trkpt>
      <trkpt lat="42.4060490" lon="-3.2818350">
        <ele>869.8</ele>
        <time>2022-08-29T10:43:26Z</time>
      </trkpt>
      <trkpt lat="42.4060740" lon="-3.2818570">
        <ele>869.8</ele>
        <time>2022-08-29T10:43:27Z</time>
      </trkpt>
      <trkpt lat="42.4061020" lon="-3.2818760">
        <ele>870.0</ele>
        <time>2022-08-29T10:43:28Z</time>
      </trkpt>
      <trkpt lat="42.4061320" lon="-3.2818870">
        <ele>869.8</ele>
        <time>2022-08-29T10:43:29Z</time>
      </trkpt>
      <trkpt lat="42.4061660" lon="-3.2818920">
        <ele>869.8</ele>
        <time>2022-08-29T10:43:30Z</time>
      </trkpt>
      <trkpt lat="42.4062030" lon="-3.2818870">
        <ele>869.6</ele>
        <time>2022-08-29T10:43:31Z</time>
      </trkpt>
      <trkpt lat="42.4062370" lon="-3.2818880">
        <ele>869.2</ele>
        <time>2022-08-29T10:43:32Z</time>
      </trkpt>
      <trkpt lat="42.4062690" lon="-3.2818940">
        <ele>869.0</ele>
        <time>2022-08-29T10:43:33Z</time>
      </trkpt>
      <trkpt lat="42.4063040" lon="-3.2819020">
        <ele>868.8</ele>
        <time>2022-08-29T10:43:34Z</time>
      </trkpt>
      <trkpt lat="42.4063380" lon="-3.2819170">
        <ele>868.6</ele>
        <time>2022-08-29T10:43:35Z</time>
      </trkpt>
      <trkpt lat="42.4063710" lon="-3.2819580">
        <ele>868.6</ele>
        <time>2022-08-29T10:43:36Z</time>
      </trkpt>
      <trkpt lat="42.4063970" lon="-3.2820040">
        <ele>868.8</ele>
        <time>2022-08-29T10:43:37Z</time>
      </trkpt>
      <trkpt lat="42.4064080" lon="-3.2820640">
        <ele>868.6</ele>
        <time>2022-08-29T10:43:38Z</time>
      </trkpt>
      <trkpt lat="42.4064000" lon="-3.2821240">
        <ele>868.6</ele>
        <time>2022-08-29T10:43:39Z</time>
      </trkpt>
      <trkpt lat="42.4063750" lon="-3.2821820">
        <ele>868.4</ele>
        <time>2022-08-29T10:43:40Z</time>
      </trkpt>
      <trkpt lat="42.4063380" lon="-3.2822350">
        <ele>868.4</ele>
        <time>2022-08-29T10:43:41Z</time>
      </trkpt>
      <trkpt lat="42.4063030" lon="-3.2822900">
        <ele>868.6</ele>
        <time>2022-08-29T10:43:42Z</time>
      </trkpt>
      <trkpt lat="42.4062600" lon="-3.2823410">
        <ele>868.4</ele>
        <time>2022-08-29T10:43:43Z</time>
      </trkpt>
      <trkpt lat="42.4062170" lon="-3.2823930">
        <ele>868.2</ele>
        <time>2022-08-29T10:43:44Z</time>
      </trkpt>
      <trkpt lat="42.4061740" lon="-3.2824450">
        <ele>868.2</ele>
        <time>2022-08-29T10:43:45Z</time>
      </trkpt>
      <trkpt lat="42.4061310" lon="-3.2824980">
        <ele>867.8</ele>
        <time>2022-08-29T10:43:46Z</time>
      </trkpt>
      <trkpt lat="42.4060890" lon="-3.2825520">
        <ele>867.6</ele>
        <time>2022-08-29T10:43:47Z</time>
      </trkpt>
      <trkpt lat="42.4060480" lon="-3.2826070">
        <ele>867.2</ele>
        <time>2022-08-29T10:43:48Z</time>
      </trkpt>
      <trkpt lat="42.4060080" lon="-3.2826610">
        <ele>866.6</ele>
        <time>2022-08-29T10:43:49Z</time>
      </trkpt>
      <trkpt lat="42.4059700" lon="-3.2827140">
        <ele>865.6</ele>
        <time>2022-08-29T10:43:50Z</time>
      </trkpt>
      <trkpt lat="42.4059310" lon="-3.2827650">
        <ele>865.2</ele>
        <time>2022-08-29T10:43:51Z</time>
      </trkpt>
      <trkpt lat="42.4058900" lon="-3.2828150">
        <ele>864.8</ele>
        <time>2022-08-29T10:43:52Z</time>
      </trkpt>
      <trkpt lat="42.4058510" lon="-3.2828630">
        <ele>864.4</ele>
        <time>2022-08-29T10:43:53Z</time>
      </trkpt>
      <trkpt lat="42.4058120" lon="-3.2829100">
        <ele>864.2</ele>
        <time>2022-08-29T10:43:54Z</time>
      </trkpt>
      <trkpt lat="42.4057760" lon="-3.2829580">
        <ele>863.8</ele>
        <time>2022-08-29T10:43:55Z</time>
      </trkpt>
      <trkpt lat="42.4057400" lon="-3.2830090">
        <ele>863.2</ele>
        <time>2022-08-29T10:43:56Z</time>
      </trkpt>
      <trkpt lat="42.4057030" lon="-3.2830600">
        <ele>862.8</ele>
        <time>2022-08-29T10:43:57Z</time>
      </trkpt>
      <trkpt lat="42.4056620" lon="-3.2831090">
        <ele>862.4</ele>
        <time>2022-08-29T10:43:58Z</time>
      </trkpt>
      <trkpt lat="42.4055830" lon="-3.2832060">
        <ele>862.2</ele>
        <time>2022-08-29T10:43:59Z</time>
      </trkpt>
      <trkpt lat="42.4055640" lon="-3.2832310">
        <ele>862.2</ele>
        <time>2022-08-29T10:44:00Z</time>
      </trkpt>
      <trkpt lat="42.4055450" lon="-3.2832550">
        <ele>862.2</ele>
        <time>2022-08-29T10:44:01Z</time>
      </trkpt>
      <trkpt lat="42.4055070" lon="-3.2833010">
        <ele>862.0</ele>
        <time>2022-08-29T10:44:02Z</time>
      </trkpt>
      <trkpt lat="42.4054690" lon="-3.2833440">
        <ele>861.8</ele>
        <time>2022-08-29T10:44:03Z</time>
      </trkpt>
      <trkpt lat="42.4054360" lon="-3.2833860">
        <ele>862.0</ele>
        <time>2022-08-29T10:44:04Z</time>
      </trkpt>
      <trkpt lat="42.4054090" lon="-3.2834220">
        <ele>861.8</ele>
        <time>2022-08-29T10:44:05Z</time>
      </trkpt>
      <trkpt lat="42.4053900" lon="-3.2834430">
        <ele>861.8</ele>
        <time>2022-08-29T10:44:06Z</time>
      </trkpt>
      <trkpt lat="42.4053810" lon="-3.2834510">
        <ele>861.8</ele>
        <time>2022-08-29T10:44:07Z</time>
      </trkpt>
      <trkpt lat="42.4053820" lon="-3.2834460">
        <ele>862.0</ele>
        <time>2022-08-29T10:44:08Z</time>
      </trkpt>
      <trkpt lat="42.4053820" lon="-3.2834420">
        <ele>861.8</ele>
        <time>2022-08-29T10:44:09Z</time>
      </trkpt>
      <trkpt lat="42.4053870" lon="-3.2834430">
        <ele>861.8</ele>
        <time>2022-08-29T10:44:10Z</time>
      </trkpt>
      <trkpt lat="42.4053880" lon="-3.2834400">
        <ele>862.0</ele>
        <time>2022-08-29T10:44:11Z</time>
      </trkpt>
      <trkpt lat="42.4053880" lon="-3.2834400">
        <ele>862.0</ele>
        <time>2022-08-29T10:44:12Z</time>
      </trkpt>
      <trkpt lat="42.4053890" lon="-3.2834400">
        <ele>862.0</ele>
        <time>2022-08-29T10:44:13Z</time>
      </trkpt>
      <trkpt lat="42.4053890" lon="-3.2834400">
        <ele>862.4</ele>
        <time>2022-08-29T10:44:14Z</time>
      </trkpt>
      <trkpt lat="42.4053900" lon="-3.2834400">
        <ele>862.6</ele>
        <time>2022-08-29T10:44:15Z</time>
      </trkpt>
      <trkpt lat="42.4053910" lon="-3.2834400">
        <ele>862.8</ele>
        <time>2022-08-29T10:44:16Z</time>
      </trkpt>
      <trkpt lat="42.4053910" lon="-3.2834400">
        <ele>862.8</ele>
        <time>2022-08-29T10:44:17Z</time>
      </trkpt>
      <trkpt lat="42.4053910" lon="-3.2834400">
        <ele>862.8</ele>
        <time>2022-08-29T10:44:18Z</time>
      </trkpt>
      <trkpt lat="42.4053920" lon="-3.2834400">
        <ele>862.8</ele>
        <time>2022-08-29T10:44:19Z</time>
      </trkpt>
      <trkpt lat="42.4053920" lon="-3.2834400">
        <ele>863.0</ele>
        <time>2022-08-29T10:44:20Z</time>
      </trkpt>
      <trkpt lat="42.4053920" lon="-3.2834410">
        <ele>863.0</ele>
        <time>2022-08-29T10:44:21Z</time>
      </trkpt>
      <trkpt lat="42.4053920" lon="-3.2834400">
        <ele>863.0</ele>
        <time>2022-08-29T10:44:22Z</time>
      </trkpt>
      <trkpt lat="42.4053920" lon="-3.2834400">
        <ele>863.2</ele>
        <time>2022-08-29T10:44:23Z</time>
      </trkpt>
      <trkpt lat="42.4053920" lon="-3.2834400">
        <ele>863.2</ele>
        <time>2022-08-29T10:44:24Z</time>
      </trkpt>
      <trkpt lat="42.4053920" lon="-3.2834400">
        <ele>863.2</ele>
        <time>2022-08-29T10:44:25Z</time>
      </trkpt>
      <trkpt lat="42.4053920" lon="-3.2834400">
        <ele>863.2</ele>
        <time>2022-08-29T10:44:26Z</time>
      </trkpt>
      <trkpt lat="42.4053920" lon="-3.2834400">
        <ele>863.0</ele>
        <time>2022-08-29T10:44:27Z</time>
      </trkpt>
      <trkpt lat="42.4053930" lon="-3.2834410">
        <ele>863.2</ele>
        <time>2022-08-29T10:44:28Z</time>
      </trkpt>
      <trkpt lat="42.4053930" lon="-3.2834410">
        <ele>863.2</ele>
        <time>2022-08-29T10:44:29Z</time>
      </trkpt>
      <trkpt lat="42.4053930" lon="-3.2834410">
        <ele>863.0</ele>
        <time>2022-08-29T10:44:30Z</time>
      </trkpt>
      <trkpt lat="42.4053930" lon="-3.2834410">
        <ele>863.2</ele>
        <time>2022-08-29T10:44:31Z</time>
      </trkpt>
      <trkpt lat="42.4053930" lon="-3.2834410">
        <ele>863.2</ele>
        <time>2022-08-29T10:44:32Z</time>
      </trkpt>
      <trkpt lat="42.4053930" lon="-3.2834410">
        <ele>863.2</ele>
        <time>2022-08-29T10:44:33Z</time>
      </trkpt>
      <trkpt lat="42.4053930" lon="-3.2834410">
        <ele>863.4</ele>
        <time>2022-08-29T10:44:34Z</time>
      </trkpt>
      <trkpt lat="42.4053940" lon="-3.2834400">
        <ele>863.4</ele>
        <time>2022-08-29T10:44:35Z</time>
      </trkpt>
      <trkpt lat="42.4053940" lon="-3.2834410">
        <ele>863.4</ele>
        <time>2022-08-29T10:44:36Z</time>
      </trkpt>
      <trkpt lat="42.4053940" lon="-3.2834410">
        <ele>863.6</ele>
        <time>2022-08-29T10:44:37Z</time>
      </trkpt>
      <trkpt lat="42.4053950" lon="-3.2834410">
        <ele>863.6</ele>
        <time>2022-08-29T10:44:38Z</time>
      </trkpt>
      <trkpt lat="42.4053950" lon="-3.2834410">
        <ele>863.6</ele>
        <time>2022-08-29T10:44:39Z</time>
      </trkpt>
      <trkpt lat="42.4053950" lon="-3.2834400">
        <ele>863.6</ele>
        <time>2022-08-29T10:44:40Z</time>
      </trkpt>
      <trkpt lat="42.4053950" lon="-3.2834400">
        <ele>863.6</ele>
        <time>2022-08-29T10:44:41Z</time>
      </trkpt>
      <trkpt lat="42.4053960" lon="-3.2834410">
        <ele>863.6</ele>
        <time>2022-08-29T10:44:42Z</time>
      </trkpt>
      <trkpt lat="42.4053960" lon="-3.2834410">
        <ele>863.8</ele>
        <time>2022-08-29T10:44:43Z</time>
      </trkpt>
      <trkpt lat="42.4053960" lon="-3.2834410">
        <ele>863.6</ele>
        <time>2022-08-29T10:44:44Z</time>
      </trkpt>
      <trkpt lat="42.4053970" lon="-3.2834420">
        <ele>863.8</ele>
        <time>2022-08-29T10:44:45Z</time>
      </trkpt>
      <trkpt lat="42.4053970" lon="-3.2834410">
        <ele>863.8</ele>
        <time>2022-08-29T10:44:46Z</time>
      </trkpt>
      <trkpt lat="42.4053980" lon="-3.2834410">
        <ele>863.8</ele>
        <time>2022-08-29T10:44:47Z</time>
      </trkpt>
      <trkpt lat="42.4053980" lon="-3.2834420">
        <ele>863.8</ele>
        <time>2022-08-29T10:44:48Z</time>
      </trkpt>
      <trkpt lat="42.4053980" lon="-3.2834420">
        <ele>863.8</ele>
        <time>2022-08-29T10:44:49Z</time>
      </trkpt>
      <trkpt lat="42.4053980" lon="-3.2834420">
        <ele>863.8</ele>
        <time>2022-08-29T10:44:50Z</time>
      </trkpt>
      <trkpt lat="42.4053990" lon="-3.2834420">
        <ele>863.8</ele>
        <time>2022-08-29T10:44:51Z</time>
      </trkpt>
      <trkpt lat="42.4053990" lon="-3.2834420">
        <ele>863.8</ele>
        <time>2022-08-29T10:44:52Z</time>
      </trkpt>
      <trkpt lat="42.4053990" lon="-3.2834430">
        <ele>863.8</ele>
        <time>2022-08-29T10:44:53Z</time>
      </trkpt>
      <trkpt lat="42.4053990" lon="-3.2834430">
        <ele>863.8</ele>
        <time>2022-08-29T10:44:54Z</time>
      </trkpt>
      <trkpt lat="42.4054000" lon="-3.2834430">
        <ele>863.8</ele>
        <time>2022-08-29T10:44:55Z</time>
      </trkpt>
      <trkpt lat="42.4054000" lon="-3.2834450">
        <ele>863.8</ele>
        <time>2022-08-29T10:44:56Z</time>
      </trkpt>
      <trkpt lat="42.4053980" lon="-3.2834470">
        <ele>863.8</ele>
        <time>2022-08-29T10:44:57Z</time>
      </trkpt>
      <trkpt lat="42.4053920" lon="-3.2834540">
        <ele>863.8</ele>
        <time>2022-08-29T10:44:58Z</time>
      </trkpt>
      <trkpt lat="42.4053800" lon="-3.2834700">
        <ele>863.8</ele>
        <time>2022-08-29T10:44:59Z</time>
      </trkpt>
      <trkpt lat="42.4053620" lon="-3.2834920">
        <ele>863.8</ele>
        <time>2022-08-29T10:45:00Z</time>
      </trkpt>
      <trkpt lat="42.4053430" lon="-3.2835170">
        <ele>863.8</ele>
        <time>2022-08-29T10:45:01Z</time>
      </trkpt>
      <trkpt lat="42.4053230" lon="-3.2835440">
        <ele>863.8</ele>
        <time>2022-08-29T10:45:02Z</time>
      </trkpt>
      <trkpt lat="42.4053010" lon="-3.2835690">
        <ele>863.8</ele>
        <time>2022-08-29T10:45:03Z</time>
      </trkpt>
      <trkpt lat="42.4052810" lon="-3.2835950">
        <ele>863.8</ele>
        <time>2022-08-29T10:45:04Z</time>
      </trkpt>
      <trkpt lat="42.4052630" lon="-3.2836210">
        <ele>863.8</ele>
        <time>2022-08-29T10:45:05Z</time>
      </trkpt>
      <trkpt lat="42.4052460" lon="-3.2836450">
        <ele>863.6</ele>
        <time>2022-08-29T10:45:06Z</time>
      </trkpt>
      <trkpt lat="42.4052310" lon="-3.2836700">
        <ele>863.6</ele>
        <time>2022-08-29T10:45:07Z</time>
      </trkpt>
      <trkpt lat="42.4052170" lon="-3.2836950">
        <ele>863.6</ele>
        <time>2022-08-29T10:45:08Z</time>
      </trkpt>
      <trkpt lat="42.4052030" lon="-3.2837170">
        <ele>863.8</ele>
        <time>2022-08-29T10:45:09Z</time>
      </trkpt>
      <trkpt lat="42.4051910" lon="-3.2837400">
        <ele>863.6</ele>
        <time>2022-08-29T10:45:10Z</time>
      </trkpt>
      <trkpt lat="42.4051850" lon="-3.2837650">
        <ele>863.6</ele>
        <time>2022-08-29T10:45:11Z</time>
      </trkpt>
      <trkpt lat="42.4051750" lon="-3.2837860">
        <ele>863.6</ele>
        <time>2022-08-29T10:45:12Z</time>
      </trkpt>
      <trkpt lat="42.4051610" lon="-3.2838020">
        <ele>863.6</ele>
        <time>2022-08-29T10:45:13Z</time>
      </trkpt>
      <trkpt lat="42.4051520" lon="-3.2838090">
        <ele>863.6</ele>
        <time>2022-08-29T10:45:14Z</time>
      </trkpt>
      <trkpt lat="42.4051480" lon="-3.2838110">
        <ele>863.6</ele>
        <time>2022-08-29T10:45:15Z</time>
      </trkpt>
      <trkpt lat="42.4051450" lon="-3.2838080">
        <ele>863.6</ele>
        <time>2022-08-29T10:45:16Z</time>
      </trkpt>
      <trkpt lat="42.4051490" lon="-3.2838140">
        <ele>863.8</ele>
        <time>2022-08-29T10:45:17Z</time>
      </trkpt>
      <trkpt lat="42.4051530" lon="-3.2838190">
        <ele>863.6</ele>
        <time>2022-08-29T10:45:18Z</time>
      </trkpt>
      <trkpt lat="42.4051560" lon="-3.2838260">
        <ele>863.6</ele>
        <time>2022-08-29T10:45:19Z</time>
      </trkpt>
      <trkpt lat="42.4051570" lon="-3.2838270">
        <ele>863.6</ele>
        <time>2022-08-29T10:45:20Z</time>
      </trkpt>
      <trkpt lat="42.4051570" lon="-3.2838270">
        <ele>863.6</ele>
        <time>2022-08-29T10:45:21Z</time>
      </trkpt>
      <trkpt lat="42.4051570" lon="-3.2838270">
        <ele>863.6</ele>
        <time>2022-08-29T10:45:22Z</time>
      </trkpt>
      <trkpt lat="42.4051570" lon="-3.2838270">
        <ele>863.6</ele>
        <time>2022-08-29T10:45:23Z</time>
      </trkpt>
      <trkpt lat="42.4051570" lon="-3.2838270">
        <ele>863.8</ele>
        <time>2022-08-29T10:45:24Z</time>
      </trkpt>
      <trkpt lat="42.4051570" lon="-3.2838270">
        <ele>863.8</ele>
        <time>2022-08-29T10:45:25Z</time>
      </trkpt>
      <trkpt lat="42.4051570" lon="-3.2838270">
        <ele>863.8</ele>
        <time>2022-08-29T10:45:26Z</time>
      </trkpt>
      <trkpt lat="42.4051570" lon="-3.2838270">
        <ele>863.8</ele>
        <time>2022-08-29T10:45:27Z</time>
      </trkpt>
      <trkpt lat="42.4051570" lon="-3.2838270">
        <ele>863.8</ele>
        <time>2022-08-29T10:45:28Z</time>
      </trkpt>
      <trkpt lat="42.4051580" lon="-3.2838270">
        <ele>864.0</ele>
        <time>2022-08-29T10:45:29Z</time>
      </trkpt>
      <trkpt lat="42.4051580" lon="-3.2838270">
        <ele>864.2</ele>
        <time>2022-08-29T10:45:30Z</time>
      </trkpt>
      <trkpt lat="42.4051580" lon="-3.2838270">
        <ele>864.2</ele>
        <time>2022-08-29T10:45:31Z</time>
      </trkpt>
      <trkpt lat="42.4051580" lon="-3.2838270">
        <ele>864.4</ele>
        <time>2022-08-29T10:45:32Z</time>
      </trkpt>
      <trkpt lat="42.4051580" lon="-3.2838270">
        <ele>864.4</ele>
        <time>2022-08-29T10:45:33Z</time>
      </trkpt>
      <trkpt lat="42.4051590" lon="-3.2838280">
        <ele>864.4</ele>
        <time>2022-08-29T10:45:34Z</time>
      </trkpt>
      <trkpt lat="42.4051590" lon="-3.2838280">
        <ele>864.4</ele>
        <time>2022-08-29T10:45:35Z</time>
      </trkpt>
      <trkpt lat="42.4051590" lon="-3.2838280">
        <ele>864.6</ele>
        <time>2022-08-29T10:45:36Z</time>
      </trkpt>
      <trkpt lat="42.4051590" lon="-3.2838280">
        <ele>864.6</ele>
        <time>2022-08-29T10:45:37Z</time>
      </trkpt>
      <trkpt lat="42.4051590" lon="-3.2838290">
        <ele>864.8</ele>
        <time>2022-08-29T10:45:38Z</time>
      </trkpt>
      <trkpt lat="42.4051590" lon="-3.2838290">
        <ele>864.8</ele>
        <time>2022-08-29T10:45:39Z</time>
      </trkpt>
      <trkpt lat="42.4051590" lon="-3.2838290">
        <ele>864.8</ele>
        <time>2022-08-29T10:45:40Z</time>
      </trkpt>
      <trkpt lat="42.4051590" lon="-3.2838290">
        <ele>864.8</ele>
        <time>2022-08-29T10:45:41Z</time>
      </trkpt>
      <trkpt lat="42.4051580" lon="-3.2838290">
        <ele>864.8</ele>
        <time>2022-08-29T10:45:42Z</time>
      </trkpt>
      <trkpt lat="42.4051580" lon="-3.2838290">
        <ele>864.8</ele>
        <time>2022-08-29T10:45:43Z</time>
      </trkpt>
      <trkpt lat="42.4051580" lon="-3.2838300">
        <ele>865.0</ele>
        <time>2022-08-29T10:45:44Z</time>
      </trkpt>
      <trkpt lat="42.4051580" lon="-3.2838300">
        <ele>865.0</ele>
        <time>2022-08-29T10:45:45Z</time>
      </trkpt>
      <trkpt lat="42.4051580" lon="-3.2838300">
        <ele>865.0</ele>
        <time>2022-08-29T10:45:46Z</time>
      </trkpt>
      <trkpt lat="42.4051580" lon="-3.2838300">
        <ele>865.0</ele>
        <time>2022-08-29T10:45:47Z</time>
      </trkpt>
      <trkpt lat="42.4051580" lon="-3.2838300">
        <ele>865.0</ele>
        <time>2022-08-29T10:45:48Z</time>
      </trkpt>
      <trkpt lat="42.4051580" lon="-3.2838300">
        <ele>865.0</ele>
        <time>2022-08-29T10:45:49Z</time>
      </trkpt>
      <trkpt lat="42.4051580" lon="-3.2838300">
        <ele>865.2</ele>
        <time>2022-08-29T10:45:50Z</time>
      </trkpt>
      <trkpt lat="42.4051580" lon="-3.2838300">
        <ele>865.0</ele>
        <time>2022-08-29T10:45:51Z</time>
      </trkpt>
      <trkpt lat="42.4051580" lon="-3.2838300">
        <ele>865.0</ele>
        <time>2022-08-29T10:45:52Z</time>
      </trkpt>
      <trkpt lat="42.4051580" lon="-3.2838310">
        <ele>865.0</ele>
        <time>2022-08-29T10:45:53Z</time>
      </trkpt>
      <trkpt lat="42.4051580" lon="-3.2838310">
        <ele>865.0</ele>
        <time>2022-08-29T10:45:54Z</time>
      </trkpt>
      <trkpt lat="42.4051580" lon="-3.2838310">
        <ele>865.2</ele>
        <time>2022-08-29T10:45:55Z</time>
      </trkpt>
      <trkpt lat="42.4051580" lon="-3.2838310">
        <ele>865.2</ele>
        <time>2022-08-29T10:45:56Z</time>
      </trkpt>
      <trkpt lat="42.4051580" lon="-3.2838310">
        <ele>865.2</ele>
        <time>2022-08-29T10:45:57Z</time>
      </trkpt>
      <trkpt lat="42.4051580" lon="-3.2838310">
        <ele>865.2</ele>
        <time>2022-08-29T10:45:58Z</time>
      </trkpt>
      <trkpt lat="42.4051580" lon="-3.2838310">
        <ele>865.2</ele>
        <time>2022-08-29T10:45:59Z</time>
      </trkpt>
      <trkpt lat="42.4051580" lon="-3.2838310">
        <ele>865.2</ele>
        <time>2022-08-29T10:46:00Z</time>
      </trkpt>
      <trkpt lat="42.4051580" lon="-3.2838310">
        <ele>865.2</ele>
        <time>2022-08-29T10:46:01Z</time>
      </trkpt>
      <trkpt lat="42.4051580" lon="-3.2838310">
        <ele>865.2</ele>
        <time>2022-08-29T10:46:02Z</time>
      </trkpt>
      <trkpt lat="42.4051590" lon="-3.2838310">
        <ele>865.2</ele>
        <time>2022-08-29T10:46:03Z</time>
      </trkpt>
      <trkpt lat="42.4051590" lon="-3.2838310">
        <ele>865.4</ele>
        <time>2022-08-29T10:46:04Z</time>
      </trkpt>
      <trkpt lat="42.4051590" lon="-3.2838310">
        <ele>865.2</ele>
        <time>2022-08-29T10:46:05Z</time>
      </trkpt>
      <trkpt lat="42.4051590" lon="-3.2838310">
        <ele>865.2</ele>
        <time>2022-08-29T10:46:06Z</time>
      </trkpt>
      <trkpt lat="42.4051590" lon="-3.2838310">
        <ele>865.2</ele>
        <time>2022-08-29T10:46:07Z</time>
      </trkpt>
      <trkpt lat="42.4051590" lon="-3.2838320">
        <ele>865.2</ele>
        <time>2022-08-29T10:46:08Z</time>
      </trkpt>
      <trkpt lat="42.4051590" lon="-3.2838320">
        <ele>865.2</ele>
        <time>2022-08-29T10:46:09Z</time>
      </trkpt>
      <trkpt lat="42.4051590" lon="-3.2838330">
        <ele>865.4</ele>
        <time>2022-08-29T10:46:10Z</time>
      </trkpt>
      <trkpt lat="42.4051580" lon="-3.2838400">
        <ele>865.4</ele>
        <time>2022-08-29T10:46:11Z</time>
      </trkpt>
      <trkpt lat="42.4051560" lon="-3.2838490">
        <ele>865.2</ele>
        <time>2022-08-29T10:46:12Z</time>
      </trkpt>
      <trkpt lat="42.4051520" lon="-3.2838630">
        <ele>865.4</ele>
        <time>2022-08-29T10:46:13Z</time>
      </trkpt>
      <trkpt lat="42.4051470" lon="-3.2838820">
        <ele>865.4</ele>
        <time>2022-08-29T10:46:14Z</time>
      </trkpt>
      <trkpt lat="42.4051430" lon="-3.2839060">
        <ele>865.4</ele>
        <time>2022-08-29T10:46:15Z</time>
      </trkpt>
      <trkpt lat="42.4051390" lon="-3.2839370">
        <ele>865.4</ele>
        <time>2022-08-29T10:46:16Z</time>
      </trkpt>
      <trkpt lat="42.4051340" lon="-3.2839710">
        <ele>865.2</ele>
        <time>2022-08-29T10:46:17Z</time>
      </trkpt>
      <trkpt lat="42.4051280" lon="-3.2840100">
        <ele>865.4</ele>
        <time>2022-08-29T10:46:18Z</time>
      </trkpt>
      <trkpt lat="42.4051210" lon="-3.2840480">
        <ele>865.4</ele>
        <time>2022-08-29T10:46:19Z</time>
      </trkpt>
      <trkpt lat="42.4051130" lon="-3.2840910">
        <ele>865.4</ele>
        <time>2022-08-29T10:46:20Z</time>
      </trkpt>
      <trkpt lat="42.4051050" lon="-3.2841370">
        <ele>865.2</ele>
        <time>2022-08-29T10:46:21Z</time>
      </trkpt>
      <trkpt lat="42.4050950" lon="-3.2841840">
        <ele>865.2</ele>
        <time>2022-08-29T10:46:22Z</time>
      </trkpt>
      <trkpt lat="42.4050850" lon="-3.2842340">
        <ele>865.2</ele>
        <time>2022-08-29T10:46:23Z</time>
      </trkpt>
      <trkpt lat="42.4050760" lon="-3.2842840">
        <ele>865.2</ele>
        <time>2022-08-29T10:46:24Z</time>
      </trkpt>
      <trkpt lat="42.4050680" lon="-3.2843350">
        <ele>865.4</ele>
        <time>2022-08-29T10:46:25Z</time>
      </trkpt>
      <trkpt lat="42.4050610" lon="-3.2843870">
        <ele>865.2</ele>
        <time>2022-08-29T10:46:26Z</time>
      </trkpt>
      <trkpt lat="42.4050530" lon="-3.2844360">
        <ele>865.2</ele>
        <time>2022-08-29T10:46:27Z</time>
      </trkpt>
      <trkpt lat="42.4050470" lon="-3.2844840">
        <ele>865.2</ele>
        <time>2022-08-29T10:46:28Z</time>
      </trkpt>
      <trkpt lat="42.4050400" lon="-3.2845320">
        <ele>865.2</ele>
        <time>2022-08-29T10:46:29Z</time>
      </trkpt>
      <trkpt lat="42.4050310" lon="-3.2845800">
        <ele>865.4</ele>
        <time>2022-08-29T10:46:30Z</time>
      </trkpt>
      <trkpt lat="42.4050230" lon="-3.2846260">
        <ele>865.2</ele>
        <time>2022-08-29T10:46:31Z</time>
      </trkpt>
      <trkpt lat="42.4050140" lon="-3.2846710">
        <ele>865.4</ele>
        <time>2022-08-29T10:46:32Z</time>
      </trkpt>
      <trkpt lat="42.4050040" lon="-3.2847180">
        <ele>865.4</ele>
        <time>2022-08-29T10:46:33Z</time>
      </trkpt>
      <trkpt lat="42.4049950" lon="-3.2847650">
        <ele>865.2</ele>
        <time>2022-08-29T10:46:34Z</time>
      </trkpt>
      <trkpt lat="42.4049870" lon="-3.2848130">
        <ele>865.4</ele>
        <time>2022-08-29T10:46:35Z</time>
      </trkpt>
      <trkpt lat="42.4049790" lon="-3.2848610">
        <ele>865.4</ele>
        <time>2022-08-29T10:46:36Z</time>
      </trkpt>
      <trkpt lat="42.4049710" lon="-3.2849070">
        <ele>865.4</ele>
        <time>2022-08-29T10:46:37Z</time>
      </trkpt>
      <trkpt lat="42.4049630" lon="-3.2849520">
        <ele>865.6</ele>
        <time>2022-08-29T10:46:38Z</time>
      </trkpt>
      <trkpt lat="42.4049540" lon="-3.2849950">
        <ele>865.8</ele>
        <time>2022-08-29T10:46:39Z</time>
      </trkpt>
      <trkpt lat="42.4049460" lon="-3.2850390">
        <ele>865.8</ele>
        <time>2022-08-29T10:46:40Z</time>
      </trkpt>
      <trkpt lat="42.4049370" lon="-3.2850810">
        <ele>866.0</ele>
        <time>2022-08-29T10:46:41Z</time>
      </trkpt>
      <trkpt lat="42.4049230" lon="-3.2851200">
        <ele>866.0</ele>
        <time>2022-08-29T10:46:42Z</time>
      </trkpt>
      <trkpt lat="42.4049100" lon="-3.2851580">
        <ele>866.2</ele>
        <time>2022-08-29T10:46:43Z</time>
      </trkpt>
      <trkpt lat="42.4048990" lon="-3.2851980">
        <ele>866.4</ele>
        <time>2022-08-29T10:46:44Z</time>
      </trkpt>
      <trkpt lat="42.4048900" lon="-3.2852380">
        <ele>866.6</ele>
        <time>2022-08-29T10:46:45Z</time>
      </trkpt>
      <trkpt lat="42.4048810" lon="-3.2852760">
        <ele>866.8</ele>
        <time>2022-08-29T10:46:46Z</time>
      </trkpt>
      <trkpt lat="42.4048730" lon="-3.2853140">
        <ele>867.0</ele>
        <time>2022-08-29T10:46:47Z</time>
      </trkpt>
      <trkpt lat="42.4048650" lon="-3.2853510">
        <ele>867.2</ele>
        <time>2022-08-29T10:46:48Z</time>
      </trkpt>
      <trkpt lat="42.4048580" lon="-3.2853890">
        <ele>867.2</ele>
        <time>2022-08-29T10:46:49Z</time>
      </trkpt>
      <trkpt lat="42.4048500" lon="-3.2854260">
        <ele>867.4</ele>
        <time>2022-08-29T10:46:50Z</time>
      </trkpt>
      <trkpt lat="42.4048410" lon="-3.2854630">
        <ele>867.4</ele>
        <time>2022-08-29T10:46:51Z</time>
      </trkpt>
      <trkpt lat="42.4048340" lon="-3.2855000">
        <ele>867.4</ele>
        <time>2022-08-29T10:46:52Z</time>
      </trkpt>
      <trkpt lat="42.4048260" lon="-3.2855350">
        <ele>867.4</ele>
        <time>2022-08-29T10:46:53Z</time>
      </trkpt>
      <trkpt lat="42.4048180" lon="-3.2855720">
        <ele>867.6</ele>
        <time>2022-08-29T10:46:54Z</time>
      </trkpt>
      <trkpt lat="42.4048120" lon="-3.2856070">
        <ele>867.8</ele>
        <time>2022-08-29T10:46:55Z</time>
      </trkpt>
      <trkpt lat="42.4048050" lon="-3.2856420">
        <ele>868.0</ele>
        <time>2022-08-29T10:46:56Z</time>
      </trkpt>
      <trkpt lat="42.4047990" lon="-3.2856760">
        <ele>868.2</ele>
        <time>2022-08-29T10:46:57Z</time>
      </trkpt>
      <trkpt lat="42.4047910" lon="-3.2857100">
        <ele>868.4</ele>
        <time>2022-08-29T10:46:58Z</time>
      </trkpt>
      <trkpt lat="42.4047840" lon="-3.2857450">
        <ele>868.4</ele>
        <time>2022-08-29T10:46:59Z</time>
      </trkpt>
      <trkpt lat="42.4047770" lon="-3.2857810">
        <ele>868.8</ele>
        <time>2022-08-29T10:47:00Z</time>
      </trkpt>
      <trkpt lat="42.4047700" lon="-3.2858160">
        <ele>869.0</ele>
        <time>2022-08-29T10:47:01Z</time>
      </trkpt>
      <trkpt lat="42.4047630" lon="-3.2858510">
        <ele>869.0</ele>
        <time>2022-08-29T10:47:02Z</time>
      </trkpt>
      <trkpt lat="42.4047570" lon="-3.2858850">
        <ele>869.0</ele>
        <time>2022-08-29T10:47:03Z</time>
      </trkpt>
      <trkpt lat="42.4047500" lon="-3.2859200">
        <ele>869.4</ele>
        <time>2022-08-29T10:47:04Z</time>
      </trkpt>
      <trkpt lat="42.4047440" lon="-3.2859520">
        <ele>869.8</ele>
        <time>2022-08-29T10:47:05Z</time>
      </trkpt>
      <trkpt lat="42.4047360" lon="-3.2859860">
        <ele>870.0</ele>
        <time>2022-08-29T10:47:06Z</time>
      </trkpt>
      <trkpt lat="42.4047290" lon="-3.2860180">
        <ele>870.2</ele>
        <time>2022-08-29T10:47:07Z</time>
      </trkpt>
      <trkpt lat="42.4047200" lon="-3.2860510">
        <ele>870.8</ele>
        <time>2022-08-29T10:47:08Z</time>
      </trkpt>
      <trkpt lat="42.4047120" lon="-3.2860860">
        <ele>870.8</ele>
        <time>2022-08-29T10:47:09Z</time>
      </trkpt>
      <trkpt lat="42.4047050" lon="-3.2861210">
        <ele>871.0</ele>
        <time>2022-08-29T10:47:10Z</time>
      </trkpt>
      <trkpt lat="42.4046980" lon="-3.2861550">
        <ele>871.2</ele>
        <time>2022-08-29T10:47:11Z</time>
      </trkpt>
      <trkpt lat="42.4046920" lon="-3.2861900">
        <ele>871.6</ele>
        <time>2022-08-29T10:47:12Z</time>
      </trkpt>
      <trkpt lat="42.4046840" lon="-3.2862240">
        <ele>871.6</ele>
        <time>2022-08-29T10:47:13Z</time>
      </trkpt>
      <trkpt lat="42.4046770" lon="-3.2862570">
        <ele>871.8</ele>
        <time>2022-08-29T10:47:14Z</time>
      </trkpt>
      <trkpt lat="42.4046720" lon="-3.2862910">
        <ele>871.8</ele>
        <time>2022-08-29T10:47:15Z</time>
      </trkpt>
      <trkpt lat="42.4046680" lon="-3.2863240">
        <ele>871.8</ele>
        <time>2022-08-29T10:47:16Z</time>
      </trkpt>
      <trkpt lat="42.4046620" lon="-3.2863560">
        <ele>872.0</ele>
        <time>2022-08-29T10:47:17Z</time>
      </trkpt>
      <trkpt lat="42.4046550" lon="-3.2863890">
        <ele>872.0</ele>
        <time>2022-08-29T10:47:18Z</time>
      </trkpt>
      <trkpt lat="42.4046480" lon="-3.2864230">
        <ele>872.0</ele>
        <time>2022-08-29T10:47:19Z</time>
      </trkpt>
      <trkpt lat="42.4046420" lon="-3.2864580">
        <ele>872.2</ele>
        <time>2022-08-29T10:47:20Z</time>
      </trkpt>
      <trkpt lat="42.4046350" lon="-3.2864930">
        <ele>872.4</ele>
        <time>2022-08-29T10:47:21Z</time>
      </trkpt>
      <trkpt lat="42.4046270" lon="-3.2865260">
        <ele>872.6</ele>
        <time>2022-08-29T10:47:22Z</time>
      </trkpt>
      <trkpt lat="42.4046200" lon="-3.2865610">
        <ele>872.6</ele>
        <time>2022-08-29T10:47:23Z</time>
      </trkpt>
      <trkpt lat="42.4046130" lon="-3.2865960">
        <ele>873.6</ele>
        <time>2022-08-29T10:47:24Z</time>
      </trkpt>
      <trkpt lat="42.4046070" lon="-3.2866310">
        <ele>874.2</ele>
        <time>2022-08-29T10:47:25Z</time>
      </trkpt>
      <trkpt lat="42.4046000" lon="-3.2866650">
        <ele>874.4</ele>
        <time>2022-08-29T10:47:26Z</time>
      </trkpt>
      <trkpt lat="42.4045930" lon="-3.2866980">
        <ele>874.4</ele>
        <time>2022-08-29T10:47:27Z</time>
      </trkpt>
      <trkpt lat="42.4045880" lon="-3.2867320">
        <ele>874.6</ele>
        <time>2022-08-29T10:47:28Z</time>
      </trkpt>
      <trkpt lat="42.4045800" lon="-3.2867670">
        <ele>874.8</ele>
        <time>2022-08-29T10:47:29Z</time>
      </trkpt>
      <trkpt lat="42.4045740" lon="-3.2868000">
        <ele>874.8</ele>
        <time>2022-08-29T10:47:30Z</time>
      </trkpt>
      <trkpt lat="42.4045670" lon="-3.2868310">
        <ele>874.8</ele>
        <time>2022-08-29T10:47:31Z</time>
      </trkpt>
      <trkpt lat="42.4045590" lon="-3.2868620">
        <ele>875.0</ele>
        <time>2022-08-29T10:47:32Z</time>
      </trkpt>
      <trkpt lat="42.4045510" lon="-3.2868910">
        <ele>875.2</ele>
        <time>2022-08-29T10:47:33Z</time>
      </trkpt>
      <trkpt lat="42.4045450" lon="-3.2869190">
        <ele>875.4</ele>
        <time>2022-08-29T10:47:34Z</time>
      </trkpt>
      <trkpt lat="42.4045390" lon="-3.2869490">
        <ele>875.6</ele>
        <time>2022-08-29T10:47:35Z</time>
      </trkpt>
      <trkpt lat="42.4045340" lon="-3.2869790">
        <ele>875.6</ele>
        <time>2022-08-29T10:47:36Z</time>
      </trkpt>
      <trkpt lat="42.4045290" lon="-3.2870080">
        <ele>876.0</ele>
        <time>2022-08-29T10:47:37Z</time>
      </trkpt>
      <trkpt lat="42.4045220" lon="-3.2870370">
        <ele>876.0</ele>
        <time>2022-08-29T10:47:38Z</time>
      </trkpt>
      <trkpt lat="42.4045160" lon="-3.2870660">
        <ele>876.2</ele>
        <time>2022-08-29T10:47:39Z</time>
      </trkpt>
      <trkpt lat="42.4045110" lon="-3.2870940">
        <ele>876.4</ele>
        <time>2022-08-29T10:47:40Z</time>
      </trkpt>
      <trkpt lat="42.4045050" lon="-3.2871220">
        <ele>876.8</ele>
        <time>2022-08-29T10:47:41Z</time>
      </trkpt>
      <trkpt lat="42.4044990" lon="-3.2871500">
        <ele>877.2</ele>
        <time>2022-08-29T10:47:42Z</time>
      </trkpt>
      <trkpt lat="42.4044940" lon="-3.2871780">
        <ele>877.4</ele>
        <time>2022-08-29T10:47:43Z</time>
      </trkpt>
      <trkpt lat="42.4044900" lon="-3.2872030">
        <ele>877.6</ele>
        <time>2022-08-29T10:47:44Z</time>
      </trkpt>
      <trkpt lat="42.4044850" lon="-3.2872240">
        <ele>878.0</ele>
        <time>2022-08-29T10:47:45Z</time>
      </trkpt>
      <trkpt lat="42.4044790" lon="-3.2872480">
        <ele>878.4</ele>
        <time>2022-08-29T10:47:46Z</time>
      </trkpt>
      <trkpt lat="42.4044730" lon="-3.2872730">
        <ele>878.8</ele>
        <time>2022-08-29T10:47:47Z</time>
      </trkpt>
      <trkpt lat="42.4044660" lon="-3.2872990">
        <ele>879.0</ele>
        <time>2022-08-29T10:47:48Z</time>
      </trkpt>
      <trkpt lat="42.4044580" lon="-3.2873250">
        <ele>879.2</ele>
        <time>2022-08-29T10:47:49Z</time>
      </trkpt>
      <trkpt lat="42.4044500" lon="-3.2873510">
        <ele>879.4</ele>
        <time>2022-08-29T10:47:50Z</time>
      </trkpt>
      <trkpt lat="42.4044410" lon="-3.2873780">
        <ele>879.8</ele>
        <time>2022-08-29T10:47:51Z</time>
      </trkpt>
      <trkpt lat="42.4044330" lon="-3.2874050">
        <ele>880.0</ele>
        <time>2022-08-29T10:47:52Z</time>
      </trkpt>
      <trkpt lat="42.4044260" lon="-3.2874300">
        <ele>880.2</ele>
        <time>2022-08-29T10:47:53Z</time>
      </trkpt>
      <trkpt lat="42.4044170" lon="-3.2874550">
        <ele>880.2</ele>
        <time>2022-08-29T10:47:54Z</time>
      </trkpt>
      <trkpt lat="42.4044100" lon="-3.2874800">
        <ele>880.4</ele>
        <time>2022-08-29T10:47:55Z</time>
      </trkpt>
      <trkpt lat="42.4044030" lon="-3.2875040">
        <ele>880.8</ele>
        <time>2022-08-29T10:47:56Z</time>
      </trkpt>
      <trkpt lat="42.4043970" lon="-3.2875300">
        <ele>881.2</ele>
        <time>2022-08-29T10:47:57Z</time>
      </trkpt>
      <trkpt lat="42.4043900" lon="-3.2875540">
        <ele>881.2</ele>
        <time>2022-08-29T10:47:58Z</time>
      </trkpt>
      <trkpt lat="42.4043840" lon="-3.2875790">
        <ele>881.4</ele>
        <time>2022-08-29T10:47:59Z</time>
      </trkpt>
      <trkpt lat="42.4043760" lon="-3.2876020">
        <ele>881.8</ele>
        <time>2022-08-29T10:48:00Z</time>
      </trkpt>
      <trkpt lat="42.4043670" lon="-3.2876250">
        <ele>881.8</ele>
        <time>2022-08-29T10:48:01Z</time>
      </trkpt>
      <trkpt lat="42.4043570" lon="-3.2876470">
        <ele>882.0</ele>
        <time>2022-08-29T10:48:02Z</time>
      </trkpt>
      <trkpt lat="42.4043470" lon="-3.2876670">
        <ele>882.0</ele>
        <time>2022-08-29T10:48:03Z</time>
      </trkpt>
      <trkpt lat="42.4043350" lon="-3.2876870">
        <ele>882.4</ele>
        <time>2022-08-29T10:48:04Z</time>
      </trkpt>
      <trkpt lat="42.4043260" lon="-3.2877090">
        <ele>882.6</ele>
        <time>2022-08-29T10:48:05Z</time>
      </trkpt>
      <trkpt lat="42.4043180" lon="-3.2877320">
        <ele>883.0</ele>
        <time>2022-08-29T10:48:06Z</time>
      </trkpt>
      <trkpt lat="42.4043110" lon="-3.2877540">
        <ele>883.0</ele>
        <time>2022-08-29T10:48:07Z</time>
      </trkpt>
      <trkpt lat="42.4043040" lon="-3.2877770">
        <ele>883.4</ele>
        <time>2022-08-29T10:48:08Z</time>
      </trkpt>
      <trkpt lat="42.4042960" lon="-3.2878000">
        <ele>883.8</ele>
        <time>2022-08-29T10:48:09Z</time>
      </trkpt>
      <trkpt lat="42.4042900" lon="-3.2878250">
        <ele>884.2</ele>
        <time>2022-08-29T10:48:10Z</time>
      </trkpt>
      <trkpt lat="42.4042830" lon="-3.2878480">
        <ele>884.6</ele>
        <time>2022-08-29T10:48:11Z</time>
      </trkpt>
      <trkpt lat="42.4042750" lon="-3.2878690">
        <ele>884.8</ele>
        <time>2022-08-29T10:48:12Z</time>
      </trkpt>
      <trkpt lat="42.4042670" lon="-3.2878920">
        <ele>885.0</ele>
        <time>2022-08-29T10:48:13Z</time>
      </trkpt>
      <trkpt lat="42.4042600" lon="-3.2879150">
        <ele>885.2</ele>
        <time>2022-08-29T10:48:14Z</time>
      </trkpt>
      <trkpt lat="42.4042540" lon="-3.2879400">
        <ele>885.6</ele>
        <time>2022-08-29T10:48:15Z</time>
      </trkpt>
      <trkpt lat="42.4042490" lon="-3.2879650">
        <ele>885.8</ele>
        <time>2022-08-29T10:48:16Z</time>
      </trkpt>
      <trkpt lat="42.4042450" lon="-3.2879910">
        <ele>886.2</ele>
        <time>2022-08-29T10:48:17Z</time>
      </trkpt>
      <trkpt lat="42.4042410" lon="-3.2880180">
        <ele>886.2</ele>
        <time>2022-08-29T10:48:18Z</time>
      </trkpt>
      <trkpt lat="42.4042370" lon="-3.2880440">
        <ele>886.2</ele>
        <time>2022-08-29T10:48:19Z</time>
      </trkpt>
      <trkpt lat="42.4042330" lon="-3.2880690">
        <ele>886.4</ele>
        <time>2022-08-29T10:48:20Z</time>
      </trkpt>
      <trkpt lat="42.4042300" lon="-3.2880950">
        <ele>886.6</ele>
        <time>2022-08-29T10:48:21Z</time>
      </trkpt>
      <trkpt lat="42.4042250" lon="-3.2881190">
        <ele>886.8</ele>
        <time>2022-08-29T10:48:22Z</time>
      </trkpt>
      <trkpt lat="42.4042220" lon="-3.2881450">
        <ele>887.4</ele>
        <time>2022-08-29T10:48:23Z</time>
      </trkpt>
      <trkpt lat="42.4042190" lon="-3.2881710">
        <ele>887.8</ele>
        <time>2022-08-29T10:48:24Z</time>
      </trkpt>
      <trkpt lat="42.4042190" lon="-3.2881970">
        <ele>887.8</ele>
        <time>2022-08-29T10:48:25Z</time>
      </trkpt>
      <trkpt lat="42.4042210" lon="-3.2882230">
        <ele>888.0</ele>
        <time>2022-08-29T10:48:26Z</time>
      </trkpt>
      <trkpt lat="42.4042230" lon="-3.2882490">
        <ele>888.0</ele>
        <time>2022-08-29T10:48:27Z</time>
      </trkpt>
      <trkpt lat="42.4042270" lon="-3.2882760">
        <ele>888.2</ele>
        <time>2022-08-29T10:48:28Z</time>
      </trkpt>
      <trkpt lat="42.4042290" lon="-3.2883040">
        <ele>888.2</ele>
        <time>2022-08-29T10:48:29Z</time>
      </trkpt>
      <trkpt lat="42.4042310" lon="-3.2883310">
        <ele>888.4</ele>
        <time>2022-08-29T10:48:30Z</time>
      </trkpt>
      <trkpt lat="42.4042350" lon="-3.2883570">
        <ele>888.6</ele>
        <time>2022-08-29T10:48:31Z</time>
      </trkpt>
      <trkpt lat="42.4042390" lon="-3.2883850">
        <ele>888.8</ele>
        <time>2022-08-29T10:48:32Z</time>
      </trkpt>
      <trkpt lat="42.4042440" lon="-3.2884120">
        <ele>889.0</ele>
        <time>2022-08-29T10:48:33Z</time>
      </trkpt>
      <trkpt lat="42.4042490" lon="-3.2884390">
        <ele>889.2</ele>
        <time>2022-08-29T10:48:34Z</time>
      </trkpt>
      <trkpt lat="42.4042540" lon="-3.2884660">
        <ele>889.4</ele>
        <time>2022-08-29T10:48:35Z</time>
      </trkpt>
      <trkpt lat="42.4042600" lon="-3.2884920">
        <ele>889.4</ele>
        <time>2022-08-29T10:48:36Z</time>
      </trkpt>
      <trkpt lat="42.4042680" lon="-3.2885170">
        <ele>889.6</ele>
        <time>2022-08-29T10:48:37Z</time>
      </trkpt>
      <trkpt lat="42.4042780" lon="-3.2885410">
        <ele>890.0</ele>
        <time>2022-08-29T10:48:38Z</time>
      </trkpt>
      <trkpt lat="42.4042860" lon="-3.2885650">
        <ele>890.4</ele>
        <time>2022-08-29T10:48:39Z</time>
      </trkpt>
      <trkpt lat="42.4042910" lon="-3.2885910">
        <ele>890.6</ele>
        <time>2022-08-29T10:48:40Z</time>
      </trkpt>
      <trkpt lat="42.4042920" lon="-3.2886150">
        <ele>891.0</ele>
        <time>2022-08-29T10:48:41Z</time>
      </trkpt>
      <trkpt lat="42.4042920" lon="-3.2886420">
        <ele>891.2</ele>
        <time>2022-08-29T10:48:42Z</time>
      </trkpt>
      <trkpt lat="42.4042930" lon="-3.2886690">
        <ele>891.6</ele>
        <time>2022-08-29T10:48:43Z</time>
      </trkpt>
      <trkpt lat="42.4042950" lon="-3.2886950">
        <ele>891.8</ele>
        <time>2022-08-29T10:48:44Z</time>
      </trkpt>
      <trkpt lat="42.4043000" lon="-3.2887180">
        <ele>892.0</ele>
        <time>2022-08-29T10:48:45Z</time>
      </trkpt>
      <trkpt lat="42.4043060" lon="-3.2887390">
        <ele>892.2</ele>
        <time>2022-08-29T10:48:46Z</time>
      </trkpt>
      <trkpt lat="42.4043120" lon="-3.2887610">
        <ele>892.6</ele>
        <time>2022-08-29T10:48:47Z</time>
      </trkpt>
      <trkpt lat="42.4043170" lon="-3.2887830">
        <ele>892.8</ele>
        <time>2022-08-29T10:48:48Z</time>
      </trkpt>
      <trkpt lat="42.4043210" lon="-3.2888060">
        <ele>893.0</ele>
        <time>2022-08-29T10:48:49Z</time>
      </trkpt>
      <trkpt lat="42.4043270" lon="-3.2888260">
        <ele>893.2</ele>
        <time>2022-08-29T10:48:50Z</time>
      </trkpt>
      <trkpt lat="42.4043310" lon="-3.2888470">
        <ele>893.2</ele>
        <time>2022-08-29T10:48:51Z</time>
      </trkpt>
      <trkpt lat="42.4043340" lon="-3.2888670">
        <ele>893.6</ele>
        <time>2022-08-29T10:48:52Z</time>
      </trkpt>
      <trkpt lat="42.4043380" lon="-3.2888890">
        <ele>893.8</ele>
        <time>2022-08-29T10:48:53Z</time>
      </trkpt>
      <trkpt lat="42.4043450" lon="-3.2889090">
        <ele>893.8</ele>
        <time>2022-08-29T10:48:54Z</time>
      </trkpt>
      <trkpt lat="42.4043520" lon="-3.2889280">
        <ele>894.2</ele>
        <time>2022-08-29T10:48:55Z</time>
      </trkpt>
      <trkpt lat="42.4043580" lon="-3.2889490">
        <ele>894.6</ele>
        <time>2022-08-29T10:48:56Z</time>
      </trkpt>
      <trkpt lat="42.4043620" lon="-3.2889700">
        <ele>895.0</ele>
        <time>2022-08-29T10:48:57Z</time>
      </trkpt>
      <trkpt lat="42.4043650" lon="-3.2889920">
        <ele>895.2</ele>
        <time>2022-08-29T10:48:58Z</time>
      </trkpt>
      <trkpt lat="42.4043680" lon="-3.2890150">
        <ele>895.6</ele>
        <time>2022-08-29T10:48:59Z</time>
      </trkpt>
      <trkpt lat="42.4043710" lon="-3.2890380">
        <ele>895.8</ele>
        <time>2022-08-29T10:49:00Z</time>
      </trkpt>
      <trkpt lat="42.4043730" lon="-3.2890610">
        <ele>896.0</ele>
        <time>2022-08-29T10:49:01Z</time>
      </trkpt>
      <trkpt lat="42.4043750" lon="-3.2890850">
        <ele>896.4</ele>
        <time>2022-08-29T10:49:02Z</time>
      </trkpt>
      <trkpt lat="42.4043800" lon="-3.2891080">
        <ele>896.4</ele>
        <time>2022-08-29T10:49:03Z</time>
      </trkpt>
      <trkpt lat="42.4043840" lon="-3.2891310">
        <ele>896.6</ele>
        <time>2022-08-29T10:49:04Z</time>
      </trkpt>
      <trkpt lat="42.4043860" lon="-3.2891550">
        <ele>896.6</ele>
        <time>2022-08-29T10:49:05Z</time>
      </trkpt>
      <trkpt lat="42.4043870" lon="-3.2891810">
        <ele>897.0</ele>
        <time>2022-08-29T10:49:06Z</time>
      </trkpt>
      <trkpt lat="42.4043890" lon="-3.2892080">
        <ele>897.0</ele>
        <time>2022-08-29T10:49:07Z</time>
      </trkpt>
      <trkpt lat="42.4043900" lon="-3.2892360">
        <ele>897.2</ele>
        <time>2022-08-29T10:49:08Z</time>
      </trkpt>
      <trkpt lat="42.4043920" lon="-3.2892630">
        <ele>897.6</ele>
        <time>2022-08-29T10:49:09Z</time>
      </trkpt>
      <trkpt lat="42.4043930" lon="-3.2892910">
        <ele>898.0</ele>
        <time>2022-08-29T10:49:10Z</time>
      </trkpt>
      <trkpt lat="42.4043930" lon="-3.2893180">
        <ele>898.2</ele>
        <time>2022-08-29T10:49:11Z</time>
      </trkpt>
      <trkpt lat="42.4043910" lon="-3.2893460">
        <ele>898.4</ele>
        <time>2022-08-29T10:49:12Z</time>
      </trkpt>
      <trkpt lat="42.4043870" lon="-3.2893730">
        <ele>898.6</ele>
        <time>2022-08-29T10:49:13Z</time>
      </trkpt>
      <trkpt lat="42.4043840" lon="-3.2894010">
        <ele>898.6</ele>
        <time>2022-08-29T10:49:14Z</time>
      </trkpt>
      <trkpt lat="42.4043810" lon="-3.2894300">
        <ele>898.8</ele>
        <time>2022-08-29T10:49:15Z</time>
      </trkpt>
      <trkpt lat="42.4043780" lon="-3.2894570">
        <ele>898.6</ele>
        <time>2022-08-29T10:49:16Z</time>
      </trkpt>
      <trkpt lat="42.4043740" lon="-3.2894870">
        <ele>899.0</ele>
        <time>2022-08-29T10:49:17Z</time>
      </trkpt>
      <trkpt lat="42.4043690" lon="-3.2895160">
        <ele>899.0</ele>
        <time>2022-08-29T10:49:18Z</time>
      </trkpt>
      <trkpt lat="42.4043640" lon="-3.2895420">
        <ele>899.2</ele>
        <time>2022-08-29T10:49:19Z</time>
      </trkpt>
      <trkpt lat="42.4043590" lon="-3.2895690">
        <ele>899.2</ele>
        <time>2022-08-29T10:49:20Z</time>
      </trkpt>
      <trkpt lat="42.4043550" lon="-3.2895960">
        <ele>899.4</ele>
        <time>2022-08-29T10:49:21Z</time>
      </trkpt>
      <trkpt lat="42.4043510" lon="-3.2896240">
        <ele>899.4</ele>
        <time>2022-08-29T10:49:22Z</time>
      </trkpt>
      <trkpt lat="42.4043480" lon="-3.2896520">
        <ele>899.6</ele>
        <time>2022-08-29T10:49:23Z</time>
      </trkpt>
      <trkpt lat="42.4043450" lon="-3.2896810">
        <ele>899.8</ele>
        <time>2022-08-29T10:49:24Z</time>
      </trkpt>
      <trkpt lat="42.4043410" lon="-3.2897090">
        <ele>900.2</ele>
        <time>2022-08-29T10:49:25Z</time>
      </trkpt>
      <trkpt lat="42.4043370" lon="-3.2897380">
        <ele>900.4</ele>
        <time>2022-08-29T10:49:26Z</time>
      </trkpt>
      <trkpt lat="42.4043330" lon="-3.2897680">
        <ele>900.6</ele>
        <time>2022-08-29T10:49:27Z</time>
      </trkpt>
      <trkpt lat="42.4043310" lon="-3.2897970">
        <ele>900.8</ele>
        <time>2022-08-29T10:49:28Z</time>
      </trkpt>
      <trkpt lat="42.4043290" lon="-3.2898270">
        <ele>900.8</ele>
        <time>2022-08-29T10:49:29Z</time>
      </trkpt>
      <trkpt lat="42.4043270" lon="-3.2898560">
        <ele>901.0</ele>
        <time>2022-08-29T10:49:30Z</time>
      </trkpt>
      <trkpt lat="42.4043240" lon="-3.2898860">
        <ele>901.2</ele>
        <time>2022-08-29T10:49:31Z</time>
      </trkpt>
      <trkpt lat="42.4043200" lon="-3.2899160">
        <ele>901.4</ele>
        <time>2022-08-29T10:49:32Z</time>
      </trkpt>
      <trkpt lat="42.4043150" lon="-3.2899430">
        <ele>901.6</ele>
        <time>2022-08-29T10:49:33Z</time>
      </trkpt>
      <trkpt lat="42.4043100" lon="-3.2899690">
        <ele>901.6</ele>
        <time>2022-08-29T10:49:34Z</time>
      </trkpt>
      <trkpt lat="42.4043060" lon="-3.2899940">
        <ele>901.8</ele>
        <time>2022-08-29T10:49:35Z</time>
      </trkpt>
      <trkpt lat="42.4043010" lon="-3.2900210">
        <ele>902.2</ele>
        <time>2022-08-29T10:49:36Z</time>
      </trkpt>
      <trkpt lat="42.4042990" lon="-3.2900490">
        <ele>902.4</ele>
        <time>2022-08-29T10:49:37Z</time>
      </trkpt>
      <trkpt lat="42.4042960" lon="-3.2900790">
        <ele>902.4</ele>
        <time>2022-08-29T10:49:38Z</time>
      </trkpt>
      <trkpt lat="42.4042940" lon="-3.2901090">
        <ele>903.0</ele>
        <time>2022-08-29T10:49:39Z</time>
      </trkpt>
      <trkpt lat="42.4042920" lon="-3.2901390">
        <ele>903.2</ele>
        <time>2022-08-29T10:49:40Z</time>
      </trkpt>
      <trkpt lat="42.4042880" lon="-3.2901680">
        <ele>903.4</ele>
        <time>2022-08-29T10:49:41Z</time>
      </trkpt>
      <trkpt lat="42.4042840" lon="-3.2901980">
        <ele>903.6</ele>
        <time>2022-08-29T10:49:42Z</time>
      </trkpt>
      <trkpt lat="42.4042780" lon="-3.2902260">
        <ele>903.6</ele>
        <time>2022-08-29T10:49:43Z</time>
      </trkpt>
      <trkpt lat="42.4042700" lon="-3.2902530">
        <ele>903.8</ele>
        <time>2022-08-29T10:49:44Z</time>
      </trkpt>
      <trkpt lat="42.4042630" lon="-3.2902820">
        <ele>904.0</ele>
        <time>2022-08-29T10:49:45Z</time>
      </trkpt>
      <trkpt lat="42.4042600" lon="-3.2903130">
        <ele>903.8</ele>
        <time>2022-08-29T10:49:46Z</time>
      </trkpt>
      <trkpt lat="42.4042570" lon="-3.2903440">
        <ele>904.0</ele>
        <time>2022-08-29T10:49:47Z</time>
      </trkpt>
      <trkpt lat="42.4042540" lon="-3.2903740">
        <ele>904.0</ele>
        <time>2022-08-29T10:49:48Z</time>
      </trkpt>
      <trkpt lat="42.4042520" lon="-3.2904040">
        <ele>904.2</ele>
        <time>2022-08-29T10:49:49Z</time>
      </trkpt>
      <trkpt lat="42.4042500" lon="-3.2904330">
        <ele>904.2</ele>
        <time>2022-08-29T10:49:50Z</time>
      </trkpt>
      <trkpt lat="42.4042470" lon="-3.2904630">
        <ele>904.2</ele>
        <time>2022-08-29T10:49:51Z</time>
      </trkpt>
      <trkpt lat="42.4042440" lon="-3.2904940">
        <ele>904.4</ele>
        <time>2022-08-29T10:49:52Z</time>
      </trkpt>
      <trkpt lat="42.4042400" lon="-3.2905260">
        <ele>904.4</ele>
        <time>2022-08-29T10:49:53Z</time>
      </trkpt>
      <trkpt lat="42.4042350" lon="-3.2905580">
        <ele>904.6</ele>
        <time>2022-08-29T10:49:54Z</time>
      </trkpt>
      <trkpt lat="42.4042320" lon="-3.2905910">
        <ele>904.8</ele>
        <time>2022-08-29T10:49:55Z</time>
      </trkpt>
      <trkpt lat="42.4042270" lon="-3.2906230">
        <ele>905.2</ele>
        <time>2022-08-29T10:49:56Z</time>
      </trkpt>
      <trkpt lat="42.4042230" lon="-3.2906540">
        <ele>905.4</ele>
        <time>2022-08-29T10:49:57Z</time>
      </trkpt>
      <trkpt lat="42.4042190" lon="-3.2906860">
        <ele>905.8</ele>
        <time>2022-08-29T10:49:58Z</time>
      </trkpt>
      <trkpt lat="42.4042150" lon="-3.2907160">
        <ele>906.0</ele>
        <time>2022-08-29T10:49:59Z</time>
      </trkpt>
      <trkpt lat="42.4042110" lon="-3.2907470">
        <ele>906.2</ele>
        <time>2022-08-29T10:50:00Z</time>
      </trkpt>
      <trkpt lat="42.4042060" lon="-3.2907780">
        <ele>906.2</ele>
        <time>2022-08-29T10:50:01Z</time>
      </trkpt>
      <trkpt lat="42.4042020" lon="-3.2908100">
        <ele>906.2</ele>
        <time>2022-08-29T10:50:02Z</time>
      </trkpt>
      <trkpt lat="42.4041980" lon="-3.2908420">
        <ele>906.2</ele>
        <time>2022-08-29T10:50:03Z</time>
      </trkpt>
      <trkpt lat="42.4041940" lon="-3.2908740">
        <ele>906.4</ele>
        <time>2022-08-29T10:50:04Z</time>
      </trkpt>
      <trkpt lat="42.4041900" lon="-3.2909050">
        <ele>906.4</ele>
        <time>2022-08-29T10:50:05Z</time>
      </trkpt>
      <trkpt lat="42.4041870" lon="-3.2909360">
        <ele>906.6</ele>
        <time>2022-08-29T10:50:06Z</time>
      </trkpt>
      <trkpt lat="42.4041830" lon="-3.2909670">
        <ele>906.6</ele>
        <time>2022-08-29T10:50:07Z</time>
      </trkpt>
      <trkpt lat="42.4041800" lon="-3.2909980">
        <ele>907.0</ele>
        <time>2022-08-29T10:50:08Z</time>
      </trkpt>
      <trkpt lat="42.4041760" lon="-3.2910300">
        <ele>907.0</ele>
        <time>2022-08-29T10:50:09Z</time>
      </trkpt>
      <trkpt lat="42.4041720" lon="-3.2910630">
        <ele>907.4</ele>
        <time>2022-08-29T10:50:10Z</time>
      </trkpt>
      <trkpt lat="42.4041690" lon="-3.2910940">
        <ele>907.8</ele>
        <time>2022-08-29T10:50:11Z</time>
      </trkpt>
      <trkpt lat="42.4041640" lon="-3.2911250">
        <ele>908.0</ele>
        <time>2022-08-29T10:50:12Z</time>
      </trkpt>
      <trkpt lat="42.4041600" lon="-3.2911580">
        <ele>908.2</ele>
        <time>2022-08-29T10:50:13Z</time>
      </trkpt>
      <trkpt lat="42.4041550" lon="-3.2911910">
        <ele>908.6</ele>
        <time>2022-08-29T10:50:14Z</time>
      </trkpt>
      <trkpt lat="42.4041490" lon="-3.2912240">
        <ele>908.8</ele>
        <time>2022-08-29T10:50:15Z</time>
      </trkpt>
      <trkpt lat="42.4041440" lon="-3.2912550">
        <ele>909.0</ele>
        <time>2022-08-29T10:50:16Z</time>
      </trkpt>
      <trkpt lat="42.4041380" lon="-3.2912850">
        <ele>909.2</ele>
        <time>2022-08-29T10:50:17Z</time>
      </trkpt>
      <trkpt lat="42.4041320" lon="-3.2913170">
        <ele>909.4</ele>
        <time>2022-08-29T10:50:18Z</time>
      </trkpt>
      <trkpt lat="42.4041260" lon="-3.2913490">
        <ele>909.6</ele>
        <time>2022-08-29T10:50:19Z</time>
      </trkpt>
      <trkpt lat="42.4041200" lon="-3.2913810">
        <ele>909.8</ele>
        <time>2022-08-29T10:50:20Z</time>
      </trkpt>
      <trkpt lat="42.4041120" lon="-3.2914110">
        <ele>909.8</ele>
        <time>2022-08-29T10:50:21Z</time>
      </trkpt>
      <trkpt lat="42.4041040" lon="-3.2914410">
        <ele>910.2</ele>
        <time>2022-08-29T10:50:22Z</time>
      </trkpt>
      <trkpt lat="42.4040930" lon="-3.2914680">
        <ele>910.2</ele>
        <time>2022-08-29T10:50:23Z</time>
      </trkpt>
      <trkpt lat="42.4040840" lon="-3.2914980">
        <ele>910.4</ele>
        <time>2022-08-29T10:50:24Z</time>
      </trkpt>
      <trkpt lat="42.4040750" lon="-3.2915270">
        <ele>910.4</ele>
        <time>2022-08-29T10:50:25Z</time>
      </trkpt>
      <trkpt lat="42.4040630" lon="-3.2915540">
        <ele>910.4</ele>
        <time>2022-08-29T10:50:26Z</time>
      </trkpt>
      <trkpt lat="42.4040500" lon="-3.2915800">
        <ele>910.4</ele>
        <time>2022-08-29T10:50:27Z</time>
      </trkpt>
      <trkpt lat="42.4040370" lon="-3.2916070">
        <ele>910.6</ele>
        <time>2022-08-29T10:50:28Z</time>
      </trkpt>
      <trkpt lat="42.4040260" lon="-3.2916370">
        <ele>910.8</ele>
        <time>2022-08-29T10:50:29Z</time>
      </trkpt>
      <trkpt lat="42.4040180" lon="-3.2916700">
        <ele>911.0</ele>
        <time>2022-08-29T10:50:30Z</time>
      </trkpt>
      <trkpt lat="42.4040130" lon="-3.2917030">
        <ele>911.2</ele>
        <time>2022-08-29T10:50:31Z</time>
      </trkpt>
      <trkpt lat="42.4040060" lon="-3.2917350">
        <ele>911.4</ele>
        <time>2022-08-29T10:50:32Z</time>
      </trkpt>
      <trkpt lat="42.4039960" lon="-3.2917650">
        <ele>911.6</ele>
        <time>2022-08-29T10:50:33Z</time>
      </trkpt>
      <trkpt lat="42.4039850" lon="-3.2917940">
        <ele>912.0</ele>
        <time>2022-08-29T10:50:34Z</time>
      </trkpt>
      <trkpt lat="42.4039740" lon="-3.2918230">
        <ele>912.0</ele>
        <time>2022-08-29T10:50:35Z</time>
      </trkpt>
      <trkpt lat="42.4039620" lon="-3.2918520">
        <ele>912.2</ele>
        <time>2022-08-29T10:50:36Z</time>
      </trkpt>
      <trkpt lat="42.4039500" lon="-3.2918800">
        <ele>912.6</ele>
        <time>2022-08-29T10:50:37Z</time>
      </trkpt>
      <trkpt lat="42.4039390" lon="-3.2919110">
        <ele>912.8</ele>
        <time>2022-08-29T10:50:38Z</time>
      </trkpt>
      <trkpt lat="42.4039290" lon="-3.2919420">
        <ele>913.0</ele>
        <time>2022-08-29T10:50:39Z</time>
      </trkpt>
      <trkpt lat="42.4039180" lon="-3.2919750">
        <ele>913.0</ele>
        <time>2022-08-29T10:50:40Z</time>
      </trkpt>
      <trkpt lat="42.4039070" lon="-3.2920090">
        <ele>913.2</ele>
        <time>2022-08-29T10:50:41Z</time>
      </trkpt>
      <trkpt lat="42.4038950" lon="-3.2920430">
        <ele>913.2</ele>
        <time>2022-08-29T10:50:42Z</time>
      </trkpt>
      <trkpt lat="42.4038830" lon="-3.2920790">
        <ele>913.2</ele>
        <time>2022-08-29T10:50:43Z</time>
      </trkpt>
      <trkpt lat="42.4038710" lon="-3.2921150">
        <ele>913.2</ele>
        <time>2022-08-29T10:50:44Z</time>
      </trkpt>
      <trkpt lat="42.4038620" lon="-3.2921530">
        <ele>913.4</ele>
        <time>2022-08-29T10:50:45Z</time>
      </trkpt>
      <trkpt lat="42.4038510" lon="-3.2921870">
        <ele>913.4</ele>
        <time>2022-08-29T10:50:46Z</time>
      </trkpt>
      <trkpt lat="42.4038370" lon="-3.2922200">
        <ele>913.6</ele>
        <time>2022-08-29T10:50:47Z</time>
      </trkpt>
      <trkpt lat="42.4038220" lon="-3.2922530">
        <ele>913.8</ele>
        <time>2022-08-29T10:50:48Z</time>
      </trkpt>
      <trkpt lat="42.4038090" lon="-3.2922860">
        <ele>913.8</ele>
        <time>2022-08-29T10:50:49Z</time>
      </trkpt>
      <trkpt lat="42.4037940" lon="-3.2923190">
        <ele>913.8</ele>
        <time>2022-08-29T10:50:50Z</time>
      </trkpt>
      <trkpt lat="42.4037780" lon="-3.2923530">
        <ele>914.0</ele>
        <time>2022-08-29T10:50:51Z</time>
      </trkpt>
      <trkpt lat="42.4037620" lon="-3.2923860">
        <ele>914.0</ele>
        <time>2022-08-29T10:50:52Z</time>
      </trkpt>
      <trkpt lat="42.4037470" lon="-3.2924210">
        <ele>914.2</ele>
        <time>2022-08-29T10:50:53Z</time>
      </trkpt>
      <trkpt lat="42.4037330" lon="-3.2924550">
        <ele>914.2</ele>
        <time>2022-08-29T10:50:54Z</time>
      </trkpt>
      <trkpt lat="42.4037170" lon="-3.2924890">
        <ele>914.2</ele>
        <time>2022-08-29T10:50:55Z</time>
      </trkpt>
      <trkpt lat="42.4037010" lon="-3.2925240">
        <ele>914.4</ele>
        <time>2022-08-29T10:50:56Z</time>
      </trkpt>
      <trkpt lat="42.4036840" lon="-3.2925560">
        <ele>914.8</ele>
        <time>2022-08-29T10:50:57Z</time>
      </trkpt>
      <trkpt lat="42.4036650" lon="-3.2925870">
        <ele>914.8</ele>
        <time>2022-08-29T10:50:58Z</time>
      </trkpt>
      <trkpt lat="42.4036470" lon="-3.2926200">
        <ele>915.0</ele>
        <time>2022-08-29T10:50:59Z</time>
      </trkpt>
      <trkpt lat="42.4036300" lon="-3.2926560">
        <ele>915.2</ele>
        <time>2022-08-29T10:51:00Z</time>
      </trkpt>
      <trkpt lat="42.4036120" lon="-3.2926910">
        <ele>915.4</ele>
        <time>2022-08-29T10:51:01Z</time>
      </trkpt>
      <trkpt lat="42.4035970" lon="-3.2927310">
        <ele>915.4</ele>
        <time>2022-08-29T10:51:02Z</time>
      </trkpt>
      <trkpt lat="42.4035840" lon="-3.2927700">
        <ele>915.6</ele>
        <time>2022-08-29T10:51:03Z</time>
      </trkpt>
      <trkpt lat="42.4035720" lon="-3.2928080">
        <ele>915.8</ele>
        <time>2022-08-29T10:51:04Z</time>
      </trkpt>
      <trkpt lat="42.4035580" lon="-3.2928440">
        <ele>916.0</ele>
        <time>2022-08-29T10:51:05Z</time>
      </trkpt>
      <trkpt lat="42.4035430" lon="-3.2928810">
        <ele>916.0</ele>
        <time>2022-08-29T10:51:06Z</time>
      </trkpt>
      <trkpt lat="42.4035260" lon="-3.2929190">
        <ele>916.2</ele>
        <time>2022-08-29T10:51:07Z</time>
      </trkpt>
      <trkpt lat="42.4035100" lon="-3.2929570">
        <ele>916.2</ele>
        <time>2022-08-29T10:51:08Z</time>
      </trkpt>
      <trkpt lat="42.4034960" lon="-3.2929990">
        <ele>916.2</ele>
        <time>2022-08-29T10:51:09Z</time>
      </trkpt>
      <trkpt lat="42.4034860" lon="-3.2930410">
        <ele>916.4</ele>
        <time>2022-08-29T10:51:10Z</time>
      </trkpt>
      <trkpt lat="42.4034760" lon="-3.2930810">
        <ele>916.4</ele>
        <time>2022-08-29T10:51:11Z</time>
      </trkpt>
      <trkpt lat="42.4034620" lon="-3.2931160">
        <ele>916.4</ele>
        <time>2022-08-29T10:51:12Z</time>
      </trkpt>
      <trkpt lat="42.4034450" lon="-3.2931480">
        <ele>916.6</ele>
        <time>2022-08-29T10:51:13Z</time>
      </trkpt>
      <trkpt lat="42.4034290" lon="-3.2931780">
        <ele>916.6</ele>
        <time>2022-08-29T10:51:14Z</time>
      </trkpt>
      <trkpt lat="42.4034170" lon="-3.2932130">
        <ele>916.6</ele>
        <time>2022-08-29T10:51:15Z</time>
      </trkpt>
      <trkpt lat="42.4034080" lon="-3.2932510">
        <ele>916.8</ele>
        <time>2022-08-29T10:51:16Z</time>
      </trkpt>
      <trkpt lat="42.4033970" lon="-3.2932900">
        <ele>916.8</ele>
        <time>2022-08-29T10:51:17Z</time>
      </trkpt>
      <trkpt lat="42.4033820" lon="-3.2933300">
        <ele>917.0</ele>
        <time>2022-08-29T10:51:18Z</time>
      </trkpt>
      <trkpt lat="42.4033650" lon="-3.2933730">
        <ele>917.2</ele>
        <time>2022-08-29T10:51:19Z</time>
      </trkpt>
      <trkpt lat="42.4033510" lon="-3.2934200">
        <ele>917.4</ele>
        <time>2022-08-29T10:51:20Z</time>
      </trkpt>
      <trkpt lat="42.4033370" lon="-3.2934670">
        <ele>917.4</ele>
        <time>2022-08-29T10:51:21Z</time>
      </trkpt>
      <trkpt lat="42.4033240" lon="-3.2935130">
        <ele>917.4</ele>
        <time>2022-08-29T10:51:22Z</time>
      </trkpt>
      <trkpt lat="42.4033100" lon="-3.2935590">
        <ele>917.6</ele>
        <time>2022-08-29T10:51:23Z</time>
      </trkpt>
      <trkpt lat="42.4032980" lon="-3.2936060">
        <ele>917.8</ele>
        <time>2022-08-29T10:51:24Z</time>
      </trkpt>
      <trkpt lat="42.4032870" lon="-3.2936550">
        <ele>917.8</ele>
        <time>2022-08-29T10:51:25Z</time>
      </trkpt>
      <trkpt lat="42.4032750" lon="-3.2937050">
        <ele>918.0</ele>
        <time>2022-08-29T10:51:26Z</time>
      </trkpt>
      <trkpt lat="42.4032620" lon="-3.2937520">
        <ele>918.0</ele>
        <time>2022-08-29T10:51:27Z</time>
      </trkpt>
      <trkpt lat="42.4032480" lon="-3.2938000">
        <ele>918.2</ele>
        <time>2022-08-29T10:51:28Z</time>
      </trkpt>
      <trkpt lat="42.4032350" lon="-3.2938470">
        <ele>918.2</ele>
        <time>2022-08-29T10:51:29Z</time>
      </trkpt>
      <trkpt lat="42.4032230" lon="-3.2938940">
        <ele>918.2</ele>
        <time>2022-08-29T10:51:30Z</time>
      </trkpt>
      <trkpt lat="42.4032100" lon="-3.2939370">
        <ele>918.2</ele>
        <time>2022-08-29T10:51:31Z</time>
      </trkpt>
      <trkpt lat="42.4031990" lon="-3.2939830">
        <ele>918.4</ele>
        <time>2022-08-29T10:51:32Z</time>
      </trkpt>
      <trkpt lat="42.4031920" lon="-3.2940380">
        <ele>918.6</ele>
        <time>2022-08-29T10:51:33Z</time>
      </trkpt>
      <trkpt lat="42.4031830" lon="-3.2940910">
        <ele>918.6</ele>
        <time>2022-08-29T10:51:34Z</time>
      </trkpt>
      <trkpt lat="42.4031740" lon="-3.2941450">
        <ele>918.8</ele>
        <time>2022-08-29T10:51:35Z</time>
      </trkpt>
      <trkpt lat="42.4031610" lon="-3.2941950">
        <ele>918.8</ele>
        <time>2022-08-29T10:51:36Z</time>
      </trkpt>
      <trkpt lat="42.4031510" lon="-3.2942480">
        <ele>919.0</ele>
        <time>2022-08-29T10:51:37Z</time>
      </trkpt>
      <trkpt lat="42.4031420" lon="-3.2943010">
        <ele>919.4</ele>
        <time>2022-08-29T10:51:38Z</time>
      </trkpt>
      <trkpt lat="42.4031320" lon="-3.2943510">
        <ele>919.4</ele>
        <time>2022-08-29T10:51:39Z</time>
      </trkpt>
      <trkpt lat="42.4031230" lon="-3.2944020">
        <ele>919.4</ele>
        <time>2022-08-29T10:51:40Z</time>
      </trkpt>
      <trkpt lat="42.4031130" lon="-3.2944520">
        <ele>919.6</ele>
        <time>2022-08-29T10:51:41Z</time>
      </trkpt>
      <trkpt lat="42.4031050" lon="-3.2945010">
        <ele>919.6</ele>
        <time>2022-08-29T10:51:42Z</time>
      </trkpt>
      <trkpt lat="42.4031000" lon="-3.2945510">
        <ele>919.8</ele>
        <time>2022-08-29T10:51:43Z</time>
      </trkpt>
      <trkpt lat="42.4030910" lon="-3.2945990">
        <ele>919.8</ele>
        <time>2022-08-29T10:51:44Z</time>
      </trkpt>
      <trkpt lat="42.4030830" lon="-3.2946430">
        <ele>919.8</ele>
        <time>2022-08-29T10:51:45Z</time>
      </trkpt>
      <trkpt lat="42.4030730" lon="-3.2946880">
        <ele>920.0</ele>
        <time>2022-08-29T10:51:46Z</time>
      </trkpt>
      <trkpt lat="42.4030650" lon="-3.2947330">
        <ele>920.2</ele>
        <time>2022-08-29T10:51:47Z</time>
      </trkpt>
      <trkpt lat="42.4030550" lon="-3.2947760">
        <ele>920.2</ele>
        <time>2022-08-29T10:51:48Z</time>
      </trkpt>
      <trkpt lat="42.4030440" lon="-3.2948140">
        <ele>920.0</ele>
        <time>2022-08-29T10:51:49Z</time>
      </trkpt>
      <trkpt lat="42.4030340" lon="-3.2948520">
        <ele>920.4</ele>
        <time>2022-08-29T10:51:50Z</time>
      </trkpt>
      <trkpt lat="42.4030200" lon="-3.2948870">
        <ele>920.2</ele>
        <time>2022-08-29T10:51:51Z</time>
      </trkpt>
      <trkpt lat="42.4030090" lon="-3.2949250">
        <ele>920.4</ele>
        <time>2022-08-29T10:51:52Z</time>
      </trkpt>
      <trkpt lat="42.4029990" lon="-3.2949620">
        <ele>920.6</ele>
        <time>2022-08-29T10:51:53Z</time>
      </trkpt>
      <trkpt lat="42.4029910" lon="-3.2950000">
        <ele>920.8</ele>
        <time>2022-08-29T10:51:54Z</time>
      </trkpt>
      <trkpt lat="42.4029820" lon="-3.2950380">
        <ele>921.0</ele>
        <time>2022-08-29T10:51:55Z</time>
      </trkpt>
      <trkpt lat="42.4029750" lon="-3.2950780">
        <ele>921.2</ele>
        <time>2022-08-29T10:51:56Z</time>
      </trkpt>
      <trkpt lat="42.4029690" lon="-3.2951190">
        <ele>921.2</ele>
        <time>2022-08-29T10:51:57Z</time>
      </trkpt>
      <trkpt lat="42.4029620" lon="-3.2951570">
        <ele>921.4</ele>
        <time>2022-08-29T10:51:58Z</time>
      </trkpt>
      <trkpt lat="42.4029540" lon="-3.2951930">
        <ele>921.6</ele>
        <time>2022-08-29T10:51:59Z</time>
      </trkpt>
      <trkpt lat="42.4029460" lon="-3.2952320">
        <ele>921.6</ele>
        <time>2022-08-29T10:52:00Z</time>
      </trkpt>
      <trkpt lat="42.4029380" lon="-3.2952700">
        <ele>921.6</ele>
        <time>2022-08-29T10:52:01Z</time>
      </trkpt>
      <trkpt lat="42.4029300" lon="-3.2953090">
        <ele>921.6</ele>
        <time>2022-08-29T10:52:02Z</time>
      </trkpt>
      <trkpt lat="42.4029220" lon="-3.2953470">
        <ele>922.0</ele>
        <time>2022-08-29T10:52:03Z</time>
      </trkpt>
      <trkpt lat="42.4029140" lon="-3.2953850">
        <ele>922.2</ele>
        <time>2022-08-29T10:52:04Z</time>
      </trkpt>
      <trkpt lat="42.4029040" lon="-3.2954210">
        <ele>922.6</ele>
        <time>2022-08-29T10:52:05Z</time>
      </trkpt>
      <trkpt lat="42.4028960" lon="-3.2954570">
        <ele>922.8</ele>
        <time>2022-08-29T10:52:06Z</time>
      </trkpt>
      <trkpt lat="42.4028910" lon="-3.2954940">
        <ele>922.8</ele>
        <time>2022-08-29T10:52:07Z</time>
      </trkpt>
      <trkpt lat="42.4028850" lon="-3.2955310">
        <ele>923.0</ele>
        <time>2022-08-29T10:52:08Z</time>
      </trkpt>
      <trkpt lat="42.4028770" lon="-3.2955680">
        <ele>923.4</ele>
        <time>2022-08-29T10:52:09Z</time>
      </trkpt>
      <trkpt lat="42.4028690" lon="-3.2956050">
        <ele>923.2</ele>
        <time>2022-08-29T10:52:10Z</time>
      </trkpt>
      <trkpt lat="42.4028600" lon="-3.2956420">
        <ele>923.6</ele>
        <time>2022-08-29T10:52:11Z</time>
      </trkpt>
      <trkpt lat="42.4028510" lon="-3.2956820">
        <ele>923.6</ele>
        <time>2022-08-29T10:52:12Z</time>
      </trkpt>
      <trkpt lat="42.4028430" lon="-3.2957220">
        <ele>924.0</ele>
        <time>2022-08-29T10:52:13Z</time>
      </trkpt>
      <trkpt lat="42.4028340" lon="-3.2957650">
        <ele>924.4</ele>
        <time>2022-08-29T10:52:14Z</time>
      </trkpt>
      <trkpt lat="42.4028250" lon="-3.2958100">
        <ele>924.4</ele>
        <time>2022-08-29T10:52:15Z</time>
      </trkpt>
      <trkpt lat="42.4028150" lon="-3.2958530">
        <ele>924.6</ele>
        <time>2022-08-29T10:52:16Z</time>
      </trkpt>
      <trkpt lat="42.4028050" lon="-3.2958960">
        <ele>924.6</ele>
        <time>2022-08-29T10:52:17Z</time>
      </trkpt>
      <trkpt lat="42.4027960" lon="-3.2959370">
        <ele>924.8</ele>
        <time>2022-08-29T10:52:18Z</time>
      </trkpt>
      <trkpt lat="42.4027870" lon="-3.2959780">
        <ele>924.8</ele>
        <time>2022-08-29T10:52:19Z</time>
      </trkpt>
      <trkpt lat="42.4027760" lon="-3.2960170">
        <ele>924.8</ele>
        <time>2022-08-29T10:52:20Z</time>
      </trkpt>
      <trkpt lat="42.4027660" lon="-3.2960550">
        <ele>925.0</ele>
        <time>2022-08-29T10:52:21Z</time>
      </trkpt>
      <trkpt lat="42.4027540" lon="-3.2960910">
        <ele>925.0</ele>
        <time>2022-08-29T10:52:22Z</time>
      </trkpt>
      <trkpt lat="42.4027420" lon="-3.2961280">
        <ele>925.0</ele>
        <time>2022-08-29T10:52:23Z</time>
      </trkpt>
      <trkpt lat="42.4027300" lon="-3.2961620">
        <ele>925.0</ele>
        <time>2022-08-29T10:52:24Z</time>
      </trkpt>
      <trkpt lat="42.4027190" lon="-3.2961970">
        <ele>925.0</ele>
        <time>2022-08-29T10:52:25Z</time>
      </trkpt>
      <trkpt lat="42.4027090" lon="-3.2962330">
        <ele>925.0</ele>
        <time>2022-08-29T10:52:26Z</time>
      </trkpt>
      <trkpt lat="42.4027010" lon="-3.2962700">
        <ele>925.2</ele>
        <time>2022-08-29T10:52:27Z</time>
      </trkpt>
      <trkpt lat="42.4026940" lon="-3.2963060">
        <ele>925.2</ele>
        <time>2022-08-29T10:52:28Z</time>
      </trkpt>
      <trkpt lat="42.4026850" lon="-3.2963370">
        <ele>925.2</ele>
        <time>2022-08-29T10:52:29Z</time>
      </trkpt>
      <trkpt lat="42.4026760" lon="-3.2963690">
        <ele>925.6</ele>
        <time>2022-08-29T10:52:30Z</time>
      </trkpt>
      <trkpt lat="42.4026670" lon="-3.2964030">
        <ele>925.8</ele>
        <time>2022-08-29T10:52:31Z</time>
      </trkpt>
      <trkpt lat="42.4026590" lon="-3.2964370">
        <ele>926.2</ele>
        <time>2022-08-29T10:52:32Z</time>
      </trkpt>
      <trkpt lat="42.4026510" lon="-3.2964700">
        <ele>926.8</ele>
        <time>2022-08-29T10:52:33Z</time>
      </trkpt>
      <trkpt lat="42.4026430" lon="-3.2965040">
        <ele>927.2</ele>
        <time>2022-08-29T10:52:34Z</time>
      </trkpt>
      <trkpt lat="42.4026350" lon="-3.2965370">
        <ele>927.6</ele>
        <time>2022-08-29T10:52:35Z</time>
      </trkpt>
      <trkpt lat="42.4026250" lon="-3.2965690">
        <ele>927.8</ele>
        <time>2022-08-29T10:52:36Z</time>
      </trkpt>
      <trkpt lat="42.4026170" lon="-3.2966010">
        <ele>927.8</ele>
        <time>2022-08-29T10:52:37Z</time>
      </trkpt>
      <trkpt lat="42.4026100" lon="-3.2966340">
        <ele>927.8</ele>
        <time>2022-08-29T10:52:38Z</time>
      </trkpt>
      <trkpt lat="42.4026030" lon="-3.2966680">
        <ele>928.2</ele>
        <time>2022-08-29T10:52:39Z</time>
      </trkpt>
      <trkpt lat="42.4025920" lon="-3.2967010">
        <ele>928.2</ele>
        <time>2022-08-29T10:52:40Z</time>
      </trkpt>
      <trkpt lat="42.4025830" lon="-3.2967390">
        <ele>928.2</ele>
        <time>2022-08-29T10:52:41Z</time>
      </trkpt>
      <trkpt lat="42.4025730" lon="-3.2967740">
        <ele>928.4</ele>
        <time>2022-08-29T10:52:42Z</time>
      </trkpt>
      <trkpt lat="42.4025640" lon="-3.2968100">
        <ele>928.4</ele>
        <time>2022-08-29T10:52:43Z</time>
      </trkpt>
      <trkpt lat="42.4025570" lon="-3.2968480">
        <ele>928.6</ele>
        <time>2022-08-29T10:52:44Z</time>
      </trkpt>
      <trkpt lat="42.4025490" lon="-3.2968860">
        <ele>928.4</ele>
        <time>2022-08-29T10:52:45Z</time>
      </trkpt>
      <trkpt lat="42.4025430" lon="-3.2969230">
        <ele>928.6</ele>
        <time>2022-08-29T10:52:46Z</time>
      </trkpt>
      <trkpt lat="42.4025350" lon="-3.2969590">
        <ele>928.4</ele>
        <time>2022-08-29T10:52:47Z</time>
      </trkpt>
      <trkpt lat="42.4025280" lon="-3.2969950">
        <ele>928.4</ele>
        <time>2022-08-29T10:52:48Z</time>
      </trkpt>
      <trkpt lat="42.4025190" lon="-3.2970310">
        <ele>928.4</ele>
        <time>2022-08-29T10:52:49Z</time>
      </trkpt>
      <trkpt lat="42.4025090" lon="-3.2970680">
        <ele>928.4</ele>
        <time>2022-08-29T10:52:50Z</time>
      </trkpt>
      <trkpt lat="42.4025010" lon="-3.2971060">
        <ele>928.4</ele>
        <time>2022-08-29T10:52:51Z</time>
      </trkpt>
      <trkpt lat="42.4024940" lon="-3.2971440">
        <ele>928.6</ele>
        <time>2022-08-29T10:52:52Z</time>
      </trkpt>
      <trkpt lat="42.4024850" lon="-3.2971820">
        <ele>928.4</ele>
        <time>2022-08-29T10:52:53Z</time>
      </trkpt>
      <trkpt lat="42.4024770" lon="-3.2972180">
        <ele>928.4</ele>
        <time>2022-08-29T10:52:54Z</time>
      </trkpt>
      <trkpt lat="42.4024680" lon="-3.2972540">
        <ele>928.4</ele>
        <time>2022-08-29T10:52:55Z</time>
      </trkpt>
      <trkpt lat="42.4024610" lon="-3.2972900">
        <ele>928.6</ele>
        <time>2022-08-29T10:52:56Z</time>
      </trkpt>
      <trkpt lat="42.4024530" lon="-3.2973270">
        <ele>928.4</ele>
        <time>2022-08-29T10:52:57Z</time>
      </trkpt>
      <trkpt lat="42.4024440" lon="-3.2973630">
        <ele>928.6</ele>
        <time>2022-08-29T10:52:58Z</time>
      </trkpt>
      <trkpt lat="42.4024360" lon="-3.2973960">
        <ele>928.8</ele>
        <time>2022-08-29T10:52:59Z</time>
      </trkpt>
      <trkpt lat="42.4024330" lon="-3.2974320">
        <ele>928.8</ele>
        <time>2022-08-29T10:53:00Z</time>
      </trkpt>
      <trkpt lat="42.4024270" lon="-3.2974670">
        <ele>929.0</ele>
        <time>2022-08-29T10:53:01Z</time>
      </trkpt>
      <trkpt lat="42.4024180" lon="-3.2975000">
        <ele>929.2</ele>
        <time>2022-08-29T10:53:02Z</time>
      </trkpt>
      <trkpt lat="42.4024070" lon="-3.2975320">
        <ele>929.4</ele>
        <time>2022-08-29T10:53:03Z</time>
      </trkpt>
      <trkpt lat="42.4023990" lon="-3.2975660">
        <ele>929.4</ele>
        <time>2022-08-29T10:53:04Z</time>
      </trkpt>
      <trkpt lat="42.4023900" lon="-3.2976000">
        <ele>929.4</ele>
        <time>2022-08-29T10:53:05Z</time>
      </trkpt>
      <trkpt lat="42.4023790" lon="-3.2976400">
        <ele>929.6</ele>
        <time>2022-08-29T10:53:06Z</time>
      </trkpt>
      <trkpt lat="42.4023680" lon="-3.2976830">
        <ele>929.6</ele>
        <time>2022-08-29T10:53:07Z</time>
      </trkpt>
      <trkpt lat="42.4023570" lon="-3.2977280">
        <ele>929.6</ele>
        <time>2022-08-29T10:53:08Z</time>
      </trkpt>
      <trkpt lat="42.4023450" lon="-3.2977730">
        <ele>929.6</ele>
        <time>2022-08-29T10:53:09Z</time>
      </trkpt>
      <trkpt lat="42.4023300" lon="-3.2978190">
        <ele>929.4</ele>
        <time>2022-08-29T10:53:10Z</time>
      </trkpt>
      <trkpt lat="42.4023140" lon="-3.2978670">
        <ele>929.2</ele>
        <time>2022-08-29T10:53:11Z</time>
      </trkpt>
      <trkpt lat="42.4023030" lon="-3.2979150">
        <ele>929.2</ele>
        <time>2022-08-29T10:53:12Z</time>
      </trkpt>
      <trkpt lat="42.4022920" lon="-3.2979660">
        <ele>929.2</ele>
        <time>2022-08-29T10:53:13Z</time>
      </trkpt>
      <trkpt lat="42.4022780" lon="-3.2980200">
        <ele>929.2</ele>
        <time>2022-08-29T10:53:14Z</time>
      </trkpt>
      <trkpt lat="42.4022630" lon="-3.2980750">
        <ele>929.0</ele>
        <time>2022-08-29T10:53:15Z</time>
      </trkpt>
      <trkpt lat="42.4022470" lon="-3.2981330">
        <ele>929.0</ele>
        <time>2022-08-29T10:53:16Z</time>
      </trkpt>
      <trkpt lat="42.4022330" lon="-3.2981950">
        <ele>929.0</ele>
        <time>2022-08-29T10:53:17Z</time>
      </trkpt>
      <trkpt lat="42.4022180" lon="-3.2982630">
        <ele>928.8</ele>
        <time>2022-08-29T10:53:18Z</time>
      </trkpt>
      <trkpt lat="42.4021990" lon="-3.2983350">
        <ele>928.6</ele>
        <time>2022-08-29T10:53:19Z</time>
      </trkpt>
      <trkpt lat="42.4021810" lon="-3.2984140">
        <ele>928.4</ele>
        <time>2022-08-29T10:53:20Z</time>
      </trkpt>
      <trkpt lat="42.4021620" lon="-3.2984980">
        <ele>928.4</ele>
        <time>2022-08-29T10:53:21Z</time>
      </trkpt>
      <trkpt lat="42.4021420" lon="-3.2985840">
        <ele>928.0</ele>
        <time>2022-08-29T10:53:22Z</time>
      </trkpt>
      <trkpt lat="42.4021190" lon="-3.2986790">
        <ele>927.8</ele>
        <time>2022-08-29T10:53:23Z</time>
      </trkpt>
      <trkpt lat="42.4020940" lon="-3.2987800">
        <ele>927.6</ele>
        <time>2022-08-29T10:53:24Z</time>
      </trkpt>
      <trkpt lat="42.4020690" lon="-3.2988860">
        <ele>927.6</ele>
        <time>2022-08-29T10:53:25Z</time>
      </trkpt>
      <trkpt lat="42.4020440" lon="-3.2989980">
        <ele>927.4</ele>
        <time>2022-08-29T10:53:26Z</time>
      </trkpt>
      <trkpt lat="42.4020170" lon="-3.2991130">
        <ele>926.2</ele>
        <time>2022-08-29T10:53:27Z</time>
      </trkpt>
      <trkpt lat="42.4019890" lon="-3.2992320">
        <ele>925.6</ele>
        <time>2022-08-29T10:53:28Z</time>
      </trkpt>
      <trkpt lat="42.4019600" lon="-3.2993590">
        <ele>924.8</ele>
        <time>2022-08-29T10:53:29Z</time>
      </trkpt>
      <trkpt lat="42.4019310" lon="-3.2994900">
        <ele>924.4</ele>
        <time>2022-08-29T10:53:30Z</time>
      </trkpt>
      <trkpt lat="42.4019000" lon="-3.2996250">
        <ele>923.8</ele>
        <time>2022-08-29T10:53:31Z</time>
      </trkpt>
      <trkpt lat="42.4018680" lon="-3.2997650">
        <ele>922.6</ele>
        <time>2022-08-29T10:53:32Z</time>
      </trkpt>
      <trkpt lat="42.4018360" lon="-3.2999080">
        <ele>921.4</ele>
        <time>2022-08-29T10:53:33Z</time>
      </trkpt>
      <trkpt lat="42.4018030" lon="-3.3000540">
        <ele>919.8</ele>
        <time>2022-08-29T10:53:34Z</time>
      </trkpt>
      <trkpt lat="42.4017690" lon="-3.3002030">
        <ele>919.8</ele>
        <time>2022-08-29T10:53:35Z</time>
      </trkpt>
      <trkpt lat="42.4017330" lon="-3.3003520">
        <ele>918.4</ele>
        <time>2022-08-29T10:53:36Z</time>
      </trkpt>
      <trkpt lat="42.4016970" lon="-3.3005010">
        <ele>917.2</ele>
        <time>2022-08-29T10:53:37Z</time>
      </trkpt>
      <trkpt lat="42.4016620" lon="-3.3006470">
        <ele>915.4</ele>
        <time>2022-08-29T10:53:38Z</time>
      </trkpt>
      <trkpt lat="42.4016310" lon="-3.3007800">
        <ele>914.0</ele>
        <time>2022-08-29T10:53:39Z</time>
      </trkpt>
      <trkpt lat="42.4015950" lon="-3.3008950">
        <ele>912.6</ele>
        <time>2022-08-29T10:53:40Z</time>
      </trkpt>
      <trkpt lat="42.4015430" lon="-3.3009920">
        <ele>911.4</ele>
        <time>2022-08-29T10:53:41Z</time>
      </trkpt>
      <trkpt lat="42.4014790" lon="-3.3010700">
        <ele>910.2</ele>
        <time>2022-08-29T10:53:42Z</time>
      </trkpt>
      <trkpt lat="42.4014070" lon="-3.3011250">
        <ele>908.4</ele>
        <time>2022-08-29T10:53:43Z</time>
      </trkpt>
      <trkpt lat="42.4013300" lon="-3.3011620">
        <ele>906.8</ele>
        <time>2022-08-29T10:53:44Z</time>
      </trkpt>
      <trkpt lat="42.4012520" lon="-3.3011870">
        <ele>905.8</ele>
        <time>2022-08-29T10:53:45Z</time>
      </trkpt>
      <trkpt lat="42.4011760" lon="-3.3012090">
        <ele>905.2</ele>
        <time>2022-08-29T10:53:46Z</time>
      </trkpt>
      <trkpt lat="42.4011030" lon="-3.3012360">
        <ele>905.0</ele>
        <time>2022-08-29T10:53:47Z</time>
      </trkpt>
      <trkpt lat="42.4010340" lon="-3.3012610">
        <ele>905.0</ele>
        <time>2022-08-29T10:53:48Z</time>
      </trkpt>
      <trkpt lat="42.4009660" lon="-3.3012860">
        <ele>905.0</ele>
        <time>2022-08-29T10:53:49Z</time>
      </trkpt>
      <trkpt lat="42.4009010" lon="-3.3013100">
        <ele>904.8</ele>
        <time>2022-08-29T10:53:50Z</time>
      </trkpt>
      <trkpt lat="42.4008370" lon="-3.3013310">
        <ele>904.8</ele>
        <time>2022-08-29T10:53:51Z</time>
      </trkpt>
      <trkpt lat="42.4007760" lon="-3.3013520">
        <ele>904.6</ele>
        <time>2022-08-29T10:53:52Z</time>
      </trkpt>
      <trkpt lat="42.4007180" lon="-3.3013760">
        <ele>904.8</ele>
        <time>2022-08-29T10:53:53Z</time>
      </trkpt>
      <trkpt lat="42.4006640" lon="-3.3013990">
        <ele>904.8</ele>
        <time>2022-08-29T10:53:54Z</time>
      </trkpt>
      <trkpt lat="42.4006100" lon="-3.3014220">
        <ele>904.8</ele>
        <time>2022-08-29T10:53:55Z</time>
      </trkpt>
      <trkpt lat="42.4005570" lon="-3.3014420">
        <ele>905.4</ele>
        <time>2022-08-29T10:53:56Z</time>
      </trkpt>
      <trkpt lat="42.4005040" lon="-3.3014590">
        <ele>905.8</ele>
        <time>2022-08-29T10:53:57Z</time>
      </trkpt>
      <trkpt lat="42.4004500" lon="-3.3014750">
        <ele>906.2</ele>
        <time>2022-08-29T10:53:58Z</time>
      </trkpt>
      <trkpt lat="42.4003980" lon="-3.3014910">
        <ele>906.2</ele>
        <time>2022-08-29T10:53:59Z</time>
      </trkpt>
      <trkpt lat="42.4003470" lon="-3.3015090">
        <ele>906.4</ele>
        <time>2022-08-29T10:54:00Z</time>
      </trkpt>
      <trkpt lat="42.4002960" lon="-3.3015270">
        <ele>906.6</ele>
        <time>2022-08-29T10:54:01Z</time>
      </trkpt>
      <trkpt lat="42.4002450" lon="-3.3015450">
        <ele>907.2</ele>
        <time>2022-08-29T10:54:02Z</time>
      </trkpt>
      <trkpt lat="42.4001940" lon="-3.3015620">
        <ele>907.4</ele>
        <time>2022-08-29T10:54:03Z</time>
      </trkpt>
      <trkpt lat="42.4001450" lon="-3.3015810">
        <ele>907.6</ele>
        <time>2022-08-29T10:54:04Z</time>
      </trkpt>
      <trkpt lat="42.4000960" lon="-3.3016020">
        <ele>907.8</ele>
        <time>2022-08-29T10:54:05Z</time>
      </trkpt>
      <trkpt lat="42.4000470" lon="-3.3016220">
        <ele>908.0</ele>
        <time>2022-08-29T10:54:06Z</time>
      </trkpt>
      <trkpt lat="42.3999980" lon="-3.3016420">
        <ele>908.2</ele>
        <time>2022-08-29T10:54:07Z</time>
      </trkpt>
      <trkpt lat="42.3999490" lon="-3.3016630">
        <ele>908.2</ele>
        <time>2022-08-29T10:54:08Z</time>
      </trkpt>
      <trkpt lat="42.3999010" lon="-3.3016810">
        <ele>908.4</ele>
        <time>2022-08-29T10:54:09Z</time>
      </trkpt>
      <trkpt lat="42.3998530" lon="-3.3016980">
        <ele>908.4</ele>
        <time>2022-08-29T10:54:10Z</time>
      </trkpt>
      <trkpt lat="42.3998060" lon="-3.3017190">
        <ele>908.4</ele>
        <time>2022-08-29T10:54:11Z</time>
      </trkpt>
      <trkpt lat="42.3997570" lon="-3.3017380">
        <ele>908.4</ele>
        <time>2022-08-29T10:54:12Z</time>
      </trkpt>
      <trkpt lat="42.3997110" lon="-3.3017560">
        <ele>908.2</ele>
        <time>2022-08-29T10:54:13Z</time>
      </trkpt>
      <trkpt lat="42.3996650" lon="-3.3017760">
        <ele>908.4</ele>
        <time>2022-08-29T10:54:14Z</time>
      </trkpt>
      <trkpt lat="42.3996180" lon="-3.3017940">
        <ele>908.4</ele>
        <time>2022-08-29T10:54:15Z</time>
      </trkpt>
      <trkpt lat="42.3995210" lon="-3.3018270">
        <ele>908.6</ele>
        <time>2022-08-29T10:54:16Z</time>
      </trkpt>
      <trkpt lat="42.3994970" lon="-3.3018350">
        <ele>908.4</ele>
        <time>2022-08-29T10:54:17Z</time>
      </trkpt>
      <trkpt lat="42.3994720" lon="-3.3018440">
        <ele>908.4</ele>
        <time>2022-08-29T10:54:18Z</time>
      </trkpt>
      <trkpt lat="42.3994220" lon="-3.3018630">
        <ele>908.4</ele>
        <time>2022-08-29T10:54:19Z</time>
      </trkpt>
      <trkpt lat="42.3993700" lon="-3.3018830">
        <ele>908.6</ele>
        <time>2022-08-29T10:54:20Z</time>
      </trkpt>
      <trkpt lat="42.3993210" lon="-3.3019050">
        <ele>908.6</ele>
        <time>2022-08-29T10:54:21Z</time>
      </trkpt>
      <trkpt lat="42.3992690" lon="-3.3019280">
        <ele>908.6</ele>
        <time>2022-08-29T10:54:22Z</time>
      </trkpt>
      <trkpt lat="42.3992130" lon="-3.3019530">
        <ele>908.8</ele>
        <time>2022-08-29T10:54:23Z</time>
      </trkpt>
      <trkpt lat="42.3991550" lon="-3.3019760">
        <ele>908.8</ele>
        <time>2022-08-29T10:54:24Z</time>
      </trkpt>
      <trkpt lat="42.3990960" lon="-3.3019980">
        <ele>908.6</ele>
        <time>2022-08-29T10:54:25Z</time>
      </trkpt>
      <trkpt lat="42.3990380" lon="-3.3020220">
        <ele>908.6</ele>
        <time>2022-08-29T10:54:26Z</time>
      </trkpt>
      <trkpt lat="42.3989800" lon="-3.3020430">
        <ele>908.6</ele>
        <time>2022-08-29T10:54:27Z</time>
      </trkpt>
      <trkpt lat="42.3989220" lon="-3.3020640">
        <ele>908.8</ele>
        <time>2022-08-29T10:54:28Z</time>
      </trkpt>
      <trkpt lat="42.3988650" lon="-3.3020860">
        <ele>908.8</ele>
        <time>2022-08-29T10:54:29Z</time>
      </trkpt>
      <trkpt lat="42.3988080" lon="-3.3021070">
        <ele>909.0</ele>
        <time>2022-08-29T10:54:30Z</time>
      </trkpt>
      <trkpt lat="42.3987540" lon="-3.3021280">
        <ele>908.8</ele>
        <time>2022-08-29T10:54:31Z</time>
      </trkpt>
      <trkpt lat="42.3987000" lon="-3.3021510">
        <ele>908.8</ele>
        <time>2022-08-29T10:54:32Z</time>
      </trkpt>
      <trkpt lat="42.3986470" lon="-3.3021710">
        <ele>909.0</ele>
        <time>2022-08-29T10:54:33Z</time>
      </trkpt>
      <trkpt lat="42.3985940" lon="-3.3021920">
        <ele>909.0</ele>
        <time>2022-08-29T10:54:34Z</time>
      </trkpt>
      <trkpt lat="42.3985430" lon="-3.3022170">
        <ele>909.0</ele>
        <time>2022-08-29T10:54:35Z</time>
      </trkpt>
      <trkpt lat="42.3984930" lon="-3.3022430">
        <ele>909.0</ele>
        <time>2022-08-29T10:54:36Z</time>
      </trkpt>
      <trkpt lat="42.3984410" lon="-3.3022670">
        <ele>908.8</ele>
        <time>2022-08-29T10:54:37Z</time>
      </trkpt>
      <trkpt lat="42.3983880" lon="-3.3022850">
        <ele>909.0</ele>
        <time>2022-08-29T10:54:38Z</time>
      </trkpt>
      <trkpt lat="42.3983350" lon="-3.3023040">
        <ele>909.0</ele>
        <time>2022-08-29T10:54:39Z</time>
      </trkpt>
      <trkpt lat="42.3982830" lon="-3.3023230">
        <ele>909.0</ele>
        <time>2022-08-29T10:54:40Z</time>
      </trkpt>
      <trkpt lat="42.3982320" lon="-3.3023420">
        <ele>909.0</ele>
        <time>2022-08-29T10:54:41Z</time>
      </trkpt>
      <trkpt lat="42.3981810" lon="-3.3023640">
        <ele>909.0</ele>
        <time>2022-08-29T10:54:42Z</time>
      </trkpt>
      <trkpt lat="42.3981290" lon="-3.3023850">
        <ele>909.0</ele>
        <time>2022-08-29T10:54:43Z</time>
      </trkpt>
      <trkpt lat="42.3980770" lon="-3.3024060">
        <ele>909.0</ele>
        <time>2022-08-29T10:54:44Z</time>
      </trkpt>
      <trkpt lat="42.3980270" lon="-3.3024240">
        <ele>909.0</ele>
        <time>2022-08-29T10:54:45Z</time>
      </trkpt>
      <trkpt lat="42.3979770" lon="-3.3024440">
        <ele>909.2</ele>
        <time>2022-08-29T10:54:46Z</time>
      </trkpt>
      <trkpt lat="42.3979280" lon="-3.3024660">
        <ele>909.2</ele>
        <time>2022-08-29T10:54:47Z</time>
      </trkpt>
      <trkpt lat="42.3978780" lon="-3.3024860">
        <ele>909.2</ele>
        <time>2022-08-29T10:54:48Z</time>
      </trkpt>
      <trkpt lat="42.3978270" lon="-3.3025040">
        <ele>909.2</ele>
        <time>2022-08-29T10:54:49Z</time>
      </trkpt>
      <trkpt lat="42.3977760" lon="-3.3025210">
        <ele>909.4</ele>
        <time>2022-08-29T10:54:50Z</time>
      </trkpt>
      <trkpt lat="42.3977260" lon="-3.3025380">
        <ele>909.6</ele>
        <time>2022-08-29T10:54:51Z</time>
      </trkpt>
      <trkpt lat="42.3976760" lon="-3.3025560">
        <ele>909.8</ele>
        <time>2022-08-29T10:54:52Z</time>
      </trkpt>
      <trkpt lat="42.3976270" lon="-3.3025740">
        <ele>909.8</ele>
        <time>2022-08-29T10:54:53Z</time>
      </trkpt>
      <trkpt lat="42.3975800" lon="-3.3025930">
        <ele>909.8</ele>
        <time>2022-08-29T10:54:54Z</time>
      </trkpt>
      <trkpt lat="42.3975330" lon="-3.3026130">
        <ele>910.0</ele>
        <time>2022-08-29T10:54:55Z</time>
      </trkpt>
      <trkpt lat="42.3974870" lon="-3.3026310">
        <ele>910.0</ele>
        <time>2022-08-29T10:54:56Z</time>
      </trkpt>
      <trkpt lat="42.3974420" lon="-3.3026510">
        <ele>910.0</ele>
        <time>2022-08-29T10:54:57Z</time>
      </trkpt>
      <trkpt lat="42.3974000" lon="-3.3026730">
        <ele>910.0</ele>
        <time>2022-08-29T10:54:58Z</time>
      </trkpt>
      <trkpt lat="42.3973540" lon="-3.3026890">
        <ele>910.2</ele>
        <time>2022-08-29T10:54:59Z</time>
      </trkpt>
      <trkpt lat="42.3973090" lon="-3.3027030">
        <ele>910.0</ele>
        <time>2022-08-29T10:55:00Z</time>
      </trkpt>
      <trkpt lat="42.3972650" lon="-3.3027180">
        <ele>910.2</ele>
        <time>2022-08-29T10:55:01Z</time>
      </trkpt>
      <trkpt lat="42.3972230" lon="-3.3027380">
        <ele>910.0</ele>
        <time>2022-08-29T10:55:02Z</time>
      </trkpt>
      <trkpt lat="42.3971800" lon="-3.3027530">
        <ele>910.0</ele>
        <time>2022-08-29T10:55:03Z</time>
      </trkpt>
      <trkpt lat="42.3971370" lon="-3.3027700">
        <ele>910.2</ele>
        <time>2022-08-29T10:55:04Z</time>
      </trkpt>
      <trkpt lat="42.3970940" lon="-3.3027880">
        <ele>910.2</ele>
        <time>2022-08-29T10:55:05Z</time>
      </trkpt>
      <trkpt lat="42.3970510" lon="-3.3028030">
        <ele>910.2</ele>
        <time>2022-08-29T10:55:06Z</time>
      </trkpt>
      <trkpt lat="42.3970060" lon="-3.3028190">
        <ele>910.4</ele>
        <time>2022-08-29T10:55:07Z</time>
      </trkpt>
      <trkpt lat="42.3969620" lon="-3.3028370">
        <ele>910.4</ele>
        <time>2022-08-29T10:55:08Z</time>
      </trkpt>
      <trkpt lat="42.3969200" lon="-3.3028540">
        <ele>910.4</ele>
        <time>2022-08-29T10:55:09Z</time>
      </trkpt>
      <trkpt lat="42.3968780" lon="-3.3028730">
        <ele>910.2</ele>
        <time>2022-08-29T10:55:10Z</time>
      </trkpt>
      <trkpt lat="42.3968370" lon="-3.3028940">
        <ele>910.6</ele>
        <time>2022-08-29T10:55:11Z</time>
      </trkpt>
      <trkpt lat="42.3967940" lon="-3.3029130">
        <ele>910.8</ele>
        <time>2022-08-29T10:55:12Z</time>
      </trkpt>
      <trkpt lat="42.3967490" lon="-3.3029280">
        <ele>910.8</ele>
        <time>2022-08-29T10:55:13Z</time>
      </trkpt>
      <trkpt lat="42.3967030" lon="-3.3029380">
        <ele>910.8</ele>
        <time>2022-08-29T10:55:14Z</time>
      </trkpt>
      <trkpt lat="42.3966570" lon="-3.3029470">
        <ele>910.8</ele>
        <time>2022-08-29T10:55:15Z</time>
      </trkpt>
      <trkpt lat="42.3966140" lon="-3.3029540">
        <ele>910.8</ele>
        <time>2022-08-29T10:55:16Z</time>
      </trkpt>
      <trkpt lat="42.3965700" lon="-3.3029550">
        <ele>910.8</ele>
        <time>2022-08-29T10:55:17Z</time>
      </trkpt>
      <trkpt lat="42.3965250" lon="-3.3029470">
        <ele>911.0</ele>
        <time>2022-08-29T10:55:18Z</time>
      </trkpt>
      <trkpt lat="42.3964820" lon="-3.3029320">
        <ele>911.0</ele>
        <time>2022-08-29T10:55:19Z</time>
      </trkpt>
      <trkpt lat="42.3964390" lon="-3.3029190">
        <ele>911.0</ele>
        <time>2022-08-29T10:55:20Z</time>
      </trkpt>
      <trkpt lat="42.3963970" lon="-3.3029030">
        <ele>911.0</ele>
        <time>2022-08-29T10:55:21Z</time>
      </trkpt>
      <trkpt lat="42.3963550" lon="-3.3028810">
        <ele>911.4</ele>
        <time>2022-08-29T10:55:22Z</time>
      </trkpt>
      <trkpt lat="42.3963160" lon="-3.3028510">
        <ele>911.2</ele>
        <time>2022-08-29T10:55:23Z</time>
      </trkpt>
      <trkpt lat="42.3962810" lon="-3.3028190">
        <ele>911.2</ele>
        <time>2022-08-29T10:55:24Z</time>
      </trkpt>
      <trkpt lat="42.3962470" lon="-3.3027840">
        <ele>911.4</ele>
        <time>2022-08-29T10:55:25Z</time>
      </trkpt>
      <trkpt lat="42.3962150" lon="-3.3027500">
        <ele>911.2</ele>
        <time>2022-08-29T10:55:26Z</time>
      </trkpt>
      <trkpt lat="42.3961860" lon="-3.3027160">
        <ele>911.4</ele>
        <time>2022-08-29T10:55:27Z</time>
      </trkpt>
      <trkpt lat="42.3961590" lon="-3.3026840">
        <ele>911.6</ele>
        <time>2022-08-29T10:55:28Z</time>
      </trkpt>
      <trkpt lat="42.3961330" lon="-3.3026550">
        <ele>911.6</ele>
        <time>2022-08-29T10:55:29Z</time>
      </trkpt>
      <trkpt lat="42.3961080" lon="-3.3026300">
        <ele>911.6</ele>
        <time>2022-08-29T10:55:30Z</time>
      </trkpt>
      <trkpt lat="42.3960850" lon="-3.3026050">
        <ele>911.8</ele>
        <time>2022-08-29T10:55:31Z</time>
      </trkpt>
      <trkpt lat="42.3960630" lon="-3.3025770">
        <ele>912.0</ele>
        <time>2022-08-29T10:55:32Z</time>
      </trkpt>
      <trkpt lat="42.3960420" lon="-3.3025500">
        <ele>912.0</ele>
        <time>2022-08-29T10:55:33Z</time>
      </trkpt>
      <trkpt lat="42.3960210" lon="-3.3025200">
        <ele>912.0</ele>
        <time>2022-08-29T10:55:34Z</time>
      </trkpt>
      <trkpt lat="42.3959980" lon="-3.3024940">
        <ele>912.2</ele>
        <time>2022-08-29T10:55:35Z</time>
      </trkpt>
      <trkpt lat="42.3959750" lon="-3.3024660">
        <ele>912.4</ele>
        <time>2022-08-29T10:55:36Z</time>
      </trkpt>
      <trkpt lat="42.3959540" lon="-3.3024410">
        <ele>912.8</ele>
        <time>2022-08-29T10:55:37Z</time>
      </trkpt>
      <trkpt lat="42.3959340" lon="-3.3024140">
        <ele>913.2</ele>
        <time>2022-08-29T10:55:38Z</time>
      </trkpt>
      <trkpt lat="42.3959130" lon="-3.3023880">
        <ele>913.2</ele>
        <time>2022-08-29T10:55:39Z</time>
      </trkpt>
      <trkpt lat="42.3958930" lon="-3.3023640">
        <ele>913.4</ele>
        <time>2022-08-29T10:55:40Z</time>
      </trkpt>
      <trkpt lat="42.3958720" lon="-3.3023430">
        <ele>913.8</ele>
        <time>2022-08-29T10:55:41Z</time>
      </trkpt>
      <trkpt lat="42.3958480" lon="-3.3023220">
        <ele>914.0</ele>
        <time>2022-08-29T10:55:42Z</time>
      </trkpt>
      <trkpt lat="42.3958240" lon="-3.3023050">
        <ele>914.2</ele>
        <time>2022-08-29T10:55:43Z</time>
      </trkpt>
      <trkpt lat="42.3957990" lon="-3.3023010">
        <ele>914.4</ele>
        <time>2022-08-29T10:55:44Z</time>
      </trkpt>
      <trkpt lat="42.3957750" lon="-3.3023110">
        <ele>914.6</ele>
        <time>2022-08-29T10:55:45Z</time>
      </trkpt>
      <trkpt lat="42.3957510" lon="-3.3023280">
        <ele>914.8</ele>
        <time>2022-08-29T10:55:46Z</time>
      </trkpt>
      <trkpt lat="42.3957260" lon="-3.3023490">
        <ele>914.8</ele>
        <time>2022-08-29T10:55:47Z</time>
      </trkpt>
      <trkpt lat="42.3956990" lon="-3.3023710">
        <ele>915.2</ele>
        <time>2022-08-29T10:55:48Z</time>
      </trkpt>
      <trkpt lat="42.3956720" lon="-3.3023940">
        <ele>915.2</ele>
        <time>2022-08-29T10:55:49Z</time>
      </trkpt>
      <trkpt lat="42.3956430" lon="-3.3024150">
        <ele>915.4</ele>
        <time>2022-08-29T10:55:50Z</time>
      </trkpt>
      <trkpt lat="42.3956110" lon="-3.3024370">
        <ele>915.4</ele>
        <time>2022-08-29T10:55:51Z</time>
      </trkpt>
      <trkpt lat="42.3955780" lon="-3.3024590">
        <ele>915.4</ele>
        <time>2022-08-29T10:55:52Z</time>
      </trkpt>
      <trkpt lat="42.3955450" lon="-3.3024830">
        <ele>915.4</ele>
        <time>2022-08-29T10:55:53Z</time>
      </trkpt>
      <trkpt lat="42.3955110" lon="-3.3025060">
        <ele>915.6</ele>
        <time>2022-08-29T10:55:54Z</time>
      </trkpt>
      <trkpt lat="42.3954760" lon="-3.3025310">
        <ele>915.6</ele>
        <time>2022-08-29T10:55:55Z</time>
      </trkpt>
      <trkpt lat="42.3954440" lon="-3.3025570">
        <ele>915.8</ele>
        <time>2022-08-29T10:55:56Z</time>
      </trkpt>
      <trkpt lat="42.3954090" lon="-3.3025840">
        <ele>915.6</ele>
        <time>2022-08-29T10:55:57Z</time>
      </trkpt>
      <trkpt lat="42.3953740" lon="-3.3026110">
        <ele>915.6</ele>
        <time>2022-08-29T10:55:58Z</time>
      </trkpt>
      <trkpt lat="42.3953390" lon="-3.3026400">
        <ele>915.8</ele>
        <time>2022-08-29T10:55:59Z</time>
      </trkpt>
      <trkpt lat="42.3953030" lon="-3.3026690">
        <ele>915.8</ele>
        <time>2022-08-29T10:56:00Z</time>
      </trkpt>
      <trkpt lat="42.3952650" lon="-3.3026990">
        <ele>916.0</ele>
        <time>2022-08-29T10:56:01Z</time>
      </trkpt>
      <trkpt lat="42.3952270" lon="-3.3027290">
        <ele>916.0</ele>
        <time>2022-08-29T10:56:02Z</time>
      </trkpt>
      <trkpt lat="42.3951890" lon="-3.3027590">
        <ele>916.0</ele>
        <time>2022-08-29T10:56:03Z</time>
      </trkpt>
      <trkpt lat="42.3951520" lon="-3.3027880">
        <ele>915.8</ele>
        <time>2022-08-29T10:56:04Z</time>
      </trkpt>
      <trkpt lat="42.3951150" lon="-3.3028180">
        <ele>916.0</ele>
        <time>2022-08-29T10:56:05Z</time>
      </trkpt>
      <trkpt lat="42.3950770" lon="-3.3028480">
        <ele>916.0</ele>
        <time>2022-08-29T10:56:06Z</time>
      </trkpt>
      <trkpt lat="42.3950430" lon="-3.3028820">
        <ele>915.8</ele>
        <time>2022-08-29T10:56:07Z</time>
      </trkpt>
      <trkpt lat="42.3950070" lon="-3.3029160">
        <ele>915.8</ele>
        <time>2022-08-29T10:56:08Z</time>
      </trkpt>
      <trkpt lat="42.3949690" lon="-3.3029480">
        <ele>915.8</ele>
        <time>2022-08-29T10:56:09Z</time>
      </trkpt>
      <trkpt lat="42.3949310" lon="-3.3029790">
        <ele>915.8</ele>
        <time>2022-08-29T10:56:10Z</time>
      </trkpt>
      <trkpt lat="42.3948930" lon="-3.3030110">
        <ele>915.8</ele>
        <time>2022-08-29T10:56:11Z</time>
      </trkpt>
      <trkpt lat="42.3948540" lon="-3.3030410">
        <ele>915.8</ele>
        <time>2022-08-29T10:56:12Z</time>
      </trkpt>
      <trkpt lat="42.3948170" lon="-3.3030710">
        <ele>915.8</ele>
        <time>2022-08-29T10:56:13Z</time>
      </trkpt>
      <trkpt lat="42.3947800" lon="-3.3030990">
        <ele>915.8</ele>
        <time>2022-08-29T10:56:14Z</time>
      </trkpt>
      <trkpt lat="42.3947460" lon="-3.3031260">
        <ele>915.6</ele>
        <time>2022-08-29T10:56:15Z</time>
      </trkpt>
      <trkpt lat="42.3947110" lon="-3.3031530">
        <ele>915.2</ele>
        <time>2022-08-29T10:56:16Z</time>
      </trkpt>
      <trkpt lat="42.3946750" lon="-3.3031780">
        <ele>915.2</ele>
        <time>2022-08-29T10:56:17Z</time>
      </trkpt>
      <trkpt lat="42.3946400" lon="-3.3032060">
        <ele>915.0</ele>
        <time>2022-08-29T10:56:18Z</time>
      </trkpt>
      <trkpt lat="42.3946050" lon="-3.3032370">
        <ele>915.0</ele>
        <time>2022-08-29T10:56:19Z</time>
      </trkpt>
      <trkpt lat="42.3945690" lon="-3.3032680">
        <ele>914.8</ele>
        <time>2022-08-29T10:56:20Z</time>
      </trkpt>
      <trkpt lat="42.3945320" lon="-3.3033000">
        <ele>914.6</ele>
        <time>2022-08-29T10:56:21Z</time>
      </trkpt>
      <trkpt lat="42.3944930" lon="-3.3033330">
        <ele>914.6</ele>
        <time>2022-08-29T10:56:22Z</time>
      </trkpt>
      <trkpt lat="42.3944550" lon="-3.3033650">
        <ele>914.6</ele>
        <time>2022-08-29T10:56:23Z</time>
      </trkpt>
      <trkpt lat="42.3944160" lon="-3.3033970">
        <ele>914.8</ele>
        <time>2022-08-29T10:56:24Z</time>
      </trkpt>
      <trkpt lat="42.3943770" lon="-3.3034300">
        <ele>914.6</ele>
        <time>2022-08-29T10:56:25Z</time>
      </trkpt>
      <trkpt lat="42.3943400" lon="-3.3034630">
        <ele>914.6</ele>
        <time>2022-08-29T10:56:26Z</time>
      </trkpt>
      <trkpt lat="42.3943000" lon="-3.3034950">
        <ele>914.6</ele>
        <time>2022-08-29T10:56:27Z</time>
      </trkpt>
      <trkpt lat="42.3942600" lon="-3.3035270">
        <ele>914.6</ele>
        <time>2022-08-29T10:56:28Z</time>
      </trkpt>
      <trkpt lat="42.3942200" lon="-3.3035610">
        <ele>914.6</ele>
        <time>2022-08-29T10:56:29Z</time>
      </trkpt>
      <trkpt lat="42.3941780" lon="-3.3035940">
        <ele>914.8</ele>
        <time>2022-08-29T10:56:30Z</time>
      </trkpt>
      <trkpt lat="42.3941370" lon="-3.3036250">
        <ele>914.6</ele>
        <time>2022-08-29T10:56:31Z</time>
      </trkpt>
      <trkpt lat="42.3940960" lon="-3.3036580">
        <ele>914.6</ele>
        <time>2022-08-29T10:56:32Z</time>
      </trkpt>
      <trkpt lat="42.3940550" lon="-3.3036920">
        <ele>914.6</ele>
        <time>2022-08-29T10:56:33Z</time>
      </trkpt>
      <trkpt lat="42.3940140" lon="-3.3037260">
        <ele>914.6</ele>
        <time>2022-08-29T10:56:34Z</time>
      </trkpt>
      <trkpt lat="42.3939730" lon="-3.3037600">
        <ele>914.6</ele>
        <time>2022-08-29T10:56:35Z</time>
      </trkpt>
      <trkpt lat="42.3939330" lon="-3.3037940">
        <ele>914.6</ele>
        <time>2022-08-29T10:56:36Z</time>
      </trkpt>
      <trkpt lat="42.3938930" lon="-3.3038280">
        <ele>914.6</ele>
        <time>2022-08-29T10:56:37Z</time>
      </trkpt>
      <trkpt lat="42.3938550" lon="-3.3038630">
        <ele>914.8</ele>
        <time>2022-08-29T10:56:38Z</time>
      </trkpt>
      <trkpt lat="42.3938160" lon="-3.3038970">
        <ele>914.8</ele>
        <time>2022-08-29T10:56:39Z</time>
      </trkpt>
      <trkpt lat="42.3937750" lon="-3.3039310">
        <ele>915.0</ele>
        <time>2022-08-29T10:56:40Z</time>
      </trkpt>
      <trkpt lat="42.3937350" lon="-3.3039640">
        <ele>915.0</ele>
        <time>2022-08-29T10:56:41Z</time>
      </trkpt>
      <trkpt lat="42.3936940" lon="-3.3039980">
        <ele>914.8</ele>
        <time>2022-08-29T10:56:42Z</time>
      </trkpt>
      <trkpt lat="42.3936530" lon="-3.3040300">
        <ele>915.0</ele>
        <time>2022-08-29T10:56:43Z</time>
      </trkpt>
      <trkpt lat="42.3936120" lon="-3.3040640">
        <ele>915.0</ele>
        <time>2022-08-29T10:56:44Z</time>
      </trkpt>
      <trkpt lat="42.3935710" lon="-3.3040970">
        <ele>915.0</ele>
        <time>2022-08-29T10:56:45Z</time>
      </trkpt>
      <trkpt lat="42.3935300" lon="-3.3041310">
        <ele>914.8</ele>
        <time>2022-08-29T10:56:46Z</time>
      </trkpt>
      <trkpt lat="42.3934910" lon="-3.3041670">
        <ele>914.8</ele>
        <time>2022-08-29T10:56:47Z</time>
      </trkpt>
      <trkpt lat="42.3934520" lon="-3.3042000">
        <ele>914.8</ele>
        <time>2022-08-29T10:56:48Z</time>
      </trkpt>
      <trkpt lat="42.3933720" lon="-3.3042650">
        <ele>914.8</ele>
        <time>2022-08-29T10:56:49Z</time>
      </trkpt>
      <trkpt lat="42.3933510" lon="-3.3042810">
        <ele>915.0</ele>
        <time>2022-08-29T10:56:50Z</time>
      </trkpt>
      <trkpt lat="42.3933310" lon="-3.3042970">
        <ele>915.0</ele>
        <time>2022-08-29T10:56:51Z</time>
      </trkpt>
      <trkpt lat="42.3932900" lon="-3.3043300">
        <ele>915.0</ele>
        <time>2022-08-29T10:56:52Z</time>
      </trkpt>
      <trkpt lat="42.3932490" lon="-3.3043640">
        <ele>914.8</ele>
        <time>2022-08-29T10:56:53Z</time>
      </trkpt>
      <trkpt lat="42.3932090" lon="-3.3043970">
        <ele>914.8</ele>
        <time>2022-08-29T10:56:54Z</time>
      </trkpt>
      <trkpt lat="42.3931680" lon="-3.3044310">
        <ele>914.8</ele>
        <time>2022-08-29T10:56:55Z</time>
      </trkpt>
      <trkpt lat="42.3931290" lon="-3.3044650">
        <ele>915.0</ele>
        <time>2022-08-29T10:56:56Z</time>
      </trkpt>
      <trkpt lat="42.3930900" lon="-3.3044980">
        <ele>914.8</ele>
        <time>2022-08-29T10:56:57Z</time>
      </trkpt>
      <trkpt lat="42.3930510" lon="-3.3045300">
        <ele>914.8</ele>
        <time>2022-08-29T10:56:58Z</time>
      </trkpt>
      <trkpt lat="42.3930110" lon="-3.3045620">
        <ele>914.8</ele>
        <time>2022-08-29T10:56:59Z</time>
      </trkpt>
      <trkpt lat="42.3929730" lon="-3.3045930">
        <ele>914.8</ele>
        <time>2022-08-29T10:57:00Z</time>
      </trkpt>
      <trkpt lat="42.3929340" lon="-3.3046250">
        <ele>914.8</ele>
        <time>2022-08-29T10:57:01Z</time>
      </trkpt>
      <trkpt lat="42.3928960" lon="-3.3046570">
        <ele>914.8</ele>
        <time>2022-08-29T10:57:02Z</time>
      </trkpt>
      <trkpt lat="42.3928580" lon="-3.3046880">
        <ele>914.8</ele>
        <time>2022-08-29T10:57:03Z</time>
      </trkpt>
      <trkpt lat="42.3928190" lon="-3.3047200">
        <ele>914.8</ele>
        <time>2022-08-29T10:57:04Z</time>
      </trkpt>
      <trkpt lat="42.3927810" lon="-3.3047510">
        <ele>915.0</ele>
        <time>2022-08-29T10:57:05Z</time>
      </trkpt>
      <trkpt lat="42.3927430" lon="-3.3047830">
        <ele>915.0</ele>
        <time>2022-08-29T10:57:06Z</time>
      </trkpt>
      <trkpt lat="42.3927070" lon="-3.3048150">
        <ele>915.0</ele>
        <time>2022-08-29T10:57:07Z</time>
      </trkpt>
      <trkpt lat="42.3926680" lon="-3.3048430">
        <ele>915.2</ele>
        <time>2022-08-29T10:57:08Z</time>
      </trkpt>
      <trkpt lat="42.3926300" lon="-3.3048730">
        <ele>915.2</ele>
        <time>2022-08-29T10:57:09Z</time>
      </trkpt>
      <trkpt lat="42.3925950" lon="-3.3049050">
        <ele>915.6</ele>
        <time>2022-08-29T10:57:10Z</time>
      </trkpt>
      <trkpt lat="42.3925590" lon="-3.3049350">
        <ele>915.6</ele>
        <time>2022-08-29T10:57:11Z</time>
      </trkpt>
      <trkpt lat="42.3925230" lon="-3.3049630">
        <ele>915.6</ele>
        <time>2022-08-29T10:57:12Z</time>
      </trkpt>
      <trkpt lat="42.3924860" lon="-3.3049880">
        <ele>915.6</ele>
        <time>2022-08-29T10:57:13Z</time>
      </trkpt>
      <trkpt lat="42.3924530" lon="-3.3050150">
        <ele>915.6</ele>
        <time>2022-08-29T10:57:14Z</time>
      </trkpt>
      <trkpt lat="42.3924230" lon="-3.3050460">
        <ele>915.6</ele>
        <time>2022-08-29T10:57:15Z</time>
      </trkpt>
      <trkpt lat="42.3923920" lon="-3.3050740">
        <ele>915.6</ele>
        <time>2022-08-29T10:57:16Z</time>
      </trkpt>
      <trkpt lat="42.3923610" lon="-3.3050990">
        <ele>915.8</ele>
        <time>2022-08-29T10:57:17Z</time>
      </trkpt>
      <trkpt lat="42.3923310" lon="-3.3051220">
        <ele>915.8</ele>
        <time>2022-08-29T10:57:18Z</time>
      </trkpt>
      <trkpt lat="42.3923040" lon="-3.3051470">
        <ele>916.0</ele>
        <time>2022-08-29T10:57:19Z</time>
      </trkpt>
      <trkpt lat="42.3922770" lon="-3.3051720">
        <ele>916.0</ele>
        <time>2022-08-29T10:57:20Z</time>
      </trkpt>
      <trkpt lat="42.3922480" lon="-3.3051970">
        <ele>916.0</ele>
        <time>2022-08-29T10:57:21Z</time>
      </trkpt>
      <trkpt lat="42.3922190" lon="-3.3052300">
        <ele>916.2</ele>
        <time>2022-08-29T10:57:22Z</time>
      </trkpt>
      <trkpt lat="42.3921910" lon="-3.3052700">
        <ele>916.2</ele>
        <time>2022-08-29T10:57:23Z</time>
      </trkpt>
      <trkpt lat="42.3921620" lon="-3.3053130">
        <ele>916.4</ele>
        <time>2022-08-29T10:57:24Z</time>
      </trkpt>
      <trkpt lat="42.3921310" lon="-3.3053610">
        <ele>916.4</ele>
        <time>2022-08-29T10:57:25Z</time>
      </trkpt>
      <trkpt lat="42.3920970" lon="-3.3054100">
        <ele>916.4</ele>
        <time>2022-08-29T10:57:26Z</time>
      </trkpt>
      <trkpt lat="42.3920570" lon="-3.3054650">
        <ele>916.4</ele>
        <time>2022-08-29T10:57:27Z</time>
      </trkpt>
      <trkpt lat="42.3920120" lon="-3.3055320">
        <ele>916.2</ele>
        <time>2022-08-29T10:57:28Z</time>
      </trkpt>
      <trkpt lat="42.3919640" lon="-3.3056050">
        <ele>916.4</ele>
        <time>2022-08-29T10:57:29Z</time>
      </trkpt>
      <trkpt lat="42.3919110" lon="-3.3056770">
        <ele>916.4</ele>
        <time>2022-08-29T10:57:30Z</time>
      </trkpt>
      <trkpt lat="42.3918540" lon="-3.3057550">
        <ele>916.4</ele>
        <time>2022-08-29T10:57:31Z</time>
      </trkpt>
      <trkpt lat="42.3918000" lon="-3.3058360">
        <ele>916.4</ele>
        <time>2022-08-29T10:57:32Z</time>
      </trkpt>
      <trkpt lat="42.3917510" lon="-3.3059170">
        <ele>916.4</ele>
        <time>2022-08-29T10:57:33Z</time>
      </trkpt>
      <trkpt lat="42.3917010" lon="-3.3059980">
        <ele>916.4</ele>
        <time>2022-08-29T10:57:34Z</time>
      </trkpt>
      <trkpt lat="42.3916500" lon="-3.3060760">
        <ele>916.2</ele>
        <time>2022-08-29T10:57:35Z</time>
      </trkpt>
      <trkpt lat="42.3915990" lon="-3.3061480">
        <ele>915.0</ele>
        <time>2022-08-29T10:57:36Z</time>
      </trkpt>
      <trkpt lat="42.3915470" lon="-3.3062150">
        <ele>914.2</ele>
        <time>2022-08-29T10:57:37Z</time>
      </trkpt>
      <trkpt lat="42.3914950" lon="-3.3062830">
        <ele>913.0</ele>
        <time>2022-08-29T10:57:38Z</time>
      </trkpt>
      <trkpt lat="42.3914430" lon="-3.3063540">
        <ele>912.4</ele>
        <time>2022-08-29T10:57:39Z</time>
      </trkpt>
      <trkpt lat="42.3913970" lon="-3.3064200">
        <ele>911.4</ele>
        <time>2022-08-29T10:57:40Z</time>
      </trkpt>
      <trkpt lat="42.3913530" lon="-3.3064790">
        <ele>911.0</ele>
        <time>2022-08-29T10:57:41Z</time>
      </trkpt>
      <trkpt lat="42.3913080" lon="-3.3065180">
        <ele>910.6</ele>
        <time>2022-08-29T10:57:42Z</time>
      </trkpt>
      <trkpt lat="42.3912610" lon="-3.3065400">
        <ele>910.4</ele>
        <time>2022-08-29T10:57:43Z</time>
      </trkpt>
      <trkpt lat="42.3912150" lon="-3.3065640">
        <ele>910.4</ele>
        <time>2022-08-29T10:57:44Z</time>
      </trkpt>
      <trkpt lat="42.3911740" lon="-3.3065930">
        <ele>910.2</ele>
        <time>2022-08-29T10:57:45Z</time>
      </trkpt>
      <trkpt lat="42.3911340" lon="-3.3066260">
        <ele>910.2</ele>
        <time>2022-08-29T10:57:46Z</time>
      </trkpt>
      <trkpt lat="42.3911010" lon="-3.3066600">
        <ele>910.4</ele>
        <time>2022-08-29T10:57:47Z</time>
      </trkpt>
      <trkpt lat="42.3910700" lon="-3.3066990">
        <ele>910.4</ele>
        <time>2022-08-29T10:57:48Z</time>
      </trkpt>
      <trkpt lat="42.3910410" lon="-3.3067430">
        <ele>910.4</ele>
        <time>2022-08-29T10:57:49Z</time>
      </trkpt>
      <trkpt lat="42.3910170" lon="-3.3067860">
        <ele>910.6</ele>
        <time>2022-08-29T10:57:50Z</time>
      </trkpt>
      <trkpt lat="42.3909920" lon="-3.3068240">
        <ele>910.8</ele>
        <time>2022-08-29T10:57:51Z</time>
      </trkpt>
      <trkpt lat="42.3909660" lon="-3.3068640">
        <ele>911.0</ele>
        <time>2022-08-29T10:57:52Z</time>
      </trkpt>
      <trkpt lat="42.3909420" lon="-3.3069060">
        <ele>911.2</ele>
        <time>2022-08-29T10:57:53Z</time>
      </trkpt>
      <trkpt lat="42.3909220" lon="-3.3069510">
        <ele>911.2</ele>
        <time>2022-08-29T10:57:54Z</time>
      </trkpt>
      <trkpt lat="42.3909020" lon="-3.3069920">
        <ele>911.2</ele>
        <time>2022-08-29T10:57:55Z</time>
      </trkpt>
      <trkpt lat="42.3908830" lon="-3.3070240">
        <ele>911.4</ele>
        <time>2022-08-29T10:57:56Z</time>
      </trkpt>
      <trkpt lat="42.3908600" lon="-3.3070570">
        <ele>911.4</ele>
        <time>2022-08-29T10:57:57Z</time>
      </trkpt>
      <trkpt lat="42.3908420" lon="-3.3070900">
        <ele>911.6</ele>
        <time>2022-08-29T10:57:58Z</time>
      </trkpt>
      <trkpt lat="42.3908220" lon="-3.3071280">
        <ele>911.8</ele>
        <time>2022-08-29T10:57:59Z</time>
      </trkpt>
      <trkpt lat="42.3908010" lon="-3.3071630">
        <ele>912.0</ele>
        <time>2022-08-29T10:58:00Z</time>
      </trkpt>
      <trkpt lat="42.3907820" lon="-3.3071950">
        <ele>912.2</ele>
        <time>2022-08-29T10:58:01Z</time>
      </trkpt>
      <trkpt lat="42.3907630" lon="-3.3072240">
        <ele>912.2</ele>
        <time>2022-08-29T10:58:02Z</time>
      </trkpt>
      <trkpt lat="42.3907470" lon="-3.3072530">
        <ele>912.4</ele>
        <time>2022-08-29T10:58:03Z</time>
      </trkpt>
      <trkpt lat="42.3907290" lon="-3.3072850">
        <ele>912.6</ele>
        <time>2022-08-29T10:58:04Z</time>
      </trkpt>
      <trkpt lat="42.3907110" lon="-3.3073160">
        <ele>912.8</ele>
        <time>2022-08-29T10:58:05Z</time>
      </trkpt>
      <trkpt lat="42.3906960" lon="-3.3073520">
        <ele>912.8</ele>
        <time>2022-08-29T10:58:06Z</time>
      </trkpt>
      <trkpt lat="42.3906830" lon="-3.3073900">
        <ele>913.0</ele>
        <time>2022-08-29T10:58:07Z</time>
      </trkpt>
      <trkpt lat="42.3906720" lon="-3.3074250">
        <ele>913.2</ele>
        <time>2022-08-29T10:58:08Z</time>
      </trkpt>
      <trkpt lat="42.3906790" lon="-3.3074650">
        <ele>913.8</ele>
        <time>2022-08-29T10:58:09Z</time>
      </trkpt>
      <trkpt lat="42.3906890" lon="-3.3075090">
        <ele>913.8</ele>
        <time>2022-08-29T10:58:10Z</time>
      </trkpt>
      <trkpt lat="42.3906900" lon="-3.3075540">
        <ele>914.0</ele>
        <time>2022-08-29T10:58:11Z</time>
      </trkpt>
      <trkpt lat="42.3906790" lon="-3.3075920">
        <ele>914.2</ele>
        <time>2022-08-29T10:58:12Z</time>
      </trkpt>
      <trkpt lat="42.3906580" lon="-3.3076240">
        <ele>914.4</ele>
        <time>2022-08-29T10:58:13Z</time>
      </trkpt>
      <trkpt lat="42.3906350" lon="-3.3076510">
        <ele>914.4</ele>
        <time>2022-08-29T10:58:14Z</time>
      </trkpt>
      <trkpt lat="42.3906090" lon="-3.3076710">
        <ele>914.4</ele>
        <time>2022-08-29T10:58:15Z</time>
      </trkpt>
      <trkpt lat="42.3905780" lon="-3.3076910">
        <ele>914.6</ele>
        <time>2022-08-29T10:58:16Z</time>
      </trkpt>
      <trkpt lat="42.3905490" lon="-3.3077070">
        <ele>914.8</ele>
        <time>2022-08-29T10:58:17Z</time>
      </trkpt>
      <trkpt lat="42.3905220" lon="-3.3077230">
        <ele>915.2</ele>
        <time>2022-08-29T10:58:18Z</time>
      </trkpt>
      <trkpt lat="42.3904940" lon="-3.3077450">
        <ele>915.4</ele>
        <time>2022-08-29T10:58:19Z</time>
      </trkpt>
      <trkpt lat="42.3904720" lon="-3.3077700">
        <ele>915.4</ele>
        <time>2022-08-29T10:58:20Z</time>
      </trkpt>
      <trkpt lat="42.3904470" lon="-3.3078010">
        <ele>915.8</ele>
        <time>2022-08-29T10:58:21Z</time>
      </trkpt>
      <trkpt lat="42.3904250" lon="-3.3078310">
        <ele>916.0</ele>
        <time>2022-08-29T10:58:22Z</time>
      </trkpt>
      <trkpt lat="42.3904060" lon="-3.3078630">
        <ele>915.8</ele>
        <time>2022-08-29T10:58:23Z</time>
      </trkpt>
      <trkpt lat="42.3903940" lon="-3.3078990">
        <ele>916.0</ele>
        <time>2022-08-29T10:58:24Z</time>
      </trkpt>
      <trkpt lat="42.3903910" lon="-3.3079350">
        <ele>916.0</ele>
        <time>2022-08-29T10:58:25Z</time>
      </trkpt>
      <trkpt lat="42.3903940" lon="-3.3079680">
        <ele>916.0</ele>
        <time>2022-08-29T10:58:26Z</time>
      </trkpt>
      <trkpt lat="42.3903970" lon="-3.3080000">
        <ele>916.2</ele>
        <time>2022-08-29T10:58:27Z</time>
      </trkpt>
      <trkpt lat="42.3903990" lon="-3.3080320">
        <ele>916.4</ele>
        <time>2022-08-29T10:58:28Z</time>
      </trkpt>
      <trkpt lat="42.3904040" lon="-3.3080610">
        <ele>916.6</ele>
        <time>2022-08-29T10:58:29Z</time>
      </trkpt>
      <trkpt lat="42.3904090" lon="-3.3080780">
        <ele>917.0</ele>
        <time>2022-08-29T10:58:30Z</time>
      </trkpt>
      <trkpt lat="42.3904090" lon="-3.3080770">
        <ele>917.0</ele>
        <time>2022-08-29T10:58:31Z</time>
      </trkpt>
      <trkpt lat="42.3904080" lon="-3.3080770">
        <ele>917.2</ele>
        <time>2022-08-29T10:58:32Z</time>
      </trkpt>
      <trkpt lat="42.3904080" lon="-3.3080760">
        <ele>917.2</ele>
        <time>2022-08-29T10:58:33Z</time>
      </trkpt>
      <trkpt lat="42.3904080" lon="-3.3080750">
        <ele>917.4</ele>
        <time>2022-08-29T10:58:34Z</time>
      </trkpt>
      <trkpt lat="42.3904070" lon="-3.3080740">
        <ele>917.4</ele>
        <time>2022-08-29T10:58:35Z</time>
      </trkpt>
      <trkpt lat="42.3904070" lon="-3.3080740">
        <ele>917.6</ele>
        <time>2022-08-29T10:58:36Z</time>
      </trkpt>
      <trkpt lat="42.3904070" lon="-3.3080730">
        <ele>917.6</ele>
        <time>2022-08-29T10:58:37Z</time>
      </trkpt>
      <trkpt lat="42.3904060" lon="-3.3080720">
        <ele>917.8</ele>
        <time>2022-08-29T10:58:38Z</time>
      </trkpt>
      <trkpt lat="42.3904060" lon="-3.3080710">
        <ele>917.8</ele>
        <time>2022-08-29T10:58:39Z</time>
      </trkpt>
      <trkpt lat="42.3904050" lon="-3.3080710">
        <ele>917.8</ele>
        <time>2022-08-29T10:58:40Z</time>
      </trkpt>
      <trkpt lat="42.3904050" lon="-3.3080700">
        <ele>917.8</ele>
        <time>2022-08-29T10:58:41Z</time>
      </trkpt>
      <trkpt lat="42.3904050" lon="-3.3080690">
        <ele>918.0</ele>
        <time>2022-08-29T10:58:42Z</time>
      </trkpt>
      <trkpt lat="42.3904040" lon="-3.3080680">
        <ele>918.0</ele>
        <time>2022-08-29T10:58:43Z</time>
      </trkpt>
      <trkpt lat="42.3904040" lon="-3.3080670">
        <ele>918.0</ele>
        <time>2022-08-29T10:58:44Z</time>
      </trkpt>
      <trkpt lat="42.3904030" lon="-3.3080670">
        <ele>918.0</ele>
        <time>2022-08-29T10:58:45Z</time>
      </trkpt>
      <trkpt lat="42.3904030" lon="-3.3080660">
        <ele>918.2</ele>
        <time>2022-08-29T10:58:46Z</time>
      </trkpt>
      <trkpt lat="42.3904030" lon="-3.3080650">
        <ele>918.2</ele>
        <time>2022-08-29T10:58:47Z</time>
      </trkpt>
      <trkpt lat="42.3904020" lon="-3.3080640">
        <ele>918.4</ele>
        <time>2022-08-29T10:58:48Z</time>
      </trkpt>
      <trkpt lat="42.3904020" lon="-3.3080640">
        <ele>918.4</ele>
        <time>2022-08-29T10:58:49Z</time>
      </trkpt>
      <trkpt lat="42.3904020" lon="-3.3080630">
        <ele>918.2</ele>
        <time>2022-08-29T10:58:50Z</time>
      </trkpt>
      <trkpt lat="42.3904010" lon="-3.3080620">
        <ele>918.2</ele>
        <time>2022-08-29T10:58:51Z</time>
      </trkpt>
      <trkpt lat="42.3904010" lon="-3.3080610">
        <ele>918.2</ele>
        <time>2022-08-29T10:58:52Z</time>
      </trkpt>
      <trkpt lat="42.3904000" lon="-3.3080600">
        <ele>918.2</ele>
        <time>2022-08-29T10:58:53Z</time>
      </trkpt>
      <trkpt lat="42.3904000" lon="-3.3080600">
        <ele>918.4</ele>
        <time>2022-08-29T10:58:54Z</time>
      </trkpt>
      <trkpt lat="42.3904000" lon="-3.3080590">
        <ele>918.4</ele>
        <time>2022-08-29T10:58:55Z</time>
      </trkpt>
      <trkpt lat="42.3903990" lon="-3.3080580">
        <ele>918.4</ele>
        <time>2022-08-29T10:58:56Z</time>
      </trkpt>
      <trkpt lat="42.3903990" lon="-3.3080570">
        <ele>918.4</ele>
        <time>2022-08-29T10:58:57Z</time>
      </trkpt>
      <trkpt lat="42.3903980" lon="-3.3080570">
        <ele>918.6</ele>
        <time>2022-08-29T10:58:58Z</time>
      </trkpt>
      <trkpt lat="42.3903980" lon="-3.3080560">
        <ele>918.6</ele>
        <time>2022-08-29T10:58:59Z</time>
      </trkpt>
      <trkpt lat="42.3903980" lon="-3.3080550">
        <ele>918.4</ele>
        <time>2022-08-29T10:59:00Z</time>
      </trkpt>
      <trkpt lat="42.3903970" lon="-3.3080540">
        <ele>918.4</ele>
        <time>2022-08-29T10:59:01Z</time>
      </trkpt>
      <trkpt lat="42.3903970" lon="-3.3080540">
        <ele>918.4</ele>
        <time>2022-08-29T10:59:02Z</time>
      </trkpt>
      <trkpt lat="42.3903970" lon="-3.3080530">
        <ele>918.6</ele>
        <time>2022-08-29T10:59:03Z</time>
      </trkpt>
      <trkpt lat="42.3903960" lon="-3.3080520">
        <ele>918.4</ele>
        <time>2022-08-29T10:59:04Z</time>
      </trkpt>
      <trkpt lat="42.3903960" lon="-3.3080510">
        <ele>918.6</ele>
        <time>2022-08-29T10:59:05Z</time>
      </trkpt>
      <trkpt lat="42.3903950" lon="-3.3080500">
        <ele>918.6</ele>
        <time>2022-08-29T10:59:06Z</time>
      </trkpt>
      <trkpt lat="42.3903950" lon="-3.3080500">
        <ele>918.6</ele>
        <time>2022-08-29T10:59:07Z</time>
      </trkpt>
      <trkpt lat="42.3903950" lon="-3.3080490">
        <ele>918.6</ele>
        <time>2022-08-29T10:59:08Z</time>
      </trkpt>
      <trkpt lat="42.3903940" lon="-3.3080480">
        <ele>918.4</ele>
        <time>2022-08-29T10:59:09Z</time>
      </trkpt>
      <trkpt lat="42.3903940" lon="-3.3080470">
        <ele>918.4</ele>
        <time>2022-08-29T10:59:10Z</time>
      </trkpt>
      <trkpt lat="42.3903930" lon="-3.3080470">
        <ele>918.4</ele>
        <time>2022-08-29T10:59:11Z</time>
      </trkpt>
      <trkpt lat="42.3903930" lon="-3.3080460">
        <ele>918.4</ele>
        <time>2022-08-29T10:59:12Z</time>
      </trkpt>
      <trkpt lat="42.3903930" lon="-3.3080450">
        <ele>918.6</ele>
        <time>2022-08-29T10:59:13Z</time>
      </trkpt>
      <trkpt lat="42.3903920" lon="-3.3080440">
        <ele>918.4</ele>
        <time>2022-08-29T10:59:14Z</time>
      </trkpt>
      <trkpt lat="42.3903920" lon="-3.3080430">
        <ele>918.4</ele>
        <time>2022-08-29T10:59:15Z</time>
      </trkpt>
      <trkpt lat="42.3903910" lon="-3.3080430">
        <ele>918.6</ele>
        <time>2022-08-29T10:59:16Z</time>
      </trkpt>
      <trkpt lat="42.3903910" lon="-3.3080420">
        <ele>918.6</ele>
        <time>2022-08-29T10:59:17Z</time>
      </trkpt>
      <trkpt lat="42.3903910" lon="-3.3080410">
        <ele>918.6</ele>
        <time>2022-08-29T10:59:18Z</time>
      </trkpt>
      <trkpt lat="42.3903900" lon="-3.3080400">
        <ele>918.6</ele>
        <time>2022-08-29T10:59:19Z</time>
      </trkpt>
      <trkpt lat="42.3903900" lon="-3.3080400">
        <ele>918.6</ele>
        <time>2022-08-29T10:59:20Z</time>
      </trkpt>
      <trkpt lat="42.3903900" lon="-3.3080390">
        <ele>918.6</ele>
        <time>2022-08-29T10:59:21Z</time>
      </trkpt>
      <trkpt lat="42.3903890" lon="-3.3080380">
        <ele>918.6</ele>
        <time>2022-08-29T10:59:22Z</time>
      </trkpt>
      <trkpt lat="42.3903890" lon="-3.3080370">
        <ele>918.6</ele>
        <time>2022-08-29T10:59:23Z</time>
      </trkpt>
      <trkpt lat="42.3903880" lon="-3.3080370">
        <ele>918.6</ele>
        <time>2022-08-29T10:59:24Z</time>
      </trkpt>
      <trkpt lat="42.3903880" lon="-3.3080360">
        <ele>918.6</ele>
        <time>2022-08-29T10:59:25Z</time>
      </trkpt>
      <trkpt lat="42.3903880" lon="-3.3080350">
        <ele>918.6</ele>
        <time>2022-08-29T10:59:26Z</time>
      </trkpt>
      <trkpt lat="42.3903870" lon="-3.3080340">
        <ele>918.8</ele>
        <time>2022-08-29T10:59:27Z</time>
      </trkpt>
      <trkpt lat="42.3903870" lon="-3.3080330">
        <ele>918.6</ele>
        <time>2022-08-29T10:59:28Z</time>
      </trkpt>
      <trkpt lat="42.3903860" lon="-3.3080330">
        <ele>918.6</ele>
        <time>2022-08-29T10:59:29Z</time>
      </trkpt>
      <trkpt lat="42.3903860" lon="-3.3080320">
        <ele>918.6</ele>
        <time>2022-08-29T10:59:30Z</time>
      </trkpt>
      <trkpt lat="42.3903860" lon="-3.3080310">
        <ele>918.8</ele>
        <time>2022-08-29T10:59:31Z</time>
      </trkpt>
      <trkpt lat="42.3903850" lon="-3.3080300">
        <ele>918.8</ele>
        <time>2022-08-29T10:59:32Z</time>
      </trkpt>
      <trkpt lat="42.3903850" lon="-3.3080300">
        <ele>918.6</ele>
        <time>2022-08-29T10:59:33Z</time>
      </trkpt>
      <trkpt lat="42.3903850" lon="-3.3080290">
        <ele>918.6</ele>
        <time>2022-08-29T10:59:34Z</time>
      </trkpt>
      <trkpt lat="42.3903840" lon="-3.3080280">
        <ele>918.6</ele>
        <time>2022-08-29T10:59:35Z</time>
      </trkpt>
      <trkpt lat="42.3903840" lon="-3.3080270">
        <ele>918.6</ele>
        <time>2022-08-29T10:59:36Z</time>
      </trkpt>
      <trkpt lat="42.3903830" lon="-3.3080260">
        <ele>918.8</ele>
        <time>2022-08-29T10:59:37Z</time>
      </trkpt>
      <trkpt lat="42.3903830" lon="-3.3080260">
        <ele>918.6</ele>
        <time>2022-08-29T10:59:38Z</time>
      </trkpt>
      <trkpt lat="42.3903830" lon="-3.3080250">
        <ele>918.8</ele>
        <time>2022-08-29T10:59:39Z</time>
      </trkpt>
      <trkpt lat="42.3903820" lon="-3.3080240">
        <ele>918.6</ele>
        <time>2022-08-29T10:59:40Z</time>
      </trkpt>
      <trkpt lat="42.3903820" lon="-3.3080230">
        <ele>918.6</ele>
        <time>2022-08-29T10:59:41Z</time>
      </trkpt>
      <trkpt lat="42.3903810" lon="-3.3080230">
        <ele>918.8</ele>
        <time>2022-08-29T10:59:42Z</time>
      </trkpt>
      <trkpt lat="42.3903810" lon="-3.3080220">
        <ele>918.8</ele>
        <time>2022-08-29T10:59:43Z</time>
      </trkpt>
      <trkpt lat="42.3903810" lon="-3.3080210">
        <ele>918.6</ele>
        <time>2022-08-29T10:59:44Z</time>
      </trkpt>
      <trkpt lat="42.3903800" lon="-3.3080200">
        <ele>918.8</ele>
        <time>2022-08-29T10:59:45Z</time>
      </trkpt>
      <trkpt lat="42.3903800" lon="-3.3080190">
        <ele>918.8</ele>
        <time>2022-08-29T10:59:46Z</time>
      </trkpt>
      <trkpt lat="42.3903800" lon="-3.3080190">
        <ele>918.8</ele>
        <time>2022-08-29T10:59:47Z</time>
      </trkpt>
      <trkpt lat="42.3903790" lon="-3.3080180">
        <ele>918.8</ele>
        <time>2022-08-29T10:59:48Z</time>
      </trkpt>
      <trkpt lat="42.3903790" lon="-3.3080170">
        <ele>918.8</ele>
        <time>2022-08-29T10:59:49Z</time>
      </trkpt>
      <trkpt lat="42.3903780" lon="-3.3080160">
        <ele>918.8</ele>
        <time>2022-08-29T10:59:50Z</time>
      </trkpt>
      <trkpt lat="42.3903780" lon="-3.3080160">
        <ele>918.8</ele>
        <time>2022-08-29T10:59:51Z</time>
      </trkpt>
      <trkpt lat="42.3903780" lon="-3.3080150">
        <ele>918.8</ele>
        <time>2022-08-29T10:59:52Z</time>
      </trkpt>
      <trkpt lat="42.3903770" lon="-3.3080140">
        <ele>918.8</ele>
        <time>2022-08-29T10:59:53Z</time>
      </trkpt>
      <trkpt lat="42.3903770" lon="-3.3080130">
        <ele>918.8</ele>
        <time>2022-08-29T10:59:54Z</time>
      </trkpt>
      <trkpt lat="42.3903760" lon="-3.3080130">
        <ele>918.8</ele>
        <time>2022-08-29T10:59:55Z</time>
      </trkpt>
      <trkpt lat="42.3903760" lon="-3.3080120">
        <ele>918.8</ele>
        <time>2022-08-29T10:59:56Z</time>
      </trkpt>
      <trkpt lat="42.3903760" lon="-3.3080110">
        <ele>918.8</ele>
        <time>2022-08-29T10:59:57Z</time>
      </trkpt>
      <trkpt lat="42.3903750" lon="-3.3080100">
        <ele>919.0</ele>
        <time>2022-08-29T10:59:58Z</time>
      </trkpt>
      <trkpt lat="42.3903750" lon="-3.3080090">
        <ele>918.8</ele>
        <time>2022-08-29T10:59:59Z</time>
      </trkpt>
      <trkpt lat="42.3903750" lon="-3.3080090">
        <ele>918.8</ele>
        <time>2022-08-29T11:00:00Z</time>
      </trkpt>
      <trkpt lat="42.3903740" lon="-3.3080080">
        <ele>918.8</ele>
        <time>2022-08-29T11:00:01Z</time>
      </trkpt>
      <trkpt lat="42.3903740" lon="-3.3080070">
        <ele>918.8</ele>
        <time>2022-08-29T11:00:02Z</time>
      </trkpt>
      <trkpt lat="42.3903730" lon="-3.3080060">
        <ele>918.8</ele>
        <time>2022-08-29T11:00:03Z</time>
      </trkpt>
      <trkpt lat="42.3903730" lon="-3.3080060">
        <ele>918.8</ele>
        <time>2022-08-29T11:00:04Z</time>
      </trkpt>
      <trkpt lat="42.3903730" lon="-3.3080050">
        <ele>919.0</ele>
        <time>2022-08-29T11:00:05Z</time>
      </trkpt>
      <trkpt lat="42.3903720" lon="-3.3080040">
        <ele>918.8</ele>
        <time>2022-08-29T11:00:06Z</time>
      </trkpt>
      <trkpt lat="42.3903720" lon="-3.3080030">
        <ele>918.8</ele>
        <time>2022-08-29T11:00:07Z</time>
      </trkpt>
      <trkpt lat="42.3903710" lon="-3.3080020">
        <ele>919.0</ele>
        <time>2022-08-29T11:00:08Z</time>
      </trkpt>
      <trkpt lat="42.3903710" lon="-3.3080020">
        <ele>919.0</ele>
        <time>2022-08-29T11:00:09Z</time>
      </trkpt>
      <trkpt lat="42.3903710" lon="-3.3080010">
        <ele>919.0</ele>
        <time>2022-08-29T11:00:10Z</time>
      </trkpt>
      <trkpt lat="42.3903700" lon="-3.3080000">
        <ele>919.0</ele>
        <time>2022-08-29T11:00:11Z</time>
      </trkpt>
      <trkpt lat="42.3903700" lon="-3.3079990">
        <ele>919.0</ele>
        <time>2022-08-29T11:00:12Z</time>
      </trkpt>
      <trkpt lat="42.3903690" lon="-3.3079990">
        <ele>919.0</ele>
        <time>2022-08-29T11:00:13Z</time>
      </trkpt>
      <trkpt lat="42.3903690" lon="-3.3079980">
        <ele>918.8</ele>
        <time>2022-08-29T11:00:14Z</time>
      </trkpt>
      <trkpt lat="42.3903690" lon="-3.3079970">
        <ele>919.0</ele>
        <time>2022-08-29T11:00:15Z</time>
      </trkpt>
      <trkpt lat="42.3903680" lon="-3.3079960">
        <ele>919.0</ele>
        <time>2022-08-29T11:00:16Z</time>
      </trkpt>
      <trkpt lat="42.3903680" lon="-3.3079960">
        <ele>919.0</ele>
        <time>2022-08-29T11:00:17Z</time>
      </trkpt>
      <trkpt lat="42.3903440" lon="-3.3079870">
        <ele>919.0</ele>
        <time>2022-08-29T11:00:18Z</time>
      </trkpt>
      <trkpt lat="42.3903180" lon="-3.3079810">
        <ele>919.0</ele>
        <time>2022-08-29T11:00:19Z</time>
      </trkpt>
      <trkpt lat="42.3902890" lon="-3.3079740">
        <ele>919.0</ele>
        <time>2022-08-29T11:00:20Z</time>
      </trkpt>
      <trkpt lat="42.3902890" lon="-3.3079740">
        <ele>919.0</ele>
        <time>2022-08-29T11:00:21Z</time>
      </trkpt>
      <trkpt lat="42.3902600" lon="-3.3079710">
        <ele>918.8</ele>
        <time>2022-08-29T11:00:22Z</time>
      </trkpt>
      <trkpt lat="42.3902060" lon="-3.3079920">
        <ele>919.0</ele>
        <time>2022-08-29T11:00:23Z</time>
      </trkpt>
      <trkpt lat="42.3901800" lon="-3.3080110">
        <ele>918.8</ele>
        <time>2022-08-29T11:00:24Z</time>
      </trkpt>
      <trkpt lat="42.3901570" lon="-3.3080320">
        <ele>918.8</ele>
        <time>2022-08-29T11:00:25Z</time>
      </trkpt>
      <trkpt lat="42.3901350" lon="-3.3080520">
        <ele>918.8</ele>
        <time>2022-08-29T11:00:26Z</time>
      </trkpt>
      <trkpt lat="42.3901130" lon="-3.3080710">
        <ele>918.8</ele>
        <time>2022-08-29T11:00:27Z</time>
      </trkpt>
      <trkpt lat="42.3900870" lon="-3.3080930">
        <ele>918.8</ele>
        <time>2022-08-29T11:00:28Z</time>
      </trkpt>
      <trkpt lat="42.3900600" lon="-3.3081130">
        <ele>918.6</ele>
        <time>2022-08-29T11:00:29Z</time>
      </trkpt>
      <trkpt lat="42.3900600" lon="-3.3081130">
        <ele>918.8</ele>
        <time>2022-08-29T11:00:30Z</time>
      </trkpt>
      <trkpt lat="42.3900320" lon="-3.3081290">
        <ele>918.6</ele>
        <time>2022-08-29T11:00:31Z</time>
      </trkpt>
      <trkpt lat="42.3900030" lon="-3.3081440">
        <ele>918.8</ele>
        <time>2022-08-29T11:00:32Z</time>
      </trkpt>
      <trkpt lat="42.3899490" lon="-3.3081800">
        <ele>918.8</ele>
        <time>2022-08-29T11:00:33Z</time>
      </trkpt>
      <trkpt lat="42.3899210" lon="-3.3081960">
        <ele>918.8</ele>
        <time>2022-08-29T11:00:34Z</time>
      </trkpt>
      <trkpt lat="42.3898940" lon="-3.3082110">
        <ele>918.8</ele>
        <time>2022-08-29T11:00:35Z</time>
      </trkpt>
      <trkpt lat="42.3898650" lon="-3.3082300">
        <ele>918.8</ele>
        <time>2022-08-29T11:00:36Z</time>
      </trkpt>
      <trkpt lat="42.3898370" lon="-3.3082460">
        <ele>918.8</ele>
        <time>2022-08-29T11:00:37Z</time>
      </trkpt>
      <trkpt lat="42.3898110" lon="-3.3082620">
        <ele>919.0</ele>
        <time>2022-08-29T11:00:38Z</time>
      </trkpt>
      <trkpt lat="42.3897840" lon="-3.3082790">
        <ele>919.2</ele>
        <time>2022-08-29T11:00:39Z</time>
      </trkpt>
      <trkpt lat="42.3897570" lon="-3.3083030">
        <ele>919.4</ele>
        <time>2022-08-29T11:00:40Z</time>
      </trkpt>
      <trkpt lat="42.3897310" lon="-3.3083260">
        <ele>919.4</ele>
        <time>2022-08-29T11:00:41Z</time>
      </trkpt>
      <trkpt lat="42.3897050" lon="-3.3083470">
        <ele>919.6</ele>
        <time>2022-08-29T11:00:42Z</time>
      </trkpt>
      <trkpt lat="42.3896820" lon="-3.3083680">
        <ele>919.6</ele>
        <time>2022-08-29T11:00:43Z</time>
      </trkpt>
      <trkpt lat="42.3896580" lon="-3.3083890">
        <ele>919.6</ele>
        <time>2022-08-29T11:00:44Z</time>
      </trkpt>
      <trkpt lat="42.3896340" lon="-3.3084090">
        <ele>919.8</ele>
        <time>2022-08-29T11:00:45Z</time>
      </trkpt>
      <trkpt lat="42.3896090" lon="-3.3084290">
        <ele>920.0</ele>
        <time>2022-08-29T11:00:46Z</time>
      </trkpt>
      <trkpt lat="42.3896090" lon="-3.3084290">
        <ele>920.2</ele>
        <time>2022-08-29T11:00:47Z</time>
      </trkpt>
      <trkpt lat="42.3895840" lon="-3.3084480">
        <ele>920.2</ele>
        <time>2022-08-29T11:00:48Z</time>
      </trkpt>
      <trkpt lat="42.3895590" lon="-3.3084660">
        <ele>920.4</ele>
        <time>2022-08-29T11:00:49Z</time>
      </trkpt>
      <trkpt lat="42.3895350" lon="-3.3084820">
        <ele>920.4</ele>
        <time>2022-08-29T11:00:50Z</time>
      </trkpt>
      <trkpt lat="42.3895120" lon="-3.3084980">
        <ele>920.4</ele>
        <time>2022-08-29T11:00:51Z</time>
      </trkpt>
      <trkpt lat="42.3894900" lon="-3.3085140">
        <ele>920.4</ele>
        <time>2022-08-29T11:00:52Z</time>
      </trkpt>
      <trkpt lat="42.3894670" lon="-3.3085310">
        <ele>920.6</ele>
        <time>2022-08-29T11:00:53Z</time>
      </trkpt>
      <trkpt lat="42.3894450" lon="-3.3085450">
        <ele>920.6</ele>
        <time>2022-08-29T11:00:54Z</time>
      </trkpt>
      <trkpt lat="42.3894010" lon="-3.3085700">
        <ele>920.6</ele>
        <time>2022-08-29T11:00:55Z</time>
      </trkpt>
      <trkpt lat="42.3893800" lon="-3.3085820">
        <ele>920.8</ele>
        <time>2022-08-29T11:00:56Z</time>
      </trkpt>
      <trkpt lat="42.3893600" lon="-3.3085950">
        <ele>920.8</ele>
        <time>2022-08-29T11:00:57Z</time>
      </trkpt>
      <trkpt lat="42.3893380" lon="-3.3086070">
        <ele>921.0</ele>
        <time>2022-08-29T11:00:58Z</time>
      </trkpt>
      <trkpt lat="42.3893140" lon="-3.3086160">
        <ele>921.4</ele>
        <time>2022-08-29T11:00:59Z</time>
      </trkpt>
      <trkpt lat="42.3892920" lon="-3.3086240">
        <ele>921.6</ele>
        <time>2022-08-29T11:01:00Z</time>
      </trkpt>
      <trkpt lat="42.3892920" lon="-3.3086240">
        <ele>921.6</ele>
        <time>2022-08-29T11:01:01Z</time>
      </trkpt>
      <trkpt lat="42.3892680" lon="-3.3086320">
        <ele>922.0</ele>
        <time>2022-08-29T11:01:02Z</time>
      </trkpt>
      <trkpt lat="42.3892420" lon="-3.3086390">
        <ele>922.0</ele>
        <time>2022-08-29T11:01:03Z</time>
      </trkpt>
      <trkpt lat="42.3892180" lon="-3.3086450">
        <ele>922.4</ele>
        <time>2022-08-29T11:01:04Z</time>
      </trkpt>
      <trkpt lat="42.3891950" lon="-3.3086520">
        <ele>922.4</ele>
        <time>2022-08-29T11:01:05Z</time>
      </trkpt>
      <trkpt lat="42.3891720" lon="-3.3086600">
        <ele>922.6</ele>
        <time>2022-08-29T11:01:06Z</time>
      </trkpt>
      <trkpt lat="42.3891490" lon="-3.3086730">
        <ele>922.6</ele>
        <time>2022-08-29T11:01:07Z</time>
      </trkpt>
      <trkpt lat="42.3891290" lon="-3.3086880">
        <ele>922.8</ele>
        <time>2022-08-29T11:01:08Z</time>
      </trkpt>
      <trkpt lat="42.3891120" lon="-3.3087040">
        <ele>922.8</ele>
        <time>2022-08-29T11:01:09Z</time>
      </trkpt>
      <trkpt lat="42.3890950" lon="-3.3087190">
        <ele>923.2</ele>
        <time>2022-08-29T11:01:10Z</time>
      </trkpt>
      <trkpt lat="42.3890820" lon="-3.3087310">
        <ele>923.0</ele>
        <time>2022-08-29T11:01:11Z</time>
      </trkpt>
      <trkpt lat="42.3890700" lon="-3.3087490">
        <ele>923.0</ele>
        <time>2022-08-29T11:01:12Z</time>
      </trkpt>
      <trkpt lat="42.3890500" lon="-3.3087880">
        <ele>923.0</ele>
        <time>2022-08-29T11:01:13Z</time>
      </trkpt>
      <trkpt lat="42.3890430" lon="-3.3088060">
        <ele>923.2</ele>
        <time>2022-08-29T11:01:14Z</time>
      </trkpt>
      <trkpt lat="42.3890350" lon="-3.3088260">
        <ele>923.2</ele>
        <time>2022-08-29T11:01:15Z</time>
      </trkpt>
      <trkpt lat="42.3890260" lon="-3.3088440">
        <ele>923.4</ele>
        <time>2022-08-29T11:01:16Z</time>
      </trkpt>
      <trkpt lat="42.3890160" lon="-3.3088620">
        <ele>923.4</ele>
        <time>2022-08-29T11:01:17Z</time>
      </trkpt>
      <trkpt lat="42.3890060" lon="-3.3088800">
        <ele>923.6</ele>
        <time>2022-08-29T11:01:18Z</time>
      </trkpt>
      <trkpt lat="42.3889960" lon="-3.3088980">
        <ele>924.0</ele>
        <time>2022-08-29T11:01:19Z</time>
      </trkpt>
      <trkpt lat="42.3889860" lon="-3.3089170">
        <ele>924.0</ele>
        <time>2022-08-29T11:01:20Z</time>
      </trkpt>
      <trkpt lat="42.3889760" lon="-3.3089380">
        <ele>924.2</ele>
        <time>2022-08-29T11:01:21Z</time>
      </trkpt>
      <trkpt lat="42.3889670" lon="-3.3089570">
        <ele>924.4</ele>
        <time>2022-08-29T11:01:22Z</time>
      </trkpt>
      <trkpt lat="42.3889550" lon="-3.3089760">
        <ele>924.6</ele>
        <time>2022-08-29T11:01:23Z</time>
      </trkpt>
      <trkpt lat="42.3889470" lon="-3.3089960">
        <ele>925.0</ele>
        <time>2022-08-29T11:01:24Z</time>
      </trkpt>
      <trkpt lat="42.3889370" lon="-3.3090160">
        <ele>925.2</ele>
        <time>2022-08-29T11:01:25Z</time>
      </trkpt>
      <trkpt lat="42.3889280" lon="-3.3090350">
        <ele>925.4</ele>
        <time>2022-08-29T11:01:26Z</time>
      </trkpt>
      <trkpt lat="42.3889190" lon="-3.3090530">
        <ele>925.6</ele>
        <time>2022-08-29T11:01:27Z</time>
      </trkpt>
      <trkpt lat="42.3889100" lon="-3.3090700">
        <ele>925.6</ele>
        <time>2022-08-29T11:01:28Z</time>
      </trkpt>
      <trkpt lat="42.3889000" lon="-3.3090880">
        <ele>925.6</ele>
        <time>2022-08-29T11:01:29Z</time>
      </trkpt>
      <trkpt lat="42.3888910" lon="-3.3091070">
        <ele>925.8</ele>
        <time>2022-08-29T11:01:30Z</time>
      </trkpt>
      <trkpt lat="42.3888810" lon="-3.3091250">
        <ele>926.2</ele>
        <time>2022-08-29T11:01:31Z</time>
      </trkpt>
      <trkpt lat="42.3888720" lon="-3.3091430">
        <ele>926.2</ele>
        <time>2022-08-29T11:01:32Z</time>
      </trkpt>
      <trkpt lat="42.3888660" lon="-3.3091620">
        <ele>926.6</ele>
        <time>2022-08-29T11:01:33Z</time>
      </trkpt>
      <trkpt lat="42.3888580" lon="-3.3091800">
        <ele>926.8</ele>
        <time>2022-08-29T11:01:34Z</time>
      </trkpt>
      <trkpt lat="42.3888520" lon="-3.3091970">
        <ele>927.0</ele>
        <time>2022-08-29T11:01:35Z</time>
      </trkpt>
      <trkpt lat="42.3888420" lon="-3.3092150">
        <ele>927.0</ele>
        <time>2022-08-29T11:01:36Z</time>
      </trkpt>
      <trkpt lat="42.3888340" lon="-3.3092310">
        <ele>927.4</ele>
        <time>2022-08-29T11:01:37Z</time>
      </trkpt>
      <trkpt lat="42.3888230" lon="-3.3092470">
        <ele>927.6</ele>
        <time>2022-08-29T11:01:38Z</time>
      </trkpt>
      <trkpt lat="42.3888110" lon="-3.3092610">
        <ele>927.8</ele>
        <time>2022-08-29T11:01:39Z</time>
      </trkpt>
      <trkpt lat="42.3888040" lon="-3.3092720">
        <ele>928.0</ele>
        <time>2022-08-29T11:01:40Z</time>
      </trkpt>
      <trkpt lat="42.3887950" lon="-3.3092800">
        <ele>928.2</ele>
        <time>2022-08-29T11:01:41Z</time>
      </trkpt>
      <trkpt lat="42.3887810" lon="-3.3092880">
        <ele>928.2</ele>
        <time>2022-08-29T11:01:42Z</time>
      </trkpt>
      <trkpt lat="42.3887670" lon="-3.3092960">
        <ele>928.2</ele>
        <time>2022-08-29T11:01:43Z</time>
      </trkpt>
      <trkpt lat="42.3887530" lon="-3.3093020">
        <ele>928.4</ele>
        <time>2022-08-29T11:01:44Z</time>
      </trkpt>
      <trkpt lat="42.3887370" lon="-3.3093080">
        <ele>928.6</ele>
        <time>2022-08-29T11:01:45Z</time>
      </trkpt>
      <trkpt lat="42.3887240" lon="-3.3093140">
        <ele>929.0</ele>
        <time>2022-08-29T11:01:46Z</time>
      </trkpt>
      <trkpt lat="42.3887130" lon="-3.3093230">
        <ele>929.0</ele>
        <time>2022-08-29T11:01:47Z</time>
      </trkpt>
      <trkpt lat="42.3887130" lon="-3.3093230">
        <ele>929.2</ele>
        <time>2022-08-29T11:01:48Z</time>
      </trkpt>
      <trkpt lat="42.3887010" lon="-3.3093310">
        <ele>929.2</ele>
        <time>2022-08-29T11:01:49Z</time>
      </trkpt>
      <trkpt lat="42.3886910" lon="-3.3093400">
        <ele>929.2</ele>
        <time>2022-08-29T11:01:50Z</time>
      </trkpt>
      <trkpt lat="42.3886660" lon="-3.3093570">
        <ele>929.4</ele>
        <time>2022-08-29T11:01:51Z</time>
      </trkpt>
      <trkpt lat="42.3886530" lon="-3.3093680">
        <ele>929.6</ele>
        <time>2022-08-29T11:01:52Z</time>
      </trkpt>
      <trkpt lat="42.3886400" lon="-3.3093820">
        <ele>929.8</ele>
        <time>2022-08-29T11:01:53Z</time>
      </trkpt>
      <trkpt lat="42.3886250" lon="-3.3093940">
        <ele>929.8</ele>
        <time>2022-08-29T11:01:54Z</time>
      </trkpt>
      <trkpt lat="42.3886250" lon="-3.3093940">
        <ele>930.0</ele>
        <time>2022-08-29T11:01:55Z</time>
      </trkpt>
      <trkpt lat="42.3886120" lon="-3.3094030">
        <ele>930.2</ele>
        <time>2022-08-29T11:01:56Z</time>
      </trkpt>
      <trkpt lat="42.3885870" lon="-3.3094180">
        <ele>930.4</ele>
        <time>2022-08-29T11:01:57Z</time>
      </trkpt>
      <trkpt lat="42.3885870" lon="-3.3094180">
        <ele>930.4</ele>
        <time>2022-08-29T11:01:58Z</time>
      </trkpt>
      <trkpt lat="42.3885630" lon="-3.3094380">
        <ele>930.8</ele>
        <time>2022-08-29T11:01:59Z</time>
      </trkpt>
      <trkpt lat="42.3885520" lon="-3.3094450">
        <ele>931.0</ele>
        <time>2022-08-29T11:02:00Z</time>
      </trkpt>
      <trkpt lat="42.3885400" lon="-3.3094500">
        <ele>931.2</ele>
        <time>2022-08-29T11:02:01Z</time>
      </trkpt>
      <trkpt lat="42.3885300" lon="-3.3094570">
        <ele>931.4</ele>
        <time>2022-08-29T11:02:02Z</time>
      </trkpt>
      <trkpt lat="42.3885190" lon="-3.3094630">
        <ele>931.6</ele>
        <time>2022-08-29T11:02:03Z</time>
      </trkpt>
      <trkpt lat="42.3885040" lon="-3.3094710">
        <ele>931.6</ele>
        <time>2022-08-29T11:02:04Z</time>
      </trkpt>
      <trkpt lat="42.3884920" lon="-3.3094800">
        <ele>932.0</ele>
        <time>2022-08-29T11:02:05Z</time>
      </trkpt>
      <trkpt lat="42.3884790" lon="-3.3094890">
        <ele>932.2</ele>
        <time>2022-08-29T11:02:06Z</time>
      </trkpt>
      <trkpt lat="42.3884670" lon="-3.3094970">
        <ele>932.6</ele>
        <time>2022-08-29T11:02:07Z</time>
      </trkpt>
      <trkpt lat="42.3884540" lon="-3.3095060">
        <ele>932.8</ele>
        <time>2022-08-29T11:02:08Z</time>
      </trkpt>
      <trkpt lat="42.3884400" lon="-3.3095120">
        <ele>933.2</ele>
        <time>2022-08-29T11:02:09Z</time>
      </trkpt>
      <trkpt lat="42.3884280" lon="-3.3095200">
        <ele>933.2</ele>
        <time>2022-08-29T11:02:10Z</time>
      </trkpt>
      <trkpt lat="42.3884160" lon="-3.3095290">
        <ele>933.4</ele>
        <time>2022-08-29T11:02:11Z</time>
      </trkpt>
      <trkpt lat="42.3884060" lon="-3.3095370">
        <ele>933.6</ele>
        <time>2022-08-29T11:02:12Z</time>
      </trkpt>
      <trkpt lat="42.3883940" lon="-3.3095450">
        <ele>933.8</ele>
        <time>2022-08-29T11:02:13Z</time>
      </trkpt>
      <trkpt lat="42.3883810" lon="-3.3095530">
        <ele>934.0</ele>
        <time>2022-08-29T11:02:14Z</time>
      </trkpt>
      <trkpt lat="42.3883690" lon="-3.3095620">
        <ele>934.0</ele>
        <time>2022-08-29T11:02:15Z</time>
      </trkpt>
      <trkpt lat="42.3883580" lon="-3.3095730">
        <ele>934.2</ele>
        <time>2022-08-29T11:02:16Z</time>
      </trkpt>
      <trkpt lat="42.3883480" lon="-3.3095820">
        <ele>934.2</ele>
        <time>2022-08-29T11:02:17Z</time>
      </trkpt>
      <trkpt lat="42.3883360" lon="-3.3095900">
        <ele>934.8</ele>
        <time>2022-08-29T11:02:18Z</time>
      </trkpt>
      <trkpt lat="42.3883260" lon="-3.3095990">
        <ele>935.0</ele>
        <time>2022-08-29T11:02:19Z</time>
      </trkpt>
      <trkpt lat="42.3883170" lon="-3.3096050">
        <ele>935.2</ele>
        <time>2022-08-29T11:02:20Z</time>
      </trkpt>
      <trkpt lat="42.3883060" lon="-3.3096130">
        <ele>935.4</ele>
        <time>2022-08-29T11:02:21Z</time>
      </trkpt>
      <trkpt lat="42.3882970" lon="-3.3096220">
        <ele>935.8</ele>
        <time>2022-08-29T11:02:22Z</time>
      </trkpt>
      <trkpt lat="42.3882870" lon="-3.3096320">
        <ele>936.0</ele>
        <time>2022-08-29T11:02:23Z</time>
      </trkpt>
      <trkpt lat="42.3882750" lon="-3.3096370">
        <ele>936.2</ele>
        <time>2022-08-29T11:02:24Z</time>
      </trkpt>
      <trkpt lat="42.3882660" lon="-3.3096490">
        <ele>936.4</ele>
        <time>2022-08-29T11:02:25Z</time>
      </trkpt>
      <trkpt lat="42.3882590" lon="-3.3096630">
        <ele>936.8</ele>
        <time>2022-08-29T11:02:26Z</time>
      </trkpt>
      <trkpt lat="42.3882510" lon="-3.3096790">
        <ele>936.8</ele>
        <time>2022-08-29T11:02:27Z</time>
      </trkpt>
      <trkpt lat="42.3882440" lon="-3.3096920">
        <ele>937.0</ele>
        <time>2022-08-29T11:02:28Z</time>
      </trkpt>
      <trkpt lat="42.3882360" lon="-3.3097050">
        <ele>937.4</ele>
        <time>2022-08-29T11:02:29Z</time>
      </trkpt>
      <trkpt lat="42.3882270" lon="-3.3097180">
        <ele>937.6</ele>
        <time>2022-08-29T11:02:30Z</time>
      </trkpt>
      <trkpt lat="42.3882170" lon="-3.3097310">
        <ele>937.8</ele>
        <time>2022-08-29T11:02:31Z</time>
      </trkpt>
      <trkpt lat="42.3882080" lon="-3.3097420">
        <ele>938.0</ele>
        <time>2022-08-29T11:02:32Z</time>
      </trkpt>
      <trkpt lat="42.3882080" lon="-3.3097420">
        <ele>938.0</ele>
        <time>2022-08-29T11:02:33Z</time>
      </trkpt>
      <trkpt lat="42.3881970" lon="-3.3097530">
        <ele>938.4</ele>
        <time>2022-08-29T11:02:34Z</time>
      </trkpt>
      <trkpt lat="42.3881860" lon="-3.3097620">
        <ele>938.6</ele>
        <time>2022-08-29T11:02:35Z</time>
      </trkpt>
      <trkpt lat="42.3881760" lon="-3.3097710">
        <ele>938.6</ele>
        <time>2022-08-29T11:02:36Z</time>
      </trkpt>
      <trkpt lat="42.3881560" lon="-3.3097890">
        <ele>938.8</ele>
        <time>2022-08-29T11:02:37Z</time>
      </trkpt>
      <trkpt lat="42.3881470" lon="-3.3098010">
        <ele>939.0</ele>
        <time>2022-08-29T11:02:38Z</time>
      </trkpt>
      <trkpt lat="42.3881390" lon="-3.3098120">
        <ele>939.2</ele>
        <time>2022-08-29T11:02:39Z</time>
      </trkpt>
      <trkpt lat="42.3881310" lon="-3.3098240">
        <ele>939.6</ele>
        <time>2022-08-29T11:02:40Z</time>
      </trkpt>
      <trkpt lat="42.3881310" lon="-3.3098240">
        <ele>939.6</ele>
        <time>2022-08-29T11:02:41Z</time>
      </trkpt>
      <trkpt lat="42.3881270" lon="-3.3098380">
        <ele>939.8</ele>
        <time>2022-08-29T11:02:42Z</time>
      </trkpt>
      <trkpt lat="42.3881200" lon="-3.3098770">
        <ele>940.0</ele>
        <time>2022-08-29T11:02:43Z</time>
      </trkpt>
      <trkpt lat="42.3881190" lon="-3.3098970">
        <ele>940.2</ele>
        <time>2022-08-29T11:02:44Z</time>
      </trkpt>
      <trkpt lat="42.3881230" lon="-3.3099140">
        <ele>940.6</ele>
        <time>2022-08-29T11:02:45Z</time>
      </trkpt>
      <trkpt lat="42.3881300" lon="-3.3099310">
        <ele>940.6</ele>
        <time>2022-08-29T11:02:46Z</time>
      </trkpt>
      <trkpt lat="42.3881370" lon="-3.3099480">
        <ele>940.8</ele>
        <time>2022-08-29T11:02:47Z</time>
      </trkpt>
      <trkpt lat="42.3881410" lon="-3.3099660">
        <ele>941.2</ele>
        <time>2022-08-29T11:02:48Z</time>
      </trkpt>
      <trkpt lat="42.3881460" lon="-3.3099830">
        <ele>941.4</ele>
        <time>2022-08-29T11:02:49Z</time>
      </trkpt>
      <trkpt lat="42.3881500" lon="-3.3100010">
        <ele>941.4</ele>
        <time>2022-08-29T11:02:50Z</time>
      </trkpt>
      <trkpt lat="42.3881550" lon="-3.3100180">
        <ele>941.6</ele>
        <time>2022-08-29T11:02:51Z</time>
      </trkpt>
      <trkpt lat="42.3881590" lon="-3.3100330">
        <ele>942.0</ele>
        <time>2022-08-29T11:02:52Z</time>
      </trkpt>
      <trkpt lat="42.3881650" lon="-3.3100480">
        <ele>942.0</ele>
        <time>2022-08-29T11:02:53Z</time>
      </trkpt>
      <trkpt lat="42.3881710" lon="-3.3100630">
        <ele>942.4</ele>
        <time>2022-08-29T11:02:54Z</time>
      </trkpt>
      <trkpt lat="42.3881770" lon="-3.3100790">
        <ele>942.4</ele>
        <time>2022-08-29T11:02:55Z</time>
      </trkpt>
      <trkpt lat="42.3881850" lon="-3.3100910">
        <ele>942.6</ele>
        <time>2022-08-29T11:02:56Z</time>
      </trkpt>
      <trkpt lat="42.3881930" lon="-3.3101030">
        <ele>943.0</ele>
        <time>2022-08-29T11:02:57Z</time>
      </trkpt>
      <trkpt lat="42.3882000" lon="-3.3101150">
        <ele>943.2</ele>
        <time>2022-08-29T11:02:58Z</time>
      </trkpt>
      <trkpt lat="42.3882050" lon="-3.3101300">
        <ele>943.4</ele>
        <time>2022-08-29T11:02:59Z</time>
      </trkpt>
      <trkpt lat="42.3882130" lon="-3.3101460">
        <ele>943.6</ele>
        <time>2022-08-29T11:03:00Z</time>
      </trkpt>
      <trkpt lat="42.3882220" lon="-3.3101590">
        <ele>943.8</ele>
        <time>2022-08-29T11:03:01Z</time>
      </trkpt>
      <trkpt lat="42.3882310" lon="-3.3101730">
        <ele>944.2</ele>
        <time>2022-08-29T11:03:02Z</time>
      </trkpt>
      <trkpt lat="42.3882410" lon="-3.3101850">
        <ele>944.4</ele>
        <time>2022-08-29T11:03:03Z</time>
      </trkpt>
      <trkpt lat="42.3882500" lon="-3.3101990">
        <ele>944.6</ele>
        <time>2022-08-29T11:03:04Z</time>
      </trkpt>
      <trkpt lat="42.3882500" lon="-3.3101990">
        <ele>945.0</ele>
        <time>2022-08-29T11:03:05Z</time>
      </trkpt>
      <trkpt lat="42.3882610" lon="-3.3102130">
        <ele>945.0</ele>
        <time>2022-08-29T11:03:06Z</time>
      </trkpt>
      <trkpt lat="42.3882710" lon="-3.3102280">
        <ele>945.2</ele>
        <time>2022-08-29T11:03:07Z</time>
      </trkpt>
      <trkpt lat="42.3882920" lon="-3.3102530">
        <ele>945.2</ele>
        <time>2022-08-29T11:03:08Z</time>
      </trkpt>
      <trkpt lat="42.3883000" lon="-3.3102690">
        <ele>945.6</ele>
        <time>2022-08-29T11:03:09Z</time>
      </trkpt>
      <trkpt lat="42.3883000" lon="-3.3102690">
        <ele>945.8</ele>
        <time>2022-08-29T11:03:10Z</time>
      </trkpt>
      <trkpt lat="42.3883080" lon="-3.3102850">
        <ele>946.0</ele>
        <time>2022-08-29T11:03:11Z</time>
      </trkpt>
      <trkpt lat="42.3883170" lon="-3.3103010">
        <ele>946.2</ele>
        <time>2022-08-29T11:03:12Z</time>
      </trkpt>
      <trkpt lat="42.3883260" lon="-3.3103160">
        <ele>946.4</ele>
        <time>2022-08-29T11:03:13Z</time>
      </trkpt>
      <trkpt lat="42.3883360" lon="-3.3103300">
        <ele>946.8</ele>
        <time>2022-08-29T11:03:14Z</time>
      </trkpt>
      <trkpt lat="42.3883450" lon="-3.3103590">
        <ele>947.0</ele>
        <time>2022-08-29T11:03:15Z</time>
      </trkpt>
      <trkpt lat="42.3883570" lon="-3.3103780">
        <ele>947.2</ele>
        <time>2022-08-29T11:03:16Z</time>
      </trkpt>
      <trkpt lat="42.3883700" lon="-3.3104010">
        <ele>947.6</ele>
        <time>2022-08-29T11:03:17Z</time>
      </trkpt>
      <trkpt lat="42.3883870" lon="-3.3104240">
        <ele>947.6</ele>
        <time>2022-08-29T11:03:18Z</time>
      </trkpt>
      <trkpt lat="42.3883980" lon="-3.3104430">
        <ele>948.0</ele>
        <time>2022-08-29T11:03:19Z</time>
      </trkpt>
      <trkpt lat="42.3884020" lon="-3.3104600">
        <ele>948.2</ele>
        <time>2022-08-29T11:03:20Z</time>
      </trkpt>
      <trkpt lat="42.3884020" lon="-3.3104760">
        <ele>948.2</ele>
        <time>2022-08-29T11:03:21Z</time>
      </trkpt>
      <trkpt lat="42.3884000" lon="-3.3104930">
        <ele>948.4</ele>
        <time>2022-08-29T11:03:22Z</time>
      </trkpt>
      <trkpt lat="42.3883950" lon="-3.3105130">
        <ele>948.6</ele>
        <time>2022-08-29T11:03:23Z</time>
      </trkpt>
      <trkpt lat="42.3883850" lon="-3.3105310">
        <ele>948.8</ele>
        <time>2022-08-29T11:03:24Z</time>
      </trkpt>
      <trkpt lat="42.3883740" lon="-3.3105480">
        <ele>948.8</ele>
        <time>2022-08-29T11:03:25Z</time>
      </trkpt>
      <trkpt lat="42.3883620" lon="-3.3105640">
        <ele>949.0</ele>
        <time>2022-08-29T11:03:26Z</time>
      </trkpt>
      <trkpt lat="42.3883510" lon="-3.3105800">
        <ele>949.0</ele>
        <time>2022-08-29T11:03:27Z</time>
      </trkpt>
      <trkpt lat="42.3883400" lon="-3.3105940">
        <ele>949.2</ele>
        <time>2022-08-29T11:03:28Z</time>
      </trkpt>
      <trkpt lat="42.3883290" lon="-3.3106100">
        <ele>949.2</ele>
        <time>2022-08-29T11:03:29Z</time>
      </trkpt>
      <trkpt lat="42.3883170" lon="-3.3106250">
        <ele>949.2</ele>
        <time>2022-08-29T11:03:30Z</time>
      </trkpt>
      <trkpt lat="42.3882910" lon="-3.3106470">
        <ele>949.6</ele>
        <time>2022-08-29T11:03:31Z</time>
      </trkpt>
      <trkpt lat="42.3882910" lon="-3.3106470">
        <ele>949.6</ele>
        <time>2022-08-29T11:03:32Z</time>
      </trkpt>
      <trkpt lat="42.3882780" lon="-3.3106580">
        <ele>949.8</ele>
        <time>2022-08-29T11:03:33Z</time>
      </trkpt>
      <trkpt lat="42.3882630" lon="-3.3106680">
        <ele>949.8</ele>
        <time>2022-08-29T11:03:34Z</time>
      </trkpt>
      <trkpt lat="42.3882360" lon="-3.3106880">
        <ele>950.2</ele>
        <time>2022-08-29T11:03:35Z</time>
      </trkpt>
      <trkpt lat="42.3882360" lon="-3.3106880">
        <ele>950.6</ele>
        <time>2022-08-29T11:03:36Z</time>
      </trkpt>
      <trkpt lat="42.3882080" lon="-3.3107130">
        <ele>950.6</ele>
        <time>2022-08-29T11:03:37Z</time>
      </trkpt>
      <trkpt lat="42.3882080" lon="-3.3107130">
        <ele>951.0</ele>
        <time>2022-08-29T11:03:38Z</time>
      </trkpt>
      <trkpt lat="42.3881930" lon="-3.3107250">
        <ele>951.0</ele>
        <time>2022-08-29T11:03:39Z</time>
      </trkpt>
      <trkpt lat="42.3881790" lon="-3.3107350">
        <ele>951.2</ele>
        <time>2022-08-29T11:03:40Z</time>
      </trkpt>
      <trkpt lat="42.3881580" lon="-3.3107570">
        <ele>951.4</ele>
        <time>2022-08-29T11:03:41Z</time>
      </trkpt>
      <trkpt lat="42.3881580" lon="-3.3107570">
        <ele>951.8</ele>
        <time>2022-08-29T11:03:42Z</time>
      </trkpt>
      <trkpt lat="42.3881450" lon="-3.3107670">
        <ele>951.8</ele>
        <time>2022-08-29T11:03:43Z</time>
      </trkpt>
      <trkpt lat="42.3881200" lon="-3.3107830">
        <ele>952.0</ele>
        <time>2022-08-29T11:03:44Z</time>
      </trkpt>
      <trkpt lat="42.3881200" lon="-3.3107830">
        <ele>952.2</ele>
        <time>2022-08-29T11:03:45Z</time>
      </trkpt>
      <trkpt lat="42.3881080" lon="-3.3107930">
        <ele>952.4</ele>
        <time>2022-08-29T11:03:46Z</time>
      </trkpt>
      <trkpt lat="42.3880970" lon="-3.3108030">
        <ele>952.8</ele>
        <time>2022-08-29T11:03:47Z</time>
      </trkpt>
      <trkpt lat="42.3880850" lon="-3.3108120">
        <ele>953.2</ele>
        <time>2022-08-29T11:03:48Z</time>
      </trkpt>
      <trkpt lat="42.3880780" lon="-3.3108260">
        <ele>953.4</ele>
        <time>2022-08-29T11:03:49Z</time>
      </trkpt>
      <trkpt lat="42.3880680" lon="-3.3108340">
        <ele>953.6</ele>
        <time>2022-08-29T11:03:50Z</time>
      </trkpt>
      <trkpt lat="42.3880600" lon="-3.3108410">
        <ele>954.2</ele>
        <time>2022-08-29T11:03:51Z</time>
      </trkpt>
      <trkpt lat="42.3880490" lon="-3.3108480">
        <ele>954.2</ele>
        <time>2022-08-29T11:03:52Z</time>
      </trkpt>
      <trkpt lat="42.3880370" lon="-3.3108570">
        <ele>954.2</ele>
        <time>2022-08-29T11:03:53Z</time>
      </trkpt>
      <trkpt lat="42.3880260" lon="-3.3108640">
        <ele>954.6</ele>
        <time>2022-08-29T11:03:54Z</time>
      </trkpt>
      <trkpt lat="42.3880140" lon="-3.3108730">
        <ele>954.6</ele>
        <time>2022-08-29T11:03:55Z</time>
      </trkpt>
      <trkpt lat="42.3880020" lon="-3.3108800">
        <ele>954.8</ele>
        <time>2022-08-29T11:03:56Z</time>
      </trkpt>
      <trkpt lat="42.3879890" lon="-3.3108880">
        <ele>955.0</ele>
        <time>2022-08-29T11:03:57Z</time>
      </trkpt>
      <trkpt lat="42.3879770" lon="-3.3108960">
        <ele>955.2</ele>
        <time>2022-08-29T11:03:58Z</time>
      </trkpt>
      <trkpt lat="42.3879650" lon="-3.3109050">
        <ele>955.6</ele>
        <time>2022-08-29T11:03:59Z</time>
      </trkpt>
      <trkpt lat="42.3879510" lon="-3.3109140">
        <ele>956.0</ele>
        <time>2022-08-29T11:04:00Z</time>
      </trkpt>
      <trkpt lat="42.3879370" lon="-3.3109210">
        <ele>956.6</ele>
        <time>2022-08-29T11:04:01Z</time>
      </trkpt>
      <trkpt lat="42.3879240" lon="-3.3109290">
        <ele>956.8</ele>
        <time>2022-08-29T11:04:02Z</time>
      </trkpt>
      <trkpt lat="42.3879110" lon="-3.3109370">
        <ele>957.4</ele>
        <time>2022-08-29T11:04:03Z</time>
      </trkpt>
      <trkpt lat="42.3878990" lon="-3.3109460">
        <ele>957.8</ele>
        <time>2022-08-29T11:04:04Z</time>
      </trkpt>
      <trkpt lat="42.3878740" lon="-3.3109660">
        <ele>958.2</ele>
        <time>2022-08-29T11:04:05Z</time>
      </trkpt>
      <trkpt lat="42.3878740" lon="-3.3109660">
        <ele>958.4</ele>
        <time>2022-08-29T11:04:06Z</time>
      </trkpt>
      <trkpt lat="42.3878630" lon="-3.3109760">
        <ele>958.6</ele>
        <time>2022-08-29T11:04:07Z</time>
      </trkpt>
      <trkpt lat="42.3878490" lon="-3.3109860">
        <ele>958.8</ele>
        <time>2022-08-29T11:04:08Z</time>
      </trkpt>
      <trkpt lat="42.3878370" lon="-3.3109950">
        <ele>959.4</ele>
        <time>2022-08-29T11:04:09Z</time>
      </trkpt>
      <trkpt lat="42.3878230" lon="-3.3110050">
        <ele>959.6</ele>
        <time>2022-08-29T11:04:10Z</time>
      </trkpt>
      <trkpt lat="42.3877980" lon="-3.3110240">
        <ele>960.0</ele>
        <time>2022-08-29T11:04:11Z</time>
      </trkpt>
      <trkpt lat="42.3877870" lon="-3.3110340">
        <ele>960.2</ele>
        <time>2022-08-29T11:04:12Z</time>
      </trkpt>
      <trkpt lat="42.3877760" lon="-3.3110440">
        <ele>960.4</ele>
        <time>2022-08-29T11:04:13Z</time>
      </trkpt>
      <trkpt lat="42.3877640" lon="-3.3110550">
        <ele>961.0</ele>
        <time>2022-08-29T11:04:14Z</time>
      </trkpt>
      <trkpt lat="42.3877540" lon="-3.3110680">
        <ele>961.2</ele>
        <time>2022-08-29T11:04:15Z</time>
      </trkpt>
      <trkpt lat="42.3877420" lon="-3.3110790">
        <ele>961.6</ele>
        <time>2022-08-29T11:04:16Z</time>
      </trkpt>
      <trkpt lat="42.3877300" lon="-3.3110910">
        <ele>961.6</ele>
        <time>2022-08-29T11:04:17Z</time>
      </trkpt>
      <trkpt lat="42.3877210" lon="-3.3111070">
        <ele>962.0</ele>
        <time>2022-08-29T11:04:18Z</time>
      </trkpt>
      <trkpt lat="42.3877140" lon="-3.3111210">
        <ele>962.2</ele>
        <time>2022-08-29T11:04:19Z</time>
      </trkpt>
      <trkpt lat="42.3877080" lon="-3.3111320">
        <ele>962.6</ele>
        <time>2022-08-29T11:04:20Z</time>
      </trkpt>
      <trkpt lat="42.3876990" lon="-3.3111460">
        <ele>962.8</ele>
        <time>2022-08-29T11:04:21Z</time>
      </trkpt>
      <trkpt lat="42.3876920" lon="-3.3111620">
        <ele>963.0</ele>
        <time>2022-08-29T11:04:22Z</time>
      </trkpt>
      <trkpt lat="42.3876890" lon="-3.3111780">
        <ele>963.4</ele>
        <time>2022-08-29T11:04:23Z</time>
      </trkpt>
      <trkpt lat="42.3876890" lon="-3.3111780">
        <ele>963.6</ele>
        <time>2022-08-29T11:04:24Z</time>
      </trkpt>
      <trkpt lat="42.3876880" lon="-3.3111930">
        <ele>963.8</ele>
        <time>2022-08-29T11:04:25Z</time>
      </trkpt>
      <trkpt lat="42.3876850" lon="-3.3112090">
        <ele>964.0</ele>
        <time>2022-08-29T11:04:26Z</time>
      </trkpt>
      <trkpt lat="42.3876860" lon="-3.3112240">
        <ele>964.2</ele>
        <time>2022-08-29T11:04:27Z</time>
      </trkpt>
      <trkpt lat="42.3876980" lon="-3.3112540">
        <ele>964.4</ele>
        <time>2022-08-29T11:04:28Z</time>
      </trkpt>
      <trkpt lat="42.3876980" lon="-3.3112540">
        <ele>964.8</ele>
        <time>2022-08-29T11:04:29Z</time>
      </trkpt>
      <trkpt lat="42.3877060" lon="-3.3112720">
        <ele>965.0</ele>
        <time>2022-08-29T11:04:30Z</time>
      </trkpt>
      <trkpt lat="42.3877220" lon="-3.3113110">
        <ele>965.2</ele>
        <time>2022-08-29T11:04:31Z</time>
      </trkpt>
      <trkpt lat="42.3877290" lon="-3.3113290">
        <ele>965.4</ele>
        <time>2022-08-29T11:04:32Z</time>
      </trkpt>
      <trkpt lat="42.3877370" lon="-3.3113460">
        <ele>965.4</ele>
        <time>2022-08-29T11:04:33Z</time>
      </trkpt>
      <trkpt lat="42.3877450" lon="-3.3113630">
        <ele>965.8</ele>
        <time>2022-08-29T11:04:34Z</time>
      </trkpt>
      <trkpt lat="42.3877520" lon="-3.3113810">
        <ele>965.8</ele>
        <time>2022-08-29T11:04:35Z</time>
      </trkpt>
      <trkpt lat="42.3877520" lon="-3.3113810">
        <ele>965.8</ele>
        <time>2022-08-29T11:04:36Z</time>
      </trkpt>
      <trkpt lat="42.3877590" lon="-3.3114020">
        <ele>966.2</ele>
        <time>2022-08-29T11:04:37Z</time>
      </trkpt>
      <trkpt lat="42.3877660" lon="-3.3114260">
        <ele>966.2</ele>
        <time>2022-08-29T11:04:38Z</time>
      </trkpt>
      <trkpt lat="42.3877770" lon="-3.3114500">
        <ele>966.4</ele>
        <time>2022-08-29T11:04:39Z</time>
      </trkpt>
      <trkpt lat="42.3877870" lon="-3.3114740">
        <ele>966.6</ele>
        <time>2022-08-29T11:04:40Z</time>
      </trkpt>
      <trkpt lat="42.3878060" lon="-3.3115230">
        <ele>966.6</ele>
        <time>2022-08-29T11:04:41Z</time>
      </trkpt>
      <trkpt lat="42.3878150" lon="-3.3115480">
        <ele>966.6</ele>
        <time>2022-08-29T11:04:42Z</time>
      </trkpt>
      <trkpt lat="42.3878150" lon="-3.3115480">
        <ele>966.6</ele>
        <time>2022-08-29T11:04:43Z</time>
      </trkpt>
      <trkpt lat="42.3878250" lon="-3.3115730">
        <ele>966.8</ele>
        <time>2022-08-29T11:04:44Z</time>
      </trkpt>
      <trkpt lat="42.3878330" lon="-3.3116020">
        <ele>967.0</ele>
        <time>2022-08-29T11:04:45Z</time>
      </trkpt>
      <trkpt lat="42.3878510" lon="-3.3116600">
        <ele>967.2</ele>
        <time>2022-08-29T11:04:46Z</time>
      </trkpt>
      <trkpt lat="42.3878600" lon="-3.3116880">
        <ele>967.2</ele>
        <time>2022-08-29T11:04:47Z</time>
      </trkpt>
      <trkpt lat="42.3878690" lon="-3.3117130">
        <ele>967.4</ele>
        <time>2022-08-29T11:04:48Z</time>
      </trkpt>
      <trkpt lat="42.3878690" lon="-3.3117130">
        <ele>967.2</ele>
        <time>2022-08-29T11:04:49Z</time>
      </trkpt>
      <trkpt lat="42.3878800" lon="-3.3117390">
        <ele>967.4</ele>
        <time>2022-08-29T11:04:50Z</time>
      </trkpt>
      <trkpt lat="42.3878900" lon="-3.3117670">
        <ele>967.6</ele>
        <time>2022-08-29T11:04:51Z</time>
      </trkpt>
      <trkpt lat="42.3878970" lon="-3.3118140">
        <ele>967.8</ele>
        <time>2022-08-29T11:04:52Z</time>
      </trkpt>
      <trkpt lat="42.3879020" lon="-3.3118540">
        <ele>967.8</ele>
        <time>2022-08-29T11:04:53Z</time>
      </trkpt>
      <trkpt lat="42.3879040" lon="-3.3118920">
        <ele>968.0</ele>
        <time>2022-08-29T11:04:54Z</time>
      </trkpt>
      <trkpt lat="42.3879070" lon="-3.3119300">
        <ele>968.0</ele>
        <time>2022-08-29T11:04:55Z</time>
      </trkpt>
      <trkpt lat="42.3879070" lon="-3.3119690">
        <ele>968.2</ele>
        <time>2022-08-29T11:04:56Z</time>
      </trkpt>
      <trkpt lat="42.3879130" lon="-3.3120030">
        <ele>968.0</ele>
        <time>2022-08-29T11:04:57Z</time>
      </trkpt>
      <trkpt lat="42.3879240" lon="-3.3120710">
        <ele>968.2</ele>
        <time>2022-08-29T11:04:58Z</time>
      </trkpt>
      <trkpt lat="42.3879330" lon="-3.3121020">
        <ele>968.2</ele>
        <time>2022-08-29T11:04:59Z</time>
      </trkpt>
      <trkpt lat="42.3879390" lon="-3.3121360">
        <ele>968.2</ele>
        <time>2022-08-29T11:05:00Z</time>
      </trkpt>
      <trkpt lat="42.3879390" lon="-3.3121360">
        <ele>968.2</ele>
        <time>2022-08-29T11:05:01Z</time>
      </trkpt>
      <trkpt lat="42.3879490" lon="-3.3121680">
        <ele>968.2</ele>
        <time>2022-08-29T11:05:02Z</time>
      </trkpt>
      <trkpt lat="42.3879590" lon="-3.3122010">
        <ele>968.4</ele>
        <time>2022-08-29T11:05:03Z</time>
      </trkpt>
      <trkpt lat="42.3879790" lon="-3.3122680">
        <ele>968.4</ele>
        <time>2022-08-29T11:05:04Z</time>
      </trkpt>
      <trkpt lat="42.3879790" lon="-3.3122680">
        <ele>968.4</ele>
        <time>2022-08-29T11:05:05Z</time>
      </trkpt>
      <trkpt lat="42.3879870" lon="-3.3123030">
        <ele>968.6</ele>
        <time>2022-08-29T11:05:06Z</time>
      </trkpt>
      <trkpt lat="42.3879980" lon="-3.3123370">
        <ele>968.8</ele>
        <time>2022-08-29T11:05:07Z</time>
      </trkpt>
      <trkpt lat="42.3880150" lon="-3.3124140">
        <ele>968.8</ele>
        <time>2022-08-29T11:05:08Z</time>
      </trkpt>
      <trkpt lat="42.3880220" lon="-3.3124460">
        <ele>969.0</ele>
        <time>2022-08-29T11:05:09Z</time>
      </trkpt>
      <trkpt lat="42.3880220" lon="-3.3124460">
        <ele>969.0</ele>
        <time>2022-08-29T11:05:10Z</time>
      </trkpt>
      <trkpt lat="42.3880270" lon="-3.3124860">
        <ele>969.0</ele>
        <time>2022-08-29T11:05:11Z</time>
      </trkpt>
      <trkpt lat="42.3880360" lon="-3.3125240">
        <ele>969.2</ele>
        <time>2022-08-29T11:05:12Z</time>
      </trkpt>
      <trkpt lat="42.3880470" lon="-3.3125530">
        <ele>969.4</ele>
        <time>2022-08-29T11:05:13Z</time>
      </trkpt>
      <trkpt lat="42.3880540" lon="-3.3125890">
        <ele>969.4</ele>
        <time>2022-08-29T11:05:14Z</time>
      </trkpt>
      <trkpt lat="42.3880580" lon="-3.3126250">
        <ele>969.4</ele>
        <time>2022-08-29T11:05:15Z</time>
      </trkpt>
      <trkpt lat="42.3880650" lon="-3.3126560">
        <ele>969.6</ele>
        <time>2022-08-29T11:05:16Z</time>
      </trkpt>
      <trkpt lat="42.3880720" lon="-3.3126870">
        <ele>969.6</ele>
        <time>2022-08-29T11:05:17Z</time>
      </trkpt>
      <trkpt lat="42.3880770" lon="-3.3127610">
        <ele>969.6</ele>
        <time>2022-08-29T11:05:18Z</time>
      </trkpt>
      <trkpt lat="42.3880820" lon="-3.3127980">
        <ele>969.8</ele>
        <time>2022-08-29T11:05:19Z</time>
      </trkpt>
      <trkpt lat="42.3880820" lon="-3.3127980">
        <ele>970.0</ele>
        <time>2022-08-29T11:05:20Z</time>
      </trkpt>
      <trkpt lat="42.3880870" lon="-3.3128350">
        <ele>970.0</ele>
        <time>2022-08-29T11:05:21Z</time>
      </trkpt>
      <trkpt lat="42.3880880" lon="-3.3128730">
        <ele>970.0</ele>
        <time>2022-08-29T11:05:22Z</time>
      </trkpt>
      <trkpt lat="42.3880900" lon="-3.3129480">
        <ele>970.2</ele>
        <time>2022-08-29T11:05:23Z</time>
      </trkpt>
      <trkpt lat="42.3880900" lon="-3.3129480">
        <ele>970.2</ele>
        <time>2022-08-29T11:05:24Z</time>
      </trkpt>
      <trkpt lat="42.3880980" lon="-3.3129790">
        <ele>970.4</ele>
        <time>2022-08-29T11:05:25Z</time>
      </trkpt>
      <trkpt lat="42.3881040" lon="-3.3130100">
        <ele>970.4</ele>
        <time>2022-08-29T11:05:26Z</time>
      </trkpt>
      <trkpt lat="42.3881090" lon="-3.3130380">
        <ele>970.6</ele>
        <time>2022-08-29T11:05:27Z</time>
      </trkpt>
      <trkpt lat="42.3881160" lon="-3.3130640">
        <ele>970.8</ele>
        <time>2022-08-29T11:05:28Z</time>
      </trkpt>
      <trkpt lat="42.3881170" lon="-3.3130900">
        <ele>970.8</ele>
        <time>2022-08-29T11:05:29Z</time>
      </trkpt>
      <trkpt lat="42.3881170" lon="-3.3131140">
        <ele>971.0</ele>
        <time>2022-08-29T11:05:30Z</time>
      </trkpt>
      <trkpt lat="42.3881180" lon="-3.3131320">
        <ele>971.2</ele>
        <time>2022-08-29T11:05:31Z</time>
      </trkpt>
      <trkpt lat="42.3881130" lon="-3.3131520">
        <ele>971.2</ele>
        <time>2022-08-29T11:05:32Z</time>
      </trkpt>
      <trkpt lat="42.3881100" lon="-3.3131730">
        <ele>971.4</ele>
        <time>2022-08-29T11:05:33Z</time>
      </trkpt>
      <trkpt lat="42.3881080" lon="-3.3131930">
        <ele>971.6</ele>
        <time>2022-08-29T11:05:34Z</time>
      </trkpt>
      <trkpt lat="42.3881070" lon="-3.3132150">
        <ele>971.8</ele>
        <time>2022-08-29T11:05:35Z</time>
      </trkpt>
      <trkpt lat="42.3881070" lon="-3.3132380">
        <ele>972.0</ele>
        <time>2022-08-29T11:05:36Z</time>
      </trkpt>
      <trkpt lat="42.3881040" lon="-3.3132600">
        <ele>972.0</ele>
        <time>2022-08-29T11:05:37Z</time>
      </trkpt>
      <trkpt lat="42.3881010" lon="-3.3132810">
        <ele>972.4</ele>
        <time>2022-08-29T11:05:38Z</time>
      </trkpt>
      <trkpt lat="42.3880980" lon="-3.3133010">
        <ele>972.8</ele>
        <time>2022-08-29T11:05:39Z</time>
      </trkpt>
      <trkpt lat="42.3880960" lon="-3.3133230">
        <ele>973.2</ele>
        <time>2022-08-29T11:05:40Z</time>
      </trkpt>
      <trkpt lat="42.3880930" lon="-3.3133450">
        <ele>973.4</ele>
        <time>2022-08-29T11:05:41Z</time>
      </trkpt>
      <trkpt lat="42.3880880" lon="-3.3133690">
        <ele>973.6</ele>
        <time>2022-08-29T11:05:42Z</time>
      </trkpt>
      <trkpt lat="42.3880840" lon="-3.3133930">
        <ele>973.8</ele>
        <time>2022-08-29T11:05:43Z</time>
      </trkpt>
      <trkpt lat="42.3880840" lon="-3.3134200">
        <ele>973.8</ele>
        <time>2022-08-29T11:05:44Z</time>
      </trkpt>
      <trkpt lat="42.3880840" lon="-3.3134510">
        <ele>974.0</ele>
        <time>2022-08-29T11:05:45Z</time>
      </trkpt>
      <trkpt lat="42.3880860" lon="-3.3135110">
        <ele>974.2</ele>
        <time>2022-08-29T11:05:46Z</time>
      </trkpt>
      <trkpt lat="42.3880860" lon="-3.3135110">
        <ele>974.4</ele>
        <time>2022-08-29T11:05:47Z</time>
      </trkpt>
      <trkpt lat="42.3880880" lon="-3.3135370">
        <ele>974.4</ele>
        <time>2022-08-29T11:05:48Z</time>
      </trkpt>
      <trkpt lat="42.3880950" lon="-3.3135620">
        <ele>974.8</ele>
        <time>2022-08-29T11:05:49Z</time>
      </trkpt>
      <trkpt lat="42.3881010" lon="-3.3135890">
        <ele>974.8</ele>
        <time>2022-08-29T11:05:50Z</time>
      </trkpt>
      <trkpt lat="42.3881080" lon="-3.3136130">
        <ele>975.2</ele>
        <time>2022-08-29T11:05:51Z</time>
      </trkpt>
      <trkpt lat="42.3881170" lon="-3.3136340">
        <ele>975.2</ele>
        <time>2022-08-29T11:05:52Z</time>
      </trkpt>
      <trkpt lat="42.3881310" lon="-3.3136740">
        <ele>975.6</ele>
        <time>2022-08-29T11:05:53Z</time>
      </trkpt>
      <trkpt lat="42.3881310" lon="-3.3136740">
        <ele>975.6</ele>
        <time>2022-08-29T11:05:54Z</time>
      </trkpt>
      <trkpt lat="42.3881390" lon="-3.3136950">
        <ele>975.8</ele>
        <time>2022-08-29T11:05:55Z</time>
      </trkpt>
      <trkpt lat="42.3881500" lon="-3.3137160">
        <ele>976.2</ele>
        <time>2022-08-29T11:05:56Z</time>
      </trkpt>
      <trkpt lat="42.3881570" lon="-3.3137390">
        <ele>976.2</ele>
        <time>2022-08-29T11:05:57Z</time>
      </trkpt>
      <trkpt lat="42.3881630" lon="-3.3137640">
        <ele>976.2</ele>
        <time>2022-08-29T11:05:58Z</time>
      </trkpt>
      <trkpt lat="42.3881710" lon="-3.3138130">
        <ele>976.6</ele>
        <time>2022-08-29T11:05:59Z</time>
      </trkpt>
      <trkpt lat="42.3881790" lon="-3.3138360">
        <ele>977.0</ele>
        <time>2022-08-29T11:06:00Z</time>
      </trkpt>
      <trkpt lat="42.3881790" lon="-3.3138360">
        <ele>977.2</ele>
        <time>2022-08-29T11:06:01Z</time>
      </trkpt>
      <trkpt lat="42.3881850" lon="-3.3138590">
        <ele>977.2</ele>
        <time>2022-08-29T11:06:02Z</time>
      </trkpt>
      <trkpt lat="42.3881910" lon="-3.3138810">
        <ele>977.4</ele>
        <time>2022-08-29T11:06:03Z</time>
      </trkpt>
      <trkpt lat="42.3881960" lon="-3.3139050">
        <ele>977.6</ele>
        <time>2022-08-29T11:06:04Z</time>
      </trkpt>
      <trkpt lat="42.3882020" lon="-3.3139260">
        <ele>977.6</ele>
        <time>2022-08-29T11:06:05Z</time>
      </trkpt>
      <trkpt lat="42.3882060" lon="-3.3139480">
        <ele>977.8</ele>
        <time>2022-08-29T11:06:06Z</time>
      </trkpt>
      <trkpt lat="42.3882100" lon="-3.3139700">
        <ele>977.8</ele>
        <time>2022-08-29T11:06:07Z</time>
      </trkpt>
      <trkpt lat="42.3882160" lon="-3.3139930">
        <ele>978.2</ele>
        <time>2022-08-29T11:06:08Z</time>
      </trkpt>
      <trkpt lat="42.3882220" lon="-3.3140180">
        <ele>978.2</ele>
        <time>2022-08-29T11:06:09Z</time>
      </trkpt>
      <trkpt lat="42.3882300" lon="-3.3140460">
        <ele>978.4</ele>
        <time>2022-08-29T11:06:10Z</time>
      </trkpt>
      <trkpt lat="42.3882390" lon="-3.3141040">
        <ele>978.8</ele>
        <time>2022-08-29T11:06:11Z</time>
      </trkpt>
      <trkpt lat="42.3882440" lon="-3.3141320">
        <ele>978.8</ele>
        <time>2022-08-29T11:06:12Z</time>
      </trkpt>
      <trkpt lat="42.3882440" lon="-3.3141320">
        <ele>979.0</ele>
        <time>2022-08-29T11:06:13Z</time>
      </trkpt>
      <trkpt lat="42.3882510" lon="-3.3141610">
        <ele>979.2</ele>
        <time>2022-08-29T11:06:14Z</time>
      </trkpt>
      <trkpt lat="42.3882600" lon="-3.3142190">
        <ele>979.4</ele>
        <time>2022-08-29T11:06:15Z</time>
      </trkpt>
      <trkpt lat="42.3882640" lon="-3.3142520">
        <ele>979.8</ele>
        <time>2022-08-29T11:06:16Z</time>
      </trkpt>
      <trkpt lat="42.3882680" lon="-3.3142850">
        <ele>979.8</ele>
        <time>2022-08-29T11:06:17Z</time>
      </trkpt>
      <trkpt lat="42.3882680" lon="-3.3142850">
        <ele>979.8</ele>
        <time>2022-08-29T11:06:18Z</time>
      </trkpt>
      <trkpt lat="42.3882720" lon="-3.3143180">
        <ele>979.8</ele>
        <time>2022-08-29T11:06:19Z</time>
      </trkpt>
      <trkpt lat="42.3882740" lon="-3.3143490">
        <ele>980.0</ele>
        <time>2022-08-29T11:06:20Z</time>
      </trkpt>
      <trkpt lat="42.3882800" lon="-3.3144020">
        <ele>980.2</ele>
        <time>2022-08-29T11:06:21Z</time>
      </trkpt>
      <trkpt lat="42.3882830" lon="-3.3144270">
        <ele>980.6</ele>
        <time>2022-08-29T11:06:22Z</time>
      </trkpt>
      <trkpt lat="42.3882870" lon="-3.3144500">
        <ele>980.8</ele>
        <time>2022-08-29T11:06:23Z</time>
      </trkpt>
      <trkpt lat="42.3882910" lon="-3.3144700">
        <ele>981.4</ele>
        <time>2022-08-29T11:06:24Z</time>
      </trkpt>
      <trkpt lat="42.3882990" lon="-3.3144910">
        <ele>981.4</ele>
        <time>2022-08-29T11:06:25Z</time>
      </trkpt>
      <trkpt lat="42.3883040" lon="-3.3145130">
        <ele>981.8</ele>
        <time>2022-08-29T11:06:26Z</time>
      </trkpt>
      <trkpt lat="42.3883060" lon="-3.3145370">
        <ele>982.2</ele>
        <time>2022-08-29T11:06:27Z</time>
      </trkpt>
      <trkpt lat="42.3883070" lon="-3.3145630">
        <ele>982.2</ele>
        <time>2022-08-29T11:06:28Z</time>
      </trkpt>
      <trkpt lat="42.3883080" lon="-3.3145860">
        <ele>982.2</ele>
        <time>2022-08-29T11:06:29Z</time>
      </trkpt>
      <trkpt lat="42.3883100" lon="-3.3146090">
        <ele>982.8</ele>
        <time>2022-08-29T11:06:30Z</time>
      </trkpt>
      <trkpt lat="42.3883130" lon="-3.3146460">
        <ele>983.0</ele>
        <time>2022-08-29T11:06:31Z</time>
      </trkpt>
      <trkpt lat="42.3883140" lon="-3.3146690">
        <ele>983.2</ele>
        <time>2022-08-29T11:06:32Z</time>
      </trkpt>
      <trkpt lat="42.3883130" lon="-3.3146960">
        <ele>983.4</ele>
        <time>2022-08-29T11:06:33Z</time>
      </trkpt>
      <trkpt lat="42.3883110" lon="-3.3147340">
        <ele>983.4</ele>
        <time>2022-08-29T11:06:34Z</time>
      </trkpt>
      <trkpt lat="42.3883090" lon="-3.3147670">
        <ele>983.8</ele>
        <time>2022-08-29T11:06:35Z</time>
      </trkpt>
      <trkpt lat="42.3883080" lon="-3.3148070">
        <ele>984.0</ele>
        <time>2022-08-29T11:06:36Z</time>
      </trkpt>
      <trkpt lat="42.3883080" lon="-3.3148410">
        <ele>984.2</ele>
        <time>2022-08-29T11:06:37Z</time>
      </trkpt>
      <trkpt lat="42.3883110" lon="-3.3148690">
        <ele>984.2</ele>
        <time>2022-08-29T11:06:38Z</time>
      </trkpt>
      <trkpt lat="42.3883160" lon="-3.3148980">
        <ele>984.4</ele>
        <time>2022-08-29T11:06:39Z</time>
      </trkpt>
      <trkpt lat="42.3883170" lon="-3.3149290">
        <ele>984.4</ele>
        <time>2022-08-29T11:06:40Z</time>
      </trkpt>
      <trkpt lat="42.3883210" lon="-3.3149570">
        <ele>984.6</ele>
        <time>2022-08-29T11:06:41Z</time>
      </trkpt>
      <trkpt lat="42.3883270" lon="-3.3149850">
        <ele>984.8</ele>
        <time>2022-08-29T11:06:42Z</time>
      </trkpt>
      <trkpt lat="42.3883320" lon="-3.3150140">
        <ele>985.0</ele>
        <time>2022-08-29T11:06:43Z</time>
      </trkpt>
      <trkpt lat="42.3883370" lon="-3.3150410">
        <ele>985.6</ele>
        <time>2022-08-29T11:06:44Z</time>
      </trkpt>
      <trkpt lat="42.3883430" lon="-3.3150640">
        <ele>985.8</ele>
        <time>2022-08-29T11:06:45Z</time>
      </trkpt>
      <trkpt lat="42.3883470" lon="-3.3150840">
        <ele>986.0</ele>
        <time>2022-08-29T11:06:46Z</time>
      </trkpt>
      <trkpt lat="42.3883510" lon="-3.3151030">
        <ele>986.6</ele>
        <time>2022-08-29T11:06:47Z</time>
      </trkpt>
      <trkpt lat="42.3883580" lon="-3.3151220">
        <ele>986.6</ele>
        <time>2022-08-29T11:06:48Z</time>
      </trkpt>
      <trkpt lat="42.3883650" lon="-3.3151420">
        <ele>987.0</ele>
        <time>2022-08-29T11:06:49Z</time>
      </trkpt>
      <trkpt lat="42.3883680" lon="-3.3151670">
        <ele>987.4</ele>
        <time>2022-08-29T11:06:50Z</time>
      </trkpt>
      <trkpt lat="42.3883710" lon="-3.3151910">
        <ele>987.4</ele>
        <time>2022-08-29T11:06:51Z</time>
      </trkpt>
      <trkpt lat="42.3883760" lon="-3.3152100">
        <ele>987.8</ele>
        <time>2022-08-29T11:06:52Z</time>
      </trkpt>
      <trkpt lat="42.3883810" lon="-3.3152310">
        <ele>987.8</ele>
        <time>2022-08-29T11:06:53Z</time>
      </trkpt>
      <trkpt lat="42.3883860" lon="-3.3152520">
        <ele>988.2</ele>
        <time>2022-08-29T11:06:54Z</time>
      </trkpt>
      <trkpt lat="42.3883920" lon="-3.3152740">
        <ele>988.2</ele>
        <time>2022-08-29T11:06:55Z</time>
      </trkpt>
      <trkpt lat="42.3883980" lon="-3.3152970">
        <ele>988.2</ele>
        <time>2022-08-29T11:06:56Z</time>
      </trkpt>
      <trkpt lat="42.3884050" lon="-3.3153190">
        <ele>988.6</ele>
        <time>2022-08-29T11:06:57Z</time>
      </trkpt>
      <trkpt lat="42.3884100" lon="-3.3153400">
        <ele>988.8</ele>
        <time>2022-08-29T11:06:58Z</time>
      </trkpt>
      <trkpt lat="42.3884100" lon="-3.3153400">
        <ele>988.8</ele>
        <time>2022-08-29T11:06:59Z</time>
      </trkpt>
      <trkpt lat="42.3884190" lon="-3.3153570">
        <ele>989.2</ele>
        <time>2022-08-29T11:07:00Z</time>
      </trkpt>
      <trkpt lat="42.3884390" lon="-3.3153910">
        <ele>989.6</ele>
        <time>2022-08-29T11:07:01Z</time>
      </trkpt>
      <trkpt lat="42.3884500" lon="-3.3154080">
        <ele>989.8</ele>
        <time>2022-08-29T11:07:02Z</time>
      </trkpt>
      <trkpt lat="42.3884500" lon="-3.3154080">
        <ele>990.0</ele>
        <time>2022-08-29T11:07:03Z</time>
      </trkpt>
      <trkpt lat="42.3884610" lon="-3.3154230">
        <ele>990.0</ele>
        <time>2022-08-29T11:07:04Z</time>
      </trkpt>
      <trkpt lat="42.3884810" lon="-3.3154350">
        <ele>990.6</ele>
        <time>2022-08-29T11:07:05Z</time>
      </trkpt>
      <trkpt lat="42.3885190" lon="-3.3154550">
        <ele>990.8</ele>
        <time>2022-08-29T11:07:06Z</time>
      </trkpt>
      <trkpt lat="42.3885190" lon="-3.3154550">
        <ele>990.8</ele>
        <time>2022-08-29T11:07:07Z</time>
      </trkpt>
      <trkpt lat="42.3885350" lon="-3.3154680">
        <ele>990.8</ele>
        <time>2022-08-29T11:07:08Z</time>
      </trkpt>
      <trkpt lat="42.3885480" lon="-3.3154820">
        <ele>991.0</ele>
        <time>2022-08-29T11:07:09Z</time>
      </trkpt>
      <trkpt lat="42.3885620" lon="-3.3155140">
        <ele>991.6</ele>
        <time>2022-08-29T11:07:10Z</time>
      </trkpt>
      <trkpt lat="42.3885620" lon="-3.3155140">
        <ele>991.8</ele>
        <time>2022-08-29T11:07:11Z</time>
      </trkpt>
      <trkpt lat="42.3885680" lon="-3.3155320">
        <ele>991.8</ele>
        <time>2022-08-29T11:07:12Z</time>
      </trkpt>
      <trkpt lat="42.3885760" lon="-3.3155480">
        <ele>992.0</ele>
        <time>2022-08-29T11:07:13Z</time>
      </trkpt>
      <trkpt lat="42.3885830" lon="-3.3155660">
        <ele>992.2</ele>
        <time>2022-08-29T11:07:14Z</time>
      </trkpt>
      <trkpt lat="42.3885940" lon="-3.3155810">
        <ele>992.4</ele>
        <time>2022-08-29T11:07:15Z</time>
      </trkpt>
      <trkpt lat="42.3886050" lon="-3.3155960">
        <ele>992.6</ele>
        <time>2022-08-29T11:07:16Z</time>
      </trkpt>
      <trkpt lat="42.3886230" lon="-3.3156290">
        <ele>992.8</ele>
        <time>2022-08-29T11:07:17Z</time>
      </trkpt>
      <trkpt lat="42.3886300" lon="-3.3156480">
        <ele>992.8</ele>
        <time>2022-08-29T11:07:18Z</time>
      </trkpt>
      <trkpt lat="42.3886370" lon="-3.3156660">
        <ele>993.0</ele>
        <time>2022-08-29T11:07:19Z</time>
      </trkpt>
      <trkpt lat="42.3886420" lon="-3.3156850">
        <ele>993.2</ele>
        <time>2022-08-29T11:07:20Z</time>
      </trkpt>
      <trkpt lat="42.3886470" lon="-3.3157040">
        <ele>993.4</ele>
        <time>2022-08-29T11:07:21Z</time>
      </trkpt>
      <trkpt lat="42.3886490" lon="-3.3157230">
        <ele>993.6</ele>
        <time>2022-08-29T11:07:22Z</time>
      </trkpt>
      <trkpt lat="42.3886510" lon="-3.3157430">
        <ele>994.0</ele>
        <time>2022-08-29T11:07:23Z</time>
      </trkpt>
      <trkpt lat="42.3886510" lon="-3.3157430">
        <ele>994.0</ele>
        <time>2022-08-29T11:07:24Z</time>
      </trkpt>
      <trkpt lat="42.3886580" lon="-3.3157810">
        <ele>994.2</ele>
        <time>2022-08-29T11:07:25Z</time>
      </trkpt>
      <trkpt lat="42.3886580" lon="-3.3158010">
        <ele>994.6</ele>
        <time>2022-08-29T11:07:26Z</time>
      </trkpt>
      <trkpt lat="42.3886560" lon="-3.3158200">
        <ele>994.6</ele>
        <time>2022-08-29T11:07:27Z</time>
      </trkpt>
      <trkpt lat="42.3886540" lon="-3.3158400">
        <ele>994.8</ele>
        <time>2022-08-29T11:07:28Z</time>
      </trkpt>
      <trkpt lat="42.3886530" lon="-3.3158590">
        <ele>995.2</ele>
        <time>2022-08-29T11:07:29Z</time>
      </trkpt>
      <trkpt lat="42.3886530" lon="-3.3158770">
        <ele>995.4</ele>
        <time>2022-08-29T11:07:30Z</time>
      </trkpt>
      <trkpt lat="42.3886520" lon="-3.3158950">
        <ele>995.6</ele>
        <time>2022-08-29T11:07:31Z</time>
      </trkpt>
      <trkpt lat="42.3886460" lon="-3.3159120">
        <ele>996.0</ele>
        <time>2022-08-29T11:07:32Z</time>
      </trkpt>
      <trkpt lat="42.3886420" lon="-3.3159300">
        <ele>996.2</ele>
        <time>2022-08-29T11:07:33Z</time>
      </trkpt>
      <trkpt lat="42.3886380" lon="-3.3159480">
        <ele>996.4</ele>
        <time>2022-08-29T11:07:34Z</time>
      </trkpt>
      <trkpt lat="42.3886340" lon="-3.3159680">
        <ele>997.0</ele>
        <time>2022-08-29T11:07:35Z</time>
      </trkpt>
      <trkpt lat="42.3886290" lon="-3.3159870">
        <ele>997.2</ele>
        <time>2022-08-29T11:07:36Z</time>
      </trkpt>
      <trkpt lat="42.3886230" lon="-3.3160050">
        <ele>997.6</ele>
        <time>2022-08-29T11:07:37Z</time>
      </trkpt>
      <trkpt lat="42.3886170" lon="-3.3160230">
        <ele>997.8</ele>
        <time>2022-08-29T11:07:38Z</time>
      </trkpt>
      <trkpt lat="42.3886120" lon="-3.3160410">
        <ele>998.0</ele>
        <time>2022-08-29T11:07:39Z</time>
      </trkpt>
      <trkpt lat="42.3886080" lon="-3.3160580">
        <ele>998.2</ele>
        <time>2022-08-29T11:07:40Z</time>
      </trkpt>
      <trkpt lat="42.3886050" lon="-3.3160760">
        <ele>998.4</ele>
        <time>2022-08-29T11:07:41Z</time>
      </trkpt>
      <trkpt lat="42.3886040" lon="-3.3160930">
        <ele>998.6</ele>
        <time>2022-08-29T11:07:42Z</time>
      </trkpt>
      <trkpt lat="42.3886020" lon="-3.3161100">
        <ele>999.0</ele>
        <time>2022-08-29T11:07:43Z</time>
      </trkpt>
      <trkpt lat="42.3885970" lon="-3.3161260">
        <ele>999.4</ele>
        <time>2022-08-29T11:07:44Z</time>
      </trkpt>
      <trkpt lat="42.3885890" lon="-3.3161420">
        <ele>999.6</ele>
        <time>2022-08-29T11:07:45Z</time>
      </trkpt>
      <trkpt lat="42.3885840" lon="-3.3161590">
        <ele>999.8</ele>
        <time>2022-08-29T11:07:46Z</time>
      </trkpt>
      <trkpt lat="42.3885800" lon="-3.3161770">
        <ele>1000.2</ele>
        <time>2022-08-29T11:07:47Z</time>
      </trkpt>
      <trkpt lat="42.3885760" lon="-3.3161950">
        <ele>1000.4</ele>
        <time>2022-08-29T11:07:48Z</time>
      </trkpt>
      <trkpt lat="42.3885710" lon="-3.3162130">
        <ele>1000.4</ele>
        <time>2022-08-29T11:07:49Z</time>
      </trkpt>
      <trkpt lat="42.3885660" lon="-3.3162310">
        <ele>1000.6</ele>
        <time>2022-08-29T11:07:50Z</time>
      </trkpt>
      <trkpt lat="42.3885600" lon="-3.3162490">
        <ele>1000.6</ele>
        <time>2022-08-29T11:07:51Z</time>
      </trkpt>
      <trkpt lat="42.3885550" lon="-3.3162670">
        <ele>1001.0</ele>
        <time>2022-08-29T11:07:52Z</time>
      </trkpt>
      <trkpt lat="42.3885490" lon="-3.3162860">
        <ele>1001.2</ele>
        <time>2022-08-29T11:07:53Z</time>
      </trkpt>
      <trkpt lat="42.3885450" lon="-3.3163050">
        <ele>1001.4</ele>
        <time>2022-08-29T11:07:54Z</time>
      </trkpt>
      <trkpt lat="42.3885410" lon="-3.3163240">
        <ele>1001.6</ele>
        <time>2022-08-29T11:07:55Z</time>
      </trkpt>
      <trkpt lat="42.3885360" lon="-3.3163430">
        <ele>1001.8</ele>
        <time>2022-08-29T11:07:56Z</time>
      </trkpt>
      <trkpt lat="42.3885330" lon="-3.3163640">
        <ele>1002.0</ele>
        <time>2022-08-29T11:07:57Z</time>
      </trkpt>
      <trkpt lat="42.3885300" lon="-3.3163840">
        <ele>1002.4</ele>
        <time>2022-08-29T11:07:58Z</time>
      </trkpt>
      <trkpt lat="42.3885250" lon="-3.3164040">
        <ele>1002.6</ele>
        <time>2022-08-29T11:07:59Z</time>
      </trkpt>
      <trkpt lat="42.3885180" lon="-3.3164230">
        <ele>1002.8</ele>
        <time>2022-08-29T11:08:00Z</time>
      </trkpt>
      <trkpt lat="42.3885120" lon="-3.3164430">
        <ele>1003.0</ele>
        <time>2022-08-29T11:08:01Z</time>
      </trkpt>
      <trkpt lat="42.3885070" lon="-3.3164620">
        <ele>1003.2</ele>
        <time>2022-08-29T11:08:02Z</time>
      </trkpt>
      <trkpt lat="42.3885030" lon="-3.3164820">
        <ele>1003.2</ele>
        <time>2022-08-29T11:08:03Z</time>
      </trkpt>
      <trkpt lat="42.3884990" lon="-3.3165020">
        <ele>1003.6</ele>
        <time>2022-08-29T11:08:04Z</time>
      </trkpt>
      <trkpt lat="42.3884950" lon="-3.3165210">
        <ele>1004.0</ele>
        <time>2022-08-29T11:08:05Z</time>
      </trkpt>
      <trkpt lat="42.3884900" lon="-3.3165410">
        <ele>1004.2</ele>
        <time>2022-08-29T11:08:06Z</time>
      </trkpt>
      <trkpt lat="42.3884860" lon="-3.3165600">
        <ele>1004.4</ele>
        <time>2022-08-29T11:08:07Z</time>
      </trkpt>
      <trkpt lat="42.3884810" lon="-3.3165780">
        <ele>1004.8</ele>
        <time>2022-08-29T11:08:08Z</time>
      </trkpt>
      <trkpt lat="42.3884750" lon="-3.3165960">
        <ele>1005.0</ele>
        <time>2022-08-29T11:08:09Z</time>
      </trkpt>
      <trkpt lat="42.3884690" lon="-3.3166130">
        <ele>1005.2</ele>
        <time>2022-08-29T11:08:10Z</time>
      </trkpt>
      <trkpt lat="42.3884630" lon="-3.3166300">
        <ele>1005.2</ele>
        <time>2022-08-29T11:08:11Z</time>
      </trkpt>
      <trkpt lat="42.3884580" lon="-3.3166490">
        <ele>1005.6</ele>
        <time>2022-08-29T11:08:12Z</time>
      </trkpt>
      <trkpt lat="42.3884540" lon="-3.3166680">
        <ele>1005.6</ele>
        <time>2022-08-29T11:08:13Z</time>
      </trkpt>
      <trkpt lat="42.3884500" lon="-3.3166860">
        <ele>1005.8</ele>
        <time>2022-08-29T11:08:14Z</time>
      </trkpt>
      <trkpt lat="42.3884460" lon="-3.3167050">
        <ele>1005.8</ele>
        <time>2022-08-29T11:08:15Z</time>
      </trkpt>
      <trkpt lat="42.3884410" lon="-3.3167230">
        <ele>1006.2</ele>
        <time>2022-08-29T11:08:16Z</time>
      </trkpt>
      <trkpt lat="42.3884350" lon="-3.3167380">
        <ele>1006.6</ele>
        <time>2022-08-29T11:08:17Z</time>
      </trkpt>
      <trkpt lat="42.3884290" lon="-3.3167540">
        <ele>1006.8</ele>
        <time>2022-08-29T11:08:18Z</time>
      </trkpt>
      <trkpt lat="42.3884230" lon="-3.3167720">
        <ele>1007.0</ele>
        <time>2022-08-29T11:08:19Z</time>
      </trkpt>
      <trkpt lat="42.3884180" lon="-3.3167900">
        <ele>1007.2</ele>
        <time>2022-08-29T11:08:20Z</time>
      </trkpt>
      <trkpt lat="42.3884140" lon="-3.3168080">
        <ele>1007.4</ele>
        <time>2022-08-29T11:08:21Z</time>
      </trkpt>
      <trkpt lat="42.3884120" lon="-3.3168260">
        <ele>1007.4</ele>
        <time>2022-08-29T11:08:22Z</time>
      </trkpt>
      <trkpt lat="42.3884110" lon="-3.3168450">
        <ele>1008.0</ele>
        <time>2022-08-29T11:08:23Z</time>
      </trkpt>
      <trkpt lat="42.3884080" lon="-3.3168640">
        <ele>1008.0</ele>
        <time>2022-08-29T11:08:24Z</time>
      </trkpt>
      <trkpt lat="42.3884010" lon="-3.3168800">
        <ele>1008.0</ele>
        <time>2022-08-29T11:08:25Z</time>
      </trkpt>
      <trkpt lat="42.3883940" lon="-3.3168950">
        <ele>1008.2</ele>
        <time>2022-08-29T11:08:26Z</time>
      </trkpt>
      <trkpt lat="42.3883870" lon="-3.3169120">
        <ele>1008.6</ele>
        <time>2022-08-29T11:08:27Z</time>
      </trkpt>
      <trkpt lat="42.3883800" lon="-3.3169300">
        <ele>1009.0</ele>
        <time>2022-08-29T11:08:28Z</time>
      </trkpt>
      <trkpt lat="42.3883750" lon="-3.3169490">
        <ele>1009.2</ele>
        <time>2022-08-29T11:08:29Z</time>
      </trkpt>
      <trkpt lat="42.3883710" lon="-3.3169680">
        <ele>1009.4</ele>
        <time>2022-08-29T11:08:30Z</time>
      </trkpt>
      <trkpt lat="42.3883670" lon="-3.3169870">
        <ele>1009.8</ele>
        <time>2022-08-29T11:08:31Z</time>
      </trkpt>
      <trkpt lat="42.3883630" lon="-3.3170050">
        <ele>1009.8</ele>
        <time>2022-08-29T11:08:32Z</time>
      </trkpt>
      <trkpt lat="42.3883590" lon="-3.3170210">
        <ele>1010.0</ele>
        <time>2022-08-29T11:08:33Z</time>
      </trkpt>
      <trkpt lat="42.3883540" lon="-3.3170380">
        <ele>1010.2</ele>
        <time>2022-08-29T11:08:34Z</time>
      </trkpt>
      <trkpt lat="42.3883490" lon="-3.3170550">
        <ele>1010.4</ele>
        <time>2022-08-29T11:08:35Z</time>
      </trkpt>
      <trkpt lat="42.3883430" lon="-3.3170700">
        <ele>1010.6</ele>
        <time>2022-08-29T11:08:36Z</time>
      </trkpt>
      <trkpt lat="42.3883360" lon="-3.3170850">
        <ele>1011.0</ele>
        <time>2022-08-29T11:08:37Z</time>
      </trkpt>
      <trkpt lat="42.3883320" lon="-3.3171010">
        <ele>1011.0</ele>
        <time>2022-08-29T11:08:38Z</time>
      </trkpt>
      <trkpt lat="42.3883290" lon="-3.3171170">
        <ele>1011.2</ele>
        <time>2022-08-29T11:08:39Z</time>
      </trkpt>
      <trkpt lat="42.3883270" lon="-3.3171380">
        <ele>1011.4</ele>
        <time>2022-08-29T11:08:40Z</time>
      </trkpt>
      <trkpt lat="42.3883250" lon="-3.3171540">
        <ele>1011.6</ele>
        <time>2022-08-29T11:08:41Z</time>
      </trkpt>
      <trkpt lat="42.3883230" lon="-3.3171700">
        <ele>1012.0</ele>
        <time>2022-08-29T11:08:42Z</time>
      </trkpt>
      <trkpt lat="42.3883200" lon="-3.3171870">
        <ele>1012.0</ele>
        <time>2022-08-29T11:08:43Z</time>
      </trkpt>
      <trkpt lat="42.3883170" lon="-3.3172030">
        <ele>1012.4</ele>
        <time>2022-08-29T11:08:44Z</time>
      </trkpt>
      <trkpt lat="42.3883130" lon="-3.3172190">
        <ele>1012.6</ele>
        <time>2022-08-29T11:08:45Z</time>
      </trkpt>
      <trkpt lat="42.3883090" lon="-3.3172360">
        <ele>1013.0</ele>
        <time>2022-08-29T11:08:46Z</time>
      </trkpt>
      <trkpt lat="42.3883040" lon="-3.3172520">
        <ele>1013.4</ele>
        <time>2022-08-29T11:08:47Z</time>
      </trkpt>
      <trkpt lat="42.3882990" lon="-3.3172680">
        <ele>1013.8</ele>
        <time>2022-08-29T11:08:48Z</time>
      </trkpt>
      <trkpt lat="42.3882940" lon="-3.3172820">
        <ele>1014.2</ele>
        <time>2022-08-29T11:08:49Z</time>
      </trkpt>
      <trkpt lat="42.3882910" lon="-3.3172970">
        <ele>1014.2</ele>
        <time>2022-08-29T11:08:50Z</time>
      </trkpt>
      <trkpt lat="42.3882880" lon="-3.3173140">
        <ele>1014.6</ele>
        <time>2022-08-29T11:08:51Z</time>
      </trkpt>
      <trkpt lat="42.3882810" lon="-3.3173290">
        <ele>1015.0</ele>
        <time>2022-08-29T11:08:52Z</time>
      </trkpt>
      <trkpt lat="42.3882730" lon="-3.3173450">
        <ele>1015.2</ele>
        <time>2022-08-29T11:08:53Z</time>
      </trkpt>
      <trkpt lat="42.3882670" lon="-3.3173610">
        <ele>1015.2</ele>
        <time>2022-08-29T11:08:54Z</time>
      </trkpt>
      <trkpt lat="42.3882600" lon="-3.3173770">
        <ele>1015.4</ele>
        <time>2022-08-29T11:08:55Z</time>
      </trkpt>
      <trkpt lat="42.3882510" lon="-3.3173920">
        <ele>1015.6</ele>
        <time>2022-08-29T11:08:56Z</time>
      </trkpt>
      <trkpt lat="42.3882410" lon="-3.3174070">
        <ele>1016.0</ele>
        <time>2022-08-29T11:08:57Z</time>
      </trkpt>
      <trkpt lat="42.3882330" lon="-3.3174230">
        <ele>1016.0</ele>
        <time>2022-08-29T11:08:58Z</time>
      </trkpt>
      <trkpt lat="42.3882280" lon="-3.3174410">
        <ele>1016.0</ele>
        <time>2022-08-29T11:08:59Z</time>
      </trkpt>
      <trkpt lat="42.3882250" lon="-3.3174600">
        <ele>1016.2</ele>
        <time>2022-08-29T11:09:00Z</time>
      </trkpt>
      <trkpt lat="42.3882220" lon="-3.3174790">
        <ele>1016.2</ele>
        <time>2022-08-29T11:09:01Z</time>
      </trkpt>
      <trkpt lat="42.3882210" lon="-3.3175010">
        <ele>1016.6</ele>
        <time>2022-08-29T11:09:02Z</time>
      </trkpt>
      <trkpt lat="42.3882200" lon="-3.3175240">
        <ele>1016.8</ele>
        <time>2022-08-29T11:09:03Z</time>
      </trkpt>
      <trkpt lat="42.3882200" lon="-3.3175460">
        <ele>1017.0</ele>
        <time>2022-08-29T11:09:04Z</time>
      </trkpt>
      <trkpt lat="42.3882200" lon="-3.3175660">
        <ele>1017.0</ele>
        <time>2022-08-29T11:09:05Z</time>
      </trkpt>
      <trkpt lat="42.3882160" lon="-3.3175840">
        <ele>1017.4</ele>
        <time>2022-08-29T11:09:06Z</time>
      </trkpt>
      <trkpt lat="42.3882140" lon="-3.3176020">
        <ele>1017.4</ele>
        <time>2022-08-29T11:09:07Z</time>
      </trkpt>
      <trkpt lat="42.3882120" lon="-3.3176210">
        <ele>1017.8</ele>
        <time>2022-08-29T11:09:08Z</time>
      </trkpt>
      <trkpt lat="42.3882100" lon="-3.3176390">
        <ele>1017.8</ele>
        <time>2022-08-29T11:09:09Z</time>
      </trkpt>
      <trkpt lat="42.3882060" lon="-3.3176570">
        <ele>1018.0</ele>
        <time>2022-08-29T11:09:10Z</time>
      </trkpt>
      <trkpt lat="42.3882020" lon="-3.3176740">
        <ele>1018.4</ele>
        <time>2022-08-29T11:09:11Z</time>
      </trkpt>
      <trkpt lat="42.3882000" lon="-3.3176930">
        <ele>1018.4</ele>
        <time>2022-08-29T11:09:12Z</time>
      </trkpt>
      <trkpt lat="42.3881970" lon="-3.3177120">
        <ele>1018.6</ele>
        <time>2022-08-29T11:09:13Z</time>
      </trkpt>
      <trkpt lat="42.3881920" lon="-3.3177290">
        <ele>1018.8</ele>
        <time>2022-08-29T11:09:14Z</time>
      </trkpt>
      <trkpt lat="42.3881880" lon="-3.3177450">
        <ele>1019.0</ele>
        <time>2022-08-29T11:09:15Z</time>
      </trkpt>
      <trkpt lat="42.3881830" lon="-3.3177600">
        <ele>1019.4</ele>
        <time>2022-08-29T11:09:16Z</time>
      </trkpt>
      <trkpt lat="42.3881790" lon="-3.3177760">
        <ele>1019.6</ele>
        <time>2022-08-29T11:09:17Z</time>
      </trkpt>
      <trkpt lat="42.3881770" lon="-3.3177920">
        <ele>1019.8</ele>
        <time>2022-08-29T11:09:18Z</time>
      </trkpt>
      <trkpt lat="42.3881740" lon="-3.3178090">
        <ele>1020.0</ele>
        <time>2022-08-29T11:09:19Z</time>
      </trkpt>
      <trkpt lat="42.3881700" lon="-3.3178240">
        <ele>1020.2</ele>
        <time>2022-08-29T11:09:20Z</time>
      </trkpt>
      <trkpt lat="42.3881660" lon="-3.3178410">
        <ele>1020.4</ele>
        <time>2022-08-29T11:09:21Z</time>
      </trkpt>
      <trkpt lat="42.3881630" lon="-3.3178590">
        <ele>1020.6</ele>
        <time>2022-08-29T11:09:22Z</time>
      </trkpt>
      <trkpt lat="42.3881610" lon="-3.3178770">
        <ele>1020.8</ele>
        <time>2022-08-29T11:09:23Z</time>
      </trkpt>
      <trkpt lat="42.3881570" lon="-3.3178980">
        <ele>1021.0</ele>
        <time>2022-08-29T11:09:24Z</time>
      </trkpt>
      <trkpt lat="42.3881530" lon="-3.3179190">
        <ele>1021.0</ele>
        <time>2022-08-29T11:09:25Z</time>
      </trkpt>
      <trkpt lat="42.3881500" lon="-3.3179370">
        <ele>1021.4</ele>
        <time>2022-08-29T11:09:26Z</time>
      </trkpt>
      <trkpt lat="42.3881460" lon="-3.3179550">
        <ele>1021.4</ele>
        <time>2022-08-29T11:09:27Z</time>
      </trkpt>
      <trkpt lat="42.3881410" lon="-3.3179750">
        <ele>1021.4</ele>
        <time>2022-08-29T11:09:28Z</time>
      </trkpt>
      <trkpt lat="42.3881370" lon="-3.3179940">
        <ele>1021.6</ele>
        <time>2022-08-29T11:09:29Z</time>
      </trkpt>
      <trkpt lat="42.3881320" lon="-3.3180130">
        <ele>1021.6</ele>
        <time>2022-08-29T11:09:30Z</time>
      </trkpt>
      <trkpt lat="42.3881260" lon="-3.3180320">
        <ele>1021.8</ele>
        <time>2022-08-29T11:09:31Z</time>
      </trkpt>
      <trkpt lat="42.3881220" lon="-3.3180510">
        <ele>1021.8</ele>
        <time>2022-08-29T11:09:32Z</time>
      </trkpt>
      <trkpt lat="42.3881200" lon="-3.3180720">
        <ele>1021.8</ele>
        <time>2022-08-29T11:09:33Z</time>
      </trkpt>
      <trkpt lat="42.3881160" lon="-3.3180910">
        <ele>1022.0</ele>
        <time>2022-08-29T11:09:34Z</time>
      </trkpt>
      <trkpt lat="42.3881120" lon="-3.3181100">
        <ele>1022.2</ele>
        <time>2022-08-29T11:09:35Z</time>
      </trkpt>
      <trkpt lat="42.3881080" lon="-3.3181290">
        <ele>1022.6</ele>
        <time>2022-08-29T11:09:36Z</time>
      </trkpt>
      <trkpt lat="42.3881060" lon="-3.3181520">
        <ele>1022.8</ele>
        <time>2022-08-29T11:09:37Z</time>
      </trkpt>
      <trkpt lat="42.3881070" lon="-3.3181740">
        <ele>1022.8</ele>
        <time>2022-08-29T11:09:38Z</time>
      </trkpt>
      <trkpt lat="42.3881060" lon="-3.3181960">
        <ele>1023.0</ele>
        <time>2022-08-29T11:09:39Z</time>
      </trkpt>
      <trkpt lat="42.3881030" lon="-3.3182180">
        <ele>1023.0</ele>
        <time>2022-08-29T11:09:40Z</time>
      </trkpt>
      <trkpt lat="42.3880980" lon="-3.3182380">
        <ele>1023.2</ele>
        <time>2022-08-29T11:09:41Z</time>
      </trkpt>
      <trkpt lat="42.3880960" lon="-3.3182600">
        <ele>1023.2</ele>
        <time>2022-08-29T11:09:42Z</time>
      </trkpt>
      <trkpt lat="42.3880940" lon="-3.3182810">
        <ele>1023.4</ele>
        <time>2022-08-29T11:09:43Z</time>
      </trkpt>
      <trkpt lat="42.3880880" lon="-3.3182990">
        <ele>1023.6</ele>
        <time>2022-08-29T11:09:44Z</time>
      </trkpt>
      <trkpt lat="42.3880850" lon="-3.3183200">
        <ele>1023.8</ele>
        <time>2022-08-29T11:09:45Z</time>
      </trkpt>
      <trkpt lat="42.3880830" lon="-3.3183420">
        <ele>1023.8</ele>
        <time>2022-08-29T11:09:46Z</time>
      </trkpt>
      <trkpt lat="42.3880790" lon="-3.3183640">
        <ele>1024.0</ele>
        <time>2022-08-29T11:09:47Z</time>
      </trkpt>
      <trkpt lat="42.3880740" lon="-3.3183840">
        <ele>1024.0</ele>
        <time>2022-08-29T11:09:48Z</time>
      </trkpt>
      <trkpt lat="42.3880680" lon="-3.3184050">
        <ele>1024.0</ele>
        <time>2022-08-29T11:09:49Z</time>
      </trkpt>
      <trkpt lat="42.3880640" lon="-3.3184260">
        <ele>1024.2</ele>
        <time>2022-08-29T11:09:50Z</time>
      </trkpt>
      <trkpt lat="42.3880610" lon="-3.3184480">
        <ele>1024.4</ele>
        <time>2022-08-29T11:09:51Z</time>
      </trkpt>
      <trkpt lat="42.3880590" lon="-3.3184690">
        <ele>1024.6</ele>
        <time>2022-08-29T11:09:52Z</time>
      </trkpt>
      <trkpt lat="42.3880580" lon="-3.3184920">
        <ele>1025.0</ele>
        <time>2022-08-29T11:09:53Z</time>
      </trkpt>
      <trkpt lat="42.3880550" lon="-3.3185130">
        <ele>1025.0</ele>
        <time>2022-08-29T11:09:54Z</time>
      </trkpt>
      <trkpt lat="42.3880480" lon="-3.3185320">
        <ele>1025.4</ele>
        <time>2022-08-29T11:09:55Z</time>
      </trkpt>
      <trkpt lat="42.3880400" lon="-3.3185520">
        <ele>1025.2</ele>
        <time>2022-08-29T11:09:56Z</time>
      </trkpt>
      <trkpt lat="42.3880330" lon="-3.3185740">
        <ele>1025.4</ele>
        <time>2022-08-29T11:09:57Z</time>
      </trkpt>
      <trkpt lat="42.3880260" lon="-3.3185950">
        <ele>1025.4</ele>
        <time>2022-08-29T11:09:58Z</time>
      </trkpt>
      <trkpt lat="42.3880190" lon="-3.3186170">
        <ele>1025.6</ele>
        <time>2022-08-29T11:09:59Z</time>
      </trkpt>
      <trkpt lat="42.3880120" lon="-3.3186400">
        <ele>1025.8</ele>
        <time>2022-08-29T11:10:00Z</time>
      </trkpt>
      <trkpt lat="42.3880070" lon="-3.3186630">
        <ele>1025.8</ele>
        <time>2022-08-29T11:10:01Z</time>
      </trkpt>
      <trkpt lat="42.3880020" lon="-3.3186860">
        <ele>1026.2</ele>
        <time>2022-08-29T11:10:02Z</time>
      </trkpt>
      <trkpt lat="42.3879930" lon="-3.3187090">
        <ele>1026.2</ele>
        <time>2022-08-29T11:10:03Z</time>
      </trkpt>
      <trkpt lat="42.3879840" lon="-3.3187310">
        <ele>1026.4</ele>
        <time>2022-08-29T11:10:04Z</time>
      </trkpt>
      <trkpt lat="42.3879760" lon="-3.3187550">
        <ele>1026.6</ele>
        <time>2022-08-29T11:10:05Z</time>
      </trkpt>
      <trkpt lat="42.3879670" lon="-3.3187770">
        <ele>1026.6</ele>
        <time>2022-08-29T11:10:06Z</time>
      </trkpt>
      <trkpt lat="42.3879620" lon="-3.3188020">
        <ele>1026.8</ele>
        <time>2022-08-29T11:10:07Z</time>
      </trkpt>
      <trkpt lat="42.3879600" lon="-3.3188280">
        <ele>1027.0</ele>
        <time>2022-08-29T11:10:08Z</time>
      </trkpt>
      <trkpt lat="42.3879580" lon="-3.3188540">
        <ele>1027.2</ele>
        <time>2022-08-29T11:10:09Z</time>
      </trkpt>
      <trkpt lat="42.3879550" lon="-3.3188780">
        <ele>1027.4</ele>
        <time>2022-08-29T11:10:10Z</time>
      </trkpt>
      <trkpt lat="42.3879480" lon="-3.3188990">
        <ele>1027.4</ele>
        <time>2022-08-29T11:10:11Z</time>
      </trkpt>
      <trkpt lat="42.3879400" lon="-3.3189180">
        <ele>1027.4</ele>
        <time>2022-08-29T11:10:12Z</time>
      </trkpt>
      <trkpt lat="42.3879300" lon="-3.3189370">
        <ele>1027.4</ele>
        <time>2022-08-29T11:10:13Z</time>
      </trkpt>
      <trkpt lat="42.3879190" lon="-3.3189560">
        <ele>1027.6</ele>
        <time>2022-08-29T11:10:14Z</time>
      </trkpt>
      <trkpt lat="42.3879140" lon="-3.3189780">
        <ele>1027.6</ele>
        <time>2022-08-29T11:10:15Z</time>
      </trkpt>
      <trkpt lat="42.3879070" lon="-3.3190040">
        <ele>1027.6</ele>
        <time>2022-08-29T11:10:16Z</time>
      </trkpt>
      <trkpt lat="42.3879000" lon="-3.3190250">
        <ele>1027.8</ele>
        <time>2022-08-29T11:10:17Z</time>
      </trkpt>
      <trkpt lat="42.3878900" lon="-3.3190430">
        <ele>1028.0</ele>
        <time>2022-08-29T11:10:18Z</time>
      </trkpt>
      <trkpt lat="42.3878810" lon="-3.3190620">
        <ele>1027.8</ele>
        <time>2022-08-29T11:10:19Z</time>
      </trkpt>
      <trkpt lat="42.3878720" lon="-3.3190800">
        <ele>1028.0</ele>
        <time>2022-08-29T11:10:20Z</time>
      </trkpt>
      <trkpt lat="42.3878600" lon="-3.3190970">
        <ele>1028.2</ele>
        <time>2022-08-29T11:10:21Z</time>
      </trkpt>
      <trkpt lat="42.3878490" lon="-3.3191150">
        <ele>1028.0</ele>
        <time>2022-08-29T11:10:22Z</time>
      </trkpt>
      <trkpt lat="42.3878400" lon="-3.3191360">
        <ele>1028.0</ele>
        <time>2022-08-29T11:10:23Z</time>
      </trkpt>
      <trkpt lat="42.3878310" lon="-3.3191560">
        <ele>1028.8</ele>
        <time>2022-08-29T11:10:24Z</time>
      </trkpt>
      <trkpt lat="42.3878190" lon="-3.3191760">
        <ele>1029.2</ele>
        <time>2022-08-29T11:10:25Z</time>
      </trkpt>
      <trkpt lat="42.3878090" lon="-3.3191970">
        <ele>1029.4</ele>
        <time>2022-08-29T11:10:26Z</time>
      </trkpt>
      <trkpt lat="42.3877980" lon="-3.3192190">
        <ele>1029.6</ele>
        <time>2022-08-29T11:10:27Z</time>
      </trkpt>
      <trkpt lat="42.3877890" lon="-3.3192390">
        <ele>1029.6</ele>
        <time>2022-08-29T11:10:28Z</time>
      </trkpt>
      <trkpt lat="42.3877790" lon="-3.3192600">
        <ele>1029.8</ele>
        <time>2022-08-29T11:10:29Z</time>
      </trkpt>
      <trkpt lat="42.3877680" lon="-3.3192820">
        <ele>1030.0</ele>
        <time>2022-08-29T11:10:30Z</time>
      </trkpt>
      <trkpt lat="42.3877580" lon="-3.3193050">
        <ele>1030.0</ele>
        <time>2022-08-29T11:10:31Z</time>
      </trkpt>
      <trkpt lat="42.3877480" lon="-3.3193260">
        <ele>1030.4</ele>
        <time>2022-08-29T11:10:32Z</time>
      </trkpt>
      <trkpt lat="42.3877390" lon="-3.3193470">
        <ele>1030.4</ele>
        <time>2022-08-29T11:10:33Z</time>
      </trkpt>
      <trkpt lat="42.3877300" lon="-3.3193690">
        <ele>1030.4</ele>
        <time>2022-08-29T11:10:34Z</time>
      </trkpt>
      <trkpt lat="42.3877210" lon="-3.3193900">
        <ele>1030.8</ele>
        <time>2022-08-29T11:10:35Z</time>
      </trkpt>
      <trkpt lat="42.3877130" lon="-3.3194110">
        <ele>1031.0</ele>
        <time>2022-08-29T11:10:36Z</time>
      </trkpt>
      <trkpt lat="42.3877040" lon="-3.3194310">
        <ele>1031.0</ele>
        <time>2022-08-29T11:10:37Z</time>
      </trkpt>
      <trkpt lat="42.3876960" lon="-3.3194510">
        <ele>1031.0</ele>
        <time>2022-08-29T11:10:38Z</time>
      </trkpt>
      <trkpt lat="42.3876870" lon="-3.3194720">
        <ele>1031.2</ele>
        <time>2022-08-29T11:10:39Z</time>
      </trkpt>
      <trkpt lat="42.3876780" lon="-3.3194930">
        <ele>1031.4</ele>
        <time>2022-08-29T11:10:40Z</time>
      </trkpt>
      <trkpt lat="42.3876690" lon="-3.3195130">
        <ele>1031.8</ele>
        <time>2022-08-29T11:10:41Z</time>
      </trkpt>
      <trkpt lat="42.3876610" lon="-3.3195330">
        <ele>1032.0</ele>
        <time>2022-08-29T11:10:42Z</time>
      </trkpt>
      <trkpt lat="42.3876530" lon="-3.3195540">
        <ele>1032.2</ele>
        <time>2022-08-29T11:10:43Z</time>
      </trkpt>
      <trkpt lat="42.3876430" lon="-3.3195730">
        <ele>1032.4</ele>
        <time>2022-08-29T11:10:44Z</time>
      </trkpt>
      <trkpt lat="42.3876330" lon="-3.3195930">
        <ele>1032.4</ele>
        <time>2022-08-29T11:10:45Z</time>
      </trkpt>
      <trkpt lat="42.3876250" lon="-3.3196140">
        <ele>1032.6</ele>
        <time>2022-08-29T11:10:46Z</time>
      </trkpt>
      <trkpt lat="42.3876170" lon="-3.3196340">
        <ele>1032.6</ele>
        <time>2022-08-29T11:10:47Z</time>
      </trkpt>
      <trkpt lat="42.3876100" lon="-3.3196540">
        <ele>1032.8</ele>
        <time>2022-08-29T11:10:48Z</time>
      </trkpt>
      <trkpt lat="42.3876030" lon="-3.3196740">
        <ele>1032.8</ele>
        <time>2022-08-29T11:10:49Z</time>
      </trkpt>
      <trkpt lat="42.3875970" lon="-3.3196940">
        <ele>1033.0</ele>
        <time>2022-08-29T11:10:50Z</time>
      </trkpt>
      <trkpt lat="42.3875910" lon="-3.3197150">
        <ele>1033.2</ele>
        <time>2022-08-29T11:10:51Z</time>
      </trkpt>
      <trkpt lat="42.3875820" lon="-3.3197350">
        <ele>1033.2</ele>
        <time>2022-08-29T11:10:52Z</time>
      </trkpt>
      <trkpt lat="42.3875740" lon="-3.3197570">
        <ele>1033.6</ele>
        <time>2022-08-29T11:10:53Z</time>
      </trkpt>
      <trkpt lat="42.3875670" lon="-3.3197770">
        <ele>1033.6</ele>
        <time>2022-08-29T11:10:54Z</time>
      </trkpt>
      <trkpt lat="42.3875590" lon="-3.3197950">
        <ele>1033.8</ele>
        <time>2022-08-29T11:10:55Z</time>
      </trkpt>
      <trkpt lat="42.3875490" lon="-3.3198140">
        <ele>1034.0</ele>
        <time>2022-08-29T11:10:56Z</time>
      </trkpt>
      <trkpt lat="42.3875390" lon="-3.3198320">
        <ele>1034.2</ele>
        <time>2022-08-29T11:10:57Z</time>
      </trkpt>
      <trkpt lat="42.3875320" lon="-3.3198520">
        <ele>1034.2</ele>
        <time>2022-08-29T11:10:58Z</time>
      </trkpt>
      <trkpt lat="42.3875250" lon="-3.3198730">
        <ele>1034.4</ele>
        <time>2022-08-29T11:10:59Z</time>
      </trkpt>
      <trkpt lat="42.3875170" lon="-3.3198940">
        <ele>1034.4</ele>
        <time>2022-08-29T11:11:00Z</time>
      </trkpt>
      <trkpt lat="42.3875070" lon="-3.3199150">
        <ele>1034.4</ele>
        <time>2022-08-29T11:11:01Z</time>
      </trkpt>
      <trkpt lat="42.3875010" lon="-3.3199340">
        <ele>1034.8</ele>
        <time>2022-08-29T11:11:02Z</time>
      </trkpt>
      <trkpt lat="42.3874960" lon="-3.3199510">
        <ele>1035.0</ele>
        <time>2022-08-29T11:11:03Z</time>
      </trkpt>
      <trkpt lat="42.3874880" lon="-3.3199690">
        <ele>1035.2</ele>
        <time>2022-08-29T11:11:04Z</time>
      </trkpt>
      <trkpt lat="42.3874790" lon="-3.3199890">
        <ele>1035.2</ele>
        <time>2022-08-29T11:11:05Z</time>
      </trkpt>
      <trkpt lat="42.3874700" lon="-3.3200090">
        <ele>1035.2</ele>
        <time>2022-08-29T11:11:06Z</time>
      </trkpt>
      <trkpt lat="42.3874600" lon="-3.3200280">
        <ele>1035.4</ele>
        <time>2022-08-29T11:11:07Z</time>
      </trkpt>
      <trkpt lat="42.3874490" lon="-3.3200470">
        <ele>1035.4</ele>
        <time>2022-08-29T11:11:08Z</time>
      </trkpt>
      <trkpt lat="42.3874410" lon="-3.3200630">
        <ele>1035.6</ele>
        <time>2022-08-29T11:11:09Z</time>
      </trkpt>
      <trkpt lat="42.3874290" lon="-3.3200860">
        <ele>1035.6</ele>
        <time>2022-08-29T11:11:10Z</time>
      </trkpt>
      <trkpt lat="42.3874150" lon="-3.3201100">
        <ele>1036.0</ele>
        <time>2022-08-29T11:11:11Z</time>
      </trkpt>
      <trkpt lat="42.3874030" lon="-3.3201350">
        <ele>1036.0</ele>
        <time>2022-08-29T11:11:12Z</time>
      </trkpt>
      <trkpt lat="42.3873920" lon="-3.3201590">
        <ele>1036.2</ele>
        <time>2022-08-29T11:11:13Z</time>
      </trkpt>
      <trkpt lat="42.3873800" lon="-3.3201810">
        <ele>1036.2</ele>
        <time>2022-08-29T11:11:14Z</time>
      </trkpt>
      <trkpt lat="42.3873690" lon="-3.3202010">
        <ele>1036.2</ele>
        <time>2022-08-29T11:11:15Z</time>
      </trkpt>
      <trkpt lat="42.3873550" lon="-3.3202210">
        <ele>1036.6</ele>
        <time>2022-08-29T11:11:16Z</time>
      </trkpt>
      <trkpt lat="42.3873430" lon="-3.3202420">
        <ele>1036.6</ele>
        <time>2022-08-29T11:11:17Z</time>
      </trkpt>
      <trkpt lat="42.3873340" lon="-3.3202640">
        <ele>1036.6</ele>
        <time>2022-08-29T11:11:18Z</time>
      </trkpt>
      <trkpt lat="42.3873240" lon="-3.3202870">
        <ele>1036.8</ele>
        <time>2022-08-29T11:11:19Z</time>
      </trkpt>
      <trkpt lat="42.3873130" lon="-3.3203090">
        <ele>1036.6</ele>
        <time>2022-08-29T11:11:20Z</time>
      </trkpt>
      <trkpt lat="42.3872990" lon="-3.3203310">
        <ele>1036.8</ele>
        <time>2022-08-29T11:11:21Z</time>
      </trkpt>
      <trkpt lat="42.3872880" lon="-3.3203530">
        <ele>1036.8</ele>
        <time>2022-08-29T11:11:22Z</time>
      </trkpt>
      <trkpt lat="42.3872770" lon="-3.3203750">
        <ele>1036.8</ele>
        <time>2022-08-29T11:11:23Z</time>
      </trkpt>
      <trkpt lat="42.3872690" lon="-3.3203960">
        <ele>1036.8</ele>
        <time>2022-08-29T11:11:24Z</time>
      </trkpt>
      <trkpt lat="42.3872610" lon="-3.3204180">
        <ele>1037.0</ele>
        <time>2022-08-29T11:11:25Z</time>
      </trkpt>
      <trkpt lat="42.3872520" lon="-3.3204420">
        <ele>1037.2</ele>
        <time>2022-08-29T11:11:26Z</time>
      </trkpt>
      <trkpt lat="42.3872440" lon="-3.3204640">
        <ele>1037.2</ele>
        <time>2022-08-29T11:11:27Z</time>
      </trkpt>
      <trkpt lat="42.3872340" lon="-3.3204890">
        <ele>1037.2</ele>
        <time>2022-08-29T11:11:28Z</time>
      </trkpt>
      <trkpt lat="42.3872260" lon="-3.3205120">
        <ele>1037.4</ele>
        <time>2022-08-29T11:11:29Z</time>
      </trkpt>
      <trkpt lat="42.3872180" lon="-3.3205350">
        <ele>1037.4</ele>
        <time>2022-08-29T11:11:30Z</time>
      </trkpt>
      <trkpt lat="42.3872120" lon="-3.3205580">
        <ele>1037.6</ele>
        <time>2022-08-29T11:11:31Z</time>
      </trkpt>
      <trkpt lat="42.3872070" lon="-3.3205800">
        <ele>1037.6</ele>
        <time>2022-08-29T11:11:32Z</time>
      </trkpt>
      <trkpt lat="42.3872020" lon="-3.3206020">
        <ele>1037.8</ele>
        <time>2022-08-29T11:11:33Z</time>
      </trkpt>
      <trkpt lat="42.3871980" lon="-3.3206220">
        <ele>1038.2</ele>
        <time>2022-08-29T11:11:34Z</time>
      </trkpt>
      <trkpt lat="42.3871940" lon="-3.3206430">
        <ele>1038.4</ele>
        <time>2022-08-29T11:11:35Z</time>
      </trkpt>
      <trkpt lat="42.3871880" lon="-3.3206660">
        <ele>1038.6</ele>
        <time>2022-08-29T11:11:36Z</time>
      </trkpt>
      <trkpt lat="42.3871830" lon="-3.3206880">
        <ele>1038.6</ele>
        <time>2022-08-29T11:11:37Z</time>
      </trkpt>
      <trkpt lat="42.3871790" lon="-3.3207120">
        <ele>1038.8</ele>
        <time>2022-08-29T11:11:38Z</time>
      </trkpt>
      <trkpt lat="42.3871730" lon="-3.3207350">
        <ele>1038.6</ele>
        <time>2022-08-29T11:11:39Z</time>
      </trkpt>
      <trkpt lat="42.3871650" lon="-3.3207590">
        <ele>1039.0</ele>
        <time>2022-08-29T11:11:40Z</time>
      </trkpt>
      <trkpt lat="42.3871530" lon="-3.3207840">
        <ele>1039.4</ele>
        <time>2022-08-29T11:11:41Z</time>
      </trkpt>
      <trkpt lat="42.3871440" lon="-3.3208080">
        <ele>1039.4</ele>
        <time>2022-08-29T11:11:42Z</time>
      </trkpt>
      <trkpt lat="42.3871360" lon="-3.3208310">
        <ele>1039.6</ele>
        <time>2022-08-29T11:11:43Z</time>
      </trkpt>
      <trkpt lat="42.3871290" lon="-3.3208530">
        <ele>1040.0</ele>
        <time>2022-08-29T11:11:44Z</time>
      </trkpt>
      <trkpt lat="42.3871230" lon="-3.3208740">
        <ele>1040.0</ele>
        <time>2022-08-29T11:11:45Z</time>
      </trkpt>
      <trkpt lat="42.3871170" lon="-3.3208950">
        <ele>1040.2</ele>
        <time>2022-08-29T11:11:46Z</time>
      </trkpt>
      <trkpt lat="42.3871060" lon="-3.3209150">
        <ele>1040.2</ele>
        <time>2022-08-29T11:11:47Z</time>
      </trkpt>
      <trkpt lat="42.3870980" lon="-3.3209390">
        <ele>1040.4</ele>
        <time>2022-08-29T11:11:48Z</time>
      </trkpt>
      <trkpt lat="42.3870910" lon="-3.3209600">
        <ele>1040.4</ele>
        <time>2022-08-29T11:11:49Z</time>
      </trkpt>
      <trkpt lat="42.3870810" lon="-3.3209820">
        <ele>1040.6</ele>
        <time>2022-08-29T11:11:50Z</time>
      </trkpt>
      <trkpt lat="42.3870760" lon="-3.3210030">
        <ele>1040.6</ele>
        <time>2022-08-29T11:11:51Z</time>
      </trkpt>
      <trkpt lat="42.3870690" lon="-3.3210280">
        <ele>1040.8</ele>
        <time>2022-08-29T11:11:52Z</time>
      </trkpt>
      <trkpt lat="42.3870610" lon="-3.3210520">
        <ele>1041.0</ele>
        <time>2022-08-29T11:11:53Z</time>
      </trkpt>
      <trkpt lat="42.3870540" lon="-3.3210760">
        <ele>1041.0</ele>
        <time>2022-08-29T11:11:54Z</time>
      </trkpt>
      <trkpt lat="42.3870480" lon="-3.3210990">
        <ele>1041.0</ele>
        <time>2022-08-29T11:11:55Z</time>
      </trkpt>
      <trkpt lat="42.3870420" lon="-3.3211220">
        <ele>1041.0</ele>
        <time>2022-08-29T11:11:56Z</time>
      </trkpt>
      <trkpt lat="42.3870360" lon="-3.3211420">
        <ele>1041.2</ele>
        <time>2022-08-29T11:11:57Z</time>
      </trkpt>
      <trkpt lat="42.3870290" lon="-3.3211620">
        <ele>1041.4</ele>
        <time>2022-08-29T11:11:58Z</time>
      </trkpt>
      <trkpt lat="42.3870200" lon="-3.3211830">
        <ele>1041.4</ele>
        <time>2022-08-29T11:11:59Z</time>
      </trkpt>
      <trkpt lat="42.3870140" lon="-3.3212050">
        <ele>1041.6</ele>
        <time>2022-08-29T11:12:00Z</time>
      </trkpt>
      <trkpt lat="42.3870080" lon="-3.3212250">
        <ele>1041.6</ele>
        <time>2022-08-29T11:12:01Z</time>
      </trkpt>
      <trkpt lat="42.3870010" lon="-3.3212460">
        <ele>1041.8</ele>
        <time>2022-08-29T11:12:02Z</time>
      </trkpt>
      <trkpt lat="42.3869950" lon="-3.3212640">
        <ele>1042.0</ele>
        <time>2022-08-29T11:12:03Z</time>
      </trkpt>
      <trkpt lat="42.3869910" lon="-3.3212850">
        <ele>1042.0</ele>
        <time>2022-08-29T11:12:04Z</time>
      </trkpt>
      <trkpt lat="42.3869890" lon="-3.3213070">
        <ele>1042.2</ele>
        <time>2022-08-29T11:12:05Z</time>
      </trkpt>
      <trkpt lat="42.3869870" lon="-3.3213280">
        <ele>1042.4</ele>
        <time>2022-08-29T11:12:06Z</time>
      </trkpt>
      <trkpt lat="42.3869840" lon="-3.3213440">
        <ele>1042.6</ele>
        <time>2022-08-29T11:12:07Z</time>
      </trkpt>
      <trkpt lat="42.3869790" lon="-3.3213610">
        <ele>1042.6</ele>
        <time>2022-08-29T11:12:08Z</time>
      </trkpt>
      <trkpt lat="42.3869600" lon="-3.3213870">
        <ele>1042.8</ele>
        <time>2022-08-29T11:12:09Z</time>
      </trkpt>
      <trkpt lat="42.3869540" lon="-3.3214060">
        <ele>1042.8</ele>
        <time>2022-08-29T11:12:10Z</time>
      </trkpt>
      <trkpt lat="42.3869470" lon="-3.3214240">
        <ele>1043.0</ele>
        <time>2022-08-29T11:12:11Z</time>
      </trkpt>
      <trkpt lat="42.3869360" lon="-3.3214420">
        <ele>1043.0</ele>
        <time>2022-08-29T11:12:12Z</time>
      </trkpt>
      <trkpt lat="42.3869270" lon="-3.3214600">
        <ele>1043.2</ele>
        <time>2022-08-29T11:12:13Z</time>
      </trkpt>
      <trkpt lat="42.3869160" lon="-3.3214800">
        <ele>1043.4</ele>
        <time>2022-08-29T11:12:14Z</time>
      </trkpt>
      <trkpt lat="42.3869090" lon="-3.3214980">
        <ele>1043.6</ele>
        <time>2022-08-29T11:12:15Z</time>
      </trkpt>
      <trkpt lat="42.3868930" lon="-3.3215190">
        <ele>1043.8</ele>
        <time>2022-08-29T11:12:16Z</time>
      </trkpt>
      <trkpt lat="42.3868790" lon="-3.3215380">
        <ele>1044.0</ele>
        <time>2022-08-29T11:12:17Z</time>
      </trkpt>
      <trkpt lat="42.3868700" lon="-3.3215560">
        <ele>1044.0</ele>
        <time>2022-08-29T11:12:18Z</time>
      </trkpt>
      <trkpt lat="42.3868550" lon="-3.3215770">
        <ele>1044.2</ele>
        <time>2022-08-29T11:12:19Z</time>
      </trkpt>
      <trkpt lat="42.3868450" lon="-3.3215970">
        <ele>1044.4</ele>
        <time>2022-08-29T11:12:20Z</time>
      </trkpt>
      <trkpt lat="42.3868350" lon="-3.3216170">
        <ele>1044.6</ele>
        <time>2022-08-29T11:12:21Z</time>
      </trkpt>
      <trkpt lat="42.3868250" lon="-3.3216370">
        <ele>1044.8</ele>
        <time>2022-08-29T11:12:22Z</time>
      </trkpt>
      <trkpt lat="42.3868180" lon="-3.3216550">
        <ele>1044.8</ele>
        <time>2022-08-29T11:12:23Z</time>
      </trkpt>
      <trkpt lat="42.3868100" lon="-3.3216750">
        <ele>1045.0</ele>
        <time>2022-08-29T11:12:24Z</time>
      </trkpt>
      <trkpt lat="42.3868020" lon="-3.3216950">
        <ele>1045.4</ele>
        <time>2022-08-29T11:12:25Z</time>
      </trkpt>
      <trkpt lat="42.3867960" lon="-3.3217150">
        <ele>1045.4</ele>
        <time>2022-08-29T11:12:26Z</time>
      </trkpt>
      <trkpt lat="42.3867910" lon="-3.3217340">
        <ele>1045.6</ele>
        <time>2022-08-29T11:12:27Z</time>
      </trkpt>
      <trkpt lat="42.3867850" lon="-3.3217520">
        <ele>1045.6</ele>
        <time>2022-08-29T11:12:28Z</time>
      </trkpt>
      <trkpt lat="42.3867800" lon="-3.3217710">
        <ele>1046.2</ele>
        <time>2022-08-29T11:12:29Z</time>
      </trkpt>
      <trkpt lat="42.3867770" lon="-3.3217910">
        <ele>1046.4</ele>
        <time>2022-08-29T11:12:30Z</time>
      </trkpt>
      <trkpt lat="42.3867720" lon="-3.3218090">
        <ele>1046.6</ele>
        <time>2022-08-29T11:12:31Z</time>
      </trkpt>
      <trkpt lat="42.3867670" lon="-3.3218270">
        <ele>1047.0</ele>
        <time>2022-08-29T11:12:32Z</time>
      </trkpt>
      <trkpt lat="42.3867630" lon="-3.3218460">
        <ele>1047.0</ele>
        <time>2022-08-29T11:12:33Z</time>
      </trkpt>
      <trkpt lat="42.3867590" lon="-3.3218640">
        <ele>1047.4</ele>
        <time>2022-08-29T11:12:34Z</time>
      </trkpt>
      <trkpt lat="42.3867550" lon="-3.3218830">
        <ele>1047.4</ele>
        <time>2022-08-29T11:12:35Z</time>
      </trkpt>
      <trkpt lat="42.3867510" lon="-3.3219040">
        <ele>1047.4</ele>
        <time>2022-08-29T11:12:36Z</time>
      </trkpt>
      <trkpt lat="42.3867480" lon="-3.3219250">
        <ele>1047.4</ele>
        <time>2022-08-29T11:12:37Z</time>
      </trkpt>
      <trkpt lat="42.3867440" lon="-3.3219460">
        <ele>1047.8</ele>
        <time>2022-08-29T11:12:38Z</time>
      </trkpt>
      <trkpt lat="42.3867390" lon="-3.3219680">
        <ele>1048.0</ele>
        <time>2022-08-29T11:12:39Z</time>
      </trkpt>
      <trkpt lat="42.3867330" lon="-3.3219890">
        <ele>1048.2</ele>
        <time>2022-08-29T11:12:40Z</time>
      </trkpt>
      <trkpt lat="42.3867260" lon="-3.3220100">
        <ele>1048.2</ele>
        <time>2022-08-29T11:12:41Z</time>
      </trkpt>
      <trkpt lat="42.3867200" lon="-3.3220310">
        <ele>1048.6</ele>
        <time>2022-08-29T11:12:42Z</time>
      </trkpt>
      <trkpt lat="42.3867140" lon="-3.3220550">
        <ele>1048.8</ele>
        <time>2022-08-29T11:12:43Z</time>
      </trkpt>
      <trkpt lat="42.3867090" lon="-3.3220810">
        <ele>1049.0</ele>
        <time>2022-08-29T11:12:44Z</time>
      </trkpt>
      <trkpt lat="42.3867010" lon="-3.3221050">
        <ele>1049.4</ele>
        <time>2022-08-29T11:12:45Z</time>
      </trkpt>
      <trkpt lat="42.3866880" lon="-3.3221260">
        <ele>1049.6</ele>
        <time>2022-08-29T11:12:46Z</time>
      </trkpt>
      <trkpt lat="42.3866740" lon="-3.3221440">
        <ele>1049.6</ele>
        <time>2022-08-29T11:12:47Z</time>
      </trkpt>
      <trkpt lat="42.3866590" lon="-3.3221620">
        <ele>1049.8</ele>
        <time>2022-08-29T11:12:48Z</time>
      </trkpt>
      <trkpt lat="42.3866480" lon="-3.3221800">
        <ele>1049.8</ele>
        <time>2022-08-29T11:12:49Z</time>
      </trkpt>
      <trkpt lat="42.3866380" lon="-3.3221970">
        <ele>1050.0</ele>
        <time>2022-08-29T11:12:50Z</time>
      </trkpt>
      <trkpt lat="42.3866300" lon="-3.3222110">
        <ele>1050.0</ele>
        <time>2022-08-29T11:12:51Z</time>
      </trkpt>
      <trkpt lat="42.3866250" lon="-3.3222260">
        <ele>1050.0</ele>
        <time>2022-08-29T11:12:52Z</time>
      </trkpt>
      <trkpt lat="42.3866190" lon="-3.3222400">
        <ele>1050.2</ele>
        <time>2022-08-29T11:12:53Z</time>
      </trkpt>
      <trkpt lat="42.3866100" lon="-3.3222510">
        <ele>1050.0</ele>
        <time>2022-08-29T11:12:54Z</time>
      </trkpt>
      <trkpt lat="42.3865980" lon="-3.3222650">
        <ele>1050.2</ele>
        <time>2022-08-29T11:12:55Z</time>
      </trkpt>
      <trkpt lat="42.3865820" lon="-3.3222750">
        <ele>1050.0</ele>
        <time>2022-08-29T11:12:56Z</time>
      </trkpt>
      <trkpt lat="42.3865640" lon="-3.3222850">
        <ele>1050.0</ele>
        <time>2022-08-29T11:12:57Z</time>
      </trkpt>
      <trkpt lat="42.3865480" lon="-3.3222910">
        <ele>1050.2</ele>
        <time>2022-08-29T11:12:58Z</time>
      </trkpt>
      <trkpt lat="42.3865320" lon="-3.3222980">
        <ele>1050.2</ele>
        <time>2022-08-29T11:12:59Z</time>
      </trkpt>
      <trkpt lat="42.3865170" lon="-3.3223020">
        <ele>1050.2</ele>
        <time>2022-08-29T11:13:00Z</time>
      </trkpt>
      <trkpt lat="42.3865010" lon="-3.3223040">
        <ele>1050.2</ele>
        <time>2022-08-29T11:13:01Z</time>
      </trkpt>
      <trkpt lat="42.3864840" lon="-3.3223080">
        <ele>1050.2</ele>
        <time>2022-08-29T11:13:02Z</time>
      </trkpt>
      <trkpt lat="42.3864670" lon="-3.3223100">
        <ele>1050.2</ele>
        <time>2022-08-29T11:13:03Z</time>
      </trkpt>
      <trkpt lat="42.3864520" lon="-3.3223090">
        <ele>1050.4</ele>
        <time>2022-08-29T11:13:04Z</time>
      </trkpt>
      <trkpt lat="42.3864400" lon="-3.3223040">
        <ele>1050.2</ele>
        <time>2022-08-29T11:13:05Z</time>
      </trkpt>
      <trkpt lat="42.3864300" lon="-3.3222980">
        <ele>1050.2</ele>
        <time>2022-08-29T11:13:06Z</time>
      </trkpt>
      <trkpt lat="42.3864210" lon="-3.3222950">
        <ele>1050.4</ele>
        <time>2022-08-29T11:13:07Z</time>
      </trkpt>
      <trkpt lat="42.3864120" lon="-3.3222960">
        <ele>1050.4</ele>
        <time>2022-08-29T11:13:08Z</time>
      </trkpt>
      <trkpt lat="42.3864040" lon="-3.3223000">
        <ele>1050.8</ele>
        <time>2022-08-29T11:13:09Z</time>
      </trkpt>
      <trkpt lat="42.3864000" lon="-3.3223050">
        <ele>1050.8</ele>
        <time>2022-08-29T11:13:10Z</time>
      </trkpt>
      <trkpt lat="42.3864000" lon="-3.3223070">
        <ele>1050.8</ele>
        <time>2022-08-29T11:13:11Z</time>
      </trkpt>
      <trkpt lat="42.3863990" lon="-3.3223080">
        <ele>1051.0</ele>
        <time>2022-08-29T11:13:12Z</time>
      </trkpt>
      <trkpt lat="42.3863990" lon="-3.3223070">
        <ele>1051.0</ele>
        <time>2022-08-29T11:13:13Z</time>
      </trkpt>
      <trkpt lat="42.3863970" lon="-3.3223070">
        <ele>1050.8</ele>
        <time>2022-08-29T11:13:14Z</time>
      </trkpt>
      <trkpt lat="42.3863970" lon="-3.3223070">
        <ele>1051.0</ele>
        <time>2022-08-29T11:13:15Z</time>
      </trkpt>
      <trkpt lat="42.3863970" lon="-3.3223070">
        <ele>1051.0</ele>
        <time>2022-08-29T11:13:16Z</time>
      </trkpt>
      <trkpt lat="42.3863970" lon="-3.3223070">
        <ele>1051.0</ele>
        <time>2022-08-29T11:13:17Z</time>
      </trkpt>
      <trkpt lat="42.3863970" lon="-3.3223070">
        <ele>1051.0</ele>
        <time>2022-08-29T11:13:18Z</time>
      </trkpt>
      <trkpt lat="42.3863970" lon="-3.3223070">
        <ele>1051.0</ele>
        <time>2022-08-29T11:13:19Z</time>
      </trkpt>
      <trkpt lat="42.3863970" lon="-3.3223070">
        <ele>1051.0</ele>
        <time>2022-08-29T11:13:20Z</time>
      </trkpt>
      <trkpt lat="42.3863970" lon="-3.3223070">
        <ele>1051.0</ele>
        <time>2022-08-29T11:13:21Z</time>
      </trkpt>
      <trkpt lat="42.3863970" lon="-3.3223060">
        <ele>1051.0</ele>
        <time>2022-08-29T11:13:22Z</time>
      </trkpt>
      <trkpt lat="42.3863970" lon="-3.3223070">
        <ele>1051.0</ele>
        <time>2022-08-29T11:13:23Z</time>
      </trkpt>
      <trkpt lat="42.3863970" lon="-3.3223070">
        <ele>1051.0</ele>
        <time>2022-08-29T11:13:24Z</time>
      </trkpt>
      <trkpt lat="42.3863970" lon="-3.3223060">
        <ele>1051.0</ele>
        <time>2022-08-29T11:13:25Z</time>
      </trkpt>
      <trkpt lat="42.3863970" lon="-3.3223060">
        <ele>1051.2</ele>
        <time>2022-08-29T11:13:26Z</time>
      </trkpt>
      <trkpt lat="42.3863970" lon="-3.3223060">
        <ele>1051.0</ele>
        <time>2022-08-29T11:13:27Z</time>
      </trkpt>
      <trkpt lat="42.3863970" lon="-3.3223070">
        <ele>1051.2</ele>
        <time>2022-08-29T11:13:28Z</time>
      </trkpt>
      <trkpt lat="42.3863970" lon="-3.3223070">
        <ele>1051.2</ele>
        <time>2022-08-29T11:13:29Z</time>
      </trkpt>
      <trkpt lat="42.3863970" lon="-3.3223070">
        <ele>1051.0</ele>
        <time>2022-08-29T11:13:30Z</time>
      </trkpt>
      <trkpt lat="42.3863970" lon="-3.3223070">
        <ele>1051.2</ele>
        <time>2022-08-29T11:13:31Z</time>
      </trkpt>
      <trkpt lat="42.3863970" lon="-3.3223070">
        <ele>1051.0</ele>
        <time>2022-08-29T11:13:32Z</time>
      </trkpt>
      <trkpt lat="42.3863970" lon="-3.3223070">
        <ele>1051.2</ele>
        <time>2022-08-29T11:13:33Z</time>
      </trkpt>
      <trkpt lat="42.3863970" lon="-3.3223070">
        <ele>1051.0</ele>
        <time>2022-08-29T11:13:34Z</time>
      </trkpt>
      <trkpt lat="42.3863970" lon="-3.3223070">
        <ele>1051.2</ele>
        <time>2022-08-29T11:13:35Z</time>
      </trkpt>
      <trkpt lat="42.3863970" lon="-3.3223070">
        <ele>1051.2</ele>
        <time>2022-08-29T11:13:36Z</time>
      </trkpt>
      <trkpt lat="42.3863970" lon="-3.3223070">
        <ele>1051.0</ele>
        <time>2022-08-29T11:13:37Z</time>
      </trkpt>
      <trkpt lat="42.3863970" lon="-3.3223070">
        <ele>1051.0</ele>
        <time>2022-08-29T11:13:38Z</time>
      </trkpt>
      <trkpt lat="42.3863970" lon="-3.3223070">
        <ele>1051.0</ele>
        <time>2022-08-29T11:13:39Z</time>
      </trkpt>
      <trkpt lat="42.3863970" lon="-3.3223070">
        <ele>1051.2</ele>
        <time>2022-08-29T11:13:40Z</time>
      </trkpt>
      <trkpt lat="42.3863970" lon="-3.3223070">
        <ele>1051.0</ele>
        <time>2022-08-29T11:13:41Z</time>
      </trkpt>
      <trkpt lat="42.3863970" lon="-3.3223060">
        <ele>1051.0</ele>
        <time>2022-08-29T11:13:42Z</time>
      </trkpt>
      <trkpt lat="42.3863970" lon="-3.3223070">
        <ele>1050.8</ele>
        <time>2022-08-29T11:13:43Z</time>
      </trkpt>
      <trkpt lat="42.3863970" lon="-3.3223070">
        <ele>1050.8</ele>
        <time>2022-08-29T11:13:44Z</time>
      </trkpt>
      <trkpt lat="42.3863970" lon="-3.3223070">
        <ele>1050.8</ele>
        <time>2022-08-29T11:13:45Z</time>
      </trkpt>
      <trkpt lat="42.3863970" lon="-3.3223070">
        <ele>1051.0</ele>
        <time>2022-08-29T11:13:46Z</time>
      </trkpt>
      <trkpt lat="42.3863970" lon="-3.3223070">
        <ele>1051.0</ele>
        <time>2022-08-29T11:13:47Z</time>
      </trkpt>
      <trkpt lat="42.3863960" lon="-3.3223070">
        <ele>1051.0</ele>
        <time>2022-08-29T11:13:48Z</time>
      </trkpt>
      <trkpt lat="42.3863960" lon="-3.3223070">
        <ele>1051.0</ele>
        <time>2022-08-29T11:13:49Z</time>
      </trkpt>
      <trkpt lat="42.3863960" lon="-3.3223070">
        <ele>1050.8</ele>
        <time>2022-08-29T11:13:50Z</time>
      </trkpt>
      <trkpt lat="42.3863960" lon="-3.3223070">
        <ele>1050.8</ele>
        <time>2022-08-29T11:13:51Z</time>
      </trkpt>
      <trkpt lat="42.3863960" lon="-3.3223070">
        <ele>1051.0</ele>
        <time>2022-08-29T11:13:52Z</time>
      </trkpt>
      <trkpt lat="42.3863960" lon="-3.3223070">
        <ele>1050.8</ele>
        <time>2022-08-29T11:13:53Z</time>
      </trkpt>
      <trkpt lat="42.3863960" lon="-3.3223070">
        <ele>1051.0</ele>
        <time>2022-08-29T11:13:54Z</time>
      </trkpt>
      <trkpt lat="42.3863960" lon="-3.3223070">
        <ele>1050.8</ele>
        <time>2022-08-29T11:13:55Z</time>
      </trkpt>
      <trkpt lat="42.3863960" lon="-3.3223070">
        <ele>1051.0</ele>
        <time>2022-08-29T11:13:56Z</time>
      </trkpt>
      <trkpt lat="42.3863960" lon="-3.3223070">
        <ele>1050.8</ele>
        <time>2022-08-29T11:13:57Z</time>
      </trkpt>
      <trkpt lat="42.3863960" lon="-3.3223070">
        <ele>1050.8</ele>
        <time>2022-08-29T11:13:58Z</time>
      </trkpt>
      <trkpt lat="42.3863960" lon="-3.3223070">
        <ele>1050.8</ele>
        <time>2022-08-29T11:13:59Z</time>
      </trkpt>
      <trkpt lat="42.3863960" lon="-3.3223070">
        <ele>1051.0</ele>
        <time>2022-08-29T11:14:00Z</time>
      </trkpt>
      <trkpt lat="42.3863960" lon="-3.3223070">
        <ele>1050.8</ele>
        <time>2022-08-29T11:14:01Z</time>
      </trkpt>
      <trkpt lat="42.3863960" lon="-3.3223070">
        <ele>1051.0</ele>
        <time>2022-08-29T11:14:02Z</time>
      </trkpt>
      <trkpt lat="42.3863960" lon="-3.3223070">
        <ele>1051.0</ele>
        <time>2022-08-29T11:14:03Z</time>
      </trkpt>
      <trkpt lat="42.3863960" lon="-3.3223070">
        <ele>1051.0</ele>
        <time>2022-08-29T11:14:04Z</time>
      </trkpt>
      <trkpt lat="42.3863960" lon="-3.3223070">
        <ele>1050.8</ele>
        <time>2022-08-29T11:14:05Z</time>
      </trkpt>
      <trkpt lat="42.3863960" lon="-3.3223070">
        <ele>1051.0</ele>
        <time>2022-08-29T11:14:06Z</time>
      </trkpt>
      <trkpt lat="42.3863960" lon="-3.3223070">
        <ele>1051.0</ele>
        <time>2022-08-29T11:14:07Z</time>
      </trkpt>
      <trkpt lat="42.3863960" lon="-3.3223070">
        <ele>1050.8</ele>
        <time>2022-08-29T11:14:08Z</time>
      </trkpt>
      <trkpt lat="42.3863960" lon="-3.3223070">
        <ele>1051.0</ele>
        <time>2022-08-29T11:14:09Z</time>
      </trkpt>
      <trkpt lat="42.3863950" lon="-3.3223070">
        <ele>1051.0</ele>
        <time>2022-08-29T11:14:10Z</time>
      </trkpt>
      <trkpt lat="42.3863950" lon="-3.3223070">
        <ele>1051.0</ele>
        <time>2022-08-29T11:14:11Z</time>
      </trkpt>
      <trkpt lat="42.3863950" lon="-3.3223070">
        <ele>1051.2</ele>
        <time>2022-08-29T11:14:12Z</time>
      </trkpt>
      <trkpt lat="42.3863950" lon="-3.3223070">
        <ele>1051.0</ele>
        <time>2022-08-29T11:14:13Z</time>
      </trkpt>
      <trkpt lat="42.3863950" lon="-3.3223070">
        <ele>1051.0</ele>
        <time>2022-08-29T11:14:14Z</time>
      </trkpt>
      <trkpt lat="42.3863950" lon="-3.3223070">
        <ele>1051.0</ele>
        <time>2022-08-29T11:14:15Z</time>
      </trkpt>
      <trkpt lat="42.3863950" lon="-3.3223070">
        <ele>1051.0</ele>
        <time>2022-08-29T11:14:16Z</time>
      </trkpt>
      <trkpt lat="42.3863950" lon="-3.3223070">
        <ele>1051.2</ele>
        <time>2022-08-29T11:14:17Z</time>
      </trkpt>
      <trkpt lat="42.3863950" lon="-3.3223070">
        <ele>1051.0</ele>
        <time>2022-08-29T11:14:18Z</time>
      </trkpt>
      <trkpt lat="42.3863950" lon="-3.3223070">
        <ele>1051.0</ele>
        <time>2022-08-29T11:14:19Z</time>
      </trkpt>
      <trkpt lat="42.3863950" lon="-3.3223070">
        <ele>1051.0</ele>
        <time>2022-08-29T11:14:20Z</time>
      </trkpt>
      <trkpt lat="42.3863950" lon="-3.3223070">
        <ele>1051.0</ele>
        <time>2022-08-29T11:14:21Z</time>
      </trkpt>
      <trkpt lat="42.3863950" lon="-3.3223070">
        <ele>1051.0</ele>
        <time>2022-08-29T11:14:22Z</time>
      </trkpt>
      <trkpt lat="42.3863950" lon="-3.3223070">
        <ele>1051.0</ele>
        <time>2022-08-29T11:14:23Z</time>
      </trkpt>
      <trkpt lat="42.3863950" lon="-3.3223070">
        <ele>1051.0</ele>
        <time>2022-08-29T11:14:24Z</time>
      </trkpt>
      <trkpt lat="42.3863950" lon="-3.3223070">
        <ele>1050.8</ele>
        <time>2022-08-29T11:14:25Z</time>
      </trkpt>
      <trkpt lat="42.3863950" lon="-3.3223070">
        <ele>1051.0</ele>
        <time>2022-08-29T11:14:26Z</time>
      </trkpt>
      <trkpt lat="42.3863950" lon="-3.3223070">
        <ele>1051.0</ele>
        <time>2022-08-29T11:14:27Z</time>
      </trkpt>
      <trkpt lat="42.3863950" lon="-3.3223070">
        <ele>1050.8</ele>
        <time>2022-08-29T11:14:28Z</time>
      </trkpt>
      <trkpt lat="42.3863950" lon="-3.3223070">
        <ele>1051.0</ele>
        <time>2022-08-29T11:14:29Z</time>
      </trkpt>
      <trkpt lat="42.3863950" lon="-3.3223070">
        <ele>1051.0</ele>
        <time>2022-08-29T11:14:30Z</time>
      </trkpt>
      <trkpt lat="42.3863940" lon="-3.3223070">
        <ele>1050.8</ele>
        <time>2022-08-29T11:14:31Z</time>
      </trkpt>
      <trkpt lat="42.3863940" lon="-3.3223070">
        <ele>1050.8</ele>
        <time>2022-08-29T11:14:32Z</time>
      </trkpt>
      <trkpt lat="42.3863940" lon="-3.3223070">
        <ele>1050.8</ele>
        <time>2022-08-29T11:14:33Z</time>
      </trkpt>
      <trkpt lat="42.3863940" lon="-3.3223060">
        <ele>1050.8</ele>
        <time>2022-08-29T11:14:34Z</time>
      </trkpt>
      <trkpt lat="42.3863940" lon="-3.3223060">
        <ele>1050.8</ele>
        <time>2022-08-29T11:14:35Z</time>
      </trkpt>
      <trkpt lat="42.3863940" lon="-3.3223060">
        <ele>1051.0</ele>
        <time>2022-08-29T11:14:36Z</time>
      </trkpt>
      <trkpt lat="42.3863940" lon="-3.3223060">
        <ele>1050.8</ele>
        <time>2022-08-29T11:14:37Z</time>
      </trkpt>
      <trkpt lat="42.3863940" lon="-3.3223060">
        <ele>1050.8</ele>
        <time>2022-08-29T11:14:38Z</time>
      </trkpt>
      <trkpt lat="42.3863940" lon="-3.3223060">
        <ele>1050.8</ele>
        <time>2022-08-29T11:14:39Z</time>
      </trkpt>
      <trkpt lat="42.3863940" lon="-3.3223060">
        <ele>1050.8</ele>
        <time>2022-08-29T11:14:40Z</time>
      </trkpt>
      <trkpt lat="42.3863940" lon="-3.3223060">
        <ele>1050.8</ele>
        <time>2022-08-29T11:14:41Z</time>
      </trkpt>
      <trkpt lat="42.3863940" lon="-3.3223060">
        <ele>1051.0</ele>
        <time>2022-08-29T11:14:42Z</time>
      </trkpt>
      <trkpt lat="42.3863940" lon="-3.3223060">
        <ele>1051.0</ele>
        <time>2022-08-29T11:14:43Z</time>
      </trkpt>
      <trkpt lat="42.3863940" lon="-3.3223060">
        <ele>1050.8</ele>
        <time>2022-08-29T11:14:44Z</time>
      </trkpt>
      <trkpt lat="42.3863940" lon="-3.3223060">
        <ele>1050.8</ele>
        <time>2022-08-29T11:14:45Z</time>
      </trkpt>
      <trkpt lat="42.3863940" lon="-3.3223060">
        <ele>1050.8</ele>
        <time>2022-08-29T11:14:46Z</time>
      </trkpt>
      <trkpt lat="42.3863940" lon="-3.3223060">
        <ele>1050.8</ele>
        <time>2022-08-29T11:14:47Z</time>
      </trkpt>
      <trkpt lat="42.3863940" lon="-3.3223060">
        <ele>1050.8</ele>
        <time>2022-08-29T11:14:48Z</time>
      </trkpt>
      <trkpt lat="42.3863940" lon="-3.3223060">
        <ele>1050.6</ele>
        <time>2022-08-29T11:14:49Z</time>
      </trkpt>
      <trkpt lat="42.3863940" lon="-3.3223050">
        <ele>1050.6</ele>
        <time>2022-08-29T11:14:50Z</time>
      </trkpt>
      <trkpt lat="42.3863940" lon="-3.3223050">
        <ele>1050.8</ele>
        <time>2022-08-29T11:14:51Z</time>
      </trkpt>
      <trkpt lat="42.3863930" lon="-3.3223050">
        <ele>1050.6</ele>
        <time>2022-08-29T11:14:52Z</time>
      </trkpt>
      <trkpt lat="42.3863930" lon="-3.3223050">
        <ele>1050.8</ele>
        <time>2022-08-29T11:14:53Z</time>
      </trkpt>
      <trkpt lat="42.3863930" lon="-3.3223050">
        <ele>1050.8</ele>
        <time>2022-08-29T11:14:54Z</time>
      </trkpt>
      <trkpt lat="42.3863930" lon="-3.3223050">
        <ele>1050.8</ele>
        <time>2022-08-29T11:14:55Z</time>
      </trkpt>
      <trkpt lat="42.3863930" lon="-3.3223050">
        <ele>1050.8</ele>
        <time>2022-08-29T11:14:56Z</time>
      </trkpt>
      <trkpt lat="42.3863930" lon="-3.3223050">
        <ele>1050.8</ele>
        <time>2022-08-29T11:14:57Z</time>
      </trkpt>
      <trkpt lat="42.3863930" lon="-3.3223050">
        <ele>1050.8</ele>
        <time>2022-08-29T11:14:58Z</time>
      </trkpt>
      <trkpt lat="42.3863930" lon="-3.3223050">
        <ele>1050.8</ele>
        <time>2022-08-29T11:14:59Z</time>
      </trkpt>
      <trkpt lat="42.3863930" lon="-3.3223050">
        <ele>1050.8</ele>
        <time>2022-08-29T11:15:00Z</time>
      </trkpt>
      <trkpt lat="42.3863930" lon="-3.3223050">
        <ele>1050.8</ele>
        <time>2022-08-29T11:15:01Z</time>
      </trkpt>
      <trkpt lat="42.3863930" lon="-3.3223050">
        <ele>1050.8</ele>
        <time>2022-08-29T11:15:02Z</time>
      </trkpt>
      <trkpt lat="42.3863930" lon="-3.3223050">
        <ele>1050.8</ele>
        <time>2022-08-29T11:15:03Z</time>
      </trkpt>
      <trkpt lat="42.3863930" lon="-3.3223050">
        <ele>1050.8</ele>
        <time>2022-08-29T11:15:04Z</time>
      </trkpt>
      <trkpt lat="42.3863930" lon="-3.3223050">
        <ele>1050.8</ele>
        <time>2022-08-29T11:15:05Z</time>
      </trkpt>
      <trkpt lat="42.3863930" lon="-3.3223050">
        <ele>1050.8</ele>
        <time>2022-08-29T11:15:06Z</time>
      </trkpt>
      <trkpt lat="42.3863930" lon="-3.3223050">
        <ele>1050.8</ele>
        <time>2022-08-29T11:15:07Z</time>
      </trkpt>
      <trkpt lat="42.3863930" lon="-3.3223050">
        <ele>1050.8</ele>
        <time>2022-08-29T11:15:08Z</time>
      </trkpt>
      <trkpt lat="42.3863930" lon="-3.3223050">
        <ele>1050.8</ele>
        <time>2022-08-29T11:15:09Z</time>
      </trkpt>
      <trkpt lat="42.3863930" lon="-3.3223050">
        <ele>1050.8</ele>
        <time>2022-08-29T11:15:10Z</time>
      </trkpt>
      <trkpt lat="42.3863930" lon="-3.3223050">
        <ele>1050.8</ele>
        <time>2022-08-29T11:15:11Z</time>
      </trkpt>
      <trkpt lat="42.3863930" lon="-3.3223050">
        <ele>1050.8</ele>
        <time>2022-08-29T11:15:12Z</time>
      </trkpt>
      <trkpt lat="42.3863930" lon="-3.3223050">
        <ele>1050.8</ele>
        <time>2022-08-29T11:15:13Z</time>
      </trkpt>
      <trkpt lat="42.3863930" lon="-3.3223050">
        <ele>1050.8</ele>
        <time>2022-08-29T11:15:14Z</time>
      </trkpt>
      <trkpt lat="42.3863930" lon="-3.3223050">
        <ele>1050.8</ele>
        <time>2022-08-29T11:15:15Z</time>
      </trkpt>
      <trkpt lat="42.3863930" lon="-3.3223050">
        <ele>1050.8</ele>
        <time>2022-08-29T11:15:16Z</time>
      </trkpt>
      <trkpt lat="42.3863930" lon="-3.3223040">
        <ele>1050.8</ele>
        <time>2022-08-29T11:15:17Z</time>
      </trkpt>
      <trkpt lat="42.3863930" lon="-3.3223050">
        <ele>1051.0</ele>
        <time>2022-08-29T11:15:18Z</time>
      </trkpt>
      <trkpt lat="42.3863930" lon="-3.3223040">
        <ele>1051.0</ele>
        <time>2022-08-29T11:15:19Z</time>
      </trkpt>
      <trkpt lat="42.3863930" lon="-3.3223040">
        <ele>1050.8</ele>
        <time>2022-08-29T11:15:20Z</time>
      </trkpt>
      <trkpt lat="42.3863930" lon="-3.3223040">
        <ele>1050.8</ele>
        <time>2022-08-29T11:15:21Z</time>
      </trkpt>
      <trkpt lat="42.3863930" lon="-3.3223040">
        <ele>1051.0</ele>
        <time>2022-08-29T11:15:22Z</time>
      </trkpt>
      <trkpt lat="42.3863940" lon="-3.3223040">
        <ele>1051.0</ele>
        <time>2022-08-29T11:15:23Z</time>
      </trkpt>
      <trkpt lat="42.3863940" lon="-3.3223050">
        <ele>1051.0</ele>
        <time>2022-08-29T11:15:24Z</time>
      </trkpt>
      <trkpt lat="42.3864050" lon="-3.3223050">
        <ele>1050.8</ele>
        <time>2022-08-29T11:15:25Z</time>
      </trkpt>
      <trkpt lat="42.3864100" lon="-3.3223150">
        <ele>1051.0</ele>
        <time>2022-08-29T11:15:26Z</time>
      </trkpt>
      <trkpt lat="42.3864140" lon="-3.3223350">
        <ele>1050.8</ele>
        <time>2022-08-29T11:15:27Z</time>
      </trkpt>
      <trkpt lat="42.3864170" lon="-3.3223600">
        <ele>1051.0</ele>
        <time>2022-08-29T11:15:28Z</time>
      </trkpt>
      <trkpt lat="42.3864170" lon="-3.3223870">
        <ele>1050.8</ele>
        <time>2022-08-29T11:15:29Z</time>
      </trkpt>
      <trkpt lat="42.3864160" lon="-3.3224150">
        <ele>1051.0</ele>
        <time>2022-08-29T11:15:30Z</time>
      </trkpt>
      <trkpt lat="42.3864140" lon="-3.3224450">
        <ele>1051.0</ele>
        <time>2022-08-29T11:15:31Z</time>
      </trkpt>
      <trkpt lat="42.3864100" lon="-3.3224750">
        <ele>1051.0</ele>
        <time>2022-08-29T11:15:32Z</time>
      </trkpt>
      <trkpt lat="42.3864030" lon="-3.3225040">
        <ele>1050.8</ele>
        <time>2022-08-29T11:15:33Z</time>
      </trkpt>
      <trkpt lat="42.3863940" lon="-3.3225330">
        <ele>1050.8</ele>
        <time>2022-08-29T11:15:34Z</time>
      </trkpt>
      <trkpt lat="42.3863840" lon="-3.3225630">
        <ele>1050.6</ele>
        <time>2022-08-29T11:15:35Z</time>
      </trkpt>
      <trkpt lat="42.3863740" lon="-3.3225940">
        <ele>1050.6</ele>
        <time>2022-08-29T11:15:36Z</time>
      </trkpt>
      <trkpt lat="42.3863650" lon="-3.3226240">
        <ele>1050.4</ele>
        <time>2022-08-29T11:15:37Z</time>
      </trkpt>
      <trkpt lat="42.3863570" lon="-3.3226550">
        <ele>1050.4</ele>
        <time>2022-08-29T11:15:38Z</time>
      </trkpt>
      <trkpt lat="42.3863470" lon="-3.3226870">
        <ele>1050.4</ele>
        <time>2022-08-29T11:15:39Z</time>
      </trkpt>
      <trkpt lat="42.3863380" lon="-3.3227180">
        <ele>1050.2</ele>
        <time>2022-08-29T11:15:40Z</time>
      </trkpt>
      <trkpt lat="42.3863280" lon="-3.3227500">
        <ele>1050.4</ele>
        <time>2022-08-29T11:15:41Z</time>
      </trkpt>
      <trkpt lat="42.3863200" lon="-3.3227820">
        <ele>1050.2</ele>
        <time>2022-08-29T11:15:42Z</time>
      </trkpt>
      <trkpt lat="42.3863120" lon="-3.3228130">
        <ele>1050.4</ele>
        <time>2022-08-29T11:15:43Z</time>
      </trkpt>
      <trkpt lat="42.3863060" lon="-3.3228460">
        <ele>1050.4</ele>
        <time>2022-08-29T11:15:44Z</time>
      </trkpt>
      <trkpt lat="42.3863020" lon="-3.3228790">
        <ele>1050.4</ele>
        <time>2022-08-29T11:15:45Z</time>
      </trkpt>
      <trkpt lat="42.3862970" lon="-3.3229120">
        <ele>1050.4</ele>
        <time>2022-08-29T11:15:46Z</time>
      </trkpt>
      <trkpt lat="42.3862910" lon="-3.3229440">
        <ele>1050.4</ele>
        <time>2022-08-29T11:15:47Z</time>
      </trkpt>
      <trkpt lat="42.3862840" lon="-3.3229750">
        <ele>1050.4</ele>
        <time>2022-08-29T11:15:48Z</time>
      </trkpt>
      <trkpt lat="42.3862770" lon="-3.3230050">
        <ele>1050.4</ele>
        <time>2022-08-29T11:15:49Z</time>
      </trkpt>
      <trkpt lat="42.3862720" lon="-3.3230360">
        <ele>1050.8</ele>
        <time>2022-08-29T11:15:50Z</time>
      </trkpt>
      <trkpt lat="42.3862680" lon="-3.3230660">
        <ele>1051.0</ele>
        <time>2022-08-29T11:15:51Z</time>
      </trkpt>
      <trkpt lat="42.3862640" lon="-3.3230950">
        <ele>1051.2</ele>
        <time>2022-08-29T11:15:52Z</time>
      </trkpt>
      <trkpt lat="42.3862610" lon="-3.3231240">
        <ele>1051.2</ele>
        <time>2022-08-29T11:15:53Z</time>
      </trkpt>
      <trkpt lat="42.3862600" lon="-3.3231540">
        <ele>1051.4</ele>
        <time>2022-08-29T11:15:54Z</time>
      </trkpt>
      <trkpt lat="42.3862580" lon="-3.3231840">
        <ele>1051.4</ele>
        <time>2022-08-29T11:15:55Z</time>
      </trkpt>
      <trkpt lat="42.3862570" lon="-3.3232120">
        <ele>1051.6</ele>
        <time>2022-08-29T11:15:56Z</time>
      </trkpt>
      <trkpt lat="42.3862560" lon="-3.3232370">
        <ele>1051.8</ele>
        <time>2022-08-29T11:15:57Z</time>
      </trkpt>
      <trkpt lat="42.3862560" lon="-3.3232600">
        <ele>1052.0</ele>
        <time>2022-08-29T11:15:58Z</time>
      </trkpt>
      <trkpt lat="42.3862540" lon="-3.3232840">
        <ele>1052.0</ele>
        <time>2022-08-29T11:15:59Z</time>
      </trkpt>
      <trkpt lat="42.3862500" lon="-3.3233050">
        <ele>1052.2</ele>
        <time>2022-08-29T11:16:00Z</time>
      </trkpt>
      <trkpt lat="42.3862470" lon="-3.3233300">
        <ele>1052.4</ele>
        <time>2022-08-29T11:16:01Z</time>
      </trkpt>
      <trkpt lat="42.3862420" lon="-3.3233550">
        <ele>1052.4</ele>
        <time>2022-08-29T11:16:02Z</time>
      </trkpt>
      <trkpt lat="42.3862380" lon="-3.3233810">
        <ele>1052.6</ele>
        <time>2022-08-29T11:16:03Z</time>
      </trkpt>
      <trkpt lat="42.3862340" lon="-3.3234080">
        <ele>1052.8</ele>
        <time>2022-08-29T11:16:04Z</time>
      </trkpt>
      <trkpt lat="42.3862290" lon="-3.3234370">
        <ele>1053.0</ele>
        <time>2022-08-29T11:16:05Z</time>
      </trkpt>
      <trkpt lat="42.3862230" lon="-3.3234660">
        <ele>1053.2</ele>
        <time>2022-08-29T11:16:06Z</time>
      </trkpt>
      <trkpt lat="42.3862160" lon="-3.3234960">
        <ele>1053.2</ele>
        <time>2022-08-29T11:16:07Z</time>
      </trkpt>
      <trkpt lat="42.3862080" lon="-3.3235260">
        <ele>1053.2</ele>
        <time>2022-08-29T11:16:08Z</time>
      </trkpt>
      <trkpt lat="42.3862020" lon="-3.3235550">
        <ele>1053.4</ele>
        <time>2022-08-29T11:16:09Z</time>
      </trkpt>
      <trkpt lat="42.3861980" lon="-3.3235840">
        <ele>1053.6</ele>
        <time>2022-08-29T11:16:10Z</time>
      </trkpt>
      <trkpt lat="42.3861920" lon="-3.3236130">
        <ele>1053.6</ele>
        <time>2022-08-29T11:16:11Z</time>
      </trkpt>
      <trkpt lat="42.3861860" lon="-3.3236410">
        <ele>1053.6</ele>
        <time>2022-08-29T11:16:12Z</time>
      </trkpt>
      <trkpt lat="42.3861790" lon="-3.3236670">
        <ele>1053.6</ele>
        <time>2022-08-29T11:16:13Z</time>
      </trkpt>
      <trkpt lat="42.3861750" lon="-3.3236940">
        <ele>1053.6</ele>
        <time>2022-08-29T11:16:14Z</time>
      </trkpt>
      <trkpt lat="42.3861680" lon="-3.3237220">
        <ele>1053.8</ele>
        <time>2022-08-29T11:16:15Z</time>
      </trkpt>
      <trkpt lat="42.3861610" lon="-3.3237520">
        <ele>1054.0</ele>
        <time>2022-08-29T11:16:16Z</time>
      </trkpt>
      <trkpt lat="42.3861540" lon="-3.3237850">
        <ele>1054.0</ele>
        <time>2022-08-29T11:16:17Z</time>
      </trkpt>
      <trkpt lat="42.3861440" lon="-3.3238190">
        <ele>1054.2</ele>
        <time>2022-08-29T11:16:18Z</time>
      </trkpt>
      <trkpt lat="42.3861350" lon="-3.3238520">
        <ele>1054.4</ele>
        <time>2022-08-29T11:16:19Z</time>
      </trkpt>
      <trkpt lat="42.3861270" lon="-3.3238860">
        <ele>1054.8</ele>
        <time>2022-08-29T11:16:20Z</time>
      </trkpt>
      <trkpt lat="42.3861210" lon="-3.3239190">
        <ele>1054.8</ele>
        <time>2022-08-29T11:16:21Z</time>
      </trkpt>
      <trkpt lat="42.3861160" lon="-3.3239540">
        <ele>1054.8</ele>
        <time>2022-08-29T11:16:22Z</time>
      </trkpt>
      <trkpt lat="42.3861080" lon="-3.3239930">
        <ele>1055.0</ele>
        <time>2022-08-29T11:16:23Z</time>
      </trkpt>
      <trkpt lat="42.3860990" lon="-3.3240320">
        <ele>1055.2</ele>
        <time>2022-08-29T11:16:24Z</time>
      </trkpt>
      <trkpt lat="42.3860880" lon="-3.3240710">
        <ele>1055.2</ele>
        <time>2022-08-29T11:16:25Z</time>
      </trkpt>
      <trkpt lat="42.3860780" lon="-3.3241110">
        <ele>1055.4</ele>
        <time>2022-08-29T11:16:26Z</time>
      </trkpt>
      <trkpt lat="42.3860680" lon="-3.3241510">
        <ele>1055.4</ele>
        <time>2022-08-29T11:16:27Z</time>
      </trkpt>
      <trkpt lat="42.3860570" lon="-3.3241910">
        <ele>1055.6</ele>
        <time>2022-08-29T11:16:28Z</time>
      </trkpt>
      <trkpt lat="42.3860460" lon="-3.3242290">
        <ele>1055.6</ele>
        <time>2022-08-29T11:16:29Z</time>
      </trkpt>
      <trkpt lat="42.3860350" lon="-3.3242620">
        <ele>1055.6</ele>
        <time>2022-08-29T11:16:30Z</time>
      </trkpt>
      <trkpt lat="42.3860220" lon="-3.3242970">
        <ele>1055.8</ele>
        <time>2022-08-29T11:16:31Z</time>
      </trkpt>
      <trkpt lat="42.3860080" lon="-3.3243370">
        <ele>1055.8</ele>
        <time>2022-08-29T11:16:32Z</time>
      </trkpt>
      <trkpt lat="42.3859950" lon="-3.3243760">
        <ele>1055.8</ele>
        <time>2022-08-29T11:16:33Z</time>
      </trkpt>
      <trkpt lat="42.3859840" lon="-3.3244160">
        <ele>1055.8</ele>
        <time>2022-08-29T11:16:34Z</time>
      </trkpt>
      <trkpt lat="42.3859750" lon="-3.3244530">
        <ele>1056.0</ele>
        <time>2022-08-29T11:16:35Z</time>
      </trkpt>
      <trkpt lat="42.3859660" lon="-3.3244870">
        <ele>1056.0</ele>
        <time>2022-08-29T11:16:36Z</time>
      </trkpt>
      <trkpt lat="42.3859550" lon="-3.3245230">
        <ele>1056.0</ele>
        <time>2022-08-29T11:16:37Z</time>
      </trkpt>
      <trkpt lat="42.3859440" lon="-3.3245650">
        <ele>1056.0</ele>
        <time>2022-08-29T11:16:38Z</time>
      </trkpt>
      <trkpt lat="42.3859310" lon="-3.3246080">
        <ele>1056.0</ele>
        <time>2022-08-29T11:16:39Z</time>
      </trkpt>
      <trkpt lat="42.3859210" lon="-3.3246500">
        <ele>1056.2</ele>
        <time>2022-08-29T11:16:40Z</time>
      </trkpt>
      <trkpt lat="42.3859090" lon="-3.3246930">
        <ele>1056.2</ele>
        <time>2022-08-29T11:16:41Z</time>
      </trkpt>
      <trkpt lat="42.3858980" lon="-3.3247370">
        <ele>1056.4</ele>
        <time>2022-08-29T11:16:42Z</time>
      </trkpt>
      <trkpt lat="42.3858860" lon="-3.3247820">
        <ele>1056.4</ele>
        <time>2022-08-29T11:16:43Z</time>
      </trkpt>
      <trkpt lat="42.3858740" lon="-3.3248240">
        <ele>1056.6</ele>
        <time>2022-08-29T11:16:44Z</time>
      </trkpt>
      <trkpt lat="42.3858660" lon="-3.3248650">
        <ele>1056.6</ele>
        <time>2022-08-29T11:16:45Z</time>
      </trkpt>
      <trkpt lat="42.3858570" lon="-3.3249060">
        <ele>1056.6</ele>
        <time>2022-08-29T11:16:46Z</time>
      </trkpt>
      <trkpt lat="42.3858460" lon="-3.3249440">
        <ele>1056.8</ele>
        <time>2022-08-29T11:16:47Z</time>
      </trkpt>
      <trkpt lat="42.3858340" lon="-3.3249830">
        <ele>1056.8</ele>
        <time>2022-08-29T11:16:48Z</time>
      </trkpt>
      <trkpt lat="42.3858200" lon="-3.3250230">
        <ele>1057.0</ele>
        <time>2022-08-29T11:16:49Z</time>
      </trkpt>
      <trkpt lat="42.3858080" lon="-3.3250640">
        <ele>1056.8</ele>
        <time>2022-08-29T11:16:50Z</time>
      </trkpt>
      <trkpt lat="42.3857970" lon="-3.3251030">
        <ele>1057.0</ele>
        <time>2022-08-29T11:16:51Z</time>
      </trkpt>
      <trkpt lat="42.3857840" lon="-3.3251380">
        <ele>1057.0</ele>
        <time>2022-08-29T11:16:52Z</time>
      </trkpt>
      <trkpt lat="42.3857730" lon="-3.3251710">
        <ele>1057.0</ele>
        <time>2022-08-29T11:16:53Z</time>
      </trkpt>
      <trkpt lat="42.3857650" lon="-3.3251970">
        <ele>1057.2</ele>
        <time>2022-08-29T11:16:54Z</time>
      </trkpt>
      <trkpt lat="42.3857550" lon="-3.3252160">
        <ele>1057.2</ele>
        <time>2022-08-29T11:16:55Z</time>
      </trkpt>
      <trkpt lat="42.3857430" lon="-3.3252320">
        <ele>1057.2</ele>
        <time>2022-08-29T11:16:56Z</time>
      </trkpt>
      <trkpt lat="42.3857350" lon="-3.3252400">
        <ele>1057.2</ele>
        <time>2022-08-29T11:16:57Z</time>
      </trkpt>
      <trkpt lat="42.3857150" lon="-3.3252550">
        <ele>1057.4</ele>
        <time>2022-08-29T11:16:58Z</time>
      </trkpt>
      <trkpt lat="42.3856960" lon="-3.3252680">
        <ele>1057.2</ele>
        <time>2022-08-29T11:16:59Z</time>
      </trkpt>
      <trkpt lat="42.3856780" lon="-3.3252770">
        <ele>1057.4</ele>
        <time>2022-08-29T11:17:00Z</time>
      </trkpt>
      <trkpt lat="42.3856630" lon="-3.3252830">
        <ele>1057.4</ele>
        <time>2022-08-29T11:17:01Z</time>
      </trkpt>
      <trkpt lat="42.3856450" lon="-3.3252880">
        <ele>1057.4</ele>
        <time>2022-08-29T11:17:02Z</time>
      </trkpt>
      <trkpt lat="42.3856350" lon="-3.3252860">
        <ele>1057.4</ele>
        <time>2022-08-29T11:17:03Z</time>
      </trkpt>
      <trkpt lat="42.3856190" lon="-3.3252860">
        <ele>1057.6</ele>
        <time>2022-08-29T11:17:04Z</time>
      </trkpt>
      <trkpt lat="42.3856020" lon="-3.3252900">
        <ele>1057.8</ele>
        <time>2022-08-29T11:17:05Z</time>
      </trkpt>
      <trkpt lat="42.3855780" lon="-3.3252990">
        <ele>1058.2</ele>
        <time>2022-08-29T11:17:06Z</time>
      </trkpt>
      <trkpt lat="42.3855530" lon="-3.3253100">
        <ele>1058.4</ele>
        <time>2022-08-29T11:17:07Z</time>
      </trkpt>
      <trkpt lat="42.3855310" lon="-3.3253160">
        <ele>1058.6</ele>
        <time>2022-08-29T11:17:08Z</time>
      </trkpt>
      <trkpt lat="42.3855090" lon="-3.3253170">
        <ele>1058.8</ele>
        <time>2022-08-29T11:17:09Z</time>
      </trkpt>
      <trkpt lat="42.3854850" lon="-3.3253180">
        <ele>1059.2</ele>
        <time>2022-08-29T11:17:10Z</time>
      </trkpt>
      <trkpt lat="42.3854670" lon="-3.3253170">
        <ele>1059.2</ele>
        <time>2022-08-29T11:17:11Z</time>
      </trkpt>
      <trkpt lat="42.3854530" lon="-3.3253150">
        <ele>1059.4</ele>
        <time>2022-08-29T11:17:12Z</time>
      </trkpt>
      <trkpt lat="42.3854410" lon="-3.3253070">
        <ele>1059.4</ele>
        <time>2022-08-29T11:17:13Z</time>
      </trkpt>
      <trkpt lat="42.3854240" lon="-3.3253000">
        <ele>1059.6</ele>
        <time>2022-08-29T11:17:14Z</time>
      </trkpt>
      <trkpt lat="42.3854090" lon="-3.3252950">
        <ele>1060.0</ele>
        <time>2022-08-29T11:17:15Z</time>
      </trkpt>
      <trkpt lat="42.3854000" lon="-3.3252850">
        <ele>1060.4</ele>
        <time>2022-08-29T11:17:16Z</time>
      </trkpt>
      <trkpt lat="42.3853910" lon="-3.3252750">
        <ele>1060.8</ele>
        <time>2022-08-29T11:17:17Z</time>
      </trkpt>
      <trkpt lat="42.3853820" lon="-3.3252650">
        <ele>1060.8</ele>
        <time>2022-08-29T11:17:18Z</time>
      </trkpt>
      <trkpt lat="42.3853710" lon="-3.3252560">
        <ele>1061.0</ele>
        <time>2022-08-29T11:17:19Z</time>
      </trkpt>
      <trkpt lat="42.3853570" lon="-3.3252480">
        <ele>1061.4</ele>
        <time>2022-08-29T11:17:20Z</time>
      </trkpt>
      <trkpt lat="42.3853390" lon="-3.3252450">
        <ele>1061.8</ele>
        <time>2022-08-29T11:17:21Z</time>
      </trkpt>
      <trkpt lat="42.3853190" lon="-3.3252440">
        <ele>1061.8</ele>
        <time>2022-08-29T11:17:22Z</time>
      </trkpt>
      <trkpt lat="42.3852970" lon="-3.3252450">
        <ele>1061.8</ele>
        <time>2022-08-29T11:17:23Z</time>
      </trkpt>
      <trkpt lat="42.3852770" lon="-3.3252450">
        <ele>1062.2</ele>
        <time>2022-08-29T11:17:24Z</time>
      </trkpt>
      <trkpt lat="42.3852570" lon="-3.3252450">
        <ele>1062.2</ele>
        <time>2022-08-29T11:17:25Z</time>
      </trkpt>
      <trkpt lat="42.3852380" lon="-3.3252460">
        <ele>1062.4</ele>
        <time>2022-08-29T11:17:26Z</time>
      </trkpt>
      <trkpt lat="42.3852190" lon="-3.3252400">
        <ele>1062.6</ele>
        <time>2022-08-29T11:17:27Z</time>
      </trkpt>
      <trkpt lat="42.3852070" lon="-3.3252310">
        <ele>1063.0</ele>
        <time>2022-08-29T11:17:28Z</time>
      </trkpt>
      <trkpt lat="42.3851910" lon="-3.3252270">
        <ele>1063.2</ele>
        <time>2022-08-29T11:17:29Z</time>
      </trkpt>
      <trkpt lat="42.3851750" lon="-3.3252230">
        <ele>1063.6</ele>
        <time>2022-08-29T11:17:30Z</time>
      </trkpt>
      <trkpt lat="42.3851590" lon="-3.3252160">
        <ele>1063.8</ele>
        <time>2022-08-29T11:17:31Z</time>
      </trkpt>
      <trkpt lat="42.3851390" lon="-3.3252130">
        <ele>1064.0</ele>
        <time>2022-08-29T11:17:32Z</time>
      </trkpt>
      <trkpt lat="42.3851220" lon="-3.3252060">
        <ele>1064.2</ele>
        <time>2022-08-29T11:17:33Z</time>
      </trkpt>
      <trkpt lat="42.3851050" lon="-3.3251980">
        <ele>1064.4</ele>
        <time>2022-08-29T11:17:34Z</time>
      </trkpt>
      <trkpt lat="42.3850950" lon="-3.3251860">
        <ele>1064.8</ele>
        <time>2022-08-29T11:17:35Z</time>
      </trkpt>
      <trkpt lat="42.3850820" lon="-3.3251780">
        <ele>1064.8</ele>
        <time>2022-08-29T11:17:36Z</time>
      </trkpt>
      <trkpt lat="42.3850690" lon="-3.3251680">
        <ele>1065.0</ele>
        <time>2022-08-29T11:17:37Z</time>
      </trkpt>
      <trkpt lat="42.3850570" lon="-3.3251570">
        <ele>1065.0</ele>
        <time>2022-08-29T11:17:38Z</time>
      </trkpt>
      <trkpt lat="42.3850440" lon="-3.3251480">
        <ele>1065.2</ele>
        <time>2022-08-29T11:17:39Z</time>
      </trkpt>
      <trkpt lat="42.3850310" lon="-3.3251410">
        <ele>1065.4</ele>
        <time>2022-08-29T11:17:40Z</time>
      </trkpt>
      <trkpt lat="42.3850160" lon="-3.3251360">
        <ele>1065.6</ele>
        <time>2022-08-29T11:17:41Z</time>
      </trkpt>
      <trkpt lat="42.3850030" lon="-3.3251290">
        <ele>1065.6</ele>
        <time>2022-08-29T11:17:42Z</time>
      </trkpt>
      <trkpt lat="42.3849920" lon="-3.3251170">
        <ele>1066.0</ele>
        <time>2022-08-29T11:17:43Z</time>
      </trkpt>
      <trkpt lat="42.3849790" lon="-3.3251060">
        <ele>1066.2</ele>
        <time>2022-08-29T11:17:44Z</time>
      </trkpt>
      <trkpt lat="42.3849680" lon="-3.3250960">
        <ele>1066.2</ele>
        <time>2022-08-29T11:17:45Z</time>
      </trkpt>
      <trkpt lat="42.3849580" lon="-3.3250860">
        <ele>1066.2</ele>
        <time>2022-08-29T11:17:46Z</time>
      </trkpt>
      <trkpt lat="42.3849460" lon="-3.3250770">
        <ele>1066.6</ele>
        <time>2022-08-29T11:17:47Z</time>
      </trkpt>
      <trkpt lat="42.3849330" lon="-3.3250700">
        <ele>1067.0</ele>
        <time>2022-08-29T11:17:48Z</time>
      </trkpt>
      <trkpt lat="42.3849190" lon="-3.3250620">
        <ele>1067.0</ele>
        <time>2022-08-29T11:17:49Z</time>
      </trkpt>
      <trkpt lat="42.3849050" lon="-3.3250560">
        <ele>1067.2</ele>
        <time>2022-08-29T11:17:50Z</time>
      </trkpt>
      <trkpt lat="42.3848900" lon="-3.3250470">
        <ele>1067.4</ele>
        <time>2022-08-29T11:17:51Z</time>
      </trkpt>
      <trkpt lat="42.3848730" lon="-3.3250410">
        <ele>1067.4</ele>
        <time>2022-08-29T11:17:52Z</time>
      </trkpt>
      <trkpt lat="42.3848590" lon="-3.3250350">
        <ele>1067.6</ele>
        <time>2022-08-29T11:17:53Z</time>
      </trkpt>
      <trkpt lat="42.3848450" lon="-3.3250320">
        <ele>1067.8</ele>
        <time>2022-08-29T11:17:54Z</time>
      </trkpt>
      <trkpt lat="42.3848280" lon="-3.3250340">
        <ele>1068.0</ele>
        <time>2022-08-29T11:17:55Z</time>
      </trkpt>
      <trkpt lat="42.3848120" lon="-3.3250340">
        <ele>1068.2</ele>
        <time>2022-08-29T11:17:56Z</time>
      </trkpt>
      <trkpt lat="42.3847990" lon="-3.3250310">
        <ele>1068.4</ele>
        <time>2022-08-29T11:17:57Z</time>
      </trkpt>
      <trkpt lat="42.3847840" lon="-3.3250290">
        <ele>1068.6</ele>
        <time>2022-08-29T11:17:58Z</time>
      </trkpt>
      <trkpt lat="42.3847770" lon="-3.3250280">
        <ele>1068.8</ele>
        <time>2022-08-29T11:17:59Z</time>
      </trkpt>
      <trkpt lat="42.3847640" lon="-3.3250280">
        <ele>1068.8</ele>
        <time>2022-08-29T11:18:00Z</time>
      </trkpt>
      <trkpt lat="42.3847490" lon="-3.3250270">
        <ele>1069.2</ele>
        <time>2022-08-29T11:18:01Z</time>
      </trkpt>
      <trkpt lat="42.3847350" lon="-3.3250260">
        <ele>1069.4</ele>
        <time>2022-08-29T11:18:02Z</time>
      </trkpt>
      <trkpt lat="42.3847160" lon="-3.3250290">
        <ele>1069.6</ele>
        <time>2022-08-29T11:18:03Z</time>
      </trkpt>
      <trkpt lat="42.3846970" lon="-3.3250320">
        <ele>1069.8</ele>
        <time>2022-08-29T11:18:04Z</time>
      </trkpt>
      <trkpt lat="42.3846780" lon="-3.3250350">
        <ele>1070.0</ele>
        <time>2022-08-29T11:18:05Z</time>
      </trkpt>
      <trkpt lat="42.3846620" lon="-3.3250390">
        <ele>1070.2</ele>
        <time>2022-08-29T11:18:06Z</time>
      </trkpt>
      <trkpt lat="42.3846460" lon="-3.3250440">
        <ele>1070.4</ele>
        <time>2022-08-29T11:18:07Z</time>
      </trkpt>
      <trkpt lat="42.3846330" lon="-3.3250490">
        <ele>1070.6</ele>
        <time>2022-08-29T11:18:08Z</time>
      </trkpt>
      <trkpt lat="42.3846180" lon="-3.3250560">
        <ele>1070.8</ele>
        <time>2022-08-29T11:18:09Z</time>
      </trkpt>
      <trkpt lat="42.3846030" lon="-3.3250650">
        <ele>1070.8</ele>
        <time>2022-08-29T11:18:10Z</time>
      </trkpt>
      <trkpt lat="42.3845870" lon="-3.3250760">
        <ele>1070.8</ele>
        <time>2022-08-29T11:18:11Z</time>
      </trkpt>
      <trkpt lat="42.3845700" lon="-3.3250860">
        <ele>1071.0</ele>
        <time>2022-08-29T11:18:12Z</time>
      </trkpt>
      <trkpt lat="42.3845560" lon="-3.3250970">
        <ele>1071.2</ele>
        <time>2022-08-29T11:18:13Z</time>
      </trkpt>
      <trkpt lat="42.3845410" lon="-3.3251070">
        <ele>1071.2</ele>
        <time>2022-08-29T11:18:14Z</time>
      </trkpt>
      <trkpt lat="42.3845280" lon="-3.3251140">
        <ele>1071.4</ele>
        <time>2022-08-29T11:18:15Z</time>
      </trkpt>
      <trkpt lat="42.3845120" lon="-3.3251190">
        <ele>1071.6</ele>
        <time>2022-08-29T11:18:16Z</time>
      </trkpt>
      <trkpt lat="42.3844960" lon="-3.3251230">
        <ele>1071.8</ele>
        <time>2022-08-29T11:18:17Z</time>
      </trkpt>
      <trkpt lat="42.3844860" lon="-3.3251290">
        <ele>1072.0</ele>
        <time>2022-08-29T11:18:18Z</time>
      </trkpt>
      <trkpt lat="42.3844730" lon="-3.3251390">
        <ele>1072.0</ele>
        <time>2022-08-29T11:18:19Z</time>
      </trkpt>
      <trkpt lat="42.3844580" lon="-3.3251480">
        <ele>1072.4</ele>
        <time>2022-08-29T11:18:20Z</time>
      </trkpt>
      <trkpt lat="42.3844460" lon="-3.3251580">
        <ele>1072.6</ele>
        <time>2022-08-29T11:18:21Z</time>
      </trkpt>
      <trkpt lat="42.3844310" lon="-3.3251680">
        <ele>1072.8</ele>
        <time>2022-08-29T11:18:22Z</time>
      </trkpt>
      <trkpt lat="42.3844130" lon="-3.3251780">
        <ele>1073.0</ele>
        <time>2022-08-29T11:18:23Z</time>
      </trkpt>
      <trkpt lat="42.3843970" lon="-3.3251870">
        <ele>1073.2</ele>
        <time>2022-08-29T11:18:24Z</time>
      </trkpt>
      <trkpt lat="42.3843800" lon="-3.3251950">
        <ele>1073.2</ele>
        <time>2022-08-29T11:18:25Z</time>
      </trkpt>
      <trkpt lat="42.3843640" lon="-3.3252030">
        <ele>1073.4</ele>
        <time>2022-08-29T11:18:26Z</time>
      </trkpt>
      <trkpt lat="42.3843500" lon="-3.3252120">
        <ele>1073.4</ele>
        <time>2022-08-29T11:18:27Z</time>
      </trkpt>
      <trkpt lat="42.3843360" lon="-3.3252190">
        <ele>1073.6</ele>
        <time>2022-08-29T11:18:28Z</time>
      </trkpt>
      <trkpt lat="42.3843210" lon="-3.3252290">
        <ele>1073.8</ele>
        <time>2022-08-29T11:18:29Z</time>
      </trkpt>
      <trkpt lat="42.3843100" lon="-3.3252360">
        <ele>1073.8</ele>
        <time>2022-08-29T11:18:30Z</time>
      </trkpt>
      <trkpt lat="42.3842980" lon="-3.3252440">
        <ele>1074.0</ele>
        <time>2022-08-29T11:18:31Z</time>
      </trkpt>
      <trkpt lat="42.3842830" lon="-3.3252530">
        <ele>1074.2</ele>
        <time>2022-08-29T11:18:32Z</time>
      </trkpt>
      <trkpt lat="42.3842680" lon="-3.3252650">
        <ele>1074.2</ele>
        <time>2022-08-29T11:18:33Z</time>
      </trkpt>
      <trkpt lat="42.3842540" lon="-3.3252760">
        <ele>1074.2</ele>
        <time>2022-08-29T11:18:34Z</time>
      </trkpt>
      <trkpt lat="42.3842420" lon="-3.3252870">
        <ele>1074.4</ele>
        <time>2022-08-29T11:18:35Z</time>
      </trkpt>
      <trkpt lat="42.3842280" lon="-3.3252980">
        <ele>1074.6</ele>
        <time>2022-08-29T11:18:36Z</time>
      </trkpt>
      <trkpt lat="42.3842170" lon="-3.3253100">
        <ele>1074.6</ele>
        <time>2022-08-29T11:18:37Z</time>
      </trkpt>
      <trkpt lat="42.3842080" lon="-3.3253230">
        <ele>1074.8</ele>
        <time>2022-08-29T11:18:38Z</time>
      </trkpt>
      <trkpt lat="42.3841910" lon="-3.3253440">
        <ele>1074.8</ele>
        <time>2022-08-29T11:18:39Z</time>
      </trkpt>
      <trkpt lat="42.3841780" lon="-3.3253650">
        <ele>1074.8</ele>
        <time>2022-08-29T11:18:40Z</time>
      </trkpt>
      <trkpt lat="42.3841630" lon="-3.3253810">
        <ele>1075.0</ele>
        <time>2022-08-29T11:18:41Z</time>
      </trkpt>
      <trkpt lat="42.3841520" lon="-3.3253940">
        <ele>1075.2</ele>
        <time>2022-08-29T11:18:42Z</time>
      </trkpt>
      <trkpt lat="42.3841420" lon="-3.3254060">
        <ele>1075.2</ele>
        <time>2022-08-29T11:18:43Z</time>
      </trkpt>
      <trkpt lat="42.3841300" lon="-3.3254170">
        <ele>1075.4</ele>
        <time>2022-08-29T11:18:44Z</time>
      </trkpt>
      <trkpt lat="42.3841230" lon="-3.3254270">
        <ele>1075.2</ele>
        <time>2022-08-29T11:18:45Z</time>
      </trkpt>
      <trkpt lat="42.3841140" lon="-3.3254420">
        <ele>1075.6</ele>
        <time>2022-08-29T11:18:46Z</time>
      </trkpt>
      <trkpt lat="42.3841000" lon="-3.3254630">
        <ele>1075.6</ele>
        <time>2022-08-29T11:18:47Z</time>
      </trkpt>
      <trkpt lat="42.3840860" lon="-3.3254840">
        <ele>1075.8</ele>
        <time>2022-08-29T11:18:48Z</time>
      </trkpt>
      <trkpt lat="42.3840760" lon="-3.3255020">
        <ele>1075.6</ele>
        <time>2022-08-29T11:18:49Z</time>
      </trkpt>
      <trkpt lat="42.3840600" lon="-3.3255260">
        <ele>1075.8</ele>
        <time>2022-08-29T11:18:50Z</time>
      </trkpt>
      <trkpt lat="42.3840490" lon="-3.3255490">
        <ele>1075.8</ele>
        <time>2022-08-29T11:18:51Z</time>
      </trkpt>
      <trkpt lat="42.3840310" lon="-3.3255770">
        <ele>1076.0</ele>
        <time>2022-08-29T11:18:52Z</time>
      </trkpt>
      <trkpt lat="42.3840160" lon="-3.3256010">
        <ele>1076.2</ele>
        <time>2022-08-29T11:18:53Z</time>
      </trkpt>
      <trkpt lat="42.3839980" lon="-3.3256270">
        <ele>1076.2</ele>
        <time>2022-08-29T11:18:54Z</time>
      </trkpt>
      <trkpt lat="42.3839860" lon="-3.3256510">
        <ele>1076.4</ele>
        <time>2022-08-29T11:18:55Z</time>
      </trkpt>
      <trkpt lat="42.3839640" lon="-3.3256770">
        <ele>1076.6</ele>
        <time>2022-08-29T11:18:56Z</time>
      </trkpt>
      <trkpt lat="42.3839450" lon="-3.3257040">
        <ele>1076.6</ele>
        <time>2022-08-29T11:18:57Z</time>
      </trkpt>
      <trkpt lat="42.3839240" lon="-3.3257340">
        <ele>1076.6</ele>
        <time>2022-08-29T11:18:58Z</time>
      </trkpt>
      <trkpt lat="42.3839060" lon="-3.3257570">
        <ele>1076.8</ele>
        <time>2022-08-29T11:18:59Z</time>
      </trkpt>
      <trkpt lat="42.3838910" lon="-3.3257810">
        <ele>1077.0</ele>
        <time>2022-08-29T11:19:00Z</time>
      </trkpt>
      <trkpt lat="42.3838710" lon="-3.3258080">
        <ele>1077.2</ele>
        <time>2022-08-29T11:19:01Z</time>
      </trkpt>
      <trkpt lat="42.3838550" lon="-3.3258340">
        <ele>1077.2</ele>
        <time>2022-08-29T11:19:02Z</time>
      </trkpt>
      <trkpt lat="42.3838430" lon="-3.3258570">
        <ele>1077.4</ele>
        <time>2022-08-29T11:19:03Z</time>
      </trkpt>
      <trkpt lat="42.3838310" lon="-3.3258800">
        <ele>1077.6</ele>
        <time>2022-08-29T11:19:04Z</time>
      </trkpt>
      <trkpt lat="42.3838230" lon="-3.3259010">
        <ele>1078.0</ele>
        <time>2022-08-29T11:19:05Z</time>
      </trkpt>
      <trkpt lat="42.3838130" lon="-3.3259230">
        <ele>1078.2</ele>
        <time>2022-08-29T11:19:06Z</time>
      </trkpt>
      <trkpt lat="42.3838010" lon="-3.3259490">
        <ele>1078.2</ele>
        <time>2022-08-29T11:19:07Z</time>
      </trkpt>
      <trkpt lat="42.3837940" lon="-3.3259720">
        <ele>1078.4</ele>
        <time>2022-08-29T11:19:08Z</time>
      </trkpt>
      <trkpt lat="42.3837840" lon="-3.3259950">
        <ele>1078.6</ele>
        <time>2022-08-29T11:19:09Z</time>
      </trkpt>
      <trkpt lat="42.3837730" lon="-3.3260170">
        <ele>1078.8</ele>
        <time>2022-08-29T11:19:10Z</time>
      </trkpt>
      <trkpt lat="42.3837570" lon="-3.3260400">
        <ele>1079.2</ele>
        <time>2022-08-29T11:19:11Z</time>
      </trkpt>
      <trkpt lat="42.3837410" lon="-3.3260630">
        <ele>1079.4</ele>
        <time>2022-08-29T11:19:12Z</time>
      </trkpt>
      <trkpt lat="42.3837300" lon="-3.3260850">
        <ele>1079.4</ele>
        <time>2022-08-29T11:19:13Z</time>
      </trkpt>
      <trkpt lat="42.3837190" lon="-3.3261030">
        <ele>1079.4</ele>
        <time>2022-08-29T11:19:14Z</time>
      </trkpt>
      <trkpt lat="42.3837070" lon="-3.3261220">
        <ele>1079.8</ele>
        <time>2022-08-29T11:19:15Z</time>
      </trkpt>
      <trkpt lat="42.3836930" lon="-3.3261390">
        <ele>1079.8</ele>
        <time>2022-08-29T11:19:16Z</time>
      </trkpt>
      <trkpt lat="42.3836730" lon="-3.3261610">
        <ele>1080.0</ele>
        <time>2022-08-29T11:19:17Z</time>
      </trkpt>
      <trkpt lat="42.3836570" lon="-3.3261840">
        <ele>1080.2</ele>
        <time>2022-08-29T11:19:18Z</time>
      </trkpt>
      <trkpt lat="42.3836470" lon="-3.3262030">
        <ele>1080.4</ele>
        <time>2022-08-29T11:19:19Z</time>
      </trkpt>
      <trkpt lat="42.3836360" lon="-3.3262180">
        <ele>1080.6</ele>
        <time>2022-08-29T11:19:20Z</time>
      </trkpt>
      <trkpt lat="42.3836270" lon="-3.3262320">
        <ele>1080.6</ele>
        <time>2022-08-29T11:19:21Z</time>
      </trkpt>
      <trkpt lat="42.3836130" lon="-3.3262510">
        <ele>1080.8</ele>
        <time>2022-08-29T11:19:22Z</time>
      </trkpt>
      <trkpt lat="42.3836040" lon="-3.3262690">
        <ele>1081.2</ele>
        <time>2022-08-29T11:19:23Z</time>
      </trkpt>
      <trkpt lat="42.3835930" lon="-3.3262830">
        <ele>1081.2</ele>
        <time>2022-08-29T11:19:24Z</time>
      </trkpt>
      <trkpt lat="42.3835810" lon="-3.3262910">
        <ele>1081.4</ele>
        <time>2022-08-29T11:19:25Z</time>
      </trkpt>
      <trkpt lat="42.3835650" lon="-3.3263020">
        <ele>1081.4</ele>
        <time>2022-08-29T11:19:26Z</time>
      </trkpt>
      <trkpt lat="42.3835510" lon="-3.3263100">
        <ele>1081.8</ele>
        <time>2022-08-29T11:19:27Z</time>
      </trkpt>
      <trkpt lat="42.3835270" lon="-3.3263200">
        <ele>1081.8</ele>
        <time>2022-08-29T11:19:28Z</time>
      </trkpt>
      <trkpt lat="42.3835110" lon="-3.3263240">
        <ele>1082.2</ele>
        <time>2022-08-29T11:19:29Z</time>
      </trkpt>
      <trkpt lat="42.3834830" lon="-3.3263390">
        <ele>1082.2</ele>
        <time>2022-08-29T11:19:30Z</time>
      </trkpt>
      <trkpt lat="42.3834620" lon="-3.3263500">
        <ele>1082.4</ele>
        <time>2022-08-29T11:19:31Z</time>
      </trkpt>
      <trkpt lat="42.3834450" lon="-3.3263570">
        <ele>1082.4</ele>
        <time>2022-08-29T11:19:32Z</time>
      </trkpt>
      <trkpt lat="42.3834310" lon="-3.3263680">
        <ele>1082.4</ele>
        <time>2022-08-29T11:19:33Z</time>
      </trkpt>
      <trkpt lat="42.3834210" lon="-3.3263770">
        <ele>1082.6</ele>
        <time>2022-08-29T11:19:34Z</time>
      </trkpt>
      <trkpt lat="42.3834070" lon="-3.3263890">
        <ele>1082.6</ele>
        <time>2022-08-29T11:19:35Z</time>
      </trkpt>
      <trkpt lat="42.3833870" lon="-3.3264020">
        <ele>1082.8</ele>
        <time>2022-08-29T11:19:36Z</time>
      </trkpt>
      <trkpt lat="42.3833710" lon="-3.3264110">
        <ele>1083.0</ele>
        <time>2022-08-29T11:19:37Z</time>
      </trkpt>
      <trkpt lat="42.3833590" lon="-3.3264180">
        <ele>1083.0</ele>
        <time>2022-08-29T11:19:38Z</time>
      </trkpt>
      <trkpt lat="42.3833490" lon="-3.3264250">
        <ele>1083.2</ele>
        <time>2022-08-29T11:19:39Z</time>
      </trkpt>
      <trkpt lat="42.3833410" lon="-3.3264330">
        <ele>1083.4</ele>
        <time>2022-08-29T11:19:40Z</time>
      </trkpt>
      <trkpt lat="42.3833300" lon="-3.3264450">
        <ele>1083.6</ele>
        <time>2022-08-29T11:19:41Z</time>
      </trkpt>
      <trkpt lat="42.3833200" lon="-3.3264560">
        <ele>1083.6</ele>
        <time>2022-08-29T11:19:42Z</time>
      </trkpt>
      <trkpt lat="42.3833060" lon="-3.3264700">
        <ele>1083.6</ele>
        <time>2022-08-29T11:19:43Z</time>
      </trkpt>
      <trkpt lat="42.3832900" lon="-3.3264820">
        <ele>1084.0</ele>
        <time>2022-08-29T11:19:44Z</time>
      </trkpt>
      <trkpt lat="42.3832760" lon="-3.3264960">
        <ele>1084.0</ele>
        <time>2022-08-29T11:19:45Z</time>
      </trkpt>
      <trkpt lat="42.3832590" lon="-3.3265120">
        <ele>1084.0</ele>
        <time>2022-08-29T11:19:46Z</time>
      </trkpt>
      <trkpt lat="42.3832400" lon="-3.3265300">
        <ele>1084.4</ele>
        <time>2022-08-29T11:19:47Z</time>
      </trkpt>
      <trkpt lat="42.3832080" lon="-3.3265620">
        <ele>1084.6</ele>
        <time>2022-08-29T11:19:48Z</time>
      </trkpt>
      <trkpt lat="42.3831730" lon="-3.3265880">
        <ele>1084.8</ele>
        <time>2022-08-29T11:19:49Z</time>
      </trkpt>
      <trkpt lat="42.3831500" lon="-3.3266070">
        <ele>1085.0</ele>
        <time>2022-08-29T11:19:50Z</time>
      </trkpt>
      <trkpt lat="42.3831310" lon="-3.3266290">
        <ele>1085.2</ele>
        <time>2022-08-29T11:19:51Z</time>
      </trkpt>
      <trkpt lat="42.3831150" lon="-3.3266500">
        <ele>1085.2</ele>
        <time>2022-08-29T11:19:52Z</time>
      </trkpt>
      <trkpt lat="42.3830970" lon="-3.3266720">
        <ele>1085.2</ele>
        <time>2022-08-29T11:19:53Z</time>
      </trkpt>
      <trkpt lat="42.3830850" lon="-3.3266900">
        <ele>1085.4</ele>
        <time>2022-08-29T11:19:54Z</time>
      </trkpt>
      <trkpt lat="42.3830720" lon="-3.3267090">
        <ele>1085.4</ele>
        <time>2022-08-29T11:19:55Z</time>
      </trkpt>
      <trkpt lat="42.3830580" lon="-3.3267270">
        <ele>1085.4</ele>
        <time>2022-08-29T11:19:56Z</time>
      </trkpt>
      <trkpt lat="42.3830360" lon="-3.3267500">
        <ele>1085.6</ele>
        <time>2022-08-29T11:19:57Z</time>
      </trkpt>
      <trkpt lat="42.3830160" lon="-3.3267750">
        <ele>1085.6</ele>
        <time>2022-08-29T11:19:58Z</time>
      </trkpt>
      <trkpt lat="42.3830030" lon="-3.3267940">
        <ele>1085.8</ele>
        <time>2022-08-29T11:19:59Z</time>
      </trkpt>
      <trkpt lat="42.3829950" lon="-3.3268120">
        <ele>1085.8</ele>
        <time>2022-08-29T11:20:00Z</time>
      </trkpt>
      <trkpt lat="42.3829890" lon="-3.3268260">
        <ele>1086.0</ele>
        <time>2022-08-29T11:20:01Z</time>
      </trkpt>
      <trkpt lat="42.3829820" lon="-3.3268420">
        <ele>1086.2</ele>
        <time>2022-08-29T11:20:02Z</time>
      </trkpt>
      <trkpt lat="42.3829740" lon="-3.3268590">
        <ele>1086.4</ele>
        <time>2022-08-29T11:20:03Z</time>
      </trkpt>
      <trkpt lat="42.3829660" lon="-3.3268710">
        <ele>1086.6</ele>
        <time>2022-08-29T11:20:04Z</time>
      </trkpt>
      <trkpt lat="42.3829570" lon="-3.3268850">
        <ele>1086.6</ele>
        <time>2022-08-29T11:20:05Z</time>
      </trkpt>
      <trkpt lat="42.3829430" lon="-3.3269030">
        <ele>1086.8</ele>
        <time>2022-08-29T11:20:06Z</time>
      </trkpt>
      <trkpt lat="42.3829290" lon="-3.3269250">
        <ele>1086.8</ele>
        <time>2022-08-29T11:20:07Z</time>
      </trkpt>
      <trkpt lat="42.3829110" lon="-3.3269480">
        <ele>1087.0</ele>
        <time>2022-08-29T11:20:08Z</time>
      </trkpt>
      <trkpt lat="42.3828990" lon="-3.3269700">
        <ele>1087.0</ele>
        <time>2022-08-29T11:20:09Z</time>
      </trkpt>
      <trkpt lat="42.3828790" lon="-3.3269960">
        <ele>1087.2</ele>
        <time>2022-08-29T11:20:10Z</time>
      </trkpt>
      <trkpt lat="42.3828690" lon="-3.3270140">
        <ele>1087.2</ele>
        <time>2022-08-29T11:20:11Z</time>
      </trkpt>
      <trkpt lat="42.3828490" lon="-3.3270370">
        <ele>1087.4</ele>
        <time>2022-08-29T11:20:12Z</time>
      </trkpt>
      <trkpt lat="42.3828370" lon="-3.3270540">
        <ele>1087.4</ele>
        <time>2022-08-29T11:20:13Z</time>
      </trkpt>
      <trkpt lat="42.3828270" lon="-3.3270700">
        <ele>1087.8</ele>
        <time>2022-08-29T11:20:14Z</time>
      </trkpt>
      <trkpt lat="42.3828100" lon="-3.3270900">
        <ele>1088.0</ele>
        <time>2022-08-29T11:20:15Z</time>
      </trkpt>
      <trkpt lat="42.3828000" lon="-3.3271080">
        <ele>1088.2</ele>
        <time>2022-08-29T11:20:16Z</time>
      </trkpt>
      <trkpt lat="42.3827810" lon="-3.3271300">
        <ele>1088.2</ele>
        <time>2022-08-29T11:20:17Z</time>
      </trkpt>
      <trkpt lat="42.3827660" lon="-3.3271480">
        <ele>1088.4</ele>
        <time>2022-08-29T11:20:18Z</time>
      </trkpt>
      <trkpt lat="42.3827540" lon="-3.3271660">
        <ele>1088.6</ele>
        <time>2022-08-29T11:20:19Z</time>
      </trkpt>
      <trkpt lat="42.3827410" lon="-3.3271840">
        <ele>1088.8</ele>
        <time>2022-08-29T11:20:20Z</time>
      </trkpt>
      <trkpt lat="42.3827260" lon="-3.3272050">
        <ele>1089.0</ele>
        <time>2022-08-29T11:20:21Z</time>
      </trkpt>
      <trkpt lat="42.3827090" lon="-3.3272270">
        <ele>1089.2</ele>
        <time>2022-08-29T11:20:22Z</time>
      </trkpt>
      <trkpt lat="42.3826990" lon="-3.3272460">
        <ele>1089.4</ele>
        <time>2022-08-29T11:20:23Z</time>
      </trkpt>
      <trkpt lat="42.3826860" lon="-3.3272650">
        <ele>1089.6</ele>
        <time>2022-08-29T11:20:24Z</time>
      </trkpt>
      <trkpt lat="42.3826730" lon="-3.3272870">
        <ele>1089.8</ele>
        <time>2022-08-29T11:20:25Z</time>
      </trkpt>
      <trkpt lat="42.3826600" lon="-3.3273110">
        <ele>1089.8</ele>
        <time>2022-08-29T11:20:26Z</time>
      </trkpt>
      <trkpt lat="42.3826490" lon="-3.3273310">
        <ele>1090.0</ele>
        <time>2022-08-29T11:20:27Z</time>
      </trkpt>
      <trkpt lat="42.3826360" lon="-3.3273490">
        <ele>1090.2</ele>
        <time>2022-08-29T11:20:28Z</time>
      </trkpt>
      <trkpt lat="42.3826230" lon="-3.3273670">
        <ele>1090.2</ele>
        <time>2022-08-29T11:20:29Z</time>
      </trkpt>
      <trkpt lat="42.3826110" lon="-3.3273860">
        <ele>1090.2</ele>
        <time>2022-08-29T11:20:30Z</time>
      </trkpt>
      <trkpt lat="42.3826000" lon="-3.3274060">
        <ele>1090.2</ele>
        <time>2022-08-29T11:20:31Z</time>
      </trkpt>
      <trkpt lat="42.3825890" lon="-3.3274280">
        <ele>1090.4</ele>
        <time>2022-08-29T11:20:32Z</time>
      </trkpt>
      <trkpt lat="42.3825800" lon="-3.3274500">
        <ele>1090.6</ele>
        <time>2022-08-29T11:20:33Z</time>
      </trkpt>
      <trkpt lat="42.3825680" lon="-3.3274700">
        <ele>1090.6</ele>
        <time>2022-08-29T11:20:34Z</time>
      </trkpt>
      <trkpt lat="42.3825540" lon="-3.3274900">
        <ele>1090.6</ele>
        <time>2022-08-29T11:20:35Z</time>
      </trkpt>
      <trkpt lat="42.3825400" lon="-3.3275110">
        <ele>1090.8</ele>
        <time>2022-08-29T11:20:36Z</time>
      </trkpt>
      <trkpt lat="42.3825280" lon="-3.3275330">
        <ele>1091.2</ele>
        <time>2022-08-29T11:20:37Z</time>
      </trkpt>
      <trkpt lat="42.3825180" lon="-3.3275550">
        <ele>1091.2</ele>
        <time>2022-08-29T11:20:38Z</time>
      </trkpt>
      <trkpt lat="42.3825080" lon="-3.3275780">
        <ele>1091.4</ele>
        <time>2022-08-29T11:20:39Z</time>
      </trkpt>
      <trkpt lat="42.3825000" lon="-3.3275980">
        <ele>1091.4</ele>
        <time>2022-08-29T11:20:40Z</time>
      </trkpt>
      <trkpt lat="42.3824900" lon="-3.3276160">
        <ele>1091.6</ele>
        <time>2022-08-29T11:20:41Z</time>
      </trkpt>
      <trkpt lat="42.3824840" lon="-3.3276360">
        <ele>1091.6</ele>
        <time>2022-08-29T11:20:42Z</time>
      </trkpt>
      <trkpt lat="42.3824770" lon="-3.3276550">
        <ele>1091.6</ele>
        <time>2022-08-29T11:20:43Z</time>
      </trkpt>
      <trkpt lat="42.3824640" lon="-3.3276740">
        <ele>1091.8</ele>
        <time>2022-08-29T11:20:44Z</time>
      </trkpt>
      <trkpt lat="42.3824510" lon="-3.3276930">
        <ele>1092.0</ele>
        <time>2022-08-29T11:20:45Z</time>
      </trkpt>
      <trkpt lat="42.3824380" lon="-3.3277130">
        <ele>1092.0</ele>
        <time>2022-08-29T11:20:46Z</time>
      </trkpt>
      <trkpt lat="42.3824240" lon="-3.3277320">
        <ele>1092.2</ele>
        <time>2022-08-29T11:20:47Z</time>
      </trkpt>
      <trkpt lat="42.3824110" lon="-3.3277500">
        <ele>1092.2</ele>
        <time>2022-08-29T11:20:48Z</time>
      </trkpt>
      <trkpt lat="42.3823980" lon="-3.3277720">
        <ele>1092.4</ele>
        <time>2022-08-29T11:20:49Z</time>
      </trkpt>
      <trkpt lat="42.3823840" lon="-3.3277910">
        <ele>1092.4</ele>
        <time>2022-08-29T11:20:50Z</time>
      </trkpt>
      <trkpt lat="42.3823680" lon="-3.3278100">
        <ele>1092.4</ele>
        <time>2022-08-29T11:20:51Z</time>
      </trkpt>
      <trkpt lat="42.3823530" lon="-3.3278260">
        <ele>1092.6</ele>
        <time>2022-08-29T11:20:52Z</time>
      </trkpt>
      <trkpt lat="42.3823360" lon="-3.3278420">
        <ele>1092.8</ele>
        <time>2022-08-29T11:20:53Z</time>
      </trkpt>
      <trkpt lat="42.3823210" lon="-3.3278570">
        <ele>1092.8</ele>
        <time>2022-08-29T11:20:54Z</time>
      </trkpt>
      <trkpt lat="42.3823060" lon="-3.3278720">
        <ele>1092.8</ele>
        <time>2022-08-29T11:20:55Z</time>
      </trkpt>
      <trkpt lat="42.3822940" lon="-3.3278860">
        <ele>1093.0</ele>
        <time>2022-08-29T11:20:56Z</time>
      </trkpt>
      <trkpt lat="42.3822800" lon="-3.3279020">
        <ele>1093.2</ele>
        <time>2022-08-29T11:20:57Z</time>
      </trkpt>
      <trkpt lat="42.3822680" lon="-3.3279200">
        <ele>1093.2</ele>
        <time>2022-08-29T11:20:58Z</time>
      </trkpt>
      <trkpt lat="42.3822560" lon="-3.3279450">
        <ele>1093.2</ele>
        <time>2022-08-29T11:20:59Z</time>
      </trkpt>
      <trkpt lat="42.3822430" lon="-3.3279650">
        <ele>1093.2</ele>
        <time>2022-08-29T11:21:00Z</time>
      </trkpt>
      <trkpt lat="42.3822280" lon="-3.3279820">
        <ele>1093.2</ele>
        <time>2022-08-29T11:21:01Z</time>
      </trkpt>
      <trkpt lat="42.3822210" lon="-3.3280000">
        <ele>1093.6</ele>
        <time>2022-08-29T11:21:02Z</time>
      </trkpt>
      <trkpt lat="42.3822070" lon="-3.3280170">
        <ele>1093.6</ele>
        <time>2022-08-29T11:21:03Z</time>
      </trkpt>
      <trkpt lat="42.3821910" lon="-3.3280370">
        <ele>1093.8</ele>
        <time>2022-08-29T11:21:04Z</time>
      </trkpt>
      <trkpt lat="42.3821770" lon="-3.3280570">
        <ele>1093.8</ele>
        <time>2022-08-29T11:21:05Z</time>
      </trkpt>
      <trkpt lat="42.3821630" lon="-3.3280760">
        <ele>1093.8</ele>
        <time>2022-08-29T11:21:06Z</time>
      </trkpt>
      <trkpt lat="42.3821500" lon="-3.3280910">
        <ele>1093.8</ele>
        <time>2022-08-29T11:21:07Z</time>
      </trkpt>
      <trkpt lat="42.3821390" lon="-3.3281100">
        <ele>1094.0</ele>
        <time>2022-08-29T11:21:08Z</time>
      </trkpt>
      <trkpt lat="42.3821270" lon="-3.3281290">
        <ele>1094.2</ele>
        <time>2022-08-29T11:21:09Z</time>
      </trkpt>
      <trkpt lat="42.3821130" lon="-3.3281490">
        <ele>1094.4</ele>
        <time>2022-08-29T11:21:10Z</time>
      </trkpt>
      <trkpt lat="42.3820970" lon="-3.3281700">
        <ele>1094.2</ele>
        <time>2022-08-29T11:21:11Z</time>
      </trkpt>
      <trkpt lat="42.3820830" lon="-3.3281920">
        <ele>1094.4</ele>
        <time>2022-08-29T11:21:12Z</time>
      </trkpt>
      <trkpt lat="42.3820710" lon="-3.3282110">
        <ele>1094.4</ele>
        <time>2022-08-29T11:21:13Z</time>
      </trkpt>
      <trkpt lat="42.3820550" lon="-3.3282290">
        <ele>1094.6</ele>
        <time>2022-08-29T11:21:14Z</time>
      </trkpt>
      <trkpt lat="42.3820430" lon="-3.3282480">
        <ele>1094.6</ele>
        <time>2022-08-29T11:21:15Z</time>
      </trkpt>
      <trkpt lat="42.3820320" lon="-3.3282660">
        <ele>1094.6</ele>
        <time>2022-08-29T11:21:16Z</time>
      </trkpt>
      <trkpt lat="42.3820230" lon="-3.3282820">
        <ele>1094.8</ele>
        <time>2022-08-29T11:21:17Z</time>
      </trkpt>
      <trkpt lat="42.3820130" lon="-3.3282980">
        <ele>1094.8</ele>
        <time>2022-08-29T11:21:18Z</time>
      </trkpt>
      <trkpt lat="42.3819980" lon="-3.3283180">
        <ele>1094.8</ele>
        <time>2022-08-29T11:21:19Z</time>
      </trkpt>
      <trkpt lat="42.3819820" lon="-3.3283410">
        <ele>1095.0</ele>
        <time>2022-08-29T11:21:20Z</time>
      </trkpt>
      <trkpt lat="42.3819680" lon="-3.3283640">
        <ele>1095.0</ele>
        <time>2022-08-29T11:21:21Z</time>
      </trkpt>
      <trkpt lat="42.3819520" lon="-3.3283870">
        <ele>1094.8</ele>
        <time>2022-08-29T11:21:22Z</time>
      </trkpt>
      <trkpt lat="42.3819370" lon="-3.3284100">
        <ele>1094.8</ele>
        <time>2022-08-29T11:21:23Z</time>
      </trkpt>
      <trkpt lat="42.3819240" lon="-3.3284320">
        <ele>1095.0</ele>
        <time>2022-08-29T11:21:24Z</time>
      </trkpt>
      <trkpt lat="42.3819060" lon="-3.3284520">
        <ele>1095.0</ele>
        <time>2022-08-29T11:21:25Z</time>
      </trkpt>
      <trkpt lat="42.3818880" lon="-3.3284750">
        <ele>1095.2</ele>
        <time>2022-08-29T11:21:26Z</time>
      </trkpt>
      <trkpt lat="42.3818740" lon="-3.3284980">
        <ele>1095.2</ele>
        <time>2022-08-29T11:21:27Z</time>
      </trkpt>
      <trkpt lat="42.3818580" lon="-3.3285200">
        <ele>1095.2</ele>
        <time>2022-08-29T11:21:28Z</time>
      </trkpt>
      <trkpt lat="42.3818420" lon="-3.3285380">
        <ele>1095.4</ele>
        <time>2022-08-29T11:21:29Z</time>
      </trkpt>
      <trkpt lat="42.3818290" lon="-3.3285500">
        <ele>1095.6</ele>
        <time>2022-08-29T11:21:30Z</time>
      </trkpt>
      <trkpt lat="42.3818160" lon="-3.3285660">
        <ele>1095.8</ele>
        <time>2022-08-29T11:21:31Z</time>
      </trkpt>
      <trkpt lat="42.3817990" lon="-3.3285880">
        <ele>1095.6</ele>
        <time>2022-08-29T11:21:32Z</time>
      </trkpt>
      <trkpt lat="42.3817830" lon="-3.3286120">
        <ele>1095.8</ele>
        <time>2022-08-29T11:21:33Z</time>
      </trkpt>
      <trkpt lat="42.3817660" lon="-3.3286320">
        <ele>1095.8</ele>
        <time>2022-08-29T11:21:34Z</time>
      </trkpt>
      <trkpt lat="42.3817520" lon="-3.3286520">
        <ele>1096.2</ele>
        <time>2022-08-29T11:21:35Z</time>
      </trkpt>
      <trkpt lat="42.3817420" lon="-3.3286730">
        <ele>1096.2</ele>
        <time>2022-08-29T11:21:36Z</time>
      </trkpt>
      <trkpt lat="42.3817310" lon="-3.3286940">
        <ele>1096.4</ele>
        <time>2022-08-29T11:21:37Z</time>
      </trkpt>
      <trkpt lat="42.3817150" lon="-3.3287140">
        <ele>1096.4</ele>
        <time>2022-08-29T11:21:38Z</time>
      </trkpt>
      <trkpt lat="42.3816970" lon="-3.3287330">
        <ele>1096.4</ele>
        <time>2022-08-29T11:21:39Z</time>
      </trkpt>
      <trkpt lat="42.3816830" lon="-3.3287480">
        <ele>1096.6</ele>
        <time>2022-08-29T11:21:40Z</time>
      </trkpt>
      <trkpt lat="42.3816640" lon="-3.3287660">
        <ele>1096.6</ele>
        <time>2022-08-29T11:21:41Z</time>
      </trkpt>
      <trkpt lat="42.3816480" lon="-3.3287830">
        <ele>1096.6</ele>
        <time>2022-08-29T11:21:42Z</time>
      </trkpt>
      <trkpt lat="42.3816340" lon="-3.3287970">
        <ele>1096.6</ele>
        <time>2022-08-29T11:21:43Z</time>
      </trkpt>
      <trkpt lat="42.3816050" lon="-3.3288240">
        <ele>1097.0</ele>
        <time>2022-08-29T11:21:44Z</time>
      </trkpt>
      <trkpt lat="42.3815830" lon="-3.3288490">
        <ele>1097.0</ele>
        <time>2022-08-29T11:21:45Z</time>
      </trkpt>
      <trkpt lat="42.3815630" lon="-3.3288760">
        <ele>1097.0</ele>
        <time>2022-08-29T11:21:46Z</time>
      </trkpt>
      <trkpt lat="42.3815420" lon="-3.3288980">
        <ele>1097.0</ele>
        <time>2022-08-29T11:21:47Z</time>
      </trkpt>
      <trkpt lat="42.3815250" lon="-3.3289170">
        <ele>1097.2</ele>
        <time>2022-08-29T11:21:48Z</time>
      </trkpt>
      <trkpt lat="42.3815050" lon="-3.3289390">
        <ele>1097.2</ele>
        <time>2022-08-29T11:21:49Z</time>
      </trkpt>
      <trkpt lat="42.3814840" lon="-3.3289650">
        <ele>1097.4</ele>
        <time>2022-08-29T11:21:50Z</time>
      </trkpt>
      <trkpt lat="42.3814670" lon="-3.3289910">
        <ele>1097.2</ele>
        <time>2022-08-29T11:21:51Z</time>
      </trkpt>
      <trkpt lat="42.3814540" lon="-3.3290130">
        <ele>1097.4</ele>
        <time>2022-08-29T11:21:52Z</time>
      </trkpt>
      <trkpt lat="42.3814400" lon="-3.3290340">
        <ele>1097.6</ele>
        <time>2022-08-29T11:21:53Z</time>
      </trkpt>
      <trkpt lat="42.3814180" lon="-3.3290580">
        <ele>1097.6</ele>
        <time>2022-08-29T11:21:54Z</time>
      </trkpt>
      <trkpt lat="42.3814020" lon="-3.3290780">
        <ele>1097.8</ele>
        <time>2022-08-29T11:21:55Z</time>
      </trkpt>
      <trkpt lat="42.3813850" lon="-3.3290980">
        <ele>1097.8</ele>
        <time>2022-08-29T11:21:56Z</time>
      </trkpt>
      <trkpt lat="42.3813680" lon="-3.3291170">
        <ele>1097.8</ele>
        <time>2022-08-29T11:21:57Z</time>
      </trkpt>
      <trkpt lat="42.3813440" lon="-3.3291380">
        <ele>1098.0</ele>
        <time>2022-08-29T11:21:58Z</time>
      </trkpt>
      <trkpt lat="42.3813180" lon="-3.3291610">
        <ele>1098.2</ele>
        <time>2022-08-29T11:21:59Z</time>
      </trkpt>
      <trkpt lat="42.3812980" lon="-3.3291830">
        <ele>1098.2</ele>
        <time>2022-08-29T11:22:00Z</time>
      </trkpt>
      <trkpt lat="42.3812690" lon="-3.3292040">
        <ele>1098.4</ele>
        <time>2022-08-29T11:22:01Z</time>
      </trkpt>
      <trkpt lat="42.3812430" lon="-3.3292190">
        <ele>1098.2</ele>
        <time>2022-08-29T11:22:02Z</time>
      </trkpt>
      <trkpt lat="42.3812110" lon="-3.3292410">
        <ele>1098.2</ele>
        <time>2022-08-29T11:22:03Z</time>
      </trkpt>
      <trkpt lat="42.3811770" lon="-3.3292680">
        <ele>1098.2</ele>
        <time>2022-08-29T11:22:04Z</time>
      </trkpt>
      <trkpt lat="42.3811500" lon="-3.3292920">
        <ele>1098.4</ele>
        <time>2022-08-29T11:22:05Z</time>
      </trkpt>
      <trkpt lat="42.3811160" lon="-3.3293170">
        <ele>1098.2</ele>
        <time>2022-08-29T11:22:06Z</time>
      </trkpt>
      <trkpt lat="42.3810880" lon="-3.3293380">
        <ele>1098.2</ele>
        <time>2022-08-29T11:22:07Z</time>
      </trkpt>
      <trkpt lat="42.3810670" lon="-3.3293520">
        <ele>1098.2</ele>
        <time>2022-08-29T11:22:08Z</time>
      </trkpt>
      <trkpt lat="42.3810470" lon="-3.3293650">
        <ele>1098.2</ele>
        <time>2022-08-29T11:22:09Z</time>
      </trkpt>
      <trkpt lat="42.3810250" lon="-3.3293790">
        <ele>1098.2</ele>
        <time>2022-08-29T11:22:10Z</time>
      </trkpt>
      <trkpt lat="42.3810010" lon="-3.3293960">
        <ele>1098.2</ele>
        <time>2022-08-29T11:22:11Z</time>
      </trkpt>
      <trkpt lat="42.3809830" lon="-3.3294140">
        <ele>1098.0</ele>
        <time>2022-08-29T11:22:12Z</time>
      </trkpt>
      <trkpt lat="42.3809650" lon="-3.3294380">
        <ele>1098.0</ele>
        <time>2022-08-29T11:22:13Z</time>
      </trkpt>
      <trkpt lat="42.3809420" lon="-3.3294610">
        <ele>1098.0</ele>
        <time>2022-08-29T11:22:14Z</time>
      </trkpt>
      <trkpt lat="42.3809220" lon="-3.3294830">
        <ele>1098.2</ele>
        <time>2022-08-29T11:22:15Z</time>
      </trkpt>
      <trkpt lat="42.3809000" lon="-3.3295030">
        <ele>1098.0</ele>
        <time>2022-08-29T11:22:16Z</time>
      </trkpt>
      <trkpt lat="42.3808720" lon="-3.3295240">
        <ele>1098.0</ele>
        <time>2022-08-29T11:22:17Z</time>
      </trkpt>
      <trkpt lat="42.3808520" lon="-3.3295430">
        <ele>1098.0</ele>
        <time>2022-08-29T11:22:18Z</time>
      </trkpt>
      <trkpt lat="42.3808310" lon="-3.3295620">
        <ele>1098.0</ele>
        <time>2022-08-29T11:22:19Z</time>
      </trkpt>
      <trkpt lat="42.3808010" lon="-3.3295850">
        <ele>1098.0</ele>
        <time>2022-08-29T11:22:20Z</time>
      </trkpt>
      <trkpt lat="42.3807630" lon="-3.3296120">
        <ele>1098.0</ele>
        <time>2022-08-29T11:22:21Z</time>
      </trkpt>
      <trkpt lat="42.3807300" lon="-3.3296360">
        <ele>1098.0</ele>
        <time>2022-08-29T11:22:22Z</time>
      </trkpt>
      <trkpt lat="42.3807080" lon="-3.3296560">
        <ele>1098.2</ele>
        <time>2022-08-29T11:22:23Z</time>
      </trkpt>
      <trkpt lat="42.3806860" lon="-3.3296770">
        <ele>1098.2</ele>
        <time>2022-08-29T11:22:24Z</time>
      </trkpt>
      <trkpt lat="42.3806570" lon="-3.3297060">
        <ele>1098.2</ele>
        <time>2022-08-29T11:22:25Z</time>
      </trkpt>
      <trkpt lat="42.3806350" lon="-3.3297300">
        <ele>1098.2</ele>
        <time>2022-08-29T11:22:26Z</time>
      </trkpt>
      <trkpt lat="42.3806180" lon="-3.3297500">
        <ele>1098.4</ele>
        <time>2022-08-29T11:22:27Z</time>
      </trkpt>
      <trkpt lat="42.3805940" lon="-3.3297720">
        <ele>1098.4</ele>
        <time>2022-08-29T11:22:28Z</time>
      </trkpt>
      <trkpt lat="42.3805730" lon="-3.3297910">
        <ele>1098.4</ele>
        <time>2022-08-29T11:22:29Z</time>
      </trkpt>
      <trkpt lat="42.3805490" lon="-3.3298100">
        <ele>1098.6</ele>
        <time>2022-08-29T11:22:30Z</time>
      </trkpt>
      <trkpt lat="42.3805310" lon="-3.3298220">
        <ele>1098.6</ele>
        <time>2022-08-29T11:22:31Z</time>
      </trkpt>
      <trkpt lat="42.3805170" lon="-3.3298310">
        <ele>1098.8</ele>
        <time>2022-08-29T11:22:32Z</time>
      </trkpt>
      <trkpt lat="42.3805100" lon="-3.3298370">
        <ele>1099.0</ele>
        <time>2022-08-29T11:22:33Z</time>
      </trkpt>
      <trkpt lat="42.3805000" lon="-3.3298520">
        <ele>1099.0</ele>
        <time>2022-08-29T11:22:34Z</time>
      </trkpt>
      <trkpt lat="42.3804910" lon="-3.3298610">
        <ele>1099.2</ele>
        <time>2022-08-29T11:22:35Z</time>
      </trkpt>
      <trkpt lat="42.3804650" lon="-3.3298790">
        <ele>1099.2</ele>
        <time>2022-08-29T11:22:36Z</time>
      </trkpt>
      <trkpt lat="42.3804480" lon="-3.3298900">
        <ele>1099.4</ele>
        <time>2022-08-29T11:22:37Z</time>
      </trkpt>
      <trkpt lat="42.3804340" lon="-3.3299020">
        <ele>1099.6</ele>
        <time>2022-08-29T11:22:38Z</time>
      </trkpt>
      <trkpt lat="42.3804190" lon="-3.3299190">
        <ele>1099.6</ele>
        <time>2022-08-29T11:22:39Z</time>
      </trkpt>
      <trkpt lat="42.3803970" lon="-3.3299420">
        <ele>1099.8</ele>
        <time>2022-08-29T11:22:40Z</time>
      </trkpt>
      <trkpt lat="42.3803840" lon="-3.3299500">
        <ele>1099.8</ele>
        <time>2022-08-29T11:22:41Z</time>
      </trkpt>
      <trkpt lat="42.3803720" lon="-3.3299650">
        <ele>1100.0</ele>
        <time>2022-08-29T11:22:42Z</time>
      </trkpt>
      <trkpt lat="42.3803560" lon="-3.3299740">
        <ele>1100.0</ele>
        <time>2022-08-29T11:22:43Z</time>
      </trkpt>
      <trkpt lat="42.3803320" lon="-3.3299900">
        <ele>1100.4</ele>
        <time>2022-08-29T11:22:44Z</time>
      </trkpt>
      <trkpt lat="42.3803160" lon="-3.3300030">
        <ele>1100.2</ele>
        <time>2022-08-29T11:22:45Z</time>
      </trkpt>
      <trkpt lat="42.3803040" lon="-3.3300190">
        <ele>1100.2</ele>
        <time>2022-08-29T11:22:46Z</time>
      </trkpt>
      <trkpt lat="42.3802960" lon="-3.3300310">
        <ele>1100.4</ele>
        <time>2022-08-29T11:22:47Z</time>
      </trkpt>
      <trkpt lat="42.3802830" lon="-3.3300400">
        <ele>1100.6</ele>
        <time>2022-08-29T11:22:48Z</time>
      </trkpt>
      <trkpt lat="42.3802750" lon="-3.3300510">
        <ele>1100.6</ele>
        <time>2022-08-29T11:22:49Z</time>
      </trkpt>
      <trkpt lat="42.3802700" lon="-3.3300550">
        <ele>1100.6</ele>
        <time>2022-08-29T11:22:50Z</time>
      </trkpt>
      <trkpt lat="42.3802790" lon="-3.3300540">
        <ele>1101.0</ele>
        <time>2022-08-29T11:22:51Z</time>
      </trkpt>
      <trkpt lat="42.3802640" lon="-3.3300650">
        <ele>1101.4</ele>
        <time>2022-08-29T11:22:52Z</time>
      </trkpt>
      <trkpt lat="42.3802520" lon="-3.3300750">
        <ele>1101.4</ele>
        <time>2022-08-29T11:22:53Z</time>
      </trkpt>
      <trkpt lat="42.3802510" lon="-3.3300760">
        <ele>1101.6</ele>
        <time>2022-08-29T11:22:54Z</time>
      </trkpt>
      <trkpt lat="42.3802500" lon="-3.3300760">
        <ele>1101.8</ele>
        <time>2022-08-29T11:22:55Z</time>
      </trkpt>
      <trkpt lat="42.3802510" lon="-3.3300770">
        <ele>1101.8</ele>
        <time>2022-08-29T11:22:56Z</time>
      </trkpt>
      <trkpt lat="42.3802510" lon="-3.3300780">
        <ele>1101.8</ele>
        <time>2022-08-29T11:22:57Z</time>
      </trkpt>
      <trkpt lat="42.3802480" lon="-3.3300810">
        <ele>1102.0</ele>
        <time>2022-08-29T11:22:58Z</time>
      </trkpt>
      <trkpt lat="42.3802450" lon="-3.3300820">
        <ele>1102.2</ele>
        <time>2022-08-29T11:22:59Z</time>
      </trkpt>
      <trkpt lat="42.3802420" lon="-3.3300830">
        <ele>1102.2</ele>
        <time>2022-08-29T11:23:00Z</time>
      </trkpt>
      <trkpt lat="42.3802370" lon="-3.3300840">
        <ele>1102.0</ele>
        <time>2022-08-29T11:23:01Z</time>
      </trkpt>
      <trkpt lat="42.3802130" lon="-3.3300960">
        <ele>1102.2</ele>
        <time>2022-08-29T11:23:02Z</time>
      </trkpt>
      <trkpt lat="42.3802050" lon="-3.3301060">
        <ele>1102.2</ele>
        <time>2022-08-29T11:23:03Z</time>
      </trkpt>
      <trkpt lat="42.3801950" lon="-3.3301170">
        <ele>1102.2</ele>
        <time>2022-08-29T11:23:04Z</time>
      </trkpt>
      <trkpt lat="42.3801850" lon="-3.3301290">
        <ele>1102.2</ele>
        <time>2022-08-29T11:23:05Z</time>
      </trkpt>
      <trkpt lat="42.3801700" lon="-3.3301400">
        <ele>1102.2</ele>
        <time>2022-08-29T11:23:06Z</time>
      </trkpt>
      <trkpt lat="42.3801560" lon="-3.3301550">
        <ele>1102.2</ele>
        <time>2022-08-29T11:23:07Z</time>
      </trkpt>
      <trkpt lat="42.3801420" lon="-3.3301700">
        <ele>1102.2</ele>
        <time>2022-08-29T11:23:08Z</time>
      </trkpt>
      <trkpt lat="42.3801310" lon="-3.3301850">
        <ele>1102.2</ele>
        <time>2022-08-29T11:23:09Z</time>
      </trkpt>
      <trkpt lat="42.3801190" lon="-3.3301990">
        <ele>1102.2</ele>
        <time>2022-08-29T11:23:10Z</time>
      </trkpt>
      <trkpt lat="42.3801020" lon="-3.3302150">
        <ele>1102.2</ele>
        <time>2022-08-29T11:23:11Z</time>
      </trkpt>
      <trkpt lat="42.3800860" lon="-3.3302330">
        <ele>1102.4</ele>
        <time>2022-08-29T11:23:12Z</time>
      </trkpt>
      <trkpt lat="42.3800740" lon="-3.3302450">
        <ele>1102.2</ele>
        <time>2022-08-29T11:23:13Z</time>
      </trkpt>
      <trkpt lat="42.3800530" lon="-3.3302610">
        <ele>1102.4</ele>
        <time>2022-08-29T11:23:14Z</time>
      </trkpt>
      <trkpt lat="42.3800370" lon="-3.3302770">
        <ele>1102.4</ele>
        <time>2022-08-29T11:23:15Z</time>
      </trkpt>
      <trkpt lat="42.3800150" lon="-3.3303020">
        <ele>1102.6</ele>
        <time>2022-08-29T11:23:16Z</time>
      </trkpt>
      <trkpt lat="42.3800010" lon="-3.3303180">
        <ele>1102.8</ele>
        <time>2022-08-29T11:23:17Z</time>
      </trkpt>
      <trkpt lat="42.3799880" lon="-3.3303320">
        <ele>1103.0</ele>
        <time>2022-08-29T11:23:18Z</time>
      </trkpt>
      <trkpt lat="42.3799580" lon="-3.3303540">
        <ele>1103.2</ele>
        <time>2022-08-29T11:23:19Z</time>
      </trkpt>
      <trkpt lat="42.3799370" lon="-3.3303710">
        <ele>1103.0</ele>
        <time>2022-08-29T11:23:20Z</time>
      </trkpt>
      <trkpt lat="42.3799250" lon="-3.3303870">
        <ele>1103.0</ele>
        <time>2022-08-29T11:23:21Z</time>
      </trkpt>
      <trkpt lat="42.3799100" lon="-3.3304020">
        <ele>1103.2</ele>
        <time>2022-08-29T11:23:22Z</time>
      </trkpt>
      <trkpt lat="42.3798960" lon="-3.3304200">
        <ele>1103.4</ele>
        <time>2022-08-29T11:23:23Z</time>
      </trkpt>
      <trkpt lat="42.3798810" lon="-3.3304420">
        <ele>1103.8</ele>
        <time>2022-08-29T11:23:24Z</time>
      </trkpt>
      <trkpt lat="42.3798640" lon="-3.3304650">
        <ele>1103.8</ele>
        <time>2022-08-29T11:23:25Z</time>
      </trkpt>
      <trkpt lat="42.3798350" lon="-3.3304960">
        <ele>1103.8</ele>
        <time>2022-08-29T11:23:26Z</time>
      </trkpt>
      <trkpt lat="42.3798040" lon="-3.3305280">
        <ele>1104.2</ele>
        <time>2022-08-29T11:23:27Z</time>
      </trkpt>
      <trkpt lat="42.3797840" lon="-3.3305500">
        <ele>1104.4</ele>
        <time>2022-08-29T11:23:28Z</time>
      </trkpt>
      <trkpt lat="42.3797560" lon="-3.3305750">
        <ele>1104.4</ele>
        <time>2022-08-29T11:23:29Z</time>
      </trkpt>
      <trkpt lat="42.3797280" lon="-3.3306030">
        <ele>1104.4</ele>
        <time>2022-08-29T11:23:30Z</time>
      </trkpt>
      <trkpt lat="42.3797080" lon="-3.3306270">
        <ele>1104.6</ele>
        <time>2022-08-29T11:23:31Z</time>
      </trkpt>
      <trkpt lat="42.3796840" lon="-3.3306560">
        <ele>1105.0</ele>
        <time>2022-08-29T11:23:32Z</time>
      </trkpt>
      <trkpt lat="42.3796670" lon="-3.3306770">
        <ele>1105.0</ele>
        <time>2022-08-29T11:23:33Z</time>
      </trkpt>
      <trkpt lat="42.3796430" lon="-3.3306990">
        <ele>1105.4</ele>
        <time>2022-08-29T11:23:34Z</time>
      </trkpt>
      <trkpt lat="42.3796280" lon="-3.3307210">
        <ele>1105.8</ele>
        <time>2022-08-29T11:23:35Z</time>
      </trkpt>
      <trkpt lat="42.3796060" lon="-3.3307460">
        <ele>1105.8</ele>
        <time>2022-08-29T11:23:36Z</time>
      </trkpt>
      <trkpt lat="42.3795880" lon="-3.3307650">
        <ele>1106.2</ele>
        <time>2022-08-29T11:23:37Z</time>
      </trkpt>
      <trkpt lat="42.3795720" lon="-3.3307830">
        <ele>1106.2</ele>
        <time>2022-08-29T11:23:38Z</time>
      </trkpt>
      <trkpt lat="42.3795490" lon="-3.3308120">
        <ele>1106.4</ele>
        <time>2022-08-29T11:23:39Z</time>
      </trkpt>
      <trkpt lat="42.3795210" lon="-3.3308440">
        <ele>1106.4</ele>
        <time>2022-08-29T11:23:40Z</time>
      </trkpt>
      <trkpt lat="42.3795020" lon="-3.3308710">
        <ele>1106.4</ele>
        <time>2022-08-29T11:23:41Z</time>
      </trkpt>
      <trkpt lat="42.3794760" lon="-3.3309000">
        <ele>1106.6</ele>
        <time>2022-08-29T11:23:42Z</time>
      </trkpt>
      <trkpt lat="42.3794580" lon="-3.3309270">
        <ele>1107.0</ele>
        <time>2022-08-29T11:23:43Z</time>
      </trkpt>
      <trkpt lat="42.3794380" lon="-3.3309540">
        <ele>1107.4</ele>
        <time>2022-08-29T11:23:44Z</time>
      </trkpt>
      <trkpt lat="42.3794210" lon="-3.3309790">
        <ele>1107.4</ele>
        <time>2022-08-29T11:23:45Z</time>
      </trkpt>
      <trkpt lat="42.3794000" lon="-3.3310060">
        <ele>1107.4</ele>
        <time>2022-08-29T11:23:46Z</time>
      </trkpt>
      <trkpt lat="42.3793780" lon="-3.3310290">
        <ele>1107.6</ele>
        <time>2022-08-29T11:23:47Z</time>
      </trkpt>
      <trkpt lat="42.3793570" lon="-3.3310550">
        <ele>1108.0</ele>
        <time>2022-08-29T11:23:48Z</time>
      </trkpt>
      <trkpt lat="42.3793360" lon="-3.3310790">
        <ele>1108.0</ele>
        <time>2022-08-29T11:23:49Z</time>
      </trkpt>
      <trkpt lat="42.3793140" lon="-3.3311030">
        <ele>1108.2</ele>
        <time>2022-08-29T11:23:50Z</time>
      </trkpt>
      <trkpt lat="42.3792960" lon="-3.3311260">
        <ele>1108.4</ele>
        <time>2022-08-29T11:23:51Z</time>
      </trkpt>
      <trkpt lat="42.3792790" lon="-3.3311490">
        <ele>1108.4</ele>
        <time>2022-08-29T11:23:52Z</time>
      </trkpt>
      <trkpt lat="42.3792590" lon="-3.3311700">
        <ele>1108.8</ele>
        <time>2022-08-29T11:23:53Z</time>
      </trkpt>
      <trkpt lat="42.3792450" lon="-3.3311910">
        <ele>1108.8</ele>
        <time>2022-08-29T11:23:54Z</time>
      </trkpt>
      <trkpt lat="42.3792320" lon="-3.3312120">
        <ele>1109.0</ele>
        <time>2022-08-29T11:23:55Z</time>
      </trkpt>
      <trkpt lat="42.3792170" lon="-3.3312350">
        <ele>1109.2</ele>
        <time>2022-08-29T11:23:56Z</time>
      </trkpt>
      <trkpt lat="42.3792020" lon="-3.3312540">
        <ele>1109.4</ele>
        <time>2022-08-29T11:23:57Z</time>
      </trkpt>
      <trkpt lat="42.3791840" lon="-3.3312760">
        <ele>1109.4</ele>
        <time>2022-08-29T11:23:58Z</time>
      </trkpt>
      <trkpt lat="42.3791660" lon="-3.3312990">
        <ele>1109.6</ele>
        <time>2022-08-29T11:23:59Z</time>
      </trkpt>
      <trkpt lat="42.3791490" lon="-3.3313200">
        <ele>1109.8</ele>
        <time>2022-08-29T11:24:00Z</time>
      </trkpt>
      <trkpt lat="42.3791320" lon="-3.3313400">
        <ele>1110.0</ele>
        <time>2022-08-29T11:24:01Z</time>
      </trkpt>
      <trkpt lat="42.3791150" lon="-3.3313610">
        <ele>1110.0</ele>
        <time>2022-08-29T11:24:02Z</time>
      </trkpt>
      <trkpt lat="42.3790960" lon="-3.3313860">
        <ele>1110.2</ele>
        <time>2022-08-29T11:24:03Z</time>
      </trkpt>
      <trkpt lat="42.3790810" lon="-3.3314100">
        <ele>1110.2</ele>
        <time>2022-08-29T11:24:04Z</time>
      </trkpt>
      <trkpt lat="42.3790630" lon="-3.3314330">
        <ele>1110.2</ele>
        <time>2022-08-29T11:24:05Z</time>
      </trkpt>
      <trkpt lat="42.3790440" lon="-3.3314580">
        <ele>1110.6</ele>
        <time>2022-08-29T11:24:06Z</time>
      </trkpt>
      <trkpt lat="42.3790250" lon="-3.3314860">
        <ele>1110.8</ele>
        <time>2022-08-29T11:24:07Z</time>
      </trkpt>
      <trkpt lat="42.3790070" lon="-3.3315160">
        <ele>1111.0</ele>
        <time>2022-08-29T11:24:08Z</time>
      </trkpt>
      <trkpt lat="42.3789880" lon="-3.3315450">
        <ele>1111.0</ele>
        <time>2022-08-29T11:24:09Z</time>
      </trkpt>
      <trkpt lat="42.3789680" lon="-3.3315770">
        <ele>1111.2</ele>
        <time>2022-08-29T11:24:10Z</time>
      </trkpt>
      <trkpt lat="42.3789450" lon="-3.3316090">
        <ele>1111.4</ele>
        <time>2022-08-29T11:24:11Z</time>
      </trkpt>
      <trkpt lat="42.3789230" lon="-3.3316390">
        <ele>1111.4</ele>
        <time>2022-08-29T11:24:12Z</time>
      </trkpt>
      <trkpt lat="42.3789020" lon="-3.3316650">
        <ele>1111.4</ele>
        <time>2022-08-29T11:24:13Z</time>
      </trkpt>
      <trkpt lat="42.3788820" lon="-3.3316910">
        <ele>1111.6</ele>
        <time>2022-08-29T11:24:14Z</time>
      </trkpt>
      <trkpt lat="42.3788650" lon="-3.3317150">
        <ele>1111.6</ele>
        <time>2022-08-29T11:24:15Z</time>
      </trkpt>
      <trkpt lat="42.3788520" lon="-3.3317390">
        <ele>1111.8</ele>
        <time>2022-08-29T11:24:16Z</time>
      </trkpt>
      <trkpt lat="42.3788390" lon="-3.3317600">
        <ele>1111.8</ele>
        <time>2022-08-29T11:24:17Z</time>
      </trkpt>
      <trkpt lat="42.3788230" lon="-3.3317780">
        <ele>1112.0</ele>
        <time>2022-08-29T11:24:18Z</time>
      </trkpt>
      <trkpt lat="42.3788050" lon="-3.3317960">
        <ele>1112.0</ele>
        <time>2022-08-29T11:24:19Z</time>
      </trkpt>
      <trkpt lat="42.3787850" lon="-3.3318180">
        <ele>1112.0</ele>
        <time>2022-08-29T11:24:20Z</time>
      </trkpt>
      <trkpt lat="42.3787650" lon="-3.3318420">
        <ele>1112.0</ele>
        <time>2022-08-29T11:24:21Z</time>
      </trkpt>
      <trkpt lat="42.3787430" lon="-3.3318690">
        <ele>1112.2</ele>
        <time>2022-08-29T11:24:22Z</time>
      </trkpt>
      <trkpt lat="42.3787200" lon="-3.3318950">
        <ele>1112.2</ele>
        <time>2022-08-29T11:24:23Z</time>
      </trkpt>
      <trkpt lat="42.3786950" lon="-3.3319190">
        <ele>1112.4</ele>
        <time>2022-08-29T11:24:24Z</time>
      </trkpt>
      <trkpt lat="42.3786690" lon="-3.3319430">
        <ele>1112.8</ele>
        <time>2022-08-29T11:24:25Z</time>
      </trkpt>
      <trkpt lat="42.3786390" lon="-3.3319660">
        <ele>1112.8</ele>
        <time>2022-08-29T11:24:26Z</time>
      </trkpt>
      <trkpt lat="42.3786080" lon="-3.3319890">
        <ele>1113.0</ele>
        <time>2022-08-29T11:24:27Z</time>
      </trkpt>
      <trkpt lat="42.3785780" lon="-3.3320110">
        <ele>1113.0</ele>
        <time>2022-08-29T11:24:28Z</time>
      </trkpt>
      <trkpt lat="42.3785480" lon="-3.3320340">
        <ele>1113.0</ele>
        <time>2022-08-29T11:24:29Z</time>
      </trkpt>
      <trkpt lat="42.3785190" lon="-3.3320570">
        <ele>1113.0</ele>
        <time>2022-08-29T11:24:30Z</time>
      </trkpt>
      <trkpt lat="42.3784920" lon="-3.3320790">
        <ele>1113.2</ele>
        <time>2022-08-29T11:24:31Z</time>
      </trkpt>
      <trkpt lat="42.3784650" lon="-3.3321010">
        <ele>1113.2</ele>
        <time>2022-08-29T11:24:32Z</time>
      </trkpt>
      <trkpt lat="42.3784370" lon="-3.3321210">
        <ele>1113.4</ele>
        <time>2022-08-29T11:24:33Z</time>
      </trkpt>
      <trkpt lat="42.3784110" lon="-3.3321410">
        <ele>1113.4</ele>
        <time>2022-08-29T11:24:34Z</time>
      </trkpt>
      <trkpt lat="42.3783860" lon="-3.3321650">
        <ele>1113.4</ele>
        <time>2022-08-29T11:24:35Z</time>
      </trkpt>
      <trkpt lat="42.3783590" lon="-3.3321900">
        <ele>1113.6</ele>
        <time>2022-08-29T11:24:36Z</time>
      </trkpt>
      <trkpt lat="42.3783310" lon="-3.3322150">
        <ele>1113.8</ele>
        <time>2022-08-29T11:24:37Z</time>
      </trkpt>
      <trkpt lat="42.3783040" lon="-3.3322420">
        <ele>1113.8</ele>
        <time>2022-08-29T11:24:38Z</time>
      </trkpt>
      <trkpt lat="42.3782750" lon="-3.3322710">
        <ele>1113.8</ele>
        <time>2022-08-29T11:24:39Z</time>
      </trkpt>
      <trkpt lat="42.3782470" lon="-3.3323020">
        <ele>1114.0</ele>
        <time>2022-08-29T11:24:40Z</time>
      </trkpt>
      <trkpt lat="42.3782200" lon="-3.3323320">
        <ele>1114.0</ele>
        <time>2022-08-29T11:24:41Z</time>
      </trkpt>
      <trkpt lat="42.3781930" lon="-3.3323650">
        <ele>1114.0</ele>
        <time>2022-08-29T11:24:42Z</time>
      </trkpt>
      <trkpt lat="42.3781660" lon="-3.3323980">
        <ele>1114.2</ele>
        <time>2022-08-29T11:24:43Z</time>
      </trkpt>
      <trkpt lat="42.3781400" lon="-3.3324300">
        <ele>1114.0</ele>
        <time>2022-08-29T11:24:44Z</time>
      </trkpt>
      <trkpt lat="42.3781150" lon="-3.3324630">
        <ele>1114.0</ele>
        <time>2022-08-29T11:24:45Z</time>
      </trkpt>
      <trkpt lat="42.3780890" lon="-3.3324950">
        <ele>1114.0</ele>
        <time>2022-08-29T11:24:46Z</time>
      </trkpt>
      <trkpt lat="42.3780640" lon="-3.3325310">
        <ele>1114.2</ele>
        <time>2022-08-29T11:24:47Z</time>
      </trkpt>
      <trkpt lat="42.3780390" lon="-3.3325690">
        <ele>1114.2</ele>
        <time>2022-08-29T11:24:48Z</time>
      </trkpt>
      <trkpt lat="42.3780140" lon="-3.3326050">
        <ele>1114.2</ele>
        <time>2022-08-29T11:24:49Z</time>
      </trkpt>
      <trkpt lat="42.3779890" lon="-3.3326430">
        <ele>1114.2</ele>
        <time>2022-08-29T11:24:50Z</time>
      </trkpt>
      <trkpt lat="42.3779650" lon="-3.3326820">
        <ele>1114.4</ele>
        <time>2022-08-29T11:24:51Z</time>
      </trkpt>
      <trkpt lat="42.3779400" lon="-3.3327210">
        <ele>1114.4</ele>
        <time>2022-08-29T11:24:52Z</time>
      </trkpt>
      <trkpt lat="42.3779160" lon="-3.3327580">
        <ele>1114.6</ele>
        <time>2022-08-29T11:24:53Z</time>
      </trkpt>
      <trkpt lat="42.3778880" lon="-3.3327960">
        <ele>1114.6</ele>
        <time>2022-08-29T11:24:54Z</time>
      </trkpt>
      <trkpt lat="42.3778580" lon="-3.3328380">
        <ele>1114.6</ele>
        <time>2022-08-29T11:24:55Z</time>
      </trkpt>
      <trkpt lat="42.3778290" lon="-3.3328750">
        <ele>1114.8</ele>
        <time>2022-08-29T11:24:56Z</time>
      </trkpt>
      <trkpt lat="42.3778000" lon="-3.3329100">
        <ele>1114.8</ele>
        <time>2022-08-29T11:24:57Z</time>
      </trkpt>
      <trkpt lat="42.3777740" lon="-3.3329460">
        <ele>1115.0</ele>
        <time>2022-08-29T11:24:58Z</time>
      </trkpt>
      <trkpt lat="42.3777450" lon="-3.3329790">
        <ele>1114.8</ele>
        <time>2022-08-29T11:24:59Z</time>
      </trkpt>
      <trkpt lat="42.3777230" lon="-3.3330100">
        <ele>1115.2</ele>
        <time>2022-08-29T11:25:00Z</time>
      </trkpt>
      <trkpt lat="42.3776980" lon="-3.3330430">
        <ele>1115.2</ele>
        <time>2022-08-29T11:25:01Z</time>
      </trkpt>
      <trkpt lat="42.3776740" lon="-3.3330820">
        <ele>1115.2</ele>
        <time>2022-08-29T11:25:02Z</time>
      </trkpt>
      <trkpt lat="42.3776510" lon="-3.3331220">
        <ele>1115.2</ele>
        <time>2022-08-29T11:25:03Z</time>
      </trkpt>
      <trkpt lat="42.3776300" lon="-3.3331610">
        <ele>1115.4</ele>
        <time>2022-08-29T11:25:04Z</time>
      </trkpt>
      <trkpt lat="42.3776060" lon="-3.3332020">
        <ele>1115.4</ele>
        <time>2022-08-29T11:25:05Z</time>
      </trkpt>
      <trkpt lat="42.3775770" lon="-3.3332470">
        <ele>1115.6</ele>
        <time>2022-08-29T11:25:06Z</time>
      </trkpt>
      <trkpt lat="42.3775440" lon="-3.3332990">
        <ele>1115.6</ele>
        <time>2022-08-29T11:25:07Z</time>
      </trkpt>
      <trkpt lat="42.3775200" lon="-3.3333460">
        <ele>1115.8</ele>
        <time>2022-08-29T11:25:08Z</time>
      </trkpt>
      <trkpt lat="42.3775000" lon="-3.3333890">
        <ele>1115.8</ele>
        <time>2022-08-29T11:25:09Z</time>
      </trkpt>
      <trkpt lat="42.3774820" lon="-3.3334350">
        <ele>1115.8</ele>
        <time>2022-08-29T11:25:10Z</time>
      </trkpt>
      <trkpt lat="42.3774630" lon="-3.3334810">
        <ele>1116.0</ele>
        <time>2022-08-29T11:25:11Z</time>
      </trkpt>
      <trkpt lat="42.3774420" lon="-3.3335230">
        <ele>1116.0</ele>
        <time>2022-08-29T11:25:12Z</time>
      </trkpt>
      <trkpt lat="42.3774150" lon="-3.3335600">
        <ele>1116.2</ele>
        <time>2022-08-29T11:25:13Z</time>
      </trkpt>
      <trkpt lat="42.3773840" lon="-3.3336040">
        <ele>1116.0</ele>
        <time>2022-08-29T11:25:14Z</time>
      </trkpt>
      <trkpt lat="42.3773510" lon="-3.3336440">
        <ele>1116.0</ele>
        <time>2022-08-29T11:25:15Z</time>
      </trkpt>
      <trkpt lat="42.3773180" lon="-3.3336980">
        <ele>1116.2</ele>
        <time>2022-08-29T11:25:16Z</time>
      </trkpt>
      <trkpt lat="42.3772910" lon="-3.3337450">
        <ele>1116.2</ele>
        <time>2022-08-29T11:25:17Z</time>
      </trkpt>
      <trkpt lat="42.3772520" lon="-3.3337970">
        <ele>1116.2</ele>
        <time>2022-08-29T11:25:18Z</time>
      </trkpt>
      <trkpt lat="42.3772190" lon="-3.3338460">
        <ele>1116.4</ele>
        <time>2022-08-29T11:25:19Z</time>
      </trkpt>
      <trkpt lat="42.3771790" lon="-3.3338990">
        <ele>1116.4</ele>
        <time>2022-08-29T11:25:20Z</time>
      </trkpt>
      <trkpt lat="42.3771360" lon="-3.3339550">
        <ele>1116.4</ele>
        <time>2022-08-29T11:25:21Z</time>
      </trkpt>
      <trkpt lat="42.3770990" lon="-3.3340060">
        <ele>1116.6</ele>
        <time>2022-08-29T11:25:22Z</time>
      </trkpt>
      <trkpt lat="42.3770620" lon="-3.3340540">
        <ele>1116.6</ele>
        <time>2022-08-29T11:25:23Z</time>
      </trkpt>
      <trkpt lat="42.3770220" lon="-3.3341050">
        <ele>1116.6</ele>
        <time>2022-08-29T11:25:24Z</time>
      </trkpt>
      <trkpt lat="42.3769850" lon="-3.3341570">
        <ele>1116.6</ele>
        <time>2022-08-29T11:25:25Z</time>
      </trkpt>
      <trkpt lat="42.3769540" lon="-3.3342070">
        <ele>1116.8</ele>
        <time>2022-08-29T11:25:26Z</time>
      </trkpt>
      <trkpt lat="42.3769230" lon="-3.3342510">
        <ele>1117.0</ele>
        <time>2022-08-29T11:25:27Z</time>
      </trkpt>
      <trkpt lat="42.3768960" lon="-3.3342920">
        <ele>1117.0</ele>
        <time>2022-08-29T11:25:28Z</time>
      </trkpt>
      <trkpt lat="42.3768640" lon="-3.3343400">
        <ele>1117.2</ele>
        <time>2022-08-29T11:25:29Z</time>
      </trkpt>
      <trkpt lat="42.3768310" lon="-3.3343880">
        <ele>1117.2</ele>
        <time>2022-08-29T11:25:30Z</time>
      </trkpt>
      <trkpt lat="42.3768010" lon="-3.3344340">
        <ele>1117.2</ele>
        <time>2022-08-29T11:25:31Z</time>
      </trkpt>
      <trkpt lat="42.3767710" lon="-3.3344800">
        <ele>1117.4</ele>
        <time>2022-08-29T11:25:32Z</time>
      </trkpt>
      <trkpt lat="42.3767390" lon="-3.3345250">
        <ele>1117.4</ele>
        <time>2022-08-29T11:25:33Z</time>
      </trkpt>
      <trkpt lat="42.3767100" lon="-3.3345680">
        <ele>1117.4</ele>
        <time>2022-08-29T11:25:34Z</time>
      </trkpt>
      <trkpt lat="42.3766760" lon="-3.3346170">
        <ele>1117.4</ele>
        <time>2022-08-29T11:25:35Z</time>
      </trkpt>
      <trkpt lat="42.3766470" lon="-3.3346640">
        <ele>1117.4</ele>
        <time>2022-08-29T11:25:36Z</time>
      </trkpt>
      <trkpt lat="42.3766260" lon="-3.3347120">
        <ele>1117.6</ele>
        <time>2022-08-29T11:25:37Z</time>
      </trkpt>
      <trkpt lat="42.3766030" lon="-3.3347570">
        <ele>1117.8</ele>
        <time>2022-08-29T11:25:38Z</time>
      </trkpt>
      <trkpt lat="42.3765820" lon="-3.3348000">
        <ele>1117.8</ele>
        <time>2022-08-29T11:25:39Z</time>
      </trkpt>
      <trkpt lat="42.3765640" lon="-3.3348420">
        <ele>1118.0</ele>
        <time>2022-08-29T11:25:40Z</time>
      </trkpt>
      <trkpt lat="42.3765370" lon="-3.3348890">
        <ele>1118.0</ele>
        <time>2022-08-29T11:25:41Z</time>
      </trkpt>
      <trkpt lat="42.3765120" lon="-3.3349340">
        <ele>1118.0</ele>
        <time>2022-08-29T11:25:42Z</time>
      </trkpt>
      <trkpt lat="42.3764910" lon="-3.3349780">
        <ele>1118.2</ele>
        <time>2022-08-29T11:25:43Z</time>
      </trkpt>
      <trkpt lat="42.3764670" lon="-3.3350210">
        <ele>1118.4</ele>
        <time>2022-08-29T11:25:44Z</time>
      </trkpt>
      <trkpt lat="42.3764510" lon="-3.3350610">
        <ele>1118.4</ele>
        <time>2022-08-29T11:25:45Z</time>
      </trkpt>
      <trkpt lat="42.3764290" lon="-3.3351050">
        <ele>1118.4</ele>
        <time>2022-08-29T11:25:46Z</time>
      </trkpt>
      <trkpt lat="42.3764070" lon="-3.3351480">
        <ele>1118.8</ele>
        <time>2022-08-29T11:25:47Z</time>
      </trkpt>
      <trkpt lat="42.3763850" lon="-3.3351870">
        <ele>1118.8</ele>
        <time>2022-08-29T11:25:48Z</time>
      </trkpt>
      <trkpt lat="42.3763600" lon="-3.3352260">
        <ele>1119.0</ele>
        <time>2022-08-29T11:25:49Z</time>
      </trkpt>
      <trkpt lat="42.3763320" lon="-3.3352740">
        <ele>1119.0</ele>
        <time>2022-08-29T11:25:50Z</time>
      </trkpt>
      <trkpt lat="42.3763100" lon="-3.3353180">
        <ele>1119.2</ele>
        <time>2022-08-29T11:25:51Z</time>
      </trkpt>
      <trkpt lat="42.3762800" lon="-3.3353600">
        <ele>1119.4</ele>
        <time>2022-08-29T11:25:52Z</time>
      </trkpt>
      <trkpt lat="42.3762600" lon="-3.3353960">
        <ele>1119.6</ele>
        <time>2022-08-29T11:25:53Z</time>
      </trkpt>
      <trkpt lat="42.3762390" lon="-3.3354300">
        <ele>1119.8</ele>
        <time>2022-08-29T11:25:54Z</time>
      </trkpt>
      <trkpt lat="42.3762180" lon="-3.3354650">
        <ele>1119.6</ele>
        <time>2022-08-29T11:25:55Z</time>
      </trkpt>
      <trkpt lat="42.3762000" lon="-3.3355000">
        <ele>1119.8</ele>
        <time>2022-08-29T11:25:56Z</time>
      </trkpt>
      <trkpt lat="42.3761830" lon="-3.3355310">
        <ele>1120.0</ele>
        <time>2022-08-29T11:25:57Z</time>
      </trkpt>
      <trkpt lat="42.3761650" lon="-3.3355560">
        <ele>1120.0</ele>
        <time>2022-08-29T11:25:58Z</time>
      </trkpt>
      <trkpt lat="42.3761460" lon="-3.3355770">
        <ele>1119.8</ele>
        <time>2022-08-29T11:25:59Z</time>
      </trkpt>
      <trkpt lat="42.3761220" lon="-3.3355990">
        <ele>1120.2</ele>
        <time>2022-08-29T11:26:00Z</time>
      </trkpt>
      <trkpt lat="42.3761080" lon="-3.3356180">
        <ele>1120.2</ele>
        <time>2022-08-29T11:26:01Z</time>
      </trkpt>
      <trkpt lat="42.3760930" lon="-3.3356380">
        <ele>1120.2</ele>
        <time>2022-08-29T11:26:02Z</time>
      </trkpt>
      <trkpt lat="42.3760770" lon="-3.3356560">
        <ele>1120.2</ele>
        <time>2022-08-29T11:26:03Z</time>
      </trkpt>
      <trkpt lat="42.3760650" lon="-3.3356710">
        <ele>1120.4</ele>
        <time>2022-08-29T11:26:04Z</time>
      </trkpt>
      <trkpt lat="42.3760460" lon="-3.3356870">
        <ele>1120.4</ele>
        <time>2022-08-29T11:26:05Z</time>
      </trkpt>
      <trkpt lat="42.3760280" lon="-3.3357020">
        <ele>1120.8</ele>
        <time>2022-08-29T11:26:06Z</time>
      </trkpt>
      <trkpt lat="42.3760100" lon="-3.3357100">
        <ele>1121.0</ele>
        <time>2022-08-29T11:26:07Z</time>
      </trkpt>
      <trkpt lat="42.3759930" lon="-3.3357210">
        <ele>1121.4</ele>
        <time>2022-08-29T11:26:08Z</time>
      </trkpt>
      <trkpt lat="42.3759770" lon="-3.3357340">
        <ele>1122.0</ele>
        <time>2022-08-29T11:26:09Z</time>
      </trkpt>
      <trkpt lat="42.3759560" lon="-3.3357560">
        <ele>1122.2</ele>
        <time>2022-08-29T11:26:10Z</time>
      </trkpt>
      <trkpt lat="42.3759400" lon="-3.3357720">
        <ele>1122.2</ele>
        <time>2022-08-29T11:26:11Z</time>
      </trkpt>
      <trkpt lat="42.3759150" lon="-3.3357830">
        <ele>1122.6</ele>
        <time>2022-08-29T11:26:12Z</time>
      </trkpt>
      <trkpt lat="42.3758960" lon="-3.3357960">
        <ele>1123.0</ele>
        <time>2022-08-29T11:26:13Z</time>
      </trkpt>
      <trkpt lat="42.3758760" lon="-3.3358120">
        <ele>1123.2</ele>
        <time>2022-08-29T11:26:14Z</time>
      </trkpt>
      <trkpt lat="42.3758500" lon="-3.3358350">
        <ele>1123.4</ele>
        <time>2022-08-29T11:26:15Z</time>
      </trkpt>
      <trkpt lat="42.3758250" lon="-3.3358530">
        <ele>1123.8</ele>
        <time>2022-08-29T11:26:16Z</time>
      </trkpt>
      <trkpt lat="42.3758010" lon="-3.3358690">
        <ele>1123.8</ele>
        <time>2022-08-29T11:26:17Z</time>
      </trkpt>
      <trkpt lat="42.3757770" lon="-3.3358900">
        <ele>1124.2</ele>
        <time>2022-08-29T11:26:18Z</time>
      </trkpt>
      <trkpt lat="42.3757620" lon="-3.3359100">
        <ele>1124.4</ele>
        <time>2022-08-29T11:26:19Z</time>
      </trkpt>
      <trkpt lat="42.3757510" lon="-3.3359310">
        <ele>1124.4</ele>
        <time>2022-08-29T11:26:20Z</time>
      </trkpt>
      <trkpt lat="42.3757380" lon="-3.3359550">
        <ele>1124.4</ele>
        <time>2022-08-29T11:26:21Z</time>
      </trkpt>
      <trkpt lat="42.3757200" lon="-3.3359790">
        <ele>1125.0</ele>
        <time>2022-08-29T11:26:22Z</time>
      </trkpt>
      <trkpt lat="42.3757040" lon="-3.3360000">
        <ele>1125.0</ele>
        <time>2022-08-29T11:26:23Z</time>
      </trkpt>
      <trkpt lat="42.3756880" lon="-3.3360180">
        <ele>1125.4</ele>
        <time>2022-08-29T11:26:24Z</time>
      </trkpt>
      <trkpt lat="42.3756730" lon="-3.3360390">
        <ele>1125.4</ele>
        <time>2022-08-29T11:26:25Z</time>
      </trkpt>
      <trkpt lat="42.3756570" lon="-3.3360610">
        <ele>1125.4</ele>
        <time>2022-08-29T11:26:26Z</time>
      </trkpt>
      <trkpt lat="42.3756410" lon="-3.3360810">
        <ele>1125.6</ele>
        <time>2022-08-29T11:26:27Z</time>
      </trkpt>
      <trkpt lat="42.3756270" lon="-3.3361070">
        <ele>1125.8</ele>
        <time>2022-08-29T11:26:28Z</time>
      </trkpt>
      <trkpt lat="42.3756160" lon="-3.3361340">
        <ele>1125.8</ele>
        <time>2022-08-29T11:26:29Z</time>
      </trkpt>
      <trkpt lat="42.3755910" lon="-3.3361750">
        <ele>1125.8</ele>
        <time>2022-08-29T11:26:30Z</time>
      </trkpt>
      <trkpt lat="42.3755690" lon="-3.3362070">
        <ele>1126.0</ele>
        <time>2022-08-29T11:26:31Z</time>
      </trkpt>
      <trkpt lat="42.3755400" lon="-3.3362410">
        <ele>1125.8</ele>
        <time>2022-08-29T11:26:32Z</time>
      </trkpt>
      <trkpt lat="42.3755090" lon="-3.3362730">
        <ele>1125.8</ele>
        <time>2022-08-29T11:26:33Z</time>
      </trkpt>
      <trkpt lat="42.3754750" lon="-3.3363030">
        <ele>1125.8</ele>
        <time>2022-08-29T11:26:34Z</time>
      </trkpt>
      <trkpt lat="42.3754440" lon="-3.3363330">
        <ele>1125.8</ele>
        <time>2022-08-29T11:26:35Z</time>
      </trkpt>
      <trkpt lat="42.3754160" lon="-3.3363620">
        <ele>1125.8</ele>
        <time>2022-08-29T11:26:36Z</time>
      </trkpt>
      <trkpt lat="42.3753860" lon="-3.3363940">
        <ele>1125.8</ele>
        <time>2022-08-29T11:26:37Z</time>
      </trkpt>
      <trkpt lat="42.3753560" lon="-3.3364250">
        <ele>1125.8</ele>
        <time>2022-08-29T11:26:38Z</time>
      </trkpt>
      <trkpt lat="42.3753200" lon="-3.3364590">
        <ele>1125.8</ele>
        <time>2022-08-29T11:26:39Z</time>
      </trkpt>
      <trkpt lat="42.3752830" lon="-3.3364950">
        <ele>1126.0</ele>
        <time>2022-08-29T11:26:40Z</time>
      </trkpt>
      <trkpt lat="42.3752530" lon="-3.3365230">
        <ele>1126.0</ele>
        <time>2022-08-29T11:26:41Z</time>
      </trkpt>
      <trkpt lat="42.3752260" lon="-3.3365500">
        <ele>1126.0</ele>
        <time>2022-08-29T11:26:42Z</time>
      </trkpt>
      <trkpt lat="42.3751970" lon="-3.3365830">
        <ele>1126.0</ele>
        <time>2022-08-29T11:26:43Z</time>
      </trkpt>
      <trkpt lat="42.3751710" lon="-3.3366180">
        <ele>1126.0</ele>
        <time>2022-08-29T11:26:44Z</time>
      </trkpt>
      <trkpt lat="42.3751420" lon="-3.3366520">
        <ele>1126.2</ele>
        <time>2022-08-29T11:26:45Z</time>
      </trkpt>
      <trkpt lat="42.3751100" lon="-3.3366880">
        <ele>1126.0</ele>
        <time>2022-08-29T11:26:46Z</time>
      </trkpt>
      <trkpt lat="42.3750790" lon="-3.3367230">
        <ele>1126.0</ele>
        <time>2022-08-29T11:26:47Z</time>
      </trkpt>
      <trkpt lat="42.3750450" lon="-3.3367600">
        <ele>1126.2</ele>
        <time>2022-08-29T11:26:48Z</time>
      </trkpt>
      <trkpt lat="42.3750190" lon="-3.3367910">
        <ele>1126.4</ele>
        <time>2022-08-29T11:26:49Z</time>
      </trkpt>
      <trkpt lat="42.3749930" lon="-3.3368280">
        <ele>1126.4</ele>
        <time>2022-08-29T11:26:50Z</time>
      </trkpt>
      <trkpt lat="42.3749630" lon="-3.3368700">
        <ele>1126.4</ele>
        <time>2022-08-29T11:26:51Z</time>
      </trkpt>
      <trkpt lat="42.3749350" lon="-3.3369090">
        <ele>1126.4</ele>
        <time>2022-08-29T11:26:52Z</time>
      </trkpt>
      <trkpt lat="42.3749060" lon="-3.3369470">
        <ele>1126.6</ele>
        <time>2022-08-29T11:26:53Z</time>
      </trkpt>
      <trkpt lat="42.3748820" lon="-3.3369830">
        <ele>1126.6</ele>
        <time>2022-08-29T11:26:54Z</time>
      </trkpt>
      <trkpt lat="42.3748520" lon="-3.3370240">
        <ele>1126.6</ele>
        <time>2022-08-29T11:26:55Z</time>
      </trkpt>
      <trkpt lat="42.3748250" lon="-3.3370690">
        <ele>1126.4</ele>
        <time>2022-08-29T11:26:56Z</time>
      </trkpt>
      <trkpt lat="42.3747990" lon="-3.3371130">
        <ele>1126.6</ele>
        <time>2022-08-29T11:26:57Z</time>
      </trkpt>
      <trkpt lat="42.3747800" lon="-3.3371540">
        <ele>1126.6</ele>
        <time>2022-08-29T11:26:58Z</time>
      </trkpt>
      <trkpt lat="42.3747700" lon="-3.3371900">
        <ele>1126.6</ele>
        <time>2022-08-29T11:26:59Z</time>
      </trkpt>
      <trkpt lat="42.3747630" lon="-3.3372270">
        <ele>1126.6</ele>
        <time>2022-08-29T11:27:00Z</time>
      </trkpt>
      <trkpt lat="42.3747550" lon="-3.3372650">
        <ele>1126.6</ele>
        <time>2022-08-29T11:27:01Z</time>
      </trkpt>
      <trkpt lat="42.3747530" lon="-3.3372960">
        <ele>1126.6</ele>
        <time>2022-08-29T11:27:02Z</time>
      </trkpt>
      <trkpt lat="42.3747330" lon="-3.3373430">
        <ele>1126.4</ele>
        <time>2022-08-29T11:27:03Z</time>
      </trkpt>
      <trkpt lat="42.3747140" lon="-3.3373870">
        <ele>1126.4</ele>
        <time>2022-08-29T11:27:04Z</time>
      </trkpt>
      <trkpt lat="42.3746930" lon="-3.3374250">
        <ele>1126.4</ele>
        <time>2022-08-29T11:27:05Z</time>
      </trkpt>
      <trkpt lat="42.3746790" lon="-3.3374600">
        <ele>1126.6</ele>
        <time>2022-08-29T11:27:06Z</time>
      </trkpt>
      <trkpt lat="42.3746630" lon="-3.3374990">
        <ele>1126.6</ele>
        <time>2022-08-29T11:27:07Z</time>
      </trkpt>
      <trkpt lat="42.3746470" lon="-3.3375420">
        <ele>1126.4</ele>
        <time>2022-08-29T11:27:08Z</time>
      </trkpt>
      <trkpt lat="42.3746290" lon="-3.3375860">
        <ele>1126.6</ele>
        <time>2022-08-29T11:27:09Z</time>
      </trkpt>
      <trkpt lat="42.3746150" lon="-3.3376280">
        <ele>1126.4</ele>
        <time>2022-08-29T11:27:10Z</time>
      </trkpt>
      <trkpt lat="42.3745980" lon="-3.3376690">
        <ele>1126.4</ele>
        <time>2022-08-29T11:27:11Z</time>
      </trkpt>
      <trkpt lat="42.3745680" lon="-3.3377150">
        <ele>1126.4</ele>
        <time>2022-08-29T11:27:12Z</time>
      </trkpt>
      <trkpt lat="42.3745450" lon="-3.3377590">
        <ele>1126.6</ele>
        <time>2022-08-29T11:27:13Z</time>
      </trkpt>
      <trkpt lat="42.3745120" lon="-3.3378000">
        <ele>1126.4</ele>
        <time>2022-08-29T11:27:14Z</time>
      </trkpt>
      <trkpt lat="42.3744850" lon="-3.3378360">
        <ele>1126.4</ele>
        <time>2022-08-29T11:27:15Z</time>
      </trkpt>
      <trkpt lat="42.3744620" lon="-3.3378690">
        <ele>1126.4</ele>
        <time>2022-08-29T11:27:16Z</time>
      </trkpt>
      <trkpt lat="42.3744390" lon="-3.3379020">
        <ele>1126.4</ele>
        <time>2022-08-29T11:27:17Z</time>
      </trkpt>
      <trkpt lat="42.3744120" lon="-3.3379410">
        <ele>1126.4</ele>
        <time>2022-08-29T11:27:18Z</time>
      </trkpt>
      <trkpt lat="42.3743840" lon="-3.3379790">
        <ele>1126.4</ele>
        <time>2022-08-29T11:27:19Z</time>
      </trkpt>
      <trkpt lat="42.3743660" lon="-3.3380170">
        <ele>1126.2</ele>
        <time>2022-08-29T11:27:20Z</time>
      </trkpt>
      <trkpt lat="42.3743470" lon="-3.3380550">
        <ele>1126.4</ele>
        <time>2022-08-29T11:27:21Z</time>
      </trkpt>
      <trkpt lat="42.3743270" lon="-3.3380920">
        <ele>1126.2</ele>
        <time>2022-08-29T11:27:22Z</time>
      </trkpt>
      <trkpt lat="42.3743120" lon="-3.3381260">
        <ele>1126.2</ele>
        <time>2022-08-29T11:27:23Z</time>
      </trkpt>
      <trkpt lat="42.3742940" lon="-3.3381620">
        <ele>1126.4</ele>
        <time>2022-08-29T11:27:24Z</time>
      </trkpt>
      <trkpt lat="42.3742740" lon="-3.3382000">
        <ele>1126.4</ele>
        <time>2022-08-29T11:27:25Z</time>
      </trkpt>
      <trkpt lat="42.3742570" lon="-3.3382370">
        <ele>1126.4</ele>
        <time>2022-08-29T11:27:26Z</time>
      </trkpt>
      <trkpt lat="42.3742470" lon="-3.3382790">
        <ele>1126.4</ele>
        <time>2022-08-29T11:27:27Z</time>
      </trkpt>
      <trkpt lat="42.3742520" lon="-3.3383210">
        <ele>1126.4</ele>
        <time>2022-08-29T11:27:28Z</time>
      </trkpt>
      <trkpt lat="42.3742460" lon="-3.3383660">
        <ele>1126.4</ele>
        <time>2022-08-29T11:27:29Z</time>
      </trkpt>
      <trkpt lat="42.3742340" lon="-3.3384150">
        <ele>1126.2</ele>
        <time>2022-08-29T11:27:30Z</time>
      </trkpt>
      <trkpt lat="42.3742140" lon="-3.3384690">
        <ele>1126.4</ele>
        <time>2022-08-29T11:27:31Z</time>
      </trkpt>
      <trkpt lat="42.3741940" lon="-3.3385230">
        <ele>1126.2</ele>
        <time>2022-08-29T11:27:32Z</time>
      </trkpt>
      <trkpt lat="42.3741700" lon="-3.3385750">
        <ele>1126.2</ele>
        <time>2022-08-29T11:27:33Z</time>
      </trkpt>
      <trkpt lat="42.3741430" lon="-3.3386290">
        <ele>1126.2</ele>
        <time>2022-08-29T11:27:34Z</time>
      </trkpt>
      <trkpt lat="42.3740990" lon="-3.3386970">
        <ele>1126.0</ele>
        <time>2022-08-29T11:27:35Z</time>
      </trkpt>
      <trkpt lat="42.3740640" lon="-3.3387650">
        <ele>1126.0</ele>
        <time>2022-08-29T11:27:36Z</time>
      </trkpt>
      <trkpt lat="42.3740280" lon="-3.3388320">
        <ele>1125.8</ele>
        <time>2022-08-29T11:27:37Z</time>
      </trkpt>
      <trkpt lat="42.3739870" lon="-3.3389020">
        <ele>1125.8</ele>
        <time>2022-08-29T11:27:38Z</time>
      </trkpt>
      <trkpt lat="42.3739530" lon="-3.3389690">
        <ele>1125.6</ele>
        <time>2022-08-29T11:27:39Z</time>
      </trkpt>
      <trkpt lat="42.3739300" lon="-3.3390350">
        <ele>1125.4</ele>
        <time>2022-08-29T11:27:40Z</time>
      </trkpt>
      <trkpt lat="42.3739030" lon="-3.3391010">
        <ele>1125.4</ele>
        <time>2022-08-29T11:27:41Z</time>
      </trkpt>
      <trkpt lat="42.3738740" lon="-3.3391750">
        <ele>1125.2</ele>
        <time>2022-08-29T11:27:42Z</time>
      </trkpt>
      <trkpt lat="42.3738410" lon="-3.3392510">
        <ele>1125.0</ele>
        <time>2022-08-29T11:27:43Z</time>
      </trkpt>
      <trkpt lat="42.3738090" lon="-3.3393280">
        <ele>1124.4</ele>
        <time>2022-08-29T11:27:44Z</time>
      </trkpt>
      <trkpt lat="42.3737910" lon="-3.3394020">
        <ele>1124.0</ele>
        <time>2022-08-29T11:27:45Z</time>
      </trkpt>
      <trkpt lat="42.3737730" lon="-3.3394740">
        <ele>1123.8</ele>
        <time>2022-08-29T11:27:46Z</time>
      </trkpt>
      <trkpt lat="42.3737620" lon="-3.3395440">
        <ele>1123.8</ele>
        <time>2022-08-29T11:27:47Z</time>
      </trkpt>
      <trkpt lat="42.3737400" lon="-3.3396090">
        <ele>1123.6</ele>
        <time>2022-08-29T11:27:48Z</time>
      </trkpt>
      <trkpt lat="42.3737100" lon="-3.3396700">
        <ele>1123.6</ele>
        <time>2022-08-29T11:27:49Z</time>
      </trkpt>
      <trkpt lat="42.3736780" lon="-3.3397300">
        <ele>1123.4</ele>
        <time>2022-08-29T11:27:50Z</time>
      </trkpt>
      <trkpt lat="42.3736470" lon="-3.3397940">
        <ele>1123.2</ele>
        <time>2022-08-29T11:27:51Z</time>
      </trkpt>
      <trkpt lat="42.3736090" lon="-3.3398680">
        <ele>1123.0</ele>
        <time>2022-08-29T11:27:52Z</time>
      </trkpt>
      <trkpt lat="42.3735800" lon="-3.3399370">
        <ele>1123.0</ele>
        <time>2022-08-29T11:27:53Z</time>
      </trkpt>
      <trkpt lat="42.3735520" lon="-3.3400030">
        <ele>1122.8</ele>
        <time>2022-08-29T11:27:54Z</time>
      </trkpt>
      <trkpt lat="42.3735210" lon="-3.3400780">
        <ele>1122.6</ele>
        <time>2022-08-29T11:27:55Z</time>
      </trkpt>
      <trkpt lat="42.3734940" lon="-3.3401540">
        <ele>1122.2</ele>
        <time>2022-08-29T11:27:56Z</time>
      </trkpt>
      <trkpt lat="42.3734740" lon="-3.3402260">
        <ele>1122.0</ele>
        <time>2022-08-29T11:27:57Z</time>
      </trkpt>
      <trkpt lat="42.3734500" lon="-3.3402950">
        <ele>1121.6</ele>
        <time>2022-08-29T11:27:58Z</time>
      </trkpt>
      <trkpt lat="42.3734260" lon="-3.3403630">
        <ele>1121.2</ele>
        <time>2022-08-29T11:27:59Z</time>
      </trkpt>
      <trkpt lat="42.3734050" lon="-3.3404300">
        <ele>1121.0</ele>
        <time>2022-08-29T11:28:00Z</time>
      </trkpt>
      <trkpt lat="42.3733870" lon="-3.3404960">
        <ele>1121.0</ele>
        <time>2022-08-29T11:28:01Z</time>
      </trkpt>
      <trkpt lat="42.3733670" lon="-3.3405620">
        <ele>1120.8</ele>
        <time>2022-08-29T11:28:02Z</time>
      </trkpt>
      <trkpt lat="42.3733490" lon="-3.3406280">
        <ele>1120.6</ele>
        <time>2022-08-29T11:28:03Z</time>
      </trkpt>
      <trkpt lat="42.3733320" lon="-3.3406920">
        <ele>1120.6</ele>
        <time>2022-08-29T11:28:04Z</time>
      </trkpt>
      <trkpt lat="42.3733150" lon="-3.3407510">
        <ele>1120.6</ele>
        <time>2022-08-29T11:28:05Z</time>
      </trkpt>
      <trkpt lat="42.3732970" lon="-3.3408110">
        <ele>1120.4</ele>
        <time>2022-08-29T11:28:06Z</time>
      </trkpt>
      <trkpt lat="42.3732770" lon="-3.3408700">
        <ele>1120.4</ele>
        <time>2022-08-29T11:28:07Z</time>
      </trkpt>
      <trkpt lat="42.3732580" lon="-3.3409280">
        <ele>1120.2</ele>
        <time>2022-08-29T11:28:08Z</time>
      </trkpt>
      <trkpt lat="42.3732410" lon="-3.3409860">
        <ele>1120.2</ele>
        <time>2022-08-29T11:28:09Z</time>
      </trkpt>
      <trkpt lat="42.3732260" lon="-3.3410440">
        <ele>1120.4</ele>
        <time>2022-08-29T11:28:10Z</time>
      </trkpt>
      <trkpt lat="42.3732100" lon="-3.3411020">
        <ele>1120.4</ele>
        <time>2022-08-29T11:28:11Z</time>
      </trkpt>
      <trkpt lat="42.3731940" lon="-3.3411590">
        <ele>1120.2</ele>
        <time>2022-08-29T11:28:12Z</time>
      </trkpt>
      <trkpt lat="42.3731750" lon="-3.3412170">
        <ele>1120.4</ele>
        <time>2022-08-29T11:28:13Z</time>
      </trkpt>
      <trkpt lat="42.3731560" lon="-3.3412710">
        <ele>1120.2</ele>
        <time>2022-08-29T11:28:14Z</time>
      </trkpt>
      <trkpt lat="42.3731350" lon="-3.3413240">
        <ele>1120.2</ele>
        <time>2022-08-29T11:28:15Z</time>
      </trkpt>
      <trkpt lat="42.3731150" lon="-3.3413760">
        <ele>1120.4</ele>
        <time>2022-08-29T11:28:16Z</time>
      </trkpt>
      <trkpt lat="42.3730950" lon="-3.3414260">
        <ele>1120.2</ele>
        <time>2022-08-29T11:28:17Z</time>
      </trkpt>
      <trkpt lat="42.3730750" lon="-3.3414750">
        <ele>1120.4</ele>
        <time>2022-08-29T11:28:18Z</time>
      </trkpt>
      <trkpt lat="42.3730580" lon="-3.3415210">
        <ele>1120.6</ele>
        <time>2022-08-29T11:28:19Z</time>
      </trkpt>
      <trkpt lat="42.3730440" lon="-3.3415640">
        <ele>1120.6</ele>
        <time>2022-08-29T11:28:20Z</time>
      </trkpt>
      <trkpt lat="42.3730270" lon="-3.3416070">
        <ele>1120.6</ele>
        <time>2022-08-29T11:28:21Z</time>
      </trkpt>
      <trkpt lat="42.3730090" lon="-3.3416500">
        <ele>1120.8</ele>
        <time>2022-08-29T11:28:22Z</time>
      </trkpt>
      <trkpt lat="42.3729890" lon="-3.3416910">
        <ele>1120.8</ele>
        <time>2022-08-29T11:28:23Z</time>
      </trkpt>
      <trkpt lat="42.3729660" lon="-3.3417320">
        <ele>1121.0</ele>
        <time>2022-08-29T11:28:24Z</time>
      </trkpt>
      <trkpt lat="42.3729440" lon="-3.3417740">
        <ele>1121.2</ele>
        <time>2022-08-29T11:28:25Z</time>
      </trkpt>
      <trkpt lat="42.3729220" lon="-3.3418160">
        <ele>1121.2</ele>
        <time>2022-08-29T11:28:26Z</time>
      </trkpt>
      <trkpt lat="42.3729010" lon="-3.3418570">
        <ele>1121.2</ele>
        <time>2022-08-29T11:28:27Z</time>
      </trkpt>
      <trkpt lat="42.3728840" lon="-3.3418930">
        <ele>1121.2</ele>
        <time>2022-08-29T11:28:28Z</time>
      </trkpt>
      <trkpt lat="42.3728760" lon="-3.3419220">
        <ele>1121.2</ele>
        <time>2022-08-29T11:28:29Z</time>
      </trkpt>
      <trkpt lat="42.3728740" lon="-3.3419440">
        <ele>1121.2</ele>
        <time>2022-08-29T11:28:30Z</time>
      </trkpt>
      <trkpt lat="42.3728770" lon="-3.3419590">
        <ele>1121.0</ele>
        <time>2022-08-29T11:28:31Z</time>
      </trkpt>
      <trkpt lat="42.3728820" lon="-3.3419670">
        <ele>1121.2</ele>
        <time>2022-08-29T11:28:32Z</time>
      </trkpt>
      <trkpt lat="42.3728840" lon="-3.3419690">
        <ele>1121.2</ele>
        <time>2022-08-29T11:28:33Z</time>
      </trkpt>
      <trkpt lat="42.3728850" lon="-3.3419680">
        <ele>1121.2</ele>
        <time>2022-08-29T11:28:34Z</time>
      </trkpt>
      <trkpt lat="42.3728860" lon="-3.3419670">
        <ele>1121.2</ele>
        <time>2022-08-29T11:28:35Z</time>
      </trkpt>
      <trkpt lat="42.3728870" lon="-3.3419660">
        <ele>1121.2</ele>
        <time>2022-08-29T11:28:36Z</time>
      </trkpt>
      <trkpt lat="42.3728870" lon="-3.3419660">
        <ele>1121.2</ele>
        <time>2022-08-29T11:28:37Z</time>
      </trkpt>
      <trkpt lat="42.3728870" lon="-3.3419660">
        <ele>1121.2</ele>
        <time>2022-08-29T11:28:38Z</time>
      </trkpt>
      <trkpt lat="42.3728870" lon="-3.3419660">
        <ele>1121.2</ele>
        <time>2022-08-29T11:28:39Z</time>
      </trkpt>
      <trkpt lat="42.3728870" lon="-3.3419660">
        <ele>1121.4</ele>
        <time>2022-08-29T11:28:40Z</time>
      </trkpt>
      <trkpt lat="42.3728870" lon="-3.3419660">
        <ele>1121.4</ele>
        <time>2022-08-29T11:28:41Z</time>
      </trkpt>
      <trkpt lat="42.3728870" lon="-3.3419660">
        <ele>1121.2</ele>
        <time>2022-08-29T11:28:42Z</time>
      </trkpt>
      <trkpt lat="42.3728870" lon="-3.3419660">
        <ele>1121.4</ele>
        <time>2022-08-29T11:28:43Z</time>
      </trkpt>
      <trkpt lat="42.3728870" lon="-3.3419660">
        <ele>1121.2</ele>
        <time>2022-08-29T11:28:44Z</time>
      </trkpt>
      <trkpt lat="42.3728870" lon="-3.3419660">
        <ele>1121.2</ele>
        <time>2022-08-29T11:28:45Z</time>
      </trkpt>
      <trkpt lat="42.3728870" lon="-3.3419660">
        <ele>1121.2</ele>
        <time>2022-08-29T11:28:46Z</time>
      </trkpt>
      <trkpt lat="42.3728870" lon="-3.3419660">
        <ele>1121.2</ele>
        <time>2022-08-29T11:28:47Z</time>
      </trkpt>
      <trkpt lat="42.3728870" lon="-3.3419660">
        <ele>1121.2</ele>
        <time>2022-08-29T11:28:48Z</time>
      </trkpt>
      <trkpt lat="42.3728870" lon="-3.3419660">
        <ele>1121.2</ele>
        <time>2022-08-29T11:28:49Z</time>
      </trkpt>
      <trkpt lat="42.3728870" lon="-3.3419660">
        <ele>1121.2</ele>
        <time>2022-08-29T11:28:50Z</time>
      </trkpt>
      <trkpt lat="42.3728880" lon="-3.3419660">
        <ele>1121.4</ele>
        <time>2022-08-29T11:28:51Z</time>
      </trkpt>
      <trkpt lat="42.3728880" lon="-3.3419660">
        <ele>1121.2</ele>
        <time>2022-08-29T11:28:52Z</time>
      </trkpt>
      <trkpt lat="42.3728880" lon="-3.3419660">
        <ele>1121.2</ele>
        <time>2022-08-29T11:28:53Z</time>
      </trkpt>
      <trkpt lat="42.3728880" lon="-3.3419660">
        <ele>1121.0</ele>
        <time>2022-08-29T11:28:54Z</time>
      </trkpt>
      <trkpt lat="42.3728880" lon="-3.3419660">
        <ele>1121.0</ele>
        <time>2022-08-29T11:28:55Z</time>
      </trkpt>
      <trkpt lat="42.3728880" lon="-3.3419660">
        <ele>1121.0</ele>
        <time>2022-08-29T11:28:56Z</time>
      </trkpt>
      <trkpt lat="42.3728880" lon="-3.3419660">
        <ele>1121.0</ele>
        <time>2022-08-29T11:28:57Z</time>
      </trkpt>
      <trkpt lat="42.3728880" lon="-3.3419650">
        <ele>1121.0</ele>
        <time>2022-08-29T11:28:58Z</time>
      </trkpt>
      <trkpt lat="42.3728880" lon="-3.3419650">
        <ele>1121.2</ele>
        <time>2022-08-29T11:28:59Z</time>
      </trkpt>
      <trkpt lat="42.3728880" lon="-3.3419650">
        <ele>1121.0</ele>
        <time>2022-08-29T11:29:00Z</time>
      </trkpt>
      <trkpt lat="42.3728880" lon="-3.3419650">
        <ele>1121.0</ele>
        <time>2022-08-29T11:29:01Z</time>
      </trkpt>
      <trkpt lat="42.3728880" lon="-3.3419650">
        <ele>1121.0</ele>
        <time>2022-08-29T11:29:02Z</time>
      </trkpt>
      <trkpt lat="42.3728880" lon="-3.3419650">
        <ele>1121.0</ele>
        <time>2022-08-29T11:29:03Z</time>
      </trkpt>
      <trkpt lat="42.3728880" lon="-3.3419650">
        <ele>1120.8</ele>
        <time>2022-08-29T11:29:04Z</time>
      </trkpt>
      <trkpt lat="42.3728880" lon="-3.3419650">
        <ele>1120.8</ele>
        <time>2022-08-29T11:29:05Z</time>
      </trkpt>
      <trkpt lat="42.3728890" lon="-3.3419650">
        <ele>1120.8</ele>
        <time>2022-08-29T11:29:06Z</time>
      </trkpt>
      <trkpt lat="42.3728890" lon="-3.3419650">
        <ele>1120.8</ele>
        <time>2022-08-29T11:29:07Z</time>
      </trkpt>
      <trkpt lat="42.3728890" lon="-3.3419650">
        <ele>1120.8</ele>
        <time>2022-08-29T11:29:08Z</time>
      </trkpt>
      <trkpt lat="42.3728890" lon="-3.3419650">
        <ele>1120.8</ele>
        <time>2022-08-29T11:29:09Z</time>
      </trkpt>
      <trkpt lat="42.3728890" lon="-3.3419650">
        <ele>1120.6</ele>
        <time>2022-08-29T11:29:10Z</time>
      </trkpt>
      <trkpt lat="42.3728890" lon="-3.3419640">
        <ele>1120.6</ele>
        <time>2022-08-29T11:29:11Z</time>
      </trkpt>
      <trkpt lat="42.3728890" lon="-3.3419640">
        <ele>1120.6</ele>
        <time>2022-08-29T11:29:12Z</time>
      </trkpt>
      <trkpt lat="42.3728890" lon="-3.3419640">
        <ele>1120.6</ele>
        <time>2022-08-29T11:29:13Z</time>
      </trkpt>
      <trkpt lat="42.3728890" lon="-3.3419640">
        <ele>1120.6</ele>
        <time>2022-08-29T11:29:14Z</time>
      </trkpt>
      <trkpt lat="42.3728890" lon="-3.3419640">
        <ele>1120.4</ele>
        <time>2022-08-29T11:29:15Z</time>
      </trkpt>
      <trkpt lat="42.3728890" lon="-3.3419640">
        <ele>1120.4</ele>
        <time>2022-08-29T11:29:16Z</time>
      </trkpt>
      <trkpt lat="42.3728890" lon="-3.3419640">
        <ele>1120.4</ele>
        <time>2022-08-29T11:29:17Z</time>
      </trkpt>
      <trkpt lat="42.3728890" lon="-3.3419640">
        <ele>1120.4</ele>
        <time>2022-08-29T11:29:18Z</time>
      </trkpt>
      <trkpt lat="42.3728880" lon="-3.3419650">
        <ele>1120.4</ele>
        <time>2022-08-29T11:29:19Z</time>
      </trkpt>
      <trkpt lat="42.3728890" lon="-3.3419670">
        <ele>1120.4</ele>
        <time>2022-08-29T11:29:20Z</time>
      </trkpt>
      <trkpt lat="42.3728900" lon="-3.3419690">
        <ele>1120.4</ele>
        <time>2022-08-29T11:29:21Z</time>
      </trkpt>
      <trkpt lat="42.3728910" lon="-3.3419700">
        <ele>1120.4</ele>
        <time>2022-08-29T11:29:22Z</time>
      </trkpt>
      <trkpt lat="42.3728900" lon="-3.3419710">
        <ele>1120.4</ele>
        <time>2022-08-29T11:29:23Z</time>
      </trkpt>
      <trkpt lat="42.3728910" lon="-3.3419710">
        <ele>1120.4</ele>
        <time>2022-08-29T11:29:24Z</time>
      </trkpt>
      <trkpt lat="42.3728910" lon="-3.3419700">
        <ele>1120.4</ele>
        <time>2022-08-29T11:29:25Z</time>
      </trkpt>
      <trkpt lat="42.3728910" lon="-3.3419700">
        <ele>1120.4</ele>
        <time>2022-08-29T11:29:26Z</time>
      </trkpt>
      <trkpt lat="42.3728910" lon="-3.3419700">
        <ele>1120.4</ele>
        <time>2022-08-29T11:29:27Z</time>
      </trkpt>
      <trkpt lat="42.3728910" lon="-3.3419700">
        <ele>1120.2</ele>
        <time>2022-08-29T11:29:28Z</time>
      </trkpt>
      <trkpt lat="42.3728910" lon="-3.3419700">
        <ele>1120.2</ele>
        <time>2022-08-29T11:29:29Z</time>
      </trkpt>
      <trkpt lat="42.3728910" lon="-3.3419700">
        <ele>1120.2</ele>
        <time>2022-08-29T11:29:30Z</time>
      </trkpt>
      <trkpt lat="42.3728910" lon="-3.3419700">
        <ele>1120.2</ele>
        <time>2022-08-29T11:29:31Z</time>
      </trkpt>
      <trkpt lat="42.3728910" lon="-3.3419690">
        <ele>1120.2</ele>
        <time>2022-08-29T11:29:32Z</time>
      </trkpt>
      <trkpt lat="42.3728910" lon="-3.3419690">
        <ele>1120.0</ele>
        <time>2022-08-29T11:29:33Z</time>
      </trkpt>
      <trkpt lat="42.3728910" lon="-3.3419690">
        <ele>1120.2</ele>
        <time>2022-08-29T11:29:34Z</time>
      </trkpt>
      <trkpt lat="42.3728910" lon="-3.3419690">
        <ele>1120.2</ele>
        <time>2022-08-29T11:29:35Z</time>
      </trkpt>
      <trkpt lat="42.3728910" lon="-3.3419690">
        <ele>1120.0</ele>
        <time>2022-08-29T11:29:36Z</time>
      </trkpt>
      <trkpt lat="42.3728910" lon="-3.3419690">
        <ele>1120.2</ele>
        <time>2022-08-29T11:29:37Z</time>
      </trkpt>
      <trkpt lat="42.3728910" lon="-3.3419690">
        <ele>1120.0</ele>
        <time>2022-08-29T11:29:38Z</time>
      </trkpt>
      <trkpt lat="42.3728910" lon="-3.3419690">
        <ele>1120.2</ele>
        <time>2022-08-29T11:29:39Z</time>
      </trkpt>
      <trkpt lat="42.3728910" lon="-3.3419690">
        <ele>1120.2</ele>
        <time>2022-08-29T11:29:40Z</time>
      </trkpt>
      <trkpt lat="42.3728910" lon="-3.3419690">
        <ele>1120.2</ele>
        <time>2022-08-29T11:29:41Z</time>
      </trkpt>
      <trkpt lat="42.3728910" lon="-3.3419680">
        <ele>1120.0</ele>
        <time>2022-08-29T11:29:42Z</time>
      </trkpt>
      <trkpt lat="42.3728910" lon="-3.3419680">
        <ele>1120.0</ele>
        <time>2022-08-29T11:29:43Z</time>
      </trkpt>
      <trkpt lat="42.3728910" lon="-3.3419680">
        <ele>1120.0</ele>
        <time>2022-08-29T11:29:44Z</time>
      </trkpt>
      <trkpt lat="42.3728910" lon="-3.3419680">
        <ele>1120.0</ele>
        <time>2022-08-29T11:29:45Z</time>
      </trkpt>
      <trkpt lat="42.3728910" lon="-3.3419680">
        <ele>1120.0</ele>
        <time>2022-08-29T11:29:46Z</time>
      </trkpt>
      <trkpt lat="42.3728910" lon="-3.3419680">
        <ele>1120.0</ele>
        <time>2022-08-29T11:29:47Z</time>
      </trkpt>
      <trkpt lat="42.3728910" lon="-3.3419680">
        <ele>1119.8</ele>
        <time>2022-08-29T11:29:48Z</time>
      </trkpt>
      <trkpt lat="42.3728910" lon="-3.3419680">
        <ele>1120.0</ele>
        <time>2022-08-29T11:29:49Z</time>
      </trkpt>
      <trkpt lat="42.3728910" lon="-3.3419680">
        <ele>1120.0</ele>
        <time>2022-08-29T11:29:50Z</time>
      </trkpt>
      <trkpt lat="42.3728910" lon="-3.3419680">
        <ele>1120.0</ele>
        <time>2022-08-29T11:29:51Z</time>
      </trkpt>
      <trkpt lat="42.3728910" lon="-3.3419670">
        <ele>1119.8</ele>
        <time>2022-08-29T11:29:52Z</time>
      </trkpt>
      <trkpt lat="42.3728910" lon="-3.3419670">
        <ele>1119.8</ele>
        <time>2022-08-29T11:29:53Z</time>
      </trkpt>
      <trkpt lat="42.3728910" lon="-3.3419670">
        <ele>1119.8</ele>
        <time>2022-08-29T11:29:54Z</time>
      </trkpt>
      <trkpt lat="42.3728910" lon="-3.3419670">
        <ele>1119.8</ele>
        <time>2022-08-29T11:29:55Z</time>
      </trkpt>
      <trkpt lat="42.3728910" lon="-3.3419670">
        <ele>1119.8</ele>
        <time>2022-08-29T11:29:56Z</time>
      </trkpt>
      <trkpt lat="42.3728910" lon="-3.3419670">
        <ele>1119.8</ele>
        <time>2022-08-29T11:29:57Z</time>
      </trkpt>
      <trkpt lat="42.3728910" lon="-3.3419670">
        <ele>1119.8</ele>
        <time>2022-08-29T11:29:58Z</time>
      </trkpt>
      <trkpt lat="42.3728910" lon="-3.3419670">
        <ele>1119.8</ele>
        <time>2022-08-29T11:29:59Z</time>
      </trkpt>
      <trkpt lat="42.3728910" lon="-3.3419670">
        <ele>1119.8</ele>
        <time>2022-08-29T11:30:00Z</time>
      </trkpt>
      <trkpt lat="42.3728910" lon="-3.3419670">
        <ele>1119.8</ele>
        <time>2022-08-29T11:30:01Z</time>
      </trkpt>
      <trkpt lat="42.3728910" lon="-3.3419670">
        <ele>1119.8</ele>
        <time>2022-08-29T11:30:02Z</time>
      </trkpt>
      <trkpt lat="42.3728910" lon="-3.3419670">
        <ele>1119.6</ele>
        <time>2022-08-29T11:30:03Z</time>
      </trkpt>
      <trkpt lat="42.3728910" lon="-3.3419670">
        <ele>1119.6</ele>
        <time>2022-08-29T11:30:04Z</time>
      </trkpt>
      <trkpt lat="42.3728910" lon="-3.3419670">
        <ele>1119.6</ele>
        <time>2022-08-29T11:30:05Z</time>
      </trkpt>
      <trkpt lat="42.3728910" lon="-3.3419670">
        <ele>1119.6</ele>
        <time>2022-08-29T11:30:06Z</time>
      </trkpt>
      <trkpt lat="42.3728910" lon="-3.3419670">
        <ele>1119.6</ele>
        <time>2022-08-29T11:30:07Z</time>
      </trkpt>
      <trkpt lat="42.3728910" lon="-3.3419670">
        <ele>1119.4</ele>
        <time>2022-08-29T11:30:08Z</time>
      </trkpt>
      <trkpt lat="42.3728910" lon="-3.3419660">
        <ele>1119.4</ele>
        <time>2022-08-29T11:30:09Z</time>
      </trkpt>
      <trkpt lat="42.3728910" lon="-3.3419660">
        <ele>1119.2</ele>
        <time>2022-08-29T11:30:10Z</time>
      </trkpt>
      <trkpt lat="42.3728910" lon="-3.3419660">
        <ele>1119.2</ele>
        <time>2022-08-29T11:30:11Z</time>
      </trkpt>
      <trkpt lat="42.3728910" lon="-3.3419660">
        <ele>1119.6</ele>
        <time>2022-08-29T11:30:12Z</time>
      </trkpt>
      <trkpt lat="42.3728910" lon="-3.3419660">
        <ele>1119.4</ele>
        <time>2022-08-29T11:30:13Z</time>
      </trkpt>
      <trkpt lat="42.3728910" lon="-3.3419660">
        <ele>1119.2</ele>
        <time>2022-08-29T11:30:14Z</time>
      </trkpt>
      <trkpt lat="42.3728910" lon="-3.3419660">
        <ele>1119.2</ele>
        <time>2022-08-29T11:30:15Z</time>
      </trkpt>
      <trkpt lat="42.3728910" lon="-3.3419660">
        <ele>1119.2</ele>
        <time>2022-08-29T11:30:16Z</time>
      </trkpt>
      <trkpt lat="42.3728910" lon="-3.3419660">
        <ele>1119.4</ele>
        <time>2022-08-29T11:30:17Z</time>
      </trkpt>
      <trkpt lat="42.3728940" lon="-3.3419760">
        <ele>1119.2</ele>
        <time>2022-08-29T11:30:18Z</time>
      </trkpt>
      <trkpt lat="42.3728960" lon="-3.3419900">
        <ele>1119.2</ele>
        <time>2022-08-29T11:30:19Z</time>
      </trkpt>
      <trkpt lat="42.3728930" lon="-3.3420050">
        <ele>1119.2</ele>
        <time>2022-08-29T11:30:20Z</time>
      </trkpt>
      <trkpt lat="42.3728850" lon="-3.3420260">
        <ele>1119.4</ele>
        <time>2022-08-29T11:30:21Z</time>
      </trkpt>
      <trkpt lat="42.3728740" lon="-3.3420500">
        <ele>1119.0</ele>
        <time>2022-08-29T11:30:22Z</time>
      </trkpt>
      <trkpt lat="42.3728580" lon="-3.3420740">
        <ele>1119.2</ele>
        <time>2022-08-29T11:30:23Z</time>
      </trkpt>
      <trkpt lat="42.3728370" lon="-3.3421000">
        <ele>1119.0</ele>
        <time>2022-08-29T11:30:24Z</time>
      </trkpt>
      <trkpt lat="42.3728140" lon="-3.3421300">
        <ele>1119.0</ele>
        <time>2022-08-29T11:30:25Z</time>
      </trkpt>
      <trkpt lat="42.3727910" lon="-3.3421660">
        <ele>1119.0</ele>
        <time>2022-08-29T11:30:26Z</time>
      </trkpt>
      <trkpt lat="42.3727650" lon="-3.3422080">
        <ele>1119.0</ele>
        <time>2022-08-29T11:30:27Z</time>
      </trkpt>
      <trkpt lat="42.3727340" lon="-3.3422560">
        <ele>1119.0</ele>
        <time>2022-08-29T11:30:28Z</time>
      </trkpt>
      <trkpt lat="42.3726990" lon="-3.3423130">
        <ele>1119.0</ele>
        <time>2022-08-29T11:30:29Z</time>
      </trkpt>
      <trkpt lat="42.3726610" lon="-3.3423770">
        <ele>1118.8</ele>
        <time>2022-08-29T11:30:30Z</time>
      </trkpt>
      <trkpt lat="42.3726190" lon="-3.3424480">
        <ele>1118.6</ele>
        <time>2022-08-29T11:30:31Z</time>
      </trkpt>
      <trkpt lat="42.3725740" lon="-3.3425280">
        <ele>1118.6</ele>
        <time>2022-08-29T11:30:32Z</time>
      </trkpt>
      <trkpt lat="42.3725290" lon="-3.3426120">
        <ele>1118.2</ele>
        <time>2022-08-29T11:30:33Z</time>
      </trkpt>
      <trkpt lat="42.3724860" lon="-3.3427030">
        <ele>1118.0</ele>
        <time>2022-08-29T11:30:34Z</time>
      </trkpt>
      <trkpt lat="42.3724430" lon="-3.3427990">
        <ele>1118.0</ele>
        <time>2022-08-29T11:30:35Z</time>
      </trkpt>
      <trkpt lat="42.3724000" lon="-3.3429020">
        <ele>1117.6</ele>
        <time>2022-08-29T11:30:36Z</time>
      </trkpt>
      <trkpt lat="42.3723570" lon="-3.3430110">
        <ele>1116.4</ele>
        <time>2022-08-29T11:30:37Z</time>
      </trkpt>
      <trkpt lat="42.3723130" lon="-3.3431230">
        <ele>1115.6</ele>
        <time>2022-08-29T11:30:38Z</time>
      </trkpt>
      <trkpt lat="42.3722630" lon="-3.3432380">
        <ele>1115.0</ele>
        <time>2022-08-29T11:30:39Z</time>
      </trkpt>
      <trkpt lat="42.3722080" lon="-3.3433550">
        <ele>1113.6</ele>
        <time>2022-08-29T11:30:40Z</time>
      </trkpt>
      <trkpt lat="42.3721520" lon="-3.3434800">
        <ele>1112.8</ele>
        <time>2022-08-29T11:30:41Z</time>
      </trkpt>
      <trkpt lat="42.3720940" lon="-3.3436130">
        <ele>1111.6</ele>
        <time>2022-08-29T11:30:42Z</time>
      </trkpt>
      <trkpt lat="42.3720310" lon="-3.3437520">
        <ele>1110.6</ele>
        <time>2022-08-29T11:30:43Z</time>
      </trkpt>
      <trkpt lat="42.3719640" lon="-3.3438970">
        <ele>1109.0</ele>
        <time>2022-08-29T11:30:44Z</time>
      </trkpt>
      <trkpt lat="42.3718990" lon="-3.3440400">
        <ele>1107.6</ele>
        <time>2022-08-29T11:30:45Z</time>
      </trkpt>
      <trkpt lat="42.3718350" lon="-3.3441820">
        <ele>1106.0</ele>
        <time>2022-08-29T11:30:46Z</time>
      </trkpt>
      <trkpt lat="42.3717720" lon="-3.3443270">
        <ele>1104.6</ele>
        <time>2022-08-29T11:30:47Z</time>
      </trkpt>
      <trkpt lat="42.3717140" lon="-3.3444680">
        <ele>1104.0</ele>
        <time>2022-08-29T11:30:48Z</time>
      </trkpt>
      <trkpt lat="42.3716570" lon="-3.3446080">
        <ele>1103.4</ele>
        <time>2022-08-29T11:30:49Z</time>
      </trkpt>
      <trkpt lat="42.3715990" lon="-3.3447440">
        <ele>1100.8</ele>
        <time>2022-08-29T11:30:50Z</time>
      </trkpt>
      <trkpt lat="42.3715420" lon="-3.3448750">
        <ele>1099.6</ele>
        <time>2022-08-29T11:30:51Z</time>
      </trkpt>
      <trkpt lat="42.3714880" lon="-3.3449980">
        <ele>1096.8</ele>
        <time>2022-08-29T11:30:52Z</time>
      </trkpt>
      <trkpt lat="42.3714360" lon="-3.3451140">
        <ele>1095.4</ele>
        <time>2022-08-29T11:30:53Z</time>
      </trkpt>
      <trkpt lat="42.3713880" lon="-3.3452270">
        <ele>1092.8</ele>
        <time>2022-08-29T11:30:54Z</time>
      </trkpt>
      <trkpt lat="42.3713430" lon="-3.3453320">
        <ele>1090.8</ele>
        <time>2022-08-29T11:30:55Z</time>
      </trkpt>
      <trkpt lat="42.3712990" lon="-3.3454260">
        <ele>1088.2</ele>
        <time>2022-08-29T11:30:56Z</time>
      </trkpt>
      <trkpt lat="42.3712600" lon="-3.3455140">
        <ele>1086.8</ele>
        <time>2022-08-29T11:30:57Z</time>
      </trkpt>
      <trkpt lat="42.3712330" lon="-3.3456020">
        <ele>1085.6</ele>
        <time>2022-08-29T11:30:58Z</time>
      </trkpt>
      <trkpt lat="42.3712130" lon="-3.3456780">
        <ele>1083.6</ele>
        <time>2022-08-29T11:30:59Z</time>
      </trkpt>
      <trkpt lat="42.3711930" lon="-3.3457390">
        <ele>1083.6</ele>
        <time>2022-08-29T11:31:00Z</time>
      </trkpt>
      <trkpt lat="42.3711720" lon="-3.3457870">
        <ele>1082.2</ele>
        <time>2022-08-29T11:31:01Z</time>
      </trkpt>
      <trkpt lat="42.3711470" lon="-3.3458350">
        <ele>1081.0</ele>
        <time>2022-08-29T11:31:02Z</time>
      </trkpt>
      <trkpt lat="42.3711170" lon="-3.3458930">
        <ele>1080.0</ele>
        <time>2022-08-29T11:31:03Z</time>
      </trkpt>
      <trkpt lat="42.3710940" lon="-3.3459470">
        <ele>1079.6</ele>
        <time>2022-08-29T11:31:04Z</time>
      </trkpt>
      <trkpt lat="42.3710810" lon="-3.3459920">
        <ele>1079.0</ele>
        <time>2022-08-29T11:31:05Z</time>
      </trkpt>
      <trkpt lat="42.3710670" lon="-3.3460320">
        <ele>1077.8</ele>
        <time>2022-08-29T11:31:06Z</time>
      </trkpt>
      <trkpt lat="42.3710530" lon="-3.3460590">
        <ele>1076.4</ele>
        <time>2022-08-29T11:31:07Z</time>
      </trkpt>
      <trkpt lat="42.3710450" lon="-3.3460810">
        <ele>1075.4</ele>
        <time>2022-08-29T11:31:08Z</time>
      </trkpt>
      <trkpt lat="42.3710330" lon="-3.3461070">
        <ele>1075.0</ele>
        <time>2022-08-29T11:31:09Z</time>
      </trkpt>
      <trkpt lat="42.3710270" lon="-3.3461290">
        <ele>1074.6</ele>
        <time>2022-08-29T11:31:10Z</time>
      </trkpt>
      <trkpt lat="42.3710250" lon="-3.3461460">
        <ele>1074.6</ele>
        <time>2022-08-29T11:31:11Z</time>
      </trkpt>
      <trkpt lat="42.3710180" lon="-3.3461640">
        <ele>1074.4</ele>
        <time>2022-08-29T11:31:12Z</time>
      </trkpt>
      <trkpt lat="42.3710110" lon="-3.3461800">
        <ele>1074.6</ele>
        <time>2022-08-29T11:31:13Z</time>
      </trkpt>
      <trkpt lat="42.3710020" lon="-3.3461940">
        <ele>1074.6</ele>
        <time>2022-08-29T11:31:14Z</time>
      </trkpt>
      <trkpt lat="42.3709920" lon="-3.3462070">
        <ele>1074.4</ele>
        <time>2022-08-29T11:31:15Z</time>
      </trkpt>
      <trkpt lat="42.3709840" lon="-3.3462240">
        <ele>1074.4</ele>
        <time>2022-08-29T11:31:16Z</time>
      </trkpt>
      <trkpt lat="42.3709770" lon="-3.3462400">
        <ele>1074.4</ele>
        <time>2022-08-29T11:31:17Z</time>
      </trkpt>
      <trkpt lat="42.3709690" lon="-3.3462580">
        <ele>1074.4</ele>
        <time>2022-08-29T11:31:18Z</time>
      </trkpt>
      <trkpt lat="42.3709590" lon="-3.3462750">
        <ele>1074.6</ele>
        <time>2022-08-29T11:31:19Z</time>
      </trkpt>
      <trkpt lat="42.3709480" lon="-3.3462920">
        <ele>1074.8</ele>
        <time>2022-08-29T11:31:20Z</time>
      </trkpt>
      <trkpt lat="42.3709390" lon="-3.3463100">
        <ele>1074.8</ele>
        <time>2022-08-29T11:31:21Z</time>
      </trkpt>
      <trkpt lat="42.3709290" lon="-3.3463260">
        <ele>1074.8</ele>
        <time>2022-08-29T11:31:22Z</time>
      </trkpt>
      <trkpt lat="42.3709210" lon="-3.3463430">
        <ele>1074.8</ele>
        <time>2022-08-29T11:31:23Z</time>
      </trkpt>
      <trkpt lat="42.3709120" lon="-3.3463630">
        <ele>1075.0</ele>
        <time>2022-08-29T11:31:24Z</time>
      </trkpt>
      <trkpt lat="42.3709020" lon="-3.3463840">
        <ele>1075.2</ele>
        <time>2022-08-29T11:31:25Z</time>
      </trkpt>
      <trkpt lat="42.3708950" lon="-3.3464030">
        <ele>1075.4</ele>
        <time>2022-08-29T11:31:26Z</time>
      </trkpt>
      <trkpt lat="42.3708840" lon="-3.3464190">
        <ele>1075.6</ele>
        <time>2022-08-29T11:31:27Z</time>
      </trkpt>
      <trkpt lat="42.3708750" lon="-3.3464360">
        <ele>1076.0</ele>
        <time>2022-08-29T11:31:28Z</time>
      </trkpt>
      <trkpt lat="42.3708690" lon="-3.3464520">
        <ele>1076.4</ele>
        <time>2022-08-29T11:31:29Z</time>
      </trkpt>
      <trkpt lat="42.3708620" lon="-3.3464670">
        <ele>1076.6</ele>
        <time>2022-08-29T11:31:30Z</time>
      </trkpt>
      <trkpt lat="42.3708540" lon="-3.3464820">
        <ele>1076.8</ele>
        <time>2022-08-29T11:31:31Z</time>
      </trkpt>
      <trkpt lat="42.3708480" lon="-3.3464960">
        <ele>1077.0</ele>
        <time>2022-08-29T11:31:32Z</time>
      </trkpt>
      <trkpt lat="42.3708440" lon="-3.3465110">
        <ele>1077.2</ele>
        <time>2022-08-29T11:31:33Z</time>
      </trkpt>
      <trkpt lat="42.3708390" lon="-3.3465260">
        <ele>1077.6</ele>
        <time>2022-08-29T11:31:34Z</time>
      </trkpt>
      <trkpt lat="42.3708310" lon="-3.3465420">
        <ele>1077.8</ele>
        <time>2022-08-29T11:31:35Z</time>
      </trkpt>
      <trkpt lat="42.3708220" lon="-3.3465570">
        <ele>1078.2</ele>
        <time>2022-08-29T11:31:36Z</time>
      </trkpt>
      <trkpt lat="42.3708160" lon="-3.3465730">
        <ele>1078.6</ele>
        <time>2022-08-29T11:31:37Z</time>
      </trkpt>
      <trkpt lat="42.3708080" lon="-3.3465910">
        <ele>1079.2</ele>
        <time>2022-08-29T11:31:38Z</time>
      </trkpt>
      <trkpt lat="42.3708020" lon="-3.3466090">
        <ele>1079.6</ele>
        <time>2022-08-29T11:31:39Z</time>
      </trkpt>
      <trkpt lat="42.3707930" lon="-3.3466260">
        <ele>1080.0</ele>
        <time>2022-08-29T11:31:40Z</time>
      </trkpt>
      <trkpt lat="42.3707850" lon="-3.3466420">
        <ele>1080.6</ele>
        <time>2022-08-29T11:31:41Z</time>
      </trkpt>
      <trkpt lat="42.3707770" lon="-3.3466570">
        <ele>1080.8</ele>
        <time>2022-08-29T11:31:42Z</time>
      </trkpt>
      <trkpt lat="42.3707690" lon="-3.3466770">
        <ele>1081.0</ele>
        <time>2022-08-29T11:31:43Z</time>
      </trkpt>
      <trkpt lat="42.3707650" lon="-3.3466970">
        <ele>1081.6</ele>
        <time>2022-08-29T11:31:44Z</time>
      </trkpt>
      <trkpt lat="42.3707600" lon="-3.3467160">
        <ele>1081.8</ele>
        <time>2022-08-29T11:31:45Z</time>
      </trkpt>
      <trkpt lat="42.3707520" lon="-3.3467340">
        <ele>1082.2</ele>
        <time>2022-08-29T11:31:46Z</time>
      </trkpt>
      <trkpt lat="42.3707470" lon="-3.3467490">
        <ele>1082.2</ele>
        <time>2022-08-29T11:31:47Z</time>
      </trkpt>
      <trkpt lat="42.3707420" lon="-3.3467620">
        <ele>1082.8</ele>
        <time>2022-08-29T11:31:48Z</time>
      </trkpt>
      <trkpt lat="42.3707360" lon="-3.3467770">
        <ele>1083.0</ele>
        <time>2022-08-29T11:31:49Z</time>
      </trkpt>
      <trkpt lat="42.3707300" lon="-3.3467890">
        <ele>1083.6</ele>
        <time>2022-08-29T11:31:50Z</time>
      </trkpt>
      <trkpt lat="42.3707260" lon="-3.3467990">
        <ele>1084.0</ele>
        <time>2022-08-29T11:31:51Z</time>
      </trkpt>
      <trkpt lat="42.3707210" lon="-3.3468140">
        <ele>1084.4</ele>
        <time>2022-08-29T11:31:52Z</time>
      </trkpt>
      <trkpt lat="42.3707150" lon="-3.3468300">
        <ele>1084.6</ele>
        <time>2022-08-29T11:31:53Z</time>
      </trkpt>
      <trkpt lat="42.3707110" lon="-3.3468460">
        <ele>1084.8</ele>
        <time>2022-08-29T11:31:54Z</time>
      </trkpt>
      <trkpt lat="42.3707040" lon="-3.3468640">
        <ele>1085.2</ele>
        <time>2022-08-29T11:31:55Z</time>
      </trkpt>
      <trkpt lat="42.3706960" lon="-3.3468830">
        <ele>1085.6</ele>
        <time>2022-08-29T11:31:56Z</time>
      </trkpt>
      <trkpt lat="42.3706870" lon="-3.3469050">
        <ele>1086.0</ele>
        <time>2022-08-29T11:31:57Z</time>
      </trkpt>
      <trkpt lat="42.3706800" lon="-3.3469280">
        <ele>1086.2</ele>
        <time>2022-08-29T11:31:58Z</time>
      </trkpt>
      <trkpt lat="42.3706740" lon="-3.3469460">
        <ele>1086.4</ele>
        <time>2022-08-29T11:31:59Z</time>
      </trkpt>
      <trkpt lat="42.3706660" lon="-3.3469620">
        <ele>1086.6</ele>
        <time>2022-08-29T11:32:00Z</time>
      </trkpt>
      <trkpt lat="42.3706590" lon="-3.3469770">
        <ele>1086.8</ele>
        <time>2022-08-29T11:32:01Z</time>
      </trkpt>
      <trkpt lat="42.3706520" lon="-3.3469950">
        <ele>1087.0</ele>
        <time>2022-08-29T11:32:02Z</time>
      </trkpt>
      <trkpt lat="42.3706440" lon="-3.3470170">
        <ele>1087.0</ele>
        <time>2022-08-29T11:32:03Z</time>
      </trkpt>
      <trkpt lat="42.3706360" lon="-3.3470400">
        <ele>1087.0</ele>
        <time>2022-08-29T11:32:04Z</time>
      </trkpt>
      <trkpt lat="42.3706270" lon="-3.3470620">
        <ele>1087.0</ele>
        <time>2022-08-29T11:32:05Z</time>
      </trkpt>
      <trkpt lat="42.3706170" lon="-3.3470860">
        <ele>1087.2</ele>
        <time>2022-08-29T11:32:06Z</time>
      </trkpt>
      <trkpt lat="42.3706060" lon="-3.3471110">
        <ele>1087.4</ele>
        <time>2022-08-29T11:32:07Z</time>
      </trkpt>
      <trkpt lat="42.3705930" lon="-3.3471330">
        <ele>1087.4</ele>
        <time>2022-08-29T11:32:08Z</time>
      </trkpt>
      <trkpt lat="42.3705820" lon="-3.3471550">
        <ele>1087.4</ele>
        <time>2022-08-29T11:32:09Z</time>
      </trkpt>
      <trkpt lat="42.3705700" lon="-3.3471770">
        <ele>1087.8</ele>
        <time>2022-08-29T11:32:10Z</time>
      </trkpt>
      <trkpt lat="42.3705600" lon="-3.3472030">
        <ele>1088.0</ele>
        <time>2022-08-29T11:32:11Z</time>
      </trkpt>
      <trkpt lat="42.3705500" lon="-3.3472290">
        <ele>1088.0</ele>
        <time>2022-08-29T11:32:12Z</time>
      </trkpt>
      <trkpt lat="42.3705370" lon="-3.3472560">
        <ele>1088.0</ele>
        <time>2022-08-29T11:32:13Z</time>
      </trkpt>
      <trkpt lat="42.3705250" lon="-3.3472840">
        <ele>1088.2</ele>
        <time>2022-08-29T11:32:14Z</time>
      </trkpt>
      <trkpt lat="42.3705140" lon="-3.3473120">
        <ele>1088.2</ele>
        <time>2022-08-29T11:32:15Z</time>
      </trkpt>
      <trkpt lat="42.3705050" lon="-3.3473380">
        <ele>1088.2</ele>
        <time>2022-08-29T11:32:16Z</time>
      </trkpt>
      <trkpt lat="42.3704950" lon="-3.3473630">
        <ele>1088.2</ele>
        <time>2022-08-29T11:32:17Z</time>
      </trkpt>
      <trkpt lat="42.3704860" lon="-3.3473850">
        <ele>1088.2</ele>
        <time>2022-08-29T11:32:18Z</time>
      </trkpt>
      <trkpt lat="42.3704770" lon="-3.3474040">
        <ele>1088.4</ele>
        <time>2022-08-29T11:32:19Z</time>
      </trkpt>
      <trkpt lat="42.3704720" lon="-3.3474200">
        <ele>1088.4</ele>
        <time>2022-08-29T11:32:20Z</time>
      </trkpt>
      <trkpt lat="42.3704650" lon="-3.3474370">
        <ele>1088.2</ele>
        <time>2022-08-29T11:32:21Z</time>
      </trkpt>
      <trkpt lat="42.3704550" lon="-3.3474600">
        <ele>1088.2</ele>
        <time>2022-08-29T11:32:22Z</time>
      </trkpt>
      <trkpt lat="42.3704480" lon="-3.3474820">
        <ele>1088.4</ele>
        <time>2022-08-29T11:32:23Z</time>
      </trkpt>
      <trkpt lat="42.3704380" lon="-3.3475030">
        <ele>1088.2</ele>
        <time>2022-08-29T11:32:24Z</time>
      </trkpt>
      <trkpt lat="42.3704300" lon="-3.3475220">
        <ele>1088.4</ele>
        <time>2022-08-29T11:32:25Z</time>
      </trkpt>
      <trkpt lat="42.3704220" lon="-3.3475390">
        <ele>1088.2</ele>
        <time>2022-08-29T11:32:26Z</time>
      </trkpt>
      <trkpt lat="42.3704130" lon="-3.3475580">
        <ele>1088.4</ele>
        <time>2022-08-29T11:32:27Z</time>
      </trkpt>
      <trkpt lat="42.3704050" lon="-3.3475780">
        <ele>1088.2</ele>
        <time>2022-08-29T11:32:28Z</time>
      </trkpt>
      <trkpt lat="42.3703950" lon="-3.3475970">
        <ele>1088.4</ele>
        <time>2022-08-29T11:32:29Z</time>
      </trkpt>
      <trkpt lat="42.3703820" lon="-3.3476160">
        <ele>1088.4</ele>
        <time>2022-08-29T11:32:30Z</time>
      </trkpt>
      <trkpt lat="42.3703700" lon="-3.3476370">
        <ele>1088.4</ele>
        <time>2022-08-29T11:32:31Z</time>
      </trkpt>
      <trkpt lat="42.3703580" lon="-3.3476580">
        <ele>1088.4</ele>
        <time>2022-08-29T11:32:32Z</time>
      </trkpt>
      <trkpt lat="42.3703470" lon="-3.3476770">
        <ele>1088.4</ele>
        <time>2022-08-29T11:32:33Z</time>
      </trkpt>
      <trkpt lat="42.3703360" lon="-3.3476970">
        <ele>1088.2</ele>
        <time>2022-08-29T11:32:34Z</time>
      </trkpt>
      <trkpt lat="42.3703240" lon="-3.3477170">
        <ele>1088.2</ele>
        <time>2022-08-29T11:32:35Z</time>
      </trkpt>
      <trkpt lat="42.3703110" lon="-3.3477390">
        <ele>1088.2</ele>
        <time>2022-08-29T11:32:36Z</time>
      </trkpt>
      <trkpt lat="42.3702950" lon="-3.3477630">
        <ele>1088.2</ele>
        <time>2022-08-29T11:32:37Z</time>
      </trkpt>
      <trkpt lat="42.3702790" lon="-3.3477900">
        <ele>1088.2</ele>
        <time>2022-08-29T11:32:38Z</time>
      </trkpt>
      <trkpt lat="42.3702590" lon="-3.3478170">
        <ele>1088.2</ele>
        <time>2022-08-29T11:32:39Z</time>
      </trkpt>
      <trkpt lat="42.3702350" lon="-3.3478490">
        <ele>1088.2</ele>
        <time>2022-08-29T11:32:40Z</time>
      </trkpt>
      <trkpt lat="42.3702130" lon="-3.3478800">
        <ele>1088.0</ele>
        <time>2022-08-29T11:32:41Z</time>
      </trkpt>
      <trkpt lat="42.3701920" lon="-3.3479090">
        <ele>1088.2</ele>
        <time>2022-08-29T11:32:42Z</time>
      </trkpt>
      <trkpt lat="42.3701680" lon="-3.3479390">
        <ele>1088.0</ele>
        <time>2022-08-29T11:32:43Z</time>
      </trkpt>
      <trkpt lat="42.3701460" lon="-3.3479720">
        <ele>1088.2</ele>
        <time>2022-08-29T11:32:44Z</time>
      </trkpt>
      <trkpt lat="42.3701230" lon="-3.3480070">
        <ele>1088.2</ele>
        <time>2022-08-29T11:32:45Z</time>
      </trkpt>
      <trkpt lat="42.3701010" lon="-3.3480450">
        <ele>1088.2</ele>
        <time>2022-08-29T11:32:46Z</time>
      </trkpt>
      <trkpt lat="42.3700790" lon="-3.3480820">
        <ele>1088.2</ele>
        <time>2022-08-29T11:32:47Z</time>
      </trkpt>
      <trkpt lat="42.3700520" lon="-3.3481180">
        <ele>1088.2</ele>
        <time>2022-08-29T11:32:48Z</time>
      </trkpt>
      <trkpt lat="42.3700240" lon="-3.3481480">
        <ele>1088.0</ele>
        <time>2022-08-29T11:32:49Z</time>
      </trkpt>
      <trkpt lat="42.3699960" lon="-3.3481740">
        <ele>1088.2</ele>
        <time>2022-08-29T11:32:50Z</time>
      </trkpt>
      <trkpt lat="42.3699690" lon="-3.3482010">
        <ele>1088.0</ele>
        <time>2022-08-29T11:32:51Z</time>
      </trkpt>
      <trkpt lat="42.3699400" lon="-3.3482240">
        <ele>1088.0</ele>
        <time>2022-08-29T11:32:52Z</time>
      </trkpt>
      <trkpt lat="42.3699080" lon="-3.3482450">
        <ele>1088.2</ele>
        <time>2022-08-29T11:32:53Z</time>
      </trkpt>
      <trkpt lat="42.3698790" lon="-3.3482670">
        <ele>1088.2</ele>
        <time>2022-08-29T11:32:54Z</time>
      </trkpt>
      <trkpt lat="42.3698530" lon="-3.3482870">
        <ele>1088.0</ele>
        <time>2022-08-29T11:32:55Z</time>
      </trkpt>
      <trkpt lat="42.3698250" lon="-3.3483050">
        <ele>1088.0</ele>
        <time>2022-08-29T11:32:56Z</time>
      </trkpt>
      <trkpt lat="42.3697980" lon="-3.3483240">
        <ele>1088.0</ele>
        <time>2022-08-29T11:32:57Z</time>
      </trkpt>
      <trkpt lat="42.3697720" lon="-3.3483410">
        <ele>1088.0</ele>
        <time>2022-08-29T11:32:58Z</time>
      </trkpt>
      <trkpt lat="42.3697450" lon="-3.3483570">
        <ele>1088.2</ele>
        <time>2022-08-29T11:32:59Z</time>
      </trkpt>
      <trkpt lat="42.3697150" lon="-3.3483760">
        <ele>1088.0</ele>
        <time>2022-08-29T11:33:00Z</time>
      </trkpt>
      <trkpt lat="42.3696860" lon="-3.3483960">
        <ele>1088.0</ele>
        <time>2022-08-29T11:33:01Z</time>
      </trkpt>
      <trkpt lat="42.3696530" lon="-3.3484170">
        <ele>1088.2</ele>
        <time>2022-08-29T11:33:02Z</time>
      </trkpt>
      <trkpt lat="42.3696170" lon="-3.3484370">
        <ele>1088.2</ele>
        <time>2022-08-29T11:33:03Z</time>
      </trkpt>
      <trkpt lat="42.3695830" lon="-3.3484560">
        <ele>1088.2</ele>
        <time>2022-08-29T11:33:04Z</time>
      </trkpt>
      <trkpt lat="42.3695490" lon="-3.3484720">
        <ele>1088.2</ele>
        <time>2022-08-29T11:33:05Z</time>
      </trkpt>
      <trkpt lat="42.3695150" lon="-3.3484870">
        <ele>1088.4</ele>
        <time>2022-08-29T11:33:06Z</time>
      </trkpt>
      <trkpt lat="42.3694820" lon="-3.3485020">
        <ele>1088.6</ele>
        <time>2022-08-29T11:33:07Z</time>
      </trkpt>
      <trkpt lat="42.3694480" lon="-3.3485170">
        <ele>1088.8</ele>
        <time>2022-08-29T11:33:08Z</time>
      </trkpt>
      <trkpt lat="42.3694150" lon="-3.3485320">
        <ele>1089.0</ele>
        <time>2022-08-29T11:33:09Z</time>
      </trkpt>
      <trkpt lat="42.3693780" lon="-3.3485480">
        <ele>1089.2</ele>
        <time>2022-08-29T11:33:10Z</time>
      </trkpt>
      <trkpt lat="42.3693470" lon="-3.3485640">
        <ele>1089.4</ele>
        <time>2022-08-29T11:33:11Z</time>
      </trkpt>
      <trkpt lat="42.3693140" lon="-3.3485810">
        <ele>1089.4</ele>
        <time>2022-08-29T11:33:12Z</time>
      </trkpt>
      <trkpt lat="42.3692780" lon="-3.3486000">
        <ele>1089.4</ele>
        <time>2022-08-29T11:33:13Z</time>
      </trkpt>
      <trkpt lat="42.3692450" lon="-3.3486190">
        <ele>1089.6</ele>
        <time>2022-08-29T11:33:14Z</time>
      </trkpt>
      <trkpt lat="42.3692120" lon="-3.3486380">
        <ele>1089.6</ele>
        <time>2022-08-29T11:33:15Z</time>
      </trkpt>
      <trkpt lat="42.3691810" lon="-3.3486570">
        <ele>1089.6</ele>
        <time>2022-08-29T11:33:16Z</time>
      </trkpt>
      <trkpt lat="42.3691500" lon="-3.3486800">
        <ele>1089.6</ele>
        <time>2022-08-29T11:33:17Z</time>
      </trkpt>
      <trkpt lat="42.3691220" lon="-3.3487030">
        <ele>1089.8</ele>
        <time>2022-08-29T11:33:18Z</time>
      </trkpt>
      <trkpt lat="42.3690960" lon="-3.3487290">
        <ele>1089.6</ele>
        <time>2022-08-29T11:33:19Z</time>
      </trkpt>
      <trkpt lat="42.3690690" lon="-3.3487570">
        <ele>1090.0</ele>
        <time>2022-08-29T11:33:20Z</time>
      </trkpt>
      <trkpt lat="42.3690420" lon="-3.3487850">
        <ele>1090.0</ele>
        <time>2022-08-29T11:33:21Z</time>
      </trkpt>
      <trkpt lat="42.3690170" lon="-3.3488140">
        <ele>1090.0</ele>
        <time>2022-08-29T11:33:22Z</time>
      </trkpt>
      <trkpt lat="42.3689930" lon="-3.3488430">
        <ele>1090.0</ele>
        <time>2022-08-29T11:33:23Z</time>
      </trkpt>
      <trkpt lat="42.3689690" lon="-3.3488690">
        <ele>1090.2</ele>
        <time>2022-08-29T11:33:24Z</time>
      </trkpt>
      <trkpt lat="42.3689470" lon="-3.3488930">
        <ele>1090.2</ele>
        <time>2022-08-29T11:33:25Z</time>
      </trkpt>
      <trkpt lat="42.3689250" lon="-3.3489170">
        <ele>1090.4</ele>
        <time>2022-08-29T11:33:26Z</time>
      </trkpt>
      <trkpt lat="42.3689060" lon="-3.3489370">
        <ele>1090.4</ele>
        <time>2022-08-29T11:33:27Z</time>
      </trkpt>
      <trkpt lat="42.3688890" lon="-3.3489560">
        <ele>1090.6</ele>
        <time>2022-08-29T11:33:28Z</time>
      </trkpt>
      <trkpt lat="42.3688720" lon="-3.3489780">
        <ele>1090.4</ele>
        <time>2022-08-29T11:33:29Z</time>
      </trkpt>
      <trkpt lat="42.3688590" lon="-3.3489970">
        <ele>1090.6</ele>
        <time>2022-08-29T11:33:30Z</time>
      </trkpt>
      <trkpt lat="42.3688430" lon="-3.3490140">
        <ele>1091.0</ele>
        <time>2022-08-29T11:33:31Z</time>
      </trkpt>
      <trkpt lat="42.3688270" lon="-3.3490310">
        <ele>1091.0</ele>
        <time>2022-08-29T11:33:32Z</time>
      </trkpt>
      <trkpt lat="42.3688120" lon="-3.3490490">
        <ele>1091.2</ele>
        <time>2022-08-29T11:33:33Z</time>
      </trkpt>
      <trkpt lat="42.3687950" lon="-3.3490680">
        <ele>1091.6</ele>
        <time>2022-08-29T11:33:34Z</time>
      </trkpt>
      <trkpt lat="42.3687790" lon="-3.3490880">
        <ele>1091.6</ele>
        <time>2022-08-29T11:33:35Z</time>
      </trkpt>
      <trkpt lat="42.3687620" lon="-3.3491070">
        <ele>1091.8</ele>
        <time>2022-08-29T11:33:36Z</time>
      </trkpt>
      <trkpt lat="42.3687470" lon="-3.3491280">
        <ele>1092.0</ele>
        <time>2022-08-29T11:33:37Z</time>
      </trkpt>
      <trkpt lat="42.3687320" lon="-3.3491460">
        <ele>1092.2</ele>
        <time>2022-08-29T11:33:38Z</time>
      </trkpt>
      <trkpt lat="42.3687180" lon="-3.3491630">
        <ele>1092.4</ele>
        <time>2022-08-29T11:33:39Z</time>
      </trkpt>
      <trkpt lat="42.3687030" lon="-3.3491790">
        <ele>1092.6</ele>
        <time>2022-08-29T11:33:40Z</time>
      </trkpt>
      <trkpt lat="42.3686880" lon="-3.3491970">
        <ele>1093.0</ele>
        <time>2022-08-29T11:33:41Z</time>
      </trkpt>
      <trkpt lat="42.3686740" lon="-3.3492130">
        <ele>1093.0</ele>
        <time>2022-08-29T11:33:42Z</time>
      </trkpt>
      <trkpt lat="42.3686600" lon="-3.3492280">
        <ele>1093.2</ele>
        <time>2022-08-29T11:33:43Z</time>
      </trkpt>
      <trkpt lat="42.3686460" lon="-3.3492420">
        <ele>1093.4</ele>
        <time>2022-08-29T11:33:44Z</time>
      </trkpt>
      <trkpt lat="42.3686330" lon="-3.3492570">
        <ele>1093.4</ele>
        <time>2022-08-29T11:33:45Z</time>
      </trkpt>
      <trkpt lat="42.3686190" lon="-3.3492720">
        <ele>1093.8</ele>
        <time>2022-08-29T11:33:46Z</time>
      </trkpt>
      <trkpt lat="42.3686060" lon="-3.3492890">
        <ele>1094.0</ele>
        <time>2022-08-29T11:33:47Z</time>
      </trkpt>
      <trkpt lat="42.3685930" lon="-3.3493050">
        <ele>1094.0</ele>
        <time>2022-08-29T11:33:48Z</time>
      </trkpt>
      <trkpt lat="42.3685790" lon="-3.3493220">
        <ele>1094.0</ele>
        <time>2022-08-29T11:33:49Z</time>
      </trkpt>
      <trkpt lat="42.3685660" lon="-3.3493380">
        <ele>1094.2</ele>
        <time>2022-08-29T11:33:50Z</time>
      </trkpt>
      <trkpt lat="42.3685520" lon="-3.3493530">
        <ele>1094.6</ele>
        <time>2022-08-29T11:33:51Z</time>
      </trkpt>
      <trkpt lat="42.3685390" lon="-3.3493680">
        <ele>1094.6</ele>
        <time>2022-08-29T11:33:52Z</time>
      </trkpt>
      <trkpt lat="42.3685270" lon="-3.3493820">
        <ele>1094.8</ele>
        <time>2022-08-29T11:33:53Z</time>
      </trkpt>
      <trkpt lat="42.3685140" lon="-3.3493950">
        <ele>1094.8</ele>
        <time>2022-08-29T11:33:54Z</time>
      </trkpt>
      <trkpt lat="42.3685010" lon="-3.3494100">
        <ele>1095.0</ele>
        <time>2022-08-29T11:33:55Z</time>
      </trkpt>
      <trkpt lat="42.3684890" lon="-3.3494260">
        <ele>1095.4</ele>
        <time>2022-08-29T11:33:56Z</time>
      </trkpt>
      <trkpt lat="42.3684760" lon="-3.3494420">
        <ele>1095.6</ele>
        <time>2022-08-29T11:33:57Z</time>
      </trkpt>
      <trkpt lat="42.3684640" lon="-3.3494580">
        <ele>1095.8</ele>
        <time>2022-08-29T11:33:58Z</time>
      </trkpt>
      <trkpt lat="42.3684530" lon="-3.3494730">
        <ele>1095.8</ele>
        <time>2022-08-29T11:33:59Z</time>
      </trkpt>
      <trkpt lat="42.3684420" lon="-3.3494870">
        <ele>1096.4</ele>
        <time>2022-08-29T11:34:00Z</time>
      </trkpt>
      <trkpt lat="42.3684320" lon="-3.3495010">
        <ele>1096.6</ele>
        <time>2022-08-29T11:34:01Z</time>
      </trkpt>
      <trkpt lat="42.3684220" lon="-3.3495150">
        <ele>1096.8</ele>
        <time>2022-08-29T11:34:02Z</time>
      </trkpt>
      <trkpt lat="42.3684130" lon="-3.3495290">
        <ele>1096.8</ele>
        <time>2022-08-29T11:34:03Z</time>
      </trkpt>
      <trkpt lat="42.3684030" lon="-3.3495430">
        <ele>1097.0</ele>
        <time>2022-08-29T11:34:04Z</time>
      </trkpt>
      <trkpt lat="42.3683910" lon="-3.3495570">
        <ele>1097.4</ele>
        <time>2022-08-29T11:34:05Z</time>
      </trkpt>
      <trkpt lat="42.3683790" lon="-3.3495720">
        <ele>1097.4</ele>
        <time>2022-08-29T11:34:06Z</time>
      </trkpt>
      <trkpt lat="42.3683680" lon="-3.3495870">
        <ele>1097.6</ele>
        <time>2022-08-29T11:34:07Z</time>
      </trkpt>
      <trkpt lat="42.3683570" lon="-3.3496020">
        <ele>1098.0</ele>
        <time>2022-08-29T11:34:08Z</time>
      </trkpt>
      <trkpt lat="42.3683460" lon="-3.3496180">
        <ele>1098.0</ele>
        <time>2022-08-29T11:34:09Z</time>
      </trkpt>
      <trkpt lat="42.3683360" lon="-3.3496340">
        <ele>1098.2</ele>
        <time>2022-08-29T11:34:10Z</time>
      </trkpt>
      <trkpt lat="42.3683260" lon="-3.3496470">
        <ele>1098.6</ele>
        <time>2022-08-29T11:34:11Z</time>
      </trkpt>
      <trkpt lat="42.3683150" lon="-3.3496610">
        <ele>1098.8</ele>
        <time>2022-08-29T11:34:12Z</time>
      </trkpt>
      <trkpt lat="42.3683040" lon="-3.3496730">
        <ele>1098.8</ele>
        <time>2022-08-29T11:34:13Z</time>
      </trkpt>
      <trkpt lat="42.3682920" lon="-3.3496830">
        <ele>1099.0</ele>
        <time>2022-08-29T11:34:14Z</time>
      </trkpt>
      <trkpt lat="42.3682780" lon="-3.3496930">
        <ele>1099.2</ele>
        <time>2022-08-29T11:34:15Z</time>
      </trkpt>
      <trkpt lat="42.3682660" lon="-3.3497030">
        <ele>1099.4</ele>
        <time>2022-08-29T11:34:16Z</time>
      </trkpt>
      <trkpt lat="42.3682530" lon="-3.3497170">
        <ele>1099.6</ele>
        <time>2022-08-29T11:34:17Z</time>
      </trkpt>
      <trkpt lat="42.3682410" lon="-3.3497320">
        <ele>1100.0</ele>
        <time>2022-08-29T11:34:18Z</time>
      </trkpt>
      <trkpt lat="42.3682300" lon="-3.3497450">
        <ele>1100.0</ele>
        <time>2022-08-29T11:34:19Z</time>
      </trkpt>
      <trkpt lat="42.3682180" lon="-3.3497570">
        <ele>1100.4</ele>
        <time>2022-08-29T11:34:20Z</time>
      </trkpt>
      <trkpt lat="42.3682080" lon="-3.3497690">
        <ele>1100.6</ele>
        <time>2022-08-29T11:34:21Z</time>
      </trkpt>
      <trkpt lat="42.3681990" lon="-3.3497810">
        <ele>1100.8</ele>
        <time>2022-08-29T11:34:22Z</time>
      </trkpt>
      <trkpt lat="42.3681910" lon="-3.3497940">
        <ele>1101.0</ele>
        <time>2022-08-29T11:34:23Z</time>
      </trkpt>
      <trkpt lat="42.3681820" lon="-3.3498090">
        <ele>1101.4</ele>
        <time>2022-08-29T11:34:24Z</time>
      </trkpt>
      <trkpt lat="42.3681720" lon="-3.3498270">
        <ele>1101.4</ele>
        <time>2022-08-29T11:34:25Z</time>
      </trkpt>
      <trkpt lat="42.3681620" lon="-3.3498440">
        <ele>1101.8</ele>
        <time>2022-08-29T11:34:26Z</time>
      </trkpt>
      <trkpt lat="42.3681510" lon="-3.3498590">
        <ele>1101.8</ele>
        <time>2022-08-29T11:34:27Z</time>
      </trkpt>
      <trkpt lat="42.3681400" lon="-3.3498700">
        <ele>1102.2</ele>
        <time>2022-08-29T11:34:28Z</time>
      </trkpt>
      <trkpt lat="42.3681290" lon="-3.3498780">
        <ele>1102.6</ele>
        <time>2022-08-29T11:34:29Z</time>
      </trkpt>
      <trkpt lat="42.3681190" lon="-3.3498870">
        <ele>1102.6</ele>
        <time>2022-08-29T11:34:30Z</time>
      </trkpt>
      <trkpt lat="42.3681100" lon="-3.3499000">
        <ele>1102.6</ele>
        <time>2022-08-29T11:34:31Z</time>
      </trkpt>
      <trkpt lat="42.3681030" lon="-3.3499150">
        <ele>1103.0</ele>
        <time>2022-08-29T11:34:32Z</time>
      </trkpt>
      <trkpt lat="42.3680970" lon="-3.3499320">
        <ele>1103.0</ele>
        <time>2022-08-29T11:34:33Z</time>
      </trkpt>
      <trkpt lat="42.3680890" lon="-3.3499520">
        <ele>1103.0</ele>
        <time>2022-08-29T11:34:34Z</time>
      </trkpt>
      <trkpt lat="42.3680810" lon="-3.3499720">
        <ele>1103.4</ele>
        <time>2022-08-29T11:34:35Z</time>
      </trkpt>
      <trkpt lat="42.3680720" lon="-3.3499920">
        <ele>1103.6</ele>
        <time>2022-08-29T11:34:36Z</time>
      </trkpt>
      <trkpt lat="42.3680630" lon="-3.3500090">
        <ele>1103.6</ele>
        <time>2022-08-29T11:34:37Z</time>
      </trkpt>
      <trkpt lat="42.3680540" lon="-3.3500250">
        <ele>1104.0</ele>
        <time>2022-08-29T11:34:38Z</time>
      </trkpt>
      <trkpt lat="42.3680450" lon="-3.3500410">
        <ele>1104.2</ele>
        <time>2022-08-29T11:34:39Z</time>
      </trkpt>
      <trkpt lat="42.3680340" lon="-3.3500570">
        <ele>1104.6</ele>
        <time>2022-08-29T11:34:40Z</time>
      </trkpt>
      <trkpt lat="42.3680240" lon="-3.3500730">
        <ele>1104.6</ele>
        <time>2022-08-29T11:34:41Z</time>
      </trkpt>
      <trkpt lat="42.3680160" lon="-3.3500900">
        <ele>1104.8</ele>
        <time>2022-08-29T11:34:42Z</time>
      </trkpt>
      <trkpt lat="42.3680070" lon="-3.3501070">
        <ele>1105.0</ele>
        <time>2022-08-29T11:34:43Z</time>
      </trkpt>
      <trkpt lat="42.3680000" lon="-3.3501250">
        <ele>1105.2</ele>
        <time>2022-08-29T11:34:44Z</time>
      </trkpt>
      <trkpt lat="42.3679920" lon="-3.3501430">
        <ele>1105.4</ele>
        <time>2022-08-29T11:34:45Z</time>
      </trkpt>
      <trkpt lat="42.3679840" lon="-3.3501610">
        <ele>1105.2</ele>
        <time>2022-08-29T11:34:46Z</time>
      </trkpt>
      <trkpt lat="42.3679770" lon="-3.3501790">
        <ele>1105.4</ele>
        <time>2022-08-29T11:34:47Z</time>
      </trkpt>
      <trkpt lat="42.3679710" lon="-3.3501970">
        <ele>1105.8</ele>
        <time>2022-08-29T11:34:48Z</time>
      </trkpt>
      <trkpt lat="42.3679630" lon="-3.3502140">
        <ele>1105.8</ele>
        <time>2022-08-29T11:34:49Z</time>
      </trkpt>
      <trkpt lat="42.3679540" lon="-3.3502320">
        <ele>1105.8</ele>
        <time>2022-08-29T11:34:50Z</time>
      </trkpt>
      <trkpt lat="42.3679460" lon="-3.3502520">
        <ele>1106.2</ele>
        <time>2022-08-29T11:34:51Z</time>
      </trkpt>
      <trkpt lat="42.3679380" lon="-3.3502730">
        <ele>1106.4</ele>
        <time>2022-08-29T11:34:52Z</time>
      </trkpt>
      <trkpt lat="42.3679300" lon="-3.3502940">
        <ele>1106.4</ele>
        <time>2022-08-29T11:34:53Z</time>
      </trkpt>
      <trkpt lat="42.3679220" lon="-3.3503150">
        <ele>1106.6</ele>
        <time>2022-08-29T11:34:54Z</time>
      </trkpt>
      <trkpt lat="42.3679150" lon="-3.3503340">
        <ele>1106.6</ele>
        <time>2022-08-29T11:34:55Z</time>
      </trkpt>
      <trkpt lat="42.3679080" lon="-3.3503540">
        <ele>1106.6</ele>
        <time>2022-08-29T11:34:56Z</time>
      </trkpt>
      <trkpt lat="42.3679020" lon="-3.3503730">
        <ele>1106.8</ele>
        <time>2022-08-29T11:34:57Z</time>
      </trkpt>
      <trkpt lat="42.3678970" lon="-3.3503920">
        <ele>1106.8</ele>
        <time>2022-08-29T11:34:58Z</time>
      </trkpt>
      <trkpt lat="42.3678910" lon="-3.3504110">
        <ele>1107.2</ele>
        <time>2022-08-29T11:34:59Z</time>
      </trkpt>
      <trkpt lat="42.3678850" lon="-3.3504290">
        <ele>1107.4</ele>
        <time>2022-08-29T11:35:00Z</time>
      </trkpt>
      <trkpt lat="42.3678800" lon="-3.3504470">
        <ele>1107.8</ele>
        <time>2022-08-29T11:35:01Z</time>
      </trkpt>
      <trkpt lat="42.3678740" lon="-3.3504670">
        <ele>1107.8</ele>
        <time>2022-08-29T11:35:02Z</time>
      </trkpt>
      <trkpt lat="42.3678700" lon="-3.3504880">
        <ele>1108.0</ele>
        <time>2022-08-29T11:35:03Z</time>
      </trkpt>
      <trkpt lat="42.3678650" lon="-3.3505080">
        <ele>1108.0</ele>
        <time>2022-08-29T11:35:04Z</time>
      </trkpt>
      <trkpt lat="42.3678630" lon="-3.3505310">
        <ele>1108.2</ele>
        <time>2022-08-29T11:35:05Z</time>
      </trkpt>
      <trkpt lat="42.3678600" lon="-3.3505580">
        <ele>1108.4</ele>
        <time>2022-08-29T11:35:06Z</time>
      </trkpt>
      <trkpt lat="42.3678550" lon="-3.3505870">
        <ele>1108.6</ele>
        <time>2022-08-29T11:35:07Z</time>
      </trkpt>
      <trkpt lat="42.3678480" lon="-3.3506130">
        <ele>1108.8</ele>
        <time>2022-08-29T11:35:08Z</time>
      </trkpt>
      <trkpt lat="42.3678410" lon="-3.3506390">
        <ele>1109.0</ele>
        <time>2022-08-29T11:35:09Z</time>
      </trkpt>
      <trkpt lat="42.3678320" lon="-3.3506670">
        <ele>1109.2</ele>
        <time>2022-08-29T11:35:10Z</time>
      </trkpt>
      <trkpt lat="42.3678240" lon="-3.3506940">
        <ele>1109.2</ele>
        <time>2022-08-29T11:35:11Z</time>
      </trkpt>
      <trkpt lat="42.3678160" lon="-3.3507200">
        <ele>1109.6</ele>
        <time>2022-08-29T11:35:12Z</time>
      </trkpt>
      <trkpt lat="42.3678080" lon="-3.3507450">
        <ele>1109.6</ele>
        <time>2022-08-29T11:35:13Z</time>
      </trkpt>
      <trkpt lat="42.3678000" lon="-3.3507700">
        <ele>1109.6</ele>
        <time>2022-08-29T11:35:14Z</time>
      </trkpt>
      <trkpt lat="42.3677920" lon="-3.3507950">
        <ele>1109.8</ele>
        <time>2022-08-29T11:35:15Z</time>
      </trkpt>
      <trkpt lat="42.3677830" lon="-3.3508210">
        <ele>1109.8</ele>
        <time>2022-08-29T11:35:16Z</time>
      </trkpt>
      <trkpt lat="42.3677750" lon="-3.3508450">
        <ele>1110.0</ele>
        <time>2022-08-29T11:35:17Z</time>
      </trkpt>
      <trkpt lat="42.3677670" lon="-3.3508690">
        <ele>1110.0</ele>
        <time>2022-08-29T11:35:18Z</time>
      </trkpt>
      <trkpt lat="42.3677590" lon="-3.3508920">
        <ele>1110.0</ele>
        <time>2022-08-29T11:35:19Z</time>
      </trkpt>
      <trkpt lat="42.3677490" lon="-3.3509140">
        <ele>1110.0</ele>
        <time>2022-08-29T11:35:20Z</time>
      </trkpt>
      <trkpt lat="42.3677430" lon="-3.3509350">
        <ele>1110.0</ele>
        <time>2022-08-29T11:35:21Z</time>
      </trkpt>
      <trkpt lat="42.3677310" lon="-3.3509570">
        <ele>1110.2</ele>
        <time>2022-08-29T11:35:22Z</time>
      </trkpt>
      <trkpt lat="42.3677220" lon="-3.3509780">
        <ele>1110.4</ele>
        <time>2022-08-29T11:35:23Z</time>
      </trkpt>
      <trkpt lat="42.3677110" lon="-3.3510000">
        <ele>1110.6</ele>
        <time>2022-08-29T11:35:24Z</time>
      </trkpt>
      <trkpt lat="42.3677020" lon="-3.3510210">
        <ele>1110.8</ele>
        <time>2022-08-29T11:35:25Z</time>
      </trkpt>
      <trkpt lat="42.3676920" lon="-3.3510420">
        <ele>1111.0</ele>
        <time>2022-08-29T11:35:26Z</time>
      </trkpt>
      <trkpt lat="42.3676820" lon="-3.3510630">
        <ele>1110.8</ele>
        <time>2022-08-29T11:35:27Z</time>
      </trkpt>
      <trkpt lat="42.3676710" lon="-3.3510830">
        <ele>1111.0</ele>
        <time>2022-08-29T11:35:28Z</time>
      </trkpt>
      <trkpt lat="42.3676600" lon="-3.3511040">
        <ele>1111.0</ele>
        <time>2022-08-29T11:35:29Z</time>
      </trkpt>
      <trkpt lat="42.3676490" lon="-3.3511260">
        <ele>1111.2</ele>
        <time>2022-08-29T11:35:30Z</time>
      </trkpt>
      <trkpt lat="42.3676380" lon="-3.3511490">
        <ele>1111.6</ele>
        <time>2022-08-29T11:35:31Z</time>
      </trkpt>
      <trkpt lat="42.3676270" lon="-3.3511750">
        <ele>1111.8</ele>
        <time>2022-08-29T11:35:32Z</time>
      </trkpt>
      <trkpt lat="42.3676150" lon="-3.3512020">
        <ele>1112.0</ele>
        <time>2022-08-29T11:35:33Z</time>
      </trkpt>
      <trkpt lat="42.3676030" lon="-3.3512290">
        <ele>1112.2</ele>
        <time>2022-08-29T11:35:34Z</time>
      </trkpt>
      <trkpt lat="42.3675910" lon="-3.3512590">
        <ele>1112.6</ele>
        <time>2022-08-29T11:35:35Z</time>
      </trkpt>
      <trkpt lat="42.3675740" lon="-3.3512920">
        <ele>1112.8</ele>
        <time>2022-08-29T11:35:36Z</time>
      </trkpt>
      <trkpt lat="42.3675600" lon="-3.3513260">
        <ele>1112.8</ele>
        <time>2022-08-29T11:35:37Z</time>
      </trkpt>
      <trkpt lat="42.3675470" lon="-3.3513600">
        <ele>1113.0</ele>
        <time>2022-08-29T11:35:38Z</time>
      </trkpt>
      <trkpt lat="42.3675320" lon="-3.3513950">
        <ele>1113.2</ele>
        <time>2022-08-29T11:35:39Z</time>
      </trkpt>
      <trkpt lat="42.3675160" lon="-3.3514310">
        <ele>1113.2</ele>
        <time>2022-08-29T11:35:40Z</time>
      </trkpt>
      <trkpt lat="42.3675010" lon="-3.3514670">
        <ele>1113.4</ele>
        <time>2022-08-29T11:35:41Z</time>
      </trkpt>
      <trkpt lat="42.3674850" lon="-3.3515060">
        <ele>1113.6</ele>
        <time>2022-08-29T11:35:42Z</time>
      </trkpt>
      <trkpt lat="42.3674660" lon="-3.3515440">
        <ele>1113.6</ele>
        <time>2022-08-29T11:35:43Z</time>
      </trkpt>
      <trkpt lat="42.3674470" lon="-3.3515820">
        <ele>1113.6</ele>
        <time>2022-08-29T11:35:44Z</time>
      </trkpt>
      <trkpt lat="42.3674300" lon="-3.3516210">
        <ele>1113.6</ele>
        <time>2022-08-29T11:35:45Z</time>
      </trkpt>
      <trkpt lat="42.3674140" lon="-3.3516580">
        <ele>1113.6</ele>
        <time>2022-08-29T11:35:46Z</time>
      </trkpt>
      <trkpt lat="42.3673960" lon="-3.3516930">
        <ele>1113.6</ele>
        <time>2022-08-29T11:35:47Z</time>
      </trkpt>
      <trkpt lat="42.3673830" lon="-3.3517290">
        <ele>1113.6</ele>
        <time>2022-08-29T11:35:48Z</time>
      </trkpt>
      <trkpt lat="42.3673720" lon="-3.3517650">
        <ele>1113.8</ele>
        <time>2022-08-29T11:35:49Z</time>
      </trkpt>
      <trkpt lat="42.3673600" lon="-3.3518000">
        <ele>1113.6</ele>
        <time>2022-08-29T11:35:50Z</time>
      </trkpt>
      <trkpt lat="42.3673480" lon="-3.3518320">
        <ele>1113.6</ele>
        <time>2022-08-29T11:35:51Z</time>
      </trkpt>
      <trkpt lat="42.3673350" lon="-3.3518640">
        <ele>1113.6</ele>
        <time>2022-08-29T11:35:52Z</time>
      </trkpt>
      <trkpt lat="42.3673230" lon="-3.3518940">
        <ele>1113.8</ele>
        <time>2022-08-29T11:35:53Z</time>
      </trkpt>
      <trkpt lat="42.3673100" lon="-3.3519230">
        <ele>1113.8</ele>
        <time>2022-08-29T11:35:54Z</time>
      </trkpt>
      <trkpt lat="42.3672970" lon="-3.3519540">
        <ele>1113.6</ele>
        <time>2022-08-29T11:35:55Z</time>
      </trkpt>
      <trkpt lat="42.3672830" lon="-3.3519890">
        <ele>1113.8</ele>
        <time>2022-08-29T11:35:56Z</time>
      </trkpt>
      <trkpt lat="42.3672690" lon="-3.3520270">
        <ele>1113.6</ele>
        <time>2022-08-29T11:35:57Z</time>
      </trkpt>
      <trkpt lat="42.3672540" lon="-3.3520660">
        <ele>1113.6</ele>
        <time>2022-08-29T11:35:58Z</time>
      </trkpt>
      <trkpt lat="42.3672370" lon="-3.3521070">
        <ele>1113.6</ele>
        <time>2022-08-29T11:35:59Z</time>
      </trkpt>
      <trkpt lat="42.3672170" lon="-3.3521490">
        <ele>1113.6</ele>
        <time>2022-08-29T11:36:00Z</time>
      </trkpt>
      <trkpt lat="42.3672000" lon="-3.3521920">
        <ele>1113.4</ele>
        <time>2022-08-29T11:36:01Z</time>
      </trkpt>
      <trkpt lat="42.3671780" lon="-3.3522390">
        <ele>1113.4</ele>
        <time>2022-08-29T11:36:02Z</time>
      </trkpt>
      <trkpt lat="42.3671580" lon="-3.3522860">
        <ele>1113.4</ele>
        <time>2022-08-29T11:36:03Z</time>
      </trkpt>
      <trkpt lat="42.3671370" lon="-3.3523340">
        <ele>1113.6</ele>
        <time>2022-08-29T11:36:04Z</time>
      </trkpt>
      <trkpt lat="42.3671110" lon="-3.3523820">
        <ele>1113.4</ele>
        <time>2022-08-29T11:36:05Z</time>
      </trkpt>
      <trkpt lat="42.3670830" lon="-3.3524310">
        <ele>1113.4</ele>
        <time>2022-08-29T11:36:06Z</time>
      </trkpt>
      <trkpt lat="42.3670540" lon="-3.3524830">
        <ele>1113.4</ele>
        <time>2022-08-29T11:36:07Z</time>
      </trkpt>
      <trkpt lat="42.3670250" lon="-3.3525390">
        <ele>1113.4</ele>
        <time>2022-08-29T11:36:08Z</time>
      </trkpt>
      <trkpt lat="42.3669980" lon="-3.3525970">
        <ele>1113.4</ele>
        <time>2022-08-29T11:36:09Z</time>
      </trkpt>
      <trkpt lat="42.3669680" lon="-3.3526570">
        <ele>1113.2</ele>
        <time>2022-08-29T11:36:10Z</time>
      </trkpt>
      <trkpt lat="42.3669360" lon="-3.3527180">
        <ele>1113.2</ele>
        <time>2022-08-29T11:36:11Z</time>
      </trkpt>
      <trkpt lat="42.3669060" lon="-3.3527820">
        <ele>1113.2</ele>
        <time>2022-08-29T11:36:12Z</time>
      </trkpt>
      <trkpt lat="42.3668780" lon="-3.3528480">
        <ele>1113.0</ele>
        <time>2022-08-29T11:36:13Z</time>
      </trkpt>
      <trkpt lat="42.3668450" lon="-3.3529140">
        <ele>1113.0</ele>
        <time>2022-08-29T11:36:14Z</time>
      </trkpt>
      <trkpt lat="42.3668120" lon="-3.3529800">
        <ele>1112.4</ele>
        <time>2022-08-29T11:36:15Z</time>
      </trkpt>
      <trkpt lat="42.3667810" lon="-3.3530450">
        <ele>1112.0</ele>
        <time>2022-08-29T11:36:16Z</time>
      </trkpt>
      <trkpt lat="42.3667510" lon="-3.3531070">
        <ele>1111.8</ele>
        <time>2022-08-29T11:36:17Z</time>
      </trkpt>
      <trkpt lat="42.3667200" lon="-3.3531680">
        <ele>1111.6</ele>
        <time>2022-08-29T11:36:18Z</time>
      </trkpt>
      <trkpt lat="42.3666850" lon="-3.3532350">
        <ele>1111.4</ele>
        <time>2022-08-29T11:36:19Z</time>
      </trkpt>
      <trkpt lat="42.3666530" lon="-3.3532970">
        <ele>1111.2</ele>
        <time>2022-08-29T11:36:20Z</time>
      </trkpt>
      <trkpt lat="42.3666260" lon="-3.3533530">
        <ele>1110.8</ele>
        <time>2022-08-29T11:36:21Z</time>
      </trkpt>
      <trkpt lat="42.3666020" lon="-3.3534030">
        <ele>1110.8</ele>
        <time>2022-08-29T11:36:22Z</time>
      </trkpt>
      <trkpt lat="42.3665790" lon="-3.3534550">
        <ele>1110.4</ele>
        <time>2022-08-29T11:36:23Z</time>
      </trkpt>
      <trkpt lat="42.3665570" lon="-3.3535130">
        <ele>1110.2</ele>
        <time>2022-08-29T11:36:24Z</time>
      </trkpt>
      <trkpt lat="42.3665400" lon="-3.3535750">
        <ele>1110.0</ele>
        <time>2022-08-29T11:36:25Z</time>
      </trkpt>
      <trkpt lat="42.3665230" lon="-3.3536390">
        <ele>1110.0</ele>
        <time>2022-08-29T11:36:26Z</time>
      </trkpt>
      <trkpt lat="42.3665050" lon="-3.3536990">
        <ele>1110.0</ele>
        <time>2022-08-29T11:36:27Z</time>
      </trkpt>
      <trkpt lat="42.3664850" lon="-3.3537590">
        <ele>1109.8</ele>
        <time>2022-08-29T11:36:28Z</time>
      </trkpt>
      <trkpt lat="42.3664670" lon="-3.3538190">
        <ele>1109.6</ele>
        <time>2022-08-29T11:36:29Z</time>
      </trkpt>
      <trkpt lat="42.3664530" lon="-3.3538800">
        <ele>1109.4</ele>
        <time>2022-08-29T11:36:30Z</time>
      </trkpt>
      <trkpt lat="42.3664410" lon="-3.3539430">
        <ele>1109.4</ele>
        <time>2022-08-29T11:36:31Z</time>
      </trkpt>
      <trkpt lat="42.3664340" lon="-3.3540040">
        <ele>1109.4</ele>
        <time>2022-08-29T11:36:32Z</time>
      </trkpt>
      <trkpt lat="42.3664320" lon="-3.3540610">
        <ele>1109.4</ele>
        <time>2022-08-29T11:36:33Z</time>
      </trkpt>
      <trkpt lat="42.3664310" lon="-3.3541190">
        <ele>1109.4</ele>
        <time>2022-08-29T11:36:34Z</time>
      </trkpt>
      <trkpt lat="42.3664300" lon="-3.3541770">
        <ele>1109.4</ele>
        <time>2022-08-29T11:36:35Z</time>
      </trkpt>
      <trkpt lat="42.3664300" lon="-3.3542370">
        <ele>1109.4</ele>
        <time>2022-08-29T11:36:36Z</time>
      </trkpt>
      <trkpt lat="42.3664330" lon="-3.3542980">
        <ele>1109.4</ele>
        <time>2022-08-29T11:36:37Z</time>
      </trkpt>
      <trkpt lat="42.3664410" lon="-3.3543580">
        <ele>1109.2</ele>
        <time>2022-08-29T11:36:38Z</time>
      </trkpt>
      <trkpt lat="42.3664510" lon="-3.3544170">
        <ele>1109.2</ele>
        <time>2022-08-29T11:36:39Z</time>
      </trkpt>
      <trkpt lat="42.3664600" lon="-3.3544730">
        <ele>1109.2</ele>
        <time>2022-08-29T11:36:40Z</time>
      </trkpt>
      <trkpt lat="42.3664650" lon="-3.3545250">
        <ele>1109.0</ele>
        <time>2022-08-29T11:36:41Z</time>
      </trkpt>
      <trkpt lat="42.3664640" lon="-3.3545710">
        <ele>1109.2</ele>
        <time>2022-08-29T11:36:42Z</time>
      </trkpt>
      <trkpt lat="42.3664630" lon="-3.3546140">
        <ele>1109.2</ele>
        <time>2022-08-29T11:36:43Z</time>
      </trkpt>
      <trkpt lat="42.3664620" lon="-3.3546520">
        <ele>1109.2</ele>
        <time>2022-08-29T11:36:44Z</time>
      </trkpt>
      <trkpt lat="42.3664660" lon="-3.3546870">
        <ele>1109.2</ele>
        <time>2022-08-29T11:36:45Z</time>
      </trkpt>
      <trkpt lat="42.3664710" lon="-3.3547210">
        <ele>1109.4</ele>
        <time>2022-08-29T11:36:46Z</time>
      </trkpt>
      <trkpt lat="42.3664730" lon="-3.3547550">
        <ele>1109.2</ele>
        <time>2022-08-29T11:36:47Z</time>
      </trkpt>
      <trkpt lat="42.3664730" lon="-3.3547890">
        <ele>1109.2</ele>
        <time>2022-08-29T11:36:48Z</time>
      </trkpt>
      <trkpt lat="42.3664730" lon="-3.3548240">
        <ele>1109.4</ele>
        <time>2022-08-29T11:36:49Z</time>
      </trkpt>
      <trkpt lat="42.3664720" lon="-3.3548570">
        <ele>1109.4</ele>
        <time>2022-08-29T11:36:50Z</time>
      </trkpt>
      <trkpt lat="42.3664710" lon="-3.3548910">
        <ele>1109.8</ele>
        <time>2022-08-29T11:36:51Z</time>
      </trkpt>
      <trkpt lat="42.3664700" lon="-3.3549250">
        <ele>1110.0</ele>
        <time>2022-08-29T11:36:52Z</time>
      </trkpt>
      <trkpt lat="42.3664680" lon="-3.3549590">
        <ele>1110.0</ele>
        <time>2022-08-29T11:36:53Z</time>
      </trkpt>
      <trkpt lat="42.3664650" lon="-3.3549940">
        <ele>1110.4</ele>
        <time>2022-08-29T11:36:54Z</time>
      </trkpt>
      <trkpt lat="42.3664620" lon="-3.3550310">
        <ele>1110.4</ele>
        <time>2022-08-29T11:36:55Z</time>
      </trkpt>
      <trkpt lat="42.3664590" lon="-3.3550670">
        <ele>1110.8</ele>
        <time>2022-08-29T11:36:56Z</time>
      </trkpt>
      <trkpt lat="42.3664570" lon="-3.3551010">
        <ele>1111.2</ele>
        <time>2022-08-29T11:36:57Z</time>
      </trkpt>
      <trkpt lat="42.3664550" lon="-3.3551340">
        <ele>1111.6</ele>
        <time>2022-08-29T11:36:58Z</time>
      </trkpt>
      <trkpt lat="42.3664510" lon="-3.3551670">
        <ele>1112.0</ele>
        <time>2022-08-29T11:36:59Z</time>
      </trkpt>
      <trkpt lat="42.3664460" lon="-3.3552000">
        <ele>1112.0</ele>
        <time>2022-08-29T11:37:00Z</time>
      </trkpt>
      <trkpt lat="42.3664380" lon="-3.3552330">
        <ele>1112.2</ele>
        <time>2022-08-29T11:37:01Z</time>
      </trkpt>
      <trkpt lat="42.3664280" lon="-3.3552650">
        <ele>1112.6</ele>
        <time>2022-08-29T11:37:02Z</time>
      </trkpt>
      <trkpt lat="42.3664170" lon="-3.3552960">
        <ele>1112.8</ele>
        <time>2022-08-29T11:37:03Z</time>
      </trkpt>
      <trkpt lat="42.3664090" lon="-3.3553270">
        <ele>1113.0</ele>
        <time>2022-08-29T11:37:04Z</time>
      </trkpt>
      <trkpt lat="42.3664040" lon="-3.3553580">
        <ele>1113.0</ele>
        <time>2022-08-29T11:37:05Z</time>
      </trkpt>
      <trkpt lat="42.3664010" lon="-3.3553900">
        <ele>1113.2</ele>
        <time>2022-08-29T11:37:06Z</time>
      </trkpt>
      <trkpt lat="42.3663980" lon="-3.3554200">
        <ele>1113.2</ele>
        <time>2022-08-29T11:37:07Z</time>
      </trkpt>
      <trkpt lat="42.3663930" lon="-3.3554490">
        <ele>1113.4</ele>
        <time>2022-08-29T11:37:08Z</time>
      </trkpt>
      <trkpt lat="42.3663910" lon="-3.3554780">
        <ele>1113.4</ele>
        <time>2022-08-29T11:37:09Z</time>
      </trkpt>
      <trkpt lat="42.3663870" lon="-3.3555080">
        <ele>1113.6</ele>
        <time>2022-08-29T11:37:10Z</time>
      </trkpt>
      <trkpt lat="42.3663800" lon="-3.3555390">
        <ele>1113.8</ele>
        <time>2022-08-29T11:37:11Z</time>
      </trkpt>
      <trkpt lat="42.3663720" lon="-3.3555720">
        <ele>1114.0</ele>
        <time>2022-08-29T11:37:12Z</time>
      </trkpt>
      <trkpt lat="42.3663630" lon="-3.3556070">
        <ele>1114.2</ele>
        <time>2022-08-29T11:37:13Z</time>
      </trkpt>
      <trkpt lat="42.3663520" lon="-3.3556410">
        <ele>1114.2</ele>
        <time>2022-08-29T11:37:14Z</time>
      </trkpt>
      <trkpt lat="42.3663440" lon="-3.3556760">
        <ele>1114.4</ele>
        <time>2022-08-29T11:37:15Z</time>
      </trkpt>
      <trkpt lat="42.3663420" lon="-3.3557120">
        <ele>1114.6</ele>
        <time>2022-08-29T11:37:16Z</time>
      </trkpt>
      <trkpt lat="42.3663390" lon="-3.3557480">
        <ele>1115.2</ele>
        <time>2022-08-29T11:37:17Z</time>
      </trkpt>
      <trkpt lat="42.3663360" lon="-3.3557850">
        <ele>1115.6</ele>
        <time>2022-08-29T11:37:18Z</time>
      </trkpt>
      <trkpt lat="42.3663340" lon="-3.3558240">
        <ele>1115.8</ele>
        <time>2022-08-29T11:37:19Z</time>
      </trkpt>
      <trkpt lat="42.3663310" lon="-3.3558620">
        <ele>1115.8</ele>
        <time>2022-08-29T11:37:20Z</time>
      </trkpt>
      <trkpt lat="42.3663310" lon="-3.3559010">
        <ele>1116.0</ele>
        <time>2022-08-29T11:37:21Z</time>
      </trkpt>
      <trkpt lat="42.3663290" lon="-3.3559420">
        <ele>1116.0</ele>
        <time>2022-08-29T11:37:22Z</time>
      </trkpt>
      <trkpt lat="42.3663270" lon="-3.3559810">
        <ele>1116.0</ele>
        <time>2022-08-29T11:37:23Z</time>
      </trkpt>
      <trkpt lat="42.3663230" lon="-3.3560190">
        <ele>1116.2</ele>
        <time>2022-08-29T11:37:24Z</time>
      </trkpt>
      <trkpt lat="42.3663150" lon="-3.3560550">
        <ele>1116.4</ele>
        <time>2022-08-29T11:37:25Z</time>
      </trkpt>
      <trkpt lat="42.3663090" lon="-3.3560920">
        <ele>1116.4</ele>
        <time>2022-08-29T11:37:26Z</time>
      </trkpt>
      <trkpt lat="42.3663060" lon="-3.3561300">
        <ele>1116.4</ele>
        <time>2022-08-29T11:37:27Z</time>
      </trkpt>
      <trkpt lat="42.3663000" lon="-3.3561680">
        <ele>1116.6</ele>
        <time>2022-08-29T11:37:28Z</time>
      </trkpt>
      <trkpt lat="42.3662950" lon="-3.3562060">
        <ele>1116.6</ele>
        <time>2022-08-29T11:37:29Z</time>
      </trkpt>
      <trkpt lat="42.3662930" lon="-3.3562420">
        <ele>1116.6</ele>
        <time>2022-08-29T11:37:30Z</time>
      </trkpt>
      <trkpt lat="42.3662920" lon="-3.3562780">
        <ele>1116.6</ele>
        <time>2022-08-29T11:37:31Z</time>
      </trkpt>
      <trkpt lat="42.3662860" lon="-3.3563130">
        <ele>1116.6</ele>
        <time>2022-08-29T11:37:32Z</time>
      </trkpt>
      <trkpt lat="42.3662790" lon="-3.3563480">
        <ele>1116.8</ele>
        <time>2022-08-29T11:37:33Z</time>
      </trkpt>
      <trkpt lat="42.3662710" lon="-3.3563850">
        <ele>1116.8</ele>
        <time>2022-08-29T11:37:34Z</time>
      </trkpt>
      <trkpt lat="42.3662630" lon="-3.3564210">
        <ele>1117.0</ele>
        <time>2022-08-29T11:37:35Z</time>
      </trkpt>
      <trkpt lat="42.3662550" lon="-3.3564580">
        <ele>1117.0</ele>
        <time>2022-08-29T11:37:36Z</time>
      </trkpt>
      <trkpt lat="42.3662480" lon="-3.3564970">
        <ele>1117.2</ele>
        <time>2022-08-29T11:37:37Z</time>
      </trkpt>
      <trkpt lat="42.3662370" lon="-3.3565370">
        <ele>1117.4</ele>
        <time>2022-08-29T11:37:38Z</time>
      </trkpt>
      <trkpt lat="42.3662280" lon="-3.3565770">
        <ele>1117.4</ele>
        <time>2022-08-29T11:37:39Z</time>
      </trkpt>
      <trkpt lat="42.3662180" lon="-3.3566180">
        <ele>1117.6</ele>
        <time>2022-08-29T11:37:40Z</time>
      </trkpt>
      <trkpt lat="42.3662070" lon="-3.3566600">
        <ele>1117.4</ele>
        <time>2022-08-29T11:37:41Z</time>
      </trkpt>
      <trkpt lat="42.3661950" lon="-3.3567030">
        <ele>1117.6</ele>
        <time>2022-08-29T11:37:42Z</time>
      </trkpt>
      <trkpt lat="42.3661820" lon="-3.3567480">
        <ele>1117.6</ele>
        <time>2022-08-29T11:37:43Z</time>
      </trkpt>
      <trkpt lat="42.3661720" lon="-3.3567930">
        <ele>1117.8</ele>
        <time>2022-08-29T11:37:44Z</time>
      </trkpt>
      <trkpt lat="42.3661630" lon="-3.3568390">
        <ele>1118.0</ele>
        <time>2022-08-29T11:37:45Z</time>
      </trkpt>
      <trkpt lat="42.3661520" lon="-3.3568850">
        <ele>1118.0</ele>
        <time>2022-08-29T11:37:46Z</time>
      </trkpt>
      <trkpt lat="42.3661380" lon="-3.3569310">
        <ele>1118.0</ele>
        <time>2022-08-29T11:37:47Z</time>
      </trkpt>
      <trkpt lat="42.3661260" lon="-3.3569760">
        <ele>1118.2</ele>
        <time>2022-08-29T11:37:48Z</time>
      </trkpt>
      <trkpt lat="42.3661160" lon="-3.3570230">
        <ele>1118.0</ele>
        <time>2022-08-29T11:37:49Z</time>
      </trkpt>
      <trkpt lat="42.3661050" lon="-3.3570720">
        <ele>1118.2</ele>
        <time>2022-08-29T11:37:50Z</time>
      </trkpt>
      <trkpt lat="42.3660910" lon="-3.3571210">
        <ele>1118.0</ele>
        <time>2022-08-29T11:37:51Z</time>
      </trkpt>
      <trkpt lat="42.3660740" lon="-3.3571700">
        <ele>1118.0</ele>
        <time>2022-08-29T11:37:52Z</time>
      </trkpt>
      <trkpt lat="42.3660600" lon="-3.3572190">
        <ele>1118.0</ele>
        <time>2022-08-29T11:37:53Z</time>
      </trkpt>
      <trkpt lat="42.3660500" lon="-3.3572710">
        <ele>1118.0</ele>
        <time>2022-08-29T11:37:54Z</time>
      </trkpt>
      <trkpt lat="42.3660410" lon="-3.3573240">
        <ele>1118.0</ele>
        <time>2022-08-29T11:37:55Z</time>
      </trkpt>
      <trkpt lat="42.3660350" lon="-3.3573780">
        <ele>1118.0</ele>
        <time>2022-08-29T11:37:56Z</time>
      </trkpt>
      <trkpt lat="42.3660330" lon="-3.3574300">
        <ele>1118.2</ele>
        <time>2022-08-29T11:37:57Z</time>
      </trkpt>
      <trkpt lat="42.3660310" lon="-3.3574830">
        <ele>1118.2</ele>
        <time>2022-08-29T11:37:58Z</time>
      </trkpt>
      <trkpt lat="42.3660280" lon="-3.3575370">
        <ele>1118.2</ele>
        <time>2022-08-29T11:37:59Z</time>
      </trkpt>
      <trkpt lat="42.3660300" lon="-3.3575910">
        <ele>1118.2</ele>
        <time>2022-08-29T11:38:00Z</time>
      </trkpt>
      <trkpt lat="42.3660350" lon="-3.3576460">
        <ele>1118.2</ele>
        <time>2022-08-29T11:38:01Z</time>
      </trkpt>
      <trkpt lat="42.3660380" lon="-3.3577040">
        <ele>1118.2</ele>
        <time>2022-08-29T11:38:02Z</time>
      </trkpt>
      <trkpt lat="42.3660410" lon="-3.3577640">
        <ele>1118.2</ele>
        <time>2022-08-29T11:38:03Z</time>
      </trkpt>
      <trkpt lat="42.3660360" lon="-3.3578250">
        <ele>1118.2</ele>
        <time>2022-08-29T11:38:04Z</time>
      </trkpt>
      <trkpt lat="42.3660280" lon="-3.3578870">
        <ele>1118.4</ele>
        <time>2022-08-29T11:38:05Z</time>
      </trkpt>
      <trkpt lat="42.3660230" lon="-3.3579510">
        <ele>1118.4</ele>
        <time>2022-08-29T11:38:06Z</time>
      </trkpt>
      <trkpt lat="42.3660210" lon="-3.3580180">
        <ele>1118.4</ele>
        <time>2022-08-29T11:38:07Z</time>
      </trkpt>
      <trkpt lat="42.3660240" lon="-3.3580890">
        <ele>1118.2</ele>
        <time>2022-08-29T11:38:08Z</time>
      </trkpt>
      <trkpt lat="42.3660280" lon="-3.3581610">
        <ele>1118.4</ele>
        <time>2022-08-29T11:38:09Z</time>
      </trkpt>
      <trkpt lat="42.3660310" lon="-3.3582360">
        <ele>1118.2</ele>
        <time>2022-08-29T11:38:10Z</time>
      </trkpt>
      <trkpt lat="42.3660340" lon="-3.3583130">
        <ele>1118.4</ele>
        <time>2022-08-29T11:38:11Z</time>
      </trkpt>
      <trkpt lat="42.3660390" lon="-3.3583910">
        <ele>1118.2</ele>
        <time>2022-08-29T11:38:12Z</time>
      </trkpt>
      <trkpt lat="42.3660450" lon="-3.3584720">
        <ele>1118.2</ele>
        <time>2022-08-29T11:38:13Z</time>
      </trkpt>
      <trkpt lat="42.3660500" lon="-3.3585590">
        <ele>1118.0</ele>
        <time>2022-08-29T11:38:14Z</time>
      </trkpt>
      <trkpt lat="42.3660500" lon="-3.3586500">
        <ele>1117.6</ele>
        <time>2022-08-29T11:38:15Z</time>
      </trkpt>
      <trkpt lat="42.3660500" lon="-3.3587380">
        <ele>1116.8</ele>
        <time>2022-08-29T11:38:16Z</time>
      </trkpt>
      <trkpt lat="42.3660530" lon="-3.3588290">
        <ele>1116.2</ele>
        <time>2022-08-29T11:38:17Z</time>
      </trkpt>
      <trkpt lat="42.3660620" lon="-3.3589180">
        <ele>1115.8</ele>
        <time>2022-08-29T11:38:18Z</time>
      </trkpt>
      <trkpt lat="42.3660690" lon="-3.3590080">
        <ele>1115.4</ele>
        <time>2022-08-29T11:38:19Z</time>
      </trkpt>
      <trkpt lat="42.3660770" lon="-3.3590970">
        <ele>1114.8</ele>
        <time>2022-08-29T11:38:20Z</time>
      </trkpt>
      <trkpt lat="42.3660860" lon="-3.3591860">
        <ele>1114.6</ele>
        <time>2022-08-29T11:38:21Z</time>
      </trkpt>
      <trkpt lat="42.3660940" lon="-3.3592740">
        <ele>1114.2</ele>
        <time>2022-08-29T11:38:22Z</time>
      </trkpt>
      <trkpt lat="42.3661030" lon="-3.3593600">
        <ele>1113.6</ele>
        <time>2022-08-29T11:38:23Z</time>
      </trkpt>
      <trkpt lat="42.3661110" lon="-3.3594470">
        <ele>1113.2</ele>
        <time>2022-08-29T11:38:24Z</time>
      </trkpt>
      <trkpt lat="42.3661200" lon="-3.3595330">
        <ele>1112.8</ele>
        <time>2022-08-29T11:38:25Z</time>
      </trkpt>
      <trkpt lat="42.3661290" lon="-3.3596180">
        <ele>1112.4</ele>
        <time>2022-08-29T11:38:26Z</time>
      </trkpt>
      <trkpt lat="42.3661370" lon="-3.3597020">
        <ele>1112.0</ele>
        <time>2022-08-29T11:38:27Z</time>
      </trkpt>
      <trkpt lat="42.3661450" lon="-3.3597840">
        <ele>1111.6</ele>
        <time>2022-08-29T11:38:28Z</time>
      </trkpt>
      <trkpt lat="42.3661500" lon="-3.3598660">
        <ele>1111.6</ele>
        <time>2022-08-29T11:38:29Z</time>
      </trkpt>
      <trkpt lat="42.3661520" lon="-3.3599490">
        <ele>1111.6</ele>
        <time>2022-08-29T11:38:30Z</time>
      </trkpt>
      <trkpt lat="42.3661540" lon="-3.3600290">
        <ele>1111.2</ele>
        <time>2022-08-29T11:38:31Z</time>
      </trkpt>
      <trkpt lat="42.3661580" lon="-3.3601100">
        <ele>1111.0</ele>
        <time>2022-08-29T11:38:32Z</time>
      </trkpt>
      <trkpt lat="42.3661620" lon="-3.3601900">
        <ele>1111.0</ele>
        <time>2022-08-29T11:38:33Z</time>
      </trkpt>
      <trkpt lat="42.3661650" lon="-3.3602720">
        <ele>1111.2</ele>
        <time>2022-08-29T11:38:34Z</time>
      </trkpt>
      <trkpt lat="42.3661650" lon="-3.3603530">
        <ele>1111.0</ele>
        <time>2022-08-29T11:38:35Z</time>
      </trkpt>
      <trkpt lat="42.3661670" lon="-3.3604330">
        <ele>1111.0</ele>
        <time>2022-08-29T11:38:36Z</time>
      </trkpt>
      <trkpt lat="42.3661690" lon="-3.3605110">
        <ele>1111.0</ele>
        <time>2022-08-29T11:38:37Z</time>
      </trkpt>
      <trkpt lat="42.3661670" lon="-3.3605900">
        <ele>1111.0</ele>
        <time>2022-08-29T11:38:38Z</time>
      </trkpt>
      <trkpt lat="42.3661640" lon="-3.3606670">
        <ele>1111.0</ele>
        <time>2022-08-29T11:38:39Z</time>
      </trkpt>
      <trkpt lat="42.3661580" lon="-3.3607430">
        <ele>1111.0</ele>
        <time>2022-08-29T11:38:40Z</time>
      </trkpt>
      <trkpt lat="42.3661520" lon="-3.3608170">
        <ele>1110.8</ele>
        <time>2022-08-29T11:38:41Z</time>
      </trkpt>
      <trkpt lat="42.3661460" lon="-3.3608920">
        <ele>1110.8</ele>
        <time>2022-08-29T11:38:42Z</time>
      </trkpt>
      <trkpt lat="42.3661410" lon="-3.3609650">
        <ele>1110.6</ele>
        <time>2022-08-29T11:38:43Z</time>
      </trkpt>
      <trkpt lat="42.3661380" lon="-3.3610360">
        <ele>1110.8</ele>
        <time>2022-08-29T11:38:44Z</time>
      </trkpt>
      <trkpt lat="42.3661350" lon="-3.3611060">
        <ele>1110.6</ele>
        <time>2022-08-29T11:38:45Z</time>
      </trkpt>
      <trkpt lat="42.3661330" lon="-3.3611750">
        <ele>1110.6</ele>
        <time>2022-08-29T11:38:46Z</time>
      </trkpt>
      <trkpt lat="42.3661350" lon="-3.3612440">
        <ele>1110.6</ele>
        <time>2022-08-29T11:38:47Z</time>
      </trkpt>
      <trkpt lat="42.3661350" lon="-3.3613130">
        <ele>1110.4</ele>
        <time>2022-08-29T11:38:48Z</time>
      </trkpt>
      <trkpt lat="42.3661370" lon="-3.3613800">
        <ele>1110.2</ele>
        <time>2022-08-29T11:38:49Z</time>
      </trkpt>
      <trkpt lat="42.3661380" lon="-3.3614460">
        <ele>1110.4</ele>
        <time>2022-08-29T11:38:50Z</time>
      </trkpt>
      <trkpt lat="42.3661390" lon="-3.3615110">
        <ele>1110.4</ele>
        <time>2022-08-29T11:38:51Z</time>
      </trkpt>
      <trkpt lat="42.3661410" lon="-3.3615770">
        <ele>1110.2</ele>
        <time>2022-08-29T11:38:52Z</time>
      </trkpt>
      <trkpt lat="42.3661400" lon="-3.3616440">
        <ele>1110.2</ele>
        <time>2022-08-29T11:38:53Z</time>
      </trkpt>
      <trkpt lat="42.3661360" lon="-3.3617110">
        <ele>1110.2</ele>
        <time>2022-08-29T11:38:54Z</time>
      </trkpt>
      <trkpt lat="42.3661330" lon="-3.3617780">
        <ele>1110.2</ele>
        <time>2022-08-29T11:38:55Z</time>
      </trkpt>
      <trkpt lat="42.3661310" lon="-3.3618450">
        <ele>1110.2</ele>
        <time>2022-08-29T11:38:56Z</time>
      </trkpt>
      <trkpt lat="42.3661300" lon="-3.3619110">
        <ele>1110.2</ele>
        <time>2022-08-29T11:38:57Z</time>
      </trkpt>
      <trkpt lat="42.3661270" lon="-3.3619770">
        <ele>1110.0</ele>
        <time>2022-08-29T11:38:58Z</time>
      </trkpt>
      <trkpt lat="42.3661240" lon="-3.3620430">
        <ele>1110.0</ele>
        <time>2022-08-29T11:38:59Z</time>
      </trkpt>
      <trkpt lat="42.3661190" lon="-3.3621090">
        <ele>1110.0</ele>
        <time>2022-08-29T11:39:00Z</time>
      </trkpt>
      <trkpt lat="42.3661120" lon="-3.3621750">
        <ele>1110.0</ele>
        <time>2022-08-29T11:39:01Z</time>
      </trkpt>
      <trkpt lat="42.3661070" lon="-3.3622400">
        <ele>1109.8</ele>
        <time>2022-08-29T11:39:02Z</time>
      </trkpt>
      <trkpt lat="42.3661020" lon="-3.3623060">
        <ele>1110.0</ele>
        <time>2022-08-29T11:39:03Z</time>
      </trkpt>
      <trkpt lat="42.3661020" lon="-3.3623720">
        <ele>1110.0</ele>
        <time>2022-08-29T11:39:04Z</time>
      </trkpt>
      <trkpt lat="42.3661030" lon="-3.3624380">
        <ele>1109.8</ele>
        <time>2022-08-29T11:39:05Z</time>
      </trkpt>
      <trkpt lat="42.3661050" lon="-3.3625040">
        <ele>1109.8</ele>
        <time>2022-08-29T11:39:06Z</time>
      </trkpt>
      <trkpt lat="42.3661080" lon="-3.3625690">
        <ele>1109.8</ele>
        <time>2022-08-29T11:39:07Z</time>
      </trkpt>
      <trkpt lat="42.3661100" lon="-3.3626350">
        <ele>1109.8</ele>
        <time>2022-08-29T11:39:08Z</time>
      </trkpt>
      <trkpt lat="42.3661100" lon="-3.3627020">
        <ele>1109.8</ele>
        <time>2022-08-29T11:39:09Z</time>
      </trkpt>
      <trkpt lat="42.3661090" lon="-3.3627700">
        <ele>1109.8</ele>
        <time>2022-08-29T11:39:10Z</time>
      </trkpt>
      <trkpt lat="42.3661090" lon="-3.3628390">
        <ele>1109.8</ele>
        <time>2022-08-29T11:39:11Z</time>
      </trkpt>
      <trkpt lat="42.3661100" lon="-3.3629100">
        <ele>1109.8</ele>
        <time>2022-08-29T11:39:12Z</time>
      </trkpt>
      <trkpt lat="42.3661130" lon="-3.3629800">
        <ele>1109.6</ele>
        <time>2022-08-29T11:39:13Z</time>
      </trkpt>
      <trkpt lat="42.3661150" lon="-3.3630500">
        <ele>1109.6</ele>
        <time>2022-08-29T11:39:14Z</time>
      </trkpt>
      <trkpt lat="42.3661170" lon="-3.3631190">
        <ele>1109.6</ele>
        <time>2022-08-29T11:39:15Z</time>
      </trkpt>
      <trkpt lat="42.3661200" lon="-3.3631880">
        <ele>1109.6</ele>
        <time>2022-08-29T11:39:16Z</time>
      </trkpt>
      <trkpt lat="42.3661250" lon="-3.3632540">
        <ele>1109.6</ele>
        <time>2022-08-29T11:39:17Z</time>
      </trkpt>
      <trkpt lat="42.3661300" lon="-3.3633200">
        <ele>1109.6</ele>
        <time>2022-08-29T11:39:18Z</time>
      </trkpt>
      <trkpt lat="42.3661380" lon="-3.3633860">
        <ele>1109.4</ele>
        <time>2022-08-29T11:39:19Z</time>
      </trkpt>
      <trkpt lat="42.3661440" lon="-3.3634550">
        <ele>1109.4</ele>
        <time>2022-08-29T11:39:20Z</time>
      </trkpt>
      <trkpt lat="42.3661480" lon="-3.3635270">
        <ele>1109.2</ele>
        <time>2022-08-29T11:39:21Z</time>
      </trkpt>
      <trkpt lat="42.3661520" lon="-3.3635990">
        <ele>1109.2</ele>
        <time>2022-08-29T11:39:22Z</time>
      </trkpt>
      <trkpt lat="42.3661580" lon="-3.3636720">
        <ele>1109.0</ele>
        <time>2022-08-29T11:39:23Z</time>
      </trkpt>
      <trkpt lat="42.3661650" lon="-3.3637470">
        <ele>1109.0</ele>
        <time>2022-08-29T11:39:24Z</time>
      </trkpt>
      <trkpt lat="42.3661710" lon="-3.3638230">
        <ele>1108.8</ele>
        <time>2022-08-29T11:39:25Z</time>
      </trkpt>
      <trkpt lat="42.3661770" lon="-3.3639010">
        <ele>1108.8</ele>
        <time>2022-08-29T11:39:26Z</time>
      </trkpt>
      <trkpt lat="42.3661850" lon="-3.3639780">
        <ele>1108.8</ele>
        <time>2022-08-29T11:39:27Z</time>
      </trkpt>
      <trkpt lat="42.3661920" lon="-3.3640550">
        <ele>1108.6</ele>
        <time>2022-08-29T11:39:28Z</time>
      </trkpt>
      <trkpt lat="42.3661990" lon="-3.3641320">
        <ele>1108.6</ele>
        <time>2022-08-29T11:39:29Z</time>
      </trkpt>
      <trkpt lat="42.3662050" lon="-3.3642080">
        <ele>1108.4</ele>
        <time>2022-08-29T11:39:30Z</time>
      </trkpt>
      <trkpt lat="42.3662110" lon="-3.3642840">
        <ele>1108.2</ele>
        <time>2022-08-29T11:39:31Z</time>
      </trkpt>
      <trkpt lat="42.3662210" lon="-3.3643590">
        <ele>1108.2</ele>
        <time>2022-08-29T11:39:32Z</time>
      </trkpt>
      <trkpt lat="42.3662310" lon="-3.3644350">
        <ele>1107.8</ele>
        <time>2022-08-29T11:39:33Z</time>
      </trkpt>
      <trkpt lat="42.3662390" lon="-3.3645130">
        <ele>1107.8</ele>
        <time>2022-08-29T11:39:34Z</time>
      </trkpt>
      <trkpt lat="42.3662490" lon="-3.3645890">
        <ele>1107.4</ele>
        <time>2022-08-29T11:39:35Z</time>
      </trkpt>
      <trkpt lat="42.3662580" lon="-3.3646650">
        <ele>1107.4</ele>
        <time>2022-08-29T11:39:36Z</time>
      </trkpt>
      <trkpt lat="42.3662670" lon="-3.3647400">
        <ele>1106.8</ele>
        <time>2022-08-29T11:39:37Z</time>
      </trkpt>
      <trkpt lat="42.3662770" lon="-3.3648160">
        <ele>1106.4</ele>
        <time>2022-08-29T11:39:38Z</time>
      </trkpt>
      <trkpt lat="42.3662890" lon="-3.3648900">
        <ele>1106.0</ele>
        <time>2022-08-29T11:39:39Z</time>
      </trkpt>
      <trkpt lat="42.3663010" lon="-3.3649650">
        <ele>1106.0</ele>
        <time>2022-08-29T11:39:40Z</time>
      </trkpt>
      <trkpt lat="42.3663120" lon="-3.3650380">
        <ele>1106.0</ele>
        <time>2022-08-29T11:39:41Z</time>
      </trkpt>
      <trkpt lat="42.3663250" lon="-3.3651100">
        <ele>1106.0</ele>
        <time>2022-08-29T11:39:42Z</time>
      </trkpt>
      <trkpt lat="42.3663380" lon="-3.3651790">
        <ele>1105.8</ele>
        <time>2022-08-29T11:39:43Z</time>
      </trkpt>
      <trkpt lat="42.3663510" lon="-3.3652470">
        <ele>1105.8</ele>
        <time>2022-08-29T11:39:44Z</time>
      </trkpt>
      <trkpt lat="42.3663640" lon="-3.3653140">
        <ele>1105.8</ele>
        <time>2022-08-29T11:39:45Z</time>
      </trkpt>
      <trkpt lat="42.3663760" lon="-3.3653800">
        <ele>1105.6</ele>
        <time>2022-08-29T11:39:46Z</time>
      </trkpt>
      <trkpt lat="42.3663880" lon="-3.3654440">
        <ele>1105.4</ele>
        <time>2022-08-29T11:39:47Z</time>
      </trkpt>
      <trkpt lat="42.3664000" lon="-3.3655070">
        <ele>1105.4</ele>
        <time>2022-08-29T11:39:48Z</time>
      </trkpt>
      <trkpt lat="42.3664140" lon="-3.3655690">
        <ele>1105.4</ele>
        <time>2022-08-29T11:39:49Z</time>
      </trkpt>
      <trkpt lat="42.3664290" lon="-3.3656290">
        <ele>1105.6</ele>
        <time>2022-08-29T11:39:50Z</time>
      </trkpt>
      <trkpt lat="42.3664460" lon="-3.3656890">
        <ele>1105.8</ele>
        <time>2022-08-29T11:39:51Z</time>
      </trkpt>
      <trkpt lat="42.3664640" lon="-3.3657490">
        <ele>1105.8</ele>
        <time>2022-08-29T11:39:52Z</time>
      </trkpt>
      <trkpt lat="42.3664820" lon="-3.3658090">
        <ele>1106.0</ele>
        <time>2022-08-29T11:39:53Z</time>
      </trkpt>
      <trkpt lat="42.3665000" lon="-3.3658690">
        <ele>1105.8</ele>
        <time>2022-08-29T11:39:54Z</time>
      </trkpt>
      <trkpt lat="42.3665210" lon="-3.3659280">
        <ele>1105.8</ele>
        <time>2022-08-29T11:39:55Z</time>
      </trkpt>
      <trkpt lat="42.3665460" lon="-3.3659860">
        <ele>1105.8</ele>
        <time>2022-08-29T11:39:56Z</time>
      </trkpt>
      <trkpt lat="42.3665690" lon="-3.3660490">
        <ele>1105.8</ele>
        <time>2022-08-29T11:39:57Z</time>
      </trkpt>
      <trkpt lat="42.3665880" lon="-3.3661200">
        <ele>1105.8</ele>
        <time>2022-08-29T11:39:58Z</time>
      </trkpt>
      <trkpt lat="42.3666020" lon="-3.3661980">
        <ele>1106.0</ele>
        <time>2022-08-29T11:39:59Z</time>
      </trkpt>
      <trkpt lat="42.3666160" lon="-3.3662800">
        <ele>1105.8</ele>
        <time>2022-08-29T11:40:00Z</time>
      </trkpt>
      <trkpt lat="42.3666300" lon="-3.3663650">
        <ele>1105.8</ele>
        <time>2022-08-29T11:40:01Z</time>
      </trkpt>
      <trkpt lat="42.3666440" lon="-3.3664510">
        <ele>1105.8</ele>
        <time>2022-08-29T11:40:02Z</time>
      </trkpt>
      <trkpt lat="42.3666590" lon="-3.3665340">
        <ele>1105.8</ele>
        <time>2022-08-29T11:40:03Z</time>
      </trkpt>
      <trkpt lat="42.3666740" lon="-3.3666170">
        <ele>1105.8</ele>
        <time>2022-08-29T11:40:04Z</time>
      </trkpt>
      <trkpt lat="42.3666910" lon="-3.3666990">
        <ele>1105.8</ele>
        <time>2022-08-29T11:40:05Z</time>
      </trkpt>
      <trkpt lat="42.3667100" lon="-3.3667800">
        <ele>1105.8</ele>
        <time>2022-08-29T11:40:06Z</time>
      </trkpt>
      <trkpt lat="42.3667300" lon="-3.3668590">
        <ele>1105.6</ele>
        <time>2022-08-29T11:40:07Z</time>
      </trkpt>
      <trkpt lat="42.3667540" lon="-3.3669340">
        <ele>1104.8</ele>
        <time>2022-08-29T11:40:08Z</time>
      </trkpt>
      <trkpt lat="42.3667800" lon="-3.3670060">
        <ele>1104.4</ele>
        <time>2022-08-29T11:40:09Z</time>
      </trkpt>
      <trkpt lat="42.3668070" lon="-3.3670760">
        <ele>1104.0</ele>
        <time>2022-08-29T11:40:10Z</time>
      </trkpt>
      <trkpt lat="42.3668330" lon="-3.3671450">
        <ele>1103.6</ele>
        <time>2022-08-29T11:40:11Z</time>
      </trkpt>
      <trkpt lat="42.3668540" lon="-3.3672150">
        <ele>1103.0</ele>
        <time>2022-08-29T11:40:12Z</time>
      </trkpt>
      <trkpt lat="42.3668680" lon="-3.3672840">
        <ele>1103.0</ele>
        <time>2022-08-29T11:40:13Z</time>
      </trkpt>
      <trkpt lat="42.3668810" lon="-3.3673510">
        <ele>1102.6</ele>
        <time>2022-08-29T11:40:14Z</time>
      </trkpt>
      <trkpt lat="42.3668900" lon="-3.3674160">
        <ele>1102.4</ele>
        <time>2022-08-29T11:40:15Z</time>
      </trkpt>
      <trkpt lat="42.3668970" lon="-3.3674780">
        <ele>1102.2</ele>
        <time>2022-08-29T11:40:16Z</time>
      </trkpt>
      <trkpt lat="42.3669040" lon="-3.3675330">
        <ele>1102.4</ele>
        <time>2022-08-29T11:40:17Z</time>
      </trkpt>
      <trkpt lat="42.3669120" lon="-3.3675850">
        <ele>1102.2</ele>
        <time>2022-08-29T11:40:18Z</time>
      </trkpt>
      <trkpt lat="42.3669240" lon="-3.3676360">
        <ele>1102.2</ele>
        <time>2022-08-29T11:40:19Z</time>
      </trkpt>
      <trkpt lat="42.3669380" lon="-3.3676840">
        <ele>1102.4</ele>
        <time>2022-08-29T11:40:20Z</time>
      </trkpt>
      <trkpt lat="42.3669560" lon="-3.3677330">
        <ele>1102.2</ele>
        <time>2022-08-29T11:40:21Z</time>
      </trkpt>
      <trkpt lat="42.3669760" lon="-3.3677840">
        <ele>1102.2</ele>
        <time>2022-08-29T11:40:22Z</time>
      </trkpt>
      <trkpt lat="42.3669980" lon="-3.3678370">
        <ele>1102.2</ele>
        <time>2022-08-29T11:40:23Z</time>
      </trkpt>
      <trkpt lat="42.3670230" lon="-3.3678880">
        <ele>1102.4</ele>
        <time>2022-08-29T11:40:24Z</time>
      </trkpt>
      <trkpt lat="42.3670470" lon="-3.3679430">
        <ele>1102.4</ele>
        <time>2022-08-29T11:40:25Z</time>
      </trkpt>
      <trkpt lat="42.3670700" lon="-3.3680010">
        <ele>1102.4</ele>
        <time>2022-08-29T11:40:26Z</time>
      </trkpt>
      <trkpt lat="42.3670960" lon="-3.3680580">
        <ele>1102.4</ele>
        <time>2022-08-29T11:40:27Z</time>
      </trkpt>
      <trkpt lat="42.3671220" lon="-3.3681140">
        <ele>1102.4</ele>
        <time>2022-08-29T11:40:28Z</time>
      </trkpt>
      <trkpt lat="42.3671470" lon="-3.3681720">
        <ele>1102.4</ele>
        <time>2022-08-29T11:40:29Z</time>
      </trkpt>
      <trkpt lat="42.3671710" lon="-3.3682290">
        <ele>1102.4</ele>
        <time>2022-08-29T11:40:30Z</time>
      </trkpt>
      <trkpt lat="42.3671960" lon="-3.3682840">
        <ele>1102.4</ele>
        <time>2022-08-29T11:40:31Z</time>
      </trkpt>
      <trkpt lat="42.3672220" lon="-3.3683360">
        <ele>1102.4</ele>
        <time>2022-08-29T11:40:32Z</time>
      </trkpt>
      <trkpt lat="42.3672490" lon="-3.3683880">
        <ele>1102.4</ele>
        <time>2022-08-29T11:40:33Z</time>
      </trkpt>
      <trkpt lat="42.3672790" lon="-3.3684400">
        <ele>1102.4</ele>
        <time>2022-08-29T11:40:34Z</time>
      </trkpt>
      <trkpt lat="42.3673100" lon="-3.3684900">
        <ele>1102.4</ele>
        <time>2022-08-29T11:40:35Z</time>
      </trkpt>
      <trkpt lat="42.3673430" lon="-3.3685370">
        <ele>1102.4</ele>
        <time>2022-08-29T11:40:36Z</time>
      </trkpt>
      <trkpt lat="42.3673780" lon="-3.3685800">
        <ele>1102.2</ele>
        <time>2022-08-29T11:40:37Z</time>
      </trkpt>
      <trkpt lat="42.3674130" lon="-3.3686220">
        <ele>1102.4</ele>
        <time>2022-08-29T11:40:38Z</time>
      </trkpt>
      <trkpt lat="42.3674500" lon="-3.3686610">
        <ele>1102.2</ele>
        <time>2022-08-29T11:40:39Z</time>
      </trkpt>
      <trkpt lat="42.3674860" lon="-3.3687010">
        <ele>1102.0</ele>
        <time>2022-08-29T11:40:40Z</time>
      </trkpt>
      <trkpt lat="42.3675220" lon="-3.3687390">
        <ele>1102.0</ele>
        <time>2022-08-29T11:40:41Z</time>
      </trkpt>
      <trkpt lat="42.3675590" lon="-3.3687770">
        <ele>1102.2</ele>
        <time>2022-08-29T11:40:42Z</time>
      </trkpt>
      <trkpt lat="42.3675940" lon="-3.3688160">
        <ele>1102.0</ele>
        <time>2022-08-29T11:40:43Z</time>
      </trkpt>
      <trkpt lat="42.3676320" lon="-3.3688550">
        <ele>1102.0</ele>
        <time>2022-08-29T11:40:44Z</time>
      </trkpt>
      <trkpt lat="42.3676700" lon="-3.3688940">
        <ele>1102.0</ele>
        <time>2022-08-29T11:40:45Z</time>
      </trkpt>
      <trkpt lat="42.3677100" lon="-3.3689350">
        <ele>1101.8</ele>
        <time>2022-08-29T11:40:46Z</time>
      </trkpt>
      <trkpt lat="42.3677520" lon="-3.3689770">
        <ele>1101.8</ele>
        <time>2022-08-29T11:40:47Z</time>
      </trkpt>
      <trkpt lat="42.3677930" lon="-3.3690240">
        <ele>1101.6</ele>
        <time>2022-08-29T11:40:48Z</time>
      </trkpt>
      <trkpt lat="42.3678320" lon="-3.3690760">
        <ele>1101.4</ele>
        <time>2022-08-29T11:40:49Z</time>
      </trkpt>
      <trkpt lat="42.3678690" lon="-3.3691340">
        <ele>1101.4</ele>
        <time>2022-08-29T11:40:50Z</time>
      </trkpt>
      <trkpt lat="42.3679040" lon="-3.3691970">
        <ele>1101.4</ele>
        <time>2022-08-29T11:40:51Z</time>
      </trkpt>
      <trkpt lat="42.3679390" lon="-3.3692640">
        <ele>1101.4</ele>
        <time>2022-08-29T11:40:52Z</time>
      </trkpt>
      <trkpt lat="42.3679760" lon="-3.3693320">
        <ele>1101.0</ele>
        <time>2022-08-29T11:40:53Z</time>
      </trkpt>
      <trkpt lat="42.3680140" lon="-3.3694010">
        <ele>1101.0</ele>
        <time>2022-08-29T11:40:54Z</time>
      </trkpt>
      <trkpt lat="42.3680530" lon="-3.3694700">
        <ele>1100.8</ele>
        <time>2022-08-29T11:40:55Z</time>
      </trkpt>
      <trkpt lat="42.3680910" lon="-3.3695400">
        <ele>1100.8</ele>
        <time>2022-08-29T11:40:56Z</time>
      </trkpt>
      <trkpt lat="42.3681270" lon="-3.3696120">
        <ele>1100.4</ele>
        <time>2022-08-29T11:40:57Z</time>
      </trkpt>
      <trkpt lat="42.3681630" lon="-3.3696860">
        <ele>1100.0</ele>
        <time>2022-08-29T11:40:58Z</time>
      </trkpt>
      <trkpt lat="42.3681990" lon="-3.3697610">
        <ele>1099.6</ele>
        <time>2022-08-29T11:40:59Z</time>
      </trkpt>
      <trkpt lat="42.3682330" lon="-3.3698370">
        <ele>1099.4</ele>
        <time>2022-08-29T11:41:00Z</time>
      </trkpt>
      <trkpt lat="42.3682680" lon="-3.3699150">
        <ele>1099.2</ele>
        <time>2022-08-29T11:41:01Z</time>
      </trkpt>
      <trkpt lat="42.3683050" lon="-3.3699910">
        <ele>1099.0</ele>
        <time>2022-08-29T11:41:02Z</time>
      </trkpt>
      <trkpt lat="42.3683440" lon="-3.3700650">
        <ele>1098.8</ele>
        <time>2022-08-29T11:41:03Z</time>
      </trkpt>
      <trkpt lat="42.3683800" lon="-3.3701400">
        <ele>1098.6</ele>
        <time>2022-08-29T11:41:04Z</time>
      </trkpt>
      <trkpt lat="42.3684150" lon="-3.3702170">
        <ele>1098.4</ele>
        <time>2022-08-29T11:41:05Z</time>
      </trkpt>
      <trkpt lat="42.3684510" lon="-3.3702940">
        <ele>1097.8</ele>
        <time>2022-08-29T11:41:06Z</time>
      </trkpt>
      <trkpt lat="42.3684900" lon="-3.3703680">
        <ele>1097.0</ele>
        <time>2022-08-29T11:41:07Z</time>
      </trkpt>
      <trkpt lat="42.3685280" lon="-3.3704430">
        <ele>1096.8</ele>
        <time>2022-08-29T11:41:08Z</time>
      </trkpt>
      <trkpt lat="42.3685630" lon="-3.3705210">
        <ele>1096.6</ele>
        <time>2022-08-29T11:41:09Z</time>
      </trkpt>
      <trkpt lat="42.3685990" lon="-3.3705980">
        <ele>1096.4</ele>
        <time>2022-08-29T11:41:10Z</time>
      </trkpt>
      <trkpt lat="42.3686300" lon="-3.3706750">
        <ele>1096.2</ele>
        <time>2022-08-29T11:41:11Z</time>
      </trkpt>
      <trkpt lat="42.3686630" lon="-3.3707510">
        <ele>1096.2</ele>
        <time>2022-08-29T11:41:12Z</time>
      </trkpt>
      <trkpt lat="42.3686970" lon="-3.3708250">
        <ele>1096.2</ele>
        <time>2022-08-29T11:41:13Z</time>
      </trkpt>
      <trkpt lat="42.3687310" lon="-3.3708990">
        <ele>1096.0</ele>
        <time>2022-08-29T11:41:14Z</time>
      </trkpt>
      <trkpt lat="42.3687630" lon="-3.3709770">
        <ele>1096.0</ele>
        <time>2022-08-29T11:41:15Z</time>
      </trkpt>
      <trkpt lat="42.3687900" lon="-3.3710580">
        <ele>1096.2</ele>
        <time>2022-08-29T11:41:16Z</time>
      </trkpt>
      <trkpt lat="42.3688130" lon="-3.3711450">
        <ele>1095.8</ele>
        <time>2022-08-29T11:41:17Z</time>
      </trkpt>
      <trkpt lat="42.3688350" lon="-3.3712330">
        <ele>1095.6</ele>
        <time>2022-08-29T11:41:18Z</time>
      </trkpt>
      <trkpt lat="42.3688490" lon="-3.3713230">
        <ele>1095.6</ele>
        <time>2022-08-29T11:41:19Z</time>
      </trkpt>
      <trkpt lat="42.3688600" lon="-3.3714130">
        <ele>1095.4</ele>
        <time>2022-08-29T11:41:20Z</time>
      </trkpt>
      <trkpt lat="42.3688740" lon="-3.3715050">
        <ele>1095.2</ele>
        <time>2022-08-29T11:41:21Z</time>
      </trkpt>
      <trkpt lat="42.3688890" lon="-3.3715960">
        <ele>1094.8</ele>
        <time>2022-08-29T11:41:22Z</time>
      </trkpt>
      <trkpt lat="42.3689030" lon="-3.3716870">
        <ele>1094.4</ele>
        <time>2022-08-29T11:41:23Z</time>
      </trkpt>
      <trkpt lat="42.3689170" lon="-3.3717780">
        <ele>1094.4</ele>
        <time>2022-08-29T11:41:24Z</time>
      </trkpt>
      <trkpt lat="42.3689260" lon="-3.3718690">
        <ele>1093.8</ele>
        <time>2022-08-29T11:41:25Z</time>
      </trkpt>
      <trkpt lat="42.3689380" lon="-3.3719590">
        <ele>1093.6</ele>
        <time>2022-08-29T11:41:26Z</time>
      </trkpt>
      <trkpt lat="42.3689500" lon="-3.3720480">
        <ele>1093.4</ele>
        <time>2022-08-29T11:41:27Z</time>
      </trkpt>
      <trkpt lat="42.3689590" lon="-3.3721380">
        <ele>1093.2</ele>
        <time>2022-08-29T11:41:28Z</time>
      </trkpt>
      <trkpt lat="42.3689690" lon="-3.3722250">
        <ele>1093.2</ele>
        <time>2022-08-29T11:41:29Z</time>
      </trkpt>
      <trkpt lat="42.3689820" lon="-3.3723110">
        <ele>1092.8</ele>
        <time>2022-08-29T11:41:30Z</time>
      </trkpt>
      <trkpt lat="42.3689920" lon="-3.3723950">
        <ele>1092.6</ele>
        <time>2022-08-29T11:41:31Z</time>
      </trkpt>
      <trkpt lat="42.3689990" lon="-3.3724770">
        <ele>1092.4</ele>
        <time>2022-08-29T11:41:32Z</time>
      </trkpt>
      <trkpt lat="42.3689990" lon="-3.3725580">
        <ele>1092.2</ele>
        <time>2022-08-29T11:41:33Z</time>
      </trkpt>
      <trkpt lat="42.3690040" lon="-3.3726370">
        <ele>1092.2</ele>
        <time>2022-08-29T11:41:34Z</time>
      </trkpt>
      <trkpt lat="42.3690130" lon="-3.3727150">
        <ele>1092.2</ele>
        <time>2022-08-29T11:41:35Z</time>
      </trkpt>
      <trkpt lat="42.3690280" lon="-3.3727910">
        <ele>1092.2</ele>
        <time>2022-08-29T11:41:36Z</time>
      </trkpt>
      <trkpt lat="42.3690410" lon="-3.3728700">
        <ele>1092.2</ele>
        <time>2022-08-29T11:41:37Z</time>
      </trkpt>
      <trkpt lat="42.3690590" lon="-3.3729470">
        <ele>1092.2</ele>
        <time>2022-08-29T11:41:38Z</time>
      </trkpt>
      <trkpt lat="42.3690770" lon="-3.3730260">
        <ele>1092.0</ele>
        <time>2022-08-29T11:41:39Z</time>
      </trkpt>
      <trkpt lat="42.3690950" lon="-3.3731070">
        <ele>1092.0</ele>
        <time>2022-08-29T11:41:40Z</time>
      </trkpt>
      <trkpt lat="42.3691080" lon="-3.3731890">
        <ele>1092.0</ele>
        <time>2022-08-29T11:41:41Z</time>
      </trkpt>
      <trkpt lat="42.3691180" lon="-3.3732700">
        <ele>1091.8</ele>
        <time>2022-08-29T11:41:42Z</time>
      </trkpt>
      <trkpt lat="42.3691260" lon="-3.3733510">
        <ele>1091.8</ele>
        <time>2022-08-29T11:41:43Z</time>
      </trkpt>
      <trkpt lat="42.3691390" lon="-3.3734290">
        <ele>1091.8</ele>
        <time>2022-08-29T11:41:44Z</time>
      </trkpt>
      <trkpt lat="42.3691570" lon="-3.3735050">
        <ele>1091.8</ele>
        <time>2022-08-29T11:41:45Z</time>
      </trkpt>
      <trkpt lat="42.3691790" lon="-3.3735800">
        <ele>1091.8</ele>
        <time>2022-08-29T11:41:46Z</time>
      </trkpt>
      <trkpt lat="42.3692030" lon="-3.3736550">
        <ele>1091.8</ele>
        <time>2022-08-29T11:41:47Z</time>
      </trkpt>
      <trkpt lat="42.3692290" lon="-3.3737300">
        <ele>1091.8</ele>
        <time>2022-08-29T11:41:48Z</time>
      </trkpt>
      <trkpt lat="42.3692590" lon="-3.3738010">
        <ele>1091.8</ele>
        <time>2022-08-29T11:41:49Z</time>
      </trkpt>
      <trkpt lat="42.3692880" lon="-3.3738680">
        <ele>1091.8</ele>
        <time>2022-08-29T11:41:50Z</time>
      </trkpt>
      <trkpt lat="42.3693170" lon="-3.3739340">
        <ele>1091.8</ele>
        <time>2022-08-29T11:41:51Z</time>
      </trkpt>
      <trkpt lat="42.3693460" lon="-3.3740000">
        <ele>1091.8</ele>
        <time>2022-08-29T11:41:52Z</time>
      </trkpt>
      <trkpt lat="42.3693750" lon="-3.3740640">
        <ele>1091.8</ele>
        <time>2022-08-29T11:41:53Z</time>
      </trkpt>
      <trkpt lat="42.3694040" lon="-3.3741280">
        <ele>1091.8</ele>
        <time>2022-08-29T11:41:54Z</time>
      </trkpt>
      <trkpt lat="42.3694300" lon="-3.3741950">
        <ele>1091.6</ele>
        <time>2022-08-29T11:41:55Z</time>
      </trkpt>
      <trkpt lat="42.3694560" lon="-3.3742630">
        <ele>1091.6</ele>
        <time>2022-08-29T11:41:56Z</time>
      </trkpt>
      <trkpt lat="42.3694830" lon="-3.3743320">
        <ele>1091.6</ele>
        <time>2022-08-29T11:41:57Z</time>
      </trkpt>
      <trkpt lat="42.3695080" lon="-3.3744030">
        <ele>1091.4</ele>
        <time>2022-08-29T11:41:58Z</time>
      </trkpt>
      <trkpt lat="42.3695280" lon="-3.3744770">
        <ele>1091.2</ele>
        <time>2022-08-29T11:41:59Z</time>
      </trkpt>
      <trkpt lat="42.3695460" lon="-3.3745510">
        <ele>1091.2</ele>
        <time>2022-08-29T11:42:00Z</time>
      </trkpt>
      <trkpt lat="42.3695630" lon="-3.3746290">
        <ele>1091.0</ele>
        <time>2022-08-29T11:42:01Z</time>
      </trkpt>
      <trkpt lat="42.3695780" lon="-3.3747040">
        <ele>1091.0</ele>
        <time>2022-08-29T11:42:02Z</time>
      </trkpt>
      <trkpt lat="42.3695900" lon="-3.3747790">
        <ele>1091.0</ele>
        <time>2022-08-29T11:42:03Z</time>
      </trkpt>
      <trkpt lat="42.3696010" lon="-3.3748530">
        <ele>1091.0</ele>
        <time>2022-08-29T11:42:04Z</time>
      </trkpt>
      <trkpt lat="42.3696110" lon="-3.3749290">
        <ele>1090.8</ele>
        <time>2022-08-29T11:42:05Z</time>
      </trkpt>
      <trkpt lat="42.3696230" lon="-3.3750030">
        <ele>1090.8</ele>
        <time>2022-08-29T11:42:06Z</time>
      </trkpt>
      <trkpt lat="42.3696300" lon="-3.3750750">
        <ele>1091.0</ele>
        <time>2022-08-29T11:42:07Z</time>
      </trkpt>
      <trkpt lat="42.3696350" lon="-3.3751460">
        <ele>1090.8</ele>
        <time>2022-08-29T11:42:08Z</time>
      </trkpt>
      <trkpt lat="42.3696380" lon="-3.3752170">
        <ele>1090.4</ele>
        <time>2022-08-29T11:42:09Z</time>
      </trkpt>
      <trkpt lat="42.3696460" lon="-3.3752880">
        <ele>1090.2</ele>
        <time>2022-08-29T11:42:10Z</time>
      </trkpt>
      <trkpt lat="42.3696540" lon="-3.3753600">
        <ele>1090.0</ele>
        <time>2022-08-29T11:42:11Z</time>
      </trkpt>
      <trkpt lat="42.3696570" lon="-3.3754310">
        <ele>1089.8</ele>
        <time>2022-08-29T11:42:12Z</time>
      </trkpt>
      <trkpt lat="42.3696630" lon="-3.3754990">
        <ele>1089.6</ele>
        <time>2022-08-29T11:42:13Z</time>
      </trkpt>
      <trkpt lat="42.3696710" lon="-3.3755680">
        <ele>1089.2</ele>
        <time>2022-08-29T11:42:14Z</time>
      </trkpt>
      <trkpt lat="42.3696830" lon="-3.3756360">
        <ele>1089.0</ele>
        <time>2022-08-29T11:42:15Z</time>
      </trkpt>
      <trkpt lat="42.3696940" lon="-3.3757070">
        <ele>1089.0</ele>
        <time>2022-08-29T11:42:16Z</time>
      </trkpt>
      <trkpt lat="42.3697050" lon="-3.3757770">
        <ele>1089.0</ele>
        <time>2022-08-29T11:42:17Z</time>
      </trkpt>
      <trkpt lat="42.3697210" lon="-3.3758490">
        <ele>1088.8</ele>
        <time>2022-08-29T11:42:18Z</time>
      </trkpt>
      <trkpt lat="42.3697380" lon="-3.3759230">
        <ele>1088.8</ele>
        <time>2022-08-29T11:42:19Z</time>
      </trkpt>
      <trkpt lat="42.3697520" lon="-3.3759970">
        <ele>1088.6</ele>
        <time>2022-08-29T11:42:20Z</time>
      </trkpt>
      <trkpt lat="42.3697660" lon="-3.3760760">
        <ele>1088.6</ele>
        <time>2022-08-29T11:42:21Z</time>
      </trkpt>
      <trkpt lat="42.3697760" lon="-3.3761590">
        <ele>1088.6</ele>
        <time>2022-08-29T11:42:22Z</time>
      </trkpt>
      <trkpt lat="42.3697870" lon="-3.3762410">
        <ele>1088.4</ele>
        <time>2022-08-29T11:42:23Z</time>
      </trkpt>
      <trkpt lat="42.3697990" lon="-3.3763240">
        <ele>1088.2</ele>
        <time>2022-08-29T11:42:24Z</time>
      </trkpt>
      <trkpt lat="42.3698080" lon="-3.3764070">
        <ele>1088.0</ele>
        <time>2022-08-29T11:42:25Z</time>
      </trkpt>
      <trkpt lat="42.3698130" lon="-3.3764900">
        <ele>1088.0</ele>
        <time>2022-08-29T11:42:26Z</time>
      </trkpt>
      <trkpt lat="42.3698160" lon="-3.3765720">
        <ele>1088.0</ele>
        <time>2022-08-29T11:42:27Z</time>
      </trkpt>
      <trkpt lat="42.3698200" lon="-3.3766530">
        <ele>1087.8</ele>
        <time>2022-08-29T11:42:28Z</time>
      </trkpt>
      <trkpt lat="42.3698220" lon="-3.3767330">
        <ele>1087.8</ele>
        <time>2022-08-29T11:42:29Z</time>
      </trkpt>
      <trkpt lat="42.3698270" lon="-3.3768110">
        <ele>1087.8</ele>
        <time>2022-08-29T11:42:30Z</time>
      </trkpt>
      <trkpt lat="42.3698310" lon="-3.3768890">
        <ele>1087.4</ele>
        <time>2022-08-29T11:42:31Z</time>
      </trkpt>
      <trkpt lat="42.3698370" lon="-3.3769650">
        <ele>1087.2</ele>
        <time>2022-08-29T11:42:32Z</time>
      </trkpt>
      <trkpt lat="42.3698420" lon="-3.3770410">
        <ele>1087.2</ele>
        <time>2022-08-29T11:42:33Z</time>
      </trkpt>
      <trkpt lat="42.3698470" lon="-3.3771180">
        <ele>1087.0</ele>
        <time>2022-08-29T11:42:34Z</time>
      </trkpt>
      <trkpt lat="42.3698510" lon="-3.3771930">
        <ele>1087.0</ele>
        <time>2022-08-29T11:42:35Z</time>
      </trkpt>
      <trkpt lat="42.3698570" lon="-3.3772680">
        <ele>1087.0</ele>
        <time>2022-08-29T11:42:36Z</time>
      </trkpt>
      <trkpt lat="42.3698620" lon="-3.3773440">
        <ele>1086.8</ele>
        <time>2022-08-29T11:42:37Z</time>
      </trkpt>
      <trkpt lat="42.3698690" lon="-3.3774180">
        <ele>1086.8</ele>
        <time>2022-08-29T11:42:38Z</time>
      </trkpt>
      <trkpt lat="42.3698770" lon="-3.3774930">
        <ele>1086.8</ele>
        <time>2022-08-29T11:42:39Z</time>
      </trkpt>
      <trkpt lat="42.3698840" lon="-3.3775690">
        <ele>1086.8</ele>
        <time>2022-08-29T11:42:40Z</time>
      </trkpt>
      <trkpt lat="42.3698900" lon="-3.3776450">
        <ele>1087.0</ele>
        <time>2022-08-29T11:42:41Z</time>
      </trkpt>
      <trkpt lat="42.3698970" lon="-3.3777220">
        <ele>1087.0</ele>
        <time>2022-08-29T11:42:42Z</time>
      </trkpt>
      <trkpt lat="42.3699060" lon="-3.3777970">
        <ele>1086.8</ele>
        <time>2022-08-29T11:42:43Z</time>
      </trkpt>
      <trkpt lat="42.3699150" lon="-3.3778710">
        <ele>1086.8</ele>
        <time>2022-08-29T11:42:44Z</time>
      </trkpt>
      <trkpt lat="42.3699220" lon="-3.3779420">
        <ele>1087.0</ele>
        <time>2022-08-29T11:42:45Z</time>
      </trkpt>
      <trkpt lat="42.3699270" lon="-3.3780170">
        <ele>1087.0</ele>
        <time>2022-08-29T11:42:46Z</time>
      </trkpt>
      <trkpt lat="42.3699280" lon="-3.3780930">
        <ele>1087.2</ele>
        <time>2022-08-29T11:42:47Z</time>
      </trkpt>
      <trkpt lat="42.3699270" lon="-3.3781640">
        <ele>1087.2</ele>
        <time>2022-08-29T11:42:48Z</time>
      </trkpt>
      <trkpt lat="42.3699270" lon="-3.3782330">
        <ele>1087.4</ele>
        <time>2022-08-29T11:42:49Z</time>
      </trkpt>
      <trkpt lat="42.3699280" lon="-3.3783010">
        <ele>1087.4</ele>
        <time>2022-08-29T11:42:50Z</time>
      </trkpt>
      <trkpt lat="42.3699310" lon="-3.3783660">
        <ele>1087.4</ele>
        <time>2022-08-29T11:42:51Z</time>
      </trkpt>
      <trkpt lat="42.3699310" lon="-3.3784300">
        <ele>1087.4</ele>
        <time>2022-08-29T11:42:52Z</time>
      </trkpt>
      <trkpt lat="42.3699340" lon="-3.3784940">
        <ele>1087.4</ele>
        <time>2022-08-29T11:42:53Z</time>
      </trkpt>
      <trkpt lat="42.3699410" lon="-3.3785570">
        <ele>1087.4</ele>
        <time>2022-08-29T11:42:54Z</time>
      </trkpt>
      <trkpt lat="42.3699440" lon="-3.3786230">
        <ele>1087.4</ele>
        <time>2022-08-29T11:42:55Z</time>
      </trkpt>
      <trkpt lat="42.3699520" lon="-3.3786910">
        <ele>1087.4</ele>
        <time>2022-08-29T11:42:56Z</time>
      </trkpt>
      <trkpt lat="42.3699600" lon="-3.3787630">
        <ele>1087.2</ele>
        <time>2022-08-29T11:42:57Z</time>
      </trkpt>
      <trkpt lat="42.3699660" lon="-3.3788370">
        <ele>1087.0</ele>
        <time>2022-08-29T11:42:58Z</time>
      </trkpt>
      <trkpt lat="42.3699750" lon="-3.3789150">
        <ele>1087.2</ele>
        <time>2022-08-29T11:42:59Z</time>
      </trkpt>
      <trkpt lat="42.3699840" lon="-3.3789980">
        <ele>1087.0</ele>
        <time>2022-08-29T11:43:00Z</time>
      </trkpt>
      <trkpt lat="42.3699920" lon="-3.3790840">
        <ele>1086.8</ele>
        <time>2022-08-29T11:43:01Z</time>
      </trkpt>
      <trkpt lat="42.3700040" lon="-3.3791720">
        <ele>1086.8</ele>
        <time>2022-08-29T11:43:02Z</time>
      </trkpt>
      <trkpt lat="42.3700180" lon="-3.3792610">
        <ele>1086.8</ele>
        <time>2022-08-29T11:43:03Z</time>
      </trkpt>
      <trkpt lat="42.3700380" lon="-3.3793500">
        <ele>1086.4</ele>
        <time>2022-08-29T11:43:04Z</time>
      </trkpt>
      <trkpt lat="42.3700640" lon="-3.3794370">
        <ele>1085.8</ele>
        <time>2022-08-29T11:43:05Z</time>
      </trkpt>
      <trkpt lat="42.3700900" lon="-3.3795230">
        <ele>1085.4</ele>
        <time>2022-08-29T11:43:06Z</time>
      </trkpt>
      <trkpt lat="42.3701160" lon="-3.3796050">
        <ele>1085.0</ele>
        <time>2022-08-29T11:43:07Z</time>
      </trkpt>
      <trkpt lat="42.3701440" lon="-3.3796880">
        <ele>1084.8</ele>
        <time>2022-08-29T11:43:08Z</time>
      </trkpt>
      <trkpt lat="42.3701700" lon="-3.3797690">
        <ele>1084.6</ele>
        <time>2022-08-29T11:43:09Z</time>
      </trkpt>
      <trkpt lat="42.3701970" lon="-3.3798480">
        <ele>1084.4</ele>
        <time>2022-08-29T11:43:10Z</time>
      </trkpt>
      <trkpt lat="42.3702230" lon="-3.3799270">
        <ele>1084.0</ele>
        <time>2022-08-29T11:43:11Z</time>
      </trkpt>
      <trkpt lat="42.3702460" lon="-3.3800080">
        <ele>1083.4</ele>
        <time>2022-08-29T11:43:12Z</time>
      </trkpt>
      <trkpt lat="42.3702740" lon="-3.3800890">
        <ele>1083.2</ele>
        <time>2022-08-29T11:43:13Z</time>
      </trkpt>
      <trkpt lat="42.3702980" lon="-3.3801730">
        <ele>1083.2</ele>
        <time>2022-08-29T11:43:14Z</time>
      </trkpt>
      <trkpt lat="42.3703210" lon="-3.3802580">
        <ele>1082.6</ele>
        <time>2022-08-29T11:43:15Z</time>
      </trkpt>
      <trkpt lat="42.3703450" lon="-3.3803450">
        <ele>1082.4</ele>
        <time>2022-08-29T11:43:16Z</time>
      </trkpt>
      <trkpt lat="42.3703680" lon="-3.3804320">
        <ele>1081.6</ele>
        <time>2022-08-29T11:43:17Z</time>
      </trkpt>
      <trkpt lat="42.3703910" lon="-3.3805210">
        <ele>1081.2</ele>
        <time>2022-08-29T11:43:18Z</time>
      </trkpt>
      <trkpt lat="42.3704130" lon="-3.3806130">
        <ele>1080.8</ele>
        <time>2022-08-29T11:43:19Z</time>
      </trkpt>
      <trkpt lat="42.3704340" lon="-3.3807050">
        <ele>1080.6</ele>
        <time>2022-08-29T11:43:20Z</time>
      </trkpt>
      <trkpt lat="42.3704560" lon="-3.3807960">
        <ele>1080.4</ele>
        <time>2022-08-29T11:43:21Z</time>
      </trkpt>
      <trkpt lat="42.3704790" lon="-3.3808870">
        <ele>1080.2</ele>
        <time>2022-08-29T11:43:22Z</time>
      </trkpt>
      <trkpt lat="42.3705010" lon="-3.3809810">
        <ele>1080.0</ele>
        <time>2022-08-29T11:43:23Z</time>
      </trkpt>
      <trkpt lat="42.3705250" lon="-3.3810750">
        <ele>1080.0</ele>
        <time>2022-08-29T11:43:24Z</time>
      </trkpt>
      <trkpt lat="42.3705510" lon="-3.3811670">
        <ele>1079.8</ele>
        <time>2022-08-29T11:43:25Z</time>
      </trkpt>
      <trkpt lat="42.3705780" lon="-3.3812590">
        <ele>1079.8</ele>
        <time>2022-08-29T11:43:26Z</time>
      </trkpt>
      <trkpt lat="42.3706070" lon="-3.3813540">
        <ele>1079.6</ele>
        <time>2022-08-29T11:43:27Z</time>
      </trkpt>
      <trkpt lat="42.3706370" lon="-3.3814460">
        <ele>1079.2</ele>
        <time>2022-08-29T11:43:28Z</time>
      </trkpt>
      <trkpt lat="42.3706690" lon="-3.3815380">
        <ele>1078.8</ele>
        <time>2022-08-29T11:43:29Z</time>
      </trkpt>
      <trkpt lat="42.3707030" lon="-3.3816300">
        <ele>1078.4</ele>
        <time>2022-08-29T11:43:30Z</time>
      </trkpt>
      <trkpt lat="42.3707370" lon="-3.3817240">
        <ele>1078.4</ele>
        <time>2022-08-29T11:43:31Z</time>
      </trkpt>
      <trkpt lat="42.3707730" lon="-3.3818160">
        <ele>1077.8</ele>
        <time>2022-08-29T11:43:32Z</time>
      </trkpt>
      <trkpt lat="42.3708070" lon="-3.3819080">
        <ele>1077.4</ele>
        <time>2022-08-29T11:43:33Z</time>
      </trkpt>
      <trkpt lat="42.3708410" lon="-3.3820010">
        <ele>1077.2</ele>
        <time>2022-08-29T11:43:34Z</time>
      </trkpt>
      <trkpt lat="42.3708740" lon="-3.3820940">
        <ele>1077.0</ele>
        <time>2022-08-29T11:43:35Z</time>
      </trkpt>
      <trkpt lat="42.3709120" lon="-3.3821810">
        <ele>1076.8</ele>
        <time>2022-08-29T11:43:36Z</time>
      </trkpt>
      <trkpt lat="42.3709480" lon="-3.3822680">
        <ele>1076.8</ele>
        <time>2022-08-29T11:43:37Z</time>
      </trkpt>
      <trkpt lat="42.3709830" lon="-3.3823560">
        <ele>1076.8</ele>
        <time>2022-08-29T11:43:38Z</time>
      </trkpt>
      <trkpt lat="42.3710200" lon="-3.3824440">
        <ele>1076.0</ele>
        <time>2022-08-29T11:43:39Z</time>
      </trkpt>
      <trkpt lat="42.3710550" lon="-3.3825310">
        <ele>1075.8</ele>
        <time>2022-08-29T11:43:40Z</time>
      </trkpt>
      <trkpt lat="42.3710870" lon="-3.3826190">
        <ele>1075.4</ele>
        <time>2022-08-29T11:43:41Z</time>
      </trkpt>
      <trkpt lat="42.3711180" lon="-3.3827090">
        <ele>1075.4</ele>
        <time>2022-08-29T11:43:42Z</time>
      </trkpt>
      <trkpt lat="42.3711460" lon="-3.3828020">
        <ele>1075.0</ele>
        <time>2022-08-29T11:43:43Z</time>
      </trkpt>
      <trkpt lat="42.3711730" lon="-3.3828940">
        <ele>1074.8</ele>
        <time>2022-08-29T11:43:44Z</time>
      </trkpt>
      <trkpt lat="42.3712020" lon="-3.3829860">
        <ele>1074.6</ele>
        <time>2022-08-29T11:43:45Z</time>
      </trkpt>
      <trkpt lat="42.3712310" lon="-3.3830790">
        <ele>1074.2</ele>
        <time>2022-08-29T11:43:46Z</time>
      </trkpt>
      <trkpt lat="42.3712610" lon="-3.3831700">
        <ele>1074.0</ele>
        <time>2022-08-29T11:43:47Z</time>
      </trkpt>
      <trkpt lat="42.3712900" lon="-3.3832620">
        <ele>1073.8</ele>
        <time>2022-08-29T11:43:48Z</time>
      </trkpt>
      <trkpt lat="42.3713190" lon="-3.3833510">
        <ele>1073.6</ele>
        <time>2022-08-29T11:43:49Z</time>
      </trkpt>
      <trkpt lat="42.3713470" lon="-3.3834410">
        <ele>1073.4</ele>
        <time>2022-08-29T11:43:50Z</time>
      </trkpt>
      <trkpt lat="42.3713760" lon="-3.3835280">
        <ele>1073.4</ele>
        <time>2022-08-29T11:43:51Z</time>
      </trkpt>
      <trkpt lat="42.3714080" lon="-3.3836150">
        <ele>1073.2</ele>
        <time>2022-08-29T11:43:52Z</time>
      </trkpt>
      <trkpt lat="42.3714380" lon="-3.3837040">
        <ele>1073.2</ele>
        <time>2022-08-29T11:43:53Z</time>
      </trkpt>
      <trkpt lat="42.3714720" lon="-3.3837900">
        <ele>1073.0</ele>
        <time>2022-08-29T11:43:54Z</time>
      </trkpt>
      <trkpt lat="42.3715070" lon="-3.3838750">
        <ele>1073.0</ele>
        <time>2022-08-29T11:43:55Z</time>
      </trkpt>
      <trkpt lat="42.3715390" lon="-3.3839610">
        <ele>1073.0</ele>
        <time>2022-08-29T11:43:56Z</time>
      </trkpt>
      <trkpt lat="42.3715660" lon="-3.3840490">
        <ele>1073.0</ele>
        <time>2022-08-29T11:43:57Z</time>
      </trkpt>
      <trkpt lat="42.3715930" lon="-3.3841340">
        <ele>1072.8</ele>
        <time>2022-08-29T11:43:58Z</time>
      </trkpt>
      <trkpt lat="42.3716230" lon="-3.3842160">
        <ele>1072.8</ele>
        <time>2022-08-29T11:43:59Z</time>
      </trkpt>
      <trkpt lat="42.3716550" lon="-3.3842950">
        <ele>1072.8</ele>
        <time>2022-08-29T11:44:00Z</time>
      </trkpt>
      <trkpt lat="42.3716830" lon="-3.3843760">
        <ele>1072.8</ele>
        <time>2022-08-29T11:44:01Z</time>
      </trkpt>
      <trkpt lat="42.3717060" lon="-3.3844560">
        <ele>1072.8</ele>
        <time>2022-08-29T11:44:02Z</time>
      </trkpt>
      <trkpt lat="42.3717280" lon="-3.3845360">
        <ele>1072.6</ele>
        <time>2022-08-29T11:44:03Z</time>
      </trkpt>
      <trkpt lat="42.3717550" lon="-3.3846160">
        <ele>1072.8</ele>
        <time>2022-08-29T11:44:04Z</time>
      </trkpt>
      <trkpt lat="42.3717800" lon="-3.3846960">
        <ele>1072.6</ele>
        <time>2022-08-29T11:44:05Z</time>
      </trkpt>
      <trkpt lat="42.3718040" lon="-3.3847770">
        <ele>1072.8</ele>
        <time>2022-08-29T11:44:06Z</time>
      </trkpt>
      <trkpt lat="42.3718250" lon="-3.3848590">
        <ele>1072.8</ele>
        <time>2022-08-29T11:44:07Z</time>
      </trkpt>
      <trkpt lat="42.3718480" lon="-3.3849410">
        <ele>1072.6</ele>
        <time>2022-08-29T11:44:08Z</time>
      </trkpt>
      <trkpt lat="42.3718740" lon="-3.3850230">
        <ele>1072.6</ele>
        <time>2022-08-29T11:44:09Z</time>
      </trkpt>
      <trkpt lat="42.3719050" lon="-3.3851030">
        <ele>1072.6</ele>
        <time>2022-08-29T11:44:10Z</time>
      </trkpt>
      <trkpt lat="42.3719310" lon="-3.3851840">
        <ele>1072.4</ele>
        <time>2022-08-29T11:44:11Z</time>
      </trkpt>
      <trkpt lat="42.3719670" lon="-3.3852600">
        <ele>1072.4</ele>
        <time>2022-08-29T11:44:12Z</time>
      </trkpt>
      <trkpt lat="42.3719970" lon="-3.3853360">
        <ele>1072.4</ele>
        <time>2022-08-29T11:44:13Z</time>
      </trkpt>
      <trkpt lat="42.3720210" lon="-3.3854160">
        <ele>1072.2</ele>
        <time>2022-08-29T11:44:14Z</time>
      </trkpt>
      <trkpt lat="42.3720440" lon="-3.3854970">
        <ele>1072.2</ele>
        <time>2022-08-29T11:44:15Z</time>
      </trkpt>
      <trkpt lat="42.3720680" lon="-3.3855780">
        <ele>1072.2</ele>
        <time>2022-08-29T11:44:16Z</time>
      </trkpt>
      <trkpt lat="42.3720930" lon="-3.3856580">
        <ele>1072.0</ele>
        <time>2022-08-29T11:44:17Z</time>
      </trkpt>
      <trkpt lat="42.3721190" lon="-3.3857390">
        <ele>1072.0</ele>
        <time>2022-08-29T11:44:18Z</time>
      </trkpt>
      <trkpt lat="42.3721440" lon="-3.3858240">
        <ele>1072.0</ele>
        <time>2022-08-29T11:44:19Z</time>
      </trkpt>
      <trkpt lat="42.3721720" lon="-3.3859070">
        <ele>1071.8</ele>
        <time>2022-08-29T11:44:20Z</time>
      </trkpt>
      <trkpt lat="42.3722000" lon="-3.3859890">
        <ele>1071.8</ele>
        <time>2022-08-29T11:44:21Z</time>
      </trkpt>
      <trkpt lat="42.3722300" lon="-3.3860700">
        <ele>1071.4</ele>
        <time>2022-08-29T11:44:22Z</time>
      </trkpt>
      <trkpt lat="42.3722570" lon="-3.3861520">
        <ele>1071.4</ele>
        <time>2022-08-29T11:44:23Z</time>
      </trkpt>
      <trkpt lat="42.3722830" lon="-3.3862380">
        <ele>1071.4</ele>
        <time>2022-08-29T11:44:24Z</time>
      </trkpt>
      <trkpt lat="42.3723090" lon="-3.3863270">
        <ele>1071.4</ele>
        <time>2022-08-29T11:44:25Z</time>
      </trkpt>
      <trkpt lat="42.3723350" lon="-3.3864170">
        <ele>1071.4</ele>
        <time>2022-08-29T11:44:26Z</time>
      </trkpt>
      <trkpt lat="42.3723660" lon="-3.3865060">
        <ele>1071.4</ele>
        <time>2022-08-29T11:44:27Z</time>
      </trkpt>
      <trkpt lat="42.3723950" lon="-3.3865980">
        <ele>1071.2</ele>
        <time>2022-08-29T11:44:28Z</time>
      </trkpt>
      <trkpt lat="42.3724240" lon="-3.3866900">
        <ele>1071.0</ele>
        <time>2022-08-29T11:44:29Z</time>
      </trkpt>
      <trkpt lat="42.3724540" lon="-3.3867820">
        <ele>1070.8</ele>
        <time>2022-08-29T11:44:30Z</time>
      </trkpt>
      <trkpt lat="42.3724870" lon="-3.3868730">
        <ele>1070.6</ele>
        <time>2022-08-29T11:44:31Z</time>
      </trkpt>
      <trkpt lat="42.3725210" lon="-3.3869650">
        <ele>1070.6</ele>
        <time>2022-08-29T11:44:32Z</time>
      </trkpt>
      <trkpt lat="42.3725530" lon="-3.3870600">
        <ele>1070.4</ele>
        <time>2022-08-29T11:44:33Z</time>
      </trkpt>
      <trkpt lat="42.3725840" lon="-3.3871590">
        <ele>1070.0</ele>
        <time>2022-08-29T11:44:34Z</time>
      </trkpt>
      <trkpt lat="42.3726170" lon="-3.3872600">
        <ele>1069.6</ele>
        <time>2022-08-29T11:44:35Z</time>
      </trkpt>
      <trkpt lat="42.3726500" lon="-3.3873610">
        <ele>1069.2</ele>
        <time>2022-08-29T11:44:36Z</time>
      </trkpt>
      <trkpt lat="42.3726830" lon="-3.3874600">
        <ele>1068.8</ele>
        <time>2022-08-29T11:44:37Z</time>
      </trkpt>
      <trkpt lat="42.3727140" lon="-3.3875610">
        <ele>1068.4</ele>
        <time>2022-08-29T11:44:38Z</time>
      </trkpt>
      <trkpt lat="42.3727490" lon="-3.3876630">
        <ele>1068.0</ele>
        <time>2022-08-29T11:44:39Z</time>
      </trkpt>
      <trkpt lat="42.3727810" lon="-3.3877690">
        <ele>1067.6</ele>
        <time>2022-08-29T11:44:40Z</time>
      </trkpt>
      <trkpt lat="42.3728110" lon="-3.3878750">
        <ele>1067.4</ele>
        <time>2022-08-29T11:44:41Z</time>
      </trkpt>
      <trkpt lat="42.3728390" lon="-3.3879810">
        <ele>1067.0</ele>
        <time>2022-08-29T11:44:42Z</time>
      </trkpt>
      <trkpt lat="42.3728670" lon="-3.3880860">
        <ele>1066.6</ele>
        <time>2022-08-29T11:44:43Z</time>
      </trkpt>
      <trkpt lat="42.3728990" lon="-3.3881910">
        <ele>1066.2</ele>
        <time>2022-08-29T11:44:44Z</time>
      </trkpt>
      <trkpt lat="42.3729310" lon="-3.3882990">
        <ele>1065.6</ele>
        <time>2022-08-29T11:44:45Z</time>
      </trkpt>
      <trkpt lat="42.3729650" lon="-3.3884100">
        <ele>1065.4</ele>
        <time>2022-08-29T11:44:46Z</time>
      </trkpt>
      <trkpt lat="42.3730060" lon="-3.3885190">
        <ele>1065.0</ele>
        <time>2022-08-29T11:44:47Z</time>
      </trkpt>
      <trkpt lat="42.3730470" lon="-3.3886250">
        <ele>1064.6</ele>
        <time>2022-08-29T11:44:48Z</time>
      </trkpt>
      <trkpt lat="42.3730860" lon="-3.3887340">
        <ele>1064.0</ele>
        <time>2022-08-29T11:44:49Z</time>
      </trkpt>
      <trkpt lat="42.3731240" lon="-3.3888440">
        <ele>1064.0</ele>
        <time>2022-08-29T11:44:50Z</time>
      </trkpt>
      <trkpt lat="42.3731650" lon="-3.3889520">
        <ele>1063.6</ele>
        <time>2022-08-29T11:44:51Z</time>
      </trkpt>
      <trkpt lat="42.3732030" lon="-3.3890630">
        <ele>1063.4</ele>
        <time>2022-08-29T11:44:52Z</time>
      </trkpt>
      <trkpt lat="42.3732410" lon="-3.3891760">
        <ele>1062.4</ele>
        <time>2022-08-29T11:44:53Z</time>
      </trkpt>
      <trkpt lat="42.3732760" lon="-3.3892920">
        <ele>1061.6</ele>
        <time>2022-08-29T11:44:54Z</time>
      </trkpt>
      <trkpt lat="42.3733120" lon="-3.3894080">
        <ele>1061.0</ele>
        <time>2022-08-29T11:44:55Z</time>
      </trkpt>
      <trkpt lat="42.3733500" lon="-3.3895230">
        <ele>1060.4</ele>
        <time>2022-08-29T11:44:56Z</time>
      </trkpt>
      <trkpt lat="42.3733920" lon="-3.3896350">
        <ele>1060.0</ele>
        <time>2022-08-29T11:44:57Z</time>
      </trkpt>
      <trkpt lat="42.3734330" lon="-3.3897440">
        <ele>1059.6</ele>
        <time>2022-08-29T11:44:58Z</time>
      </trkpt>
      <trkpt lat="42.3734760" lon="-3.3898510">
        <ele>1059.2</ele>
        <time>2022-08-29T11:44:59Z</time>
      </trkpt>
      <trkpt lat="42.3735160" lon="-3.3899590">
        <ele>1058.6</ele>
        <time>2022-08-29T11:45:00Z</time>
      </trkpt>
      <trkpt lat="42.3735540" lon="-3.3900680">
        <ele>1058.2</ele>
        <time>2022-08-29T11:45:01Z</time>
      </trkpt>
      <trkpt lat="42.3735920" lon="-3.3901740">
        <ele>1058.0</ele>
        <time>2022-08-29T11:45:02Z</time>
      </trkpt>
      <trkpt lat="42.3736290" lon="-3.3902770">
        <ele>1057.4</ele>
        <time>2022-08-29T11:45:03Z</time>
      </trkpt>
      <trkpt lat="42.3736630" lon="-3.3903780">
        <ele>1057.0</ele>
        <time>2022-08-29T11:45:04Z</time>
      </trkpt>
      <trkpt lat="42.3736960" lon="-3.3904770">
        <ele>1057.0</ele>
        <time>2022-08-29T11:45:05Z</time>
      </trkpt>
      <trkpt lat="42.3737270" lon="-3.3905740">
        <ele>1056.4</ele>
        <time>2022-08-29T11:45:06Z</time>
      </trkpt>
      <trkpt lat="42.3737610" lon="-3.3906680">
        <ele>1056.0</ele>
        <time>2022-08-29T11:45:07Z</time>
      </trkpt>
      <trkpt lat="42.3737950" lon="-3.3907630">
        <ele>1056.0</ele>
        <time>2022-08-29T11:45:08Z</time>
      </trkpt>
      <trkpt lat="42.3738290" lon="-3.3908600">
        <ele>1055.8</ele>
        <time>2022-08-29T11:45:09Z</time>
      </trkpt>
      <trkpt lat="42.3738630" lon="-3.3909600">
        <ele>1055.8</ele>
        <time>2022-08-29T11:45:10Z</time>
      </trkpt>
      <trkpt lat="42.3738970" lon="-3.3910610">
        <ele>1055.6</ele>
        <time>2022-08-29T11:45:11Z</time>
      </trkpt>
      <trkpt lat="42.3739350" lon="-3.3911590">
        <ele>1055.4</ele>
        <time>2022-08-29T11:45:12Z</time>
      </trkpt>
      <trkpt lat="42.3739750" lon="-3.3912560">
        <ele>1055.2</ele>
        <time>2022-08-29T11:45:13Z</time>
      </trkpt>
      <trkpt lat="42.3740170" lon="-3.3913540">
        <ele>1055.2</ele>
        <time>2022-08-29T11:45:14Z</time>
      </trkpt>
      <trkpt lat="42.3740540" lon="-3.3914530">
        <ele>1055.4</ele>
        <time>2022-08-29T11:45:15Z</time>
      </trkpt>
      <trkpt lat="42.3740810" lon="-3.3915600">
        <ele>1055.2</ele>
        <time>2022-08-29T11:45:16Z</time>
      </trkpt>
      <trkpt lat="42.3741070" lon="-3.3916670">
        <ele>1055.2</ele>
        <time>2022-08-29T11:45:17Z</time>
      </trkpt>
      <trkpt lat="42.3741300" lon="-3.3917760">
        <ele>1055.0</ele>
        <time>2022-08-29T11:45:18Z</time>
      </trkpt>
      <trkpt lat="42.3741440" lon="-3.3918890">
        <ele>1054.8</ele>
        <time>2022-08-29T11:45:19Z</time>
      </trkpt>
      <trkpt lat="42.3741550" lon="-3.3920020">
        <ele>1054.6</ele>
        <time>2022-08-29T11:45:20Z</time>
      </trkpt>
      <trkpt lat="42.3741640" lon="-3.3921150">
        <ele>1054.4</ele>
        <time>2022-08-29T11:45:21Z</time>
      </trkpt>
      <trkpt lat="42.3741710" lon="-3.3922260">
        <ele>1054.0</ele>
        <time>2022-08-29T11:45:22Z</time>
      </trkpt>
      <trkpt lat="42.3741790" lon="-3.3923340">
        <ele>1053.4</ele>
        <time>2022-08-29T11:45:23Z</time>
      </trkpt>
      <trkpt lat="42.3741870" lon="-3.3924420">
        <ele>1052.8</ele>
        <time>2022-08-29T11:45:24Z</time>
      </trkpt>
      <trkpt lat="42.3741920" lon="-3.3925490">
        <ele>1052.4</ele>
        <time>2022-08-29T11:45:25Z</time>
      </trkpt>
      <trkpt lat="42.3741950" lon="-3.3926550">
        <ele>1052.2</ele>
        <time>2022-08-29T11:45:26Z</time>
      </trkpt>
      <trkpt lat="42.3741970" lon="-3.3927580">
        <ele>1052.0</ele>
        <time>2022-08-29T11:45:27Z</time>
      </trkpt>
      <trkpt lat="42.3741960" lon="-3.3928630">
        <ele>1051.8</ele>
        <time>2022-08-29T11:45:28Z</time>
      </trkpt>
      <trkpt lat="42.3741990" lon="-3.3929670">
        <ele>1051.6</ele>
        <time>2022-08-29T11:45:29Z</time>
      </trkpt>
      <trkpt lat="42.3742050" lon="-3.3930700">
        <ele>1051.4</ele>
        <time>2022-08-29T11:45:30Z</time>
      </trkpt>
      <trkpt lat="42.3742110" lon="-3.3931730">
        <ele>1051.4</ele>
        <time>2022-08-29T11:45:31Z</time>
      </trkpt>
      <trkpt lat="42.3742160" lon="-3.3932740">
        <ele>1051.6</ele>
        <time>2022-08-29T11:45:32Z</time>
      </trkpt>
      <trkpt lat="42.3742230" lon="-3.3933730">
        <ele>1051.4</ele>
        <time>2022-08-29T11:45:33Z</time>
      </trkpt>
      <trkpt lat="42.3742290" lon="-3.3934710">
        <ele>1051.2</ele>
        <time>2022-08-29T11:45:34Z</time>
      </trkpt>
      <trkpt lat="42.3742400" lon="-3.3935640">
        <ele>1051.2</ele>
        <time>2022-08-29T11:45:35Z</time>
      </trkpt>
      <trkpt lat="42.3742500" lon="-3.3936570">
        <ele>1051.2</ele>
        <time>2022-08-29T11:45:36Z</time>
      </trkpt>
      <trkpt lat="42.3742600" lon="-3.3937490">
        <ele>1051.2</ele>
        <time>2022-08-29T11:45:37Z</time>
      </trkpt>
      <trkpt lat="42.3742690" lon="-3.3938380">
        <ele>1051.2</ele>
        <time>2022-08-29T11:45:38Z</time>
      </trkpt>
      <trkpt lat="42.3742780" lon="-3.3939230">
        <ele>1051.2</ele>
        <time>2022-08-29T11:45:39Z</time>
      </trkpt>
      <trkpt lat="42.3742870" lon="-3.3940060">
        <ele>1051.2</ele>
        <time>2022-08-29T11:45:40Z</time>
      </trkpt>
      <trkpt lat="42.3742940" lon="-3.3940920">
        <ele>1051.2</ele>
        <time>2022-08-29T11:45:41Z</time>
      </trkpt>
      <trkpt lat="42.3743020" lon="-3.3941770">
        <ele>1051.0</ele>
        <time>2022-08-29T11:45:42Z</time>
      </trkpt>
      <trkpt lat="42.3743110" lon="-3.3942610">
        <ele>1051.0</ele>
        <time>2022-08-29T11:45:43Z</time>
      </trkpt>
      <trkpt lat="42.3743270" lon="-3.3943470">
        <ele>1051.0</ele>
        <time>2022-08-29T11:45:44Z</time>
      </trkpt>
      <trkpt lat="42.3743500" lon="-3.3944300">
        <ele>1051.0</ele>
        <time>2022-08-29T11:45:45Z</time>
      </trkpt>
      <trkpt lat="42.3743820" lon="-3.3945120">
        <ele>1051.0</ele>
        <time>2022-08-29T11:45:46Z</time>
      </trkpt>
      <trkpt lat="42.3744160" lon="-3.3945960">
        <ele>1051.0</ele>
        <time>2022-08-29T11:45:47Z</time>
      </trkpt>
      <trkpt lat="42.3744500" lon="-3.3946820">
        <ele>1050.6</ele>
        <time>2022-08-29T11:45:48Z</time>
      </trkpt>
      <trkpt lat="42.3744830" lon="-3.3947680">
        <ele>1050.6</ele>
        <time>2022-08-29T11:45:49Z</time>
      </trkpt>
      <trkpt lat="42.3745130" lon="-3.3948540">
        <ele>1050.6</ele>
        <time>2022-08-29T11:45:50Z</time>
      </trkpt>
      <trkpt lat="42.3745390" lon="-3.3949390">
        <ele>1050.2</ele>
        <time>2022-08-29T11:45:51Z</time>
      </trkpt>
      <trkpt lat="42.3745600" lon="-3.3950240">
        <ele>1050.0</ele>
        <time>2022-08-29T11:45:52Z</time>
      </trkpt>
      <trkpt lat="42.3745780" lon="-3.3951100">
        <ele>1050.2</ele>
        <time>2022-08-29T11:45:53Z</time>
      </trkpt>
      <trkpt lat="42.3746000" lon="-3.3951950">
        <ele>1050.2</ele>
        <time>2022-08-29T11:45:54Z</time>
      </trkpt>
      <trkpt lat="42.3746230" lon="-3.3952760">
        <ele>1050.2</ele>
        <time>2022-08-29T11:45:55Z</time>
      </trkpt>
      <trkpt lat="42.3746460" lon="-3.3953540">
        <ele>1050.0</ele>
        <time>2022-08-29T11:45:56Z</time>
      </trkpt>
      <trkpt lat="42.3746690" lon="-3.3954340">
        <ele>1050.2</ele>
        <time>2022-08-29T11:45:57Z</time>
      </trkpt>
      <trkpt lat="42.3746880" lon="-3.3955160">
        <ele>1050.0</ele>
        <time>2022-08-29T11:45:58Z</time>
      </trkpt>
      <trkpt lat="42.3747090" lon="-3.3956010">
        <ele>1050.0</ele>
        <time>2022-08-29T11:45:59Z</time>
      </trkpt>
      <trkpt lat="42.3747290" lon="-3.3956870">
        <ele>1050.0</ele>
        <time>2022-08-29T11:46:00Z</time>
      </trkpt>
      <trkpt lat="42.3747530" lon="-3.3957730">
        <ele>1050.0</ele>
        <time>2022-08-29T11:46:01Z</time>
      </trkpt>
      <trkpt lat="42.3747750" lon="-3.3958560">
        <ele>1050.0</ele>
        <time>2022-08-29T11:46:02Z</time>
      </trkpt>
      <trkpt lat="42.3747960" lon="-3.3959400">
        <ele>1050.0</ele>
        <time>2022-08-29T11:46:03Z</time>
      </trkpt>
      <trkpt lat="42.3748170" lon="-3.3960250">
        <ele>1049.8</ele>
        <time>2022-08-29T11:46:04Z</time>
      </trkpt>
      <trkpt lat="42.3748370" lon="-3.3961090">
        <ele>1050.0</ele>
        <time>2022-08-29T11:46:05Z</time>
      </trkpt>
      <trkpt lat="42.3748590" lon="-3.3961920">
        <ele>1050.0</ele>
        <time>2022-08-29T11:46:06Z</time>
      </trkpt>
      <trkpt lat="42.3748790" lon="-3.3962750">
        <ele>1049.8</ele>
        <time>2022-08-29T11:46:07Z</time>
      </trkpt>
      <trkpt lat="42.3748960" lon="-3.3963610">
        <ele>1050.0</ele>
        <time>2022-08-29T11:46:08Z</time>
      </trkpt>
      <trkpt lat="42.3749130" lon="-3.3964470">
        <ele>1050.0</ele>
        <time>2022-08-29T11:46:09Z</time>
      </trkpt>
      <trkpt lat="42.3749310" lon="-3.3965330">
        <ele>1050.0</ele>
        <time>2022-08-29T11:46:10Z</time>
      </trkpt>
      <trkpt lat="42.3749480" lon="-3.3966190">
        <ele>1050.0</ele>
        <time>2022-08-29T11:46:11Z</time>
      </trkpt>
      <trkpt lat="42.3749640" lon="-3.3967060">
        <ele>1050.0</ele>
        <time>2022-08-29T11:46:12Z</time>
      </trkpt>
      <trkpt lat="42.3749790" lon="-3.3967950">
        <ele>1050.0</ele>
        <time>2022-08-29T11:46:13Z</time>
      </trkpt>
      <trkpt lat="42.3749980" lon="-3.3968810">
        <ele>1050.0</ele>
        <time>2022-08-29T11:46:14Z</time>
      </trkpt>
      <trkpt lat="42.3750180" lon="-3.3969660">
        <ele>1050.0</ele>
        <time>2022-08-29T11:46:15Z</time>
      </trkpt>
      <trkpt lat="42.3750340" lon="-3.3970540">
        <ele>1049.8</ele>
        <time>2022-08-29T11:46:16Z</time>
      </trkpt>
      <trkpt lat="42.3750510" lon="-3.3971420">
        <ele>1049.8</ele>
        <time>2022-08-29T11:46:17Z</time>
      </trkpt>
      <trkpt lat="42.3750690" lon="-3.3972300">
        <ele>1049.8</ele>
        <time>2022-08-29T11:46:18Z</time>
      </trkpt>
      <trkpt lat="42.3750870" lon="-3.3973190">
        <ele>1049.8</ele>
        <time>2022-08-29T11:46:19Z</time>
      </trkpt>
      <trkpt lat="42.3751060" lon="-3.3974100">
        <ele>1049.8</ele>
        <time>2022-08-29T11:46:20Z</time>
      </trkpt>
      <trkpt lat="42.3751240" lon="-3.3975030">
        <ele>1049.8</ele>
        <time>2022-08-29T11:46:21Z</time>
      </trkpt>
      <trkpt lat="42.3751420" lon="-3.3975960">
        <ele>1049.4</ele>
        <time>2022-08-29T11:46:22Z</time>
      </trkpt>
      <trkpt lat="42.3751580" lon="-3.3976890">
        <ele>1049.2</ele>
        <time>2022-08-29T11:46:23Z</time>
      </trkpt>
      <trkpt lat="42.3751750" lon="-3.3977840">
        <ele>1049.2</ele>
        <time>2022-08-29T11:46:24Z</time>
      </trkpt>
      <trkpt lat="42.3751910" lon="-3.3978780">
        <ele>1049.2</ele>
        <time>2022-08-29T11:46:25Z</time>
      </trkpt>
      <trkpt lat="42.3752080" lon="-3.3979720">
        <ele>1049.2</ele>
        <time>2022-08-29T11:46:26Z</time>
      </trkpt>
      <trkpt lat="42.3752250" lon="-3.3980670">
        <ele>1048.8</ele>
        <time>2022-08-29T11:46:27Z</time>
      </trkpt>
      <trkpt lat="42.3752410" lon="-3.3981590">
        <ele>1048.8</ele>
        <time>2022-08-29T11:46:28Z</time>
      </trkpt>
      <trkpt lat="42.3752580" lon="-3.3982510">
        <ele>1048.6</ele>
        <time>2022-08-29T11:46:29Z</time>
      </trkpt>
      <trkpt lat="42.3752760" lon="-3.3983440">
        <ele>1048.4</ele>
        <time>2022-08-29T11:46:30Z</time>
      </trkpt>
      <trkpt lat="42.3752940" lon="-3.3984380">
        <ele>1048.2</ele>
        <time>2022-08-29T11:46:31Z</time>
      </trkpt>
      <trkpt lat="42.3753120" lon="-3.3985310">
        <ele>1048.2</ele>
        <time>2022-08-29T11:46:32Z</time>
      </trkpt>
      <trkpt lat="42.3753310" lon="-3.3986240">
        <ele>1048.0</ele>
        <time>2022-08-29T11:46:33Z</time>
      </trkpt>
      <trkpt lat="42.3753490" lon="-3.3987190">
        <ele>1047.8</ele>
        <time>2022-08-29T11:46:34Z</time>
      </trkpt>
      <trkpt lat="42.3753670" lon="-3.3988140">
        <ele>1047.8</ele>
        <time>2022-08-29T11:46:35Z</time>
      </trkpt>
      <trkpt lat="42.3753840" lon="-3.3989090">
        <ele>1047.8</ele>
        <time>2022-08-29T11:46:36Z</time>
      </trkpt>
      <trkpt lat="42.3753980" lon="-3.3990050">
        <ele>1047.6</ele>
        <time>2022-08-29T11:46:37Z</time>
      </trkpt>
      <trkpt lat="42.3754150" lon="-3.3990960">
        <ele>1047.6</ele>
        <time>2022-08-29T11:46:38Z</time>
      </trkpt>
      <trkpt lat="42.3754350" lon="-3.3991870">
        <ele>1047.4</ele>
        <time>2022-08-29T11:46:39Z</time>
      </trkpt>
      <trkpt lat="42.3754530" lon="-3.3992790">
        <ele>1047.4</ele>
        <time>2022-08-29T11:46:40Z</time>
      </trkpt>
      <trkpt lat="42.3754680" lon="-3.3993750">
        <ele>1047.4</ele>
        <time>2022-08-29T11:46:41Z</time>
      </trkpt>
      <trkpt lat="42.3754810" lon="-3.3994730">
        <ele>1047.2</ele>
        <time>2022-08-29T11:46:42Z</time>
      </trkpt>
      <trkpt lat="42.3754930" lon="-3.3995700">
        <ele>1047.2</ele>
        <time>2022-08-29T11:46:43Z</time>
      </trkpt>
      <trkpt lat="42.3755090" lon="-3.3996660">
        <ele>1047.2</ele>
        <time>2022-08-29T11:46:44Z</time>
      </trkpt>
      <trkpt lat="42.3755260" lon="-3.3997640">
        <ele>1047.2</ele>
        <time>2022-08-29T11:46:45Z</time>
      </trkpt>
      <trkpt lat="42.3755430" lon="-3.3998640">
        <ele>1047.2</ele>
        <time>2022-08-29T11:46:46Z</time>
      </trkpt>
      <trkpt lat="42.3755600" lon="-3.3999680">
        <ele>1047.0</ele>
        <time>2022-08-29T11:46:47Z</time>
      </trkpt>
      <trkpt lat="42.3755780" lon="-3.4000730">
        <ele>1047.0</ele>
        <time>2022-08-29T11:46:48Z</time>
      </trkpt>
      <trkpt lat="42.3755970" lon="-3.4001790">
        <ele>1046.8</ele>
        <time>2022-08-29T11:46:49Z</time>
      </trkpt>
      <trkpt lat="42.3756170" lon="-3.4002830">
        <ele>1047.0</ele>
        <time>2022-08-29T11:46:50Z</time>
      </trkpt>
      <trkpt lat="42.3756360" lon="-3.4003880">
        <ele>1046.8</ele>
        <time>2022-08-29T11:46:51Z</time>
      </trkpt>
      <trkpt lat="42.3756550" lon="-3.4004930">
        <ele>1046.6</ele>
        <time>2022-08-29T11:46:52Z</time>
      </trkpt>
      <trkpt lat="42.3756730" lon="-3.4005980">
        <ele>1046.4</ele>
        <time>2022-08-29T11:46:53Z</time>
      </trkpt>
      <trkpt lat="42.3756920" lon="-3.4007030">
        <ele>1046.2</ele>
        <time>2022-08-29T11:46:54Z</time>
      </trkpt>
      <trkpt lat="42.3757120" lon="-3.4008070">
        <ele>1046.2</ele>
        <time>2022-08-29T11:46:55Z</time>
      </trkpt>
      <trkpt lat="42.3757310" lon="-3.4009120">
        <ele>1046.2</ele>
        <time>2022-08-29T11:46:56Z</time>
      </trkpt>
      <trkpt lat="42.3757510" lon="-3.4010180">
        <ele>1045.6</ele>
        <time>2022-08-29T11:46:57Z</time>
      </trkpt>
      <trkpt lat="42.3757710" lon="-3.4011260">
        <ele>1045.4</ele>
        <time>2022-08-29T11:46:58Z</time>
      </trkpt>
      <trkpt lat="42.3757900" lon="-3.4012330">
        <ele>1045.2</ele>
        <time>2022-08-29T11:46:59Z</time>
      </trkpt>
      <trkpt lat="42.3758100" lon="-3.4013390">
        <ele>1044.8</ele>
        <time>2022-08-29T11:47:00Z</time>
      </trkpt>
      <trkpt lat="42.3758320" lon="-3.4014460">
        <ele>1044.6</ele>
        <time>2022-08-29T11:47:01Z</time>
      </trkpt>
      <trkpt lat="42.3758530" lon="-3.4015530">
        <ele>1044.4</ele>
        <time>2022-08-29T11:47:02Z</time>
      </trkpt>
      <trkpt lat="42.3758730" lon="-3.4016590">
        <ele>1044.2</ele>
        <time>2022-08-29T11:47:03Z</time>
      </trkpt>
      <trkpt lat="42.3758930" lon="-3.4017650">
        <ele>1044.2</ele>
        <time>2022-08-29T11:47:04Z</time>
      </trkpt>
      <trkpt lat="42.3759140" lon="-3.4018710">
        <ele>1044.0</ele>
        <time>2022-08-29T11:47:05Z</time>
      </trkpt>
      <trkpt lat="42.3759360" lon="-3.4019750">
        <ele>1044.0</ele>
        <time>2022-08-29T11:47:06Z</time>
      </trkpt>
      <trkpt lat="42.3759570" lon="-3.4020790">
        <ele>1043.6</ele>
        <time>2022-08-29T11:47:07Z</time>
      </trkpt>
      <trkpt lat="42.3759750" lon="-3.4021830">
        <ele>1043.6</ele>
        <time>2022-08-29T11:47:08Z</time>
      </trkpt>
      <trkpt lat="42.3759940" lon="-3.4022860">
        <ele>1043.4</ele>
        <time>2022-08-29T11:47:09Z</time>
      </trkpt>
      <trkpt lat="42.3760130" lon="-3.4023880">
        <ele>1043.4</ele>
        <time>2022-08-29T11:47:10Z</time>
      </trkpt>
      <trkpt lat="42.3760330" lon="-3.4024890">
        <ele>1043.2</ele>
        <time>2022-08-29T11:47:11Z</time>
      </trkpt>
      <trkpt lat="42.3760560" lon="-3.4025880">
        <ele>1043.2</ele>
        <time>2022-08-29T11:47:12Z</time>
      </trkpt>
      <trkpt lat="42.3760760" lon="-3.4026890">
        <ele>1043.0</ele>
        <time>2022-08-29T11:47:13Z</time>
      </trkpt>
      <trkpt lat="42.3760940" lon="-3.4027890">
        <ele>1043.0</ele>
        <time>2022-08-29T11:47:14Z</time>
      </trkpt>
      <trkpt lat="42.3761110" lon="-3.4028900">
        <ele>1043.0</ele>
        <time>2022-08-29T11:47:15Z</time>
      </trkpt>
      <trkpt lat="42.3761300" lon="-3.4029890">
        <ele>1042.8</ele>
        <time>2022-08-29T11:47:16Z</time>
      </trkpt>
      <trkpt lat="42.3761490" lon="-3.4030880">
        <ele>1042.8</ele>
        <time>2022-08-29T11:47:17Z</time>
      </trkpt>
      <trkpt lat="42.3761680" lon="-3.4031880">
        <ele>1042.8</ele>
        <time>2022-08-29T11:47:18Z</time>
      </trkpt>
      <trkpt lat="42.3761880" lon="-3.4032870">
        <ele>1042.6</ele>
        <time>2022-08-29T11:47:19Z</time>
      </trkpt>
      <trkpt lat="42.3762060" lon="-3.4033870">
        <ele>1042.8</ele>
        <time>2022-08-29T11:47:20Z</time>
      </trkpt>
      <trkpt lat="42.3762260" lon="-3.4034870">
        <ele>1042.8</ele>
        <time>2022-08-29T11:47:21Z</time>
      </trkpt>
      <trkpt lat="42.3762440" lon="-3.4035880">
        <ele>1042.6</ele>
        <time>2022-08-29T11:47:22Z</time>
      </trkpt>
      <trkpt lat="42.3762600" lon="-3.4036900">
        <ele>1042.6</ele>
        <time>2022-08-29T11:47:23Z</time>
      </trkpt>
      <trkpt lat="42.3762770" lon="-3.4037920">
        <ele>1042.6</ele>
        <time>2022-08-29T11:47:24Z</time>
      </trkpt>
      <trkpt lat="42.3762950" lon="-3.4038950">
        <ele>1042.6</ele>
        <time>2022-08-29T11:47:25Z</time>
      </trkpt>
      <trkpt lat="42.3763150" lon="-3.4039990">
        <ele>1042.8</ele>
        <time>2022-08-29T11:47:26Z</time>
      </trkpt>
      <trkpt lat="42.3763340" lon="-3.4041030">
        <ele>1042.4</ele>
        <time>2022-08-29T11:47:27Z</time>
      </trkpt>
      <trkpt lat="42.3763510" lon="-3.4042070">
        <ele>1042.6</ele>
        <time>2022-08-29T11:47:28Z</time>
      </trkpt>
      <trkpt lat="42.3763680" lon="-3.4043130">
        <ele>1042.4</ele>
        <time>2022-08-29T11:47:29Z</time>
      </trkpt>
      <trkpt lat="42.3763850" lon="-3.4044190">
        <ele>1042.4</ele>
        <time>2022-08-29T11:47:30Z</time>
      </trkpt>
      <trkpt lat="42.3764020" lon="-3.4045260">
        <ele>1042.2</ele>
        <time>2022-08-29T11:47:31Z</time>
      </trkpt>
      <trkpt lat="42.3764170" lon="-3.4046320">
        <ele>1042.2</ele>
        <time>2022-08-29T11:47:32Z</time>
      </trkpt>
      <trkpt lat="42.3764330" lon="-3.4047400">
        <ele>1041.6</ele>
        <time>2022-08-29T11:47:33Z</time>
      </trkpt>
      <trkpt lat="42.3764490" lon="-3.4048490">
        <ele>1041.4</ele>
        <time>2022-08-29T11:47:34Z</time>
      </trkpt>
      <trkpt lat="42.3764640" lon="-3.4049580">
        <ele>1041.2</ele>
        <time>2022-08-29T11:47:35Z</time>
      </trkpt>
      <trkpt lat="42.3764810" lon="-3.4050660">
        <ele>1041.0</ele>
        <time>2022-08-29T11:47:36Z</time>
      </trkpt>
      <trkpt lat="42.3764980" lon="-3.4051760">
        <ele>1041.0</ele>
        <time>2022-08-29T11:47:37Z</time>
      </trkpt>
      <trkpt lat="42.3765140" lon="-3.4052850">
        <ele>1040.6</ele>
        <time>2022-08-29T11:47:38Z</time>
      </trkpt>
      <trkpt lat="42.3765300" lon="-3.4053950">
        <ele>1040.2</ele>
        <time>2022-08-29T11:47:39Z</time>
      </trkpt>
      <trkpt lat="42.3765450" lon="-3.4055050">
        <ele>1040.0</ele>
        <time>2022-08-29T11:47:40Z</time>
      </trkpt>
      <trkpt lat="42.3765600" lon="-3.4056150">
        <ele>1039.8</ele>
        <time>2022-08-29T11:47:41Z</time>
      </trkpt>
      <trkpt lat="42.3765770" lon="-3.4057250">
        <ele>1039.6</ele>
        <time>2022-08-29T11:47:42Z</time>
      </trkpt>
      <trkpt lat="42.3765940" lon="-3.4058360">
        <ele>1039.2</ele>
        <time>2022-08-29T11:47:43Z</time>
      </trkpt>
      <trkpt lat="42.3766110" lon="-3.4059450">
        <ele>1039.0</ele>
        <time>2022-08-29T11:47:44Z</time>
      </trkpt>
      <trkpt lat="42.3766280" lon="-3.4060530">
        <ele>1038.8</ele>
        <time>2022-08-29T11:47:45Z</time>
      </trkpt>
      <trkpt lat="42.3766460" lon="-3.4061610">
        <ele>1038.6</ele>
        <time>2022-08-29T11:47:46Z</time>
      </trkpt>
      <trkpt lat="42.3766640" lon="-3.4062700">
        <ele>1038.4</ele>
        <time>2022-08-29T11:47:47Z</time>
      </trkpt>
      <trkpt lat="42.3766810" lon="-3.4063780">
        <ele>1038.2</ele>
        <time>2022-08-29T11:47:48Z</time>
      </trkpt>
      <trkpt lat="42.3766980" lon="-3.4064820">
        <ele>1038.0</ele>
        <time>2022-08-29T11:47:49Z</time>
      </trkpt>
      <trkpt lat="42.3767170" lon="-3.4065910">
        <ele>1038.0</ele>
        <time>2022-08-29T11:47:50Z</time>
      </trkpt>
      <trkpt lat="42.3767340" lon="-3.4066990">
        <ele>1038.0</ele>
        <time>2022-08-29T11:47:51Z</time>
      </trkpt>
      <trkpt lat="42.3767520" lon="-3.4068090">
        <ele>1037.6</ele>
        <time>2022-08-29T11:47:52Z</time>
      </trkpt>
      <trkpt lat="42.3767700" lon="-3.4069160">
        <ele>1037.6</ele>
        <time>2022-08-29T11:47:53Z</time>
      </trkpt>
      <trkpt lat="42.3767880" lon="-3.4070240">
        <ele>1037.6</ele>
        <time>2022-08-29T11:47:54Z</time>
      </trkpt>
      <trkpt lat="42.3768030" lon="-3.4071320">
        <ele>1037.6</ele>
        <time>2022-08-29T11:47:55Z</time>
      </trkpt>
      <trkpt lat="42.3768160" lon="-3.4072390">
        <ele>1037.4</ele>
        <time>2022-08-29T11:47:56Z</time>
      </trkpt>
      <trkpt lat="42.3768290" lon="-3.4073480">
        <ele>1037.2</ele>
        <time>2022-08-29T11:47:57Z</time>
      </trkpt>
      <trkpt lat="42.3768440" lon="-3.4074560">
        <ele>1037.2</ele>
        <time>2022-08-29T11:47:58Z</time>
      </trkpt>
      <trkpt lat="42.3768580" lon="-3.4075640">
        <ele>1037.0</ele>
        <time>2022-08-29T11:47:59Z</time>
      </trkpt>
      <trkpt lat="42.3768730" lon="-3.4076730">
        <ele>1037.0</ele>
        <time>2022-08-29T11:48:00Z</time>
      </trkpt>
      <trkpt lat="42.3768870" lon="-3.4077810">
        <ele>1036.8</ele>
        <time>2022-08-29T11:48:01Z</time>
      </trkpt>
      <trkpt lat="42.3769010" lon="-3.4078880">
        <ele>1036.6</ele>
        <time>2022-08-29T11:48:02Z</time>
      </trkpt>
      <trkpt lat="42.3769180" lon="-3.4079940">
        <ele>1036.4</ele>
        <time>2022-08-29T11:48:03Z</time>
      </trkpt>
      <trkpt lat="42.3769340" lon="-3.4081010">
        <ele>1036.2</ele>
        <time>2022-08-29T11:48:04Z</time>
      </trkpt>
      <trkpt lat="42.3769510" lon="-3.4082080">
        <ele>1036.2</ele>
        <time>2022-08-29T11:48:05Z</time>
      </trkpt>
      <trkpt lat="42.3769690" lon="-3.4083150">
        <ele>1036.2</ele>
        <time>2022-08-29T11:48:06Z</time>
      </trkpt>
      <trkpt lat="42.3769870" lon="-3.4084210">
        <ele>1036.0</ele>
        <time>2022-08-29T11:48:07Z</time>
      </trkpt>
      <trkpt lat="42.3770020" lon="-3.4085290">
        <ele>1036.0</ele>
        <time>2022-08-29T11:48:08Z</time>
      </trkpt>
      <trkpt lat="42.3770200" lon="-3.4086350">
        <ele>1035.6</ele>
        <time>2022-08-29T11:48:09Z</time>
      </trkpt>
      <trkpt lat="42.3770410" lon="-3.4087410">
        <ele>1035.6</ele>
        <time>2022-08-29T11:48:10Z</time>
      </trkpt>
      <trkpt lat="42.3770620" lon="-3.4088490">
        <ele>1035.4</ele>
        <time>2022-08-29T11:48:11Z</time>
      </trkpt>
      <trkpt lat="42.3770810" lon="-3.4089590">
        <ele>1035.4</ele>
        <time>2022-08-29T11:48:12Z</time>
      </trkpt>
      <trkpt lat="42.3771000" lon="-3.4090690">
        <ele>1035.0</ele>
        <time>2022-08-29T11:48:13Z</time>
      </trkpt>
      <trkpt lat="42.3771200" lon="-3.4091800">
        <ele>1034.8</ele>
        <time>2022-08-29T11:48:14Z</time>
      </trkpt>
      <trkpt lat="42.3771380" lon="-3.4092920">
        <ele>1034.4</ele>
        <time>2022-08-29T11:48:15Z</time>
      </trkpt>
      <trkpt lat="42.3771580" lon="-3.4094040">
        <ele>1034.4</ele>
        <time>2022-08-29T11:48:16Z</time>
      </trkpt>
      <trkpt lat="42.3771800" lon="-3.4095150">
        <ele>1034.4</ele>
        <time>2022-08-29T11:48:17Z</time>
      </trkpt>
      <trkpt lat="42.3772010" lon="-3.4096260">
        <ele>1034.0</ele>
        <time>2022-08-29T11:48:18Z</time>
      </trkpt>
      <trkpt lat="42.3772160" lon="-3.4097440">
        <ele>1033.8</ele>
        <time>2022-08-29T11:48:19Z</time>
      </trkpt>
      <trkpt lat="42.3772390" lon="-3.4098610">
        <ele>1033.4</ele>
        <time>2022-08-29T11:48:20Z</time>
      </trkpt>
      <trkpt lat="42.3772770" lon="-3.4099740">
        <ele>1033.0</ele>
        <time>2022-08-29T11:48:21Z</time>
      </trkpt>
      <trkpt lat="42.3773080" lon="-3.4100890">
        <ele>1032.8</ele>
        <time>2022-08-29T11:48:22Z</time>
      </trkpt>
      <trkpt lat="42.3773270" lon="-3.4102090">
        <ele>1032.4</ele>
        <time>2022-08-29T11:48:23Z</time>
      </trkpt>
      <trkpt lat="42.3773400" lon="-3.4103200">
        <ele>1032.4</ele>
        <time>2022-08-29T11:48:24Z</time>
      </trkpt>
      <trkpt lat="42.3773470" lon="-3.4104110">
        <ele>1032.2</ele>
        <time>2022-08-29T11:48:25Z</time>
      </trkpt>
      <trkpt lat="42.3773490" lon="-3.4104820">
        <ele>1032.0</ele>
        <time>2022-08-29T11:48:26Z</time>
      </trkpt>
      <trkpt lat="42.3773510" lon="-3.4105240">
        <ele>1031.8</ele>
        <time>2022-08-29T11:48:27Z</time>
      </trkpt>
      <trkpt lat="42.3773520" lon="-3.4105540">
        <ele>1031.4</ele>
        <time>2022-08-29T11:48:28Z</time>
      </trkpt>
      <trkpt lat="42.3773520" lon="-3.4105790">
        <ele>1030.8</ele>
        <time>2022-08-29T11:48:29Z</time>
      </trkpt>
      <trkpt lat="42.3773510" lon="-3.4106070">
        <ele>1029.6</ele>
        <time>2022-08-29T11:48:30Z</time>
      </trkpt>
      <trkpt lat="42.3773520" lon="-3.4106380">
        <ele>1028.8</ele>
        <time>2022-08-29T11:48:31Z</time>
      </trkpt>
      <trkpt lat="42.3773500" lon="-3.4106740">
        <ele>1028.4</ele>
        <time>2022-08-29T11:48:32Z</time>
      </trkpt>
      <trkpt lat="42.3773460" lon="-3.4107140">
        <ele>1028.0</ele>
        <time>2022-08-29T11:48:33Z</time>
      </trkpt>
      <trkpt lat="42.3773420" lon="-3.4107590">
        <ele>1027.6</ele>
        <time>2022-08-29T11:48:34Z</time>
      </trkpt>
      <trkpt lat="42.3773350" lon="-3.4108080">
        <ele>1027.6</ele>
        <time>2022-08-29T11:48:35Z</time>
      </trkpt>
      <trkpt lat="42.3773270" lon="-3.4108610">
        <ele>1027.6</ele>
        <time>2022-08-29T11:48:36Z</time>
      </trkpt>
      <trkpt lat="42.3773240" lon="-3.4109170">
        <ele>1027.4</ele>
        <time>2022-08-29T11:48:37Z</time>
      </trkpt>
      <trkpt lat="42.3773260" lon="-3.4109720">
        <ele>1027.0</ele>
        <time>2022-08-29T11:48:38Z</time>
      </trkpt>
      <trkpt lat="42.3773260" lon="-3.4110190">
        <ele>1027.2</ele>
        <time>2022-08-29T11:48:39Z</time>
      </trkpt>
      <trkpt lat="42.3773210" lon="-3.4110610">
        <ele>1026.8</ele>
        <time>2022-08-29T11:48:40Z</time>
      </trkpt>
      <trkpt lat="42.3773140" lon="-3.4111020">
        <ele>1026.6</ele>
        <time>2022-08-29T11:48:41Z</time>
      </trkpt>
      <trkpt lat="42.3773080" lon="-3.4111390">
        <ele>1026.6</ele>
        <time>2022-08-29T11:48:42Z</time>
      </trkpt>
      <trkpt lat="42.3773020" lon="-3.4111710">
        <ele>1026.6</ele>
        <time>2022-08-29T11:48:43Z</time>
      </trkpt>
      <trkpt lat="42.3772980" lon="-3.4111970">
        <ele>1026.4</ele>
        <time>2022-08-29T11:48:44Z</time>
      </trkpt>
      <trkpt lat="42.3772950" lon="-3.4112200">
        <ele>1026.0</ele>
        <time>2022-08-29T11:48:45Z</time>
      </trkpt>
      <trkpt lat="42.3772920" lon="-3.4112430">
        <ele>1025.8</ele>
        <time>2022-08-29T11:48:46Z</time>
      </trkpt>
      <trkpt lat="42.3772900" lon="-3.4112680">
        <ele>1025.4</ele>
        <time>2022-08-29T11:48:47Z</time>
      </trkpt>
      <trkpt lat="42.3772890" lon="-3.4112930">
        <ele>1025.4</ele>
        <time>2022-08-29T11:48:48Z</time>
      </trkpt>
      <trkpt lat="42.3772880" lon="-3.4113180">
        <ele>1025.2</ele>
        <time>2022-08-29T11:48:49Z</time>
      </trkpt>
      <trkpt lat="42.3772880" lon="-3.4113450">
        <ele>1025.2</ele>
        <time>2022-08-29T11:48:50Z</time>
      </trkpt>
      <trkpt lat="42.3772860" lon="-3.4113710">
        <ele>1025.0</ele>
        <time>2022-08-29T11:48:51Z</time>
      </trkpt>
      <trkpt lat="42.3772850" lon="-3.4113960">
        <ele>1024.8</ele>
        <time>2022-08-29T11:48:52Z</time>
      </trkpt>
      <trkpt lat="42.3772840" lon="-3.4114170">
        <ele>1025.0</ele>
        <time>2022-08-29T11:48:53Z</time>
      </trkpt>
      <trkpt lat="42.3772810" lon="-3.4114360">
        <ele>1024.8</ele>
        <time>2022-08-29T11:48:54Z</time>
      </trkpt>
      <trkpt lat="42.3772790" lon="-3.4114540">
        <ele>1025.0</ele>
        <time>2022-08-29T11:48:55Z</time>
      </trkpt>
      <trkpt lat="42.3772810" lon="-3.4114730">
        <ele>1024.8</ele>
        <time>2022-08-29T11:48:56Z</time>
      </trkpt>
      <trkpt lat="42.3772840" lon="-3.4114960">
        <ele>1024.6</ele>
        <time>2022-08-29T11:48:57Z</time>
      </trkpt>
      <trkpt lat="42.3772820" lon="-3.4115250">
        <ele>1024.6</ele>
        <time>2022-08-29T11:48:58Z</time>
      </trkpt>
      <trkpt lat="42.3772780" lon="-3.4115580">
        <ele>1024.6</ele>
        <time>2022-08-29T11:48:59Z</time>
      </trkpt>
      <trkpt lat="42.3772760" lon="-3.4115950">
        <ele>1024.4</ele>
        <time>2022-08-29T11:49:00Z</time>
      </trkpt>
      <trkpt lat="42.3772770" lon="-3.4116360">
        <ele>1024.4</ele>
        <time>2022-08-29T11:49:01Z</time>
      </trkpt>
      <trkpt lat="42.3772770" lon="-3.4116820">
        <ele>1024.4</ele>
        <time>2022-08-29T11:49:02Z</time>
      </trkpt>
      <trkpt lat="42.3772750" lon="-3.4117340">
        <ele>1024.4</ele>
        <time>2022-08-29T11:49:03Z</time>
      </trkpt>
      <trkpt lat="42.3772720" lon="-3.4117980">
        <ele>1024.2</ele>
        <time>2022-08-29T11:49:04Z</time>
      </trkpt>
      <trkpt lat="42.3772690" lon="-3.4118680">
        <ele>1024.2</ele>
        <time>2022-08-29T11:49:05Z</time>
      </trkpt>
      <trkpt lat="42.3772660" lon="-3.4119420">
        <ele>1024.0</ele>
        <time>2022-08-29T11:49:06Z</time>
      </trkpt>
      <trkpt lat="42.3772650" lon="-3.4120180">
        <ele>1023.8</ele>
        <time>2022-08-29T11:49:07Z</time>
      </trkpt>
      <trkpt lat="42.3772620" lon="-3.4120990">
        <ele>1023.6</ele>
        <time>2022-08-29T11:49:08Z</time>
      </trkpt>
      <trkpt lat="42.3772620" lon="-3.4121800">
        <ele>1023.4</ele>
        <time>2022-08-29T11:49:09Z</time>
      </trkpt>
      <trkpt lat="42.3772640" lon="-3.4122640">
        <ele>1023.0</ele>
        <time>2022-08-29T11:49:10Z</time>
      </trkpt>
      <trkpt lat="42.3772640" lon="-3.4123550">
        <ele>1023.0</ele>
        <time>2022-08-29T11:49:11Z</time>
      </trkpt>
      <trkpt lat="42.3772650" lon="-3.4124500">
        <ele>1023.0</ele>
        <time>2022-08-29T11:49:12Z</time>
      </trkpt>
      <trkpt lat="42.3772710" lon="-3.4125430">
        <ele>1022.6</ele>
        <time>2022-08-29T11:49:13Z</time>
      </trkpt>
      <trkpt lat="42.3772780" lon="-3.4126390">
        <ele>1022.2</ele>
        <time>2022-08-29T11:49:14Z</time>
      </trkpt>
      <trkpt lat="42.3772860" lon="-3.4127360">
        <ele>1022.0</ele>
        <time>2022-08-29T11:49:15Z</time>
      </trkpt>
      <trkpt lat="42.3772970" lon="-3.4128310">
        <ele>1021.4</ele>
        <time>2022-08-29T11:49:16Z</time>
      </trkpt>
      <trkpt lat="42.3773070" lon="-3.4129300">
        <ele>1021.0</ele>
        <time>2022-08-29T11:49:17Z</time>
      </trkpt>
      <trkpt lat="42.3773210" lon="-3.4130260">
        <ele>1020.4</ele>
        <time>2022-08-29T11:49:18Z</time>
      </trkpt>
      <trkpt lat="42.3773350" lon="-3.4131190">
        <ele>1020.2</ele>
        <time>2022-08-29T11:49:19Z</time>
      </trkpt>
      <trkpt lat="42.3773490" lon="-3.4132100">
        <ele>1020.0</ele>
        <time>2022-08-29T11:49:20Z</time>
      </trkpt>
      <trkpt lat="42.3773620" lon="-3.4133030">
        <ele>1019.2</ele>
        <time>2022-08-29T11:49:21Z</time>
      </trkpt>
      <trkpt lat="42.3773740" lon="-3.4133970">
        <ele>1018.8</ele>
        <time>2022-08-29T11:49:22Z</time>
      </trkpt>
      <trkpt lat="42.3773860" lon="-3.4134930">
        <ele>1018.4</ele>
        <time>2022-08-29T11:49:23Z</time>
      </trkpt>
      <trkpt lat="42.3773970" lon="-3.4135910">
        <ele>1018.2</ele>
        <time>2022-08-29T11:49:24Z</time>
      </trkpt>
      <trkpt lat="42.3774070" lon="-3.4136880">
        <ele>1018.2</ele>
        <time>2022-08-29T11:49:25Z</time>
      </trkpt>
      <trkpt lat="42.3774190" lon="-3.4137840">
        <ele>1017.8</ele>
        <time>2022-08-29T11:49:26Z</time>
      </trkpt>
      <trkpt lat="42.3774320" lon="-3.4138800">
        <ele>1017.6</ele>
        <time>2022-08-29T11:49:27Z</time>
      </trkpt>
      <trkpt lat="42.3774460" lon="-3.4139770">
        <ele>1017.6</ele>
        <time>2022-08-29T11:49:28Z</time>
      </trkpt>
      <trkpt lat="42.3774600" lon="-3.4140740">
        <ele>1017.4</ele>
        <time>2022-08-29T11:49:29Z</time>
      </trkpt>
      <trkpt lat="42.3774740" lon="-3.4141690">
        <ele>1017.4</ele>
        <time>2022-08-29T11:49:30Z</time>
      </trkpt>
      <trkpt lat="42.3774890" lon="-3.4142660">
        <ele>1017.2</ele>
        <time>2022-08-29T11:49:31Z</time>
      </trkpt>
      <trkpt lat="42.3775020" lon="-3.4143640">
        <ele>1017.0</ele>
        <time>2022-08-29T11:49:32Z</time>
      </trkpt>
      <trkpt lat="42.3775140" lon="-3.4144620">
        <ele>1016.8</ele>
        <time>2022-08-29T11:49:33Z</time>
      </trkpt>
      <trkpt lat="42.3775270" lon="-3.4145610">
        <ele>1016.8</ele>
        <time>2022-08-29T11:49:34Z</time>
      </trkpt>
      <trkpt lat="42.3775400" lon="-3.4146610">
        <ele>1016.8</ele>
        <time>2022-08-29T11:49:35Z</time>
      </trkpt>
      <trkpt lat="42.3775550" lon="-3.4147610">
        <ele>1016.6</ele>
        <time>2022-08-29T11:49:36Z</time>
      </trkpt>
      <trkpt lat="42.3775710" lon="-3.4148610">
        <ele>1016.4</ele>
        <time>2022-08-29T11:49:37Z</time>
      </trkpt>
      <trkpt lat="42.3775870" lon="-3.4149620">
        <ele>1016.2</ele>
        <time>2022-08-29T11:49:38Z</time>
      </trkpt>
      <trkpt lat="42.3776010" lon="-3.4150640">
        <ele>1016.2</ele>
        <time>2022-08-29T11:49:39Z</time>
      </trkpt>
      <trkpt lat="42.3776170" lon="-3.4151650">
        <ele>1016.0</ele>
        <time>2022-08-29T11:49:40Z</time>
      </trkpt>
      <trkpt lat="42.3776330" lon="-3.4152640">
        <ele>1016.0</ele>
        <time>2022-08-29T11:49:41Z</time>
      </trkpt>
      <trkpt lat="42.3776500" lon="-3.4153630">
        <ele>1015.8</ele>
        <time>2022-08-29T11:49:42Z</time>
      </trkpt>
      <trkpt lat="42.3776660" lon="-3.4154610">
        <ele>1015.6</ele>
        <time>2022-08-29T11:49:43Z</time>
      </trkpt>
      <trkpt lat="42.3776870" lon="-3.4155600">
        <ele>1015.6</ele>
        <time>2022-08-29T11:49:44Z</time>
      </trkpt>
      <trkpt lat="42.3777110" lon="-3.4156570">
        <ele>1015.6</ele>
        <time>2022-08-29T11:49:45Z</time>
      </trkpt>
      <trkpt lat="42.3777310" lon="-3.4157550">
        <ele>1015.6</ele>
        <time>2022-08-29T11:49:46Z</time>
      </trkpt>
      <trkpt lat="42.3777470" lon="-3.4158540">
        <ele>1015.6</ele>
        <time>2022-08-29T11:49:47Z</time>
      </trkpt>
      <trkpt lat="42.3777590" lon="-3.4159500">
        <ele>1015.4</ele>
        <time>2022-08-29T11:49:48Z</time>
      </trkpt>
      <trkpt lat="42.3777710" lon="-3.4160440">
        <ele>1015.4</ele>
        <time>2022-08-29T11:49:49Z</time>
      </trkpt>
      <trkpt lat="42.3777870" lon="-3.4161320">
        <ele>1015.2</ele>
        <time>2022-08-29T11:49:50Z</time>
      </trkpt>
      <trkpt lat="42.3778040" lon="-3.4162200">
        <ele>1015.2</ele>
        <time>2022-08-29T11:49:51Z</time>
      </trkpt>
      <trkpt lat="42.3778220" lon="-3.4163070">
        <ele>1015.2</ele>
        <time>2022-08-29T11:49:52Z</time>
      </trkpt>
      <trkpt lat="42.3778410" lon="-3.4163940">
        <ele>1014.8</ele>
        <time>2022-08-29T11:49:53Z</time>
      </trkpt>
      <trkpt lat="42.3778590" lon="-3.4164820">
        <ele>1014.8</ele>
        <time>2022-08-29T11:49:54Z</time>
      </trkpt>
      <trkpt lat="42.3778780" lon="-3.4165700">
        <ele>1014.8</ele>
        <time>2022-08-29T11:49:55Z</time>
      </trkpt>
      <trkpt lat="42.3778890" lon="-3.4166610">
        <ele>1014.8</ele>
        <time>2022-08-29T11:49:56Z</time>
      </trkpt>
      <trkpt lat="42.3778970" lon="-3.4167550">
        <ele>1014.8</ele>
        <time>2022-08-29T11:49:57Z</time>
      </trkpt>
      <trkpt lat="42.3778980" lon="-3.4168540">
        <ele>1014.8</ele>
        <time>2022-08-29T11:49:58Z</time>
      </trkpt>
      <trkpt lat="42.3778970" lon="-3.4169490">
        <ele>1014.8</ele>
        <time>2022-08-29T11:49:59Z</time>
      </trkpt>
      <trkpt lat="42.3778970" lon="-3.4170430">
        <ele>1014.8</ele>
        <time>2022-08-29T11:50:00Z</time>
      </trkpt>
      <trkpt lat="42.3778970" lon="-3.4171360">
        <ele>1014.8</ele>
        <time>2022-08-29T11:50:01Z</time>
      </trkpt>
      <trkpt lat="42.3778980" lon="-3.4172220">
        <ele>1014.8</ele>
        <time>2022-08-29T11:50:02Z</time>
      </trkpt>
      <trkpt lat="42.3779030" lon="-3.4172980">
        <ele>1014.8</ele>
        <time>2022-08-29T11:50:03Z</time>
      </trkpt>
      <trkpt lat="42.3779100" lon="-3.4173670">
        <ele>1014.6</ele>
        <time>2022-08-29T11:50:04Z</time>
      </trkpt>
      <trkpt lat="42.3779160" lon="-3.4174260">
        <ele>1014.6</ele>
        <time>2022-08-29T11:50:05Z</time>
      </trkpt>
      <trkpt lat="42.3779170" lon="-3.4174810">
        <ele>1014.8</ele>
        <time>2022-08-29T11:50:06Z</time>
      </trkpt>
      <trkpt lat="42.3779210" lon="-3.4175330">
        <ele>1014.8</ele>
        <time>2022-08-29T11:50:07Z</time>
      </trkpt>
      <trkpt lat="42.3779250" lon="-3.4175920">
        <ele>1014.8</ele>
        <time>2022-08-29T11:50:08Z</time>
      </trkpt>
      <trkpt lat="42.3779330" lon="-3.4176620">
        <ele>1014.8</ele>
        <time>2022-08-29T11:50:09Z</time>
      </trkpt>
      <trkpt lat="42.3779420" lon="-3.4177390">
        <ele>1014.8</ele>
        <time>2022-08-29T11:50:10Z</time>
      </trkpt>
      <trkpt lat="42.3779530" lon="-3.4178180">
        <ele>1014.6</ele>
        <time>2022-08-29T11:50:11Z</time>
      </trkpt>
      <trkpt lat="42.3779610" lon="-3.4179070">
        <ele>1014.6</ele>
        <time>2022-08-29T11:50:12Z</time>
      </trkpt>
      <trkpt lat="42.3779680" lon="-3.4179970">
        <ele>1014.4</ele>
        <time>2022-08-29T11:50:13Z</time>
      </trkpt>
      <trkpt lat="42.3779770" lon="-3.4180870">
        <ele>1014.4</ele>
        <time>2022-08-29T11:50:14Z</time>
      </trkpt>
      <trkpt lat="42.3779860" lon="-3.4181820">
        <ele>1014.4</ele>
        <time>2022-08-29T11:50:15Z</time>
      </trkpt>
      <trkpt lat="42.3779930" lon="-3.4182790">
        <ele>1014.0</ele>
        <time>2022-08-29T11:50:16Z</time>
      </trkpt>
      <trkpt lat="42.3779950" lon="-3.4183700">
        <ele>1013.8</ele>
        <time>2022-08-29T11:50:17Z</time>
      </trkpt>
      <trkpt lat="42.3779910" lon="-3.4184590">
        <ele>1012.6</ele>
        <time>2022-08-29T11:50:18Z</time>
      </trkpt>
      <trkpt lat="42.3779760" lon="-3.4185490">
        <ele>1012.2</ele>
        <time>2022-08-29T11:50:19Z</time>
      </trkpt>
      <trkpt lat="42.3779630" lon="-3.4186460">
        <ele>1011.6</ele>
        <time>2022-08-29T11:50:20Z</time>
      </trkpt>
      <trkpt lat="42.3779490" lon="-3.4187340">
        <ele>1011.2</ele>
        <time>2022-08-29T11:50:21Z</time>
      </trkpt>
      <trkpt lat="42.3779330" lon="-3.4188170">
        <ele>1011.0</ele>
        <time>2022-08-29T11:50:22Z</time>
      </trkpt>
      <trkpt lat="42.3779170" lon="-3.4188950">
        <ele>1010.8</ele>
        <time>2022-08-29T11:50:23Z</time>
      </trkpt>
      <trkpt lat="42.3779020" lon="-3.4189770">
        <ele>1010.8</ele>
        <time>2022-08-29T11:50:24Z</time>
      </trkpt>
      <trkpt lat="42.3778840" lon="-3.4190620">
        <ele>1010.6</ele>
        <time>2022-08-29T11:50:25Z</time>
      </trkpt>
      <trkpt lat="42.3778610" lon="-3.4191520">
        <ele>1010.4</ele>
        <time>2022-08-29T11:50:26Z</time>
      </trkpt>
      <trkpt lat="42.3778400" lon="-3.4192340">
        <ele>1010.2</ele>
        <time>2022-08-29T11:50:27Z</time>
      </trkpt>
      <trkpt lat="42.3778180" lon="-3.4193160">
        <ele>1010.2</ele>
        <time>2022-08-29T11:50:28Z</time>
      </trkpt>
      <trkpt lat="42.3777970" lon="-3.4194020">
        <ele>1010.0</ele>
        <time>2022-08-29T11:50:29Z</time>
      </trkpt>
      <trkpt lat="42.3777780" lon="-3.4194890">
        <ele>1010.2</ele>
        <time>2022-08-29T11:50:30Z</time>
      </trkpt>
      <trkpt lat="42.3777620" lon="-3.4195780">
        <ele>1010.2</ele>
        <time>2022-08-29T11:50:31Z</time>
      </trkpt>
      <trkpt lat="42.3777430" lon="-3.4196660">
        <ele>1010.2</ele>
        <time>2022-08-29T11:50:32Z</time>
      </trkpt>
      <trkpt lat="42.3777270" lon="-3.4197530">
        <ele>1010.2</ele>
        <time>2022-08-29T11:50:33Z</time>
      </trkpt>
      <trkpt lat="42.3777160" lon="-3.4198410">
        <ele>1010.2</ele>
        <time>2022-08-29T11:50:34Z</time>
      </trkpt>
      <trkpt lat="42.3777100" lon="-3.4199320">
        <ele>1010.0</ele>
        <time>2022-08-29T11:50:35Z</time>
      </trkpt>
      <trkpt lat="42.3777070" lon="-3.4200240">
        <ele>1010.0</ele>
        <time>2022-08-29T11:50:36Z</time>
      </trkpt>
      <trkpt lat="42.3777070" lon="-3.4201230">
        <ele>1010.0</ele>
        <time>2022-08-29T11:50:37Z</time>
      </trkpt>
      <trkpt lat="42.3777060" lon="-3.4202260">
        <ele>1010.0</ele>
        <time>2022-08-29T11:50:38Z</time>
      </trkpt>
      <trkpt lat="42.3777010" lon="-3.4203340">
        <ele>1010.2</ele>
        <time>2022-08-29T11:50:39Z</time>
      </trkpt>
      <trkpt lat="42.3776910" lon="-3.4204420">
        <ele>1010.2</ele>
        <time>2022-08-29T11:50:40Z</time>
      </trkpt>
      <trkpt lat="42.3776850" lon="-3.4205570">
        <ele>1010.0</ele>
        <time>2022-08-29T11:50:41Z</time>
      </trkpt>
      <trkpt lat="42.3776800" lon="-3.4206750">
        <ele>1010.0</ele>
        <time>2022-08-29T11:50:42Z</time>
      </trkpt>
      <trkpt lat="42.3776690" lon="-3.4208070">
        <ele>1009.4</ele>
        <time>2022-08-29T11:50:43Z</time>
      </trkpt>
      <trkpt lat="42.3776580" lon="-3.4209340">
        <ele>1009.4</ele>
        <time>2022-08-29T11:50:44Z</time>
      </trkpt>
      <trkpt lat="42.3776500" lon="-3.4210620">
        <ele>1008.8</ele>
        <time>2022-08-29T11:50:45Z</time>
      </trkpt>
      <trkpt lat="42.3776430" lon="-3.4211910">
        <ele>1008.4</ele>
        <time>2022-08-29T11:50:46Z</time>
      </trkpt>
      <trkpt lat="42.3776350" lon="-3.4213290">
        <ele>1008.0</ele>
        <time>2022-08-29T11:50:47Z</time>
      </trkpt>
      <trkpt lat="42.3776300" lon="-3.4214670">
        <ele>1008.0</ele>
        <time>2022-08-29T11:50:48Z</time>
      </trkpt>
      <trkpt lat="42.3776290" lon="-3.4216010">
        <ele>1007.2</ele>
        <time>2022-08-29T11:50:49Z</time>
      </trkpt>
      <trkpt lat="42.3776260" lon="-3.4217310">
        <ele>1006.6</ele>
        <time>2022-08-29T11:50:50Z</time>
      </trkpt>
      <trkpt lat="42.3776220" lon="-3.4218500">
        <ele>1005.2</ele>
        <time>2022-08-29T11:50:51Z</time>
      </trkpt>
      <trkpt lat="42.3776200" lon="-3.4219610">
        <ele>1004.2</ele>
        <time>2022-08-29T11:50:52Z</time>
      </trkpt>
      <trkpt lat="42.3776220" lon="-3.4220640">
        <ele>1003.8</ele>
        <time>2022-08-29T11:50:53Z</time>
      </trkpt>
      <trkpt lat="42.3776320" lon="-3.4221590">
        <ele>1002.8</ele>
        <time>2022-08-29T11:50:54Z</time>
      </trkpt>
      <trkpt lat="42.3776480" lon="-3.4222560">
        <ele>1002.2</ele>
        <time>2022-08-29T11:50:55Z</time>
      </trkpt>
      <trkpt lat="42.3776710" lon="-3.4223530">
        <ele>1001.4</ele>
        <time>2022-08-29T11:50:56Z</time>
      </trkpt>
      <trkpt lat="42.3777000" lon="-3.4224540">
        <ele>1000.8</ele>
        <time>2022-08-29T11:50:57Z</time>
      </trkpt>
      <trkpt lat="42.3777260" lon="-3.4225600">
        <ele>1000.2</ele>
        <time>2022-08-29T11:50:58Z</time>
      </trkpt>
      <trkpt lat="42.3777420" lon="-3.4226700">
        <ele>999.8</ele>
        <time>2022-08-29T11:50:59Z</time>
      </trkpt>
      <trkpt lat="42.3777490" lon="-3.4227870">
        <ele>999.4</ele>
        <time>2022-08-29T11:51:00Z</time>
      </trkpt>
      <trkpt lat="42.3777460" lon="-3.4229130">
        <ele>999.2</ele>
        <time>2022-08-29T11:51:01Z</time>
      </trkpt>
      <trkpt lat="42.3777340" lon="-3.4230450">
        <ele>998.8</ele>
        <time>2022-08-29T11:51:02Z</time>
      </trkpt>
      <trkpt lat="42.3777120" lon="-3.4231790">
        <ele>998.6</ele>
        <time>2022-08-29T11:51:03Z</time>
      </trkpt>
      <trkpt lat="42.3776940" lon="-3.4233110">
        <ele>998.0</ele>
        <time>2022-08-29T11:51:04Z</time>
      </trkpt>
      <trkpt lat="42.3776840" lon="-3.4234450">
        <ele>997.6</ele>
        <time>2022-08-29T11:51:05Z</time>
      </trkpt>
      <trkpt lat="42.3776860" lon="-3.4235790">
        <ele>997.4</ele>
        <time>2022-08-29T11:51:06Z</time>
      </trkpt>
      <trkpt lat="42.3776870" lon="-3.4237130">
        <ele>996.2</ele>
        <time>2022-08-29T11:51:07Z</time>
      </trkpt>
      <trkpt lat="42.3776910" lon="-3.4238550">
        <ele>995.4</ele>
        <time>2022-08-29T11:51:08Z</time>
      </trkpt>
      <trkpt lat="42.3776940" lon="-3.4240020">
        <ele>993.6</ele>
        <time>2022-08-29T11:51:09Z</time>
      </trkpt>
      <trkpt lat="42.3776920" lon="-3.4241540">
        <ele>992.8</ele>
        <time>2022-08-29T11:51:10Z</time>
      </trkpt>
      <trkpt lat="42.3776830" lon="-3.4243040">
        <ele>991.0</ele>
        <time>2022-08-29T11:51:11Z</time>
      </trkpt>
      <trkpt lat="42.3776700" lon="-3.4244590">
        <ele>991.0</ele>
        <time>2022-08-29T11:51:12Z</time>
      </trkpt>
      <trkpt lat="42.3776560" lon="-3.4246140">
        <ele>990.0</ele>
        <time>2022-08-29T11:51:13Z</time>
      </trkpt>
      <trkpt lat="42.3776400" lon="-3.4247800">
        <ele>989.4</ele>
        <time>2022-08-29T11:51:14Z</time>
      </trkpt>
      <trkpt lat="42.3776190" lon="-3.4249420">
        <ele>988.6</ele>
        <time>2022-08-29T11:51:15Z</time>
      </trkpt>
      <trkpt lat="42.3775940" lon="-3.4250990">
        <ele>987.6</ele>
        <time>2022-08-29T11:51:16Z</time>
      </trkpt>
      <trkpt lat="42.3775640" lon="-3.4252520">
        <ele>987.0</ele>
        <time>2022-08-29T11:51:17Z</time>
      </trkpt>
      <trkpt lat="42.3775350" lon="-3.4254050">
        <ele>986.8</ele>
        <time>2022-08-29T11:51:18Z</time>
      </trkpt>
      <trkpt lat="42.3775110" lon="-3.4255570">
        <ele>985.4</ele>
        <time>2022-08-29T11:51:19Z</time>
      </trkpt>
      <trkpt lat="42.3774910" lon="-3.4257060">
        <ele>984.4</ele>
        <time>2022-08-29T11:51:20Z</time>
      </trkpt>
      <trkpt lat="42.3774720" lon="-3.4258530">
        <ele>983.4</ele>
        <time>2022-08-29T11:51:21Z</time>
      </trkpt>
      <trkpt lat="42.3774550" lon="-3.4259980">
        <ele>981.8</ele>
        <time>2022-08-29T11:51:22Z</time>
      </trkpt>
      <trkpt lat="42.3774400" lon="-3.4261390">
        <ele>980.0</ele>
        <time>2022-08-29T11:51:23Z</time>
      </trkpt>
      <trkpt lat="42.3774290" lon="-3.4262790">
        <ele>979.0</ele>
        <time>2022-08-29T11:51:24Z</time>
      </trkpt>
      <trkpt lat="42.3774220" lon="-3.4264170">
        <ele>978.4</ele>
        <time>2022-08-29T11:51:25Z</time>
      </trkpt>
      <trkpt lat="42.3774150" lon="-3.4265540">
        <ele>977.4</ele>
        <time>2022-08-29T11:51:26Z</time>
      </trkpt>
      <trkpt lat="42.3774080" lon="-3.4266880">
        <ele>977.0</ele>
        <time>2022-08-29T11:51:27Z</time>
      </trkpt>
      <trkpt lat="42.3774020" lon="-3.4268190">
        <ele>976.6</ele>
        <time>2022-08-29T11:51:28Z</time>
      </trkpt>
      <trkpt lat="42.3773970" lon="-3.4269490">
        <ele>975.8</ele>
        <time>2022-08-29T11:51:29Z</time>
      </trkpt>
      <trkpt lat="42.3773930" lon="-3.4270800">
        <ele>975.6</ele>
        <time>2022-08-29T11:51:30Z</time>
      </trkpt>
      <trkpt lat="42.3773900" lon="-3.4272060">
        <ele>975.4</ele>
        <time>2022-08-29T11:51:31Z</time>
      </trkpt>
      <trkpt lat="42.3773900" lon="-3.4273300">
        <ele>975.2</ele>
        <time>2022-08-29T11:51:32Z</time>
      </trkpt>
      <trkpt lat="42.3773950" lon="-3.4274540">
        <ele>975.0</ele>
        <time>2022-08-29T11:51:33Z</time>
      </trkpt>
      <trkpt lat="42.3773990" lon="-3.4275770">
        <ele>974.8</ele>
        <time>2022-08-29T11:51:34Z</time>
      </trkpt>
      <trkpt lat="42.3774040" lon="-3.4276960">
        <ele>974.8</ele>
        <time>2022-08-29T11:51:35Z</time>
      </trkpt>
      <trkpt lat="42.3774100" lon="-3.4278130">
        <ele>974.8</ele>
        <time>2022-08-29T11:51:36Z</time>
      </trkpt>
      <trkpt lat="42.3774160" lon="-3.4279280">
        <ele>974.8</ele>
        <time>2022-08-29T11:51:37Z</time>
      </trkpt>
      <trkpt lat="42.3774210" lon="-3.4280430">
        <ele>974.6</ele>
        <time>2022-08-29T11:51:38Z</time>
      </trkpt>
      <trkpt lat="42.3774250" lon="-3.4281580">
        <ele>974.8</ele>
        <time>2022-08-29T11:51:39Z</time>
      </trkpt>
      <trkpt lat="42.3774290" lon="-3.4282710">
        <ele>974.8</ele>
        <time>2022-08-29T11:51:40Z</time>
      </trkpt>
      <trkpt lat="42.3774370" lon="-3.4283790">
        <ele>974.6</ele>
        <time>2022-08-29T11:51:41Z</time>
      </trkpt>
      <trkpt lat="42.3774430" lon="-3.4284890">
        <ele>974.6</ele>
        <time>2022-08-29T11:51:42Z</time>
      </trkpt>
      <trkpt lat="42.3774510" lon="-3.4285980">
        <ele>974.6</ele>
        <time>2022-08-29T11:51:43Z</time>
      </trkpt>
      <trkpt lat="42.3774580" lon="-3.4287080">
        <ele>974.6</ele>
        <time>2022-08-29T11:51:44Z</time>
      </trkpt>
      <trkpt lat="42.3774640" lon="-3.4288190">
        <ele>974.6</ele>
        <time>2022-08-29T11:51:45Z</time>
      </trkpt>
      <trkpt lat="42.3774700" lon="-3.4289300">
        <ele>974.4</ele>
        <time>2022-08-29T11:51:46Z</time>
      </trkpt>
      <trkpt lat="42.3774730" lon="-3.4290420">
        <ele>974.2</ele>
        <time>2022-08-29T11:51:47Z</time>
      </trkpt>
      <trkpt lat="42.3774710" lon="-3.4291560">
        <ele>974.4</ele>
        <time>2022-08-29T11:51:48Z</time>
      </trkpt>
      <trkpt lat="42.3774660" lon="-3.4292720">
        <ele>974.0</ele>
        <time>2022-08-29T11:51:49Z</time>
      </trkpt>
      <trkpt lat="42.3774580" lon="-3.4293860">
        <ele>974.0</ele>
        <time>2022-08-29T11:51:50Z</time>
      </trkpt>
      <trkpt lat="42.3774470" lon="-3.4295030">
        <ele>973.8</ele>
        <time>2022-08-29T11:51:51Z</time>
      </trkpt>
      <trkpt lat="42.3774290" lon="-3.4296230">
        <ele>973.6</ele>
        <time>2022-08-29T11:51:52Z</time>
      </trkpt>
      <trkpt lat="42.3774070" lon="-3.4297420">
        <ele>973.4</ele>
        <time>2022-08-29T11:51:53Z</time>
      </trkpt>
      <trkpt lat="42.3773760" lon="-3.4298600">
        <ele>973.6</ele>
        <time>2022-08-29T11:51:54Z</time>
      </trkpt>
      <trkpt lat="42.3773410" lon="-3.4299770">
        <ele>973.4</ele>
        <time>2022-08-29T11:51:55Z</time>
      </trkpt>
      <trkpt lat="42.3773020" lon="-3.4300910">
        <ele>973.2</ele>
        <time>2022-08-29T11:51:56Z</time>
      </trkpt>
      <trkpt lat="42.3772630" lon="-3.4302050">
        <ele>973.0</ele>
        <time>2022-08-29T11:51:57Z</time>
      </trkpt>
      <trkpt lat="42.3772290" lon="-3.4303210">
        <ele>972.6</ele>
        <time>2022-08-29T11:51:58Z</time>
      </trkpt>
      <trkpt lat="42.3772010" lon="-3.4304400">
        <ele>972.6</ele>
        <time>2022-08-29T11:51:59Z</time>
      </trkpt>
      <trkpt lat="42.3771810" lon="-3.4305610">
        <ele>972.0</ele>
        <time>2022-08-29T11:52:00Z</time>
      </trkpt>
      <trkpt lat="42.3771710" lon="-3.4306830">
        <ele>971.4</ele>
        <time>2022-08-29T11:52:01Z</time>
      </trkpt>
      <trkpt lat="42.3771660" lon="-3.4308050">
        <ele>970.8</ele>
        <time>2022-08-29T11:52:02Z</time>
      </trkpt>
      <trkpt lat="42.3771620" lon="-3.4309240">
        <ele>970.4</ele>
        <time>2022-08-29T11:52:03Z</time>
      </trkpt>
      <trkpt lat="42.3771560" lon="-3.4310440">
        <ele>969.2</ele>
        <time>2022-08-29T11:52:04Z</time>
      </trkpt>
      <trkpt lat="42.3771460" lon="-3.4311650">
        <ele>968.6</ele>
        <time>2022-08-29T11:52:05Z</time>
      </trkpt>
      <trkpt lat="42.3771340" lon="-3.4312840">
        <ele>968.4</ele>
        <time>2022-08-29T11:52:06Z</time>
      </trkpt>
      <trkpt lat="42.3771190" lon="-3.4314060">
        <ele>968.2</ele>
        <time>2022-08-29T11:52:07Z</time>
      </trkpt>
      <trkpt lat="42.3771060" lon="-3.4315280">
        <ele>967.8</ele>
        <time>2022-08-29T11:52:08Z</time>
      </trkpt>
      <trkpt lat="42.3770940" lon="-3.4316510">
        <ele>967.4</ele>
        <time>2022-08-29T11:52:09Z</time>
      </trkpt>
      <trkpt lat="42.3770770" lon="-3.4317740">
        <ele>967.2</ele>
        <time>2022-08-29T11:52:10Z</time>
      </trkpt>
      <trkpt lat="42.3770520" lon="-3.4318970">
        <ele>967.0</ele>
        <time>2022-08-29T11:52:11Z</time>
      </trkpt>
      <trkpt lat="42.3770210" lon="-3.4320170">
        <ele>966.4</ele>
        <time>2022-08-29T11:52:12Z</time>
      </trkpt>
      <trkpt lat="42.3769920" lon="-3.4321330">
        <ele>966.2</ele>
        <time>2022-08-29T11:52:13Z</time>
      </trkpt>
      <trkpt lat="42.3769710" lon="-3.4322490">
        <ele>966.0</ele>
        <time>2022-08-29T11:52:14Z</time>
      </trkpt>
      <trkpt lat="42.3769520" lon="-3.4323650">
        <ele>965.8</ele>
        <time>2022-08-29T11:52:15Z</time>
      </trkpt>
      <trkpt lat="42.3769310" lon="-3.4324810">
        <ele>965.4</ele>
        <time>2022-08-29T11:52:16Z</time>
      </trkpt>
      <trkpt lat="42.3769030" lon="-3.4325950">
        <ele>965.2</ele>
        <time>2022-08-29T11:52:17Z</time>
      </trkpt>
      <trkpt lat="42.3768680" lon="-3.4327030">
        <ele>964.8</ele>
        <time>2022-08-29T11:52:18Z</time>
      </trkpt>
      <trkpt lat="42.3768310" lon="-3.4328080">
        <ele>964.6</ele>
        <time>2022-08-29T11:52:19Z</time>
      </trkpt>
      <trkpt lat="42.3767900" lon="-3.4329100">
        <ele>964.4</ele>
        <time>2022-08-29T11:52:20Z</time>
      </trkpt>
      <trkpt lat="42.3767500" lon="-3.4330100">
        <ele>964.4</ele>
        <time>2022-08-29T11:52:21Z</time>
      </trkpt>
      <trkpt lat="42.3767080" lon="-3.4331070">
        <ele>964.0</ele>
        <time>2022-08-29T11:52:22Z</time>
      </trkpt>
      <trkpt lat="42.3766710" lon="-3.4331980">
        <ele>964.0</ele>
        <time>2022-08-29T11:52:23Z</time>
      </trkpt>
      <trkpt lat="42.3766320" lon="-3.4332880">
        <ele>964.2</ele>
        <time>2022-08-29T11:52:24Z</time>
      </trkpt>
      <trkpt lat="42.3765910" lon="-3.4333720">
        <ele>964.0</ele>
        <time>2022-08-29T11:52:25Z</time>
      </trkpt>
      <trkpt lat="42.3765470" lon="-3.4334500">
        <ele>964.0</ele>
        <time>2022-08-29T11:52:26Z</time>
      </trkpt>
      <trkpt lat="42.3765030" lon="-3.4335160">
        <ele>964.0</ele>
        <time>2022-08-29T11:52:27Z</time>
      </trkpt>
      <trkpt lat="42.3764580" lon="-3.4335700">
        <ele>963.8</ele>
        <time>2022-08-29T11:52:28Z</time>
      </trkpt>
      <trkpt lat="42.3764130" lon="-3.4336170">
        <ele>964.0</ele>
        <time>2022-08-29T11:52:29Z</time>
      </trkpt>
      <trkpt lat="42.3763660" lon="-3.4336550">
        <ele>964.0</ele>
        <time>2022-08-29T11:52:30Z</time>
      </trkpt>
      <trkpt lat="42.3763210" lon="-3.4336870">
        <ele>964.0</ele>
        <time>2022-08-29T11:52:31Z</time>
      </trkpt>
      <trkpt lat="42.3762790" lon="-3.4337220">
        <ele>964.0</ele>
        <time>2022-08-29T11:52:32Z</time>
      </trkpt>
      <trkpt lat="42.3762380" lon="-3.4337580">
        <ele>964.2</ele>
        <time>2022-08-29T11:52:33Z</time>
      </trkpt>
      <trkpt lat="42.3761980" lon="-3.4337950">
        <ele>964.2</ele>
        <time>2022-08-29T11:52:34Z</time>
      </trkpt>
      <trkpt lat="42.3761610" lon="-3.4338340">
        <ele>964.2</ele>
        <time>2022-08-29T11:52:35Z</time>
      </trkpt>
      <trkpt lat="42.3761260" lon="-3.4338780">
        <ele>965.0</ele>
        <time>2022-08-29T11:52:36Z</time>
      </trkpt>
      <trkpt lat="42.3760960" lon="-3.4339240">
        <ele>965.8</ele>
        <time>2022-08-29T11:52:37Z</time>
      </trkpt>
      <trkpt lat="42.3760680" lon="-3.4339710">
        <ele>966.4</ele>
        <time>2022-08-29T11:52:38Z</time>
      </trkpt>
      <trkpt lat="42.3760420" lon="-3.4340200">
        <ele>967.2</ele>
        <time>2022-08-29T11:52:39Z</time>
      </trkpt>
      <trkpt lat="42.3760210" lon="-3.4340690">
        <ele>967.6</ele>
        <time>2022-08-29T11:52:40Z</time>
      </trkpt>
      <trkpt lat="42.3760060" lon="-3.4341210">
        <ele>968.0</ele>
        <time>2022-08-29T11:52:41Z</time>
      </trkpt>
      <trkpt lat="42.3759960" lon="-3.4341750">
        <ele>968.4</ele>
        <time>2022-08-29T11:52:42Z</time>
      </trkpt>
      <trkpt lat="42.3759890" lon="-3.4342330">
        <ele>968.8</ele>
        <time>2022-08-29T11:52:43Z</time>
      </trkpt>
      <trkpt lat="42.3759820" lon="-3.4342930">
        <ele>969.0</ele>
        <time>2022-08-29T11:52:44Z</time>
      </trkpt>
      <trkpt lat="42.3759760" lon="-3.4343560">
        <ele>969.2</ele>
        <time>2022-08-29T11:52:45Z</time>
      </trkpt>
      <trkpt lat="42.3759690" lon="-3.4344200">
        <ele>969.2</ele>
        <time>2022-08-29T11:52:46Z</time>
      </trkpt>
      <trkpt lat="42.3759630" lon="-3.4344870">
        <ele>969.2</ele>
        <time>2022-08-29T11:52:47Z</time>
      </trkpt>
      <trkpt lat="42.3759560" lon="-3.4345550">
        <ele>969.2</ele>
        <time>2022-08-29T11:52:48Z</time>
      </trkpt>
      <trkpt lat="42.3759470" lon="-3.4346270">
        <ele>969.4</ele>
        <time>2022-08-29T11:52:49Z</time>
      </trkpt>
      <trkpt lat="42.3759400" lon="-3.4346980">
        <ele>969.4</ele>
        <time>2022-08-29T11:52:50Z</time>
      </trkpt>
      <trkpt lat="42.3759330" lon="-3.4347710">
        <ele>969.4</ele>
        <time>2022-08-29T11:52:51Z</time>
      </trkpt>
      <trkpt lat="42.3759260" lon="-3.4348450">
        <ele>969.6</ele>
        <time>2022-08-29T11:52:52Z</time>
      </trkpt>
      <trkpt lat="42.3759190" lon="-3.4349200">
        <ele>969.6</ele>
        <time>2022-08-29T11:52:53Z</time>
      </trkpt>
      <trkpt lat="42.3759120" lon="-3.4349960">
        <ele>969.6</ele>
        <time>2022-08-29T11:52:54Z</time>
      </trkpt>
      <trkpt lat="42.3759060" lon="-3.4350720">
        <ele>969.4</ele>
        <time>2022-08-29T11:52:55Z</time>
      </trkpt>
      <trkpt lat="42.3758970" lon="-3.4351490">
        <ele>969.6</ele>
        <time>2022-08-29T11:52:56Z</time>
      </trkpt>
      <trkpt lat="42.3758880" lon="-3.4352240">
        <ele>969.4</ele>
        <time>2022-08-29T11:52:57Z</time>
      </trkpt>
      <trkpt lat="42.3758780" lon="-3.4352950">
        <ele>969.6</ele>
        <time>2022-08-29T11:52:58Z</time>
      </trkpt>
      <trkpt lat="42.3758660" lon="-3.4353660">
        <ele>969.4</ele>
        <time>2022-08-29T11:52:59Z</time>
      </trkpt>
      <trkpt lat="42.3758570" lon="-3.4354390">
        <ele>969.4</ele>
        <time>2022-08-29T11:53:00Z</time>
      </trkpt>
      <trkpt lat="42.3758520" lon="-3.4355150">
        <ele>969.4</ele>
        <time>2022-08-29T11:53:01Z</time>
      </trkpt>
      <trkpt lat="42.3758480" lon="-3.4355920">
        <ele>969.4</ele>
        <time>2022-08-29T11:53:02Z</time>
      </trkpt>
      <trkpt lat="42.3758440" lon="-3.4356710">
        <ele>969.2</ele>
        <time>2022-08-29T11:53:03Z</time>
      </trkpt>
      <trkpt lat="42.3758390" lon="-3.4357510">
        <ele>969.2</ele>
        <time>2022-08-29T11:53:04Z</time>
      </trkpt>
      <trkpt lat="42.3758330" lon="-3.4358310">
        <ele>969.2</ele>
        <time>2022-08-29T11:53:05Z</time>
      </trkpt>
      <trkpt lat="42.3758240" lon="-3.4359120">
        <ele>969.2</ele>
        <time>2022-08-29T11:53:06Z</time>
      </trkpt>
      <trkpt lat="42.3758140" lon="-3.4359940">
        <ele>969.2</ele>
        <time>2022-08-29T11:53:07Z</time>
      </trkpt>
      <trkpt lat="42.3758020" lon="-3.4360760">
        <ele>969.0</ele>
        <time>2022-08-29T11:53:08Z</time>
      </trkpt>
      <trkpt lat="42.3757880" lon="-3.4361550">
        <ele>969.0</ele>
        <time>2022-08-29T11:53:09Z</time>
      </trkpt>
      <trkpt lat="42.3757740" lon="-3.4362340">
        <ele>969.0</ele>
        <time>2022-08-29T11:53:10Z</time>
      </trkpt>
      <trkpt lat="42.3757590" lon="-3.4363120">
        <ele>969.0</ele>
        <time>2022-08-29T11:53:11Z</time>
      </trkpt>
      <trkpt lat="42.3757420" lon="-3.4363900">
        <ele>969.0</ele>
        <time>2022-08-29T11:53:12Z</time>
      </trkpt>
      <trkpt lat="42.3757260" lon="-3.4364690">
        <ele>968.8</ele>
        <time>2022-08-29T11:53:13Z</time>
      </trkpt>
      <trkpt lat="42.3757130" lon="-3.4365480">
        <ele>968.8</ele>
        <time>2022-08-29T11:53:14Z</time>
      </trkpt>
      <trkpt lat="42.3757050" lon="-3.4366270">
        <ele>968.6</ele>
        <time>2022-08-29T11:53:15Z</time>
      </trkpt>
      <trkpt lat="42.3757030" lon="-3.4367070">
        <ele>968.6</ele>
        <time>2022-08-29T11:53:16Z</time>
      </trkpt>
      <trkpt lat="42.3757080" lon="-3.4367860">
        <ele>968.6</ele>
        <time>2022-08-29T11:53:17Z</time>
      </trkpt>
      <trkpt lat="42.3757180" lon="-3.4368690">
        <ele>968.6</ele>
        <time>2022-08-29T11:53:18Z</time>
      </trkpt>
      <trkpt lat="42.3757300" lon="-3.4369530">
        <ele>968.6</ele>
        <time>2022-08-29T11:53:19Z</time>
      </trkpt>
      <trkpt lat="42.3757430" lon="-3.4370400">
        <ele>968.6</ele>
        <time>2022-08-29T11:53:20Z</time>
      </trkpt>
      <trkpt lat="42.3757570" lon="-3.4371250">
        <ele>968.4</ele>
        <time>2022-08-29T11:53:21Z</time>
      </trkpt>
      <trkpt lat="42.3757710" lon="-3.4372100">
        <ele>968.4</ele>
        <time>2022-08-29T11:53:22Z</time>
      </trkpt>
      <trkpt lat="42.3757870" lon="-3.4372930">
        <ele>968.4</ele>
        <time>2022-08-29T11:53:23Z</time>
      </trkpt>
      <trkpt lat="42.3758060" lon="-3.4373760">
        <ele>968.4</ele>
        <time>2022-08-29T11:53:24Z</time>
      </trkpt>
      <trkpt lat="42.3758280" lon="-3.4374590">
        <ele>968.4</ele>
        <time>2022-08-29T11:53:25Z</time>
      </trkpt>
      <trkpt lat="42.3758520" lon="-3.4375420">
        <ele>968.2</ele>
        <time>2022-08-29T11:53:26Z</time>
      </trkpt>
      <trkpt lat="42.3758760" lon="-3.4376260">
        <ele>968.2</ele>
        <time>2022-08-29T11:53:27Z</time>
      </trkpt>
      <trkpt lat="42.3758990" lon="-3.4377130">
        <ele>968.0</ele>
        <time>2022-08-29T11:53:28Z</time>
      </trkpt>
      <trkpt lat="42.3759200" lon="-3.4378000">
        <ele>967.8</ele>
        <time>2022-08-29T11:53:29Z</time>
      </trkpt>
      <trkpt lat="42.3759400" lon="-3.4378890">
        <ele>967.6</ele>
        <time>2022-08-29T11:53:30Z</time>
      </trkpt>
      <trkpt lat="42.3759590" lon="-3.4379810">
        <ele>967.6</ele>
        <time>2022-08-29T11:53:31Z</time>
      </trkpt>
      <trkpt lat="42.3759770" lon="-3.4380750">
        <ele>967.6</ele>
        <time>2022-08-29T11:53:32Z</time>
      </trkpt>
      <trkpt lat="42.3759940" lon="-3.4381720">
        <ele>967.6</ele>
        <time>2022-08-29T11:53:33Z</time>
      </trkpt>
      <trkpt lat="42.3760100" lon="-3.4382710">
        <ele>967.4</ele>
        <time>2022-08-29T11:53:34Z</time>
      </trkpt>
      <trkpt lat="42.3760260" lon="-3.4383700">
        <ele>967.4</ele>
        <time>2022-08-29T11:53:35Z</time>
      </trkpt>
      <trkpt lat="42.3760410" lon="-3.4384710">
        <ele>967.2</ele>
        <time>2022-08-29T11:53:36Z</time>
      </trkpt>
      <trkpt lat="42.3760560" lon="-3.4385720">
        <ele>967.2</ele>
        <time>2022-08-29T11:53:37Z</time>
      </trkpt>
      <trkpt lat="42.3760730" lon="-3.4386730">
        <ele>967.2</ele>
        <time>2022-08-29T11:53:38Z</time>
      </trkpt>
      <trkpt lat="42.3760890" lon="-3.4387750">
        <ele>967.0</ele>
        <time>2022-08-29T11:53:39Z</time>
      </trkpt>
      <trkpt lat="42.3761060" lon="-3.4388770">
        <ele>966.6</ele>
        <time>2022-08-29T11:53:40Z</time>
      </trkpt>
      <trkpt lat="42.3761210" lon="-3.4389790">
        <ele>966.6</ele>
        <time>2022-08-29T11:53:41Z</time>
      </trkpt>
      <trkpt lat="42.3761340" lon="-3.4390820">
        <ele>966.4</ele>
        <time>2022-08-29T11:53:42Z</time>
      </trkpt>
      <trkpt lat="42.3761430" lon="-3.4391850">
        <ele>966.2</ele>
        <time>2022-08-29T11:53:43Z</time>
      </trkpt>
      <trkpt lat="42.3761520" lon="-3.4392880">
        <ele>966.2</ele>
        <time>2022-08-29T11:53:44Z</time>
      </trkpt>
      <trkpt lat="42.3761640" lon="-3.4393890">
        <ele>965.8</ele>
        <time>2022-08-29T11:53:45Z</time>
      </trkpt>
      <trkpt lat="42.3761780" lon="-3.4394910">
        <ele>965.8</ele>
        <time>2022-08-29T11:53:46Z</time>
      </trkpt>
      <trkpt lat="42.3761920" lon="-3.4395930">
        <ele>965.6</ele>
        <time>2022-08-29T11:53:47Z</time>
      </trkpt>
      <trkpt lat="42.3762060" lon="-3.4396940">
        <ele>965.4</ele>
        <time>2022-08-29T11:53:48Z</time>
      </trkpt>
      <trkpt lat="42.3762200" lon="-3.4397950">
        <ele>965.4</ele>
        <time>2022-08-29T11:53:49Z</time>
      </trkpt>
      <trkpt lat="42.3762330" lon="-3.4398950">
        <ele>965.4</ele>
        <time>2022-08-29T11:53:50Z</time>
      </trkpt>
      <trkpt lat="42.3762460" lon="-3.4399940">
        <ele>965.2</ele>
        <time>2022-08-29T11:53:51Z</time>
      </trkpt>
      <trkpt lat="42.3762590" lon="-3.4400930">
        <ele>965.4</ele>
        <time>2022-08-29T11:53:52Z</time>
      </trkpt>
      <trkpt lat="42.3762730" lon="-3.4401920">
        <ele>965.0</ele>
        <time>2022-08-29T11:53:53Z</time>
      </trkpt>
      <trkpt lat="42.3762900" lon="-3.4402880">
        <ele>965.2</ele>
        <time>2022-08-29T11:53:54Z</time>
      </trkpt>
      <trkpt lat="42.3763080" lon="-3.4403820">
        <ele>965.2</ele>
        <time>2022-08-29T11:53:55Z</time>
      </trkpt>
      <trkpt lat="42.3763250" lon="-3.4404750">
        <ele>965.2</ele>
        <time>2022-08-29T11:53:56Z</time>
      </trkpt>
      <trkpt lat="42.3763380" lon="-3.4405670">
        <ele>965.0</ele>
        <time>2022-08-29T11:53:57Z</time>
      </trkpt>
      <trkpt lat="42.3763460" lon="-3.4406590">
        <ele>965.2</ele>
        <time>2022-08-29T11:53:58Z</time>
      </trkpt>
      <trkpt lat="42.3763490" lon="-3.4407480">
        <ele>965.2</ele>
        <time>2022-08-29T11:53:59Z</time>
      </trkpt>
      <trkpt lat="42.3763480" lon="-3.4408350">
        <ele>965.0</ele>
        <time>2022-08-29T11:54:00Z</time>
      </trkpt>
      <trkpt lat="42.3763430" lon="-3.4409180">
        <ele>965.2</ele>
        <time>2022-08-29T11:54:01Z</time>
      </trkpt>
      <trkpt lat="42.3763330" lon="-3.4409960">
        <ele>965.0</ele>
        <time>2022-08-29T11:54:02Z</time>
      </trkpt>
      <trkpt lat="42.3763160" lon="-3.4410680">
        <ele>965.4</ele>
        <time>2022-08-29T11:54:03Z</time>
      </trkpt>
      <trkpt lat="42.3762950" lon="-3.4411340">
        <ele>965.2</ele>
        <time>2022-08-29T11:54:04Z</time>
      </trkpt>
      <trkpt lat="42.3762720" lon="-3.4411950">
        <ele>965.4</ele>
        <time>2022-08-29T11:54:05Z</time>
      </trkpt>
      <trkpt lat="42.3762470" lon="-3.4412470">
        <ele>965.6</ele>
        <time>2022-08-29T11:54:06Z</time>
      </trkpt>
      <trkpt lat="42.3762180" lon="-3.4412890">
        <ele>965.8</ele>
        <time>2022-08-29T11:54:07Z</time>
      </trkpt>
      <trkpt lat="42.3761870" lon="-3.4413240">
        <ele>966.2</ele>
        <time>2022-08-29T11:54:08Z</time>
      </trkpt>
      <trkpt lat="42.3761560" lon="-3.4413550">
        <ele>966.4</ele>
        <time>2022-08-29T11:54:09Z</time>
      </trkpt>
      <trkpt lat="42.3761270" lon="-3.4413880">
        <ele>966.6</ele>
        <time>2022-08-29T11:54:10Z</time>
      </trkpt>
      <trkpt lat="42.3760990" lon="-3.4414270">
        <ele>967.0</ele>
        <time>2022-08-29T11:54:11Z</time>
      </trkpt>
      <trkpt lat="42.3760720" lon="-3.4414700">
        <ele>967.4</ele>
        <time>2022-08-29T11:54:12Z</time>
      </trkpt>
      <trkpt lat="42.3760460" lon="-3.4415160">
        <ele>968.0</ele>
        <time>2022-08-29T11:54:13Z</time>
      </trkpt>
      <trkpt lat="42.3760230" lon="-3.4415670">
        <ele>968.6</ele>
        <time>2022-08-29T11:54:14Z</time>
      </trkpt>
      <trkpt lat="42.3760030" lon="-3.4416210">
        <ele>969.2</ele>
        <time>2022-08-29T11:54:15Z</time>
      </trkpt>
      <trkpt lat="42.3759900" lon="-3.4416790">
        <ele>969.8</ele>
        <time>2022-08-29T11:54:16Z</time>
      </trkpt>
      <trkpt lat="42.3759820" lon="-3.4417400">
        <ele>970.0</ele>
        <time>2022-08-29T11:54:17Z</time>
      </trkpt>
      <trkpt lat="42.3759750" lon="-3.4418030">
        <ele>970.4</ele>
        <time>2022-08-29T11:54:18Z</time>
      </trkpt>
      <trkpt lat="42.3759680" lon="-3.4418680">
        <ele>970.8</ele>
        <time>2022-08-29T11:54:19Z</time>
      </trkpt>
      <trkpt lat="42.3759600" lon="-3.4419310">
        <ele>971.0</ele>
        <time>2022-08-29T11:54:20Z</time>
      </trkpt>
      <trkpt lat="42.3759510" lon="-3.4419950">
        <ele>971.0</ele>
        <time>2022-08-29T11:54:21Z</time>
      </trkpt>
      <trkpt lat="42.3759420" lon="-3.4420600">
        <ele>971.0</ele>
        <time>2022-08-29T11:54:22Z</time>
      </trkpt>
      <trkpt lat="42.3759300" lon="-3.4421240">
        <ele>971.2</ele>
        <time>2022-08-29T11:54:23Z</time>
      </trkpt>
      <trkpt lat="42.3759150" lon="-3.4421870">
        <ele>971.4</ele>
        <time>2022-08-29T11:54:24Z</time>
      </trkpt>
      <trkpt lat="42.3759030" lon="-3.4422440">
        <ele>971.6</ele>
        <time>2022-08-29T11:54:25Z</time>
      </trkpt>
      <trkpt lat="42.3758900" lon="-3.4422950">
        <ele>971.8</ele>
        <time>2022-08-29T11:54:26Z</time>
      </trkpt>
      <trkpt lat="42.3758750" lon="-3.4423480">
        <ele>971.8</ele>
        <time>2022-08-29T11:54:27Z</time>
      </trkpt>
      <trkpt lat="42.3758610" lon="-3.4424000">
        <ele>971.8</ele>
        <time>2022-08-29T11:54:28Z</time>
      </trkpt>
      <trkpt lat="42.3758490" lon="-3.4424480">
        <ele>971.8</ele>
        <time>2022-08-29T11:54:29Z</time>
      </trkpt>
      <trkpt lat="42.3758380" lon="-3.4424950">
        <ele>972.0</ele>
        <time>2022-08-29T11:54:30Z</time>
      </trkpt>
      <trkpt lat="42.3758270" lon="-3.4425410">
        <ele>972.0</ele>
        <time>2022-08-29T11:54:31Z</time>
      </trkpt>
      <trkpt lat="42.3758200" lon="-3.4425840">
        <ele>972.0</ele>
        <time>2022-08-29T11:54:32Z</time>
      </trkpt>
      <trkpt lat="42.3758140" lon="-3.4426250">
        <ele>972.0</ele>
        <time>2022-08-29T11:54:33Z</time>
      </trkpt>
      <trkpt lat="42.3758100" lon="-3.4426690">
        <ele>972.2</ele>
        <time>2022-08-29T11:54:34Z</time>
      </trkpt>
      <trkpt lat="42.3758080" lon="-3.4427150">
        <ele>972.4</ele>
        <time>2022-08-29T11:54:35Z</time>
      </trkpt>
      <trkpt lat="42.3758100" lon="-3.4427620">
        <ele>973.0</ele>
        <time>2022-08-29T11:54:36Z</time>
      </trkpt>
      <trkpt lat="42.3758140" lon="-3.4428160">
        <ele>973.4</ele>
        <time>2022-08-29T11:54:37Z</time>
      </trkpt>
      <trkpt lat="42.3758170" lon="-3.4428720">
        <ele>974.0</ele>
        <time>2022-08-29T11:54:38Z</time>
      </trkpt>
      <trkpt lat="42.3758200" lon="-3.4429250">
        <ele>974.4</ele>
        <time>2022-08-29T11:54:39Z</time>
      </trkpt>
      <trkpt lat="42.3758210" lon="-3.4429780">
        <ele>974.4</ele>
        <time>2022-08-29T11:54:40Z</time>
      </trkpt>
      <trkpt lat="42.3758180" lon="-3.4430310">
        <ele>974.8</ele>
        <time>2022-08-29T11:54:41Z</time>
      </trkpt>
      <trkpt lat="42.3758120" lon="-3.4430800">
        <ele>975.0</ele>
        <time>2022-08-29T11:54:42Z</time>
      </trkpt>
      <trkpt lat="42.3758040" lon="-3.4431260">
        <ele>975.2</ele>
        <time>2022-08-29T11:54:43Z</time>
      </trkpt>
      <trkpt lat="42.3757940" lon="-3.4431700">
        <ele>975.2</ele>
        <time>2022-08-29T11:54:44Z</time>
      </trkpt>
      <trkpt lat="42.3757880" lon="-3.4432120">
        <ele>975.4</ele>
        <time>2022-08-29T11:54:45Z</time>
      </trkpt>
      <trkpt lat="42.3757800" lon="-3.4432550">
        <ele>975.6</ele>
        <time>2022-08-29T11:54:46Z</time>
      </trkpt>
      <trkpt lat="42.3757720" lon="-3.4432980">
        <ele>975.4</ele>
        <time>2022-08-29T11:54:47Z</time>
      </trkpt>
      <trkpt lat="42.3757570" lon="-3.4433480">
        <ele>975.4</ele>
        <time>2022-08-29T11:54:48Z</time>
      </trkpt>
      <trkpt lat="42.3757430" lon="-3.4433920">
        <ele>975.6</ele>
        <time>2022-08-29T11:54:49Z</time>
      </trkpt>
      <trkpt lat="42.3757320" lon="-3.4434340">
        <ele>975.6</ele>
        <time>2022-08-29T11:54:50Z</time>
      </trkpt>
      <trkpt lat="42.3757180" lon="-3.4434810">
        <ele>976.0</ele>
        <time>2022-08-29T11:54:51Z</time>
      </trkpt>
      <trkpt lat="42.3757080" lon="-3.4435310">
        <ele>976.2</ele>
        <time>2022-08-29T11:54:52Z</time>
      </trkpt>
      <trkpt lat="42.3756940" lon="-3.4435860">
        <ele>976.0</ele>
        <time>2022-08-29T11:54:53Z</time>
      </trkpt>
      <trkpt lat="42.3756770" lon="-3.4436370">
        <ele>976.4</ele>
        <time>2022-08-29T11:54:54Z</time>
      </trkpt>
      <trkpt lat="42.3756630" lon="-3.4436860">
        <ele>976.8</ele>
        <time>2022-08-29T11:54:55Z</time>
      </trkpt>
      <trkpt lat="42.3756510" lon="-3.4437340">
        <ele>977.2</ele>
        <time>2022-08-29T11:54:56Z</time>
      </trkpt>
      <trkpt lat="42.3756380" lon="-3.4437850">
        <ele>977.4</ele>
        <time>2022-08-29T11:54:57Z</time>
      </trkpt>
      <trkpt lat="42.3756260" lon="-3.4438350">
        <ele>977.6</ele>
        <time>2022-08-29T11:54:58Z</time>
      </trkpt>
      <trkpt lat="42.3756150" lon="-3.4438910">
        <ele>977.6</ele>
        <time>2022-08-29T11:54:59Z</time>
      </trkpt>
      <trkpt lat="42.3756030" lon="-3.4439380">
        <ele>977.6</ele>
        <time>2022-08-29T11:55:00Z</time>
      </trkpt>
      <trkpt lat="42.3755890" lon="-3.4439870">
        <ele>977.8</ele>
        <time>2022-08-29T11:55:01Z</time>
      </trkpt>
      <trkpt lat="42.3755750" lon="-3.4440400">
        <ele>977.8</ele>
        <time>2022-08-29T11:55:02Z</time>
      </trkpt>
      <trkpt lat="42.3755640" lon="-3.4440870">
        <ele>978.0</ele>
        <time>2022-08-29T11:55:03Z</time>
      </trkpt>
      <trkpt lat="42.3755440" lon="-3.4441330">
        <ele>977.8</ele>
        <time>2022-08-29T11:55:04Z</time>
      </trkpt>
      <trkpt lat="42.3755240" lon="-3.4441800">
        <ele>978.0</ele>
        <time>2022-08-29T11:55:05Z</time>
      </trkpt>
      <trkpt lat="42.3755050" lon="-3.4442250">
        <ele>978.2</ele>
        <time>2022-08-29T11:55:06Z</time>
      </trkpt>
      <trkpt lat="42.3754830" lon="-3.4442740">
        <ele>978.2</ele>
        <time>2022-08-29T11:55:07Z</time>
      </trkpt>
      <trkpt lat="42.3754620" lon="-3.4443250">
        <ele>978.2</ele>
        <time>2022-08-29T11:55:08Z</time>
      </trkpt>
      <trkpt lat="42.3754440" lon="-3.4443770">
        <ele>978.4</ele>
        <time>2022-08-29T11:55:09Z</time>
      </trkpt>
      <trkpt lat="42.3754320" lon="-3.4444240">
        <ele>978.4</ele>
        <time>2022-08-29T11:55:10Z</time>
      </trkpt>
      <trkpt lat="42.3754180" lon="-3.4444720">
        <ele>978.6</ele>
        <time>2022-08-29T11:55:11Z</time>
      </trkpt>
      <trkpt lat="42.3754040" lon="-3.4445170">
        <ele>978.6</ele>
        <time>2022-08-29T11:55:12Z</time>
      </trkpt>
      <trkpt lat="42.3753880" lon="-3.4445690">
        <ele>978.6</ele>
        <time>2022-08-29T11:55:13Z</time>
      </trkpt>
      <trkpt lat="42.3753730" lon="-3.4446200">
        <ele>978.8</ele>
        <time>2022-08-29T11:55:14Z</time>
      </trkpt>
      <trkpt lat="42.3753650" lon="-3.4446740">
        <ele>979.0</ele>
        <time>2022-08-29T11:55:15Z</time>
      </trkpt>
      <trkpt lat="42.3753590" lon="-3.4447230">
        <ele>979.2</ele>
        <time>2022-08-29T11:55:16Z</time>
      </trkpt>
      <trkpt lat="42.3753520" lon="-3.4447740">
        <ele>979.2</ele>
        <time>2022-08-29T11:55:17Z</time>
      </trkpt>
      <trkpt lat="42.3753430" lon="-3.4448360">
        <ele>979.4</ele>
        <time>2022-08-29T11:55:18Z</time>
      </trkpt>
      <trkpt lat="42.3753340" lon="-3.4448950">
        <ele>979.6</ele>
        <time>2022-08-29T11:55:19Z</time>
      </trkpt>
      <trkpt lat="42.3753240" lon="-3.4449570">
        <ele>979.8</ele>
        <time>2022-08-29T11:55:20Z</time>
      </trkpt>
      <trkpt lat="42.3753070" lon="-3.4450220">
        <ele>979.8</ele>
        <time>2022-08-29T11:55:21Z</time>
      </trkpt>
      <trkpt lat="42.3752870" lon="-3.4450810">
        <ele>980.0</ele>
        <time>2022-08-29T11:55:22Z</time>
      </trkpt>
      <trkpt lat="42.3752740" lon="-3.4451370">
        <ele>980.0</ele>
        <time>2022-08-29T11:55:23Z</time>
      </trkpt>
      <trkpt lat="42.3752630" lon="-3.4451890">
        <ele>980.0</ele>
        <time>2022-08-29T11:55:24Z</time>
      </trkpt>
      <trkpt lat="42.3752550" lon="-3.4452590">
        <ele>980.0</ele>
        <time>2022-08-29T11:55:25Z</time>
      </trkpt>
      <trkpt lat="42.3752460" lon="-3.4453250">
        <ele>980.2</ele>
        <time>2022-08-29T11:55:26Z</time>
      </trkpt>
      <trkpt lat="42.3752350" lon="-3.4453910">
        <ele>980.6</ele>
        <time>2022-08-29T11:55:27Z</time>
      </trkpt>
      <trkpt lat="42.3752230" lon="-3.4454530">
        <ele>980.8</ele>
        <time>2022-08-29T11:55:28Z</time>
      </trkpt>
      <trkpt lat="42.3752140" lon="-3.4455120">
        <ele>981.0</ele>
        <time>2022-08-29T11:55:29Z</time>
      </trkpt>
      <trkpt lat="42.3752030" lon="-3.4455730">
        <ele>981.0</ele>
        <time>2022-08-29T11:55:30Z</time>
      </trkpt>
      <trkpt lat="42.3751950" lon="-3.4456310">
        <ele>981.0</ele>
        <time>2022-08-29T11:55:31Z</time>
      </trkpt>
      <trkpt lat="42.3751880" lon="-3.4456880">
        <ele>981.2</ele>
        <time>2022-08-29T11:55:32Z</time>
      </trkpt>
      <trkpt lat="42.3751810" lon="-3.4457460">
        <ele>981.2</ele>
        <time>2022-08-29T11:55:33Z</time>
      </trkpt>
      <trkpt lat="42.3751680" lon="-3.4458070">
        <ele>981.4</ele>
        <time>2022-08-29T11:55:34Z</time>
      </trkpt>
      <trkpt lat="42.3751550" lon="-3.4458660">
        <ele>981.4</ele>
        <time>2022-08-29T11:55:35Z</time>
      </trkpt>
      <trkpt lat="42.3751470" lon="-3.4459230">
        <ele>981.6</ele>
        <time>2022-08-29T11:55:36Z</time>
      </trkpt>
      <trkpt lat="42.3751410" lon="-3.4459790">
        <ele>981.6</ele>
        <time>2022-08-29T11:55:37Z</time>
      </trkpt>
      <trkpt lat="42.3751340" lon="-3.4460370">
        <ele>981.8</ele>
        <time>2022-08-29T11:55:38Z</time>
      </trkpt>
      <trkpt lat="42.3751250" lon="-3.4460940">
        <ele>981.8</ele>
        <time>2022-08-29T11:55:39Z</time>
      </trkpt>
      <trkpt lat="42.3751150" lon="-3.4461450">
        <ele>981.8</ele>
        <time>2022-08-29T11:55:40Z</time>
      </trkpt>
      <trkpt lat="42.3751100" lon="-3.4461950">
        <ele>982.0</ele>
        <time>2022-08-29T11:55:41Z</time>
      </trkpt>
      <trkpt lat="42.3751050" lon="-3.4462470">
        <ele>982.2</ele>
        <time>2022-08-29T11:55:42Z</time>
      </trkpt>
      <trkpt lat="42.3751020" lon="-3.4462960">
        <ele>982.4</ele>
        <time>2022-08-29T11:55:43Z</time>
      </trkpt>
      <trkpt lat="42.3750970" lon="-3.4463420">
        <ele>982.6</ele>
        <time>2022-08-29T11:55:44Z</time>
      </trkpt>
      <trkpt lat="42.3750910" lon="-3.4463850">
        <ele>982.4</ele>
        <time>2022-08-29T11:55:45Z</time>
      </trkpt>
      <trkpt lat="42.3750870" lon="-3.4464270">
        <ele>982.6</ele>
        <time>2022-08-29T11:55:46Z</time>
      </trkpt>
      <trkpt lat="42.3750800" lon="-3.4464700">
        <ele>982.6</ele>
        <time>2022-08-29T11:55:47Z</time>
      </trkpt>
      <trkpt lat="42.3750710" lon="-3.4465140">
        <ele>982.8</ele>
        <time>2022-08-29T11:55:48Z</time>
      </trkpt>
      <trkpt lat="42.3750630" lon="-3.4465580">
        <ele>982.8</ele>
        <time>2022-08-29T11:55:49Z</time>
      </trkpt>
      <trkpt lat="42.3750570" lon="-3.4466020">
        <ele>983.0</ele>
        <time>2022-08-29T11:55:50Z</time>
      </trkpt>
      <trkpt lat="42.3750530" lon="-3.4466430">
        <ele>983.0</ele>
        <time>2022-08-29T11:55:51Z</time>
      </trkpt>
      <trkpt lat="42.3750470" lon="-3.4466850">
        <ele>983.2</ele>
        <time>2022-08-29T11:55:52Z</time>
      </trkpt>
      <trkpt lat="42.3750410" lon="-3.4467280">
        <ele>983.2</ele>
        <time>2022-08-29T11:55:53Z</time>
      </trkpt>
      <trkpt lat="42.3750340" lon="-3.4467730">
        <ele>983.2</ele>
        <time>2022-08-29T11:55:54Z</time>
      </trkpt>
      <trkpt lat="42.3750250" lon="-3.4468220">
        <ele>983.0</ele>
        <time>2022-08-29T11:55:55Z</time>
      </trkpt>
      <trkpt lat="42.3750170" lon="-3.4468710">
        <ele>983.2</ele>
        <time>2022-08-29T11:55:56Z</time>
      </trkpt>
      <trkpt lat="42.3750080" lon="-3.4469200">
        <ele>983.2</ele>
        <time>2022-08-29T11:55:57Z</time>
      </trkpt>
      <trkpt lat="42.3749990" lon="-3.4469690">
        <ele>983.2</ele>
        <time>2022-08-29T11:55:58Z</time>
      </trkpt>
      <trkpt lat="42.3749900" lon="-3.4470190">
        <ele>983.2</ele>
        <time>2022-08-29T11:55:59Z</time>
      </trkpt>
      <trkpt lat="42.3749790" lon="-3.4470740">
        <ele>983.4</ele>
        <time>2022-08-29T11:56:00Z</time>
      </trkpt>
      <trkpt lat="42.3749650" lon="-3.4471270">
        <ele>983.4</ele>
        <time>2022-08-29T11:56:01Z</time>
      </trkpt>
      <trkpt lat="42.3749470" lon="-3.4471790">
        <ele>983.2</ele>
        <time>2022-08-29T11:56:02Z</time>
      </trkpt>
      <trkpt lat="42.3749320" lon="-3.4472320">
        <ele>983.2</ele>
        <time>2022-08-29T11:56:03Z</time>
      </trkpt>
      <trkpt lat="42.3749190" lon="-3.4472890">
        <ele>983.2</ele>
        <time>2022-08-29T11:56:04Z</time>
      </trkpt>
      <trkpt lat="42.3749070" lon="-3.4473470">
        <ele>983.2</ele>
        <time>2022-08-29T11:56:05Z</time>
      </trkpt>
      <trkpt lat="42.3748960" lon="-3.4474090">
        <ele>983.2</ele>
        <time>2022-08-29T11:56:06Z</time>
      </trkpt>
      <trkpt lat="42.3748840" lon="-3.4474720">
        <ele>983.4</ele>
        <time>2022-08-29T11:56:07Z</time>
      </trkpt>
      <trkpt lat="42.3748720" lon="-3.4475360">
        <ele>983.2</ele>
        <time>2022-08-29T11:56:08Z</time>
      </trkpt>
      <trkpt lat="42.3748590" lon="-3.4476020">
        <ele>983.0</ele>
        <time>2022-08-29T11:56:09Z</time>
      </trkpt>
      <trkpt lat="42.3748460" lon="-3.4476690">
        <ele>983.2</ele>
        <time>2022-08-29T11:56:10Z</time>
      </trkpt>
      <trkpt lat="42.3748340" lon="-3.4477380">
        <ele>983.0</ele>
        <time>2022-08-29T11:56:11Z</time>
      </trkpt>
      <trkpt lat="42.3748210" lon="-3.4478060">
        <ele>983.0</ele>
        <time>2022-08-29T11:56:12Z</time>
      </trkpt>
      <trkpt lat="42.3748070" lon="-3.4478760">
        <ele>983.2</ele>
        <time>2022-08-29T11:56:13Z</time>
      </trkpt>
      <trkpt lat="42.3747940" lon="-3.4479470">
        <ele>983.0</ele>
        <time>2022-08-29T11:56:14Z</time>
      </trkpt>
      <trkpt lat="42.3747810" lon="-3.4480190">
        <ele>983.0</ele>
        <time>2022-08-29T11:56:15Z</time>
      </trkpt>
      <trkpt lat="42.3747690" lon="-3.4480940">
        <ele>983.0</ele>
        <time>2022-08-29T11:56:16Z</time>
      </trkpt>
      <trkpt lat="42.3747590" lon="-3.4481670">
        <ele>983.0</ele>
        <time>2022-08-29T11:56:17Z</time>
      </trkpt>
      <trkpt lat="42.3747500" lon="-3.4482430">
        <ele>983.0</ele>
        <time>2022-08-29T11:56:18Z</time>
      </trkpt>
      <trkpt lat="42.3747410" lon="-3.4483160">
        <ele>983.0</ele>
        <time>2022-08-29T11:56:19Z</time>
      </trkpt>
      <trkpt lat="42.3747280" lon="-3.4483870">
        <ele>982.8</ele>
        <time>2022-08-29T11:56:20Z</time>
      </trkpt>
      <trkpt lat="42.3747130" lon="-3.4484580">
        <ele>982.8</ele>
        <time>2022-08-29T11:56:21Z</time>
      </trkpt>
      <trkpt lat="42.3747000" lon="-3.4485280">
        <ele>983.0</ele>
        <time>2022-08-29T11:56:22Z</time>
      </trkpt>
      <trkpt lat="42.3746930" lon="-3.4485990">
        <ele>983.0</ele>
        <time>2022-08-29T11:56:23Z</time>
      </trkpt>
      <trkpt lat="42.3746890" lon="-3.4486700">
        <ele>982.8</ele>
        <time>2022-08-29T11:56:24Z</time>
      </trkpt>
      <trkpt lat="42.3746880" lon="-3.4487400">
        <ele>982.8</ele>
        <time>2022-08-29T11:56:25Z</time>
      </trkpt>
      <trkpt lat="42.3746850" lon="-3.4488080">
        <ele>982.8</ele>
        <time>2022-08-29T11:56:26Z</time>
      </trkpt>
      <trkpt lat="42.3746830" lon="-3.4488790">
        <ele>982.8</ele>
        <time>2022-08-29T11:56:27Z</time>
      </trkpt>
      <trkpt lat="42.3746830" lon="-3.4489530">
        <ele>982.8</ele>
        <time>2022-08-29T11:56:28Z</time>
      </trkpt>
      <trkpt lat="42.3746850" lon="-3.4490290">
        <ele>983.0</ele>
        <time>2022-08-29T11:56:29Z</time>
      </trkpt>
      <trkpt lat="42.3746860" lon="-3.4491000">
        <ele>983.0</ele>
        <time>2022-08-29T11:56:30Z</time>
      </trkpt>
      <trkpt lat="42.3746840" lon="-3.4491690">
        <ele>982.6</ele>
        <time>2022-08-29T11:56:31Z</time>
      </trkpt>
      <trkpt lat="42.3746830" lon="-3.4492320">
        <ele>982.6</ele>
        <time>2022-08-29T11:56:32Z</time>
      </trkpt>
      <trkpt lat="42.3746840" lon="-3.4492930">
        <ele>982.8</ele>
        <time>2022-08-29T11:56:33Z</time>
      </trkpt>
      <trkpt lat="42.3746840" lon="-3.4493560">
        <ele>982.6</ele>
        <time>2022-08-29T11:56:34Z</time>
      </trkpt>
      <trkpt lat="42.3746850" lon="-3.4494170">
        <ele>982.6</ele>
        <time>2022-08-29T11:56:35Z</time>
      </trkpt>
      <trkpt lat="42.3746850" lon="-3.4494810">
        <ele>982.6</ele>
        <time>2022-08-29T11:56:36Z</time>
      </trkpt>
      <trkpt lat="42.3746850" lon="-3.4495400">
        <ele>982.6</ele>
        <time>2022-08-29T11:56:37Z</time>
      </trkpt>
      <trkpt lat="42.3746840" lon="-3.4495990">
        <ele>982.6</ele>
        <time>2022-08-29T11:56:38Z</time>
      </trkpt>
      <trkpt lat="42.3746830" lon="-3.4496600">
        <ele>982.6</ele>
        <time>2022-08-29T11:56:39Z</time>
      </trkpt>
      <trkpt lat="42.3746840" lon="-3.4497220">
        <ele>982.6</ele>
        <time>2022-08-29T11:56:40Z</time>
      </trkpt>
      <trkpt lat="42.3746870" lon="-3.4497840">
        <ele>982.6</ele>
        <time>2022-08-29T11:56:41Z</time>
      </trkpt>
      <trkpt lat="42.3746920" lon="-3.4498480">
        <ele>982.6</ele>
        <time>2022-08-29T11:56:42Z</time>
      </trkpt>
      <trkpt lat="42.3746950" lon="-3.4499140">
        <ele>982.4</ele>
        <time>2022-08-29T11:56:43Z</time>
      </trkpt>
      <trkpt lat="42.3746950" lon="-3.4499800">
        <ele>982.4</ele>
        <time>2022-08-29T11:56:44Z</time>
      </trkpt>
      <trkpt lat="42.3746900" lon="-3.4500460">
        <ele>982.4</ele>
        <time>2022-08-29T11:56:45Z</time>
      </trkpt>
      <trkpt lat="42.3746810" lon="-3.4501130">
        <ele>982.6</ele>
        <time>2022-08-29T11:56:46Z</time>
      </trkpt>
      <trkpt lat="42.3746760" lon="-3.4501770">
        <ele>982.6</ele>
        <time>2022-08-29T11:56:47Z</time>
      </trkpt>
      <trkpt lat="42.3746660" lon="-3.4502390">
        <ele>982.6</ele>
        <time>2022-08-29T11:56:48Z</time>
      </trkpt>
      <trkpt lat="42.3746520" lon="-3.4503010">
        <ele>982.6</ele>
        <time>2022-08-29T11:56:49Z</time>
      </trkpt>
      <trkpt lat="42.3746410" lon="-3.4503630">
        <ele>982.4</ele>
        <time>2022-08-29T11:56:50Z</time>
      </trkpt>
      <trkpt lat="42.3746290" lon="-3.4504290">
        <ele>982.4</ele>
        <time>2022-08-29T11:56:51Z</time>
      </trkpt>
      <trkpt lat="42.3746180" lon="-3.4504960">
        <ele>982.6</ele>
        <time>2022-08-29T11:56:52Z</time>
      </trkpt>
      <trkpt lat="42.3746080" lon="-3.4505640">
        <ele>982.4</ele>
        <time>2022-08-29T11:56:53Z</time>
      </trkpt>
      <trkpt lat="42.3745960" lon="-3.4506340">
        <ele>982.6</ele>
        <time>2022-08-29T11:56:54Z</time>
      </trkpt>
      <trkpt lat="42.3745850" lon="-3.4507050">
        <ele>982.8</ele>
        <time>2022-08-29T11:56:55Z</time>
      </trkpt>
      <trkpt lat="42.3745730" lon="-3.4507790">
        <ele>982.6</ele>
        <time>2022-08-29T11:56:56Z</time>
      </trkpt>
      <trkpt lat="42.3745670" lon="-3.4508510">
        <ele>982.6</ele>
        <time>2022-08-29T11:56:57Z</time>
      </trkpt>
      <trkpt lat="42.3745570" lon="-3.4509260">
        <ele>982.8</ele>
        <time>2022-08-29T11:56:58Z</time>
      </trkpt>
      <trkpt lat="42.3745480" lon="-3.4510020">
        <ele>982.6</ele>
        <time>2022-08-29T11:56:59Z</time>
      </trkpt>
      <trkpt lat="42.3745410" lon="-3.4510730">
        <ele>982.6</ele>
        <time>2022-08-29T11:57:00Z</time>
      </trkpt>
      <trkpt lat="42.3745380" lon="-3.4511420">
        <ele>982.6</ele>
        <time>2022-08-29T11:57:01Z</time>
      </trkpt>
      <trkpt lat="42.3745330" lon="-3.4512110">
        <ele>982.6</ele>
        <time>2022-08-29T11:57:02Z</time>
      </trkpt>
      <trkpt lat="42.3745240" lon="-3.4512860">
        <ele>982.6</ele>
        <time>2022-08-29T11:57:03Z</time>
      </trkpt>
      <trkpt lat="42.3745180" lon="-3.4513590">
        <ele>982.8</ele>
        <time>2022-08-29T11:57:04Z</time>
      </trkpt>
      <trkpt lat="42.3745160" lon="-3.4514340">
        <ele>982.8</ele>
        <time>2022-08-29T11:57:05Z</time>
      </trkpt>
      <trkpt lat="42.3745160" lon="-3.4515090">
        <ele>982.6</ele>
        <time>2022-08-29T11:57:06Z</time>
      </trkpt>
      <trkpt lat="42.3745150" lon="-3.4515870">
        <ele>982.6</ele>
        <time>2022-08-29T11:57:07Z</time>
      </trkpt>
      <trkpt lat="42.3745170" lon="-3.4516650">
        <ele>982.6</ele>
        <time>2022-08-29T11:57:08Z</time>
      </trkpt>
      <trkpt lat="42.3745200" lon="-3.4517400">
        <ele>982.8</ele>
        <time>2022-08-29T11:57:09Z</time>
      </trkpt>
      <trkpt lat="42.3745240" lon="-3.4518140">
        <ele>982.6</ele>
        <time>2022-08-29T11:57:10Z</time>
      </trkpt>
      <trkpt lat="42.3745270" lon="-3.4518910">
        <ele>982.6</ele>
        <time>2022-08-29T11:57:11Z</time>
      </trkpt>
      <trkpt lat="42.3745310" lon="-3.4519710">
        <ele>982.6</ele>
        <time>2022-08-29T11:57:12Z</time>
      </trkpt>
      <trkpt lat="42.3745310" lon="-3.4520500">
        <ele>982.6</ele>
        <time>2022-08-29T11:57:13Z</time>
      </trkpt>
      <trkpt lat="42.3745270" lon="-3.4521330">
        <ele>982.4</ele>
        <time>2022-08-29T11:57:14Z</time>
      </trkpt>
      <trkpt lat="42.3745190" lon="-3.4522150">
        <ele>982.4</ele>
        <time>2022-08-29T11:57:15Z</time>
      </trkpt>
      <trkpt lat="42.3745040" lon="-3.4522980">
        <ele>982.4</ele>
        <time>2022-08-29T11:57:16Z</time>
      </trkpt>
      <trkpt lat="42.3744840" lon="-3.4523740">
        <ele>982.2</ele>
        <time>2022-08-29T11:57:17Z</time>
      </trkpt>
      <trkpt lat="42.3744550" lon="-3.4524490">
        <ele>982.2</ele>
        <time>2022-08-29T11:57:18Z</time>
      </trkpt>
      <trkpt lat="42.3744210" lon="-3.4525080">
        <ele>982.2</ele>
        <time>2022-08-29T11:57:19Z</time>
      </trkpt>
      <trkpt lat="42.3743840" lon="-3.4525660">
        <ele>982.2</ele>
        <time>2022-08-29T11:57:20Z</time>
      </trkpt>
      <trkpt lat="42.3743490" lon="-3.4526290">
        <ele>982.2</ele>
        <time>2022-08-29T11:57:21Z</time>
      </trkpt>
      <trkpt lat="42.3743220" lon="-3.4526950">
        <ele>982.4</ele>
        <time>2022-08-29T11:57:22Z</time>
      </trkpt>
      <trkpt lat="42.3743020" lon="-3.4527620">
        <ele>982.4</ele>
        <time>2022-08-29T11:57:23Z</time>
      </trkpt>
      <trkpt lat="42.3742850" lon="-3.4528310">
        <ele>982.2</ele>
        <time>2022-08-29T11:57:24Z</time>
      </trkpt>
      <trkpt lat="42.3742730" lon="-3.4528980">
        <ele>982.2</ele>
        <time>2022-08-29T11:57:25Z</time>
      </trkpt>
      <trkpt lat="42.3742610" lon="-3.4529730">
        <ele>982.2</ele>
        <time>2022-08-29T11:57:26Z</time>
      </trkpt>
      <trkpt lat="42.3742460" lon="-3.4530480">
        <ele>982.2</ele>
        <time>2022-08-29T11:57:27Z</time>
      </trkpt>
      <trkpt lat="42.3742310" lon="-3.4531180">
        <ele>982.2</ele>
        <time>2022-08-29T11:57:28Z</time>
      </trkpt>
      <trkpt lat="42.3742260" lon="-3.4531930">
        <ele>982.4</ele>
        <time>2022-08-29T11:57:29Z</time>
      </trkpt>
      <trkpt lat="42.3742290" lon="-3.4532740">
        <ele>982.2</ele>
        <time>2022-08-29T11:57:30Z</time>
      </trkpt>
      <trkpt lat="42.3742370" lon="-3.4533560">
        <ele>982.2</ele>
        <time>2022-08-29T11:57:31Z</time>
      </trkpt>
      <trkpt lat="42.3742450" lon="-3.4534370">
        <ele>982.2</ele>
        <time>2022-08-29T11:57:32Z</time>
      </trkpt>
      <trkpt lat="42.3742520" lon="-3.4535190">
        <ele>982.2</ele>
        <time>2022-08-29T11:57:33Z</time>
      </trkpt>
      <trkpt lat="42.3742540" lon="-3.4536010">
        <ele>982.2</ele>
        <time>2022-08-29T11:57:34Z</time>
      </trkpt>
      <trkpt lat="42.3742530" lon="-3.4536910">
        <ele>982.2</ele>
        <time>2022-08-29T11:57:35Z</time>
      </trkpt>
      <trkpt lat="42.3742490" lon="-3.4537760">
        <ele>982.4</ele>
        <time>2022-08-29T11:57:36Z</time>
      </trkpt>
      <trkpt lat="42.3742470" lon="-3.4538610">
        <ele>982.2</ele>
        <time>2022-08-29T11:57:37Z</time>
      </trkpt>
      <trkpt lat="42.3742460" lon="-3.4539460">
        <ele>982.2</ele>
        <time>2022-08-29T11:57:38Z</time>
      </trkpt>
      <trkpt lat="42.3742450" lon="-3.4540400">
        <ele>982.2</ele>
        <time>2022-08-29T11:57:39Z</time>
      </trkpt>
      <trkpt lat="42.3742440" lon="-3.4541390">
        <ele>982.2</ele>
        <time>2022-08-29T11:57:40Z</time>
      </trkpt>
      <trkpt lat="42.3742410" lon="-3.4542320">
        <ele>982.2</ele>
        <time>2022-08-29T11:57:41Z</time>
      </trkpt>
      <trkpt lat="42.3742310" lon="-3.4543260">
        <ele>981.8</ele>
        <time>2022-08-29T11:57:42Z</time>
      </trkpt>
      <trkpt lat="42.3742130" lon="-3.4544200">
        <ele>982.0</ele>
        <time>2022-08-29T11:57:43Z</time>
      </trkpt>
      <trkpt lat="42.3741960" lon="-3.4545190">
        <ele>981.6</ele>
        <time>2022-08-29T11:57:44Z</time>
      </trkpt>
      <trkpt lat="42.3741720" lon="-3.4546120">
        <ele>981.6</ele>
        <time>2022-08-29T11:57:45Z</time>
      </trkpt>
      <trkpt lat="42.3741460" lon="-3.4546900">
        <ele>981.6</ele>
        <time>2022-08-29T11:57:46Z</time>
      </trkpt>
      <trkpt lat="42.3741160" lon="-3.4547680">
        <ele>981.4</ele>
        <time>2022-08-29T11:57:47Z</time>
      </trkpt>
      <trkpt lat="42.3740860" lon="-3.4548480">
        <ele>981.4</ele>
        <time>2022-08-29T11:57:48Z</time>
      </trkpt>
      <trkpt lat="42.3740600" lon="-3.4549300">
        <ele>981.4</ele>
        <time>2022-08-29T11:57:49Z</time>
      </trkpt>
      <trkpt lat="42.3740370" lon="-3.4550100">
        <ele>981.4</ele>
        <time>2022-08-29T11:57:50Z</time>
      </trkpt>
      <trkpt lat="42.3740110" lon="-3.4550840">
        <ele>981.4</ele>
        <time>2022-08-29T11:57:51Z</time>
      </trkpt>
      <trkpt lat="42.3739870" lon="-3.4551570">
        <ele>981.2</ele>
        <time>2022-08-29T11:57:52Z</time>
      </trkpt>
      <trkpt lat="42.3739670" lon="-3.4552350">
        <ele>981.2</ele>
        <time>2022-08-29T11:57:53Z</time>
      </trkpt>
      <trkpt lat="42.3739490" lon="-3.4553170">
        <ele>981.2</ele>
        <time>2022-08-29T11:57:54Z</time>
      </trkpt>
      <trkpt lat="42.3739310" lon="-3.4553930">
        <ele>981.0</ele>
        <time>2022-08-29T11:57:55Z</time>
      </trkpt>
      <trkpt lat="42.3739140" lon="-3.4554770">
        <ele>981.0</ele>
        <time>2022-08-29T11:57:56Z</time>
      </trkpt>
      <trkpt lat="42.3738970" lon="-3.4555600">
        <ele>981.0</ele>
        <time>2022-08-29T11:57:57Z</time>
      </trkpt>
      <trkpt lat="42.3738720" lon="-3.4556430">
        <ele>980.8</ele>
        <time>2022-08-29T11:57:58Z</time>
      </trkpt>
      <trkpt lat="42.3738570" lon="-3.4557280">
        <ele>981.0</ele>
        <time>2022-08-29T11:57:59Z</time>
      </trkpt>
      <trkpt lat="42.3738450" lon="-3.4558130">
        <ele>980.8</ele>
        <time>2022-08-29T11:58:00Z</time>
      </trkpt>
      <trkpt lat="42.3738380" lon="-3.4559040">
        <ele>980.8</ele>
        <time>2022-08-29T11:58:01Z</time>
      </trkpt>
      <trkpt lat="42.3738280" lon="-3.4559940">
        <ele>980.6</ele>
        <time>2022-08-29T11:58:02Z</time>
      </trkpt>
      <trkpt lat="42.3738100" lon="-3.4560920">
        <ele>980.6</ele>
        <time>2022-08-29T11:58:03Z</time>
      </trkpt>
      <trkpt lat="42.3737960" lon="-3.4561860">
        <ele>980.4</ele>
        <time>2022-08-29T11:58:04Z</time>
      </trkpt>
      <trkpt lat="42.3737820" lon="-3.4562820">
        <ele>980.4</ele>
        <time>2022-08-29T11:58:05Z</time>
      </trkpt>
      <trkpt lat="42.3737690" lon="-3.4563780">
        <ele>980.4</ele>
        <time>2022-08-29T11:58:06Z</time>
      </trkpt>
      <trkpt lat="42.3737550" lon="-3.4564810">
        <ele>980.4</ele>
        <time>2022-08-29T11:58:07Z</time>
      </trkpt>
      <trkpt lat="42.3737370" lon="-3.4565810">
        <ele>980.2</ele>
        <time>2022-08-29T11:58:08Z</time>
      </trkpt>
      <trkpt lat="42.3737160" lon="-3.4566720">
        <ele>980.2</ele>
        <time>2022-08-29T11:58:09Z</time>
      </trkpt>
      <trkpt lat="42.3737000" lon="-3.4567590">
        <ele>980.2</ele>
        <time>2022-08-29T11:58:10Z</time>
      </trkpt>
      <trkpt lat="42.3736790" lon="-3.4568470">
        <ele>980.0</ele>
        <time>2022-08-29T11:58:11Z</time>
      </trkpt>
      <trkpt lat="42.3736570" lon="-3.4569350">
        <ele>979.8</ele>
        <time>2022-08-29T11:58:12Z</time>
      </trkpt>
      <trkpt lat="42.3736360" lon="-3.4570240">
        <ele>979.4</ele>
        <time>2022-08-29T11:58:13Z</time>
      </trkpt>
      <trkpt lat="42.3736170" lon="-3.4571150">
        <ele>979.4</ele>
        <time>2022-08-29T11:58:14Z</time>
      </trkpt>
      <trkpt lat="42.3735990" lon="-3.4572120">
        <ele>979.0</ele>
        <time>2022-08-29T11:58:15Z</time>
      </trkpt>
      <trkpt lat="42.3735760" lon="-3.4573070">
        <ele>979.0</ele>
        <time>2022-08-29T11:58:16Z</time>
      </trkpt>
      <trkpt lat="42.3735520" lon="-3.4574010">
        <ele>979.0</ele>
        <time>2022-08-29T11:58:17Z</time>
      </trkpt>
      <trkpt lat="42.3735280" lon="-3.4574880">
        <ele>978.6</ele>
        <time>2022-08-29T11:58:18Z</time>
      </trkpt>
      <trkpt lat="42.3735050" lon="-3.4575760">
        <ele>978.6</ele>
        <time>2022-08-29T11:58:19Z</time>
      </trkpt>
      <trkpt lat="42.3734880" lon="-3.4576620">
        <ele>978.2</ele>
        <time>2022-08-29T11:58:20Z</time>
      </trkpt>
      <trkpt lat="42.3734720" lon="-3.4577530">
        <ele>978.2</ele>
        <time>2022-08-29T11:58:21Z</time>
      </trkpt>
      <trkpt lat="42.3734550" lon="-3.4578380">
        <ele>978.2</ele>
        <time>2022-08-29T11:58:22Z</time>
      </trkpt>
      <trkpt lat="42.3734370" lon="-3.4579210">
        <ele>977.8</ele>
        <time>2022-08-29T11:58:23Z</time>
      </trkpt>
      <trkpt lat="42.3734200" lon="-3.4580010">
        <ele>977.8</ele>
        <time>2022-08-29T11:58:24Z</time>
      </trkpt>
      <trkpt lat="42.3734040" lon="-3.4580780">
        <ele>977.8</ele>
        <time>2022-08-29T11:58:25Z</time>
      </trkpt>
      <trkpt lat="42.3733840" lon="-3.4581550">
        <ele>978.0</ele>
        <time>2022-08-29T11:58:26Z</time>
      </trkpt>
      <trkpt lat="42.3733610" lon="-3.4582330">
        <ele>977.8</ele>
        <time>2022-08-29T11:58:27Z</time>
      </trkpt>
      <trkpt lat="42.3733400" lon="-3.4583040">
        <ele>977.8</ele>
        <time>2022-08-29T11:58:28Z</time>
      </trkpt>
      <trkpt lat="42.3733230" lon="-3.4583700">
        <ele>977.6</ele>
        <time>2022-08-29T11:58:29Z</time>
      </trkpt>
      <trkpt lat="42.3733070" lon="-3.4584370">
        <ele>977.6</ele>
        <time>2022-08-29T11:58:30Z</time>
      </trkpt>
      <trkpt lat="42.3732930" lon="-3.4585050">
        <ele>977.6</ele>
        <time>2022-08-29T11:58:31Z</time>
      </trkpt>
      <trkpt lat="42.3732770" lon="-3.4585750">
        <ele>977.6</ele>
        <time>2022-08-29T11:58:32Z</time>
      </trkpt>
      <trkpt lat="42.3732570" lon="-3.4586450">
        <ele>977.6</ele>
        <time>2022-08-29T11:58:33Z</time>
      </trkpt>
      <trkpt lat="42.3732350" lon="-3.4587170">
        <ele>977.6</ele>
        <time>2022-08-29T11:58:34Z</time>
      </trkpt>
      <trkpt lat="42.3732120" lon="-3.4587900">
        <ele>977.4</ele>
        <time>2022-08-29T11:58:35Z</time>
      </trkpt>
      <trkpt lat="42.3731900" lon="-3.4588670">
        <ele>977.2</ele>
        <time>2022-08-29T11:58:36Z</time>
      </trkpt>
      <trkpt lat="42.3731680" lon="-3.4589420">
        <ele>977.4</ele>
        <time>2022-08-29T11:58:37Z</time>
      </trkpt>
      <trkpt lat="42.3731480" lon="-3.4590160">
        <ele>977.4</ele>
        <time>2022-08-29T11:58:38Z</time>
      </trkpt>
      <trkpt lat="42.3731270" lon="-3.4590900">
        <ele>977.4</ele>
        <time>2022-08-29T11:58:39Z</time>
      </trkpt>
      <trkpt lat="42.3731070" lon="-3.4591650">
        <ele>977.2</ele>
        <time>2022-08-29T11:58:40Z</time>
      </trkpt>
      <trkpt lat="42.3730860" lon="-3.4592390">
        <ele>977.2</ele>
        <time>2022-08-29T11:58:41Z</time>
      </trkpt>
      <trkpt lat="42.3730630" lon="-3.4593150">
        <ele>977.2</ele>
        <time>2022-08-29T11:58:42Z</time>
      </trkpt>
      <trkpt lat="42.3730390" lon="-3.4593910">
        <ele>977.2</ele>
        <time>2022-08-29T11:58:43Z</time>
      </trkpt>
      <trkpt lat="42.3730150" lon="-3.4594730">
        <ele>977.2</ele>
        <time>2022-08-29T11:58:44Z</time>
      </trkpt>
      <trkpt lat="42.3729930" lon="-3.4595530">
        <ele>977.2</ele>
        <time>2022-08-29T11:58:45Z</time>
      </trkpt>
      <trkpt lat="42.3729700" lon="-3.4596320">
        <ele>977.0</ele>
        <time>2022-08-29T11:58:46Z</time>
      </trkpt>
      <trkpt lat="42.3729440" lon="-3.4597130">
        <ele>976.8</ele>
        <time>2022-08-29T11:58:47Z</time>
      </trkpt>
      <trkpt lat="42.3729160" lon="-3.4597940">
        <ele>976.8</ele>
        <time>2022-08-29T11:58:48Z</time>
      </trkpt>
      <trkpt lat="42.3728890" lon="-3.4598770">
        <ele>976.6</ele>
        <time>2022-08-29T11:58:49Z</time>
      </trkpt>
      <trkpt lat="42.3728620" lon="-3.4599600">
        <ele>976.4</ele>
        <time>2022-08-29T11:58:50Z</time>
      </trkpt>
      <trkpt lat="42.3728350" lon="-3.4600400">
        <ele>976.4</ele>
        <time>2022-08-29T11:58:51Z</time>
      </trkpt>
      <trkpt lat="42.3728060" lon="-3.4601240">
        <ele>976.4</ele>
        <time>2022-08-29T11:58:52Z</time>
      </trkpt>
      <trkpt lat="42.3727790" lon="-3.4602080">
        <ele>976.2</ele>
        <time>2022-08-29T11:58:53Z</time>
      </trkpt>
      <trkpt lat="42.3727550" lon="-3.4602910">
        <ele>976.2</ele>
        <time>2022-08-29T11:58:54Z</time>
      </trkpt>
      <trkpt lat="42.3727270" lon="-3.4603740">
        <ele>976.0</ele>
        <time>2022-08-29T11:58:55Z</time>
      </trkpt>
      <trkpt lat="42.3727010" lon="-3.4604570">
        <ele>976.0</ele>
        <time>2022-08-29T11:58:56Z</time>
      </trkpt>
      <trkpt lat="42.3726710" lon="-3.4605410">
        <ele>975.8</ele>
        <time>2022-08-29T11:58:57Z</time>
      </trkpt>
      <trkpt lat="42.3726380" lon="-3.4606220">
        <ele>975.8</ele>
        <time>2022-08-29T11:58:58Z</time>
      </trkpt>
      <trkpt lat="42.3726030" lon="-3.4607020">
        <ele>975.8</ele>
        <time>2022-08-29T11:58:59Z</time>
      </trkpt>
      <trkpt lat="42.3725650" lon="-3.4607800">
        <ele>975.6</ele>
        <time>2022-08-29T11:59:00Z</time>
      </trkpt>
      <trkpt lat="42.3725290" lon="-3.4608570">
        <ele>975.2</ele>
        <time>2022-08-29T11:59:01Z</time>
      </trkpt>
      <trkpt lat="42.3724920" lon="-3.4609320">
        <ele>975.2</ele>
        <time>2022-08-29T11:59:02Z</time>
      </trkpt>
      <trkpt lat="42.3724560" lon="-3.4610070">
        <ele>975.2</ele>
        <time>2022-08-29T11:59:03Z</time>
      </trkpt>
      <trkpt lat="42.3724230" lon="-3.4610800">
        <ele>975.2</ele>
        <time>2022-08-29T11:59:04Z</time>
      </trkpt>
      <trkpt lat="42.3723950" lon="-3.4611530">
        <ele>974.6</ele>
        <time>2022-08-29T11:59:05Z</time>
      </trkpt>
      <trkpt lat="42.3723680" lon="-3.4612260">
        <ele>974.4</ele>
        <time>2022-08-29T11:59:06Z</time>
      </trkpt>
      <trkpt lat="42.3723440" lon="-3.4612990">
        <ele>974.2</ele>
        <time>2022-08-29T11:59:07Z</time>
      </trkpt>
      <trkpt lat="42.3723210" lon="-3.4613680">
        <ele>974.0</ele>
        <time>2022-08-29T11:59:08Z</time>
      </trkpt>
      <trkpt lat="42.3722980" lon="-3.4614370">
        <ele>973.8</ele>
        <time>2022-08-29T11:59:09Z</time>
      </trkpt>
      <trkpt lat="42.3722750" lon="-3.4615050">
        <ele>973.8</ele>
        <time>2022-08-29T11:59:10Z</time>
      </trkpt>
      <trkpt lat="42.3722550" lon="-3.4615710">
        <ele>973.6</ele>
        <time>2022-08-29T11:59:11Z</time>
      </trkpt>
      <trkpt lat="42.3722390" lon="-3.4616370">
        <ele>973.8</ele>
        <time>2022-08-29T11:59:12Z</time>
      </trkpt>
      <trkpt lat="42.3722250" lon="-3.4617060">
        <ele>973.6</ele>
        <time>2022-08-29T11:59:13Z</time>
      </trkpt>
      <trkpt lat="42.3722120" lon="-3.4617790">
        <ele>973.6</ele>
        <time>2022-08-29T11:59:14Z</time>
      </trkpt>
      <trkpt lat="42.3721990" lon="-3.4618540">
        <ele>973.6</ele>
        <time>2022-08-29T11:59:15Z</time>
      </trkpt>
      <trkpt lat="42.3721820" lon="-3.4619270">
        <ele>973.6</ele>
        <time>2022-08-29T11:59:16Z</time>
      </trkpt>
      <trkpt lat="42.3721640" lon="-3.4619990">
        <ele>973.4</ele>
        <time>2022-08-29T11:59:17Z</time>
      </trkpt>
      <trkpt lat="42.3721480" lon="-3.4620740">
        <ele>973.4</ele>
        <time>2022-08-29T11:59:18Z</time>
      </trkpt>
      <trkpt lat="42.3721350" lon="-3.4621490">
        <ele>973.4</ele>
        <time>2022-08-29T11:59:19Z</time>
      </trkpt>
      <trkpt lat="42.3721260" lon="-3.4622260">
        <ele>973.4</ele>
        <time>2022-08-29T11:59:20Z</time>
      </trkpt>
      <trkpt lat="42.3721200" lon="-3.4623050">
        <ele>973.4</ele>
        <time>2022-08-29T11:59:21Z</time>
      </trkpt>
      <trkpt lat="42.3721110" lon="-3.4623830">
        <ele>973.4</ele>
        <time>2022-08-29T11:59:22Z</time>
      </trkpt>
      <trkpt lat="42.3721010" lon="-3.4624600">
        <ele>973.4</ele>
        <time>2022-08-29T11:59:23Z</time>
      </trkpt>
      <trkpt lat="42.3720930" lon="-3.4625380">
        <ele>973.4</ele>
        <time>2022-08-29T11:59:24Z</time>
      </trkpt>
      <trkpt lat="42.3720800" lon="-3.4626150">
        <ele>973.2</ele>
        <time>2022-08-29T11:59:25Z</time>
      </trkpt>
      <trkpt lat="42.3720670" lon="-3.4626910">
        <ele>973.2</ele>
        <time>2022-08-29T11:59:26Z</time>
      </trkpt>
      <trkpt lat="42.3720500" lon="-3.4627680">
        <ele>973.4</ele>
        <time>2022-08-29T11:59:27Z</time>
      </trkpt>
      <trkpt lat="42.3720300" lon="-3.4628450">
        <ele>973.4</ele>
        <time>2022-08-29T11:59:28Z</time>
      </trkpt>
      <trkpt lat="42.3720110" lon="-3.4629230">
        <ele>973.4</ele>
        <time>2022-08-29T11:59:29Z</time>
      </trkpt>
      <trkpt lat="42.3719940" lon="-3.4630010">
        <ele>973.2</ele>
        <time>2022-08-29T11:59:30Z</time>
      </trkpt>
      <trkpt lat="42.3719770" lon="-3.4630810">
        <ele>973.2</ele>
        <time>2022-08-29T11:59:31Z</time>
      </trkpt>
      <trkpt lat="42.3719610" lon="-3.4631600">
        <ele>973.0</ele>
        <time>2022-08-29T11:59:32Z</time>
      </trkpt>
      <trkpt lat="42.3719480" lon="-3.4632410">
        <ele>972.8</ele>
        <time>2022-08-29T11:59:33Z</time>
      </trkpt>
      <trkpt lat="42.3719410" lon="-3.4633220">
        <ele>972.8</ele>
        <time>2022-08-29T11:59:34Z</time>
      </trkpt>
      <trkpt lat="42.3719380" lon="-3.4634040">
        <ele>972.6</ele>
        <time>2022-08-29T11:59:35Z</time>
      </trkpt>
      <trkpt lat="42.3719370" lon="-3.4634890">
        <ele>972.6</ele>
        <time>2022-08-29T11:59:36Z</time>
      </trkpt>
      <trkpt lat="42.3719330" lon="-3.4635770">
        <ele>972.6</ele>
        <time>2022-08-29T11:59:37Z</time>
      </trkpt>
      <trkpt lat="42.3719320" lon="-3.4636640">
        <ele>972.6</ele>
        <time>2022-08-29T11:59:38Z</time>
      </trkpt>
      <trkpt lat="42.3719310" lon="-3.4637520">
        <ele>972.4</ele>
        <time>2022-08-29T11:59:39Z</time>
      </trkpt>
      <trkpt lat="42.3719290" lon="-3.4638390">
        <ele>972.4</ele>
        <time>2022-08-29T11:59:40Z</time>
      </trkpt>
      <trkpt lat="42.3719250" lon="-3.4639270">
        <ele>972.4</ele>
        <time>2022-08-29T11:59:41Z</time>
      </trkpt>
      <trkpt lat="42.3719210" lon="-3.4640150">
        <ele>972.2</ele>
        <time>2022-08-29T11:59:42Z</time>
      </trkpt>
      <trkpt lat="42.3719140" lon="-3.4641030">
        <ele>972.2</ele>
        <time>2022-08-29T11:59:43Z</time>
      </trkpt>
      <trkpt lat="42.3719040" lon="-3.4641900">
        <ele>972.2</ele>
        <time>2022-08-29T11:59:44Z</time>
      </trkpt>
      <trkpt lat="42.3718880" lon="-3.4642780">
        <ele>972.0</ele>
        <time>2022-08-29T11:59:45Z</time>
      </trkpt>
      <trkpt lat="42.3718720" lon="-3.4643660">
        <ele>972.0</ele>
        <time>2022-08-29T11:59:46Z</time>
      </trkpt>
      <trkpt lat="42.3718590" lon="-3.4644540">
        <ele>972.0</ele>
        <time>2022-08-29T11:59:47Z</time>
      </trkpt>
      <trkpt lat="42.3718500" lon="-3.4645450">
        <ele>971.8</ele>
        <time>2022-08-29T11:59:48Z</time>
      </trkpt>
      <trkpt lat="42.3718430" lon="-3.4646380">
        <ele>971.8</ele>
        <time>2022-08-29T11:59:49Z</time>
      </trkpt>
      <trkpt lat="42.3718370" lon="-3.4647330">
        <ele>971.8</ele>
        <time>2022-08-29T11:59:50Z</time>
      </trkpt>
      <trkpt lat="42.3718320" lon="-3.4648300">
        <ele>971.6</ele>
        <time>2022-08-29T11:59:51Z</time>
      </trkpt>
      <trkpt lat="42.3718300" lon="-3.4649260">
        <ele>971.6</ele>
        <time>2022-08-29T11:59:52Z</time>
      </trkpt>
      <trkpt lat="42.3718300" lon="-3.4650230">
        <ele>971.6</ele>
        <time>2022-08-29T11:59:53Z</time>
      </trkpt>
      <trkpt lat="42.3718330" lon="-3.4651230">
        <ele>971.2</ele>
        <time>2022-08-29T11:59:54Z</time>
      </trkpt>
      <trkpt lat="42.3718360" lon="-3.4652220">
        <ele>971.2</ele>
        <time>2022-08-29T11:59:55Z</time>
      </trkpt>
      <trkpt lat="42.3718430" lon="-3.4653200">
        <ele>971.2</ele>
        <time>2022-08-29T11:59:56Z</time>
      </trkpt>
      <trkpt lat="42.3718490" lon="-3.4654190">
        <ele>971.2</ele>
        <time>2022-08-29T11:59:57Z</time>
      </trkpt>
      <trkpt lat="42.3718540" lon="-3.4655190">
        <ele>971.2</ele>
        <time>2022-08-29T11:59:58Z</time>
      </trkpt>
      <trkpt lat="42.3718610" lon="-3.4656180">
        <ele>971.2</ele>
        <time>2022-08-29T11:59:59Z</time>
      </trkpt>
      <trkpt lat="42.3718680" lon="-3.4657170">
        <ele>971.2</ele>
        <time>2022-08-29T12:00:00Z</time>
      </trkpt>
      <trkpt lat="42.3718760" lon="-3.4658170">
        <ele>971.0</ele>
        <time>2022-08-29T12:00:01Z</time>
      </trkpt>
      <trkpt lat="42.3718860" lon="-3.4659160">
        <ele>970.8</ele>
        <time>2022-08-29T12:00:02Z</time>
      </trkpt>
      <trkpt lat="42.3718960" lon="-3.4660140">
        <ele>970.8</ele>
        <time>2022-08-29T12:00:03Z</time>
      </trkpt>
      <trkpt lat="42.3719080" lon="-3.4661100">
        <ele>970.6</ele>
        <time>2022-08-29T12:00:04Z</time>
      </trkpt>
      <trkpt lat="42.3719200" lon="-3.4662060">
        <ele>970.4</ele>
        <time>2022-08-29T12:00:05Z</time>
      </trkpt>
      <trkpt lat="42.3719330" lon="-3.4662990">
        <ele>970.4</ele>
        <time>2022-08-29T12:00:06Z</time>
      </trkpt>
      <trkpt lat="42.3719470" lon="-3.4663920">
        <ele>970.4</ele>
        <time>2022-08-29T12:00:07Z</time>
      </trkpt>
      <trkpt lat="42.3719620" lon="-3.4664840">
        <ele>970.4</ele>
        <time>2022-08-29T12:00:08Z</time>
      </trkpt>
      <trkpt lat="42.3719740" lon="-3.4665770">
        <ele>970.4</ele>
        <time>2022-08-29T12:00:09Z</time>
      </trkpt>
      <trkpt lat="42.3719910" lon="-3.4666680">
        <ele>970.4</ele>
        <time>2022-08-29T12:00:10Z</time>
      </trkpt>
      <trkpt lat="42.3720070" lon="-3.4667560">
        <ele>970.4</ele>
        <time>2022-08-29T12:00:11Z</time>
      </trkpt>
      <trkpt lat="42.3720200" lon="-3.4668410">
        <ele>970.4</ele>
        <time>2022-08-29T12:00:12Z</time>
      </trkpt>
      <trkpt lat="42.3720330" lon="-3.4669250">
        <ele>970.4</ele>
        <time>2022-08-29T12:00:13Z</time>
      </trkpt>
      <trkpt lat="42.3720470" lon="-3.4670060">
        <ele>970.6</ele>
        <time>2022-08-29T12:00:14Z</time>
      </trkpt>
      <trkpt lat="42.3720590" lon="-3.4670870">
        <ele>970.6</ele>
        <time>2022-08-29T12:00:15Z</time>
      </trkpt>
      <trkpt lat="42.3720720" lon="-3.4671670">
        <ele>970.6</ele>
        <time>2022-08-29T12:00:16Z</time>
      </trkpt>
      <trkpt lat="42.3720850" lon="-3.4672440">
        <ele>970.6</ele>
        <time>2022-08-29T12:00:17Z</time>
      </trkpt>
      <trkpt lat="42.3720980" lon="-3.4673180">
        <ele>970.8</ele>
        <time>2022-08-29T12:00:18Z</time>
      </trkpt>
      <trkpt lat="42.3721090" lon="-3.4673930">
        <ele>970.6</ele>
        <time>2022-08-29T12:00:19Z</time>
      </trkpt>
      <trkpt lat="42.3721200" lon="-3.4674660">
        <ele>971.0</ele>
        <time>2022-08-29T12:00:20Z</time>
      </trkpt>
      <trkpt lat="42.3721300" lon="-3.4675390">
        <ele>971.0</ele>
        <time>2022-08-29T12:00:21Z</time>
      </trkpt>
      <trkpt lat="42.3721420" lon="-3.4676090">
        <ele>971.2</ele>
        <time>2022-08-29T12:00:22Z</time>
      </trkpt>
      <trkpt lat="42.3721530" lon="-3.4676800">
        <ele>971.4</ele>
        <time>2022-08-29T12:00:23Z</time>
      </trkpt>
      <trkpt lat="42.3721640" lon="-3.4677500">
        <ele>971.6</ele>
        <time>2022-08-29T12:00:24Z</time>
      </trkpt>
      <trkpt lat="42.3721780" lon="-3.4678170">
        <ele>971.8</ele>
        <time>2022-08-29T12:00:25Z</time>
      </trkpt>
      <trkpt lat="42.3721910" lon="-3.4678840">
        <ele>972.0</ele>
        <time>2022-08-29T12:00:26Z</time>
      </trkpt>
      <trkpt lat="42.3722030" lon="-3.4679520">
        <ele>972.2</ele>
        <time>2022-08-29T12:00:27Z</time>
      </trkpt>
      <trkpt lat="42.3722140" lon="-3.4680170">
        <ele>972.4</ele>
        <time>2022-08-29T12:00:28Z</time>
      </trkpt>
      <trkpt lat="42.3722240" lon="-3.4680830">
        <ele>972.4</ele>
        <time>2022-08-29T12:00:29Z</time>
      </trkpt>
      <trkpt lat="42.3722330" lon="-3.4681490">
        <ele>972.6</ele>
        <time>2022-08-29T12:00:30Z</time>
      </trkpt>
      <trkpt lat="42.3722390" lon="-3.4682140">
        <ele>972.8</ele>
        <time>2022-08-29T12:00:31Z</time>
      </trkpt>
      <trkpt lat="42.3722430" lon="-3.4682780">
        <ele>973.0</ele>
        <time>2022-08-29T12:00:32Z</time>
      </trkpt>
      <trkpt lat="42.3722430" lon="-3.4683420">
        <ele>973.0</ele>
        <time>2022-08-29T12:00:33Z</time>
      </trkpt>
      <trkpt lat="42.3722400" lon="-3.4684020">
        <ele>973.4</ele>
        <time>2022-08-29T12:00:34Z</time>
      </trkpt>
      <trkpt lat="42.3722370" lon="-3.4684640">
        <ele>973.4</ele>
        <time>2022-08-29T12:00:35Z</time>
      </trkpt>
      <trkpt lat="42.3722310" lon="-3.4685340">
        <ele>973.6</ele>
        <time>2022-08-29T12:00:36Z</time>
      </trkpt>
      <trkpt lat="42.3722150" lon="-3.4686140">
        <ele>973.6</ele>
        <time>2022-08-29T12:00:37Z</time>
      </trkpt>
      <trkpt lat="42.3722020" lon="-3.4686970">
        <ele>973.8</ele>
        <time>2022-08-29T12:00:38Z</time>
      </trkpt>
      <trkpt lat="42.3721940" lon="-3.4687830">
        <ele>973.8</ele>
        <time>2022-08-29T12:00:39Z</time>
      </trkpt>
      <trkpt lat="42.3721880" lon="-3.4688740">
        <ele>973.6</ele>
        <time>2022-08-29T12:00:40Z</time>
      </trkpt>
      <trkpt lat="42.3721810" lon="-3.4689700">
        <ele>973.6</ele>
        <time>2022-08-29T12:00:41Z</time>
      </trkpt>
      <trkpt lat="42.3721730" lon="-3.4690660">
        <ele>973.6</ele>
        <time>2022-08-29T12:00:42Z</time>
      </trkpt>
      <trkpt lat="42.3721580" lon="-3.4691620">
        <ele>973.6</ele>
        <time>2022-08-29T12:00:43Z</time>
      </trkpt>
      <trkpt lat="42.3721470" lon="-3.4692560">
        <ele>973.6</ele>
        <time>2022-08-29T12:00:44Z</time>
      </trkpt>
      <trkpt lat="42.3721410" lon="-3.4693480">
        <ele>973.4</ele>
        <time>2022-08-29T12:00:45Z</time>
      </trkpt>
      <trkpt lat="42.3721430" lon="-3.4694350">
        <ele>973.2</ele>
        <time>2022-08-29T12:00:46Z</time>
      </trkpt>
      <trkpt lat="42.3721500" lon="-3.4695220">
        <ele>972.8</ele>
        <time>2022-08-29T12:00:47Z</time>
      </trkpt>
      <trkpt lat="42.3721650" lon="-3.4696060">
        <ele>972.4</ele>
        <time>2022-08-29T12:00:48Z</time>
      </trkpt>
      <trkpt lat="42.3721840" lon="-3.4696880">
        <ele>972.2</ele>
        <time>2022-08-29T12:00:49Z</time>
      </trkpt>
      <trkpt lat="42.3722030" lon="-3.4697680">
        <ele>971.8</ele>
        <time>2022-08-29T12:00:50Z</time>
      </trkpt>
      <trkpt lat="42.3722210" lon="-3.4698460">
        <ele>971.4</ele>
        <time>2022-08-29T12:00:51Z</time>
      </trkpt>
      <trkpt lat="42.3722400" lon="-3.4699220">
        <ele>971.2</ele>
        <time>2022-08-29T12:00:52Z</time>
      </trkpt>
      <trkpt lat="42.3722590" lon="-3.4699960">
        <ele>971.0</ele>
        <time>2022-08-29T12:00:53Z</time>
      </trkpt>
      <trkpt lat="42.3722770" lon="-3.4700660">
        <ele>971.0</ele>
        <time>2022-08-29T12:00:54Z</time>
      </trkpt>
      <trkpt lat="42.3722950" lon="-3.4701360">
        <ele>971.0</ele>
        <time>2022-08-29T12:00:55Z</time>
      </trkpt>
      <trkpt lat="42.3723130" lon="-3.4702040">
        <ele>970.8</ele>
        <time>2022-08-29T12:00:56Z</time>
      </trkpt>
      <trkpt lat="42.3723290" lon="-3.4702700">
        <ele>970.6</ele>
        <time>2022-08-29T12:00:57Z</time>
      </trkpt>
      <trkpt lat="42.3723420" lon="-3.4703360">
        <ele>970.8</ele>
        <time>2022-08-29T12:00:58Z</time>
      </trkpt>
      <trkpt lat="42.3723530" lon="-3.4704010">
        <ele>970.8</ele>
        <time>2022-08-29T12:00:59Z</time>
      </trkpt>
      <trkpt lat="42.3723600" lon="-3.4704640">
        <ele>970.8</ele>
        <time>2022-08-29T12:01:00Z</time>
      </trkpt>
      <trkpt lat="42.3723630" lon="-3.4705230">
        <ele>970.8</ele>
        <time>2022-08-29T12:01:01Z</time>
      </trkpt>
      <trkpt lat="42.3723640" lon="-3.4705810">
        <ele>970.8</ele>
        <time>2022-08-29T12:01:02Z</time>
      </trkpt>
      <trkpt lat="42.3723670" lon="-3.4706410">
        <ele>970.8</ele>
        <time>2022-08-29T12:01:03Z</time>
      </trkpt>
      <trkpt lat="42.3723720" lon="-3.4707030">
        <ele>971.0</ele>
        <time>2022-08-29T12:01:04Z</time>
      </trkpt>
      <trkpt lat="42.3723740" lon="-3.4707660">
        <ele>971.2</ele>
        <time>2022-08-29T12:01:05Z</time>
      </trkpt>
      <trkpt lat="42.3723760" lon="-3.4708310">
        <ele>971.2</ele>
        <time>2022-08-29T12:01:06Z</time>
      </trkpt>
      <trkpt lat="42.3723780" lon="-3.4708960">
        <ele>971.6</ele>
        <time>2022-08-29T12:01:07Z</time>
      </trkpt>
      <trkpt lat="42.3723820" lon="-3.4709640">
        <ele>971.6</ele>
        <time>2022-08-29T12:01:08Z</time>
      </trkpt>
      <trkpt lat="42.3723870" lon="-3.4710320">
        <ele>971.8</ele>
        <time>2022-08-29T12:01:09Z</time>
      </trkpt>
      <trkpt lat="42.3723900" lon="-3.4711020">
        <ele>971.8</ele>
        <time>2022-08-29T12:01:10Z</time>
      </trkpt>
      <trkpt lat="42.3723930" lon="-3.4711750">
        <ele>972.0</ele>
        <time>2022-08-29T12:01:11Z</time>
      </trkpt>
      <trkpt lat="42.3723940" lon="-3.4712480">
        <ele>971.8</ele>
        <time>2022-08-29T12:01:12Z</time>
      </trkpt>
      <trkpt lat="42.3723950" lon="-3.4713210">
        <ele>971.8</ele>
        <time>2022-08-29T12:01:13Z</time>
      </trkpt>
      <trkpt lat="42.3723930" lon="-3.4713950">
        <ele>971.8</ele>
        <time>2022-08-29T12:01:14Z</time>
      </trkpt>
      <trkpt lat="42.3723860" lon="-3.4714690">
        <ele>971.8</ele>
        <time>2022-08-29T12:01:15Z</time>
      </trkpt>
      <trkpt lat="42.3723740" lon="-3.4715430">
        <ele>971.8</ele>
        <time>2022-08-29T12:01:16Z</time>
      </trkpt>
      <trkpt lat="42.3723600" lon="-3.4716170">
        <ele>972.0</ele>
        <time>2022-08-29T12:01:17Z</time>
      </trkpt>
      <trkpt lat="42.3723460" lon="-3.4716960">
        <ele>971.6</ele>
        <time>2022-08-29T12:01:18Z</time>
      </trkpt>
      <trkpt lat="42.3723340" lon="-3.4717790">
        <ele>971.4</ele>
        <time>2022-08-29T12:01:19Z</time>
      </trkpt>
      <trkpt lat="42.3723200" lon="-3.4718670">
        <ele>971.4</ele>
        <time>2022-08-29T12:01:20Z</time>
      </trkpt>
      <trkpt lat="42.3723070" lon="-3.4719580">
        <ele>971.2</ele>
        <time>2022-08-29T12:01:21Z</time>
      </trkpt>
      <trkpt lat="42.3722940" lon="-3.4720510">
        <ele>971.2</ele>
        <time>2022-08-29T12:01:22Z</time>
      </trkpt>
      <trkpt lat="42.3722790" lon="-3.4721480">
        <ele>971.2</ele>
        <time>2022-08-29T12:01:23Z</time>
      </trkpt>
      <trkpt lat="42.3722610" lon="-3.4722490">
        <ele>971.0</ele>
        <time>2022-08-29T12:01:24Z</time>
      </trkpt>
      <trkpt lat="42.3722430" lon="-3.4723520">
        <ele>971.0</ele>
        <time>2022-08-29T12:01:25Z</time>
      </trkpt>
      <trkpt lat="42.3722240" lon="-3.4724600">
        <ele>970.8</ele>
        <time>2022-08-29T12:01:26Z</time>
      </trkpt>
      <trkpt lat="42.3722040" lon="-3.4725720">
        <ele>970.6</ele>
        <time>2022-08-29T12:01:27Z</time>
      </trkpt>
      <trkpt lat="42.3721850" lon="-3.4726890">
        <ele>969.8</ele>
        <time>2022-08-29T12:01:28Z</time>
      </trkpt>
      <trkpt lat="42.3721660" lon="-3.4728080">
        <ele>969.2</ele>
        <time>2022-08-29T12:01:29Z</time>
      </trkpt>
      <trkpt lat="42.3721410" lon="-3.4729320">
        <ele>968.6</ele>
        <time>2022-08-29T12:01:30Z</time>
      </trkpt>
      <trkpt lat="42.3721130" lon="-3.4730550">
        <ele>968.4</ele>
        <time>2022-08-29T12:01:31Z</time>
      </trkpt>
      <trkpt lat="42.3720800" lon="-3.4731780">
        <ele>967.8</ele>
        <time>2022-08-29T12:01:32Z</time>
      </trkpt>
      <trkpt lat="42.3720400" lon="-3.4733010">
        <ele>967.0</ele>
        <time>2022-08-29T12:01:33Z</time>
      </trkpt>
      <trkpt lat="42.3719930" lon="-3.4734260">
        <ele>966.4</ele>
        <time>2022-08-29T12:01:34Z</time>
      </trkpt>
      <trkpt lat="42.3719450" lon="-3.4735470">
        <ele>965.8</ele>
        <time>2022-08-29T12:01:35Z</time>
      </trkpt>
      <trkpt lat="42.3718900" lon="-3.4736670">
        <ele>965.6</ele>
        <time>2022-08-29T12:01:36Z</time>
      </trkpt>
      <trkpt lat="42.3718280" lon="-3.4737870">
        <ele>965.0</ele>
        <time>2022-08-29T12:01:37Z</time>
      </trkpt>
      <trkpt lat="42.3717590" lon="-3.4739090">
        <ele>964.2</ele>
        <time>2022-08-29T12:01:38Z</time>
      </trkpt>
      <trkpt lat="42.3716860" lon="-3.4740320">
        <ele>963.4</ele>
        <time>2022-08-29T12:01:39Z</time>
      </trkpt>
      <trkpt lat="42.3716110" lon="-3.4741540">
        <ele>961.8</ele>
        <time>2022-08-29T12:01:40Z</time>
      </trkpt>
      <trkpt lat="42.3715370" lon="-3.4742800">
        <ele>960.8</ele>
        <time>2022-08-29T12:01:41Z</time>
      </trkpt>
      <trkpt lat="42.3714630" lon="-3.4744100">
        <ele>959.6</ele>
        <time>2022-08-29T12:01:42Z</time>
      </trkpt>
      <trkpt lat="42.3713880" lon="-3.4745410">
        <ele>959.0</ele>
        <time>2022-08-29T12:01:43Z</time>
      </trkpt>
      <trkpt lat="42.3713120" lon="-3.4746700">
        <ele>958.0</ele>
        <time>2022-08-29T12:01:44Z</time>
      </trkpt>
      <trkpt lat="42.3712380" lon="-3.4748000">
        <ele>957.0</ele>
        <time>2022-08-29T12:01:45Z</time>
      </trkpt>
      <trkpt lat="42.3711630" lon="-3.4749370">
        <ele>955.2</ele>
        <time>2022-08-29T12:01:46Z</time>
      </trkpt>
      <trkpt lat="42.3710890" lon="-3.4750720">
        <ele>953.6</ele>
        <time>2022-08-29T12:01:47Z</time>
      </trkpt>
      <trkpt lat="42.3710120" lon="-3.4752080">
        <ele>953.6</ele>
        <time>2022-08-29T12:01:48Z</time>
      </trkpt>
      <trkpt lat="42.3709330" lon="-3.4753410">
        <ele>952.8</ele>
        <time>2022-08-29T12:01:49Z</time>
      </trkpt>
      <trkpt lat="42.3708530" lon="-3.4754750">
        <ele>951.6</ele>
        <time>2022-08-29T12:01:50Z</time>
      </trkpt>
      <trkpt lat="42.3707750" lon="-3.4756080">
        <ele>950.2</ele>
        <time>2022-08-29T12:01:51Z</time>
      </trkpt>
      <trkpt lat="42.3706930" lon="-3.4757400">
        <ele>948.4</ele>
        <time>2022-08-29T12:01:52Z</time>
      </trkpt>
      <trkpt lat="42.3706120" lon="-3.4758670">
        <ele>946.4</ele>
        <time>2022-08-29T12:01:53Z</time>
      </trkpt>
      <trkpt lat="42.3705330" lon="-3.4759970">
        <ele>945.2</ele>
        <time>2022-08-29T12:01:54Z</time>
      </trkpt>
      <trkpt lat="42.3704620" lon="-3.4761210">
        <ele>944.2</ele>
        <time>2022-08-29T12:01:55Z</time>
      </trkpt>
      <trkpt lat="42.3704000" lon="-3.4762350">
        <ele>943.2</ele>
        <time>2022-08-29T12:01:56Z</time>
      </trkpt>
      <trkpt lat="42.3703460" lon="-3.4763370">
        <ele>942.6</ele>
        <time>2022-08-29T12:01:57Z</time>
      </trkpt>
      <trkpt lat="42.3702940" lon="-3.4764350">
        <ele>941.2</ele>
        <time>2022-08-29T12:01:58Z</time>
      </trkpt>
      <trkpt lat="42.3702460" lon="-3.4765310">
        <ele>939.8</ele>
        <time>2022-08-29T12:01:59Z</time>
      </trkpt>
      <trkpt lat="42.3702060" lon="-3.4766290">
        <ele>939.2</ele>
        <time>2022-08-29T12:02:00Z</time>
      </trkpt>
      <trkpt lat="42.3701750" lon="-3.4767310">
        <ele>938.6</ele>
        <time>2022-08-29T12:02:01Z</time>
      </trkpt>
      <trkpt lat="42.3701410" lon="-3.4768340">
        <ele>938.4</ele>
        <time>2022-08-29T12:02:02Z</time>
      </trkpt>
      <trkpt lat="42.3701000" lon="-3.4769310">
        <ele>938.0</ele>
        <time>2022-08-29T12:02:03Z</time>
      </trkpt>
      <trkpt lat="42.3700590" lon="-3.4770190">
        <ele>938.0</ele>
        <time>2022-08-29T12:02:04Z</time>
      </trkpt>
      <trkpt lat="42.3700210" lon="-3.4771060">
        <ele>938.0</ele>
        <time>2022-08-29T12:02:05Z</time>
      </trkpt>
      <trkpt lat="42.3699890" lon="-3.4771900">
        <ele>938.0</ele>
        <time>2022-08-29T12:02:06Z</time>
      </trkpt>
      <trkpt lat="42.3699590" lon="-3.4772730">
        <ele>938.0</ele>
        <time>2022-08-29T12:02:07Z</time>
      </trkpt>
      <trkpt lat="42.3699310" lon="-3.4773540">
        <ele>938.0</ele>
        <time>2022-08-29T12:02:08Z</time>
      </trkpt>
      <trkpt lat="42.3699030" lon="-3.4774310">
        <ele>938.0</ele>
        <time>2022-08-29T12:02:09Z</time>
      </trkpt>
      <trkpt lat="42.3698770" lon="-3.4775060">
        <ele>938.0</ele>
        <time>2022-08-29T12:02:10Z</time>
      </trkpt>
      <trkpt lat="42.3698570" lon="-3.4775820">
        <ele>938.0</ele>
        <time>2022-08-29T12:02:11Z</time>
      </trkpt>
      <trkpt lat="42.3698430" lon="-3.4776590">
        <ele>938.0</ele>
        <time>2022-08-29T12:02:12Z</time>
      </trkpt>
      <trkpt lat="42.3698330" lon="-3.4777340">
        <ele>938.2</ele>
        <time>2022-08-29T12:02:13Z</time>
      </trkpt>
      <trkpt lat="42.3698220" lon="-3.4778070">
        <ele>938.2</ele>
        <time>2022-08-29T12:02:14Z</time>
      </trkpt>
      <trkpt lat="42.3698110" lon="-3.4778780">
        <ele>938.2</ele>
        <time>2022-08-29T12:02:15Z</time>
      </trkpt>
      <trkpt lat="42.3698030" lon="-3.4779450">
        <ele>938.4</ele>
        <time>2022-08-29T12:02:16Z</time>
      </trkpt>
      <trkpt lat="42.3697950" lon="-3.4780080">
        <ele>938.4</ele>
        <time>2022-08-29T12:02:17Z</time>
      </trkpt>
      <trkpt lat="42.3697880" lon="-3.4780670">
        <ele>938.8</ele>
        <time>2022-08-29T12:02:18Z</time>
      </trkpt>
      <trkpt lat="42.3697810" lon="-3.4781220">
        <ele>939.2</ele>
        <time>2022-08-29T12:02:19Z</time>
      </trkpt>
      <trkpt lat="42.3697740" lon="-3.4781750">
        <ele>939.2</ele>
        <time>2022-08-29T12:02:20Z</time>
      </trkpt>
      <trkpt lat="42.3697680" lon="-3.4782260">
        <ele>939.6</ele>
        <time>2022-08-29T12:02:21Z</time>
      </trkpt>
      <trkpt lat="42.3697640" lon="-3.4782770">
        <ele>939.8</ele>
        <time>2022-08-29T12:02:22Z</time>
      </trkpt>
      <trkpt lat="42.3697620" lon="-3.4783290">
        <ele>940.4</ele>
        <time>2022-08-29T12:02:23Z</time>
      </trkpt>
      <trkpt lat="42.3697650" lon="-3.4783810">
        <ele>940.8</ele>
        <time>2022-08-29T12:02:24Z</time>
      </trkpt>
      <trkpt lat="42.3697730" lon="-3.4784300">
        <ele>941.0</ele>
        <time>2022-08-29T12:02:25Z</time>
      </trkpt>
      <trkpt lat="42.3697860" lon="-3.4784760">
        <ele>941.2</ele>
        <time>2022-08-29T12:02:26Z</time>
      </trkpt>
      <trkpt lat="42.3698010" lon="-3.4785180">
        <ele>941.4</ele>
        <time>2022-08-29T12:02:27Z</time>
      </trkpt>
      <trkpt lat="42.3698130" lon="-3.4785630">
        <ele>941.4</ele>
        <time>2022-08-29T12:02:28Z</time>
      </trkpt>
      <trkpt lat="42.3698270" lon="-3.4786080">
        <ele>941.6</ele>
        <time>2022-08-29T12:02:29Z</time>
      </trkpt>
      <trkpt lat="42.3698430" lon="-3.4786540">
        <ele>941.6</ele>
        <time>2022-08-29T12:02:30Z</time>
      </trkpt>
      <trkpt lat="42.3698600" lon="-3.4787020">
        <ele>941.6</ele>
        <time>2022-08-29T12:02:31Z</time>
      </trkpt>
      <trkpt lat="42.3698740" lon="-3.4787520">
        <ele>941.8</ele>
        <time>2022-08-29T12:02:32Z</time>
      </trkpt>
      <trkpt lat="42.3698880" lon="-3.4788010">
        <ele>941.8</ele>
        <time>2022-08-29T12:02:33Z</time>
      </trkpt>
      <trkpt lat="42.3699000" lon="-3.4788510">
        <ele>942.0</ele>
        <time>2022-08-29T12:02:34Z</time>
      </trkpt>
      <trkpt lat="42.3699130" lon="-3.4789010">
        <ele>942.0</ele>
        <time>2022-08-29T12:02:35Z</time>
      </trkpt>
      <trkpt lat="42.3699280" lon="-3.4789490">
        <ele>942.0</ele>
        <time>2022-08-29T12:02:36Z</time>
      </trkpt>
      <trkpt lat="42.3699440" lon="-3.4789960">
        <ele>942.2</ele>
        <time>2022-08-29T12:02:37Z</time>
      </trkpt>
      <trkpt lat="42.3699600" lon="-3.4790420">
        <ele>942.0</ele>
        <time>2022-08-29T12:02:38Z</time>
      </trkpt>
      <trkpt lat="42.3699760" lon="-3.4790860">
        <ele>942.2</ele>
        <time>2022-08-29T12:02:39Z</time>
      </trkpt>
      <trkpt lat="42.3699920" lon="-3.4791300">
        <ele>942.4</ele>
        <time>2022-08-29T12:02:40Z</time>
      </trkpt>
      <trkpt lat="42.3700090" lon="-3.4791750">
        <ele>942.6</ele>
        <time>2022-08-29T12:02:41Z</time>
      </trkpt>
      <trkpt lat="42.3700300" lon="-3.4792150">
        <ele>942.6</ele>
        <time>2022-08-29T12:02:42Z</time>
      </trkpt>
      <trkpt lat="42.3700530" lon="-3.4792530">
        <ele>942.8</ele>
        <time>2022-08-29T12:02:43Z</time>
      </trkpt>
      <trkpt lat="42.3700760" lon="-3.4792870">
        <ele>943.0</ele>
        <time>2022-08-29T12:02:44Z</time>
      </trkpt>
      <trkpt lat="42.3700990" lon="-3.4793170">
        <ele>943.2</ele>
        <time>2022-08-29T12:02:45Z</time>
      </trkpt>
      <trkpt lat="42.3701230" lon="-3.4793450">
        <ele>943.4</ele>
        <time>2022-08-29T12:02:46Z</time>
      </trkpt>
      <trkpt lat="42.3701430" lon="-3.4793720">
        <ele>943.6</ele>
        <time>2022-08-29T12:02:47Z</time>
      </trkpt>
      <trkpt lat="42.3701610" lon="-3.4793910">
        <ele>943.6</ele>
        <time>2022-08-29T12:02:48Z</time>
      </trkpt>
      <trkpt lat="42.3701740" lon="-3.4794070">
        <ele>943.6</ele>
        <time>2022-08-29T12:02:49Z</time>
      </trkpt>
      <trkpt lat="42.3701830" lon="-3.4794180">
        <ele>944.0</ele>
        <time>2022-08-29T12:02:50Z</time>
      </trkpt>
      <trkpt lat="42.3701920" lon="-3.4794220">
        <ele>944.0</ele>
        <time>2022-08-29T12:02:51Z</time>
      </trkpt>
      <trkpt lat="42.3702020" lon="-3.4794270">
        <ele>944.0</ele>
        <time>2022-08-29T12:02:52Z</time>
      </trkpt>
      <trkpt lat="42.3702110" lon="-3.4794340">
        <ele>944.2</ele>
        <time>2022-08-29T12:02:53Z</time>
      </trkpt>
      <trkpt lat="42.3702200" lon="-3.4794440">
        <ele>944.2</ele>
        <time>2022-08-29T12:02:54Z</time>
      </trkpt>
      <trkpt lat="42.3702280" lon="-3.4794560">
        <ele>944.6</ele>
        <time>2022-08-29T12:02:55Z</time>
      </trkpt>
      <trkpt lat="42.3702290" lon="-3.4794670">
        <ele>944.6</ele>
        <time>2022-08-29T12:02:56Z</time>
      </trkpt>
      <trkpt lat="42.3702280" lon="-3.4794700">
        <ele>944.8</ele>
        <time>2022-08-29T12:02:57Z</time>
      </trkpt>
      <trkpt lat="42.3702290" lon="-3.4794690">
        <ele>944.8</ele>
        <time>2022-08-29T12:02:58Z</time>
      </trkpt>
      <trkpt lat="42.3702270" lon="-3.4794700">
        <ele>944.8</ele>
        <time>2022-08-29T12:02:59Z</time>
      </trkpt>
      <trkpt lat="42.3702270" lon="-3.4794690">
        <ele>945.0</ele>
        <time>2022-08-29T12:03:00Z</time>
      </trkpt>
      <trkpt lat="42.3702270" lon="-3.4794690">
        <ele>945.0</ele>
        <time>2022-08-29T12:03:01Z</time>
      </trkpt>
      <trkpt lat="42.3702270" lon="-3.4794690">
        <ele>945.0</ele>
        <time>2022-08-29T12:03:02Z</time>
      </trkpt>
      <trkpt lat="42.3702280" lon="-3.4794690">
        <ele>945.0</ele>
        <time>2022-08-29T12:03:03Z</time>
      </trkpt>
      <trkpt lat="42.3702280" lon="-3.4794690">
        <ele>945.0</ele>
        <time>2022-08-29T12:03:04Z</time>
      </trkpt>
      <trkpt lat="42.3702280" lon="-3.4794690">
        <ele>945.4</ele>
        <time>2022-08-29T12:03:05Z</time>
      </trkpt>
      <trkpt lat="42.3702280" lon="-3.4794690">
        <ele>945.2</ele>
        <time>2022-08-29T12:03:06Z</time>
      </trkpt>
      <trkpt lat="42.3702290" lon="-3.4794690">
        <ele>945.4</ele>
        <time>2022-08-29T12:03:07Z</time>
      </trkpt>
      <trkpt lat="42.3702290" lon="-3.4794690">
        <ele>945.4</ele>
        <time>2022-08-29T12:03:08Z</time>
      </trkpt>
      <trkpt lat="42.3702290" lon="-3.4794690">
        <ele>945.4</ele>
        <time>2022-08-29T12:03:09Z</time>
      </trkpt>
      <trkpt lat="42.3702290" lon="-3.4794700">
        <ele>945.4</ele>
        <time>2022-08-29T12:03:10Z</time>
      </trkpt>
      <trkpt lat="42.3702300" lon="-3.4794690">
        <ele>945.6</ele>
        <time>2022-08-29T12:03:11Z</time>
      </trkpt>
      <trkpt lat="42.3702300" lon="-3.4794690">
        <ele>945.6</ele>
        <time>2022-08-29T12:03:12Z</time>
      </trkpt>
      <trkpt lat="42.3702300" lon="-3.4794690">
        <ele>945.6</ele>
        <time>2022-08-29T12:03:13Z</time>
      </trkpt>
      <trkpt lat="42.3702300" lon="-3.4794690">
        <ele>945.6</ele>
        <time>2022-08-29T12:03:14Z</time>
      </trkpt>
      <trkpt lat="42.3702300" lon="-3.4794690">
        <ele>945.4</ele>
        <time>2022-08-29T12:03:15Z</time>
      </trkpt>
      <trkpt lat="42.3702300" lon="-3.4794690">
        <ele>945.4</ele>
        <time>2022-08-29T12:03:16Z</time>
      </trkpt>
      <trkpt lat="42.3702300" lon="-3.4794690">
        <ele>945.6</ele>
        <time>2022-08-29T12:03:17Z</time>
      </trkpt>
      <trkpt lat="42.3702300" lon="-3.4794690">
        <ele>945.6</ele>
        <time>2022-08-29T12:03:18Z</time>
      </trkpt>
      <trkpt lat="42.3702300" lon="-3.4794690">
        <ele>945.6</ele>
        <time>2022-08-29T12:03:19Z</time>
      </trkpt>
      <trkpt lat="42.3702300" lon="-3.4794690">
        <ele>945.8</ele>
        <time>2022-08-29T12:03:20Z</time>
      </trkpt>
      <trkpt lat="42.3702300" lon="-3.4794690">
        <ele>945.6</ele>
        <time>2022-08-29T12:03:21Z</time>
      </trkpt>
      <trkpt lat="42.3702300" lon="-3.4794690">
        <ele>945.6</ele>
        <time>2022-08-29T12:03:22Z</time>
      </trkpt>
      <trkpt lat="42.3702300" lon="-3.4794690">
        <ele>945.8</ele>
        <time>2022-08-29T12:03:23Z</time>
      </trkpt>
      <trkpt lat="42.3702290" lon="-3.4794690">
        <ele>945.8</ele>
        <time>2022-08-29T12:03:24Z</time>
      </trkpt>
      <trkpt lat="42.3702290" lon="-3.4794690">
        <ele>945.8</ele>
        <time>2022-08-29T12:03:25Z</time>
      </trkpt>
      <trkpt lat="42.3702290" lon="-3.4794690">
        <ele>945.8</ele>
        <time>2022-08-29T12:03:26Z</time>
      </trkpt>
      <trkpt lat="42.3702300" lon="-3.4794690">
        <ele>945.8</ele>
        <time>2022-08-29T12:03:27Z</time>
      </trkpt>
      <trkpt lat="42.3702290" lon="-3.4794690">
        <ele>946.0</ele>
        <time>2022-08-29T12:03:28Z</time>
      </trkpt>
      <trkpt lat="42.3702290" lon="-3.4794690">
        <ele>946.0</ele>
        <time>2022-08-29T12:03:29Z</time>
      </trkpt>
      <trkpt lat="42.3702290" lon="-3.4794690">
        <ele>946.0</ele>
        <time>2022-08-29T12:03:30Z</time>
      </trkpt>
      <trkpt lat="42.3702290" lon="-3.4794690">
        <ele>946.0</ele>
        <time>2022-08-29T12:03:31Z</time>
      </trkpt>
      <trkpt lat="42.3702290" lon="-3.4794690">
        <ele>946.0</ele>
        <time>2022-08-29T12:03:32Z</time>
      </trkpt>
      <trkpt lat="42.3702290" lon="-3.4794690">
        <ele>946.2</ele>
        <time>2022-08-29T12:03:33Z</time>
      </trkpt>
      <trkpt lat="42.3702290" lon="-3.4794690">
        <ele>946.2</ele>
        <time>2022-08-29T12:03:34Z</time>
      </trkpt>
      <trkpt lat="42.3702290" lon="-3.4794690">
        <ele>946.4</ele>
        <time>2022-08-29T12:03:35Z</time>
      </trkpt>
      <trkpt lat="42.3702290" lon="-3.4794690">
        <ele>946.4</ele>
        <time>2022-08-29T12:03:36Z</time>
      </trkpt>
      <trkpt lat="42.3702290" lon="-3.4794690">
        <ele>946.4</ele>
        <time>2022-08-29T12:03:37Z</time>
      </trkpt>
      <trkpt lat="42.3702290" lon="-3.4794690">
        <ele>946.2</ele>
        <time>2022-08-29T12:03:38Z</time>
      </trkpt>
      <trkpt lat="42.3702290" lon="-3.4794690">
        <ele>946.4</ele>
        <time>2022-08-29T12:03:39Z</time>
      </trkpt>
      <trkpt lat="42.3702290" lon="-3.4794690">
        <ele>946.4</ele>
        <time>2022-08-29T12:03:40Z</time>
      </trkpt>
      <trkpt lat="42.3702290" lon="-3.4794690">
        <ele>946.4</ele>
        <time>2022-08-29T12:03:41Z</time>
      </trkpt>
      <trkpt lat="42.3702290" lon="-3.4794690">
        <ele>946.4</ele>
        <time>2022-08-29T12:03:42Z</time>
      </trkpt>
      <trkpt lat="42.3702290" lon="-3.4794690">
        <ele>946.4</ele>
        <time>2022-08-29T12:03:43Z</time>
      </trkpt>
      <trkpt lat="42.3702290" lon="-3.4794690">
        <ele>946.2</ele>
        <time>2022-08-29T12:03:44Z</time>
      </trkpt>
      <trkpt lat="42.3702290" lon="-3.4794690">
        <ele>946.2</ele>
        <time>2022-08-29T12:03:45Z</time>
      </trkpt>
      <trkpt lat="42.3702290" lon="-3.4794680">
        <ele>946.4</ele>
        <time>2022-08-29T12:03:46Z</time>
      </trkpt>
      <trkpt lat="42.3702290" lon="-3.4794680">
        <ele>946.6</ele>
        <time>2022-08-29T12:03:47Z</time>
      </trkpt>
      <trkpt lat="42.3702290" lon="-3.4794680">
        <ele>946.4</ele>
        <time>2022-08-29T12:03:48Z</time>
      </trkpt>
      <trkpt lat="42.3702290" lon="-3.4794680">
        <ele>946.6</ele>
        <time>2022-08-29T12:03:49Z</time>
      </trkpt>
      <trkpt lat="42.3702290" lon="-3.4794680">
        <ele>946.4</ele>
        <time>2022-08-29T12:03:50Z</time>
      </trkpt>
      <trkpt lat="42.3702290" lon="-3.4794680">
        <ele>946.6</ele>
        <time>2022-08-29T12:03:51Z</time>
      </trkpt>
      <trkpt lat="42.3702290" lon="-3.4794680">
        <ele>946.6</ele>
        <time>2022-08-29T12:03:52Z</time>
      </trkpt>
      <trkpt lat="42.3702290" lon="-3.4794680">
        <ele>946.6</ele>
        <time>2022-08-29T12:03:53Z</time>
      </trkpt>
      <trkpt lat="42.3702290" lon="-3.4794680">
        <ele>946.6</ele>
        <time>2022-08-29T12:03:54Z</time>
      </trkpt>
      <trkpt lat="42.3702290" lon="-3.4794680">
        <ele>946.6</ele>
        <time>2022-08-29T12:03:55Z</time>
      </trkpt>
      <trkpt lat="42.3702290" lon="-3.4794680">
        <ele>946.6</ele>
        <time>2022-08-29T12:03:56Z</time>
      </trkpt>
      <trkpt lat="42.3702290" lon="-3.4794680">
        <ele>946.8</ele>
        <time>2022-08-29T12:03:57Z</time>
      </trkpt>
      <trkpt lat="42.3702290" lon="-3.4794680">
        <ele>946.8</ele>
        <time>2022-08-29T12:03:58Z</time>
      </trkpt>
      <trkpt lat="42.3702290" lon="-3.4794680">
        <ele>946.8</ele>
        <time>2022-08-29T12:03:59Z</time>
      </trkpt>
      <trkpt lat="42.3702290" lon="-3.4794680">
        <ele>946.8</ele>
        <time>2022-08-29T12:04:00Z</time>
      </trkpt>
      <trkpt lat="42.3702290" lon="-3.4794680">
        <ele>946.8</ele>
        <time>2022-08-29T12:04:01Z</time>
      </trkpt>
      <trkpt lat="42.3702290" lon="-3.4794680">
        <ele>946.8</ele>
        <time>2022-08-29T12:04:02Z</time>
      </trkpt>
      <trkpt lat="42.3702290" lon="-3.4794680">
        <ele>946.8</ele>
        <time>2022-08-29T12:04:03Z</time>
      </trkpt>
      <trkpt lat="42.3702290" lon="-3.4794680">
        <ele>946.8</ele>
        <time>2022-08-29T12:04:04Z</time>
      </trkpt>
      <trkpt lat="42.3702290" lon="-3.4794680">
        <ele>946.8</ele>
        <time>2022-08-29T12:04:05Z</time>
      </trkpt>
      <trkpt lat="42.3702290" lon="-3.4794680">
        <ele>947.0</ele>
        <time>2022-08-29T12:04:06Z</time>
      </trkpt>
      <trkpt lat="42.3702290" lon="-3.4794680">
        <ele>946.8</ele>
        <time>2022-08-29T12:04:07Z</time>
      </trkpt>
      <trkpt lat="42.3702290" lon="-3.4794680">
        <ele>946.8</ele>
        <time>2022-08-29T12:04:08Z</time>
      </trkpt>
      <trkpt lat="42.3702290" lon="-3.4794680">
        <ele>947.0</ele>
        <time>2022-08-29T12:04:09Z</time>
      </trkpt>
      <trkpt lat="42.3702290" lon="-3.4794680">
        <ele>947.0</ele>
        <time>2022-08-29T12:04:10Z</time>
      </trkpt>
      <trkpt lat="42.3702290" lon="-3.4794680">
        <ele>947.0</ele>
        <time>2022-08-29T12:04:11Z</time>
      </trkpt>
      <trkpt lat="42.3702290" lon="-3.4794680">
        <ele>947.0</ele>
        <time>2022-08-29T12:04:12Z</time>
      </trkpt>
      <trkpt lat="42.3702290" lon="-3.4794680">
        <ele>946.8</ele>
        <time>2022-08-29T12:04:13Z</time>
      </trkpt>
      <trkpt lat="42.3702290" lon="-3.4794680">
        <ele>947.0</ele>
        <time>2022-08-29T12:04:14Z</time>
      </trkpt>
      <trkpt lat="42.3702290" lon="-3.4794680">
        <ele>946.8</ele>
        <time>2022-08-29T12:04:15Z</time>
      </trkpt>
      <trkpt lat="42.3702290" lon="-3.4794680">
        <ele>947.0</ele>
        <time>2022-08-29T12:04:16Z</time>
      </trkpt>
      <trkpt lat="42.3702290" lon="-3.4794680">
        <ele>947.0</ele>
        <time>2022-08-29T12:04:17Z</time>
      </trkpt>
      <trkpt lat="42.3702290" lon="-3.4794670">
        <ele>947.0</ele>
        <time>2022-08-29T12:04:18Z</time>
      </trkpt>
      <trkpt lat="42.3702290" lon="-3.4794670">
        <ele>947.0</ele>
        <time>2022-08-29T12:04:19Z</time>
      </trkpt>
      <trkpt lat="42.3702290" lon="-3.4794670">
        <ele>947.0</ele>
        <time>2022-08-29T12:04:20Z</time>
      </trkpt>
      <trkpt lat="42.3702290" lon="-3.4794670">
        <ele>947.0</ele>
        <time>2022-08-29T12:04:21Z</time>
      </trkpt>
      <trkpt lat="42.3702290" lon="-3.4794670">
        <ele>947.0</ele>
        <time>2022-08-29T12:04:22Z</time>
      </trkpt>
      <trkpt lat="42.3702290" lon="-3.4794670">
        <ele>947.0</ele>
        <time>2022-08-29T12:04:23Z</time>
      </trkpt>
      <trkpt lat="42.3702290" lon="-3.4794670">
        <ele>947.0</ele>
        <time>2022-08-29T12:04:24Z</time>
      </trkpt>
      <trkpt lat="42.3702290" lon="-3.4794670">
        <ele>947.0</ele>
        <time>2022-08-29T12:04:25Z</time>
      </trkpt>
      <trkpt lat="42.3702290" lon="-3.4794670">
        <ele>947.0</ele>
        <time>2022-08-29T12:04:26Z</time>
      </trkpt>
      <trkpt lat="42.3702290" lon="-3.4794670">
        <ele>947.0</ele>
        <time>2022-08-29T12:04:27Z</time>
      </trkpt>
      <trkpt lat="42.3702290" lon="-3.4794670">
        <ele>947.0</ele>
        <time>2022-08-29T12:04:28Z</time>
      </trkpt>
      <trkpt lat="42.3702290" lon="-3.4794660">
        <ele>947.0</ele>
        <time>2022-08-29T12:04:29Z</time>
      </trkpt>
      <trkpt lat="42.3702290" lon="-3.4794660">
        <ele>947.0</ele>
        <time>2022-08-29T12:04:30Z</time>
      </trkpt>
      <trkpt lat="42.3702330" lon="-3.4794730">
        <ele>947.2</ele>
        <time>2022-08-29T12:04:31Z</time>
      </trkpt>
      <trkpt lat="42.3702400" lon="-3.4794830">
        <ele>947.2</ele>
        <time>2022-08-29T12:04:32Z</time>
      </trkpt>
      <trkpt lat="42.3702460" lon="-3.4794970">
        <ele>947.0</ele>
        <time>2022-08-29T12:04:33Z</time>
      </trkpt>
      <trkpt lat="42.3702530" lon="-3.4795130">
        <ele>947.0</ele>
        <time>2022-08-29T12:04:34Z</time>
      </trkpt>
      <trkpt lat="42.3702630" lon="-3.4795310">
        <ele>947.0</ele>
        <time>2022-08-29T12:04:35Z</time>
      </trkpt>
      <trkpt lat="42.3702740" lon="-3.4795540">
        <ele>947.0</ele>
        <time>2022-08-29T12:04:36Z</time>
      </trkpt>
      <trkpt lat="42.3702840" lon="-3.4795810">
        <ele>947.0</ele>
        <time>2022-08-29T12:04:37Z</time>
      </trkpt>
      <trkpt lat="42.3702910" lon="-3.4796110">
        <ele>947.0</ele>
        <time>2022-08-29T12:04:38Z</time>
      </trkpt>
      <trkpt lat="42.3702980" lon="-3.4796460">
        <ele>947.0</ele>
        <time>2022-08-29T12:04:39Z</time>
      </trkpt>
      <trkpt lat="42.3703000" lon="-3.4796830">
        <ele>947.0</ele>
        <time>2022-08-29T12:04:40Z</time>
      </trkpt>
      <trkpt lat="42.3702960" lon="-3.4797230">
        <ele>947.0</ele>
        <time>2022-08-29T12:04:41Z</time>
      </trkpt>
      <trkpt lat="42.3702910" lon="-3.4797650">
        <ele>947.0</ele>
        <time>2022-08-29T12:04:42Z</time>
      </trkpt>
      <trkpt lat="42.3702840" lon="-3.4798090">
        <ele>947.0</ele>
        <time>2022-08-29T12:04:43Z</time>
      </trkpt>
      <trkpt lat="42.3702730" lon="-3.4798540">
        <ele>946.8</ele>
        <time>2022-08-29T12:04:44Z</time>
      </trkpt>
      <trkpt lat="42.3702590" lon="-3.4798990">
        <ele>946.6</ele>
        <time>2022-08-29T12:04:45Z</time>
      </trkpt>
      <trkpt lat="42.3702480" lon="-3.4799440">
        <ele>946.6</ele>
        <time>2022-08-29T12:04:46Z</time>
      </trkpt>
      <trkpt lat="42.3702410" lon="-3.4799910">
        <ele>946.6</ele>
        <time>2022-08-29T12:04:47Z</time>
      </trkpt>
      <trkpt lat="42.3702370" lon="-3.4800410">
        <ele>946.4</ele>
        <time>2022-08-29T12:04:48Z</time>
      </trkpt>
      <trkpt lat="42.3702370" lon="-3.4800930">
        <ele>946.6</ele>
        <time>2022-08-29T12:04:49Z</time>
      </trkpt>
      <trkpt lat="42.3702400" lon="-3.4801460">
        <ele>946.2</ele>
        <time>2022-08-29T12:04:50Z</time>
      </trkpt>
      <trkpt lat="42.3702430" lon="-3.4802010">
        <ele>946.2</ele>
        <time>2022-08-29T12:04:51Z</time>
      </trkpt>
      <trkpt lat="42.3702460" lon="-3.4802590">
        <ele>946.0</ele>
        <time>2022-08-29T12:04:52Z</time>
      </trkpt>
      <trkpt lat="42.3702530" lon="-3.4803180">
        <ele>946.0</ele>
        <time>2022-08-29T12:04:53Z</time>
      </trkpt>
      <trkpt lat="42.3702620" lon="-3.4803800">
        <ele>945.8</ele>
        <time>2022-08-29T12:04:54Z</time>
      </trkpt>
      <trkpt lat="42.3702740" lon="-3.4804450">
        <ele>945.4</ele>
        <time>2022-08-29T12:04:55Z</time>
      </trkpt>
      <trkpt lat="42.3702900" lon="-3.4805110">
        <ele>945.4</ele>
        <time>2022-08-29T12:04:56Z</time>
      </trkpt>
      <trkpt lat="42.3703110" lon="-3.4805760">
        <ele>945.4</ele>
        <time>2022-08-29T12:04:57Z</time>
      </trkpt>
      <trkpt lat="42.3703360" lon="-3.4806410">
        <ele>945.4</ele>
        <time>2022-08-29T12:04:58Z</time>
      </trkpt>
      <trkpt lat="42.3703640" lon="-3.4807070">
        <ele>945.2</ele>
        <time>2022-08-29T12:04:59Z</time>
      </trkpt>
      <trkpt lat="42.3703940" lon="-3.4807750">
        <ele>945.0</ele>
        <time>2022-08-29T12:05:00Z</time>
      </trkpt>
      <trkpt lat="42.3704250" lon="-3.4808450">
        <ele>945.0</ele>
        <time>2022-08-29T12:05:01Z</time>
      </trkpt>
      <trkpt lat="42.3704560" lon="-3.4809190">
        <ele>944.8</ele>
        <time>2022-08-29T12:05:02Z</time>
      </trkpt>
      <trkpt lat="42.3704880" lon="-3.4809940">
        <ele>944.4</ele>
        <time>2022-08-29T12:05:03Z</time>
      </trkpt>
      <trkpt lat="42.3705200" lon="-3.4810730">
        <ele>944.2</ele>
        <time>2022-08-29T12:05:04Z</time>
      </trkpt>
      <trkpt lat="42.3705530" lon="-3.4811530">
        <ele>944.0</ele>
        <time>2022-08-29T12:05:05Z</time>
      </trkpt>
      <trkpt lat="42.3705890" lon="-3.4812360">
        <ele>943.6</ele>
        <time>2022-08-29T12:05:06Z</time>
      </trkpt>
      <trkpt lat="42.3706250" lon="-3.4813220">
        <ele>943.4</ele>
        <time>2022-08-29T12:05:07Z</time>
      </trkpt>
      <trkpt lat="42.3706600" lon="-3.4814120">
        <ele>943.2</ele>
        <time>2022-08-29T12:05:08Z</time>
      </trkpt>
      <trkpt lat="42.3706970" lon="-3.4815030">
        <ele>942.4</ele>
        <time>2022-08-29T12:05:09Z</time>
      </trkpt>
      <trkpt lat="42.3707360" lon="-3.4815950">
        <ele>942.2</ele>
        <time>2022-08-29T12:05:10Z</time>
      </trkpt>
      <trkpt lat="42.3707770" lon="-3.4816890">
        <ele>941.8</ele>
        <time>2022-08-29T12:05:11Z</time>
      </trkpt>
      <trkpt lat="42.3708180" lon="-3.4817850">
        <ele>941.4</ele>
        <time>2022-08-29T12:05:12Z</time>
      </trkpt>
      <trkpt lat="42.3708600" lon="-3.4818830">
        <ele>941.2</ele>
        <time>2022-08-29T12:05:13Z</time>
      </trkpt>
      <trkpt lat="42.3709020" lon="-3.4819820">
        <ele>940.8</ele>
        <time>2022-08-29T12:05:14Z</time>
      </trkpt>
      <trkpt lat="42.3709440" lon="-3.4820830">
        <ele>940.0</ele>
        <time>2022-08-29T12:05:15Z</time>
      </trkpt>
      <trkpt lat="42.3709870" lon="-3.4821850">
        <ele>939.4</ele>
        <time>2022-08-29T12:05:16Z</time>
      </trkpt>
      <trkpt lat="42.3710310" lon="-3.4822880">
        <ele>938.6</ele>
        <time>2022-08-29T12:05:17Z</time>
      </trkpt>
      <trkpt lat="42.3710730" lon="-3.4823930">
        <ele>938.0</ele>
        <time>2022-08-29T12:05:18Z</time>
      </trkpt>
      <trkpt lat="42.3711140" lon="-3.4825020">
        <ele>937.4</ele>
        <time>2022-08-29T12:05:19Z</time>
      </trkpt>
      <trkpt lat="42.3711560" lon="-3.4826110">
        <ele>937.4</ele>
        <time>2022-08-29T12:05:20Z</time>
      </trkpt>
      <trkpt lat="42.3711970" lon="-3.4827230">
        <ele>937.0</ele>
        <time>2022-08-29T12:05:21Z</time>
      </trkpt>
      <trkpt lat="42.3712390" lon="-3.4828380">
        <ele>936.6</ele>
        <time>2022-08-29T12:05:22Z</time>
      </trkpt>
      <trkpt lat="42.3712820" lon="-3.4829550">
        <ele>936.2</ele>
        <time>2022-08-29T12:05:23Z</time>
      </trkpt>
      <trkpt lat="42.3713240" lon="-3.4830770">
        <ele>935.6</ele>
        <time>2022-08-29T12:05:24Z</time>
      </trkpt>
      <trkpt lat="42.3713630" lon="-3.4832030">
        <ele>935.0</ele>
        <time>2022-08-29T12:05:25Z</time>
      </trkpt>
      <trkpt lat="42.3714010" lon="-3.4833340">
        <ele>934.6</ele>
        <time>2022-08-29T12:05:26Z</time>
      </trkpt>
      <trkpt lat="42.3714390" lon="-3.4834660">
        <ele>934.0</ele>
        <time>2022-08-29T12:05:27Z</time>
      </trkpt>
      <trkpt lat="42.3714760" lon="-3.4835980">
        <ele>933.6</ele>
        <time>2022-08-29T12:05:28Z</time>
      </trkpt>
      <trkpt lat="42.3715130" lon="-3.4837270">
        <ele>933.2</ele>
        <time>2022-08-29T12:05:29Z</time>
      </trkpt>
      <trkpt lat="42.3715490" lon="-3.4838530">
        <ele>932.6</ele>
        <time>2022-08-29T12:05:30Z</time>
      </trkpt>
      <trkpt lat="42.3715810" lon="-3.4839780">
        <ele>931.8</ele>
        <time>2022-08-29T12:05:31Z</time>
      </trkpt>
      <trkpt lat="42.3716120" lon="-3.4840990">
        <ele>931.0</ele>
        <time>2022-08-29T12:05:32Z</time>
      </trkpt>
      <trkpt lat="42.3716430" lon="-3.4842150">
        <ele>929.8</ele>
        <time>2022-08-29T12:05:33Z</time>
      </trkpt>
      <trkpt lat="42.3716730" lon="-3.4843270">
        <ele>928.8</ele>
        <time>2022-08-29T12:05:34Z</time>
      </trkpt>
      <trkpt lat="42.3716990" lon="-3.4844390">
        <ele>927.6</ele>
        <time>2022-08-29T12:05:35Z</time>
      </trkpt>
      <trkpt lat="42.3717160" lon="-3.4845500">
        <ele>926.4</ele>
        <time>2022-08-29T12:05:36Z</time>
      </trkpt>
      <trkpt lat="42.3717270" lon="-3.4846620">
        <ele>925.8</ele>
        <time>2022-08-29T12:05:37Z</time>
      </trkpt>
      <trkpt lat="42.3717320" lon="-3.4847730">
        <ele>925.6</ele>
        <time>2022-08-29T12:05:38Z</time>
      </trkpt>
      <trkpt lat="42.3717350" lon="-3.4848800">
        <ele>925.4</ele>
        <time>2022-08-29T12:05:39Z</time>
      </trkpt>
      <trkpt lat="42.3717360" lon="-3.4849800">
        <ele>925.4</ele>
        <time>2022-08-29T12:05:40Z</time>
      </trkpt>
      <trkpt lat="42.3717370" lon="-3.4850710">
        <ele>925.4</ele>
        <time>2022-08-29T12:05:41Z</time>
      </trkpt>
      <trkpt lat="42.3717350" lon="-3.4851570">
        <ele>925.4</ele>
        <time>2022-08-29T12:05:42Z</time>
      </trkpt>
      <trkpt lat="42.3717330" lon="-3.4852340">
        <ele>925.2</ele>
        <time>2022-08-29T12:05:43Z</time>
      </trkpt>
      <trkpt lat="42.3717330" lon="-3.4853010">
        <ele>925.4</ele>
        <time>2022-08-29T12:05:44Z</time>
      </trkpt>
      <trkpt lat="42.3717340" lon="-3.4853610">
        <ele>925.4</ele>
        <time>2022-08-29T12:05:45Z</time>
      </trkpt>
      <trkpt lat="42.3717330" lon="-3.4854200">
        <ele>925.2</ele>
        <time>2022-08-29T12:05:46Z</time>
      </trkpt>
      <trkpt lat="42.3717290" lon="-3.4854790">
        <ele>925.4</ele>
        <time>2022-08-29T12:05:47Z</time>
      </trkpt>
      <trkpt lat="42.3717250" lon="-3.4855380">
        <ele>925.4</ele>
        <time>2022-08-29T12:05:48Z</time>
      </trkpt>
      <trkpt lat="42.3717210" lon="-3.4855990">
        <ele>925.4</ele>
        <time>2022-08-29T12:05:49Z</time>
      </trkpt>
      <trkpt lat="42.3717190" lon="-3.4856620">
        <ele>925.8</ele>
        <time>2022-08-29T12:05:50Z</time>
      </trkpt>
      <trkpt lat="42.3717190" lon="-3.4857280">
        <ele>926.0</ele>
        <time>2022-08-29T12:05:51Z</time>
      </trkpt>
      <trkpt lat="42.3717200" lon="-3.4857970">
        <ele>926.4</ele>
        <time>2022-08-29T12:05:52Z</time>
      </trkpt>
      <trkpt lat="42.3717210" lon="-3.4858680">
        <ele>926.4</ele>
        <time>2022-08-29T12:05:53Z</time>
      </trkpt>
      <trkpt lat="42.3717220" lon="-3.4859410">
        <ele>926.6</ele>
        <time>2022-08-29T12:05:54Z</time>
      </trkpt>
      <trkpt lat="42.3717210" lon="-3.4860190">
        <ele>926.4</ele>
        <time>2022-08-29T12:05:55Z</time>
      </trkpt>
      <trkpt lat="42.3717200" lon="-3.4860970">
        <ele>926.6</ele>
        <time>2022-08-29T12:05:56Z</time>
      </trkpt>
      <trkpt lat="42.3717190" lon="-3.4861750">
        <ele>926.4</ele>
        <time>2022-08-29T12:05:57Z</time>
      </trkpt>
      <trkpt lat="42.3717170" lon="-3.4862550">
        <ele>926.6</ele>
        <time>2022-08-29T12:05:58Z</time>
      </trkpt>
      <trkpt lat="42.3717150" lon="-3.4863340">
        <ele>926.6</ele>
        <time>2022-08-29T12:05:59Z</time>
      </trkpt>
      <trkpt lat="42.3717130" lon="-3.4864130">
        <ele>926.8</ele>
        <time>2022-08-29T12:06:00Z</time>
      </trkpt>
      <trkpt lat="42.3717120" lon="-3.4864930">
        <ele>926.6</ele>
        <time>2022-08-29T12:06:01Z</time>
      </trkpt>
      <trkpt lat="42.3717120" lon="-3.4865740">
        <ele>926.6</ele>
        <time>2022-08-29T12:06:02Z</time>
      </trkpt>
      <trkpt lat="42.3717110" lon="-3.4866560">
        <ele>926.6</ele>
        <time>2022-08-29T12:06:03Z</time>
      </trkpt>
      <trkpt lat="42.3717120" lon="-3.4867380">
        <ele>926.6</ele>
        <time>2022-08-29T12:06:04Z</time>
      </trkpt>
      <trkpt lat="42.3717130" lon="-3.4868210">
        <ele>926.4</ele>
        <time>2022-08-29T12:06:05Z</time>
      </trkpt>
      <trkpt lat="42.3717130" lon="-3.4869040">
        <ele>926.2</ele>
        <time>2022-08-29T12:06:06Z</time>
      </trkpt>
      <trkpt lat="42.3717120" lon="-3.4869850">
        <ele>926.0</ele>
        <time>2022-08-29T12:06:07Z</time>
      </trkpt>
      <trkpt lat="42.3717110" lon="-3.4870660">
        <ele>926.0</ele>
        <time>2022-08-29T12:06:08Z</time>
      </trkpt>
      <trkpt lat="42.3717110" lon="-3.4871460">
        <ele>926.0</ele>
        <time>2022-08-29T12:06:09Z</time>
      </trkpt>
      <trkpt lat="42.3717090" lon="-3.4872250">
        <ele>925.8</ele>
        <time>2022-08-29T12:06:10Z</time>
      </trkpt>
      <trkpt lat="42.3717080" lon="-3.4873030">
        <ele>925.8</ele>
        <time>2022-08-29T12:06:11Z</time>
      </trkpt>
      <trkpt lat="42.3717080" lon="-3.4873810">
        <ele>925.8</ele>
        <time>2022-08-29T12:06:12Z</time>
      </trkpt>
      <trkpt lat="42.3717070" lon="-3.4874590">
        <ele>925.6</ele>
        <time>2022-08-29T12:06:13Z</time>
      </trkpt>
      <trkpt lat="42.3717050" lon="-3.4875360">
        <ele>925.6</ele>
        <time>2022-08-29T12:06:14Z</time>
      </trkpt>
      <trkpt lat="42.3717040" lon="-3.4876140">
        <ele>925.6</ele>
        <time>2022-08-29T12:06:15Z</time>
      </trkpt>
      <trkpt lat="42.3717030" lon="-3.4876930">
        <ele>925.6</ele>
        <time>2022-08-29T12:06:16Z</time>
      </trkpt>
      <trkpt lat="42.3717030" lon="-3.4877710">
        <ele>925.6</ele>
        <time>2022-08-29T12:06:17Z</time>
      </trkpt>
      <trkpt lat="42.3717030" lon="-3.4878480">
        <ele>925.6</ele>
        <time>2022-08-29T12:06:18Z</time>
      </trkpt>
      <trkpt lat="42.3717010" lon="-3.4879260">
        <ele>925.6</ele>
        <time>2022-08-29T12:06:19Z</time>
      </trkpt>
      <trkpt lat="42.3717010" lon="-3.4880020">
        <ele>925.6</ele>
        <time>2022-08-29T12:06:20Z</time>
      </trkpt>
      <trkpt lat="42.3717000" lon="-3.4880790">
        <ele>925.6</ele>
        <time>2022-08-29T12:06:21Z</time>
      </trkpt>
      <trkpt lat="42.3716990" lon="-3.4881570">
        <ele>925.6</ele>
        <time>2022-08-29T12:06:22Z</time>
      </trkpt>
      <trkpt lat="42.3716990" lon="-3.4882350">
        <ele>925.6</ele>
        <time>2022-08-29T12:06:23Z</time>
      </trkpt>
      <trkpt lat="42.3716990" lon="-3.4883140">
        <ele>925.6</ele>
        <time>2022-08-29T12:06:24Z</time>
      </trkpt>
      <trkpt lat="42.3717000" lon="-3.4883930">
        <ele>925.6</ele>
        <time>2022-08-29T12:06:25Z</time>
      </trkpt>
      <trkpt lat="42.3717010" lon="-3.4884710">
        <ele>925.6</ele>
        <time>2022-08-29T12:06:26Z</time>
      </trkpt>
      <trkpt lat="42.3717030" lon="-3.4885500">
        <ele>925.8</ele>
        <time>2022-08-29T12:06:27Z</time>
      </trkpt>
      <trkpt lat="42.3717050" lon="-3.4886290">
        <ele>925.8</ele>
        <time>2022-08-29T12:06:28Z</time>
      </trkpt>
      <trkpt lat="42.3717080" lon="-3.4887090">
        <ele>925.8</ele>
        <time>2022-08-29T12:06:29Z</time>
      </trkpt>
      <trkpt lat="42.3717130" lon="-3.4887880">
        <ele>925.8</ele>
        <time>2022-08-29T12:06:30Z</time>
      </trkpt>
      <trkpt lat="42.3717180" lon="-3.4888660">
        <ele>925.8</ele>
        <time>2022-08-29T12:06:31Z</time>
      </trkpt>
      <trkpt lat="42.3717240" lon="-3.4889440">
        <ele>925.8</ele>
        <time>2022-08-29T12:06:32Z</time>
      </trkpt>
      <trkpt lat="42.3717320" lon="-3.4890200">
        <ele>925.8</ele>
        <time>2022-08-29T12:06:33Z</time>
      </trkpt>
      <trkpt lat="42.3717420" lon="-3.4890970">
        <ele>925.8</ele>
        <time>2022-08-29T12:06:34Z</time>
      </trkpt>
      <trkpt lat="42.3717530" lon="-3.4891720">
        <ele>925.8</ele>
        <time>2022-08-29T12:06:35Z</time>
      </trkpt>
      <trkpt lat="42.3717670" lon="-3.4892480">
        <ele>926.0</ele>
        <time>2022-08-29T12:06:36Z</time>
      </trkpt>
      <trkpt lat="42.3717800" lon="-3.4893240">
        <ele>925.8</ele>
        <time>2022-08-29T12:06:37Z</time>
      </trkpt>
      <trkpt lat="42.3717930" lon="-3.4893990">
        <ele>926.0</ele>
        <time>2022-08-29T12:06:38Z</time>
      </trkpt>
      <trkpt lat="42.3718060" lon="-3.4894740">
        <ele>925.8</ele>
        <time>2022-08-29T12:06:39Z</time>
      </trkpt>
      <trkpt lat="42.3718200" lon="-3.4895490">
        <ele>926.0</ele>
        <time>2022-08-29T12:06:40Z</time>
      </trkpt>
      <trkpt lat="42.3718340" lon="-3.4896240">
        <ele>925.8</ele>
        <time>2022-08-29T12:06:41Z</time>
      </trkpt>
      <trkpt lat="42.3718480" lon="-3.4897010">
        <ele>926.0</ele>
        <time>2022-08-29T12:06:42Z</time>
      </trkpt>
      <trkpt lat="42.3718620" lon="-3.4897780">
        <ele>926.2</ele>
        <time>2022-08-29T12:06:43Z</time>
      </trkpt>
      <trkpt lat="42.3718750" lon="-3.4898560">
        <ele>926.2</ele>
        <time>2022-08-29T12:06:44Z</time>
      </trkpt>
      <trkpt lat="42.3718900" lon="-3.4899330">
        <ele>926.2</ele>
        <time>2022-08-29T12:06:45Z</time>
      </trkpt>
      <trkpt lat="42.3719040" lon="-3.4900110">
        <ele>926.4</ele>
        <time>2022-08-29T12:06:46Z</time>
      </trkpt>
      <trkpt lat="42.3719190" lon="-3.4900890">
        <ele>926.4</ele>
        <time>2022-08-29T12:06:47Z</time>
      </trkpt>
      <trkpt lat="42.3719340" lon="-3.4901670">
        <ele>926.6</ele>
        <time>2022-08-29T12:06:48Z</time>
      </trkpt>
      <trkpt lat="42.3719490" lon="-3.4902450">
        <ele>926.6</ele>
        <time>2022-08-29T12:06:49Z</time>
      </trkpt>
      <trkpt lat="42.3719640" lon="-3.4903240">
        <ele>926.6</ele>
        <time>2022-08-29T12:06:50Z</time>
      </trkpt>
      <trkpt lat="42.3719770" lon="-3.4904040">
        <ele>926.6</ele>
        <time>2022-08-29T12:06:51Z</time>
      </trkpt>
      <trkpt lat="42.3719910" lon="-3.4904830">
        <ele>926.6</ele>
        <time>2022-08-29T12:06:52Z</time>
      </trkpt>
      <trkpt lat="42.3720050" lon="-3.4905600">
        <ele>926.6</ele>
        <time>2022-08-29T12:06:53Z</time>
      </trkpt>
      <trkpt lat="42.3720180" lon="-3.4906380">
        <ele>926.6</ele>
        <time>2022-08-29T12:06:54Z</time>
      </trkpt>
      <trkpt lat="42.3720320" lon="-3.4907150">
        <ele>926.6</ele>
        <time>2022-08-29T12:06:55Z</time>
      </trkpt>
      <trkpt lat="42.3720450" lon="-3.4907910">
        <ele>926.6</ele>
        <time>2022-08-29T12:06:56Z</time>
      </trkpt>
      <trkpt lat="42.3720590" lon="-3.4908680">
        <ele>926.6</ele>
        <time>2022-08-29T12:06:57Z</time>
      </trkpt>
      <trkpt lat="42.3720740" lon="-3.4909440">
        <ele>926.6</ele>
        <time>2022-08-29T12:06:58Z</time>
      </trkpt>
      <trkpt lat="42.3720900" lon="-3.4910200">
        <ele>926.8</ele>
        <time>2022-08-29T12:06:59Z</time>
      </trkpt>
      <trkpt lat="42.3721060" lon="-3.4910960">
        <ele>926.8</ele>
        <time>2022-08-29T12:07:00Z</time>
      </trkpt>
      <trkpt lat="42.3721200" lon="-3.4911730">
        <ele>926.8</ele>
        <time>2022-08-29T12:07:01Z</time>
      </trkpt>
      <trkpt lat="42.3721340" lon="-3.4912510">
        <ele>926.8</ele>
        <time>2022-08-29T12:07:02Z</time>
      </trkpt>
      <trkpt lat="42.3721480" lon="-3.4913280">
        <ele>926.8</ele>
        <time>2022-08-29T12:07:03Z</time>
      </trkpt>
      <trkpt lat="42.3721620" lon="-3.4914060">
        <ele>927.0</ele>
        <time>2022-08-29T12:07:04Z</time>
      </trkpt>
      <trkpt lat="42.3721760" lon="-3.4914830">
        <ele>927.0</ele>
        <time>2022-08-29T12:07:05Z</time>
      </trkpt>
      <trkpt lat="42.3721890" lon="-3.4915610">
        <ele>927.2</ele>
        <time>2022-08-29T12:07:06Z</time>
      </trkpt>
      <trkpt lat="42.3722030" lon="-3.4916390">
        <ele>927.2</ele>
        <time>2022-08-29T12:07:07Z</time>
      </trkpt>
      <trkpt lat="42.3722170" lon="-3.4917170">
        <ele>927.2</ele>
        <time>2022-08-29T12:07:08Z</time>
      </trkpt>
      <trkpt lat="42.3722320" lon="-3.4917960">
        <ele>927.2</ele>
        <time>2022-08-29T12:07:09Z</time>
      </trkpt>
      <trkpt lat="42.3722470" lon="-3.4918750">
        <ele>927.4</ele>
        <time>2022-08-29T12:07:10Z</time>
      </trkpt>
      <trkpt lat="42.3722620" lon="-3.4919550">
        <ele>927.2</ele>
        <time>2022-08-29T12:07:11Z</time>
      </trkpt>
      <trkpt lat="42.3722760" lon="-3.4920360">
        <ele>927.4</ele>
        <time>2022-08-29T12:07:12Z</time>
      </trkpt>
      <trkpt lat="42.3722900" lon="-3.4921170">
        <ele>927.2</ele>
        <time>2022-08-29T12:07:13Z</time>
      </trkpt>
      <trkpt lat="42.3723060" lon="-3.4921980">
        <ele>927.2</ele>
        <time>2022-08-29T12:07:14Z</time>
      </trkpt>
      <trkpt lat="42.3723220" lon="-3.4922800">
        <ele>927.2</ele>
        <time>2022-08-29T12:07:15Z</time>
      </trkpt>
      <trkpt lat="42.3723380" lon="-3.4923620">
        <ele>927.2</ele>
        <time>2022-08-29T12:07:16Z</time>
      </trkpt>
      <trkpt lat="42.3723540" lon="-3.4924440">
        <ele>927.4</ele>
        <time>2022-08-29T12:07:17Z</time>
      </trkpt>
      <trkpt lat="42.3723690" lon="-3.4925270">
        <ele>927.4</ele>
        <time>2022-08-29T12:07:18Z</time>
      </trkpt>
      <trkpt lat="42.3723840" lon="-3.4926080">
        <ele>927.4</ele>
        <time>2022-08-29T12:07:19Z</time>
      </trkpt>
      <trkpt lat="42.3723990" lon="-3.4926890">
        <ele>927.4</ele>
        <time>2022-08-29T12:07:20Z</time>
      </trkpt>
      <trkpt lat="42.3724140" lon="-3.4927690">
        <ele>927.2</ele>
        <time>2022-08-29T12:07:21Z</time>
      </trkpt>
      <trkpt lat="42.3724300" lon="-3.4928490">
        <ele>927.2</ele>
        <time>2022-08-29T12:07:22Z</time>
      </trkpt>
      <trkpt lat="42.3724450" lon="-3.4929280">
        <ele>927.2</ele>
        <time>2022-08-29T12:07:23Z</time>
      </trkpt>
      <trkpt lat="42.3724590" lon="-3.4930070">
        <ele>927.2</ele>
        <time>2022-08-29T12:07:24Z</time>
      </trkpt>
      <trkpt lat="42.3724740" lon="-3.4930860">
        <ele>927.0</ele>
        <time>2022-08-29T12:07:25Z</time>
      </trkpt>
      <trkpt lat="42.3724880" lon="-3.4931640">
        <ele>927.2</ele>
        <time>2022-08-29T12:07:26Z</time>
      </trkpt>
      <trkpt lat="42.3725020" lon="-3.4932430">
        <ele>927.2</ele>
        <time>2022-08-29T12:07:27Z</time>
      </trkpt>
      <trkpt lat="42.3725160" lon="-3.4933220">
        <ele>927.2</ele>
        <time>2022-08-29T12:07:28Z</time>
      </trkpt>
      <trkpt lat="42.3725300" lon="-3.4934000">
        <ele>927.2</ele>
        <time>2022-08-29T12:07:29Z</time>
      </trkpt>
      <trkpt lat="42.3725450" lon="-3.4934770">
        <ele>927.2</ele>
        <time>2022-08-29T12:07:30Z</time>
      </trkpt>
      <trkpt lat="42.3725600" lon="-3.4935530">
        <ele>927.2</ele>
        <time>2022-08-29T12:07:31Z</time>
      </trkpt>
      <trkpt lat="42.3725760" lon="-3.4936280">
        <ele>927.2</ele>
        <time>2022-08-29T12:07:32Z</time>
      </trkpt>
      <trkpt lat="42.3725910" lon="-3.4937030">
        <ele>927.2</ele>
        <time>2022-08-29T12:07:33Z</time>
      </trkpt>
      <trkpt lat="42.3726050" lon="-3.4937760">
        <ele>927.2</ele>
        <time>2022-08-29T12:07:34Z</time>
      </trkpt>
      <trkpt lat="42.3726190" lon="-3.4938500">
        <ele>927.2</ele>
        <time>2022-08-29T12:07:35Z</time>
      </trkpt>
      <trkpt lat="42.3726340" lon="-3.4939250">
        <ele>927.2</ele>
        <time>2022-08-29T12:07:36Z</time>
      </trkpt>
      <trkpt lat="42.3726480" lon="-3.4940000">
        <ele>927.4</ele>
        <time>2022-08-29T12:07:37Z</time>
      </trkpt>
      <trkpt lat="42.3726620" lon="-3.4940750">
        <ele>927.2</ele>
        <time>2022-08-29T12:07:38Z</time>
      </trkpt>
      <trkpt lat="42.3726760" lon="-3.4941500">
        <ele>927.4</ele>
        <time>2022-08-29T12:07:39Z</time>
      </trkpt>
      <trkpt lat="42.3726910" lon="-3.4942250">
        <ele>927.8</ele>
        <time>2022-08-29T12:07:40Z</time>
      </trkpt>
      <trkpt lat="42.3727050" lon="-3.4943000">
        <ele>927.8</ele>
        <time>2022-08-29T12:07:41Z</time>
      </trkpt>
      <trkpt lat="42.3727200" lon="-3.4943750">
        <ele>927.8</ele>
        <time>2022-08-29T12:07:42Z</time>
      </trkpt>
      <trkpt lat="42.3727340" lon="-3.4944500">
        <ele>928.0</ele>
        <time>2022-08-29T12:07:43Z</time>
      </trkpt>
      <trkpt lat="42.3727480" lon="-3.4945260">
        <ele>928.2</ele>
        <time>2022-08-29T12:07:44Z</time>
      </trkpt>
      <trkpt lat="42.3727610" lon="-3.4946020">
        <ele>928.2</ele>
        <time>2022-08-29T12:07:45Z</time>
      </trkpt>
      <trkpt lat="42.3727760" lon="-3.4946780">
        <ele>928.6</ele>
        <time>2022-08-29T12:07:46Z</time>
      </trkpt>
      <trkpt lat="42.3727900" lon="-3.4947540">
        <ele>928.6</ele>
        <time>2022-08-29T12:07:47Z</time>
      </trkpt>
      <trkpt lat="42.3728050" lon="-3.4948310">
        <ele>928.6</ele>
        <time>2022-08-29T12:07:48Z</time>
      </trkpt>
      <trkpt lat="42.3728180" lon="-3.4949090">
        <ele>928.8</ele>
        <time>2022-08-29T12:07:49Z</time>
      </trkpt>
      <trkpt lat="42.3728330" lon="-3.4949860">
        <ele>928.8</ele>
        <time>2022-08-29T12:07:50Z</time>
      </trkpt>
      <trkpt lat="42.3728470" lon="-3.4950640">
        <ele>929.0</ele>
        <time>2022-08-29T12:07:51Z</time>
      </trkpt>
      <trkpt lat="42.3728620" lon="-3.4951420">
        <ele>928.8</ele>
        <time>2022-08-29T12:07:52Z</time>
      </trkpt>
      <trkpt lat="42.3728760" lon="-3.4952200">
        <ele>929.0</ele>
        <time>2022-08-29T12:07:53Z</time>
      </trkpt>
      <trkpt lat="42.3728900" lon="-3.4952980">
        <ele>929.2</ele>
        <time>2022-08-29T12:07:54Z</time>
      </trkpt>
      <trkpt lat="42.3729040" lon="-3.4953760">
        <ele>929.0</ele>
        <time>2022-08-29T12:07:55Z</time>
      </trkpt>
      <trkpt lat="42.3729180" lon="-3.4954540">
        <ele>929.2</ele>
        <time>2022-08-29T12:07:56Z</time>
      </trkpt>
      <trkpt lat="42.3729330" lon="-3.4955320">
        <ele>929.4</ele>
        <time>2022-08-29T12:07:57Z</time>
      </trkpt>
      <trkpt lat="42.3729480" lon="-3.4956090">
        <ele>929.4</ele>
        <time>2022-08-29T12:07:58Z</time>
      </trkpt>
      <trkpt lat="42.3729640" lon="-3.4956870">
        <ele>929.4</ele>
        <time>2022-08-29T12:07:59Z</time>
      </trkpt>
      <trkpt lat="42.3729790" lon="-3.4957660">
        <ele>929.4</ele>
        <time>2022-08-29T12:08:00Z</time>
      </trkpt>
      <trkpt lat="42.3729930" lon="-3.4958440">
        <ele>929.4</ele>
        <time>2022-08-29T12:08:01Z</time>
      </trkpt>
      <trkpt lat="42.3730070" lon="-3.4959220">
        <ele>929.6</ele>
        <time>2022-08-29T12:08:02Z</time>
      </trkpt>
      <trkpt lat="42.3730210" lon="-3.4960000">
        <ele>929.4</ele>
        <time>2022-08-29T12:08:03Z</time>
      </trkpt>
      <trkpt lat="42.3730360" lon="-3.4960780">
        <ele>929.6</ele>
        <time>2022-08-29T12:08:04Z</time>
      </trkpt>
      <trkpt lat="42.3730510" lon="-3.4961560">
        <ele>929.6</ele>
        <time>2022-08-29T12:08:05Z</time>
      </trkpt>
      <trkpt lat="42.3730660" lon="-3.4962340">
        <ele>929.8</ele>
        <time>2022-08-29T12:08:06Z</time>
      </trkpt>
      <trkpt lat="42.3730800" lon="-3.4963120">
        <ele>929.8</ele>
        <time>2022-08-29T12:08:07Z</time>
      </trkpt>
      <trkpt lat="42.3730950" lon="-3.4963890">
        <ele>929.8</ele>
        <time>2022-08-29T12:08:08Z</time>
      </trkpt>
      <trkpt lat="42.3731090" lon="-3.4964660">
        <ele>929.8</ele>
        <time>2022-08-29T12:08:09Z</time>
      </trkpt>
      <trkpt lat="42.3731240" lon="-3.4965440">
        <ele>930.0</ele>
        <time>2022-08-29T12:08:10Z</time>
      </trkpt>
      <trkpt lat="42.3731380" lon="-3.4966210">
        <ele>929.8</ele>
        <time>2022-08-29T12:08:11Z</time>
      </trkpt>
      <trkpt lat="42.3731520" lon="-3.4966990">
        <ele>930.0</ele>
        <time>2022-08-29T12:08:12Z</time>
      </trkpt>
      <trkpt lat="42.3731660" lon="-3.4967770">
        <ele>930.0</ele>
        <time>2022-08-29T12:08:13Z</time>
      </trkpt>
      <trkpt lat="42.3731810" lon="-3.4968550">
        <ele>930.0</ele>
        <time>2022-08-29T12:08:14Z</time>
      </trkpt>
      <trkpt lat="42.3731960" lon="-3.4969330">
        <ele>930.0</ele>
        <time>2022-08-29T12:08:15Z</time>
      </trkpt>
      <trkpt lat="42.3732110" lon="-3.4970130">
        <ele>930.0</ele>
        <time>2022-08-29T12:08:16Z</time>
      </trkpt>
      <trkpt lat="42.3732260" lon="-3.4970940">
        <ele>930.2</ele>
        <time>2022-08-29T12:08:17Z</time>
      </trkpt>
      <trkpt lat="42.3732400" lon="-3.4971750">
        <ele>930.2</ele>
        <time>2022-08-29T12:08:18Z</time>
      </trkpt>
      <trkpt lat="42.3732560" lon="-3.4972570">
        <ele>930.2</ele>
        <time>2022-08-29T12:08:19Z</time>
      </trkpt>
      <trkpt lat="42.3732710" lon="-3.4973380">
        <ele>930.2</ele>
        <time>2022-08-29T12:08:20Z</time>
      </trkpt>
      <trkpt lat="42.3732870" lon="-3.4974190">
        <ele>930.4</ele>
        <time>2022-08-29T12:08:21Z</time>
      </trkpt>
      <trkpt lat="42.3733020" lon="-3.4975010">
        <ele>930.4</ele>
        <time>2022-08-29T12:08:22Z</time>
      </trkpt>
      <trkpt lat="42.3733180" lon="-3.4975830">
        <ele>930.4</ele>
        <time>2022-08-29T12:08:23Z</time>
      </trkpt>
      <trkpt lat="42.3733320" lon="-3.4976650">
        <ele>930.6</ele>
        <time>2022-08-29T12:08:24Z</time>
      </trkpt>
      <trkpt lat="42.3733460" lon="-3.4977470">
        <ele>930.4</ele>
        <time>2022-08-29T12:08:25Z</time>
      </trkpt>
      <trkpt lat="42.3733610" lon="-3.4978280">
        <ele>930.6</ele>
        <time>2022-08-29T12:08:26Z</time>
      </trkpt>
      <trkpt lat="42.3733770" lon="-3.4979100">
        <ele>930.6</ele>
        <time>2022-08-29T12:08:27Z</time>
      </trkpt>
      <trkpt lat="42.3733930" lon="-3.4979910">
        <ele>930.6</ele>
        <time>2022-08-29T12:08:28Z</time>
      </trkpt>
      <trkpt lat="42.3734080" lon="-3.4980720">
        <ele>930.6</ele>
        <time>2022-08-29T12:08:29Z</time>
      </trkpt>
      <trkpt lat="42.3734230" lon="-3.4981540">
        <ele>930.6</ele>
        <time>2022-08-29T12:08:30Z</time>
      </trkpt>
      <trkpt lat="42.3734380" lon="-3.4982350">
        <ele>930.6</ele>
        <time>2022-08-29T12:08:31Z</time>
      </trkpt>
      <trkpt lat="42.3734520" lon="-3.4983160">
        <ele>930.6</ele>
        <time>2022-08-29T12:08:32Z</time>
      </trkpt>
      <trkpt lat="42.3734670" lon="-3.4983970">
        <ele>930.4</ele>
        <time>2022-08-29T12:08:33Z</time>
      </trkpt>
      <trkpt lat="42.3734820" lon="-3.4984770">
        <ele>930.4</ele>
        <time>2022-08-29T12:08:34Z</time>
      </trkpt>
      <trkpt lat="42.3734980" lon="-3.4985570">
        <ele>930.6</ele>
        <time>2022-08-29T12:08:35Z</time>
      </trkpt>
      <trkpt lat="42.3735130" lon="-3.4986370">
        <ele>930.6</ele>
        <time>2022-08-29T12:08:36Z</time>
      </trkpt>
      <trkpt lat="42.3735280" lon="-3.4987170">
        <ele>930.6</ele>
        <time>2022-08-29T12:08:37Z</time>
      </trkpt>
      <trkpt lat="42.3735430" lon="-3.4987960">
        <ele>930.6</ele>
        <time>2022-08-29T12:08:38Z</time>
      </trkpt>
      <trkpt lat="42.3735560" lon="-3.4988750">
        <ele>930.6</ele>
        <time>2022-08-29T12:08:39Z</time>
      </trkpt>
      <trkpt lat="42.3735690" lon="-3.4989540">
        <ele>930.6</ele>
        <time>2022-08-29T12:08:40Z</time>
      </trkpt>
      <trkpt lat="42.3735840" lon="-3.4990330">
        <ele>930.6</ele>
        <time>2022-08-29T12:08:41Z</time>
      </trkpt>
      <trkpt lat="42.3735990" lon="-3.4991100">
        <ele>930.6</ele>
        <time>2022-08-29T12:08:42Z</time>
      </trkpt>
      <trkpt lat="42.3736140" lon="-3.4991870">
        <ele>930.6</ele>
        <time>2022-08-29T12:08:43Z</time>
      </trkpt>
      <trkpt lat="42.3736300" lon="-3.4992620">
        <ele>930.6</ele>
        <time>2022-08-29T12:08:44Z</time>
      </trkpt>
      <trkpt lat="42.3736440" lon="-3.4993380">
        <ele>930.6</ele>
        <time>2022-08-29T12:08:45Z</time>
      </trkpt>
      <trkpt lat="42.3736570" lon="-3.4994130">
        <ele>930.8</ele>
        <time>2022-08-29T12:08:46Z</time>
      </trkpt>
      <trkpt lat="42.3736710" lon="-3.4994880">
        <ele>930.8</ele>
        <time>2022-08-29T12:08:47Z</time>
      </trkpt>
      <trkpt lat="42.3736860" lon="-3.4995630">
        <ele>931.0</ele>
        <time>2022-08-29T12:08:48Z</time>
      </trkpt>
      <trkpt lat="42.3737000" lon="-3.4996380">
        <ele>931.2</ele>
        <time>2022-08-29T12:08:49Z</time>
      </trkpt>
      <trkpt lat="42.3737140" lon="-3.4997120">
        <ele>931.2</ele>
        <time>2022-08-29T12:08:50Z</time>
      </trkpt>
      <trkpt lat="42.3737270" lon="-3.4997850">
        <ele>931.4</ele>
        <time>2022-08-29T12:08:51Z</time>
      </trkpt>
      <trkpt lat="42.3737410" lon="-3.4998570">
        <ele>931.4</ele>
        <time>2022-08-29T12:08:52Z</time>
      </trkpt>
      <trkpt lat="42.3737540" lon="-3.4999280">
        <ele>931.4</ele>
        <time>2022-08-29T12:08:53Z</time>
      </trkpt>
      <trkpt lat="42.3737660" lon="-3.4999990">
        <ele>931.6</ele>
        <time>2022-08-29T12:08:54Z</time>
      </trkpt>
      <trkpt lat="42.3737790" lon="-3.5000700">
        <ele>931.6</ele>
        <time>2022-08-29T12:08:55Z</time>
      </trkpt>
      <trkpt lat="42.3737920" lon="-3.5001410">
        <ele>931.6</ele>
        <time>2022-08-29T12:08:56Z</time>
      </trkpt>
      <trkpt lat="42.3738060" lon="-3.5002120">
        <ele>931.6</ele>
        <time>2022-08-29T12:08:57Z</time>
      </trkpt>
      <trkpt lat="42.3738190" lon="-3.5002840">
        <ele>932.0</ele>
        <time>2022-08-29T12:08:58Z</time>
      </trkpt>
      <trkpt lat="42.3738340" lon="-3.5003560">
        <ele>931.8</ele>
        <time>2022-08-29T12:08:59Z</time>
      </trkpt>
      <trkpt lat="42.3738470" lon="-3.5004290">
        <ele>932.2</ele>
        <time>2022-08-29T12:09:00Z</time>
      </trkpt>
      <trkpt lat="42.3738590" lon="-3.5005040">
        <ele>932.2</ele>
        <time>2022-08-29T12:09:01Z</time>
      </trkpt>
      <trkpt lat="42.3738710" lon="-3.5005800">
        <ele>932.2</ele>
        <time>2022-08-29T12:09:02Z</time>
      </trkpt>
      <trkpt lat="42.3738840" lon="-3.5006570">
        <ele>932.4</ele>
        <time>2022-08-29T12:09:03Z</time>
      </trkpt>
      <trkpt lat="42.3738970" lon="-3.5007340">
        <ele>932.6</ele>
        <time>2022-08-29T12:09:04Z</time>
      </trkpt>
      <trkpt lat="42.3739120" lon="-3.5008110">
        <ele>932.6</ele>
        <time>2022-08-29T12:09:05Z</time>
      </trkpt>
      <trkpt lat="42.3739270" lon="-3.5008900">
        <ele>932.6</ele>
        <time>2022-08-29T12:09:06Z</time>
      </trkpt>
      <trkpt lat="42.3739430" lon="-3.5009690">
        <ele>932.6</ele>
        <time>2022-08-29T12:09:07Z</time>
      </trkpt>
      <trkpt lat="42.3739590" lon="-3.5010480">
        <ele>932.8</ele>
        <time>2022-08-29T12:09:08Z</time>
      </trkpt>
      <trkpt lat="42.3739750" lon="-3.5011280">
        <ele>932.8</ele>
        <time>2022-08-29T12:09:09Z</time>
      </trkpt>
      <trkpt lat="42.3739920" lon="-3.5012080">
        <ele>932.8</ele>
        <time>2022-08-29T12:09:10Z</time>
      </trkpt>
      <trkpt lat="42.3740090" lon="-3.5012900">
        <ele>932.6</ele>
        <time>2022-08-29T12:09:11Z</time>
      </trkpt>
      <trkpt lat="42.3740270" lon="-3.5013720">
        <ele>932.8</ele>
        <time>2022-08-29T12:09:12Z</time>
      </trkpt>
      <trkpt lat="42.3740450" lon="-3.5014550">
        <ele>932.8</ele>
        <time>2022-08-29T12:09:13Z</time>
      </trkpt>
      <trkpt lat="42.3740660" lon="-3.5015390">
        <ele>932.8</ele>
        <time>2022-08-29T12:09:14Z</time>
      </trkpt>
      <trkpt lat="42.3740880" lon="-3.5016220">
        <ele>932.8</ele>
        <time>2022-08-29T12:09:15Z</time>
      </trkpt>
      <trkpt lat="42.3741100" lon="-3.5017070">
        <ele>932.8</ele>
        <time>2022-08-29T12:09:16Z</time>
      </trkpt>
      <trkpt lat="42.3741330" lon="-3.5017930">
        <ele>932.8</ele>
        <time>2022-08-29T12:09:17Z</time>
      </trkpt>
      <trkpt lat="42.3741570" lon="-3.5018790">
        <ele>932.8</ele>
        <time>2022-08-29T12:09:18Z</time>
      </trkpt>
      <trkpt lat="42.3741820" lon="-3.5019650">
        <ele>932.8</ele>
        <time>2022-08-29T12:09:19Z</time>
      </trkpt>
      <trkpt lat="42.3742070" lon="-3.5020520">
        <ele>932.8</ele>
        <time>2022-08-29T12:09:20Z</time>
      </trkpt>
      <trkpt lat="42.3742340" lon="-3.5021380">
        <ele>932.6</ele>
        <time>2022-08-29T12:09:21Z</time>
      </trkpt>
      <trkpt lat="42.3742610" lon="-3.5022260">
        <ele>932.8</ele>
        <time>2022-08-29T12:09:22Z</time>
      </trkpt>
      <trkpt lat="42.3742870" lon="-3.5023130">
        <ele>932.8</ele>
        <time>2022-08-29T12:09:23Z</time>
      </trkpt>
      <trkpt lat="42.3743130" lon="-3.5024000">
        <ele>932.6</ele>
        <time>2022-08-29T12:09:24Z</time>
      </trkpt>
      <trkpt lat="42.3743400" lon="-3.5024840">
        <ele>932.4</ele>
        <time>2022-08-29T12:09:25Z</time>
      </trkpt>
      <trkpt lat="42.3743670" lon="-3.5025670">
        <ele>932.4</ele>
        <time>2022-08-29T12:09:26Z</time>
      </trkpt>
      <trkpt lat="42.3743940" lon="-3.5026480">
        <ele>932.4</ele>
        <time>2022-08-29T12:09:27Z</time>
      </trkpt>
      <trkpt lat="42.3744210" lon="-3.5027280">
        <ele>932.2</ele>
        <time>2022-08-29T12:09:28Z</time>
      </trkpt>
      <trkpt lat="42.3744450" lon="-3.5028060">
        <ele>932.2</ele>
        <time>2022-08-29T12:09:29Z</time>
      </trkpt>
      <trkpt lat="42.3744690" lon="-3.5028820">
        <ele>932.2</ele>
        <time>2022-08-29T12:09:30Z</time>
      </trkpt>
      <trkpt lat="42.3744930" lon="-3.5029580">
        <ele>932.0</ele>
        <time>2022-08-29T12:09:31Z</time>
      </trkpt>
      <trkpt lat="42.3745180" lon="-3.5030320">
        <ele>932.0</ele>
        <time>2022-08-29T12:09:32Z</time>
      </trkpt>
      <trkpt lat="42.3745420" lon="-3.5031050">
        <ele>932.2</ele>
        <time>2022-08-29T12:09:33Z</time>
      </trkpt>
      <trkpt lat="42.3745660" lon="-3.5031760">
        <ele>932.0</ele>
        <time>2022-08-29T12:09:34Z</time>
      </trkpt>
      <trkpt lat="42.3745890" lon="-3.5032460">
        <ele>931.8</ele>
        <time>2022-08-29T12:09:35Z</time>
      </trkpt>
      <trkpt lat="42.3746100" lon="-3.5033150">
        <ele>932.0</ele>
        <time>2022-08-29T12:09:36Z</time>
      </trkpt>
      <trkpt lat="42.3746310" lon="-3.5033820">
        <ele>932.0</ele>
        <time>2022-08-29T12:09:37Z</time>
      </trkpt>
      <trkpt lat="42.3746520" lon="-3.5034480">
        <ele>932.0</ele>
        <time>2022-08-29T12:09:38Z</time>
      </trkpt>
      <trkpt lat="42.3746740" lon="-3.5035150">
        <ele>932.0</ele>
        <time>2022-08-29T12:09:39Z</time>
      </trkpt>
      <trkpt lat="42.3746950" lon="-3.5035790">
        <ele>931.8</ele>
        <time>2022-08-29T12:09:40Z</time>
      </trkpt>
      <trkpt lat="42.3747180" lon="-3.5036420">
        <ele>931.8</ele>
        <time>2022-08-29T12:09:41Z</time>
      </trkpt>
      <trkpt lat="42.3747380" lon="-3.5037030">
        <ele>931.8</ele>
        <time>2022-08-29T12:09:42Z</time>
      </trkpt>
      <trkpt lat="42.3747560" lon="-3.5037660">
        <ele>932.0</ele>
        <time>2022-08-29T12:09:43Z</time>
      </trkpt>
      <trkpt lat="42.3747730" lon="-3.5038280">
        <ele>932.0</ele>
        <time>2022-08-29T12:09:44Z</time>
      </trkpt>
      <trkpt lat="42.3747890" lon="-3.5038890">
        <ele>932.2</ele>
        <time>2022-08-29T12:09:45Z</time>
      </trkpt>
      <trkpt lat="42.3748070" lon="-3.5039460">
        <ele>932.0</ele>
        <time>2022-08-29T12:09:46Z</time>
      </trkpt>
      <trkpt lat="42.3748270" lon="-3.5040010">
        <ele>932.2</ele>
        <time>2022-08-29T12:09:47Z</time>
      </trkpt>
      <trkpt lat="42.3748480" lon="-3.5040560">
        <ele>932.2</ele>
        <time>2022-08-29T12:09:48Z</time>
      </trkpt>
      <trkpt lat="42.3748690" lon="-3.5041140">
        <ele>932.2</ele>
        <time>2022-08-29T12:09:49Z</time>
      </trkpt>
      <trkpt lat="42.3748880" lon="-3.5041730">
        <ele>932.4</ele>
        <time>2022-08-29T12:09:50Z</time>
      </trkpt>
      <trkpt lat="42.3749070" lon="-3.5042320">
        <ele>932.4</ele>
        <time>2022-08-29T12:09:51Z</time>
      </trkpt>
      <trkpt lat="42.3749250" lon="-3.5042910">
        <ele>932.2</ele>
        <time>2022-08-29T12:09:52Z</time>
      </trkpt>
      <trkpt lat="42.3749430" lon="-3.5043480">
        <ele>932.4</ele>
        <time>2022-08-29T12:09:53Z</time>
      </trkpt>
      <trkpt lat="42.3749600" lon="-3.5044060">
        <ele>932.4</ele>
        <time>2022-08-29T12:09:54Z</time>
      </trkpt>
      <trkpt lat="42.3749770" lon="-3.5044640">
        <ele>932.4</ele>
        <time>2022-08-29T12:09:55Z</time>
      </trkpt>
      <trkpt lat="42.3749950" lon="-3.5045230">
        <ele>932.4</ele>
        <time>2022-08-29T12:09:56Z</time>
      </trkpt>
      <trkpt lat="42.3750120" lon="-3.5045820">
        <ele>932.4</ele>
        <time>2022-08-29T12:09:57Z</time>
      </trkpt>
      <trkpt lat="42.3750290" lon="-3.5046420">
        <ele>932.4</ele>
        <time>2022-08-29T12:09:58Z</time>
      </trkpt>
      <trkpt lat="42.3750480" lon="-3.5047010">
        <ele>932.4</ele>
        <time>2022-08-29T12:09:59Z</time>
      </trkpt>
      <trkpt lat="42.3750660" lon="-3.5047590">
        <ele>932.4</ele>
        <time>2022-08-29T12:10:00Z</time>
      </trkpt>
      <trkpt lat="42.3750840" lon="-3.5048160">
        <ele>932.4</ele>
        <time>2022-08-29T12:10:01Z</time>
      </trkpt>
      <trkpt lat="42.3751020" lon="-3.5048720">
        <ele>932.4</ele>
        <time>2022-08-29T12:10:02Z</time>
      </trkpt>
      <trkpt lat="42.3751200" lon="-3.5049270">
        <ele>932.4</ele>
        <time>2022-08-29T12:10:03Z</time>
      </trkpt>
      <trkpt lat="42.3751390" lon="-3.5049820">
        <ele>932.4</ele>
        <time>2022-08-29T12:10:04Z</time>
      </trkpt>
      <trkpt lat="42.3751580" lon="-3.5050390">
        <ele>932.4</ele>
        <time>2022-08-29T12:10:05Z</time>
      </trkpt>
      <trkpt lat="42.3751780" lon="-3.5050970">
        <ele>932.6</ele>
        <time>2022-08-29T12:10:06Z</time>
      </trkpt>
      <trkpt lat="42.3751970" lon="-3.5051580">
        <ele>932.4</ele>
        <time>2022-08-29T12:10:07Z</time>
      </trkpt>
      <trkpt lat="42.3752160" lon="-3.5052200">
        <ele>932.6</ele>
        <time>2022-08-29T12:10:08Z</time>
      </trkpt>
      <trkpt lat="42.3752380" lon="-3.5052790">
        <ele>932.4</ele>
        <time>2022-08-29T12:10:09Z</time>
      </trkpt>
      <trkpt lat="42.3752610" lon="-3.5053370">
        <ele>932.4</ele>
        <time>2022-08-29T12:10:10Z</time>
      </trkpt>
      <trkpt lat="42.3752830" lon="-3.5053930">
        <ele>932.4</ele>
        <time>2022-08-29T12:10:11Z</time>
      </trkpt>
      <trkpt lat="42.3753040" lon="-3.5054480">
        <ele>932.4</ele>
        <time>2022-08-29T12:10:12Z</time>
      </trkpt>
      <trkpt lat="42.3753250" lon="-3.5055040">
        <ele>932.4</ele>
        <time>2022-08-29T12:10:13Z</time>
      </trkpt>
      <trkpt lat="42.3753470" lon="-3.5055620">
        <ele>932.4</ele>
        <time>2022-08-29T12:10:14Z</time>
      </trkpt>
      <trkpt lat="42.3753720" lon="-3.5056190">
        <ele>932.4</ele>
        <time>2022-08-29T12:10:15Z</time>
      </trkpt>
      <trkpt lat="42.3753970" lon="-3.5056750">
        <ele>932.4</ele>
        <time>2022-08-29T12:10:16Z</time>
      </trkpt>
      <trkpt lat="42.3754260" lon="-3.5057300">
        <ele>932.4</ele>
        <time>2022-08-29T12:10:17Z</time>
      </trkpt>
      <trkpt lat="42.3754560" lon="-3.5057820">
        <ele>932.4</ele>
        <time>2022-08-29T12:10:18Z</time>
      </trkpt>
      <trkpt lat="42.3754860" lon="-3.5058340">
        <ele>932.4</ele>
        <time>2022-08-29T12:10:19Z</time>
      </trkpt>
      <trkpt lat="42.3755180" lon="-3.5058850">
        <ele>932.4</ele>
        <time>2022-08-29T12:10:20Z</time>
      </trkpt>
      <trkpt lat="42.3755500" lon="-3.5059360">
        <ele>932.4</ele>
        <time>2022-08-29T12:10:21Z</time>
      </trkpt>
      <trkpt lat="42.3755820" lon="-3.5059870">
        <ele>932.4</ele>
        <time>2022-08-29T12:10:22Z</time>
      </trkpt>
      <trkpt lat="42.3756140" lon="-3.5060410">
        <ele>932.2</ele>
        <time>2022-08-29T12:10:23Z</time>
      </trkpt>
      <trkpt lat="42.3756470" lon="-3.5060950">
        <ele>932.4</ele>
        <time>2022-08-29T12:10:24Z</time>
      </trkpt>
      <trkpt lat="42.3756800" lon="-3.5061510">
        <ele>932.2</ele>
        <time>2022-08-29T12:10:25Z</time>
      </trkpt>
      <trkpt lat="42.3757120" lon="-3.5062080">
        <ele>932.2</ele>
        <time>2022-08-29T12:10:26Z</time>
      </trkpt>
      <trkpt lat="42.3757440" lon="-3.5062660">
        <ele>932.4</ele>
        <time>2022-08-29T12:10:27Z</time>
      </trkpt>
      <trkpt lat="42.3757770" lon="-3.5063240">
        <ele>932.2</ele>
        <time>2022-08-29T12:10:28Z</time>
      </trkpt>
      <trkpt lat="42.3758100" lon="-3.5063800">
        <ele>932.4</ele>
        <time>2022-08-29T12:10:29Z</time>
      </trkpt>
      <trkpt lat="42.3758430" lon="-3.5064370">
        <ele>932.4</ele>
        <time>2022-08-29T12:10:30Z</time>
      </trkpt>
      <trkpt lat="42.3758750" lon="-3.5064940">
        <ele>932.2</ele>
        <time>2022-08-29T12:10:31Z</time>
      </trkpt>
      <trkpt lat="42.3759100" lon="-3.5065510">
        <ele>932.2</ele>
        <time>2022-08-29T12:10:32Z</time>
      </trkpt>
      <trkpt lat="42.3759430" lon="-3.5066090">
        <ele>932.2</ele>
        <time>2022-08-29T12:10:33Z</time>
      </trkpt>
      <trkpt lat="42.3759750" lon="-3.5066680">
        <ele>932.0</ele>
        <time>2022-08-29T12:10:34Z</time>
      </trkpt>
      <trkpt lat="42.3760060" lon="-3.5067240">
        <ele>931.8</ele>
        <time>2022-08-29T12:10:35Z</time>
      </trkpt>
      <trkpt lat="42.3760360" lon="-3.5067790">
        <ele>931.8</ele>
        <time>2022-08-29T12:10:36Z</time>
      </trkpt>
      <trkpt lat="42.3760640" lon="-3.5068330">
        <ele>931.6</ele>
        <time>2022-08-29T12:10:37Z</time>
      </trkpt>
      <trkpt lat="42.3760900" lon="-3.5068860">
        <ele>931.4</ele>
        <time>2022-08-29T12:10:38Z</time>
      </trkpt>
      <trkpt lat="42.3761160" lon="-3.5069430">
        <ele>931.4</ele>
        <time>2022-08-29T12:10:39Z</time>
      </trkpt>
      <trkpt lat="42.3761400" lon="-3.5070020">
        <ele>931.2</ele>
        <time>2022-08-29T12:10:40Z</time>
      </trkpt>
      <trkpt lat="42.3761660" lon="-3.5070610">
        <ele>931.2</ele>
        <time>2022-08-29T12:10:41Z</time>
      </trkpt>
      <trkpt lat="42.3761930" lon="-3.5071220">
        <ele>931.2</ele>
        <time>2022-08-29T12:10:42Z</time>
      </trkpt>
      <trkpt lat="42.3762210" lon="-3.5071830">
        <ele>931.0</ele>
        <time>2022-08-29T12:10:43Z</time>
      </trkpt>
      <trkpt lat="42.3762510" lon="-3.5072430">
        <ele>931.0</ele>
        <time>2022-08-29T12:10:44Z</time>
      </trkpt>
      <trkpt lat="42.3762840" lon="-3.5073010">
        <ele>930.8</ele>
        <time>2022-08-29T12:10:45Z</time>
      </trkpt>
      <trkpt lat="42.3763160" lon="-3.5073610">
        <ele>931.0</ele>
        <time>2022-08-29T12:10:46Z</time>
      </trkpt>
      <trkpt lat="42.3763460" lon="-3.5074210">
        <ele>930.8</ele>
        <time>2022-08-29T12:10:47Z</time>
      </trkpt>
      <trkpt lat="42.3763740" lon="-3.5074800">
        <ele>931.0</ele>
        <time>2022-08-29T12:10:48Z</time>
      </trkpt>
      <trkpt lat="42.3764020" lon="-3.5075360">
        <ele>931.0</ele>
        <time>2022-08-29T12:10:49Z</time>
      </trkpt>
      <trkpt lat="42.3764320" lon="-3.5075870">
        <ele>931.0</ele>
        <time>2022-08-29T12:10:50Z</time>
      </trkpt>
      <trkpt lat="42.3764660" lon="-3.5076340">
        <ele>931.0</ele>
        <time>2022-08-29T12:10:51Z</time>
      </trkpt>
      <trkpt lat="42.3764990" lon="-3.5076780">
        <ele>930.8</ele>
        <time>2022-08-29T12:10:52Z</time>
      </trkpt>
      <trkpt lat="42.3765330" lon="-3.5077180">
        <ele>930.8</ele>
        <time>2022-08-29T12:10:53Z</time>
      </trkpt>
      <trkpt lat="42.3765600" lon="-3.5077620">
        <ele>930.8</ele>
        <time>2022-08-29T12:10:54Z</time>
      </trkpt>
      <trkpt lat="42.3765850" lon="-3.5078070">
        <ele>930.8</ele>
        <time>2022-08-29T12:10:55Z</time>
      </trkpt>
      <trkpt lat="42.3766100" lon="-3.5078510">
        <ele>930.8</ele>
        <time>2022-08-29T12:10:56Z</time>
      </trkpt>
      <trkpt lat="42.3766350" lon="-3.5078940">
        <ele>930.8</ele>
        <time>2022-08-29T12:10:57Z</time>
      </trkpt>
      <trkpt lat="42.3766580" lon="-3.5079290">
        <ele>930.8</ele>
        <time>2022-08-29T12:10:58Z</time>
      </trkpt>
      <trkpt lat="42.3766770" lon="-3.5079520">
        <ele>931.0</ele>
        <time>2022-08-29T12:10:59Z</time>
      </trkpt>
      <trkpt lat="42.3766840" lon="-3.5079640">
        <ele>931.0</ele>
        <time>2022-08-29T12:11:00Z</time>
      </trkpt>
      <trkpt lat="42.3766860" lon="-3.5079670">
        <ele>931.0</ele>
        <time>2022-08-29T12:11:01Z</time>
      </trkpt>
      <trkpt lat="42.3766860" lon="-3.5079680">
        <ele>931.2</ele>
        <time>2022-08-29T12:11:02Z</time>
      </trkpt>
      <trkpt lat="42.3766850" lon="-3.5079660">
        <ele>931.0</ele>
        <time>2022-08-29T12:11:03Z</time>
      </trkpt>
      <trkpt lat="42.3766830" lon="-3.5079670">
        <ele>931.2</ele>
        <time>2022-08-29T12:11:04Z</time>
      </trkpt>
      <trkpt lat="42.3766830" lon="-3.5079670">
        <ele>931.2</ele>
        <time>2022-08-29T12:11:05Z</time>
      </trkpt>
      <trkpt lat="42.3766820" lon="-3.5079670">
        <ele>931.2</ele>
        <time>2022-08-29T12:11:06Z</time>
      </trkpt>
      <trkpt lat="42.3766910" lon="-3.5079760">
        <ele>931.2</ele>
        <time>2022-08-29T12:11:07Z</time>
      </trkpt>
      <trkpt lat="42.3767030" lon="-3.5079880">
        <ele>931.2</ele>
        <time>2022-08-29T12:11:08Z</time>
      </trkpt>
      <trkpt lat="42.3767190" lon="-3.5080060">
        <ele>931.2</ele>
        <time>2022-08-29T12:11:09Z</time>
      </trkpt>
      <trkpt lat="42.3767380" lon="-3.5080280">
        <ele>931.4</ele>
        <time>2022-08-29T12:11:10Z</time>
      </trkpt>
      <trkpt lat="42.3767590" lon="-3.5080570">
        <ele>931.2</ele>
        <time>2022-08-29T12:11:11Z</time>
      </trkpt>
      <trkpt lat="42.3767790" lon="-3.5080910">
        <ele>931.2</ele>
        <time>2022-08-29T12:11:12Z</time>
      </trkpt>
      <trkpt lat="42.3767980" lon="-3.5081290">
        <ele>931.2</ele>
        <time>2022-08-29T12:11:13Z</time>
      </trkpt>
      <trkpt lat="42.3768170" lon="-3.5081700">
        <ele>931.2</ele>
        <time>2022-08-29T12:11:14Z</time>
      </trkpt>
      <trkpt lat="42.3768390" lon="-3.5082090">
        <ele>931.2</ele>
        <time>2022-08-29T12:11:15Z</time>
      </trkpt>
      <trkpt lat="42.3768620" lon="-3.5082560">
        <ele>931.2</ele>
        <time>2022-08-29T12:11:16Z</time>
      </trkpt>
      <trkpt lat="42.3768890" lon="-3.5083010">
        <ele>931.2</ele>
        <time>2022-08-29T12:11:17Z</time>
      </trkpt>
      <trkpt lat="42.3769150" lon="-3.5083480">
        <ele>931.0</ele>
        <time>2022-08-29T12:11:18Z</time>
      </trkpt>
      <trkpt lat="42.3769410" lon="-3.5083990">
        <ele>931.2</ele>
        <time>2022-08-29T12:11:19Z</time>
      </trkpt>
      <trkpt lat="42.3769680" lon="-3.5084500">
        <ele>931.0</ele>
        <time>2022-08-29T12:11:20Z</time>
      </trkpt>
      <trkpt lat="42.3769970" lon="-3.5085030">
        <ele>930.8</ele>
        <time>2022-08-29T12:11:21Z</time>
      </trkpt>
      <trkpt lat="42.3770250" lon="-3.5085570">
        <ele>930.6</ele>
        <time>2022-08-29T12:11:22Z</time>
      </trkpt>
      <trkpt lat="42.3770550" lon="-3.5086130">
        <ele>930.6</ele>
        <time>2022-08-29T12:11:23Z</time>
      </trkpt>
      <trkpt lat="42.3770840" lon="-3.5086720">
        <ele>930.4</ele>
        <time>2022-08-29T12:11:24Z</time>
      </trkpt>
      <trkpt lat="42.3771150" lon="-3.5087290">
        <ele>930.6</ele>
        <time>2022-08-29T12:11:25Z</time>
      </trkpt>
      <trkpt lat="42.3771510" lon="-3.5087850">
        <ele>930.4</ele>
        <time>2022-08-29T12:11:26Z</time>
      </trkpt>
      <trkpt lat="42.3771880" lon="-3.5088420">
        <ele>930.2</ele>
        <time>2022-08-29T12:11:27Z</time>
      </trkpt>
      <trkpt lat="42.3772240" lon="-3.5089000">
        <ele>930.2</ele>
        <time>2022-08-29T12:11:28Z</time>
      </trkpt>
      <trkpt lat="42.3772610" lon="-3.5089590">
        <ele>930.0</ele>
        <time>2022-08-29T12:11:29Z</time>
      </trkpt>
      <trkpt lat="42.3772990" lon="-3.5090200">
        <ele>930.2</ele>
        <time>2022-08-29T12:11:30Z</time>
      </trkpt>
      <trkpt lat="42.3773360" lon="-3.5090830">
        <ele>930.0</ele>
        <time>2022-08-29T12:11:31Z</time>
      </trkpt>
      <trkpt lat="42.3773710" lon="-3.5091470">
        <ele>929.8</ele>
        <time>2022-08-29T12:11:32Z</time>
      </trkpt>
      <trkpt lat="42.3774060" lon="-3.5092090">
        <ele>929.8</ele>
        <time>2022-08-29T12:11:33Z</time>
      </trkpt>
      <trkpt lat="42.3774420" lon="-3.5092700">
        <ele>929.8</ele>
        <time>2022-08-29T12:11:34Z</time>
      </trkpt>
      <trkpt lat="42.3774800" lon="-3.5093290">
        <ele>929.6</ele>
        <time>2022-08-29T12:11:35Z</time>
      </trkpt>
      <trkpt lat="42.3775200" lon="-3.5093870">
        <ele>929.4</ele>
        <time>2022-08-29T12:11:36Z</time>
      </trkpt>
      <trkpt lat="42.3775610" lon="-3.5094450">
        <ele>929.4</ele>
        <time>2022-08-29T12:11:37Z</time>
      </trkpt>
      <trkpt lat="42.3775980" lon="-3.5095030">
        <ele>929.4</ele>
        <time>2022-08-29T12:11:38Z</time>
      </trkpt>
      <trkpt lat="42.3776330" lon="-3.5095600">
        <ele>929.2</ele>
        <time>2022-08-29T12:11:39Z</time>
      </trkpt>
      <trkpt lat="42.3776650" lon="-3.5096180">
        <ele>929.0</ele>
        <time>2022-08-29T12:11:40Z</time>
      </trkpt>
      <trkpt lat="42.3776810" lon="-3.5096790">
        <ele>929.0</ele>
        <time>2022-08-29T12:11:41Z</time>
      </trkpt>
      <trkpt lat="42.3776770" lon="-3.5097410">
        <ele>929.0</ele>
        <time>2022-08-29T12:11:42Z</time>
      </trkpt>
      <trkpt lat="42.3776560" lon="-3.5098010">
        <ele>928.8</ele>
        <time>2022-08-29T12:11:43Z</time>
      </trkpt>
      <trkpt lat="42.3776270" lon="-3.5098560">
        <ele>928.8</ele>
        <time>2022-08-29T12:11:44Z</time>
      </trkpt>
      <trkpt lat="42.3775910" lon="-3.5099110">
        <ele>928.8</ele>
        <time>2022-08-29T12:11:45Z</time>
      </trkpt>
      <trkpt lat="42.3775510" lon="-3.5099660">
        <ele>928.8</ele>
        <time>2022-08-29T12:11:46Z</time>
      </trkpt>
      <trkpt lat="42.3775100" lon="-3.5100240">
        <ele>928.6</ele>
        <time>2022-08-29T12:11:47Z</time>
      </trkpt>
      <trkpt lat="42.3774720" lon="-3.5100850">
        <ele>928.6</ele>
        <time>2022-08-29T12:11:48Z</time>
      </trkpt>
      <trkpt lat="42.3774380" lon="-3.5101490">
        <ele>928.6</ele>
        <time>2022-08-29T12:11:49Z</time>
      </trkpt>
      <trkpt lat="42.3774070" lon="-3.5102150">
        <ele>928.4</ele>
        <time>2022-08-29T12:11:50Z</time>
      </trkpt>
      <trkpt lat="42.3773770" lon="-3.5102810">
        <ele>928.4</ele>
        <time>2022-08-29T12:11:51Z</time>
      </trkpt>
      <trkpt lat="42.3773500" lon="-3.5103470">
        <ele>928.4</ele>
        <time>2022-08-29T12:11:52Z</time>
      </trkpt>
      <trkpt lat="42.3773290" lon="-3.5104140">
        <ele>928.2</ele>
        <time>2022-08-29T12:11:53Z</time>
      </trkpt>
      <trkpt lat="42.3773200" lon="-3.5104800">
        <ele>928.2</ele>
        <time>2022-08-29T12:11:54Z</time>
      </trkpt>
      <trkpt lat="42.3773200" lon="-3.5105480">
        <ele>928.2</ele>
        <time>2022-08-29T12:11:55Z</time>
      </trkpt>
      <trkpt lat="42.3773230" lon="-3.5106150">
        <ele>928.2</ele>
        <time>2022-08-29T12:11:56Z</time>
      </trkpt>
      <trkpt lat="42.3773240" lon="-3.5106820">
        <ele>928.0</ele>
        <time>2022-08-29T12:11:57Z</time>
      </trkpt>
      <trkpt lat="42.3773230" lon="-3.5107470">
        <ele>928.0</ele>
        <time>2022-08-29T12:11:58Z</time>
      </trkpt>
      <trkpt lat="42.3773200" lon="-3.5108090">
        <ele>928.0</ele>
        <time>2022-08-29T12:11:59Z</time>
      </trkpt>
      <trkpt lat="42.3773140" lon="-3.5108690">
        <ele>928.0</ele>
        <time>2022-08-29T12:12:00Z</time>
      </trkpt>
      <trkpt lat="42.3773090" lon="-3.5109270">
        <ele>928.0</ele>
        <time>2022-08-29T12:12:01Z</time>
      </trkpt>
      <trkpt lat="42.3773030" lon="-3.5109820">
        <ele>927.8</ele>
        <time>2022-08-29T12:12:02Z</time>
      </trkpt>
      <trkpt lat="42.3772950" lon="-3.5110350">
        <ele>927.8</ele>
        <time>2022-08-29T12:12:03Z</time>
      </trkpt>
      <trkpt lat="42.3772880" lon="-3.5110860">
        <ele>927.8</ele>
        <time>2022-08-29T12:12:04Z</time>
      </trkpt>
      <trkpt lat="42.3772820" lon="-3.5111360">
        <ele>927.8</ele>
        <time>2022-08-29T12:12:05Z</time>
      </trkpt>
      <trkpt lat="42.3772760" lon="-3.5111870">
        <ele>928.0</ele>
        <time>2022-08-29T12:12:06Z</time>
      </trkpt>
      <trkpt lat="42.3772700" lon="-3.5112350">
        <ele>928.0</ele>
        <time>2022-08-29T12:12:07Z</time>
      </trkpt>
      <trkpt lat="42.3772650" lon="-3.5112850">
        <ele>928.0</ele>
        <time>2022-08-29T12:12:08Z</time>
      </trkpt>
      <trkpt lat="42.3772600" lon="-3.5113360">
        <ele>928.2</ele>
        <time>2022-08-29T12:12:09Z</time>
      </trkpt>
      <trkpt lat="42.3772540" lon="-3.5113860">
        <ele>928.2</ele>
        <time>2022-08-29T12:12:10Z</time>
      </trkpt>
      <trkpt lat="42.3772450" lon="-3.5114390">
        <ele>928.2</ele>
        <time>2022-08-29T12:12:11Z</time>
      </trkpt>
      <trkpt lat="42.3772380" lon="-3.5114930">
        <ele>928.4</ele>
        <time>2022-08-29T12:12:12Z</time>
      </trkpt>
      <trkpt lat="42.3772300" lon="-3.5115460">
        <ele>928.4</ele>
        <time>2022-08-29T12:12:13Z</time>
      </trkpt>
      <trkpt lat="42.3772240" lon="-3.5115980">
        <ele>928.4</ele>
        <time>2022-08-29T12:12:14Z</time>
      </trkpt>
      <trkpt lat="42.3772180" lon="-3.5116510">
        <ele>928.4</ele>
        <time>2022-08-29T12:12:15Z</time>
      </trkpt>
      <trkpt lat="42.3772110" lon="-3.5117050">
        <ele>928.6</ele>
        <time>2022-08-29T12:12:16Z</time>
      </trkpt>
      <trkpt lat="42.3772010" lon="-3.5117590">
        <ele>928.4</ele>
        <time>2022-08-29T12:12:17Z</time>
      </trkpt>
      <trkpt lat="42.3771900" lon="-3.5118090">
        <ele>928.6</ele>
        <time>2022-08-29T12:12:18Z</time>
      </trkpt>
      <trkpt lat="42.3771800" lon="-3.5118590">
        <ele>928.6</ele>
        <time>2022-08-29T12:12:19Z</time>
      </trkpt>
      <trkpt lat="42.3771740" lon="-3.5119080">
        <ele>928.6</ele>
        <time>2022-08-29T12:12:20Z</time>
      </trkpt>
      <trkpt lat="42.3771720" lon="-3.5119540">
        <ele>928.6</ele>
        <time>2022-08-29T12:12:21Z</time>
      </trkpt>
      <trkpt lat="42.3771670" lon="-3.5119990">
        <ele>928.6</ele>
        <time>2022-08-29T12:12:22Z</time>
      </trkpt>
      <trkpt lat="42.3771610" lon="-3.5120430">
        <ele>928.8</ele>
        <time>2022-08-29T12:12:23Z</time>
      </trkpt>
      <trkpt lat="42.3771580" lon="-3.5120890">
        <ele>928.8</ele>
        <time>2022-08-29T12:12:24Z</time>
      </trkpt>
      <trkpt lat="42.3771600" lon="-3.5121390">
        <ele>929.0</ele>
        <time>2022-08-29T12:12:25Z</time>
      </trkpt>
      <trkpt lat="42.3771610" lon="-3.5121930">
        <ele>929.2</ele>
        <time>2022-08-29T12:12:26Z</time>
      </trkpt>
      <trkpt lat="42.3771610" lon="-3.5122420">
        <ele>929.4</ele>
        <time>2022-08-29T12:12:27Z</time>
      </trkpt>
      <trkpt lat="42.3771600" lon="-3.5122890">
        <ele>929.4</ele>
        <time>2022-08-29T12:12:28Z</time>
      </trkpt>
      <trkpt lat="42.3771640" lon="-3.5123370">
        <ele>929.4</ele>
        <time>2022-08-29T12:12:29Z</time>
      </trkpt>
      <trkpt lat="42.3771740" lon="-3.5123840">
        <ele>929.6</ele>
        <time>2022-08-29T12:12:30Z</time>
      </trkpt>
      <trkpt lat="42.3771830" lon="-3.5124320">
        <ele>929.6</ele>
        <time>2022-08-29T12:12:31Z</time>
      </trkpt>
      <trkpt lat="42.3771900" lon="-3.5124830">
        <ele>929.6</ele>
        <time>2022-08-29T12:12:32Z</time>
      </trkpt>
      <trkpt lat="42.3771980" lon="-3.5125330">
        <ele>929.8</ele>
        <time>2022-08-29T12:12:33Z</time>
      </trkpt>
      <trkpt lat="42.3772110" lon="-3.5125800">
        <ele>930.0</ele>
        <time>2022-08-29T12:12:34Z</time>
      </trkpt>
      <trkpt lat="42.3772240" lon="-3.5126240">
        <ele>930.0</ele>
        <time>2022-08-29T12:12:35Z</time>
      </trkpt>
      <trkpt lat="42.3772360" lon="-3.5126710">
        <ele>930.0</ele>
        <time>2022-08-29T12:12:36Z</time>
      </trkpt>
      <trkpt lat="42.3772490" lon="-3.5127190">
        <ele>930.0</ele>
        <time>2022-08-29T12:12:37Z</time>
      </trkpt>
      <trkpt lat="42.3772620" lon="-3.5127670">
        <ele>930.2</ele>
        <time>2022-08-29T12:12:38Z</time>
      </trkpt>
      <trkpt lat="42.3772760" lon="-3.5128130">
        <ele>930.2</ele>
        <time>2022-08-29T12:12:39Z</time>
      </trkpt>
      <trkpt lat="42.3772900" lon="-3.5128590">
        <ele>930.2</ele>
        <time>2022-08-29T12:12:40Z</time>
      </trkpt>
      <trkpt lat="42.3773020" lon="-3.5129050">
        <ele>930.4</ele>
        <time>2022-08-29T12:12:41Z</time>
      </trkpt>
      <trkpt lat="42.3773140" lon="-3.5129510">
        <ele>930.4</ele>
        <time>2022-08-29T12:12:42Z</time>
      </trkpt>
      <trkpt lat="42.3773270" lon="-3.5129970">
        <ele>930.4</ele>
        <time>2022-08-29T12:12:43Z</time>
      </trkpt>
      <trkpt lat="42.3773400" lon="-3.5130430">
        <ele>930.4</ele>
        <time>2022-08-29T12:12:44Z</time>
      </trkpt>
      <trkpt lat="42.3773530" lon="-3.5130900">
        <ele>930.6</ele>
        <time>2022-08-29T12:12:45Z</time>
      </trkpt>
      <trkpt lat="42.3773650" lon="-3.5131370">
        <ele>930.6</ele>
        <time>2022-08-29T12:12:46Z</time>
      </trkpt>
      <trkpt lat="42.3773780" lon="-3.5131840">
        <ele>930.8</ele>
        <time>2022-08-29T12:12:47Z</time>
      </trkpt>
      <trkpt lat="42.3773910" lon="-3.5132310">
        <ele>930.8</ele>
        <time>2022-08-29T12:12:48Z</time>
      </trkpt>
      <trkpt lat="42.3774040" lon="-3.5132770">
        <ele>931.0</ele>
        <time>2022-08-29T12:12:49Z</time>
      </trkpt>
      <trkpt lat="42.3774160" lon="-3.5133230">
        <ele>931.2</ele>
        <time>2022-08-29T12:12:50Z</time>
      </trkpt>
      <trkpt lat="42.3774270" lon="-3.5133690">
        <ele>931.2</ele>
        <time>2022-08-29T12:12:51Z</time>
      </trkpt>
      <trkpt lat="42.3774360" lon="-3.5134140">
        <ele>931.2</ele>
        <time>2022-08-29T12:12:52Z</time>
      </trkpt>
      <trkpt lat="42.3774460" lon="-3.5134580">
        <ele>931.2</ele>
        <time>2022-08-29T12:12:53Z</time>
      </trkpt>
      <trkpt lat="42.3774560" lon="-3.5135010">
        <ele>931.2</ele>
        <time>2022-08-29T12:12:54Z</time>
      </trkpt>
      <trkpt lat="42.3774670" lon="-3.5135420">
        <ele>931.4</ele>
        <time>2022-08-29T12:12:55Z</time>
      </trkpt>
      <trkpt lat="42.3774790" lon="-3.5135820">
        <ele>931.4</ele>
        <time>2022-08-29T12:12:56Z</time>
      </trkpt>
      <trkpt lat="42.3774880" lon="-3.5136200">
        <ele>931.4</ele>
        <time>2022-08-29T12:12:57Z</time>
      </trkpt>
      <trkpt lat="42.3774950" lon="-3.5136590">
        <ele>931.8</ele>
        <time>2022-08-29T12:12:58Z</time>
      </trkpt>
      <trkpt lat="42.3775030" lon="-3.5136960">
        <ele>931.8</ele>
        <time>2022-08-29T12:12:59Z</time>
      </trkpt>
      <trkpt lat="42.3775130" lon="-3.5137330">
        <ele>932.0</ele>
        <time>2022-08-29T12:13:00Z</time>
      </trkpt>
      <trkpt lat="42.3775220" lon="-3.5137720">
        <ele>932.0</ele>
        <time>2022-08-29T12:13:01Z</time>
      </trkpt>
      <trkpt lat="42.3775300" lon="-3.5138090">
        <ele>932.0</ele>
        <time>2022-08-29T12:13:02Z</time>
      </trkpt>
      <trkpt lat="42.3775380" lon="-3.5138460">
        <ele>932.2</ele>
        <time>2022-08-29T12:13:03Z</time>
      </trkpt>
      <trkpt lat="42.3775480" lon="-3.5138820">
        <ele>932.2</ele>
        <time>2022-08-29T12:13:04Z</time>
      </trkpt>
      <trkpt lat="42.3775570" lon="-3.5139170">
        <ele>932.6</ele>
        <time>2022-08-29T12:13:05Z</time>
      </trkpt>
      <trkpt lat="42.3775640" lon="-3.5139530">
        <ele>932.8</ele>
        <time>2022-08-29T12:13:06Z</time>
      </trkpt>
      <trkpt lat="42.3775730" lon="-3.5139880">
        <ele>932.8</ele>
        <time>2022-08-29T12:13:07Z</time>
      </trkpt>
      <trkpt lat="42.3775790" lon="-3.5140250">
        <ele>933.0</ele>
        <time>2022-08-29T12:13:08Z</time>
      </trkpt>
      <trkpt lat="42.3775850" lon="-3.5140600">
        <ele>933.2</ele>
        <time>2022-08-29T12:13:09Z</time>
      </trkpt>
      <trkpt lat="42.3775920" lon="-3.5140970">
        <ele>933.4</ele>
        <time>2022-08-29T12:13:10Z</time>
      </trkpt>
      <trkpt lat="42.3775990" lon="-3.5141310">
        <ele>933.4</ele>
        <time>2022-08-29T12:13:11Z</time>
      </trkpt>
      <trkpt lat="42.3776060" lon="-3.5141650">
        <ele>933.4</ele>
        <time>2022-08-29T12:13:12Z</time>
      </trkpt>
      <trkpt lat="42.3776130" lon="-3.5141980">
        <ele>933.6</ele>
        <time>2022-08-29T12:13:13Z</time>
      </trkpt>
      <trkpt lat="42.3776210" lon="-3.5142300">
        <ele>933.6</ele>
        <time>2022-08-29T12:13:14Z</time>
      </trkpt>
      <trkpt lat="42.3776300" lon="-3.5142620">
        <ele>934.0</ele>
        <time>2022-08-29T12:13:15Z</time>
      </trkpt>
      <trkpt lat="42.3776400" lon="-3.5142950">
        <ele>934.0</ele>
        <time>2022-08-29T12:13:16Z</time>
      </trkpt>
      <trkpt lat="42.3776510" lon="-3.5143270">
        <ele>934.2</ele>
        <time>2022-08-29T12:13:17Z</time>
      </trkpt>
      <trkpt lat="42.3776600" lon="-3.5143580">
        <ele>934.4</ele>
        <time>2022-08-29T12:13:18Z</time>
      </trkpt>
      <trkpt lat="42.3776680" lon="-3.5143900">
        <ele>934.4</ele>
        <time>2022-08-29T12:13:19Z</time>
      </trkpt>
      <trkpt lat="42.3776770" lon="-3.5144210">
        <ele>934.6</ele>
        <time>2022-08-29T12:13:20Z</time>
      </trkpt>
      <trkpt lat="42.3776870" lon="-3.5144520">
        <ele>934.8</ele>
        <time>2022-08-29T12:13:21Z</time>
      </trkpt>
      <trkpt lat="42.3776980" lon="-3.5144820">
        <ele>935.2</ele>
        <time>2022-08-29T12:13:22Z</time>
      </trkpt>
      <trkpt lat="42.3777090" lon="-3.5145130">
        <ele>935.4</ele>
        <time>2022-08-29T12:13:23Z</time>
      </trkpt>
      <trkpt lat="42.3777210" lon="-3.5145440">
        <ele>935.6</ele>
        <time>2022-08-29T12:13:24Z</time>
      </trkpt>
      <trkpt lat="42.3777330" lon="-3.5145760">
        <ele>935.8</ele>
        <time>2022-08-29T12:13:25Z</time>
      </trkpt>
      <trkpt lat="42.3777440" lon="-3.5146080">
        <ele>936.0</ele>
        <time>2022-08-29T12:13:26Z</time>
      </trkpt>
      <trkpt lat="42.3777560" lon="-3.5146370">
        <ele>936.0</ele>
        <time>2022-08-29T12:13:27Z</time>
      </trkpt>
      <trkpt lat="42.3777700" lon="-3.5146660">
        <ele>936.2</ele>
        <time>2022-08-29T12:13:28Z</time>
      </trkpt>
      <trkpt lat="42.3777850" lon="-3.5146930">
        <ele>936.4</ele>
        <time>2022-08-29T12:13:29Z</time>
      </trkpt>
      <trkpt lat="42.3777990" lon="-3.5147210">
        <ele>936.6</ele>
        <time>2022-08-29T12:13:30Z</time>
      </trkpt>
      <trkpt lat="42.3778120" lon="-3.5147500">
        <ele>936.6</ele>
        <time>2022-08-29T12:13:31Z</time>
      </trkpt>
      <trkpt lat="42.3778270" lon="-3.5147790">
        <ele>936.8</ele>
        <time>2022-08-29T12:13:32Z</time>
      </trkpt>
      <trkpt lat="42.3778380" lon="-3.5148090">
        <ele>937.0</ele>
        <time>2022-08-29T12:13:33Z</time>
      </trkpt>
      <trkpt lat="42.3778480" lon="-3.5148400">
        <ele>936.8</ele>
        <time>2022-08-29T12:13:34Z</time>
      </trkpt>
      <trkpt lat="42.3778570" lon="-3.5148700">
        <ele>937.0</ele>
        <time>2022-08-29T12:13:35Z</time>
      </trkpt>
      <trkpt lat="42.3778660" lon="-3.5149010">
        <ele>937.0</ele>
        <time>2022-08-29T12:13:36Z</time>
      </trkpt>
      <trkpt lat="42.3778730" lon="-3.5149310">
        <ele>937.8</ele>
        <time>2022-08-29T12:13:37Z</time>
      </trkpt>
      <trkpt lat="42.3778770" lon="-3.5149630">
        <ele>938.0</ele>
        <time>2022-08-29T12:13:38Z</time>
      </trkpt>
      <trkpt lat="42.3778790" lon="-3.5149950">
        <ele>938.2</ele>
        <time>2022-08-29T12:13:39Z</time>
      </trkpt>
      <trkpt lat="42.3778840" lon="-3.5150250">
        <ele>938.2</ele>
        <time>2022-08-29T12:13:40Z</time>
      </trkpt>
      <trkpt lat="42.3778900" lon="-3.5150540">
        <ele>938.6</ele>
        <time>2022-08-29T12:13:41Z</time>
      </trkpt>
      <trkpt lat="42.3778950" lon="-3.5150850">
        <ele>938.4</ele>
        <time>2022-08-29T12:13:42Z</time>
      </trkpt>
      <trkpt lat="42.3779020" lon="-3.5151160">
        <ele>938.6</ele>
        <time>2022-08-29T12:13:43Z</time>
      </trkpt>
      <trkpt lat="42.3779070" lon="-3.5151480">
        <ele>938.8</ele>
        <time>2022-08-29T12:13:44Z</time>
      </trkpt>
      <trkpt lat="42.3779120" lon="-3.5151800">
        <ele>939.0</ele>
        <time>2022-08-29T12:13:45Z</time>
      </trkpt>
      <trkpt lat="42.3779180" lon="-3.5152120">
        <ele>939.2</ele>
        <time>2022-08-29T12:13:46Z</time>
      </trkpt>
      <trkpt lat="42.3779240" lon="-3.5152440">
        <ele>939.6</ele>
        <time>2022-08-29T12:13:47Z</time>
      </trkpt>
      <trkpt lat="42.3779290" lon="-3.5152760">
        <ele>939.6</ele>
        <time>2022-08-29T12:13:48Z</time>
      </trkpt>
      <trkpt lat="42.3779350" lon="-3.5153100">
        <ele>940.0</ele>
        <time>2022-08-29T12:13:49Z</time>
      </trkpt>
      <trkpt lat="42.3779400" lon="-3.5153470">
        <ele>940.4</ele>
        <time>2022-08-29T12:13:50Z</time>
      </trkpt>
      <trkpt lat="42.3779450" lon="-3.5153840">
        <ele>940.8</ele>
        <time>2022-08-29T12:13:51Z</time>
      </trkpt>
      <trkpt lat="42.3779480" lon="-3.5154210">
        <ele>941.0</ele>
        <time>2022-08-29T12:13:52Z</time>
      </trkpt>
      <trkpt lat="42.3779500" lon="-3.5154590">
        <ele>941.2</ele>
        <time>2022-08-29T12:13:53Z</time>
      </trkpt>
      <trkpt lat="42.3779510" lon="-3.5154970">
        <ele>941.2</ele>
        <time>2022-08-29T12:13:54Z</time>
      </trkpt>
      <trkpt lat="42.3779520" lon="-3.5155350">
        <ele>941.2</ele>
        <time>2022-08-29T12:13:55Z</time>
      </trkpt>
      <trkpt lat="42.3779540" lon="-3.5155730">
        <ele>941.6</ele>
        <time>2022-08-29T12:13:56Z</time>
      </trkpt>
      <trkpt lat="42.3779580" lon="-3.5156120">
        <ele>941.8</ele>
        <time>2022-08-29T12:13:57Z</time>
      </trkpt>
      <trkpt lat="42.3779610" lon="-3.5156500">
        <ele>942.0</ele>
        <time>2022-08-29T12:13:58Z</time>
      </trkpt>
      <trkpt lat="42.3779620" lon="-3.5156890">
        <ele>942.2</ele>
        <time>2022-08-29T12:13:59Z</time>
      </trkpt>
      <trkpt lat="42.3779630" lon="-3.5157290">
        <ele>942.4</ele>
        <time>2022-08-29T12:14:00Z</time>
      </trkpt>
      <trkpt lat="42.3779650" lon="-3.5157680">
        <ele>942.4</ele>
        <time>2022-08-29T12:14:01Z</time>
      </trkpt>
      <trkpt lat="42.3779670" lon="-3.5158060">
        <ele>942.4</ele>
        <time>2022-08-29T12:14:02Z</time>
      </trkpt>
      <trkpt lat="42.3779700" lon="-3.5158440">
        <ele>942.8</ele>
        <time>2022-08-29T12:14:03Z</time>
      </trkpt>
      <trkpt lat="42.3779710" lon="-3.5158830">
        <ele>942.6</ele>
        <time>2022-08-29T12:14:04Z</time>
      </trkpt>
      <trkpt lat="42.3779730" lon="-3.5159220">
        <ele>942.6</ele>
        <time>2022-08-29T12:14:05Z</time>
      </trkpt>
      <trkpt lat="42.3779750" lon="-3.5159610">
        <ele>942.8</ele>
        <time>2022-08-29T12:14:06Z</time>
      </trkpt>
      <trkpt lat="42.3779770" lon="-3.5160010">
        <ele>943.0</ele>
        <time>2022-08-29T12:14:07Z</time>
      </trkpt>
      <trkpt lat="42.3779780" lon="-3.5160400">
        <ele>943.0</ele>
        <time>2022-08-29T12:14:08Z</time>
      </trkpt>
      <trkpt lat="42.3779810" lon="-3.5160790">
        <ele>943.2</ele>
        <time>2022-08-29T12:14:09Z</time>
      </trkpt>
      <trkpt lat="42.3779830" lon="-3.5161170">
        <ele>943.4</ele>
        <time>2022-08-29T12:14:10Z</time>
      </trkpt>
      <trkpt lat="42.3779820" lon="-3.5161560">
        <ele>943.4</ele>
        <time>2022-08-29T12:14:11Z</time>
      </trkpt>
      <trkpt lat="42.3779810" lon="-3.5161960">
        <ele>943.6</ele>
        <time>2022-08-29T12:14:12Z</time>
      </trkpt>
      <trkpt lat="42.3779820" lon="-3.5162360">
        <ele>943.6</ele>
        <time>2022-08-29T12:14:13Z</time>
      </trkpt>
      <trkpt lat="42.3779850" lon="-3.5162740">
        <ele>943.4</ele>
        <time>2022-08-29T12:14:14Z</time>
      </trkpt>
      <trkpt lat="42.3779910" lon="-3.5163100">
        <ele>943.6</ele>
        <time>2022-08-29T12:14:15Z</time>
      </trkpt>
      <trkpt lat="42.3779940" lon="-3.5163440">
        <ele>943.6</ele>
        <time>2022-08-29T12:14:16Z</time>
      </trkpt>
      <trkpt lat="42.3779940" lon="-3.5163780">
        <ele>943.8</ele>
        <time>2022-08-29T12:14:17Z</time>
      </trkpt>
      <trkpt lat="42.3779950" lon="-3.5164130">
        <ele>943.8</ele>
        <time>2022-08-29T12:14:18Z</time>
      </trkpt>
      <trkpt lat="42.3779960" lon="-3.5164470">
        <ele>944.0</ele>
        <time>2022-08-29T12:14:19Z</time>
      </trkpt>
      <trkpt lat="42.3779960" lon="-3.5164800">
        <ele>944.2</ele>
        <time>2022-08-29T12:14:20Z</time>
      </trkpt>
      <trkpt lat="42.3779970" lon="-3.5165130">
        <ele>944.4</ele>
        <time>2022-08-29T12:14:21Z</time>
      </trkpt>
      <trkpt lat="42.3779960" lon="-3.5165460">
        <ele>944.6</ele>
        <time>2022-08-29T12:14:22Z</time>
      </trkpt>
      <trkpt lat="42.3779970" lon="-3.5165790">
        <ele>944.8</ele>
        <time>2022-08-29T12:14:23Z</time>
      </trkpt>
      <trkpt lat="42.3780060" lon="-3.5166090">
        <ele>945.0</ele>
        <time>2022-08-29T12:14:24Z</time>
      </trkpt>
      <trkpt lat="42.3780210" lon="-3.5166360">
        <ele>945.2</ele>
        <time>2022-08-29T12:14:25Z</time>
      </trkpt>
      <trkpt lat="42.3780360" lon="-3.5166650">
        <ele>945.0</ele>
        <time>2022-08-29T12:14:26Z</time>
      </trkpt>
      <trkpt lat="42.3780470" lon="-3.5166980">
        <ele>945.2</ele>
        <time>2022-08-29T12:14:27Z</time>
      </trkpt>
      <trkpt lat="42.3780590" lon="-3.5167310">
        <ele>945.2</ele>
        <time>2022-08-29T12:14:28Z</time>
      </trkpt>
      <trkpt lat="42.3780710" lon="-3.5167660">
        <ele>945.2</ele>
        <time>2022-08-29T12:14:29Z</time>
      </trkpt>
      <trkpt lat="42.3780830" lon="-3.5168010">
        <ele>945.6</ele>
        <time>2022-08-29T12:14:30Z</time>
      </trkpt>
      <trkpt lat="42.3780920" lon="-3.5168360">
        <ele>945.8</ele>
        <time>2022-08-29T12:14:31Z</time>
      </trkpt>
      <trkpt lat="42.3781000" lon="-3.5168690">
        <ele>946.0</ele>
        <time>2022-08-29T12:14:32Z</time>
      </trkpt>
      <trkpt lat="42.3781120" lon="-3.5168990">
        <ele>946.2</ele>
        <time>2022-08-29T12:14:33Z</time>
      </trkpt>
      <trkpt lat="42.3781220" lon="-3.5169290">
        <ele>946.2</ele>
        <time>2022-08-29T12:14:34Z</time>
      </trkpt>
      <trkpt lat="42.3781330" lon="-3.5169560">
        <ele>946.4</ele>
        <time>2022-08-29T12:14:35Z</time>
      </trkpt>
      <trkpt lat="42.3781410" lon="-3.5169800">
        <ele>946.4</ele>
        <time>2022-08-29T12:14:36Z</time>
      </trkpt>
      <trkpt lat="42.3781470" lon="-3.5170010">
        <ele>946.4</ele>
        <time>2022-08-29T12:14:37Z</time>
      </trkpt>
      <trkpt lat="42.3781530" lon="-3.5170190">
        <ele>946.4</ele>
        <time>2022-08-29T12:14:38Z</time>
      </trkpt>
      <trkpt lat="42.3781600" lon="-3.5170380">
        <ele>946.4</ele>
        <time>2022-08-29T12:14:39Z</time>
      </trkpt>
      <trkpt lat="42.3781670" lon="-3.5170620">
        <ele>946.6</ele>
        <time>2022-08-29T12:14:40Z</time>
      </trkpt>
      <trkpt lat="42.3781760" lon="-3.5170900">
        <ele>946.6</ele>
        <time>2022-08-29T12:14:41Z</time>
      </trkpt>
      <trkpt lat="42.3781860" lon="-3.5171200">
        <ele>946.6</ele>
        <time>2022-08-29T12:14:42Z</time>
      </trkpt>
      <trkpt lat="42.3781960" lon="-3.5171540">
        <ele>946.8</ele>
        <time>2022-08-29T12:14:43Z</time>
      </trkpt>
      <trkpt lat="42.3782050" lon="-3.5171900">
        <ele>946.6</ele>
        <time>2022-08-29T12:14:44Z</time>
      </trkpt>
      <trkpt lat="42.3782130" lon="-3.5172270">
        <ele>946.8</ele>
        <time>2022-08-29T12:14:45Z</time>
      </trkpt>
      <trkpt lat="42.3782190" lon="-3.5172650">
        <ele>946.8</ele>
        <time>2022-08-29T12:14:46Z</time>
      </trkpt>
      <trkpt lat="42.3782270" lon="-3.5173030">
        <ele>946.8</ele>
        <time>2022-08-29T12:14:47Z</time>
      </trkpt>
      <trkpt lat="42.3782370" lon="-3.5173380">
        <ele>946.8</ele>
        <time>2022-08-29T12:14:48Z</time>
      </trkpt>
      <trkpt lat="42.3782490" lon="-3.5173700">
        <ele>947.0</ele>
        <time>2022-08-29T12:14:49Z</time>
      </trkpt>
      <trkpt lat="42.3782600" lon="-3.5174020">
        <ele>947.2</ele>
        <time>2022-08-29T12:14:50Z</time>
      </trkpt>
      <trkpt lat="42.3782680" lon="-3.5174360">
        <ele>947.2</ele>
        <time>2022-08-29T12:14:51Z</time>
      </trkpt>
      <trkpt lat="42.3782740" lon="-3.5174710">
        <ele>947.2</ele>
        <time>2022-08-29T12:14:52Z</time>
      </trkpt>
      <trkpt lat="42.3782780" lon="-3.5175060">
        <ele>947.2</ele>
        <time>2022-08-29T12:14:53Z</time>
      </trkpt>
      <trkpt lat="42.3782800" lon="-3.5175390">
        <ele>947.2</ele>
        <time>2022-08-29T12:14:54Z</time>
      </trkpt>
      <trkpt lat="42.3782820" lon="-3.5175660">
        <ele>947.4</ele>
        <time>2022-08-29T12:14:55Z</time>
      </trkpt>
      <trkpt lat="42.3782880" lon="-3.5175890">
        <ele>947.6</ele>
        <time>2022-08-29T12:14:56Z</time>
      </trkpt>
      <trkpt lat="42.3782970" lon="-3.5176140">
        <ele>947.6</ele>
        <time>2022-08-29T12:14:57Z</time>
      </trkpt>
      <trkpt lat="42.3783060" lon="-3.5176400">
        <ele>947.6</ele>
        <time>2022-08-29T12:14:58Z</time>
      </trkpt>
      <trkpt lat="42.3783150" lon="-3.5176690">
        <ele>948.0</ele>
        <time>2022-08-29T12:14:59Z</time>
      </trkpt>
      <trkpt lat="42.3783240" lon="-3.5176990">
        <ele>948.0</ele>
        <time>2022-08-29T12:15:00Z</time>
      </trkpt>
      <trkpt lat="42.3783350" lon="-3.5177300">
        <ele>948.4</ele>
        <time>2022-08-29T12:15:01Z</time>
      </trkpt>
      <trkpt lat="42.3783490" lon="-3.5177630">
        <ele>948.6</ele>
        <time>2022-08-29T12:15:02Z</time>
      </trkpt>
      <trkpt lat="42.3783610" lon="-3.5177980">
        <ele>948.6</ele>
        <time>2022-08-29T12:15:03Z</time>
      </trkpt>
      <trkpt lat="42.3783700" lon="-3.5178340">
        <ele>948.8</ele>
        <time>2022-08-29T12:15:04Z</time>
      </trkpt>
      <trkpt lat="42.3783790" lon="-3.5178700">
        <ele>949.0</ele>
        <time>2022-08-29T12:15:05Z</time>
      </trkpt>
      <trkpt lat="42.3783900" lon="-3.5179030">
        <ele>949.2</ele>
        <time>2022-08-29T12:15:06Z</time>
      </trkpt>
      <trkpt lat="42.3784020" lon="-3.5179370">
        <ele>949.4</ele>
        <time>2022-08-29T12:15:07Z</time>
      </trkpt>
      <trkpt lat="42.3784160" lon="-3.5179730">
        <ele>949.4</ele>
        <time>2022-08-29T12:15:08Z</time>
      </trkpt>
      <trkpt lat="42.3784310" lon="-3.5180100">
        <ele>949.6</ele>
        <time>2022-08-29T12:15:09Z</time>
      </trkpt>
      <trkpt lat="42.3784470" lon="-3.5180480">
        <ele>949.6</ele>
        <time>2022-08-29T12:15:10Z</time>
      </trkpt>
      <trkpt lat="42.3784610" lon="-3.5180820">
        <ele>949.6</ele>
        <time>2022-08-29T12:15:11Z</time>
      </trkpt>
      <trkpt lat="42.3784740" lon="-3.5181150">
        <ele>949.6</ele>
        <time>2022-08-29T12:15:12Z</time>
      </trkpt>
      <trkpt lat="42.3784860" lon="-3.5181480">
        <ele>949.8</ele>
        <time>2022-08-29T12:15:13Z</time>
      </trkpt>
      <trkpt lat="42.3784980" lon="-3.5181820">
        <ele>949.6</ele>
        <time>2022-08-29T12:15:14Z</time>
      </trkpt>
      <trkpt lat="42.3785110" lon="-3.5182150">
        <ele>949.8</ele>
        <time>2022-08-29T12:15:15Z</time>
      </trkpt>
      <trkpt lat="42.3785250" lon="-3.5182480">
        <ele>949.6</ele>
        <time>2022-08-29T12:15:16Z</time>
      </trkpt>
      <trkpt lat="42.3785380" lon="-3.5182820">
        <ele>949.8</ele>
        <time>2022-08-29T12:15:17Z</time>
      </trkpt>
      <trkpt lat="42.3785510" lon="-3.5183180">
        <ele>949.8</ele>
        <time>2022-08-29T12:15:18Z</time>
      </trkpt>
      <trkpt lat="42.3785630" lon="-3.5183530">
        <ele>949.8</ele>
        <time>2022-08-29T12:15:19Z</time>
      </trkpt>
      <trkpt lat="42.3785730" lon="-3.5183870">
        <ele>949.8</ele>
        <time>2022-08-29T12:15:20Z</time>
      </trkpt>
      <trkpt lat="42.3785830" lon="-3.5184200">
        <ele>949.8</ele>
        <time>2022-08-29T12:15:21Z</time>
      </trkpt>
      <trkpt lat="42.3785930" lon="-3.5184510">
        <ele>949.8</ele>
        <time>2022-08-29T12:15:22Z</time>
      </trkpt>
      <trkpt lat="42.3786010" lon="-3.5184800">
        <ele>949.8</ele>
        <time>2022-08-29T12:15:23Z</time>
      </trkpt>
      <trkpt lat="42.3786050" lon="-3.5185070">
        <ele>950.0</ele>
        <time>2022-08-29T12:15:24Z</time>
      </trkpt>
      <trkpt lat="42.3786090" lon="-3.5185330">
        <ele>949.8</ele>
        <time>2022-08-29T12:15:25Z</time>
      </trkpt>
      <trkpt lat="42.3786160" lon="-3.5185600">
        <ele>950.0</ele>
        <time>2022-08-29T12:15:26Z</time>
      </trkpt>
      <trkpt lat="42.3786220" lon="-3.5185900">
        <ele>949.8</ele>
        <time>2022-08-29T12:15:27Z</time>
      </trkpt>
      <trkpt lat="42.3786300" lon="-3.5186180">
        <ele>950.2</ele>
        <time>2022-08-29T12:15:28Z</time>
      </trkpt>
      <trkpt lat="42.3786420" lon="-3.5186440">
        <ele>950.0</ele>
        <time>2022-08-29T12:15:29Z</time>
      </trkpt>
      <trkpt lat="42.3786540" lon="-3.5186710">
        <ele>950.2</ele>
        <time>2022-08-29T12:15:30Z</time>
      </trkpt>
      <trkpt lat="42.3786650" lon="-3.5186970">
        <ele>950.2</ele>
        <time>2022-08-29T12:15:31Z</time>
      </trkpt>
      <trkpt lat="42.3786760" lon="-3.5187220">
        <ele>950.4</ele>
        <time>2022-08-29T12:15:32Z</time>
      </trkpt>
      <trkpt lat="42.3786870" lon="-3.5187480">
        <ele>950.4</ele>
        <time>2022-08-29T12:15:33Z</time>
      </trkpt>
      <trkpt lat="42.3786980" lon="-3.5187730">
        <ele>950.6</ele>
        <time>2022-08-29T12:15:34Z</time>
      </trkpt>
      <trkpt lat="42.3787100" lon="-3.5187970">
        <ele>950.6</ele>
        <time>2022-08-29T12:15:35Z</time>
      </trkpt>
      <trkpt lat="42.3787210" lon="-3.5188220">
        <ele>950.8</ele>
        <time>2022-08-29T12:15:36Z</time>
      </trkpt>
      <trkpt lat="42.3787330" lon="-3.5188480">
        <ele>951.0</ele>
        <time>2022-08-29T12:15:37Z</time>
      </trkpt>
      <trkpt lat="42.3787450" lon="-3.5188750">
        <ele>951.2</ele>
        <time>2022-08-29T12:15:38Z</time>
      </trkpt>
      <trkpt lat="42.3787560" lon="-3.5189020">
        <ele>951.2</ele>
        <time>2022-08-29T12:15:39Z</time>
      </trkpt>
      <trkpt lat="42.3787660" lon="-3.5189280">
        <ele>951.2</ele>
        <time>2022-08-29T12:15:40Z</time>
      </trkpt>
      <trkpt lat="42.3787760" lon="-3.5189540">
        <ele>951.2</ele>
        <time>2022-08-29T12:15:41Z</time>
      </trkpt>
      <trkpt lat="42.3787870" lon="-3.5189800">
        <ele>951.4</ele>
        <time>2022-08-29T12:15:42Z</time>
      </trkpt>
      <trkpt lat="42.3787970" lon="-3.5190080">
        <ele>951.4</ele>
        <time>2022-08-29T12:15:43Z</time>
      </trkpt>
      <trkpt lat="42.3788060" lon="-3.5190360">
        <ele>951.4</ele>
        <time>2022-08-29T12:15:44Z</time>
      </trkpt>
      <trkpt lat="42.3788160" lon="-3.5190650">
        <ele>951.8</ele>
        <time>2022-08-29T12:15:45Z</time>
      </trkpt>
      <trkpt lat="42.3788250" lon="-3.5190960">
        <ele>952.0</ele>
        <time>2022-08-29T12:15:46Z</time>
      </trkpt>
      <trkpt lat="42.3788340" lon="-3.5191280">
        <ele>952.2</ele>
        <time>2022-08-29T12:15:47Z</time>
      </trkpt>
      <trkpt lat="42.3788420" lon="-3.5191610">
        <ele>952.4</ele>
        <time>2022-08-29T12:15:48Z</time>
      </trkpt>
      <trkpt lat="42.3788490" lon="-3.5191950">
        <ele>952.6</ele>
        <time>2022-08-29T12:15:49Z</time>
      </trkpt>
      <trkpt lat="42.3788570" lon="-3.5192290">
        <ele>952.8</ele>
        <time>2022-08-29T12:15:50Z</time>
      </trkpt>
      <trkpt lat="42.3788640" lon="-3.5192640">
        <ele>952.8</ele>
        <time>2022-08-29T12:15:51Z</time>
      </trkpt>
      <trkpt lat="42.3788700" lon="-3.5192980">
        <ele>953.0</ele>
        <time>2022-08-29T12:15:52Z</time>
      </trkpt>
      <trkpt lat="42.3788750" lon="-3.5193300">
        <ele>953.0</ele>
        <time>2022-08-29T12:15:53Z</time>
      </trkpt>
      <trkpt lat="42.3788800" lon="-3.5193620">
        <ele>953.2</ele>
        <time>2022-08-29T12:15:54Z</time>
      </trkpt>
      <trkpt lat="42.3788860" lon="-3.5193930">
        <ele>953.4</ele>
        <time>2022-08-29T12:15:55Z</time>
      </trkpt>
      <trkpt lat="42.3788930" lon="-3.5194260">
        <ele>953.6</ele>
        <time>2022-08-29T12:15:56Z</time>
      </trkpt>
      <trkpt lat="42.3788990" lon="-3.5194610">
        <ele>953.6</ele>
        <time>2022-08-29T12:15:57Z</time>
      </trkpt>
      <trkpt lat="42.3789050" lon="-3.5194960">
        <ele>953.8</ele>
        <time>2022-08-29T12:15:58Z</time>
      </trkpt>
      <trkpt lat="42.3789130" lon="-3.5195320">
        <ele>953.8</ele>
        <time>2022-08-29T12:15:59Z</time>
      </trkpt>
      <trkpt lat="42.3789190" lon="-3.5195700">
        <ele>954.0</ele>
        <time>2022-08-29T12:16:00Z</time>
      </trkpt>
      <trkpt lat="42.3789250" lon="-3.5196070">
        <ele>953.8</ele>
        <time>2022-08-29T12:16:01Z</time>
      </trkpt>
      <trkpt lat="42.3789310" lon="-3.5196450">
        <ele>954.0</ele>
        <time>2022-08-29T12:16:02Z</time>
      </trkpt>
      <trkpt lat="42.3789350" lon="-3.5196830">
        <ele>954.0</ele>
        <time>2022-08-29T12:16:03Z</time>
      </trkpt>
      <trkpt lat="42.3789390" lon="-3.5197220">
        <ele>954.0</ele>
        <time>2022-08-29T12:16:04Z</time>
      </trkpt>
      <trkpt lat="42.3789410" lon="-3.5197620">
        <ele>954.0</ele>
        <time>2022-08-29T12:16:05Z</time>
      </trkpt>
      <trkpt lat="42.3789410" lon="-3.5198030">
        <ele>954.0</ele>
        <time>2022-08-29T12:16:06Z</time>
      </trkpt>
      <trkpt lat="42.3789420" lon="-3.5198440">
        <ele>954.2</ele>
        <time>2022-08-29T12:16:07Z</time>
      </trkpt>
      <trkpt lat="42.3789440" lon="-3.5198850">
        <ele>954.2</ele>
        <time>2022-08-29T12:16:08Z</time>
      </trkpt>
      <trkpt lat="42.3789470" lon="-3.5199260">
        <ele>954.2</ele>
        <time>2022-08-29T12:16:09Z</time>
      </trkpt>
      <trkpt lat="42.3789520" lon="-3.5199700">
        <ele>954.2</ele>
        <time>2022-08-29T12:16:10Z</time>
      </trkpt>
      <trkpt lat="42.3789570" lon="-3.5200160">
        <ele>954.2</ele>
        <time>2022-08-29T12:16:11Z</time>
      </trkpt>
      <trkpt lat="42.3789620" lon="-3.5200600">
        <ele>954.2</ele>
        <time>2022-08-29T12:16:12Z</time>
      </trkpt>
      <trkpt lat="42.3789640" lon="-3.5201010">
        <ele>954.2</ele>
        <time>2022-08-29T12:16:13Z</time>
      </trkpt>
      <trkpt lat="42.3789660" lon="-3.5201380">
        <ele>954.4</ele>
        <time>2022-08-29T12:16:14Z</time>
      </trkpt>
      <trkpt lat="42.3789680" lon="-3.5201710">
        <ele>954.4</ele>
        <time>2022-08-29T12:16:15Z</time>
      </trkpt>
      <trkpt lat="42.3789700" lon="-3.5201990">
        <ele>954.4</ele>
        <time>2022-08-29T12:16:16Z</time>
      </trkpt>
      <trkpt lat="42.3789700" lon="-3.5202260">
        <ele>954.6</ele>
        <time>2022-08-29T12:16:17Z</time>
      </trkpt>
      <trkpt lat="42.3789700" lon="-3.5202510">
        <ele>954.4</ele>
        <time>2022-08-29T12:16:18Z</time>
      </trkpt>
      <trkpt lat="42.3789720" lon="-3.5202750">
        <ele>954.6</ele>
        <time>2022-08-29T12:16:19Z</time>
      </trkpt>
      <trkpt lat="42.3789740" lon="-3.5203000">
        <ele>954.6</ele>
        <time>2022-08-29T12:16:20Z</time>
      </trkpt>
      <trkpt lat="42.3789760" lon="-3.5203250">
        <ele>954.6</ele>
        <time>2022-08-29T12:16:21Z</time>
      </trkpt>
      <trkpt lat="42.3789760" lon="-3.5203480">
        <ele>954.6</ele>
        <time>2022-08-29T12:16:22Z</time>
      </trkpt>
      <trkpt lat="42.3789760" lon="-3.5203700">
        <ele>954.6</ele>
        <time>2022-08-29T12:16:23Z</time>
      </trkpt>
      <trkpt lat="42.3789770" lon="-3.5203920">
        <ele>954.6</ele>
        <time>2022-08-29T12:16:24Z</time>
      </trkpt>
      <trkpt lat="42.3789760" lon="-3.5204140">
        <ele>954.8</ele>
        <time>2022-08-29T12:16:25Z</time>
      </trkpt>
      <trkpt lat="42.3789750" lon="-3.5204370">
        <ele>955.0</ele>
        <time>2022-08-29T12:16:26Z</time>
      </trkpt>
      <trkpt lat="42.3789750" lon="-3.5204610">
        <ele>955.2</ele>
        <time>2022-08-29T12:16:27Z</time>
      </trkpt>
      <trkpt lat="42.3789770" lon="-3.5204850">
        <ele>955.4</ele>
        <time>2022-08-29T12:16:28Z</time>
      </trkpt>
      <trkpt lat="42.3789810" lon="-3.5205090">
        <ele>955.4</ele>
        <time>2022-08-29T12:16:29Z</time>
      </trkpt>
      <trkpt lat="42.3789850" lon="-3.5205350">
        <ele>955.6</ele>
        <time>2022-08-29T12:16:30Z</time>
      </trkpt>
      <trkpt lat="42.3789900" lon="-3.5205620">
        <ele>956.0</ele>
        <time>2022-08-29T12:16:31Z</time>
      </trkpt>
      <trkpt lat="42.3789950" lon="-3.5205880">
        <ele>956.2</ele>
        <time>2022-08-29T12:16:32Z</time>
      </trkpt>
      <trkpt lat="42.3789990" lon="-3.5206170">
        <ele>956.2</ele>
        <time>2022-08-29T12:16:33Z</time>
      </trkpt>
      <trkpt lat="42.3790030" lon="-3.5206450">
        <ele>956.4</ele>
        <time>2022-08-29T12:16:34Z</time>
      </trkpt>
      <trkpt lat="42.3790060" lon="-3.5206710">
        <ele>956.6</ele>
        <time>2022-08-29T12:16:35Z</time>
      </trkpt>
      <trkpt lat="42.3790100" lon="-3.5206940">
        <ele>956.6</ele>
        <time>2022-08-29T12:16:36Z</time>
      </trkpt>
      <trkpt lat="42.3790160" lon="-3.5207160">
        <ele>956.8</ele>
        <time>2022-08-29T12:16:37Z</time>
      </trkpt>
      <trkpt lat="42.3790210" lon="-3.5207400">
        <ele>957.2</ele>
        <time>2022-08-29T12:16:38Z</time>
      </trkpt>
      <trkpt lat="42.3790240" lon="-3.5207660">
        <ele>957.4</ele>
        <time>2022-08-29T12:16:39Z</time>
      </trkpt>
      <trkpt lat="42.3790260" lon="-3.5207900">
        <ele>957.6</ele>
        <time>2022-08-29T12:16:40Z</time>
      </trkpt>
      <trkpt lat="42.3790290" lon="-3.5208130">
        <ele>957.8</ele>
        <time>2022-08-29T12:16:41Z</time>
      </trkpt>
      <trkpt lat="42.3790330" lon="-3.5208360">
        <ele>958.0</ele>
        <time>2022-08-29T12:16:42Z</time>
      </trkpt>
      <trkpt lat="42.3790360" lon="-3.5208590">
        <ele>958.2</ele>
        <time>2022-08-29T12:16:43Z</time>
      </trkpt>
      <trkpt lat="42.3790390" lon="-3.5208820">
        <ele>958.4</ele>
        <time>2022-08-29T12:16:44Z</time>
      </trkpt>
      <trkpt lat="42.3790430" lon="-3.5209040">
        <ele>958.6</ele>
        <time>2022-08-29T12:16:45Z</time>
      </trkpt>
      <trkpt lat="42.3790460" lon="-3.5209250">
        <ele>958.8</ele>
        <time>2022-08-29T12:16:46Z</time>
      </trkpt>
      <trkpt lat="42.3790480" lon="-3.5209460">
        <ele>959.0</ele>
        <time>2022-08-29T12:16:47Z</time>
      </trkpt>
      <trkpt lat="42.3790510" lon="-3.5209650">
        <ele>959.2</ele>
        <time>2022-08-29T12:16:48Z</time>
      </trkpt>
      <trkpt lat="42.3790530" lon="-3.5209840">
        <ele>959.4</ele>
        <time>2022-08-29T12:16:49Z</time>
      </trkpt>
      <trkpt lat="42.3790560" lon="-3.5210040">
        <ele>959.6</ele>
        <time>2022-08-29T12:16:50Z</time>
      </trkpt>
      <trkpt lat="42.3790600" lon="-3.5210230">
        <ele>959.8</ele>
        <time>2022-08-29T12:16:51Z</time>
      </trkpt>
      <trkpt lat="42.3790640" lon="-3.5210410">
        <ele>959.8</ele>
        <time>2022-08-29T12:16:52Z</time>
      </trkpt>
      <trkpt lat="42.3790690" lon="-3.5210590">
        <ele>959.8</ele>
        <time>2022-08-29T12:16:53Z</time>
      </trkpt>
      <trkpt lat="42.3790730" lon="-3.5210780">
        <ele>960.2</ele>
        <time>2022-08-29T12:16:54Z</time>
      </trkpt>
      <trkpt lat="42.3790760" lon="-3.5210970">
        <ele>960.6</ele>
        <time>2022-08-29T12:16:55Z</time>
      </trkpt>
      <trkpt lat="42.3790800" lon="-3.5211150">
        <ele>960.8</ele>
        <time>2022-08-29T12:16:56Z</time>
      </trkpt>
      <trkpt lat="42.3790820" lon="-3.5211350">
        <ele>961.0</ele>
        <time>2022-08-29T12:16:57Z</time>
      </trkpt>
      <trkpt lat="42.3790840" lon="-3.5211560">
        <ele>961.2</ele>
        <time>2022-08-29T12:16:58Z</time>
      </trkpt>
      <trkpt lat="42.3790880" lon="-3.5211740">
        <ele>961.4</ele>
        <time>2022-08-29T12:16:59Z</time>
      </trkpt>
      <trkpt lat="42.3790940" lon="-3.5211930">
        <ele>961.4</ele>
        <time>2022-08-29T12:17:00Z</time>
      </trkpt>
      <trkpt lat="42.3790980" lon="-3.5212110">
        <ele>961.6</ele>
        <time>2022-08-29T12:17:01Z</time>
      </trkpt>
      <trkpt lat="42.3791020" lon="-3.5212290">
        <ele>961.6</ele>
        <time>2022-08-29T12:17:02Z</time>
      </trkpt>
      <trkpt lat="42.3791070" lon="-3.5212470">
        <ele>962.0</ele>
        <time>2022-08-29T12:17:03Z</time>
      </trkpt>
      <trkpt lat="42.3791120" lon="-3.5212650">
        <ele>962.2</ele>
        <time>2022-08-29T12:17:04Z</time>
      </trkpt>
      <trkpt lat="42.3791190" lon="-3.5212820">
        <ele>962.4</ele>
        <time>2022-08-29T12:17:05Z</time>
      </trkpt>
      <trkpt lat="42.3791230" lon="-3.5212990">
        <ele>962.6</ele>
        <time>2022-08-29T12:17:06Z</time>
      </trkpt>
      <trkpt lat="42.3791250" lon="-3.5213160">
        <ele>962.6</ele>
        <time>2022-08-29T12:17:07Z</time>
      </trkpt>
      <trkpt lat="42.3791260" lon="-3.5213350">
        <ele>963.0</ele>
        <time>2022-08-29T12:17:08Z</time>
      </trkpt>
      <trkpt lat="42.3791270" lon="-3.5213540">
        <ele>963.2</ele>
        <time>2022-08-29T12:17:09Z</time>
      </trkpt>
      <trkpt lat="42.3791270" lon="-3.5213730">
        <ele>963.2</ele>
        <time>2022-08-29T12:17:10Z</time>
      </trkpt>
      <trkpt lat="42.3791290" lon="-3.5213910">
        <ele>963.4</ele>
        <time>2022-08-29T12:17:11Z</time>
      </trkpt>
      <trkpt lat="42.3791310" lon="-3.5214080">
        <ele>963.4</ele>
        <time>2022-08-29T12:17:12Z</time>
      </trkpt>
      <trkpt lat="42.3791320" lon="-3.5214250">
        <ele>963.8</ele>
        <time>2022-08-29T12:17:13Z</time>
      </trkpt>
      <trkpt lat="42.3791330" lon="-3.5214430">
        <ele>964.0</ele>
        <time>2022-08-29T12:17:14Z</time>
      </trkpt>
      <trkpt lat="42.3791320" lon="-3.5214610">
        <ele>964.4</ele>
        <time>2022-08-29T12:17:15Z</time>
      </trkpt>
      <trkpt lat="42.3791300" lon="-3.5214800">
        <ele>964.4</ele>
        <time>2022-08-29T12:17:16Z</time>
      </trkpt>
      <trkpt lat="42.3791280" lon="-3.5214990">
        <ele>964.6</ele>
        <time>2022-08-29T12:17:17Z</time>
      </trkpt>
      <trkpt lat="42.3791290" lon="-3.5215180">
        <ele>964.8</ele>
        <time>2022-08-29T12:17:18Z</time>
      </trkpt>
      <trkpt lat="42.3791300" lon="-3.5215360">
        <ele>965.0</ele>
        <time>2022-08-29T12:17:19Z</time>
      </trkpt>
      <trkpt lat="42.3791300" lon="-3.5215540">
        <ele>965.2</ele>
        <time>2022-08-29T12:17:20Z</time>
      </trkpt>
      <trkpt lat="42.3791290" lon="-3.5215730">
        <ele>965.6</ele>
        <time>2022-08-29T12:17:21Z</time>
      </trkpt>
      <trkpt lat="42.3791300" lon="-3.5215910">
        <ele>965.8</ele>
        <time>2022-08-29T12:17:22Z</time>
      </trkpt>
      <trkpt lat="42.3791310" lon="-3.5216100">
        <ele>965.8</ele>
        <time>2022-08-29T12:17:23Z</time>
      </trkpt>
      <trkpt lat="42.3791290" lon="-3.5216300">
        <ele>966.2</ele>
        <time>2022-08-29T12:17:24Z</time>
      </trkpt>
      <trkpt lat="42.3791260" lon="-3.5216500">
        <ele>966.2</ele>
        <time>2022-08-29T12:17:25Z</time>
      </trkpt>
      <trkpt lat="42.3791230" lon="-3.5216700">
        <ele>966.4</ele>
        <time>2022-08-29T12:17:26Z</time>
      </trkpt>
      <trkpt lat="42.3791210" lon="-3.5216910">
        <ele>966.4</ele>
        <time>2022-08-29T12:17:27Z</time>
      </trkpt>
      <trkpt lat="42.3791210" lon="-3.5217090">
        <ele>966.8</ele>
        <time>2022-08-29T12:17:28Z</time>
      </trkpt>
      <trkpt lat="42.3791200" lon="-3.5217280">
        <ele>966.8</ele>
        <time>2022-08-29T12:17:29Z</time>
      </trkpt>
      <trkpt lat="42.3791190" lon="-3.5217460">
        <ele>967.0</ele>
        <time>2022-08-29T12:17:30Z</time>
      </trkpt>
      <trkpt lat="42.3791160" lon="-3.5217650">
        <ele>967.0</ele>
        <time>2022-08-29T12:17:31Z</time>
      </trkpt>
      <trkpt lat="42.3791140" lon="-3.5217830">
        <ele>967.4</ele>
        <time>2022-08-29T12:17:32Z</time>
      </trkpt>
      <trkpt lat="42.3791130" lon="-3.5218000">
        <ele>967.4</ele>
        <time>2022-08-29T12:17:33Z</time>
      </trkpt>
      <trkpt lat="42.3791120" lon="-3.5218190">
        <ele>967.4</ele>
        <time>2022-08-29T12:17:34Z</time>
      </trkpt>
      <trkpt lat="42.3791110" lon="-3.5218380">
        <ele>967.6</ele>
        <time>2022-08-29T12:17:35Z</time>
      </trkpt>
      <trkpt lat="42.3791100" lon="-3.5218570">
        <ele>967.8</ele>
        <time>2022-08-29T12:17:36Z</time>
      </trkpt>
      <trkpt lat="42.3791060" lon="-3.5218750">
        <ele>967.8</ele>
        <time>2022-08-29T12:17:37Z</time>
      </trkpt>
      <trkpt lat="42.3791040" lon="-3.5218940">
        <ele>968.2</ele>
        <time>2022-08-29T12:17:38Z</time>
      </trkpt>
      <trkpt lat="42.3791030" lon="-3.5219140">
        <ele>968.2</ele>
        <time>2022-08-29T12:17:39Z</time>
      </trkpt>
      <trkpt lat="42.3791040" lon="-3.5219340">
        <ele>968.2</ele>
        <time>2022-08-29T12:17:40Z</time>
      </trkpt>
      <trkpt lat="42.3791040" lon="-3.5219520">
        <ele>968.2</ele>
        <time>2022-08-29T12:17:41Z</time>
      </trkpt>
      <trkpt lat="42.3791040" lon="-3.5219710">
        <ele>968.6</ele>
        <time>2022-08-29T12:17:42Z</time>
      </trkpt>
      <trkpt lat="42.3791020" lon="-3.5219870">
        <ele>968.8</ele>
        <time>2022-08-29T12:17:43Z</time>
      </trkpt>
      <trkpt lat="42.3791010" lon="-3.5220020">
        <ele>969.0</ele>
        <time>2022-08-29T12:17:44Z</time>
      </trkpt>
      <trkpt lat="42.3791010" lon="-3.5220200">
        <ele>969.0</ele>
        <time>2022-08-29T12:17:45Z</time>
      </trkpt>
      <trkpt lat="42.3791020" lon="-3.5220380">
        <ele>969.4</ele>
        <time>2022-08-29T12:17:46Z</time>
      </trkpt>
      <trkpt lat="42.3791030" lon="-3.5220550">
        <ele>969.4</ele>
        <time>2022-08-29T12:17:47Z</time>
      </trkpt>
      <trkpt lat="42.3791020" lon="-3.5220710">
        <ele>969.4</ele>
        <time>2022-08-29T12:17:48Z</time>
      </trkpt>
      <trkpt lat="42.3791020" lon="-3.5220880">
        <ele>969.6</ele>
        <time>2022-08-29T12:17:49Z</time>
      </trkpt>
      <trkpt lat="42.3790990" lon="-3.5221050">
        <ele>969.8</ele>
        <time>2022-08-29T12:17:50Z</time>
      </trkpt>
      <trkpt lat="42.3790950" lon="-3.5221240">
        <ele>970.0</ele>
        <time>2022-08-29T12:17:51Z</time>
      </trkpt>
      <trkpt lat="42.3790920" lon="-3.5221440">
        <ele>970.2</ele>
        <time>2022-08-29T12:17:52Z</time>
      </trkpt>
      <trkpt lat="42.3790900" lon="-3.5221650">
        <ele>970.4</ele>
        <time>2022-08-29T12:17:53Z</time>
      </trkpt>
      <trkpt lat="42.3790870" lon="-3.5221860">
        <ele>970.4</ele>
        <time>2022-08-29T12:17:54Z</time>
      </trkpt>
      <trkpt lat="42.3790840" lon="-3.5222070">
        <ele>970.6</ele>
        <time>2022-08-29T12:17:55Z</time>
      </trkpt>
      <trkpt lat="42.3790800" lon="-3.5222280">
        <ele>970.8</ele>
        <time>2022-08-29T12:17:56Z</time>
      </trkpt>
      <trkpt lat="42.3790770" lon="-3.5222470">
        <ele>971.0</ele>
        <time>2022-08-29T12:17:57Z</time>
      </trkpt>
      <trkpt lat="42.3790740" lon="-3.5222660">
        <ele>971.0</ele>
        <time>2022-08-29T12:17:58Z</time>
      </trkpt>
      <trkpt lat="42.3790710" lon="-3.5222860">
        <ele>971.0</ele>
        <time>2022-08-29T12:17:59Z</time>
      </trkpt>
      <trkpt lat="42.3790700" lon="-3.5223060">
        <ele>971.2</ele>
        <time>2022-08-29T12:18:00Z</time>
      </trkpt>
      <trkpt lat="42.3790690" lon="-3.5223260">
        <ele>971.4</ele>
        <time>2022-08-29T12:18:01Z</time>
      </trkpt>
      <trkpt lat="42.3790660" lon="-3.5223450">
        <ele>971.4</ele>
        <time>2022-08-29T12:18:02Z</time>
      </trkpt>
      <trkpt lat="42.3790610" lon="-3.5223640">
        <ele>971.6</ele>
        <time>2022-08-29T12:18:03Z</time>
      </trkpt>
      <trkpt lat="42.3790600" lon="-3.5223830">
        <ele>971.6</ele>
        <time>2022-08-29T12:18:04Z</time>
      </trkpt>
      <trkpt lat="42.3790600" lon="-3.5224030">
        <ele>972.0</ele>
        <time>2022-08-29T12:18:05Z</time>
      </trkpt>
      <trkpt lat="42.3790580" lon="-3.5224230">
        <ele>972.2</ele>
        <time>2022-08-29T12:18:06Z</time>
      </trkpt>
      <trkpt lat="42.3790550" lon="-3.5224410">
        <ele>972.2</ele>
        <time>2022-08-29T12:18:07Z</time>
      </trkpt>
      <trkpt lat="42.3790530" lon="-3.5224590">
        <ele>972.6</ele>
        <time>2022-08-29T12:18:08Z</time>
      </trkpt>
      <trkpt lat="42.3790520" lon="-3.5224760">
        <ele>972.8</ele>
        <time>2022-08-29T12:18:09Z</time>
      </trkpt>
      <trkpt lat="42.3790530" lon="-3.5224940">
        <ele>973.0</ele>
        <time>2022-08-29T12:18:10Z</time>
      </trkpt>
      <trkpt lat="42.3790530" lon="-3.5225120">
        <ele>973.2</ele>
        <time>2022-08-29T12:18:11Z</time>
      </trkpt>
      <trkpt lat="42.3790540" lon="-3.5225300">
        <ele>973.2</ele>
        <time>2022-08-29T12:18:12Z</time>
      </trkpt>
      <trkpt lat="42.3790550" lon="-3.5225490">
        <ele>973.6</ele>
        <time>2022-08-29T12:18:13Z</time>
      </trkpt>
      <trkpt lat="42.3790550" lon="-3.5225670">
        <ele>973.6</ele>
        <time>2022-08-29T12:18:14Z</time>
      </trkpt>
      <trkpt lat="42.3790540" lon="-3.5225870">
        <ele>973.8</ele>
        <time>2022-08-29T12:18:15Z</time>
      </trkpt>
      <trkpt lat="42.3790530" lon="-3.5226060">
        <ele>974.2</ele>
        <time>2022-08-29T12:18:16Z</time>
      </trkpt>
      <trkpt lat="42.3790530" lon="-3.5226260">
        <ele>974.4</ele>
        <time>2022-08-29T12:18:17Z</time>
      </trkpt>
      <trkpt lat="42.3790530" lon="-3.5226440">
        <ele>974.6</ele>
        <time>2022-08-29T12:18:18Z</time>
      </trkpt>
      <trkpt lat="42.3790510" lon="-3.5226630">
        <ele>974.4</ele>
        <time>2022-08-29T12:18:19Z</time>
      </trkpt>
      <trkpt lat="42.3790500" lon="-3.5226800">
        <ele>974.6</ele>
        <time>2022-08-29T12:18:20Z</time>
      </trkpt>
      <trkpt lat="42.3790500" lon="-3.5226980">
        <ele>974.8</ele>
        <time>2022-08-29T12:18:21Z</time>
      </trkpt>
      <trkpt lat="42.3790510" lon="-3.5227150">
        <ele>975.0</ele>
        <time>2022-08-29T12:18:22Z</time>
      </trkpt>
      <trkpt lat="42.3790500" lon="-3.5227320">
        <ele>975.2</ele>
        <time>2022-08-29T12:18:23Z</time>
      </trkpt>
      <trkpt lat="42.3790500" lon="-3.5227480">
        <ele>975.6</ele>
        <time>2022-08-29T12:18:24Z</time>
      </trkpt>
      <trkpt lat="42.3790500" lon="-3.5227640">
        <ele>975.8</ele>
        <time>2022-08-29T12:18:25Z</time>
      </trkpt>
      <trkpt lat="42.3790500" lon="-3.5227790">
        <ele>975.8</ele>
        <time>2022-08-29T12:18:26Z</time>
      </trkpt>
      <trkpt lat="42.3790510" lon="-3.5227930">
        <ele>975.8</ele>
        <time>2022-08-29T12:18:27Z</time>
      </trkpt>
      <trkpt lat="42.3790530" lon="-3.5228070">
        <ele>975.8</ele>
        <time>2022-08-29T12:18:28Z</time>
      </trkpt>
      <trkpt lat="42.3790540" lon="-3.5228230">
        <ele>976.2</ele>
        <time>2022-08-29T12:18:29Z</time>
      </trkpt>
      <trkpt lat="42.3790540" lon="-3.5228390">
        <ele>976.4</ele>
        <time>2022-08-29T12:18:30Z</time>
      </trkpt>
      <trkpt lat="42.3790520" lon="-3.5228550">
        <ele>976.6</ele>
        <time>2022-08-29T12:18:31Z</time>
      </trkpt>
      <trkpt lat="42.3790500" lon="-3.5228710">
        <ele>976.6</ele>
        <time>2022-08-29T12:18:32Z</time>
      </trkpt>
      <trkpt lat="42.3790490" lon="-3.5228870">
        <ele>977.0</ele>
        <time>2022-08-29T12:18:33Z</time>
      </trkpt>
      <trkpt lat="42.3790480" lon="-3.5229030">
        <ele>977.2</ele>
        <time>2022-08-29T12:18:34Z</time>
      </trkpt>
      <trkpt lat="42.3790460" lon="-3.5229180">
        <ele>977.2</ele>
        <time>2022-08-29T12:18:35Z</time>
      </trkpt>
      <trkpt lat="42.3790440" lon="-3.5229350">
        <ele>977.6</ele>
        <time>2022-08-29T12:18:36Z</time>
      </trkpt>
      <trkpt lat="42.3790440" lon="-3.5229520">
        <ele>977.8</ele>
        <time>2022-08-29T12:18:37Z</time>
      </trkpt>
      <trkpt lat="42.3790430" lon="-3.5229680">
        <ele>978.0</ele>
        <time>2022-08-29T12:18:38Z</time>
      </trkpt>
      <trkpt lat="42.3790400" lon="-3.5229840">
        <ele>978.2</ele>
        <time>2022-08-29T12:18:39Z</time>
      </trkpt>
      <trkpt lat="42.3790370" lon="-3.5230010">
        <ele>978.4</ele>
        <time>2022-08-29T12:18:40Z</time>
      </trkpt>
      <trkpt lat="42.3790370" lon="-3.5230170">
        <ele>978.6</ele>
        <time>2022-08-29T12:18:41Z</time>
      </trkpt>
      <trkpt lat="42.3790390" lon="-3.5230310">
        <ele>979.0</ele>
        <time>2022-08-29T12:18:42Z</time>
      </trkpt>
      <trkpt lat="42.3790370" lon="-3.5230470">
        <ele>979.2</ele>
        <time>2022-08-29T12:18:43Z</time>
      </trkpt>
      <trkpt lat="42.3790340" lon="-3.5230630">
        <ele>979.4</ele>
        <time>2022-08-29T12:18:44Z</time>
      </trkpt>
      <trkpt lat="42.3790330" lon="-3.5230790">
        <ele>979.4</ele>
        <time>2022-08-29T12:18:45Z</time>
      </trkpt>
      <trkpt lat="42.3790330" lon="-3.5230950">
        <ele>979.6</ele>
        <time>2022-08-29T12:18:46Z</time>
      </trkpt>
      <trkpt lat="42.3790300" lon="-3.5231110">
        <ele>980.0</ele>
        <time>2022-08-29T12:18:47Z</time>
      </trkpt>
      <trkpt lat="42.3790270" lon="-3.5231280">
        <ele>980.0</ele>
        <time>2022-08-29T12:18:48Z</time>
      </trkpt>
      <trkpt lat="42.3790230" lon="-3.5231460">
        <ele>980.4</ele>
        <time>2022-08-29T12:18:49Z</time>
      </trkpt>
      <trkpt lat="42.3790170" lon="-3.5231650">
        <ele>980.6</ele>
        <time>2022-08-29T12:18:50Z</time>
      </trkpt>
      <trkpt lat="42.3790100" lon="-3.5231820">
        <ele>980.8</ele>
        <time>2022-08-29T12:18:51Z</time>
      </trkpt>
      <trkpt lat="42.3790020" lon="-3.5231980">
        <ele>980.8</ele>
        <time>2022-08-29T12:18:52Z</time>
      </trkpt>
      <trkpt lat="42.3789950" lon="-3.5232150">
        <ele>981.0</ele>
        <time>2022-08-29T12:18:53Z</time>
      </trkpt>
      <trkpt lat="42.3789880" lon="-3.5232310">
        <ele>980.8</ele>
        <time>2022-08-29T12:18:54Z</time>
      </trkpt>
      <trkpt lat="42.3789800" lon="-3.5232470">
        <ele>981.0</ele>
        <time>2022-08-29T12:18:55Z</time>
      </trkpt>
      <trkpt lat="42.3789710" lon="-3.5232600">
        <ele>981.6</ele>
        <time>2022-08-29T12:18:56Z</time>
      </trkpt>
      <trkpt lat="42.3789610" lon="-3.5232710">
        <ele>981.6</ele>
        <time>2022-08-29T12:18:57Z</time>
      </trkpt>
      <trkpt lat="42.3789500" lon="-3.5232810">
        <ele>982.0</ele>
        <time>2022-08-29T12:18:58Z</time>
      </trkpt>
      <trkpt lat="42.3789390" lon="-3.5232930">
        <ele>982.4</ele>
        <time>2022-08-29T12:18:59Z</time>
      </trkpt>
      <trkpt lat="42.3789300" lon="-3.5233050">
        <ele>982.6</ele>
        <time>2022-08-29T12:19:00Z</time>
      </trkpt>
      <trkpt lat="42.3789200" lon="-3.5233160">
        <ele>982.6</ele>
        <time>2022-08-29T12:19:01Z</time>
      </trkpt>
      <trkpt lat="42.3789100" lon="-3.5233260">
        <ele>983.0</ele>
        <time>2022-08-29T12:19:02Z</time>
      </trkpt>
      <trkpt lat="42.3788990" lon="-3.5233350">
        <ele>983.2</ele>
        <time>2022-08-29T12:19:03Z</time>
      </trkpt>
      <trkpt lat="42.3788900" lon="-3.5233420">
        <ele>983.4</ele>
        <time>2022-08-29T12:19:04Z</time>
      </trkpt>
      <trkpt lat="42.3788810" lon="-3.5233530">
        <ele>983.4</ele>
        <time>2022-08-29T12:19:05Z</time>
      </trkpt>
      <trkpt lat="42.3788710" lon="-3.5233630">
        <ele>983.6</ele>
        <time>2022-08-29T12:19:06Z</time>
      </trkpt>
      <trkpt lat="42.3788590" lon="-3.5233710">
        <ele>983.8</ele>
        <time>2022-08-29T12:19:07Z</time>
      </trkpt>
      <trkpt lat="42.3788480" lon="-3.5233810">
        <ele>983.6</ele>
        <time>2022-08-29T12:19:08Z</time>
      </trkpt>
      <trkpt lat="42.3788360" lon="-3.5233940">
        <ele>983.8</ele>
        <time>2022-08-29T12:19:09Z</time>
      </trkpt>
      <trkpt lat="42.3788250" lon="-3.5234090">
        <ele>984.0</ele>
        <time>2022-08-29T12:19:10Z</time>
      </trkpt>
      <trkpt lat="42.3788160" lon="-3.5234270">
        <ele>984.2</ele>
        <time>2022-08-29T12:19:11Z</time>
      </trkpt>
      <trkpt lat="42.3788090" lon="-3.5234450">
        <ele>984.2</ele>
        <time>2022-08-29T12:19:12Z</time>
      </trkpt>
      <trkpt lat="42.3788030" lon="-3.5234640">
        <ele>984.0</ele>
        <time>2022-08-29T12:19:13Z</time>
      </trkpt>
      <trkpt lat="42.3787970" lon="-3.5234800">
        <ele>984.2</ele>
        <time>2022-08-29T12:19:14Z</time>
      </trkpt>
      <trkpt lat="42.3787910" lon="-3.5234940">
        <ele>984.4</ele>
        <time>2022-08-29T12:19:15Z</time>
      </trkpt>
      <trkpt lat="42.3787850" lon="-3.5235090">
        <ele>984.4</ele>
        <time>2022-08-29T12:19:16Z</time>
      </trkpt>
      <trkpt lat="42.3787800" lon="-3.5235250">
        <ele>984.2</ele>
        <time>2022-08-29T12:19:17Z</time>
      </trkpt>
      <trkpt lat="42.3787760" lon="-3.5235420">
        <ele>984.4</ele>
        <time>2022-08-29T12:19:18Z</time>
      </trkpt>
      <trkpt lat="42.3787730" lon="-3.5235580">
        <ele>984.4</ele>
        <time>2022-08-29T12:19:19Z</time>
      </trkpt>
      <trkpt lat="42.3787660" lon="-3.5235750">
        <ele>984.4</ele>
        <time>2022-08-29T12:19:20Z</time>
      </trkpt>
      <trkpt lat="42.3787580" lon="-3.5235910">
        <ele>984.6</ele>
        <time>2022-08-29T12:19:21Z</time>
      </trkpt>
      <trkpt lat="42.3787490" lon="-3.5236060">
        <ele>984.6</ele>
        <time>2022-08-29T12:19:22Z</time>
      </trkpt>
      <trkpt lat="42.3787420" lon="-3.5236220">
        <ele>984.8</ele>
        <time>2022-08-29T12:19:23Z</time>
      </trkpt>
      <trkpt lat="42.3787370" lon="-3.5236400">
        <ele>985.0</ele>
        <time>2022-08-29T12:19:24Z</time>
      </trkpt>
      <trkpt lat="42.3787330" lon="-3.5236580">
        <ele>985.2</ele>
        <time>2022-08-29T12:19:25Z</time>
      </trkpt>
      <trkpt lat="42.3787300" lon="-3.5236780">
        <ele>985.2</ele>
        <time>2022-08-29T12:19:26Z</time>
      </trkpt>
      <trkpt lat="42.3787270" lon="-3.5236970">
        <ele>985.4</ele>
        <time>2022-08-29T12:19:27Z</time>
      </trkpt>
      <trkpt lat="42.3787230" lon="-3.5237160">
        <ele>985.6</ele>
        <time>2022-08-29T12:19:28Z</time>
      </trkpt>
      <trkpt lat="42.3787200" lon="-3.5237360">
        <ele>985.8</ele>
        <time>2022-08-29T12:19:29Z</time>
      </trkpt>
      <trkpt lat="42.3787180" lon="-3.5237560">
        <ele>985.8</ele>
        <time>2022-08-29T12:19:30Z</time>
      </trkpt>
      <trkpt lat="42.3787170" lon="-3.5237760">
        <ele>986.0</ele>
        <time>2022-08-29T12:19:31Z</time>
      </trkpt>
      <trkpt lat="42.3787180" lon="-3.5237940">
        <ele>986.0</ele>
        <time>2022-08-29T12:19:32Z</time>
      </trkpt>
      <trkpt lat="42.3787210" lon="-3.5238120">
        <ele>986.0</ele>
        <time>2022-08-29T12:19:33Z</time>
      </trkpt>
      <trkpt lat="42.3787250" lon="-3.5238290">
        <ele>986.2</ele>
        <time>2022-08-29T12:19:34Z</time>
      </trkpt>
      <trkpt lat="42.3787310" lon="-3.5238460">
        <ele>986.6</ele>
        <time>2022-08-29T12:19:35Z</time>
      </trkpt>
      <trkpt lat="42.3787380" lon="-3.5238620">
        <ele>986.8</ele>
        <time>2022-08-29T12:19:36Z</time>
      </trkpt>
      <trkpt lat="42.3787460" lon="-3.5238760">
        <ele>986.8</ele>
        <time>2022-08-29T12:19:37Z</time>
      </trkpt>
      <trkpt lat="42.3787550" lon="-3.5238890">
        <ele>987.0</ele>
        <time>2022-08-29T12:19:38Z</time>
      </trkpt>
      <trkpt lat="42.3787650" lon="-3.5239010">
        <ele>987.0</ele>
        <time>2022-08-29T12:19:39Z</time>
      </trkpt>
      <trkpt lat="42.3787740" lon="-3.5239140">
        <ele>987.4</ele>
        <time>2022-08-29T12:19:40Z</time>
      </trkpt>
      <trkpt lat="42.3787820" lon="-3.5239260">
        <ele>987.6</ele>
        <time>2022-08-29T12:19:41Z</time>
      </trkpt>
      <trkpt lat="42.3787900" lon="-3.5239390">
        <ele>987.8</ele>
        <time>2022-08-29T12:19:42Z</time>
      </trkpt>
      <trkpt lat="42.3787970" lon="-3.5239520">
        <ele>988.0</ele>
        <time>2022-08-29T12:19:43Z</time>
      </trkpt>
      <trkpt lat="42.3788050" lon="-3.5239670">
        <ele>988.4</ele>
        <time>2022-08-29T12:19:44Z</time>
      </trkpt>
      <trkpt lat="42.3788130" lon="-3.5239800">
        <ele>988.6</ele>
        <time>2022-08-29T12:19:45Z</time>
      </trkpt>
      <trkpt lat="42.3788210" lon="-3.5239930">
        <ele>988.8</ele>
        <time>2022-08-29T12:19:46Z</time>
      </trkpt>
      <trkpt lat="42.3788280" lon="-3.5240080">
        <ele>988.8</ele>
        <time>2022-08-29T12:19:47Z</time>
      </trkpt>
      <trkpt lat="42.3788360" lon="-3.5240230">
        <ele>989.2</ele>
        <time>2022-08-29T12:19:48Z</time>
      </trkpt>
      <trkpt lat="42.3788420" lon="-3.5240360">
        <ele>989.4</ele>
        <time>2022-08-29T12:19:49Z</time>
      </trkpt>
      <trkpt lat="42.3788450" lon="-3.5240510">
        <ele>989.6</ele>
        <time>2022-08-29T12:19:50Z</time>
      </trkpt>
      <trkpt lat="42.3788470" lon="-3.5240670">
        <ele>990.0</ele>
        <time>2022-08-29T12:19:51Z</time>
      </trkpt>
      <trkpt lat="42.3788480" lon="-3.5240860">
        <ele>990.0</ele>
        <time>2022-08-29T12:19:52Z</time>
      </trkpt>
      <trkpt lat="42.3788490" lon="-3.5241040">
        <ele>990.4</ele>
        <time>2022-08-29T12:19:53Z</time>
      </trkpt>
      <trkpt lat="42.3788510" lon="-3.5241220">
        <ele>990.6</ele>
        <time>2022-08-29T12:19:54Z</time>
      </trkpt>
      <trkpt lat="42.3788520" lon="-3.5241410">
        <ele>990.6</ele>
        <time>2022-08-29T12:19:55Z</time>
      </trkpt>
      <trkpt lat="42.3788510" lon="-3.5241590">
        <ele>990.8</ele>
        <time>2022-08-29T12:19:56Z</time>
      </trkpt>
      <trkpt lat="42.3788530" lon="-3.5241770">
        <ele>990.8</ele>
        <time>2022-08-29T12:19:57Z</time>
      </trkpt>
      <trkpt lat="42.3788580" lon="-3.5241920">
        <ele>990.8</ele>
        <time>2022-08-29T12:19:58Z</time>
      </trkpt>
      <trkpt lat="42.3788610" lon="-3.5242070">
        <ele>991.0</ele>
        <time>2022-08-29T12:19:59Z</time>
      </trkpt>
      <trkpt lat="42.3788640" lon="-3.5242210">
        <ele>991.2</ele>
        <time>2022-08-29T12:20:00Z</time>
      </trkpt>
      <trkpt lat="42.3788670" lon="-3.5242360">
        <ele>991.2</ele>
        <time>2022-08-29T12:20:01Z</time>
      </trkpt>
      <trkpt lat="42.3788680" lon="-3.5242530">
        <ele>991.4</ele>
        <time>2022-08-29T12:20:02Z</time>
      </trkpt>
      <trkpt lat="42.3788680" lon="-3.5242700">
        <ele>991.4</ele>
        <time>2022-08-29T12:20:03Z</time>
      </trkpt>
      <trkpt lat="42.3788670" lon="-3.5242870">
        <ele>991.4</ele>
        <time>2022-08-29T12:20:04Z</time>
      </trkpt>
      <trkpt lat="42.3788680" lon="-3.5243050">
        <ele>991.6</ele>
        <time>2022-08-29T12:20:05Z</time>
      </trkpt>
      <trkpt lat="42.3788710" lon="-3.5243260">
        <ele>991.6</ele>
        <time>2022-08-29T12:20:06Z</time>
      </trkpt>
      <trkpt lat="42.3788750" lon="-3.5243480">
        <ele>991.8</ele>
        <time>2022-08-29T12:20:07Z</time>
      </trkpt>
      <trkpt lat="42.3788790" lon="-3.5243700">
        <ele>992.0</ele>
        <time>2022-08-29T12:20:08Z</time>
      </trkpt>
      <trkpt lat="42.3788830" lon="-3.5243920">
        <ele>992.4</ele>
        <time>2022-08-29T12:20:09Z</time>
      </trkpt>
      <trkpt lat="42.3788850" lon="-3.5244140">
        <ele>992.6</ele>
        <time>2022-08-29T12:20:10Z</time>
      </trkpt>
      <trkpt lat="42.3788850" lon="-3.5244370">
        <ele>992.6</ele>
        <time>2022-08-29T12:20:11Z</time>
      </trkpt>
      <trkpt lat="42.3788840" lon="-3.5244600">
        <ele>992.8</ele>
        <time>2022-08-29T12:20:12Z</time>
      </trkpt>
      <trkpt lat="42.3788860" lon="-3.5244820">
        <ele>993.0</ele>
        <time>2022-08-29T12:20:13Z</time>
      </trkpt>
      <trkpt lat="42.3788890" lon="-3.5245040">
        <ele>993.2</ele>
        <time>2022-08-29T12:20:14Z</time>
      </trkpt>
      <trkpt lat="42.3788920" lon="-3.5245230">
        <ele>993.4</ele>
        <time>2022-08-29T12:20:15Z</time>
      </trkpt>
      <trkpt lat="42.3788960" lon="-3.5245420">
        <ele>993.6</ele>
        <time>2022-08-29T12:20:16Z</time>
      </trkpt>
      <trkpt lat="42.3789000" lon="-3.5245620">
        <ele>993.6</ele>
        <time>2022-08-29T12:20:17Z</time>
      </trkpt>
      <trkpt lat="42.3789050" lon="-3.5245830">
        <ele>993.6</ele>
        <time>2022-08-29T12:20:18Z</time>
      </trkpt>
      <trkpt lat="42.3789120" lon="-3.5246070">
        <ele>993.8</ele>
        <time>2022-08-29T12:20:19Z</time>
      </trkpt>
      <trkpt lat="42.3789190" lon="-3.5246310">
        <ele>994.0</ele>
        <time>2022-08-29T12:20:20Z</time>
      </trkpt>
      <trkpt lat="42.3789250" lon="-3.5246530">
        <ele>994.2</ele>
        <time>2022-08-29T12:20:21Z</time>
      </trkpt>
      <trkpt lat="42.3789330" lon="-3.5246750">
        <ele>994.4</ele>
        <time>2022-08-29T12:20:22Z</time>
      </trkpt>
      <trkpt lat="42.3789410" lon="-3.5246970">
        <ele>994.4</ele>
        <time>2022-08-29T12:20:23Z</time>
      </trkpt>
      <trkpt lat="42.3789490" lon="-3.5247190">
        <ele>994.6</ele>
        <time>2022-08-29T12:20:24Z</time>
      </trkpt>
      <trkpt lat="42.3789550" lon="-3.5247430">
        <ele>995.0</ele>
        <time>2022-08-29T12:20:25Z</time>
      </trkpt>
      <trkpt lat="42.3789600" lon="-3.5247680">
        <ele>995.0</ele>
        <time>2022-08-29T12:20:26Z</time>
      </trkpt>
      <trkpt lat="42.3789620" lon="-3.5247920">
        <ele>995.0</ele>
        <time>2022-08-29T12:20:27Z</time>
      </trkpt>
      <trkpt lat="42.3789640" lon="-3.5248140">
        <ele>995.0</ele>
        <time>2022-08-29T12:20:28Z</time>
      </trkpt>
      <trkpt lat="42.3789690" lon="-3.5248340">
        <ele>995.2</ele>
        <time>2022-08-29T12:20:29Z</time>
      </trkpt>
      <trkpt lat="42.3789760" lon="-3.5248530">
        <ele>995.2</ele>
        <time>2022-08-29T12:20:30Z</time>
      </trkpt>
      <trkpt lat="42.3789840" lon="-3.5248720">
        <ele>995.4</ele>
        <time>2022-08-29T12:20:31Z</time>
      </trkpt>
      <trkpt lat="42.3789920" lon="-3.5248930">
        <ele>995.6</ele>
        <time>2022-08-29T12:20:32Z</time>
      </trkpt>
      <trkpt lat="42.3790010" lon="-3.5249100">
        <ele>995.6</ele>
        <time>2022-08-29T12:20:33Z</time>
      </trkpt>
      <trkpt lat="42.3790090" lon="-3.5249250">
        <ele>995.6</ele>
        <time>2022-08-29T12:20:34Z</time>
      </trkpt>
      <trkpt lat="42.3790140" lon="-3.5249400">
        <ele>995.6</ele>
        <time>2022-08-29T12:20:35Z</time>
      </trkpt>
      <trkpt lat="42.3790210" lon="-3.5249600">
        <ele>995.8</ele>
        <time>2022-08-29T12:20:36Z</time>
      </trkpt>
      <trkpt lat="42.3790280" lon="-3.5249800">
        <ele>995.8</ele>
        <time>2022-08-29T12:20:37Z</time>
      </trkpt>
      <trkpt lat="42.3790360" lon="-3.5250010">
        <ele>996.0</ele>
        <time>2022-08-29T12:20:38Z</time>
      </trkpt>
      <trkpt lat="42.3790450" lon="-3.5250210">
        <ele>996.0</ele>
        <time>2022-08-29T12:20:39Z</time>
      </trkpt>
      <trkpt lat="42.3790550" lon="-3.5250400">
        <ele>996.0</ele>
        <time>2022-08-29T12:20:40Z</time>
      </trkpt>
      <trkpt lat="42.3790650" lon="-3.5250590">
        <ele>996.2</ele>
        <time>2022-08-29T12:20:41Z</time>
      </trkpt>
      <trkpt lat="42.3790750" lon="-3.5250800">
        <ele>996.2</ele>
        <time>2022-08-29T12:20:42Z</time>
      </trkpt>
      <trkpt lat="42.3790840" lon="-3.5251020">
        <ele>996.4</ele>
        <time>2022-08-29T12:20:43Z</time>
      </trkpt>
      <trkpt lat="42.3790900" lon="-3.5251250">
        <ele>996.4</ele>
        <time>2022-08-29T12:20:44Z</time>
      </trkpt>
      <trkpt lat="42.3790950" lon="-3.5251480">
        <ele>996.8</ele>
        <time>2022-08-29T12:20:45Z</time>
      </trkpt>
      <trkpt lat="42.3790970" lon="-3.5251680">
        <ele>996.8</ele>
        <time>2022-08-29T12:20:46Z</time>
      </trkpt>
      <trkpt lat="42.3790950" lon="-3.5251900">
        <ele>996.8</ele>
        <time>2022-08-29T12:20:47Z</time>
      </trkpt>
      <trkpt lat="42.3790910" lon="-3.5252120">
        <ele>996.8</ele>
        <time>2022-08-29T12:20:48Z</time>
      </trkpt>
      <trkpt lat="42.3790900" lon="-3.5252350">
        <ele>996.8</ele>
        <time>2022-08-29T12:20:49Z</time>
      </trkpt>
      <trkpt lat="42.3790900" lon="-3.5252560">
        <ele>996.8</ele>
        <time>2022-08-29T12:20:50Z</time>
      </trkpt>
      <trkpt lat="42.3790930" lon="-3.5252750">
        <ele>996.8</ele>
        <time>2022-08-29T12:20:51Z</time>
      </trkpt>
      <trkpt lat="42.3791020" lon="-3.5252940">
        <ele>997.0</ele>
        <time>2022-08-29T12:20:52Z</time>
      </trkpt>
      <trkpt lat="42.3791160" lon="-3.5253110">
        <ele>997.0</ele>
        <time>2022-08-29T12:20:53Z</time>
      </trkpt>
      <trkpt lat="42.3791280" lon="-3.5253260">
        <ele>997.0</ele>
        <time>2022-08-29T12:20:54Z</time>
      </trkpt>
      <trkpt lat="42.3791370" lon="-3.5253400">
        <ele>997.0</ele>
        <time>2022-08-29T12:20:55Z</time>
      </trkpt>
      <trkpt lat="42.3791470" lon="-3.5253530">
        <ele>997.2</ele>
        <time>2022-08-29T12:20:56Z</time>
      </trkpt>
      <trkpt lat="42.3791580" lon="-3.5253650">
        <ele>997.0</ele>
        <time>2022-08-29T12:20:57Z</time>
      </trkpt>
      <trkpt lat="42.3791690" lon="-3.5253800">
        <ele>997.0</ele>
        <time>2022-08-29T12:20:58Z</time>
      </trkpt>
      <trkpt lat="42.3791760" lon="-3.5253990">
        <ele>997.2</ele>
        <time>2022-08-29T12:20:59Z</time>
      </trkpt>
      <trkpt lat="42.3791800" lon="-3.5254190">
        <ele>997.2</ele>
        <time>2022-08-29T12:21:00Z</time>
      </trkpt>
      <trkpt lat="42.3791840" lon="-3.5254410">
        <ele>997.4</ele>
        <time>2022-08-29T12:21:01Z</time>
      </trkpt>
      <trkpt lat="42.3791880" lon="-3.5254620">
        <ele>997.4</ele>
        <time>2022-08-29T12:21:02Z</time>
      </trkpt>
      <trkpt lat="42.3791920" lon="-3.5254850">
        <ele>997.6</ele>
        <time>2022-08-29T12:21:03Z</time>
      </trkpt>
      <trkpt lat="42.3791950" lon="-3.5255080">
        <ele>997.8</ele>
        <time>2022-08-29T12:21:04Z</time>
      </trkpt>
      <trkpt lat="42.3792000" lon="-3.5255310">
        <ele>997.8</ele>
        <time>2022-08-29T12:21:05Z</time>
      </trkpt>
      <trkpt lat="42.3792060" lon="-3.5255510">
        <ele>997.8</ele>
        <time>2022-08-29T12:21:06Z</time>
      </trkpt>
      <trkpt lat="42.3792120" lon="-3.5255720">
        <ele>997.8</ele>
        <time>2022-08-29T12:21:07Z</time>
      </trkpt>
      <trkpt lat="42.3792180" lon="-3.5255920">
        <ele>998.0</ele>
        <time>2022-08-29T12:21:08Z</time>
      </trkpt>
      <trkpt lat="42.3792260" lon="-3.5256120">
        <ele>997.8</ele>
        <time>2022-08-29T12:21:09Z</time>
      </trkpt>
      <trkpt lat="42.3792330" lon="-3.5256320">
        <ele>997.8</ele>
        <time>2022-08-29T12:21:10Z</time>
      </trkpt>
      <trkpt lat="42.3792380" lon="-3.5256510">
        <ele>998.0</ele>
        <time>2022-08-29T12:21:11Z</time>
      </trkpt>
      <trkpt lat="42.3792440" lon="-3.5256680">
        <ele>998.2</ele>
        <time>2022-08-29T12:21:12Z</time>
      </trkpt>
      <trkpt lat="42.3792510" lon="-3.5256840">
        <ele>998.2</ele>
        <time>2022-08-29T12:21:13Z</time>
      </trkpt>
      <trkpt lat="42.3792550" lon="-3.5257020">
        <ele>998.2</ele>
        <time>2022-08-29T12:21:14Z</time>
      </trkpt>
      <trkpt lat="42.3792570" lon="-3.5257230">
        <ele>998.4</ele>
        <time>2022-08-29T12:21:15Z</time>
      </trkpt>
      <trkpt lat="42.3792600" lon="-3.5257440">
        <ele>998.2</ele>
        <time>2022-08-29T12:21:16Z</time>
      </trkpt>
      <trkpt lat="42.3792620" lon="-3.5257650">
        <ele>998.4</ele>
        <time>2022-08-29T12:21:17Z</time>
      </trkpt>
      <trkpt lat="42.3792640" lon="-3.5257840">
        <ele>998.4</ele>
        <time>2022-08-29T12:21:18Z</time>
      </trkpt>
      <trkpt lat="42.3792660" lon="-3.5258050">
        <ele>998.6</ele>
        <time>2022-08-29T12:21:19Z</time>
      </trkpt>
      <trkpt lat="42.3792680" lon="-3.5258250">
        <ele>998.8</ele>
        <time>2022-08-29T12:21:20Z</time>
      </trkpt>
      <trkpt lat="42.3792730" lon="-3.5258450">
        <ele>998.6</ele>
        <time>2022-08-29T12:21:21Z</time>
      </trkpt>
      <trkpt lat="42.3792790" lon="-3.5258640">
        <ele>998.8</ele>
        <time>2022-08-29T12:21:22Z</time>
      </trkpt>
      <trkpt lat="42.3792860" lon="-3.5258850">
        <ele>999.0</ele>
        <time>2022-08-29T12:21:23Z</time>
      </trkpt>
      <trkpt lat="42.3792950" lon="-3.5259100">
        <ele>999.0</ele>
        <time>2022-08-29T12:21:24Z</time>
      </trkpt>
      <trkpt lat="42.3793040" lon="-3.5259360">
        <ele>999.0</ele>
        <time>2022-08-29T12:21:25Z</time>
      </trkpt>
      <trkpt lat="42.3793100" lon="-3.5259620">
        <ele>999.2</ele>
        <time>2022-08-29T12:21:26Z</time>
      </trkpt>
      <trkpt lat="42.3793160" lon="-3.5259840">
        <ele>999.2</ele>
        <time>2022-08-29T12:21:27Z</time>
      </trkpt>
      <trkpt lat="42.3793220" lon="-3.5260080">
        <ele>999.4</ele>
        <time>2022-08-29T12:21:28Z</time>
      </trkpt>
      <trkpt lat="42.3793310" lon="-3.5260360">
        <ele>999.6</ele>
        <time>2022-08-29T12:21:29Z</time>
      </trkpt>
      <trkpt lat="42.3793420" lon="-3.5260600">
        <ele>999.6</ele>
        <time>2022-08-29T12:21:30Z</time>
      </trkpt>
      <trkpt lat="42.3793530" lon="-3.5260820">
        <ele>999.8</ele>
        <time>2022-08-29T12:21:31Z</time>
      </trkpt>
      <trkpt lat="42.3793620" lon="-3.5261030">
        <ele>1000.0</ele>
        <time>2022-08-29T12:21:32Z</time>
      </trkpt>
      <trkpt lat="42.3793690" lon="-3.5261250">
        <ele>1000.2</ele>
        <time>2022-08-29T12:21:33Z</time>
      </trkpt>
      <trkpt lat="42.3793740" lon="-3.5261500">
        <ele>1000.2</ele>
        <time>2022-08-29T12:21:34Z</time>
      </trkpt>
      <trkpt lat="42.3793780" lon="-3.5261740">
        <ele>1000.4</ele>
        <time>2022-08-29T12:21:35Z</time>
      </trkpt>
      <trkpt lat="42.3793810" lon="-3.5261970">
        <ele>1000.4</ele>
        <time>2022-08-29T12:21:36Z</time>
      </trkpt>
      <trkpt lat="42.3793850" lon="-3.5262170">
        <ele>1000.6</ele>
        <time>2022-08-29T12:21:37Z</time>
      </trkpt>
      <trkpt lat="42.3793880" lon="-3.5262390">
        <ele>1000.6</ele>
        <time>2022-08-29T12:21:38Z</time>
      </trkpt>
      <trkpt lat="42.3793910" lon="-3.5262610">
        <ele>1000.8</ele>
        <time>2022-08-29T12:21:39Z</time>
      </trkpt>
      <trkpt lat="42.3793920" lon="-3.5262820">
        <ele>1000.8</ele>
        <time>2022-08-29T12:21:40Z</time>
      </trkpt>
      <trkpt lat="42.3793930" lon="-3.5263040">
        <ele>1000.8</ele>
        <time>2022-08-29T12:21:41Z</time>
      </trkpt>
      <trkpt lat="42.3793970" lon="-3.5263250">
        <ele>1001.0</ele>
        <time>2022-08-29T12:21:42Z</time>
      </trkpt>
      <trkpt lat="42.3794010" lon="-3.5263440">
        <ele>1001.2</ele>
        <time>2022-08-29T12:21:43Z</time>
      </trkpt>
      <trkpt lat="42.3794020" lon="-3.5263620">
        <ele>1001.0</ele>
        <time>2022-08-29T12:21:44Z</time>
      </trkpt>
      <trkpt lat="42.3794000" lon="-3.5263780">
        <ele>1001.0</ele>
        <time>2022-08-29T12:21:45Z</time>
      </trkpt>
      <trkpt lat="42.3793940" lon="-3.5263910">
        <ele>1001.4</ele>
        <time>2022-08-29T12:21:46Z</time>
      </trkpt>
      <trkpt lat="42.3793870" lon="-3.5264050">
        <ele>1001.6</ele>
        <time>2022-08-29T12:21:47Z</time>
      </trkpt>
      <trkpt lat="42.3793800" lon="-3.5264210">
        <ele>1001.6</ele>
        <time>2022-08-29T12:21:48Z</time>
      </trkpt>
      <trkpt lat="42.3793730" lon="-3.5264380">
        <ele>1001.8</ele>
        <time>2022-08-29T12:21:49Z</time>
      </trkpt>
      <trkpt lat="42.3793690" lon="-3.5264550">
        <ele>1002.0</ele>
        <time>2022-08-29T12:21:50Z</time>
      </trkpt>
      <trkpt lat="42.3793670" lon="-3.5264720">
        <ele>1002.2</ele>
        <time>2022-08-29T12:21:51Z</time>
      </trkpt>
      <trkpt lat="42.3793630" lon="-3.5264900">
        <ele>1002.4</ele>
        <time>2022-08-29T12:21:52Z</time>
      </trkpt>
      <trkpt lat="42.3793610" lon="-3.5265080">
        <ele>1002.4</ele>
        <time>2022-08-29T12:21:53Z</time>
      </trkpt>
      <trkpt lat="42.3793590" lon="-3.5265260">
        <ele>1002.4</ele>
        <time>2022-08-29T12:21:54Z</time>
      </trkpt>
      <trkpt lat="42.3793580" lon="-3.5265410">
        <ele>1002.6</ele>
        <time>2022-08-29T12:21:55Z</time>
      </trkpt>
      <trkpt lat="42.3793580" lon="-3.5265580">
        <ele>1002.6</ele>
        <time>2022-08-29T12:21:56Z</time>
      </trkpt>
      <trkpt lat="42.3793540" lon="-3.5265780">
        <ele>1002.6</ele>
        <time>2022-08-29T12:21:57Z</time>
      </trkpt>
      <trkpt lat="42.3793480" lon="-3.5265940">
        <ele>1002.8</ele>
        <time>2022-08-29T12:21:58Z</time>
      </trkpt>
      <trkpt lat="42.3793410" lon="-3.5266100">
        <ele>1003.2</ele>
        <time>2022-08-29T12:21:59Z</time>
      </trkpt>
      <trkpt lat="42.3793360" lon="-3.5266260">
        <ele>1003.4</ele>
        <time>2022-08-29T12:22:00Z</time>
      </trkpt>
      <trkpt lat="42.3793350" lon="-3.5266430">
        <ele>1003.8</ele>
        <time>2022-08-29T12:22:01Z</time>
      </trkpt>
      <trkpt lat="42.3793390" lon="-3.5266570">
        <ele>1003.8</ele>
        <time>2022-08-29T12:22:02Z</time>
      </trkpt>
      <trkpt lat="42.3793430" lon="-3.5266680">
        <ele>1003.8</ele>
        <time>2022-08-29T12:22:03Z</time>
      </trkpt>
      <trkpt lat="42.3793480" lon="-3.5266810">
        <ele>1003.8</ele>
        <time>2022-08-29T12:22:04Z</time>
      </trkpt>
      <trkpt lat="42.3793530" lon="-3.5266990">
        <ele>1004.0</ele>
        <time>2022-08-29T12:22:05Z</time>
      </trkpt>
      <trkpt lat="42.3793580" lon="-3.5267260">
        <ele>1004.2</ele>
        <time>2022-08-29T12:22:06Z</time>
      </trkpt>
      <trkpt lat="42.3793610" lon="-3.5267580">
        <ele>1004.0</ele>
        <time>2022-08-29T12:22:07Z</time>
      </trkpt>
      <trkpt lat="42.3793640" lon="-3.5267880">
        <ele>1004.2</ele>
        <time>2022-08-29T12:22:08Z</time>
      </trkpt>
      <trkpt lat="42.3793640" lon="-3.5268170">
        <ele>1004.0</ele>
        <time>2022-08-29T12:22:09Z</time>
      </trkpt>
      <trkpt lat="42.3793610" lon="-3.5268450">
        <ele>1004.2</ele>
        <time>2022-08-29T12:22:10Z</time>
      </trkpt>
      <trkpt lat="42.3793560" lon="-3.5268710">
        <ele>1004.2</ele>
        <time>2022-08-29T12:22:11Z</time>
      </trkpt>
      <trkpt lat="42.3793480" lon="-3.5268940">
        <ele>1004.0</ele>
        <time>2022-08-29T12:22:12Z</time>
      </trkpt>
      <trkpt lat="42.3793410" lon="-3.5269180">
        <ele>1004.2</ele>
        <time>2022-08-29T12:22:13Z</time>
      </trkpt>
      <trkpt lat="42.3793310" lon="-3.5269420">
        <ele>1004.2</ele>
        <time>2022-08-29T12:22:14Z</time>
      </trkpt>
      <trkpt lat="42.3793220" lon="-3.5269640">
        <ele>1004.2</ele>
        <time>2022-08-29T12:22:15Z</time>
      </trkpt>
      <trkpt lat="42.3793110" lon="-3.5269870">
        <ele>1004.2</ele>
        <time>2022-08-29T12:22:16Z</time>
      </trkpt>
      <trkpt lat="42.3792990" lon="-3.5270110">
        <ele>1004.4</ele>
        <time>2022-08-29T12:22:17Z</time>
      </trkpt>
      <trkpt lat="42.3792880" lon="-3.5270370">
        <ele>1004.4</ele>
        <time>2022-08-29T12:22:18Z</time>
      </trkpt>
      <trkpt lat="42.3792780" lon="-3.5270620">
        <ele>1004.4</ele>
        <time>2022-08-29T12:22:19Z</time>
      </trkpt>
      <trkpt lat="42.3792690" lon="-3.5270870">
        <ele>1004.4</ele>
        <time>2022-08-29T12:22:20Z</time>
      </trkpt>
      <trkpt lat="42.3792620" lon="-3.5271090">
        <ele>1004.4</ele>
        <time>2022-08-29T12:22:21Z</time>
      </trkpt>
      <trkpt lat="42.3792620" lon="-3.5271250">
        <ele>1004.2</ele>
        <time>2022-08-29T12:22:22Z</time>
      </trkpt>
      <trkpt lat="42.3792590" lon="-3.5271390">
        <ele>1004.2</ele>
        <time>2022-08-29T12:22:23Z</time>
      </trkpt>
      <trkpt lat="42.3792520" lon="-3.5271540">
        <ele>1004.4</ele>
        <time>2022-08-29T12:22:24Z</time>
      </trkpt>
      <trkpt lat="42.3792460" lon="-3.5271750">
        <ele>1004.4</ele>
        <time>2022-08-29T12:22:25Z</time>
      </trkpt>
      <trkpt lat="42.3792400" lon="-3.5272010">
        <ele>1004.4</ele>
        <time>2022-08-29T12:22:26Z</time>
      </trkpt>
      <trkpt lat="42.3792370" lon="-3.5272310">
        <ele>1004.4</ele>
        <time>2022-08-29T12:22:27Z</time>
      </trkpt>
      <trkpt lat="42.3792360" lon="-3.5272650">
        <ele>1004.6</ele>
        <time>2022-08-29T12:22:28Z</time>
      </trkpt>
      <trkpt lat="42.3792390" lon="-3.5272990">
        <ele>1004.8</ele>
        <time>2022-08-29T12:22:29Z</time>
      </trkpt>
      <trkpt lat="42.3792420" lon="-3.5273290">
        <ele>1004.8</ele>
        <time>2022-08-29T12:22:30Z</time>
      </trkpt>
      <trkpt lat="42.3792450" lon="-3.5273560">
        <ele>1004.8</ele>
        <time>2022-08-29T12:22:31Z</time>
      </trkpt>
      <trkpt lat="42.3792470" lon="-3.5273820">
        <ele>1005.0</ele>
        <time>2022-08-29T12:22:32Z</time>
      </trkpt>
      <trkpt lat="42.3792490" lon="-3.5274060">
        <ele>1004.8</ele>
        <time>2022-08-29T12:22:33Z</time>
      </trkpt>
      <trkpt lat="42.3792520" lon="-3.5274270">
        <ele>1005.0</ele>
        <time>2022-08-29T12:22:34Z</time>
      </trkpt>
      <trkpt lat="42.3792600" lon="-3.5274440">
        <ele>1005.0</ele>
        <time>2022-08-29T12:22:35Z</time>
      </trkpt>
      <trkpt lat="42.3792720" lon="-3.5274590">
        <ele>1005.2</ele>
        <time>2022-08-29T12:22:36Z</time>
      </trkpt>
      <trkpt lat="42.3792870" lon="-3.5274750">
        <ele>1005.4</ele>
        <time>2022-08-29T12:22:37Z</time>
      </trkpt>
      <trkpt lat="42.3793030" lon="-3.5274860">
        <ele>1005.4</ele>
        <time>2022-08-29T12:22:38Z</time>
      </trkpt>
      <trkpt lat="42.3793230" lon="-3.5274950">
        <ele>1005.6</ele>
        <time>2022-08-29T12:22:39Z</time>
      </trkpt>
      <trkpt lat="42.3793410" lon="-3.5274990">
        <ele>1005.6</ele>
        <time>2022-08-29T12:22:40Z</time>
      </trkpt>
      <trkpt lat="42.3793580" lon="-3.5275050">
        <ele>1005.8</ele>
        <time>2022-08-29T12:22:41Z</time>
      </trkpt>
      <trkpt lat="42.3793730" lon="-3.5275150">
        <ele>1006.2</ele>
        <time>2022-08-29T12:22:42Z</time>
      </trkpt>
      <trkpt lat="42.3793880" lon="-3.5275270">
        <ele>1006.0</ele>
        <time>2022-08-29T12:22:43Z</time>
      </trkpt>
      <trkpt lat="42.3794010" lon="-3.5275400">
        <ele>1006.6</ele>
        <time>2022-08-29T12:22:44Z</time>
      </trkpt>
      <trkpt lat="42.3794140" lon="-3.5275560">
        <ele>1006.8</ele>
        <time>2022-08-29T12:22:45Z</time>
      </trkpt>
      <trkpt lat="42.3794240" lon="-3.5275730">
        <ele>1007.0</ele>
        <time>2022-08-29T12:22:46Z</time>
      </trkpt>
      <trkpt lat="42.3794340" lon="-3.5275920">
        <ele>1007.2</ele>
        <time>2022-08-29T12:22:47Z</time>
      </trkpt>
      <trkpt lat="42.3794430" lon="-3.5276120">
        <ele>1007.6</ele>
        <time>2022-08-29T12:22:48Z</time>
      </trkpt>
      <trkpt lat="42.3794510" lon="-3.5276310">
        <ele>1007.6</ele>
        <time>2022-08-29T12:22:49Z</time>
      </trkpt>
      <trkpt lat="42.3794600" lon="-3.5276500">
        <ele>1007.8</ele>
        <time>2022-08-29T12:22:50Z</time>
      </trkpt>
      <trkpt lat="42.3794680" lon="-3.5276710">
        <ele>1008.0</ele>
        <time>2022-08-29T12:22:51Z</time>
      </trkpt>
      <trkpt lat="42.3794740" lon="-3.5276930">
        <ele>1008.2</ele>
        <time>2022-08-29T12:22:52Z</time>
      </trkpt>
      <trkpt lat="42.3794810" lon="-3.5277160">
        <ele>1008.6</ele>
        <time>2022-08-29T12:22:53Z</time>
      </trkpt>
      <trkpt lat="42.3794890" lon="-3.5277400">
        <ele>1009.0</ele>
        <time>2022-08-29T12:22:54Z</time>
      </trkpt>
      <trkpt lat="42.3794930" lon="-3.5277630">
        <ele>1009.2</ele>
        <time>2022-08-29T12:22:55Z</time>
      </trkpt>
      <trkpt lat="42.3794940" lon="-3.5277860">
        <ele>1009.2</ele>
        <time>2022-08-29T12:22:56Z</time>
      </trkpt>
      <trkpt lat="42.3794950" lon="-3.5278090">
        <ele>1009.4</ele>
        <time>2022-08-29T12:22:57Z</time>
      </trkpt>
      <trkpt lat="42.3794980" lon="-3.5278310">
        <ele>1009.6</ele>
        <time>2022-08-29T12:22:58Z</time>
      </trkpt>
      <trkpt lat="42.3795020" lon="-3.5278520">
        <ele>1010.0</ele>
        <time>2022-08-29T12:22:59Z</time>
      </trkpt>
      <trkpt lat="42.3795070" lon="-3.5278720">
        <ele>1010.2</ele>
        <time>2022-08-29T12:23:00Z</time>
      </trkpt>
      <trkpt lat="42.3795150" lon="-3.5278910">
        <ele>1010.4</ele>
        <time>2022-08-29T12:23:01Z</time>
      </trkpt>
      <trkpt lat="42.3795240" lon="-3.5279090">
        <ele>1010.8</ele>
        <time>2022-08-29T12:23:02Z</time>
      </trkpt>
      <trkpt lat="42.3795300" lon="-3.5279290">
        <ele>1011.0</ele>
        <time>2022-08-29T12:23:03Z</time>
      </trkpt>
      <trkpt lat="42.3795340" lon="-3.5279480">
        <ele>1011.2</ele>
        <time>2022-08-29T12:23:04Z</time>
      </trkpt>
      <trkpt lat="42.3795380" lon="-3.5279680">
        <ele>1011.4</ele>
        <time>2022-08-29T12:23:05Z</time>
      </trkpt>
      <trkpt lat="42.3795390" lon="-3.5279880">
        <ele>1011.6</ele>
        <time>2022-08-29T12:23:06Z</time>
      </trkpt>
      <trkpt lat="42.3795410" lon="-3.5280080">
        <ele>1012.0</ele>
        <time>2022-08-29T12:23:07Z</time>
      </trkpt>
      <trkpt lat="42.3795420" lon="-3.5280290">
        <ele>1012.2</ele>
        <time>2022-08-29T12:23:08Z</time>
      </trkpt>
      <trkpt lat="42.3795400" lon="-3.5280520">
        <ele>1012.4</ele>
        <time>2022-08-29T12:23:09Z</time>
      </trkpt>
      <trkpt lat="42.3795370" lon="-3.5280760">
        <ele>1012.6</ele>
        <time>2022-08-29T12:23:10Z</time>
      </trkpt>
      <trkpt lat="42.3795330" lon="-3.5280990">
        <ele>1013.0</ele>
        <time>2022-08-29T12:23:11Z</time>
      </trkpt>
      <trkpt lat="42.3795330" lon="-3.5281220">
        <ele>1013.2</ele>
        <time>2022-08-29T12:23:12Z</time>
      </trkpt>
      <trkpt lat="42.3795340" lon="-3.5281440">
        <ele>1013.4</ele>
        <time>2022-08-29T12:23:13Z</time>
      </trkpt>
      <trkpt lat="42.3795340" lon="-3.5281660">
        <ele>1013.4</ele>
        <time>2022-08-29T12:23:14Z</time>
      </trkpt>
      <trkpt lat="42.3795330" lon="-3.5281890">
        <ele>1013.6</ele>
        <time>2022-08-29T12:23:15Z</time>
      </trkpt>
      <trkpt lat="42.3795330" lon="-3.5282100">
        <ele>1013.8</ele>
        <time>2022-08-29T12:23:16Z</time>
      </trkpt>
      <trkpt lat="42.3795330" lon="-3.5282310">
        <ele>1014.0</ele>
        <time>2022-08-29T12:23:17Z</time>
      </trkpt>
      <trkpt lat="42.3795350" lon="-3.5282510">
        <ele>1014.2</ele>
        <time>2022-08-29T12:23:18Z</time>
      </trkpt>
      <trkpt lat="42.3795360" lon="-3.5282730">
        <ele>1014.2</ele>
        <time>2022-08-29T12:23:19Z</time>
      </trkpt>
      <trkpt lat="42.3795350" lon="-3.5282940">
        <ele>1014.4</ele>
        <time>2022-08-29T12:23:20Z</time>
      </trkpt>
      <trkpt lat="42.3795350" lon="-3.5283140">
        <ele>1014.6</ele>
        <time>2022-08-29T12:23:21Z</time>
      </trkpt>
      <trkpt lat="42.3795360" lon="-3.5283340">
        <ele>1014.6</ele>
        <time>2022-08-29T12:23:22Z</time>
      </trkpt>
      <trkpt lat="42.3795370" lon="-3.5283540">
        <ele>1014.8</ele>
        <time>2022-08-29T12:23:23Z</time>
      </trkpt>
      <trkpt lat="42.3795390" lon="-3.5283740">
        <ele>1015.0</ele>
        <time>2022-08-29T12:23:24Z</time>
      </trkpt>
      <trkpt lat="42.3795410" lon="-3.5283930">
        <ele>1015.2</ele>
        <time>2022-08-29T12:23:25Z</time>
      </trkpt>
      <trkpt lat="42.3795430" lon="-3.5284130">
        <ele>1015.4</ele>
        <time>2022-08-29T12:23:26Z</time>
      </trkpt>
      <trkpt lat="42.3795420" lon="-3.5284330">
        <ele>1015.6</ele>
        <time>2022-08-29T12:23:27Z</time>
      </trkpt>
      <trkpt lat="42.3795410" lon="-3.5284520">
        <ele>1015.8</ele>
        <time>2022-08-29T12:23:28Z</time>
      </trkpt>
      <trkpt lat="42.3795400" lon="-3.5284720">
        <ele>1015.8</ele>
        <time>2022-08-29T12:23:29Z</time>
      </trkpt>
      <trkpt lat="42.3795390" lon="-3.5284920">
        <ele>1016.2</ele>
        <time>2022-08-29T12:23:30Z</time>
      </trkpt>
      <trkpt lat="42.3795390" lon="-3.5285130">
        <ele>1016.2</ele>
        <time>2022-08-29T12:23:31Z</time>
      </trkpt>
      <trkpt lat="42.3795400" lon="-3.5285360">
        <ele>1016.6</ele>
        <time>2022-08-29T12:23:32Z</time>
      </trkpt>
      <trkpt lat="42.3795440" lon="-3.5285570">
        <ele>1016.8</ele>
        <time>2022-08-29T12:23:33Z</time>
      </trkpt>
      <trkpt lat="42.3795510" lon="-3.5285780">
        <ele>1017.0</ele>
        <time>2022-08-29T12:23:34Z</time>
      </trkpt>
      <trkpt lat="42.3795600" lon="-3.5285960">
        <ele>1017.2</ele>
        <time>2022-08-29T12:23:35Z</time>
      </trkpt>
      <trkpt lat="42.3795660" lon="-3.5286130">
        <ele>1017.4</ele>
        <time>2022-08-29T12:23:36Z</time>
      </trkpt>
      <trkpt lat="42.3795730" lon="-3.5286320">
        <ele>1017.6</ele>
        <time>2022-08-29T12:23:37Z</time>
      </trkpt>
      <trkpt lat="42.3795780" lon="-3.5286520">
        <ele>1017.6</ele>
        <time>2022-08-29T12:23:38Z</time>
      </trkpt>
      <trkpt lat="42.3795830" lon="-3.5286700">
        <ele>1017.6</ele>
        <time>2022-08-29T12:23:39Z</time>
      </trkpt>
      <trkpt lat="42.3795930" lon="-3.5286850">
        <ele>1017.8</ele>
        <time>2022-08-29T12:23:40Z</time>
      </trkpt>
      <trkpt lat="42.3796050" lon="-3.5286990">
        <ele>1018.0</ele>
        <time>2022-08-29T12:23:41Z</time>
      </trkpt>
      <trkpt lat="42.3796180" lon="-3.5287090">
        <ele>1018.2</ele>
        <time>2022-08-29T12:23:42Z</time>
      </trkpt>
      <trkpt lat="42.3796310" lon="-3.5287190">
        <ele>1018.6</ele>
        <time>2022-08-29T12:23:43Z</time>
      </trkpt>
      <trkpt lat="42.3796420" lon="-3.5287300">
        <ele>1018.8</ele>
        <time>2022-08-29T12:23:44Z</time>
      </trkpt>
      <trkpt lat="42.3796530" lon="-3.5287410">
        <ele>1019.2</ele>
        <time>2022-08-29T12:23:45Z</time>
      </trkpt>
      <trkpt lat="42.3796640" lon="-3.5287560">
        <ele>1019.4</ele>
        <time>2022-08-29T12:23:46Z</time>
      </trkpt>
      <trkpt lat="42.3796750" lon="-3.5287690">
        <ele>1019.6</ele>
        <time>2022-08-29T12:23:47Z</time>
      </trkpt>
      <trkpt lat="42.3796850" lon="-3.5287840">
        <ele>1019.8</ele>
        <time>2022-08-29T12:23:48Z</time>
      </trkpt>
      <trkpt lat="42.3796950" lon="-3.5287970">
        <ele>1020.2</ele>
        <time>2022-08-29T12:23:49Z</time>
      </trkpt>
      <trkpt lat="42.3797050" lon="-3.5288090">
        <ele>1020.4</ele>
        <time>2022-08-29T12:23:50Z</time>
      </trkpt>
      <trkpt lat="42.3797150" lon="-3.5288220">
        <ele>1020.4</ele>
        <time>2022-08-29T12:23:51Z</time>
      </trkpt>
      <trkpt lat="42.3797250" lon="-3.5288360">
        <ele>1020.6</ele>
        <time>2022-08-29T12:23:52Z</time>
      </trkpt>
      <trkpt lat="42.3797340" lon="-3.5288500">
        <ele>1020.8</ele>
        <time>2022-08-29T12:23:53Z</time>
      </trkpt>
      <trkpt lat="42.3797440" lon="-3.5288630">
        <ele>1020.8</ele>
        <time>2022-08-29T12:23:54Z</time>
      </trkpt>
      <trkpt lat="42.3797570" lon="-3.5288760">
        <ele>1021.0</ele>
        <time>2022-08-29T12:23:55Z</time>
      </trkpt>
      <trkpt lat="42.3797690" lon="-3.5288910">
        <ele>1021.2</ele>
        <time>2022-08-29T12:23:56Z</time>
      </trkpt>
      <trkpt lat="42.3797790" lon="-3.5289100">
        <ele>1021.2</ele>
        <time>2022-08-29T12:23:57Z</time>
      </trkpt>
      <trkpt lat="42.3797860" lon="-3.5289300">
        <ele>1021.4</ele>
        <time>2022-08-29T12:23:58Z</time>
      </trkpt>
      <trkpt lat="42.3797930" lon="-3.5289480">
        <ele>1021.4</ele>
        <time>2022-08-29T12:23:59Z</time>
      </trkpt>
      <trkpt lat="42.3798020" lon="-3.5289640">
        <ele>1021.6</ele>
        <time>2022-08-29T12:24:00Z</time>
      </trkpt>
      <trkpt lat="42.3798130" lon="-3.5289790">
        <ele>1021.6</ele>
        <time>2022-08-29T12:24:01Z</time>
      </trkpt>
      <trkpt lat="42.3798260" lon="-3.5289980">
        <ele>1021.6</ele>
        <time>2022-08-29T12:24:02Z</time>
      </trkpt>
      <trkpt lat="42.3798400" lon="-3.5290190">
        <ele>1021.6</ele>
        <time>2022-08-29T12:24:03Z</time>
      </trkpt>
      <trkpt lat="42.3798540" lon="-3.5290400">
        <ele>1021.8</ele>
        <time>2022-08-29T12:24:04Z</time>
      </trkpt>
      <trkpt lat="42.3798670" lon="-3.5290590">
        <ele>1021.8</ele>
        <time>2022-08-29T12:24:05Z</time>
      </trkpt>
      <trkpt lat="42.3798810" lon="-3.5290770">
        <ele>1022.0</ele>
        <time>2022-08-29T12:24:06Z</time>
      </trkpt>
      <trkpt lat="42.3798950" lon="-3.5290940">
        <ele>1022.0</ele>
        <time>2022-08-29T12:24:07Z</time>
      </trkpt>
      <trkpt lat="42.3799100" lon="-3.5291110">
        <ele>1022.2</ele>
        <time>2022-08-29T12:24:08Z</time>
      </trkpt>
      <trkpt lat="42.3799260" lon="-3.5291300">
        <ele>1022.2</ele>
        <time>2022-08-29T12:24:09Z</time>
      </trkpt>
      <trkpt lat="42.3799420" lon="-3.5291490">
        <ele>1022.6</ele>
        <time>2022-08-29T12:24:10Z</time>
      </trkpt>
      <trkpt lat="42.3799590" lon="-3.5291700">
        <ele>1022.4</ele>
        <time>2022-08-29T12:24:11Z</time>
      </trkpt>
      <trkpt lat="42.3799750" lon="-3.5291930">
        <ele>1022.6</ele>
        <time>2022-08-29T12:24:12Z</time>
      </trkpt>
      <trkpt lat="42.3799920" lon="-3.5292180">
        <ele>1022.6</ele>
        <time>2022-08-29T12:24:13Z</time>
      </trkpt>
      <trkpt lat="42.3800110" lon="-3.5292430">
        <ele>1022.8</ele>
        <time>2022-08-29T12:24:14Z</time>
      </trkpt>
      <trkpt lat="42.3800300" lon="-3.5292690">
        <ele>1022.8</ele>
        <time>2022-08-29T12:24:15Z</time>
      </trkpt>
      <trkpt lat="42.3800470" lon="-3.5293010">
        <ele>1023.0</ele>
        <time>2022-08-29T12:24:16Z</time>
      </trkpt>
      <trkpt lat="42.3800590" lon="-3.5293340">
        <ele>1023.0</ele>
        <time>2022-08-29T12:24:17Z</time>
      </trkpt>
      <trkpt lat="42.3800740" lon="-3.5293640">
        <ele>1023.0</ele>
        <time>2022-08-29T12:24:18Z</time>
      </trkpt>
      <trkpt lat="42.3800900" lon="-3.5293930">
        <ele>1023.0</ele>
        <time>2022-08-29T12:24:19Z</time>
      </trkpt>
      <trkpt lat="42.3801060" lon="-3.5294260">
        <ele>1023.2</ele>
        <time>2022-08-29T12:24:20Z</time>
      </trkpt>
      <trkpt lat="42.3801200" lon="-3.5294600">
        <ele>1023.2</ele>
        <time>2022-08-29T12:24:21Z</time>
      </trkpt>
      <trkpt lat="42.3801330" lon="-3.5294950">
        <ele>1023.2</ele>
        <time>2022-08-29T12:24:22Z</time>
      </trkpt>
      <trkpt lat="42.3801440" lon="-3.5295300">
        <ele>1023.2</ele>
        <time>2022-08-29T12:24:23Z</time>
      </trkpt>
      <trkpt lat="42.3801540" lon="-3.5295660">
        <ele>1023.0</ele>
        <time>2022-08-29T12:24:24Z</time>
      </trkpt>
      <trkpt lat="42.3801640" lon="-3.5296000">
        <ele>1023.2</ele>
        <time>2022-08-29T12:24:25Z</time>
      </trkpt>
      <trkpt lat="42.3801750" lon="-3.5296340">
        <ele>1023.2</ele>
        <time>2022-08-29T12:24:26Z</time>
      </trkpt>
      <trkpt lat="42.3801840" lon="-3.5296680">
        <ele>1023.2</ele>
        <time>2022-08-29T12:24:27Z</time>
      </trkpt>
      <trkpt lat="42.3801930" lon="-3.5297010">
        <ele>1023.2</ele>
        <time>2022-08-29T12:24:28Z</time>
      </trkpt>
      <trkpt lat="42.3802010" lon="-3.5297350">
        <ele>1023.4</ele>
        <time>2022-08-29T12:24:29Z</time>
      </trkpt>
      <trkpt lat="42.3802090" lon="-3.5297690">
        <ele>1023.6</ele>
        <time>2022-08-29T12:24:30Z</time>
      </trkpt>
      <trkpt lat="42.3802160" lon="-3.5298030">
        <ele>1023.6</ele>
        <time>2022-08-29T12:24:31Z</time>
      </trkpt>
      <trkpt lat="42.3802240" lon="-3.5298310">
        <ele>1023.6</ele>
        <time>2022-08-29T12:24:32Z</time>
      </trkpt>
      <trkpt lat="42.3802300" lon="-3.5298550">
        <ele>1023.6</ele>
        <time>2022-08-29T12:24:33Z</time>
      </trkpt>
      <trkpt lat="42.3802330" lon="-3.5298750">
        <ele>1023.8</ele>
        <time>2022-08-29T12:24:34Z</time>
      </trkpt>
      <trkpt lat="42.3802360" lon="-3.5298950">
        <ele>1023.8</ele>
        <time>2022-08-29T12:24:35Z</time>
      </trkpt>
      <trkpt lat="42.3802380" lon="-3.5299130">
        <ele>1024.0</ele>
        <time>2022-08-29T12:24:36Z</time>
      </trkpt>
      <trkpt lat="42.3802400" lon="-3.5299330">
        <ele>1024.0</ele>
        <time>2022-08-29T12:24:37Z</time>
      </trkpt>
      <trkpt lat="42.3802440" lon="-3.5299570">
        <ele>1024.0</ele>
        <time>2022-08-29T12:24:38Z</time>
      </trkpt>
      <trkpt lat="42.3802500" lon="-3.5299880">
        <ele>1024.0</ele>
        <time>2022-08-29T12:24:39Z</time>
      </trkpt>
      <trkpt lat="42.3802540" lon="-3.5300190">
        <ele>1024.2</ele>
        <time>2022-08-29T12:24:40Z</time>
      </trkpt>
      <trkpt lat="42.3802600" lon="-3.5300470">
        <ele>1024.2</ele>
        <time>2022-08-29T12:24:41Z</time>
      </trkpt>
      <trkpt lat="42.3802650" lon="-3.5300730">
        <ele>1024.4</ele>
        <time>2022-08-29T12:24:42Z</time>
      </trkpt>
      <trkpt lat="42.3802680" lon="-3.5301000">
        <ele>1024.6</ele>
        <time>2022-08-29T12:24:43Z</time>
      </trkpt>
      <trkpt lat="42.3802720" lon="-3.5301260">
        <ele>1024.6</ele>
        <time>2022-08-29T12:24:44Z</time>
      </trkpt>
      <trkpt lat="42.3802740" lon="-3.5301470">
        <ele>1024.6</ele>
        <time>2022-08-29T12:24:45Z</time>
      </trkpt>
      <trkpt lat="42.3802750" lon="-3.5301660">
        <ele>1024.6</ele>
        <time>2022-08-29T12:24:46Z</time>
      </trkpt>
      <trkpt lat="42.3802770" lon="-3.5301810">
        <ele>1024.8</ele>
        <time>2022-08-29T12:24:47Z</time>
      </trkpt>
      <trkpt lat="42.3802820" lon="-3.5301980">
        <ele>1024.8</ele>
        <time>2022-08-29T12:24:48Z</time>
      </trkpt>
      <trkpt lat="42.3802870" lon="-3.5302220">
        <ele>1024.8</ele>
        <time>2022-08-29T12:24:49Z</time>
      </trkpt>
      <trkpt lat="42.3802900" lon="-3.5302500">
        <ele>1024.8</ele>
        <time>2022-08-29T12:24:50Z</time>
      </trkpt>
      <trkpt lat="42.3802940" lon="-3.5302820">
        <ele>1024.6</ele>
        <time>2022-08-29T12:24:51Z</time>
      </trkpt>
      <trkpt lat="42.3802980" lon="-3.5303190">
        <ele>1024.6</ele>
        <time>2022-08-29T12:24:52Z</time>
      </trkpt>
      <trkpt lat="42.3803010" lon="-3.5303580">
        <ele>1024.6</ele>
        <time>2022-08-29T12:24:53Z</time>
      </trkpt>
      <trkpt lat="42.3803040" lon="-3.5303990">
        <ele>1024.8</ele>
        <time>2022-08-29T12:24:54Z</time>
      </trkpt>
      <trkpt lat="42.3803070" lon="-3.5304410">
        <ele>1024.6</ele>
        <time>2022-08-29T12:24:55Z</time>
      </trkpt>
      <trkpt lat="42.3803090" lon="-3.5304840">
        <ele>1024.8</ele>
        <time>2022-08-29T12:24:56Z</time>
      </trkpt>
      <trkpt lat="42.3803110" lon="-3.5305260">
        <ele>1024.8</ele>
        <time>2022-08-29T12:24:57Z</time>
      </trkpt>
      <trkpt lat="42.3803100" lon="-3.5305680">
        <ele>1024.6</ele>
        <time>2022-08-29T12:24:58Z</time>
      </trkpt>
      <trkpt lat="42.3803110" lon="-3.5306090">
        <ele>1024.6</ele>
        <time>2022-08-29T12:24:59Z</time>
      </trkpt>
      <trkpt lat="42.3803130" lon="-3.5306490">
        <ele>1024.6</ele>
        <time>2022-08-29T12:25:00Z</time>
      </trkpt>
      <trkpt lat="42.3803130" lon="-3.5306840">
        <ele>1024.6</ele>
        <time>2022-08-29T12:25:01Z</time>
      </trkpt>
      <trkpt lat="42.3803130" lon="-3.5307150">
        <ele>1024.6</ele>
        <time>2022-08-29T12:25:02Z</time>
      </trkpt>
      <trkpt lat="42.3803130" lon="-3.5307390">
        <ele>1024.6</ele>
        <time>2022-08-29T12:25:03Z</time>
      </trkpt>
      <trkpt lat="42.3803140" lon="-3.5307560">
        <ele>1024.6</ele>
        <time>2022-08-29T12:25:04Z</time>
      </trkpt>
      <trkpt lat="42.3803120" lon="-3.5307630">
        <ele>1024.6</ele>
        <time>2022-08-29T12:25:05Z</time>
      </trkpt>
      <trkpt lat="42.3803120" lon="-3.5307640">
        <ele>1024.6</ele>
        <time>2022-08-29T12:25:06Z</time>
      </trkpt>
      <trkpt lat="42.3803120" lon="-3.5307650">
        <ele>1024.6</ele>
        <time>2022-08-29T12:25:07Z</time>
      </trkpt>
      <trkpt lat="42.3803120" lon="-3.5307660">
        <ele>1024.6</ele>
        <time>2022-08-29T12:25:08Z</time>
      </trkpt>
      <trkpt lat="42.3803130" lon="-3.5307700">
        <ele>1024.6</ele>
        <time>2022-08-29T12:25:09Z</time>
      </trkpt>
      <trkpt lat="42.3803130" lon="-3.5307790">
        <ele>1024.6</ele>
        <time>2022-08-29T12:25:10Z</time>
      </trkpt>
      <trkpt lat="42.3803120" lon="-3.5307910">
        <ele>1024.6</ele>
        <time>2022-08-29T12:25:11Z</time>
      </trkpt>
      <trkpt lat="42.3803110" lon="-3.5308020">
        <ele>1024.6</ele>
        <time>2022-08-29T12:25:12Z</time>
      </trkpt>
      <trkpt lat="42.3803090" lon="-3.5308140">
        <ele>1024.8</ele>
        <time>2022-08-29T12:25:13Z</time>
      </trkpt>
      <trkpt lat="42.3803080" lon="-3.5308250">
        <ele>1024.8</ele>
        <time>2022-08-29T12:25:14Z</time>
      </trkpt>
      <trkpt lat="42.3803040" lon="-3.5308360">
        <ele>1024.8</ele>
        <time>2022-08-29T12:25:15Z</time>
      </trkpt>
      <trkpt lat="42.3803020" lon="-3.5308450">
        <ele>1024.8</ele>
        <time>2022-08-29T12:25:16Z</time>
      </trkpt>
      <trkpt lat="42.3803010" lon="-3.5308560">
        <ele>1025.0</ele>
        <time>2022-08-29T12:25:17Z</time>
      </trkpt>
      <trkpt lat="42.3802980" lon="-3.5308670">
        <ele>1025.0</ele>
        <time>2022-08-29T12:25:18Z</time>
      </trkpt>
      <trkpt lat="42.3802980" lon="-3.5308790">
        <ele>1025.0</ele>
        <time>2022-08-29T12:25:19Z</time>
      </trkpt>
      <trkpt lat="42.3802960" lon="-3.5308900">
        <ele>1025.0</ele>
        <time>2022-08-29T12:25:20Z</time>
      </trkpt>
      <trkpt lat="42.3802930" lon="-3.5309010">
        <ele>1025.2</ele>
        <time>2022-08-29T12:25:21Z</time>
      </trkpt>
      <trkpt lat="42.3802910" lon="-3.5309110">
        <ele>1025.2</ele>
        <time>2022-08-29T12:25:22Z</time>
      </trkpt>
      <trkpt lat="42.3802880" lon="-3.5309220">
        <ele>1025.2</ele>
        <time>2022-08-29T12:25:23Z</time>
      </trkpt>
      <trkpt lat="42.3802850" lon="-3.5309330">
        <ele>1025.4</ele>
        <time>2022-08-29T12:25:24Z</time>
      </trkpt>
      <trkpt lat="42.3802840" lon="-3.5309440">
        <ele>1025.4</ele>
        <time>2022-08-29T12:25:25Z</time>
      </trkpt>
      <trkpt lat="42.3802810" lon="-3.5309560">
        <ele>1025.4</ele>
        <time>2022-08-29T12:25:26Z</time>
      </trkpt>
      <trkpt lat="42.3802780" lon="-3.5309670">
        <ele>1025.6</ele>
        <time>2022-08-29T12:25:27Z</time>
      </trkpt>
      <trkpt lat="42.3802760" lon="-3.5309780">
        <ele>1025.6</ele>
        <time>2022-08-29T12:25:28Z</time>
      </trkpt>
      <trkpt lat="42.3802750" lon="-3.5309880">
        <ele>1025.8</ele>
        <time>2022-08-29T12:25:29Z</time>
      </trkpt>
      <trkpt lat="42.3802740" lon="-3.5309970">
        <ele>1026.0</ele>
        <time>2022-08-29T12:25:30Z</time>
      </trkpt>
      <trkpt lat="42.3802740" lon="-3.5310010">
        <ele>1025.8</ele>
        <time>2022-08-29T12:25:31Z</time>
      </trkpt>
      <trkpt lat="42.3802730" lon="-3.5310080">
        <ele>1026.0</ele>
        <time>2022-08-29T12:25:32Z</time>
      </trkpt>
      <trkpt lat="42.3802720" lon="-3.5310170">
        <ele>1026.0</ele>
        <time>2022-08-29T12:25:33Z</time>
      </trkpt>
      <trkpt lat="42.3802700" lon="-3.5310280">
        <ele>1026.2</ele>
        <time>2022-08-29T12:25:34Z</time>
      </trkpt>
      <trkpt lat="42.3802680" lon="-3.5310430">
        <ele>1026.0</ele>
        <time>2022-08-29T12:25:35Z</time>
      </trkpt>
      <trkpt lat="42.3802670" lon="-3.5310610">
        <ele>1026.0</ele>
        <time>2022-08-29T12:25:36Z</time>
      </trkpt>
      <trkpt lat="42.3802620" lon="-3.5310850">
        <ele>1026.2</ele>
        <time>2022-08-29T12:25:37Z</time>
      </trkpt>
      <trkpt lat="42.3802540" lon="-3.5311100">
        <ele>1026.2</ele>
        <time>2022-08-29T12:25:38Z</time>
      </trkpt>
      <trkpt lat="42.3802450" lon="-3.5311350">
        <ele>1026.0</ele>
        <time>2022-08-29T12:25:39Z</time>
      </trkpt>
      <trkpt lat="42.3802350" lon="-3.5311600">
        <ele>1026.2</ele>
        <time>2022-08-29T12:25:40Z</time>
      </trkpt>
      <trkpt lat="42.3802250" lon="-3.5311860">
        <ele>1026.2</ele>
        <time>2022-08-29T12:25:41Z</time>
      </trkpt>
      <trkpt lat="42.3802140" lon="-3.5312120">
        <ele>1026.0</ele>
        <time>2022-08-29T12:25:42Z</time>
      </trkpt>
      <trkpt lat="42.3802020" lon="-3.5312390">
        <ele>1026.0</ele>
        <time>2022-08-29T12:25:43Z</time>
      </trkpt>
      <trkpt lat="42.3801910" lon="-3.5312640">
        <ele>1026.0</ele>
        <time>2022-08-29T12:25:44Z</time>
      </trkpt>
      <trkpt lat="42.3801810" lon="-3.5312870">
        <ele>1026.2</ele>
        <time>2022-08-29T12:25:45Z</time>
      </trkpt>
      <trkpt lat="42.3801710" lon="-3.5313130">
        <ele>1026.2</ele>
        <time>2022-08-29T12:25:46Z</time>
      </trkpt>
      <trkpt lat="42.3801630" lon="-3.5313380">
        <ele>1026.0</ele>
        <time>2022-08-29T12:25:47Z</time>
      </trkpt>
      <trkpt lat="42.3801550" lon="-3.5313610">
        <ele>1026.0</ele>
        <time>2022-08-29T12:25:48Z</time>
      </trkpt>
      <trkpt lat="42.3801490" lon="-3.5313750">
        <ele>1026.0</ele>
        <time>2022-08-29T12:25:49Z</time>
      </trkpt>
      <trkpt lat="42.3801500" lon="-3.5313850">
        <ele>1026.2</ele>
        <time>2022-08-29T12:25:50Z</time>
      </trkpt>
      <trkpt lat="42.3801540" lon="-3.5313960">
        <ele>1026.2</ele>
        <time>2022-08-29T12:25:51Z</time>
      </trkpt>
      <trkpt lat="42.3801580" lon="-3.5314080">
        <ele>1026.0</ele>
        <time>2022-08-29T12:25:52Z</time>
      </trkpt>
      <trkpt lat="42.3801590" lon="-3.5314210">
        <ele>1026.0</ele>
        <time>2022-08-29T12:25:53Z</time>
      </trkpt>
      <trkpt lat="42.3801600" lon="-3.5314350">
        <ele>1026.4</ele>
        <time>2022-08-29T12:25:54Z</time>
      </trkpt>
      <trkpt lat="42.3801610" lon="-3.5314460">
        <ele>1026.2</ele>
        <time>2022-08-29T12:25:55Z</time>
      </trkpt>
      <trkpt lat="42.3801600" lon="-3.5314570">
        <ele>1026.4</ele>
        <time>2022-08-29T12:25:56Z</time>
      </trkpt>
      <trkpt lat="42.3801600" lon="-3.5314670">
        <ele>1026.4</ele>
        <time>2022-08-29T12:25:57Z</time>
      </trkpt>
      <trkpt lat="42.3801580" lon="-3.5314750">
        <ele>1026.6</ele>
        <time>2022-08-29T12:25:58Z</time>
      </trkpt>
      <trkpt lat="42.3801550" lon="-3.5314850">
        <ele>1026.6</ele>
        <time>2022-08-29T12:25:59Z</time>
      </trkpt>
      <trkpt lat="42.3801500" lon="-3.5314950">
        <ele>1026.6</ele>
        <time>2022-08-29T12:26:00Z</time>
      </trkpt>
      <trkpt lat="42.3801430" lon="-3.5315050">
        <ele>1026.8</ele>
        <time>2022-08-29T12:26:01Z</time>
      </trkpt>
      <trkpt lat="42.3801330" lon="-3.5315150">
        <ele>1027.0</ele>
        <time>2022-08-29T12:26:02Z</time>
      </trkpt>
      <trkpt lat="42.3801240" lon="-3.5315270">
        <ele>1027.0</ele>
        <time>2022-08-29T12:26:03Z</time>
      </trkpt>
      <trkpt lat="42.3801160" lon="-3.5315380">
        <ele>1027.0</ele>
        <time>2022-08-29T12:26:04Z</time>
      </trkpt>
      <trkpt lat="42.3801090" lon="-3.5315470">
        <ele>1027.0</ele>
        <time>2022-08-29T12:26:05Z</time>
      </trkpt>
      <trkpt lat="42.3801030" lon="-3.5315530">
        <ele>1027.2</ele>
        <time>2022-08-29T12:26:06Z</time>
      </trkpt>
      <trkpt lat="42.3800990" lon="-3.5315610">
        <ele>1027.2</ele>
        <time>2022-08-29T12:26:07Z</time>
      </trkpt>
      <trkpt lat="42.3800940" lon="-3.5315700">
        <ele>1027.4</ele>
        <time>2022-08-29T12:26:08Z</time>
      </trkpt>
      <trkpt lat="42.3800880" lon="-3.5315790">
        <ele>1027.4</ele>
        <time>2022-08-29T12:26:09Z</time>
      </trkpt>
      <trkpt lat="42.3800800" lon="-3.5315910">
        <ele>1027.6</ele>
        <time>2022-08-29T12:26:10Z</time>
      </trkpt>
      <trkpt lat="42.3800720" lon="-3.5316050">
        <ele>1027.6</ele>
        <time>2022-08-29T12:26:11Z</time>
      </trkpt>
      <trkpt lat="42.3800660" lon="-3.5316190">
        <ele>1027.6</ele>
        <time>2022-08-29T12:26:12Z</time>
      </trkpt>
      <trkpt lat="42.3800630" lon="-3.5316340">
        <ele>1027.6</ele>
        <time>2022-08-29T12:26:13Z</time>
      </trkpt>
      <trkpt lat="42.3800630" lon="-3.5316490">
        <ele>1027.8</ele>
        <time>2022-08-29T12:26:14Z</time>
      </trkpt>
      <trkpt lat="42.3800650" lon="-3.5316610">
        <ele>1027.8</ele>
        <time>2022-08-29T12:26:15Z</time>
      </trkpt>
      <trkpt lat="42.3800670" lon="-3.5316750">
        <ele>1027.8</ele>
        <time>2022-08-29T12:26:16Z</time>
      </trkpt>
      <trkpt lat="42.3800680" lon="-3.5316900">
        <ele>1028.2</ele>
        <time>2022-08-29T12:26:17Z</time>
      </trkpt>
      <trkpt lat="42.3800670" lon="-3.5317070">
        <ele>1028.2</ele>
        <time>2022-08-29T12:26:18Z</time>
      </trkpt>
      <trkpt lat="42.3800660" lon="-3.5317230">
        <ele>1028.4</ele>
        <time>2022-08-29T12:26:19Z</time>
      </trkpt>
      <trkpt lat="42.3800640" lon="-3.5317370">
        <ele>1028.8</ele>
        <time>2022-08-29T12:26:20Z</time>
      </trkpt>
      <trkpt lat="42.3800600" lon="-3.5317500">
        <ele>1028.6</ele>
        <time>2022-08-29T12:26:21Z</time>
      </trkpt>
      <trkpt lat="42.3800570" lon="-3.5317630">
        <ele>1029.0</ele>
        <time>2022-08-29T12:26:22Z</time>
      </trkpt>
      <trkpt lat="42.3800550" lon="-3.5317770">
        <ele>1029.0</ele>
        <time>2022-08-29T12:26:23Z</time>
      </trkpt>
      <trkpt lat="42.3800520" lon="-3.5317920">
        <ele>1029.0</ele>
        <time>2022-08-29T12:26:24Z</time>
      </trkpt>
      <trkpt lat="42.3800480" lon="-3.5318060">
        <ele>1029.0</ele>
        <time>2022-08-29T12:26:25Z</time>
      </trkpt>
      <trkpt lat="42.3800460" lon="-3.5318210">
        <ele>1029.0</ele>
        <time>2022-08-29T12:26:26Z</time>
      </trkpt>
      <trkpt lat="42.3800440" lon="-3.5318350">
        <ele>1029.2</ele>
        <time>2022-08-29T12:26:27Z</time>
      </trkpt>
      <trkpt lat="42.3800420" lon="-3.5318500">
        <ele>1029.6</ele>
        <time>2022-08-29T12:26:28Z</time>
      </trkpt>
      <trkpt lat="42.3800400" lon="-3.5318640">
        <ele>1029.4</ele>
        <time>2022-08-29T12:26:29Z</time>
      </trkpt>
      <trkpt lat="42.3800370" lon="-3.5318790">
        <ele>1029.8</ele>
        <time>2022-08-29T12:26:30Z</time>
      </trkpt>
      <trkpt lat="42.3800350" lon="-3.5318920">
        <ele>1029.8</ele>
        <time>2022-08-29T12:26:31Z</time>
      </trkpt>
      <trkpt lat="42.3800340" lon="-3.5319050">
        <ele>1030.0</ele>
        <time>2022-08-29T12:26:32Z</time>
      </trkpt>
      <trkpt lat="42.3800350" lon="-3.5319170">
        <ele>1030.0</ele>
        <time>2022-08-29T12:26:33Z</time>
      </trkpt>
      <trkpt lat="42.3800360" lon="-3.5319280">
        <ele>1030.2</ele>
        <time>2022-08-29T12:26:34Z</time>
      </trkpt>
      <trkpt lat="42.3800380" lon="-3.5319390">
        <ele>1030.2</ele>
        <time>2022-08-29T12:26:35Z</time>
      </trkpt>
      <trkpt lat="42.3800370" lon="-3.5319460">
        <ele>1030.2</ele>
        <time>2022-08-29T12:26:36Z</time>
      </trkpt>
      <trkpt lat="42.3800360" lon="-3.5319460">
        <ele>1030.6</ele>
        <time>2022-08-29T12:26:37Z</time>
      </trkpt>
      <trkpt lat="42.3800350" lon="-3.5319460">
        <ele>1030.8</ele>
        <time>2022-08-29T12:26:38Z</time>
      </trkpt>
      <trkpt lat="42.3800350" lon="-3.5319460">
        <ele>1031.2</ele>
        <time>2022-08-29T12:26:39Z</time>
      </trkpt>
      <trkpt lat="42.3800350" lon="-3.5319460">
        <ele>1031.0</ele>
        <time>2022-08-29T12:26:40Z</time>
      </trkpt>
      <trkpt lat="42.3800350" lon="-3.5319450">
        <ele>1031.2</ele>
        <time>2022-08-29T12:26:41Z</time>
      </trkpt>
      <trkpt lat="42.3800350" lon="-3.5319450">
        <ele>1031.2</ele>
        <time>2022-08-29T12:26:42Z</time>
      </trkpt>
      <trkpt lat="42.3800350" lon="-3.5319460">
        <ele>1031.4</ele>
        <time>2022-08-29T12:26:43Z</time>
      </trkpt>
      <trkpt lat="42.3800350" lon="-3.5319460">
        <ele>1031.4</ele>
        <time>2022-08-29T12:26:44Z</time>
      </trkpt>
      <trkpt lat="42.3800350" lon="-3.5319460">
        <ele>1031.4</ele>
        <time>2022-08-29T12:26:45Z</time>
      </trkpt>
      <trkpt lat="42.3800350" lon="-3.5319460">
        <ele>1031.4</ele>
        <time>2022-08-29T12:26:46Z</time>
      </trkpt>
      <trkpt lat="42.3800350" lon="-3.5319450">
        <ele>1031.4</ele>
        <time>2022-08-29T12:26:47Z</time>
      </trkpt>
      <trkpt lat="42.3800350" lon="-3.5319450">
        <ele>1031.4</ele>
        <time>2022-08-29T12:26:48Z</time>
      </trkpt>
      <trkpt lat="42.3800350" lon="-3.5319450">
        <ele>1031.6</ele>
        <time>2022-08-29T12:26:49Z</time>
      </trkpt>
      <trkpt lat="42.3800350" lon="-3.5319450">
        <ele>1031.6</ele>
        <time>2022-08-29T12:26:50Z</time>
      </trkpt>
      <trkpt lat="42.3800340" lon="-3.5319450">
        <ele>1031.6</ele>
        <time>2022-08-29T12:26:51Z</time>
      </trkpt>
      <trkpt lat="42.3800350" lon="-3.5319450">
        <ele>1031.6</ele>
        <time>2022-08-29T12:26:52Z</time>
      </trkpt>
      <trkpt lat="42.3800350" lon="-3.5319450">
        <ele>1031.6</ele>
        <time>2022-08-29T12:26:53Z</time>
      </trkpt>
      <trkpt lat="42.3800350" lon="-3.5319450">
        <ele>1031.6</ele>
        <time>2022-08-29T12:26:54Z</time>
      </trkpt>
      <trkpt lat="42.3800350" lon="-3.5319450">
        <ele>1031.6</ele>
        <time>2022-08-29T12:26:55Z</time>
      </trkpt>
      <trkpt lat="42.3800350" lon="-3.5319450">
        <ele>1031.8</ele>
        <time>2022-08-29T12:26:56Z</time>
      </trkpt>
      <trkpt lat="42.3800350" lon="-3.5319450">
        <ele>1031.6</ele>
        <time>2022-08-29T12:26:57Z</time>
      </trkpt>
      <trkpt lat="42.3800350" lon="-3.5319450">
        <ele>1031.8</ele>
        <time>2022-08-29T12:26:58Z</time>
      </trkpt>
      <trkpt lat="42.3800350" lon="-3.5319440">
        <ele>1031.8</ele>
        <time>2022-08-29T12:26:59Z</time>
      </trkpt>
      <trkpt lat="42.3800360" lon="-3.5319440">
        <ele>1031.6</ele>
        <time>2022-08-29T12:27:00Z</time>
      </trkpt>
      <trkpt lat="42.3800360" lon="-3.5319440">
        <ele>1031.6</ele>
        <time>2022-08-29T12:27:01Z</time>
      </trkpt>
      <trkpt lat="42.3800360" lon="-3.5319440">
        <ele>1031.8</ele>
        <time>2022-08-29T12:27:02Z</time>
      </trkpt>
      <trkpt lat="42.3800360" lon="-3.5319440">
        <ele>1031.6</ele>
        <time>2022-08-29T12:27:03Z</time>
      </trkpt>
      <trkpt lat="42.3800360" lon="-3.5319430">
        <ele>1031.8</ele>
        <time>2022-08-29T12:27:04Z</time>
      </trkpt>
      <trkpt lat="42.3800360" lon="-3.5319430">
        <ele>1031.8</ele>
        <time>2022-08-29T12:27:05Z</time>
      </trkpt>
      <trkpt lat="42.3800360" lon="-3.5319430">
        <ele>1031.8</ele>
        <time>2022-08-29T12:27:06Z</time>
      </trkpt>
      <trkpt lat="42.3800360" lon="-3.5319430">
        <ele>1031.8</ele>
        <time>2022-08-29T12:27:07Z</time>
      </trkpt>
      <trkpt lat="42.3800360" lon="-3.5319430">
        <ele>1031.8</ele>
        <time>2022-08-29T12:27:08Z</time>
      </trkpt>
      <trkpt lat="42.3800360" lon="-3.5319430">
        <ele>1031.8</ele>
        <time>2022-08-29T12:27:09Z</time>
      </trkpt>
      <trkpt lat="42.3800360" lon="-3.5319430">
        <ele>1032.0</ele>
        <time>2022-08-29T12:27:10Z</time>
      </trkpt>
      <trkpt lat="42.3800360" lon="-3.5319430">
        <ele>1032.0</ele>
        <time>2022-08-29T12:27:11Z</time>
      </trkpt>
      <trkpt lat="42.3800360" lon="-3.5319430">
        <ele>1031.8</ele>
        <time>2022-08-29T12:27:12Z</time>
      </trkpt>
      <trkpt lat="42.3800360" lon="-3.5319430">
        <ele>1032.0</ele>
        <time>2022-08-29T12:27:13Z</time>
      </trkpt>
      <trkpt lat="42.3800360" lon="-3.5319430">
        <ele>1032.0</ele>
        <time>2022-08-29T12:27:14Z</time>
      </trkpt>
      <trkpt lat="42.3800360" lon="-3.5319430">
        <ele>1032.0</ele>
        <time>2022-08-29T12:27:15Z</time>
      </trkpt>
      <trkpt lat="42.3800360" lon="-3.5319430">
        <ele>1032.2</ele>
        <time>2022-08-29T12:27:16Z</time>
      </trkpt>
      <trkpt lat="42.3800360" lon="-3.5319430">
        <ele>1032.2</ele>
        <time>2022-08-29T12:27:17Z</time>
      </trkpt>
      <trkpt lat="42.3800360" lon="-3.5319430">
        <ele>1032.2</ele>
        <time>2022-08-29T12:27:18Z</time>
      </trkpt>
      <trkpt lat="42.3800360" lon="-3.5319430">
        <ele>1032.2</ele>
        <time>2022-08-29T12:27:19Z</time>
      </trkpt>
      <trkpt lat="42.3800360" lon="-3.5319430">
        <ele>1032.2</ele>
        <time>2022-08-29T12:27:20Z</time>
      </trkpt>
      <trkpt lat="42.3800360" lon="-3.5319430">
        <ele>1032.4</ele>
        <time>2022-08-29T12:27:21Z</time>
      </trkpt>
      <trkpt lat="42.3800360" lon="-3.5319430">
        <ele>1032.6</ele>
        <time>2022-08-29T12:27:22Z</time>
      </trkpt>
      <trkpt lat="42.3800360" lon="-3.5319430">
        <ele>1032.4</ele>
        <time>2022-08-29T12:27:23Z</time>
      </trkpt>
      <trkpt lat="42.3800360" lon="-3.5319430">
        <ele>1032.6</ele>
        <time>2022-08-29T12:27:24Z</time>
      </trkpt>
      <trkpt lat="42.3800360" lon="-3.5319440">
        <ele>1032.6</ele>
        <time>2022-08-29T12:27:25Z</time>
      </trkpt>
      <trkpt lat="42.3800360" lon="-3.5319440">
        <ele>1032.6</ele>
        <time>2022-08-29T12:27:26Z</time>
      </trkpt>
      <trkpt lat="42.3800360" lon="-3.5319440">
        <ele>1032.6</ele>
        <time>2022-08-29T12:27:27Z</time>
      </trkpt>
      <trkpt lat="42.3800360" lon="-3.5319440">
        <ele>1032.8</ele>
        <time>2022-08-29T12:27:28Z</time>
      </trkpt>
      <trkpt lat="42.3800360" lon="-3.5319440">
        <ele>1032.8</ele>
        <time>2022-08-29T12:27:29Z</time>
      </trkpt>
      <trkpt lat="42.3800360" lon="-3.5319440">
        <ele>1032.6</ele>
        <time>2022-08-29T12:27:30Z</time>
      </trkpt>
      <trkpt lat="42.3800360" lon="-3.5319440">
        <ele>1032.8</ele>
        <time>2022-08-29T12:27:31Z</time>
      </trkpt>
      <trkpt lat="42.3800360" lon="-3.5319450">
        <ele>1032.8</ele>
        <time>2022-08-29T12:27:32Z</time>
      </trkpt>
      <trkpt lat="42.3800340" lon="-3.5319460">
        <ele>1032.8</ele>
        <time>2022-08-29T12:27:33Z</time>
      </trkpt>
      <trkpt lat="42.3800340" lon="-3.5319470">
        <ele>1032.8</ele>
        <time>2022-08-29T12:27:34Z</time>
      </trkpt>
      <trkpt lat="42.3800330" lon="-3.5319470">
        <ele>1032.8</ele>
        <time>2022-08-29T12:27:35Z</time>
      </trkpt>
      <trkpt lat="42.3800330" lon="-3.5319480">
        <ele>1032.8</ele>
        <time>2022-08-29T12:27:36Z</time>
      </trkpt>
      <trkpt lat="42.3800330" lon="-3.5319490">
        <ele>1033.0</ele>
        <time>2022-08-29T12:27:37Z</time>
      </trkpt>
      <trkpt lat="42.3800320" lon="-3.5319490">
        <ele>1033.0</ele>
        <time>2022-08-29T12:27:38Z</time>
      </trkpt>
      <trkpt lat="42.3800310" lon="-3.5319500">
        <ele>1033.0</ele>
        <time>2022-08-29T12:27:39Z</time>
      </trkpt>
      <trkpt lat="42.3800310" lon="-3.5319500">
        <ele>1033.0</ele>
        <time>2022-08-29T12:27:40Z</time>
      </trkpt>
      <trkpt lat="42.3800310" lon="-3.5319500">
        <ele>1033.2</ele>
        <time>2022-08-29T12:27:41Z</time>
      </trkpt>
      <trkpt lat="42.3800310" lon="-3.5319510">
        <ele>1033.2</ele>
        <time>2022-08-29T12:27:42Z</time>
      </trkpt>
      <trkpt lat="42.3800310" lon="-3.5319510">
        <ele>1033.2</ele>
        <time>2022-08-29T12:27:43Z</time>
      </trkpt>
      <trkpt lat="42.3800320" lon="-3.5319520">
        <ele>1033.2</ele>
        <time>2022-08-29T12:27:44Z</time>
      </trkpt>
      <trkpt lat="42.3800320" lon="-3.5319550">
        <ele>1033.2</ele>
        <time>2022-08-29T12:27:45Z</time>
      </trkpt>
      <trkpt lat="42.3800320" lon="-3.5319600">
        <ele>1033.2</ele>
        <time>2022-08-29T12:27:46Z</time>
      </trkpt>
      <trkpt lat="42.3800330" lon="-3.5319730">
        <ele>1033.2</ele>
        <time>2022-08-29T12:27:47Z</time>
      </trkpt>
      <trkpt lat="42.3800340" lon="-3.5319900">
        <ele>1033.2</ele>
        <time>2022-08-29T12:27:48Z</time>
      </trkpt>
      <trkpt lat="42.3800330" lon="-3.5320080">
        <ele>1033.4</ele>
        <time>2022-08-29T12:27:49Z</time>
      </trkpt>
      <trkpt lat="42.3800330" lon="-3.5320230">
        <ele>1033.6</ele>
        <time>2022-08-29T12:27:50Z</time>
      </trkpt>
      <trkpt lat="42.3800320" lon="-3.5320310">
        <ele>1033.6</ele>
        <time>2022-08-29T12:27:51Z</time>
      </trkpt>
      <trkpt lat="42.3800310" lon="-3.5320410">
        <ele>1033.8</ele>
        <time>2022-08-29T12:27:52Z</time>
      </trkpt>
      <trkpt lat="42.3800290" lon="-3.5320520">
        <ele>1033.8</ele>
        <time>2022-08-29T12:27:53Z</time>
      </trkpt>
      <trkpt lat="42.3800300" lon="-3.5320640">
        <ele>1034.0</ele>
        <time>2022-08-29T12:27:54Z</time>
      </trkpt>
      <trkpt lat="42.3800340" lon="-3.5320760">
        <ele>1034.2</ele>
        <time>2022-08-29T12:27:55Z</time>
      </trkpt>
      <trkpt lat="42.3800390" lon="-3.5320880">
        <ele>1034.2</ele>
        <time>2022-08-29T12:27:56Z</time>
      </trkpt>
      <trkpt lat="42.3800440" lon="-3.5321020">
        <ele>1034.4</ele>
        <time>2022-08-29T12:27:57Z</time>
      </trkpt>
      <trkpt lat="42.3800480" lon="-3.5321180">
        <ele>1034.6</ele>
        <time>2022-08-29T12:27:58Z</time>
      </trkpt>
      <trkpt lat="42.3800500" lon="-3.5321360">
        <ele>1034.8</ele>
        <time>2022-08-29T12:27:59Z</time>
      </trkpt>
      <trkpt lat="42.3800490" lon="-3.5321550">
        <ele>1034.8</ele>
        <time>2022-08-29T12:28:00Z</time>
      </trkpt>
      <trkpt lat="42.3800480" lon="-3.5321750">
        <ele>1035.0</ele>
        <time>2022-08-29T12:28:01Z</time>
      </trkpt>
      <trkpt lat="42.3800440" lon="-3.5321940">
        <ele>1035.0</ele>
        <time>2022-08-29T12:28:02Z</time>
      </trkpt>
      <trkpt lat="42.3800410" lon="-3.5322100">
        <ele>1035.2</ele>
        <time>2022-08-29T12:28:03Z</time>
      </trkpt>
      <trkpt lat="42.3800380" lon="-3.5322200">
        <ele>1035.2</ele>
        <time>2022-08-29T12:28:04Z</time>
      </trkpt>
      <trkpt lat="42.3800370" lon="-3.5322240">
        <ele>1035.6</ele>
        <time>2022-08-29T12:28:05Z</time>
      </trkpt>
      <trkpt lat="42.3800370" lon="-3.5322350">
        <ele>1036.0</ele>
        <time>2022-08-29T12:28:06Z</time>
      </trkpt>
      <trkpt lat="42.3800360" lon="-3.5322510">
        <ele>1036.0</ele>
        <time>2022-08-29T12:28:07Z</time>
      </trkpt>
      <trkpt lat="42.3800370" lon="-3.5322730">
        <ele>1036.2</ele>
        <time>2022-08-29T12:28:08Z</time>
      </trkpt>
      <trkpt lat="42.3800400" lon="-3.5322990">
        <ele>1036.2</ele>
        <time>2022-08-29T12:28:09Z</time>
      </trkpt>
      <trkpt lat="42.3800440" lon="-3.5323300">
        <ele>1036.6</ele>
        <time>2022-08-29T12:28:10Z</time>
      </trkpt>
      <trkpt lat="42.3800460" lon="-3.5323620">
        <ele>1036.8</ele>
        <time>2022-08-29T12:28:11Z</time>
      </trkpt>
      <trkpt lat="42.3800480" lon="-3.5323970">
        <ele>1036.8</ele>
        <time>2022-08-29T12:28:12Z</time>
      </trkpt>
      <trkpt lat="42.3800460" lon="-3.5324310">
        <ele>1036.8</ele>
        <time>2022-08-29T12:28:13Z</time>
      </trkpt>
      <trkpt lat="42.3800390" lon="-3.5324630">
        <ele>1037.0</ele>
        <time>2022-08-29T12:28:14Z</time>
      </trkpt>
      <trkpt lat="42.3800300" lon="-3.5324950">
        <ele>1037.2</ele>
        <time>2022-08-29T12:28:15Z</time>
      </trkpt>
      <trkpt lat="42.3800200" lon="-3.5325310">
        <ele>1037.2</ele>
        <time>2022-08-29T12:28:16Z</time>
      </trkpt>
      <trkpt lat="42.3800090" lon="-3.5325700">
        <ele>1037.2</ele>
        <time>2022-08-29T12:28:17Z</time>
      </trkpt>
      <trkpt lat="42.3799960" lon="-3.5326090">
        <ele>1037.2</ele>
        <time>2022-08-29T12:28:18Z</time>
      </trkpt>
      <trkpt lat="42.3799820" lon="-3.5326500">
        <ele>1037.4</ele>
        <time>2022-08-29T12:28:19Z</time>
      </trkpt>
      <trkpt lat="42.3799700" lon="-3.5326940">
        <ele>1037.6</ele>
        <time>2022-08-29T12:28:20Z</time>
      </trkpt>
      <trkpt lat="42.3799600" lon="-3.5327380">
        <ele>1037.6</ele>
        <time>2022-08-29T12:28:21Z</time>
      </trkpt>
      <trkpt lat="42.3799530" lon="-3.5327840">
        <ele>1038.0</ele>
        <time>2022-08-29T12:28:22Z</time>
      </trkpt>
      <trkpt lat="42.3799440" lon="-3.5328280">
        <ele>1038.0</ele>
        <time>2022-08-29T12:28:23Z</time>
      </trkpt>
      <trkpt lat="42.3799360" lon="-3.5328700">
        <ele>1038.2</ele>
        <time>2022-08-29T12:28:24Z</time>
      </trkpt>
      <trkpt lat="42.3799290" lon="-3.5329100">
        <ele>1038.4</ele>
        <time>2022-08-29T12:28:25Z</time>
      </trkpt>
      <trkpt lat="42.3799230" lon="-3.5329490">
        <ele>1038.4</ele>
        <time>2022-08-29T12:28:26Z</time>
      </trkpt>
      <trkpt lat="42.3799180" lon="-3.5329870">
        <ele>1038.4</ele>
        <time>2022-08-29T12:28:27Z</time>
      </trkpt>
      <trkpt lat="42.3799150" lon="-3.5330250">
        <ele>1038.6</ele>
        <time>2022-08-29T12:28:28Z</time>
      </trkpt>
      <trkpt lat="42.3799100" lon="-3.5330630">
        <ele>1038.8</ele>
        <time>2022-08-29T12:28:29Z</time>
      </trkpt>
      <trkpt lat="42.3799050" lon="-3.5331010">
        <ele>1039.0</ele>
        <time>2022-08-29T12:28:30Z</time>
      </trkpt>
      <trkpt lat="42.3799020" lon="-3.5331410">
        <ele>1039.2</ele>
        <time>2022-08-29T12:28:31Z</time>
      </trkpt>
      <trkpt lat="42.3798970" lon="-3.5331810">
        <ele>1039.2</ele>
        <time>2022-08-29T12:28:32Z</time>
      </trkpt>
      <trkpt lat="42.3798900" lon="-3.5332220">
        <ele>1039.4</ele>
        <time>2022-08-29T12:28:33Z</time>
      </trkpt>
      <trkpt lat="42.3798840" lon="-3.5332640">
        <ele>1039.6</ele>
        <time>2022-08-29T12:28:34Z</time>
      </trkpt>
      <trkpt lat="42.3798770" lon="-3.5333090">
        <ele>1039.8</ele>
        <time>2022-08-29T12:28:35Z</time>
      </trkpt>
      <trkpt lat="42.3798680" lon="-3.5333530">
        <ele>1040.0</ele>
        <time>2022-08-29T12:28:36Z</time>
      </trkpt>
      <trkpt lat="42.3798590" lon="-3.5333950">
        <ele>1040.2</ele>
        <time>2022-08-29T12:28:37Z</time>
      </trkpt>
      <trkpt lat="42.3798520" lon="-3.5334370">
        <ele>1040.4</ele>
        <time>2022-08-29T12:28:38Z</time>
      </trkpt>
      <trkpt lat="42.3798470" lon="-3.5334800">
        <ele>1040.8</ele>
        <time>2022-08-29T12:28:39Z</time>
      </trkpt>
      <trkpt lat="42.3798420" lon="-3.5335210">
        <ele>1041.2</ele>
        <time>2022-08-29T12:28:40Z</time>
      </trkpt>
      <trkpt lat="42.3798360" lon="-3.5335610">
        <ele>1041.0</ele>
        <time>2022-08-29T12:28:41Z</time>
      </trkpt>
      <trkpt lat="42.3798310" lon="-3.5336010">
        <ele>1041.2</ele>
        <time>2022-08-29T12:28:42Z</time>
      </trkpt>
      <trkpt lat="42.3798280" lon="-3.5336400">
        <ele>1041.2</ele>
        <time>2022-08-29T12:28:43Z</time>
      </trkpt>
      <trkpt lat="42.3798220" lon="-3.5336780">
        <ele>1041.4</ele>
        <time>2022-08-29T12:28:44Z</time>
      </trkpt>
      <trkpt lat="42.3798120" lon="-3.5337130">
        <ele>1041.4</ele>
        <time>2022-08-29T12:28:45Z</time>
      </trkpt>
      <trkpt lat="42.3798040" lon="-3.5337480">
        <ele>1042.0</ele>
        <time>2022-08-29T12:28:46Z</time>
      </trkpt>
      <trkpt lat="42.3797970" lon="-3.5337840">
        <ele>1042.2</ele>
        <time>2022-08-29T12:28:47Z</time>
      </trkpt>
      <trkpt lat="42.3797880" lon="-3.5338210">
        <ele>1042.2</ele>
        <time>2022-08-29T12:28:48Z</time>
      </trkpt>
      <trkpt lat="42.3797750" lon="-3.5338560">
        <ele>1042.6</ele>
        <time>2022-08-29T12:28:49Z</time>
      </trkpt>
      <trkpt lat="42.3797610" lon="-3.5338900">
        <ele>1042.6</ele>
        <time>2022-08-29T12:28:50Z</time>
      </trkpt>
      <trkpt lat="42.3797450" lon="-3.5339230">
        <ele>1042.6</ele>
        <time>2022-08-29T12:28:51Z</time>
      </trkpt>
      <trkpt lat="42.3797290" lon="-3.5339580">
        <ele>1042.8</ele>
        <time>2022-08-29T12:28:52Z</time>
      </trkpt>
      <trkpt lat="42.3797150" lon="-3.5339930">
        <ele>1043.0</ele>
        <time>2022-08-29T12:28:53Z</time>
      </trkpt>
      <trkpt lat="42.3797010" lon="-3.5340280">
        <ele>1043.2</ele>
        <time>2022-08-29T12:28:54Z</time>
      </trkpt>
      <trkpt lat="42.3796900" lon="-3.5340650">
        <ele>1043.2</ele>
        <time>2022-08-29T12:28:55Z</time>
      </trkpt>
      <trkpt lat="42.3796800" lon="-3.5341050">
        <ele>1043.4</ele>
        <time>2022-08-29T12:28:56Z</time>
      </trkpt>
      <trkpt lat="42.3796710" lon="-3.5341450">
        <ele>1043.4</ele>
        <time>2022-08-29T12:28:57Z</time>
      </trkpt>
      <trkpt lat="42.3796590" lon="-3.5341870">
        <ele>1043.4</ele>
        <time>2022-08-29T12:28:58Z</time>
      </trkpt>
      <trkpt lat="42.3796470" lon="-3.5342290">
        <ele>1043.6</ele>
        <time>2022-08-29T12:28:59Z</time>
      </trkpt>
      <trkpt lat="42.3796350" lon="-3.5342730">
        <ele>1043.6</ele>
        <time>2022-08-29T12:29:00Z</time>
      </trkpt>
      <trkpt lat="42.3796220" lon="-3.5343190">
        <ele>1043.6</ele>
        <time>2022-08-29T12:29:01Z</time>
      </trkpt>
      <trkpt lat="42.3796080" lon="-3.5343650">
        <ele>1043.8</ele>
        <time>2022-08-29T12:29:02Z</time>
      </trkpt>
      <trkpt lat="42.3795930" lon="-3.5344110">
        <ele>1044.2</ele>
        <time>2022-08-29T12:29:03Z</time>
      </trkpt>
      <trkpt lat="42.3795780" lon="-3.5344570">
        <ele>1044.4</ele>
        <time>2022-08-29T12:29:04Z</time>
      </trkpt>
      <trkpt lat="42.3795620" lon="-3.5345050">
        <ele>1044.4</ele>
        <time>2022-08-29T12:29:05Z</time>
      </trkpt>
      <trkpt lat="42.3795450" lon="-3.5345550">
        <ele>1044.8</ele>
        <time>2022-08-29T12:29:06Z</time>
      </trkpt>
      <trkpt lat="42.3795270" lon="-3.5346030">
        <ele>1044.8</ele>
        <time>2022-08-29T12:29:07Z</time>
      </trkpt>
      <trkpt lat="42.3795080" lon="-3.5346510">
        <ele>1045.0</ele>
        <time>2022-08-29T12:29:08Z</time>
      </trkpt>
      <trkpt lat="42.3794900" lon="-3.5346990">
        <ele>1044.8</ele>
        <time>2022-08-29T12:29:09Z</time>
      </trkpt>
      <trkpt lat="42.3794710" lon="-3.5347470">
        <ele>1045.2</ele>
        <time>2022-08-29T12:29:10Z</time>
      </trkpt>
      <trkpt lat="42.3794520" lon="-3.5347940">
        <ele>1045.2</ele>
        <time>2022-08-29T12:29:11Z</time>
      </trkpt>
      <trkpt lat="42.3794320" lon="-3.5348410">
        <ele>1045.4</ele>
        <time>2022-08-29T12:29:12Z</time>
      </trkpt>
      <trkpt lat="42.3794120" lon="-3.5348860">
        <ele>1045.4</ele>
        <time>2022-08-29T12:29:13Z</time>
      </trkpt>
      <trkpt lat="42.3793930" lon="-3.5349270">
        <ele>1045.4</ele>
        <time>2022-08-29T12:29:14Z</time>
      </trkpt>
      <trkpt lat="42.3793750" lon="-3.5349640">
        <ele>1045.4</ele>
        <time>2022-08-29T12:29:15Z</time>
      </trkpt>
      <trkpt lat="42.3793580" lon="-3.5350000">
        <ele>1045.8</ele>
        <time>2022-08-29T12:29:16Z</time>
      </trkpt>
      <trkpt lat="42.3793430" lon="-3.5350350">
        <ele>1045.8</ele>
        <time>2022-08-29T12:29:17Z</time>
      </trkpt>
      <trkpt lat="42.3793260" lon="-3.5350740">
        <ele>1045.8</ele>
        <time>2022-08-29T12:29:18Z</time>
      </trkpt>
      <trkpt lat="42.3793060" lon="-3.5351130">
        <ele>1046.0</ele>
        <time>2022-08-29T12:29:19Z</time>
      </trkpt>
      <trkpt lat="42.3792840" lon="-3.5351520">
        <ele>1046.4</ele>
        <time>2022-08-29T12:29:20Z</time>
      </trkpt>
      <trkpt lat="42.3792620" lon="-3.5351900">
        <ele>1046.4</ele>
        <time>2022-08-29T12:29:21Z</time>
      </trkpt>
      <trkpt lat="42.3792420" lon="-3.5352290">
        <ele>1046.6</ele>
        <time>2022-08-29T12:29:22Z</time>
      </trkpt>
      <trkpt lat="42.3792200" lon="-3.5352670">
        <ele>1046.6</ele>
        <time>2022-08-29T12:29:23Z</time>
      </trkpt>
      <trkpt lat="42.3791990" lon="-3.5353100">
        <ele>1046.8</ele>
        <time>2022-08-29T12:29:24Z</time>
      </trkpt>
      <trkpt lat="42.3791810" lon="-3.5353550">
        <ele>1046.8</ele>
        <time>2022-08-29T12:29:25Z</time>
      </trkpt>
      <trkpt lat="42.3791620" lon="-3.5354020">
        <ele>1047.0</ele>
        <time>2022-08-29T12:29:26Z</time>
      </trkpt>
      <trkpt lat="42.3791400" lon="-3.5354470">
        <ele>1047.0</ele>
        <time>2022-08-29T12:29:27Z</time>
      </trkpt>
      <trkpt lat="42.3791160" lon="-3.5354890">
        <ele>1047.0</ele>
        <time>2022-08-29T12:29:28Z</time>
      </trkpt>
      <trkpt lat="42.3790940" lon="-3.5355310">
        <ele>1047.0</ele>
        <time>2022-08-29T12:29:29Z</time>
      </trkpt>
      <trkpt lat="42.3790710" lon="-3.5355730">
        <ele>1047.0</ele>
        <time>2022-08-29T12:29:30Z</time>
      </trkpt>
      <trkpt lat="42.3790470" lon="-3.5356100">
        <ele>1047.0</ele>
        <time>2022-08-29T12:29:31Z</time>
      </trkpt>
      <trkpt lat="42.3790220" lon="-3.5356470">
        <ele>1047.0</ele>
        <time>2022-08-29T12:29:32Z</time>
      </trkpt>
      <trkpt lat="42.3790020" lon="-3.5356880">
        <ele>1047.0</ele>
        <time>2022-08-29T12:29:33Z</time>
      </trkpt>
      <trkpt lat="42.3789810" lon="-3.5357310">
        <ele>1047.0</ele>
        <time>2022-08-29T12:29:34Z</time>
      </trkpt>
      <trkpt lat="42.3789570" lon="-3.5357740">
        <ele>1047.0</ele>
        <time>2022-08-29T12:29:35Z</time>
      </trkpt>
      <trkpt lat="42.3789310" lon="-3.5358210">
        <ele>1047.0</ele>
        <time>2022-08-29T12:29:36Z</time>
      </trkpt>
      <trkpt lat="42.3789060" lon="-3.5358680">
        <ele>1047.0</ele>
        <time>2022-08-29T12:29:37Z</time>
      </trkpt>
      <trkpt lat="42.3788800" lon="-3.5359080">
        <ele>1047.0</ele>
        <time>2022-08-29T12:29:38Z</time>
      </trkpt>
      <trkpt lat="42.3788510" lon="-3.5359500">
        <ele>1047.0</ele>
        <time>2022-08-29T12:29:39Z</time>
      </trkpt>
      <trkpt lat="42.3788210" lon="-3.5359950">
        <ele>1046.4</ele>
        <time>2022-08-29T12:29:40Z</time>
      </trkpt>
      <trkpt lat="42.3787930" lon="-3.5360440">
        <ele>1046.2</ele>
        <time>2022-08-29T12:29:41Z</time>
      </trkpt>
      <trkpt lat="42.3787600" lon="-3.5360920">
        <ele>1046.0</ele>
        <time>2022-08-29T12:29:42Z</time>
      </trkpt>
      <trkpt lat="42.3787240" lon="-3.5361380">
        <ele>1046.0</ele>
        <time>2022-08-29T12:29:43Z</time>
      </trkpt>
      <trkpt lat="42.3786870" lon="-3.5361800">
        <ele>1045.8</ele>
        <time>2022-08-29T12:29:44Z</time>
      </trkpt>
      <trkpt lat="42.3786470" lon="-3.5362190">
        <ele>1045.6</ele>
        <time>2022-08-29T12:29:45Z</time>
      </trkpt>
      <trkpt lat="42.3786070" lon="-3.5362510">
        <ele>1045.4</ele>
        <time>2022-08-29T12:29:46Z</time>
      </trkpt>
      <trkpt lat="42.3785730" lon="-3.5362740">
        <ele>1045.0</ele>
        <time>2022-08-29T12:29:47Z</time>
      </trkpt>
      <trkpt lat="42.3785430" lon="-3.5362950">
        <ele>1045.0</ele>
        <time>2022-08-29T12:29:48Z</time>
      </trkpt>
      <trkpt lat="42.3785200" lon="-3.5363180">
        <ele>1044.8</ele>
        <time>2022-08-29T12:29:49Z</time>
      </trkpt>
      <trkpt lat="42.3784990" lon="-3.5363440">
        <ele>1044.4</ele>
        <time>2022-08-29T12:29:50Z</time>
      </trkpt>
      <trkpt lat="42.3784750" lon="-3.5363690">
        <ele>1044.0</ele>
        <time>2022-08-29T12:29:51Z</time>
      </trkpt>
      <trkpt lat="42.3784490" lon="-3.5363960">
        <ele>1043.6</ele>
        <time>2022-08-29T12:29:52Z</time>
      </trkpt>
      <trkpt lat="42.3784240" lon="-3.5364240">
        <ele>1043.4</ele>
        <time>2022-08-29T12:29:53Z</time>
      </trkpt>
      <trkpt lat="42.3784030" lon="-3.5364460">
        <ele>1043.2</ele>
        <time>2022-08-29T12:29:54Z</time>
      </trkpt>
      <trkpt lat="42.3783890" lon="-3.5364640">
        <ele>1043.2</ele>
        <time>2022-08-29T12:29:55Z</time>
      </trkpt>
      <trkpt lat="42.3783780" lon="-3.5364780">
        <ele>1043.0</ele>
        <time>2022-08-29T12:29:56Z</time>
      </trkpt>
      <trkpt lat="42.3783710" lon="-3.5364950">
        <ele>1042.6</ele>
        <time>2022-08-29T12:29:57Z</time>
      </trkpt>
      <trkpt lat="42.3783670" lon="-3.5365160">
        <ele>1042.2</ele>
        <time>2022-08-29T12:29:58Z</time>
      </trkpt>
      <trkpt lat="42.3783570" lon="-3.5365410">
        <ele>1041.8</ele>
        <time>2022-08-29T12:29:59Z</time>
      </trkpt>
      <trkpt lat="42.3783390" lon="-3.5365670">
        <ele>1041.8</ele>
        <time>2022-08-29T12:30:00Z</time>
      </trkpt>
      <trkpt lat="42.3783180" lon="-3.5365910">
        <ele>1041.4</ele>
        <time>2022-08-29T12:30:01Z</time>
      </trkpt>
      <trkpt lat="42.3782970" lon="-3.5366180">
        <ele>1041.0</ele>
        <time>2022-08-29T12:30:02Z</time>
      </trkpt>
      <trkpt lat="42.3782770" lon="-3.5366530">
        <ele>1041.0</ele>
        <time>2022-08-29T12:30:03Z</time>
      </trkpt>
      <trkpt lat="42.3782610" lon="-3.5366960">
        <ele>1040.8</ele>
        <time>2022-08-29T12:30:04Z</time>
      </trkpt>
      <trkpt lat="42.3782480" lon="-3.5367480">
        <ele>1040.8</ele>
        <time>2022-08-29T12:30:05Z</time>
      </trkpt>
      <trkpt lat="42.3782320" lon="-3.5367990">
        <ele>1040.6</ele>
        <time>2022-08-29T12:30:06Z</time>
      </trkpt>
      <trkpt lat="42.3782110" lon="-3.5368490">
        <ele>1040.4</ele>
        <time>2022-08-29T12:30:07Z</time>
      </trkpt>
      <trkpt lat="42.3781820" lon="-3.5368990">
        <ele>1040.2</ele>
        <time>2022-08-29T12:30:08Z</time>
      </trkpt>
      <trkpt lat="42.3781450" lon="-3.5369490">
        <ele>1040.2</ele>
        <time>2022-08-29T12:30:09Z</time>
      </trkpt>
      <trkpt lat="42.3781050" lon="-3.5370000">
        <ele>1040.2</ele>
        <time>2022-08-29T12:30:10Z</time>
      </trkpt>
      <trkpt lat="42.3780660" lon="-3.5370500">
        <ele>1040.0</ele>
        <time>2022-08-29T12:30:11Z</time>
      </trkpt>
      <trkpt lat="42.3780320" lon="-3.5371010">
        <ele>1039.0</ele>
        <time>2022-08-29T12:30:12Z</time>
      </trkpt>
      <trkpt lat="42.3780010" lon="-3.5371540">
        <ele>1038.4</ele>
        <time>2022-08-29T12:30:13Z</time>
      </trkpt>
      <trkpt lat="42.3779750" lon="-3.5372060">
        <ele>1037.6</ele>
        <time>2022-08-29T12:30:14Z</time>
      </trkpt>
      <trkpt lat="42.3779500" lon="-3.5372610">
        <ele>1037.2</ele>
        <time>2022-08-29T12:30:15Z</time>
      </trkpt>
      <trkpt lat="42.3779250" lon="-3.5373150">
        <ele>1036.4</ele>
        <time>2022-08-29T12:30:16Z</time>
      </trkpt>
      <trkpt lat="42.3779020" lon="-3.5373630">
        <ele>1035.6</ele>
        <time>2022-08-29T12:30:17Z</time>
      </trkpt>
      <trkpt lat="42.3778820" lon="-3.5374070">
        <ele>1034.8</ele>
        <time>2022-08-29T12:30:18Z</time>
      </trkpt>
      <trkpt lat="42.3778620" lon="-3.5374470">
        <ele>1034.6</ele>
        <time>2022-08-29T12:30:19Z</time>
      </trkpt>
      <trkpt lat="42.3778420" lon="-3.5374860">
        <ele>1034.0</ele>
        <time>2022-08-29T12:30:20Z</time>
      </trkpt>
      <trkpt lat="42.3778180" lon="-3.5375230">
        <ele>1033.6</ele>
        <time>2022-08-29T12:30:21Z</time>
      </trkpt>
      <trkpt lat="42.3777960" lon="-3.5375620">
        <ele>1032.8</ele>
        <time>2022-08-29T12:30:22Z</time>
      </trkpt>
      <trkpt lat="42.3777750" lon="-3.5376010">
        <ele>1032.6</ele>
        <time>2022-08-29T12:30:23Z</time>
      </trkpt>
      <trkpt lat="42.3777550" lon="-3.5376420">
        <ele>1032.0</ele>
        <time>2022-08-29T12:30:24Z</time>
      </trkpt>
      <trkpt lat="42.3777330" lon="-3.5376840">
        <ele>1031.6</ele>
        <time>2022-08-29T12:30:25Z</time>
      </trkpt>
      <trkpt lat="42.3777090" lon="-3.5377280">
        <ele>1031.2</ele>
        <time>2022-08-29T12:30:26Z</time>
      </trkpt>
      <trkpt lat="42.3776840" lon="-3.5377750">
        <ele>1031.2</ele>
        <time>2022-08-29T12:30:27Z</time>
      </trkpt>
      <trkpt lat="42.3776540" lon="-3.5378210">
        <ele>1030.8</ele>
        <time>2022-08-29T12:30:28Z</time>
      </trkpt>
      <trkpt lat="42.3776210" lon="-3.5378700">
        <ele>1030.6</ele>
        <time>2022-08-29T12:30:29Z</time>
      </trkpt>
      <trkpt lat="42.3775900" lon="-3.5379220">
        <ele>1030.4</ele>
        <time>2022-08-29T12:30:30Z</time>
      </trkpt>
      <trkpt lat="42.3775620" lon="-3.5379800">
        <ele>1030.2</ele>
        <time>2022-08-29T12:30:31Z</time>
      </trkpt>
      <trkpt lat="42.3775390" lon="-3.5380420">
        <ele>1029.8</ele>
        <time>2022-08-29T12:30:32Z</time>
      </trkpt>
      <trkpt lat="42.3775200" lon="-3.5381070">
        <ele>1029.2</ele>
        <time>2022-08-29T12:30:33Z</time>
      </trkpt>
      <trkpt lat="42.3775050" lon="-3.5381760">
        <ele>1028.6</ele>
        <time>2022-08-29T12:30:34Z</time>
      </trkpt>
      <trkpt lat="42.3774940" lon="-3.5382490">
        <ele>1027.4</ele>
        <time>2022-08-29T12:30:35Z</time>
      </trkpt>
      <trkpt lat="42.3774850" lon="-3.5383240">
        <ele>1026.6</ele>
        <time>2022-08-29T12:30:36Z</time>
      </trkpt>
      <trkpt lat="42.3774790" lon="-3.5384020">
        <ele>1026.2</ele>
        <time>2022-08-29T12:30:37Z</time>
      </trkpt>
      <trkpt lat="42.3774720" lon="-3.5384760">
        <ele>1025.8</ele>
        <time>2022-08-29T12:30:38Z</time>
      </trkpt>
      <trkpt lat="42.3774600" lon="-3.5385500">
        <ele>1025.0</ele>
        <time>2022-08-29T12:30:39Z</time>
      </trkpt>
      <trkpt lat="42.3774450" lon="-3.5386190">
        <ele>1024.2</ele>
        <time>2022-08-29T12:30:40Z</time>
      </trkpt>
      <trkpt lat="42.3774350" lon="-3.5386880">
        <ele>1023.6</ele>
        <time>2022-08-29T12:30:41Z</time>
      </trkpt>
      <trkpt lat="42.3774300" lon="-3.5387540">
        <ele>1023.0</ele>
        <time>2022-08-29T12:30:42Z</time>
      </trkpt>
      <trkpt lat="42.3774200" lon="-3.5388170">
        <ele>1022.6</ele>
        <time>2022-08-29T12:30:43Z</time>
      </trkpt>
      <trkpt lat="42.3774060" lon="-3.5388800">
        <ele>1022.4</ele>
        <time>2022-08-29T12:30:44Z</time>
      </trkpt>
      <trkpt lat="42.3773880" lon="-3.5389440">
        <ele>1022.4</ele>
        <time>2022-08-29T12:30:45Z</time>
      </trkpt>
      <trkpt lat="42.3773640" lon="-3.5390040">
        <ele>1020.6</ele>
        <time>2022-08-29T12:30:46Z</time>
      </trkpt>
      <trkpt lat="42.3773410" lon="-3.5390660">
        <ele>1019.6</ele>
        <time>2022-08-29T12:30:47Z</time>
      </trkpt>
      <trkpt lat="42.3773180" lon="-3.5391350">
        <ele>1019.0</ele>
        <time>2022-08-29T12:30:48Z</time>
      </trkpt>
      <trkpt lat="42.3772950" lon="-3.5392130">
        <ele>1018.4</ele>
        <time>2022-08-29T12:30:49Z</time>
      </trkpt>
      <trkpt lat="42.3772740" lon="-3.5392960">
        <ele>1017.8</ele>
        <time>2022-08-29T12:30:50Z</time>
      </trkpt>
      <trkpt lat="42.3772530" lon="-3.5393780">
        <ele>1017.4</ele>
        <time>2022-08-29T12:30:51Z</time>
      </trkpt>
      <trkpt lat="42.3772410" lon="-3.5394620">
        <ele>1017.4</ele>
        <time>2022-08-29T12:30:52Z</time>
      </trkpt>
      <trkpt lat="42.3772360" lon="-3.5395480">
        <ele>1017.2</ele>
        <time>2022-08-29T12:30:53Z</time>
      </trkpt>
      <trkpt lat="42.3772330" lon="-3.5396290">
        <ele>1016.2</ele>
        <time>2022-08-29T12:30:54Z</time>
      </trkpt>
      <trkpt lat="42.3772310" lon="-3.5397060">
        <ele>1015.4</ele>
        <time>2022-08-29T12:30:55Z</time>
      </trkpt>
      <trkpt lat="42.3772300" lon="-3.5397790">
        <ele>1015.0</ele>
        <time>2022-08-29T12:30:56Z</time>
      </trkpt>
      <trkpt lat="42.3772270" lon="-3.5398490">
        <ele>1013.6</ele>
        <time>2022-08-29T12:30:57Z</time>
      </trkpt>
      <trkpt lat="42.3772220" lon="-3.5399170">
        <ele>1012.8</ele>
        <time>2022-08-29T12:30:58Z</time>
      </trkpt>
      <trkpt lat="42.3772160" lon="-3.5399780">
        <ele>1011.6</ele>
        <time>2022-08-29T12:30:59Z</time>
      </trkpt>
      <trkpt lat="42.3772110" lon="-3.5400370">
        <ele>1011.2</ele>
        <time>2022-08-29T12:31:00Z</time>
      </trkpt>
      <trkpt lat="42.3772100" lon="-3.5400920">
        <ele>1010.4</ele>
        <time>2022-08-29T12:31:01Z</time>
      </trkpt>
      <trkpt lat="42.3772110" lon="-3.5401450">
        <ele>1010.0</ele>
        <time>2022-08-29T12:31:02Z</time>
      </trkpt>
      <trkpt lat="42.3772110" lon="-3.5401940">
        <ele>1009.0</ele>
        <time>2022-08-29T12:31:03Z</time>
      </trkpt>
      <trkpt lat="42.3772100" lon="-3.5402400">
        <ele>1008.2</ele>
        <time>2022-08-29T12:31:04Z</time>
      </trkpt>
      <trkpt lat="42.3772080" lon="-3.5402840">
        <ele>1006.8</ele>
        <time>2022-08-29T12:31:05Z</time>
      </trkpt>
      <trkpt lat="42.3772060" lon="-3.5403280">
        <ele>1006.2</ele>
        <time>2022-08-29T12:31:06Z</time>
      </trkpt>
      <trkpt lat="42.3772070" lon="-3.5403770">
        <ele>1005.8</ele>
        <time>2022-08-29T12:31:07Z</time>
      </trkpt>
      <trkpt lat="42.3772090" lon="-3.5404340">
        <ele>1005.0</ele>
        <time>2022-08-29T12:31:08Z</time>
      </trkpt>
      <trkpt lat="42.3772110" lon="-3.5404970">
        <ele>1004.8</ele>
        <time>2022-08-29T12:31:09Z</time>
      </trkpt>
      <trkpt lat="42.3772160" lon="-3.5405680">
        <ele>1004.4</ele>
        <time>2022-08-29T12:31:10Z</time>
      </trkpt>
      <trkpt lat="42.3772200" lon="-3.5406430">
        <ele>1004.2</ele>
        <time>2022-08-29T12:31:11Z</time>
      </trkpt>
      <trkpt lat="42.3772230" lon="-3.5407250">
        <ele>1004.0</ele>
        <time>2022-08-29T12:31:12Z</time>
      </trkpt>
      <trkpt lat="42.3772280" lon="-3.5408150">
        <ele>1003.2</ele>
        <time>2022-08-29T12:31:13Z</time>
      </trkpt>
      <trkpt lat="42.3772380" lon="-3.5409120">
        <ele>1003.0</ele>
        <time>2022-08-29T12:31:14Z</time>
      </trkpt>
      <trkpt lat="42.3772550" lon="-3.5410210">
        <ele>1002.6</ele>
        <time>2022-08-29T12:31:15Z</time>
      </trkpt>
      <trkpt lat="42.3772750" lon="-3.5411320">
        <ele>1002.6</ele>
        <time>2022-08-29T12:31:16Z</time>
      </trkpt>
      <trkpt lat="42.3772950" lon="-3.5412440">
        <ele>1002.6</ele>
        <time>2022-08-29T12:31:17Z</time>
      </trkpt>
      <trkpt lat="42.3773080" lon="-3.5413550">
        <ele>1001.6</ele>
        <time>2022-08-29T12:31:18Z</time>
      </trkpt>
      <trkpt lat="42.3773010" lon="-3.5414700">
        <ele>1000.6</ele>
        <time>2022-08-29T12:31:19Z</time>
      </trkpt>
      <trkpt lat="42.3772820" lon="-3.5415820">
        <ele>1000.2</ele>
        <time>2022-08-29T12:31:20Z</time>
      </trkpt>
      <trkpt lat="42.3772590" lon="-3.5416880">
        <ele>1000.0</ele>
        <time>2022-08-29T12:31:21Z</time>
      </trkpt>
      <trkpt lat="42.3772320" lon="-3.5417920">
        <ele>999.2</ele>
        <time>2022-08-29T12:31:22Z</time>
      </trkpt>
      <trkpt lat="42.3772080" lon="-3.5418950">
        <ele>998.0</ele>
        <time>2022-08-29T12:31:23Z</time>
      </trkpt>
      <trkpt lat="42.3771870" lon="-3.5419980">
        <ele>996.6</ele>
        <time>2022-08-29T12:31:24Z</time>
      </trkpt>
      <trkpt lat="42.3771710" lon="-3.5421020">
        <ele>995.8</ele>
        <time>2022-08-29T12:31:25Z</time>
      </trkpt>
      <trkpt lat="42.3771670" lon="-3.5422040">
        <ele>995.4</ele>
        <time>2022-08-29T12:31:26Z</time>
      </trkpt>
      <trkpt lat="42.3771700" lon="-3.5423050">
        <ele>994.6</ele>
        <time>2022-08-29T12:31:27Z</time>
      </trkpt>
      <trkpt lat="42.3771760" lon="-3.5424050">
        <ele>994.0</ele>
        <time>2022-08-29T12:31:28Z</time>
      </trkpt>
      <trkpt lat="42.3771840" lon="-3.5425030">
        <ele>993.6</ele>
        <time>2022-08-29T12:31:29Z</time>
      </trkpt>
      <trkpt lat="42.3771930" lon="-3.5426010">
        <ele>993.4</ele>
        <time>2022-08-29T12:31:30Z</time>
      </trkpt>
      <trkpt lat="42.3771990" lon="-3.5426970">
        <ele>993.2</ele>
        <time>2022-08-29T12:31:31Z</time>
      </trkpt>
      <trkpt lat="42.3772050" lon="-3.5427940">
        <ele>993.2</ele>
        <time>2022-08-29T12:31:32Z</time>
      </trkpt>
      <trkpt lat="42.3772090" lon="-3.5428900">
        <ele>993.0</ele>
        <time>2022-08-29T12:31:33Z</time>
      </trkpt>
      <trkpt lat="42.3772120" lon="-3.5429850">
        <ele>992.8</ele>
        <time>2022-08-29T12:31:34Z</time>
      </trkpt>
      <trkpt lat="42.3772150" lon="-3.5430810">
        <ele>992.6</ele>
        <time>2022-08-29T12:31:35Z</time>
      </trkpt>
      <trkpt lat="42.3772190" lon="-3.5431790">
        <ele>992.6</ele>
        <time>2022-08-29T12:31:36Z</time>
      </trkpt>
      <trkpt lat="42.3772220" lon="-3.5432790">
        <ele>992.4</ele>
        <time>2022-08-29T12:31:37Z</time>
      </trkpt>
      <trkpt lat="42.3772260" lon="-3.5433790">
        <ele>992.4</ele>
        <time>2022-08-29T12:31:38Z</time>
      </trkpt>
      <trkpt lat="42.3772300" lon="-3.5434810">
        <ele>992.4</ele>
        <time>2022-08-29T12:31:39Z</time>
      </trkpt>
      <trkpt lat="42.3772330" lon="-3.5435830">
        <ele>992.2</ele>
        <time>2022-08-29T12:31:40Z</time>
      </trkpt>
      <trkpt lat="42.3772360" lon="-3.5436890">
        <ele>992.2</ele>
        <time>2022-08-29T12:31:41Z</time>
      </trkpt>
      <trkpt lat="42.3772400" lon="-3.5437970">
        <ele>992.0</ele>
        <time>2022-08-29T12:31:42Z</time>
      </trkpt>
      <trkpt lat="42.3772430" lon="-3.5439090">
        <ele>992.0</ele>
        <time>2022-08-29T12:31:43Z</time>
      </trkpt>
      <trkpt lat="42.3772440" lon="-3.5440240">
        <ele>991.8</ele>
        <time>2022-08-29T12:31:44Z</time>
      </trkpt>
      <trkpt lat="42.3772430" lon="-3.5441410">
        <ele>991.8</ele>
        <time>2022-08-29T12:31:45Z</time>
      </trkpt>
      <trkpt lat="42.3772450" lon="-3.5442580">
        <ele>991.8</ele>
        <time>2022-08-29T12:31:46Z</time>
      </trkpt>
      <trkpt lat="42.3772490" lon="-3.5443770">
        <ele>991.4</ele>
        <time>2022-08-29T12:31:47Z</time>
      </trkpt>
      <trkpt lat="42.3772520" lon="-3.5444980">
        <ele>991.4</ele>
        <time>2022-08-29T12:31:48Z</time>
      </trkpt>
      <trkpt lat="42.3772550" lon="-3.5446180">
        <ele>991.0</ele>
        <time>2022-08-29T12:31:49Z</time>
      </trkpt>
      <trkpt lat="42.3772560" lon="-3.5447380">
        <ele>990.4</ele>
        <time>2022-08-29T12:31:50Z</time>
      </trkpt>
      <trkpt lat="42.3772570" lon="-3.5448580">
        <ele>990.4</ele>
        <time>2022-08-29T12:31:51Z</time>
      </trkpt>
      <trkpt lat="42.3772560" lon="-3.5449780">
        <ele>990.2</ele>
        <time>2022-08-29T12:31:52Z</time>
      </trkpt>
      <trkpt lat="42.3772490" lon="-3.5450930">
        <ele>989.6</ele>
        <time>2022-08-29T12:31:53Z</time>
      </trkpt>
      <trkpt lat="42.3772350" lon="-3.5452020">
        <ele>988.6</ele>
        <time>2022-08-29T12:31:54Z</time>
      </trkpt>
      <trkpt lat="42.3772120" lon="-3.5453080">
        <ele>988.2</ele>
        <time>2022-08-29T12:31:55Z</time>
      </trkpt>
      <trkpt lat="42.3771870" lon="-3.5454090">
        <ele>987.8</ele>
        <time>2022-08-29T12:31:56Z</time>
      </trkpt>
      <trkpt lat="42.3771640" lon="-3.5455040">
        <ele>987.4</ele>
        <time>2022-08-29T12:31:57Z</time>
      </trkpt>
      <trkpt lat="42.3771430" lon="-3.5455950">
        <ele>987.2</ele>
        <time>2022-08-29T12:31:58Z</time>
      </trkpt>
      <trkpt lat="42.3771230" lon="-3.5456840">
        <ele>987.2</ele>
        <time>2022-08-29T12:31:59Z</time>
      </trkpt>
      <trkpt lat="42.3771030" lon="-3.5457730">
        <ele>987.2</ele>
        <time>2022-08-29T12:32:00Z</time>
      </trkpt>
      <trkpt lat="42.3770820" lon="-3.5458610">
        <ele>987.0</ele>
        <time>2022-08-29T12:32:01Z</time>
      </trkpt>
      <trkpt lat="42.3770600" lon="-3.5459480">
        <ele>987.0</ele>
        <time>2022-08-29T12:32:02Z</time>
      </trkpt>
      <trkpt lat="42.3770380" lon="-3.5460350">
        <ele>987.0</ele>
        <time>2022-08-29T12:32:03Z</time>
      </trkpt>
      <trkpt lat="42.3770160" lon="-3.5461230">
        <ele>986.8</ele>
        <time>2022-08-29T12:32:04Z</time>
      </trkpt>
      <trkpt lat="42.3769940" lon="-3.5462130">
        <ele>986.8</ele>
        <time>2022-08-29T12:32:05Z</time>
      </trkpt>
      <trkpt lat="42.3769710" lon="-3.5463040">
        <ele>986.8</ele>
        <time>2022-08-29T12:32:06Z</time>
      </trkpt>
      <trkpt lat="42.3769480" lon="-3.5463960">
        <ele>986.6</ele>
        <time>2022-08-29T12:32:07Z</time>
      </trkpt>
      <trkpt lat="42.3769260" lon="-3.5464880">
        <ele>986.6</ele>
        <time>2022-08-29T12:32:08Z</time>
      </trkpt>
      <trkpt lat="42.3769030" lon="-3.5465820">
        <ele>986.6</ele>
        <time>2022-08-29T12:32:09Z</time>
      </trkpt>
      <trkpt lat="42.3768810" lon="-3.5466760">
        <ele>986.4</ele>
        <time>2022-08-29T12:32:10Z</time>
      </trkpt>
      <trkpt lat="42.3768590" lon="-3.5467710">
        <ele>986.4</ele>
        <time>2022-08-29T12:32:11Z</time>
      </trkpt>
      <trkpt lat="42.3768370" lon="-3.5468660">
        <ele>986.4</ele>
        <time>2022-08-29T12:32:12Z</time>
      </trkpt>
      <trkpt lat="42.3768140" lon="-3.5469620">
        <ele>986.4</ele>
        <time>2022-08-29T12:32:13Z</time>
      </trkpt>
      <trkpt lat="42.3767910" lon="-3.5470590">
        <ele>986.4</ele>
        <time>2022-08-29T12:32:14Z</time>
      </trkpt>
      <trkpt lat="42.3767680" lon="-3.5471580">
        <ele>986.2</ele>
        <time>2022-08-29T12:32:15Z</time>
      </trkpt>
      <trkpt lat="42.3767440" lon="-3.5472570">
        <ele>986.0</ele>
        <time>2022-08-29T12:32:16Z</time>
      </trkpt>
      <trkpt lat="42.3767200" lon="-3.5473570">
        <ele>985.8</ele>
        <time>2022-08-29T12:32:17Z</time>
      </trkpt>
      <trkpt lat="42.3766950" lon="-3.5474570">
        <ele>985.8</ele>
        <time>2022-08-29T12:32:18Z</time>
      </trkpt>
      <trkpt lat="42.3766700" lon="-3.5475580">
        <ele>985.4</ele>
        <time>2022-08-29T12:32:19Z</time>
      </trkpt>
      <trkpt lat="42.3766440" lon="-3.5476580">
        <ele>985.2</ele>
        <time>2022-08-29T12:32:20Z</time>
      </trkpt>
      <trkpt lat="42.3766190" lon="-3.5477570">
        <ele>985.0</ele>
        <time>2022-08-29T12:32:21Z</time>
      </trkpt>
      <trkpt lat="42.3765930" lon="-3.5478530">
        <ele>985.0</ele>
        <time>2022-08-29T12:32:22Z</time>
      </trkpt>
      <trkpt lat="42.3765670" lon="-3.5479500">
        <ele>984.8</ele>
        <time>2022-08-29T12:32:23Z</time>
      </trkpt>
      <trkpt lat="42.3765410" lon="-3.5480470">
        <ele>984.6</ele>
        <time>2022-08-29T12:32:24Z</time>
      </trkpt>
      <trkpt lat="42.3765140" lon="-3.5481440">
        <ele>984.2</ele>
        <time>2022-08-29T12:32:25Z</time>
      </trkpt>
      <trkpt lat="42.3764860" lon="-3.5482400">
        <ele>984.2</ele>
        <time>2022-08-29T12:32:26Z</time>
      </trkpt>
      <trkpt lat="42.3764610" lon="-3.5483350">
        <ele>983.8</ele>
        <time>2022-08-29T12:32:27Z</time>
      </trkpt>
      <trkpt lat="42.3764380" lon="-3.5484300">
        <ele>983.4</ele>
        <time>2022-08-29T12:32:28Z</time>
      </trkpt>
      <trkpt lat="42.3764200" lon="-3.5485270">
        <ele>983.4</ele>
        <time>2022-08-29T12:32:29Z</time>
      </trkpt>
      <trkpt lat="42.3764030" lon="-3.5486210">
        <ele>983.4</ele>
        <time>2022-08-29T12:32:30Z</time>
      </trkpt>
      <trkpt lat="42.3763830" lon="-3.5487140">
        <ele>983.2</ele>
        <time>2022-08-29T12:32:31Z</time>
      </trkpt>
      <trkpt lat="42.3763610" lon="-3.5488050">
        <ele>982.8</ele>
        <time>2022-08-29T12:32:32Z</time>
      </trkpt>
      <trkpt lat="42.3763390" lon="-3.5488960">
        <ele>982.6</ele>
        <time>2022-08-29T12:32:33Z</time>
      </trkpt>
      <trkpt lat="42.3763150" lon="-3.5489840">
        <ele>982.6</ele>
        <time>2022-08-29T12:32:34Z</time>
      </trkpt>
      <trkpt lat="42.3762900" lon="-3.5490700">
        <ele>982.4</ele>
        <time>2022-08-29T12:32:35Z</time>
      </trkpt>
      <trkpt lat="42.3762650" lon="-3.5491550">
        <ele>982.0</ele>
        <time>2022-08-29T12:32:36Z</time>
      </trkpt>
      <trkpt lat="42.3762390" lon="-3.5492390">
        <ele>981.8</ele>
        <time>2022-08-29T12:32:37Z</time>
      </trkpt>
      <trkpt lat="42.3762140" lon="-3.5493220">
        <ele>981.6</ele>
        <time>2022-08-29T12:32:38Z</time>
      </trkpt>
      <trkpt lat="42.3761910" lon="-3.5494050">
        <ele>981.2</ele>
        <time>2022-08-29T12:32:39Z</time>
      </trkpt>
      <trkpt lat="42.3761670" lon="-3.5494870">
        <ele>981.2</ele>
        <time>2022-08-29T12:32:40Z</time>
      </trkpt>
      <trkpt lat="42.3761410" lon="-3.5495670">
        <ele>980.8</ele>
        <time>2022-08-29T12:32:41Z</time>
      </trkpt>
      <trkpt lat="42.3761160" lon="-3.5496470">
        <ele>980.6</ele>
        <time>2022-08-29T12:32:42Z</time>
      </trkpt>
      <trkpt lat="42.3760920" lon="-3.5497260">
        <ele>980.4</ele>
        <time>2022-08-29T12:32:43Z</time>
      </trkpt>
      <trkpt lat="42.3760690" lon="-3.5498050">
        <ele>980.2</ele>
        <time>2022-08-29T12:32:44Z</time>
      </trkpt>
      <trkpt lat="42.3760450" lon="-3.5498820">
        <ele>980.0</ele>
        <time>2022-08-29T12:32:45Z</time>
      </trkpt>
      <trkpt lat="42.3760200" lon="-3.5499580">
        <ele>979.8</ele>
        <time>2022-08-29T12:32:46Z</time>
      </trkpt>
      <trkpt lat="42.3759950" lon="-3.5500310">
        <ele>979.8</ele>
        <time>2022-08-29T12:32:47Z</time>
      </trkpt>
      <trkpt lat="42.3759710" lon="-3.5501050">
        <ele>979.8</ele>
        <time>2022-08-29T12:32:48Z</time>
      </trkpt>
      <trkpt lat="42.3759470" lon="-3.5501790">
        <ele>979.8</ele>
        <time>2022-08-29T12:32:49Z</time>
      </trkpt>
      <trkpt lat="42.3759210" lon="-3.5502540">
        <ele>979.6</ele>
        <time>2022-08-29T12:32:50Z</time>
      </trkpt>
      <trkpt lat="42.3758950" lon="-3.5503290">
        <ele>979.2</ele>
        <time>2022-08-29T12:32:51Z</time>
      </trkpt>
      <trkpt lat="42.3758690" lon="-3.5504020">
        <ele>979.0</ele>
        <time>2022-08-29T12:32:52Z</time>
      </trkpt>
      <trkpt lat="42.3758430" lon="-3.5504770">
        <ele>978.8</ele>
        <time>2022-08-29T12:32:53Z</time>
      </trkpt>
      <trkpt lat="42.3758160" lon="-3.5505470">
        <ele>978.6</ele>
        <time>2022-08-29T12:32:54Z</time>
      </trkpt>
      <trkpt lat="42.3757920" lon="-3.5506190">
        <ele>978.4</ele>
        <time>2022-08-29T12:32:55Z</time>
      </trkpt>
      <trkpt lat="42.3757690" lon="-3.5506910">
        <ele>978.4</ele>
        <time>2022-08-29T12:32:56Z</time>
      </trkpt>
      <trkpt lat="42.3757450" lon="-3.5507630">
        <ele>978.4</ele>
        <time>2022-08-29T12:32:57Z</time>
      </trkpt>
      <trkpt lat="42.3757210" lon="-3.5508340">
        <ele>978.4</ele>
        <time>2022-08-29T12:32:58Z</time>
      </trkpt>
      <trkpt lat="42.3756890" lon="-3.5509000">
        <ele>978.2</ele>
        <time>2022-08-29T12:32:59Z</time>
      </trkpt>
      <trkpt lat="42.3756530" lon="-3.5509590">
        <ele>978.0</ele>
        <time>2022-08-29T12:33:00Z</time>
      </trkpt>
      <trkpt lat="42.3756130" lon="-3.5510160">
        <ele>977.8</ele>
        <time>2022-08-29T12:33:01Z</time>
      </trkpt>
      <trkpt lat="42.3755680" lon="-3.5510690">
        <ele>977.4</ele>
        <time>2022-08-29T12:33:02Z</time>
      </trkpt>
      <trkpt lat="42.3755190" lon="-3.5511220">
        <ele>977.4</ele>
        <time>2022-08-29T12:33:03Z</time>
      </trkpt>
      <trkpt lat="42.3754710" lon="-3.5511770">
        <ele>977.2</ele>
        <time>2022-08-29T12:33:04Z</time>
      </trkpt>
      <trkpt lat="42.3754200" lon="-3.5512330">
        <ele>977.0</ele>
        <time>2022-08-29T12:33:05Z</time>
      </trkpt>
      <trkpt lat="42.3753680" lon="-3.5512900">
        <ele>976.8</ele>
        <time>2022-08-29T12:33:06Z</time>
      </trkpt>
      <trkpt lat="42.3753140" lon="-3.5513500">
        <ele>976.8</ele>
        <time>2022-08-29T12:33:07Z</time>
      </trkpt>
      <trkpt lat="42.3752600" lon="-3.5514120">
        <ele>976.6</ele>
        <time>2022-08-29T12:33:08Z</time>
      </trkpt>
      <trkpt lat="42.3752060" lon="-3.5514760">
        <ele>976.2</ele>
        <time>2022-08-29T12:33:09Z</time>
      </trkpt>
      <trkpt lat="42.3751510" lon="-3.5515440">
        <ele>975.6</ele>
        <time>2022-08-29T12:33:10Z</time>
      </trkpt>
      <trkpt lat="42.3750970" lon="-3.5516130">
        <ele>975.6</ele>
        <time>2022-08-29T12:33:11Z</time>
      </trkpt>
      <trkpt lat="42.3750430" lon="-3.5516830">
        <ele>975.4</ele>
        <time>2022-08-29T12:33:12Z</time>
      </trkpt>
      <trkpt lat="42.3749890" lon="-3.5517560">
        <ele>975.2</ele>
        <time>2022-08-29T12:33:13Z</time>
      </trkpt>
      <trkpt lat="42.3749370" lon="-3.5518310">
        <ele>975.2</ele>
        <time>2022-08-29T12:33:14Z</time>
      </trkpt>
      <trkpt lat="42.3748860" lon="-3.5519090">
        <ele>975.0</ele>
        <time>2022-08-29T12:33:15Z</time>
      </trkpt>
      <trkpt lat="42.3748350" lon="-3.5519880">
        <ele>975.0</ele>
        <time>2022-08-29T12:33:16Z</time>
      </trkpt>
      <trkpt lat="42.3747860" lon="-3.5520720">
        <ele>974.6</ele>
        <time>2022-08-29T12:33:17Z</time>
      </trkpt>
      <trkpt lat="42.3747370" lon="-3.5521580">
        <ele>974.2</ele>
        <time>2022-08-29T12:33:18Z</time>
      </trkpt>
      <trkpt lat="42.3746880" lon="-3.5522440">
        <ele>973.6</ele>
        <time>2022-08-29T12:33:19Z</time>
      </trkpt>
      <trkpt lat="42.3746390" lon="-3.5523320">
        <ele>973.2</ele>
        <time>2022-08-29T12:33:20Z</time>
      </trkpt>
      <trkpt lat="42.3745920" lon="-3.5524210">
        <ele>973.0</ele>
        <time>2022-08-29T12:33:21Z</time>
      </trkpt>
      <trkpt lat="42.3745460" lon="-3.5525130">
        <ele>972.8</ele>
        <time>2022-08-29T12:33:22Z</time>
      </trkpt>
      <trkpt lat="42.3745010" lon="-3.5526070">
        <ele>972.8</ele>
        <time>2022-08-29T12:33:23Z</time>
      </trkpt>
      <trkpt lat="42.3744560" lon="-3.5527030">
        <ele>972.4</ele>
        <time>2022-08-29T12:33:24Z</time>
      </trkpt>
      <trkpt lat="42.3744110" lon="-3.5528000">
        <ele>972.4</ele>
        <time>2022-08-29T12:33:25Z</time>
      </trkpt>
      <trkpt lat="42.3743650" lon="-3.5528980">
        <ele>971.8</ele>
        <time>2022-08-29T12:33:26Z</time>
      </trkpt>
      <trkpt lat="42.3743180" lon="-3.5529980">
        <ele>971.6</ele>
        <time>2022-08-29T12:33:27Z</time>
      </trkpt>
      <trkpt lat="42.3742710" lon="-3.5530990">
        <ele>971.2</ele>
        <time>2022-08-29T12:33:28Z</time>
      </trkpt>
      <trkpt lat="42.3742240" lon="-3.5532000">
        <ele>971.2</ele>
        <time>2022-08-29T12:33:29Z</time>
      </trkpt>
      <trkpt lat="42.3741770" lon="-3.5533030">
        <ele>970.8</ele>
        <time>2022-08-29T12:33:30Z</time>
      </trkpt>
      <trkpt lat="42.3741300" lon="-3.5534070">
        <ele>970.8</ele>
        <time>2022-08-29T12:33:31Z</time>
      </trkpt>
      <trkpt lat="42.3740840" lon="-3.5535120">
        <ele>970.0</ele>
        <time>2022-08-29T12:33:32Z</time>
      </trkpt>
      <trkpt lat="42.3740390" lon="-3.5536180">
        <ele>969.6</ele>
        <time>2022-08-29T12:33:33Z</time>
      </trkpt>
      <trkpt lat="42.3740000" lon="-3.5537270">
        <ele>969.6</ele>
        <time>2022-08-29T12:33:34Z</time>
      </trkpt>
      <trkpt lat="42.3739620" lon="-3.5538370">
        <ele>969.2</ele>
        <time>2022-08-29T12:33:35Z</time>
      </trkpt>
      <trkpt lat="42.3739300" lon="-3.5539470">
        <ele>969.0</ele>
        <time>2022-08-29T12:33:36Z</time>
      </trkpt>
      <trkpt lat="42.3739040" lon="-3.5540530">
        <ele>968.6</ele>
        <time>2022-08-29T12:33:37Z</time>
      </trkpt>
      <trkpt lat="42.3738750" lon="-3.5541380">
        <ele>968.4</ele>
        <time>2022-08-29T12:33:38Z</time>
      </trkpt>
      <trkpt lat="42.3738400" lon="-3.5541920">
        <ele>968.0</ele>
        <time>2022-08-29T12:33:39Z</time>
      </trkpt>
      <trkpt lat="42.3738040" lon="-3.5542160">
        <ele>967.4</ele>
        <time>2022-08-29T12:33:40Z</time>
      </trkpt>
      <trkpt lat="42.3737650" lon="-3.5542110">
        <ele>967.0</ele>
        <time>2022-08-29T12:33:41Z</time>
      </trkpt>
      <trkpt lat="42.3737180" lon="-3.5541890">
        <ele>966.4</ele>
        <time>2022-08-29T12:33:42Z</time>
      </trkpt>
      <trkpt lat="42.3736640" lon="-3.5541650">
        <ele>966.0</ele>
        <time>2022-08-29T12:33:43Z</time>
      </trkpt>
      <trkpt lat="42.3736020" lon="-3.5541410">
        <ele>965.8</ele>
        <time>2022-08-29T12:33:44Z</time>
      </trkpt>
      <trkpt lat="42.3735350" lon="-3.5541130">
        <ele>965.6</ele>
        <time>2022-08-29T12:33:45Z</time>
      </trkpt>
      <trkpt lat="42.3734670" lon="-3.5540830">
        <ele>965.0</ele>
        <time>2022-08-29T12:33:46Z</time>
      </trkpt>
      <trkpt lat="42.3733960" lon="-3.5540540">
        <ele>964.6</ele>
        <time>2022-08-29T12:33:47Z</time>
      </trkpt>
      <trkpt lat="42.3733220" lon="-3.5540260">
        <ele>964.4</ele>
        <time>2022-08-29T12:33:48Z</time>
      </trkpt>
      <trkpt lat="42.3732450" lon="-3.5539960">
        <ele>964.2</ele>
        <time>2022-08-29T12:33:49Z</time>
      </trkpt>
      <trkpt lat="42.3731650" lon="-3.5539710">
        <ele>964.0</ele>
        <time>2022-08-29T12:33:50Z</time>
      </trkpt>
      <trkpt lat="42.3730800" lon="-3.5539520">
        <ele>963.6</ele>
        <time>2022-08-29T12:33:51Z</time>
      </trkpt>
      <trkpt lat="42.3729950" lon="-3.5539410">
        <ele>963.2</ele>
        <time>2022-08-29T12:33:52Z</time>
      </trkpt>
      <trkpt lat="42.3729100" lon="-3.5539330">
        <ele>962.6</ele>
        <time>2022-08-29T12:33:53Z</time>
      </trkpt>
      <trkpt lat="42.3728250" lon="-3.5539280">
        <ele>961.8</ele>
        <time>2022-08-29T12:33:54Z</time>
      </trkpt>
      <trkpt lat="42.3727400" lon="-3.5539220">
        <ele>961.0</ele>
        <time>2022-08-29T12:33:55Z</time>
      </trkpt>
      <trkpt lat="42.3726550" lon="-3.5539140">
        <ele>960.2</ele>
        <time>2022-08-29T12:33:56Z</time>
      </trkpt>
      <trkpt lat="42.3725690" lon="-3.5539040">
        <ele>959.4</ele>
        <time>2022-08-29T12:33:57Z</time>
      </trkpt>
      <trkpt lat="42.3724830" lon="-3.5538930">
        <ele>959.4</ele>
        <time>2022-08-29T12:33:58Z</time>
      </trkpt>
      <trkpt lat="42.3723940" lon="-3.5538830">
        <ele>958.4</ele>
        <time>2022-08-29T12:33:59Z</time>
      </trkpt>
      <trkpt lat="42.3723050" lon="-3.5538720">
        <ele>957.8</ele>
        <time>2022-08-29T12:34:00Z</time>
      </trkpt>
      <trkpt lat="42.3722140" lon="-3.5538620">
        <ele>957.0</ele>
        <time>2022-08-29T12:34:01Z</time>
      </trkpt>
      <trkpt lat="42.3721200" lon="-3.5538560">
        <ele>956.4</ele>
        <time>2022-08-29T12:34:02Z</time>
      </trkpt>
      <trkpt lat="42.3720240" lon="-3.5538560">
        <ele>955.6</ele>
        <time>2022-08-29T12:34:03Z</time>
      </trkpt>
      <trkpt lat="42.3719270" lon="-3.5538630">
        <ele>955.0</ele>
        <time>2022-08-29T12:34:04Z</time>
      </trkpt>
      <trkpt lat="42.3718280" lon="-3.5538820">
        <ele>954.6</ele>
        <time>2022-08-29T12:34:05Z</time>
      </trkpt>
      <trkpt lat="42.3717280" lon="-3.5539120">
        <ele>954.2</ele>
        <time>2022-08-29T12:34:06Z</time>
      </trkpt>
      <trkpt lat="42.3716260" lon="-3.5539490">
        <ele>953.6</ele>
        <time>2022-08-29T12:34:07Z</time>
      </trkpt>
      <trkpt lat="42.3715220" lon="-3.5539940">
        <ele>953.4</ele>
        <time>2022-08-29T12:34:08Z</time>
      </trkpt>
      <trkpt lat="42.3714180" lon="-3.5540500">
        <ele>952.2</ele>
        <time>2022-08-29T12:34:09Z</time>
      </trkpt>
      <trkpt lat="42.3713160" lon="-3.5541160">
        <ele>951.2</ele>
        <time>2022-08-29T12:34:10Z</time>
      </trkpt>
      <trkpt lat="42.3712160" lon="-3.5541870">
        <ele>949.8</ele>
        <time>2022-08-29T12:34:11Z</time>
      </trkpt>
      <trkpt lat="42.3711180" lon="-3.5542600">
        <ele>949.0</ele>
        <time>2022-08-29T12:34:12Z</time>
      </trkpt>
      <trkpt lat="42.3710210" lon="-3.5543320">
        <ele>948.4</ele>
        <time>2022-08-29T12:34:13Z</time>
      </trkpt>
      <trkpt lat="42.3709260" lon="-3.5544020">
        <ele>947.8</ele>
        <time>2022-08-29T12:34:14Z</time>
      </trkpt>
      <trkpt lat="42.3708300" lon="-3.5544670">
        <ele>946.6</ele>
        <time>2022-08-29T12:34:15Z</time>
      </trkpt>
      <trkpt lat="42.3707320" lon="-3.5545220">
        <ele>945.8</ele>
        <time>2022-08-29T12:34:16Z</time>
      </trkpt>
      <trkpt lat="42.3706310" lon="-3.5545670">
        <ele>944.6</ele>
        <time>2022-08-29T12:34:17Z</time>
      </trkpt>
      <trkpt lat="42.3705270" lon="-3.5546000">
        <ele>943.2</ele>
        <time>2022-08-29T12:34:18Z</time>
      </trkpt>
      <trkpt lat="42.3704200" lon="-3.5546160">
        <ele>941.8</ele>
        <time>2022-08-29T12:34:19Z</time>
      </trkpt>
      <trkpt lat="42.3703110" lon="-3.5546170">
        <ele>940.6</ele>
        <time>2022-08-29T12:34:20Z</time>
      </trkpt>
      <trkpt lat="42.3702020" lon="-3.5546010">
        <ele>939.6</ele>
        <time>2022-08-29T12:34:21Z</time>
      </trkpt>
      <trkpt lat="42.3700960" lon="-3.5545660">
        <ele>939.6</ele>
        <time>2022-08-29T12:34:22Z</time>
      </trkpt>
      <trkpt lat="42.3699940" lon="-3.5545190">
        <ele>938.6</ele>
        <time>2022-08-29T12:34:23Z</time>
      </trkpt>
      <trkpt lat="42.3698940" lon="-3.5544630">
        <ele>938.0</ele>
        <time>2022-08-29T12:34:24Z</time>
      </trkpt>
      <trkpt lat="42.3697980" lon="-3.5544030">
        <ele>937.4</ele>
        <time>2022-08-29T12:34:25Z</time>
      </trkpt>
      <trkpt lat="42.3697100" lon="-3.5543460">
        <ele>936.8</ele>
        <time>2022-08-29T12:34:26Z</time>
      </trkpt>
      <trkpt lat="42.3696300" lon="-3.5542970">
        <ele>936.6</ele>
        <time>2022-08-29T12:34:27Z</time>
      </trkpt>
      <trkpt lat="42.3695550" lon="-3.5542570">
        <ele>935.6</ele>
        <time>2022-08-29T12:34:28Z</time>
      </trkpt>
      <trkpt lat="42.3694840" lon="-3.5542310">
        <ele>934.6</ele>
        <time>2022-08-29T12:34:29Z</time>
      </trkpt>
      <trkpt lat="42.3694130" lon="-3.5542310">
        <ele>933.8</ele>
        <time>2022-08-29T12:34:30Z</time>
      </trkpt>
      <trkpt lat="42.3693400" lon="-3.5542620">
        <ele>932.8</ele>
        <time>2022-08-29T12:34:31Z</time>
      </trkpt>
      <trkpt lat="42.3692700" lon="-3.5543260">
        <ele>932.0</ele>
        <time>2022-08-29T12:34:32Z</time>
      </trkpt>
      <trkpt lat="42.3692090" lon="-3.5544190">
        <ele>931.0</ele>
        <time>2022-08-29T12:34:33Z</time>
      </trkpt>
      <trkpt lat="42.3691560" lon="-3.5545330">
        <ele>930.6</ele>
        <time>2022-08-29T12:34:34Z</time>
      </trkpt>
      <trkpt lat="42.3691040" lon="-3.5546500">
        <ele>930.0</ele>
        <time>2022-08-29T12:34:35Z</time>
      </trkpt>
      <trkpt lat="42.3690500" lon="-3.5547700">
        <ele>929.6</ele>
        <time>2022-08-29T12:34:36Z</time>
      </trkpt>
      <trkpt lat="42.3690020" lon="-3.5548890">
        <ele>929.2</ele>
        <time>2022-08-29T12:34:37Z</time>
      </trkpt>
      <trkpt lat="42.3689560" lon="-3.5550050">
        <ele>928.8</ele>
        <time>2022-08-29T12:34:38Z</time>
      </trkpt>
      <trkpt lat="42.3689100" lon="-3.5551170">
        <ele>928.6</ele>
        <time>2022-08-29T12:34:39Z</time>
      </trkpt>
      <trkpt lat="42.3688660" lon="-3.5552260">
        <ele>928.0</ele>
        <time>2022-08-29T12:34:40Z</time>
      </trkpt>
      <trkpt lat="42.3688240" lon="-3.5553310">
        <ele>926.4</ele>
        <time>2022-08-29T12:34:41Z</time>
      </trkpt>
      <trkpt lat="42.3687800" lon="-3.5554330">
        <ele>925.0</ele>
        <time>2022-08-29T12:34:42Z</time>
      </trkpt>
      <trkpt lat="42.3687380" lon="-3.5555370">
        <ele>923.8</ele>
        <time>2022-08-29T12:34:43Z</time>
      </trkpt>
      <trkpt lat="42.3686960" lon="-3.5556410">
        <ele>922.4</ele>
        <time>2022-08-29T12:34:44Z</time>
      </trkpt>
      <trkpt lat="42.3686510" lon="-3.5557430">
        <ele>921.2</ele>
        <time>2022-08-29T12:34:45Z</time>
      </trkpt>
      <trkpt lat="42.3686010" lon="-3.5558440">
        <ele>921.2</ele>
        <time>2022-08-29T12:34:46Z</time>
      </trkpt>
      <trkpt lat="42.3685500" lon="-3.5559420">
        <ele>920.6</ele>
        <time>2022-08-29T12:34:47Z</time>
      </trkpt>
      <trkpt lat="42.3685000" lon="-3.5560430">
        <ele>920.2</ele>
        <time>2022-08-29T12:34:48Z</time>
      </trkpt>
      <trkpt lat="42.3684500" lon="-3.5561450">
        <ele>920.0</ele>
        <time>2022-08-29T12:34:49Z</time>
      </trkpt>
      <trkpt lat="42.3683960" lon="-3.5562470">
        <ele>919.8</ele>
        <time>2022-08-29T12:34:50Z</time>
      </trkpt>
      <trkpt lat="42.3683400" lon="-3.5563470">
        <ele>919.8</ele>
        <time>2022-08-29T12:34:51Z</time>
      </trkpt>
      <trkpt lat="42.3682800" lon="-3.5564440">
        <ele>919.4</ele>
        <time>2022-08-29T12:34:52Z</time>
      </trkpt>
      <trkpt lat="42.3682190" lon="-3.5565350">
        <ele>919.4</ele>
        <time>2022-08-29T12:34:53Z</time>
      </trkpt>
      <trkpt lat="42.3681550" lon="-3.5566230">
        <ele>919.4</ele>
        <time>2022-08-29T12:34:54Z</time>
      </trkpt>
      <trkpt lat="42.3680920" lon="-3.5567090">
        <ele>919.2</ele>
        <time>2022-08-29T12:34:55Z</time>
      </trkpt>
      <trkpt lat="42.3680280" lon="-3.5567930">
        <ele>919.0</ele>
        <time>2022-08-29T12:34:56Z</time>
      </trkpt>
      <trkpt lat="42.3679640" lon="-3.5568780">
        <ele>918.8</ele>
        <time>2022-08-29T12:34:57Z</time>
      </trkpt>
      <trkpt lat="42.3679010" lon="-3.5569610">
        <ele>918.8</ele>
        <time>2022-08-29T12:34:58Z</time>
      </trkpt>
      <trkpt lat="42.3678360" lon="-3.5570420">
        <ele>918.6</ele>
        <time>2022-08-29T12:34:59Z</time>
      </trkpt>
      <trkpt lat="42.3677690" lon="-3.5571190">
        <ele>918.2</ele>
        <time>2022-08-29T12:35:00Z</time>
      </trkpt>
      <trkpt lat="42.3676990" lon="-3.5571910">
        <ele>917.8</ele>
        <time>2022-08-29T12:35:01Z</time>
      </trkpt>
      <trkpt lat="42.3676250" lon="-3.5572560">
        <ele>917.8</ele>
        <time>2022-08-29T12:35:02Z</time>
      </trkpt>
      <trkpt lat="42.3675480" lon="-3.5573120">
        <ele>917.8</ele>
        <time>2022-08-29T12:35:03Z</time>
      </trkpt>
      <trkpt lat="42.3674660" lon="-3.5573560">
        <ele>917.6</ele>
        <time>2022-08-29T12:35:04Z</time>
      </trkpt>
      <trkpt lat="42.3673830" lon="-3.5573930">
        <ele>917.6</ele>
        <time>2022-08-29T12:35:05Z</time>
      </trkpt>
      <trkpt lat="42.3672980" lon="-3.5574250">
        <ele>917.4</ele>
        <time>2022-08-29T12:35:06Z</time>
      </trkpt>
      <trkpt lat="42.3672120" lon="-3.5574510">
        <ele>917.2</ele>
        <time>2022-08-29T12:35:07Z</time>
      </trkpt>
      <trkpt lat="42.3671260" lon="-3.5574740">
        <ele>917.2</ele>
        <time>2022-08-29T12:35:08Z</time>
      </trkpt>
      <trkpt lat="42.3670400" lon="-3.5574960">
        <ele>917.2</ele>
        <time>2022-08-29T12:35:09Z</time>
      </trkpt>
      <trkpt lat="42.3669540" lon="-3.5575150">
        <ele>917.2</ele>
        <time>2022-08-29T12:35:10Z</time>
      </trkpt>
      <trkpt lat="42.3668680" lon="-3.5575270">
        <ele>917.2</ele>
        <time>2022-08-29T12:35:11Z</time>
      </trkpt>
      <trkpt lat="42.3667820" lon="-3.5575310">
        <ele>917.0</ele>
        <time>2022-08-29T12:35:12Z</time>
      </trkpt>
      <trkpt lat="42.3666960" lon="-3.5575300">
        <ele>916.8</ele>
        <time>2022-08-29T12:35:13Z</time>
      </trkpt>
      <trkpt lat="42.3666090" lon="-3.5575250">
        <ele>916.4</ele>
        <time>2022-08-29T12:35:14Z</time>
      </trkpt>
      <trkpt lat="42.3665230" lon="-3.5575200">
        <ele>916.2</ele>
        <time>2022-08-29T12:35:15Z</time>
      </trkpt>
      <trkpt lat="42.3664370" lon="-3.5575150">
        <ele>915.8</ele>
        <time>2022-08-29T12:35:16Z</time>
      </trkpt>
      <trkpt lat="42.3663520" lon="-3.5575080">
        <ele>915.6</ele>
        <time>2022-08-29T12:35:17Z</time>
      </trkpt>
      <trkpt lat="42.3662680" lon="-3.5574990">
        <ele>915.4</ele>
        <time>2022-08-29T12:35:18Z</time>
      </trkpt>
      <trkpt lat="42.3661840" lon="-3.5574920">
        <ele>915.0</ele>
        <time>2022-08-29T12:35:19Z</time>
      </trkpt>
      <trkpt lat="42.3661020" lon="-3.5574840">
        <ele>915.0</ele>
        <time>2022-08-29T12:35:20Z</time>
      </trkpt>
      <trkpt lat="42.3660180" lon="-3.5574780">
        <ele>914.6</ele>
        <time>2022-08-29T12:35:21Z</time>
      </trkpt>
      <trkpt lat="42.3659350" lon="-3.5574730">
        <ele>914.4</ele>
        <time>2022-08-29T12:35:22Z</time>
      </trkpt>
      <trkpt lat="42.3658510" lon="-3.5574680">
        <ele>914.4</ele>
        <time>2022-08-29T12:35:23Z</time>
      </trkpt>
      <trkpt lat="42.3657680" lon="-3.5574620">
        <ele>914.2</ele>
        <time>2022-08-29T12:35:24Z</time>
      </trkpt>
      <trkpt lat="42.3656850" lon="-3.5574530">
        <ele>914.0</ele>
        <time>2022-08-29T12:35:25Z</time>
      </trkpt>
      <trkpt lat="42.3656020" lon="-3.5574400">
        <ele>913.8</ele>
        <time>2022-08-29T12:35:26Z</time>
      </trkpt>
      <trkpt lat="42.3655200" lon="-3.5574220">
        <ele>913.6</ele>
        <time>2022-08-29T12:35:27Z</time>
      </trkpt>
      <trkpt lat="42.3654380" lon="-3.5573990">
        <ele>913.6</ele>
        <time>2022-08-29T12:35:28Z</time>
      </trkpt>
      <trkpt lat="42.3653560" lon="-3.5573710">
        <ele>913.4</ele>
        <time>2022-08-29T12:35:29Z</time>
      </trkpt>
      <trkpt lat="42.3652750" lon="-3.5573370">
        <ele>913.4</ele>
        <time>2022-08-29T12:35:30Z</time>
      </trkpt>
      <trkpt lat="42.3651950" lon="-3.5572990">
        <ele>913.4</ele>
        <time>2022-08-29T12:35:31Z</time>
      </trkpt>
      <trkpt lat="42.3651160" lon="-3.5572580">
        <ele>913.2</ele>
        <time>2022-08-29T12:35:32Z</time>
      </trkpt>
      <trkpt lat="42.3650370" lon="-3.5572150">
        <ele>913.2</ele>
        <time>2022-08-29T12:35:33Z</time>
      </trkpt>
      <trkpt lat="42.3649590" lon="-3.5571710">
        <ele>913.2</ele>
        <time>2022-08-29T12:35:34Z</time>
      </trkpt>
      <trkpt lat="42.3648820" lon="-3.5571250">
        <ele>913.0</ele>
        <time>2022-08-29T12:35:35Z</time>
      </trkpt>
      <trkpt lat="42.3648060" lon="-3.5570770">
        <ele>912.8</ele>
        <time>2022-08-29T12:35:36Z</time>
      </trkpt>
      <trkpt lat="42.3647300" lon="-3.5570280">
        <ele>912.6</ele>
        <time>2022-08-29T12:35:37Z</time>
      </trkpt>
      <trkpt lat="42.3646560" lon="-3.5569790">
        <ele>912.2</ele>
        <time>2022-08-29T12:35:38Z</time>
      </trkpt>
      <trkpt lat="42.3645810" lon="-3.5569300">
        <ele>912.0</ele>
        <time>2022-08-29T12:35:39Z</time>
      </trkpt>
      <trkpt lat="42.3645080" lon="-3.5568790">
        <ele>911.8</ele>
        <time>2022-08-29T12:35:40Z</time>
      </trkpt>
      <trkpt lat="42.3644370" lon="-3.5568250">
        <ele>911.6</ele>
        <time>2022-08-29T12:35:41Z</time>
      </trkpt>
      <trkpt lat="42.3643680" lon="-3.5567680">
        <ele>911.4</ele>
        <time>2022-08-29T12:35:42Z</time>
      </trkpt>
      <trkpt lat="42.3643010" lon="-3.5567070">
        <ele>911.2</ele>
        <time>2022-08-29T12:35:43Z</time>
      </trkpt>
      <trkpt lat="42.3642370" lon="-3.5566430">
        <ele>911.0</ele>
        <time>2022-08-29T12:35:44Z</time>
      </trkpt>
      <trkpt lat="42.3641740" lon="-3.5565770">
        <ele>910.6</ele>
        <time>2022-08-29T12:35:45Z</time>
      </trkpt>
      <trkpt lat="42.3641120" lon="-3.5565120">
        <ele>910.4</ele>
        <time>2022-08-29T12:35:46Z</time>
      </trkpt>
      <trkpt lat="42.3640500" lon="-3.5564460">
        <ele>910.2</ele>
        <time>2022-08-29T12:35:47Z</time>
      </trkpt>
      <trkpt lat="42.3639890" lon="-3.5563800">
        <ele>910.0</ele>
        <time>2022-08-29T12:35:48Z</time>
      </trkpt>
      <trkpt lat="42.3639290" lon="-3.5563140">
        <ele>910.0</ele>
        <time>2022-08-29T12:35:49Z</time>
      </trkpt>
      <trkpt lat="42.3638690" lon="-3.5562470">
        <ele>909.8</ele>
        <time>2022-08-29T12:35:50Z</time>
      </trkpt>
      <trkpt lat="42.3638090" lon="-3.5561830">
        <ele>909.6</ele>
        <time>2022-08-29T12:35:51Z</time>
      </trkpt>
      <trkpt lat="42.3637500" lon="-3.5561200">
        <ele>909.6</ele>
        <time>2022-08-29T12:35:52Z</time>
      </trkpt>
      <trkpt lat="42.3636910" lon="-3.5560560">
        <ele>909.0</ele>
        <time>2022-08-29T12:35:53Z</time>
      </trkpt>
      <trkpt lat="42.3636320" lon="-3.5559930">
        <ele>908.8</ele>
        <time>2022-08-29T12:35:54Z</time>
      </trkpt>
      <trkpt lat="42.3635730" lon="-3.5559310">
        <ele>908.8</ele>
        <time>2022-08-29T12:35:55Z</time>
      </trkpt>
      <trkpt lat="42.3635130" lon="-3.5558690">
        <ele>908.6</ele>
        <time>2022-08-29T12:35:56Z</time>
      </trkpt>
      <trkpt lat="42.3634530" lon="-3.5558070">
        <ele>908.6</ele>
        <time>2022-08-29T12:35:57Z</time>
      </trkpt>
      <trkpt lat="42.3633900" lon="-3.5557470">
        <ele>908.6</ele>
        <time>2022-08-29T12:35:58Z</time>
      </trkpt>
      <trkpt lat="42.3633270" lon="-3.5556880">
        <ele>908.4</ele>
        <time>2022-08-29T12:35:59Z</time>
      </trkpt>
      <trkpt lat="42.3632630" lon="-3.5556300">
        <ele>908.4</ele>
        <time>2022-08-29T12:36:00Z</time>
      </trkpt>
      <trkpt lat="42.3631970" lon="-3.5555740">
        <ele>908.4</ele>
        <time>2022-08-29T12:36:01Z</time>
      </trkpt>
      <trkpt lat="42.3631280" lon="-3.5555250">
        <ele>908.4</ele>
        <time>2022-08-29T12:36:02Z</time>
      </trkpt>
      <trkpt lat="42.3630560" lon="-3.5554860">
        <ele>908.4</ele>
        <time>2022-08-29T12:36:03Z</time>
      </trkpt>
      <trkpt lat="42.3629820" lon="-3.5554560">
        <ele>908.4</ele>
        <time>2022-08-29T12:36:04Z</time>
      </trkpt>
      <trkpt lat="42.3629060" lon="-3.5554380">
        <ele>908.0</ele>
        <time>2022-08-29T12:36:05Z</time>
      </trkpt>
      <trkpt lat="42.3628310" lon="-3.5554320">
        <ele>907.6</ele>
        <time>2022-08-29T12:36:06Z</time>
      </trkpt>
      <trkpt lat="42.3627560" lon="-3.5554330">
        <ele>907.6</ele>
        <time>2022-08-29T12:36:07Z</time>
      </trkpt>
      <trkpt lat="42.3626810" lon="-3.5554400">
        <ele>907.2</ele>
        <time>2022-08-29T12:36:08Z</time>
      </trkpt>
      <trkpt lat="42.3626070" lon="-3.5554510">
        <ele>906.8</ele>
        <time>2022-08-29T12:36:09Z</time>
      </trkpt>
      <trkpt lat="42.3625330" lon="-3.5554630">
        <ele>906.6</ele>
        <time>2022-08-29T12:36:10Z</time>
      </trkpt>
      <trkpt lat="42.3624600" lon="-3.5554750">
        <ele>906.4</ele>
        <time>2022-08-29T12:36:11Z</time>
      </trkpt>
      <trkpt lat="42.3623890" lon="-3.5554900">
        <ele>906.0</ele>
        <time>2022-08-29T12:36:12Z</time>
      </trkpt>
      <trkpt lat="42.3623190" lon="-3.5555080">
        <ele>905.8</ele>
        <time>2022-08-29T12:36:13Z</time>
      </trkpt>
      <trkpt lat="42.3622490" lon="-3.5555260">
        <ele>905.8</ele>
        <time>2022-08-29T12:36:14Z</time>
      </trkpt>
      <trkpt lat="42.3621800" lon="-3.5555460">
        <ele>905.8</ele>
        <time>2022-08-29T12:36:15Z</time>
      </trkpt>
      <trkpt lat="42.3621120" lon="-3.5555650">
        <ele>905.6</ele>
        <time>2022-08-29T12:36:16Z</time>
      </trkpt>
      <trkpt lat="42.3620440" lon="-3.5555850">
        <ele>905.4</ele>
        <time>2022-08-29T12:36:17Z</time>
      </trkpt>
      <trkpt lat="42.3619770" lon="-3.5556050">
        <ele>905.4</ele>
        <time>2022-08-29T12:36:18Z</time>
      </trkpt>
      <trkpt lat="42.3619110" lon="-3.5556270">
        <ele>905.2</ele>
        <time>2022-08-29T12:36:19Z</time>
      </trkpt>
      <trkpt lat="42.3618470" lon="-3.5556520">
        <ele>905.2</ele>
        <time>2022-08-29T12:36:20Z</time>
      </trkpt>
      <trkpt lat="42.3617870" lon="-3.5556800">
        <ele>905.2</ele>
        <time>2022-08-29T12:36:21Z</time>
      </trkpt>
      <trkpt lat="42.3617280" lon="-3.5557090">
        <ele>905.2</ele>
        <time>2022-08-29T12:36:22Z</time>
      </trkpt>
      <trkpt lat="42.3616730" lon="-3.5557400">
        <ele>905.2</ele>
        <time>2022-08-29T12:36:23Z</time>
      </trkpt>
      <trkpt lat="42.3616200" lon="-3.5557720">
        <ele>905.0</ele>
        <time>2022-08-29T12:36:24Z</time>
      </trkpt>
      <trkpt lat="42.3615700" lon="-3.5558070">
        <ele>905.0</ele>
        <time>2022-08-29T12:36:25Z</time>
      </trkpt>
      <trkpt lat="42.3615230" lon="-3.5558430">
        <ele>905.0</ele>
        <time>2022-08-29T12:36:26Z</time>
      </trkpt>
      <trkpt lat="42.3614790" lon="-3.5558780">
        <ele>905.0</ele>
        <time>2022-08-29T12:36:27Z</time>
      </trkpt>
      <trkpt lat="42.3614380" lon="-3.5559140">
        <ele>905.0</ele>
        <time>2022-08-29T12:36:28Z</time>
      </trkpt>
      <trkpt lat="42.3613970" lon="-3.5559520">
        <ele>905.0</ele>
        <time>2022-08-29T12:36:29Z</time>
      </trkpt>
      <trkpt lat="42.3613570" lon="-3.5559900">
        <ele>905.0</ele>
        <time>2022-08-29T12:36:30Z</time>
      </trkpt>
      <trkpt lat="42.3613180" lon="-3.5560280">
        <ele>905.2</ele>
        <time>2022-08-29T12:36:31Z</time>
      </trkpt>
      <trkpt lat="42.3612780" lon="-3.5560660">
        <ele>905.2</ele>
        <time>2022-08-29T12:36:32Z</time>
      </trkpt>
      <trkpt lat="42.3612370" lon="-3.5561050">
        <ele>905.4</ele>
        <time>2022-08-29T12:36:33Z</time>
      </trkpt>
      <trkpt lat="42.3611950" lon="-3.5561460">
        <ele>905.4</ele>
        <time>2022-08-29T12:36:34Z</time>
      </trkpt>
      <trkpt lat="42.3611520" lon="-3.5561890">
        <ele>905.6</ele>
        <time>2022-08-29T12:36:35Z</time>
      </trkpt>
      <trkpt lat="42.3611070" lon="-3.5562360">
        <ele>905.4</ele>
        <time>2022-08-29T12:36:36Z</time>
      </trkpt>
      <trkpt lat="42.3610600" lon="-3.5562840">
        <ele>905.4</ele>
        <time>2022-08-29T12:36:37Z</time>
      </trkpt>
      <trkpt lat="42.3610130" lon="-3.5563310">
        <ele>905.6</ele>
        <time>2022-08-29T12:36:38Z</time>
      </trkpt>
      <trkpt lat="42.3609660" lon="-3.5563770">
        <ele>905.4</ele>
        <time>2022-08-29T12:36:39Z</time>
      </trkpt>
      <trkpt lat="42.3609180" lon="-3.5564220">
        <ele>905.4</ele>
        <time>2022-08-29T12:36:40Z</time>
      </trkpt>
      <trkpt lat="42.3608680" lon="-3.5564680">
        <ele>905.4</ele>
        <time>2022-08-29T12:36:41Z</time>
      </trkpt>
      <trkpt lat="42.3608180" lon="-3.5565150">
        <ele>905.4</ele>
        <time>2022-08-29T12:36:42Z</time>
      </trkpt>
      <trkpt lat="42.3607700" lon="-3.5565640">
        <ele>905.4</ele>
        <time>2022-08-29T12:36:43Z</time>
      </trkpt>
      <trkpt lat="42.3607230" lon="-3.5566170">
        <ele>905.6</ele>
        <time>2022-08-29T12:36:44Z</time>
      </trkpt>
      <trkpt lat="42.3606790" lon="-3.5566730">
        <ele>905.4</ele>
        <time>2022-08-29T12:36:45Z</time>
      </trkpt>
      <trkpt lat="42.3606350" lon="-3.5567290">
        <ele>905.4</ele>
        <time>2022-08-29T12:36:46Z</time>
      </trkpt>
      <trkpt lat="42.3605890" lon="-3.5567840">
        <ele>905.4</ele>
        <time>2022-08-29T12:36:47Z</time>
      </trkpt>
      <trkpt lat="42.3605430" lon="-3.5568360">
        <ele>905.4</ele>
        <time>2022-08-29T12:36:48Z</time>
      </trkpt>
      <trkpt lat="42.3604970" lon="-3.5568880">
        <ele>905.0</ele>
        <time>2022-08-29T12:36:49Z</time>
      </trkpt>
      <trkpt lat="42.3604510" lon="-3.5569380">
        <ele>904.8</ele>
        <time>2022-08-29T12:36:50Z</time>
      </trkpt>
      <trkpt lat="42.3604070" lon="-3.5569910">
        <ele>904.8</ele>
        <time>2022-08-29T12:36:51Z</time>
      </trkpt>
      <trkpt lat="42.3603680" lon="-3.5570490">
        <ele>904.2</ele>
        <time>2022-08-29T12:36:52Z</time>
      </trkpt>
      <trkpt lat="42.3603310" lon="-3.5571070">
        <ele>904.0</ele>
        <time>2022-08-29T12:36:53Z</time>
      </trkpt>
      <trkpt lat="42.3602960" lon="-3.5571680">
        <ele>903.8</ele>
        <time>2022-08-29T12:36:54Z</time>
      </trkpt>
      <trkpt lat="42.3602630" lon="-3.5572320">
        <ele>903.6</ele>
        <time>2022-08-29T12:36:55Z</time>
      </trkpt>
      <trkpt lat="42.3602320" lon="-3.5572990">
        <ele>903.4</ele>
        <time>2022-08-29T12:36:56Z</time>
      </trkpt>
      <trkpt lat="42.3602040" lon="-3.5573690">
        <ele>903.4</ele>
        <time>2022-08-29T12:36:57Z</time>
      </trkpt>
      <trkpt lat="42.3601790" lon="-3.5574430">
        <ele>903.2</ele>
        <time>2022-08-29T12:36:58Z</time>
      </trkpt>
      <trkpt lat="42.3601550" lon="-3.5575200">
        <ele>903.0</ele>
        <time>2022-08-29T12:36:59Z</time>
      </trkpt>
      <trkpt lat="42.3601310" lon="-3.5575970">
        <ele>902.6</ele>
        <time>2022-08-29T12:37:00Z</time>
      </trkpt>
      <trkpt lat="42.3601040" lon="-3.5576730">
        <ele>902.6</ele>
        <time>2022-08-29T12:37:01Z</time>
      </trkpt>
      <trkpt lat="42.3600740" lon="-3.5577470">
        <ele>902.4</ele>
        <time>2022-08-29T12:37:02Z</time>
      </trkpt>
      <trkpt lat="42.3600470" lon="-3.5578210">
        <ele>902.4</ele>
        <time>2022-08-29T12:37:03Z</time>
      </trkpt>
      <trkpt lat="42.3600210" lon="-3.5578960">
        <ele>902.2</ele>
        <time>2022-08-29T12:37:04Z</time>
      </trkpt>
      <trkpt lat="42.3599980" lon="-3.5579730">
        <ele>902.2</ele>
        <time>2022-08-29T12:37:05Z</time>
      </trkpt>
      <trkpt lat="42.3599790" lon="-3.5580500">
        <ele>902.0</ele>
        <time>2022-08-29T12:37:06Z</time>
      </trkpt>
      <trkpt lat="42.3599590" lon="-3.5581280">
        <ele>902.0</ele>
        <time>2022-08-29T12:37:07Z</time>
      </trkpt>
      <trkpt lat="42.3599390" lon="-3.5582060">
        <ele>902.0</ele>
        <time>2022-08-29T12:37:08Z</time>
      </trkpt>
      <trkpt lat="42.3599180" lon="-3.5582840">
        <ele>901.8</ele>
        <time>2022-08-29T12:37:09Z</time>
      </trkpt>
      <trkpt lat="42.3598960" lon="-3.5583610">
        <ele>901.8</ele>
        <time>2022-08-29T12:37:10Z</time>
      </trkpt>
      <trkpt lat="42.3598730" lon="-3.5584360">
        <ele>901.8</ele>
        <time>2022-08-29T12:37:11Z</time>
      </trkpt>
      <trkpt lat="42.3598490" lon="-3.5585110">
        <ele>902.0</ele>
        <time>2022-08-29T12:37:12Z</time>
      </trkpt>
      <trkpt lat="42.3598250" lon="-3.5585870">
        <ele>902.0</ele>
        <time>2022-08-29T12:37:13Z</time>
      </trkpt>
      <trkpt lat="42.3598010" lon="-3.5586630">
        <ele>901.8</ele>
        <time>2022-08-29T12:37:14Z</time>
      </trkpt>
      <trkpt lat="42.3597760" lon="-3.5587380">
        <ele>902.0</ele>
        <time>2022-08-29T12:37:15Z</time>
      </trkpt>
      <trkpt lat="42.3597500" lon="-3.5588120">
        <ele>902.0</ele>
        <time>2022-08-29T12:37:16Z</time>
      </trkpt>
      <trkpt lat="42.3597240" lon="-3.5588870">
        <ele>901.8</ele>
        <time>2022-08-29T12:37:17Z</time>
      </trkpt>
      <trkpt lat="42.3596970" lon="-3.5589630">
        <ele>902.0</ele>
        <time>2022-08-29T12:37:18Z</time>
      </trkpt>
      <trkpt lat="42.3596710" lon="-3.5590400">
        <ele>902.0</ele>
        <time>2022-08-29T12:37:19Z</time>
      </trkpt>
      <trkpt lat="42.3596450" lon="-3.5591190">
        <ele>901.8</ele>
        <time>2022-08-29T12:37:20Z</time>
      </trkpt>
      <trkpt lat="42.3596200" lon="-3.5591970">
        <ele>901.8</ele>
        <time>2022-08-29T12:37:21Z</time>
      </trkpt>
      <trkpt lat="42.3595940" lon="-3.5592770">
        <ele>901.8</ele>
        <time>2022-08-29T12:37:22Z</time>
      </trkpt>
      <trkpt lat="42.3595680" lon="-3.5593590">
        <ele>902.0</ele>
        <time>2022-08-29T12:37:23Z</time>
      </trkpt>
      <trkpt lat="42.3595390" lon="-3.5594400">
        <ele>901.8</ele>
        <time>2022-08-29T12:37:24Z</time>
      </trkpt>
      <trkpt lat="42.3595080" lon="-3.5595170">
        <ele>901.8</ele>
        <time>2022-08-29T12:37:25Z</time>
      </trkpt>
      <trkpt lat="42.3594730" lon="-3.5595920">
        <ele>902.0</ele>
        <time>2022-08-29T12:37:26Z</time>
      </trkpt>
      <trkpt lat="42.3594360" lon="-3.5596630">
        <ele>901.8</ele>
        <time>2022-08-29T12:37:27Z</time>
      </trkpt>
      <trkpt lat="42.3593960" lon="-3.5597320">
        <ele>901.6</ele>
        <time>2022-08-29T12:37:28Z</time>
      </trkpt>
      <trkpt lat="42.3593540" lon="-3.5597930">
        <ele>901.6</ele>
        <time>2022-08-29T12:37:29Z</time>
      </trkpt>
      <trkpt lat="42.3593120" lon="-3.5598520">
        <ele>901.4</ele>
        <time>2022-08-29T12:37:30Z</time>
      </trkpt>
      <trkpt lat="42.3592720" lon="-3.5599130">
        <ele>901.4</ele>
        <time>2022-08-29T12:37:31Z</time>
      </trkpt>
      <trkpt lat="42.3592360" lon="-3.5599780">
        <ele>901.2</ele>
        <time>2022-08-29T12:37:32Z</time>
      </trkpt>
      <trkpt lat="42.3592010" lon="-3.5600430">
        <ele>901.2</ele>
        <time>2022-08-29T12:37:33Z</time>
      </trkpt>
      <trkpt lat="42.3591670" lon="-3.5601080">
        <ele>901.2</ele>
        <time>2022-08-29T12:37:34Z</time>
      </trkpt>
      <trkpt lat="42.3591350" lon="-3.5601750">
        <ele>901.2</ele>
        <time>2022-08-29T12:37:35Z</time>
      </trkpt>
      <trkpt lat="42.3591060" lon="-3.5602450">
        <ele>901.2</ele>
        <time>2022-08-29T12:37:36Z</time>
      </trkpt>
      <trkpt lat="42.3590780" lon="-3.5603150">
        <ele>901.0</ele>
        <time>2022-08-29T12:37:37Z</time>
      </trkpt>
      <trkpt lat="42.3590510" lon="-3.5603850">
        <ele>901.0</ele>
        <time>2022-08-29T12:37:38Z</time>
      </trkpt>
      <trkpt lat="42.3590260" lon="-3.5604540">
        <ele>901.0</ele>
        <time>2022-08-29T12:37:39Z</time>
      </trkpt>
      <trkpt lat="42.3590000" lon="-3.5605230">
        <ele>901.0</ele>
        <time>2022-08-29T12:37:40Z</time>
      </trkpt>
      <trkpt lat="42.3589760" lon="-3.5605910">
        <ele>901.0</ele>
        <time>2022-08-29T12:37:41Z</time>
      </trkpt>
      <trkpt lat="42.3589540" lon="-3.5606540">
        <ele>901.0</ele>
        <time>2022-08-29T12:37:42Z</time>
      </trkpt>
      <trkpt lat="42.3589300" lon="-3.5607180">
        <ele>901.0</ele>
        <time>2022-08-29T12:37:43Z</time>
      </trkpt>
      <trkpt lat="42.3589070" lon="-3.5607810">
        <ele>901.0</ele>
        <time>2022-08-29T12:37:44Z</time>
      </trkpt>
      <trkpt lat="42.3588830" lon="-3.5608450">
        <ele>901.0</ele>
        <time>2022-08-29T12:37:45Z</time>
      </trkpt>
      <trkpt lat="42.3588580" lon="-3.5609100">
        <ele>901.2</ele>
        <time>2022-08-29T12:37:46Z</time>
      </trkpt>
      <trkpt lat="42.3588340" lon="-3.5609740">
        <ele>901.0</ele>
        <time>2022-08-29T12:37:47Z</time>
      </trkpt>
      <trkpt lat="42.3588110" lon="-3.5610400">
        <ele>901.2</ele>
        <time>2022-08-29T12:37:48Z</time>
      </trkpt>
      <trkpt lat="42.3587860" lon="-3.5611100">
        <ele>901.2</ele>
        <time>2022-08-29T12:37:49Z</time>
      </trkpt>
      <trkpt lat="42.3587610" lon="-3.5611830">
        <ele>901.2</ele>
        <time>2022-08-29T12:37:50Z</time>
      </trkpt>
      <trkpt lat="42.3587340" lon="-3.5612570">
        <ele>901.2</ele>
        <time>2022-08-29T12:37:51Z</time>
      </trkpt>
      <trkpt lat="42.3587060" lon="-3.5613310">
        <ele>901.2</ele>
        <time>2022-08-29T12:37:52Z</time>
      </trkpt>
      <trkpt lat="42.3586770" lon="-3.5614070">
        <ele>901.2</ele>
        <time>2022-08-29T12:37:53Z</time>
      </trkpt>
      <trkpt lat="42.3586480" lon="-3.5614850">
        <ele>901.2</ele>
        <time>2022-08-29T12:37:54Z</time>
      </trkpt>
      <trkpt lat="42.3586240" lon="-3.5615660">
        <ele>901.2</ele>
        <time>2022-08-29T12:37:55Z</time>
      </trkpt>
      <trkpt lat="42.3586030" lon="-3.5616510">
        <ele>901.2</ele>
        <time>2022-08-29T12:37:56Z</time>
      </trkpt>
      <trkpt lat="42.3585820" lon="-3.5617380">
        <ele>901.0</ele>
        <time>2022-08-29T12:37:57Z</time>
      </trkpt>
      <trkpt lat="42.3585610" lon="-3.5618290">
        <ele>901.0</ele>
        <time>2022-08-29T12:37:58Z</time>
      </trkpt>
      <trkpt lat="42.3585410" lon="-3.5619200">
        <ele>901.2</ele>
        <time>2022-08-29T12:37:59Z</time>
      </trkpt>
      <trkpt lat="42.3585220" lon="-3.5620120">
        <ele>901.0</ele>
        <time>2022-08-29T12:38:00Z</time>
      </trkpt>
      <trkpt lat="42.3585060" lon="-3.5621040">
        <ele>900.6</ele>
        <time>2022-08-29T12:38:01Z</time>
      </trkpt>
      <trkpt lat="42.3584950" lon="-3.5621980">
        <ele>900.4</ele>
        <time>2022-08-29T12:38:02Z</time>
      </trkpt>
      <trkpt lat="42.3584890" lon="-3.5622940">
        <ele>900.2</ele>
        <time>2022-08-29T12:38:03Z</time>
      </trkpt>
      <trkpt lat="42.3584840" lon="-3.5623890">
        <ele>899.8</ele>
        <time>2022-08-29T12:38:04Z</time>
      </trkpt>
      <trkpt lat="42.3584800" lon="-3.5624830">
        <ele>899.8</ele>
        <time>2022-08-29T12:38:05Z</time>
      </trkpt>
      <trkpt lat="42.3584790" lon="-3.5625740">
        <ele>899.6</ele>
        <time>2022-08-29T12:38:06Z</time>
      </trkpt>
      <trkpt lat="42.3584820" lon="-3.5626620">
        <ele>899.4</ele>
        <time>2022-08-29T12:38:07Z</time>
      </trkpt>
      <trkpt lat="42.3584910" lon="-3.5627490">
        <ele>899.4</ele>
        <time>2022-08-29T12:38:08Z</time>
      </trkpt>
      <trkpt lat="42.3585030" lon="-3.5628330">
        <ele>899.2</ele>
        <time>2022-08-29T12:38:09Z</time>
      </trkpt>
      <trkpt lat="42.3585180" lon="-3.5629170">
        <ele>899.2</ele>
        <time>2022-08-29T12:38:10Z</time>
      </trkpt>
      <trkpt lat="42.3585320" lon="-3.5630020">
        <ele>899.2</ele>
        <time>2022-08-29T12:38:11Z</time>
      </trkpt>
      <trkpt lat="42.3585490" lon="-3.5630880">
        <ele>899.2</ele>
        <time>2022-08-29T12:38:12Z</time>
      </trkpt>
      <trkpt lat="42.3585650" lon="-3.5631760">
        <ele>899.2</ele>
        <time>2022-08-29T12:38:13Z</time>
      </trkpt>
      <trkpt lat="42.3585820" lon="-3.5632640">
        <ele>899.2</ele>
        <time>2022-08-29T12:38:14Z</time>
      </trkpt>
      <trkpt lat="42.3585970" lon="-3.5633520">
        <ele>899.2</ele>
        <time>2022-08-29T12:38:15Z</time>
      </trkpt>
      <trkpt lat="42.3586130" lon="-3.5634400">
        <ele>899.2</ele>
        <time>2022-08-29T12:38:16Z</time>
      </trkpt>
      <trkpt lat="42.3586290" lon="-3.5635280">
        <ele>899.2</ele>
        <time>2022-08-29T12:38:17Z</time>
      </trkpt>
      <trkpt lat="42.3586460" lon="-3.5636160">
        <ele>899.2</ele>
        <time>2022-08-29T12:38:18Z</time>
      </trkpt>
      <trkpt lat="42.3586620" lon="-3.5637040">
        <ele>899.2</ele>
        <time>2022-08-29T12:38:19Z</time>
      </trkpt>
      <trkpt lat="42.3586780" lon="-3.5637910">
        <ele>899.2</ele>
        <time>2022-08-29T12:38:20Z</time>
      </trkpt>
      <trkpt lat="42.3586950" lon="-3.5638780">
        <ele>899.0</ele>
        <time>2022-08-29T12:38:21Z</time>
      </trkpt>
      <trkpt lat="42.3587130" lon="-3.5639660">
        <ele>899.0</ele>
        <time>2022-08-29T12:38:22Z</time>
      </trkpt>
      <trkpt lat="42.3587300" lon="-3.5640550">
        <ele>899.0</ele>
        <time>2022-08-29T12:38:23Z</time>
      </trkpt>
      <trkpt lat="42.3587440" lon="-3.5641440">
        <ele>899.0</ele>
        <time>2022-08-29T12:38:24Z</time>
      </trkpt>
      <trkpt lat="42.3587550" lon="-3.5642360">
        <ele>899.0</ele>
        <time>2022-08-29T12:38:25Z</time>
      </trkpt>
      <trkpt lat="42.3587620" lon="-3.5643310">
        <ele>899.0</ele>
        <time>2022-08-29T12:38:26Z</time>
      </trkpt>
      <trkpt lat="42.3587680" lon="-3.5644270">
        <ele>898.8</ele>
        <time>2022-08-29T12:38:27Z</time>
      </trkpt>
      <trkpt lat="42.3587730" lon="-3.5645240">
        <ele>898.8</ele>
        <time>2022-08-29T12:38:28Z</time>
      </trkpt>
      <trkpt lat="42.3587760" lon="-3.5646210">
        <ele>898.6</ele>
        <time>2022-08-29T12:38:29Z</time>
      </trkpt>
      <trkpt lat="42.3587770" lon="-3.5647180">
        <ele>898.6</ele>
        <time>2022-08-29T12:38:30Z</time>
      </trkpt>
      <trkpt lat="42.3587770" lon="-3.5648140">
        <ele>898.6</ele>
        <time>2022-08-29T12:38:31Z</time>
      </trkpt>
      <trkpt lat="42.3587760" lon="-3.5649120">
        <ele>898.4</ele>
        <time>2022-08-29T12:38:32Z</time>
      </trkpt>
      <trkpt lat="42.3587720" lon="-3.5650090">
        <ele>898.6</ele>
        <time>2022-08-29T12:38:33Z</time>
      </trkpt>
      <trkpt lat="42.3587660" lon="-3.5651060">
        <ele>898.4</ele>
        <time>2022-08-29T12:38:34Z</time>
      </trkpt>
      <trkpt lat="42.3587560" lon="-3.5652020">
        <ele>898.4</ele>
        <time>2022-08-29T12:38:35Z</time>
      </trkpt>
      <trkpt lat="42.3587400" lon="-3.5652980">
        <ele>898.4</ele>
        <time>2022-08-29T12:38:36Z</time>
      </trkpt>
      <trkpt lat="42.3587200" lon="-3.5653930">
        <ele>898.4</ele>
        <time>2022-08-29T12:38:37Z</time>
      </trkpt>
      <trkpt lat="42.3586980" lon="-3.5654870">
        <ele>898.4</ele>
        <time>2022-08-29T12:38:38Z</time>
      </trkpt>
      <trkpt lat="42.3586730" lon="-3.5655810">
        <ele>898.2</ele>
        <time>2022-08-29T12:38:39Z</time>
      </trkpt>
      <trkpt lat="42.3586460" lon="-3.5656740">
        <ele>898.2</ele>
        <time>2022-08-29T12:38:40Z</time>
      </trkpt>
      <trkpt lat="42.3586180" lon="-3.5657660">
        <ele>898.2</ele>
        <time>2022-08-29T12:38:41Z</time>
      </trkpt>
      <trkpt lat="42.3585890" lon="-3.5658560">
        <ele>898.0</ele>
        <time>2022-08-29T12:38:42Z</time>
      </trkpt>
      <trkpt lat="42.3585610" lon="-3.5659450">
        <ele>898.0</ele>
        <time>2022-08-29T12:38:43Z</time>
      </trkpt>
      <trkpt lat="42.3585360" lon="-3.5660360">
        <ele>897.8</ele>
        <time>2022-08-29T12:38:44Z</time>
      </trkpt>
      <trkpt lat="42.3585160" lon="-3.5661290">
        <ele>897.6</ele>
        <time>2022-08-29T12:38:45Z</time>
      </trkpt>
      <trkpt lat="42.3585020" lon="-3.5662240">
        <ele>897.6</ele>
        <time>2022-08-29T12:38:46Z</time>
      </trkpt>
      <trkpt lat="42.3584950" lon="-3.5663210">
        <ele>897.4</ele>
        <time>2022-08-29T12:38:47Z</time>
      </trkpt>
      <trkpt lat="42.3584930" lon="-3.5664180">
        <ele>897.4</ele>
        <time>2022-08-29T12:38:48Z</time>
      </trkpt>
      <trkpt lat="42.3584930" lon="-3.5665160">
        <ele>897.2</ele>
        <time>2022-08-29T12:38:49Z</time>
      </trkpt>
      <trkpt lat="42.3584930" lon="-3.5666130">
        <ele>897.2</ele>
        <time>2022-08-29T12:38:50Z</time>
      </trkpt>
      <trkpt lat="42.3584940" lon="-3.5667100">
        <ele>897.0</ele>
        <time>2022-08-29T12:38:51Z</time>
      </trkpt>
      <trkpt lat="42.3584950" lon="-3.5668070">
        <ele>897.0</ele>
        <time>2022-08-29T12:38:52Z</time>
      </trkpt>
      <trkpt lat="42.3584930" lon="-3.5669030">
        <ele>896.8</ele>
        <time>2022-08-29T12:38:53Z</time>
      </trkpt>
      <trkpt lat="42.3584910" lon="-3.5669990">
        <ele>896.6</ele>
        <time>2022-08-29T12:38:54Z</time>
      </trkpt>
      <trkpt lat="42.3584880" lon="-3.5670950">
        <ele>896.6</ele>
        <time>2022-08-29T12:38:55Z</time>
      </trkpt>
      <trkpt lat="42.3584860" lon="-3.5671890">
        <ele>896.4</ele>
        <time>2022-08-29T12:38:56Z</time>
      </trkpt>
      <trkpt lat="42.3584830" lon="-3.5672830">
        <ele>896.4</ele>
        <time>2022-08-29T12:38:57Z</time>
      </trkpt>
      <trkpt lat="42.3584810" lon="-3.5673760">
        <ele>896.2</ele>
        <time>2022-08-29T12:38:58Z</time>
      </trkpt>
      <trkpt lat="42.3584820" lon="-3.5674700">
        <ele>896.4</ele>
        <time>2022-08-29T12:38:59Z</time>
      </trkpt>
      <trkpt lat="42.3584860" lon="-3.5675630">
        <ele>896.2</ele>
        <time>2022-08-29T12:39:00Z</time>
      </trkpt>
      <trkpt lat="42.3584930" lon="-3.5676580">
        <ele>896.2</ele>
        <time>2022-08-29T12:39:01Z</time>
      </trkpt>
      <trkpt lat="42.3585010" lon="-3.5677540">
        <ele>896.2</ele>
        <time>2022-08-29T12:39:02Z</time>
      </trkpt>
      <trkpt lat="42.3585110" lon="-3.5678500">
        <ele>896.0</ele>
        <time>2022-08-29T12:39:03Z</time>
      </trkpt>
      <trkpt lat="42.3585230" lon="-3.5679440">
        <ele>896.2</ele>
        <time>2022-08-29T12:39:04Z</time>
      </trkpt>
      <trkpt lat="42.3585380" lon="-3.5680390">
        <ele>896.2</ele>
        <time>2022-08-29T12:39:05Z</time>
      </trkpt>
      <trkpt lat="42.3585550" lon="-3.5681340">
        <ele>896.0</ele>
        <time>2022-08-29T12:39:06Z</time>
      </trkpt>
      <trkpt lat="42.3585730" lon="-3.5682270">
        <ele>896.0</ele>
        <time>2022-08-29T12:39:07Z</time>
      </trkpt>
      <trkpt lat="42.3585910" lon="-3.5683200">
        <ele>896.0</ele>
        <time>2022-08-29T12:39:08Z</time>
      </trkpt>
      <trkpt lat="42.3586110" lon="-3.5684130">
        <ele>896.0</ele>
        <time>2022-08-29T12:39:09Z</time>
      </trkpt>
      <trkpt lat="42.3586310" lon="-3.5685040">
        <ele>896.0</ele>
        <time>2022-08-29T12:39:10Z</time>
      </trkpt>
      <trkpt lat="42.3586530" lon="-3.5685960">
        <ele>896.0</ele>
        <time>2022-08-29T12:39:11Z</time>
      </trkpt>
      <trkpt lat="42.3586770" lon="-3.5686880">
        <ele>896.0</ele>
        <time>2022-08-29T12:39:12Z</time>
      </trkpt>
      <trkpt lat="42.3587010" lon="-3.5687790">
        <ele>896.2</ele>
        <time>2022-08-29T12:39:13Z</time>
      </trkpt>
      <trkpt lat="42.3587250" lon="-3.5688700">
        <ele>896.2</ele>
        <time>2022-08-29T12:39:14Z</time>
      </trkpt>
      <trkpt lat="42.3587500" lon="-3.5689590">
        <ele>896.0</ele>
        <time>2022-08-29T12:39:15Z</time>
      </trkpt>
      <trkpt lat="42.3587760" lon="-3.5690460">
        <ele>896.0</ele>
        <time>2022-08-29T12:39:16Z</time>
      </trkpt>
      <trkpt lat="42.3588040" lon="-3.5691310">
        <ele>896.0</ele>
        <time>2022-08-29T12:39:17Z</time>
      </trkpt>
      <trkpt lat="42.3588340" lon="-3.5692140">
        <ele>896.2</ele>
        <time>2022-08-29T12:39:18Z</time>
      </trkpt>
      <trkpt lat="42.3588660" lon="-3.5692940">
        <ele>896.0</ele>
        <time>2022-08-29T12:39:19Z</time>
      </trkpt>
      <trkpt lat="42.3588970" lon="-3.5693750">
        <ele>896.2</ele>
        <time>2022-08-29T12:39:20Z</time>
      </trkpt>
      <trkpt lat="42.3589260" lon="-3.5694580">
        <ele>896.0</ele>
        <time>2022-08-29T12:39:21Z</time>
      </trkpt>
      <trkpt lat="42.3589520" lon="-3.5695440">
        <ele>896.0</ele>
        <time>2022-08-29T12:39:22Z</time>
      </trkpt>
      <trkpt lat="42.3589750" lon="-3.5696310">
        <ele>896.0</ele>
        <time>2022-08-29T12:39:23Z</time>
      </trkpt>
      <trkpt lat="42.3589950" lon="-3.5697210">
        <ele>896.0</ele>
        <time>2022-08-29T12:39:24Z</time>
      </trkpt>
      <trkpt lat="42.3590130" lon="-3.5698120">
        <ele>895.8</ele>
        <time>2022-08-29T12:39:25Z</time>
      </trkpt>
      <trkpt lat="42.3590290" lon="-3.5699050">
        <ele>895.8</ele>
        <time>2022-08-29T12:39:26Z</time>
      </trkpt>
      <trkpt lat="42.3590420" lon="-3.5699980">
        <ele>895.8</ele>
        <time>2022-08-29T12:39:27Z</time>
      </trkpt>
      <trkpt lat="42.3590540" lon="-3.5700930">
        <ele>895.8</ele>
        <time>2022-08-29T12:39:28Z</time>
      </trkpt>
      <trkpt lat="42.3590660" lon="-3.5701890">
        <ele>895.8</ele>
        <time>2022-08-29T12:39:29Z</time>
      </trkpt>
      <trkpt lat="42.3590770" lon="-3.5702850">
        <ele>895.8</ele>
        <time>2022-08-29T12:39:30Z</time>
      </trkpt>
      <trkpt lat="42.3590880" lon="-3.5703820">
        <ele>895.4</ele>
        <time>2022-08-29T12:39:31Z</time>
      </trkpt>
      <trkpt lat="42.3590990" lon="-3.5704790">
        <ele>895.4</ele>
        <time>2022-08-29T12:39:32Z</time>
      </trkpt>
      <trkpt lat="42.3591080" lon="-3.5705770">
        <ele>895.4</ele>
        <time>2022-08-29T12:39:33Z</time>
      </trkpt>
      <trkpt lat="42.3591180" lon="-3.5706750">
        <ele>895.4</ele>
        <time>2022-08-29T12:39:34Z</time>
      </trkpt>
      <trkpt lat="42.3591270" lon="-3.5707730">
        <ele>895.2</ele>
        <time>2022-08-29T12:39:35Z</time>
      </trkpt>
      <trkpt lat="42.3591370" lon="-3.5708710">
        <ele>895.2</ele>
        <time>2022-08-29T12:39:36Z</time>
      </trkpt>
      <trkpt lat="42.3591470" lon="-3.5709690">
        <ele>895.2</ele>
        <time>2022-08-29T12:39:37Z</time>
      </trkpt>
      <trkpt lat="42.3591560" lon="-3.5710670">
        <ele>895.2</ele>
        <time>2022-08-29T12:39:38Z</time>
      </trkpt>
      <trkpt lat="42.3591660" lon="-3.5711660">
        <ele>895.0</ele>
        <time>2022-08-29T12:39:39Z</time>
      </trkpt>
      <trkpt lat="42.3591760" lon="-3.5712650">
        <ele>895.0</ele>
        <time>2022-08-29T12:39:40Z</time>
      </trkpt>
      <trkpt lat="42.3591870" lon="-3.5713640">
        <ele>895.0</ele>
        <time>2022-08-29T12:39:41Z</time>
      </trkpt>
      <trkpt lat="42.3592010" lon="-3.5714610">
        <ele>895.0</ele>
        <time>2022-08-29T12:39:42Z</time>
      </trkpt>
      <trkpt lat="42.3592180" lon="-3.5715590">
        <ele>894.8</ele>
        <time>2022-08-29T12:39:43Z</time>
      </trkpt>
      <trkpt lat="42.3592360" lon="-3.5716570">
        <ele>894.8</ele>
        <time>2022-08-29T12:39:44Z</time>
      </trkpt>
      <trkpt lat="42.3592570" lon="-3.5717530">
        <ele>894.6</ele>
        <time>2022-08-29T12:39:45Z</time>
      </trkpt>
      <trkpt lat="42.3592810" lon="-3.5718490">
        <ele>894.6</ele>
        <time>2022-08-29T12:39:46Z</time>
      </trkpt>
      <trkpt lat="42.3593070" lon="-3.5719430">
        <ele>894.6</ele>
        <time>2022-08-29T12:39:47Z</time>
      </trkpt>
      <trkpt lat="42.3593330" lon="-3.5720380">
        <ele>894.4</ele>
        <time>2022-08-29T12:39:48Z</time>
      </trkpt>
      <trkpt lat="42.3593580" lon="-3.5721320">
        <ele>894.2</ele>
        <time>2022-08-29T12:39:49Z</time>
      </trkpt>
      <trkpt lat="42.3593830" lon="-3.5722260">
        <ele>894.0</ele>
        <time>2022-08-29T12:39:50Z</time>
      </trkpt>
      <trkpt lat="42.3594060" lon="-3.5723210">
        <ele>894.0</ele>
        <time>2022-08-29T12:39:51Z</time>
      </trkpt>
      <trkpt lat="42.3594280" lon="-3.5724150">
        <ele>893.8</ele>
        <time>2022-08-29T12:39:52Z</time>
      </trkpt>
      <trkpt lat="42.3594470" lon="-3.5725110">
        <ele>893.8</ele>
        <time>2022-08-29T12:39:53Z</time>
      </trkpt>
      <trkpt lat="42.3594660" lon="-3.5726060">
        <ele>893.6</ele>
        <time>2022-08-29T12:39:54Z</time>
      </trkpt>
      <trkpt lat="42.3594830" lon="-3.5727000">
        <ele>893.4</ele>
        <time>2022-08-29T12:39:55Z</time>
      </trkpt>
      <trkpt lat="42.3594980" lon="-3.5727950">
        <ele>893.4</ele>
        <time>2022-08-29T12:39:56Z</time>
      </trkpt>
      <trkpt lat="42.3595120" lon="-3.5728890">
        <ele>893.4</ele>
        <time>2022-08-29T12:39:57Z</time>
      </trkpt>
      <trkpt lat="42.3595240" lon="-3.5729840">
        <ele>893.2</ele>
        <time>2022-08-29T12:39:58Z</time>
      </trkpt>
      <trkpt lat="42.3595330" lon="-3.5730790">
        <ele>893.2</ele>
        <time>2022-08-29T12:39:59Z</time>
      </trkpt>
      <trkpt lat="42.3595410" lon="-3.5731740">
        <ele>893.2</ele>
        <time>2022-08-29T12:40:00Z</time>
      </trkpt>
      <trkpt lat="42.3595490" lon="-3.5732700">
        <ele>893.2</ele>
        <time>2022-08-29T12:40:01Z</time>
      </trkpt>
      <trkpt lat="42.3595560" lon="-3.5733660">
        <ele>893.2</ele>
        <time>2022-08-29T12:40:02Z</time>
      </trkpt>
      <trkpt lat="42.3595630" lon="-3.5734620">
        <ele>893.0</ele>
        <time>2022-08-29T12:40:03Z</time>
      </trkpt>
      <trkpt lat="42.3595710" lon="-3.5735580">
        <ele>893.0</ele>
        <time>2022-08-29T12:40:04Z</time>
      </trkpt>
      <trkpt lat="42.3595800" lon="-3.5736530">
        <ele>893.0</ele>
        <time>2022-08-29T12:40:05Z</time>
      </trkpt>
      <trkpt lat="42.3595880" lon="-3.5737470">
        <ele>893.0</ele>
        <time>2022-08-29T12:40:06Z</time>
      </trkpt>
      <trkpt lat="42.3595970" lon="-3.5738400">
        <ele>892.8</ele>
        <time>2022-08-29T12:40:07Z</time>
      </trkpt>
      <trkpt lat="42.3596070" lon="-3.5739320">
        <ele>892.8</ele>
        <time>2022-08-29T12:40:08Z</time>
      </trkpt>
      <trkpt lat="42.3596150" lon="-3.5740250">
        <ele>892.6</ele>
        <time>2022-08-29T12:40:09Z</time>
      </trkpt>
      <trkpt lat="42.3596220" lon="-3.5741170">
        <ele>892.6</ele>
        <time>2022-08-29T12:40:10Z</time>
      </trkpt>
      <trkpt lat="42.3596260" lon="-3.5742100">
        <ele>892.6</ele>
        <time>2022-08-29T12:40:11Z</time>
      </trkpt>
      <trkpt lat="42.3596300" lon="-3.5743030">
        <ele>892.4</ele>
        <time>2022-08-29T12:40:12Z</time>
      </trkpt>
      <trkpt lat="42.3596350" lon="-3.5743970">
        <ele>892.4</ele>
        <time>2022-08-29T12:40:13Z</time>
      </trkpt>
      <trkpt lat="42.3596450" lon="-3.5744900">
        <ele>892.4</ele>
        <time>2022-08-29T12:40:14Z</time>
      </trkpt>
      <trkpt lat="42.3596550" lon="-3.5745840">
        <ele>892.4</ele>
        <time>2022-08-29T12:40:15Z</time>
      </trkpt>
      <trkpt lat="42.3596650" lon="-3.5746780">
        <ele>892.2</ele>
        <time>2022-08-29T12:40:16Z</time>
      </trkpt>
      <trkpt lat="42.3596740" lon="-3.5747730">
        <ele>892.2</ele>
        <time>2022-08-29T12:40:17Z</time>
      </trkpt>
      <trkpt lat="42.3596810" lon="-3.5748670">
        <ele>892.2</ele>
        <time>2022-08-29T12:40:18Z</time>
      </trkpt>
      <trkpt lat="42.3596860" lon="-3.5749610">
        <ele>892.0</ele>
        <time>2022-08-29T12:40:19Z</time>
      </trkpt>
      <trkpt lat="42.3596900" lon="-3.5750550">
        <ele>892.0</ele>
        <time>2022-08-29T12:40:20Z</time>
      </trkpt>
      <trkpt lat="42.3596920" lon="-3.5751480">
        <ele>892.0</ele>
        <time>2022-08-29T12:40:21Z</time>
      </trkpt>
      <trkpt lat="42.3596930" lon="-3.5752410">
        <ele>892.0</ele>
        <time>2022-08-29T12:40:22Z</time>
      </trkpt>
      <trkpt lat="42.3596940" lon="-3.5753330">
        <ele>892.0</ele>
        <time>2022-08-29T12:40:23Z</time>
      </trkpt>
      <trkpt lat="42.3596950" lon="-3.5754250">
        <ele>892.0</ele>
        <time>2022-08-29T12:40:24Z</time>
      </trkpt>
      <trkpt lat="42.3596960" lon="-3.5755170">
        <ele>892.0</ele>
        <time>2022-08-29T12:40:25Z</time>
      </trkpt>
      <trkpt lat="42.3596950" lon="-3.5756090">
        <ele>891.8</ele>
        <time>2022-08-29T12:40:26Z</time>
      </trkpt>
      <trkpt lat="42.3596900" lon="-3.5757010">
        <ele>891.8</ele>
        <time>2022-08-29T12:40:27Z</time>
      </trkpt>
      <trkpt lat="42.3596810" lon="-3.5757920">
        <ele>891.8</ele>
        <time>2022-08-29T12:40:28Z</time>
      </trkpt>
      <trkpt lat="42.3596680" lon="-3.5758830">
        <ele>891.8</ele>
        <time>2022-08-29T12:40:29Z</time>
      </trkpt>
      <trkpt lat="42.3596520" lon="-3.5759720">
        <ele>891.6</ele>
        <time>2022-08-29T12:40:30Z</time>
      </trkpt>
      <trkpt lat="42.3596340" lon="-3.5760610">
        <ele>891.6</ele>
        <time>2022-08-29T12:40:31Z</time>
      </trkpt>
      <trkpt lat="42.3596170" lon="-3.5761490">
        <ele>891.6</ele>
        <time>2022-08-29T12:40:32Z</time>
      </trkpt>
      <trkpt lat="42.3596010" lon="-3.5762370">
        <ele>891.6</ele>
        <time>2022-08-29T12:40:33Z</time>
      </trkpt>
      <trkpt lat="42.3595860" lon="-3.5763240">
        <ele>891.4</ele>
        <time>2022-08-29T12:40:34Z</time>
      </trkpt>
      <trkpt lat="42.3595720" lon="-3.5764120">
        <ele>891.6</ele>
        <time>2022-08-29T12:40:35Z</time>
      </trkpt>
      <trkpt lat="42.3595600" lon="-3.5764990">
        <ele>891.4</ele>
        <time>2022-08-29T12:40:36Z</time>
      </trkpt>
      <trkpt lat="42.3595490" lon="-3.5765890">
        <ele>891.4</ele>
        <time>2022-08-29T12:40:37Z</time>
      </trkpt>
      <trkpt lat="42.3595390" lon="-3.5766790">
        <ele>891.2</ele>
        <time>2022-08-29T12:40:38Z</time>
      </trkpt>
      <trkpt lat="42.3595310" lon="-3.5767700">
        <ele>891.0</ele>
        <time>2022-08-29T12:40:39Z</time>
      </trkpt>
      <trkpt lat="42.3595250" lon="-3.5768630">
        <ele>891.2</ele>
        <time>2022-08-29T12:40:40Z</time>
      </trkpt>
      <trkpt lat="42.3595210" lon="-3.5769560">
        <ele>891.2</ele>
        <time>2022-08-29T12:40:41Z</time>
      </trkpt>
      <trkpt lat="42.3595200" lon="-3.5770500">
        <ele>890.8</ele>
        <time>2022-08-29T12:40:42Z</time>
      </trkpt>
      <trkpt lat="42.3595200" lon="-3.5771430">
        <ele>890.8</ele>
        <time>2022-08-29T12:40:43Z</time>
      </trkpt>
      <trkpt lat="42.3595220" lon="-3.5772350">
        <ele>890.6</ele>
        <time>2022-08-29T12:40:44Z</time>
      </trkpt>
      <trkpt lat="42.3595250" lon="-3.5773260">
        <ele>890.6</ele>
        <time>2022-08-29T12:40:45Z</time>
      </trkpt>
      <trkpt lat="42.3595310" lon="-3.5774170">
        <ele>890.4</ele>
        <time>2022-08-29T12:40:46Z</time>
      </trkpt>
      <trkpt lat="42.3595380" lon="-3.5775080">
        <ele>890.4</ele>
        <time>2022-08-29T12:40:47Z</time>
      </trkpt>
      <trkpt lat="42.3595480" lon="-3.5775980">
        <ele>890.4</ele>
        <time>2022-08-29T12:40:48Z</time>
      </trkpt>
      <trkpt lat="42.3595590" lon="-3.5776890">
        <ele>890.4</ele>
        <time>2022-08-29T12:40:49Z</time>
      </trkpt>
      <trkpt lat="42.3595680" lon="-3.5777790">
        <ele>890.2</ele>
        <time>2022-08-29T12:40:50Z</time>
      </trkpt>
      <trkpt lat="42.3595750" lon="-3.5778700">
        <ele>890.2</ele>
        <time>2022-08-29T12:40:51Z</time>
      </trkpt>
      <trkpt lat="42.3595830" lon="-3.5779620">
        <ele>890.0</ele>
        <time>2022-08-29T12:40:52Z</time>
      </trkpt>
      <trkpt lat="42.3595920" lon="-3.5780530">
        <ele>889.8</ele>
        <time>2022-08-29T12:40:53Z</time>
      </trkpt>
      <trkpt lat="42.3596020" lon="-3.5781440">
        <ele>890.0</ele>
        <time>2022-08-29T12:40:54Z</time>
      </trkpt>
      <trkpt lat="42.3596120" lon="-3.5782350">
        <ele>890.0</ele>
        <time>2022-08-29T12:40:55Z</time>
      </trkpt>
      <trkpt lat="42.3596210" lon="-3.5783260">
        <ele>889.8</ele>
        <time>2022-08-29T12:40:56Z</time>
      </trkpt>
      <trkpt lat="42.3596300" lon="-3.5784170">
        <ele>890.0</ele>
        <time>2022-08-29T12:40:57Z</time>
      </trkpt>
      <trkpt lat="42.3596380" lon="-3.5785070">
        <ele>889.8</ele>
        <time>2022-08-29T12:40:58Z</time>
      </trkpt>
      <trkpt lat="42.3596460" lon="-3.5785970">
        <ele>889.8</ele>
        <time>2022-08-29T12:40:59Z</time>
      </trkpt>
      <trkpt lat="42.3596520" lon="-3.5786870">
        <ele>889.8</ele>
        <time>2022-08-29T12:41:00Z</time>
      </trkpt>
      <trkpt lat="42.3596550" lon="-3.5787770">
        <ele>889.6</ele>
        <time>2022-08-29T12:41:01Z</time>
      </trkpt>
      <trkpt lat="42.3596550" lon="-3.5788660">
        <ele>889.6</ele>
        <time>2022-08-29T12:41:02Z</time>
      </trkpt>
      <trkpt lat="42.3596540" lon="-3.5789550">
        <ele>889.4</ele>
        <time>2022-08-29T12:41:03Z</time>
      </trkpt>
      <trkpt lat="42.3596530" lon="-3.5790460">
        <ele>889.6</ele>
        <time>2022-08-29T12:41:04Z</time>
      </trkpt>
      <trkpt lat="42.3596490" lon="-3.5791390">
        <ele>889.4</ele>
        <time>2022-08-29T12:41:05Z</time>
      </trkpt>
      <trkpt lat="42.3596450" lon="-3.5792330">
        <ele>889.4</ele>
        <time>2022-08-29T12:41:06Z</time>
      </trkpt>
      <trkpt lat="42.3596410" lon="-3.5793290">
        <ele>889.4</ele>
        <time>2022-08-29T12:41:07Z</time>
      </trkpt>
      <trkpt lat="42.3596380" lon="-3.5794240">
        <ele>889.4</ele>
        <time>2022-08-29T12:41:08Z</time>
      </trkpt>
      <trkpt lat="42.3596360" lon="-3.5795180">
        <ele>889.4</ele>
        <time>2022-08-29T12:41:09Z</time>
      </trkpt>
      <trkpt lat="42.3596340" lon="-3.5796120">
        <ele>889.4</ele>
        <time>2022-08-29T12:41:10Z</time>
      </trkpt>
      <trkpt lat="42.3596310" lon="-3.5797040">
        <ele>889.4</ele>
        <time>2022-08-29T12:41:11Z</time>
      </trkpt>
      <trkpt lat="42.3596280" lon="-3.5797940">
        <ele>889.4</ele>
        <time>2022-08-29T12:41:12Z</time>
      </trkpt>
      <trkpt lat="42.3596290" lon="-3.5798820">
        <ele>889.2</ele>
        <time>2022-08-29T12:41:13Z</time>
      </trkpt>
      <trkpt lat="42.3596330" lon="-3.5799680">
        <ele>889.2</ele>
        <time>2022-08-29T12:41:14Z</time>
      </trkpt>
      <trkpt lat="42.3596370" lon="-3.5800510">
        <ele>889.2</ele>
        <time>2022-08-29T12:41:15Z</time>
      </trkpt>
      <trkpt lat="42.3596420" lon="-3.5801320">
        <ele>889.0</ele>
        <time>2022-08-29T12:41:16Z</time>
      </trkpt>
      <trkpt lat="42.3596470" lon="-3.5802110">
        <ele>889.2</ele>
        <time>2022-08-29T12:41:17Z</time>
      </trkpt>
      <trkpt lat="42.3596540" lon="-3.5802890">
        <ele>889.0</ele>
        <time>2022-08-29T12:41:18Z</time>
      </trkpt>
      <trkpt lat="42.3596630" lon="-3.5803650">
        <ele>888.8</ele>
        <time>2022-08-29T12:41:19Z</time>
      </trkpt>
      <trkpt lat="42.3596700" lon="-3.5804400">
        <ele>888.8</ele>
        <time>2022-08-29T12:41:20Z</time>
      </trkpt>
      <trkpt lat="42.3596780" lon="-3.5805140">
        <ele>888.8</ele>
        <time>2022-08-29T12:41:21Z</time>
      </trkpt>
      <trkpt lat="42.3596860" lon="-3.5805850">
        <ele>888.6</ele>
        <time>2022-08-29T12:41:22Z</time>
      </trkpt>
      <trkpt lat="42.3596970" lon="-3.5806560">
        <ele>888.8</ele>
        <time>2022-08-29T12:41:23Z</time>
      </trkpt>
      <trkpt lat="42.3597090" lon="-3.5807270">
        <ele>888.8</ele>
        <time>2022-08-29T12:41:24Z</time>
      </trkpt>
      <trkpt lat="42.3597200" lon="-3.5807990">
        <ele>888.8</ele>
        <time>2022-08-29T12:41:25Z</time>
      </trkpt>
      <trkpt lat="42.3597280" lon="-3.5808720">
        <ele>888.8</ele>
        <time>2022-08-29T12:41:26Z</time>
      </trkpt>
      <trkpt lat="42.3597340" lon="-3.5809460">
        <ele>888.8</ele>
        <time>2022-08-29T12:41:27Z</time>
      </trkpt>
      <trkpt lat="42.3597410" lon="-3.5810190">
        <ele>888.8</ele>
        <time>2022-08-29T12:41:28Z</time>
      </trkpt>
      <trkpt lat="42.3597490" lon="-3.5810900">
        <ele>888.8</ele>
        <time>2022-08-29T12:41:29Z</time>
      </trkpt>
      <trkpt lat="42.3597580" lon="-3.5811610">
        <ele>888.8</ele>
        <time>2022-08-29T12:41:30Z</time>
      </trkpt>
      <trkpt lat="42.3597670" lon="-3.5812330">
        <ele>888.8</ele>
        <time>2022-08-29T12:41:31Z</time>
      </trkpt>
      <trkpt lat="42.3597760" lon="-3.5813040">
        <ele>888.8</ele>
        <time>2022-08-29T12:41:32Z</time>
      </trkpt>
      <trkpt lat="42.3597850" lon="-3.5813760">
        <ele>888.8</ele>
        <time>2022-08-29T12:41:33Z</time>
      </trkpt>
      <trkpt lat="42.3597950" lon="-3.5814480">
        <ele>888.8</ele>
        <time>2022-08-29T12:41:34Z</time>
      </trkpt>
      <trkpt lat="42.3598060" lon="-3.5815210">
        <ele>889.0</ele>
        <time>2022-08-29T12:41:35Z</time>
      </trkpt>
      <trkpt lat="42.3598180" lon="-3.5815950">
        <ele>888.8</ele>
        <time>2022-08-29T12:41:36Z</time>
      </trkpt>
      <trkpt lat="42.3598320" lon="-3.5816700">
        <ele>888.8</ele>
        <time>2022-08-29T12:41:37Z</time>
      </trkpt>
      <trkpt lat="42.3598490" lon="-3.5817430">
        <ele>888.8</ele>
        <time>2022-08-29T12:41:38Z</time>
      </trkpt>
      <trkpt lat="42.3598670" lon="-3.5818160">
        <ele>888.8</ele>
        <time>2022-08-29T12:41:39Z</time>
      </trkpt>
      <trkpt lat="42.3598900" lon="-3.5818870">
        <ele>888.8</ele>
        <time>2022-08-29T12:41:40Z</time>
      </trkpt>
      <trkpt lat="42.3599130" lon="-3.5819550">
        <ele>889.0</ele>
        <time>2022-08-29T12:41:41Z</time>
      </trkpt>
      <trkpt lat="42.3599380" lon="-3.5820210">
        <ele>888.8</ele>
        <time>2022-08-29T12:41:42Z</time>
      </trkpt>
      <trkpt lat="42.3599640" lon="-3.5820830">
        <ele>889.0</ele>
        <time>2022-08-29T12:41:43Z</time>
      </trkpt>
      <trkpt lat="42.3599920" lon="-3.5821450">
        <ele>888.8</ele>
        <time>2022-08-29T12:41:44Z</time>
      </trkpt>
      <trkpt lat="42.3600210" lon="-3.5822070">
        <ele>889.0</ele>
        <time>2022-08-29T12:41:45Z</time>
      </trkpt>
      <trkpt lat="42.3600500" lon="-3.5822680">
        <ele>889.0</ele>
        <time>2022-08-29T12:41:46Z</time>
      </trkpt>
      <trkpt lat="42.3600790" lon="-3.5823300">
        <ele>889.0</ele>
        <time>2022-08-29T12:41:47Z</time>
      </trkpt>
      <trkpt lat="42.3601070" lon="-3.5823920">
        <ele>888.8</ele>
        <time>2022-08-29T12:41:48Z</time>
      </trkpt>
      <trkpt lat="42.3601350" lon="-3.5824530">
        <ele>889.0</ele>
        <time>2022-08-29T12:41:49Z</time>
      </trkpt>
      <trkpt lat="42.3601640" lon="-3.5825130">
        <ele>889.0</ele>
        <time>2022-08-29T12:41:50Z</time>
      </trkpt>
      <trkpt lat="42.3601930" lon="-3.5825690">
        <ele>889.0</ele>
        <time>2022-08-29T12:41:51Z</time>
      </trkpt>
      <trkpt lat="42.3602220" lon="-3.5826230">
        <ele>889.0</ele>
        <time>2022-08-29T12:41:52Z</time>
      </trkpt>
      <trkpt lat="42.3602510" lon="-3.5826750">
        <ele>889.2</ele>
        <time>2022-08-29T12:41:53Z</time>
      </trkpt>
      <trkpt lat="42.3602780" lon="-3.5827240">
        <ele>889.2</ele>
        <time>2022-08-29T12:41:54Z</time>
      </trkpt>
      <trkpt lat="42.3603040" lon="-3.5827730">
        <ele>889.2</ele>
        <time>2022-08-29T12:41:55Z</time>
      </trkpt>
      <trkpt lat="42.3603280" lon="-3.5828230">
        <ele>889.2</ele>
        <time>2022-08-29T12:41:56Z</time>
      </trkpt>
      <trkpt lat="42.3603500" lon="-3.5828760">
        <ele>889.2</ele>
        <time>2022-08-29T12:41:57Z</time>
      </trkpt>
      <trkpt lat="42.3603710" lon="-3.5829300">
        <ele>889.4</ele>
        <time>2022-08-29T12:41:58Z</time>
      </trkpt>
      <trkpt lat="42.3603890" lon="-3.5829850">
        <ele>889.4</ele>
        <time>2022-08-29T12:41:59Z</time>
      </trkpt>
      <trkpt lat="42.3604040" lon="-3.5830430">
        <ele>889.6</ele>
        <time>2022-08-29T12:42:00Z</time>
      </trkpt>
      <trkpt lat="42.3604150" lon="-3.5831040">
        <ele>889.8</ele>
        <time>2022-08-29T12:42:01Z</time>
      </trkpt>
      <trkpt lat="42.3604210" lon="-3.5831670">
        <ele>890.0</ele>
        <time>2022-08-29T12:42:02Z</time>
      </trkpt>
      <trkpt lat="42.3604220" lon="-3.5832320">
        <ele>890.2</ele>
        <time>2022-08-29T12:42:03Z</time>
      </trkpt>
      <trkpt lat="42.3604200" lon="-3.5832970">
        <ele>890.4</ele>
        <time>2022-08-29T12:42:04Z</time>
      </trkpt>
      <trkpt lat="42.3604130" lon="-3.5833620">
        <ele>890.8</ele>
        <time>2022-08-29T12:42:05Z</time>
      </trkpt>
      <trkpt lat="42.3604050" lon="-3.5834300">
        <ele>890.8</ele>
        <time>2022-08-29T12:42:06Z</time>
      </trkpt>
      <trkpt lat="42.3603930" lon="-3.5834980">
        <ele>890.8</ele>
        <time>2022-08-29T12:42:07Z</time>
      </trkpt>
      <trkpt lat="42.3603810" lon="-3.5835680">
        <ele>890.6</ele>
        <time>2022-08-29T12:42:08Z</time>
      </trkpt>
      <trkpt lat="42.3603700" lon="-3.5836410">
        <ele>890.6</ele>
        <time>2022-08-29T12:42:09Z</time>
      </trkpt>
      <trkpt lat="42.3603570" lon="-3.5837140">
        <ele>890.8</ele>
        <time>2022-08-29T12:42:10Z</time>
      </trkpt>
      <trkpt lat="42.3603380" lon="-3.5837870">
        <ele>890.8</ele>
        <time>2022-08-29T12:42:11Z</time>
      </trkpt>
      <trkpt lat="42.3603200" lon="-3.5838560">
        <ele>890.8</ele>
        <time>2022-08-29T12:42:12Z</time>
      </trkpt>
      <trkpt lat="42.3603060" lon="-3.5839260">
        <ele>890.8</ele>
        <time>2022-08-29T12:42:13Z</time>
      </trkpt>
      <trkpt lat="42.3602920" lon="-3.5839980">
        <ele>890.6</ele>
        <time>2022-08-29T12:42:14Z</time>
      </trkpt>
      <trkpt lat="42.3602780" lon="-3.5840710">
        <ele>890.8</ele>
        <time>2022-08-29T12:42:15Z</time>
      </trkpt>
      <trkpt lat="42.3602630" lon="-3.5841440">
        <ele>890.6</ele>
        <time>2022-08-29T12:42:16Z</time>
      </trkpt>
      <trkpt lat="42.3602470" lon="-3.5842170">
        <ele>890.4</ele>
        <time>2022-08-29T12:42:17Z</time>
      </trkpt>
      <trkpt lat="42.3602320" lon="-3.5842890">
        <ele>890.4</ele>
        <time>2022-08-29T12:42:18Z</time>
      </trkpt>
      <trkpt lat="42.3602120" lon="-3.5843620">
        <ele>890.2</ele>
        <time>2022-08-29T12:42:19Z</time>
      </trkpt>
      <trkpt lat="42.3601890" lon="-3.5844360">
        <ele>889.8</ele>
        <time>2022-08-29T12:42:20Z</time>
      </trkpt>
      <trkpt lat="42.3601670" lon="-3.5845120">
        <ele>889.8</ele>
        <time>2022-08-29T12:42:21Z</time>
      </trkpt>
      <trkpt lat="42.3601430" lon="-3.5845900">
        <ele>889.6</ele>
        <time>2022-08-29T12:42:22Z</time>
      </trkpt>
      <trkpt lat="42.3601210" lon="-3.5846690">
        <ele>889.4</ele>
        <time>2022-08-29T12:42:23Z</time>
      </trkpt>
      <trkpt lat="42.3600990" lon="-3.5847500">
        <ele>889.4</ele>
        <time>2022-08-29T12:42:24Z</time>
      </trkpt>
      <trkpt lat="42.3600760" lon="-3.5848310">
        <ele>889.4</ele>
        <time>2022-08-29T12:42:25Z</time>
      </trkpt>
      <trkpt lat="42.3600510" lon="-3.5849090">
        <ele>889.2</ele>
        <time>2022-08-29T12:42:26Z</time>
      </trkpt>
      <trkpt lat="42.3600290" lon="-3.5849870">
        <ele>889.2</ele>
        <time>2022-08-29T12:42:27Z</time>
      </trkpt>
      <trkpt lat="42.3600130" lon="-3.5850660">
        <ele>889.0</ele>
        <time>2022-08-29T12:42:28Z</time>
      </trkpt>
      <trkpt lat="42.3600070" lon="-3.5851480">
        <ele>888.8</ele>
        <time>2022-08-29T12:42:29Z</time>
      </trkpt>
      <trkpt lat="42.3600130" lon="-3.5852290">
        <ele>888.4</ele>
        <time>2022-08-29T12:42:30Z</time>
      </trkpt>
      <trkpt lat="42.3600280" lon="-3.5853040">
        <ele>888.4</ele>
        <time>2022-08-29T12:42:31Z</time>
      </trkpt>
      <trkpt lat="42.3600450" lon="-3.5853770">
        <ele>888.0</ele>
        <time>2022-08-29T12:42:32Z</time>
      </trkpt>
      <trkpt lat="42.3600600" lon="-3.5854520">
        <ele>887.8</ele>
        <time>2022-08-29T12:42:33Z</time>
      </trkpt>
      <trkpt lat="42.3600730" lon="-3.5855280">
        <ele>887.6</ele>
        <time>2022-08-29T12:42:34Z</time>
      </trkpt>
      <trkpt lat="42.3600830" lon="-3.5856050">
        <ele>887.4</ele>
        <time>2022-08-29T12:42:35Z</time>
      </trkpt>
      <trkpt lat="42.3600930" lon="-3.5856830">
        <ele>887.4</ele>
        <time>2022-08-29T12:42:36Z</time>
      </trkpt>
      <trkpt lat="42.3601030" lon="-3.5857620">
        <ele>887.4</ele>
        <time>2022-08-29T12:42:37Z</time>
      </trkpt>
      <trkpt lat="42.3601140" lon="-3.5858410">
        <ele>887.2</ele>
        <time>2022-08-29T12:42:38Z</time>
      </trkpt>
      <trkpt lat="42.3601250" lon="-3.5859210">
        <ele>887.2</ele>
        <time>2022-08-29T12:42:39Z</time>
      </trkpt>
      <trkpt lat="42.3601370" lon="-3.5860020">
        <ele>887.2</ele>
        <time>2022-08-29T12:42:40Z</time>
      </trkpt>
      <trkpt lat="42.3601470" lon="-3.5860830">
        <ele>887.2</ele>
        <time>2022-08-29T12:42:41Z</time>
      </trkpt>
      <trkpt lat="42.3601560" lon="-3.5861650">
        <ele>887.2</ele>
        <time>2022-08-29T12:42:42Z</time>
      </trkpt>
      <trkpt lat="42.3601650" lon="-3.5862480">
        <ele>887.2</ele>
        <time>2022-08-29T12:42:43Z</time>
      </trkpt>
      <trkpt lat="42.3601740" lon="-3.5863320">
        <ele>887.2</ele>
        <time>2022-08-29T12:42:44Z</time>
      </trkpt>
      <trkpt lat="42.3601820" lon="-3.5864170">
        <ele>887.2</ele>
        <time>2022-08-29T12:42:45Z</time>
      </trkpt>
      <trkpt lat="42.3601900" lon="-3.5865020">
        <ele>887.2</ele>
        <time>2022-08-29T12:42:46Z</time>
      </trkpt>
      <trkpt lat="42.3601960" lon="-3.5865850">
        <ele>887.0</ele>
        <time>2022-08-29T12:42:47Z</time>
      </trkpt>
      <trkpt lat="42.3602020" lon="-3.5866670">
        <ele>887.0</ele>
        <time>2022-08-29T12:42:48Z</time>
      </trkpt>
      <trkpt lat="42.3602090" lon="-3.5867480">
        <ele>887.0</ele>
        <time>2022-08-29T12:42:49Z</time>
      </trkpt>
      <trkpt lat="42.3602150" lon="-3.5868290">
        <ele>887.0</ele>
        <time>2022-08-29T12:42:50Z</time>
      </trkpt>
      <trkpt lat="42.3602200" lon="-3.5869100">
        <ele>886.8</ele>
        <time>2022-08-29T12:42:51Z</time>
      </trkpt>
      <trkpt lat="42.3602240" lon="-3.5869890">
        <ele>886.8</ele>
        <time>2022-08-29T12:42:52Z</time>
      </trkpt>
      <trkpt lat="42.3602280" lon="-3.5870680">
        <ele>886.6</ele>
        <time>2022-08-29T12:42:53Z</time>
      </trkpt>
      <trkpt lat="42.3602320" lon="-3.5871460">
        <ele>886.4</ele>
        <time>2022-08-29T12:42:54Z</time>
      </trkpt>
      <trkpt lat="42.3602370" lon="-3.5872210">
        <ele>886.2</ele>
        <time>2022-08-29T12:42:55Z</time>
      </trkpt>
      <trkpt lat="42.3602430" lon="-3.5872970">
        <ele>886.0</ele>
        <time>2022-08-29T12:42:56Z</time>
      </trkpt>
      <trkpt lat="42.3602470" lon="-3.5873740">
        <ele>885.8</ele>
        <time>2022-08-29T12:42:57Z</time>
      </trkpt>
      <trkpt lat="42.3602530" lon="-3.5874510">
        <ele>885.8</ele>
        <time>2022-08-29T12:42:58Z</time>
      </trkpt>
      <trkpt lat="42.3602610" lon="-3.5875280">
        <ele>885.8</ele>
        <time>2022-08-29T12:42:59Z</time>
      </trkpt>
      <trkpt lat="42.3602690" lon="-3.5876030">
        <ele>885.8</ele>
        <time>2022-08-29T12:43:00Z</time>
      </trkpt>
      <trkpt lat="42.3602780" lon="-3.5876760">
        <ele>885.8</ele>
        <time>2022-08-29T12:43:01Z</time>
      </trkpt>
      <trkpt lat="42.3602910" lon="-3.5877470">
        <ele>885.6</ele>
        <time>2022-08-29T12:43:02Z</time>
      </trkpt>
      <trkpt lat="42.3603070" lon="-3.5878180">
        <ele>885.6</ele>
        <time>2022-08-29T12:43:03Z</time>
      </trkpt>
      <trkpt lat="42.3603230" lon="-3.5878890">
        <ele>885.6</ele>
        <time>2022-08-29T12:43:04Z</time>
      </trkpt>
      <trkpt lat="42.3603380" lon="-3.5879630">
        <ele>885.6</ele>
        <time>2022-08-29T12:43:05Z</time>
      </trkpt>
      <trkpt lat="42.3603550" lon="-3.5880370">
        <ele>885.6</ele>
        <time>2022-08-29T12:43:06Z</time>
      </trkpt>
      <trkpt lat="42.3603760" lon="-3.5881110">
        <ele>885.6</ele>
        <time>2022-08-29T12:43:07Z</time>
      </trkpt>
      <trkpt lat="42.3603960" lon="-3.5881870">
        <ele>885.6</ele>
        <time>2022-08-29T12:43:08Z</time>
      </trkpt>
      <trkpt lat="42.3604170" lon="-3.5882650">
        <ele>885.4</ele>
        <time>2022-08-29T12:43:09Z</time>
      </trkpt>
      <trkpt lat="42.3604380" lon="-3.5883440">
        <ele>885.6</ele>
        <time>2022-08-29T12:43:10Z</time>
      </trkpt>
      <trkpt lat="42.3604580" lon="-3.5884240">
        <ele>885.6</ele>
        <time>2022-08-29T12:43:11Z</time>
      </trkpt>
      <trkpt lat="42.3604790" lon="-3.5885050">
        <ele>885.6</ele>
        <time>2022-08-29T12:43:12Z</time>
      </trkpt>
      <trkpt lat="42.3605020" lon="-3.5885840">
        <ele>885.4</ele>
        <time>2022-08-29T12:43:13Z</time>
      </trkpt>
      <trkpt lat="42.3605280" lon="-3.5886630">
        <ele>885.4</ele>
        <time>2022-08-29T12:43:14Z</time>
      </trkpt>
      <trkpt lat="42.3605530" lon="-3.5887440">
        <ele>885.2</ele>
        <time>2022-08-29T12:43:15Z</time>
      </trkpt>
      <trkpt lat="42.3605750" lon="-3.5888250">
        <ele>885.0</ele>
        <time>2022-08-29T12:43:16Z</time>
      </trkpt>
      <trkpt lat="42.3605960" lon="-3.5889080">
        <ele>884.8</ele>
        <time>2022-08-29T12:43:17Z</time>
      </trkpt>
      <trkpt lat="42.3606190" lon="-3.5889900">
        <ele>884.8</ele>
        <time>2022-08-29T12:43:18Z</time>
      </trkpt>
      <trkpt lat="42.3606420" lon="-3.5890710">
        <ele>884.8</ele>
        <time>2022-08-29T12:43:19Z</time>
      </trkpt>
      <trkpt lat="42.3606640" lon="-3.5891500">
        <ele>884.6</ele>
        <time>2022-08-29T12:43:20Z</time>
      </trkpt>
      <trkpt lat="42.3606860" lon="-3.5892240">
        <ele>884.6</ele>
        <time>2022-08-29T12:43:21Z</time>
      </trkpt>
      <trkpt lat="42.3607090" lon="-3.5892990">
        <ele>884.6</ele>
        <time>2022-08-29T12:43:22Z</time>
      </trkpt>
      <trkpt lat="42.3607270" lon="-3.5893740">
        <ele>884.6</ele>
        <time>2022-08-29T12:43:23Z</time>
      </trkpt>
      <trkpt lat="42.3607510" lon="-3.5894510">
        <ele>884.4</ele>
        <time>2022-08-29T12:43:24Z</time>
      </trkpt>
      <trkpt lat="42.3607690" lon="-3.5895270">
        <ele>884.6</ele>
        <time>2022-08-29T12:43:25Z</time>
      </trkpt>
      <trkpt lat="42.3607910" lon="-3.5896010">
        <ele>884.4</ele>
        <time>2022-08-29T12:43:26Z</time>
      </trkpt>
      <trkpt lat="42.3608130" lon="-3.5896750">
        <ele>884.4</ele>
        <time>2022-08-29T12:43:27Z</time>
      </trkpt>
      <trkpt lat="42.3608350" lon="-3.5897500">
        <ele>884.4</ele>
        <time>2022-08-29T12:43:28Z</time>
      </trkpt>
      <trkpt lat="42.3608560" lon="-3.5898250">
        <ele>884.4</ele>
        <time>2022-08-29T12:43:29Z</time>
      </trkpt>
      <trkpt lat="42.3608750" lon="-3.5898990">
        <ele>884.4</ele>
        <time>2022-08-29T12:43:30Z</time>
      </trkpt>
      <trkpt lat="42.3608930" lon="-3.5899720">
        <ele>884.4</ele>
        <time>2022-08-29T12:43:31Z</time>
      </trkpt>
      <trkpt lat="42.3609090" lon="-3.5900440">
        <ele>884.4</ele>
        <time>2022-08-29T12:43:32Z</time>
      </trkpt>
      <trkpt lat="42.3609210" lon="-3.5901160">
        <ele>884.4</ele>
        <time>2022-08-29T12:43:33Z</time>
      </trkpt>
      <trkpt lat="42.3609350" lon="-3.5901890">
        <ele>884.4</ele>
        <time>2022-08-29T12:43:34Z</time>
      </trkpt>
      <trkpt lat="42.3609500" lon="-3.5902610">
        <ele>884.2</ele>
        <time>2022-08-29T12:43:35Z</time>
      </trkpt>
      <trkpt lat="42.3609650" lon="-3.5903330">
        <ele>884.2</ele>
        <time>2022-08-29T12:43:36Z</time>
      </trkpt>
      <trkpt lat="42.3609810" lon="-3.5904040">
        <ele>884.2</ele>
        <time>2022-08-29T12:43:37Z</time>
      </trkpt>
      <trkpt lat="42.3609970" lon="-3.5904740">
        <ele>884.2</ele>
        <time>2022-08-29T12:43:38Z</time>
      </trkpt>
      <trkpt lat="42.3610110" lon="-3.5905430">
        <ele>884.2</ele>
        <time>2022-08-29T12:43:39Z</time>
      </trkpt>
      <trkpt lat="42.3610230" lon="-3.5906120">
        <ele>884.0</ele>
        <time>2022-08-29T12:43:40Z</time>
      </trkpt>
      <trkpt lat="42.3610340" lon="-3.5906800">
        <ele>884.0</ele>
        <time>2022-08-29T12:43:41Z</time>
      </trkpt>
      <trkpt lat="42.3610430" lon="-3.5907480">
        <ele>884.0</ele>
        <time>2022-08-29T12:43:42Z</time>
      </trkpt>
      <trkpt lat="42.3610520" lon="-3.5908170">
        <ele>884.0</ele>
        <time>2022-08-29T12:43:43Z</time>
      </trkpt>
      <trkpt lat="42.3610620" lon="-3.5908860">
        <ele>884.0</ele>
        <time>2022-08-29T12:43:44Z</time>
      </trkpt>
      <trkpt lat="42.3610720" lon="-3.5909560">
        <ele>884.0</ele>
        <time>2022-08-29T12:43:45Z</time>
      </trkpt>
      <trkpt lat="42.3610840" lon="-3.5910260">
        <ele>883.8</ele>
        <time>2022-08-29T12:43:46Z</time>
      </trkpt>
      <trkpt lat="42.3610980" lon="-3.5910950">
        <ele>883.8</ele>
        <time>2022-08-29T12:43:47Z</time>
      </trkpt>
      <trkpt lat="42.3611080" lon="-3.5911650">
        <ele>883.8</ele>
        <time>2022-08-29T12:43:48Z</time>
      </trkpt>
      <trkpt lat="42.3611150" lon="-3.5912350">
        <ele>883.8</ele>
        <time>2022-08-29T12:43:49Z</time>
      </trkpt>
      <trkpt lat="42.3611210" lon="-3.5913040">
        <ele>883.8</ele>
        <time>2022-08-29T12:43:50Z</time>
      </trkpt>
      <trkpt lat="42.3611280" lon="-3.5913700">
        <ele>883.8</ele>
        <time>2022-08-29T12:43:51Z</time>
      </trkpt>
      <trkpt lat="42.3611350" lon="-3.5914340">
        <ele>883.8</ele>
        <time>2022-08-29T12:43:52Z</time>
      </trkpt>
      <trkpt lat="42.3611400" lon="-3.5914950">
        <ele>883.6</ele>
        <time>2022-08-29T12:43:53Z</time>
      </trkpt>
      <trkpt lat="42.3611440" lon="-3.5915530">
        <ele>883.8</ele>
        <time>2022-08-29T12:43:54Z</time>
      </trkpt>
      <trkpt lat="42.3611470" lon="-3.5916080">
        <ele>883.8</ele>
        <time>2022-08-29T12:43:55Z</time>
      </trkpt>
      <trkpt lat="42.3611510" lon="-3.5916590">
        <ele>883.8</ele>
        <time>2022-08-29T12:43:56Z</time>
      </trkpt>
      <trkpt lat="42.3611560" lon="-3.5917080">
        <ele>884.0</ele>
        <time>2022-08-29T12:43:57Z</time>
      </trkpt>
      <trkpt lat="42.3611620" lon="-3.5917540">
        <ele>883.8</ele>
        <time>2022-08-29T12:43:58Z</time>
      </trkpt>
      <trkpt lat="42.3611680" lon="-3.5917980">
        <ele>884.0</ele>
        <time>2022-08-29T12:43:59Z</time>
      </trkpt>
      <trkpt lat="42.3611720" lon="-3.5918400">
        <ele>884.0</ele>
        <time>2022-08-29T12:44:00Z</time>
      </trkpt>
      <trkpt lat="42.3611770" lon="-3.5918810">
        <ele>884.2</ele>
        <time>2022-08-29T12:44:01Z</time>
      </trkpt>
      <trkpt lat="42.3611830" lon="-3.5919190">
        <ele>884.0</ele>
        <time>2022-08-29T12:44:02Z</time>
      </trkpt>
      <trkpt lat="42.3611930" lon="-3.5919560">
        <ele>884.4</ele>
        <time>2022-08-29T12:44:03Z</time>
      </trkpt>
      <trkpt lat="42.3612050" lon="-3.5919960">
        <ele>884.8</ele>
        <time>2022-08-29T12:44:04Z</time>
      </trkpt>
      <trkpt lat="42.3612140" lon="-3.5920380">
        <ele>884.8</ele>
        <time>2022-08-29T12:44:05Z</time>
      </trkpt>
      <trkpt lat="42.3612220" lon="-3.5920810">
        <ele>885.2</ele>
        <time>2022-08-29T12:44:06Z</time>
      </trkpt>
      <trkpt lat="42.3612310" lon="-3.5921230">
        <ele>885.4</ele>
        <time>2022-08-29T12:44:07Z</time>
      </trkpt>
      <trkpt lat="42.3612410" lon="-3.5921630">
        <ele>885.8</ele>
        <time>2022-08-29T12:44:08Z</time>
      </trkpt>
      <trkpt lat="42.3612510" lon="-3.5922030">
        <ele>886.0</ele>
        <time>2022-08-29T12:44:09Z</time>
      </trkpt>
      <trkpt lat="42.3612610" lon="-3.5922420">
        <ele>886.2</ele>
        <time>2022-08-29T12:44:10Z</time>
      </trkpt>
      <trkpt lat="42.3612730" lon="-3.5922800">
        <ele>886.4</ele>
        <time>2022-08-29T12:44:11Z</time>
      </trkpt>
      <trkpt lat="42.3612850" lon="-3.5923160">
        <ele>886.8</ele>
        <time>2022-08-29T12:44:12Z</time>
      </trkpt>
      <trkpt lat="42.3612980" lon="-3.5923510">
        <ele>886.8</ele>
        <time>2022-08-29T12:44:13Z</time>
      </trkpt>
      <trkpt lat="42.3613110" lon="-3.5923860">
        <ele>886.8</ele>
        <time>2022-08-29T12:44:14Z</time>
      </trkpt>
      <trkpt lat="42.3613250" lon="-3.5924210">
        <ele>887.0</ele>
        <time>2022-08-29T12:44:15Z</time>
      </trkpt>
      <trkpt lat="42.3613380" lon="-3.5924550">
        <ele>887.4</ele>
        <time>2022-08-29T12:44:16Z</time>
      </trkpt>
      <trkpt lat="42.3613510" lon="-3.5924920">
        <ele>887.8</ele>
        <time>2022-08-29T12:44:17Z</time>
      </trkpt>
      <trkpt lat="42.3613650" lon="-3.5925290">
        <ele>888.0</ele>
        <time>2022-08-29T12:44:18Z</time>
      </trkpt>
      <trkpt lat="42.3613810" lon="-3.5925630">
        <ele>888.4</ele>
        <time>2022-08-29T12:44:19Z</time>
      </trkpt>
      <trkpt lat="42.3613980" lon="-3.5925980">
        <ele>888.6</ele>
        <time>2022-08-29T12:44:20Z</time>
      </trkpt>
      <trkpt lat="42.3614150" lon="-3.5926340">
        <ele>888.8</ele>
        <time>2022-08-29T12:44:21Z</time>
      </trkpt>
      <trkpt lat="42.3614340" lon="-3.5926700">
        <ele>889.0</ele>
        <time>2022-08-29T12:44:22Z</time>
      </trkpt>
      <trkpt lat="42.3614540" lon="-3.5927050">
        <ele>889.2</ele>
        <time>2022-08-29T12:44:23Z</time>
      </trkpt>
      <trkpt lat="42.3614760" lon="-3.5927420">
        <ele>889.4</ele>
        <time>2022-08-29T12:44:24Z</time>
      </trkpt>
      <trkpt lat="42.3614970" lon="-3.5927780">
        <ele>889.8</ele>
        <time>2022-08-29T12:44:25Z</time>
      </trkpt>
      <trkpt lat="42.3615180" lon="-3.5928160">
        <ele>890.0</ele>
        <time>2022-08-29T12:44:26Z</time>
      </trkpt>
      <trkpt lat="42.3615380" lon="-3.5928550">
        <ele>890.0</ele>
        <time>2022-08-29T12:44:27Z</time>
      </trkpt>
      <trkpt lat="42.3615560" lon="-3.5928910">
        <ele>890.2</ele>
        <time>2022-08-29T12:44:28Z</time>
      </trkpt>
      <trkpt lat="42.3615730" lon="-3.5929270">
        <ele>890.6</ele>
        <time>2022-08-29T12:44:29Z</time>
      </trkpt>
      <trkpt lat="42.3615910" lon="-3.5929620">
        <ele>890.8</ele>
        <time>2022-08-29T12:44:30Z</time>
      </trkpt>
      <trkpt lat="42.3616100" lon="-3.5929970">
        <ele>891.0</ele>
        <time>2022-08-29T12:44:31Z</time>
      </trkpt>
      <trkpt lat="42.3616300" lon="-3.5930320">
        <ele>891.4</ele>
        <time>2022-08-29T12:44:32Z</time>
      </trkpt>
      <trkpt lat="42.3616490" lon="-3.5930680">
        <ele>891.6</ele>
        <time>2022-08-29T12:44:33Z</time>
      </trkpt>
      <trkpt lat="42.3616690" lon="-3.5931040">
        <ele>891.6</ele>
        <time>2022-08-29T12:44:34Z</time>
      </trkpt>
      <trkpt lat="42.3616890" lon="-3.5931420">
        <ele>892.0</ele>
        <time>2022-08-29T12:44:35Z</time>
      </trkpt>
      <trkpt lat="42.3617080" lon="-3.5931810">
        <ele>892.0</ele>
        <time>2022-08-29T12:44:36Z</time>
      </trkpt>
      <trkpt lat="42.3617280" lon="-3.5932190">
        <ele>892.0</ele>
        <time>2022-08-29T12:44:37Z</time>
      </trkpt>
      <trkpt lat="42.3617480" lon="-3.5932590">
        <ele>892.4</ele>
        <time>2022-08-29T12:44:38Z</time>
      </trkpt>
      <trkpt lat="42.3617660" lon="-3.5932980">
        <ele>892.4</ele>
        <time>2022-08-29T12:44:39Z</time>
      </trkpt>
      <trkpt lat="42.3617840" lon="-3.5933390">
        <ele>892.6</ele>
        <time>2022-08-29T12:44:40Z</time>
      </trkpt>
      <trkpt lat="42.3618040" lon="-3.5933780">
        <ele>892.8</ele>
        <time>2022-08-29T12:44:41Z</time>
      </trkpt>
      <trkpt lat="42.3618250" lon="-3.5934150">
        <ele>892.6</ele>
        <time>2022-08-29T12:44:42Z</time>
      </trkpt>
      <trkpt lat="42.3618460" lon="-3.5934540">
        <ele>892.6</ele>
        <time>2022-08-29T12:44:43Z</time>
      </trkpt>
      <trkpt lat="42.3618650" lon="-3.5934940">
        <ele>892.6</ele>
        <time>2022-08-29T12:44:44Z</time>
      </trkpt>
      <trkpt lat="42.3618860" lon="-3.5935330">
        <ele>892.8</ele>
        <time>2022-08-29T12:44:45Z</time>
      </trkpt>
      <trkpt lat="42.3619060" lon="-3.5935730">
        <ele>892.8</ele>
        <time>2022-08-29T12:44:46Z</time>
      </trkpt>
      <trkpt lat="42.3619280" lon="-3.5936120">
        <ele>892.8</ele>
        <time>2022-08-29T12:44:47Z</time>
      </trkpt>
      <trkpt lat="42.3619510" lon="-3.5936500">
        <ele>892.8</ele>
        <time>2022-08-29T12:44:48Z</time>
      </trkpt>
      <trkpt lat="42.3619720" lon="-3.5936900">
        <ele>892.8</ele>
        <time>2022-08-29T12:44:49Z</time>
      </trkpt>
      <trkpt lat="42.3619910" lon="-3.5937310">
        <ele>892.8</ele>
        <time>2022-08-29T12:44:50Z</time>
      </trkpt>
      <trkpt lat="42.3620110" lon="-3.5937740">
        <ele>892.6</ele>
        <time>2022-08-29T12:44:51Z</time>
      </trkpt>
      <trkpt lat="42.3620300" lon="-3.5938180">
        <ele>892.6</ele>
        <time>2022-08-29T12:44:52Z</time>
      </trkpt>
      <trkpt lat="42.3620470" lon="-3.5938650">
        <ele>892.6</ele>
        <time>2022-08-29T12:44:53Z</time>
      </trkpt>
      <trkpt lat="42.3620630" lon="-3.5939160">
        <ele>892.6</ele>
        <time>2022-08-29T12:44:54Z</time>
      </trkpt>
      <trkpt lat="42.3620820" lon="-3.5939690">
        <ele>892.4</ele>
        <time>2022-08-29T12:44:55Z</time>
      </trkpt>
      <trkpt lat="42.3621010" lon="-3.5940240">
        <ele>892.4</ele>
        <time>2022-08-29T12:44:56Z</time>
      </trkpt>
      <trkpt lat="42.3621200" lon="-3.5940820">
        <ele>892.2</ele>
        <time>2022-08-29T12:44:57Z</time>
      </trkpt>
      <trkpt lat="42.3621360" lon="-3.5941440">
        <ele>892.2</ele>
        <time>2022-08-29T12:44:58Z</time>
      </trkpt>
      <trkpt lat="42.3621470" lon="-3.5942120">
        <ele>892.0</ele>
        <time>2022-08-29T12:44:59Z</time>
      </trkpt>
      <trkpt lat="42.3621590" lon="-3.5942830">
        <ele>892.0</ele>
        <time>2022-08-29T12:45:00Z</time>
      </trkpt>
      <trkpt lat="42.3621700" lon="-3.5943550">
        <ele>892.0</ele>
        <time>2022-08-29T12:45:01Z</time>
      </trkpt>
      <trkpt lat="42.3621770" lon="-3.5944310">
        <ele>891.8</ele>
        <time>2022-08-29T12:45:02Z</time>
      </trkpt>
      <trkpt lat="42.3621800" lon="-3.5945080">
        <ele>891.8</ele>
        <time>2022-08-29T12:45:03Z</time>
      </trkpt>
      <trkpt lat="42.3621810" lon="-3.5945870">
        <ele>891.6</ele>
        <time>2022-08-29T12:45:04Z</time>
      </trkpt>
      <trkpt lat="42.3621790" lon="-3.5946650">
        <ele>891.4</ele>
        <time>2022-08-29T12:45:05Z</time>
      </trkpt>
      <trkpt lat="42.3621730" lon="-3.5947430">
        <ele>891.0</ele>
        <time>2022-08-29T12:45:06Z</time>
      </trkpt>
      <trkpt lat="42.3621670" lon="-3.5948220">
        <ele>891.0</ele>
        <time>2022-08-29T12:45:07Z</time>
      </trkpt>
      <trkpt lat="42.3621610" lon="-3.5948990">
        <ele>891.0</ele>
        <time>2022-08-29T12:45:08Z</time>
      </trkpt>
      <trkpt lat="42.3621570" lon="-3.5949750">
        <ele>890.6</ele>
        <time>2022-08-29T12:45:09Z</time>
      </trkpt>
      <trkpt lat="42.3621540" lon="-3.5950500">
        <ele>890.2</ele>
        <time>2022-08-29T12:45:10Z</time>
      </trkpt>
      <trkpt lat="42.3621510" lon="-3.5951250">
        <ele>890.2</ele>
        <time>2022-08-29T12:45:11Z</time>
      </trkpt>
      <trkpt lat="42.3621480" lon="-3.5951990">
        <ele>889.8</ele>
        <time>2022-08-29T12:45:12Z</time>
      </trkpt>
      <trkpt lat="42.3621460" lon="-3.5952750">
        <ele>889.4</ele>
        <time>2022-08-29T12:45:13Z</time>
      </trkpt>
      <trkpt lat="42.3621470" lon="-3.5953520">
        <ele>889.4</ele>
        <time>2022-08-29T12:45:14Z</time>
      </trkpt>
      <trkpt lat="42.3621500" lon="-3.5954290">
        <ele>889.2</ele>
        <time>2022-08-29T12:45:15Z</time>
      </trkpt>
      <trkpt lat="42.3621560" lon="-3.5955060">
        <ele>889.0</ele>
        <time>2022-08-29T12:45:16Z</time>
      </trkpt>
      <trkpt lat="42.3621650" lon="-3.5955810">
        <ele>888.8</ele>
        <time>2022-08-29T12:45:17Z</time>
      </trkpt>
      <trkpt lat="42.3621760" lon="-3.5956560">
        <ele>888.8</ele>
        <time>2022-08-29T12:45:18Z</time>
      </trkpt>
      <trkpt lat="42.3621890" lon="-3.5957300">
        <ele>888.6</ele>
        <time>2022-08-29T12:45:19Z</time>
      </trkpt>
      <trkpt lat="42.3622020" lon="-3.5958030">
        <ele>888.6</ele>
        <time>2022-08-29T12:45:20Z</time>
      </trkpt>
      <trkpt lat="42.3622170" lon="-3.5958750">
        <ele>888.4</ele>
        <time>2022-08-29T12:45:21Z</time>
      </trkpt>
      <trkpt lat="42.3622330" lon="-3.5959460">
        <ele>888.4</ele>
        <time>2022-08-29T12:45:22Z</time>
      </trkpt>
      <trkpt lat="42.3622520" lon="-3.5960170">
        <ele>888.6</ele>
        <time>2022-08-29T12:45:23Z</time>
      </trkpt>
      <trkpt lat="42.3622710" lon="-3.5960880">
        <ele>888.6</ele>
        <time>2022-08-29T12:45:24Z</time>
      </trkpt>
      <trkpt lat="42.3622900" lon="-3.5961600">
        <ele>888.4</ele>
        <time>2022-08-29T12:45:25Z</time>
      </trkpt>
      <trkpt lat="42.3623110" lon="-3.5962330">
        <ele>888.6</ele>
        <time>2022-08-29T12:45:26Z</time>
      </trkpt>
      <trkpt lat="42.3623340" lon="-3.5963060">
        <ele>888.4</ele>
        <time>2022-08-29T12:45:27Z</time>
      </trkpt>
      <trkpt lat="42.3623590" lon="-3.5963800">
        <ele>888.4</ele>
        <time>2022-08-29T12:45:28Z</time>
      </trkpt>
      <trkpt lat="42.3623890" lon="-3.5964560">
        <ele>888.2</ele>
        <time>2022-08-29T12:45:29Z</time>
      </trkpt>
      <trkpt lat="42.3624250" lon="-3.5965320">
        <ele>888.2</ele>
        <time>2022-08-29T12:45:30Z</time>
      </trkpt>
      <trkpt lat="42.3624640" lon="-3.5966110">
        <ele>888.2</ele>
        <time>2022-08-29T12:45:31Z</time>
      </trkpt>
      <trkpt lat="42.3625050" lon="-3.5966950">
        <ele>888.2</ele>
        <time>2022-08-29T12:45:32Z</time>
      </trkpt>
      <trkpt lat="42.3625460" lon="-3.5967840">
        <ele>888.0</ele>
        <time>2022-08-29T12:45:33Z</time>
      </trkpt>
      <trkpt lat="42.3625890" lon="-3.5968800">
        <ele>887.6</ele>
        <time>2022-08-29T12:45:34Z</time>
      </trkpt>
      <trkpt lat="42.3626320" lon="-3.5969830">
        <ele>887.6</ele>
        <time>2022-08-29T12:45:35Z</time>
      </trkpt>
      <trkpt lat="42.3626760" lon="-3.5970890">
        <ele>887.4</ele>
        <time>2022-08-29T12:45:36Z</time>
      </trkpt>
      <trkpt lat="42.3627230" lon="-3.5971980">
        <ele>887.0</ele>
        <time>2022-08-29T12:45:37Z</time>
      </trkpt>
      <trkpt lat="42.3627700" lon="-3.5973090">
        <ele>887.0</ele>
        <time>2022-08-29T12:45:38Z</time>
      </trkpt>
      <trkpt lat="42.3628160" lon="-3.5974210">
        <ele>886.4</ele>
        <time>2022-08-29T12:45:39Z</time>
      </trkpt>
      <trkpt lat="42.3628610" lon="-3.5975330">
        <ele>886.0</ele>
        <time>2022-08-29T12:45:40Z</time>
      </trkpt>
      <trkpt lat="42.3629020" lon="-3.5976450">
        <ele>885.6</ele>
        <time>2022-08-29T12:45:41Z</time>
      </trkpt>
      <trkpt lat="42.3629410" lon="-3.5977570">
        <ele>885.0</ele>
        <time>2022-08-29T12:45:42Z</time>
      </trkpt>
      <trkpt lat="42.3629780" lon="-3.5978670">
        <ele>884.4</ele>
        <time>2022-08-29T12:45:43Z</time>
      </trkpt>
      <trkpt lat="42.3630130" lon="-3.5979770">
        <ele>883.4</ele>
        <time>2022-08-29T12:45:44Z</time>
      </trkpt>
      <trkpt lat="42.3630490" lon="-3.5980850">
        <ele>882.2</ele>
        <time>2022-08-29T12:45:45Z</time>
      </trkpt>
      <trkpt lat="42.3630840" lon="-3.5981900">
        <ele>881.2</ele>
        <time>2022-08-29T12:45:46Z</time>
      </trkpt>
      <trkpt lat="42.3631180" lon="-3.5982920">
        <ele>880.8</ele>
        <time>2022-08-29T12:45:47Z</time>
      </trkpt>
      <trkpt lat="42.3631500" lon="-3.5983900">
        <ele>880.4</ele>
        <time>2022-08-29T12:45:48Z</time>
      </trkpt>
      <trkpt lat="42.3631790" lon="-3.5984830">
        <ele>880.4</ele>
        <time>2022-08-29T12:45:49Z</time>
      </trkpt>
      <trkpt lat="42.3632040" lon="-3.5985720">
        <ele>880.4</ele>
        <time>2022-08-29T12:45:50Z</time>
      </trkpt>
      <trkpt lat="42.3632260" lon="-3.5986570">
        <ele>880.2</ele>
        <time>2022-08-29T12:45:51Z</time>
      </trkpt>
      <trkpt lat="42.3632440" lon="-3.5987380">
        <ele>880.2</ele>
        <time>2022-08-29T12:45:52Z</time>
      </trkpt>
      <trkpt lat="42.3632600" lon="-3.5988140">
        <ele>880.0</ele>
        <time>2022-08-29T12:45:53Z</time>
      </trkpt>
      <trkpt lat="42.3632760" lon="-3.5988870">
        <ele>880.2</ele>
        <time>2022-08-29T12:45:54Z</time>
      </trkpt>
      <trkpt lat="42.3632890" lon="-3.5989570">
        <ele>880.0</ele>
        <time>2022-08-29T12:45:55Z</time>
      </trkpt>
      <trkpt lat="42.3632980" lon="-3.5990250">
        <ele>880.2</ele>
        <time>2022-08-29T12:45:56Z</time>
      </trkpt>
      <trkpt lat="42.3633050" lon="-3.5990930">
        <ele>880.2</ele>
        <time>2022-08-29T12:45:57Z</time>
      </trkpt>
      <trkpt lat="42.3633120" lon="-3.5991600">
        <ele>880.4</ele>
        <time>2022-08-29T12:45:58Z</time>
      </trkpt>
      <trkpt lat="42.3633190" lon="-3.5992270">
        <ele>880.6</ele>
        <time>2022-08-29T12:45:59Z</time>
      </trkpt>
      <trkpt lat="42.3633270" lon="-3.5992900">
        <ele>881.0</ele>
        <time>2022-08-29T12:46:00Z</time>
      </trkpt>
      <trkpt lat="42.3633340" lon="-3.5993520">
        <ele>881.4</ele>
        <time>2022-08-29T12:46:01Z</time>
      </trkpt>
      <trkpt lat="42.3633400" lon="-3.5994130">
        <ele>881.8</ele>
        <time>2022-08-29T12:46:02Z</time>
      </trkpt>
      <trkpt lat="42.3633450" lon="-3.5994730">
        <ele>882.4</ele>
        <time>2022-08-29T12:46:03Z</time>
      </trkpt>
      <trkpt lat="42.3633500" lon="-3.5995310">
        <ele>882.8</ele>
        <time>2022-08-29T12:46:04Z</time>
      </trkpt>
      <trkpt lat="42.3633560" lon="-3.5995900">
        <ele>883.2</ele>
        <time>2022-08-29T12:46:05Z</time>
      </trkpt>
      <trkpt lat="42.3633650" lon="-3.5996500">
        <ele>883.4</ele>
        <time>2022-08-29T12:46:06Z</time>
      </trkpt>
      <trkpt lat="42.3633760" lon="-3.5997120">
        <ele>883.6</ele>
        <time>2022-08-29T12:46:07Z</time>
      </trkpt>
      <trkpt lat="42.3633860" lon="-3.5997750">
        <ele>883.6</ele>
        <time>2022-08-29T12:46:08Z</time>
      </trkpt>
      <trkpt lat="42.3633960" lon="-3.5998390">
        <ele>883.4</ele>
        <time>2022-08-29T12:46:09Z</time>
      </trkpt>
      <trkpt lat="42.3634060" lon="-3.5999060">
        <ele>883.6</ele>
        <time>2022-08-29T12:46:10Z</time>
      </trkpt>
      <trkpt lat="42.3634180" lon="-3.5999730">
        <ele>883.6</ele>
        <time>2022-08-29T12:46:11Z</time>
      </trkpt>
      <trkpt lat="42.3634310" lon="-3.6000430">
        <ele>883.6</ele>
        <time>2022-08-29T12:46:12Z</time>
      </trkpt>
      <trkpt lat="42.3634450" lon="-3.6001120">
        <ele>883.6</ele>
        <time>2022-08-29T12:46:13Z</time>
      </trkpt>
      <trkpt lat="42.3634630" lon="-3.6001820">
        <ele>883.6</ele>
        <time>2022-08-29T12:46:14Z</time>
      </trkpt>
      <trkpt lat="42.3634830" lon="-3.6002530">
        <ele>883.6</ele>
        <time>2022-08-29T12:46:15Z</time>
      </trkpt>
      <trkpt lat="42.3635040" lon="-3.6003260">
        <ele>883.6</ele>
        <time>2022-08-29T12:46:16Z</time>
      </trkpt>
      <trkpt lat="42.3635270" lon="-3.6004000">
        <ele>883.4</ele>
        <time>2022-08-29T12:46:17Z</time>
      </trkpt>
      <trkpt lat="42.3635520" lon="-3.6004740">
        <ele>883.4</ele>
        <time>2022-08-29T12:46:18Z</time>
      </trkpt>
      <trkpt lat="42.3635790" lon="-3.6005490">
        <ele>883.4</ele>
        <time>2022-08-29T12:46:19Z</time>
      </trkpt>
      <trkpt lat="42.3636090" lon="-3.6006260">
        <ele>883.2</ele>
        <time>2022-08-29T12:46:20Z</time>
      </trkpt>
      <trkpt lat="42.3636410" lon="-3.6007010">
        <ele>883.2</ele>
        <time>2022-08-29T12:46:21Z</time>
      </trkpt>
      <trkpt lat="42.3636780" lon="-3.6007740">
        <ele>883.0</ele>
        <time>2022-08-29T12:46:22Z</time>
      </trkpt>
      <trkpt lat="42.3637170" lon="-3.6008470">
        <ele>882.8</ele>
        <time>2022-08-29T12:46:23Z</time>
      </trkpt>
      <trkpt lat="42.3637560" lon="-3.6009210">
        <ele>882.8</ele>
        <time>2022-08-29T12:46:24Z</time>
      </trkpt>
      <trkpt lat="42.3637970" lon="-3.6009940">
        <ele>882.8</ele>
        <time>2022-08-29T12:46:25Z</time>
      </trkpt>
      <trkpt lat="42.3638390" lon="-3.6010660">
        <ele>882.8</ele>
        <time>2022-08-29T12:46:26Z</time>
      </trkpt>
      <trkpt lat="42.3638840" lon="-3.6011360">
        <ele>882.6</ele>
        <time>2022-08-29T12:46:27Z</time>
      </trkpt>
      <trkpt lat="42.3639310" lon="-3.6012030">
        <ele>882.4</ele>
        <time>2022-08-29T12:46:28Z</time>
      </trkpt>
      <trkpt lat="42.3639810" lon="-3.6012660">
        <ele>882.0</ele>
        <time>2022-08-29T12:46:29Z</time>
      </trkpt>
      <trkpt lat="42.3640340" lon="-3.6013270">
        <ele>882.0</ele>
        <time>2022-08-29T12:46:30Z</time>
      </trkpt>
      <trkpt lat="42.3640880" lon="-3.6013860">
        <ele>881.8</ele>
        <time>2022-08-29T12:46:31Z</time>
      </trkpt>
      <trkpt lat="42.3641440" lon="-3.6014430">
        <ele>881.6</ele>
        <time>2022-08-29T12:46:32Z</time>
      </trkpt>
      <trkpt lat="42.3642020" lon="-3.6014970">
        <ele>881.2</ele>
        <time>2022-08-29T12:46:33Z</time>
      </trkpt>
      <trkpt lat="42.3642620" lon="-3.6015490">
        <ele>881.0</ele>
        <time>2022-08-29T12:46:34Z</time>
      </trkpt>
      <trkpt lat="42.3643230" lon="-3.6015970">
        <ele>880.6</ele>
        <time>2022-08-29T12:46:35Z</time>
      </trkpt>
      <trkpt lat="42.3643870" lon="-3.6016400">
        <ele>880.6</ele>
        <time>2022-08-29T12:46:36Z</time>
      </trkpt>
      <trkpt lat="42.3644510" lon="-3.6016780">
        <ele>880.2</ele>
        <time>2022-08-29T12:46:37Z</time>
      </trkpt>
      <trkpt lat="42.3645180" lon="-3.6017100">
        <ele>880.0</ele>
        <time>2022-08-29T12:46:38Z</time>
      </trkpt>
      <trkpt lat="42.3645860" lon="-3.6017330">
        <ele>879.8</ele>
        <time>2022-08-29T12:46:39Z</time>
      </trkpt>
      <trkpt lat="42.3646560" lon="-3.6017480">
        <ele>879.8</ele>
        <time>2022-08-29T12:46:40Z</time>
      </trkpt>
      <trkpt lat="42.3647260" lon="-3.6017550">
        <ele>879.6</ele>
        <time>2022-08-29T12:46:41Z</time>
      </trkpt>
      <trkpt lat="42.3647960" lon="-3.6017550">
        <ele>879.4</ele>
        <time>2022-08-29T12:46:42Z</time>
      </trkpt>
      <trkpt lat="42.3648650" lon="-3.6017480">
        <ele>879.4</ele>
        <time>2022-08-29T12:46:43Z</time>
      </trkpt>
      <trkpt lat="42.3649320" lon="-3.6017330">
        <ele>879.4</ele>
        <time>2022-08-29T12:46:44Z</time>
      </trkpt>
      <trkpt lat="42.3649990" lon="-3.6017110">
        <ele>879.2</ele>
        <time>2022-08-29T12:46:45Z</time>
      </trkpt>
      <trkpt lat="42.3650640" lon="-3.6016850">
        <ele>879.2</ele>
        <time>2022-08-29T12:46:46Z</time>
      </trkpt>
      <trkpt lat="42.3651290" lon="-3.6016560">
        <ele>879.2</ele>
        <time>2022-08-29T12:46:47Z</time>
      </trkpt>
      <trkpt lat="42.3651950" lon="-3.6016270">
        <ele>879.2</ele>
        <time>2022-08-29T12:46:48Z</time>
      </trkpt>
      <trkpt lat="42.3652600" lon="-3.6015980">
        <ele>878.8</ele>
        <time>2022-08-29T12:46:49Z</time>
      </trkpt>
      <trkpt lat="42.3653250" lon="-3.6015670">
        <ele>878.6</ele>
        <time>2022-08-29T12:46:50Z</time>
      </trkpt>
      <trkpt lat="42.3653900" lon="-3.6015370">
        <ele>878.6</ele>
        <time>2022-08-29T12:46:51Z</time>
      </trkpt>
      <trkpt lat="42.3654560" lon="-3.6015100">
        <ele>878.6</ele>
        <time>2022-08-29T12:46:52Z</time>
      </trkpt>
      <trkpt lat="42.3655230" lon="-3.6014850">
        <ele>878.6</ele>
        <time>2022-08-29T12:46:53Z</time>
      </trkpt>
      <trkpt lat="42.3655900" lon="-3.6014610">
        <ele>878.4</ele>
        <time>2022-08-29T12:46:54Z</time>
      </trkpt>
      <trkpt lat="42.3656590" lon="-3.6014380">
        <ele>878.4</ele>
        <time>2022-08-29T12:46:55Z</time>
      </trkpt>
      <trkpt lat="42.3657290" lon="-3.6014210">
        <ele>878.4</ele>
        <time>2022-08-29T12:46:56Z</time>
      </trkpt>
      <trkpt lat="42.3657990" lon="-3.6014080">
        <ele>878.2</ele>
        <time>2022-08-29T12:46:57Z</time>
      </trkpt>
      <trkpt lat="42.3658710" lon="-3.6014010">
        <ele>878.2</ele>
        <time>2022-08-29T12:46:58Z</time>
      </trkpt>
      <trkpt lat="42.3659430" lon="-3.6014000">
        <ele>878.2</ele>
        <time>2022-08-29T12:46:59Z</time>
      </trkpt>
      <trkpt lat="42.3660170" lon="-3.6014060">
        <ele>878.0</ele>
        <time>2022-08-29T12:47:00Z</time>
      </trkpt>
      <trkpt lat="42.3660900" lon="-3.6014200">
        <ele>878.0</ele>
        <time>2022-08-29T12:47:01Z</time>
      </trkpt>
      <trkpt lat="42.3661650" lon="-3.6014400">
        <ele>878.0</ele>
        <time>2022-08-29T12:47:02Z</time>
      </trkpt>
      <trkpt lat="42.3662400" lon="-3.6014630">
        <ele>878.0</ele>
        <time>2022-08-29T12:47:03Z</time>
      </trkpt>
      <trkpt lat="42.3663130" lon="-3.6014920">
        <ele>877.8</ele>
        <time>2022-08-29T12:47:04Z</time>
      </trkpt>
      <trkpt lat="42.3663850" lon="-3.6015280">
        <ele>877.6</ele>
        <time>2022-08-29T12:47:05Z</time>
      </trkpt>
      <trkpt lat="42.3664560" lon="-3.6015730">
        <ele>877.6</ele>
        <time>2022-08-29T12:47:06Z</time>
      </trkpt>
      <trkpt lat="42.3665240" lon="-3.6016240">
        <ele>877.6</ele>
        <time>2022-08-29T12:47:07Z</time>
      </trkpt>
      <trkpt lat="42.3665890" lon="-3.6016820">
        <ele>877.4</ele>
        <time>2022-08-29T12:47:08Z</time>
      </trkpt>
      <trkpt lat="42.3666530" lon="-3.6017430">
        <ele>877.4</ele>
        <time>2022-08-29T12:47:09Z</time>
      </trkpt>
      <trkpt lat="42.3667160" lon="-3.6018070">
        <ele>877.4</ele>
        <time>2022-08-29T12:47:10Z</time>
      </trkpt>
      <trkpt lat="42.3667750" lon="-3.6018760">
        <ele>877.2</ele>
        <time>2022-08-29T12:47:11Z</time>
      </trkpt>
      <trkpt lat="42.3668320" lon="-3.6019480">
        <ele>877.0</ele>
        <time>2022-08-29T12:47:12Z</time>
      </trkpt>
      <trkpt lat="42.3668880" lon="-3.6020220">
        <ele>877.0</ele>
        <time>2022-08-29T12:47:13Z</time>
      </trkpt>
      <trkpt lat="42.3669420" lon="-3.6020970">
        <ele>876.6</ele>
        <time>2022-08-29T12:47:14Z</time>
      </trkpt>
      <trkpt lat="42.3669950" lon="-3.6021740">
        <ele>876.8</ele>
        <time>2022-08-29T12:47:15Z</time>
      </trkpt>
      <trkpt lat="42.3670490" lon="-3.6022490">
        <ele>876.6</ele>
        <time>2022-08-29T12:47:16Z</time>
      </trkpt>
      <trkpt lat="42.3671040" lon="-3.6023230">
        <ele>876.4</ele>
        <time>2022-08-29T12:47:17Z</time>
      </trkpt>
      <trkpt lat="42.3671570" lon="-3.6023980">
        <ele>876.6</ele>
        <time>2022-08-29T12:47:18Z</time>
      </trkpt>
      <trkpt lat="42.3672090" lon="-3.6024750">
        <ele>876.4</ele>
        <time>2022-08-29T12:47:19Z</time>
      </trkpt>
      <trkpt lat="42.3672590" lon="-3.6025530">
        <ele>876.2</ele>
        <time>2022-08-29T12:47:20Z</time>
      </trkpt>
      <trkpt lat="42.3673080" lon="-3.6026310">
        <ele>876.4</ele>
        <time>2022-08-29T12:47:21Z</time>
      </trkpt>
      <trkpt lat="42.3673520" lon="-3.6027100">
        <ele>876.4</ele>
        <time>2022-08-29T12:47:22Z</time>
      </trkpt>
      <trkpt lat="42.3673910" lon="-3.6027930">
        <ele>876.2</ele>
        <time>2022-08-29T12:47:23Z</time>
      </trkpt>
      <trkpt lat="42.3674250" lon="-3.6028770">
        <ele>876.2</ele>
        <time>2022-08-29T12:47:24Z</time>
      </trkpt>
      <trkpt lat="42.3674560" lon="-3.6029620">
        <ele>876.2</ele>
        <time>2022-08-29T12:47:25Z</time>
      </trkpt>
      <trkpt lat="42.3674810" lon="-3.6030480">
        <ele>875.8</ele>
        <time>2022-08-29T12:47:26Z</time>
      </trkpt>
      <trkpt lat="42.3675030" lon="-3.6031340">
        <ele>875.8</ele>
        <time>2022-08-29T12:47:27Z</time>
      </trkpt>
      <trkpt lat="42.3675200" lon="-3.6032210">
        <ele>875.8</ele>
        <time>2022-08-29T12:47:28Z</time>
      </trkpt>
      <trkpt lat="42.3675350" lon="-3.6033080">
        <ele>875.8</ele>
        <time>2022-08-29T12:47:29Z</time>
      </trkpt>
      <trkpt lat="42.3675480" lon="-3.6033950">
        <ele>875.8</ele>
        <time>2022-08-29T12:47:30Z</time>
      </trkpt>
      <trkpt lat="42.3675570" lon="-3.6034810">
        <ele>875.6</ele>
        <time>2022-08-29T12:47:31Z</time>
      </trkpt>
      <trkpt lat="42.3675580" lon="-3.6035660">
        <ele>875.6</ele>
        <time>2022-08-29T12:47:32Z</time>
      </trkpt>
      <trkpt lat="42.3675540" lon="-3.6036500">
        <ele>875.4</ele>
        <time>2022-08-29T12:47:33Z</time>
      </trkpt>
      <trkpt lat="42.3675510" lon="-3.6037330">
        <ele>875.4</ele>
        <time>2022-08-29T12:47:34Z</time>
      </trkpt>
      <trkpt lat="42.3675460" lon="-3.6038160">
        <ele>875.4</ele>
        <time>2022-08-29T12:47:35Z</time>
      </trkpt>
      <trkpt lat="42.3675370" lon="-3.6038980">
        <ele>875.6</ele>
        <time>2022-08-29T12:47:36Z</time>
      </trkpt>
      <trkpt lat="42.3675250" lon="-3.6039770">
        <ele>875.2</ele>
        <time>2022-08-29T12:47:37Z</time>
      </trkpt>
      <trkpt lat="42.3675110" lon="-3.6040560">
        <ele>875.2</ele>
        <time>2022-08-29T12:47:38Z</time>
      </trkpt>
      <trkpt lat="42.3674940" lon="-3.6041340">
        <ele>875.2</ele>
        <time>2022-08-29T12:47:39Z</time>
      </trkpt>
      <trkpt lat="42.3674720" lon="-3.6042100">
        <ele>875.2</ele>
        <time>2022-08-29T12:47:40Z</time>
      </trkpt>
      <trkpt lat="42.3674460" lon="-3.6042850">
        <ele>875.0</ele>
        <time>2022-08-29T12:47:41Z</time>
      </trkpt>
      <trkpt lat="42.3674160" lon="-3.6043580">
        <ele>875.0</ele>
        <time>2022-08-29T12:47:42Z</time>
      </trkpt>
      <trkpt lat="42.3673840" lon="-3.6044310">
        <ele>875.0</ele>
        <time>2022-08-29T12:47:43Z</time>
      </trkpt>
      <trkpt lat="42.3673490" lon="-3.6045010">
        <ele>875.0</ele>
        <time>2022-08-29T12:47:44Z</time>
      </trkpt>
      <trkpt lat="42.3673150" lon="-3.6045710">
        <ele>874.6</ele>
        <time>2022-08-29T12:47:45Z</time>
      </trkpt>
      <trkpt lat="42.3672770" lon="-3.6046380">
        <ele>874.6</ele>
        <time>2022-08-29T12:47:46Z</time>
      </trkpt>
      <trkpt lat="42.3672380" lon="-3.6047000">
        <ele>874.6</ele>
        <time>2022-08-29T12:47:47Z</time>
      </trkpt>
      <trkpt lat="42.3671970" lon="-3.6047610">
        <ele>874.4</ele>
        <time>2022-08-29T12:47:48Z</time>
      </trkpt>
      <trkpt lat="42.3671540" lon="-3.6048200">
        <ele>874.2</ele>
        <time>2022-08-29T12:47:49Z</time>
      </trkpt>
      <trkpt lat="42.3671120" lon="-3.6048750">
        <ele>874.2</ele>
        <time>2022-08-29T12:47:50Z</time>
      </trkpt>
      <trkpt lat="42.3670690" lon="-3.6049280">
        <ele>874.0</ele>
        <time>2022-08-29T12:47:51Z</time>
      </trkpt>
      <trkpt lat="42.3670260" lon="-3.6049800">
        <ele>874.0</ele>
        <time>2022-08-29T12:47:52Z</time>
      </trkpt>
      <trkpt lat="42.3669840" lon="-3.6050330">
        <ele>873.8</ele>
        <time>2022-08-29T12:47:53Z</time>
      </trkpt>
      <trkpt lat="42.3669430" lon="-3.6050860">
        <ele>873.8</ele>
        <time>2022-08-29T12:47:54Z</time>
      </trkpt>
      <trkpt lat="42.3669020" lon="-3.6051390">
        <ele>873.6</ele>
        <time>2022-08-29T12:47:55Z</time>
      </trkpt>
      <trkpt lat="42.3668600" lon="-3.6051920">
        <ele>873.6</ele>
        <time>2022-08-29T12:47:56Z</time>
      </trkpt>
      <trkpt lat="42.3668190" lon="-3.6052440">
        <ele>873.4</ele>
        <time>2022-08-29T12:47:57Z</time>
      </trkpt>
      <trkpt lat="42.3667780" lon="-3.6052960">
        <ele>873.6</ele>
        <time>2022-08-29T12:47:58Z</time>
      </trkpt>
      <trkpt lat="42.3667370" lon="-3.6053470">
        <ele>873.6</ele>
        <time>2022-08-29T12:47:59Z</time>
      </trkpt>
      <trkpt lat="42.3666970" lon="-3.6053980">
        <ele>873.4</ele>
        <time>2022-08-29T12:48:00Z</time>
      </trkpt>
      <trkpt lat="42.3666580" lon="-3.6054500">
        <ele>873.4</ele>
        <time>2022-08-29T12:48:01Z</time>
      </trkpt>
      <trkpt lat="42.3666190" lon="-3.6055000">
        <ele>873.2</ele>
        <time>2022-08-29T12:48:02Z</time>
      </trkpt>
      <trkpt lat="42.3665790" lon="-3.6055500">
        <ele>873.2</ele>
        <time>2022-08-29T12:48:03Z</time>
      </trkpt>
      <trkpt lat="42.3665400" lon="-3.6056020">
        <ele>873.4</ele>
        <time>2022-08-29T12:48:04Z</time>
      </trkpt>
      <trkpt lat="42.3665000" lon="-3.6056540">
        <ele>873.2</ele>
        <time>2022-08-29T12:48:05Z</time>
      </trkpt>
      <trkpt lat="42.3664580" lon="-3.6057050">
        <ele>873.4</ele>
        <time>2022-08-29T12:48:06Z</time>
      </trkpt>
      <trkpt lat="42.3664150" lon="-3.6057560">
        <ele>873.4</ele>
        <time>2022-08-29T12:48:07Z</time>
      </trkpt>
      <trkpt lat="42.3663710" lon="-3.6058060">
        <ele>873.4</ele>
        <time>2022-08-29T12:48:08Z</time>
      </trkpt>
      <trkpt lat="42.3663280" lon="-3.6058580">
        <ele>873.4</ele>
        <time>2022-08-29T12:48:09Z</time>
      </trkpt>
      <trkpt lat="42.3662860" lon="-3.6059110">
        <ele>873.4</ele>
        <time>2022-08-29T12:48:10Z</time>
      </trkpt>
      <trkpt lat="42.3662440" lon="-3.6059630">
        <ele>873.4</ele>
        <time>2022-08-29T12:48:11Z</time>
      </trkpt>
      <trkpt lat="42.3662020" lon="-3.6060160">
        <ele>873.4</ele>
        <time>2022-08-29T12:48:12Z</time>
      </trkpt>
      <trkpt lat="42.3661600" lon="-3.6060680">
        <ele>873.4</ele>
        <time>2022-08-29T12:48:13Z</time>
      </trkpt>
      <trkpt lat="42.3661170" lon="-3.6061200">
        <ele>873.4</ele>
        <time>2022-08-29T12:48:14Z</time>
      </trkpt>
      <trkpt lat="42.3660740" lon="-3.6061730">
        <ele>873.4</ele>
        <time>2022-08-29T12:48:15Z</time>
      </trkpt>
      <trkpt lat="42.3660310" lon="-3.6062250">
        <ele>873.4</ele>
        <time>2022-08-29T12:48:16Z</time>
      </trkpt>
      <trkpt lat="42.3659880" lon="-3.6062780">
        <ele>873.4</ele>
        <time>2022-08-29T12:48:17Z</time>
      </trkpt>
      <trkpt lat="42.3659470" lon="-3.6063300">
        <ele>873.4</ele>
        <time>2022-08-29T12:48:18Z</time>
      </trkpt>
      <trkpt lat="42.3659040" lon="-3.6063810">
        <ele>873.2</ele>
        <time>2022-08-29T12:48:19Z</time>
      </trkpt>
      <trkpt lat="42.3658610" lon="-3.6064300">
        <ele>873.2</ele>
        <time>2022-08-29T12:48:20Z</time>
      </trkpt>
      <trkpt lat="42.3658180" lon="-3.6064790">
        <ele>873.4</ele>
        <time>2022-08-29T12:48:21Z</time>
      </trkpt>
      <trkpt lat="42.3657770" lon="-3.6065320">
        <ele>873.2</ele>
        <time>2022-08-29T12:48:22Z</time>
      </trkpt>
      <trkpt lat="42.3657360" lon="-3.6065850">
        <ele>873.2</ele>
        <time>2022-08-29T12:48:23Z</time>
      </trkpt>
      <trkpt lat="42.3656970" lon="-3.6066360">
        <ele>873.4</ele>
        <time>2022-08-29T12:48:24Z</time>
      </trkpt>
      <trkpt lat="42.3656570" lon="-3.6066870">
        <ele>873.2</ele>
        <time>2022-08-29T12:48:25Z</time>
      </trkpt>
      <trkpt lat="42.3656180" lon="-3.6067360">
        <ele>873.2</ele>
        <time>2022-08-29T12:48:26Z</time>
      </trkpt>
      <trkpt lat="42.3655800" lon="-3.6067870">
        <ele>873.4</ele>
        <time>2022-08-29T12:48:27Z</time>
      </trkpt>
      <trkpt lat="42.3655410" lon="-3.6068360">
        <ele>873.2</ele>
        <time>2022-08-29T12:48:28Z</time>
      </trkpt>
      <trkpt lat="42.3655020" lon="-3.6068850">
        <ele>873.4</ele>
        <time>2022-08-29T12:48:29Z</time>
      </trkpt>
      <trkpt lat="42.3654640" lon="-3.6069340">
        <ele>873.4</ele>
        <time>2022-08-29T12:48:30Z</time>
      </trkpt>
      <trkpt lat="42.3654250" lon="-3.6069840">
        <ele>873.2</ele>
        <time>2022-08-29T12:48:31Z</time>
      </trkpt>
      <trkpt lat="42.3653860" lon="-3.6070330">
        <ele>873.4</ele>
        <time>2022-08-29T12:48:32Z</time>
      </trkpt>
      <trkpt lat="42.3653470" lon="-3.6070820">
        <ele>873.4</ele>
        <time>2022-08-29T12:48:33Z</time>
      </trkpt>
      <trkpt lat="42.3653080" lon="-3.6071300">
        <ele>873.2</ele>
        <time>2022-08-29T12:48:34Z</time>
      </trkpt>
      <trkpt lat="42.3652690" lon="-3.6071790">
        <ele>873.4</ele>
        <time>2022-08-29T12:48:35Z</time>
      </trkpt>
      <trkpt lat="42.3652310" lon="-3.6072290">
        <ele>873.4</ele>
        <time>2022-08-29T12:48:36Z</time>
      </trkpt>
      <trkpt lat="42.3651910" lon="-3.6072780">
        <ele>873.6</ele>
        <time>2022-08-29T12:48:37Z</time>
      </trkpt>
      <trkpt lat="42.3651530" lon="-3.6073280">
        <ele>873.4</ele>
        <time>2022-08-29T12:48:38Z</time>
      </trkpt>
      <trkpt lat="42.3651140" lon="-3.6073760">
        <ele>873.4</ele>
        <time>2022-08-29T12:48:39Z</time>
      </trkpt>
      <trkpt lat="42.3650740" lon="-3.6074240">
        <ele>873.6</ele>
        <time>2022-08-29T12:48:40Z</time>
      </trkpt>
      <trkpt lat="42.3650350" lon="-3.6074720">
        <ele>873.6</ele>
        <time>2022-08-29T12:48:41Z</time>
      </trkpt>
      <trkpt lat="42.3649970" lon="-3.6075190">
        <ele>873.6</ele>
        <time>2022-08-29T12:48:42Z</time>
      </trkpt>
      <trkpt lat="42.3649590" lon="-3.6075670">
        <ele>873.6</ele>
        <time>2022-08-29T12:48:43Z</time>
      </trkpt>
      <trkpt lat="42.3649210" lon="-3.6076150">
        <ele>873.6</ele>
        <time>2022-08-29T12:48:44Z</time>
      </trkpt>
      <trkpt lat="42.3648840" lon="-3.6076640">
        <ele>873.6</ele>
        <time>2022-08-29T12:48:45Z</time>
      </trkpt>
      <trkpt lat="42.3648450" lon="-3.6077110">
        <ele>874.0</ele>
        <time>2022-08-29T12:48:46Z</time>
      </trkpt>
      <trkpt lat="42.3648070" lon="-3.6077580">
        <ele>873.8</ele>
        <time>2022-08-29T12:48:47Z</time>
      </trkpt>
      <trkpt lat="42.3647690" lon="-3.6078060">
        <ele>873.8</ele>
        <time>2022-08-29T12:48:48Z</time>
      </trkpt>
      <trkpt lat="42.3647310" lon="-3.6078540">
        <ele>873.8</ele>
        <time>2022-08-29T12:48:49Z</time>
      </trkpt>
      <trkpt lat="42.3646940" lon="-3.6079020">
        <ele>874.0</ele>
        <time>2022-08-29T12:48:50Z</time>
      </trkpt>
      <trkpt lat="42.3646560" lon="-3.6079490">
        <ele>874.2</ele>
        <time>2022-08-29T12:48:51Z</time>
      </trkpt>
      <trkpt lat="42.3646180" lon="-3.6079960">
        <ele>874.2</ele>
        <time>2022-08-29T12:48:52Z</time>
      </trkpt>
      <trkpt lat="42.3645810" lon="-3.6080420">
        <ele>874.2</ele>
        <time>2022-08-29T12:48:53Z</time>
      </trkpt>
      <trkpt lat="42.3645430" lon="-3.6080880">
        <ele>874.4</ele>
        <time>2022-08-29T12:48:54Z</time>
      </trkpt>
      <trkpt lat="42.3645060" lon="-3.6081350">
        <ele>874.4</ele>
        <time>2022-08-29T12:48:55Z</time>
      </trkpt>
      <trkpt lat="42.3644690" lon="-3.6081830">
        <ele>874.4</ele>
        <time>2022-08-29T12:48:56Z</time>
      </trkpt>
      <trkpt lat="42.3644320" lon="-3.6082300">
        <ele>874.6</ele>
        <time>2022-08-29T12:48:57Z</time>
      </trkpt>
      <trkpt lat="42.3643940" lon="-3.6082760">
        <ele>874.8</ele>
        <time>2022-08-29T12:48:58Z</time>
      </trkpt>
      <trkpt lat="42.3643560" lon="-3.6083240">
        <ele>874.6</ele>
        <time>2022-08-29T12:48:59Z</time>
      </trkpt>
      <trkpt lat="42.3643190" lon="-3.6083710">
        <ele>874.8</ele>
        <time>2022-08-29T12:49:00Z</time>
      </trkpt>
      <trkpt lat="42.3642820" lon="-3.6084180">
        <ele>875.0</ele>
        <time>2022-08-29T12:49:01Z</time>
      </trkpt>
      <trkpt lat="42.3642450" lon="-3.6084650">
        <ele>875.0</ele>
        <time>2022-08-29T12:49:02Z</time>
      </trkpt>
      <trkpt lat="42.3642110" lon="-3.6085140">
        <ele>875.0</ele>
        <time>2022-08-29T12:49:03Z</time>
      </trkpt>
      <trkpt lat="42.3641780" lon="-3.6085660">
        <ele>875.0</ele>
        <time>2022-08-29T12:49:04Z</time>
      </trkpt>
      <trkpt lat="42.3641470" lon="-3.6086200">
        <ele>875.0</ele>
        <time>2022-08-29T12:49:05Z</time>
      </trkpt>
      <trkpt lat="42.3641180" lon="-3.6086750">
        <ele>875.0</ele>
        <time>2022-08-29T12:49:06Z</time>
      </trkpt>
      <trkpt lat="42.3640890" lon="-3.6087310">
        <ele>875.0</ele>
        <time>2022-08-29T12:49:07Z</time>
      </trkpt>
      <trkpt lat="42.3640610" lon="-3.6087870">
        <ele>875.2</ele>
        <time>2022-08-29T12:49:08Z</time>
      </trkpt>
      <trkpt lat="42.3640340" lon="-3.6088450">
        <ele>875.0</ele>
        <time>2022-08-29T12:49:09Z</time>
      </trkpt>
      <trkpt lat="42.3640090" lon="-3.6089040">
        <ele>875.2</ele>
        <time>2022-08-29T12:49:10Z</time>
      </trkpt>
      <trkpt lat="42.3639870" lon="-3.6089650">
        <ele>875.2</ele>
        <time>2022-08-29T12:49:11Z</time>
      </trkpt>
      <trkpt lat="42.3639660" lon="-3.6090290">
        <ele>875.0</ele>
        <time>2022-08-29T12:49:12Z</time>
      </trkpt>
      <trkpt lat="42.3639450" lon="-3.6090930">
        <ele>875.0</ele>
        <time>2022-08-29T12:49:13Z</time>
      </trkpt>
      <trkpt lat="42.3639260" lon="-3.6091570">
        <ele>875.2</ele>
        <time>2022-08-29T12:49:14Z</time>
      </trkpt>
      <trkpt lat="42.3639100" lon="-3.6092240">
        <ele>875.2</ele>
        <time>2022-08-29T12:49:15Z</time>
      </trkpt>
      <trkpt lat="42.3639000" lon="-3.6092920">
        <ele>875.2</ele>
        <time>2022-08-29T12:49:16Z</time>
      </trkpt>
      <trkpt lat="42.3638920" lon="-3.6093610">
        <ele>875.2</ele>
        <time>2022-08-29T12:49:17Z</time>
      </trkpt>
      <trkpt lat="42.3638870" lon="-3.6094320">
        <ele>875.2</ele>
        <time>2022-08-29T12:49:18Z</time>
      </trkpt>
      <trkpt lat="42.3638830" lon="-3.6095040">
        <ele>875.2</ele>
        <time>2022-08-29T12:49:19Z</time>
      </trkpt>
      <trkpt lat="42.3638810" lon="-3.6095760">
        <ele>875.4</ele>
        <time>2022-08-29T12:49:20Z</time>
      </trkpt>
      <trkpt lat="42.3638810" lon="-3.6096490">
        <ele>875.4</ele>
        <time>2022-08-29T12:49:21Z</time>
      </trkpt>
      <trkpt lat="42.3638820" lon="-3.6097220">
        <ele>875.4</ele>
        <time>2022-08-29T12:49:22Z</time>
      </trkpt>
      <trkpt lat="42.3638860" lon="-3.6097950">
        <ele>875.4</ele>
        <time>2022-08-29T12:49:23Z</time>
      </trkpt>
      <trkpt lat="42.3638920" lon="-3.6098670">
        <ele>875.4</ele>
        <time>2022-08-29T12:49:24Z</time>
      </trkpt>
      <trkpt lat="42.3639020" lon="-3.6099390">
        <ele>875.6</ele>
        <time>2022-08-29T12:49:25Z</time>
      </trkpt>
      <trkpt lat="42.3639120" lon="-3.6100120">
        <ele>875.4</ele>
        <time>2022-08-29T12:49:26Z</time>
      </trkpt>
      <trkpt lat="42.3639210" lon="-3.6100840">
        <ele>875.6</ele>
        <time>2022-08-29T12:49:27Z</time>
      </trkpt>
      <trkpt lat="42.3639320" lon="-3.6101550">
        <ele>875.6</ele>
        <time>2022-08-29T12:49:28Z</time>
      </trkpt>
      <trkpt lat="42.3639480" lon="-3.6102220">
        <ele>875.6</ele>
        <time>2022-08-29T12:49:29Z</time>
      </trkpt>
      <trkpt lat="42.3639670" lon="-3.6102890">
        <ele>875.6</ele>
        <time>2022-08-29T12:49:30Z</time>
      </trkpt>
      <trkpt lat="42.3639860" lon="-3.6103570">
        <ele>875.6</ele>
        <time>2022-08-29T12:49:31Z</time>
      </trkpt>
      <trkpt lat="42.3640050" lon="-3.6104250">
        <ele>875.8</ele>
        <time>2022-08-29T12:49:32Z</time>
      </trkpt>
      <trkpt lat="42.3640240" lon="-3.6104950">
        <ele>875.6</ele>
        <time>2022-08-29T12:49:33Z</time>
      </trkpt>
      <trkpt lat="42.3640430" lon="-3.6105680">
        <ele>875.6</ele>
        <time>2022-08-29T12:49:34Z</time>
      </trkpt>
      <trkpt lat="42.3640640" lon="-3.6106450">
        <ele>875.6</ele>
        <time>2022-08-29T12:49:35Z</time>
      </trkpt>
      <trkpt lat="42.3640860" lon="-3.6107260">
        <ele>875.6</ele>
        <time>2022-08-29T12:49:36Z</time>
      </trkpt>
      <trkpt lat="42.3641070" lon="-3.6108080">
        <ele>875.6</ele>
        <time>2022-08-29T12:49:37Z</time>
      </trkpt>
      <trkpt lat="42.3641290" lon="-3.6108920">
        <ele>875.4</ele>
        <time>2022-08-29T12:49:38Z</time>
      </trkpt>
      <trkpt lat="42.3641530" lon="-3.6109770">
        <ele>875.4</ele>
        <time>2022-08-29T12:49:39Z</time>
      </trkpt>
      <trkpt lat="42.3641740" lon="-3.6110640">
        <ele>875.6</ele>
        <time>2022-08-29T12:49:40Z</time>
      </trkpt>
      <trkpt lat="42.3641940" lon="-3.6111530">
        <ele>875.4</ele>
        <time>2022-08-29T12:49:41Z</time>
      </trkpt>
      <trkpt lat="42.3642120" lon="-3.6112420">
        <ele>875.4</ele>
        <time>2022-08-29T12:49:42Z</time>
      </trkpt>
      <trkpt lat="42.3642310" lon="-3.6113300">
        <ele>875.2</ele>
        <time>2022-08-29T12:49:43Z</time>
      </trkpt>
      <trkpt lat="42.3642490" lon="-3.6114180">
        <ele>875.0</ele>
        <time>2022-08-29T12:49:44Z</time>
      </trkpt>
      <trkpt lat="42.3642660" lon="-3.6115070">
        <ele>874.8</ele>
        <time>2022-08-29T12:49:45Z</time>
      </trkpt>
      <trkpt lat="42.3642820" lon="-3.6115950">
        <ele>874.6</ele>
        <time>2022-08-29T12:49:46Z</time>
      </trkpt>
      <trkpt lat="42.3642950" lon="-3.6116820">
        <ele>874.2</ele>
        <time>2022-08-29T12:49:47Z</time>
      </trkpt>
      <trkpt lat="42.3643060" lon="-3.6117690">
        <ele>874.0</ele>
        <time>2022-08-29T12:49:48Z</time>
      </trkpt>
      <trkpt lat="42.3643190" lon="-3.6118530">
        <ele>873.8</ele>
        <time>2022-08-29T12:49:49Z</time>
      </trkpt>
      <trkpt lat="42.3643300" lon="-3.6119380">
        <ele>873.6</ele>
        <time>2022-08-29T12:49:50Z</time>
      </trkpt>
      <trkpt lat="42.3643390" lon="-3.6120210">
        <ele>873.6</ele>
        <time>2022-08-29T12:49:51Z</time>
      </trkpt>
      <trkpt lat="42.3643480" lon="-3.6121030">
        <ele>873.6</ele>
        <time>2022-08-29T12:49:52Z</time>
      </trkpt>
      <trkpt lat="42.3643540" lon="-3.6121850">
        <ele>873.6</ele>
        <time>2022-08-29T12:49:53Z</time>
      </trkpt>
      <trkpt lat="42.3643600" lon="-3.6122680">
        <ele>873.4</ele>
        <time>2022-08-29T12:49:54Z</time>
      </trkpt>
      <trkpt lat="42.3643640" lon="-3.6123520">
        <ele>873.6</ele>
        <time>2022-08-29T12:49:55Z</time>
      </trkpt>
      <trkpt lat="42.3643670" lon="-3.6124350">
        <ele>873.6</ele>
        <time>2022-08-29T12:49:56Z</time>
      </trkpt>
      <trkpt lat="42.3643670" lon="-3.6125190">
        <ele>873.6</ele>
        <time>2022-08-29T12:49:57Z</time>
      </trkpt>
      <trkpt lat="42.3643650" lon="-3.6126020">
        <ele>873.4</ele>
        <time>2022-08-29T12:49:58Z</time>
      </trkpt>
      <trkpt lat="42.3643590" lon="-3.6126850">
        <ele>873.4</ele>
        <time>2022-08-29T12:49:59Z</time>
      </trkpt>
      <trkpt lat="42.3643480" lon="-3.6127670">
        <ele>873.6</ele>
        <time>2022-08-29T12:50:00Z</time>
      </trkpt>
      <trkpt lat="42.3643360" lon="-3.6128490">
        <ele>873.4</ele>
        <time>2022-08-29T12:50:01Z</time>
      </trkpt>
      <trkpt lat="42.3643200" lon="-3.6129300">
        <ele>873.4</ele>
        <time>2022-08-29T12:50:02Z</time>
      </trkpt>
      <trkpt lat="42.3643020" lon="-3.6130120">
        <ele>873.4</ele>
        <time>2022-08-29T12:50:03Z</time>
      </trkpt>
      <trkpt lat="42.3642810" lon="-3.6130940">
        <ele>873.6</ele>
        <time>2022-08-29T12:50:04Z</time>
      </trkpt>
      <trkpt lat="42.3642590" lon="-3.6131760">
        <ele>873.6</ele>
        <time>2022-08-29T12:50:05Z</time>
      </trkpt>
      <trkpt lat="42.3642340" lon="-3.6132550">
        <ele>873.4</ele>
        <time>2022-08-29T12:50:06Z</time>
      </trkpt>
      <trkpt lat="42.3642100" lon="-3.6133350">
        <ele>873.6</ele>
        <time>2022-08-29T12:50:07Z</time>
      </trkpt>
      <trkpt lat="42.3641890" lon="-3.6134150">
        <ele>873.4</ele>
        <time>2022-08-29T12:50:08Z</time>
      </trkpt>
      <trkpt lat="42.3641670" lon="-3.6134950">
        <ele>873.4</ele>
        <time>2022-08-29T12:50:09Z</time>
      </trkpt>
      <trkpt lat="42.3641470" lon="-3.6135760">
        <ele>873.4</ele>
        <time>2022-08-29T12:50:10Z</time>
      </trkpt>
      <trkpt lat="42.3641240" lon="-3.6136550">
        <ele>873.4</ele>
        <time>2022-08-29T12:50:11Z</time>
      </trkpt>
      <trkpt lat="42.3641000" lon="-3.6137320">
        <ele>873.0</ele>
        <time>2022-08-29T12:50:12Z</time>
      </trkpt>
      <trkpt lat="42.3640750" lon="-3.6138060">
        <ele>872.8</ele>
        <time>2022-08-29T12:50:13Z</time>
      </trkpt>
      <trkpt lat="42.3640510" lon="-3.6138800">
        <ele>872.6</ele>
        <time>2022-08-29T12:50:14Z</time>
      </trkpt>
      <trkpt lat="42.3640310" lon="-3.6139540">
        <ele>872.4</ele>
        <time>2022-08-29T12:50:15Z</time>
      </trkpt>
      <trkpt lat="42.3640100" lon="-3.6140270">
        <ele>872.4</ele>
        <time>2022-08-29T12:50:16Z</time>
      </trkpt>
      <trkpt lat="42.3639890" lon="-3.6140990">
        <ele>872.4</ele>
        <time>2022-08-29T12:50:17Z</time>
      </trkpt>
      <trkpt lat="42.3639660" lon="-3.6141680">
        <ele>872.2</ele>
        <time>2022-08-29T12:50:18Z</time>
      </trkpt>
      <trkpt lat="42.3639390" lon="-3.6142330">
        <ele>872.2</ele>
        <time>2022-08-29T12:50:19Z</time>
      </trkpt>
      <trkpt lat="42.3639100" lon="-3.6142960">
        <ele>872.2</ele>
        <time>2022-08-29T12:50:20Z</time>
      </trkpt>
      <trkpt lat="42.3638780" lon="-3.6143560">
        <ele>872.2</ele>
        <time>2022-08-29T12:50:21Z</time>
      </trkpt>
      <trkpt lat="42.3638440" lon="-3.6144110">
        <ele>872.2</ele>
        <time>2022-08-29T12:50:22Z</time>
      </trkpt>
      <trkpt lat="42.3638090" lon="-3.6144630">
        <ele>872.2</ele>
        <time>2022-08-29T12:50:23Z</time>
      </trkpt>
      <trkpt lat="42.3637730" lon="-3.6145120">
        <ele>872.2</ele>
        <time>2022-08-29T12:50:24Z</time>
      </trkpt>
      <trkpt lat="42.3637370" lon="-3.6145580">
        <ele>872.2</ele>
        <time>2022-08-29T12:50:25Z</time>
      </trkpt>
      <trkpt lat="42.3637020" lon="-3.6146000">
        <ele>872.2</ele>
        <time>2022-08-29T12:50:26Z</time>
      </trkpt>
      <trkpt lat="42.3636670" lon="-3.6146390">
        <ele>872.2</ele>
        <time>2022-08-29T12:50:27Z</time>
      </trkpt>
      <trkpt lat="42.3636320" lon="-3.6146780">
        <ele>872.2</ele>
        <time>2022-08-29T12:50:28Z</time>
      </trkpt>
      <trkpt lat="42.3636000" lon="-3.6147170">
        <ele>872.2</ele>
        <time>2022-08-29T12:50:29Z</time>
      </trkpt>
      <trkpt lat="42.3635670" lon="-3.6147540">
        <ele>872.2</ele>
        <time>2022-08-29T12:50:30Z</time>
      </trkpt>
      <trkpt lat="42.3635330" lon="-3.6147880">
        <ele>872.4</ele>
        <time>2022-08-29T12:50:31Z</time>
      </trkpt>
      <trkpt lat="42.3634980" lon="-3.6148180">
        <ele>872.4</ele>
        <time>2022-08-29T12:50:32Z</time>
      </trkpt>
      <trkpt lat="42.3634640" lon="-3.6148470">
        <ele>872.6</ele>
        <time>2022-08-29T12:50:33Z</time>
      </trkpt>
      <trkpt lat="42.3634320" lon="-3.6148760">
        <ele>872.6</ele>
        <time>2022-08-29T12:50:34Z</time>
      </trkpt>
      <trkpt lat="42.3634020" lon="-3.6149060">
        <ele>872.8</ele>
        <time>2022-08-29T12:50:35Z</time>
      </trkpt>
      <trkpt lat="42.3633730" lon="-3.6149360">
        <ele>873.4</ele>
        <time>2022-08-29T12:50:36Z</time>
      </trkpt>
      <trkpt lat="42.3633430" lon="-3.6149650">
        <ele>873.4</ele>
        <time>2022-08-29T12:50:37Z</time>
      </trkpt>
      <trkpt lat="42.3633120" lon="-3.6149920">
        <ele>873.8</ele>
        <time>2022-08-29T12:50:38Z</time>
      </trkpt>
      <trkpt lat="42.3632790" lon="-3.6150200">
        <ele>873.8</ele>
        <time>2022-08-29T12:50:39Z</time>
      </trkpt>
      <trkpt lat="42.3632440" lon="-3.6150510">
        <ele>874.0</ele>
        <time>2022-08-29T12:50:40Z</time>
      </trkpt>
      <trkpt lat="42.3632050" lon="-3.6150840">
        <ele>874.4</ele>
        <time>2022-08-29T12:50:41Z</time>
      </trkpt>
      <trkpt lat="42.3631640" lon="-3.6151170">
        <ele>874.4</ele>
        <time>2022-08-29T12:50:42Z</time>
      </trkpt>
      <trkpt lat="42.3631220" lon="-3.6151490">
        <ele>874.4</ele>
        <time>2022-08-29T12:50:43Z</time>
      </trkpt>
      <trkpt lat="42.3630820" lon="-3.6151830">
        <ele>874.6</ele>
        <time>2022-08-29T12:50:44Z</time>
      </trkpt>
      <trkpt lat="42.3630420" lon="-3.6152220">
        <ele>874.8</ele>
        <time>2022-08-29T12:50:45Z</time>
      </trkpt>
      <trkpt lat="42.3630030" lon="-3.6152640">
        <ele>875.0</ele>
        <time>2022-08-29T12:50:46Z</time>
      </trkpt>
      <trkpt lat="42.3629650" lon="-3.6153040">
        <ele>875.0</ele>
        <time>2022-08-29T12:50:47Z</time>
      </trkpt>
      <trkpt lat="42.3629290" lon="-3.6153460">
        <ele>874.8</ele>
        <time>2022-08-29T12:50:48Z</time>
      </trkpt>
      <trkpt lat="42.3629000" lon="-3.6153910">
        <ele>874.8</ele>
        <time>2022-08-29T12:50:49Z</time>
      </trkpt>
      <trkpt lat="42.3628840" lon="-3.6154430">
        <ele>875.0</ele>
        <time>2022-08-29T12:50:50Z</time>
      </trkpt>
      <trkpt lat="42.3628810" lon="-3.6154980">
        <ele>875.0</ele>
        <time>2022-08-29T12:50:51Z</time>
      </trkpt>
      <trkpt lat="42.3628890" lon="-3.6155520">
        <ele>874.8</ele>
        <time>2022-08-29T12:50:52Z</time>
      </trkpt>
      <trkpt lat="42.3629010" lon="-3.6156040">
        <ele>875.0</ele>
        <time>2022-08-29T12:50:53Z</time>
      </trkpt>
      <trkpt lat="42.3629150" lon="-3.6156550">
        <ele>875.0</ele>
        <time>2022-08-29T12:50:54Z</time>
      </trkpt>
      <trkpt lat="42.3629320" lon="-3.6157040">
        <ele>875.0</ele>
        <time>2022-08-29T12:50:55Z</time>
      </trkpt>
      <trkpt lat="42.3629520" lon="-3.6157510">
        <ele>875.0</ele>
        <time>2022-08-29T12:50:56Z</time>
      </trkpt>
      <trkpt lat="42.3629780" lon="-3.6157950">
        <ele>875.2</ele>
        <time>2022-08-29T12:50:57Z</time>
      </trkpt>
      <trkpt lat="42.3630070" lon="-3.6158340">
        <ele>875.0</ele>
        <time>2022-08-29T12:50:58Z</time>
      </trkpt>
      <trkpt lat="42.3630370" lon="-3.6158640">
        <ele>875.2</ele>
        <time>2022-08-29T12:50:59Z</time>
      </trkpt>
      <trkpt lat="42.3630700" lon="-3.6158860">
        <ele>875.6</ele>
        <time>2022-08-29T12:51:00Z</time>
      </trkpt>
      <trkpt lat="42.3631010" lon="-3.6159030">
        <ele>876.0</ele>
        <time>2022-08-29T12:51:01Z</time>
      </trkpt>
      <trkpt lat="42.3631310" lon="-3.6159200">
        <ele>876.2</ele>
        <time>2022-08-29T12:51:02Z</time>
      </trkpt>
      <trkpt lat="42.3631610" lon="-3.6159360">
        <ele>876.4</ele>
        <time>2022-08-29T12:51:03Z</time>
      </trkpt>
      <trkpt lat="42.3631900" lon="-3.6159520">
        <ele>876.4</ele>
        <time>2022-08-29T12:51:04Z</time>
      </trkpt>
      <trkpt lat="42.3632210" lon="-3.6159700">
        <ele>876.4</ele>
        <time>2022-08-29T12:51:05Z</time>
      </trkpt>
      <trkpt lat="42.3632500" lon="-3.6159900">
        <ele>876.4</ele>
        <time>2022-08-29T12:51:06Z</time>
      </trkpt>
      <trkpt lat="42.3632780" lon="-3.6160130">
        <ele>876.6</ele>
        <time>2022-08-29T12:51:07Z</time>
      </trkpt>
      <trkpt lat="42.3633060" lon="-3.6160360">
        <ele>876.8</ele>
        <time>2022-08-29T12:51:08Z</time>
      </trkpt>
      <trkpt lat="42.3633350" lon="-3.6160570">
        <ele>876.8</ele>
        <time>2022-08-29T12:51:09Z</time>
      </trkpt>
      <trkpt lat="42.3633660" lon="-3.6160770">
        <ele>877.2</ele>
        <time>2022-08-29T12:51:10Z</time>
      </trkpt>
      <trkpt lat="42.3633970" lon="-3.6160930">
        <ele>877.4</ele>
        <time>2022-08-29T12:51:11Z</time>
      </trkpt>
      <trkpt lat="42.3634280" lon="-3.6161090">
        <ele>877.6</ele>
        <time>2022-08-29T12:51:12Z</time>
      </trkpt>
      <trkpt lat="42.3634600" lon="-3.6161260">
        <ele>877.6</ele>
        <time>2022-08-29T12:51:13Z</time>
      </trkpt>
      <trkpt lat="42.3634920" lon="-3.6161450">
        <ele>878.0</ele>
        <time>2022-08-29T12:51:14Z</time>
      </trkpt>
      <trkpt lat="42.3635240" lon="-3.6161670">
        <ele>878.4</ele>
        <time>2022-08-29T12:51:15Z</time>
      </trkpt>
      <trkpt lat="42.3635560" lon="-3.6161910">
        <ele>878.6</ele>
        <time>2022-08-29T12:51:16Z</time>
      </trkpt>
      <trkpt lat="42.3635890" lon="-3.6162130">
        <ele>878.6</ele>
        <time>2022-08-29T12:51:17Z</time>
      </trkpt>
      <trkpt lat="42.3636240" lon="-3.6162340">
        <ele>879.0</ele>
        <time>2022-08-29T12:51:18Z</time>
      </trkpt>
      <trkpt lat="42.3636580" lon="-3.6162560">
        <ele>879.0</ele>
        <time>2022-08-29T12:51:19Z</time>
      </trkpt>
      <trkpt lat="42.3636950" lon="-3.6162770">
        <ele>879.4</ele>
        <time>2022-08-29T12:51:20Z</time>
      </trkpt>
      <trkpt lat="42.3637320" lon="-3.6162980">
        <ele>879.4</ele>
        <time>2022-08-29T12:51:21Z</time>
      </trkpt>
      <trkpt lat="42.3637670" lon="-3.6163220">
        <ele>879.4</ele>
        <time>2022-08-29T12:51:22Z</time>
      </trkpt>
      <trkpt lat="42.3638010" lon="-3.6163470">
        <ele>879.4</ele>
        <time>2022-08-29T12:51:23Z</time>
      </trkpt>
      <trkpt lat="42.3638350" lon="-3.6163760">
        <ele>879.6</ele>
        <time>2022-08-29T12:51:24Z</time>
      </trkpt>
      <trkpt lat="42.3638680" lon="-3.6164110">
        <ele>879.4</ele>
        <time>2022-08-29T12:51:25Z</time>
      </trkpt>
      <trkpt lat="42.3639030" lon="-3.6164500">
        <ele>879.4</ele>
        <time>2022-08-29T12:51:26Z</time>
      </trkpt>
      <trkpt lat="42.3639410" lon="-3.6164930">
        <ele>879.6</ele>
        <time>2022-08-29T12:51:27Z</time>
      </trkpt>
      <trkpt lat="42.3639800" lon="-3.6165420">
        <ele>879.4</ele>
        <time>2022-08-29T12:51:28Z</time>
      </trkpt>
      <trkpt lat="42.3640220" lon="-3.6165950">
        <ele>879.4</ele>
        <time>2022-08-29T12:51:29Z</time>
      </trkpt>
      <trkpt lat="42.3640640" lon="-3.6166540">
        <ele>879.4</ele>
        <time>2022-08-29T12:51:30Z</time>
      </trkpt>
      <trkpt lat="42.3641040" lon="-3.6167210">
        <ele>879.4</ele>
        <time>2022-08-29T12:51:31Z</time>
      </trkpt>
      <trkpt lat="42.3641390" lon="-3.6167970">
        <ele>879.4</ele>
        <time>2022-08-29T12:51:32Z</time>
      </trkpt>
      <trkpt lat="42.3641710" lon="-3.6168810">
        <ele>879.4</ele>
        <time>2022-08-29T12:51:33Z</time>
      </trkpt>
      <trkpt lat="42.3642020" lon="-3.6169710">
        <ele>879.4</ele>
        <time>2022-08-29T12:51:34Z</time>
      </trkpt>
      <trkpt lat="42.3642310" lon="-3.6170670">
        <ele>879.4</ele>
        <time>2022-08-29T12:51:35Z</time>
      </trkpt>
      <trkpt lat="42.3642590" lon="-3.6171690">
        <ele>879.2</ele>
        <time>2022-08-29T12:51:36Z</time>
      </trkpt>
      <trkpt lat="42.3642830" lon="-3.6172760">
        <ele>879.0</ele>
        <time>2022-08-29T12:51:37Z</time>
      </trkpt>
      <trkpt lat="42.3643020" lon="-3.6173880">
        <ele>878.4</ele>
        <time>2022-08-29T12:51:38Z</time>
      </trkpt>
      <trkpt lat="42.3643150" lon="-3.6175040">
        <ele>877.8</ele>
        <time>2022-08-29T12:51:39Z</time>
      </trkpt>
      <trkpt lat="42.3643230" lon="-3.6176230">
        <ele>877.4</ele>
        <time>2022-08-29T12:51:40Z</time>
      </trkpt>
      <trkpt lat="42.3643320" lon="-3.6177420">
        <ele>876.8</ele>
        <time>2022-08-29T12:51:41Z</time>
      </trkpt>
      <trkpt lat="42.3643420" lon="-3.6178630">
        <ele>876.0</ele>
        <time>2022-08-29T12:51:42Z</time>
      </trkpt>
      <trkpt lat="42.3643520" lon="-3.6179830">
        <ele>875.2</ele>
        <time>2022-08-29T12:51:43Z</time>
      </trkpt>
      <trkpt lat="42.3643630" lon="-3.6181030">
        <ele>874.6</ele>
        <time>2022-08-29T12:51:44Z</time>
      </trkpt>
      <trkpt lat="42.3643740" lon="-3.6182220">
        <ele>873.8</ele>
        <time>2022-08-29T12:51:45Z</time>
      </trkpt>
      <trkpt lat="42.3643850" lon="-3.6183390">
        <ele>873.2</ele>
        <time>2022-08-29T12:51:46Z</time>
      </trkpt>
      <trkpt lat="42.3643960" lon="-3.6184540">
        <ele>872.4</ele>
        <time>2022-08-29T12:51:47Z</time>
      </trkpt>
      <trkpt lat="42.3644080" lon="-3.6185670">
        <ele>871.2</ele>
        <time>2022-08-29T12:51:48Z</time>
      </trkpt>
      <trkpt lat="42.3644190" lon="-3.6186780">
        <ele>870.6</ele>
        <time>2022-08-29T12:51:49Z</time>
      </trkpt>
      <trkpt lat="42.3644280" lon="-3.6187860">
        <ele>870.4</ele>
        <time>2022-08-29T12:51:50Z</time>
      </trkpt>
      <trkpt lat="42.3644370" lon="-3.6188930">
        <ele>870.2</ele>
        <time>2022-08-29T12:51:51Z</time>
      </trkpt>
      <trkpt lat="42.3644450" lon="-3.6189970">
        <ele>870.2</ele>
        <time>2022-08-29T12:51:52Z</time>
      </trkpt>
      <trkpt lat="42.3644530" lon="-3.6190980">
        <ele>870.0</ele>
        <time>2022-08-29T12:51:53Z</time>
      </trkpt>
      <trkpt lat="42.3644580" lon="-3.6191970">
        <ele>870.0</ele>
        <time>2022-08-29T12:51:54Z</time>
      </trkpt>
      <trkpt lat="42.3644640" lon="-3.6192940">
        <ele>870.2</ele>
        <time>2022-08-29T12:51:55Z</time>
      </trkpt>
      <trkpt lat="42.3644730" lon="-3.6193860">
        <ele>870.0</ele>
        <time>2022-08-29T12:51:56Z</time>
      </trkpt>
      <trkpt lat="42.3644860" lon="-3.6194770">
        <ele>870.2</ele>
        <time>2022-08-29T12:51:57Z</time>
      </trkpt>
      <trkpt lat="42.3644980" lon="-3.6195650">
        <ele>870.0</ele>
        <time>2022-08-29T12:51:58Z</time>
      </trkpt>
      <trkpt lat="42.3645050" lon="-3.6196520">
        <ele>870.0</ele>
        <time>2022-08-29T12:51:59Z</time>
      </trkpt>
      <trkpt lat="42.3645110" lon="-3.6197370">
        <ele>870.2</ele>
        <time>2022-08-29T12:52:00Z</time>
      </trkpt>
      <trkpt lat="42.3645200" lon="-3.6198180">
        <ele>870.2</ele>
        <time>2022-08-29T12:52:01Z</time>
      </trkpt>
      <trkpt lat="42.3645300" lon="-3.6198970">
        <ele>870.4</ele>
        <time>2022-08-29T12:52:02Z</time>
      </trkpt>
      <trkpt lat="42.3645400" lon="-3.6199740">
        <ele>870.4</ele>
        <time>2022-08-29T12:52:03Z</time>
      </trkpt>
      <trkpt lat="42.3645500" lon="-3.6200500">
        <ele>870.4</ele>
        <time>2022-08-29T12:52:04Z</time>
      </trkpt>
      <trkpt lat="42.3645580" lon="-3.6201230">
        <ele>870.4</ele>
        <time>2022-08-29T12:52:05Z</time>
      </trkpt>
      <trkpt lat="42.3645670" lon="-3.6201940">
        <ele>870.4</ele>
        <time>2022-08-29T12:52:06Z</time>
      </trkpt>
      <trkpt lat="42.3645790" lon="-3.6202620">
        <ele>870.6</ele>
        <time>2022-08-29T12:52:07Z</time>
      </trkpt>
      <trkpt lat="42.3645910" lon="-3.6203270">
        <ele>870.6</ele>
        <time>2022-08-29T12:52:08Z</time>
      </trkpt>
      <trkpt lat="42.3645970" lon="-3.6203940">
        <ele>870.6</ele>
        <time>2022-08-29T12:52:09Z</time>
      </trkpt>
      <trkpt lat="42.3645900" lon="-3.6204580">
        <ele>870.6</ele>
        <time>2022-08-29T12:52:10Z</time>
      </trkpt>
      <trkpt lat="42.3645730" lon="-3.6205160">
        <ele>870.6</ele>
        <time>2022-08-29T12:52:11Z</time>
      </trkpt>
      <trkpt lat="42.3645500" lon="-3.6205620">
        <ele>870.8</ele>
        <time>2022-08-29T12:52:12Z</time>
      </trkpt>
      <trkpt lat="42.3645240" lon="-3.6206010">
        <ele>870.6</ele>
        <time>2022-08-29T12:52:13Z</time>
      </trkpt>
      <trkpt lat="42.3644990" lon="-3.6206330">
        <ele>870.6</ele>
        <time>2022-08-29T12:52:14Z</time>
      </trkpt>
      <trkpt lat="42.3644760" lon="-3.6206590">
        <ele>870.8</ele>
        <time>2022-08-29T12:52:15Z</time>
      </trkpt>
      <trkpt lat="42.3644550" lon="-3.6206810">
        <ele>870.8</ele>
        <time>2022-08-29T12:52:16Z</time>
      </trkpt>
      <trkpt lat="42.3644330" lon="-3.6207010">
        <ele>870.8</ele>
        <time>2022-08-29T12:52:17Z</time>
      </trkpt>
      <trkpt lat="42.3644120" lon="-3.6207210">
        <ele>871.0</ele>
        <time>2022-08-29T12:52:18Z</time>
      </trkpt>
      <trkpt lat="42.3643910" lon="-3.6207450">
        <ele>871.0</ele>
        <time>2022-08-29T12:52:19Z</time>
      </trkpt>
      <trkpt lat="42.3643710" lon="-3.6207720">
        <ele>871.0</ele>
        <time>2022-08-29T12:52:20Z</time>
      </trkpt>
      <trkpt lat="42.3643550" lon="-3.6208020">
        <ele>871.0</ele>
        <time>2022-08-29T12:52:21Z</time>
      </trkpt>
      <trkpt lat="42.3643420" lon="-3.6208350">
        <ele>871.0</ele>
        <time>2022-08-29T12:52:22Z</time>
      </trkpt>
      <trkpt lat="42.3643330" lon="-3.6208690">
        <ele>871.2</ele>
        <time>2022-08-29T12:52:23Z</time>
      </trkpt>
      <trkpt lat="42.3643290" lon="-3.6209010">
        <ele>871.4</ele>
        <time>2022-08-29T12:52:24Z</time>
      </trkpt>
      <trkpt lat="42.3643300" lon="-3.6209310">
        <ele>871.4</ele>
        <time>2022-08-29T12:52:25Z</time>
      </trkpt>
      <trkpt lat="42.3643360" lon="-3.6209570">
        <ele>871.6</ele>
        <time>2022-08-29T12:52:26Z</time>
      </trkpt>
      <trkpt lat="42.3643450" lon="-3.6209760">
        <ele>871.6</ele>
        <time>2022-08-29T12:52:27Z</time>
      </trkpt>
      <trkpt lat="42.3643550" lon="-3.6209890">
        <ele>871.8</ele>
        <time>2022-08-29T12:52:28Z</time>
      </trkpt>
      <trkpt lat="42.3643650" lon="-3.6209990">
        <ele>871.8</ele>
        <time>2022-08-29T12:52:29Z</time>
      </trkpt>
      <trkpt lat="42.3643730" lon="-3.6210080">
        <ele>871.8</ele>
        <time>2022-08-29T12:52:30Z</time>
      </trkpt>
      <trkpt lat="42.3643770" lon="-3.6210150">
        <ele>871.8</ele>
        <time>2022-08-29T12:52:31Z</time>
      </trkpt>
      <trkpt lat="42.3643770" lon="-3.6210160">
        <ele>872.0</ele>
        <time>2022-08-29T12:52:32Z</time>
      </trkpt>
      <trkpt lat="42.3643770" lon="-3.6210150">
        <ele>872.0</ele>
        <time>2022-08-29T12:52:33Z</time>
      </trkpt>
      <trkpt lat="42.3643770" lon="-3.6210130">
        <ele>872.0</ele>
        <time>2022-08-29T12:52:34Z</time>
      </trkpt>
      <trkpt lat="42.3643780" lon="-3.6210130">
        <ele>872.2</ele>
        <time>2022-08-29T12:52:35Z</time>
      </trkpt>
      <trkpt lat="42.3643780" lon="-3.6210130">
        <ele>872.4</ele>
        <time>2022-08-29T12:52:36Z</time>
      </trkpt>
      <trkpt lat="42.3643780" lon="-3.6210130">
        <ele>872.4</ele>
        <time>2022-08-29T12:52:37Z</time>
      </trkpt>
      <trkpt lat="42.3643780" lon="-3.6210130">
        <ele>872.6</ele>
        <time>2022-08-29T12:52:38Z</time>
      </trkpt>
      <trkpt lat="42.3643780" lon="-3.6210130">
        <ele>872.6</ele>
        <time>2022-08-29T12:52:39Z</time>
      </trkpt>
      <trkpt lat="42.3643780" lon="-3.6210130">
        <ele>872.6</ele>
        <time>2022-08-29T12:52:40Z</time>
      </trkpt>
      <trkpt lat="42.3643780" lon="-3.6210130">
        <ele>872.4</ele>
        <time>2022-08-29T12:52:41Z</time>
      </trkpt>
      <trkpt lat="42.3643780" lon="-3.6210130">
        <ele>872.6</ele>
        <time>2022-08-29T12:52:42Z</time>
      </trkpt>
      <trkpt lat="42.3643780" lon="-3.6210120">
        <ele>872.6</ele>
        <time>2022-08-29T12:52:43Z</time>
      </trkpt>
      <trkpt lat="42.3643780" lon="-3.6210120">
        <ele>872.6</ele>
        <time>2022-08-29T12:52:44Z</time>
      </trkpt>
      <trkpt lat="42.3643780" lon="-3.6210120">
        <ele>872.6</ele>
        <time>2022-08-29T12:52:45Z</time>
      </trkpt>
      <trkpt lat="42.3643780" lon="-3.6210120">
        <ele>872.6</ele>
        <time>2022-08-29T12:52:46Z</time>
      </trkpt>
      <trkpt lat="42.3643780" lon="-3.6210120">
        <ele>872.6</ele>
        <time>2022-08-29T12:52:47Z</time>
      </trkpt>
      <trkpt lat="42.3643780" lon="-3.6210120">
        <ele>872.6</ele>
        <time>2022-08-29T12:52:48Z</time>
      </trkpt>
      <trkpt lat="42.3643780" lon="-3.6210120">
        <ele>872.6</ele>
        <time>2022-08-29T12:52:49Z</time>
      </trkpt>
      <trkpt lat="42.3643780" lon="-3.6210120">
        <ele>872.6</ele>
        <time>2022-08-29T12:52:50Z</time>
      </trkpt>
      <trkpt lat="42.3643780" lon="-3.6210120">
        <ele>872.6</ele>
        <time>2022-08-29T12:52:51Z</time>
      </trkpt>
      <trkpt lat="42.3643780" lon="-3.6210120">
        <ele>872.6</ele>
        <time>2022-08-29T12:52:52Z</time>
      </trkpt>
      <trkpt lat="42.3643780" lon="-3.6210120">
        <ele>872.6</ele>
        <time>2022-08-29T12:52:53Z</time>
      </trkpt>
      <trkpt lat="42.3643780" lon="-3.6210120">
        <ele>872.6</ele>
        <time>2022-08-29T12:52:54Z</time>
      </trkpt>
      <trkpt lat="42.3643780" lon="-3.6210120">
        <ele>872.6</ele>
        <time>2022-08-29T12:52:55Z</time>
      </trkpt>
      <trkpt lat="42.3643780" lon="-3.6210120">
        <ele>872.6</ele>
        <time>2022-08-29T12:52:56Z</time>
      </trkpt>
      <trkpt lat="42.3643780" lon="-3.6210130">
        <ele>872.6</ele>
        <time>2022-08-29T12:52:57Z</time>
      </trkpt>
      <trkpt lat="42.3643780" lon="-3.6210120">
        <ele>872.8</ele>
        <time>2022-08-29T12:52:58Z</time>
      </trkpt>
      <trkpt lat="42.3643780" lon="-3.6210120">
        <ele>872.6</ele>
        <time>2022-08-29T12:52:59Z</time>
      </trkpt>
      <trkpt lat="42.3643790" lon="-3.6210130">
        <ele>872.8</ele>
        <time>2022-08-29T12:53:00Z</time>
      </trkpt>
      <trkpt lat="42.3643820" lon="-3.6210160">
        <ele>872.6</ele>
        <time>2022-08-29T12:53:01Z</time>
      </trkpt>
      <trkpt lat="42.3643900" lon="-3.6210270">
        <ele>872.8</ele>
        <time>2022-08-29T12:53:02Z</time>
      </trkpt>
      <trkpt lat="42.3644020" lon="-3.6210420">
        <ele>872.8</ele>
        <time>2022-08-29T12:53:03Z</time>
      </trkpt>
      <trkpt lat="42.3644220" lon="-3.6210580">
        <ele>872.8</ele>
        <time>2022-08-29T12:53:04Z</time>
      </trkpt>
      <trkpt lat="42.3644480" lon="-3.6210740">
        <ele>872.8</ele>
        <time>2022-08-29T12:53:05Z</time>
      </trkpt>
      <trkpt lat="42.3644780" lon="-3.6210910">
        <ele>872.6</ele>
        <time>2022-08-29T12:53:06Z</time>
      </trkpt>
      <trkpt lat="42.3645120" lon="-3.6211090">
        <ele>872.8</ele>
        <time>2022-08-29T12:53:07Z</time>
      </trkpt>
      <trkpt lat="42.3645480" lon="-3.6211280">
        <ele>872.6</ele>
        <time>2022-08-29T12:53:08Z</time>
      </trkpt>
      <trkpt lat="42.3645840" lon="-3.6211470">
        <ele>872.8</ele>
        <time>2022-08-29T12:53:09Z</time>
      </trkpt>
      <trkpt lat="42.3646200" lon="-3.6211640">
        <ele>872.8</ele>
        <time>2022-08-29T12:53:10Z</time>
      </trkpt>
      <trkpt lat="42.3646560" lon="-3.6211830">
        <ele>872.6</ele>
        <time>2022-08-29T12:53:11Z</time>
      </trkpt>
      <trkpt lat="42.3646870" lon="-3.6212110">
        <ele>872.6</ele>
        <time>2022-08-29T12:53:12Z</time>
      </trkpt>
      <trkpt lat="42.3647100" lon="-3.6212480">
        <ele>872.6</ele>
        <time>2022-08-29T12:53:13Z</time>
      </trkpt>
      <trkpt lat="42.3647220" lon="-3.6212900">
        <ele>872.2</ele>
        <time>2022-08-29T12:53:14Z</time>
      </trkpt>
      <trkpt lat="42.3647260" lon="-3.6213320">
        <ele>872.0</ele>
        <time>2022-08-29T12:53:15Z</time>
      </trkpt>
      <trkpt lat="42.3647250" lon="-3.6213710">
        <ele>871.8</ele>
        <time>2022-08-29T12:53:16Z</time>
      </trkpt>
      <trkpt lat="42.3647210" lon="-3.6214080">
        <ele>871.6</ele>
        <time>2022-08-29T12:53:17Z</time>
      </trkpt>
      <trkpt lat="42.3647150" lon="-3.6214450">
        <ele>871.6</ele>
        <time>2022-08-29T12:53:18Z</time>
      </trkpt>
      <trkpt lat="42.3647030" lon="-3.6214790">
        <ele>871.4</ele>
        <time>2022-08-29T12:53:19Z</time>
      </trkpt>
      <trkpt lat="42.3646830" lon="-3.6215060">
        <ele>871.6</ele>
        <time>2022-08-29T12:53:20Z</time>
      </trkpt>
      <trkpt lat="42.3646630" lon="-3.6215290">
        <ele>871.4</ele>
        <time>2022-08-29T12:53:21Z</time>
      </trkpt>
      <trkpt lat="42.3646430" lon="-3.6215490">
        <ele>871.4</ele>
        <time>2022-08-29T12:53:22Z</time>
      </trkpt>
      <trkpt lat="42.3646240" lon="-3.6215710">
        <ele>871.6</ele>
        <time>2022-08-29T12:53:23Z</time>
      </trkpt>
      <trkpt lat="42.3646070" lon="-3.6215970">
        <ele>871.6</ele>
        <time>2022-08-29T12:53:24Z</time>
      </trkpt>
      <trkpt lat="42.3645910" lon="-3.6216320">
        <ele>871.4</ele>
        <time>2022-08-29T12:53:25Z</time>
      </trkpt>
      <trkpt lat="42.3645800" lon="-3.6216710">
        <ele>871.4</ele>
        <time>2022-08-29T12:53:26Z</time>
      </trkpt>
      <trkpt lat="42.3645690" lon="-3.6217120">
        <ele>871.2</ele>
        <time>2022-08-29T12:53:27Z</time>
      </trkpt>
      <trkpt lat="42.3645560" lon="-3.6217540">
        <ele>871.2</ele>
        <time>2022-08-29T12:53:28Z</time>
      </trkpt>
      <trkpt lat="42.3645440" lon="-3.6217970">
        <ele>871.4</ele>
        <time>2022-08-29T12:53:29Z</time>
      </trkpt>
      <trkpt lat="42.3645360" lon="-3.6218440">
        <ele>871.2</ele>
        <time>2022-08-29T12:53:30Z</time>
      </trkpt>
      <trkpt lat="42.3645280" lon="-3.6218930">
        <ele>871.2</ele>
        <time>2022-08-29T12:53:31Z</time>
      </trkpt>
      <trkpt lat="42.3645190" lon="-3.6219450">
        <ele>871.2</ele>
        <time>2022-08-29T12:53:32Z</time>
      </trkpt>
      <trkpt lat="42.3645070" lon="-3.6219960">
        <ele>871.4</ele>
        <time>2022-08-29T12:53:33Z</time>
      </trkpt>
      <trkpt lat="42.3644950" lon="-3.6220490">
        <ele>871.4</ele>
        <time>2022-08-29T12:53:34Z</time>
      </trkpt>
      <trkpt lat="42.3644830" lon="-3.6221020">
        <ele>871.4</ele>
        <time>2022-08-29T12:53:35Z</time>
      </trkpt>
      <trkpt lat="42.3644710" lon="-3.6221570">
        <ele>871.4</ele>
        <time>2022-08-29T12:53:36Z</time>
      </trkpt>
      <trkpt lat="42.3644560" lon="-3.6222120">
        <ele>871.4</ele>
        <time>2022-08-29T12:53:37Z</time>
      </trkpt>
      <trkpt lat="42.3644410" lon="-3.6222670">
        <ele>871.4</ele>
        <time>2022-08-29T12:53:38Z</time>
      </trkpt>
      <trkpt lat="42.3644240" lon="-3.6223220">
        <ele>871.4</ele>
        <time>2022-08-29T12:53:39Z</time>
      </trkpt>
      <trkpt lat="42.3644080" lon="-3.6223790">
        <ele>871.2</ele>
        <time>2022-08-29T12:53:40Z</time>
      </trkpt>
      <trkpt lat="42.3643970" lon="-3.6224390">
        <ele>871.4</ele>
        <time>2022-08-29T12:53:41Z</time>
      </trkpt>
      <trkpt lat="42.3643870" lon="-3.6225010">
        <ele>871.4</ele>
        <time>2022-08-29T12:53:42Z</time>
      </trkpt>
      <trkpt lat="42.3643760" lon="-3.6225650">
        <ele>871.4</ele>
        <time>2022-08-29T12:53:43Z</time>
      </trkpt>
      <trkpt lat="42.3643640" lon="-3.6226290">
        <ele>871.4</ele>
        <time>2022-08-29T12:53:44Z</time>
      </trkpt>
      <trkpt lat="42.3643500" lon="-3.6226950">
        <ele>871.4</ele>
        <time>2022-08-29T12:53:45Z</time>
      </trkpt>
      <trkpt lat="42.3643360" lon="-3.6227610">
        <ele>871.6</ele>
        <time>2022-08-29T12:53:46Z</time>
      </trkpt>
      <trkpt lat="42.3643210" lon="-3.6228280">
        <ele>871.4</ele>
        <time>2022-08-29T12:53:47Z</time>
      </trkpt>
      <trkpt lat="42.3643100" lon="-3.6228980">
        <ele>871.4</ele>
        <time>2022-08-29T12:53:48Z</time>
      </trkpt>
      <trkpt lat="42.3642990" lon="-3.6229700">
        <ele>871.4</ele>
        <time>2022-08-29T12:53:49Z</time>
      </trkpt>
      <trkpt lat="42.3642850" lon="-3.6230440">
        <ele>871.4</ele>
        <time>2022-08-29T12:53:50Z</time>
      </trkpt>
      <trkpt lat="42.3642700" lon="-3.6231180">
        <ele>871.4</ele>
        <time>2022-08-29T12:53:51Z</time>
      </trkpt>
      <trkpt lat="42.3642530" lon="-3.6231900">
        <ele>871.4</ele>
        <time>2022-08-29T12:53:52Z</time>
      </trkpt>
      <trkpt lat="42.3642360" lon="-3.6232640">
        <ele>871.2</ele>
        <time>2022-08-29T12:53:53Z</time>
      </trkpt>
      <trkpt lat="42.3642210" lon="-3.6233390">
        <ele>871.4</ele>
        <time>2022-08-29T12:53:54Z</time>
      </trkpt>
      <trkpt lat="42.3642070" lon="-3.6234160">
        <ele>871.4</ele>
        <time>2022-08-29T12:53:55Z</time>
      </trkpt>
      <trkpt lat="42.3641930" lon="-3.6234930">
        <ele>871.2</ele>
        <time>2022-08-29T12:53:56Z</time>
      </trkpt>
      <trkpt lat="42.3641790" lon="-3.6235690">
        <ele>871.2</ele>
        <time>2022-08-29T12:53:57Z</time>
      </trkpt>
      <trkpt lat="42.3641630" lon="-3.6236450">
        <ele>871.2</ele>
        <time>2022-08-29T12:53:58Z</time>
      </trkpt>
      <trkpt lat="42.3641480" lon="-3.6237200">
        <ele>871.2</ele>
        <time>2022-08-29T12:53:59Z</time>
      </trkpt>
      <trkpt lat="42.3641330" lon="-3.6237930">
        <ele>871.0</ele>
        <time>2022-08-29T12:54:00Z</time>
      </trkpt>
      <trkpt lat="42.3641180" lon="-3.6238660">
        <ele>871.0</ele>
        <time>2022-08-29T12:54:01Z</time>
      </trkpt>
      <trkpt lat="42.3641030" lon="-3.6239360">
        <ele>870.6</ele>
        <time>2022-08-29T12:54:02Z</time>
      </trkpt>
      <trkpt lat="42.3640890" lon="-3.6240060">
        <ele>870.6</ele>
        <time>2022-08-29T12:54:03Z</time>
      </trkpt>
      <trkpt lat="42.3640760" lon="-3.6240760">
        <ele>870.4</ele>
        <time>2022-08-29T12:54:04Z</time>
      </trkpt>
      <trkpt lat="42.3640640" lon="-3.6241450">
        <ele>870.4</ele>
        <time>2022-08-29T12:54:05Z</time>
      </trkpt>
      <trkpt lat="42.3640500" lon="-3.6242160">
        <ele>870.2</ele>
        <time>2022-08-29T12:54:06Z</time>
      </trkpt>
      <trkpt lat="42.3640340" lon="-3.6242890">
        <ele>870.2</ele>
        <time>2022-08-29T12:54:07Z</time>
      </trkpt>
      <trkpt lat="42.3640200" lon="-3.6243650">
        <ele>870.2</ele>
        <time>2022-08-29T12:54:08Z</time>
      </trkpt>
      <trkpt lat="42.3640050" lon="-3.6244400">
        <ele>870.2</ele>
        <time>2022-08-29T12:54:09Z</time>
      </trkpt>
      <trkpt lat="42.3639900" lon="-3.6245170">
        <ele>870.2</ele>
        <time>2022-08-29T12:54:10Z</time>
      </trkpt>
      <trkpt lat="42.3639760" lon="-3.6245940">
        <ele>870.0</ele>
        <time>2022-08-29T12:54:11Z</time>
      </trkpt>
      <trkpt lat="42.3639610" lon="-3.6246710">
        <ele>870.2</ele>
        <time>2022-08-29T12:54:12Z</time>
      </trkpt>
      <trkpt lat="42.3639460" lon="-3.6247490">
        <ele>870.0</ele>
        <time>2022-08-29T12:54:13Z</time>
      </trkpt>
      <trkpt lat="42.3639290" lon="-3.6248270">
        <ele>870.0</ele>
        <time>2022-08-29T12:54:14Z</time>
      </trkpt>
      <trkpt lat="42.3639130" lon="-3.6249060">
        <ele>870.0</ele>
        <time>2022-08-29T12:54:15Z</time>
      </trkpt>
      <trkpt lat="42.3638970" lon="-3.6249840">
        <ele>870.0</ele>
        <time>2022-08-29T12:54:16Z</time>
      </trkpt>
      <trkpt lat="42.3638820" lon="-3.6250630">
        <ele>869.8</ele>
        <time>2022-08-29T12:54:17Z</time>
      </trkpt>
      <trkpt lat="42.3638680" lon="-3.6251430">
        <ele>869.6</ele>
        <time>2022-08-29T12:54:18Z</time>
      </trkpt>
      <trkpt lat="42.3638540" lon="-3.6252220">
        <ele>869.6</ele>
        <time>2022-08-29T12:54:19Z</time>
      </trkpt>
      <trkpt lat="42.3638380" lon="-3.6253000">
        <ele>869.2</ele>
        <time>2022-08-29T12:54:20Z</time>
      </trkpt>
      <trkpt lat="42.3638220" lon="-3.6253790">
        <ele>869.0</ele>
        <time>2022-08-29T12:54:21Z</time>
      </trkpt>
      <trkpt lat="42.3638060" lon="-3.6254570">
        <ele>869.0</ele>
        <time>2022-08-29T12:54:22Z</time>
      </trkpt>
      <trkpt lat="42.3637910" lon="-3.6255310">
        <ele>869.0</ele>
        <time>2022-08-29T12:54:23Z</time>
      </trkpt>
      <trkpt lat="42.3637780" lon="-3.6255950">
        <ele>868.4</ele>
        <time>2022-08-29T12:54:24Z</time>
      </trkpt>
      <trkpt lat="42.3637750" lon="-3.6256500">
        <ele>868.2</ele>
        <time>2022-08-29T12:54:25Z</time>
      </trkpt>
      <trkpt lat="42.3637840" lon="-3.6257020">
        <ele>868.0</ele>
        <time>2022-08-29T12:54:26Z</time>
      </trkpt>
      <trkpt lat="42.3637950" lon="-3.6257530">
        <ele>868.0</ele>
        <time>2022-08-29T12:54:27Z</time>
      </trkpt>
      <trkpt lat="42.3637990" lon="-3.6258070">
        <ele>868.2</ele>
        <time>2022-08-29T12:54:28Z</time>
      </trkpt>
      <trkpt lat="42.3638010" lon="-3.6258640">
        <ele>868.0</ele>
        <time>2022-08-29T12:54:29Z</time>
      </trkpt>
      <trkpt lat="42.3638030" lon="-3.6259230">
        <ele>868.2</ele>
        <time>2022-08-29T12:54:30Z</time>
      </trkpt>
      <trkpt lat="42.3638070" lon="-3.6259820">
        <ele>868.2</ele>
        <time>2022-08-29T12:54:31Z</time>
      </trkpt>
      <trkpt lat="42.3638110" lon="-3.6260420">
        <ele>868.0</ele>
        <time>2022-08-29T12:54:32Z</time>
      </trkpt>
      <trkpt lat="42.3638140" lon="-3.6261030">
        <ele>868.0</ele>
        <time>2022-08-29T12:54:33Z</time>
      </trkpt>
      <trkpt lat="42.3638120" lon="-3.6261620">
        <ele>868.2</ele>
        <time>2022-08-29T12:54:34Z</time>
      </trkpt>
      <trkpt lat="42.3638000" lon="-3.6262180">
        <ele>868.4</ele>
        <time>2022-08-29T12:54:35Z</time>
      </trkpt>
      <trkpt lat="42.3637770" lon="-3.6262640">
        <ele>868.6</ele>
        <time>2022-08-29T12:54:36Z</time>
      </trkpt>
      <trkpt lat="42.3637480" lon="-3.6262940">
        <ele>869.0</ele>
        <time>2022-08-29T12:54:37Z</time>
      </trkpt>
      <trkpt lat="42.3637190" lon="-3.6263130">
        <ele>869.0</ele>
        <time>2022-08-29T12:54:38Z</time>
      </trkpt>
      <trkpt lat="42.3636920" lon="-3.6263350">
        <ele>869.2</ele>
        <time>2022-08-29T12:54:39Z</time>
      </trkpt>
      <trkpt lat="42.3636680" lon="-3.6263640">
        <ele>869.2</ele>
        <time>2022-08-29T12:54:40Z</time>
      </trkpt>
      <trkpt lat="42.3636500" lon="-3.6264000">
        <ele>869.2</ele>
        <time>2022-08-29T12:54:41Z</time>
      </trkpt>
      <trkpt lat="42.3636370" lon="-3.6264440">
        <ele>869.2</ele>
        <time>2022-08-29T12:54:42Z</time>
      </trkpt>
      <trkpt lat="42.3636290" lon="-3.6264960">
        <ele>869.0</ele>
        <time>2022-08-29T12:54:43Z</time>
      </trkpt>
      <trkpt lat="42.3636210" lon="-3.6265490">
        <ele>869.2</ele>
        <time>2022-08-29T12:54:44Z</time>
      </trkpt>
      <trkpt lat="42.3636110" lon="-3.6266020">
        <ele>869.0</ele>
        <time>2022-08-29T12:54:45Z</time>
      </trkpt>
      <trkpt lat="42.3636010" lon="-3.6266540">
        <ele>869.0</ele>
        <time>2022-08-29T12:54:46Z</time>
      </trkpt>
      <trkpt lat="42.3635880" lon="-3.6267060">
        <ele>869.2</ele>
        <time>2022-08-29T12:54:47Z</time>
      </trkpt>
      <trkpt lat="42.3635750" lon="-3.6267600">
        <ele>869.0</ele>
        <time>2022-08-29T12:54:48Z</time>
      </trkpt>
      <trkpt lat="42.3635590" lon="-3.6268150">
        <ele>869.0</ele>
        <time>2022-08-29T12:54:49Z</time>
      </trkpt>
      <trkpt lat="42.3635410" lon="-3.6268730">
        <ele>869.0</ele>
        <time>2022-08-29T12:54:50Z</time>
      </trkpt>
      <trkpt lat="42.3635280" lon="-3.6269350">
        <ele>869.0</ele>
        <time>2022-08-29T12:54:51Z</time>
      </trkpt>
      <trkpt lat="42.3635150" lon="-3.6269990">
        <ele>869.0</ele>
        <time>2022-08-29T12:54:52Z</time>
      </trkpt>
      <trkpt lat="42.3635010" lon="-3.6270630">
        <ele>868.8</ele>
        <time>2022-08-29T12:54:53Z</time>
      </trkpt>
      <trkpt lat="42.3634910" lon="-3.6271290">
        <ele>868.8</ele>
        <time>2022-08-29T12:54:54Z</time>
      </trkpt>
      <trkpt lat="42.3634790" lon="-3.6271960">
        <ele>868.6</ele>
        <time>2022-08-29T12:54:55Z</time>
      </trkpt>
      <trkpt lat="42.3634660" lon="-3.6272650">
        <ele>868.6</ele>
        <time>2022-08-29T12:54:56Z</time>
      </trkpt>
      <trkpt lat="42.3634520" lon="-3.6273360">
        <ele>868.6</ele>
        <time>2022-08-29T12:54:57Z</time>
      </trkpt>
      <trkpt lat="42.3634390" lon="-3.6274060">
        <ele>868.6</ele>
        <time>2022-08-29T12:54:58Z</time>
      </trkpt>
      <trkpt lat="42.3634250" lon="-3.6274790">
        <ele>868.4</ele>
        <time>2022-08-29T12:54:59Z</time>
      </trkpt>
      <trkpt lat="42.3634100" lon="-3.6275530">
        <ele>868.0</ele>
        <time>2022-08-29T12:55:00Z</time>
      </trkpt>
      <trkpt lat="42.3633950" lon="-3.6276290">
        <ele>868.0</ele>
        <time>2022-08-29T12:55:01Z</time>
      </trkpt>
      <trkpt lat="42.3633830" lon="-3.6277080">
        <ele>867.8</ele>
        <time>2022-08-29T12:55:02Z</time>
      </trkpt>
      <trkpt lat="42.3633690" lon="-3.6277880">
        <ele>867.6</ele>
        <time>2022-08-29T12:55:03Z</time>
      </trkpt>
      <trkpt lat="42.3633530" lon="-3.6278690">
        <ele>867.6</ele>
        <time>2022-08-29T12:55:04Z</time>
      </trkpt>
      <trkpt lat="42.3633350" lon="-3.6279510">
        <ele>867.4</ele>
        <time>2022-08-29T12:55:05Z</time>
      </trkpt>
      <trkpt lat="42.3633170" lon="-3.6280350">
        <ele>867.4</ele>
        <time>2022-08-29T12:55:06Z</time>
      </trkpt>
      <trkpt lat="42.3633010" lon="-3.6281210">
        <ele>867.0</ele>
        <time>2022-08-29T12:55:07Z</time>
      </trkpt>
      <trkpt lat="42.3632840" lon="-3.6282060">
        <ele>867.0</ele>
        <time>2022-08-29T12:55:08Z</time>
      </trkpt>
      <trkpt lat="42.3632670" lon="-3.6282910">
        <ele>866.8</ele>
        <time>2022-08-29T12:55:09Z</time>
      </trkpt>
      <trkpt lat="42.3632500" lon="-3.6283770">
        <ele>866.8</ele>
        <time>2022-08-29T12:55:10Z</time>
      </trkpt>
      <trkpt lat="42.3632320" lon="-3.6284600">
        <ele>866.6</ele>
        <time>2022-08-29T12:55:11Z</time>
      </trkpt>
      <trkpt lat="42.3632160" lon="-3.6285440">
        <ele>866.4</ele>
        <time>2022-08-29T12:55:12Z</time>
      </trkpt>
      <trkpt lat="42.3632000" lon="-3.6286290">
        <ele>866.6</ele>
        <time>2022-08-29T12:55:13Z</time>
      </trkpt>
      <trkpt lat="42.3631830" lon="-3.6287140">
        <ele>866.4</ele>
        <time>2022-08-29T12:55:14Z</time>
      </trkpt>
      <trkpt lat="42.3631670" lon="-3.6287990">
        <ele>866.2</ele>
        <time>2022-08-29T12:55:15Z</time>
      </trkpt>
      <trkpt lat="42.3631520" lon="-3.6288840">
        <ele>866.2</ele>
        <time>2022-08-29T12:55:16Z</time>
      </trkpt>
      <trkpt lat="42.3631360" lon="-3.6289670">
        <ele>866.2</ele>
        <time>2022-08-29T12:55:17Z</time>
      </trkpt>
      <trkpt lat="42.3631190" lon="-3.6290500">
        <ele>866.0</ele>
        <time>2022-08-29T12:55:18Z</time>
      </trkpt>
      <trkpt lat="42.3631030" lon="-3.6291310">
        <ele>866.0</ele>
        <time>2022-08-29T12:55:19Z</time>
      </trkpt>
      <trkpt lat="42.3630860" lon="-3.6292100">
        <ele>865.8</ele>
        <time>2022-08-29T12:55:20Z</time>
      </trkpt>
      <trkpt lat="42.3630710" lon="-3.6292880">
        <ele>865.4</ele>
        <time>2022-08-29T12:55:21Z</time>
      </trkpt>
      <trkpt lat="42.3630560" lon="-3.6293670">
        <ele>865.2</ele>
        <time>2022-08-29T12:55:22Z</time>
      </trkpt>
      <trkpt lat="42.3630400" lon="-3.6294420">
        <ele>865.0</ele>
        <time>2022-08-29T12:55:23Z</time>
      </trkpt>
      <trkpt lat="42.3630250" lon="-3.6295170">
        <ele>865.0</ele>
        <time>2022-08-29T12:55:24Z</time>
      </trkpt>
      <trkpt lat="42.3630110" lon="-3.6295930">
        <ele>865.0</ele>
        <time>2022-08-29T12:55:25Z</time>
      </trkpt>
      <trkpt lat="42.3629970" lon="-3.6296680">
        <ele>864.8</ele>
        <time>2022-08-29T12:55:26Z</time>
      </trkpt>
      <trkpt lat="42.3629840" lon="-3.6297420">
        <ele>864.8</ele>
        <time>2022-08-29T12:55:27Z</time>
      </trkpt>
      <trkpt lat="42.3629710" lon="-3.6298140">
        <ele>864.6</ele>
        <time>2022-08-29T12:55:28Z</time>
      </trkpt>
      <trkpt lat="42.3629570" lon="-3.6298870">
        <ele>864.6</ele>
        <time>2022-08-29T12:55:29Z</time>
      </trkpt>
      <trkpt lat="42.3629410" lon="-3.6299570">
        <ele>864.6</ele>
        <time>2022-08-29T12:55:30Z</time>
      </trkpt>
      <trkpt lat="42.3629270" lon="-3.6300260">
        <ele>864.6</ele>
        <time>2022-08-29T12:55:31Z</time>
      </trkpt>
      <trkpt lat="42.3629140" lon="-3.6300900">
        <ele>864.8</ele>
        <time>2022-08-29T12:55:32Z</time>
      </trkpt>
      <trkpt lat="42.3629020" lon="-3.6301490">
        <ele>864.8</ele>
        <time>2022-08-29T12:55:33Z</time>
      </trkpt>
      <trkpt lat="42.3628920" lon="-3.6302050">
        <ele>864.8</ele>
        <time>2022-08-29T12:55:34Z</time>
      </trkpt>
      <trkpt lat="42.3628830" lon="-3.6302590">
        <ele>864.6</ele>
        <time>2022-08-29T12:55:35Z</time>
      </trkpt>
      <trkpt lat="42.3628730" lon="-3.6303120">
        <ele>864.6</ele>
        <time>2022-08-29T12:55:36Z</time>
      </trkpt>
      <trkpt lat="42.3628620" lon="-3.6303670">
        <ele>864.6</ele>
        <time>2022-08-29T12:55:37Z</time>
      </trkpt>
      <trkpt lat="42.3628570" lon="-3.6304250">
        <ele>864.6</ele>
        <time>2022-08-29T12:55:38Z</time>
      </trkpt>
      <trkpt lat="42.3628600" lon="-3.6304840">
        <ele>865.0</ele>
        <time>2022-08-29T12:55:39Z</time>
      </trkpt>
      <trkpt lat="42.3628670" lon="-3.6305450">
        <ele>865.0</ele>
        <time>2022-08-29T12:55:40Z</time>
      </trkpt>
      <trkpt lat="42.3628720" lon="-3.6306070">
        <ele>865.0</ele>
        <time>2022-08-29T12:55:41Z</time>
      </trkpt>
      <trkpt lat="42.3628690" lon="-3.6306700">
        <ele>865.2</ele>
        <time>2022-08-29T12:55:42Z</time>
      </trkpt>
      <trkpt lat="42.3628570" lon="-3.6307320">
        <ele>865.4</ele>
        <time>2022-08-29T12:55:43Z</time>
      </trkpt>
      <trkpt lat="42.3628360" lon="-3.6307880">
        <ele>865.8</ele>
        <time>2022-08-29T12:55:44Z</time>
      </trkpt>
      <trkpt lat="42.3628060" lon="-3.6308410">
        <ele>865.8</ele>
        <time>2022-08-29T12:55:45Z</time>
      </trkpt>
      <trkpt lat="42.3627740" lon="-3.6308910">
        <ele>866.0</ele>
        <time>2022-08-29T12:55:46Z</time>
      </trkpt>
      <trkpt lat="42.3627510" lon="-3.6309500">
        <ele>866.0</ele>
        <time>2022-08-29T12:55:47Z</time>
      </trkpt>
      <trkpt lat="42.3627360" lon="-3.6310160">
        <ele>866.0</ele>
        <time>2022-08-29T12:55:48Z</time>
      </trkpt>
      <trkpt lat="42.3627240" lon="-3.6310840">
        <ele>866.0</ele>
        <time>2022-08-29T12:55:49Z</time>
      </trkpt>
      <trkpt lat="42.3627120" lon="-3.6311540">
        <ele>866.0</ele>
        <time>2022-08-29T12:55:50Z</time>
      </trkpt>
      <trkpt lat="42.3627010" lon="-3.6312250">
        <ele>866.0</ele>
        <time>2022-08-29T12:55:51Z</time>
      </trkpt>
      <trkpt lat="42.3626870" lon="-3.6312950">
        <ele>866.0</ele>
        <time>2022-08-29T12:55:52Z</time>
      </trkpt>
      <trkpt lat="42.3626730" lon="-3.6313670">
        <ele>866.0</ele>
        <time>2022-08-29T12:55:53Z</time>
      </trkpt>
      <trkpt lat="42.3626580" lon="-3.6314380">
        <ele>866.0</ele>
        <time>2022-08-29T12:55:54Z</time>
      </trkpt>
      <trkpt lat="42.3626430" lon="-3.6315110">
        <ele>866.0</ele>
        <time>2022-08-29T12:55:55Z</time>
      </trkpt>
      <trkpt lat="42.3626300" lon="-3.6315840">
        <ele>865.8</ele>
        <time>2022-08-29T12:55:56Z</time>
      </trkpt>
      <trkpt lat="42.3626170" lon="-3.6316590">
        <ele>865.8</ele>
        <time>2022-08-29T12:55:57Z</time>
      </trkpt>
      <trkpt lat="42.3626040" lon="-3.6317330">
        <ele>865.6</ele>
        <time>2022-08-29T12:55:58Z</time>
      </trkpt>
      <trkpt lat="42.3625890" lon="-3.6318070">
        <ele>865.4</ele>
        <time>2022-08-29T12:55:59Z</time>
      </trkpt>
      <trkpt lat="42.3625740" lon="-3.6318800">
        <ele>865.4</ele>
        <time>2022-08-29T12:56:00Z</time>
      </trkpt>
      <trkpt lat="42.3625600" lon="-3.6319550">
        <ele>865.2</ele>
        <time>2022-08-29T12:56:01Z</time>
      </trkpt>
      <trkpt lat="42.3625460" lon="-3.6320300">
        <ele>865.2</ele>
        <time>2022-08-29T12:56:02Z</time>
      </trkpt>
      <trkpt lat="42.3625310" lon="-3.6321050">
        <ele>865.0</ele>
        <time>2022-08-29T12:56:03Z</time>
      </trkpt>
      <trkpt lat="42.3625170" lon="-3.6321810">
        <ele>865.0</ele>
        <time>2022-08-29T12:56:04Z</time>
      </trkpt>
      <trkpt lat="42.3625030" lon="-3.6322560">
        <ele>864.8</ele>
        <time>2022-08-29T12:56:05Z</time>
      </trkpt>
      <trkpt lat="42.3624900" lon="-3.6323300">
        <ele>864.8</ele>
        <time>2022-08-29T12:56:06Z</time>
      </trkpt>
      <trkpt lat="42.3624820" lon="-3.6324030">
        <ele>864.8</ele>
        <time>2022-08-29T12:56:07Z</time>
      </trkpt>
      <trkpt lat="42.3624770" lon="-3.6324740">
        <ele>864.6</ele>
        <time>2022-08-29T12:56:08Z</time>
      </trkpt>
      <trkpt lat="42.3624680" lon="-3.6325400">
        <ele>864.8</ele>
        <time>2022-08-29T12:56:09Z</time>
      </trkpt>
      <trkpt lat="42.3624560" lon="-3.6326010">
        <ele>864.8</ele>
        <time>2022-08-29T12:56:10Z</time>
      </trkpt>
      <trkpt lat="42.3624460" lon="-3.6326620">
        <ele>864.8</ele>
        <time>2022-08-29T12:56:11Z</time>
      </trkpt>
      <trkpt lat="42.3624340" lon="-3.6327210">
        <ele>864.8</ele>
        <time>2022-08-29T12:56:12Z</time>
      </trkpt>
      <trkpt lat="42.3624220" lon="-3.6327790">
        <ele>864.8</ele>
        <time>2022-08-29T12:56:13Z</time>
      </trkpt>
      <trkpt lat="42.3624110" lon="-3.6328380">
        <ele>864.8</ele>
        <time>2022-08-29T12:56:14Z</time>
      </trkpt>
      <trkpt lat="42.3623980" lon="-3.6329000">
        <ele>864.8</ele>
        <time>2022-08-29T12:56:15Z</time>
      </trkpt>
      <trkpt lat="42.3623870" lon="-3.6329620">
        <ele>864.6</ele>
        <time>2022-08-29T12:56:16Z</time>
      </trkpt>
      <trkpt lat="42.3623750" lon="-3.6330270">
        <ele>864.8</ele>
        <time>2022-08-29T12:56:17Z</time>
      </trkpt>
      <trkpt lat="42.3623630" lon="-3.6330940">
        <ele>864.8</ele>
        <time>2022-08-29T12:56:18Z</time>
      </trkpt>
      <trkpt lat="42.3623490" lon="-3.6331620">
        <ele>864.8</ele>
        <time>2022-08-29T12:56:19Z</time>
      </trkpt>
      <trkpt lat="42.3623340" lon="-3.6332290">
        <ele>864.8</ele>
        <time>2022-08-29T12:56:20Z</time>
      </trkpt>
      <trkpt lat="42.3623140" lon="-3.6332950">
        <ele>864.8</ele>
        <time>2022-08-29T12:56:21Z</time>
      </trkpt>
      <trkpt lat="42.3622950" lon="-3.6333620">
        <ele>864.8</ele>
        <time>2022-08-29T12:56:22Z</time>
      </trkpt>
      <trkpt lat="42.3622800" lon="-3.6334300">
        <ele>864.8</ele>
        <time>2022-08-29T12:56:23Z</time>
      </trkpt>
      <trkpt lat="42.3622660" lon="-3.6335000">
        <ele>864.8</ele>
        <time>2022-08-29T12:56:24Z</time>
      </trkpt>
      <trkpt lat="42.3622540" lon="-3.6335730">
        <ele>864.8</ele>
        <time>2022-08-29T12:56:25Z</time>
      </trkpt>
      <trkpt lat="42.3622410" lon="-3.6336480">
        <ele>865.0</ele>
        <time>2022-08-29T12:56:26Z</time>
      </trkpt>
      <trkpt lat="42.3622290" lon="-3.6337250">
        <ele>864.8</ele>
        <time>2022-08-29T12:56:27Z</time>
      </trkpt>
      <trkpt lat="42.3622160" lon="-3.6338030">
        <ele>864.8</ele>
        <time>2022-08-29T12:56:28Z</time>
      </trkpt>
      <trkpt lat="42.3622010" lon="-3.6338820">
        <ele>864.6</ele>
        <time>2022-08-29T12:56:29Z</time>
      </trkpt>
      <trkpt lat="42.3621870" lon="-3.6339620">
        <ele>864.6</ele>
        <time>2022-08-29T12:56:30Z</time>
      </trkpt>
      <trkpt lat="42.3621730" lon="-3.6340420">
        <ele>864.6</ele>
        <time>2022-08-29T12:56:31Z</time>
      </trkpt>
      <trkpt lat="42.3621590" lon="-3.6341210">
        <ele>864.4</ele>
        <time>2022-08-29T12:56:32Z</time>
      </trkpt>
      <trkpt lat="42.3621440" lon="-3.6342010">
        <ele>864.2</ele>
        <time>2022-08-29T12:56:33Z</time>
      </trkpt>
      <trkpt lat="42.3621290" lon="-3.6342820">
        <ele>864.0</ele>
        <time>2022-08-29T12:56:34Z</time>
      </trkpt>
      <trkpt lat="42.3621160" lon="-3.6343630">
        <ele>864.0</ele>
        <time>2022-08-29T12:56:35Z</time>
      </trkpt>
      <trkpt lat="42.3621020" lon="-3.6344440">
        <ele>863.6</ele>
        <time>2022-08-29T12:56:36Z</time>
      </trkpt>
      <trkpt lat="42.3620860" lon="-3.6345240">
        <ele>863.4</ele>
        <time>2022-08-29T12:56:37Z</time>
      </trkpt>
      <trkpt lat="42.3620690" lon="-3.6346040">
        <ele>863.4</ele>
        <time>2022-08-29T12:56:38Z</time>
      </trkpt>
      <trkpt lat="42.3620520" lon="-3.6346840">
        <ele>863.4</ele>
        <time>2022-08-29T12:56:39Z</time>
      </trkpt>
      <trkpt lat="42.3620350" lon="-3.6347660">
        <ele>863.2</ele>
        <time>2022-08-29T12:56:40Z</time>
      </trkpt>
      <trkpt lat="42.3620200" lon="-3.6348480">
        <ele>863.2</ele>
        <time>2022-08-29T12:56:41Z</time>
      </trkpt>
      <trkpt lat="42.3620050" lon="-3.6349310">
        <ele>863.2</ele>
        <time>2022-08-29T12:56:42Z</time>
      </trkpt>
      <trkpt lat="42.3619900" lon="-3.6350140">
        <ele>863.0</ele>
        <time>2022-08-29T12:56:43Z</time>
      </trkpt>
      <trkpt lat="42.3619760" lon="-3.6350990">
        <ele>862.6</ele>
        <time>2022-08-29T12:56:44Z</time>
      </trkpt>
      <trkpt lat="42.3619600" lon="-3.6351800">
        <ele>862.4</ele>
        <time>2022-08-29T12:56:45Z</time>
      </trkpt>
      <trkpt lat="42.3619450" lon="-3.6352620">
        <ele>862.4</ele>
        <time>2022-08-29T12:56:46Z</time>
      </trkpt>
      <trkpt lat="42.3619320" lon="-3.6353460">
        <ele>862.4</ele>
        <time>2022-08-29T12:56:47Z</time>
      </trkpt>
      <trkpt lat="42.3619180" lon="-3.6354280">
        <ele>862.2</ele>
        <time>2022-08-29T12:56:48Z</time>
      </trkpt>
      <trkpt lat="42.3619030" lon="-3.6355100">
        <ele>862.2</ele>
        <time>2022-08-29T12:56:49Z</time>
      </trkpt>
      <trkpt lat="42.3618870" lon="-3.6355920">
        <ele>862.0</ele>
        <time>2022-08-29T12:56:50Z</time>
      </trkpt>
      <trkpt lat="42.3618710" lon="-3.6356760">
        <ele>861.8</ele>
        <time>2022-08-29T12:56:51Z</time>
      </trkpt>
      <trkpt lat="42.3618550" lon="-3.6357610">
        <ele>861.8</ele>
        <time>2022-08-29T12:56:52Z</time>
      </trkpt>
      <trkpt lat="42.3618390" lon="-3.6358470">
        <ele>861.8</ele>
        <time>2022-08-29T12:56:53Z</time>
      </trkpt>
      <trkpt lat="42.3618230" lon="-3.6359330">
        <ele>861.6</ele>
        <time>2022-08-29T12:56:54Z</time>
      </trkpt>
      <trkpt lat="42.3618070" lon="-3.6360180">
        <ele>861.4</ele>
        <time>2022-08-29T12:56:55Z</time>
      </trkpt>
      <trkpt lat="42.3617920" lon="-3.6361040">
        <ele>861.6</ele>
        <time>2022-08-29T12:56:56Z</time>
      </trkpt>
      <trkpt lat="42.3617770" lon="-3.6361900">
        <ele>861.4</ele>
        <time>2022-08-29T12:56:57Z</time>
      </trkpt>
      <trkpt lat="42.3617610" lon="-3.6362770">
        <ele>861.4</ele>
        <time>2022-08-29T12:56:58Z</time>
      </trkpt>
      <trkpt lat="42.3617430" lon="-3.6363610">
        <ele>861.2</ele>
        <time>2022-08-29T12:56:59Z</time>
      </trkpt>
      <trkpt lat="42.3617230" lon="-3.6364430">
        <ele>861.2</ele>
        <time>2022-08-29T12:57:00Z</time>
      </trkpt>
      <trkpt lat="42.3617040" lon="-3.6365280">
        <ele>861.2</ele>
        <time>2022-08-29T12:57:01Z</time>
      </trkpt>
      <trkpt lat="42.3616860" lon="-3.6366140">
        <ele>861.2</ele>
        <time>2022-08-29T12:57:02Z</time>
      </trkpt>
      <trkpt lat="42.3616700" lon="-3.6367020">
        <ele>861.2</ele>
        <time>2022-08-29T12:57:03Z</time>
      </trkpt>
      <trkpt lat="42.3616540" lon="-3.6367900">
        <ele>861.2</ele>
        <time>2022-08-29T12:57:04Z</time>
      </trkpt>
      <trkpt lat="42.3616370" lon="-3.6368780">
        <ele>860.8</ele>
        <time>2022-08-29T12:57:05Z</time>
      </trkpt>
      <trkpt lat="42.3616200" lon="-3.6369650">
        <ele>861.0</ele>
        <time>2022-08-29T12:57:06Z</time>
      </trkpt>
      <trkpt lat="42.3616040" lon="-3.6370520">
        <ele>860.8</ele>
        <time>2022-08-29T12:57:07Z</time>
      </trkpt>
      <trkpt lat="42.3615870" lon="-3.6371380">
        <ele>860.6</ele>
        <time>2022-08-29T12:57:08Z</time>
      </trkpt>
      <trkpt lat="42.3615730" lon="-3.6372230">
        <ele>860.6</ele>
        <time>2022-08-29T12:57:09Z</time>
      </trkpt>
      <trkpt lat="42.3615590" lon="-3.6373090">
        <ele>860.6</ele>
        <time>2022-08-29T12:57:10Z</time>
      </trkpt>
      <trkpt lat="42.3615440" lon="-3.6373950">
        <ele>860.6</ele>
        <time>2022-08-29T12:57:11Z</time>
      </trkpt>
      <trkpt lat="42.3615290" lon="-3.6374800">
        <ele>860.6</ele>
        <time>2022-08-29T12:57:12Z</time>
      </trkpt>
      <trkpt lat="42.3615130" lon="-3.6375660">
        <ele>860.4</ele>
        <time>2022-08-29T12:57:13Z</time>
      </trkpt>
      <trkpt lat="42.3614970" lon="-3.6376520">
        <ele>860.6</ele>
        <time>2022-08-29T12:57:14Z</time>
      </trkpt>
      <trkpt lat="42.3614820" lon="-3.6377390">
        <ele>860.4</ele>
        <time>2022-08-29T12:57:15Z</time>
      </trkpt>
      <trkpt lat="42.3614670" lon="-3.6378270">
        <ele>860.2</ele>
        <time>2022-08-29T12:57:16Z</time>
      </trkpt>
      <trkpt lat="42.3614510" lon="-3.6379150">
        <ele>860.2</ele>
        <time>2022-08-29T12:57:17Z</time>
      </trkpt>
      <trkpt lat="42.3614350" lon="-3.6380030">
        <ele>860.2</ele>
        <time>2022-08-29T12:57:18Z</time>
      </trkpt>
      <trkpt lat="42.3614180" lon="-3.6380910">
        <ele>860.0</ele>
        <time>2022-08-29T12:57:19Z</time>
      </trkpt>
      <trkpt lat="42.3614000" lon="-3.6381770">
        <ele>860.0</ele>
        <time>2022-08-29T12:57:20Z</time>
      </trkpt>
      <trkpt lat="42.3613820" lon="-3.6382620">
        <ele>860.0</ele>
        <time>2022-08-29T12:57:21Z</time>
      </trkpt>
      <trkpt lat="42.3613660" lon="-3.6383470">
        <ele>860.0</ele>
        <time>2022-08-29T12:57:22Z</time>
      </trkpt>
      <trkpt lat="42.3613490" lon="-3.6384310">
        <ele>860.0</ele>
        <time>2022-08-29T12:57:23Z</time>
      </trkpt>
      <trkpt lat="42.3613330" lon="-3.6385120">
        <ele>860.0</ele>
        <time>2022-08-29T12:57:24Z</time>
      </trkpt>
      <trkpt lat="42.3613170" lon="-3.6385930">
        <ele>859.8</ele>
        <time>2022-08-29T12:57:25Z</time>
      </trkpt>
      <trkpt lat="42.3613000" lon="-3.6386710">
        <ele>860.0</ele>
        <time>2022-08-29T12:57:26Z</time>
      </trkpt>
      <trkpt lat="42.3612860" lon="-3.6387460">
        <ele>860.0</ele>
        <time>2022-08-29T12:57:27Z</time>
      </trkpt>
      <trkpt lat="42.3612730" lon="-3.6388210">
        <ele>860.0</ele>
        <time>2022-08-29T12:57:28Z</time>
      </trkpt>
      <trkpt lat="42.3612640" lon="-3.6388970">
        <ele>860.0</ele>
        <time>2022-08-29T12:57:29Z</time>
      </trkpt>
      <trkpt lat="42.3612620" lon="-3.6389710">
        <ele>859.8</ele>
        <time>2022-08-29T12:57:30Z</time>
      </trkpt>
      <trkpt lat="42.3612680" lon="-3.6390460">
        <ele>859.8</ele>
        <time>2022-08-29T12:57:31Z</time>
      </trkpt>
      <trkpt lat="42.3612790" lon="-3.6391220">
        <ele>859.8</ele>
        <time>2022-08-29T12:57:32Z</time>
      </trkpt>
      <trkpt lat="42.3612970" lon="-3.6391940">
        <ele>859.8</ele>
        <time>2022-08-29T12:57:33Z</time>
      </trkpt>
      <trkpt lat="42.3613240" lon="-3.6392580">
        <ele>859.8</ele>
        <time>2022-08-29T12:57:34Z</time>
      </trkpt>
      <trkpt lat="42.3613560" lon="-3.6393150">
        <ele>859.8</ele>
        <time>2022-08-29T12:57:35Z</time>
      </trkpt>
      <trkpt lat="42.3613910" lon="-3.6393700">
        <ele>860.0</ele>
        <time>2022-08-29T12:57:36Z</time>
      </trkpt>
      <trkpt lat="42.3614220" lon="-3.6394260">
        <ele>859.8</ele>
        <time>2022-08-29T12:57:37Z</time>
      </trkpt>
      <trkpt lat="42.3614500" lon="-3.6394860">
        <ele>859.8</ele>
        <time>2022-08-29T12:57:38Z</time>
      </trkpt>
      <trkpt lat="42.3614740" lon="-3.6395510">
        <ele>860.0</ele>
        <time>2022-08-29T12:57:39Z</time>
      </trkpt>
      <trkpt lat="42.3614920" lon="-3.6396170">
        <ele>860.0</ele>
        <time>2022-08-29T12:57:40Z</time>
      </trkpt>
      <trkpt lat="42.3615020" lon="-3.6396880">
        <ele>860.0</ele>
        <time>2022-08-29T12:57:41Z</time>
      </trkpt>
      <trkpt lat="42.3615060" lon="-3.6397620">
        <ele>860.0</ele>
        <time>2022-08-29T12:57:42Z</time>
      </trkpt>
      <trkpt lat="42.3615040" lon="-3.6398350">
        <ele>860.4</ele>
        <time>2022-08-29T12:57:43Z</time>
      </trkpt>
      <trkpt lat="42.3614970" lon="-3.6399080">
        <ele>860.4</ele>
        <time>2022-08-29T12:57:44Z</time>
      </trkpt>
      <trkpt lat="42.3614860" lon="-3.6399820">
        <ele>860.6</ele>
        <time>2022-08-29T12:57:45Z</time>
      </trkpt>
      <trkpt lat="42.3614690" lon="-3.6400550">
        <ele>860.4</ele>
        <time>2022-08-29T12:57:46Z</time>
      </trkpt>
      <trkpt lat="42.3614470" lon="-3.6401250">
        <ele>860.6</ele>
        <time>2022-08-29T12:57:47Z</time>
      </trkpt>
      <trkpt lat="42.3614190" lon="-3.6401900">
        <ele>860.6</ele>
        <time>2022-08-29T12:57:48Z</time>
      </trkpt>
      <trkpt lat="42.3613860" lon="-3.6402510">
        <ele>860.6</ele>
        <time>2022-08-29T12:57:49Z</time>
      </trkpt>
      <trkpt lat="42.3613480" lon="-3.6403070">
        <ele>860.6</ele>
        <time>2022-08-29T12:57:50Z</time>
      </trkpt>
      <trkpt lat="42.3613050" lon="-3.6403580">
        <ele>860.6</ele>
        <time>2022-08-29T12:57:51Z</time>
      </trkpt>
      <trkpt lat="42.3612560" lon="-3.6404000">
        <ele>860.6</ele>
        <time>2022-08-29T12:57:52Z</time>
      </trkpt>
      <trkpt lat="42.3612060" lon="-3.6404400">
        <ele>860.6</ele>
        <time>2022-08-29T12:57:53Z</time>
      </trkpt>
      <trkpt lat="42.3611530" lon="-3.6404770">
        <ele>860.6</ele>
        <time>2022-08-29T12:57:54Z</time>
      </trkpt>
      <trkpt lat="42.3611010" lon="-3.6405190">
        <ele>860.4</ele>
        <time>2022-08-29T12:57:55Z</time>
      </trkpt>
      <trkpt lat="42.3610490" lon="-3.6405650">
        <ele>860.4</ele>
        <time>2022-08-29T12:57:56Z</time>
      </trkpt>
      <trkpt lat="42.3609960" lon="-3.6406130">
        <ele>860.4</ele>
        <time>2022-08-29T12:57:57Z</time>
      </trkpt>
      <trkpt lat="42.3609440" lon="-3.6406630">
        <ele>860.4</ele>
        <time>2022-08-29T12:57:58Z</time>
      </trkpt>
      <trkpt lat="42.3608970" lon="-3.6407210">
        <ele>860.4</ele>
        <time>2022-08-29T12:57:59Z</time>
      </trkpt>
      <trkpt lat="42.3608580" lon="-3.6407880">
        <ele>860.0</ele>
        <time>2022-08-29T12:58:00Z</time>
      </trkpt>
      <trkpt lat="42.3608320" lon="-3.6408640">
        <ele>859.8</ele>
        <time>2022-08-29T12:58:01Z</time>
      </trkpt>
      <trkpt lat="42.3608140" lon="-3.6409440">
        <ele>859.6</ele>
        <time>2022-08-29T12:58:02Z</time>
      </trkpt>
      <trkpt lat="42.3607990" lon="-3.6410220">
        <ele>859.4</ele>
        <time>2022-08-29T12:58:03Z</time>
      </trkpt>
      <trkpt lat="42.3607870" lon="-3.6410990">
        <ele>859.0</ele>
        <time>2022-08-29T12:58:04Z</time>
      </trkpt>
      <trkpt lat="42.3607760" lon="-3.6411750">
        <ele>859.0</ele>
        <time>2022-08-29T12:58:05Z</time>
      </trkpt>
      <trkpt lat="42.3607680" lon="-3.6412500">
        <ele>858.8</ele>
        <time>2022-08-29T12:58:06Z</time>
      </trkpt>
      <trkpt lat="42.3607590" lon="-3.6413230">
        <ele>858.8</ele>
        <time>2022-08-29T12:58:07Z</time>
      </trkpt>
      <trkpt lat="42.3607490" lon="-3.6413950">
        <ele>859.0</ele>
        <time>2022-08-29T12:58:08Z</time>
      </trkpt>
      <trkpt lat="42.3607370" lon="-3.6414680">
        <ele>859.0</ele>
        <time>2022-08-29T12:58:09Z</time>
      </trkpt>
      <trkpt lat="42.3607240" lon="-3.6415400">
        <ele>858.8</ele>
        <time>2022-08-29T12:58:10Z</time>
      </trkpt>
      <trkpt lat="42.3607120" lon="-3.6416100">
        <ele>859.0</ele>
        <time>2022-08-29T12:58:11Z</time>
      </trkpt>
      <trkpt lat="42.3606990" lon="-3.6416770">
        <ele>858.8</ele>
        <time>2022-08-29T12:58:12Z</time>
      </trkpt>
      <trkpt lat="42.3606870" lon="-3.6417350">
        <ele>859.0</ele>
        <time>2022-08-29T12:58:13Z</time>
      </trkpt>
      <trkpt lat="42.3606800" lon="-3.6417850">
        <ele>858.8</ele>
        <time>2022-08-29T12:58:14Z</time>
      </trkpt>
      <trkpt lat="42.3606760" lon="-3.6418280">
        <ele>858.8</ele>
        <time>2022-08-29T12:58:15Z</time>
      </trkpt>
      <trkpt lat="42.3606710" lon="-3.6418660">
        <ele>858.8</ele>
        <time>2022-08-29T12:58:16Z</time>
      </trkpt>
      <trkpt lat="42.3606670" lon="-3.6418970">
        <ele>859.0</ele>
        <time>2022-08-29T12:58:17Z</time>
      </trkpt>
      <trkpt lat="42.3606630" lon="-3.6419230">
        <ele>859.2</ele>
        <time>2022-08-29T12:58:18Z</time>
      </trkpt>
      <trkpt lat="42.3606590" lon="-3.6419470">
        <ele>859.4</ele>
        <time>2022-08-29T12:58:19Z</time>
      </trkpt>
      <trkpt lat="42.3606560" lon="-3.6419700">
        <ele>859.4</ele>
        <time>2022-08-29T12:58:20Z</time>
      </trkpt>
      <trkpt lat="42.3606540" lon="-3.6419940">
        <ele>859.4</ele>
        <time>2022-08-29T12:58:21Z</time>
      </trkpt>
      <trkpt lat="42.3606560" lon="-3.6420180">
        <ele>859.8</ele>
        <time>2022-08-29T12:58:22Z</time>
      </trkpt>
      <trkpt lat="42.3606590" lon="-3.6420400">
        <ele>859.8</ele>
        <time>2022-08-29T12:58:23Z</time>
      </trkpt>
      <trkpt lat="42.3606600" lon="-3.6420630">
        <ele>860.2</ele>
        <time>2022-08-29T12:58:24Z</time>
      </trkpt>
      <trkpt lat="42.3606600" lon="-3.6420840">
        <ele>860.2</ele>
        <time>2022-08-29T12:58:25Z</time>
      </trkpt>
      <trkpt lat="42.3606590" lon="-3.6421050">
        <ele>860.2</ele>
        <time>2022-08-29T12:58:26Z</time>
      </trkpt>
      <trkpt lat="42.3606550" lon="-3.6421290">
        <ele>860.4</ele>
        <time>2022-08-29T12:58:27Z</time>
      </trkpt>
      <trkpt lat="42.3606500" lon="-3.6421620">
        <ele>860.2</ele>
        <time>2022-08-29T12:58:28Z</time>
      </trkpt>
      <trkpt lat="42.3606450" lon="-3.6422040">
        <ele>860.4</ele>
        <time>2022-08-29T12:58:29Z</time>
      </trkpt>
      <trkpt lat="42.3606380" lon="-3.6422530">
        <ele>860.4</ele>
        <time>2022-08-29T12:58:30Z</time>
      </trkpt>
      <trkpt lat="42.3606320" lon="-3.6423010">
        <ele>860.4</ele>
        <time>2022-08-29T12:58:31Z</time>
      </trkpt>
      <trkpt lat="42.3606250" lon="-3.6423470">
        <ele>860.4</ele>
        <time>2022-08-29T12:58:32Z</time>
      </trkpt>
      <trkpt lat="42.3606180" lon="-3.6423900">
        <ele>860.2</ele>
        <time>2022-08-29T12:58:33Z</time>
      </trkpt>
      <trkpt lat="42.3606080" lon="-3.6424330">
        <ele>860.4</ele>
        <time>2022-08-29T12:58:34Z</time>
      </trkpt>
      <trkpt lat="42.3605980" lon="-3.6424790">
        <ele>860.2</ele>
        <time>2022-08-29T12:58:35Z</time>
      </trkpt>
      <trkpt lat="42.3605890" lon="-3.6425290">
        <ele>860.4</ele>
        <time>2022-08-29T12:58:36Z</time>
      </trkpt>
      <trkpt lat="42.3605790" lon="-3.6425820">
        <ele>860.0</ele>
        <time>2022-08-29T12:58:37Z</time>
      </trkpt>
      <trkpt lat="42.3605680" lon="-3.6426360">
        <ele>860.2</ele>
        <time>2022-08-29T12:58:38Z</time>
      </trkpt>
      <trkpt lat="42.3605570" lon="-3.6426900">
        <ele>860.2</ele>
        <time>2022-08-29T12:58:39Z</time>
      </trkpt>
      <trkpt lat="42.3605450" lon="-3.6427450">
        <ele>860.2</ele>
        <time>2022-08-29T12:58:40Z</time>
      </trkpt>
      <trkpt lat="42.3605340" lon="-3.6428030">
        <ele>860.2</ele>
        <time>2022-08-29T12:58:41Z</time>
      </trkpt>
      <trkpt lat="42.3605230" lon="-3.6428610">
        <ele>860.0</ele>
        <time>2022-08-29T12:58:42Z</time>
      </trkpt>
      <trkpt lat="42.3605110" lon="-3.6429160">
        <ele>860.0</ele>
        <time>2022-08-29T12:58:43Z</time>
      </trkpt>
      <trkpt lat="42.3604990" lon="-3.6429730">
        <ele>860.0</ele>
        <time>2022-08-29T12:58:44Z</time>
      </trkpt>
      <trkpt lat="42.3604920" lon="-3.6430310">
        <ele>860.0</ele>
        <time>2022-08-29T12:58:45Z</time>
      </trkpt>
      <trkpt lat="42.3604840" lon="-3.6430900">
        <ele>860.0</ele>
        <time>2022-08-29T12:58:46Z</time>
      </trkpt>
      <trkpt lat="42.3604750" lon="-3.6431490">
        <ele>860.0</ele>
        <time>2022-08-29T12:58:47Z</time>
      </trkpt>
      <trkpt lat="42.3604620" lon="-3.6432050">
        <ele>860.0</ele>
        <time>2022-08-29T12:58:48Z</time>
      </trkpt>
      <trkpt lat="42.3604480" lon="-3.6432600">
        <ele>860.0</ele>
        <time>2022-08-29T12:58:49Z</time>
      </trkpt>
      <trkpt lat="42.3604360" lon="-3.6433160">
        <ele>860.0</ele>
        <time>2022-08-29T12:58:50Z</time>
      </trkpt>
      <trkpt lat="42.3604260" lon="-3.6433720">
        <ele>860.0</ele>
        <time>2022-08-29T12:58:51Z</time>
      </trkpt>
      <trkpt lat="42.3604170" lon="-3.6434320">
        <ele>859.8</ele>
        <time>2022-08-29T12:58:52Z</time>
      </trkpt>
      <trkpt lat="42.3604050" lon="-3.6434910">
        <ele>860.0</ele>
        <time>2022-08-29T12:58:53Z</time>
      </trkpt>
      <trkpt lat="42.3603940" lon="-3.6435490">
        <ele>860.0</ele>
        <time>2022-08-29T12:58:54Z</time>
      </trkpt>
      <trkpt lat="42.3603810" lon="-3.6436090">
        <ele>860.0</ele>
        <time>2022-08-29T12:58:55Z</time>
      </trkpt>
      <trkpt lat="42.3603630" lon="-3.6436630">
        <ele>860.0</ele>
        <time>2022-08-29T12:58:56Z</time>
      </trkpt>
      <trkpt lat="42.3603410" lon="-3.6437170">
        <ele>859.8</ele>
        <time>2022-08-29T12:58:57Z</time>
      </trkpt>
      <trkpt lat="42.3603180" lon="-3.6437730">
        <ele>859.8</ele>
        <time>2022-08-29T12:58:58Z</time>
      </trkpt>
      <trkpt lat="42.3602980" lon="-3.6438300">
        <ele>860.0</ele>
        <time>2022-08-29T12:58:59Z</time>
      </trkpt>
      <trkpt lat="42.3602810" lon="-3.6438900">
        <ele>859.8</ele>
        <time>2022-08-29T12:59:00Z</time>
      </trkpt>
      <trkpt lat="42.3602690" lon="-3.6439510">
        <ele>859.8</ele>
        <time>2022-08-29T12:59:01Z</time>
      </trkpt>
      <trkpt lat="42.3602580" lon="-3.6440130">
        <ele>859.8</ele>
        <time>2022-08-29T12:59:02Z</time>
      </trkpt>
      <trkpt lat="42.3602460" lon="-3.6440780">
        <ele>859.8</ele>
        <time>2022-08-29T12:59:03Z</time>
      </trkpt>
      <trkpt lat="42.3602330" lon="-3.6441430">
        <ele>859.8</ele>
        <time>2022-08-29T12:59:04Z</time>
      </trkpt>
      <trkpt lat="42.3602190" lon="-3.6442100">
        <ele>859.6</ele>
        <time>2022-08-29T12:59:05Z</time>
      </trkpt>
      <trkpt lat="42.3602050" lon="-3.6442750">
        <ele>859.6</ele>
        <time>2022-08-29T12:59:06Z</time>
      </trkpt>
      <trkpt lat="42.3601920" lon="-3.6443400">
        <ele>859.4</ele>
        <time>2022-08-29T12:59:07Z</time>
      </trkpt>
      <trkpt lat="42.3601800" lon="-3.6444050">
        <ele>859.4</ele>
        <time>2022-08-29T12:59:08Z</time>
      </trkpt>
      <trkpt lat="42.3601680" lon="-3.6444710">
        <ele>859.4</ele>
        <time>2022-08-29T12:59:09Z</time>
      </trkpt>
      <trkpt lat="42.3601560" lon="-3.6445370">
        <ele>859.4</ele>
        <time>2022-08-29T12:59:10Z</time>
      </trkpt>
      <trkpt lat="42.3601440" lon="-3.6446040">
        <ele>859.2</ele>
        <time>2022-08-29T12:59:11Z</time>
      </trkpt>
      <trkpt lat="42.3601320" lon="-3.6446730">
        <ele>859.2</ele>
        <time>2022-08-29T12:59:12Z</time>
      </trkpt>
      <trkpt lat="42.3601180" lon="-3.6447430">
        <ele>859.0</ele>
        <time>2022-08-29T12:59:13Z</time>
      </trkpt>
      <trkpt lat="42.3601050" lon="-3.6448140">
        <ele>859.0</ele>
        <time>2022-08-29T12:59:14Z</time>
      </trkpt>
      <trkpt lat="42.3600910" lon="-3.6448860">
        <ele>858.8</ele>
        <time>2022-08-29T12:59:15Z</time>
      </trkpt>
      <trkpt lat="42.3600770" lon="-3.6449580">
        <ele>858.8</ele>
        <time>2022-08-29T12:59:16Z</time>
      </trkpt>
      <trkpt lat="42.3600640" lon="-3.6450280">
        <ele>858.8</ele>
        <time>2022-08-29T12:59:17Z</time>
      </trkpt>
      <trkpt lat="42.3600500" lon="-3.6451000">
        <ele>858.8</ele>
        <time>2022-08-29T12:59:18Z</time>
      </trkpt>
      <trkpt lat="42.3600370" lon="-3.6451700">
        <ele>858.8</ele>
        <time>2022-08-29T12:59:19Z</time>
      </trkpt>
      <trkpt lat="42.3600240" lon="-3.6452380">
        <ele>858.8</ele>
        <time>2022-08-29T12:59:20Z</time>
      </trkpt>
      <trkpt lat="42.3600100" lon="-3.6453070">
        <ele>858.6</ele>
        <time>2022-08-29T12:59:21Z</time>
      </trkpt>
      <trkpt lat="42.3599980" lon="-3.6453730">
        <ele>858.6</ele>
        <time>2022-08-29T12:59:22Z</time>
      </trkpt>
      <trkpt lat="42.3599850" lon="-3.6454360">
        <ele>858.6</ele>
        <time>2022-08-29T12:59:23Z</time>
      </trkpt>
      <trkpt lat="42.3599720" lon="-3.6454950">
        <ele>858.6</ele>
        <time>2022-08-29T12:59:24Z</time>
      </trkpt>
      <trkpt lat="42.3599610" lon="-3.6455460">
        <ele>858.4</ele>
        <time>2022-08-29T12:59:25Z</time>
      </trkpt>
      <trkpt lat="42.3599520" lon="-3.6455910">
        <ele>858.6</ele>
        <time>2022-08-29T12:59:26Z</time>
      </trkpt>
      <trkpt lat="42.3599480" lon="-3.6456320">
        <ele>858.6</ele>
        <time>2022-08-29T12:59:27Z</time>
      </trkpt>
      <trkpt lat="42.3599440" lon="-3.6456710">
        <ele>858.6</ele>
        <time>2022-08-29T12:59:28Z</time>
      </trkpt>
      <trkpt lat="42.3599370" lon="-3.6457060">
        <ele>858.6</ele>
        <time>2022-08-29T12:59:29Z</time>
      </trkpt>
      <trkpt lat="42.3599280" lon="-3.6457400">
        <ele>858.8</ele>
        <time>2022-08-29T12:59:30Z</time>
      </trkpt>
      <trkpt lat="42.3599200" lon="-3.6457720">
        <ele>858.8</ele>
        <time>2022-08-29T12:59:31Z</time>
      </trkpt>
      <trkpt lat="42.3599150" lon="-3.6458010">
        <ele>858.6</ele>
        <time>2022-08-29T12:59:32Z</time>
      </trkpt>
      <trkpt lat="42.3599130" lon="-3.6458300">
        <ele>858.8</ele>
        <time>2022-08-29T12:59:33Z</time>
      </trkpt>
      <trkpt lat="42.3599170" lon="-3.6458540">
        <ele>859.0</ele>
        <time>2022-08-29T12:59:34Z</time>
      </trkpt>
      <trkpt lat="42.3599200" lon="-3.6458760">
        <ele>859.0</ele>
        <time>2022-08-29T12:59:35Z</time>
      </trkpt>
      <trkpt lat="42.3599200" lon="-3.6458960">
        <ele>859.0</ele>
        <time>2022-08-29T12:59:36Z</time>
      </trkpt>
      <trkpt lat="42.3599170" lon="-3.6459140">
        <ele>859.0</ele>
        <time>2022-08-29T12:59:37Z</time>
      </trkpt>
      <trkpt lat="42.3599150" lon="-3.6459250">
        <ele>859.0</ele>
        <time>2022-08-29T12:59:38Z</time>
      </trkpt>
      <trkpt lat="42.3599130" lon="-3.6459310">
        <ele>859.2</ele>
        <time>2022-08-29T12:59:39Z</time>
      </trkpt>
      <trkpt lat="42.3599130" lon="-3.6459310">
        <ele>859.4</ele>
        <time>2022-08-29T12:59:40Z</time>
      </trkpt>
      <trkpt lat="42.3599150" lon="-3.6459260">
        <ele>859.4</ele>
        <time>2022-08-29T12:59:41Z</time>
      </trkpt>
      <trkpt lat="42.3599150" lon="-3.6459250">
        <ele>859.4</ele>
        <time>2022-08-29T12:59:42Z</time>
      </trkpt>
      <trkpt lat="42.3599150" lon="-3.6459250">
        <ele>859.4</ele>
        <time>2022-08-29T12:59:43Z</time>
      </trkpt>
      <trkpt lat="42.3599150" lon="-3.6459250">
        <ele>859.6</ele>
        <time>2022-08-29T12:59:44Z</time>
      </trkpt>
      <trkpt lat="42.3599150" lon="-3.6459250">
        <ele>859.6</ele>
        <time>2022-08-29T12:59:45Z</time>
      </trkpt>
      <trkpt lat="42.3599150" lon="-3.6459250">
        <ele>859.8</ele>
        <time>2022-08-29T12:59:46Z</time>
      </trkpt>
      <trkpt lat="42.3599150" lon="-3.6459240">
        <ele>859.6</ele>
        <time>2022-08-29T12:59:47Z</time>
      </trkpt>
      <trkpt lat="42.3599150" lon="-3.6459260">
        <ele>859.8</ele>
        <time>2022-08-29T12:59:48Z</time>
      </trkpt>
      <trkpt lat="42.3599150" lon="-3.6459260">
        <ele>859.8</ele>
        <time>2022-08-29T12:59:49Z</time>
      </trkpt>
      <trkpt lat="42.3599140" lon="-3.6459260">
        <ele>859.8</ele>
        <time>2022-08-29T12:59:50Z</time>
      </trkpt>
      <trkpt lat="42.3599140" lon="-3.6459270">
        <ele>859.8</ele>
        <time>2022-08-29T12:59:51Z</time>
      </trkpt>
      <trkpt lat="42.3599140" lon="-3.6459270">
        <ele>859.6</ele>
        <time>2022-08-29T12:59:52Z</time>
      </trkpt>
      <trkpt lat="42.3599130" lon="-3.6459270">
        <ele>859.8</ele>
        <time>2022-08-29T12:59:53Z</time>
      </trkpt>
      <trkpt lat="42.3599130" lon="-3.6459270">
        <ele>859.8</ele>
        <time>2022-08-29T12:59:54Z</time>
      </trkpt>
      <trkpt lat="42.3599130" lon="-3.6459270">
        <ele>859.8</ele>
        <time>2022-08-29T12:59:55Z</time>
      </trkpt>
      <trkpt lat="42.3599130" lon="-3.6459270">
        <ele>859.8</ele>
        <time>2022-08-29T12:59:56Z</time>
      </trkpt>
      <trkpt lat="42.3599130" lon="-3.6459280">
        <ele>859.8</ele>
        <time>2022-08-29T12:59:57Z</time>
      </trkpt>
      <trkpt lat="42.3599120" lon="-3.6459280">
        <ele>859.8</ele>
        <time>2022-08-29T12:59:58Z</time>
      </trkpt>
      <trkpt lat="42.3599110" lon="-3.6459280">
        <ele>859.8</ele>
        <time>2022-08-29T12:59:59Z</time>
      </trkpt>
      <trkpt lat="42.3599090" lon="-3.6459290">
        <ele>860.0</ele>
        <time>2022-08-29T13:00:00Z</time>
      </trkpt>
      <trkpt lat="42.3599050" lon="-3.6459390">
        <ele>859.8</ele>
        <time>2022-08-29T13:00:01Z</time>
      </trkpt>
      <trkpt lat="42.3599000" lon="-3.6459460">
        <ele>859.8</ele>
        <time>2022-08-29T13:00:02Z</time>
      </trkpt>
      <trkpt lat="42.3598930" lon="-3.6459580">
        <ele>859.8</ele>
        <time>2022-08-29T13:00:03Z</time>
      </trkpt>
      <trkpt lat="42.3598790" lon="-3.6459760">
        <ele>859.8</ele>
        <time>2022-08-29T13:00:04Z</time>
      </trkpt>
      <trkpt lat="42.3598680" lon="-3.6459940">
        <ele>859.8</ele>
        <time>2022-08-29T13:00:05Z</time>
      </trkpt>
      <trkpt lat="42.3598610" lon="-3.6460160">
        <ele>859.8</ele>
        <time>2022-08-29T13:00:06Z</time>
      </trkpt>
      <trkpt lat="42.3598570" lon="-3.6460460">
        <ele>859.8</ele>
        <time>2022-08-29T13:00:07Z</time>
      </trkpt>
      <trkpt lat="42.3598570" lon="-3.6460770">
        <ele>859.8</ele>
        <time>2022-08-29T13:00:08Z</time>
      </trkpt>
      <trkpt lat="42.3598550" lon="-3.6461150">
        <ele>859.8</ele>
        <time>2022-08-29T13:00:09Z</time>
      </trkpt>
      <trkpt lat="42.3598510" lon="-3.6461610">
        <ele>859.8</ele>
        <time>2022-08-29T13:00:10Z</time>
      </trkpt>
      <trkpt lat="42.3598450" lon="-3.6462080">
        <ele>859.6</ele>
        <time>2022-08-29T13:00:11Z</time>
      </trkpt>
      <trkpt lat="42.3598320" lon="-3.6462660">
        <ele>859.4</ele>
        <time>2022-08-29T13:00:12Z</time>
      </trkpt>
      <trkpt lat="42.3598190" lon="-3.6463200">
        <ele>859.4</ele>
        <time>2022-08-29T13:00:13Z</time>
      </trkpt>
      <trkpt lat="42.3598060" lon="-3.6463710">
        <ele>859.4</ele>
        <time>2022-08-29T13:00:14Z</time>
      </trkpt>
      <trkpt lat="42.3597940" lon="-3.6464200">
        <ele>859.2</ele>
        <time>2022-08-29T13:00:15Z</time>
      </trkpt>
      <trkpt lat="42.3597810" lon="-3.6464700">
        <ele>859.2</ele>
        <time>2022-08-29T13:00:16Z</time>
      </trkpt>
      <trkpt lat="42.3597690" lon="-3.6465200">
        <ele>859.0</ele>
        <time>2022-08-29T13:00:17Z</time>
      </trkpt>
      <trkpt lat="42.3597560" lon="-3.6465710">
        <ele>859.0</ele>
        <time>2022-08-29T13:00:18Z</time>
      </trkpt>
      <trkpt lat="42.3597430" lon="-3.6466240">
        <ele>859.0</ele>
        <time>2022-08-29T13:00:19Z</time>
      </trkpt>
      <trkpt lat="42.3597300" lon="-3.6466760">
        <ele>858.8</ele>
        <time>2022-08-29T13:00:20Z</time>
      </trkpt>
      <trkpt lat="42.3597200" lon="-3.6467250">
        <ele>859.0</ele>
        <time>2022-08-29T13:00:21Z</time>
      </trkpt>
      <trkpt lat="42.3597090" lon="-3.6467720">
        <ele>859.0</ele>
        <time>2022-08-29T13:00:22Z</time>
      </trkpt>
      <trkpt lat="42.3597000" lon="-3.6468150">
        <ele>858.8</ele>
        <time>2022-08-29T13:00:23Z</time>
      </trkpt>
      <trkpt lat="42.3596910" lon="-3.6468570">
        <ele>858.8</ele>
        <time>2022-08-29T13:00:24Z</time>
      </trkpt>
      <trkpt lat="42.3596810" lon="-3.6468970">
        <ele>858.8</ele>
        <time>2022-08-29T13:00:25Z</time>
      </trkpt>
      <trkpt lat="42.3596700" lon="-3.6469400">
        <ele>858.8</ele>
        <time>2022-08-29T13:00:26Z</time>
      </trkpt>
      <trkpt lat="42.3596610" lon="-3.6469850">
        <ele>858.8</ele>
        <time>2022-08-29T13:00:27Z</time>
      </trkpt>
      <trkpt lat="42.3596550" lon="-3.6470320">
        <ele>859.0</ele>
        <time>2022-08-29T13:00:28Z</time>
      </trkpt>
      <trkpt lat="42.3596490" lon="-3.6470790">
        <ele>858.8</ele>
        <time>2022-08-29T13:00:29Z</time>
      </trkpt>
      <trkpt lat="42.3596410" lon="-3.6471230">
        <ele>858.8</ele>
        <time>2022-08-29T13:00:30Z</time>
      </trkpt>
      <trkpt lat="42.3596330" lon="-3.6471670">
        <ele>858.8</ele>
        <time>2022-08-29T13:00:31Z</time>
      </trkpt>
      <trkpt lat="42.3596240" lon="-3.6472100">
        <ele>858.8</ele>
        <time>2022-08-29T13:00:32Z</time>
      </trkpt>
      <trkpt lat="42.3596160" lon="-3.6472530">
        <ele>858.8</ele>
        <time>2022-08-29T13:00:33Z</time>
      </trkpt>
      <trkpt lat="42.3596070" lon="-3.6472960">
        <ele>858.8</ele>
        <time>2022-08-29T13:00:34Z</time>
      </trkpt>
      <trkpt lat="42.3595970" lon="-3.6473360">
        <ele>859.0</ele>
        <time>2022-08-29T13:00:35Z</time>
      </trkpt>
      <trkpt lat="42.3595870" lon="-3.6473750">
        <ele>859.0</ele>
        <time>2022-08-29T13:00:36Z</time>
      </trkpt>
      <trkpt lat="42.3595790" lon="-3.6474140">
        <ele>858.8</ele>
        <time>2022-08-29T13:00:37Z</time>
      </trkpt>
      <trkpt lat="42.3595680" lon="-3.6474540">
        <ele>859.0</ele>
        <time>2022-08-29T13:00:38Z</time>
      </trkpt>
      <trkpt lat="42.3595560" lon="-3.6474950">
        <ele>859.0</ele>
        <time>2022-08-29T13:00:39Z</time>
      </trkpt>
      <trkpt lat="42.3595440" lon="-3.6475390">
        <ele>859.0</ele>
        <time>2022-08-29T13:00:40Z</time>
      </trkpt>
      <trkpt lat="42.3595310" lon="-3.6475860">
        <ele>858.8</ele>
        <time>2022-08-29T13:00:41Z</time>
      </trkpt>
      <trkpt lat="42.3595170" lon="-3.6476350">
        <ele>858.8</ele>
        <time>2022-08-29T13:00:42Z</time>
      </trkpt>
      <trkpt lat="42.3595020" lon="-3.6476850">
        <ele>859.0</ele>
        <time>2022-08-29T13:00:43Z</time>
      </trkpt>
      <trkpt lat="42.3594870" lon="-3.6477370">
        <ele>859.0</ele>
        <time>2022-08-29T13:00:44Z</time>
      </trkpt>
      <trkpt lat="42.3594710" lon="-3.6477930">
        <ele>859.0</ele>
        <time>2022-08-29T13:00:45Z</time>
      </trkpt>
      <trkpt lat="42.3594550" lon="-3.6478480">
        <ele>859.0</ele>
        <time>2022-08-29T13:00:46Z</time>
      </trkpt>
      <trkpt lat="42.3594350" lon="-3.6479030">
        <ele>859.0</ele>
        <time>2022-08-29T13:00:47Z</time>
      </trkpt>
      <trkpt lat="42.3594160" lon="-3.6479580">
        <ele>859.0</ele>
        <time>2022-08-29T13:00:48Z</time>
      </trkpt>
      <trkpt lat="42.3593960" lon="-3.6480150">
        <ele>859.0</ele>
        <time>2022-08-29T13:00:49Z</time>
      </trkpt>
      <trkpt lat="42.3593770" lon="-3.6480740">
        <ele>859.0</ele>
        <time>2022-08-29T13:00:50Z</time>
      </trkpt>
      <trkpt lat="42.3593590" lon="-3.6481330">
        <ele>859.0</ele>
        <time>2022-08-29T13:00:51Z</time>
      </trkpt>
      <trkpt lat="42.3593400" lon="-3.6481930">
        <ele>859.0</ele>
        <time>2022-08-29T13:00:52Z</time>
      </trkpt>
      <trkpt lat="42.3593230" lon="-3.6482530">
        <ele>859.2</ele>
        <time>2022-08-29T13:00:53Z</time>
      </trkpt>
      <trkpt lat="42.3593070" lon="-3.6483160">
        <ele>859.2</ele>
        <time>2022-08-29T13:00:54Z</time>
      </trkpt>
      <trkpt lat="42.3592900" lon="-3.6483760">
        <ele>859.0</ele>
        <time>2022-08-29T13:00:55Z</time>
      </trkpt>
      <trkpt lat="42.3592740" lon="-3.6484380">
        <ele>859.0</ele>
        <time>2022-08-29T13:00:56Z</time>
      </trkpt>
      <trkpt lat="42.3592570" lon="-3.6485010">
        <ele>859.0</ele>
        <time>2022-08-29T13:00:57Z</time>
      </trkpt>
      <trkpt lat="42.3592410" lon="-3.6485650">
        <ele>859.0</ele>
        <time>2022-08-29T13:00:58Z</time>
      </trkpt>
      <trkpt lat="42.3592230" lon="-3.6486290">
        <ele>859.0</ele>
        <time>2022-08-29T13:00:59Z</time>
      </trkpt>
      <trkpt lat="42.3592040" lon="-3.6486910">
        <ele>859.0</ele>
        <time>2022-08-29T13:01:00Z</time>
      </trkpt>
      <trkpt lat="42.3591860" lon="-3.6487540">
        <ele>859.0</ele>
        <time>2022-08-29T13:01:01Z</time>
      </trkpt>
      <trkpt lat="42.3591670" lon="-3.6488200">
        <ele>859.0</ele>
        <time>2022-08-29T13:01:02Z</time>
      </trkpt>
      <trkpt lat="42.3591480" lon="-3.6488860">
        <ele>858.8</ele>
        <time>2022-08-29T13:01:03Z</time>
      </trkpt>
      <trkpt lat="42.3591290" lon="-3.6489520">
        <ele>858.8</ele>
        <time>2022-08-29T13:01:04Z</time>
      </trkpt>
      <trkpt lat="42.3591090" lon="-3.6490190">
        <ele>858.8</ele>
        <time>2022-08-29T13:01:05Z</time>
      </trkpt>
      <trkpt lat="42.3590900" lon="-3.6490860">
        <ele>858.8</ele>
        <time>2022-08-29T13:01:06Z</time>
      </trkpt>
      <trkpt lat="42.3590720" lon="-3.6491520">
        <ele>858.6</ele>
        <time>2022-08-29T13:01:07Z</time>
      </trkpt>
      <trkpt lat="42.3590540" lon="-3.6492180">
        <ele>858.6</ele>
        <time>2022-08-29T13:01:08Z</time>
      </trkpt>
      <trkpt lat="42.3590360" lon="-3.6492820">
        <ele>858.4</ele>
        <time>2022-08-29T13:01:09Z</time>
      </trkpt>
      <trkpt lat="42.3590180" lon="-3.6493460">
        <ele>858.4</ele>
        <time>2022-08-29T13:01:10Z</time>
      </trkpt>
      <trkpt lat="42.3590010" lon="-3.6494100">
        <ele>858.4</ele>
        <time>2022-08-29T13:01:11Z</time>
      </trkpt>
      <trkpt lat="42.3589850" lon="-3.6494740">
        <ele>858.4</ele>
        <time>2022-08-29T13:01:12Z</time>
      </trkpt>
      <trkpt lat="42.3589670" lon="-3.6495380">
        <ele>858.2</ele>
        <time>2022-08-29T13:01:13Z</time>
      </trkpt>
      <trkpt lat="42.3589500" lon="-3.6496050">
        <ele>858.4</ele>
        <time>2022-08-29T13:01:14Z</time>
      </trkpt>
      <trkpt lat="42.3589310" lon="-3.6496720">
        <ele>858.4</ele>
        <time>2022-08-29T13:01:15Z</time>
      </trkpt>
      <trkpt lat="42.3589120" lon="-3.6497360">
        <ele>858.4</ele>
        <time>2022-08-29T13:01:16Z</time>
      </trkpt>
      <trkpt lat="42.3588930" lon="-3.6498010">
        <ele>858.4</ele>
        <time>2022-08-29T13:01:17Z</time>
      </trkpt>
      <trkpt lat="42.3588720" lon="-3.6498660">
        <ele>858.4</ele>
        <time>2022-08-29T13:01:18Z</time>
      </trkpt>
      <trkpt lat="42.3588540" lon="-3.6499300">
        <ele>858.2</ele>
        <time>2022-08-29T13:01:19Z</time>
      </trkpt>
      <trkpt lat="42.3588370" lon="-3.6499960">
        <ele>858.4</ele>
        <time>2022-08-29T13:01:20Z</time>
      </trkpt>
      <trkpt lat="42.3588210" lon="-3.6500630">
        <ele>858.4</ele>
        <time>2022-08-29T13:01:21Z</time>
      </trkpt>
      <trkpt lat="42.3588060" lon="-3.6501290">
        <ele>858.2</ele>
        <time>2022-08-29T13:01:22Z</time>
      </trkpt>
      <trkpt lat="42.3587890" lon="-3.6501940">
        <ele>858.4</ele>
        <time>2022-08-29T13:01:23Z</time>
      </trkpt>
      <trkpt lat="42.3587720" lon="-3.6502590">
        <ele>858.4</ele>
        <time>2022-08-29T13:01:24Z</time>
      </trkpt>
      <trkpt lat="42.3587540" lon="-3.6503230">
        <ele>858.2</ele>
        <time>2022-08-29T13:01:25Z</time>
      </trkpt>
      <trkpt lat="42.3587370" lon="-3.6503830">
        <ele>858.2</ele>
        <time>2022-08-29T13:01:26Z</time>
      </trkpt>
      <trkpt lat="42.3587220" lon="-3.6504390">
        <ele>858.4</ele>
        <time>2022-08-29T13:01:27Z</time>
      </trkpt>
      <trkpt lat="42.3587070" lon="-3.6504910">
        <ele>858.4</ele>
        <time>2022-08-29T13:01:28Z</time>
      </trkpt>
      <trkpt lat="42.3586930" lon="-3.6505400">
        <ele>858.2</ele>
        <time>2022-08-29T13:01:29Z</time>
      </trkpt>
      <trkpt lat="42.3586810" lon="-3.6505870">
        <ele>858.2</ele>
        <time>2022-08-29T13:01:30Z</time>
      </trkpt>
      <trkpt lat="42.3586700" lon="-3.6506280">
        <ele>858.4</ele>
        <time>2022-08-29T13:01:31Z</time>
      </trkpt>
      <trkpt lat="42.3586610" lon="-3.6506620">
        <ele>858.4</ele>
        <time>2022-08-29T13:01:32Z</time>
      </trkpt>
      <trkpt lat="42.3586530" lon="-3.6506920">
        <ele>858.4</ele>
        <time>2022-08-29T13:01:33Z</time>
      </trkpt>
      <trkpt lat="42.3586460" lon="-3.6507170">
        <ele>858.4</ele>
        <time>2022-08-29T13:01:34Z</time>
      </trkpt>
      <trkpt lat="42.3586410" lon="-3.6507420">
        <ele>858.6</ele>
        <time>2022-08-29T13:01:35Z</time>
      </trkpt>
      <trkpt lat="42.3586390" lon="-3.6507660">
        <ele>858.6</ele>
        <time>2022-08-29T13:01:36Z</time>
      </trkpt>
      <trkpt lat="42.3586340" lon="-3.6507880">
        <ele>858.8</ele>
        <time>2022-08-29T13:01:37Z</time>
      </trkpt>
      <trkpt lat="42.3586280" lon="-3.6508070">
        <ele>858.8</ele>
        <time>2022-08-29T13:01:38Z</time>
      </trkpt>
      <trkpt lat="42.3586200" lon="-3.6508240">
        <ele>858.8</ele>
        <time>2022-08-29T13:01:39Z</time>
      </trkpt>
      <trkpt lat="42.3586140" lon="-3.6508390">
        <ele>858.8</ele>
        <time>2022-08-29T13:01:40Z</time>
      </trkpt>
      <trkpt lat="42.3586060" lon="-3.6508510">
        <ele>858.8</ele>
        <time>2022-08-29T13:01:41Z</time>
      </trkpt>
      <trkpt lat="42.3586010" lon="-3.6508700">
        <ele>858.8</ele>
        <time>2022-08-29T13:01:42Z</time>
      </trkpt>
      <trkpt lat="42.3585990" lon="-3.6508960">
        <ele>858.8</ele>
        <time>2022-08-29T13:01:43Z</time>
      </trkpt>
      <trkpt lat="42.3585980" lon="-3.6509240">
        <ele>859.0</ele>
        <time>2022-08-29T13:01:44Z</time>
      </trkpt>
      <trkpt lat="42.3585970" lon="-3.6509510">
        <ele>859.0</ele>
        <time>2022-08-29T13:01:45Z</time>
      </trkpt>
      <trkpt lat="42.3585930" lon="-3.6509760">
        <ele>859.0</ele>
        <time>2022-08-29T13:01:46Z</time>
      </trkpt>
      <trkpt lat="42.3585890" lon="-3.6510040">
        <ele>859.0</ele>
        <time>2022-08-29T13:01:47Z</time>
      </trkpt>
      <trkpt lat="42.3585860" lon="-3.6510380">
        <ele>859.0</ele>
        <time>2022-08-29T13:01:48Z</time>
      </trkpt>
      <trkpt lat="42.3585880" lon="-3.6510740">
        <ele>859.0</ele>
        <time>2022-08-29T13:01:49Z</time>
      </trkpt>
      <trkpt lat="42.3585970" lon="-3.6511110">
        <ele>859.0</ele>
        <time>2022-08-29T13:01:50Z</time>
      </trkpt>
      <trkpt lat="42.3586110" lon="-3.6511450">
        <ele>859.0</ele>
        <time>2022-08-29T13:01:51Z</time>
      </trkpt>
      <trkpt lat="42.3586280" lon="-3.6511770">
        <ele>859.0</ele>
        <time>2022-08-29T13:01:52Z</time>
      </trkpt>
      <trkpt lat="42.3586480" lon="-3.6512080">
        <ele>859.0</ele>
        <time>2022-08-29T13:01:53Z</time>
      </trkpt>
      <trkpt lat="42.3586680" lon="-3.6512370">
        <ele>859.0</ele>
        <time>2022-08-29T13:01:54Z</time>
      </trkpt>
      <trkpt lat="42.3586890" lon="-3.6512650">
        <ele>859.0</ele>
        <time>2022-08-29T13:01:55Z</time>
      </trkpt>
      <trkpt lat="42.3587070" lon="-3.6512910">
        <ele>859.0</ele>
        <time>2022-08-29T13:01:56Z</time>
      </trkpt>
      <trkpt lat="42.3587180" lon="-3.6513200">
        <ele>859.0</ele>
        <time>2022-08-29T13:01:57Z</time>
      </trkpt>
      <trkpt lat="42.3587230" lon="-3.6513610">
        <ele>859.0</ele>
        <time>2022-08-29T13:01:58Z</time>
      </trkpt>
      <trkpt lat="42.3587240" lon="-3.6514080">
        <ele>858.8</ele>
        <time>2022-08-29T13:01:59Z</time>
      </trkpt>
      <trkpt lat="42.3587180" lon="-3.6514560">
        <ele>858.8</ele>
        <time>2022-08-29T13:02:00Z</time>
      </trkpt>
      <trkpt lat="42.3587070" lon="-3.6515040">
        <ele>858.6</ele>
        <time>2022-08-29T13:02:01Z</time>
      </trkpt>
      <trkpt lat="42.3586910" lon="-3.6515510">
        <ele>858.8</ele>
        <time>2022-08-29T13:02:02Z</time>
      </trkpt>
      <trkpt lat="42.3586710" lon="-3.6515950">
        <ele>858.8</ele>
        <time>2022-08-29T13:02:03Z</time>
      </trkpt>
      <trkpt lat="42.3586440" lon="-3.6516310">
        <ele>858.8</ele>
        <time>2022-08-29T13:02:04Z</time>
      </trkpt>
      <trkpt lat="42.3586140" lon="-3.6516470">
        <ele>858.6</ele>
        <time>2022-08-29T13:02:05Z</time>
      </trkpt>
      <trkpt lat="42.3585940" lon="-3.6516430">
        <ele>858.8</ele>
        <time>2022-08-29T13:02:06Z</time>
      </trkpt>
      <trkpt lat="42.3585890" lon="-3.6516350">
        <ele>858.6</ele>
        <time>2022-08-29T13:02:07Z</time>
      </trkpt>
      <trkpt lat="42.3585960" lon="-3.6516320">
        <ele>858.8</ele>
        <time>2022-08-29T13:02:08Z</time>
      </trkpt>
      <trkpt lat="42.3585970" lon="-3.6516330">
        <ele>858.6</ele>
        <time>2022-08-29T13:02:09Z</time>
      </trkpt>
      <trkpt lat="42.3585960" lon="-3.6516320">
        <ele>858.8</ele>
        <time>2022-08-29T13:02:10Z</time>
      </trkpt>
      <trkpt lat="42.3585970" lon="-3.6516320">
        <ele>858.6</ele>
        <time>2022-08-29T13:02:11Z</time>
      </trkpt>
      <trkpt lat="42.3585970" lon="-3.6516320">
        <ele>858.8</ele>
        <time>2022-08-29T13:02:12Z</time>
      </trkpt>
      <trkpt lat="42.3585970" lon="-3.6516310">
        <ele>858.8</ele>
        <time>2022-08-29T13:02:13Z</time>
      </trkpt>
      <trkpt lat="42.3585960" lon="-3.6516310">
        <ele>858.8</ele>
        <time>2022-08-29T13:02:14Z</time>
      </trkpt>
      <trkpt lat="42.3585960" lon="-3.6516320">
        <ele>858.8</ele>
        <time>2022-08-29T13:02:15Z</time>
      </trkpt>
      <trkpt lat="42.3585960" lon="-3.6516310">
        <ele>858.8</ele>
        <time>2022-08-29T13:02:16Z</time>
      </trkpt>
      <trkpt lat="42.3585950" lon="-3.6516300">
        <ele>859.0</ele>
        <time>2022-08-29T13:02:17Z</time>
      </trkpt>
      <trkpt lat="42.3585950" lon="-3.6516300">
        <ele>858.8</ele>
        <time>2022-08-29T13:02:18Z</time>
      </trkpt>
      <trkpt lat="42.3585940" lon="-3.6516300">
        <ele>858.8</ele>
        <time>2022-08-29T13:02:19Z</time>
      </trkpt>
      <trkpt lat="42.3585940" lon="-3.6516300">
        <ele>859.0</ele>
        <time>2022-08-29T13:02:20Z</time>
      </trkpt>
      <trkpt lat="42.3585930" lon="-3.6516290">
        <ele>859.0</ele>
        <time>2022-08-29T13:02:21Z</time>
      </trkpt>
      <trkpt lat="42.3585930" lon="-3.6516270">
        <ele>859.2</ele>
        <time>2022-08-29T13:02:22Z</time>
      </trkpt>
      <trkpt lat="42.3585930" lon="-3.6516270">
        <ele>859.2</ele>
        <time>2022-08-29T13:02:23Z</time>
      </trkpt>
      <trkpt lat="42.3585940" lon="-3.6516230">
        <ele>859.2</ele>
        <time>2022-08-29T13:02:24Z</time>
      </trkpt>
      <trkpt lat="42.3585940" lon="-3.6516220">
        <ele>859.2</ele>
        <time>2022-08-29T13:02:25Z</time>
      </trkpt>
      <trkpt lat="42.3585950" lon="-3.6516210">
        <ele>859.0</ele>
        <time>2022-08-29T13:02:26Z</time>
      </trkpt>
      <trkpt lat="42.3585950" lon="-3.6516210">
        <ele>859.2</ele>
        <time>2022-08-29T13:02:27Z</time>
      </trkpt>
      <trkpt lat="42.3585950" lon="-3.6516210">
        <ele>859.0</ele>
        <time>2022-08-29T13:02:28Z</time>
      </trkpt>
      <trkpt lat="42.3585950" lon="-3.6516210">
        <ele>859.2</ele>
        <time>2022-08-29T13:02:29Z</time>
      </trkpt>
      <trkpt lat="42.3585950" lon="-3.6516210">
        <ele>859.0</ele>
        <time>2022-08-29T13:02:30Z</time>
      </trkpt>
      <trkpt lat="42.3585960" lon="-3.6516210">
        <ele>859.2</ele>
        <time>2022-08-29T13:02:31Z</time>
      </trkpt>
      <trkpt lat="42.3585970" lon="-3.6516220">
        <ele>859.2</ele>
        <time>2022-08-29T13:02:32Z</time>
      </trkpt>
      <trkpt lat="42.3585970" lon="-3.6516220">
        <ele>859.2</ele>
        <time>2022-08-29T13:02:33Z</time>
      </trkpt>
      <trkpt lat="42.3585980" lon="-3.6516220">
        <ele>859.2</ele>
        <time>2022-08-29T13:02:34Z</time>
      </trkpt>
      <trkpt lat="42.3585970" lon="-3.6516230">
        <ele>859.0</ele>
        <time>2022-08-29T13:02:35Z</time>
      </trkpt>
      <trkpt lat="42.3585990" lon="-3.6516230">
        <ele>859.2</ele>
        <time>2022-08-29T13:02:36Z</time>
      </trkpt>
      <trkpt lat="42.3586000" lon="-3.6516230">
        <ele>859.2</ele>
        <time>2022-08-29T13:02:37Z</time>
      </trkpt>
      <trkpt lat="42.3586000" lon="-3.6516210">
        <ele>859.0</ele>
        <time>2022-08-29T13:02:38Z</time>
      </trkpt>
      <trkpt lat="42.3585970" lon="-3.6516200">
        <ele>859.2</ele>
        <time>2022-08-29T13:02:39Z</time>
      </trkpt>
      <trkpt lat="42.3585890" lon="-3.6516140">
        <ele>859.2</ele>
        <time>2022-08-29T13:02:40Z</time>
      </trkpt>
      <trkpt lat="42.3585750" lon="-3.6516080">
        <ele>859.2</ele>
        <time>2022-08-29T13:02:41Z</time>
      </trkpt>
      <trkpt lat="42.3585550" lon="-3.6516020">
        <ele>859.2</ele>
        <time>2022-08-29T13:02:42Z</time>
      </trkpt>
      <trkpt lat="42.3585370" lon="-3.6515980">
        <ele>859.2</ele>
        <time>2022-08-29T13:02:43Z</time>
      </trkpt>
      <trkpt lat="42.3585110" lon="-3.6516000">
        <ele>859.0</ele>
        <time>2022-08-29T13:02:44Z</time>
      </trkpt>
      <trkpt lat="42.3584850" lon="-3.6516110">
        <ele>859.2</ele>
        <time>2022-08-29T13:02:45Z</time>
      </trkpt>
      <trkpt lat="42.3584580" lon="-3.6516320">
        <ele>859.2</ele>
        <time>2022-08-29T13:02:46Z</time>
      </trkpt>
      <trkpt lat="42.3584330" lon="-3.6516620">
        <ele>859.0</ele>
        <time>2022-08-29T13:02:47Z</time>
      </trkpt>
      <trkpt lat="42.3584110" lon="-3.6517000">
        <ele>859.2</ele>
        <time>2022-08-29T13:02:48Z</time>
      </trkpt>
      <trkpt lat="42.3583930" lon="-3.6517440">
        <ele>859.2</ele>
        <time>2022-08-29T13:02:49Z</time>
      </trkpt>
      <trkpt lat="42.3583780" lon="-3.6517920">
        <ele>859.0</ele>
        <time>2022-08-29T13:02:50Z</time>
      </trkpt>
      <trkpt lat="42.3583650" lon="-3.6518420">
        <ele>859.2</ele>
        <time>2022-08-29T13:02:51Z</time>
      </trkpt>
      <trkpt lat="42.3583540" lon="-3.6518910">
        <ele>859.0</ele>
        <time>2022-08-29T13:02:52Z</time>
      </trkpt>
      <trkpt lat="42.3583430" lon="-3.6519410">
        <ele>859.0</ele>
        <time>2022-08-29T13:02:53Z</time>
      </trkpt>
      <trkpt lat="42.3583330" lon="-3.6519960">
        <ele>858.8</ele>
        <time>2022-08-29T13:02:54Z</time>
      </trkpt>
      <trkpt lat="42.3583230" lon="-3.6520500">
        <ele>858.6</ele>
        <time>2022-08-29T13:02:55Z</time>
      </trkpt>
      <trkpt lat="42.3583070" lon="-3.6521070">
        <ele>858.4</ele>
        <time>2022-08-29T13:02:56Z</time>
      </trkpt>
      <trkpt lat="42.3582920" lon="-3.6521650">
        <ele>858.2</ele>
        <time>2022-08-29T13:02:57Z</time>
      </trkpt>
      <trkpt lat="42.3582770" lon="-3.6522250">
        <ele>858.2</ele>
        <time>2022-08-29T13:02:58Z</time>
      </trkpt>
      <trkpt lat="42.3582610" lon="-3.6522890">
        <ele>857.8</ele>
        <time>2022-08-29T13:02:59Z</time>
      </trkpt>
      <trkpt lat="42.3582390" lon="-3.6523480">
        <ele>857.8</ele>
        <time>2022-08-29T13:03:00Z</time>
      </trkpt>
      <trkpt lat="42.3582160" lon="-3.6524030">
        <ele>857.8</ele>
        <time>2022-08-29T13:03:01Z</time>
      </trkpt>
      <trkpt lat="42.3581970" lon="-3.6524640">
        <ele>857.8</ele>
        <time>2022-08-29T13:03:02Z</time>
      </trkpt>
      <trkpt lat="42.3581820" lon="-3.6525250">
        <ele>857.8</ele>
        <time>2022-08-29T13:03:03Z</time>
      </trkpt>
      <trkpt lat="42.3581650" lon="-3.6525860">
        <ele>857.6</ele>
        <time>2022-08-29T13:03:04Z</time>
      </trkpt>
      <trkpt lat="42.3581470" lon="-3.6526480">
        <ele>857.8</ele>
        <time>2022-08-29T13:03:05Z</time>
      </trkpt>
      <trkpt lat="42.3581280" lon="-3.6527120">
        <ele>857.6</ele>
        <time>2022-08-29T13:03:06Z</time>
      </trkpt>
      <trkpt lat="42.3581110" lon="-3.6527760">
        <ele>857.6</ele>
        <time>2022-08-29T13:03:07Z</time>
      </trkpt>
      <trkpt lat="42.3580950" lon="-3.6528420">
        <ele>857.6</ele>
        <time>2022-08-29T13:03:08Z</time>
      </trkpt>
      <trkpt lat="42.3580800" lon="-3.6529080">
        <ele>857.4</ele>
        <time>2022-08-29T13:03:09Z</time>
      </trkpt>
      <trkpt lat="42.3580650" lon="-3.6529740">
        <ele>857.6</ele>
        <time>2022-08-29T13:03:10Z</time>
      </trkpt>
      <trkpt lat="42.3580480" lon="-3.6530410">
        <ele>857.4</ele>
        <time>2022-08-29T13:03:11Z</time>
      </trkpt>
      <trkpt lat="42.3580320" lon="-3.6531050">
        <ele>857.2</ele>
        <time>2022-08-29T13:03:12Z</time>
      </trkpt>
      <trkpt lat="42.3580160" lon="-3.6531700">
        <ele>857.0</ele>
        <time>2022-08-29T13:03:13Z</time>
      </trkpt>
      <trkpt lat="42.3579980" lon="-3.6532370">
        <ele>857.0</ele>
        <time>2022-08-29T13:03:14Z</time>
      </trkpt>
      <trkpt lat="42.3579780" lon="-3.6533020">
        <ele>856.8</ele>
        <time>2022-08-29T13:03:15Z</time>
      </trkpt>
      <trkpt lat="42.3579580" lon="-3.6533670">
        <ele>857.0</ele>
        <time>2022-08-29T13:03:16Z</time>
      </trkpt>
      <trkpt lat="42.3579330" lon="-3.6534310">
        <ele>857.0</ele>
        <time>2022-08-29T13:03:17Z</time>
      </trkpt>
      <trkpt lat="42.3579090" lon="-3.6534970">
        <ele>856.8</ele>
        <time>2022-08-29T13:03:18Z</time>
      </trkpt>
      <trkpt lat="42.3578820" lon="-3.6535600">
        <ele>856.8</ele>
        <time>2022-08-29T13:03:19Z</time>
      </trkpt>
      <trkpt lat="42.3578530" lon="-3.6536210">
        <ele>856.8</ele>
        <time>2022-08-29T13:03:20Z</time>
      </trkpt>
      <trkpt lat="42.3578220" lon="-3.6536830">
        <ele>857.0</ele>
        <time>2022-08-29T13:03:21Z</time>
      </trkpt>
      <trkpt lat="42.3577960" lon="-3.6537480">
        <ele>856.8</ele>
        <time>2022-08-29T13:03:22Z</time>
      </trkpt>
      <trkpt lat="42.3577760" lon="-3.6538130">
        <ele>856.6</ele>
        <time>2022-08-29T13:03:23Z</time>
      </trkpt>
      <trkpt lat="42.3577580" lon="-3.6538790">
        <ele>856.4</ele>
        <time>2022-08-29T13:03:24Z</time>
      </trkpt>
      <trkpt lat="42.3577400" lon="-3.6539450">
        <ele>856.4</ele>
        <time>2022-08-29T13:03:25Z</time>
      </trkpt>
      <trkpt lat="42.3577210" lon="-3.6540090">
        <ele>856.4</ele>
        <time>2022-08-29T13:03:26Z</time>
      </trkpt>
      <trkpt lat="42.3577050" lon="-3.6540700">
        <ele>856.4</ele>
        <time>2022-08-29T13:03:27Z</time>
      </trkpt>
      <trkpt lat="42.3576900" lon="-3.6541280">
        <ele>856.4</ele>
        <time>2022-08-29T13:03:28Z</time>
      </trkpt>
      <trkpt lat="42.3576780" lon="-3.6541840">
        <ele>856.4</ele>
        <time>2022-08-29T13:03:29Z</time>
      </trkpt>
      <trkpt lat="42.3576640" lon="-3.6542380">
        <ele>856.4</ele>
        <time>2022-08-29T13:03:30Z</time>
      </trkpt>
      <trkpt lat="42.3576480" lon="-3.6542900">
        <ele>856.4</ele>
        <time>2022-08-29T13:03:31Z</time>
      </trkpt>
      <trkpt lat="42.3576350" lon="-3.6543420">
        <ele>856.4</ele>
        <time>2022-08-29T13:03:32Z</time>
      </trkpt>
      <trkpt lat="42.3576200" lon="-3.6543910">
        <ele>856.4</ele>
        <time>2022-08-29T13:03:33Z</time>
      </trkpt>
      <trkpt lat="42.3576040" lon="-3.6544390">
        <ele>856.6</ele>
        <time>2022-08-29T13:03:34Z</time>
      </trkpt>
      <trkpt lat="42.3575910" lon="-3.6544860">
        <ele>856.6</ele>
        <time>2022-08-29T13:03:35Z</time>
      </trkpt>
      <trkpt lat="42.3575800" lon="-3.6545320">
        <ele>856.6</ele>
        <time>2022-08-29T13:03:36Z</time>
      </trkpt>
      <trkpt lat="42.3575690" lon="-3.6545760">
        <ele>856.6</ele>
        <time>2022-08-29T13:03:37Z</time>
      </trkpt>
      <trkpt lat="42.3575570" lon="-3.6546180">
        <ele>856.8</ele>
        <time>2022-08-29T13:03:38Z</time>
      </trkpt>
      <trkpt lat="42.3575450" lon="-3.6546600">
        <ele>856.8</ele>
        <time>2022-08-29T13:03:39Z</time>
      </trkpt>
      <trkpt lat="42.3575330" lon="-3.6547050">
        <ele>856.6</ele>
        <time>2022-08-29T13:03:40Z</time>
      </trkpt>
      <trkpt lat="42.3575220" lon="-3.6547470">
        <ele>856.8</ele>
        <time>2022-08-29T13:03:41Z</time>
      </trkpt>
      <trkpt lat="42.3575130" lon="-3.6547880">
        <ele>856.6</ele>
        <time>2022-08-29T13:03:42Z</time>
      </trkpt>
      <trkpt lat="42.3575040" lon="-3.6548280">
        <ele>856.8</ele>
        <time>2022-08-29T13:03:43Z</time>
      </trkpt>
      <trkpt lat="42.3574920" lon="-3.6548690">
        <ele>856.8</ele>
        <time>2022-08-29T13:03:44Z</time>
      </trkpt>
      <trkpt lat="42.3574800" lon="-3.6549110">
        <ele>856.8</ele>
        <time>2022-08-29T13:03:45Z</time>
      </trkpt>
      <trkpt lat="42.3574680" lon="-3.6549550">
        <ele>856.8</ele>
        <time>2022-08-29T13:03:46Z</time>
      </trkpt>
      <trkpt lat="42.3574550" lon="-3.6549990">
        <ele>856.8</ele>
        <time>2022-08-29T13:03:47Z</time>
      </trkpt>
      <trkpt lat="42.3574440" lon="-3.6550440">
        <ele>856.8</ele>
        <time>2022-08-29T13:03:48Z</time>
      </trkpt>
      <trkpt lat="42.3574330" lon="-3.6550890">
        <ele>856.8</ele>
        <time>2022-08-29T13:03:49Z</time>
      </trkpt>
      <trkpt lat="42.3574210" lon="-3.6551330">
        <ele>856.8</ele>
        <time>2022-08-29T13:03:50Z</time>
      </trkpt>
      <trkpt lat="42.3574100" lon="-3.6551770">
        <ele>857.0</ele>
        <time>2022-08-29T13:03:51Z</time>
      </trkpt>
      <trkpt lat="42.3574000" lon="-3.6552240">
        <ele>857.0</ele>
        <time>2022-08-29T13:03:52Z</time>
      </trkpt>
      <trkpt lat="42.3573940" lon="-3.6552710">
        <ele>856.8</ele>
        <time>2022-08-29T13:03:53Z</time>
      </trkpt>
      <trkpt lat="42.3573930" lon="-3.6553180">
        <ele>856.8</ele>
        <time>2022-08-29T13:03:54Z</time>
      </trkpt>
      <trkpt lat="42.3573880" lon="-3.6553620">
        <ele>857.0</ele>
        <time>2022-08-29T13:03:55Z</time>
      </trkpt>
      <trkpt lat="42.3573730" lon="-3.6554020">
        <ele>856.8</ele>
        <time>2022-08-29T13:03:56Z</time>
      </trkpt>
      <trkpt lat="42.3573480" lon="-3.6554390">
        <ele>856.8</ele>
        <time>2022-08-29T13:03:57Z</time>
      </trkpt>
      <trkpt lat="42.3573240" lon="-3.6554800">
        <ele>856.8</ele>
        <time>2022-08-29T13:03:58Z</time>
      </trkpt>
      <trkpt lat="42.3573060" lon="-3.6555290">
        <ele>856.8</ele>
        <time>2022-08-29T13:03:59Z</time>
      </trkpt>
      <trkpt lat="42.3572920" lon="-3.6555810">
        <ele>856.8</ele>
        <time>2022-08-29T13:04:00Z</time>
      </trkpt>
      <trkpt lat="42.3572760" lon="-3.6556370">
        <ele>857.0</ele>
        <time>2022-08-29T13:04:01Z</time>
      </trkpt>
      <trkpt lat="42.3572580" lon="-3.6556970">
        <ele>856.8</ele>
        <time>2022-08-29T13:04:02Z</time>
      </trkpt>
      <trkpt lat="42.3572410" lon="-3.6557590">
        <ele>856.8</ele>
        <time>2022-08-29T13:04:03Z</time>
      </trkpt>
      <trkpt lat="42.3572240" lon="-3.6558240">
        <ele>856.8</ele>
        <time>2022-08-29T13:04:04Z</time>
      </trkpt>
      <trkpt lat="42.3572090" lon="-3.6558890">
        <ele>856.8</ele>
        <time>2022-08-29T13:04:05Z</time>
      </trkpt>
      <trkpt lat="42.3571920" lon="-3.6559530">
        <ele>856.8</ele>
        <time>2022-08-29T13:04:06Z</time>
      </trkpt>
      <trkpt lat="42.3571740" lon="-3.6560170">
        <ele>856.6</ele>
        <time>2022-08-29T13:04:07Z</time>
      </trkpt>
      <trkpt lat="42.3571570" lon="-3.6560840">
        <ele>856.8</ele>
        <time>2022-08-29T13:04:08Z</time>
      </trkpt>
      <trkpt lat="42.3571390" lon="-3.6561510">
        <ele>856.8</ele>
        <time>2022-08-29T13:04:09Z</time>
      </trkpt>
      <trkpt lat="42.3571190" lon="-3.6562170">
        <ele>856.6</ele>
        <time>2022-08-29T13:04:10Z</time>
      </trkpt>
      <trkpt lat="42.3570990" lon="-3.6562840">
        <ele>856.6</ele>
        <time>2022-08-29T13:04:11Z</time>
      </trkpt>
      <trkpt lat="42.3570800" lon="-3.6563520">
        <ele>856.8</ele>
        <time>2022-08-29T13:04:12Z</time>
      </trkpt>
      <trkpt lat="42.3570620" lon="-3.6564210">
        <ele>856.6</ele>
        <time>2022-08-29T13:04:13Z</time>
      </trkpt>
      <trkpt lat="42.3570440" lon="-3.6564900">
        <ele>856.8</ele>
        <time>2022-08-29T13:04:14Z</time>
      </trkpt>
      <trkpt lat="42.3570250" lon="-3.6565590">
        <ele>856.8</ele>
        <time>2022-08-29T13:04:15Z</time>
      </trkpt>
      <trkpt lat="42.3570050" lon="-3.6566280">
        <ele>856.8</ele>
        <time>2022-08-29T13:04:16Z</time>
      </trkpt>
      <trkpt lat="42.3569860" lon="-3.6566970">
        <ele>856.8</ele>
        <time>2022-08-29T13:04:17Z</time>
      </trkpt>
      <trkpt lat="42.3569660" lon="-3.6567670">
        <ele>856.6</ele>
        <time>2022-08-29T13:04:18Z</time>
      </trkpt>
      <trkpt lat="42.3569450" lon="-3.6568400">
        <ele>856.6</ele>
        <time>2022-08-29T13:04:19Z</time>
      </trkpt>
      <trkpt lat="42.3569280" lon="-3.6569140">
        <ele>856.6</ele>
        <time>2022-08-29T13:04:20Z</time>
      </trkpt>
      <trkpt lat="42.3569100" lon="-3.6569890">
        <ele>856.6</ele>
        <time>2022-08-29T13:04:21Z</time>
      </trkpt>
      <trkpt lat="42.3568910" lon="-3.6570630">
        <ele>856.4</ele>
        <time>2022-08-29T13:04:22Z</time>
      </trkpt>
      <trkpt lat="42.3568700" lon="-3.6571370">
        <ele>856.4</ele>
        <time>2022-08-29T13:04:23Z</time>
      </trkpt>
      <trkpt lat="42.3568490" lon="-3.6572110">
        <ele>856.6</ele>
        <time>2022-08-29T13:04:24Z</time>
      </trkpt>
      <trkpt lat="42.3568280" lon="-3.6572830">
        <ele>856.4</ele>
        <time>2022-08-29T13:04:25Z</time>
      </trkpt>
      <trkpt lat="42.3568070" lon="-3.6573570">
        <ele>856.4</ele>
        <time>2022-08-29T13:04:26Z</time>
      </trkpt>
      <trkpt lat="42.3567860" lon="-3.6574310">
        <ele>856.2</ele>
        <time>2022-08-29T13:04:27Z</time>
      </trkpt>
      <trkpt lat="42.3567650" lon="-3.6575050">
        <ele>856.4</ele>
        <time>2022-08-29T13:04:28Z</time>
      </trkpt>
      <trkpt lat="42.3567460" lon="-3.6575790">
        <ele>856.2</ele>
        <time>2022-08-29T13:04:29Z</time>
      </trkpt>
      <trkpt lat="42.3567280" lon="-3.6576530">
        <ele>856.2</ele>
        <time>2022-08-29T13:04:30Z</time>
      </trkpt>
      <trkpt lat="42.3567150" lon="-3.6577310">
        <ele>856.0</ele>
        <time>2022-08-29T13:04:31Z</time>
      </trkpt>
      <trkpt lat="42.3567060" lon="-3.6578080">
        <ele>856.2</ele>
        <time>2022-08-29T13:04:32Z</time>
      </trkpt>
      <trkpt lat="42.3566940" lon="-3.6578850">
        <ele>856.0</ele>
        <time>2022-08-29T13:04:33Z</time>
      </trkpt>
      <trkpt lat="42.3566800" lon="-3.6579590">
        <ele>856.0</ele>
        <time>2022-08-29T13:04:34Z</time>
      </trkpt>
      <trkpt lat="42.3566620" lon="-3.6580310">
        <ele>856.0</ele>
        <time>2022-08-29T13:04:35Z</time>
      </trkpt>
      <trkpt lat="42.3566450" lon="-3.6581030">
        <ele>856.0</ele>
        <time>2022-08-29T13:04:36Z</time>
      </trkpt>
      <trkpt lat="42.3566260" lon="-3.6581750">
        <ele>856.0</ele>
        <time>2022-08-29T13:04:37Z</time>
      </trkpt>
      <trkpt lat="42.3566070" lon="-3.6582460">
        <ele>856.0</ele>
        <time>2022-08-29T13:04:38Z</time>
      </trkpt>
      <trkpt lat="42.3565850" lon="-3.6583170">
        <ele>856.0</ele>
        <time>2022-08-29T13:04:39Z</time>
      </trkpt>
      <trkpt lat="42.3565630" lon="-3.6583880">
        <ele>856.0</ele>
        <time>2022-08-29T13:04:40Z</time>
      </trkpt>
      <trkpt lat="42.3565440" lon="-3.6584570">
        <ele>856.0</ele>
        <time>2022-08-29T13:04:41Z</time>
      </trkpt>
      <trkpt lat="42.3565270" lon="-3.6585260">
        <ele>855.8</ele>
        <time>2022-08-29T13:04:42Z</time>
      </trkpt>
      <trkpt lat="42.3565110" lon="-3.6585940">
        <ele>856.0</ele>
        <time>2022-08-29T13:04:43Z</time>
      </trkpt>
      <trkpt lat="42.3564940" lon="-3.6586610">
        <ele>856.0</ele>
        <time>2022-08-29T13:04:44Z</time>
      </trkpt>
      <trkpt lat="42.3564760" lon="-3.6587260">
        <ele>856.0</ele>
        <time>2022-08-29T13:04:45Z</time>
      </trkpt>
      <trkpt lat="42.3564570" lon="-3.6587950">
        <ele>856.0</ele>
        <time>2022-08-29T13:04:46Z</time>
      </trkpt>
      <trkpt lat="42.3564390" lon="-3.6588640">
        <ele>856.0</ele>
        <time>2022-08-29T13:04:47Z</time>
      </trkpt>
      <trkpt lat="42.3564220" lon="-3.6589290">
        <ele>856.0</ele>
        <time>2022-08-29T13:04:48Z</time>
      </trkpt>
      <trkpt lat="42.3564060" lon="-3.6589940">
        <ele>855.8</ele>
        <time>2022-08-29T13:04:49Z</time>
      </trkpt>
      <trkpt lat="42.3563900" lon="-3.6590610">
        <ele>855.8</ele>
        <time>2022-08-29T13:04:50Z</time>
      </trkpt>
      <trkpt lat="42.3563740" lon="-3.6591280">
        <ele>856.0</ele>
        <time>2022-08-29T13:04:51Z</time>
      </trkpt>
      <trkpt lat="42.3563560" lon="-3.6591950">
        <ele>856.0</ele>
        <time>2022-08-29T13:04:52Z</time>
      </trkpt>
      <trkpt lat="42.3563380" lon="-3.6592630">
        <ele>856.0</ele>
        <time>2022-08-29T13:04:53Z</time>
      </trkpt>
      <trkpt lat="42.3563200" lon="-3.6593310">
        <ele>856.0</ele>
        <time>2022-08-29T13:04:54Z</time>
      </trkpt>
      <trkpt lat="42.3563020" lon="-3.6593980">
        <ele>856.2</ele>
        <time>2022-08-29T13:04:55Z</time>
      </trkpt>
      <trkpt lat="42.3562840" lon="-3.6594640">
        <ele>856.0</ele>
        <time>2022-08-29T13:04:56Z</time>
      </trkpt>
      <trkpt lat="42.3562670" lon="-3.6595310">
        <ele>856.2</ele>
        <time>2022-08-29T13:04:57Z</time>
      </trkpt>
      <trkpt lat="42.3562490" lon="-3.6595980">
        <ele>856.4</ele>
        <time>2022-08-29T13:04:58Z</time>
      </trkpt>
      <trkpt lat="42.3562320" lon="-3.6596640">
        <ele>856.4</ele>
        <time>2022-08-29T13:04:59Z</time>
      </trkpt>
      <trkpt lat="42.3562160" lon="-3.6597290">
        <ele>856.4</ele>
        <time>2022-08-29T13:05:00Z</time>
      </trkpt>
      <trkpt lat="42.3561980" lon="-3.6597910">
        <ele>856.4</ele>
        <time>2022-08-29T13:05:01Z</time>
      </trkpt>
      <trkpt lat="42.3561810" lon="-3.6598540">
        <ele>856.6</ele>
        <time>2022-08-29T13:05:02Z</time>
      </trkpt>
      <trkpt lat="42.3561650" lon="-3.6599150">
        <ele>856.6</ele>
        <time>2022-08-29T13:05:03Z</time>
      </trkpt>
      <trkpt lat="42.3561500" lon="-3.6599750">
        <ele>856.6</ele>
        <time>2022-08-29T13:05:04Z</time>
      </trkpt>
      <trkpt lat="42.3561350" lon="-3.6600340">
        <ele>856.6</ele>
        <time>2022-08-29T13:05:05Z</time>
      </trkpt>
      <trkpt lat="42.3561180" lon="-3.6600950">
        <ele>856.6</ele>
        <time>2022-08-29T13:05:06Z</time>
      </trkpt>
      <trkpt lat="42.3560990" lon="-3.6601550">
        <ele>856.6</ele>
        <time>2022-08-29T13:05:07Z</time>
      </trkpt>
      <trkpt lat="42.3560810" lon="-3.6602200">
        <ele>856.6</ele>
        <time>2022-08-29T13:05:08Z</time>
      </trkpt>
      <trkpt lat="42.3560620" lon="-3.6602840">
        <ele>856.8</ele>
        <time>2022-08-29T13:05:09Z</time>
      </trkpt>
      <trkpt lat="42.3560420" lon="-3.6603470">
        <ele>856.6</ele>
        <time>2022-08-29T13:05:10Z</time>
      </trkpt>
      <trkpt lat="42.3560250" lon="-3.6604100">
        <ele>856.6</ele>
        <time>2022-08-29T13:05:11Z</time>
      </trkpt>
      <trkpt lat="42.3560080" lon="-3.6604740">
        <ele>856.6</ele>
        <time>2022-08-29T13:05:12Z</time>
      </trkpt>
      <trkpt lat="42.3559910" lon="-3.6605380">
        <ele>856.6</ele>
        <time>2022-08-29T13:05:13Z</time>
      </trkpt>
      <trkpt lat="42.3559700" lon="-3.6606040">
        <ele>856.6</ele>
        <time>2022-08-29T13:05:14Z</time>
      </trkpt>
      <trkpt lat="42.3559510" lon="-3.6606670">
        <ele>856.6</ele>
        <time>2022-08-29T13:05:15Z</time>
      </trkpt>
      <trkpt lat="42.3559320" lon="-3.6607300">
        <ele>856.6</ele>
        <time>2022-08-29T13:05:16Z</time>
      </trkpt>
      <trkpt lat="42.3559150" lon="-3.6607940">
        <ele>856.6</ele>
        <time>2022-08-29T13:05:17Z</time>
      </trkpt>
      <trkpt lat="42.3558950" lon="-3.6608590">
        <ele>856.6</ele>
        <time>2022-08-29T13:05:18Z</time>
      </trkpt>
      <trkpt lat="42.3558750" lon="-3.6609230">
        <ele>856.8</ele>
        <time>2022-08-29T13:05:19Z</time>
      </trkpt>
      <trkpt lat="42.3558540" lon="-3.6609840">
        <ele>856.8</ele>
        <time>2022-08-29T13:05:20Z</time>
      </trkpt>
      <trkpt lat="42.3558360" lon="-3.6610460">
        <ele>856.8</ele>
        <time>2022-08-29T13:05:21Z</time>
      </trkpt>
      <trkpt lat="42.3558180" lon="-3.6611090">
        <ele>856.8</ele>
        <time>2022-08-29T13:05:22Z</time>
      </trkpt>
      <trkpt lat="42.3558010" lon="-3.6611720">
        <ele>856.8</ele>
        <time>2022-08-29T13:05:23Z</time>
      </trkpt>
      <trkpt lat="42.3557860" lon="-3.6612320">
        <ele>856.8</ele>
        <time>2022-08-29T13:05:24Z</time>
      </trkpt>
      <trkpt lat="42.3557720" lon="-3.6612890">
        <ele>856.8</ele>
        <time>2022-08-29T13:05:25Z</time>
      </trkpt>
      <trkpt lat="42.3557590" lon="-3.6613420">
        <ele>856.8</ele>
        <time>2022-08-29T13:05:26Z</time>
      </trkpt>
      <trkpt lat="42.3557470" lon="-3.6613940">
        <ele>856.8</ele>
        <time>2022-08-29T13:05:27Z</time>
      </trkpt>
      <trkpt lat="42.3557350" lon="-3.6614470">
        <ele>856.6</ele>
        <time>2022-08-29T13:05:28Z</time>
      </trkpt>
      <trkpt lat="42.3557160" lon="-3.6615030">
        <ele>856.6</ele>
        <time>2022-08-29T13:05:29Z</time>
      </trkpt>
      <trkpt lat="42.3557000" lon="-3.6615600">
        <ele>856.6</ele>
        <time>2022-08-29T13:05:30Z</time>
      </trkpt>
      <trkpt lat="42.3556850" lon="-3.6616200">
        <ele>856.6</ele>
        <time>2022-08-29T13:05:31Z</time>
      </trkpt>
      <trkpt lat="42.3556670" lon="-3.6616780">
        <ele>856.6</ele>
        <time>2022-08-29T13:05:32Z</time>
      </trkpt>
      <trkpt lat="42.3556510" lon="-3.6617380">
        <ele>856.6</ele>
        <time>2022-08-29T13:05:33Z</time>
      </trkpt>
      <trkpt lat="42.3556320" lon="-3.6618000">
        <ele>856.6</ele>
        <time>2022-08-29T13:05:34Z</time>
      </trkpt>
      <trkpt lat="42.3556140" lon="-3.6618630">
        <ele>856.8</ele>
        <time>2022-08-29T13:05:35Z</time>
      </trkpt>
      <trkpt lat="42.3555950" lon="-3.6619250">
        <ele>856.8</ele>
        <time>2022-08-29T13:05:36Z</time>
      </trkpt>
      <trkpt lat="42.3555770" lon="-3.6619870">
        <ele>856.8</ele>
        <time>2022-08-29T13:05:37Z</time>
      </trkpt>
      <trkpt lat="42.3555610" lon="-3.6620500">
        <ele>856.8</ele>
        <time>2022-08-29T13:05:38Z</time>
      </trkpt>
      <trkpt lat="42.3555460" lon="-3.6621110">
        <ele>856.6</ele>
        <time>2022-08-29T13:05:39Z</time>
      </trkpt>
      <trkpt lat="42.3555300" lon="-3.6621700">
        <ele>856.8</ele>
        <time>2022-08-29T13:05:40Z</time>
      </trkpt>
      <trkpt lat="42.3555150" lon="-3.6622290">
        <ele>856.6</ele>
        <time>2022-08-29T13:05:41Z</time>
      </trkpt>
      <trkpt lat="42.3554990" lon="-3.6622900">
        <ele>856.4</ele>
        <time>2022-08-29T13:05:42Z</time>
      </trkpt>
      <trkpt lat="42.3554850" lon="-3.6623500">
        <ele>856.4</ele>
        <time>2022-08-29T13:05:43Z</time>
      </trkpt>
      <trkpt lat="42.3554760" lon="-3.6624100">
        <ele>856.4</ele>
        <time>2022-08-29T13:05:44Z</time>
      </trkpt>
      <trkpt lat="42.3554700" lon="-3.6624690">
        <ele>856.4</ele>
        <time>2022-08-29T13:05:45Z</time>
      </trkpt>
      <trkpt lat="42.3554670" lon="-3.6625300">
        <ele>856.4</ele>
        <time>2022-08-29T13:05:46Z</time>
      </trkpt>
      <trkpt lat="42.3554630" lon="-3.6625890">
        <ele>856.4</ele>
        <time>2022-08-29T13:05:47Z</time>
      </trkpt>
      <trkpt lat="42.3554540" lon="-3.6626440">
        <ele>856.4</ele>
        <time>2022-08-29T13:05:48Z</time>
      </trkpt>
      <trkpt lat="42.3554390" lon="-3.6626950">
        <ele>856.4</ele>
        <time>2022-08-29T13:05:49Z</time>
      </trkpt>
      <trkpt lat="42.3554290" lon="-3.6627480">
        <ele>856.6</ele>
        <time>2022-08-29T13:05:50Z</time>
      </trkpt>
      <trkpt lat="42.3554180" lon="-3.6627970">
        <ele>856.4</ele>
        <time>2022-08-29T13:05:51Z</time>
      </trkpt>
      <trkpt lat="42.3554070" lon="-3.6628480">
        <ele>856.6</ele>
        <time>2022-08-29T13:05:52Z</time>
      </trkpt>
      <trkpt lat="42.3553990" lon="-3.6628970">
        <ele>856.4</ele>
        <time>2022-08-29T13:05:53Z</time>
      </trkpt>
      <trkpt lat="42.3554020" lon="-3.6629420">
        <ele>856.4</ele>
        <time>2022-08-29T13:05:54Z</time>
      </trkpt>
      <trkpt lat="42.3554110" lon="-3.6629850">
        <ele>856.4</ele>
        <time>2022-08-29T13:05:55Z</time>
      </trkpt>
      <trkpt lat="42.3554280" lon="-3.6630230">
        <ele>856.4</ele>
        <time>2022-08-29T13:05:56Z</time>
      </trkpt>
      <trkpt lat="42.3554480" lon="-3.6630590">
        <ele>856.6</ele>
        <time>2022-08-29T13:05:57Z</time>
      </trkpt>
      <trkpt lat="42.3554660" lon="-3.6630860">
        <ele>856.6</ele>
        <time>2022-08-29T13:05:58Z</time>
      </trkpt>
      <trkpt lat="42.3554770" lon="-3.6631040">
        <ele>856.6</ele>
        <time>2022-08-29T13:05:59Z</time>
      </trkpt>
      <trkpt lat="42.3554790" lon="-3.6631190">
        <ele>856.8</ele>
        <time>2022-08-29T13:06:00Z</time>
      </trkpt>
      <trkpt lat="42.3554750" lon="-3.6631360">
        <ele>856.8</ele>
        <time>2022-08-29T13:06:01Z</time>
      </trkpt>
      <trkpt lat="42.3554690" lon="-3.6631510">
        <ele>856.8</ele>
        <time>2022-08-29T13:06:02Z</time>
      </trkpt>
      <trkpt lat="42.3554670" lon="-3.6631590">
        <ele>856.8</ele>
        <time>2022-08-29T13:06:03Z</time>
      </trkpt>
      <trkpt lat="42.3554680" lon="-3.6631600">
        <ele>856.8</ele>
        <time>2022-08-29T13:06:04Z</time>
      </trkpt>
      <trkpt lat="42.3554710" lon="-3.6631600">
        <ele>857.0</ele>
        <time>2022-08-29T13:06:05Z</time>
      </trkpt>
      <trkpt lat="42.3554710" lon="-3.6631630">
        <ele>856.8</ele>
        <time>2022-08-29T13:06:06Z</time>
      </trkpt>
      <trkpt lat="42.3554700" lon="-3.6631650">
        <ele>857.0</ele>
        <time>2022-08-29T13:06:07Z</time>
      </trkpt>
      <trkpt lat="42.3554700" lon="-3.6631660">
        <ele>857.2</ele>
        <time>2022-08-29T13:06:08Z</time>
      </trkpt>
      <trkpt lat="42.3554700" lon="-3.6631660">
        <ele>857.0</ele>
        <time>2022-08-29T13:06:09Z</time>
      </trkpt>
      <trkpt lat="42.3554700" lon="-3.6631670">
        <ele>857.0</ele>
        <time>2022-08-29T13:06:10Z</time>
      </trkpt>
      <trkpt lat="42.3554700" lon="-3.6631680">
        <ele>857.0</ele>
        <time>2022-08-29T13:06:11Z</time>
      </trkpt>
      <trkpt lat="42.3554700" lon="-3.6631680">
        <ele>857.0</ele>
        <time>2022-08-29T13:06:12Z</time>
      </trkpt>
      <trkpt lat="42.3554700" lon="-3.6631690">
        <ele>857.0</ele>
        <time>2022-08-29T13:06:13Z</time>
      </trkpt>
      <trkpt lat="42.3554700" lon="-3.6631690">
        <ele>857.2</ele>
        <time>2022-08-29T13:06:14Z</time>
      </trkpt>
      <trkpt lat="42.3554700" lon="-3.6631700">
        <ele>857.0</ele>
        <time>2022-08-29T13:06:15Z</time>
      </trkpt>
      <trkpt lat="42.3554700" lon="-3.6631700">
        <ele>857.0</ele>
        <time>2022-08-29T13:06:16Z</time>
      </trkpt>
      <trkpt lat="42.3554700" lon="-3.6631700">
        <ele>857.0</ele>
        <time>2022-08-29T13:06:17Z</time>
      </trkpt>
      <trkpt lat="42.3554700" lon="-3.6631700">
        <ele>857.0</ele>
        <time>2022-08-29T13:06:18Z</time>
      </trkpt>
      <trkpt lat="42.3554700" lon="-3.6631710">
        <ele>857.2</ele>
        <time>2022-08-29T13:06:19Z</time>
      </trkpt>
      <trkpt lat="42.3554700" lon="-3.6631710">
        <ele>857.2</ele>
        <time>2022-08-29T13:06:20Z</time>
      </trkpt>
      <trkpt lat="42.3554700" lon="-3.6631710">
        <ele>857.2</ele>
        <time>2022-08-29T13:06:21Z</time>
      </trkpt>
      <trkpt lat="42.3554700" lon="-3.6631710">
        <ele>857.2</ele>
        <time>2022-08-29T13:06:22Z</time>
      </trkpt>
      <trkpt lat="42.3554700" lon="-3.6631710">
        <ele>857.2</ele>
        <time>2022-08-29T13:06:23Z</time>
      </trkpt>
      <trkpt lat="42.3554710" lon="-3.6631710">
        <ele>857.2</ele>
        <time>2022-08-29T13:06:24Z</time>
      </trkpt>
      <trkpt lat="42.3554710" lon="-3.6631710">
        <ele>857.0</ele>
        <time>2022-08-29T13:06:25Z</time>
      </trkpt>
      <trkpt lat="42.3554710" lon="-3.6631710">
        <ele>857.2</ele>
        <time>2022-08-29T13:06:26Z</time>
      </trkpt>
      <trkpt lat="42.3554710" lon="-3.6631710">
        <ele>857.2</ele>
        <time>2022-08-29T13:06:27Z</time>
      </trkpt>
      <trkpt lat="42.3554710" lon="-3.6631710">
        <ele>857.2</ele>
        <time>2022-08-29T13:06:28Z</time>
      </trkpt>
      <trkpt lat="42.3554710" lon="-3.6631710">
        <ele>857.2</ele>
        <time>2022-08-29T13:06:29Z</time>
      </trkpt>
      <trkpt lat="42.3554710" lon="-3.6631710">
        <ele>857.2</ele>
        <time>2022-08-29T13:06:30Z</time>
      </trkpt>
      <trkpt lat="42.3554710" lon="-3.6631710">
        <ele>857.2</ele>
        <time>2022-08-29T13:06:31Z</time>
      </trkpt>
      <trkpt lat="42.3554710" lon="-3.6631710">
        <ele>857.2</ele>
        <time>2022-08-29T13:06:32Z</time>
      </trkpt>
      <trkpt lat="42.3554710" lon="-3.6631710">
        <ele>857.0</ele>
        <time>2022-08-29T13:06:33Z</time>
      </trkpt>
      <trkpt lat="42.3554710" lon="-3.6631710">
        <ele>857.2</ele>
        <time>2022-08-29T13:06:34Z</time>
      </trkpt>
      <trkpt lat="42.3554710" lon="-3.6631710">
        <ele>857.2</ele>
        <time>2022-08-29T13:06:35Z</time>
      </trkpt>
      <trkpt lat="42.3554710" lon="-3.6631710">
        <ele>857.2</ele>
        <time>2022-08-29T13:06:36Z</time>
      </trkpt>
      <trkpt lat="42.3554710" lon="-3.6631710">
        <ele>857.2</ele>
        <time>2022-08-29T13:06:37Z</time>
      </trkpt>
      <trkpt lat="42.3554710" lon="-3.6631710">
        <ele>857.0</ele>
        <time>2022-08-29T13:06:38Z</time>
      </trkpt>
      <trkpt lat="42.3554720" lon="-3.6631710">
        <ele>857.2</ele>
        <time>2022-08-29T13:06:39Z</time>
      </trkpt>
      <trkpt lat="42.3554720" lon="-3.6631710">
        <ele>857.0</ele>
        <time>2022-08-29T13:06:40Z</time>
      </trkpt>
      <trkpt lat="42.3554720" lon="-3.6631710">
        <ele>857.2</ele>
        <time>2022-08-29T13:06:41Z</time>
      </trkpt>
      <trkpt lat="42.3554720" lon="-3.6631710">
        <ele>857.2</ele>
        <time>2022-08-29T13:06:42Z</time>
      </trkpt>
      <trkpt lat="42.3554720" lon="-3.6631710">
        <ele>857.2</ele>
        <time>2022-08-29T13:06:43Z</time>
      </trkpt>
      <trkpt lat="42.3554720" lon="-3.6631710">
        <ele>857.2</ele>
        <time>2022-08-29T13:06:44Z</time>
      </trkpt>
      <trkpt lat="42.3554720" lon="-3.6631710">
        <ele>857.2</ele>
        <time>2022-08-29T13:06:45Z</time>
      </trkpt>
      <trkpt lat="42.3554720" lon="-3.6631710">
        <ele>857.0</ele>
        <time>2022-08-29T13:06:46Z</time>
      </trkpt>
      <trkpt lat="42.3554720" lon="-3.6631710">
        <ele>857.2</ele>
        <time>2022-08-29T13:06:47Z</time>
      </trkpt>
      <trkpt lat="42.3554720" lon="-3.6631720">
        <ele>857.2</ele>
        <time>2022-08-29T13:06:48Z</time>
      </trkpt>
      <trkpt lat="42.3554710" lon="-3.6631720">
        <ele>857.0</ele>
        <time>2022-08-29T13:06:49Z</time>
      </trkpt>
      <trkpt lat="42.3554720" lon="-3.6631750">
        <ele>857.2</ele>
        <time>2022-08-29T13:06:50Z</time>
      </trkpt>
      <trkpt lat="42.3554700" lon="-3.6631850">
        <ele>857.0</ele>
        <time>2022-08-29T13:06:51Z</time>
      </trkpt>
      <trkpt lat="42.3554610" lon="-3.6632060">
        <ele>857.0</ele>
        <time>2022-08-29T13:06:52Z</time>
      </trkpt>
      <trkpt lat="42.3554520" lon="-3.6632320">
        <ele>857.0</ele>
        <time>2022-08-29T13:06:53Z</time>
      </trkpt>
      <trkpt lat="42.3554390" lon="-3.6632620">
        <ele>857.2</ele>
        <time>2022-08-29T13:06:54Z</time>
      </trkpt>
      <trkpt lat="42.3554210" lon="-3.6632900">
        <ele>857.0</ele>
        <time>2022-08-29T13:06:55Z</time>
      </trkpt>
      <trkpt lat="42.3553980" lon="-3.6633120">
        <ele>857.2</ele>
        <time>2022-08-29T13:06:56Z</time>
      </trkpt>
      <trkpt lat="42.3553740" lon="-3.6633200">
        <ele>857.2</ele>
        <time>2022-08-29T13:06:57Z</time>
      </trkpt>
      <trkpt lat="42.3553520" lon="-3.6633170">
        <ele>857.0</ele>
        <time>2022-08-29T13:06:58Z</time>
      </trkpt>
      <trkpt lat="42.3553270" lon="-3.6633110">
        <ele>857.0</ele>
        <time>2022-08-29T13:06:59Z</time>
      </trkpt>
      <trkpt lat="42.3553000" lon="-3.6633080">
        <ele>857.0</ele>
        <time>2022-08-29T13:07:00Z</time>
      </trkpt>
      <trkpt lat="42.3552730" lon="-3.6633140">
        <ele>857.0</ele>
        <time>2022-08-29T13:07:01Z</time>
      </trkpt>
      <trkpt lat="42.3552460" lon="-3.6633270">
        <ele>857.0</ele>
        <time>2022-08-29T13:07:02Z</time>
      </trkpt>
      <trkpt lat="42.3552220" lon="-3.6633480">
        <ele>856.8</ele>
        <time>2022-08-29T13:07:03Z</time>
      </trkpt>
      <trkpt lat="42.3552000" lon="-3.6633740">
        <ele>856.8</ele>
        <time>2022-08-29T13:07:04Z</time>
      </trkpt>
      <trkpt lat="42.3551820" lon="-3.6634000">
        <ele>856.8</ele>
        <time>2022-08-29T13:07:05Z</time>
      </trkpt>
      <trkpt lat="42.3551690" lon="-3.6634280">
        <ele>856.8</ele>
        <time>2022-08-29T13:07:06Z</time>
      </trkpt>
      <trkpt lat="42.3551600" lon="-3.6634570">
        <ele>857.0</ele>
        <time>2022-08-29T13:07:07Z</time>
      </trkpt>
      <trkpt lat="42.3551510" lon="-3.6634890">
        <ele>856.8</ele>
        <time>2022-08-29T13:07:08Z</time>
      </trkpt>
      <trkpt lat="42.3551410" lon="-3.6635240">
        <ele>856.8</ele>
        <time>2022-08-29T13:07:09Z</time>
      </trkpt>
      <trkpt lat="42.3551260" lon="-3.6635600">
        <ele>856.6</ele>
        <time>2022-08-29T13:07:10Z</time>
      </trkpt>
      <trkpt lat="42.3551090" lon="-3.6635930">
        <ele>856.6</ele>
        <time>2022-08-29T13:07:11Z</time>
      </trkpt>
      <trkpt lat="42.3550920" lon="-3.6636230">
        <ele>856.8</ele>
        <time>2022-08-29T13:07:12Z</time>
      </trkpt>
      <trkpt lat="42.3550770" lon="-3.6636570">
        <ele>856.6</ele>
        <time>2022-08-29T13:07:13Z</time>
      </trkpt>
      <trkpt lat="42.3550650" lon="-3.6636960">
        <ele>856.6</ele>
        <time>2022-08-29T13:07:14Z</time>
      </trkpt>
      <trkpt lat="42.3550550" lon="-3.6637350">
        <ele>856.6</ele>
        <time>2022-08-29T13:07:15Z</time>
      </trkpt>
      <trkpt lat="42.3550400" lon="-3.6637760">
        <ele>856.6</ele>
        <time>2022-08-29T13:07:16Z</time>
      </trkpt>
      <trkpt lat="42.3550230" lon="-3.6638150">
        <ele>856.8</ele>
        <time>2022-08-29T13:07:17Z</time>
      </trkpt>
      <trkpt lat="42.3550070" lon="-3.6638620">
        <ele>856.6</ele>
        <time>2022-08-29T13:07:18Z</time>
      </trkpt>
      <trkpt lat="42.3549900" lon="-3.6639180">
        <ele>856.6</ele>
        <time>2022-08-29T13:07:19Z</time>
      </trkpt>
      <trkpt lat="42.3549760" lon="-3.6639740">
        <ele>856.6</ele>
        <time>2022-08-29T13:07:20Z</time>
      </trkpt>
      <trkpt lat="42.3549620" lon="-3.6640300">
        <ele>856.6</ele>
        <time>2022-08-29T13:07:21Z</time>
      </trkpt>
      <trkpt lat="42.3549500" lon="-3.6640840">
        <ele>856.4</ele>
        <time>2022-08-29T13:07:22Z</time>
      </trkpt>
      <trkpt lat="42.3549400" lon="-3.6641400">
        <ele>856.4</ele>
        <time>2022-08-29T13:07:23Z</time>
      </trkpt>
      <trkpt lat="42.3549280" lon="-3.6641910">
        <ele>856.2</ele>
        <time>2022-08-29T13:07:24Z</time>
      </trkpt>
      <trkpt lat="42.3549110" lon="-3.6642440">
        <ele>856.4</ele>
        <time>2022-08-29T13:07:25Z</time>
      </trkpt>
      <trkpt lat="42.3548960" lon="-3.6642960">
        <ele>856.2</ele>
        <time>2022-08-29T13:07:26Z</time>
      </trkpt>
      <trkpt lat="42.3548830" lon="-3.6643470">
        <ele>856.0</ele>
        <time>2022-08-29T13:07:27Z</time>
      </trkpt>
      <trkpt lat="42.3548690" lon="-3.6643990">
        <ele>856.0</ele>
        <time>2022-08-29T13:07:28Z</time>
      </trkpt>
      <trkpt lat="42.3548520" lon="-3.6644490">
        <ele>856.0</ele>
        <time>2022-08-29T13:07:29Z</time>
      </trkpt>
      <trkpt lat="42.3548380" lon="-3.6645010">
        <ele>856.0</ele>
        <time>2022-08-29T13:07:30Z</time>
      </trkpt>
      <trkpt lat="42.3548250" lon="-3.6645550">
        <ele>856.0</ele>
        <time>2022-08-29T13:07:31Z</time>
      </trkpt>
      <trkpt lat="42.3548110" lon="-3.6646060">
        <ele>856.0</ele>
        <time>2022-08-29T13:07:32Z</time>
      </trkpt>
      <trkpt lat="42.3547960" lon="-3.6646580">
        <ele>856.0</ele>
        <time>2022-08-29T13:07:33Z</time>
      </trkpt>
      <trkpt lat="42.3547810" lon="-3.6647060">
        <ele>856.0</ele>
        <time>2022-08-29T13:07:34Z</time>
      </trkpt>
      <trkpt lat="42.3547640" lon="-3.6647520">
        <ele>855.8</ele>
        <time>2022-08-29T13:07:35Z</time>
      </trkpt>
      <trkpt lat="42.3547480" lon="-3.6647990">
        <ele>855.6</ele>
        <time>2022-08-29T13:07:36Z</time>
      </trkpt>
      <trkpt lat="42.3547360" lon="-3.6648510">
        <ele>855.6</ele>
        <time>2022-08-29T13:07:37Z</time>
      </trkpt>
      <trkpt lat="42.3547240" lon="-3.6649040">
        <ele>855.6</ele>
        <time>2022-08-29T13:07:38Z</time>
      </trkpt>
      <trkpt lat="42.3547120" lon="-3.6649600">
        <ele>855.4</ele>
        <time>2022-08-29T13:07:39Z</time>
      </trkpt>
      <trkpt lat="42.3546980" lon="-3.6650160">
        <ele>855.4</ele>
        <time>2022-08-29T13:07:40Z</time>
      </trkpt>
      <trkpt lat="42.3546860" lon="-3.6650750">
        <ele>855.4</ele>
        <time>2022-08-29T13:07:41Z</time>
      </trkpt>
      <trkpt lat="42.3546720" lon="-3.6651330">
        <ele>855.2</ele>
        <time>2022-08-29T13:07:42Z</time>
      </trkpt>
      <trkpt lat="42.3546580" lon="-3.6651920">
        <ele>855.2</ele>
        <time>2022-08-29T13:07:43Z</time>
      </trkpt>
      <trkpt lat="42.3546410" lon="-3.6652480">
        <ele>855.0</ele>
        <time>2022-08-29T13:07:44Z</time>
      </trkpt>
      <trkpt lat="42.3546260" lon="-3.6653070">
        <ele>855.0</ele>
        <time>2022-08-29T13:07:45Z</time>
      </trkpt>
      <trkpt lat="42.3546100" lon="-3.6653660">
        <ele>855.0</ele>
        <time>2022-08-29T13:07:46Z</time>
      </trkpt>
      <trkpt lat="42.3545930" lon="-3.6654210">
        <ele>855.0</ele>
        <time>2022-08-29T13:07:47Z</time>
      </trkpt>
      <trkpt lat="42.3545780" lon="-3.6654790">
        <ele>855.0</ele>
        <time>2022-08-29T13:07:48Z</time>
      </trkpt>
      <trkpt lat="42.3545620" lon="-3.6655360">
        <ele>855.0</ele>
        <time>2022-08-29T13:07:49Z</time>
      </trkpt>
      <trkpt lat="42.3545450" lon="-3.6655890">
        <ele>855.0</ele>
        <time>2022-08-29T13:07:50Z</time>
      </trkpt>
      <trkpt lat="42.3545300" lon="-3.6656400">
        <ele>855.0</ele>
        <time>2022-08-29T13:07:51Z</time>
      </trkpt>
      <trkpt lat="42.3545140" lon="-3.6656910">
        <ele>855.0</ele>
        <time>2022-08-29T13:07:52Z</time>
      </trkpt>
      <trkpt lat="42.3545000" lon="-3.6657410">
        <ele>855.0</ele>
        <time>2022-08-29T13:07:53Z</time>
      </trkpt>
      <trkpt lat="42.3544500" lon="-3.6657720">
        <ele>855.0</ele>
        <time>2022-08-29T13:07:54Z</time>
      </trkpt>
      <trkpt lat="42.3544060" lon="-3.6658060">
        <ele>855.0</ele>
        <time>2022-08-29T13:07:55Z</time>
      </trkpt>
      <trkpt lat="42.3543630" lon="-3.6658360">
        <ele>855.0</ele>
        <time>2022-08-29T13:07:56Z</time>
      </trkpt>
      <trkpt lat="42.3543430" lon="-3.6658770">
        <ele>855.0</ele>
        <time>2022-08-29T13:07:57Z</time>
      </trkpt>
      <trkpt lat="42.3543330" lon="-3.6659190">
        <ele>855.2</ele>
        <time>2022-08-29T13:07:58Z</time>
      </trkpt>
      <trkpt lat="42.3543100" lon="-3.6659530">
        <ele>855.0</ele>
        <time>2022-08-29T13:07:59Z</time>
      </trkpt>
      <trkpt lat="42.3542950" lon="-3.6659900">
        <ele>855.2</ele>
        <time>2022-08-29T13:08:00Z</time>
      </trkpt>
      <trkpt lat="42.3542870" lon="-3.6660280">
        <ele>855.2</ele>
        <time>2022-08-29T13:08:01Z</time>
      </trkpt>
      <trkpt lat="42.3542830" lon="-3.6660590">
        <ele>855.0</ele>
        <time>2022-08-29T13:08:02Z</time>
      </trkpt>
      <trkpt lat="42.3542840" lon="-3.6660790">
        <ele>855.2</ele>
        <time>2022-08-29T13:08:03Z</time>
      </trkpt>
      <trkpt lat="42.3542940" lon="-3.6660910">
        <ele>855.2</ele>
        <time>2022-08-29T13:08:04Z</time>
      </trkpt>
      <trkpt lat="42.3542980" lon="-3.6660980">
        <ele>855.2</ele>
        <time>2022-08-29T13:08:05Z</time>
      </trkpt>
      <trkpt lat="42.3543080" lon="-3.6661120">
        <ele>855.2</ele>
        <time>2022-08-29T13:08:06Z</time>
      </trkpt>
      <trkpt lat="42.3543140" lon="-3.6661190">
        <ele>855.2</ele>
        <time>2022-08-29T13:08:07Z</time>
      </trkpt>
      <trkpt lat="42.3543160" lon="-3.6661220">
        <ele>855.2</ele>
        <time>2022-08-29T13:08:08Z</time>
      </trkpt>
      <trkpt lat="42.3543180" lon="-3.6661270">
        <ele>855.4</ele>
        <time>2022-08-29T13:08:09Z</time>
      </trkpt>
      <trkpt lat="42.3543210" lon="-3.6661320">
        <ele>855.4</ele>
        <time>2022-08-29T13:08:10Z</time>
      </trkpt>
      <trkpt lat="42.3543250" lon="-3.6661370">
        <ele>855.4</ele>
        <time>2022-08-29T13:08:11Z</time>
      </trkpt>
      <trkpt lat="42.3543250" lon="-3.6661380">
        <ele>855.4</ele>
        <time>2022-08-29T13:08:12Z</time>
      </trkpt>
      <trkpt lat="42.3543250" lon="-3.6661380">
        <ele>855.4</ele>
        <time>2022-08-29T13:08:13Z</time>
      </trkpt>
      <trkpt lat="42.3543260" lon="-3.6661380">
        <ele>855.4</ele>
        <time>2022-08-29T13:08:14Z</time>
      </trkpt>
      <trkpt lat="42.3543260" lon="-3.6661390">
        <ele>855.4</ele>
        <time>2022-08-29T13:08:15Z</time>
      </trkpt>
      <trkpt lat="42.3543260" lon="-3.6661390">
        <ele>855.4</ele>
        <time>2022-08-29T13:08:16Z</time>
      </trkpt>
      <trkpt lat="42.3543260" lon="-3.6661400">
        <ele>855.4</ele>
        <time>2022-08-29T13:08:17Z</time>
      </trkpt>
      <trkpt lat="42.3543270" lon="-3.6661400">
        <ele>855.2</ele>
        <time>2022-08-29T13:08:18Z</time>
      </trkpt>
      <trkpt lat="42.3543270" lon="-3.6661390">
        <ele>855.4</ele>
        <time>2022-08-29T13:08:19Z</time>
      </trkpt>
      <trkpt lat="42.3543260" lon="-3.6661400">
        <ele>855.4</ele>
        <time>2022-08-29T13:08:20Z</time>
      </trkpt>
      <trkpt lat="42.3543270" lon="-3.6661400">
        <ele>855.4</ele>
        <time>2022-08-29T13:08:21Z</time>
      </trkpt>
      <trkpt lat="42.3543270" lon="-3.6661390">
        <ele>855.4</ele>
        <time>2022-08-29T13:08:22Z</time>
      </trkpt>
      <trkpt lat="42.3543270" lon="-3.6661390">
        <ele>855.4</ele>
        <time>2022-08-29T13:08:23Z</time>
      </trkpt>
      <trkpt lat="42.3543270" lon="-3.6661400">
        <ele>855.4</ele>
        <time>2022-08-29T13:08:24Z</time>
      </trkpt>
      <trkpt lat="42.3543270" lon="-3.6661400">
        <ele>855.6</ele>
        <time>2022-08-29T13:08:25Z</time>
      </trkpt>
      <trkpt lat="42.3543270" lon="-3.6661400">
        <ele>855.6</ele>
        <time>2022-08-29T13:08:26Z</time>
      </trkpt>
      <trkpt lat="42.3543270" lon="-3.6661400">
        <ele>855.6</ele>
        <time>2022-08-29T13:08:27Z</time>
      </trkpt>
      <trkpt lat="42.3543270" lon="-3.6661400">
        <ele>855.6</ele>
        <time>2022-08-29T13:08:28Z</time>
      </trkpt>
      <trkpt lat="42.3543270" lon="-3.6661400">
        <ele>855.6</ele>
        <time>2022-08-29T13:08:29Z</time>
      </trkpt>
      <trkpt lat="42.3543270" lon="-3.6661400">
        <ele>855.6</ele>
        <time>2022-08-29T13:08:30Z</time>
      </trkpt>
      <trkpt lat="42.3543270" lon="-3.6661400">
        <ele>855.4</ele>
        <time>2022-08-29T13:08:31Z</time>
      </trkpt>
      <trkpt lat="42.3543270" lon="-3.6661390">
        <ele>855.6</ele>
        <time>2022-08-29T13:08:32Z</time>
      </trkpt>
      <trkpt lat="42.3543270" lon="-3.6661390">
        <ele>855.6</ele>
        <time>2022-08-29T13:08:33Z</time>
      </trkpt>
      <trkpt lat="42.3543270" lon="-3.6661390">
        <ele>855.6</ele>
        <time>2022-08-29T13:08:34Z</time>
      </trkpt>
      <trkpt lat="42.3543270" lon="-3.6661390">
        <ele>855.6</ele>
        <time>2022-08-29T13:08:35Z</time>
      </trkpt>
      <trkpt lat="42.3543270" lon="-3.6661390">
        <ele>855.4</ele>
        <time>2022-08-29T13:08:36Z</time>
      </trkpt>
      <trkpt lat="42.3543230" lon="-3.6661480">
        <ele>855.6</ele>
        <time>2022-08-29T13:08:37Z</time>
      </trkpt>
      <trkpt lat="42.3543170" lon="-3.6661650">
        <ele>855.6</ele>
        <time>2022-08-29T13:08:38Z</time>
      </trkpt>
      <trkpt lat="42.3543090" lon="-3.6661900">
        <ele>855.6</ele>
        <time>2022-08-29T13:08:39Z</time>
      </trkpt>
      <trkpt lat="42.3543000" lon="-3.6662240">
        <ele>855.4</ele>
        <time>2022-08-29T13:08:40Z</time>
      </trkpt>
      <trkpt lat="42.3542890" lon="-3.6662660">
        <ele>855.6</ele>
        <time>2022-08-29T13:08:41Z</time>
      </trkpt>
      <trkpt lat="42.3542770" lon="-3.6663140">
        <ele>855.4</ele>
        <time>2022-08-29T13:08:42Z</time>
      </trkpt>
      <trkpt lat="42.3542630" lon="-3.6663650">
        <ele>855.4</ele>
        <time>2022-08-29T13:08:43Z</time>
      </trkpt>
      <trkpt lat="42.3542490" lon="-3.6664210">
        <ele>855.4</ele>
        <time>2022-08-29T13:08:44Z</time>
      </trkpt>
      <trkpt lat="42.3542330" lon="-3.6664800">
        <ele>855.4</ele>
        <time>2022-08-29T13:08:45Z</time>
      </trkpt>
      <trkpt lat="42.3542150" lon="-3.6665430">
        <ele>855.4</ele>
        <time>2022-08-29T13:08:46Z</time>
      </trkpt>
      <trkpt lat="42.3541960" lon="-3.6666080">
        <ele>855.4</ele>
        <time>2022-08-29T13:08:47Z</time>
      </trkpt>
      <trkpt lat="42.3541780" lon="-3.6666780">
        <ele>855.2</ele>
        <time>2022-08-29T13:08:48Z</time>
      </trkpt>
      <trkpt lat="42.3541600" lon="-3.6667480">
        <ele>855.2</ele>
        <time>2022-08-29T13:08:49Z</time>
      </trkpt>
      <trkpt lat="42.3541410" lon="-3.6668170">
        <ele>855.2</ele>
        <time>2022-08-29T13:08:50Z</time>
      </trkpt>
      <trkpt lat="42.3541200" lon="-3.6668860">
        <ele>855.0</ele>
        <time>2022-08-29T13:08:51Z</time>
      </trkpt>
      <trkpt lat="42.3540990" lon="-3.6669490">
        <ele>855.0</ele>
        <time>2022-08-29T13:08:52Z</time>
      </trkpt>
      <trkpt lat="42.3540820" lon="-3.6670040">
        <ele>855.0</ele>
        <time>2022-08-29T13:08:53Z</time>
      </trkpt>
      <trkpt lat="42.3540690" lon="-3.6670480">
        <ele>854.8</ele>
        <time>2022-08-29T13:08:54Z</time>
      </trkpt>
      <trkpt lat="42.3540600" lon="-3.6670830">
        <ele>854.8</ele>
        <time>2022-08-29T13:08:55Z</time>
      </trkpt>
      <trkpt lat="42.3540530" lon="-3.6671100">
        <ele>854.6</ele>
        <time>2022-08-29T13:08:56Z</time>
      </trkpt>
      <trkpt lat="42.3540470" lon="-3.6671360">
        <ele>854.6</ele>
        <time>2022-08-29T13:08:57Z</time>
      </trkpt>
      <trkpt lat="42.3540410" lon="-3.6671600">
        <ele>854.4</ele>
        <time>2022-08-29T13:08:58Z</time>
      </trkpt>
      <trkpt lat="42.3540370" lon="-3.6671870">
        <ele>854.4</ele>
        <time>2022-08-29T13:08:59Z</time>
      </trkpt>
      <trkpt lat="42.3540320" lon="-3.6672120">
        <ele>854.2</ele>
        <time>2022-08-29T13:09:00Z</time>
      </trkpt>
      <trkpt lat="42.3540250" lon="-3.6672390">
        <ele>854.2</ele>
        <time>2022-08-29T13:09:01Z</time>
      </trkpt>
      <trkpt lat="42.3540160" lon="-3.6672630">
        <ele>854.0</ele>
        <time>2022-08-29T13:09:02Z</time>
      </trkpt>
      <trkpt lat="42.3540050" lon="-3.6672870">
        <ele>854.0</ele>
        <time>2022-08-29T13:09:03Z</time>
      </trkpt>
      <trkpt lat="42.3539960" lon="-3.6673140">
        <ele>854.0</ele>
        <time>2022-08-29T13:09:04Z</time>
      </trkpt>
      <trkpt lat="42.3539850" lon="-3.6673460">
        <ele>853.8</ele>
        <time>2022-08-29T13:09:05Z</time>
      </trkpt>
      <trkpt lat="42.3539720" lon="-3.6673820">
        <ele>854.0</ele>
        <time>2022-08-29T13:09:06Z</time>
      </trkpt>
      <trkpt lat="42.3539610" lon="-3.6674230">
        <ele>854.0</ele>
        <time>2022-08-29T13:09:07Z</time>
      </trkpt>
      <trkpt lat="42.3539490" lon="-3.6674650">
        <ele>854.0</ele>
        <time>2022-08-29T13:09:08Z</time>
      </trkpt>
      <trkpt lat="42.3539390" lon="-3.6675060">
        <ele>854.0</ele>
        <time>2022-08-29T13:09:09Z</time>
      </trkpt>
      <trkpt lat="42.3539270" lon="-3.6675460">
        <ele>854.0</ele>
        <time>2022-08-29T13:09:10Z</time>
      </trkpt>
      <trkpt lat="42.3539160" lon="-3.6675860">
        <ele>853.8</ele>
        <time>2022-08-29T13:09:11Z</time>
      </trkpt>
      <trkpt lat="42.3539040" lon="-3.6676270">
        <ele>854.0</ele>
        <time>2022-08-29T13:09:12Z</time>
      </trkpt>
      <trkpt lat="42.3538880" lon="-3.6676680">
        <ele>854.0</ele>
        <time>2022-08-29T13:09:13Z</time>
      </trkpt>
      <trkpt lat="42.3538750" lon="-3.6677120">
        <ele>854.0</ele>
        <time>2022-08-29T13:09:14Z</time>
      </trkpt>
      <trkpt lat="42.3538630" lon="-3.6677600">
        <ele>853.8</ele>
        <time>2022-08-29T13:09:15Z</time>
      </trkpt>
      <trkpt lat="42.3538500" lon="-3.6678110">
        <ele>853.8</ele>
        <time>2022-08-29T13:09:16Z</time>
      </trkpt>
      <trkpt lat="42.3538370" lon="-3.6678630">
        <ele>853.8</ele>
        <time>2022-08-29T13:09:17Z</time>
      </trkpt>
      <trkpt lat="42.3538240" lon="-3.6679120">
        <ele>853.6</ele>
        <time>2022-08-29T13:09:18Z</time>
      </trkpt>
      <trkpt lat="42.3538100" lon="-3.6679640">
        <ele>853.6</ele>
        <time>2022-08-29T13:09:19Z</time>
      </trkpt>
      <trkpt lat="42.3537920" lon="-3.6680150">
        <ele>853.6</ele>
        <time>2022-08-29T13:09:20Z</time>
      </trkpt>
      <trkpt lat="42.3537740" lon="-3.6680660">
        <ele>853.6</ele>
        <time>2022-08-29T13:09:21Z</time>
      </trkpt>
      <trkpt lat="42.3537560" lon="-3.6681200">
        <ele>853.4</ele>
        <time>2022-08-29T13:09:22Z</time>
      </trkpt>
      <trkpt lat="42.3537380" lon="-3.6681750">
        <ele>853.4</ele>
        <time>2022-08-29T13:09:23Z</time>
      </trkpt>
      <trkpt lat="42.3537190" lon="-3.6682320">
        <ele>853.2</ele>
        <time>2022-08-29T13:09:24Z</time>
      </trkpt>
      <trkpt lat="42.3537000" lon="-3.6682910">
        <ele>853.2</ele>
        <time>2022-08-29T13:09:25Z</time>
      </trkpt>
      <trkpt lat="42.3536790" lon="-3.6683530">
        <ele>853.0</ele>
        <time>2022-08-29T13:09:26Z</time>
      </trkpt>
      <trkpt lat="42.3536580" lon="-3.6684120">
        <ele>853.0</ele>
        <time>2022-08-29T13:09:27Z</time>
      </trkpt>
      <trkpt lat="42.3536380" lon="-3.6684690">
        <ele>853.0</ele>
        <time>2022-08-29T13:09:28Z</time>
      </trkpt>
      <trkpt lat="42.3536170" lon="-3.6685230">
        <ele>853.0</ele>
        <time>2022-08-29T13:09:29Z</time>
      </trkpt>
      <trkpt lat="42.3535970" lon="-3.6685720">
        <ele>852.8</ele>
        <time>2022-08-29T13:09:30Z</time>
      </trkpt>
      <trkpt lat="42.3535780" lon="-3.6686180">
        <ele>852.8</ele>
        <time>2022-08-29T13:09:31Z</time>
      </trkpt>
      <trkpt lat="42.3535580" lon="-3.6686620">
        <ele>852.8</ele>
        <time>2022-08-29T13:09:32Z</time>
      </trkpt>
      <trkpt lat="42.3535380" lon="-3.6687030">
        <ele>852.6</ele>
        <time>2022-08-29T13:09:33Z</time>
      </trkpt>
      <trkpt lat="42.3535240" lon="-3.6687500">
        <ele>852.4</ele>
        <time>2022-08-29T13:09:34Z</time>
      </trkpt>
      <trkpt lat="42.3535160" lon="-3.6687980">
        <ele>852.2</ele>
        <time>2022-08-29T13:09:35Z</time>
      </trkpt>
      <trkpt lat="42.3535010" lon="-3.6688460">
        <ele>852.2</ele>
        <time>2022-08-29T13:09:36Z</time>
      </trkpt>
      <trkpt lat="42.3534840" lon="-3.6688980">
        <ele>851.8</ele>
        <time>2022-08-29T13:09:37Z</time>
      </trkpt>
      <trkpt lat="42.3534640" lon="-3.6689490">
        <ele>851.6</ele>
        <time>2022-08-29T13:09:38Z</time>
      </trkpt>
      <trkpt lat="42.3534450" lon="-3.6690010">
        <ele>851.6</ele>
        <time>2022-08-29T13:09:39Z</time>
      </trkpt>
      <trkpt lat="42.3534270" lon="-3.6690490">
        <ele>851.6</ele>
        <time>2022-08-29T13:09:40Z</time>
      </trkpt>
      <trkpt lat="42.3534100" lon="-3.6690950">
        <ele>851.6</ele>
        <time>2022-08-29T13:09:41Z</time>
      </trkpt>
      <trkpt lat="42.3533940" lon="-3.6691400">
        <ele>851.4</ele>
        <time>2022-08-29T13:09:42Z</time>
      </trkpt>
      <trkpt lat="42.3533800" lon="-3.6691850">
        <ele>851.4</ele>
        <time>2022-08-29T13:09:43Z</time>
      </trkpt>
      <trkpt lat="42.3533680" lon="-3.6692420">
        <ele>851.4</ele>
        <time>2022-08-29T13:09:44Z</time>
      </trkpt>
      <trkpt lat="42.3533490" lon="-3.6692860">
        <ele>851.4</ele>
        <time>2022-08-29T13:09:45Z</time>
      </trkpt>
      <trkpt lat="42.3533280" lon="-3.6693250">
        <ele>851.2</ele>
        <time>2022-08-29T13:09:46Z</time>
      </trkpt>
      <trkpt lat="42.3533060" lon="-3.6693670">
        <ele>851.0</ele>
        <time>2022-08-29T13:09:47Z</time>
      </trkpt>
      <trkpt lat="42.3532830" lon="-3.6694050">
        <ele>851.0</ele>
        <time>2022-08-29T13:09:48Z</time>
      </trkpt>
      <trkpt lat="42.3532610" lon="-3.6694440">
        <ele>850.8</ele>
        <time>2022-08-29T13:09:49Z</time>
      </trkpt>
      <trkpt lat="42.3532370" lon="-3.6694800">
        <ele>850.6</ele>
        <time>2022-08-29T13:09:50Z</time>
      </trkpt>
      <trkpt lat="42.3532170" lon="-3.6695180">
        <ele>850.6</ele>
        <time>2022-08-29T13:09:51Z</time>
      </trkpt>
      <trkpt lat="42.3531590" lon="-3.6695190">
        <ele>850.6</ele>
        <time>2022-08-29T13:09:52Z</time>
      </trkpt>
      <trkpt lat="42.3531380" lon="-3.6695490">
        <ele>850.6</ele>
        <time>2022-08-29T13:09:53Z</time>
      </trkpt>
      <trkpt lat="42.3530750" lon="-3.6695380">
        <ele>850.6</ele>
        <time>2022-08-29T13:09:54Z</time>
      </trkpt>
      <trkpt lat="42.3529980" lon="-3.6695140">
        <ele>850.6</ele>
        <time>2022-08-29T13:09:55Z</time>
      </trkpt>
      <trkpt lat="42.3529820" lon="-3.6695400">
        <ele>850.6</ele>
        <time>2022-08-29T13:09:56Z</time>
      </trkpt>
      <trkpt lat="42.3529630" lon="-3.6695680">
        <ele>850.6</ele>
        <time>2022-08-29T13:09:57Z</time>
      </trkpt>
      <trkpt lat="42.3529410" lon="-3.6695910">
        <ele>850.6</ele>
        <time>2022-08-29T13:09:58Z</time>
      </trkpt>
      <trkpt lat="42.3529170" lon="-3.6696100">
        <ele>850.4</ele>
        <time>2022-08-29T13:09:59Z</time>
      </trkpt>
      <trkpt lat="42.3528920" lon="-3.6696260">
        <ele>850.6</ele>
        <time>2022-08-29T13:10:00Z</time>
      </trkpt>
      <trkpt lat="42.3528720" lon="-3.6696470">
        <ele>850.4</ele>
        <time>2022-08-29T13:10:01Z</time>
      </trkpt>
      <trkpt lat="42.3528600" lon="-3.6696820">
        <ele>850.2</ele>
        <time>2022-08-29T13:10:02Z</time>
      </trkpt>
      <trkpt lat="42.3528470" lon="-3.6697130">
        <ele>850.4</ele>
        <time>2022-08-29T13:10:03Z</time>
      </trkpt>
      <trkpt lat="42.3528360" lon="-3.6697500">
        <ele>850.2</ele>
        <time>2022-08-29T13:10:04Z</time>
      </trkpt>
      <trkpt lat="42.3528170" lon="-3.6697810">
        <ele>850.0</ele>
        <time>2022-08-29T13:10:05Z</time>
      </trkpt>
      <trkpt lat="42.3528040" lon="-3.6698190">
        <ele>850.0</ele>
        <time>2022-08-29T13:10:06Z</time>
      </trkpt>
      <trkpt lat="42.3527890" lon="-3.6698590">
        <ele>850.0</ele>
        <time>2022-08-29T13:10:07Z</time>
      </trkpt>
      <trkpt lat="42.3527730" lon="-3.6699020">
        <ele>849.8</ele>
        <time>2022-08-29T13:10:08Z</time>
      </trkpt>
      <trkpt lat="42.3527510" lon="-3.6699390">
        <ele>850.0</ele>
        <time>2022-08-29T13:10:09Z</time>
      </trkpt>
      <trkpt lat="42.3527160" lon="-3.6699620">
        <ele>849.8</ele>
        <time>2022-08-29T13:10:10Z</time>
      </trkpt>
      <trkpt lat="42.3526840" lon="-3.6699830">
        <ele>849.8</ele>
        <time>2022-08-29T13:10:11Z</time>
      </trkpt>
      <trkpt lat="42.3526510" lon="-3.6700040">
        <ele>849.8</ele>
        <time>2022-08-29T13:10:12Z</time>
      </trkpt>
      <trkpt lat="42.3526070" lon="-3.6700150">
        <ele>849.6</ele>
        <time>2022-08-29T13:10:13Z</time>
      </trkpt>
      <trkpt lat="42.3525690" lon="-3.6700300">
        <ele>849.6</ele>
        <time>2022-08-29T13:10:14Z</time>
      </trkpt>
      <trkpt lat="42.3525390" lon="-3.6700470">
        <ele>849.6</ele>
        <time>2022-08-29T13:10:15Z</time>
      </trkpt>
      <trkpt lat="42.3525100" lon="-3.6700640">
        <ele>849.6</ele>
        <time>2022-08-29T13:10:16Z</time>
      </trkpt>
      <trkpt lat="42.3524870" lon="-3.6700970">
        <ele>849.6</ele>
        <time>2022-08-29T13:10:17Z</time>
      </trkpt>
      <trkpt lat="42.3524630" lon="-3.6701330">
        <ele>849.4</ele>
        <time>2022-08-29T13:10:18Z</time>
      </trkpt>
      <trkpt lat="42.3524390" lon="-3.6701640">
        <ele>849.4</ele>
        <time>2022-08-29T13:10:19Z</time>
      </trkpt>
      <trkpt lat="42.3524120" lon="-3.6701900">
        <ele>849.4</ele>
        <time>2022-08-29T13:10:20Z</time>
      </trkpt>
      <trkpt lat="42.3523900" lon="-3.6702170">
        <ele>849.4</ele>
        <time>2022-08-29T13:10:21Z</time>
      </trkpt>
      <trkpt lat="42.3523680" lon="-3.6702430">
        <ele>849.4</ele>
        <time>2022-08-29T13:10:22Z</time>
      </trkpt>
      <trkpt lat="42.3523360" lon="-3.6702710">
        <ele>849.4</ele>
        <time>2022-08-29T13:10:23Z</time>
      </trkpt>
      <trkpt lat="42.3523120" lon="-3.6703020">
        <ele>849.4</ele>
        <time>2022-08-29T13:10:24Z</time>
      </trkpt>
      <trkpt lat="42.3522950" lon="-3.6703390">
        <ele>849.2</ele>
        <time>2022-08-29T13:10:25Z</time>
      </trkpt>
      <trkpt lat="42.3522670" lon="-3.6703590">
        <ele>849.4</ele>
        <time>2022-08-29T13:10:26Z</time>
      </trkpt>
      <trkpt lat="42.3522470" lon="-3.6703830">
        <ele>849.4</ele>
        <time>2022-08-29T13:10:27Z</time>
      </trkpt>
      <trkpt lat="42.3522250" lon="-3.6704040">
        <ele>849.2</ele>
        <time>2022-08-29T13:10:28Z</time>
      </trkpt>
      <trkpt lat="42.3522020" lon="-3.6704280">
        <ele>849.2</ele>
        <time>2022-08-29T13:10:29Z</time>
      </trkpt>
      <trkpt lat="42.3521790" lon="-3.6704530">
        <ele>849.2</ele>
        <time>2022-08-29T13:10:30Z</time>
      </trkpt>
      <trkpt lat="42.3521580" lon="-3.6704800">
        <ele>849.2</ele>
        <time>2022-08-29T13:10:31Z</time>
      </trkpt>
      <trkpt lat="42.3521370" lon="-3.6705130">
        <ele>849.2</ele>
        <time>2022-08-29T13:10:32Z</time>
      </trkpt>
      <trkpt lat="42.3521160" lon="-3.6705450">
        <ele>849.2</ele>
        <time>2022-08-29T13:10:33Z</time>
      </trkpt>
      <trkpt lat="42.3520930" lon="-3.6705770">
        <ele>849.2</ele>
        <time>2022-08-29T13:10:34Z</time>
      </trkpt>
      <trkpt lat="42.3520700" lon="-3.6706060">
        <ele>849.0</ele>
        <time>2022-08-29T13:10:35Z</time>
      </trkpt>
      <trkpt lat="42.3520550" lon="-3.6706410">
        <ele>849.2</ele>
        <time>2022-08-29T13:10:36Z</time>
      </trkpt>
      <trkpt lat="42.3520700" lon="-3.6707240">
        <ele>849.0</ele>
        <time>2022-08-29T13:10:37Z</time>
      </trkpt>
      <trkpt lat="42.3520640" lon="-3.6707660">
        <ele>848.8</ele>
        <time>2022-08-29T13:10:38Z</time>
      </trkpt>
      <trkpt lat="42.3520630" lon="-3.6708200">
        <ele>849.0</ele>
        <time>2022-08-29T13:10:39Z</time>
      </trkpt>
      <trkpt lat="42.3520620" lon="-3.6708790">
        <ele>848.8</ele>
        <time>2022-08-29T13:10:40Z</time>
      </trkpt>
      <trkpt lat="42.3520500" lon="-3.6709190">
        <ele>848.8</ele>
        <time>2022-08-29T13:10:41Z</time>
      </trkpt>
      <trkpt lat="42.3520490" lon="-3.6709860">
        <ele>848.8</ele>
        <time>2022-08-29T13:10:42Z</time>
      </trkpt>
      <trkpt lat="42.3520330" lon="-3.6710300">
        <ele>848.8</ele>
        <time>2022-08-29T13:10:43Z</time>
      </trkpt>
      <trkpt lat="42.3520100" lon="-3.6710670">
        <ele>848.8</ele>
        <time>2022-08-29T13:10:44Z</time>
      </trkpt>
      <trkpt lat="42.3519890" lon="-3.6711050">
        <ele>848.8</ele>
        <time>2022-08-29T13:10:45Z</time>
      </trkpt>
      <trkpt lat="42.3519650" lon="-3.6711400">
        <ele>848.8</ele>
        <time>2022-08-29T13:10:46Z</time>
      </trkpt>
      <trkpt lat="42.3519410" lon="-3.6711720">
        <ele>848.8</ele>
        <time>2022-08-29T13:10:47Z</time>
      </trkpt>
      <trkpt lat="42.3519120" lon="-3.6712020">
        <ele>848.8</ele>
        <time>2022-08-29T13:10:48Z</time>
      </trkpt>
      <trkpt lat="42.3518850" lon="-3.6712310">
        <ele>848.6</ele>
        <time>2022-08-29T13:10:49Z</time>
      </trkpt>
      <trkpt lat="42.3518610" lon="-3.6712610">
        <ele>848.6</ele>
        <time>2022-08-29T13:10:50Z</time>
      </trkpt>
      <trkpt lat="42.3518340" lon="-3.6712920">
        <ele>848.8</ele>
        <time>2022-08-29T13:10:51Z</time>
      </trkpt>
      <trkpt lat="42.3518120" lon="-3.6713230">
        <ele>848.8</ele>
        <time>2022-08-29T13:10:52Z</time>
      </trkpt>
      <trkpt lat="42.3517850" lon="-3.6713500">
        <ele>848.6</ele>
        <time>2022-08-29T13:10:53Z</time>
      </trkpt>
      <trkpt lat="42.3517520" lon="-3.6713720">
        <ele>848.8</ele>
        <time>2022-08-29T13:10:54Z</time>
      </trkpt>
      <trkpt lat="42.3517210" lon="-3.6713880">
        <ele>848.8</ele>
        <time>2022-08-29T13:10:55Z</time>
      </trkpt>
      <trkpt lat="42.3516980" lon="-3.6714100">
        <ele>848.8</ele>
        <time>2022-08-29T13:10:56Z</time>
      </trkpt>
      <trkpt lat="42.3516760" lon="-3.6714400">
        <ele>849.0</ele>
        <time>2022-08-29T13:10:57Z</time>
      </trkpt>
      <trkpt lat="42.3516500" lon="-3.6714680">
        <ele>848.8</ele>
        <time>2022-08-29T13:10:58Z</time>
      </trkpt>
      <trkpt lat="42.3516250" lon="-3.6714880">
        <ele>848.8</ele>
        <time>2022-08-29T13:10:59Z</time>
      </trkpt>
      <trkpt lat="42.3516130" lon="-3.6715250">
        <ele>848.8</ele>
        <time>2022-08-29T13:11:00Z</time>
      </trkpt>
      <trkpt lat="42.3515960" lon="-3.6715630">
        <ele>849.0</ele>
        <time>2022-08-29T13:11:01Z</time>
      </trkpt>
      <trkpt lat="42.3515910" lon="-3.6716190">
        <ele>848.8</ele>
        <time>2022-08-29T13:11:02Z</time>
      </trkpt>
      <trkpt lat="42.3515710" lon="-3.6716520">
        <ele>848.8</ele>
        <time>2022-08-29T13:11:03Z</time>
      </trkpt>
      <trkpt lat="42.3515590" lon="-3.6716930">
        <ele>848.8</ele>
        <time>2022-08-29T13:11:04Z</time>
      </trkpt>
      <trkpt lat="42.3515530" lon="-3.6717330">
        <ele>848.8</ele>
        <time>2022-08-29T13:11:05Z</time>
      </trkpt>
      <trkpt lat="42.3515380" lon="-3.6717630">
        <ele>848.8</ele>
        <time>2022-08-29T13:11:06Z</time>
      </trkpt>
      <trkpt lat="42.3515230" lon="-3.6718020">
        <ele>848.8</ele>
        <time>2022-08-29T13:11:07Z</time>
      </trkpt>
      <trkpt lat="42.3515150" lon="-3.6718520">
        <ele>848.8</ele>
        <time>2022-08-29T13:11:08Z</time>
      </trkpt>
      <trkpt lat="42.3515030" lon="-3.6718990">
        <ele>848.6</ele>
        <time>2022-08-29T13:11:09Z</time>
      </trkpt>
      <trkpt lat="42.3514820" lon="-3.6719420">
        <ele>848.8</ele>
        <time>2022-08-29T13:11:10Z</time>
      </trkpt>
      <trkpt lat="42.3514490" lon="-3.6719710">
        <ele>848.6</ele>
        <time>2022-08-29T13:11:11Z</time>
      </trkpt>
      <trkpt lat="42.3514360" lon="-3.6720070">
        <ele>848.6</ele>
        <time>2022-08-29T13:11:12Z</time>
      </trkpt>
      <trkpt lat="42.3514360" lon="-3.6720490">
        <ele>848.6</ele>
        <time>2022-08-29T13:11:13Z</time>
      </trkpt>
      <trkpt lat="42.3514390" lon="-3.6721020">
        <ele>848.6</ele>
        <time>2022-08-29T13:11:14Z</time>
      </trkpt>
      <trkpt lat="42.3514320" lon="-3.6721510">
        <ele>848.6</ele>
        <time>2022-08-29T13:11:15Z</time>
      </trkpt>
      <trkpt lat="42.3514130" lon="-3.6721830">
        <ele>848.6</ele>
        <time>2022-08-29T13:11:16Z</time>
      </trkpt>
      <trkpt lat="42.3514000" lon="-3.6722170">
        <ele>848.6</ele>
        <time>2022-08-29T13:11:17Z</time>
      </trkpt>
      <trkpt lat="42.3513810" lon="-3.6722430">
        <ele>848.6</ele>
        <time>2022-08-29T13:11:18Z</time>
      </trkpt>
      <trkpt lat="42.3513630" lon="-3.6722740">
        <ele>848.6</ele>
        <time>2022-08-29T13:11:19Z</time>
      </trkpt>
      <trkpt lat="42.3513400" lon="-3.6723050">
        <ele>848.6</ele>
        <time>2022-08-29T13:11:20Z</time>
      </trkpt>
      <trkpt lat="42.3513150" lon="-3.6723380">
        <ele>848.6</ele>
        <time>2022-08-29T13:11:21Z</time>
      </trkpt>
      <trkpt lat="42.3512870" lon="-3.6723670">
        <ele>848.4</ele>
        <time>2022-08-29T13:11:22Z</time>
      </trkpt>
      <trkpt lat="42.3512680" lon="-3.6724090">
        <ele>848.4</ele>
        <time>2022-08-29T13:11:23Z</time>
      </trkpt>
      <trkpt lat="42.3512520" lon="-3.6724600">
        <ele>848.4</ele>
        <time>2022-08-29T13:11:24Z</time>
      </trkpt>
      <trkpt lat="42.3512300" lon="-3.6725020">
        <ele>848.4</ele>
        <time>2022-08-29T13:11:25Z</time>
      </trkpt>
      <trkpt lat="42.3512080" lon="-3.6725410">
        <ele>848.4</ele>
        <time>2022-08-29T13:11:26Z</time>
      </trkpt>
      <trkpt lat="42.3511800" lon="-3.6725710">
        <ele>848.6</ele>
        <time>2022-08-29T13:11:27Z</time>
      </trkpt>
      <trkpt lat="42.3511510" lon="-3.6726030">
        <ele>848.6</ele>
        <time>2022-08-29T13:11:28Z</time>
      </trkpt>
      <trkpt lat="42.3511250" lon="-3.6726370">
        <ele>848.6</ele>
        <time>2022-08-29T13:11:29Z</time>
      </trkpt>
      <trkpt lat="42.3511020" lon="-3.6726730">
        <ele>848.6</ele>
        <time>2022-08-29T13:11:30Z</time>
      </trkpt>
      <trkpt lat="42.3510830" lon="-3.6727080">
        <ele>848.4</ele>
        <time>2022-08-29T13:11:31Z</time>
      </trkpt>
      <trkpt lat="42.3510670" lon="-3.6727350">
        <ele>848.2</ele>
        <time>2022-08-29T13:11:32Z</time>
      </trkpt>
      <trkpt lat="42.3510500" lon="-3.6727630">
        <ele>848.2</ele>
        <time>2022-08-29T13:11:33Z</time>
      </trkpt>
      <trkpt lat="42.3510370" lon="-3.6727880">
        <ele>848.4</ele>
        <time>2022-08-29T13:11:34Z</time>
      </trkpt>
      <trkpt lat="42.3510260" lon="-3.6728210">
        <ele>848.4</ele>
        <time>2022-08-29T13:11:35Z</time>
      </trkpt>
      <trkpt lat="42.3510150" lon="-3.6728500">
        <ele>848.4</ele>
        <time>2022-08-29T13:11:36Z</time>
      </trkpt>
      <trkpt lat="42.3510010" lon="-3.6728590">
        <ele>848.2</ele>
        <time>2022-08-29T13:11:37Z</time>
      </trkpt>
      <trkpt lat="42.3509860" lon="-3.6728750">
        <ele>848.2</ele>
        <time>2022-08-29T13:11:38Z</time>
      </trkpt>
      <trkpt lat="42.3509680" lon="-3.6728980">
        <ele>848.2</ele>
        <time>2022-08-29T13:11:39Z</time>
      </trkpt>
      <trkpt lat="42.3509520" lon="-3.6729300">
        <ele>848.4</ele>
        <time>2022-08-29T13:11:40Z</time>
      </trkpt>
      <trkpt lat="42.3509340" lon="-3.6729620">
        <ele>848.4</ele>
        <time>2022-08-29T13:11:41Z</time>
      </trkpt>
      <trkpt lat="42.3509050" lon="-3.6730050">
        <ele>848.2</ele>
        <time>2022-08-29T13:11:42Z</time>
      </trkpt>
      <trkpt lat="42.3508990" lon="-3.6730830">
        <ele>848.2</ele>
        <time>2022-08-29T13:11:43Z</time>
      </trkpt>
      <trkpt lat="42.3508790" lon="-3.6731290">
        <ele>848.2</ele>
        <time>2022-08-29T13:11:44Z</time>
      </trkpt>
      <trkpt lat="42.3508530" lon="-3.6731810">
        <ele>848.2</ele>
        <time>2022-08-29T13:11:45Z</time>
      </trkpt>
      <trkpt lat="42.3508340" lon="-3.6732550">
        <ele>848.2</ele>
        <time>2022-08-29T13:11:46Z</time>
      </trkpt>
      <trkpt lat="42.3508290" lon="-3.6733560">
        <ele>848.0</ele>
        <time>2022-08-29T13:11:47Z</time>
      </trkpt>
      <trkpt lat="42.3508140" lon="-3.6734300">
        <ele>848.2</ele>
        <time>2022-08-29T13:11:48Z</time>
      </trkpt>
      <trkpt lat="42.3507910" lon="-3.6734920">
        <ele>848.0</ele>
        <time>2022-08-29T13:11:49Z</time>
      </trkpt>
      <trkpt lat="42.3507610" lon="-3.6735460">
        <ele>848.0</ele>
        <time>2022-08-29T13:11:50Z</time>
      </trkpt>
      <trkpt lat="42.3507330" lon="-3.6736000">
        <ele>847.8</ele>
        <time>2022-08-29T13:11:51Z</time>
      </trkpt>
      <trkpt lat="42.3507060" lon="-3.6736540">
        <ele>847.8</ele>
        <time>2022-08-29T13:11:52Z</time>
      </trkpt>
      <trkpt lat="42.3506770" lon="-3.6737030">
        <ele>847.6</ele>
        <time>2022-08-29T13:11:53Z</time>
      </trkpt>
      <trkpt lat="42.3506510" lon="-3.6737520">
        <ele>847.8</ele>
        <time>2022-08-29T13:11:54Z</time>
      </trkpt>
      <trkpt lat="42.3506210" lon="-3.6738020">
        <ele>847.8</ele>
        <time>2022-08-29T13:11:55Z</time>
      </trkpt>
      <trkpt lat="42.3505950" lon="-3.6738540">
        <ele>847.8</ele>
        <time>2022-08-29T13:11:56Z</time>
      </trkpt>
      <trkpt lat="42.3505700" lon="-3.6739070">
        <ele>847.8</ele>
        <time>2022-08-29T13:11:57Z</time>
      </trkpt>
      <trkpt lat="42.3505450" lon="-3.6739620">
        <ele>847.6</ele>
        <time>2022-08-29T13:11:58Z</time>
      </trkpt>
      <trkpt lat="42.3505180" lon="-3.6740160">
        <ele>847.6</ele>
        <time>2022-08-29T13:11:59Z</time>
      </trkpt>
      <trkpt lat="42.3504950" lon="-3.6740710">
        <ele>847.6</ele>
        <time>2022-08-29T13:12:00Z</time>
      </trkpt>
      <trkpt lat="42.3504720" lon="-3.6741220">
        <ele>847.6</ele>
        <time>2022-08-29T13:12:01Z</time>
      </trkpt>
      <trkpt lat="42.3504580" lon="-3.6741790">
        <ele>847.6</ele>
        <time>2022-08-29T13:12:02Z</time>
      </trkpt>
      <trkpt lat="42.3504370" lon="-3.6742330">
        <ele>847.6</ele>
        <time>2022-08-29T13:12:03Z</time>
      </trkpt>
      <trkpt lat="42.3504140" lon="-3.6742820">
        <ele>847.4</ele>
        <time>2022-08-29T13:12:04Z</time>
      </trkpt>
      <trkpt lat="42.3503920" lon="-3.6743310">
        <ele>847.6</ele>
        <time>2022-08-29T13:12:05Z</time>
      </trkpt>
      <trkpt lat="42.3503730" lon="-3.6743800">
        <ele>847.4</ele>
        <time>2022-08-29T13:12:06Z</time>
      </trkpt>
      <trkpt lat="42.3503530" lon="-3.6744270">
        <ele>847.2</ele>
        <time>2022-08-29T13:12:07Z</time>
      </trkpt>
      <trkpt lat="42.3503310" lon="-3.6744680">
        <ele>847.0</ele>
        <time>2022-08-29T13:12:08Z</time>
      </trkpt>
      <trkpt lat="42.3503080" lon="-3.6745070">
        <ele>847.0</ele>
        <time>2022-08-29T13:12:09Z</time>
      </trkpt>
      <trkpt lat="42.3502850" lon="-3.6745430">
        <ele>847.0</ele>
        <time>2022-08-29T13:12:10Z</time>
      </trkpt>
      <trkpt lat="42.3502620" lon="-3.6745830">
        <ele>847.0</ele>
        <time>2022-08-29T13:12:11Z</time>
      </trkpt>
      <trkpt lat="42.3502380" lon="-3.6746270">
        <ele>847.0</ele>
        <time>2022-08-29T13:12:12Z</time>
      </trkpt>
      <trkpt lat="42.3502090" lon="-3.6746720">
        <ele>846.8</ele>
        <time>2022-08-29T13:12:13Z</time>
      </trkpt>
      <trkpt lat="42.3501800" lon="-3.6747210">
        <ele>846.8</ele>
        <time>2022-08-29T13:12:14Z</time>
      </trkpt>
      <trkpt lat="42.3501540" lon="-3.6747720">
        <ele>846.8</ele>
        <time>2022-08-29T13:12:15Z</time>
      </trkpt>
      <trkpt lat="42.3501270" lon="-3.6748220">
        <ele>847.0</ele>
        <time>2022-08-29T13:12:16Z</time>
      </trkpt>
      <trkpt lat="42.3501000" lon="-3.6748720">
        <ele>847.0</ele>
        <time>2022-08-29T13:12:17Z</time>
      </trkpt>
      <trkpt lat="42.3500710" lon="-3.6749250">
        <ele>846.8</ele>
        <time>2022-08-29T13:12:18Z</time>
      </trkpt>
      <trkpt lat="42.3500450" lon="-3.6749840">
        <ele>847.0</ele>
        <time>2022-08-29T13:12:19Z</time>
      </trkpt>
      <trkpt lat="42.3500230" lon="-3.6750530">
        <ele>847.0</ele>
        <time>2022-08-29T13:12:20Z</time>
      </trkpt>
      <trkpt lat="42.3499980" lon="-3.6751210">
        <ele>846.8</ele>
        <time>2022-08-29T13:12:21Z</time>
      </trkpt>
      <trkpt lat="42.3499730" lon="-3.6751860">
        <ele>847.0</ele>
        <time>2022-08-29T13:12:22Z</time>
      </trkpt>
      <trkpt lat="42.3499420" lon="-3.6752440">
        <ele>847.0</ele>
        <time>2022-08-29T13:12:23Z</time>
      </trkpt>
      <trkpt lat="42.3499100" lon="-3.6753060">
        <ele>847.2</ele>
        <time>2022-08-29T13:12:24Z</time>
      </trkpt>
      <trkpt lat="42.3498760" lon="-3.6753690">
        <ele>847.0</ele>
        <time>2022-08-29T13:12:25Z</time>
      </trkpt>
      <trkpt lat="42.3498410" lon="-3.6754320">
        <ele>847.0</ele>
        <time>2022-08-29T13:12:26Z</time>
      </trkpt>
      <trkpt lat="42.3498060" lon="-3.6754920">
        <ele>847.0</ele>
        <time>2022-08-29T13:12:27Z</time>
      </trkpt>
      <trkpt lat="42.3497720" lon="-3.6755530">
        <ele>847.0</ele>
        <time>2022-08-29T13:12:28Z</time>
      </trkpt>
      <trkpt lat="42.3497400" lon="-3.6756100">
        <ele>847.0</ele>
        <time>2022-08-29T13:12:29Z</time>
      </trkpt>
      <trkpt lat="42.3497070" lon="-3.6756690">
        <ele>847.0</ele>
        <time>2022-08-29T13:12:30Z</time>
      </trkpt>
      <trkpt lat="42.3496730" lon="-3.6757280">
        <ele>846.8</ele>
        <time>2022-08-29T13:12:31Z</time>
      </trkpt>
      <trkpt lat="42.3496390" lon="-3.6757890">
        <ele>847.0</ele>
        <time>2022-08-29T13:12:32Z</time>
      </trkpt>
      <trkpt lat="42.3496060" lon="-3.6758510">
        <ele>846.8</ele>
        <time>2022-08-29T13:12:33Z</time>
      </trkpt>
      <trkpt lat="42.3495740" lon="-3.6759130">
        <ele>847.0</ele>
        <time>2022-08-29T13:12:34Z</time>
      </trkpt>
      <trkpt lat="42.3495420" lon="-3.6759730">
        <ele>846.8</ele>
        <time>2022-08-29T13:12:35Z</time>
      </trkpt>
      <trkpt lat="42.3495100" lon="-3.6760320">
        <ele>846.8</ele>
        <time>2022-08-29T13:12:36Z</time>
      </trkpt>
      <trkpt lat="42.3494790" lon="-3.6760900">
        <ele>846.8</ele>
        <time>2022-08-29T13:12:37Z</time>
      </trkpt>
      <trkpt lat="42.3494480" lon="-3.6761470">
        <ele>846.8</ele>
        <time>2022-08-29T13:12:38Z</time>
      </trkpt>
      <trkpt lat="42.3494160" lon="-3.6762040">
        <ele>846.8</ele>
        <time>2022-08-29T13:12:39Z</time>
      </trkpt>
      <trkpt lat="42.3493810" lon="-3.6762600">
        <ele>846.8</ele>
        <time>2022-08-29T13:12:40Z</time>
      </trkpt>
      <trkpt lat="42.3493470" lon="-3.6763180">
        <ele>846.8</ele>
        <time>2022-08-29T13:12:41Z</time>
      </trkpt>
      <trkpt lat="42.3493090" lon="-3.6763730">
        <ele>846.8</ele>
        <time>2022-08-29T13:12:42Z</time>
      </trkpt>
      <trkpt lat="42.3492740" lon="-3.6764280">
        <ele>846.8</ele>
        <time>2022-08-29T13:12:43Z</time>
      </trkpt>
      <trkpt lat="42.3492430" lon="-3.6764850">
        <ele>846.8</ele>
        <time>2022-08-29T13:12:44Z</time>
      </trkpt>
      <trkpt lat="42.3492100" lon="-3.6765440">
        <ele>846.8</ele>
        <time>2022-08-29T13:12:45Z</time>
      </trkpt>
      <trkpt lat="42.3491740" lon="-3.6765970">
        <ele>847.0</ele>
        <time>2022-08-29T13:12:46Z</time>
      </trkpt>
      <trkpt lat="42.3491430" lon="-3.6766570">
        <ele>846.8</ele>
        <time>2022-08-29T13:12:47Z</time>
      </trkpt>
      <trkpt lat="42.3491080" lon="-3.6767130">
        <ele>846.8</ele>
        <time>2022-08-29T13:12:48Z</time>
      </trkpt>
      <trkpt lat="42.3490740" lon="-3.6767700">
        <ele>846.8</ele>
        <time>2022-08-29T13:12:49Z</time>
      </trkpt>
      <trkpt lat="42.3490370" lon="-3.6768270">
        <ele>846.6</ele>
        <time>2022-08-29T13:12:50Z</time>
      </trkpt>
      <trkpt lat="42.3490020" lon="-3.6768850">
        <ele>846.8</ele>
        <time>2022-08-29T13:12:51Z</time>
      </trkpt>
      <trkpt lat="42.3489710" lon="-3.6769430">
        <ele>846.6</ele>
        <time>2022-08-29T13:12:52Z</time>
      </trkpt>
      <trkpt lat="42.3489380" lon="-3.6770040">
        <ele>846.8</ele>
        <time>2022-08-29T13:12:53Z</time>
      </trkpt>
      <trkpt lat="42.3489080" lon="-3.6770650">
        <ele>846.6</ele>
        <time>2022-08-29T13:12:54Z</time>
      </trkpt>
      <trkpt lat="42.3488770" lon="-3.6771280">
        <ele>846.8</ele>
        <time>2022-08-29T13:12:55Z</time>
      </trkpt>
      <trkpt lat="42.3488460" lon="-3.6771940">
        <ele>846.6</ele>
        <time>2022-08-29T13:12:56Z</time>
      </trkpt>
      <trkpt lat="42.3488110" lon="-3.6772580">
        <ele>846.8</ele>
        <time>2022-08-29T13:12:57Z</time>
      </trkpt>
      <trkpt lat="42.3487770" lon="-3.6773200">
        <ele>846.6</ele>
        <time>2022-08-29T13:12:58Z</time>
      </trkpt>
      <trkpt lat="42.3487460" lon="-3.6773870">
        <ele>846.8</ele>
        <time>2022-08-29T13:12:59Z</time>
      </trkpt>
      <trkpt lat="42.3487140" lon="-3.6774520">
        <ele>846.6</ele>
        <time>2022-08-29T13:13:00Z</time>
      </trkpt>
      <trkpt lat="42.3486820" lon="-3.6775150">
        <ele>846.6</ele>
        <time>2022-08-29T13:13:01Z</time>
      </trkpt>
      <trkpt lat="42.3486470" lon="-3.6775750">
        <ele>846.6</ele>
        <time>2022-08-29T13:13:02Z</time>
      </trkpt>
      <trkpt lat="42.3486110" lon="-3.6776360">
        <ele>846.6</ele>
        <time>2022-08-29T13:13:03Z</time>
      </trkpt>
      <trkpt lat="42.3485780" lon="-3.6776980">
        <ele>846.6</ele>
        <time>2022-08-29T13:13:04Z</time>
      </trkpt>
      <trkpt lat="42.3485460" lon="-3.6777600">
        <ele>846.6</ele>
        <time>2022-08-29T13:13:05Z</time>
      </trkpt>
      <trkpt lat="42.3485140" lon="-3.6778220">
        <ele>846.6</ele>
        <time>2022-08-29T13:13:06Z</time>
      </trkpt>
      <trkpt lat="42.3484820" lon="-3.6778830">
        <ele>846.6</ele>
        <time>2022-08-29T13:13:07Z</time>
      </trkpt>
      <trkpt lat="42.3484500" lon="-3.6779440">
        <ele>846.6</ele>
        <time>2022-08-29T13:13:08Z</time>
      </trkpt>
      <trkpt lat="42.3484170" lon="-3.6780060">
        <ele>846.8</ele>
        <time>2022-08-29T13:13:09Z</time>
      </trkpt>
      <trkpt lat="42.3483820" lon="-3.6780640">
        <ele>846.8</ele>
        <time>2022-08-29T13:13:10Z</time>
      </trkpt>
      <trkpt lat="42.3483490" lon="-3.6781250">
        <ele>846.6</ele>
        <time>2022-08-29T13:13:11Z</time>
      </trkpt>
      <trkpt lat="42.3483190" lon="-3.6781920">
        <ele>846.6</ele>
        <time>2022-08-29T13:13:12Z</time>
      </trkpt>
      <trkpt lat="42.3482870" lon="-3.6782540">
        <ele>846.6</ele>
        <time>2022-08-29T13:13:13Z</time>
      </trkpt>
      <trkpt lat="42.3482590" lon="-3.6783170">
        <ele>846.6</ele>
        <time>2022-08-29T13:13:14Z</time>
      </trkpt>
      <trkpt lat="42.3482280" lon="-3.6783790">
        <ele>846.6</ele>
        <time>2022-08-29T13:13:15Z</time>
      </trkpt>
      <trkpt lat="42.3482000" lon="-3.6784520">
        <ele>846.4</ele>
        <time>2022-08-29T13:13:16Z</time>
      </trkpt>
      <trkpt lat="42.3481660" lon="-3.6785200">
        <ele>846.6</ele>
        <time>2022-08-29T13:13:17Z</time>
      </trkpt>
      <trkpt lat="42.3481300" lon="-3.6785870">
        <ele>846.6</ele>
        <time>2022-08-29T13:13:18Z</time>
      </trkpt>
      <trkpt lat="42.3480890" lon="-3.6786490">
        <ele>846.4</ele>
        <time>2022-08-29T13:13:19Z</time>
      </trkpt>
      <trkpt lat="42.3480510" lon="-3.6787130">
        <ele>846.4</ele>
        <time>2022-08-29T13:13:20Z</time>
      </trkpt>
      <trkpt lat="42.3480170" lon="-3.6787830">
        <ele>846.4</ele>
        <time>2022-08-29T13:13:21Z</time>
      </trkpt>
      <trkpt lat="42.3479800" lon="-3.6788520">
        <ele>846.4</ele>
        <time>2022-08-29T13:13:22Z</time>
      </trkpt>
      <trkpt lat="42.3479430" lon="-3.6789220">
        <ele>846.4</ele>
        <time>2022-08-29T13:13:23Z</time>
      </trkpt>
      <trkpt lat="42.3479070" lon="-3.6789910">
        <ele>846.4</ele>
        <time>2022-08-29T13:13:24Z</time>
      </trkpt>
      <trkpt lat="42.3478700" lon="-3.6790580">
        <ele>846.4</ele>
        <time>2022-08-29T13:13:25Z</time>
      </trkpt>
      <trkpt lat="42.3478330" lon="-3.6791280">
        <ele>846.4</ele>
        <time>2022-08-29T13:13:26Z</time>
      </trkpt>
      <trkpt lat="42.3477980" lon="-3.6791960">
        <ele>846.4</ele>
        <time>2022-08-29T13:13:27Z</time>
      </trkpt>
      <trkpt lat="42.3477610" lon="-3.6792680">
        <ele>846.4</ele>
        <time>2022-08-29T13:13:28Z</time>
      </trkpt>
      <trkpt lat="42.3477240" lon="-3.6793410">
        <ele>846.2</ele>
        <time>2022-08-29T13:13:29Z</time>
      </trkpt>
      <trkpt lat="42.3476860" lon="-3.6794150">
        <ele>846.2</ele>
        <time>2022-08-29T13:13:30Z</time>
      </trkpt>
      <trkpt lat="42.3476470" lon="-3.6794870">
        <ele>846.2</ele>
        <time>2022-08-29T13:13:31Z</time>
      </trkpt>
      <trkpt lat="42.3476080" lon="-3.6795580">
        <ele>846.2</ele>
        <time>2022-08-29T13:13:32Z</time>
      </trkpt>
      <trkpt lat="42.3475720" lon="-3.6796290">
        <ele>846.2</ele>
        <time>2022-08-29T13:13:33Z</time>
      </trkpt>
      <trkpt lat="42.3475370" lon="-3.6797050">
        <ele>846.0</ele>
        <time>2022-08-29T13:13:34Z</time>
      </trkpt>
      <trkpt lat="42.3474990" lon="-3.6797790">
        <ele>846.0</ele>
        <time>2022-08-29T13:13:35Z</time>
      </trkpt>
      <trkpt lat="42.3474620" lon="-3.6798520">
        <ele>845.8</ele>
        <time>2022-08-29T13:13:36Z</time>
      </trkpt>
      <trkpt lat="42.3474230" lon="-3.6799240">
        <ele>846.0</ele>
        <time>2022-08-29T13:13:37Z</time>
      </trkpt>
      <trkpt lat="42.3473840" lon="-3.6799970">
        <ele>845.8</ele>
        <time>2022-08-29T13:13:38Z</time>
      </trkpt>
      <trkpt lat="42.3473440" lon="-3.6800730">
        <ele>845.8</ele>
        <time>2022-08-29T13:13:39Z</time>
      </trkpt>
      <trkpt lat="42.3473050" lon="-3.6801480">
        <ele>845.8</ele>
        <time>2022-08-29T13:13:40Z</time>
      </trkpt>
      <trkpt lat="42.3472640" lon="-3.6802200">
        <ele>845.8</ele>
        <time>2022-08-29T13:13:41Z</time>
      </trkpt>
      <trkpt lat="42.3472260" lon="-3.6802970">
        <ele>845.8</ele>
        <time>2022-08-29T13:13:42Z</time>
      </trkpt>
      <trkpt lat="42.3471870" lon="-3.6803730">
        <ele>845.6</ele>
        <time>2022-08-29T13:13:43Z</time>
      </trkpt>
      <trkpt lat="42.3471480" lon="-3.6804480">
        <ele>845.6</ele>
        <time>2022-08-29T13:13:44Z</time>
      </trkpt>
      <trkpt lat="42.3471090" lon="-3.6805210">
        <ele>845.6</ele>
        <time>2022-08-29T13:13:45Z</time>
      </trkpt>
      <trkpt lat="42.3470750" lon="-3.6806010">
        <ele>845.6</ele>
        <time>2022-08-29T13:13:46Z</time>
      </trkpt>
      <trkpt lat="42.3470340" lon="-3.6806700">
        <ele>845.4</ele>
        <time>2022-08-29T13:13:47Z</time>
      </trkpt>
      <trkpt lat="42.3469890" lon="-3.6807310">
        <ele>845.6</ele>
        <time>2022-08-29T13:13:48Z</time>
      </trkpt>
      <trkpt lat="42.3469520" lon="-3.6807940">
        <ele>845.6</ele>
        <time>2022-08-29T13:13:49Z</time>
      </trkpt>
      <trkpt lat="42.3469140" lon="-3.6808640">
        <ele>845.6</ele>
        <time>2022-08-29T13:13:50Z</time>
      </trkpt>
      <trkpt lat="42.3468790" lon="-3.6809400">
        <ele>845.4</ele>
        <time>2022-08-29T13:13:51Z</time>
      </trkpt>
      <trkpt lat="42.3468420" lon="-3.6810140">
        <ele>845.4</ele>
        <time>2022-08-29T13:13:52Z</time>
      </trkpt>
      <trkpt lat="42.3468030" lon="-3.6810880">
        <ele>845.4</ele>
        <time>2022-08-29T13:13:53Z</time>
      </trkpt>
      <trkpt lat="42.3467650" lon="-3.6811660">
        <ele>845.2</ele>
        <time>2022-08-29T13:13:54Z</time>
      </trkpt>
      <trkpt lat="42.3467250" lon="-3.6812410">
        <ele>845.2</ele>
        <time>2022-08-29T13:13:55Z</time>
      </trkpt>
      <trkpt lat="42.3466860" lon="-3.6813140">
        <ele>845.2</ele>
        <time>2022-08-29T13:13:56Z</time>
      </trkpt>
      <trkpt lat="42.3466460" lon="-3.6813880">
        <ele>845.0</ele>
        <time>2022-08-29T13:13:57Z</time>
      </trkpt>
      <trkpt lat="42.3466060" lon="-3.6814610">
        <ele>845.0</ele>
        <time>2022-08-29T13:13:58Z</time>
      </trkpt>
      <trkpt lat="42.3465650" lon="-3.6815370">
        <ele>845.0</ele>
        <time>2022-08-29T13:13:59Z</time>
      </trkpt>
      <trkpt lat="42.3465210" lon="-3.6816110">
        <ele>845.0</ele>
        <time>2022-08-29T13:14:00Z</time>
      </trkpt>
      <trkpt lat="42.3464800" lon="-3.6816860">
        <ele>844.8</ele>
        <time>2022-08-29T13:14:01Z</time>
      </trkpt>
      <trkpt lat="42.3464380" lon="-3.6817570">
        <ele>844.8</ele>
        <time>2022-08-29T13:14:02Z</time>
      </trkpt>
      <trkpt lat="42.3463970" lon="-3.6818260">
        <ele>844.6</ele>
        <time>2022-08-29T13:14:03Z</time>
      </trkpt>
      <trkpt lat="42.3463600" lon="-3.6819010">
        <ele>844.6</ele>
        <time>2022-08-29T13:14:04Z</time>
      </trkpt>
      <trkpt lat="42.3463210" lon="-3.6819750">
        <ele>844.6</ele>
        <time>2022-08-29T13:14:05Z</time>
      </trkpt>
      <trkpt lat="42.3462790" lon="-3.6820460">
        <ele>844.4</ele>
        <time>2022-08-29T13:14:06Z</time>
      </trkpt>
      <trkpt lat="42.3462340" lon="-3.6821170">
        <ele>844.4</ele>
        <time>2022-08-29T13:14:07Z</time>
      </trkpt>
      <trkpt lat="42.3461910" lon="-3.6821870">
        <ele>844.4</ele>
        <time>2022-08-29T13:14:08Z</time>
      </trkpt>
      <trkpt lat="42.3461520" lon="-3.6822580">
        <ele>844.4</ele>
        <time>2022-08-29T13:14:09Z</time>
      </trkpt>
      <trkpt lat="42.3461150" lon="-3.6823300">
        <ele>844.4</ele>
        <time>2022-08-29T13:14:10Z</time>
      </trkpt>
      <trkpt lat="42.3460670" lon="-3.6823950">
        <ele>844.4</ele>
        <time>2022-08-29T13:14:11Z</time>
      </trkpt>
      <trkpt lat="42.3460250" lon="-3.6824670">
        <ele>844.4</ele>
        <time>2022-08-29T13:14:12Z</time>
      </trkpt>
      <trkpt lat="42.3459810" lon="-3.6825380">
        <ele>844.2</ele>
        <time>2022-08-29T13:14:13Z</time>
      </trkpt>
      <trkpt lat="42.3459420" lon="-3.6826110">
        <ele>844.4</ele>
        <time>2022-08-29T13:14:14Z</time>
      </trkpt>
      <trkpt lat="42.3458980" lon="-3.6826800">
        <ele>844.4</ele>
        <time>2022-08-29T13:14:15Z</time>
      </trkpt>
      <trkpt lat="42.3458600" lon="-3.6827540">
        <ele>844.4</ele>
        <time>2022-08-29T13:14:16Z</time>
      </trkpt>
      <trkpt lat="42.3458220" lon="-3.6828270">
        <ele>844.4</ele>
        <time>2022-08-29T13:14:17Z</time>
      </trkpt>
      <trkpt lat="42.3457840" lon="-3.6829020">
        <ele>844.2</ele>
        <time>2022-08-29T13:14:18Z</time>
      </trkpt>
      <trkpt lat="42.3457450" lon="-3.6829740">
        <ele>844.2</ele>
        <time>2022-08-29T13:14:19Z</time>
      </trkpt>
      <trkpt lat="42.3457050" lon="-3.6830450">
        <ele>844.2</ele>
        <time>2022-08-29T13:14:20Z</time>
      </trkpt>
      <trkpt lat="42.3456650" lon="-3.6831150">
        <ele>844.4</ele>
        <time>2022-08-29T13:14:21Z</time>
      </trkpt>
      <trkpt lat="42.3456260" lon="-3.6831850">
        <ele>844.4</ele>
        <time>2022-08-29T13:14:22Z</time>
      </trkpt>
      <trkpt lat="42.3455860" lon="-3.6832540">
        <ele>844.2</ele>
        <time>2022-08-29T13:14:23Z</time>
      </trkpt>
      <trkpt lat="42.3455470" lon="-3.6833250">
        <ele>844.4</ele>
        <time>2022-08-29T13:14:24Z</time>
      </trkpt>
      <trkpt lat="42.3455080" lon="-3.6833960">
        <ele>844.4</ele>
        <time>2022-08-29T13:14:25Z</time>
      </trkpt>
      <trkpt lat="42.3454680" lon="-3.6834670">
        <ele>844.2</ele>
        <time>2022-08-29T13:14:26Z</time>
      </trkpt>
      <trkpt lat="42.3454290" lon="-3.6835400">
        <ele>844.2</ele>
        <time>2022-08-29T13:14:27Z</time>
      </trkpt>
      <trkpt lat="42.3453850" lon="-3.6836090">
        <ele>844.2</ele>
        <time>2022-08-29T13:14:28Z</time>
      </trkpt>
      <trkpt lat="42.3453440" lon="-3.6836730">
        <ele>844.0</ele>
        <time>2022-08-29T13:14:29Z</time>
      </trkpt>
      <trkpt lat="42.3453050" lon="-3.6837400">
        <ele>844.2</ele>
        <time>2022-08-29T13:14:30Z</time>
      </trkpt>
      <trkpt lat="42.3452690" lon="-3.6838110">
        <ele>844.0</ele>
        <time>2022-08-29T13:14:31Z</time>
      </trkpt>
      <trkpt lat="42.3452340" lon="-3.6838820">
        <ele>844.0</ele>
        <time>2022-08-29T13:14:32Z</time>
      </trkpt>
      <trkpt lat="42.3451960" lon="-3.6839520">
        <ele>844.0</ele>
        <time>2022-08-29T13:14:33Z</time>
      </trkpt>
      <trkpt lat="42.3451630" lon="-3.6840200">
        <ele>844.0</ele>
        <time>2022-08-29T13:14:34Z</time>
      </trkpt>
      <trkpt lat="42.3451310" lon="-3.6840840">
        <ele>843.8</ele>
        <time>2022-08-29T13:14:35Z</time>
      </trkpt>
      <trkpt lat="42.3451010" lon="-3.6841400">
        <ele>844.0</ele>
        <time>2022-08-29T13:14:36Z</time>
      </trkpt>
      <trkpt lat="42.3450740" lon="-3.6841920">
        <ele>844.0</ele>
        <time>2022-08-29T13:14:37Z</time>
      </trkpt>
      <trkpt lat="42.3450540" lon="-3.6842440">
        <ele>844.0</ele>
        <time>2022-08-29T13:14:38Z</time>
      </trkpt>
      <trkpt lat="42.3450300" lon="-3.6842870">
        <ele>844.0</ele>
        <time>2022-08-29T13:14:39Z</time>
      </trkpt>
      <trkpt lat="42.3450070" lon="-3.6843290">
        <ele>844.0</ele>
        <time>2022-08-29T13:14:40Z</time>
      </trkpt>
      <trkpt lat="42.3449830" lon="-3.6843680">
        <ele>844.0</ele>
        <time>2022-08-29T13:14:41Z</time>
      </trkpt>
      <trkpt lat="42.3449650" lon="-3.6844060">
        <ele>844.0</ele>
        <time>2022-08-29T13:14:42Z</time>
      </trkpt>
      <trkpt lat="42.3449490" lon="-3.6844390">
        <ele>844.0</ele>
        <time>2022-08-29T13:14:43Z</time>
      </trkpt>
      <trkpt lat="42.3449350" lon="-3.6844650">
        <ele>844.0</ele>
        <time>2022-08-29T13:14:44Z</time>
      </trkpt>
      <trkpt lat="42.3449220" lon="-3.6844840">
        <ele>844.0</ele>
        <time>2022-08-29T13:14:45Z</time>
      </trkpt>
      <trkpt lat="42.3449130" lon="-3.6845030">
        <ele>844.0</ele>
        <time>2022-08-29T13:14:46Z</time>
      </trkpt>
      <trkpt lat="42.3449080" lon="-3.6845240">
        <ele>844.0</ele>
        <time>2022-08-29T13:14:47Z</time>
      </trkpt>
      <trkpt lat="42.3449000" lon="-3.6845420">
        <ele>844.0</ele>
        <time>2022-08-29T13:14:48Z</time>
      </trkpt>
      <trkpt lat="42.3448900" lon="-3.6845570">
        <ele>844.2</ele>
        <time>2022-08-29T13:14:49Z</time>
      </trkpt>
      <trkpt lat="42.3448820" lon="-3.6845690">
        <ele>844.2</ele>
        <time>2022-08-29T13:14:50Z</time>
      </trkpt>
      <trkpt lat="42.3448800" lon="-3.6845740">
        <ele>844.2</ele>
        <time>2022-08-29T13:14:51Z</time>
      </trkpt>
      <trkpt lat="42.3448830" lon="-3.6845710">
        <ele>844.4</ele>
        <time>2022-08-29T13:14:52Z</time>
      </trkpt>
      <trkpt lat="42.3448830" lon="-3.6845700">
        <ele>844.4</ele>
        <time>2022-08-29T13:14:53Z</time>
      </trkpt>
      <trkpt lat="42.3448820" lon="-3.6845680">
        <ele>844.4</ele>
        <time>2022-08-29T13:14:54Z</time>
      </trkpt>
      <trkpt lat="42.3448820" lon="-3.6845660">
        <ele>844.6</ele>
        <time>2022-08-29T13:14:55Z</time>
      </trkpt>
      <trkpt lat="42.3448830" lon="-3.6845640">
        <ele>844.6</ele>
        <time>2022-08-29T13:14:56Z</time>
      </trkpt>
      <trkpt lat="42.3448830" lon="-3.6845620">
        <ele>844.6</ele>
        <time>2022-08-29T13:14:57Z</time>
      </trkpt>
      <trkpt lat="42.3448840" lon="-3.6845600">
        <ele>844.6</ele>
        <time>2022-08-29T13:14:58Z</time>
      </trkpt>
      <trkpt lat="42.3448830" lon="-3.6845600">
        <ele>844.4</ele>
        <time>2022-08-29T13:14:59Z</time>
      </trkpt>
      <trkpt lat="42.3448800" lon="-3.6845660">
        <ele>844.6</ele>
        <time>2022-08-29T13:15:00Z</time>
      </trkpt>
      <trkpt lat="42.3448770" lon="-3.6845750">
        <ele>844.6</ele>
        <time>2022-08-29T13:15:01Z</time>
      </trkpt>
      <trkpt lat="42.3448720" lon="-3.6845900">
        <ele>844.6</ele>
        <time>2022-08-29T13:15:02Z</time>
      </trkpt>
      <trkpt lat="42.3448640" lon="-3.6846120">
        <ele>844.6</ele>
        <time>2022-08-29T13:15:03Z</time>
      </trkpt>
      <trkpt lat="42.3448570" lon="-3.6846380">
        <ele>844.6</ele>
        <time>2022-08-29T13:15:04Z</time>
      </trkpt>
      <trkpt lat="42.3448480" lon="-3.6846630">
        <ele>844.6</ele>
        <time>2022-08-29T13:15:05Z</time>
      </trkpt>
      <trkpt lat="42.3448280" lon="-3.6846960">
        <ele>844.6</ele>
        <time>2022-08-29T13:15:06Z</time>
      </trkpt>
      <trkpt lat="42.3448080" lon="-3.6847280">
        <ele>844.4</ele>
        <time>2022-08-29T13:15:07Z</time>
      </trkpt>
      <trkpt lat="42.3447850" lon="-3.6847630">
        <ele>844.4</ele>
        <time>2022-08-29T13:15:08Z</time>
      </trkpt>
      <trkpt lat="42.3447580" lon="-3.6847950">
        <ele>844.4</ele>
        <time>2022-08-29T13:15:09Z</time>
      </trkpt>
      <trkpt lat="42.3447310" lon="-3.6848260">
        <ele>844.4</ele>
        <time>2022-08-29T13:15:10Z</time>
      </trkpt>
      <trkpt lat="42.3447100" lon="-3.6848570">
        <ele>844.4</ele>
        <time>2022-08-29T13:15:11Z</time>
      </trkpt>
      <trkpt lat="42.3446860" lon="-3.6848940">
        <ele>844.2</ele>
        <time>2022-08-29T13:15:12Z</time>
      </trkpt>
      <trkpt lat="42.3446540" lon="-3.6849340">
        <ele>844.2</ele>
        <time>2022-08-29T13:15:13Z</time>
      </trkpt>
      <trkpt lat="42.3446250" lon="-3.6849760">
        <ele>844.4</ele>
        <time>2022-08-29T13:15:14Z</time>
      </trkpt>
      <trkpt lat="42.3445970" lon="-3.6850240">
        <ele>844.2</ele>
        <time>2022-08-29T13:15:15Z</time>
      </trkpt>
      <trkpt lat="42.3445720" lon="-3.6850720">
        <ele>844.2</ele>
        <time>2022-08-29T13:15:16Z</time>
      </trkpt>
      <trkpt lat="42.3445500" lon="-3.6851220">
        <ele>844.2</ele>
        <time>2022-08-29T13:15:17Z</time>
      </trkpt>
      <trkpt lat="42.3445250" lon="-3.6851710">
        <ele>844.0</ele>
        <time>2022-08-29T13:15:18Z</time>
      </trkpt>
      <trkpt lat="42.3445000" lon="-3.6852200">
        <ele>844.0</ele>
        <time>2022-08-29T13:15:19Z</time>
      </trkpt>
      <trkpt lat="42.3444750" lon="-3.6852680">
        <ele>844.0</ele>
        <time>2022-08-29T13:15:20Z</time>
      </trkpt>
      <trkpt lat="42.3444510" lon="-3.6853180">
        <ele>844.0</ele>
        <time>2022-08-29T13:15:21Z</time>
      </trkpt>
      <trkpt lat="42.3444270" lon="-3.6853660">
        <ele>844.0</ele>
        <time>2022-08-29T13:15:22Z</time>
      </trkpt>
      <trkpt lat="42.3444040" lon="-3.6854150">
        <ele>843.8</ele>
        <time>2022-08-29T13:15:23Z</time>
      </trkpt>
      <trkpt lat="42.3443820" lon="-3.6854650">
        <ele>843.8</ele>
        <time>2022-08-29T13:15:24Z</time>
      </trkpt>
      <trkpt lat="42.3443590" lon="-3.6855160">
        <ele>843.6</ele>
        <time>2022-08-29T13:15:25Z</time>
      </trkpt>
      <trkpt lat="42.3443320" lon="-3.6855660">
        <ele>843.6</ele>
        <time>2022-08-29T13:15:26Z</time>
      </trkpt>
      <trkpt lat="42.3443050" lon="-3.6856130">
        <ele>843.4</ele>
        <time>2022-08-29T13:15:27Z</time>
      </trkpt>
      <trkpt lat="42.3442810" lon="-3.6856660">
        <ele>843.4</ele>
        <time>2022-08-29T13:15:28Z</time>
      </trkpt>
      <trkpt lat="42.3442590" lon="-3.6857170">
        <ele>843.4</ele>
        <time>2022-08-29T13:15:29Z</time>
      </trkpt>
      <trkpt lat="42.3442360" lon="-3.6857670">
        <ele>843.4</ele>
        <time>2022-08-29T13:15:30Z</time>
      </trkpt>
      <trkpt lat="42.3442150" lon="-3.6858180">
        <ele>843.4</ele>
        <time>2022-08-29T13:15:31Z</time>
      </trkpt>
      <trkpt lat="42.3441930" lon="-3.6858700">
        <ele>843.4</ele>
        <time>2022-08-29T13:15:32Z</time>
      </trkpt>
      <trkpt lat="42.3441730" lon="-3.6859230">
        <ele>843.4</ele>
        <time>2022-08-29T13:15:33Z</time>
      </trkpt>
      <trkpt lat="42.3441540" lon="-3.6859760">
        <ele>843.2</ele>
        <time>2022-08-29T13:15:34Z</time>
      </trkpt>
      <trkpt lat="42.3441350" lon="-3.6860320">
        <ele>843.4</ele>
        <time>2022-08-29T13:15:35Z</time>
      </trkpt>
      <trkpt lat="42.3441170" lon="-3.6860920">
        <ele>843.4</ele>
        <time>2022-08-29T13:15:36Z</time>
      </trkpt>
      <trkpt lat="42.3440960" lon="-3.6861560">
        <ele>843.4</ele>
        <time>2022-08-29T13:15:37Z</time>
      </trkpt>
      <trkpt lat="42.3440790" lon="-3.6862160">
        <ele>843.4</ele>
        <time>2022-08-29T13:15:38Z</time>
      </trkpt>
      <trkpt lat="42.3440630" lon="-3.6862780">
        <ele>843.4</ele>
        <time>2022-08-29T13:15:39Z</time>
      </trkpt>
      <trkpt lat="42.3440440" lon="-3.6863380">
        <ele>843.4</ele>
        <time>2022-08-29T13:15:40Z</time>
      </trkpt>
      <trkpt lat="42.3440260" lon="-3.6864010">
        <ele>843.4</ele>
        <time>2022-08-29T13:15:41Z</time>
      </trkpt>
      <trkpt lat="42.3440040" lon="-3.6864660">
        <ele>843.4</ele>
        <time>2022-08-29T13:15:42Z</time>
      </trkpt>
      <trkpt lat="42.3439860" lon="-3.6865400">
        <ele>843.4</ele>
        <time>2022-08-29T13:15:43Z</time>
      </trkpt>
      <trkpt lat="42.3439680" lon="-3.6866110">
        <ele>843.4</ele>
        <time>2022-08-29T13:15:44Z</time>
      </trkpt>
      <trkpt lat="42.3439500" lon="-3.6866750">
        <ele>843.6</ele>
        <time>2022-08-29T13:15:45Z</time>
      </trkpt>
      <trkpt lat="42.3439330" lon="-3.6867370">
        <ele>843.4</ele>
        <time>2022-08-29T13:15:46Z</time>
      </trkpt>
      <trkpt lat="42.3439180" lon="-3.6868030">
        <ele>843.4</ele>
        <time>2022-08-29T13:15:47Z</time>
      </trkpt>
      <trkpt lat="42.3439010" lon="-3.6868660">
        <ele>843.4</ele>
        <time>2022-08-29T13:15:48Z</time>
      </trkpt>
      <trkpt lat="42.3438830" lon="-3.6869280">
        <ele>843.6</ele>
        <time>2022-08-29T13:15:49Z</time>
      </trkpt>
      <trkpt lat="42.3438690" lon="-3.6869920">
        <ele>843.6</ele>
        <time>2022-08-29T13:15:50Z</time>
      </trkpt>
      <trkpt lat="42.3438550" lon="-3.6870600">
        <ele>843.4</ele>
        <time>2022-08-29T13:15:51Z</time>
      </trkpt>
      <trkpt lat="42.3438400" lon="-3.6871260">
        <ele>843.4</ele>
        <time>2022-08-29T13:15:52Z</time>
      </trkpt>
      <trkpt lat="42.3438270" lon="-3.6871920">
        <ele>843.4</ele>
        <time>2022-08-29T13:15:53Z</time>
      </trkpt>
      <trkpt lat="42.3438100" lon="-3.6872560">
        <ele>843.4</ele>
        <time>2022-08-29T13:15:54Z</time>
      </trkpt>
      <trkpt lat="42.3437940" lon="-3.6873220">
        <ele>843.4</ele>
        <time>2022-08-29T13:15:55Z</time>
      </trkpt>
      <trkpt lat="42.3437790" lon="-3.6873870">
        <ele>843.4</ele>
        <time>2022-08-29T13:15:56Z</time>
      </trkpt>
      <trkpt lat="42.3437650" lon="-3.6874520">
        <ele>843.4</ele>
        <time>2022-08-29T13:15:57Z</time>
      </trkpt>
      <trkpt lat="42.3437510" lon="-3.6875110">
        <ele>843.2</ele>
        <time>2022-08-29T13:15:58Z</time>
      </trkpt>
      <trkpt lat="42.3437380" lon="-3.6875670">
        <ele>843.2</ele>
        <time>2022-08-29T13:15:59Z</time>
      </trkpt>
      <trkpt lat="42.3437230" lon="-3.6876210">
        <ele>843.2</ele>
        <time>2022-08-29T13:16:00Z</time>
      </trkpt>
      <trkpt lat="42.3436780" lon="-3.6876490">
        <ele>843.2</ele>
        <time>2022-08-29T13:16:01Z</time>
      </trkpt>
      <trkpt lat="42.3436700" lon="-3.6876980">
        <ele>843.2</ele>
        <time>2022-08-29T13:16:02Z</time>
      </trkpt>
      <trkpt lat="42.3436590" lon="-3.6877450">
        <ele>843.2</ele>
        <time>2022-08-29T13:16:03Z</time>
      </trkpt>
      <trkpt lat="42.3436460" lon="-3.6877850">
        <ele>843.0</ele>
        <time>2022-08-29T13:16:04Z</time>
      </trkpt>
      <trkpt lat="42.3436280" lon="-3.6878290">
        <ele>843.2</ele>
        <time>2022-08-29T13:16:05Z</time>
      </trkpt>
      <trkpt lat="42.3436130" lon="-3.6878740">
        <ele>843.2</ele>
        <time>2022-08-29T13:16:06Z</time>
      </trkpt>
      <trkpt lat="42.3435970" lon="-3.6879140">
        <ele>843.0</ele>
        <time>2022-08-29T13:16:07Z</time>
      </trkpt>
      <trkpt lat="42.3435880" lon="-3.6879500">
        <ele>843.0</ele>
        <time>2022-08-29T13:16:08Z</time>
      </trkpt>
      <trkpt lat="42.3435830" lon="-3.6879810">
        <ele>843.0</ele>
        <time>2022-08-29T13:16:09Z</time>
      </trkpt>
      <trkpt lat="42.3435780" lon="-3.6880070">
        <ele>843.0</ele>
        <time>2022-08-29T13:16:10Z</time>
      </trkpt>
      <trkpt lat="42.3435630" lon="-3.6880210">
        <ele>843.0</ele>
        <time>2022-08-29T13:16:11Z</time>
      </trkpt>
      <trkpt lat="42.3435590" lon="-3.6880420">
        <ele>843.2</ele>
        <time>2022-08-29T13:16:12Z</time>
      </trkpt>
      <trkpt lat="42.3435600" lon="-3.6880540">
        <ele>843.2</ele>
        <time>2022-08-29T13:16:13Z</time>
      </trkpt>
      <trkpt lat="42.3435600" lon="-3.6880580">
        <ele>843.2</ele>
        <time>2022-08-29T13:16:14Z</time>
      </trkpt>
      <trkpt lat="42.3435610" lon="-3.6880600">
        <ele>843.2</ele>
        <time>2022-08-29T13:16:15Z</time>
      </trkpt>
      <trkpt lat="42.3435610" lon="-3.6880610">
        <ele>843.2</ele>
        <time>2022-08-29T13:16:16Z</time>
      </trkpt>
      <trkpt lat="42.3435640" lon="-3.6880620">
        <ele>843.2</ele>
        <time>2022-08-29T13:16:17Z</time>
      </trkpt>
      <trkpt lat="42.3435630" lon="-3.6880630">
        <ele>843.4</ele>
        <time>2022-08-29T13:16:18Z</time>
      </trkpt>
      <trkpt lat="42.3435600" lon="-3.6880630">
        <ele>843.4</ele>
        <time>2022-08-29T13:16:19Z</time>
      </trkpt>
      <trkpt lat="42.3435570" lon="-3.6880610">
        <ele>843.2</ele>
        <time>2022-08-29T13:16:20Z</time>
      </trkpt>
      <trkpt lat="42.3435580" lon="-3.6880630">
        <ele>843.2</ele>
        <time>2022-08-29T13:16:21Z</time>
      </trkpt>
      <trkpt lat="42.3435610" lon="-3.6880660">
        <ele>843.2</ele>
        <time>2022-08-29T13:16:22Z</time>
      </trkpt>
      <trkpt lat="42.3435660" lon="-3.6880710">
        <ele>843.4</ele>
        <time>2022-08-29T13:16:23Z</time>
      </trkpt>
      <trkpt lat="42.3435710" lon="-3.6880750">
        <ele>843.2</ele>
        <time>2022-08-29T13:16:24Z</time>
      </trkpt>
      <trkpt lat="42.3435740" lon="-3.6880760">
        <ele>843.2</ele>
        <time>2022-08-29T13:16:25Z</time>
      </trkpt>
      <trkpt lat="42.3435770" lon="-3.6880780">
        <ele>843.4</ele>
        <time>2022-08-29T13:16:26Z</time>
      </trkpt>
      <trkpt lat="42.3435790" lon="-3.6880790">
        <ele>843.2</ele>
        <time>2022-08-29T13:16:27Z</time>
      </trkpt>
      <trkpt lat="42.3435800" lon="-3.6880800">
        <ele>843.4</ele>
        <time>2022-08-29T13:16:28Z</time>
      </trkpt>
      <trkpt lat="42.3435910" lon="-3.6880840">
        <ele>843.2</ele>
        <time>2022-08-29T13:16:29Z</time>
      </trkpt>
      <trkpt lat="42.3435940" lon="-3.6880860">
        <ele>843.2</ele>
        <time>2022-08-29T13:16:30Z</time>
      </trkpt>
      <trkpt lat="42.3435950" lon="-3.6880900">
        <ele>843.2</ele>
        <time>2022-08-29T13:16:31Z</time>
      </trkpt>
      <trkpt lat="42.3435950" lon="-3.6881000">
        <ele>843.4</ele>
        <time>2022-08-29T13:16:32Z</time>
      </trkpt>
      <trkpt lat="42.3435920" lon="-3.6881160">
        <ele>843.2</ele>
        <time>2022-08-29T13:16:33Z</time>
      </trkpt>
      <trkpt lat="42.3435880" lon="-3.6881370">
        <ele>843.2</ele>
        <time>2022-08-29T13:16:34Z</time>
      </trkpt>
      <trkpt lat="42.3435670" lon="-3.6881550">
        <ele>843.2</ele>
        <time>2022-08-29T13:16:35Z</time>
      </trkpt>
      <trkpt lat="42.3435370" lon="-3.6881820">
        <ele>843.2</ele>
        <time>2022-08-29T13:16:36Z</time>
      </trkpt>
      <trkpt lat="42.3435140" lon="-3.6882250">
        <ele>843.2</ele>
        <time>2022-08-29T13:16:37Z</time>
      </trkpt>
      <trkpt lat="42.3435030" lon="-3.6882790">
        <ele>843.0</ele>
        <time>2022-08-29T13:16:38Z</time>
      </trkpt>
      <trkpt lat="42.3434910" lon="-3.6883330">
        <ele>843.0</ele>
        <time>2022-08-29T13:16:39Z</time>
      </trkpt>
      <trkpt lat="42.3434810" lon="-3.6883910">
        <ele>843.2</ele>
        <time>2022-08-29T13:16:40Z</time>
      </trkpt>
      <trkpt lat="42.3434730" lon="-3.6884500">
        <ele>843.0</ele>
        <time>2022-08-29T13:16:41Z</time>
      </trkpt>
      <trkpt lat="42.3434640" lon="-3.6885120">
        <ele>843.0</ele>
        <time>2022-08-29T13:16:42Z</time>
      </trkpt>
      <trkpt lat="42.3434560" lon="-3.6885710">
        <ele>842.8</ele>
        <time>2022-08-29T13:16:43Z</time>
      </trkpt>
      <trkpt lat="42.3434390" lon="-3.6886290">
        <ele>842.8</ele>
        <time>2022-08-29T13:16:44Z</time>
      </trkpt>
      <trkpt lat="42.3434130" lon="-3.6886800">
        <ele>842.8</ele>
        <time>2022-08-29T13:16:45Z</time>
      </trkpt>
      <trkpt lat="42.3433970" lon="-3.6887400">
        <ele>842.8</ele>
        <time>2022-08-29T13:16:46Z</time>
      </trkpt>
      <trkpt lat="42.3433720" lon="-3.6887960">
        <ele>842.8</ele>
        <time>2022-08-29T13:16:47Z</time>
      </trkpt>
      <trkpt lat="42.3433520" lon="-3.6888550">
        <ele>842.6</ele>
        <time>2022-08-29T13:16:48Z</time>
      </trkpt>
      <trkpt lat="42.3433320" lon="-3.6889120">
        <ele>842.6</ele>
        <time>2022-08-29T13:16:49Z</time>
      </trkpt>
      <trkpt lat="42.3433160" lon="-3.6889750">
        <ele>842.4</ele>
        <time>2022-08-29T13:16:50Z</time>
      </trkpt>
      <trkpt lat="42.3433010" lon="-3.6890450">
        <ele>842.4</ele>
        <time>2022-08-29T13:16:51Z</time>
      </trkpt>
      <trkpt lat="42.3432890" lon="-3.6891170">
        <ele>842.4</ele>
        <time>2022-08-29T13:16:52Z</time>
      </trkpt>
      <trkpt lat="42.3432750" lon="-3.6891900">
        <ele>842.4</ele>
        <time>2022-08-29T13:16:53Z</time>
      </trkpt>
      <trkpt lat="42.3432650" lon="-3.6892650">
        <ele>842.4</ele>
        <time>2022-08-29T13:16:54Z</time>
      </trkpt>
      <trkpt lat="42.3432590" lon="-3.6893520">
        <ele>842.0</ele>
        <time>2022-08-29T13:16:55Z</time>
      </trkpt>
      <trkpt lat="42.3432530" lon="-3.6894260">
        <ele>842.0</ele>
        <time>2022-08-29T13:16:56Z</time>
      </trkpt>
      <trkpt lat="42.3432400" lon="-3.6895080">
        <ele>842.0</ele>
        <time>2022-08-29T13:16:57Z</time>
      </trkpt>
      <trkpt lat="42.3432150" lon="-3.6896380">
        <ele>841.8</ele>
        <time>2022-08-29T13:16:58Z</time>
      </trkpt>
      <trkpt lat="42.3431890" lon="-3.6897310">
        <ele>841.6</ele>
        <time>2022-08-29T13:16:59Z</time>
      </trkpt>
      <trkpt lat="42.3431630" lon="-3.6898200">
        <ele>841.6</ele>
        <time>2022-08-29T13:17:00Z</time>
      </trkpt>
      <trkpt lat="42.3431430" lon="-3.6899060">
        <ele>841.6</ele>
        <time>2022-08-29T13:17:01Z</time>
      </trkpt>
      <trkpt lat="42.3431210" lon="-3.6899930">
        <ele>841.4</ele>
        <time>2022-08-29T13:17:02Z</time>
      </trkpt>
      <trkpt lat="42.3431010" lon="-3.6900780">
        <ele>841.4</ele>
        <time>2022-08-29T13:17:03Z</time>
      </trkpt>
      <trkpt lat="42.3430850" lon="-3.6901620">
        <ele>841.4</ele>
        <time>2022-08-29T13:17:04Z</time>
      </trkpt>
      <trkpt lat="42.3430710" lon="-3.6902480">
        <ele>841.4</ele>
        <time>2022-08-29T13:17:05Z</time>
      </trkpt>
      <trkpt lat="42.3430520" lon="-3.6903480">
        <ele>841.2</ele>
        <time>2022-08-29T13:17:06Z</time>
      </trkpt>
      <trkpt lat="42.3430380" lon="-3.6904560">
        <ele>841.2</ele>
        <time>2022-08-29T13:17:07Z</time>
      </trkpt>
      <trkpt lat="42.3430230" lon="-3.6905440">
        <ele>841.2</ele>
        <time>2022-08-29T13:17:08Z</time>
      </trkpt>
      <trkpt lat="42.3430050" lon="-3.6906280">
        <ele>841.0</ele>
        <time>2022-08-29T13:17:09Z</time>
      </trkpt>
      <trkpt lat="42.3429860" lon="-3.6907090">
        <ele>841.0</ele>
        <time>2022-08-29T13:17:10Z</time>
      </trkpt>
      <trkpt lat="42.3429720" lon="-3.6907900">
        <ele>841.0</ele>
        <time>2022-08-29T13:17:11Z</time>
      </trkpt>
      <trkpt lat="42.3429540" lon="-3.6908700">
        <ele>840.8</ele>
        <time>2022-08-29T13:17:12Z</time>
      </trkpt>
      <trkpt lat="42.3429380" lon="-3.6909500">
        <ele>840.8</ele>
        <time>2022-08-29T13:17:13Z</time>
      </trkpt>
      <trkpt lat="42.3429250" lon="-3.6910280">
        <ele>840.8</ele>
        <time>2022-08-29T13:17:14Z</time>
      </trkpt>
      <trkpt lat="42.3429120" lon="-3.6911060">
        <ele>840.8</ele>
        <time>2022-08-29T13:17:15Z</time>
      </trkpt>
      <trkpt lat="42.3429000" lon="-3.6911860">
        <ele>840.8</ele>
        <time>2022-08-29T13:17:16Z</time>
      </trkpt>
      <trkpt lat="42.3428870" lon="-3.6912690">
        <ele>840.6</ele>
        <time>2022-08-29T13:17:17Z</time>
      </trkpt>
      <trkpt lat="42.3428740" lon="-3.6913510">
        <ele>840.6</ele>
        <time>2022-08-29T13:17:18Z</time>
      </trkpt>
      <trkpt lat="42.3428580" lon="-3.6914340">
        <ele>840.6</ele>
        <time>2022-08-29T13:17:19Z</time>
      </trkpt>
      <trkpt lat="42.3428440" lon="-3.6915130">
        <ele>840.8</ele>
        <time>2022-08-29T13:17:20Z</time>
      </trkpt>
      <trkpt lat="42.3428350" lon="-3.6915900">
        <ele>840.6</ele>
        <time>2022-08-29T13:17:21Z</time>
      </trkpt>
      <trkpt lat="42.3428190" lon="-3.6916710">
        <ele>840.8</ele>
        <time>2022-08-29T13:17:22Z</time>
      </trkpt>
      <trkpt lat="42.3428010" lon="-3.6917530">
        <ele>840.6</ele>
        <time>2022-08-29T13:17:23Z</time>
      </trkpt>
      <trkpt lat="42.3427850" lon="-3.6918360">
        <ele>840.8</ele>
        <time>2022-08-29T13:17:24Z</time>
      </trkpt>
      <trkpt lat="42.3427650" lon="-3.6919220">
        <ele>840.6</ele>
        <time>2022-08-29T13:17:25Z</time>
      </trkpt>
      <trkpt lat="42.3427450" lon="-3.6920070">
        <ele>840.8</ele>
        <time>2022-08-29T13:17:26Z</time>
      </trkpt>
      <trkpt lat="42.3427210" lon="-3.6920910">
        <ele>840.8</ele>
        <time>2022-08-29T13:17:27Z</time>
      </trkpt>
      <trkpt lat="42.3427020" lon="-3.6921690">
        <ele>840.8</ele>
        <time>2022-08-29T13:17:28Z</time>
      </trkpt>
      <trkpt lat="42.3426830" lon="-3.6922520">
        <ele>840.8</ele>
        <time>2022-08-29T13:17:29Z</time>
      </trkpt>
      <trkpt lat="42.3426630" lon="-3.6923380">
        <ele>840.6</ele>
        <time>2022-08-29T13:17:30Z</time>
      </trkpt>
      <trkpt lat="42.3426470" lon="-3.6924240">
        <ele>840.6</ele>
        <time>2022-08-29T13:17:31Z</time>
      </trkpt>
      <trkpt lat="42.3426300" lon="-3.6925100">
        <ele>840.8</ele>
        <time>2022-08-29T13:17:32Z</time>
      </trkpt>
      <trkpt lat="42.3426130" lon="-3.6925910">
        <ele>840.8</ele>
        <time>2022-08-29T13:17:33Z</time>
      </trkpt>
      <trkpt lat="42.3425950" lon="-3.6926720">
        <ele>840.8</ele>
        <time>2022-08-29T13:17:34Z</time>
      </trkpt>
      <trkpt lat="42.3425760" lon="-3.6927600">
        <ele>840.8</ele>
        <time>2022-08-29T13:17:35Z</time>
      </trkpt>
      <trkpt lat="42.3425590" lon="-3.6928400">
        <ele>840.6</ele>
        <time>2022-08-29T13:17:36Z</time>
      </trkpt>
      <trkpt lat="42.3425430" lon="-3.6929180">
        <ele>840.6</ele>
        <time>2022-08-29T13:17:37Z</time>
      </trkpt>
      <trkpt lat="42.3425310" lon="-3.6929910">
        <ele>840.4</ele>
        <time>2022-08-29T13:17:38Z</time>
      </trkpt>
      <trkpt lat="42.3425180" lon="-3.6930610">
        <ele>840.4</ele>
        <time>2022-08-29T13:17:39Z</time>
      </trkpt>
      <trkpt lat="42.3425040" lon="-3.6931350">
        <ele>840.4</ele>
        <time>2022-08-29T13:17:40Z</time>
      </trkpt>
      <trkpt lat="42.3424860" lon="-3.6932100">
        <ele>840.4</ele>
        <time>2022-08-29T13:17:41Z</time>
      </trkpt>
      <trkpt lat="42.3424730" lon="-3.6932840">
        <ele>840.2</ele>
        <time>2022-08-29T13:17:42Z</time>
      </trkpt>
      <trkpt lat="42.3424580" lon="-3.6933540">
        <ele>840.4</ele>
        <time>2022-08-29T13:17:43Z</time>
      </trkpt>
      <trkpt lat="42.3424450" lon="-3.6934230">
        <ele>840.4</ele>
        <time>2022-08-29T13:17:44Z</time>
      </trkpt>
      <trkpt lat="42.3424340" lon="-3.6934900">
        <ele>840.4</ele>
        <time>2022-08-29T13:17:45Z</time>
      </trkpt>
      <trkpt lat="42.3424230" lon="-3.6935550">
        <ele>840.4</ele>
        <time>2022-08-29T13:17:46Z</time>
      </trkpt>
      <trkpt lat="42.3424100" lon="-3.6936160">
        <ele>840.4</ele>
        <time>2022-08-29T13:17:47Z</time>
      </trkpt>
      <trkpt lat="42.3423980" lon="-3.6936760">
        <ele>840.4</ele>
        <time>2022-08-29T13:17:48Z</time>
      </trkpt>
      <trkpt lat="42.3423820" lon="-3.6937380">
        <ele>840.4</ele>
        <time>2022-08-29T13:17:49Z</time>
      </trkpt>
      <trkpt lat="42.3423640" lon="-3.6937930">
        <ele>840.4</ele>
        <time>2022-08-29T13:17:50Z</time>
      </trkpt>
      <trkpt lat="42.3423530" lon="-3.6938500">
        <ele>840.4</ele>
        <time>2022-08-29T13:17:51Z</time>
      </trkpt>
      <trkpt lat="42.3423420" lon="-3.6939030">
        <ele>840.4</ele>
        <time>2022-08-29T13:17:52Z</time>
      </trkpt>
      <trkpt lat="42.3423300" lon="-3.6939480">
        <ele>840.2</ele>
        <time>2022-08-29T13:17:53Z</time>
      </trkpt>
      <trkpt lat="42.3423230" lon="-3.6939910">
        <ele>840.4</ele>
        <time>2022-08-29T13:17:54Z</time>
      </trkpt>
      <trkpt lat="42.3423060" lon="-3.6940270">
        <ele>840.4</ele>
        <time>2022-08-29T13:17:55Z</time>
      </trkpt>
      <trkpt lat="42.3422900" lon="-3.6940580">
        <ele>840.4</ele>
        <time>2022-08-29T13:17:56Z</time>
      </trkpt>
      <trkpt lat="42.3422820" lon="-3.6940780">
        <ele>840.4</ele>
        <time>2022-08-29T13:17:57Z</time>
      </trkpt>
      <trkpt lat="42.3422730" lon="-3.6940960">
        <ele>840.2</ele>
        <time>2022-08-29T13:17:58Z</time>
      </trkpt>
      <trkpt lat="42.3422660" lon="-3.6941100">
        <ele>840.4</ele>
        <time>2022-08-29T13:17:59Z</time>
      </trkpt>
      <trkpt lat="42.3422700" lon="-3.6941170">
        <ele>840.4</ele>
        <time>2022-08-29T13:18:00Z</time>
      </trkpt>
      <trkpt lat="42.3422670" lon="-3.6941260">
        <ele>840.4</ele>
        <time>2022-08-29T13:18:01Z</time>
      </trkpt>
      <trkpt lat="42.3422610" lon="-3.6941280">
        <ele>840.4</ele>
        <time>2022-08-29T13:18:02Z</time>
      </trkpt>
      <trkpt lat="42.3422600" lon="-3.6941280">
        <ele>840.4</ele>
        <time>2022-08-29T13:18:03Z</time>
      </trkpt>
      <trkpt lat="42.3422640" lon="-3.6941280">
        <ele>840.4</ele>
        <time>2022-08-29T13:18:04Z</time>
      </trkpt>
      <trkpt lat="42.3422830" lon="-3.6941400">
        <ele>840.6</ele>
        <time>2022-08-29T13:18:05Z</time>
      </trkpt>
      <trkpt lat="42.3422950" lon="-3.6941430">
        <ele>840.6</ele>
        <time>2022-08-29T13:18:06Z</time>
      </trkpt>
      <trkpt lat="42.3423060" lon="-3.6941490">
        <ele>840.6</ele>
        <time>2022-08-29T13:18:07Z</time>
      </trkpt>
      <trkpt lat="42.3423130" lon="-3.6941490">
        <ele>840.8</ele>
        <time>2022-08-29T13:18:08Z</time>
      </trkpt>
      <trkpt lat="42.3423160" lon="-3.6941470">
        <ele>841.0</ele>
        <time>2022-08-29T13:18:09Z</time>
      </trkpt>
      <trkpt lat="42.3423260" lon="-3.6941540">
        <ele>840.8</ele>
        <time>2022-08-29T13:18:10Z</time>
      </trkpt>
      <trkpt lat="42.3423290" lon="-3.6941590">
        <ele>840.8</ele>
        <time>2022-08-29T13:18:11Z</time>
      </trkpt>
      <trkpt lat="42.3423320" lon="-3.6941570">
        <ele>841.0</ele>
        <time>2022-08-29T13:18:12Z</time>
      </trkpt>
      <trkpt lat="42.3423330" lon="-3.6941590">
        <ele>841.0</ele>
        <time>2022-08-29T13:18:13Z</time>
      </trkpt>
      <trkpt lat="42.3423260" lon="-3.6941560">
        <ele>841.0</ele>
        <time>2022-08-29T13:18:14Z</time>
      </trkpt>
      <trkpt lat="42.3423160" lon="-3.6941570">
        <ele>841.0</ele>
        <time>2022-08-29T13:18:15Z</time>
      </trkpt>
      <trkpt lat="42.3423110" lon="-3.6941610">
        <ele>841.0</ele>
        <time>2022-08-29T13:18:16Z</time>
      </trkpt>
      <trkpt lat="42.3423120" lon="-3.6941740">
        <ele>841.0</ele>
        <time>2022-08-29T13:18:17Z</time>
      </trkpt>
      <trkpt lat="42.3423160" lon="-3.6941900">
        <ele>841.0</ele>
        <time>2022-08-29T13:18:18Z</time>
      </trkpt>
      <trkpt lat="42.3423190" lon="-3.6942060">
        <ele>841.0</ele>
        <time>2022-08-29T13:18:19Z</time>
      </trkpt>
      <trkpt lat="42.3423310" lon="-3.6942190">
        <ele>840.8</ele>
        <time>2022-08-29T13:18:20Z</time>
      </trkpt>
      <trkpt lat="42.3423390" lon="-3.6942460">
        <ele>840.8</ele>
        <time>2022-08-29T13:18:21Z</time>
      </trkpt>
      <trkpt lat="42.3423500" lon="-3.6942890">
        <ele>840.8</ele>
        <time>2022-08-29T13:18:22Z</time>
      </trkpt>
      <trkpt lat="42.3423510" lon="-3.6943360">
        <ele>841.0</ele>
        <time>2022-08-29T13:18:23Z</time>
      </trkpt>
      <trkpt lat="42.3423450" lon="-3.6943850">
        <ele>840.8</ele>
        <time>2022-08-29T13:18:24Z</time>
      </trkpt>
      <trkpt lat="42.3423360" lon="-3.6944260">
        <ele>840.8</ele>
        <time>2022-08-29T13:18:25Z</time>
      </trkpt>
      <trkpt lat="42.3423270" lon="-3.6944720">
        <ele>840.8</ele>
        <time>2022-08-29T13:18:26Z</time>
      </trkpt>
      <trkpt lat="42.3423190" lon="-3.6945180">
        <ele>840.6</ele>
        <time>2022-08-29T13:18:27Z</time>
      </trkpt>
      <trkpt lat="42.3423090" lon="-3.6945720">
        <ele>840.6</ele>
        <time>2022-08-29T13:18:28Z</time>
      </trkpt>
      <trkpt lat="42.3422860" lon="-3.6946170">
        <ele>840.6</ele>
        <time>2022-08-29T13:18:29Z</time>
      </trkpt>
      <trkpt lat="42.3422690" lon="-3.6946630">
        <ele>840.6</ele>
        <time>2022-08-29T13:18:30Z</time>
      </trkpt>
      <trkpt lat="42.3422560" lon="-3.6947050">
        <ele>840.6</ele>
        <time>2022-08-29T13:18:31Z</time>
      </trkpt>
      <trkpt lat="42.3422460" lon="-3.6947450">
        <ele>840.4</ele>
        <time>2022-08-29T13:18:32Z</time>
      </trkpt>
      <trkpt lat="42.3422390" lon="-3.6947920">
        <ele>840.4</ele>
        <time>2022-08-29T13:18:33Z</time>
      </trkpt>
      <trkpt lat="42.3422300" lon="-3.6948370">
        <ele>840.4</ele>
        <time>2022-08-29T13:18:34Z</time>
      </trkpt>
      <trkpt lat="42.3422200" lon="-3.6948870">
        <ele>840.2</ele>
        <time>2022-08-29T13:18:35Z</time>
      </trkpt>
      <trkpt lat="42.3422080" lon="-3.6949370">
        <ele>840.4</ele>
        <time>2022-08-29T13:18:36Z</time>
      </trkpt>
      <trkpt lat="42.3422000" lon="-3.6949840">
        <ele>840.4</ele>
        <time>2022-08-29T13:18:37Z</time>
      </trkpt>
      <trkpt lat="42.3421900" lon="-3.6950310">
        <ele>840.4</ele>
        <time>2022-08-29T13:18:38Z</time>
      </trkpt>
      <trkpt lat="42.3421770" lon="-3.6950760">
        <ele>840.2</ele>
        <time>2022-08-29T13:18:39Z</time>
      </trkpt>
      <trkpt lat="42.3421630" lon="-3.6951170">
        <ele>840.2</ele>
        <time>2022-08-29T13:18:40Z</time>
      </trkpt>
      <trkpt lat="42.3421500" lon="-3.6951570">
        <ele>840.2</ele>
        <time>2022-08-29T13:18:41Z</time>
      </trkpt>
      <trkpt lat="42.3421450" lon="-3.6951990">
        <ele>840.4</ele>
        <time>2022-08-29T13:18:42Z</time>
      </trkpt>
      <trkpt lat="42.3421460" lon="-3.6952310">
        <ele>840.2</ele>
        <time>2022-08-29T13:18:43Z</time>
      </trkpt>
      <trkpt lat="42.3421510" lon="-3.6952550">
        <ele>840.2</ele>
        <time>2022-08-29T13:18:44Z</time>
      </trkpt>
      <trkpt lat="42.3421590" lon="-3.6952660">
        <ele>840.2</ele>
        <time>2022-08-29T13:18:45Z</time>
      </trkpt>
      <trkpt lat="42.3421690" lon="-3.6952740">
        <ele>840.2</ele>
        <time>2022-08-29T13:18:46Z</time>
      </trkpt>
      <trkpt lat="42.3421830" lon="-3.6952840">
        <ele>840.2</ele>
        <time>2022-08-29T13:18:47Z</time>
      </trkpt>
      <trkpt lat="42.3422050" lon="-3.6952940">
        <ele>840.4</ele>
        <time>2022-08-29T13:18:48Z</time>
      </trkpt>
      <trkpt lat="42.3422380" lon="-3.6953120">
        <ele>840.2</ele>
        <time>2022-08-29T13:18:49Z</time>
      </trkpt>
      <trkpt lat="42.3422700" lon="-3.6953270">
        <ele>840.4</ele>
        <time>2022-08-29T13:18:50Z</time>
      </trkpt>
      <trkpt lat="42.3423000" lon="-3.6953450">
        <ele>840.4</ele>
        <time>2022-08-29T13:18:51Z</time>
      </trkpt>
      <trkpt lat="42.3423370" lon="-3.6953690">
        <ele>840.4</ele>
        <time>2022-08-29T13:18:52Z</time>
      </trkpt>
      <trkpt lat="42.3423720" lon="-3.6953990">
        <ele>840.2</ele>
        <time>2022-08-29T13:18:53Z</time>
      </trkpt>
      <trkpt lat="42.3424090" lon="-3.6954240">
        <ele>840.4</ele>
        <time>2022-08-29T13:18:54Z</time>
      </trkpt>
      <trkpt lat="42.3424420" lon="-3.6954470">
        <ele>840.4</ele>
        <time>2022-08-29T13:18:55Z</time>
      </trkpt>
      <trkpt lat="42.3424700" lon="-3.6954670">
        <ele>840.4</ele>
        <time>2022-08-29T13:18:56Z</time>
      </trkpt>
      <trkpt lat="42.3424840" lon="-3.6954950">
        <ele>840.4</ele>
        <time>2022-08-29T13:18:57Z</time>
      </trkpt>
      <trkpt lat="42.3424870" lon="-3.6955300">
        <ele>840.4</ele>
        <time>2022-08-29T13:18:58Z</time>
      </trkpt>
      <trkpt lat="42.3424830" lon="-3.6955670">
        <ele>840.6</ele>
        <time>2022-08-29T13:18:59Z</time>
      </trkpt>
      <trkpt lat="42.3424750" lon="-3.6956050">
        <ele>840.6</ele>
        <time>2022-08-29T13:19:00Z</time>
      </trkpt>
      <trkpt lat="42.3424620" lon="-3.6956440">
        <ele>840.6</ele>
        <time>2022-08-29T13:19:01Z</time>
      </trkpt>
      <trkpt lat="42.3424550" lon="-3.6956860">
        <ele>840.6</ele>
        <time>2022-08-29T13:19:02Z</time>
      </trkpt>
      <trkpt lat="42.3424480" lon="-3.6957330">
        <ele>840.6</ele>
        <time>2022-08-29T13:19:03Z</time>
      </trkpt>
      <trkpt lat="42.3424450" lon="-3.6957850">
        <ele>840.6</ele>
        <time>2022-08-29T13:19:04Z</time>
      </trkpt>
      <trkpt lat="42.3424260" lon="-3.6958220">
        <ele>840.6</ele>
        <time>2022-08-29T13:19:05Z</time>
      </trkpt>
      <trkpt lat="42.3424080" lon="-3.6958600">
        <ele>840.6</ele>
        <time>2022-08-29T13:19:06Z</time>
      </trkpt>
      <trkpt lat="42.3423990" lon="-3.6959020">
        <ele>840.6</ele>
        <time>2022-08-29T13:19:07Z</time>
      </trkpt>
      <trkpt lat="42.3423910" lon="-3.6959430">
        <ele>840.6</ele>
        <time>2022-08-29T13:19:08Z</time>
      </trkpt>
      <trkpt lat="42.3423790" lon="-3.6959780">
        <ele>840.6</ele>
        <time>2022-08-29T13:19:09Z</time>
      </trkpt>
      <trkpt lat="42.3423710" lon="-3.6960180">
        <ele>840.6</ele>
        <time>2022-08-29T13:19:10Z</time>
      </trkpt>
      <trkpt lat="42.3423570" lon="-3.6960540">
        <ele>840.6</ele>
        <time>2022-08-29T13:19:11Z</time>
      </trkpt>
      <trkpt lat="42.3423560" lon="-3.6960990">
        <ele>840.6</ele>
        <time>2022-08-29T13:19:12Z</time>
      </trkpt>
      <trkpt lat="42.3423550" lon="-3.6961410">
        <ele>840.6</ele>
        <time>2022-08-29T13:19:13Z</time>
      </trkpt>
      <trkpt lat="42.3423530" lon="-3.6961850">
        <ele>840.6</ele>
        <time>2022-08-29T13:19:14Z</time>
      </trkpt>
      <trkpt lat="42.3423500" lon="-3.6962340">
        <ele>840.6</ele>
        <time>2022-08-29T13:19:15Z</time>
      </trkpt>
      <trkpt lat="42.3423420" lon="-3.6962800">
        <ele>840.6</ele>
        <time>2022-08-29T13:19:16Z</time>
      </trkpt>
      <trkpt lat="42.3423310" lon="-3.6963230">
        <ele>840.8</ele>
        <time>2022-08-29T13:19:17Z</time>
      </trkpt>
      <trkpt lat="42.3423140" lon="-3.6963620">
        <ele>840.6</ele>
        <time>2022-08-29T13:19:18Z</time>
      </trkpt>
      <trkpt lat="42.3423040" lon="-3.6964000">
        <ele>840.6</ele>
        <time>2022-08-29T13:19:19Z</time>
      </trkpt>
      <trkpt lat="42.3423030" lon="-3.6964360">
        <ele>840.6</ele>
        <time>2022-08-29T13:19:20Z</time>
      </trkpt>
      <trkpt lat="42.3423170" lon="-3.6964690">
        <ele>840.6</ele>
        <time>2022-08-29T13:19:21Z</time>
      </trkpt>
      <trkpt lat="42.3423380" lon="-3.6964880">
        <ele>840.4</ele>
        <time>2022-08-29T13:19:22Z</time>
      </trkpt>
      <trkpt lat="42.3423580" lon="-3.6964910">
        <ele>840.6</ele>
        <time>2022-08-29T13:19:23Z</time>
      </trkpt>
      <trkpt lat="42.3423760" lon="-3.6964820">
        <ele>840.6</ele>
        <time>2022-08-29T13:19:24Z</time>
      </trkpt>
      <trkpt lat="42.3423960" lon="-3.6964750">
        <ele>840.6</ele>
        <time>2022-08-29T13:19:25Z</time>
      </trkpt>
      <trkpt lat="42.3424200" lon="-3.6964680">
        <ele>840.6</ele>
        <time>2022-08-29T13:19:26Z</time>
      </trkpt>
      <trkpt lat="42.3424450" lon="-3.6964630">
        <ele>840.8</ele>
        <time>2022-08-29T13:19:27Z</time>
      </trkpt>
      <trkpt lat="42.3424750" lon="-3.6964580">
        <ele>840.8</ele>
        <time>2022-08-29T13:19:28Z</time>
      </trkpt>
      <trkpt lat="42.3425060" lon="-3.6964510">
        <ele>840.8</ele>
        <time>2022-08-29T13:19:29Z</time>
      </trkpt>
      <trkpt lat="42.3425380" lon="-3.6964500">
        <ele>840.6</ele>
        <time>2022-08-29T13:19:30Z</time>
      </trkpt>
      <trkpt lat="42.3425710" lon="-3.6964500">
        <ele>840.8</ele>
        <time>2022-08-29T13:19:31Z</time>
      </trkpt>
      <trkpt lat="42.3426010" lon="-3.6964490">
        <ele>840.8</ele>
        <time>2022-08-29T13:19:32Z</time>
      </trkpt>
      <trkpt lat="42.3426310" lon="-3.6964470">
        <ele>841.0</ele>
        <time>2022-08-29T13:19:33Z</time>
      </trkpt>
      <trkpt lat="42.3426590" lon="-3.6964490">
        <ele>840.8</ele>
        <time>2022-08-29T13:19:34Z</time>
      </trkpt>
      <trkpt lat="42.3426850" lon="-3.6964470">
        <ele>840.8</ele>
        <time>2022-08-29T13:19:35Z</time>
      </trkpt>
      <trkpt lat="42.3427100" lon="-3.6964400">
        <ele>840.8</ele>
        <time>2022-08-29T13:19:36Z</time>
      </trkpt>
      <trkpt lat="42.3427340" lon="-3.6964320">
        <ele>840.8</ele>
        <time>2022-08-29T13:19:37Z</time>
      </trkpt>
      <trkpt lat="42.3427590" lon="-3.6964280">
        <ele>840.8</ele>
        <time>2022-08-29T13:19:38Z</time>
      </trkpt>
      <trkpt lat="42.3427820" lon="-3.6964270">
        <ele>840.8</ele>
        <time>2022-08-29T13:19:39Z</time>
      </trkpt>
      <trkpt lat="42.3428030" lon="-3.6964270">
        <ele>840.8</ele>
        <time>2022-08-29T13:19:40Z</time>
      </trkpt>
      <trkpt lat="42.3428200" lon="-3.6964290">
        <ele>841.0</ele>
        <time>2022-08-29T13:19:41Z</time>
      </trkpt>
      <trkpt lat="42.3428330" lon="-3.6964330">
        <ele>841.0</ele>
        <time>2022-08-29T13:19:42Z</time>
      </trkpt>
      <trkpt lat="42.3428390" lon="-3.6964350">
        <ele>841.0</ele>
        <time>2022-08-29T13:19:43Z</time>
      </trkpt>
      <trkpt lat="42.3428410" lon="-3.6964360">
        <ele>841.0</ele>
        <time>2022-08-29T13:19:44Z</time>
      </trkpt>
      <trkpt lat="42.3428400" lon="-3.6964400">
        <ele>841.0</ele>
        <time>2022-08-29T13:19:45Z</time>
      </trkpt>
      <trkpt lat="42.3428420" lon="-3.6964420">
        <ele>841.0</ele>
        <time>2022-08-29T13:19:46Z</time>
      </trkpt>
      <trkpt lat="42.3428450" lon="-3.6964580">
        <ele>841.0</ele>
        <time>2022-08-29T13:19:47Z</time>
      </trkpt>
      <trkpt lat="42.3428470" lon="-3.6964830">
        <ele>841.0</ele>
        <time>2022-08-29T13:19:48Z</time>
      </trkpt>
      <trkpt lat="42.3428460" lon="-3.6965070">
        <ele>841.2</ele>
        <time>2022-08-29T13:19:49Z</time>
      </trkpt>
      <trkpt lat="42.3428470" lon="-3.6965440">
        <ele>841.0</ele>
        <time>2022-08-29T13:19:50Z</time>
      </trkpt>
      <trkpt lat="42.3428500" lon="-3.6965820">
        <ele>841.2</ele>
        <time>2022-08-29T13:19:51Z</time>
      </trkpt>
      <trkpt lat="42.3428530" lon="-3.6966180">
        <ele>841.2</ele>
        <time>2022-08-29T13:19:52Z</time>
      </trkpt>
      <trkpt lat="42.3428530" lon="-3.6966540">
        <ele>841.2</ele>
        <time>2022-08-29T13:19:53Z</time>
      </trkpt>
      <trkpt lat="42.3428520" lon="-3.6966900">
        <ele>841.2</ele>
        <time>2022-08-29T13:19:54Z</time>
      </trkpt>
      <trkpt lat="42.3428500" lon="-3.6967250">
        <ele>841.2</ele>
        <time>2022-08-29T13:19:55Z</time>
      </trkpt>
      <trkpt lat="42.3428500" lon="-3.6967580">
        <ele>841.2</ele>
        <time>2022-08-29T13:19:56Z</time>
      </trkpt>
      <trkpt lat="42.3428500" lon="-3.6967870">
        <ele>841.2</ele>
        <time>2022-08-29T13:19:57Z</time>
      </trkpt>
      <trkpt lat="42.3428490" lon="-3.6968000">
        <ele>841.2</ele>
        <time>2022-08-29T13:19:58Z</time>
      </trkpt>
      <trkpt lat="42.3428510" lon="-3.6968040">
        <ele>841.2</ele>
        <time>2022-08-29T13:19:59Z</time>
      </trkpt>
      <trkpt lat="42.3428550" lon="-3.6968100">
        <ele>841.2</ele>
        <time>2022-08-29T13:20:00Z</time>
      </trkpt>
      <trkpt lat="42.3428550" lon="-3.6968140">
        <ele>841.2</ele>
        <time>2022-08-29T13:20:01Z</time>
      </trkpt>
      <trkpt lat="42.3428510" lon="-3.6968180">
        <ele>841.4</ele>
        <time>2022-08-29T13:20:02Z</time>
      </trkpt>
      <trkpt lat="42.3428530" lon="-3.6968180">
        <ele>841.2</ele>
        <time>2022-08-29T13:20:03Z</time>
      </trkpt>
      <trkpt lat="42.3428530" lon="-3.6968140">
        <ele>841.2</ele>
        <time>2022-08-29T13:20:04Z</time>
      </trkpt>
      <trkpt lat="42.3428520" lon="-3.6968070">
        <ele>841.2</ele>
        <time>2022-08-29T13:20:05Z</time>
      </trkpt>
      <trkpt lat="42.3428490" lon="-3.6967950">
        <ele>841.2</ele>
        <time>2022-08-29T13:20:06Z</time>
      </trkpt>
      <trkpt lat="42.3428480" lon="-3.6967900">
        <ele>841.2</ele>
        <time>2022-08-29T13:20:07Z</time>
      </trkpt>
      <trkpt lat="42.3428500" lon="-3.6967940">
        <ele>841.2</ele>
        <time>2022-08-29T13:20:08Z</time>
      </trkpt>
      <trkpt lat="42.3428480" lon="-3.6968090">
        <ele>841.2</ele>
        <time>2022-08-29T13:20:09Z</time>
      </trkpt>
      <trkpt lat="42.3428540" lon="-3.6968380">
        <ele>841.4</ele>
        <time>2022-08-29T13:20:10Z</time>
      </trkpt>
      <trkpt lat="42.3428610" lon="-3.6968610">
        <ele>841.2</ele>
        <time>2022-08-29T13:20:11Z</time>
      </trkpt>
      <trkpt lat="42.3428750" lon="-3.6968960">
        <ele>841.2</ele>
        <time>2022-08-29T13:20:12Z</time>
      </trkpt>
      <trkpt lat="42.3428660" lon="-3.6969170">
        <ele>841.2</ele>
        <time>2022-08-29T13:20:13Z</time>
      </trkpt>
      <trkpt lat="42.3428580" lon="-3.6969280">
        <ele>841.2</ele>
        <time>2022-08-29T13:20:14Z</time>
      </trkpt>
      <trkpt lat="42.3428640" lon="-3.6969390">
        <ele>841.4</ele>
        <time>2022-08-29T13:20:15Z</time>
      </trkpt>
      <trkpt lat="42.3428840" lon="-3.6969660">
        <ele>841.2</ele>
        <time>2022-08-29T13:20:16Z</time>
      </trkpt>
      <trkpt lat="42.3428820" lon="-3.6970060">
        <ele>841.4</ele>
        <time>2022-08-29T13:20:17Z</time>
      </trkpt>
      <trkpt lat="42.3428770" lon="-3.6970490">
        <ele>841.4</ele>
        <time>2022-08-29T13:20:18Z</time>
      </trkpt>
      <trkpt lat="42.3428770" lon="-3.6970860">
        <ele>841.2</ele>
        <time>2022-08-29T13:20:19Z</time>
      </trkpt>
      <trkpt lat="42.3428750" lon="-3.6971280">
        <ele>841.2</ele>
        <time>2022-08-29T13:20:20Z</time>
      </trkpt>
      <trkpt lat="42.3428760" lon="-3.6971960">
        <ele>841.0</ele>
        <time>2022-08-29T13:20:21Z</time>
      </trkpt>
      <trkpt lat="42.3428730" lon="-3.6972500">
        <ele>840.8</ele>
        <time>2022-08-29T13:20:22Z</time>
      </trkpt>
      <trkpt lat="42.3428670" lon="-3.6973150">
        <ele>840.6</ele>
        <time>2022-08-29T13:20:23Z</time>
      </trkpt>
      <trkpt lat="42.3428610" lon="-3.6973860">
        <ele>840.8</ele>
        <time>2022-08-29T13:20:24Z</time>
      </trkpt>
      <trkpt lat="42.3428510" lon="-3.6974570">
        <ele>840.6</ele>
        <time>2022-08-29T13:20:25Z</time>
      </trkpt>
      <trkpt lat="42.3428450" lon="-3.6975280">
        <ele>840.6</ele>
        <time>2022-08-29T13:20:26Z</time>
      </trkpt>
      <trkpt lat="42.3428440" lon="-3.6975950">
        <ele>840.6</ele>
        <time>2022-08-29T13:20:27Z</time>
      </trkpt>
      <trkpt lat="42.3428450" lon="-3.6976550">
        <ele>840.2</ele>
        <time>2022-08-29T13:20:28Z</time>
      </trkpt>
      <trkpt lat="42.3428410" lon="-3.6977150">
        <ele>840.2</ele>
        <time>2022-08-29T13:20:29Z</time>
      </trkpt>
      <trkpt lat="42.3428360" lon="-3.6977720">
        <ele>840.2</ele>
        <time>2022-08-29T13:20:30Z</time>
      </trkpt>
      <trkpt lat="42.3428300" lon="-3.6978370">
        <ele>840.0</ele>
        <time>2022-08-29T13:20:31Z</time>
      </trkpt>
      <trkpt lat="42.3428230" lon="-3.6978880">
        <ele>840.0</ele>
        <time>2022-08-29T13:20:32Z</time>
      </trkpt>
      <trkpt lat="42.3428170" lon="-3.6979330">
        <ele>840.0</ele>
        <time>2022-08-29T13:20:33Z</time>
      </trkpt>
      <trkpt lat="42.3428140" lon="-3.6979800">
        <ele>839.8</ele>
        <time>2022-08-29T13:20:34Z</time>
      </trkpt>
      <trkpt lat="42.3428130" lon="-3.6980240">
        <ele>840.0</ele>
        <time>2022-08-29T13:20:35Z</time>
      </trkpt>
      <trkpt lat="42.3428180" lon="-3.6980650">
        <ele>839.8</ele>
        <time>2022-08-29T13:20:36Z</time>
      </trkpt>
      <trkpt lat="42.3428190" lon="-3.6981100">
        <ele>839.8</ele>
        <time>2022-08-29T13:20:37Z</time>
      </trkpt>
      <trkpt lat="42.3428200" lon="-3.6981460">
        <ele>840.0</ele>
        <time>2022-08-29T13:20:38Z</time>
      </trkpt>
      <trkpt lat="42.3428200" lon="-3.6981840">
        <ele>840.0</ele>
        <time>2022-08-29T13:20:39Z</time>
      </trkpt>
      <trkpt lat="42.3428100" lon="-3.6982290">
        <ele>839.8</ele>
        <time>2022-08-29T13:20:40Z</time>
      </trkpt>
      <trkpt lat="42.3427980" lon="-3.6982750">
        <ele>839.8</ele>
        <time>2022-08-29T13:20:41Z</time>
      </trkpt>
      <trkpt lat="42.3427910" lon="-3.6983240">
        <ele>839.8</ele>
        <time>2022-08-29T13:20:42Z</time>
      </trkpt>
      <trkpt lat="42.3427840" lon="-3.6983700">
        <ele>839.8</ele>
        <time>2022-08-29T13:20:43Z</time>
      </trkpt>
      <trkpt lat="42.3427830" lon="-3.6984080">
        <ele>839.6</ele>
        <time>2022-08-29T13:20:44Z</time>
      </trkpt>
      <trkpt lat="42.3427850" lon="-3.6984400">
        <ele>839.8</ele>
        <time>2022-08-29T13:20:45Z</time>
      </trkpt>
      <trkpt lat="42.3427830" lon="-3.6984730">
        <ele>839.8</ele>
        <time>2022-08-29T13:20:46Z</time>
      </trkpt>
      <trkpt lat="42.3427820" lon="-3.6985080">
        <ele>839.8</ele>
        <time>2022-08-29T13:20:47Z</time>
      </trkpt>
      <trkpt lat="42.3427830" lon="-3.6985370">
        <ele>839.8</ele>
        <time>2022-08-29T13:20:48Z</time>
      </trkpt>
      <trkpt lat="42.3427920" lon="-3.6985760">
        <ele>839.8</ele>
        <time>2022-08-29T13:20:49Z</time>
      </trkpt>
      <trkpt lat="42.3427940" lon="-3.6986090">
        <ele>839.8</ele>
        <time>2022-08-29T13:20:50Z</time>
      </trkpt>
      <trkpt lat="42.3427950" lon="-3.6986350">
        <ele>839.8</ele>
        <time>2022-08-29T13:20:51Z</time>
      </trkpt>
      <trkpt lat="42.3428020" lon="-3.6986630">
        <ele>839.8</ele>
        <time>2022-08-29T13:20:52Z</time>
      </trkpt>
      <trkpt lat="42.3427990" lon="-3.6986900">
        <ele>839.6</ele>
        <time>2022-08-29T13:20:53Z</time>
      </trkpt>
      <trkpt lat="42.3428060" lon="-3.6987430">
        <ele>839.6</ele>
        <time>2022-08-29T13:20:54Z</time>
      </trkpt>
      <trkpt lat="42.3428170" lon="-3.6987870">
        <ele>839.8</ele>
        <time>2022-08-29T13:20:55Z</time>
      </trkpt>
      <trkpt lat="42.3428210" lon="-3.6988110">
        <ele>839.6</ele>
        <time>2022-08-29T13:20:56Z</time>
      </trkpt>
      <trkpt lat="42.3428230" lon="-3.6988340">
        <ele>839.8</ele>
        <time>2022-08-29T13:20:57Z</time>
      </trkpt>
      <trkpt lat="42.3428240" lon="-3.6988590">
        <ele>839.8</ele>
        <time>2022-08-29T13:20:58Z</time>
      </trkpt>
      <trkpt lat="42.3428250" lon="-3.6988920">
        <ele>839.8</ele>
        <time>2022-08-29T13:20:59Z</time>
      </trkpt>
      <trkpt lat="42.3428240" lon="-3.6989390">
        <ele>839.8</ele>
        <time>2022-08-29T13:21:00Z</time>
      </trkpt>
      <trkpt lat="42.3428260" lon="-3.6989780">
        <ele>840.0</ele>
        <time>2022-08-29T13:21:01Z</time>
      </trkpt>
      <trkpt lat="42.3428210" lon="-3.6990290">
        <ele>839.8</ele>
        <time>2022-08-29T13:21:02Z</time>
      </trkpt>
      <trkpt lat="42.3428320" lon="-3.6990870">
        <ele>839.8</ele>
        <time>2022-08-29T13:21:03Z</time>
      </trkpt>
      <trkpt lat="42.3428360" lon="-3.6991200">
        <ele>839.8</ele>
        <time>2022-08-29T13:21:04Z</time>
      </trkpt>
      <trkpt lat="42.3428410" lon="-3.6991450">
        <ele>839.8</ele>
        <time>2022-08-29T13:21:05Z</time>
      </trkpt>
      <trkpt lat="42.3428450" lon="-3.6991660">
        <ele>839.8</ele>
        <time>2022-08-29T13:21:06Z</time>
      </trkpt>
      <trkpt lat="42.3428520" lon="-3.6991770">
        <ele>839.8</ele>
        <time>2022-08-29T13:21:07Z</time>
      </trkpt>
      <trkpt lat="42.3428580" lon="-3.6992030">
        <ele>839.8</ele>
        <time>2022-08-29T13:21:08Z</time>
      </trkpt>
      <trkpt lat="42.3428650" lon="-3.6992290">
        <ele>839.6</ele>
        <time>2022-08-29T13:21:09Z</time>
      </trkpt>
      <trkpt lat="42.3428670" lon="-3.6992740">
        <ele>839.6</ele>
        <time>2022-08-29T13:21:10Z</time>
      </trkpt>
      <trkpt lat="42.3428770" lon="-3.6993050">
        <ele>839.8</ele>
        <time>2022-08-29T13:21:11Z</time>
      </trkpt>
      <trkpt lat="42.3428820" lon="-3.6993430">
        <ele>839.6</ele>
        <time>2022-08-29T13:21:12Z</time>
      </trkpt>
      <trkpt lat="42.3428890" lon="-3.6993710">
        <ele>839.6</ele>
        <time>2022-08-29T13:21:13Z</time>
      </trkpt>
      <trkpt lat="42.3429020" lon="-3.6994200">
        <ele>839.6</ele>
        <time>2022-08-29T13:21:14Z</time>
      </trkpt>
      <trkpt lat="42.3429230" lon="-3.6994910">
        <ele>839.6</ele>
        <time>2022-08-29T13:21:15Z</time>
      </trkpt>
      <trkpt lat="42.3429240" lon="-3.6995530">
        <ele>839.6</ele>
        <time>2022-08-29T13:21:16Z</time>
      </trkpt>
      <trkpt lat="42.3429300" lon="-3.6996090">
        <ele>839.6</ele>
        <time>2022-08-29T13:21:17Z</time>
      </trkpt>
      <trkpt lat="42.3429420" lon="-3.6996490">
        <ele>839.6</ele>
        <time>2022-08-29T13:21:18Z</time>
      </trkpt>
      <trkpt lat="42.3429550" lon="-3.6996810">
        <ele>839.6</ele>
        <time>2022-08-29T13:21:19Z</time>
      </trkpt>
      <trkpt lat="42.3429660" lon="-3.6997210">
        <ele>839.4</ele>
        <time>2022-08-29T13:21:20Z</time>
      </trkpt>
      <trkpt lat="42.3429790" lon="-3.6997660">
        <ele>839.6</ele>
        <time>2022-08-29T13:21:21Z</time>
      </trkpt>
      <trkpt lat="42.3429930" lon="-3.6998160">
        <ele>839.6</ele>
        <time>2022-08-29T13:21:22Z</time>
      </trkpt>
      <trkpt lat="42.3430050" lon="-3.6998600">
        <ele>839.6</ele>
        <time>2022-08-29T13:21:23Z</time>
      </trkpt>
      <trkpt lat="42.3430120" lon="-3.6999070">
        <ele>839.6</ele>
        <time>2022-08-29T13:21:24Z</time>
      </trkpt>
      <trkpt lat="42.3430150" lon="-3.6999440">
        <ele>839.6</ele>
        <time>2022-08-29T13:21:25Z</time>
      </trkpt>
      <trkpt lat="42.3430290" lon="-3.6999820">
        <ele>839.8</ele>
        <time>2022-08-29T13:21:26Z</time>
      </trkpt>
      <trkpt lat="42.3430440" lon="-3.7000160">
        <ele>839.6</ele>
        <time>2022-08-29T13:21:27Z</time>
      </trkpt>
      <trkpt lat="42.3430630" lon="-3.7000520">
        <ele>839.8</ele>
        <time>2022-08-29T13:21:28Z</time>
      </trkpt>
      <trkpt lat="42.3430740" lon="-3.7000830">
        <ele>839.8</ele>
        <time>2022-08-29T13:21:29Z</time>
      </trkpt>
      <trkpt lat="42.3430830" lon="-3.7001240">
        <ele>839.8</ele>
        <time>2022-08-29T13:21:30Z</time>
      </trkpt>
      <trkpt lat="42.3431010" lon="-3.7001780">
        <ele>840.0</ele>
        <time>2022-08-29T13:21:31Z</time>
      </trkpt>
      <trkpt lat="42.3431140" lon="-3.7002160">
        <ele>840.0</ele>
        <time>2022-08-29T13:21:32Z</time>
      </trkpt>
      <trkpt lat="42.3431260" lon="-3.7002530">
        <ele>840.0</ele>
        <time>2022-08-29T13:21:33Z</time>
      </trkpt>
      <trkpt lat="42.3431480" lon="-3.7003000">
        <ele>840.0</ele>
        <time>2022-08-29T13:21:34Z</time>
      </trkpt>
      <trkpt lat="42.3431710" lon="-3.7003470">
        <ele>840.0</ele>
        <time>2022-08-29T13:21:35Z</time>
      </trkpt>
      <trkpt lat="42.3431900" lon="-3.7003950">
        <ele>840.2</ele>
        <time>2022-08-29T13:21:36Z</time>
      </trkpt>
      <trkpt lat="42.3432140" lon="-3.7004540">
        <ele>840.2</ele>
        <time>2022-08-29T13:21:37Z</time>
      </trkpt>
      <trkpt lat="42.3432290" lon="-3.7005000">
        <ele>840.4</ele>
        <time>2022-08-29T13:21:38Z</time>
      </trkpt>
      <trkpt lat="42.3432460" lon="-3.7005390">
        <ele>840.2</ele>
        <time>2022-08-29T13:21:39Z</time>
      </trkpt>
      <trkpt lat="42.3432640" lon="-3.7005820">
        <ele>840.4</ele>
        <time>2022-08-29T13:21:40Z</time>
      </trkpt>
      <trkpt lat="42.3432800" lon="-3.7006400">
        <ele>840.4</ele>
        <time>2022-08-29T13:21:41Z</time>
      </trkpt>
      <trkpt lat="42.3432940" lon="-3.7006870">
        <ele>840.4</ele>
        <time>2022-08-29T13:21:42Z</time>
      </trkpt>
      <trkpt lat="42.3432980" lon="-3.7007370">
        <ele>840.4</ele>
        <time>2022-08-29T13:21:43Z</time>
      </trkpt>
      <trkpt lat="42.3433070" lon="-3.7007800">
        <ele>840.6</ele>
        <time>2022-08-29T13:21:44Z</time>
      </trkpt>
      <trkpt lat="42.3433080" lon="-3.7008230">
        <ele>840.4</ele>
        <time>2022-08-29T13:21:45Z</time>
      </trkpt>
      <trkpt lat="42.3433070" lon="-3.7008760">
        <ele>840.6</ele>
        <time>2022-08-29T13:21:46Z</time>
      </trkpt>
      <trkpt lat="42.3433090" lon="-3.7009220">
        <ele>840.4</ele>
        <time>2022-08-29T13:21:47Z</time>
      </trkpt>
      <trkpt lat="42.3433130" lon="-3.7009670">
        <ele>840.4</ele>
        <time>2022-08-29T13:21:48Z</time>
      </trkpt>
      <trkpt lat="42.3433130" lon="-3.7010070">
        <ele>840.6</ele>
        <time>2022-08-29T13:21:49Z</time>
      </trkpt>
      <trkpt lat="42.3433130" lon="-3.7010460">
        <ele>840.6</ele>
        <time>2022-08-29T13:21:50Z</time>
      </trkpt>
      <trkpt lat="42.3433120" lon="-3.7010890">
        <ele>840.8</ele>
        <time>2022-08-29T13:21:51Z</time>
      </trkpt>
      <trkpt lat="42.3433140" lon="-3.7011290">
        <ele>840.6</ele>
        <time>2022-08-29T13:21:52Z</time>
      </trkpt>
      <trkpt lat="42.3433090" lon="-3.7011750">
        <ele>840.8</ele>
        <time>2022-08-29T13:21:53Z</time>
      </trkpt>
      <trkpt lat="42.3433050" lon="-3.7012190">
        <ele>840.8</ele>
        <time>2022-08-29T13:21:54Z</time>
      </trkpt>
      <trkpt lat="42.3433000" lon="-3.7012670">
        <ele>840.8</ele>
        <time>2022-08-29T13:21:55Z</time>
      </trkpt>
      <trkpt lat="42.3432940" lon="-3.7013170">
        <ele>840.8</ele>
        <time>2022-08-29T13:21:56Z</time>
      </trkpt>
      <trkpt lat="42.3432930" lon="-3.7013690">
        <ele>840.8</ele>
        <time>2022-08-29T13:21:57Z</time>
      </trkpt>
      <trkpt lat="42.3432900" lon="-3.7014180">
        <ele>840.8</ele>
        <time>2022-08-29T13:21:58Z</time>
      </trkpt>
      <trkpt lat="42.3432850" lon="-3.7014630">
        <ele>841.0</ele>
        <time>2022-08-29T13:21:59Z</time>
      </trkpt>
      <trkpt lat="42.3432790" lon="-3.7015000">
        <ele>841.0</ele>
        <time>2022-08-29T13:22:00Z</time>
      </trkpt>
      <trkpt lat="42.3432750" lon="-3.7015410">
        <ele>841.0</ele>
        <time>2022-08-29T13:22:01Z</time>
      </trkpt>
      <trkpt lat="42.3432680" lon="-3.7015820">
        <ele>841.0</ele>
        <time>2022-08-29T13:22:02Z</time>
      </trkpt>
      <trkpt lat="42.3432600" lon="-3.7016240">
        <ele>841.0</ele>
        <time>2022-08-29T13:22:03Z</time>
      </trkpt>
      <trkpt lat="42.3432530" lon="-3.7016660">
        <ele>841.0</ele>
        <time>2022-08-29T13:22:04Z</time>
      </trkpt>
      <trkpt lat="42.3432420" lon="-3.7017070">
        <ele>841.0</ele>
        <time>2022-08-29T13:22:05Z</time>
      </trkpt>
      <trkpt lat="42.3432370" lon="-3.7017500">
        <ele>841.4</ele>
        <time>2022-08-29T13:22:06Z</time>
      </trkpt>
      <trkpt lat="42.3432280" lon="-3.7017940">
        <ele>841.2</ele>
        <time>2022-08-29T13:22:07Z</time>
      </trkpt>
      <trkpt lat="42.3432200" lon="-3.7018380">
        <ele>841.2</ele>
        <time>2022-08-29T13:22:08Z</time>
      </trkpt>
      <trkpt lat="42.3432100" lon="-3.7018770">
        <ele>841.4</ele>
        <time>2022-08-29T13:22:09Z</time>
      </trkpt>
      <trkpt lat="42.3432030" lon="-3.7019200">
        <ele>841.4</ele>
        <time>2022-08-29T13:22:10Z</time>
      </trkpt>
      <trkpt lat="42.3431920" lon="-3.7019610">
        <ele>841.4</ele>
        <time>2022-08-29T13:22:11Z</time>
      </trkpt>
      <trkpt lat="42.3431750" lon="-3.7020000">
        <ele>841.4</ele>
        <time>2022-08-29T13:22:12Z</time>
      </trkpt>
      <trkpt lat="42.3431600" lon="-3.7020360">
        <ele>841.4</ele>
        <time>2022-08-29T13:22:13Z</time>
      </trkpt>
      <trkpt lat="42.3431480" lon="-3.7020710">
        <ele>841.4</ele>
        <time>2022-08-29T13:22:14Z</time>
      </trkpt>
      <trkpt lat="42.3431530" lon="-3.7021130">
        <ele>841.4</ele>
        <time>2022-08-29T13:22:15Z</time>
      </trkpt>
      <trkpt lat="42.3431630" lon="-3.7021520">
        <ele>841.4</ele>
        <time>2022-08-29T13:22:16Z</time>
      </trkpt>
      <trkpt lat="42.3431780" lon="-3.7021820">
        <ele>841.4</ele>
        <time>2022-08-29T13:22:17Z</time>
      </trkpt>
      <trkpt lat="42.3431940" lon="-3.7022120">
        <ele>841.4</ele>
        <time>2022-08-29T13:22:18Z</time>
      </trkpt>
      <trkpt lat="42.3432000" lon="-3.7022420">
        <ele>841.4</ele>
        <time>2022-08-29T13:22:19Z</time>
      </trkpt>
      <trkpt lat="42.3431990" lon="-3.7022740">
        <ele>841.4</ele>
        <time>2022-08-29T13:22:20Z</time>
      </trkpt>
      <trkpt lat="42.3431900" lon="-3.7022990">
        <ele>841.4</ele>
        <time>2022-08-29T13:22:21Z</time>
      </trkpt>
      <trkpt lat="42.3431720" lon="-3.7023200">
        <ele>841.4</ele>
        <time>2022-08-29T13:22:22Z</time>
      </trkpt>
      <trkpt lat="42.3431510" lon="-3.7023410">
        <ele>841.6</ele>
        <time>2022-08-29T13:22:23Z</time>
      </trkpt>
      <trkpt lat="42.3431320" lon="-3.7023680">
        <ele>841.8</ele>
        <time>2022-08-29T13:22:24Z</time>
      </trkpt>
      <trkpt lat="42.3431110" lon="-3.7023930">
        <ele>841.6</ele>
        <time>2022-08-29T13:22:25Z</time>
      </trkpt>
      <trkpt lat="42.3430910" lon="-3.7024210">
        <ele>842.0</ele>
        <time>2022-08-29T13:22:26Z</time>
      </trkpt>
      <trkpt lat="42.3430640" lon="-3.7024440">
        <ele>841.8</ele>
        <time>2022-08-29T13:22:27Z</time>
      </trkpt>
      <trkpt lat="42.3430420" lon="-3.7024710">
        <ele>841.8</ele>
        <time>2022-08-29T13:22:28Z</time>
      </trkpt>
      <trkpt lat="42.3430170" lon="-3.7024910">
        <ele>842.0</ele>
        <time>2022-08-29T13:22:29Z</time>
      </trkpt>
      <trkpt lat="42.3429950" lon="-3.7025160">
        <ele>842.0</ele>
        <time>2022-08-29T13:22:30Z</time>
      </trkpt>
      <trkpt lat="42.3429740" lon="-3.7025390">
        <ele>842.2</ele>
        <time>2022-08-29T13:22:31Z</time>
      </trkpt>
      <trkpt lat="42.3429540" lon="-3.7025610">
        <ele>842.2</ele>
        <time>2022-08-29T13:22:32Z</time>
      </trkpt>
      <trkpt lat="42.3429300" lon="-3.7025850">
        <ele>842.4</ele>
        <time>2022-08-29T13:22:33Z</time>
      </trkpt>
      <trkpt lat="42.3429050" lon="-3.7026060">
        <ele>842.4</ele>
        <time>2022-08-29T13:22:34Z</time>
      </trkpt>
      <trkpt lat="42.3428820" lon="-3.7026340">
        <ele>842.4</ele>
        <time>2022-08-29T13:22:35Z</time>
      </trkpt>
      <trkpt lat="42.3428690" lon="-3.7026720">
        <ele>842.4</ele>
        <time>2022-08-29T13:22:36Z</time>
      </trkpt>
      <trkpt lat="42.3428460" lon="-3.7027020">
        <ele>842.4</ele>
        <time>2022-08-29T13:22:37Z</time>
      </trkpt>
      <trkpt lat="42.3428220" lon="-3.7027280">
        <ele>842.4</ele>
        <time>2022-08-29T13:22:38Z</time>
      </trkpt>
      <trkpt lat="42.3427980" lon="-3.7027590">
        <ele>842.4</ele>
        <time>2022-08-29T13:22:39Z</time>
      </trkpt>
      <trkpt lat="42.3427720" lon="-3.7027870">
        <ele>842.6</ele>
        <time>2022-08-29T13:22:40Z</time>
      </trkpt>
      <trkpt lat="42.3427500" lon="-3.7028200">
        <ele>842.6</ele>
        <time>2022-08-29T13:22:41Z</time>
      </trkpt>
      <trkpt lat="42.3427270" lon="-3.7028520">
        <ele>842.6</ele>
        <time>2022-08-29T13:22:42Z</time>
      </trkpt>
      <trkpt lat="42.3427050" lon="-3.7028820">
        <ele>842.6</ele>
        <time>2022-08-29T13:22:43Z</time>
      </trkpt>
      <trkpt lat="42.3426870" lon="-3.7029170">
        <ele>842.8</ele>
        <time>2022-08-29T13:22:44Z</time>
      </trkpt>
      <trkpt lat="42.3426660" lon="-3.7029470">
        <ele>842.6</ele>
        <time>2022-08-29T13:22:45Z</time>
      </trkpt>
      <trkpt lat="42.3426430" lon="-3.7029850">
        <ele>842.8</ele>
        <time>2022-08-29T13:22:46Z</time>
      </trkpt>
      <trkpt lat="42.3426190" lon="-3.7030160">
        <ele>842.8</ele>
        <time>2022-08-29T13:22:47Z</time>
      </trkpt>
      <trkpt lat="42.3425950" lon="-3.7030500">
        <ele>842.8</ele>
        <time>2022-08-29T13:22:48Z</time>
      </trkpt>
      <trkpt lat="42.3425740" lon="-3.7030890">
        <ele>842.8</ele>
        <time>2022-08-29T13:22:49Z</time>
      </trkpt>
      <trkpt lat="42.3425530" lon="-3.7031230">
        <ele>843.0</ele>
        <time>2022-08-29T13:22:50Z</time>
      </trkpt>
      <trkpt lat="42.3425330" lon="-3.7031610">
        <ele>843.0</ele>
        <time>2022-08-29T13:22:51Z</time>
      </trkpt>
      <trkpt lat="42.3425300" lon="-3.7032200">
        <ele>843.2</ele>
        <time>2022-08-29T13:22:52Z</time>
      </trkpt>
      <trkpt lat="42.3425200" lon="-3.7032610">
        <ele>843.4</ele>
        <time>2022-08-29T13:22:53Z</time>
      </trkpt>
      <trkpt lat="42.3425150" lon="-3.7033030">
        <ele>843.2</ele>
        <time>2022-08-29T13:22:54Z</time>
      </trkpt>
      <trkpt lat="42.3425030" lon="-3.7033340">
        <ele>843.4</ele>
        <time>2022-08-29T13:22:55Z</time>
      </trkpt>
      <trkpt lat="42.3424960" lon="-3.7033640">
        <ele>843.4</ele>
        <time>2022-08-29T13:22:56Z</time>
      </trkpt>
      <trkpt lat="42.3424880" lon="-3.7033860">
        <ele>843.4</ele>
        <time>2022-08-29T13:22:57Z</time>
      </trkpt>
      <trkpt lat="42.3424810" lon="-3.7034100">
        <ele>843.6</ele>
        <time>2022-08-29T13:22:58Z</time>
      </trkpt>
      <trkpt lat="42.3424770" lon="-3.7034310">
        <ele>843.8</ele>
        <time>2022-08-29T13:22:59Z</time>
      </trkpt>
      <trkpt lat="42.3424710" lon="-3.7034500">
        <ele>843.8</ele>
        <time>2022-08-29T13:23:00Z</time>
      </trkpt>
      <trkpt lat="42.3424670" lon="-3.7034700">
        <ele>844.0</ele>
        <time>2022-08-29T13:23:01Z</time>
      </trkpt>
      <trkpt lat="42.3424620" lon="-3.7034890">
        <ele>844.0</ele>
        <time>2022-08-29T13:23:02Z</time>
      </trkpt>
      <trkpt lat="42.3424530" lon="-3.7035080">
        <ele>844.0</ele>
        <time>2022-08-29T13:23:03Z</time>
      </trkpt>
      <trkpt lat="42.3424420" lon="-3.7035250">
        <ele>844.2</ele>
        <time>2022-08-29T13:23:04Z</time>
      </trkpt>
      <trkpt lat="42.3424300" lon="-3.7035440">
        <ele>844.2</ele>
        <time>2022-08-29T13:23:05Z</time>
      </trkpt>
      <trkpt lat="42.3424170" lon="-3.7035650">
        <ele>844.4</ele>
        <time>2022-08-29T13:23:06Z</time>
      </trkpt>
      <trkpt lat="42.3424040" lon="-3.7035780">
        <ele>844.4</ele>
        <time>2022-08-29T13:23:07Z</time>
      </trkpt>
      <trkpt lat="42.3423920" lon="-3.7035900">
        <ele>844.4</ele>
        <time>2022-08-29T13:23:08Z</time>
      </trkpt>
      <trkpt lat="42.3423740" lon="-3.7036010">
        <ele>844.6</ele>
        <time>2022-08-29T13:23:09Z</time>
      </trkpt>
      <trkpt lat="42.3423610" lon="-3.7036190">
        <ele>844.4</ele>
        <time>2022-08-29T13:23:10Z</time>
      </trkpt>
      <trkpt lat="42.3423480" lon="-3.7036390">
        <ele>844.6</ele>
        <time>2022-08-29T13:23:11Z</time>
      </trkpt>
      <trkpt lat="42.3423420" lon="-3.7036680">
        <ele>844.6</ele>
        <time>2022-08-29T13:23:12Z</time>
      </trkpt>
      <trkpt lat="42.3423440" lon="-3.7037040">
        <ele>844.6</ele>
        <time>2022-08-29T13:23:13Z</time>
      </trkpt>
      <trkpt lat="42.3423400" lon="-3.7037240">
        <ele>844.8</ele>
        <time>2022-08-29T13:23:14Z</time>
      </trkpt>
      <trkpt lat="42.3423400" lon="-3.7037420">
        <ele>844.8</ele>
        <time>2022-08-29T13:23:15Z</time>
      </trkpt>
      <trkpt lat="42.3423390" lon="-3.7037520">
        <ele>844.8</ele>
        <time>2022-08-29T13:23:16Z</time>
      </trkpt>
      <trkpt lat="42.3423390" lon="-3.7037590">
        <ele>844.8</ele>
        <time>2022-08-29T13:23:17Z</time>
      </trkpt>
      <trkpt lat="42.3423390" lon="-3.7037660">
        <ele>845.0</ele>
        <time>2022-08-29T13:23:18Z</time>
      </trkpt>
      <trkpt lat="42.3423350" lon="-3.7037710">
        <ele>845.6</ele>
        <time>2022-08-29T13:23:19Z</time>
      </trkpt>
      <trkpt lat="42.3423340" lon="-3.7037760">
        <ele>845.8</ele>
        <time>2022-08-29T13:23:20Z</time>
      </trkpt>
      <trkpt lat="42.3423300" lon="-3.7037790">
        <ele>845.8</ele>
        <time>2022-08-29T13:23:21Z</time>
      </trkpt>
      <trkpt lat="42.3423350" lon="-3.7037970">
        <ele>846.0</ele>
        <time>2022-08-29T13:23:22Z</time>
      </trkpt>
      <trkpt lat="42.3423300" lon="-3.7037980">
        <ele>846.0</ele>
        <time>2022-08-29T13:23:23Z</time>
      </trkpt>
      <trkpt lat="42.3423300" lon="-3.7038000">
        <ele>846.0</ele>
        <time>2022-08-29T13:23:24Z</time>
      </trkpt>
      <trkpt lat="42.3423310" lon="-3.7038010">
        <ele>846.2</ele>
        <time>2022-08-29T13:23:25Z</time>
      </trkpt>
      <trkpt lat="42.3423280" lon="-3.7038010">
        <ele>846.2</ele>
        <time>2022-08-29T13:23:26Z</time>
      </trkpt>
      <trkpt lat="42.3423260" lon="-3.7038020">
        <ele>846.4</ele>
        <time>2022-08-29T13:23:27Z</time>
      </trkpt>
      <trkpt lat="42.3423200" lon="-3.7038070">
        <ele>846.2</ele>
        <time>2022-08-29T13:23:28Z</time>
      </trkpt>
      <trkpt lat="42.3423190" lon="-3.7038110">
        <ele>846.2</ele>
        <time>2022-08-29T13:23:29Z</time>
      </trkpt>
      <trkpt lat="42.3423170" lon="-3.7038110">
        <ele>846.4</ele>
        <time>2022-08-29T13:23:30Z</time>
      </trkpt>
      <trkpt lat="42.3423150" lon="-3.7038130">
        <ele>846.4</ele>
        <time>2022-08-29T13:23:31Z</time>
      </trkpt>
      <trkpt lat="42.3423120" lon="-3.7038120">
        <ele>846.2</ele>
        <time>2022-08-29T13:23:32Z</time>
      </trkpt>
      <trkpt lat="42.3423110" lon="-3.7038090">
        <ele>846.2</ele>
        <time>2022-08-29T13:23:33Z</time>
      </trkpt>
      <trkpt lat="42.3423110" lon="-3.7038100">
        <ele>846.4</ele>
        <time>2022-08-29T13:23:34Z</time>
      </trkpt>
      <trkpt lat="42.3423100" lon="-3.7038080">
        <ele>846.4</ele>
        <time>2022-08-29T13:23:35Z</time>
      </trkpt>
      <trkpt lat="42.3423090" lon="-3.7038060">
        <ele>846.4</ele>
        <time>2022-08-29T13:23:36Z</time>
      </trkpt>
      <trkpt lat="42.3423100" lon="-3.7038070">
        <ele>846.4</ele>
        <time>2022-08-29T13:23:37Z</time>
      </trkpt>
      <trkpt lat="42.3423090" lon="-3.7038060">
        <ele>846.4</ele>
        <time>2022-08-29T13:23:38Z</time>
      </trkpt>
      <trkpt lat="42.3423070" lon="-3.7038060">
        <ele>846.2</ele>
        <time>2022-08-29T13:23:39Z</time>
      </trkpt>
      <trkpt lat="42.3423030" lon="-3.7038050">
        <ele>846.2</ele>
        <time>2022-08-29T13:23:40Z</time>
      </trkpt>
      <trkpt lat="42.3422990" lon="-3.7038000">
        <ele>846.2</ele>
        <time>2022-08-29T13:23:41Z</time>
      </trkpt>
      <trkpt lat="42.3422940" lon="-3.7038010">
        <ele>846.2</ele>
        <time>2022-08-29T13:23:42Z</time>
      </trkpt>
      <trkpt lat="42.3422910" lon="-3.7038060">
        <ele>846.2</ele>
        <time>2022-08-29T13:23:43Z</time>
      </trkpt>
      <trkpt lat="42.3422880" lon="-3.7038090">
        <ele>846.2</ele>
        <time>2022-08-29T13:23:44Z</time>
      </trkpt>
      <trkpt lat="42.3422890" lon="-3.7038110">
        <ele>846.2</ele>
        <time>2022-08-29T13:23:45Z</time>
      </trkpt>
      <trkpt lat="42.3422900" lon="-3.7038150">
        <ele>846.2</ele>
        <time>2022-08-29T13:23:46Z</time>
      </trkpt>
      <trkpt lat="42.3422890" lon="-3.7038160">
        <ele>846.2</ele>
        <time>2022-08-29T13:23:47Z</time>
      </trkpt>
      <trkpt lat="42.3422910" lon="-3.7038160">
        <ele>846.0</ele>
        <time>2022-08-29T13:23:48Z</time>
      </trkpt>
      <trkpt lat="42.3422950" lon="-3.7038190">
        <ele>846.0</ele>
        <time>2022-08-29T13:23:49Z</time>
      </trkpt>
      <trkpt lat="42.3423010" lon="-3.7038250">
        <ele>846.0</ele>
        <time>2022-08-29T13:23:50Z</time>
      </trkpt>
      <trkpt lat="42.3423070" lon="-3.7038310">
        <ele>846.0</ele>
        <time>2022-08-29T13:23:51Z</time>
      </trkpt>
      <trkpt lat="42.3423130" lon="-3.7038370">
        <ele>846.0</ele>
        <time>2022-08-29T13:23:52Z</time>
      </trkpt>
      <trkpt lat="42.3423140" lon="-3.7038380">
        <ele>846.0</ele>
        <time>2022-08-29T13:23:53Z</time>
      </trkpt>
      <trkpt lat="42.3423210" lon="-3.7038470">
        <ele>846.0</ele>
        <time>2022-08-29T13:23:54Z</time>
      </trkpt>
      <trkpt lat="42.3423280" lon="-3.7038540">
        <ele>846.0</ele>
        <time>2022-08-29T13:23:55Z</time>
      </trkpt>
      <trkpt lat="42.3423330" lon="-3.7038610">
        <ele>846.0</ele>
        <time>2022-08-29T13:23:56Z</time>
      </trkpt>
      <trkpt lat="42.3423360" lon="-3.7038640">
        <ele>846.0</ele>
        <time>2022-08-29T13:23:57Z</time>
      </trkpt>
      <trkpt lat="42.3423410" lon="-3.7038670">
        <ele>845.8</ele>
        <time>2022-08-29T13:23:58Z</time>
      </trkpt>
      <trkpt lat="42.3423470" lon="-3.7038740">
        <ele>845.8</ele>
        <time>2022-08-29T13:23:59Z</time>
      </trkpt>
      <trkpt lat="42.3423490" lon="-3.7038760">
        <ele>845.8</ele>
        <time>2022-08-29T13:24:00Z</time>
      </trkpt>
      <trkpt lat="42.3423590" lon="-3.7038820">
        <ele>845.8</ele>
        <time>2022-08-29T13:24:01Z</time>
      </trkpt>
      <trkpt lat="42.3423600" lon="-3.7038820">
        <ele>846.0</ele>
        <time>2022-08-29T13:24:02Z</time>
      </trkpt>
      <trkpt lat="42.3423640" lon="-3.7038850">
        <ele>845.8</ele>
        <time>2022-08-29T13:24:03Z</time>
      </trkpt>
      <trkpt lat="42.3423710" lon="-3.7038910">
        <ele>845.8</ele>
        <time>2022-08-29T13:24:04Z</time>
      </trkpt>
      <trkpt lat="42.3423740" lon="-3.7038940">
        <ele>845.8</ele>
        <time>2022-08-29T13:24:05Z</time>
      </trkpt>
      <trkpt lat="42.3423720" lon="-3.7038910">
        <ele>845.8</ele>
        <time>2022-08-29T13:24:06Z</time>
      </trkpt>
      <trkpt lat="42.3423700" lon="-3.7038880">
        <ele>845.8</ele>
        <time>2022-08-29T13:24:07Z</time>
      </trkpt>
      <trkpt lat="42.3423700" lon="-3.7038880">
        <ele>845.8</ele>
        <time>2022-08-29T13:24:08Z</time>
      </trkpt>
      <trkpt lat="42.3423710" lon="-3.7038890">
        <ele>845.8</ele>
        <time>2022-08-29T13:24:09Z</time>
      </trkpt>
      <trkpt lat="42.3423710" lon="-3.7038870">
        <ele>845.8</ele>
        <time>2022-08-29T13:24:10Z</time>
      </trkpt>
      <trkpt lat="42.3423690" lon="-3.7038830">
        <ele>845.8</ele>
        <time>2022-08-29T13:24:11Z</time>
      </trkpt>
      <trkpt lat="42.3423730" lon="-3.7038870">
        <ele>845.8</ele>
        <time>2022-08-29T13:24:12Z</time>
      </trkpt>
      <trkpt lat="42.3423770" lon="-3.7038930">
        <ele>845.8</ele>
        <time>2022-08-29T13:24:13Z</time>
      </trkpt>
      <trkpt lat="42.3423830" lon="-3.7038920">
        <ele>845.8</ele>
        <time>2022-08-29T13:24:14Z</time>
      </trkpt>
      <trkpt lat="42.3423850" lon="-3.7038910">
        <ele>845.8</ele>
        <time>2022-08-29T13:24:15Z</time>
      </trkpt>
      <trkpt lat="42.3423890" lon="-3.7038930">
        <ele>845.8</ele>
        <time>2022-08-29T13:24:16Z</time>
      </trkpt>
      <trkpt lat="42.3423890" lon="-3.7038900">
        <ele>845.8</ele>
        <time>2022-08-29T13:24:17Z</time>
      </trkpt>
      <trkpt lat="42.3423880" lon="-3.7038860">
        <ele>845.8</ele>
        <time>2022-08-29T13:24:18Z</time>
      </trkpt>
      <trkpt lat="42.3423910" lon="-3.7038890">
        <ele>845.8</ele>
        <time>2022-08-29T13:24:19Z</time>
      </trkpt>
      <trkpt lat="42.3423920" lon="-3.7038900">
        <ele>845.8</ele>
        <time>2022-08-29T13:24:20Z</time>
      </trkpt>
      <trkpt lat="42.3423920" lon="-3.7038880">
        <ele>845.6</ele>
        <time>2022-08-29T13:24:21Z</time>
      </trkpt>
      <trkpt lat="42.3423880" lon="-3.7038820">
        <ele>845.8</ele>
        <time>2022-08-29T13:24:22Z</time>
      </trkpt>
      <trkpt lat="42.3423850" lon="-3.7038770">
        <ele>845.8</ele>
        <time>2022-08-29T13:24:23Z</time>
      </trkpt>
      <trkpt lat="42.3423810" lon="-3.7038700">
        <ele>845.8</ele>
        <time>2022-08-29T13:24:24Z</time>
      </trkpt>
      <trkpt lat="42.3423780" lon="-3.7038660">
        <ele>845.6</ele>
        <time>2022-08-29T13:24:25Z</time>
      </trkpt>
      <trkpt lat="42.3423730" lon="-3.7038600">
        <ele>845.6</ele>
        <time>2022-08-29T13:24:26Z</time>
      </trkpt>
      <trkpt lat="42.3423690" lon="-3.7038500">
        <ele>845.6</ele>
        <time>2022-08-29T13:24:27Z</time>
      </trkpt>
      <trkpt lat="42.3423670" lon="-3.7038460">
        <ele>845.8</ele>
        <time>2022-08-29T13:24:28Z</time>
      </trkpt>
      <trkpt lat="42.3423690" lon="-3.7038490">
        <ele>845.6</ele>
        <time>2022-08-29T13:24:29Z</time>
      </trkpt>
      <trkpt lat="42.3423670" lon="-3.7038480">
        <ele>845.8</ele>
        <time>2022-08-29T13:24:30Z</time>
      </trkpt>
      <trkpt lat="42.3423680" lon="-3.7038490">
        <ele>845.6</ele>
        <time>2022-08-29T13:24:31Z</time>
      </trkpt>
      <trkpt lat="42.3423630" lon="-3.7038510">
        <ele>845.6</ele>
        <time>2022-08-29T13:24:32Z</time>
      </trkpt>
      <trkpt lat="42.3423570" lon="-3.7038460">
        <ele>845.6</ele>
        <time>2022-08-29T13:24:33Z</time>
      </trkpt>
      <trkpt lat="42.3423540" lon="-3.7038450">
        <ele>845.6</ele>
        <time>2022-08-29T13:24:34Z</time>
      </trkpt>
      <trkpt lat="42.3423570" lon="-3.7038500">
        <ele>845.4</ele>
        <time>2022-08-29T13:24:35Z</time>
      </trkpt>
      <trkpt lat="42.3423510" lon="-3.7038490">
        <ele>845.4</ele>
        <time>2022-08-29T13:24:36Z</time>
      </trkpt>
      <trkpt lat="42.3423490" lon="-3.7038500">
        <ele>845.4</ele>
        <time>2022-08-29T13:24:37Z</time>
      </trkpt>
      <trkpt lat="42.3423430" lon="-3.7038470">
        <ele>845.6</ele>
        <time>2022-08-29T13:24:38Z</time>
      </trkpt>
      <trkpt lat="42.3423400" lon="-3.7038430">
        <ele>845.6</ele>
        <time>2022-08-29T13:24:39Z</time>
      </trkpt>
      <trkpt lat="42.3423400" lon="-3.7038470">
        <ele>845.6</ele>
        <time>2022-08-29T13:24:40Z</time>
      </trkpt>
      <trkpt lat="42.3423390" lon="-3.7038470">
        <ele>845.6</ele>
        <time>2022-08-29T13:24:41Z</time>
      </trkpt>
      <trkpt lat="42.3423370" lon="-3.7038460">
        <ele>845.6</ele>
        <time>2022-08-29T13:24:42Z</time>
      </trkpt>
      <trkpt lat="42.3423360" lon="-3.7038460">
        <ele>845.6</ele>
        <time>2022-08-29T13:24:43Z</time>
      </trkpt>
      <trkpt lat="42.3423370" lon="-3.7038470">
        <ele>845.6</ele>
        <time>2022-08-29T13:24:44Z</time>
      </trkpt>
      <trkpt lat="42.3423390" lon="-3.7038480">
        <ele>845.8</ele>
        <time>2022-08-29T13:24:45Z</time>
      </trkpt>
      <trkpt lat="42.3423420" lon="-3.7038490">
        <ele>845.6</ele>
        <time>2022-08-29T13:24:46Z</time>
      </trkpt>
      <trkpt lat="42.3423440" lon="-3.7038500">
        <ele>845.6</ele>
        <time>2022-08-29T13:24:47Z</time>
      </trkpt>
      <trkpt lat="42.3423460" lon="-3.7038510">
        <ele>845.8</ele>
        <time>2022-08-29T13:24:48Z</time>
      </trkpt>
      <trkpt lat="42.3423490" lon="-3.7038510">
        <ele>845.6</ele>
        <time>2022-08-29T13:24:49Z</time>
      </trkpt>
      <trkpt lat="42.3423520" lon="-3.7038510">
        <ele>845.8</ele>
        <time>2022-08-29T13:24:50Z</time>
      </trkpt>
      <trkpt lat="42.3423540" lon="-3.7038530">
        <ele>845.6</ele>
        <time>2022-08-29T13:24:51Z</time>
      </trkpt>
      <trkpt lat="42.3423590" lon="-3.7038590">
        <ele>845.6</ele>
        <time>2022-08-29T13:24:52Z</time>
      </trkpt>
      <trkpt lat="42.3423750" lon="-3.7038710">
        <ele>845.8</ele>
        <time>2022-08-29T13:24:53Z</time>
      </trkpt>
      <trkpt lat="42.3423830" lon="-3.7038820">
        <ele>845.6</ele>
        <time>2022-08-29T13:24:54Z</time>
      </trkpt>
      <trkpt lat="42.3423780" lon="-3.7038820">
        <ele>845.8</ele>
        <time>2022-08-29T13:24:55Z</time>
      </trkpt>
      <trkpt lat="42.3423740" lon="-3.7038810">
        <ele>845.8</ele>
        <time>2022-08-29T13:24:56Z</time>
      </trkpt>
      <trkpt lat="42.3423700" lon="-3.7038800">
        <ele>845.8</ele>
        <time>2022-08-29T13:24:57Z</time>
      </trkpt>
      <trkpt lat="42.3423650" lon="-3.7038800">
        <ele>845.8</ele>
        <time>2022-08-29T13:24:58Z</time>
      </trkpt>
      <trkpt lat="42.3423610" lon="-3.7038790">
        <ele>845.8</ele>
        <time>2022-08-29T13:24:59Z</time>
      </trkpt>
      <trkpt lat="42.3423560" lon="-3.7038780">
        <ele>845.8</ele>
        <time>2022-08-29T13:25:00Z</time>
      </trkpt>
      <trkpt lat="42.3423520" lon="-3.7038780">
        <ele>845.8</ele>
        <time>2022-08-29T13:25:02Z</time>
      </trkpt>
      <trkpt lat="42.3423470" lon="-3.7038770">
        <ele>845.8</ele>
        <time>2022-08-29T13:25:03Z</time>
      </trkpt>
      <trkpt lat="42.3423430" lon="-3.7038770">
        <ele>846.0</ele>
        <time>2022-08-29T13:25:04Z</time>
      </trkpt>
      <trkpt lat="42.3423390" lon="-3.7038760">
        <ele>845.8</ele>
        <time>2022-08-29T13:25:05Z</time>
      </trkpt>
      <trkpt lat="42.3423340" lon="-3.7038750">
        <ele>845.8</ele>
        <time>2022-08-29T13:25:06Z</time>
      </trkpt>
      <trkpt lat="42.3423300" lon="-3.7038750">
        <ele>845.8</ele>
        <time>2022-08-29T13:25:07Z</time>
      </trkpt>
      <trkpt lat="42.3423250" lon="-3.7038740">
        <ele>845.8</ele>
        <time>2022-08-29T13:25:08Z</time>
      </trkpt>
      <trkpt lat="42.3423210" lon="-3.7038730">
        <ele>846.0</ele>
        <time>2022-08-29T13:25:09Z</time>
      </trkpt>
      <trkpt lat="42.3423210" lon="-3.7038730">
        <ele>846.0</ele>
        <time>2022-08-29T13:25:10Z</time>
      </trkpt>
      <trkpt lat="42.3423210" lon="-3.7038730">
        <ele>846.0</ele>
        <time>2022-08-29T13:25:11Z</time>
      </trkpt>
      <trkpt lat="42.3423210" lon="-3.7038730">
        <ele>846.0</ele>
        <time>2022-08-29T13:25:12Z</time>
      </trkpt>
      <trkpt lat="42.3423210" lon="-3.7038730">
        <ele>846.0</ele>
        <time>2022-08-29T13:25:13Z</time>
      </trkpt>
      <trkpt lat="42.3423210" lon="-3.7038730">
        <ele>846.0</ele>
        <time>2022-08-29T13:25:14Z</time>
      </trkpt>
      <trkpt lat="42.3423210" lon="-3.7038730">
        <ele>846.2</ele>
        <time>2022-08-29T13:25:15Z</time>
      </trkpt>
      <trkpt lat="42.3423210" lon="-3.7038730">
        <ele>846.2</ele>
        <time>2022-08-29T13:25:16Z</time>
      </trkpt>
      <trkpt lat="42.3423210" lon="-3.7038730">
        <ele>846.0</ele>
        <time>2022-08-29T13:25:17Z</time>
      </trkpt>
      <trkpt lat="42.3423210" lon="-3.7038730">
        <ele>846.2</ele>
        <time>2022-08-29T13:25:18Z</time>
      </trkpt>
      <trkpt lat="42.3423210" lon="-3.7038730">
        <ele>846.2</ele>
        <time>2022-08-29T13:25:19Z</time>
      </trkpt>
      <trkpt lat="42.3423210" lon="-3.7038730">
        <ele>846.2</ele>
        <time>2022-08-29T13:25:20Z</time>
      </trkpt>
      <trkpt lat="42.3423210" lon="-3.7038730">
        <ele>846.2</ele>
        <time>2022-08-29T13:25:21Z</time>
      </trkpt>
      <trkpt lat="42.3423210" lon="-3.7038730">
        <ele>846.2</ele>
        <time>2022-08-29T13:25:22Z</time>
      </trkpt>
      <trkpt lat="42.3423210" lon="-3.7038730">
        <ele>846.2</ele>
        <time>2022-08-29T13:25:23Z</time>
      </trkpt>
      <trkpt lat="42.3423210" lon="-3.7038730">
        <ele>846.2</ele>
        <time>2022-08-29T13:25:24Z</time>
      </trkpt>
      <trkpt lat="42.3423210" lon="-3.7038730">
        <ele>846.2</ele>
        <time>2022-08-29T13:25:25Z</time>
      </trkpt>
      <trkpt lat="42.3423210" lon="-3.7038730">
        <ele>846.2</ele>
        <time>2022-08-29T13:25:26Z</time>
      </trkpt>
      <trkpt lat="42.3423210" lon="-3.7038730">
        <ele>846.2</ele>
        <time>2022-08-29T13:25:27Z</time>
      </trkpt>
      <trkpt lat="42.3423210" lon="-3.7038730">
        <ele>846.2</ele>
        <time>2022-08-29T13:25:28Z</time>
      </trkpt>
      <trkpt lat="42.3423210" lon="-3.7038730">
        <ele>846.2</ele>
        <time>2022-08-29T13:25:29Z</time>
      </trkpt>
      <trkpt lat="42.3423210" lon="-3.7038730">
        <ele>846.2</ele>
        <time>2022-08-29T13:25:30Z</time>
      </trkpt>
      <trkpt lat="42.3423210" lon="-3.7038730">
        <ele>846.2</ele>
        <time>2022-08-29T13:25:31Z</time>
      </trkpt>
      <trkpt lat="42.3423210" lon="-3.7038730">
        <ele>846.2</ele>
        <time>2022-08-29T13:25:32Z</time>
      </trkpt>
      <trkpt lat="42.3423210" lon="-3.7038730">
        <ele>846.2</ele>
        <time>2022-08-29T13:25:33Z</time>
      </trkpt>
      <trkpt lat="42.3423210" lon="-3.7038730">
        <ele>846.2</ele>
        <time>2022-08-29T13:25:34Z</time>
      </trkpt>
      <trkpt lat="42.3423210" lon="-3.7038730">
        <ele>846.2</ele>
        <time>2022-08-29T13:25:35Z</time>
      </trkpt>
      <trkpt lat="42.3423210" lon="-3.7038730">
        <ele>846.2</ele>
        <time>2022-08-29T13:25:36Z</time>
      </trkpt>
      <trkpt lat="42.3423210" lon="-3.7038730">
        <ele>846.4</ele>
        <time>2022-08-29T13:25:37Z</time>
      </trkpt>
      <trkpt lat="42.3423210" lon="-3.7038730">
        <ele>846.4</ele>
        <time>2022-08-29T13:25:38Z</time>
      </trkpt>
      <trkpt lat="42.3423210" lon="-3.7038730">
        <ele>846.2</ele>
        <time>2022-08-29T13:25:39Z</time>
      </trkpt>
      <trkpt lat="42.3423210" lon="-3.7038730">
        <ele>846.2</ele>
        <time>2022-08-29T13:25:40Z</time>
      </trkpt>
      <trkpt lat="42.3423210" lon="-3.7038730">
        <ele>846.4</ele>
        <time>2022-08-29T13:25:41Z</time>
      </trkpt>
      <trkpt lat="42.3423210" lon="-3.7038730">
        <ele>846.2</ele>
        <time>2022-08-29T13:25:42Z</time>
      </trkpt>
      <trkpt lat="42.3423210" lon="-3.7038730">
        <ele>846.4</ele>
        <time>2022-08-29T13:25:43Z</time>
      </trkpt>
      <trkpt lat="42.3423210" lon="-3.7038730">
        <ele>846.2</ele>
        <time>2022-08-29T13:25:44Z</time>
      </trkpt>
      <trkpt lat="42.3423210" lon="-3.7038730">
        <ele>846.2</ele>
        <time>2022-08-29T13:25:45Z</time>
      </trkpt>
      <trkpt lat="42.3423210" lon="-3.7038730">
        <ele>846.4</ele>
        <time>2022-08-29T13:25:46Z</time>
      </trkpt>
      <trkpt lat="42.3423210" lon="-3.7038730">
        <ele>846.2</ele>
        <time>2022-08-29T13:25:47Z</time>
      </trkpt>
      <trkpt lat="42.3423210" lon="-3.7038730">
        <ele>846.2</ele>
        <time>2022-08-29T13:25:48Z</time>
      </trkpt>
      <trkpt lat="42.3423210" lon="-3.7038730">
        <ele>846.2</ele>
        <time>2022-08-29T13:25:49Z</time>
      </trkpt>
      <trkpt lat="42.3423210" lon="-3.7038730">
        <ele>846.2</ele>
        <time>2022-08-29T13:25:50Z</time>
      </trkpt>
      <trkpt lat="42.3423210" lon="-3.7038730">
        <ele>846.2</ele>
        <time>2022-08-29T13:25:51Z</time>
      </trkpt>
      <trkpt lat="42.3423210" lon="-3.7038730">
        <ele>846.2</ele>
        <time>2022-08-29T13:25:52Z</time>
      </trkpt>
      <trkpt lat="42.3423210" lon="-3.7038730">
        <ele>846.4</ele>
        <time>2022-08-29T13:25:53Z</time>
      </trkpt>
      <trkpt lat="42.3423210" lon="-3.7038730">
        <ele>846.4</ele>
        <time>2022-08-29T13:25:54Z</time>
      </trkpt>
      <trkpt lat="42.3423210" lon="-3.7038730">
        <ele>846.4</ele>
        <time>2022-08-29T13:25:55Z</time>
      </trkpt>
      <trkpt lat="42.3423210" lon="-3.7038730">
        <ele>846.2</ele>
        <time>2022-08-29T13:25:56Z</time>
      </trkpt>
      <trkpt lat="42.3423210" lon="-3.7038730">
        <ele>846.2</ele>
        <time>2022-08-29T13:25:57Z</time>
      </trkpt>
      <trkpt lat="42.3423210" lon="-3.7038730">
        <ele>846.2</ele>
        <time>2022-08-29T13:25:58Z</time>
      </trkpt>
      <trkpt lat="42.3423210" lon="-3.7038730">
        <ele>846.2</ele>
        <time>2022-08-29T13:25:59Z</time>
      </trkpt>
      <trkpt lat="42.3423210" lon="-3.7038730">
        <ele>846.2</ele>
        <time>2022-08-29T13:26:00Z</time>
      </trkpt>
      <trkpt lat="42.3423210" lon="-3.7038730">
        <ele>846.0</ele>
        <time>2022-08-29T13:26:01Z</time>
      </trkpt>
      <trkpt lat="42.3423210" lon="-3.7038730">
        <ele>846.2</ele>
        <time>2022-08-29T13:26:02Z</time>
      </trkpt>
      <trkpt lat="42.3423210" lon="-3.7038730">
        <ele>846.2</ele>
        <time>2022-08-29T13:26:03Z</time>
      </trkpt>
      <trkpt lat="42.3423210" lon="-3.7038730">
        <ele>846.2</ele>
        <time>2022-08-29T13:26:04Z</time>
      </trkpt>
      <trkpt lat="42.3423210" lon="-3.7038730">
        <ele>846.2</ele>
        <time>2022-08-29T13:26:05Z</time>
      </trkpt>
      <trkpt lat="42.3423210" lon="-3.7038730">
        <ele>846.2</ele>
        <time>2022-08-29T13:26:06Z</time>
      </trkpt>
      <trkpt lat="42.3423210" lon="-3.7038730">
        <ele>846.4</ele>
        <time>2022-08-29T13:26:07Z</time>
      </trkpt>
      <trkpt lat="42.3423210" lon="-3.7038730">
        <ele>846.2</ele>
        <time>2022-08-29T13:26:08Z</time>
      </trkpt>
      <trkpt lat="42.3423210" lon="-3.7038730">
        <ele>846.2</ele>
        <time>2022-08-29T13:26:09Z</time>
      </trkpt>
      <trkpt lat="42.3423210" lon="-3.7038730">
        <ele>846.2</ele>
        <time>2022-08-29T13:26:10Z</time>
      </trkpt>
      <trkpt lat="42.3423210" lon="-3.7038730">
        <ele>846.2</ele>
        <time>2022-08-29T13:26:11Z</time>
      </trkpt>
      <trkpt lat="42.3423210" lon="-3.7038730">
        <ele>846.2</ele>
        <time>2022-08-29T13:26:12Z</time>
      </trkpt>
      <trkpt lat="42.3423210" lon="-3.7038730">
        <ele>846.4</ele>
        <time>2022-08-29T13:26:13Z</time>
      </trkpt>
      <trkpt lat="42.3423210" lon="-3.7038730">
        <ele>846.2</ele>
        <time>2022-08-29T13:26:14Z</time>
      </trkpt>
      <trkpt lat="42.3423210" lon="-3.7038730">
        <ele>846.2</ele>
        <time>2022-08-29T13:26:15Z</time>
      </trkpt>
      <trkpt lat="42.3423210" lon="-3.7038730">
        <ele>846.2</ele>
        <time>2022-08-29T13:26:16Z</time>
      </trkpt>
      <trkpt lat="42.3423210" lon="-3.7038730">
        <ele>846.2</ele>
        <time>2022-08-29T13:26:17Z</time>
      </trkpt>
      <trkpt lat="42.3423210" lon="-3.7038730">
        <ele>846.4</ele>
        <time>2022-08-29T13:26:18Z</time>
      </trkpt>
      <trkpt lat="42.3423210" lon="-3.7038730">
        <ele>846.4</ele>
        <time>2022-08-29T13:26:19Z</time>
      </trkpt>
      <trkpt lat="42.3423210" lon="-3.7038730">
        <ele>846.2</ele>
        <time>2022-08-29T13:26:20Z</time>
      </trkpt>
      <trkpt lat="42.3423210" lon="-3.7038730">
        <ele>846.2</ele>
        <time>2022-08-29T13:26:21Z</time>
      </trkpt>
      <trkpt lat="42.3423210" lon="-3.7038730">
        <ele>846.2</ele>
        <time>2022-08-29T13:26:22Z</time>
      </trkpt>
      <trkpt lat="42.3423210" lon="-3.7038730">
        <ele>846.2</ele>
        <time>2022-08-29T13:26:23Z</time>
      </trkpt>
      <trkpt lat="42.3423210" lon="-3.7038730">
        <ele>846.4</ele>
        <time>2022-08-29T13:26:24Z</time>
      </trkpt>
      <trkpt lat="42.3423210" lon="-3.7038730">
        <ele>846.2</ele>
        <time>2022-08-29T13:26:25Z</time>
      </trkpt>
      <trkpt lat="42.3423210" lon="-3.7038730">
        <ele>846.2</ele>
        <time>2022-08-29T13:26:26Z</time>
      </trkpt>
      <trkpt lat="42.3423210" lon="-3.7038730">
        <ele>846.2</ele>
        <time>2022-08-29T13:26:27Z</time>
      </trkpt>
      <trkpt lat="42.3423210" lon="-3.7038730">
        <ele>846.2</ele>
        <time>2022-08-29T13:26:28Z</time>
      </trkpt>
      <trkpt lat="42.3423210" lon="-3.7038730">
        <ele>846.4</ele>
        <time>2022-08-29T13:26:29Z</time>
      </trkpt>
      <trkpt lat="42.3423210" lon="-3.7038730">
        <ele>846.4</ele>
        <time>2022-08-29T13:26:30Z</time>
      </trkpt>
      <trkpt lat="42.3423210" lon="-3.7038730">
        <ele>846.4</ele>
        <time>2022-08-29T13:26:31Z</time>
      </trkpt>
      <trkpt lat="42.3423210" lon="-3.7038730">
        <ele>846.2</ele>
        <time>2022-08-29T13:26:32Z</time>
      </trkpt>
      <trkpt lat="42.3423210" lon="-3.7038730">
        <ele>846.2</ele>
        <time>2022-08-29T13:26:33Z</time>
      </trkpt>
      <trkpt lat="42.3423210" lon="-3.7038730">
        <ele>846.4</ele>
        <time>2022-08-29T13:26:34Z</time>
      </trkpt>
      <trkpt lat="42.3423210" lon="-3.7038730">
        <ele>846.2</ele>
        <time>2022-08-29T13:26:35Z</time>
      </trkpt>
      <trkpt lat="42.3423210" lon="-3.7038730">
        <ele>846.4</ele>
        <time>2022-08-29T13:26:36Z</time>
      </trkpt>
      <trkpt lat="42.3423210" lon="-3.7038730">
        <ele>846.2</ele>
        <time>2022-08-29T13:26:37Z</time>
      </trkpt>
      <trkpt lat="42.3423210" lon="-3.7038730">
        <ele>846.4</ele>
        <time>2022-08-29T13:26:38Z</time>
      </trkpt>
      <trkpt lat="42.3423210" lon="-3.7038730">
        <ele>846.2</ele>
        <time>2022-08-29T13:26:39Z</time>
      </trkpt>
      <trkpt lat="42.3423210" lon="-3.7038730">
        <ele>846.4</ele>
        <time>2022-08-29T13:26:40Z</time>
      </trkpt>
      <trkpt lat="42.3423210" lon="-3.7038730">
        <ele>846.4</ele>
        <time>2022-08-29T13:26:41Z</time>
      </trkpt>
      <trkpt lat="42.3423210" lon="-3.7038730">
        <ele>846.4</ele>
        <time>2022-08-29T13:26:42Z</time>
      </trkpt>
      <trkpt lat="42.3423210" lon="-3.7038730">
        <ele>846.4</ele>
        <time>2022-08-29T13:26:43Z</time>
      </trkpt>
      <trkpt lat="42.3423210" lon="-3.7038730">
        <ele>846.4</ele>
        <time>2022-08-29T13:26:44Z</time>
      </trkpt>
      <trkpt lat="42.3423210" lon="-3.7038730">
        <ele>846.2</ele>
        <time>2022-08-29T13:26:45Z</time>
      </trkpt>
      <trkpt lat="42.3423210" lon="-3.7038730">
        <ele>846.4</ele>
        <time>2022-08-29T13:26:46Z</time>
      </trkpt>
      <trkpt lat="42.3423210" lon="-3.7038730">
        <ele>846.4</ele>
        <time>2022-08-29T13:26:47Z</time>
      </trkpt>
      <trkpt lat="42.3423210" lon="-3.7038730">
        <ele>846.4</ele>
        <time>2022-08-29T13:26:48Z</time>
      </trkpt>
      <trkpt lat="42.3423210" lon="-3.7038730">
        <ele>846.4</ele>
        <time>2022-08-29T13:26:49Z</time>
      </trkpt>
      <trkpt lat="42.3423210" lon="-3.7038730">
        <ele>846.4</ele>
        <time>2022-08-29T13:26:50Z</time>
      </trkpt>
      <trkpt lat="42.3423210" lon="-3.7038730">
        <ele>846.4</ele>
        <time>2022-08-29T13:26:51Z</time>
      </trkpt>
      <trkpt lat="42.3423210" lon="-3.7038730">
        <ele>846.4</ele>
        <time>2022-08-29T13:26:52Z</time>
      </trkpt>
      <trkpt lat="42.3423210" lon="-3.7038730">
        <ele>846.6</ele>
        <time>2022-08-29T13:26:53Z</time>
      </trkpt>
      <trkpt lat="42.3423210" lon="-3.7038730">
        <ele>846.4</ele>
        <time>2022-08-29T13:26:54Z</time>
      </trkpt>
      <trkpt lat="42.3423210" lon="-3.7038730">
        <ele>846.4</ele>
        <time>2022-08-29T13:26:55Z</time>
      </trkpt>
      <trkpt lat="42.3423210" lon="-3.7038730">
        <ele>846.4</ele>
        <time>2022-08-29T13:26:56Z</time>
      </trkpt>
      <trkpt lat="42.3423210" lon="-3.7038730">
        <ele>846.4</ele>
        <time>2022-08-29T13:26:57Z</time>
      </trkpt>
      <trkpt lat="42.3423210" lon="-3.7038730">
        <ele>846.4</ele>
        <time>2022-08-29T13:26:58Z</time>
      </trkpt>
      <trkpt lat="42.3423210" lon="-3.7038730">
        <ele>846.4</ele>
        <time>2022-08-29T13:26:59Z</time>
      </trkpt>
      <trkpt lat="42.3423210" lon="-3.7038730">
        <ele>846.6</ele>
        <time>2022-08-29T13:27:00Z</time>
      </trkpt>
      <trkpt lat="42.3423210" lon="-3.7038730">
        <ele>846.6</ele>
        <time>2022-08-29T13:27:01Z</time>
      </trkpt>
      <trkpt lat="42.3423210" lon="-3.7038730">
        <ele>846.6</ele>
        <time>2022-08-29T13:27:02Z</time>
      </trkpt>
      <trkpt lat="42.3423210" lon="-3.7038730">
        <ele>846.6</ele>
        <time>2022-08-29T13:27:03Z</time>
      </trkpt>
      <trkpt lat="42.3423210" lon="-3.7038730">
        <ele>846.4</ele>
        <time>2022-08-29T13:27:04Z</time>
      </trkpt>
      <trkpt lat="42.3423210" lon="-3.7038730">
        <ele>846.4</ele>
        <time>2022-08-29T13:27:05Z</time>
      </trkpt>
      <trkpt lat="42.3423210" lon="-3.7038730">
        <ele>846.4</ele>
        <time>2022-08-29T13:27:06Z</time>
      </trkpt>
      <trkpt lat="42.3423210" lon="-3.7038730">
        <ele>846.4</ele>
        <time>2022-08-29T13:27:07Z</time>
      </trkpt>
      <trkpt lat="42.3423210" lon="-3.7038730">
        <ele>846.4</ele>
        <time>2022-08-29T13:27:08Z</time>
      </trkpt>
      <trkpt lat="42.3423210" lon="-3.7038730">
        <ele>846.4</ele>
        <time>2022-08-29T13:27:09Z</time>
      </trkpt>
      <trkpt lat="42.3423210" lon="-3.7038730">
        <ele>846.4</ele>
        <time>2022-08-29T13:27:10Z</time>
      </trkpt>
      <trkpt lat="42.3423210" lon="-3.7038730">
        <ele>846.6</ele>
        <time>2022-08-29T13:27:11Z</time>
      </trkpt>
      <trkpt lat="42.3423210" lon="-3.7038730">
        <ele>846.4</ele>
        <time>2022-08-29T13:27:12Z</time>
      </trkpt>
      <trkpt lat="42.3423210" lon="-3.7038730">
        <ele>846.4</ele>
        <time>2022-08-29T13:27:13Z</time>
      </trkpt>
      <trkpt lat="42.3423210" lon="-3.7038730">
        <ele>846.6</ele>
        <time>2022-08-29T13:27:14Z</time>
      </trkpt>
      <trkpt lat="42.3423210" lon="-3.7038730">
        <ele>846.6</ele>
        <time>2022-08-29T13:27:15Z</time>
      </trkpt>
      <trkpt lat="42.3423210" lon="-3.7038730">
        <ele>846.6</ele>
        <time>2022-08-29T13:27:16Z</time>
      </trkpt>
      <trkpt lat="42.3423210" lon="-3.7038730">
        <ele>846.4</ele>
        <time>2022-08-29T13:27:17Z</time>
      </trkpt>
      <trkpt lat="42.3423210" lon="-3.7038730">
        <ele>846.4</ele>
        <time>2022-08-29T13:27:18Z</time>
      </trkpt>
      <trkpt lat="42.3423210" lon="-3.7038730">
        <ele>846.4</ele>
        <time>2022-08-29T13:27:19Z</time>
      </trkpt>
      <trkpt lat="42.3423210" lon="-3.7038730">
        <ele>846.6</ele>
        <time>2022-08-29T13:27:20Z</time>
      </trkpt>
      <trkpt lat="42.3423210" lon="-3.7038730">
        <ele>846.6</ele>
        <time>2022-08-29T13:27:21Z</time>
      </trkpt>
      <trkpt lat="42.3423210" lon="-3.7038730">
        <ele>846.6</ele>
        <time>2022-08-29T13:27:22Z</time>
      </trkpt>
      <trkpt lat="42.3423210" lon="-3.7038730">
        <ele>846.6</ele>
        <time>2022-08-29T13:27:23Z</time>
      </trkpt>
      <trkpt lat="42.3423210" lon="-3.7038730">
        <ele>846.6</ele>
        <time>2022-08-29T13:27:24Z</time>
      </trkpt>
      <trkpt lat="42.3423210" lon="-3.7038730">
        <ele>846.6</ele>
        <time>2022-08-29T13:27:25Z</time>
      </trkpt>
      <trkpt lat="42.3423210" lon="-3.7038730">
        <ele>846.8</ele>
        <time>2022-08-29T13:27:26Z</time>
      </trkpt>
      <trkpt lat="42.3423210" lon="-3.7038730">
        <ele>846.6</ele>
        <time>2022-08-29T13:27:27Z</time>
      </trkpt>
      <trkpt lat="42.3423210" lon="-3.7038730">
        <ele>846.8</ele>
        <time>2022-08-29T13:27:28Z</time>
      </trkpt>
      <trkpt lat="42.3423210" lon="-3.7038730">
        <ele>846.6</ele>
        <time>2022-08-29T13:27:29Z</time>
      </trkpt>
      <trkpt lat="42.3423210" lon="-3.7038730">
        <ele>846.8</ele>
        <time>2022-08-29T13:27:30Z</time>
      </trkpt>
      <trkpt lat="42.3423210" lon="-3.7038730">
        <ele>846.8</ele>
        <time>2022-08-29T13:27:31Z</time>
      </trkpt>
      <trkpt lat="42.3423210" lon="-3.7038730">
        <ele>846.8</ele>
        <time>2022-08-29T13:27:32Z</time>
      </trkpt>
      <trkpt lat="42.3423210" lon="-3.7038730">
        <ele>846.8</ele>
        <time>2022-08-29T13:27:33Z</time>
      </trkpt>
      <trkpt lat="42.3423210" lon="-3.7038730">
        <ele>846.8</ele>
        <time>2022-08-29T13:27:34Z</time>
      </trkpt>
      <trkpt lat="42.3423210" lon="-3.7038730">
        <ele>846.8</ele>
        <time>2022-08-29T13:27:35Z</time>
      </trkpt>
      <trkpt lat="42.3423210" lon="-3.7038730">
        <ele>846.8</ele>
        <time>2022-08-29T13:27:36Z</time>
      </trkpt>
      <trkpt lat="42.3423210" lon="-3.7038730">
        <ele>847.0</ele>
        <time>2022-08-29T13:27:37Z</time>
      </trkpt>
      <trkpt lat="42.3423210" lon="-3.7038730">
        <ele>846.8</ele>
        <time>2022-08-29T13:27:38Z</time>
      </trkpt>
      <trkpt lat="42.3423210" lon="-3.7038730">
        <ele>846.8</ele>
        <time>2022-08-29T13:27:39Z</time>
      </trkpt>
      <trkpt lat="42.3423210" lon="-3.7038730">
        <ele>847.0</ele>
        <time>2022-08-29T13:27:40Z</time>
      </trkpt>
      <trkpt lat="42.3423210" lon="-3.7038730">
        <ele>847.0</ele>
        <time>2022-08-29T13:27:41Z</time>
      </trkpt>
      <trkpt lat="42.3423210" lon="-3.7038730">
        <ele>847.0</ele>
        <time>2022-08-29T13:27:42Z</time>
      </trkpt>
      <trkpt lat="42.3423210" lon="-3.7038730">
        <ele>847.0</ele>
        <time>2022-08-29T13:27:43Z</time>
      </trkpt>
      <trkpt lat="42.3423210" lon="-3.7038730">
        <ele>847.0</ele>
        <time>2022-08-29T13:27:44Z</time>
      </trkpt>
      <trkpt lat="42.3423210" lon="-3.7038730">
        <ele>847.2</ele>
        <time>2022-08-29T13:27:45Z</time>
      </trkpt>
      <trkpt lat="42.3423210" lon="-3.7038730">
        <ele>847.2</ele>
        <time>2022-08-29T13:27:46Z</time>
      </trkpt>
      <trkpt lat="42.3423210" lon="-3.7038730">
        <ele>847.0</ele>
        <time>2022-08-29T13:27:47Z</time>
      </trkpt>
      <trkpt lat="42.3423210" lon="-3.7038730">
        <ele>847.0</ele>
        <time>2022-08-29T13:27:48Z</time>
      </trkpt>
      <trkpt lat="42.3423210" lon="-3.7038730">
        <ele>847.0</ele>
        <time>2022-08-29T13:27:49Z</time>
      </trkpt>
      <trkpt lat="42.3423210" lon="-3.7038730">
        <ele>847.0</ele>
        <time>2022-08-29T13:27:50Z</time>
      </trkpt>
      <trkpt lat="42.3423210" lon="-3.7038730">
        <ele>847.0</ele>
        <time>2022-08-29T13:27:51Z</time>
      </trkpt>
      <trkpt lat="42.3423210" lon="-3.7038730">
        <ele>847.2</ele>
        <time>2022-08-29T13:27:52Z</time>
      </trkpt>
      <trkpt lat="42.3423210" lon="-3.7038730">
        <ele>847.2</ele>
        <time>2022-08-29T13:27:53Z</time>
      </trkpt>
      <trkpt lat="42.3423210" lon="-3.7038730">
        <ele>847.2</ele>
        <time>2022-08-29T13:27:54Z</time>
      </trkpt>
      <trkpt lat="42.3423210" lon="-3.7038730">
        <ele>847.2</ele>
        <time>2022-08-29T13:27:55Z</time>
      </trkpt>
      <trkpt lat="42.3423210" lon="-3.7038730">
        <ele>847.2</ele>
        <time>2022-08-29T13:27:56Z</time>
      </trkpt>
      <trkpt lat="42.3423210" lon="-3.7038730">
        <ele>847.0</ele>
        <time>2022-08-29T13:27:57Z</time>
      </trkpt>
      <trkpt lat="42.3423210" lon="-3.7038730">
        <ele>847.0</ele>
        <time>2022-08-29T13:27:58Z</time>
      </trkpt>
      <trkpt lat="42.3423210" lon="-3.7038730">
        <ele>847.2</ele>
        <time>2022-08-29T13:27:59Z</time>
      </trkpt>
      <trkpt lat="42.3423210" lon="-3.7038730">
        <ele>847.2</ele>
        <time>2022-08-29T13:28:00Z</time>
      </trkpt>
      <trkpt lat="42.3423210" lon="-3.7038730">
        <ele>847.2</ele>
        <time>2022-08-29T13:28:01Z</time>
      </trkpt>
      <trkpt lat="42.3423210" lon="-3.7038730">
        <ele>847.2</ele>
        <time>2022-08-29T13:28:02Z</time>
      </trkpt>
      <trkpt lat="42.3423210" lon="-3.7038730">
        <ele>847.2</ele>
        <time>2022-08-29T13:28:03Z</time>
      </trkpt>
      <trkpt lat="42.3423210" lon="-3.7038730">
        <ele>847.4</ele>
        <time>2022-08-29T13:28:04Z</time>
      </trkpt>
      <trkpt lat="42.3423210" lon="-3.7038730">
        <ele>847.2</ele>
        <time>2022-08-29T13:28:05Z</time>
      </trkpt>
      <trkpt lat="42.3423210" lon="-3.7038730">
        <ele>847.2</ele>
        <time>2022-08-29T13:28:06Z</time>
      </trkpt>
      <trkpt lat="42.3423210" lon="-3.7038730">
        <ele>847.2</ele>
        <time>2022-08-29T13:28:07Z</time>
      </trkpt>
      <trkpt lat="42.3423210" lon="-3.7038730">
        <ele>847.4</ele>
        <time>2022-08-29T13:28:08Z</time>
      </trkpt>
      <trkpt lat="42.3423210" lon="-3.7038730">
        <ele>847.2</ele>
        <time>2022-08-29T13:28:09Z</time>
      </trkpt>
      <trkpt lat="42.3423210" lon="-3.7038730">
        <ele>847.2</ele>
        <time>2022-08-29T13:28:10Z</time>
      </trkpt>
      <trkpt lat="42.3423210" lon="-3.7038730">
        <ele>847.2</ele>
        <time>2022-08-29T13:28:11Z</time>
      </trkpt>
      <trkpt lat="42.3423210" lon="-3.7038730">
        <ele>847.4</ele>
        <time>2022-08-29T13:28:12Z</time>
      </trkpt>
      <trkpt lat="42.3423210" lon="-3.7038730">
        <ele>847.2</ele>
        <time>2022-08-29T13:28:13Z</time>
      </trkpt>
      <trkpt lat="42.3423210" lon="-3.7038730">
        <ele>847.2</ele>
        <time>2022-08-29T13:28:14Z</time>
      </trkpt>
      <trkpt lat="42.3423210" lon="-3.7038730">
        <ele>847.2</ele>
        <time>2022-08-29T13:28:15Z</time>
      </trkpt>
      <trkpt lat="42.3423210" lon="-3.7038730">
        <ele>847.4</ele>
        <time>2022-08-29T13:28:16Z</time>
      </trkpt>
      <trkpt lat="42.3423210" lon="-3.7038730">
        <ele>847.4</ele>
        <time>2022-08-29T13:28:17Z</time>
      </trkpt>
      <trkpt lat="42.3423210" lon="-3.7038730">
        <ele>847.2</ele>
        <time>2022-08-29T13:28:18Z</time>
      </trkpt>
      <trkpt lat="42.3423210" lon="-3.7038730">
        <ele>847.2</ele>
        <time>2022-08-29T13:28:19Z</time>
      </trkpt>
      <trkpt lat="42.3423210" lon="-3.7038730">
        <ele>847.4</ele>
        <time>2022-08-29T13:28:20Z</time>
      </trkpt>
      <trkpt lat="42.3423210" lon="-3.7038730">
        <ele>847.4</ele>
        <time>2022-08-29T13:28:21Z</time>
      </trkpt>
      <trkpt lat="42.3423210" lon="-3.7038730">
        <ele>847.4</ele>
        <time>2022-08-29T13:28:22Z</time>
      </trkpt>
      <trkpt lat="42.3423210" lon="-3.7038730">
        <ele>847.2</ele>
        <time>2022-08-29T13:28:23Z</time>
      </trkpt>
      <trkpt lat="42.3423210" lon="-3.7038730">
        <ele>847.4</ele>
        <time>2022-08-29T13:28:24Z</time>
      </trkpt>
      <trkpt lat="42.3423210" lon="-3.7038730">
        <ele>847.4</ele>
        <time>2022-08-29T13:28:25Z</time>
      </trkpt>
      <trkpt lat="42.3423210" lon="-3.7038730">
        <ele>847.4</ele>
        <time>2022-08-29T13:28:26Z</time>
      </trkpt>
      <trkpt lat="42.3423210" lon="-3.7038730">
        <ele>847.4</ele>
        <time>2022-08-29T13:28:27Z</time>
      </trkpt>
      <trkpt lat="42.3423210" lon="-3.7038730">
        <ele>847.4</ele>
        <time>2022-08-29T13:28:28Z</time>
      </trkpt>
      <trkpt lat="42.3423210" lon="-3.7038730">
        <ele>847.4</ele>
        <time>2022-08-29T13:28:29Z</time>
      </trkpt>
      <trkpt lat="42.3423210" lon="-3.7038730">
        <ele>847.4</ele>
        <time>2022-08-29T13:28:30Z</time>
      </trkpt>
      <trkpt lat="42.3423210" lon="-3.7038730">
        <ele>847.4</ele>
        <time>2022-08-29T13:28:31Z</time>
      </trkpt>
      <trkpt lat="42.3423210" lon="-3.7038730">
        <ele>847.4</ele>
        <time>2022-08-29T13:28:32Z</time>
      </trkpt>
      <trkpt lat="42.3423210" lon="-3.7038730">
        <ele>847.4</ele>
        <time>2022-08-29T13:28:33Z</time>
      </trkpt>
      <trkpt lat="42.3423210" lon="-3.7038730">
        <ele>847.4</ele>
        <time>2022-08-29T13:28:34Z</time>
      </trkpt>
      <trkpt lat="42.3423210" lon="-3.7038730">
        <ele>847.4</ele>
        <time>2022-08-29T13:28:35Z</time>
      </trkpt>
      <trkpt lat="42.3423210" lon="-3.7038730">
        <ele>847.6</ele>
        <time>2022-08-29T13:28:36Z</time>
      </trkpt>
      <trkpt lat="42.3423210" lon="-3.7038730">
        <ele>847.4</ele>
        <time>2022-08-29T13:28:37Z</time>
      </trkpt>
      <trkpt lat="42.3423210" lon="-3.7038730">
        <ele>847.6</ele>
        <time>2022-08-29T13:28:38Z</time>
      </trkpt>
      <trkpt lat="42.3423210" lon="-3.7038730">
        <ele>847.4</ele>
        <time>2022-08-29T13:28:39Z</time>
      </trkpt>
      <trkpt lat="42.3423210" lon="-3.7038730">
        <ele>847.6</ele>
        <time>2022-08-29T13:28:40Z</time>
      </trkpt>
      <trkpt lat="42.3423210" lon="-3.7038730">
        <ele>847.4</ele>
        <time>2022-08-29T13:28:41Z</time>
      </trkpt>
      <trkpt lat="42.3423210" lon="-3.7038730">
        <ele>847.6</ele>
        <time>2022-08-29T13:28:42Z</time>
      </trkpt>
      <trkpt lat="42.3423210" lon="-3.7038730">
        <ele>847.6</ele>
        <time>2022-08-29T13:28:43Z</time>
      </trkpt>
      <trkpt lat="42.3423210" lon="-3.7038730">
        <ele>847.6</ele>
        <time>2022-08-29T13:28:44Z</time>
      </trkpt>
      <trkpt lat="42.3423210" lon="-3.7038730">
        <ele>847.6</ele>
        <time>2022-08-29T13:28:45Z</time>
      </trkpt>
      <trkpt lat="42.3423210" lon="-3.7038730">
        <ele>847.6</ele>
        <time>2022-08-29T13:28:46Z</time>
      </trkpt>
      <trkpt lat="42.3423210" lon="-3.7038730">
        <ele>847.6</ele>
        <time>2022-08-29T13:28:47Z</time>
      </trkpt>
      <trkpt lat="42.3423210" lon="-3.7038730">
        <ele>847.4</ele>
        <time>2022-08-29T13:28:48Z</time>
      </trkpt>
      <trkpt lat="42.3423210" lon="-3.7038730">
        <ele>847.4</ele>
        <time>2022-08-29T13:28:49Z</time>
      </trkpt>
      <trkpt lat="42.3423210" lon="-3.7038730">
        <ele>847.4</ele>
        <time>2022-08-29T13:28:50Z</time>
      </trkpt>
      <trkpt lat="42.3423210" lon="-3.7038730">
        <ele>847.6</ele>
        <time>2022-08-29T13:28:51Z</time>
      </trkpt>
      <trkpt lat="42.3423210" lon="-3.7038730">
        <ele>847.6</ele>
        <time>2022-08-29T13:28:52Z</time>
      </trkpt>
      <trkpt lat="42.3423210" lon="-3.7038730">
        <ele>847.4</ele>
        <time>2022-08-29T13:28:53Z</time>
      </trkpt>
      <trkpt lat="42.3423210" lon="-3.7038730">
        <ele>847.6</ele>
        <time>2022-08-29T13:28:54Z</time>
      </trkpt>
      <trkpt lat="42.3423210" lon="-3.7038730">
        <ele>847.6</ele>
        <time>2022-08-29T13:28:55Z</time>
      </trkpt>
      <trkpt lat="42.3423210" lon="-3.7038730">
        <ele>847.4</ele>
        <time>2022-08-29T13:28:56Z</time>
      </trkpt>
      <trkpt lat="42.3423210" lon="-3.7038730">
        <ele>847.4</ele>
        <time>2022-08-29T13:28:57Z</time>
      </trkpt>
      <trkpt lat="42.3423210" lon="-3.7038730">
        <ele>847.8</ele>
        <time>2022-08-29T13:28:58Z</time>
      </trkpt>
      <trkpt lat="42.3423210" lon="-3.7038730">
        <ele>847.4</ele>
        <time>2022-08-29T13:28:59Z</time>
      </trkpt>
      <trkpt lat="42.3423210" lon="-3.7038730">
        <ele>847.6</ele>
        <time>2022-08-29T13:29:00Z</time>
      </trkpt>
      <trkpt lat="42.3423210" lon="-3.7038730">
        <ele>847.6</ele>
        <time>2022-08-29T13:29:01Z</time>
      </trkpt>
      <trkpt lat="42.3423210" lon="-3.7038730">
        <ele>847.6</ele>
        <time>2022-08-29T13:29:02Z</time>
      </trkpt>
      <trkpt lat="42.3423210" lon="-3.7038730">
        <ele>847.8</ele>
        <time>2022-08-29T13:29:03Z</time>
      </trkpt>
      <trkpt lat="42.3423210" lon="-3.7038730">
        <ele>847.8</ele>
        <time>2022-08-29T13:29:04Z</time>
      </trkpt>
      <trkpt lat="42.3423210" lon="-3.7038730">
        <ele>847.8</ele>
        <time>2022-08-29T13:29:05Z</time>
      </trkpt>
      <trkpt lat="42.3423210" lon="-3.7038730">
        <ele>847.8</ele>
        <time>2022-08-29T13:29:06Z</time>
      </trkpt>
      <trkpt lat="42.3423210" lon="-3.7038730">
        <ele>847.6</ele>
        <time>2022-08-29T13:29:07Z</time>
      </trkpt>
      <trkpt lat="42.3423210" lon="-3.7038730">
        <ele>847.6</ele>
        <time>2022-08-29T13:29:08Z</time>
      </trkpt>
      <trkpt lat="42.3423210" lon="-3.7038730">
        <ele>847.6</ele>
        <time>2022-08-29T13:29:09Z</time>
      </trkpt>
      <trkpt lat="42.3423210" lon="-3.7038730">
        <ele>847.6</ele>
        <time>2022-08-29T13:29:10Z</time>
      </trkpt>
      <trkpt lat="42.3423210" lon="-3.7038730">
        <ele>847.8</ele>
        <time>2022-08-29T13:29:11Z</time>
      </trkpt>
      <trkpt lat="42.3423210" lon="-3.7038730">
        <ele>847.8</ele>
        <time>2022-08-29T13:29:12Z</time>
      </trkpt>
      <trkpt lat="42.3423210" lon="-3.7038730">
        <ele>847.8</ele>
        <time>2022-08-29T13:29:13Z</time>
      </trkpt>
      <trkpt lat="42.3423210" lon="-3.7038730">
        <ele>847.6</ele>
        <time>2022-08-29T13:29:14Z</time>
      </trkpt>
      <trkpt lat="42.3423210" lon="-3.7038730">
        <ele>847.6</ele>
        <time>2022-08-29T13:29:15Z</time>
      </trkpt>
      <trkpt lat="42.3423210" lon="-3.7038730">
        <ele>847.6</ele>
        <time>2022-08-29T13:29:16Z</time>
      </trkpt>
      <trkpt lat="42.3423210" lon="-3.7038730">
        <ele>847.8</ele>
        <time>2022-08-29T13:29:17Z</time>
      </trkpt>
      <trkpt lat="42.3423210" lon="-3.7038730">
        <ele>847.8</ele>
        <time>2022-08-29T13:29:18Z</time>
      </trkpt>
      <trkpt lat="42.3423210" lon="-3.7038730">
        <ele>847.8</ele>
        <time>2022-08-29T13:29:19Z</time>
      </trkpt>
      <trkpt lat="42.3423210" lon="-3.7038730">
        <ele>847.8</ele>
        <time>2022-08-29T13:29:20Z</time>
      </trkpt>
      <trkpt lat="42.3423210" lon="-3.7038730">
        <ele>847.8</ele>
        <time>2022-08-29T13:29:21Z</time>
      </trkpt>
      <trkpt lat="42.3423210" lon="-3.7038730">
        <ele>847.8</ele>
        <time>2022-08-29T13:29:22Z</time>
      </trkpt>
      <trkpt lat="42.3423210" lon="-3.7038730">
        <ele>847.8</ele>
        <time>2022-08-29T13:29:23Z</time>
      </trkpt>
      <trkpt lat="42.3423210" lon="-3.7038730">
        <ele>847.8</ele>
        <time>2022-08-29T13:29:24Z</time>
      </trkpt>
      <trkpt lat="42.3423210" lon="-3.7038730">
        <ele>847.8</ele>
        <time>2022-08-29T13:29:25Z</time>
      </trkpt>
      <trkpt lat="42.3423210" lon="-3.7038730">
        <ele>847.8</ele>
        <time>2022-08-29T13:29:26Z</time>
      </trkpt>
      <trkpt lat="42.3423210" lon="-3.7038730">
        <ele>847.8</ele>
        <time>2022-08-29T13:29:27Z</time>
      </trkpt>
      <trkpt lat="42.3423210" lon="-3.7038730">
        <ele>847.8</ele>
        <time>2022-08-29T13:29:28Z</time>
      </trkpt>
      <trkpt lat="42.3423210" lon="-3.7038730">
        <ele>847.8</ele>
        <time>2022-08-29T13:29:29Z</time>
      </trkpt>
      <trkpt lat="42.3423210" lon="-3.7038730">
        <ele>847.8</ele>
        <time>2022-08-29T13:29:30Z</time>
      </trkpt>
      <trkpt lat="42.3423210" lon="-3.7038730">
        <ele>847.8</ele>
        <time>2022-08-29T13:29:31Z</time>
      </trkpt>
      <trkpt lat="42.3423210" lon="-3.7038730">
        <ele>847.8</ele>
        <time>2022-08-29T13:29:32Z</time>
      </trkpt>
      <trkpt lat="42.3423210" lon="-3.7038730">
        <ele>848.0</ele>
        <time>2022-08-29T13:29:33Z</time>
      </trkpt>
      <trkpt lat="42.3423210" lon="-3.7038730">
        <ele>847.8</ele>
        <time>2022-08-29T13:29:34Z</time>
      </trkpt>
      <trkpt lat="42.3423210" lon="-3.7038730">
        <ele>848.0</ele>
        <time>2022-08-29T13:29:35Z</time>
      </trkpt>
      <trkpt lat="42.3423210" lon="-3.7038730">
        <ele>848.0</ele>
        <time>2022-08-29T13:29:36Z</time>
      </trkpt>
      <trkpt lat="42.3423210" lon="-3.7038730">
        <ele>848.0</ele>
        <time>2022-08-29T13:29:37Z</time>
      </trkpt>
      <trkpt lat="42.3423210" lon="-3.7038730">
        <ele>847.8</ele>
        <time>2022-08-29T13:29:38Z</time>
      </trkpt>
      <trkpt lat="42.3423210" lon="-3.7038730">
        <ele>847.8</ele>
        <time>2022-08-29T13:29:39Z</time>
      </trkpt>
      <trkpt lat="42.3423210" lon="-3.7038730">
        <ele>847.8</ele>
        <time>2022-08-29T13:29:40Z</time>
      </trkpt>
      <trkpt lat="42.3423210" lon="-3.7038730">
        <ele>847.8</ele>
        <time>2022-08-29T13:29:41Z</time>
      </trkpt>
      <trkpt lat="42.3423210" lon="-3.7038730">
        <ele>847.8</ele>
        <time>2022-08-29T13:29:42Z</time>
      </trkpt>
      <trkpt lat="42.3423210" lon="-3.7038730">
        <ele>847.8</ele>
        <time>2022-08-29T13:29:43Z</time>
      </trkpt>
      <trkpt lat="42.3423210" lon="-3.7038730">
        <ele>848.0</ele>
        <time>2022-08-29T13:29:44Z</time>
      </trkpt>
      <trkpt lat="42.3423210" lon="-3.7038730">
        <ele>847.8</ele>
        <time>2022-08-29T13:29:45Z</time>
      </trkpt>
      <trkpt lat="42.3423210" lon="-3.7038730">
        <ele>847.8</ele>
        <time>2022-08-29T13:29:46Z</time>
      </trkpt>
      <trkpt lat="42.3423210" lon="-3.7038730">
        <ele>847.8</ele>
        <time>2022-08-29T13:29:47Z</time>
      </trkpt>
      <trkpt lat="42.3423210" lon="-3.7038730">
        <ele>847.8</ele>
        <time>2022-08-29T13:29:48Z</time>
      </trkpt>
      <trkpt lat="42.3423210" lon="-3.7038730">
        <ele>847.8</ele>
        <time>2022-08-29T13:29:49Z</time>
      </trkpt>
      <trkpt lat="42.3423210" lon="-3.7038730">
        <ele>847.8</ele>
        <time>2022-08-29T13:29:50Z</time>
      </trkpt>
      <trkpt lat="42.3423210" lon="-3.7038730">
        <ele>847.8</ele>
        <time>2022-08-29T13:29:51Z</time>
      </trkpt>
      <trkpt lat="42.3423210" lon="-3.7038730">
        <ele>847.8</ele>
        <time>2022-08-29T13:29:52Z</time>
      </trkpt>
      <trkpt lat="42.3423210" lon="-3.7038730">
        <ele>847.8</ele>
        <time>2022-08-29T13:29:53Z</time>
      </trkpt>
      <trkpt lat="42.3423210" lon="-3.7038730">
        <ele>847.8</ele>
        <time>2022-08-29T13:29:54Z</time>
      </trkpt>
      <trkpt lat="42.3423210" lon="-3.7038730">
        <ele>847.8</ele>
        <time>2022-08-29T13:29:55Z</time>
      </trkpt>
      <trkpt lat="42.3423210" lon="-3.7038730">
        <ele>847.8</ele>
        <time>2022-08-29T13:29:56Z</time>
      </trkpt>
      <trkpt lat="42.3423210" lon="-3.7038730">
        <ele>847.8</ele>
        <time>2022-08-29T13:29:57Z</time>
      </trkpt>
      <trkpt lat="42.3423210" lon="-3.7038730">
        <ele>847.8</ele>
        <time>2022-08-29T13:29:58Z</time>
      </trkpt>
      <trkpt lat="42.3423210" lon="-3.7038730">
        <ele>847.8</ele>
        <time>2022-08-29T13:29:59Z</time>
      </trkpt>
      <trkpt lat="42.3423210" lon="-3.7038730">
        <ele>847.8</ele>
        <time>2022-08-29T13:30:00Z</time>
      </trkpt>
      <trkpt lat="42.3423210" lon="-3.7038730">
        <ele>848.0</ele>
        <time>2022-08-29T13:30:01Z</time>
      </trkpt>
      <trkpt lat="42.3423210" lon="-3.7038730">
        <ele>847.8</ele>
        <time>2022-08-29T13:30:02Z</time>
      </trkpt>
      <trkpt lat="42.3423210" lon="-3.7038730">
        <ele>847.8</ele>
        <time>2022-08-29T13:30:03Z</time>
      </trkpt>
      <trkpt lat="42.3423210" lon="-3.7038730">
        <ele>848.0</ele>
        <time>2022-08-29T13:30:04Z</time>
      </trkpt>
      <trkpt lat="42.3423210" lon="-3.7038730">
        <ele>847.8</ele>
        <time>2022-08-29T13:30:05Z</time>
      </trkpt>
      <trkpt lat="42.3423210" lon="-3.7038730">
        <ele>847.8</ele>
        <time>2022-08-29T13:30:06Z</time>
      </trkpt>
      <trkpt lat="42.3423210" lon="-3.7038730">
        <ele>848.0</ele>
        <time>2022-08-29T13:30:07Z</time>
      </trkpt>
      <trkpt lat="42.3423210" lon="-3.7038730">
        <ele>848.0</ele>
        <time>2022-08-29T13:30:08Z</time>
      </trkpt>
      <trkpt lat="42.3423210" lon="-3.7038730">
        <ele>848.0</ele>
        <time>2022-08-29T13:30:09Z</time>
      </trkpt>
      <trkpt lat="42.3423210" lon="-3.7038730">
        <ele>848.0</ele>
        <time>2022-08-29T13:30:10Z</time>
      </trkpt>
      <trkpt lat="42.3423210" lon="-3.7038730">
        <ele>847.8</ele>
        <time>2022-08-29T13:30:11Z</time>
      </trkpt>
      <trkpt lat="42.3423210" lon="-3.7038730">
        <ele>848.0</ele>
        <time>2022-08-29T13:30:12Z</time>
      </trkpt>
      <trkpt lat="42.3423210" lon="-3.7038730">
        <ele>848.0</ele>
        <time>2022-08-29T13:30:13Z</time>
      </trkpt>
      <trkpt lat="42.3423210" lon="-3.7038730">
        <ele>848.0</ele>
        <time>2022-08-29T13:30:14Z</time>
      </trkpt>
      <trkpt lat="42.3423210" lon="-3.7038730">
        <ele>848.0</ele>
        <time>2022-08-29T13:30:15Z</time>
      </trkpt>
      <trkpt lat="42.3423210" lon="-3.7038730">
        <ele>848.0</ele>
        <time>2022-08-29T13:30:16Z</time>
      </trkpt>
      <trkpt lat="42.3423210" lon="-3.7038730">
        <ele>848.0</ele>
        <time>2022-08-29T13:30:17Z</time>
      </trkpt>
      <trkpt lat="42.3423210" lon="-3.7038730">
        <ele>848.0</ele>
        <time>2022-08-29T13:30:18Z</time>
      </trkpt>
      <trkpt lat="42.3423210" lon="-3.7038730">
        <ele>848.0</ele>
        <time>2022-08-29T13:30:19Z</time>
      </trkpt>
      <trkpt lat="42.3423210" lon="-3.7038730">
        <ele>848.0</ele>
        <time>2022-08-29T13:30:20Z</time>
      </trkpt>
      <trkpt lat="42.3423210" lon="-3.7038730">
        <ele>848.0</ele>
        <time>2022-08-29T13:30:21Z</time>
      </trkpt>
      <trkpt lat="42.3423210" lon="-3.7038730">
        <ele>848.0</ele>
        <time>2022-08-29T13:30:22Z</time>
      </trkpt>
      <trkpt lat="42.3423210" lon="-3.7038730">
        <ele>848.0</ele>
        <time>2022-08-29T13:30:23Z</time>
      </trkpt>
      <trkpt lat="42.3423210" lon="-3.7038730">
        <ele>848.0</ele>
        <time>2022-08-29T13:30:24Z</time>
      </trkpt>
      <trkpt lat="42.3423210" lon="-3.7038730">
        <ele>848.0</ele>
        <time>2022-08-29T13:30:25Z</time>
      </trkpt>
    </trkseg>
  </trk>
</gpx>
